<?xml version="1.0" encoding="UTF-8" standalone="no" ?>
<gpx xmlns="http://www.topografix.com/GPX/1/1" xmlns:xsi="http://www.w3.org/2001/XMLSchema-instance" xsi:schemaLocation="http://www.topografix.com/GPX/1/1 http://www.topografix.com/GPX/1/1/gpx.xsd" version="1.1" creator="VisuGPX - https://www.visugpx.com">
  <metadata>
    <name>commissions et carroyage 29 07 22</name>
  </metadata>
  <trk>
    <name><![CDATA[commissions et carroyage 29 07 22_1]]></name>
    <trkseg>
      <trkpt lat="46.58538" lon="5.74176">
        <ele>530.4</ele>
        <time>2022-07-29T08:04:54Z</time>
      </trkpt>
      <trkpt lat="46.58544" lon="5.74166">
        <ele>530</ele>
        <time>2022-07-29T08:04:55Z</time>
      </trkpt>
      <trkpt lat="46.5855" lon="5.74156">
        <ele>529.8</ele>
        <time>2022-07-29T08:04:56Z</time>
      </trkpt>
      <trkpt lat="46.58556" lon="5.74145">
        <ele>529.6</ele>
        <time>2022-07-29T08:04:57Z</time>
      </trkpt>
      <trkpt lat="46.58561" lon="5.74135">
        <ele>529.4</ele>
        <time>2022-07-29T08:04:58Z</time>
      </trkpt>
      <trkpt lat="46.58567" lon="5.74124">
        <ele>529</ele>
        <time>2022-07-29T08:04:59Z</time>
      </trkpt>
      <trkpt lat="46.58573" lon="5.74114">
        <ele>528.8</ele>
        <time>2022-07-29T08:05:00Z</time>
      </trkpt>
      <trkpt lat="46.58579" lon="5.74103">
        <ele>528.6</ele>
        <time>2022-07-29T08:05:01Z</time>
      </trkpt>
      <trkpt lat="46.58585" lon="5.74093">
        <ele>528.6</ele>
        <time>2022-07-29T08:05:02Z</time>
      </trkpt>
      <trkpt lat="46.58591" lon="5.74082">
        <ele>528.2</ele>
        <time>2022-07-29T08:05:03Z</time>
      </trkpt>
      <trkpt lat="46.58596" lon="5.74072">
        <ele>527.8</ele>
        <time>2022-07-29T08:05:04Z</time>
      </trkpt>
      <trkpt lat="46.58602" lon="5.74061">
        <ele>527.6</ele>
        <time>2022-07-29T08:05:05Z</time>
      </trkpt>
      <trkpt lat="46.58608" lon="5.74051">
        <ele>527.6</ele>
        <time>2022-07-29T08:05:06Z</time>
      </trkpt>
      <trkpt lat="46.58614" lon="5.74041">
        <ele>527.2</ele>
        <time>2022-07-29T08:05:07Z</time>
      </trkpt>
      <trkpt lat="46.5862" lon="5.74031">
        <ele>527.2</ele>
        <time>2022-07-29T08:05:08Z</time>
      </trkpt>
      <trkpt lat="46.58626" lon="5.74021">
        <ele>526.8</ele>
        <time>2022-07-29T08:05:09Z</time>
      </trkpt>
      <trkpt lat="46.58632" lon="5.74011">
        <ele>526.8</ele>
        <time>2022-07-29T08:05:10Z</time>
      </trkpt>
      <trkpt lat="46.58638" lon="5.74">
        <ele>526.4</ele>
        <time>2022-07-29T08:05:11Z</time>
      </trkpt>
      <trkpt lat="46.58644" lon="5.73989">
        <ele>526.2</ele>
        <time>2022-07-29T08:05:12Z</time>
      </trkpt>
      <trkpt lat="46.5865" lon="5.73977">
        <ele>526.2</ele>
        <time>2022-07-29T08:05:13Z</time>
      </trkpt>
      <trkpt lat="46.58656" lon="5.73966">
        <ele>526</ele>
        <time>2022-07-29T08:05:14Z</time>
      </trkpt>
      <trkpt lat="46.58662" lon="5.73956">
        <ele>525.8</ele>
        <time>2022-07-29T08:05:15Z</time>
      </trkpt>
      <trkpt lat="46.58668" lon="5.73946">
        <ele>525.8</ele>
        <time>2022-07-29T08:05:16Z</time>
      </trkpt>
      <trkpt lat="46.58674" lon="5.73936">
        <ele>525.4</ele>
        <time>2022-07-29T08:05:17Z</time>
      </trkpt>
      <trkpt lat="46.5868" lon="5.73926">
        <ele>525.2</ele>
        <time>2022-07-29T08:05:18Z</time>
      </trkpt>
      <trkpt lat="46.58686" lon="5.73916">
        <ele>524.8</ele>
        <time>2022-07-29T08:05:19Z</time>
      </trkpt>
      <trkpt lat="46.58691" lon="5.73906">
        <ele>524.6</ele>
        <time>2022-07-29T08:05:20Z</time>
      </trkpt>
      <trkpt lat="46.58696" lon="5.73894">
        <ele>524.4</ele>
        <time>2022-07-29T08:05:21Z</time>
      </trkpt>
      <trkpt lat="46.58701" lon="5.73882">
        <ele>524.2</ele>
        <time>2022-07-29T08:05:22Z</time>
      </trkpt>
      <trkpt lat="46.58706" lon="5.73871">
        <ele>523.8</ele>
        <time>2022-07-29T08:05:23Z</time>
      </trkpt>
      <trkpt lat="46.5871" lon="5.73858">
        <ele>523.4</ele>
        <time>2022-07-29T08:05:24Z</time>
      </trkpt>
      <trkpt lat="46.58716" lon="5.73847">
        <ele>523</ele>
        <time>2022-07-29T08:05:25Z</time>
      </trkpt>
      <trkpt lat="46.58721" lon="5.73835">
        <ele>522.6</ele>
        <time>2022-07-29T08:05:26Z</time>
      </trkpt>
      <trkpt lat="46.58726" lon="5.73823">
        <ele>522.2</ele>
        <time>2022-07-29T08:05:27Z</time>
      </trkpt>
      <trkpt lat="46.58731" lon="5.73811">
        <ele>521.8</ele>
        <time>2022-07-29T08:05:28Z</time>
      </trkpt>
      <trkpt lat="46.58737" lon="5.73798">
        <ele>521.4</ele>
        <time>2022-07-29T08:05:29Z</time>
      </trkpt>
      <trkpt lat="46.58742" lon="5.73786">
        <ele>520.8</ele>
        <time>2022-07-29T08:05:30Z</time>
      </trkpt>
      <trkpt lat="46.58747" lon="5.73773">
        <ele>520.4</ele>
        <time>2022-07-29T08:05:31Z</time>
      </trkpt>
      <trkpt lat="46.58751" lon="5.7376">
        <ele>519.8</ele>
        <time>2022-07-29T08:05:32Z</time>
      </trkpt>
      <trkpt lat="46.58755" lon="5.73746">
        <ele>519.4</ele>
        <time>2022-07-29T08:05:33Z</time>
      </trkpt>
      <trkpt lat="46.5876" lon="5.73732">
        <ele>519</ele>
        <time>2022-07-29T08:05:34Z</time>
      </trkpt>
      <trkpt lat="46.58764" lon="5.73719">
        <ele>518.4</ele>
        <time>2022-07-29T08:05:35Z</time>
      </trkpt>
      <trkpt lat="46.58769" lon="5.73705">
        <ele>517.8</ele>
        <time>2022-07-29T08:05:36Z</time>
      </trkpt>
      <trkpt lat="46.58773" lon="5.73691">
        <ele>517.2</ele>
        <time>2022-07-29T08:05:37Z</time>
      </trkpt>
      <trkpt lat="46.58777" lon="5.73675">
        <ele>516.6</ele>
        <time>2022-07-29T08:05:38Z</time>
      </trkpt>
      <trkpt lat="46.58782" lon="5.7366">
        <ele>515.8</ele>
        <time>2022-07-29T08:05:39Z</time>
      </trkpt>
      <trkpt lat="46.58787" lon="5.73643">
        <ele>515.2</ele>
        <time>2022-07-29T08:05:40Z</time>
      </trkpt>
      <trkpt lat="46.58791" lon="5.73627">
        <ele>514.6</ele>
        <time>2022-07-29T08:05:41Z</time>
      </trkpt>
      <trkpt lat="46.58795" lon="5.73612">
        <ele>513.6</ele>
        <time>2022-07-29T08:05:42Z</time>
      </trkpt>
      <trkpt lat="46.588" lon="5.73596">
        <ele>512.8</ele>
        <time>2022-07-29T08:05:43Z</time>
      </trkpt>
      <trkpt lat="46.58804" lon="5.7358">
        <ele>512.2</ele>
        <time>2022-07-29T08:05:44Z</time>
      </trkpt>
      <trkpt lat="46.58809" lon="5.73563">
        <ele>511.4</ele>
        <time>2022-07-29T08:05:45Z</time>
      </trkpt>
      <trkpt lat="46.58813" lon="5.73547">
        <ele>510.8</ele>
        <time>2022-07-29T08:05:46Z</time>
      </trkpt>
      <trkpt lat="46.58818" lon="5.73531">
        <ele>509.8</ele>
        <time>2022-07-29T08:05:47Z</time>
      </trkpt>
      <trkpt lat="46.58822" lon="5.73515">
        <ele>509.2</ele>
        <time>2022-07-29T08:05:48Z</time>
      </trkpt>
      <trkpt lat="46.58828" lon="5.735">
        <ele>508.2</ele>
        <time>2022-07-29T08:05:49Z</time>
      </trkpt>
      <trkpt lat="46.58833" lon="5.73484">
        <ele>507.2</ele>
        <time>2022-07-29T08:05:50Z</time>
      </trkpt>
      <trkpt lat="46.58838" lon="5.73467">
        <ele>506.4</ele>
        <time>2022-07-29T08:05:51Z</time>
      </trkpt>
      <trkpt lat="46.58843" lon="5.73449">
        <ele>505.6</ele>
        <time>2022-07-29T08:05:52Z</time>
      </trkpt>
      <trkpt lat="46.58848" lon="5.73432">
        <ele>504.8</ele>
        <time>2022-07-29T08:05:53Z</time>
      </trkpt>
      <trkpt lat="46.58853" lon="5.73415">
        <ele>504</ele>
        <time>2022-07-29T08:05:54Z</time>
      </trkpt>
      <trkpt lat="46.58859" lon="5.73399">
        <ele>503.4</ele>
        <time>2022-07-29T08:05:55Z</time>
      </trkpt>
      <trkpt lat="46.58864" lon="5.73383">
        <ele>502.8</ele>
        <time>2022-07-29T08:05:56Z</time>
      </trkpt>
      <trkpt lat="46.58871" lon="5.73367">
        <ele>502</ele>
        <time>2022-07-29T08:05:57Z</time>
      </trkpt>
      <trkpt lat="46.58877" lon="5.73351">
        <ele>501.6</ele>
        <time>2022-07-29T08:05:58Z</time>
      </trkpt>
      <trkpt lat="46.58883" lon="5.73335">
        <ele>500.8</ele>
        <time>2022-07-29T08:05:59Z</time>
      </trkpt>
      <trkpt lat="46.58889" lon="5.73319">
        <ele>500.2</ele>
        <time>2022-07-29T08:06:00Z</time>
      </trkpt>
      <trkpt lat="46.58889" lon="5.73319">
        <ele>499.6</ele>
        <time>2022-07-29T08:06:01Z</time>
      </trkpt>
      <trkpt lat="46.58896" lon="5.73303">
        <ele>499</ele>
        <time>2022-07-29T08:06:02Z</time>
      </trkpt>
      <trkpt lat="46.58902" lon="5.73287">
        <ele>498.4</ele>
        <time>2022-07-29T08:06:03Z</time>
      </trkpt>
      <trkpt lat="46.58908" lon="5.73272">
        <ele>497.6</ele>
        <time>2022-07-29T08:06:04Z</time>
      </trkpt>
      <trkpt lat="46.58914" lon="5.73257">
        <ele>497</ele>
        <time>2022-07-29T08:06:05Z</time>
      </trkpt>
      <trkpt lat="46.5892" lon="5.73241">
        <ele>496.4</ele>
        <time>2022-07-29T08:06:06Z</time>
      </trkpt>
      <trkpt lat="46.58926" lon="5.73225">
        <ele>495.8</ele>
        <time>2022-07-29T08:06:07Z</time>
      </trkpt>
      <trkpt lat="46.58931" lon="5.73209">
        <ele>495.2</ele>
        <time>2022-07-29T08:06:08Z</time>
      </trkpt>
      <trkpt lat="46.58935" lon="5.73193">
        <ele>494.6</ele>
        <time>2022-07-29T08:06:09Z</time>
      </trkpt>
      <trkpt lat="46.58939" lon="5.73177">
        <ele>494.2</ele>
        <time>2022-07-29T08:06:10Z</time>
      </trkpt>
      <trkpt lat="46.58942" lon="5.7316">
        <ele>493.6</ele>
        <time>2022-07-29T08:06:11Z</time>
      </trkpt>
      <trkpt lat="46.58943" lon="5.73143">
        <ele>493</ele>
        <time>2022-07-29T08:06:12Z</time>
      </trkpt>
      <trkpt lat="46.58944" lon="5.73124">
        <ele>492.4</ele>
        <time>2022-07-29T08:06:13Z</time>
      </trkpt>
      <trkpt lat="46.58946" lon="5.73107">
        <ele>492</ele>
        <time>2022-07-29T08:06:14Z</time>
      </trkpt>
      <trkpt lat="46.58946" lon="5.7309">
        <ele>491.4</ele>
        <time>2022-07-29T08:06:15Z</time>
      </trkpt>
      <trkpt lat="46.58946" lon="5.73073">
        <ele>491</ele>
        <time>2022-07-29T08:06:16Z</time>
      </trkpt>
      <trkpt lat="46.58947" lon="5.73055">
        <ele>490.4</ele>
        <time>2022-07-29T08:06:17Z</time>
      </trkpt>
      <trkpt lat="46.58947" lon="5.73039">
        <ele>490</ele>
        <time>2022-07-29T08:06:18Z</time>
      </trkpt>
      <trkpt lat="46.58947" lon="5.73022">
        <ele>489.6</ele>
        <time>2022-07-29T08:06:19Z</time>
      </trkpt>
      <trkpt lat="46.58948" lon="5.73005">
        <ele>489.2</ele>
        <time>2022-07-29T08:06:20Z</time>
      </trkpt>
      <trkpt lat="46.58947" lon="5.72989">
        <ele>488.8</ele>
        <time>2022-07-29T08:06:21Z</time>
      </trkpt>
      <trkpt lat="46.58947" lon="5.72973">
        <ele>488.4</ele>
        <time>2022-07-29T08:06:22Z</time>
      </trkpt>
      <trkpt lat="46.58947" lon="5.72958">
        <ele>488.2</ele>
        <time>2022-07-29T08:06:23Z</time>
      </trkpt>
      <trkpt lat="46.58947" lon="5.72942">
        <ele>487.8</ele>
        <time>2022-07-29T08:06:24Z</time>
      </trkpt>
      <trkpt lat="46.58947" lon="5.72927">
        <ele>487.6</ele>
        <time>2022-07-29T08:06:25Z</time>
      </trkpt>
      <trkpt lat="46.58947" lon="5.72912">
        <ele>487.4</ele>
        <time>2022-07-29T08:06:26Z</time>
      </trkpt>
      <trkpt lat="46.58947" lon="5.72897">
        <ele>487.4</ele>
        <time>2022-07-29T08:06:27Z</time>
      </trkpt>
      <trkpt lat="46.58946" lon="5.72882">
        <ele>487.2</ele>
        <time>2022-07-29T08:06:28Z</time>
      </trkpt>
      <trkpt lat="46.58946" lon="5.72869">
        <ele>487.2</ele>
        <time>2022-07-29T08:06:29Z</time>
      </trkpt>
      <trkpt lat="46.58946" lon="5.72854">
        <ele>487</ele>
        <time>2022-07-29T08:06:30Z</time>
      </trkpt>
      <trkpt lat="46.58947" lon="5.72841">
        <ele>487</ele>
        <time>2022-07-29T08:06:31Z</time>
      </trkpt>
      <trkpt lat="46.58947" lon="5.72827">
        <ele>486.6</ele>
        <time>2022-07-29T08:06:32Z</time>
      </trkpt>
      <trkpt lat="46.58947" lon="5.72814">
        <ele>486.6</ele>
        <time>2022-07-29T08:06:33Z</time>
      </trkpt>
      <trkpt lat="46.58947" lon="5.72801">
        <ele>486.2</ele>
        <time>2022-07-29T08:06:34Z</time>
      </trkpt>
      <trkpt lat="46.58948" lon="5.72788">
        <ele>486.2</ele>
        <time>2022-07-29T08:06:35Z</time>
      </trkpt>
      <trkpt lat="46.58947" lon="5.72775">
        <ele>486.2</ele>
        <time>2022-07-29T08:06:36Z</time>
      </trkpt>
      <trkpt lat="46.58948" lon="5.72762">
        <ele>486</ele>
        <time>2022-07-29T08:06:37Z</time>
      </trkpt>
      <trkpt lat="46.58947" lon="5.72749">
        <ele>486</ele>
        <time>2022-07-29T08:06:38Z</time>
      </trkpt>
      <trkpt lat="46.58947" lon="5.72737">
        <ele>486</ele>
        <time>2022-07-29T08:06:39Z</time>
      </trkpt>
      <trkpt lat="46.58947" lon="5.72724">
        <ele>485.8</ele>
        <time>2022-07-29T08:06:40Z</time>
      </trkpt>
      <trkpt lat="46.58947" lon="5.72712">
        <ele>485.8</ele>
        <time>2022-07-29T08:06:41Z</time>
      </trkpt>
      <trkpt lat="46.58947" lon="5.72699">
        <ele>485.8</ele>
        <time>2022-07-29T08:06:42Z</time>
      </trkpt>
      <trkpt lat="46.58947" lon="5.72687">
        <ele>485.8</ele>
        <time>2022-07-29T08:06:43Z</time>
      </trkpt>
      <trkpt lat="46.58947" lon="5.72675">
        <ele>485.6</ele>
        <time>2022-07-29T08:06:44Z</time>
      </trkpt>
      <trkpt lat="46.58947" lon="5.72663">
        <ele>485.6</ele>
        <time>2022-07-29T08:06:45Z</time>
      </trkpt>
      <trkpt lat="46.58947" lon="5.72651">
        <ele>485.6</ele>
        <time>2022-07-29T08:06:46Z</time>
      </trkpt>
      <trkpt lat="46.58947" lon="5.72639">
        <ele>485.2</ele>
        <time>2022-07-29T08:06:47Z</time>
      </trkpt>
      <trkpt lat="46.58947" lon="5.72627">
        <ele>485.2</ele>
        <time>2022-07-29T08:06:48Z</time>
      </trkpt>
      <trkpt lat="46.58947" lon="5.72615">
        <ele>485.2</ele>
        <time>2022-07-29T08:06:49Z</time>
      </trkpt>
      <trkpt lat="46.58947" lon="5.72603">
        <ele>485.2</ele>
        <time>2022-07-29T08:06:50Z</time>
      </trkpt>
      <trkpt lat="46.58947" lon="5.72592">
        <ele>485</ele>
        <time>2022-07-29T08:06:51Z</time>
      </trkpt>
      <trkpt lat="46.58947" lon="5.7258">
        <ele>485</ele>
        <time>2022-07-29T08:06:52Z</time>
      </trkpt>
      <trkpt lat="46.58947" lon="5.72569">
        <ele>485</ele>
        <time>2022-07-29T08:06:53Z</time>
      </trkpt>
      <trkpt lat="46.58947" lon="5.72557">
        <ele>485</ele>
        <time>2022-07-29T08:06:54Z</time>
      </trkpt>
      <trkpt lat="46.58947" lon="5.72545">
        <ele>484.6</ele>
        <time>2022-07-29T08:06:55Z</time>
      </trkpt>
      <trkpt lat="46.58947" lon="5.72534">
        <ele>484.6</ele>
        <time>2022-07-29T08:06:56Z</time>
      </trkpt>
      <trkpt lat="46.58947" lon="5.72522">
        <ele>484.6</ele>
        <time>2022-07-29T08:06:57Z</time>
      </trkpt>
      <trkpt lat="46.58947" lon="5.7251">
        <ele>484.6</ele>
        <time>2022-07-29T08:06:58Z</time>
      </trkpt>
      <trkpt lat="46.58947" lon="5.72498">
        <ele>484.4</ele>
        <time>2022-07-29T08:06:59Z</time>
      </trkpt>
      <trkpt lat="46.58947" lon="5.72486">
        <ele>484.4</ele>
        <time>2022-07-29T08:07:00Z</time>
      </trkpt>
      <trkpt lat="46.58947" lon="5.72474">
        <ele>484.2</ele>
        <time>2022-07-29T08:07:01Z</time>
      </trkpt>
      <trkpt lat="46.58948" lon="5.72462">
        <ele>484.2</ele>
        <time>2022-07-29T08:07:02Z</time>
      </trkpt>
      <trkpt lat="46.58947" lon="5.7245">
        <ele>484.2</ele>
        <time>2022-07-29T08:07:03Z</time>
      </trkpt>
      <trkpt lat="46.58947" lon="5.72438">
        <ele>484.2</ele>
        <time>2022-07-29T08:07:04Z</time>
      </trkpt>
      <trkpt lat="46.58947" lon="5.72426">
        <ele>484</ele>
        <time>2022-07-29T08:07:05Z</time>
      </trkpt>
      <trkpt lat="46.58947" lon="5.72414">
        <ele>484</ele>
        <time>2022-07-29T08:07:06Z</time>
      </trkpt>
      <trkpt lat="46.58947" lon="5.7239">
        <ele>484</ele>
        <time>2022-07-29T08:07:07Z</time>
      </trkpt>
      <trkpt lat="46.58947" lon="5.72366">
        <ele>483.6</ele>
        <time>2022-07-29T08:07:08Z</time>
      </trkpt>
      <trkpt lat="46.58947" lon="5.72354">
        <ele>483.4</ele>
        <time>2022-07-29T08:07:10Z</time>
      </trkpt>
      <trkpt lat="46.58947" lon="5.72342">
        <ele>483.4</ele>
        <time>2022-07-29T08:07:11Z</time>
      </trkpt>
      <trkpt lat="46.58947" lon="5.72331">
        <ele>483.4</ele>
        <time>2022-07-29T08:07:12Z</time>
      </trkpt>
      <trkpt lat="46.58947" lon="5.72319">
        <ele>483.2</ele>
        <time>2022-07-29T08:07:13Z</time>
      </trkpt>
      <trkpt lat="46.58947" lon="5.72307">
        <ele>483.2</ele>
        <time>2022-07-29T08:07:14Z</time>
      </trkpt>
      <trkpt lat="46.58947" lon="5.72295">
        <ele>483.2</ele>
        <time>2022-07-29T08:07:15Z</time>
      </trkpt>
      <trkpt lat="46.58947" lon="5.72283">
        <ele>483.2</ele>
        <time>2022-07-29T08:07:16Z</time>
      </trkpt>
      <trkpt lat="46.58947" lon="5.72272">
        <ele>483.2</ele>
        <time>2022-07-29T08:07:17Z</time>
      </trkpt>
      <trkpt lat="46.58947" lon="5.7226">
        <ele>483.2</ele>
        <time>2022-07-29T08:07:18Z</time>
      </trkpt>
      <trkpt lat="46.58948" lon="5.72248">
        <ele>483.2</ele>
        <time>2022-07-29T08:07:19Z</time>
      </trkpt>
      <trkpt lat="46.58948" lon="5.72236">
        <ele>483.2</ele>
        <time>2022-07-29T08:07:20Z</time>
      </trkpt>
      <trkpt lat="46.58948" lon="5.72224">
        <ele>483.2</ele>
        <time>2022-07-29T08:07:21Z</time>
      </trkpt>
      <trkpt lat="46.58948" lon="5.72212">
        <ele>483.2</ele>
        <time>2022-07-29T08:07:22Z</time>
      </trkpt>
      <trkpt lat="46.58948" lon="5.72201">
        <ele>482.8</ele>
        <time>2022-07-29T08:07:23Z</time>
      </trkpt>
      <trkpt lat="46.58948" lon="5.72189">
        <ele>482.8</ele>
        <time>2022-07-29T08:07:24Z</time>
      </trkpt>
      <trkpt lat="46.58948" lon="5.72177">
        <ele>482.8</ele>
        <time>2022-07-29T08:07:25Z</time>
      </trkpt>
      <trkpt lat="46.58948" lon="5.72165">
        <ele>482.8</ele>
        <time>2022-07-29T08:07:26Z</time>
      </trkpt>
      <trkpt lat="46.58948" lon="5.72152">
        <ele>482.8</ele>
        <time>2022-07-29T08:07:27Z</time>
      </trkpt>
      <trkpt lat="46.58948" lon="5.7214">
        <ele>482.6</ele>
        <time>2022-07-29T08:07:28Z</time>
      </trkpt>
      <trkpt lat="46.58948" lon="5.72128">
        <ele>482.6</ele>
        <time>2022-07-29T08:07:29Z</time>
      </trkpt>
      <trkpt lat="46.58948" lon="5.72116">
        <ele>482.6</ele>
        <time>2022-07-29T08:07:30Z</time>
      </trkpt>
      <trkpt lat="46.58948" lon="5.72104">
        <ele>482.6</ele>
        <time>2022-07-29T08:07:31Z</time>
      </trkpt>
      <trkpt lat="46.58949" lon="5.72092">
        <ele>482.6</ele>
        <time>2022-07-29T08:07:32Z</time>
      </trkpt>
      <trkpt lat="46.58949" lon="5.7208">
        <ele>482.6</ele>
        <time>2022-07-29T08:07:33Z</time>
      </trkpt>
      <trkpt lat="46.58949" lon="5.72068">
        <ele>482.6</ele>
        <time>2022-07-29T08:07:34Z</time>
      </trkpt>
      <trkpt lat="46.58949" lon="5.72056">
        <ele>482.4</ele>
        <time>2022-07-29T08:07:35Z</time>
      </trkpt>
      <trkpt lat="46.58949" lon="5.72044">
        <ele>482.4</ele>
        <time>2022-07-29T08:07:36Z</time>
      </trkpt>
      <trkpt lat="46.58949" lon="5.72033">
        <ele>482.4</ele>
        <time>2022-07-29T08:07:37Z</time>
      </trkpt>
      <trkpt lat="46.58949" lon="5.72021">
        <ele>482.4</ele>
        <time>2022-07-29T08:07:38Z</time>
      </trkpt>
      <trkpt lat="46.58949" lon="5.72009">
        <ele>482.4</ele>
        <time>2022-07-29T08:07:39Z</time>
      </trkpt>
      <trkpt lat="46.58949" lon="5.71997">
        <ele>482.4</ele>
        <time>2022-07-29T08:07:40Z</time>
      </trkpt>
      <trkpt lat="46.58949" lon="5.71986">
        <ele>482.2</ele>
        <time>2022-07-29T08:07:41Z</time>
      </trkpt>
      <trkpt lat="46.5895" lon="5.71974">
        <ele>482.2</ele>
        <time>2022-07-29T08:07:42Z</time>
      </trkpt>
      <trkpt lat="46.5895" lon="5.71963">
        <ele>482.2</ele>
        <time>2022-07-29T08:07:43Z</time>
      </trkpt>
      <trkpt lat="46.5895" lon="5.71951">
        <ele>482.2</ele>
        <time>2022-07-29T08:07:44Z</time>
      </trkpt>
      <trkpt lat="46.5895" lon="5.7194">
        <ele>482.2</ele>
        <time>2022-07-29T08:07:45Z</time>
      </trkpt>
      <trkpt lat="46.5895" lon="5.71928">
        <ele>482.2</ele>
        <time>2022-07-29T08:07:46Z</time>
      </trkpt>
      <trkpt lat="46.5895" lon="5.71917">
        <ele>482.2</ele>
        <time>2022-07-29T08:07:47Z</time>
      </trkpt>
      <trkpt lat="46.5895" lon="5.71906">
        <ele>482</ele>
        <time>2022-07-29T08:07:48Z</time>
      </trkpt>
      <trkpt lat="46.5895" lon="5.71894">
        <ele>482</ele>
        <time>2022-07-29T08:07:49Z</time>
      </trkpt>
      <trkpt lat="46.5895" lon="5.71883">
        <ele>482</ele>
        <time>2022-07-29T08:07:50Z</time>
      </trkpt>
      <trkpt lat="46.5895" lon="5.71872">
        <ele>481.8</ele>
        <time>2022-07-29T08:07:51Z</time>
      </trkpt>
      <trkpt lat="46.5895" lon="5.7186">
        <ele>481.8</ele>
        <time>2022-07-29T08:07:52Z</time>
      </trkpt>
      <trkpt lat="46.5895" lon="5.71849">
        <ele>481.8</ele>
        <time>2022-07-29T08:07:53Z</time>
      </trkpt>
      <trkpt lat="46.5895" lon="5.71838">
        <ele>481.8</ele>
        <time>2022-07-29T08:07:54Z</time>
      </trkpt>
      <trkpt lat="46.58949" lon="5.71827">
        <ele>481.6</ele>
        <time>2022-07-29T08:07:55Z</time>
      </trkpt>
      <trkpt lat="46.58949" lon="5.71816">
        <ele>481.6</ele>
        <time>2022-07-29T08:07:56Z</time>
      </trkpt>
      <trkpt lat="46.58949" lon="5.71805">
        <ele>481.6</ele>
        <time>2022-07-29T08:07:57Z</time>
      </trkpt>
      <trkpt lat="46.58949" lon="5.71794">
        <ele>481.6</ele>
        <time>2022-07-29T08:07:58Z</time>
      </trkpt>
      <trkpt lat="46.58949" lon="5.71783">
        <ele>481.6</ele>
        <time>2022-07-29T08:07:59Z</time>
      </trkpt>
      <trkpt lat="46.58949" lon="5.7176">
        <ele>481.2</ele>
        <time>2022-07-29T08:08:00Z</time>
      </trkpt>
      <trkpt lat="46.58949" lon="5.71749">
        <ele>481.2</ele>
        <time>2022-07-29T08:08:02Z</time>
      </trkpt>
      <trkpt lat="46.58949" lon="5.71737">
        <ele>481.2</ele>
        <time>2022-07-29T08:08:03Z</time>
      </trkpt>
      <trkpt lat="46.58948" lon="5.71726">
        <ele>481.2</ele>
        <time>2022-07-29T08:08:04Z</time>
      </trkpt>
      <trkpt lat="46.58948" lon="5.71715">
        <ele>481.2</ele>
        <time>2022-07-29T08:08:05Z</time>
      </trkpt>
      <trkpt lat="46.58948" lon="5.71704">
        <ele>481.2</ele>
        <time>2022-07-29T08:08:06Z</time>
      </trkpt>
      <trkpt lat="46.58948" lon="5.71692">
        <ele>481</ele>
        <time>2022-07-29T08:08:07Z</time>
      </trkpt>
      <trkpt lat="46.58948" lon="5.71681">
        <ele>481</ele>
        <time>2022-07-29T08:08:08Z</time>
      </trkpt>
      <trkpt lat="46.58948" lon="5.7167">
        <ele>481</ele>
        <time>2022-07-29T08:08:09Z</time>
      </trkpt>
      <trkpt lat="46.58948" lon="5.71659">
        <ele>481</ele>
        <time>2022-07-29T08:08:10Z</time>
      </trkpt>
      <trkpt lat="46.58948" lon="5.71648">
        <ele>481</ele>
        <time>2022-07-29T08:08:11Z</time>
      </trkpt>
      <trkpt lat="46.58948" lon="5.71648">
        <ele>481</ele>
        <time>2022-07-29T08:08:12Z</time>
      </trkpt>
      <trkpt lat="46.58948" lon="5.71637">
        <ele>480.6</ele>
        <time>2022-07-29T08:08:13Z</time>
      </trkpt>
      <trkpt lat="46.58948" lon="5.71626">
        <ele>480.6</ele>
        <time>2022-07-29T08:08:14Z</time>
      </trkpt>
      <trkpt lat="46.58948" lon="5.71615">
        <ele>480.6</ele>
        <time>2022-07-29T08:08:15Z</time>
      </trkpt>
      <trkpt lat="46.58948" lon="5.71604">
        <ele>480.4</ele>
        <time>2022-07-29T08:08:16Z</time>
      </trkpt>
      <trkpt lat="46.58948" lon="5.71592">
        <ele>480.4</ele>
        <time>2022-07-29T08:08:17Z</time>
      </trkpt>
      <trkpt lat="46.58948" lon="5.71581">
        <ele>480.4</ele>
        <time>2022-07-29T08:08:18Z</time>
      </trkpt>
      <trkpt lat="46.58948" lon="5.7157">
        <ele>480.2</ele>
        <time>2022-07-29T08:08:19Z</time>
      </trkpt>
      <trkpt lat="46.58948" lon="5.71558">
        <ele>480.2</ele>
        <time>2022-07-29T08:08:20Z</time>
      </trkpt>
      <trkpt lat="46.58948" lon="5.71547">
        <ele>480.2</ele>
        <time>2022-07-29T08:08:21Z</time>
      </trkpt>
      <trkpt lat="46.58948" lon="5.71536">
        <ele>480</ele>
        <time>2022-07-29T08:08:22Z</time>
      </trkpt>
      <trkpt lat="46.58948" lon="5.71525">
        <ele>480</ele>
        <time>2022-07-29T08:08:23Z</time>
      </trkpt>
      <trkpt lat="46.58948" lon="5.71514">
        <ele>480</ele>
        <time>2022-07-29T08:08:24Z</time>
      </trkpt>
      <trkpt lat="46.58948" lon="5.71503">
        <ele>480</ele>
        <time>2022-07-29T08:08:25Z</time>
      </trkpt>
      <trkpt lat="46.58948" lon="5.71492">
        <ele>480</ele>
        <time>2022-07-29T08:08:26Z</time>
      </trkpt>
      <trkpt lat="46.58948" lon="5.71481">
        <ele>479.8</ele>
        <time>2022-07-29T08:08:27Z</time>
      </trkpt>
      <trkpt lat="46.58948" lon="5.7147">
        <ele>479.8</ele>
        <time>2022-07-29T08:08:28Z</time>
      </trkpt>
      <trkpt lat="46.58948" lon="5.71459">
        <ele>479.8</ele>
        <time>2022-07-29T08:08:29Z</time>
      </trkpt>
      <trkpt lat="46.58948" lon="5.71447">
        <ele>479.6</ele>
        <time>2022-07-29T08:08:30Z</time>
      </trkpt>
      <trkpt lat="46.58948" lon="5.71436">
        <ele>479.6</ele>
        <time>2022-07-29T08:08:31Z</time>
      </trkpt>
      <trkpt lat="46.58948" lon="5.71425">
        <ele>479.6</ele>
        <time>2022-07-29T08:08:32Z</time>
      </trkpt>
      <trkpt lat="46.58948" lon="5.71414">
        <ele>479.6</ele>
        <time>2022-07-29T08:08:33Z</time>
      </trkpt>
      <trkpt lat="46.58948" lon="5.71403">
        <ele>479.6</ele>
        <time>2022-07-29T08:08:34Z</time>
      </trkpt>
      <trkpt lat="46.58948" lon="5.71392">
        <ele>479.2</ele>
        <time>2022-07-29T08:08:35Z</time>
      </trkpt>
      <trkpt lat="46.58948" lon="5.71381">
        <ele>479.2</ele>
        <time>2022-07-29T08:08:36Z</time>
      </trkpt>
      <trkpt lat="46.58948" lon="5.71369">
        <ele>479.2</ele>
        <time>2022-07-29T08:08:37Z</time>
      </trkpt>
      <trkpt lat="46.58949" lon="5.71358">
        <ele>479.2</ele>
        <time>2022-07-29T08:08:38Z</time>
      </trkpt>
      <trkpt lat="46.58949" lon="5.71347">
        <ele>479</ele>
        <time>2022-07-29T08:08:39Z</time>
      </trkpt>
      <trkpt lat="46.58949" lon="5.71335">
        <ele>479</ele>
        <time>2022-07-29T08:08:40Z</time>
      </trkpt>
      <trkpt lat="46.58949" lon="5.71324">
        <ele>479</ele>
        <time>2022-07-29T08:08:41Z</time>
      </trkpt>
      <trkpt lat="46.58949" lon="5.71312">
        <ele>478.8</ele>
        <time>2022-07-29T08:08:42Z</time>
      </trkpt>
      <trkpt lat="46.58949" lon="5.71301">
        <ele>478.8</ele>
        <time>2022-07-29T08:08:43Z</time>
      </trkpt>
      <trkpt lat="46.58949" lon="5.7129">
        <ele>478.8</ele>
        <time>2022-07-29T08:08:44Z</time>
      </trkpt>
      <trkpt lat="46.58949" lon="5.71278">
        <ele>478.6</ele>
        <time>2022-07-29T08:08:45Z</time>
      </trkpt>
      <trkpt lat="46.58949" lon="5.71267">
        <ele>478.6</ele>
        <time>2022-07-29T08:08:46Z</time>
      </trkpt>
      <trkpt lat="46.58949" lon="5.71255">
        <ele>478.6</ele>
        <time>2022-07-29T08:08:47Z</time>
      </trkpt>
      <trkpt lat="46.58949" lon="5.71244">
        <ele>478.4</ele>
        <time>2022-07-29T08:08:48Z</time>
      </trkpt>
      <trkpt lat="46.58949" lon="5.71233">
        <ele>478.4</ele>
        <time>2022-07-29T08:08:49Z</time>
      </trkpt>
      <trkpt lat="46.58949" lon="5.71222">
        <ele>478.2</ele>
        <time>2022-07-29T08:08:50Z</time>
      </trkpt>
      <trkpt lat="46.58949" lon="5.7121">
        <ele>478.2</ele>
        <time>2022-07-29T08:08:51Z</time>
      </trkpt>
      <trkpt lat="46.58949" lon="5.71199">
        <ele>477.8</ele>
        <time>2022-07-29T08:08:52Z</time>
      </trkpt>
      <trkpt lat="46.58949" lon="5.71188">
        <ele>477.8</ele>
        <time>2022-07-29T08:08:53Z</time>
      </trkpt>
      <trkpt lat="46.58949" lon="5.71177">
        <ele>477.6</ele>
        <time>2022-07-29T08:08:54Z</time>
      </trkpt>
      <trkpt lat="46.58949" lon="5.71165">
        <ele>477.6</ele>
        <time>2022-07-29T08:08:55Z</time>
      </trkpt>
      <trkpt lat="46.58949" lon="5.71154">
        <ele>477.6</ele>
        <time>2022-07-29T08:08:56Z</time>
      </trkpt>
      <trkpt lat="46.58949" lon="5.71143">
        <ele>477.6</ele>
        <time>2022-07-29T08:08:57Z</time>
      </trkpt>
      <trkpt lat="46.58949" lon="5.71132">
        <ele>477.4</ele>
        <time>2022-07-29T08:08:58Z</time>
      </trkpt>
      <trkpt lat="46.58949" lon="5.7112">
        <ele>477.4</ele>
        <time>2022-07-29T08:08:59Z</time>
      </trkpt>
      <trkpt lat="46.58949" lon="5.71109">
        <ele>477.2</ele>
        <time>2022-07-29T08:09:00Z</time>
      </trkpt>
      <trkpt lat="46.58949" lon="5.71098">
        <ele>477.2</ele>
        <time>2022-07-29T08:09:01Z</time>
      </trkpt>
      <trkpt lat="46.58949" lon="5.71086">
        <ele>477.2</ele>
        <time>2022-07-29T08:09:02Z</time>
      </trkpt>
      <trkpt lat="46.58949" lon="5.71075">
        <ele>477.2</ele>
        <time>2022-07-29T08:09:03Z</time>
      </trkpt>
      <trkpt lat="46.58949" lon="5.71063">
        <ele>477</ele>
        <time>2022-07-29T08:09:04Z</time>
      </trkpt>
      <trkpt lat="46.58949" lon="5.71052">
        <ele>477</ele>
        <time>2022-07-29T08:09:05Z</time>
      </trkpt>
      <trkpt lat="46.58949" lon="5.71041">
        <ele>476.6</ele>
        <time>2022-07-29T08:09:06Z</time>
      </trkpt>
      <trkpt lat="46.58949" lon="5.71029">
        <ele>476.6</ele>
        <time>2022-07-29T08:09:07Z</time>
      </trkpt>
      <trkpt lat="46.58949" lon="5.71018">
        <ele>476.4</ele>
        <time>2022-07-29T08:09:08Z</time>
      </trkpt>
      <trkpt lat="46.58949" lon="5.71007">
        <ele>476.4</ele>
        <time>2022-07-29T08:09:09Z</time>
      </trkpt>
      <trkpt lat="46.58949" lon="5.70996">
        <ele>476.4</ele>
        <time>2022-07-29T08:09:10Z</time>
      </trkpt>
      <trkpt lat="46.58949" lon="5.70985">
        <ele>476.4</ele>
        <time>2022-07-29T08:09:11Z</time>
      </trkpt>
      <trkpt lat="46.58949" lon="5.70973">
        <ele>476.2</ele>
        <time>2022-07-29T08:09:12Z</time>
      </trkpt>
      <trkpt lat="46.58949" lon="5.70962">
        <ele>476.2</ele>
        <time>2022-07-29T08:09:13Z</time>
      </trkpt>
      <trkpt lat="46.5895" lon="5.70951">
        <ele>476.2</ele>
        <time>2022-07-29T08:09:14Z</time>
      </trkpt>
      <trkpt lat="46.5895" lon="5.7094">
        <ele>476.2</ele>
        <time>2022-07-29T08:09:15Z</time>
      </trkpt>
      <trkpt lat="46.5895" lon="5.70929">
        <ele>476.2</ele>
        <time>2022-07-29T08:09:16Z</time>
      </trkpt>
      <trkpt lat="46.5895" lon="5.70918">
        <ele>475.8</ele>
        <time>2022-07-29T08:09:17Z</time>
      </trkpt>
      <trkpt lat="46.58949" lon="5.70906">
        <ele>475.8</ele>
        <time>2022-07-29T08:09:18Z</time>
      </trkpt>
      <trkpt lat="46.58949" lon="5.70895">
        <ele>475.6</ele>
        <time>2022-07-29T08:09:19Z</time>
      </trkpt>
      <trkpt lat="46.58948" lon="5.70883">
        <ele>475.6</ele>
        <time>2022-07-29T08:09:20Z</time>
      </trkpt>
      <trkpt lat="46.58947" lon="5.70872">
        <ele>475.6</ele>
        <time>2022-07-29T08:09:21Z</time>
      </trkpt>
      <trkpt lat="46.58945" lon="5.70861">
        <ele>475.4</ele>
        <time>2022-07-29T08:09:22Z</time>
      </trkpt>
      <trkpt lat="46.58943" lon="5.70849">
        <ele>475.4</ele>
        <time>2022-07-29T08:09:23Z</time>
      </trkpt>
      <trkpt lat="46.58941" lon="5.70838">
        <ele>475</ele>
        <time>2022-07-29T08:09:24Z</time>
      </trkpt>
      <trkpt lat="46.58938" lon="5.70827">
        <ele>474.8</ele>
        <time>2022-07-29T08:09:25Z</time>
      </trkpt>
      <trkpt lat="46.58935" lon="5.70816">
        <ele>474.8</ele>
        <time>2022-07-29T08:09:26Z</time>
      </trkpt>
      <trkpt lat="46.58932" lon="5.70805">
        <ele>474.6</ele>
        <time>2022-07-29T08:09:27Z</time>
      </trkpt>
      <trkpt lat="46.58928" lon="5.70795">
        <ele>474.6</ele>
        <time>2022-07-29T08:09:28Z</time>
      </trkpt>
      <trkpt lat="46.58924" lon="5.70784">
        <ele>474.2</ele>
        <time>2022-07-29T08:09:29Z</time>
      </trkpt>
      <trkpt lat="46.58919" lon="5.70775">
        <ele>474</ele>
        <time>2022-07-29T08:09:30Z</time>
      </trkpt>
      <trkpt lat="46.58915" lon="5.70765">
        <ele>474</ele>
        <time>2022-07-29T08:09:31Z</time>
      </trkpt>
      <trkpt lat="46.58909" lon="5.70756">
        <ele>473.6</ele>
        <time>2022-07-29T08:09:32Z</time>
      </trkpt>
      <trkpt lat="46.58904" lon="5.70747">
        <ele>473.6</ele>
        <time>2022-07-29T08:09:33Z</time>
      </trkpt>
      <trkpt lat="46.58898" lon="5.70738">
        <ele>473.6</ele>
        <time>2022-07-29T08:09:34Z</time>
      </trkpt>
      <trkpt lat="46.58892" lon="5.7073">
        <ele>473.4</ele>
        <time>2022-07-29T08:09:35Z</time>
      </trkpt>
      <trkpt lat="46.58886" lon="5.70722">
        <ele>473.4</ele>
        <time>2022-07-29T08:09:36Z</time>
      </trkpt>
      <trkpt lat="46.58879" lon="5.70714">
        <ele>473</ele>
        <time>2022-07-29T08:09:37Z</time>
      </trkpt>
      <trkpt lat="46.58872" lon="5.70707">
        <ele>473</ele>
        <time>2022-07-29T08:09:38Z</time>
      </trkpt>
      <trkpt lat="46.58865" lon="5.70701">
        <ele>472.8</ele>
        <time>2022-07-29T08:09:39Z</time>
      </trkpt>
      <trkpt lat="46.58858" lon="5.70694">
        <ele>472.8</ele>
        <time>2022-07-29T08:09:40Z</time>
      </trkpt>
      <trkpt lat="46.5885" lon="5.70688">
        <ele>472.4</ele>
        <time>2022-07-29T08:09:41Z</time>
      </trkpt>
      <trkpt lat="46.58843" lon="5.70683">
        <ele>472.4</ele>
        <time>2022-07-29T08:09:42Z</time>
      </trkpt>
      <trkpt lat="46.58835" lon="5.70677">
        <ele>472.2</ele>
        <time>2022-07-29T08:09:43Z</time>
      </trkpt>
      <trkpt lat="46.58828" lon="5.70671">
        <ele>472.2</ele>
        <time>2022-07-29T08:09:44Z</time>
      </trkpt>
      <trkpt lat="46.5882" lon="5.70665">
        <ele>472</ele>
        <time>2022-07-29T08:09:45Z</time>
      </trkpt>
      <trkpt lat="46.58813" lon="5.70659">
        <ele>472</ele>
        <time>2022-07-29T08:09:46Z</time>
      </trkpt>
      <trkpt lat="46.58806" lon="5.70652">
        <ele>471.6</ele>
        <time>2022-07-29T08:09:47Z</time>
      </trkpt>
      <trkpt lat="46.58799" lon="5.70644">
        <ele>471.6</ele>
        <time>2022-07-29T08:09:48Z</time>
      </trkpt>
      <trkpt lat="46.58793" lon="5.70637">
        <ele>471.4</ele>
        <time>2022-07-29T08:09:49Z</time>
      </trkpt>
      <trkpt lat="46.58787" lon="5.70629">
        <ele>471.4</ele>
        <time>2022-07-29T08:09:50Z</time>
      </trkpt>
      <trkpt lat="46.58782" lon="5.70621">
        <ele>471.2</ele>
        <time>2022-07-29T08:09:51Z</time>
      </trkpt>
      <trkpt lat="46.58776" lon="5.70612">
        <ele>471.2</ele>
        <time>2022-07-29T08:09:52Z</time>
      </trkpt>
      <trkpt lat="46.58771" lon="5.70603">
        <ele>470.8</ele>
        <time>2022-07-29T08:09:53Z</time>
      </trkpt>
      <trkpt lat="46.58766" lon="5.70595">
        <ele>470.8</ele>
        <time>2022-07-29T08:09:54Z</time>
      </trkpt>
      <trkpt lat="46.58761" lon="5.70585">
        <ele>470.6</ele>
        <time>2022-07-29T08:09:55Z</time>
      </trkpt>
      <trkpt lat="46.58755" lon="5.70575">
        <ele>470.2</ele>
        <time>2022-07-29T08:09:56Z</time>
      </trkpt>
      <trkpt lat="46.5875" lon="5.70566">
        <ele>470</ele>
        <time>2022-07-29T08:09:57Z</time>
      </trkpt>
      <trkpt lat="46.58745" lon="5.70556">
        <ele>469.6</ele>
        <time>2022-07-29T08:09:58Z</time>
      </trkpt>
      <trkpt lat="46.58739" lon="5.70545">
        <ele>469.2</ele>
        <time>2022-07-29T08:09:59Z</time>
      </trkpt>
      <trkpt lat="46.58733" lon="5.70535">
        <ele>468.8</ele>
        <time>2022-07-29T08:10:00Z</time>
      </trkpt>
      <trkpt lat="46.58727" lon="5.70524">
        <ele>468.6</ele>
        <time>2022-07-29T08:10:01Z</time>
      </trkpt>
      <trkpt lat="46.58721" lon="5.70513">
        <ele>468.2</ele>
        <time>2022-07-29T08:10:02Z</time>
      </trkpt>
      <trkpt lat="46.58715" lon="5.70502">
        <ele>467.8</ele>
        <time>2022-07-29T08:10:03Z</time>
      </trkpt>
      <trkpt lat="46.58709" lon="5.70492">
        <ele>467.4</ele>
        <time>2022-07-29T08:10:04Z</time>
      </trkpt>
      <trkpt lat="46.58701" lon="5.70481">
        <ele>466.8</ele>
        <time>2022-07-29T08:10:05Z</time>
      </trkpt>
      <trkpt lat="46.58694" lon="5.70473">
        <ele>466.2</ele>
        <time>2022-07-29T08:10:06Z</time>
      </trkpt>
      <trkpt lat="46.58686" lon="5.70466">
        <ele>465.8</ele>
        <time>2022-07-29T08:10:07Z</time>
      </trkpt>
      <trkpt lat="46.58676" lon="5.70462">
        <ele>465.4</ele>
        <time>2022-07-29T08:10:08Z</time>
      </trkpt>
      <trkpt lat="46.58667" lon="5.70458">
        <ele>465</ele>
        <time>2022-07-29T08:10:09Z</time>
      </trkpt>
      <trkpt lat="46.58657" lon="5.70457">
        <ele>464.4</ele>
        <time>2022-07-29T08:10:10Z</time>
      </trkpt>
      <trkpt lat="46.58647" lon="5.70455">
        <ele>463.8</ele>
        <time>2022-07-29T08:10:11Z</time>
      </trkpt>
      <trkpt lat="46.58636" lon="5.70451">
        <ele>463</ele>
        <time>2022-07-29T08:10:12Z</time>
      </trkpt>
      <trkpt lat="46.58628" lon="5.70442">
        <ele>462.2</ele>
        <time>2022-07-29T08:10:13Z</time>
      </trkpt>
      <trkpt lat="46.58621" lon="5.70431">
        <ele>461.6</ele>
        <time>2022-07-29T08:10:14Z</time>
      </trkpt>
      <trkpt lat="46.58616" lon="5.70418">
        <ele>461</ele>
        <time>2022-07-29T08:10:15Z</time>
      </trkpt>
      <trkpt lat="46.58611" lon="5.70404">
        <ele>460.4</ele>
        <time>2022-07-29T08:10:16Z</time>
      </trkpt>
      <trkpt lat="46.58608" lon="5.70389">
        <ele>459.8</ele>
        <time>2022-07-29T08:10:17Z</time>
      </trkpt>
      <trkpt lat="46.58607" lon="5.70373">
        <ele>459.2</ele>
        <time>2022-07-29T08:10:18Z</time>
      </trkpt>
      <trkpt lat="46.58607" lon="5.70358">
        <ele>458.4</ele>
        <time>2022-07-29T08:10:19Z</time>
      </trkpt>
      <trkpt lat="46.58607" lon="5.70342">
        <ele>457.8</ele>
        <time>2022-07-29T08:10:20Z</time>
      </trkpt>
      <trkpt lat="46.58608" lon="5.70326">
        <ele>457.2</ele>
        <time>2022-07-29T08:10:21Z</time>
      </trkpt>
      <trkpt lat="46.58609" lon="5.70312">
        <ele>456.6</ele>
        <time>2022-07-29T08:10:22Z</time>
      </trkpt>
      <trkpt lat="46.58609" lon="5.70296">
        <ele>456</ele>
        <time>2022-07-29T08:10:23Z</time>
      </trkpt>
      <trkpt lat="46.58609" lon="5.70281">
        <ele>455.4</ele>
        <time>2022-07-29T08:10:24Z</time>
      </trkpt>
      <trkpt lat="46.5861" lon="5.70267">
        <ele>455</ele>
        <time>2022-07-29T08:10:25Z</time>
      </trkpt>
      <trkpt lat="46.58609" lon="5.70254">
        <ele>454.4</ele>
        <time>2022-07-29T08:10:26Z</time>
      </trkpt>
      <trkpt lat="46.58602" lon="5.7023">
        <ele>453.8</ele>
        <time>2022-07-29T08:10:27Z</time>
      </trkpt>
      <trkpt lat="46.58597" lon="5.70219">
        <ele>453.4</ele>
        <time>2022-07-29T08:10:28Z</time>
      </trkpt>
      <trkpt lat="46.58591" lon="5.7021">
        <ele>452.8</ele>
        <time>2022-07-29T08:10:29Z</time>
      </trkpt>
      <trkpt lat="46.58583" lon="5.70203">
        <ele>452.2</ele>
        <time>2022-07-29T08:10:30Z</time>
      </trkpt>
      <trkpt lat="46.58574" lon="5.70197">
        <ele>451.6</ele>
        <time>2022-07-29T08:10:31Z</time>
      </trkpt>
      <trkpt lat="46.58565" lon="5.70192">
        <ele>451</ele>
        <time>2022-07-29T08:10:32Z</time>
      </trkpt>
      <trkpt lat="46.58556" lon="5.70189">
        <ele>450.6</ele>
        <time>2022-07-29T08:10:33Z</time>
      </trkpt>
      <trkpt lat="46.58546" lon="5.70187">
        <ele>450</ele>
        <time>2022-07-29T08:10:34Z</time>
      </trkpt>
      <trkpt lat="46.58538" lon="5.70182">
        <ele>449.6</ele>
        <time>2022-07-29T08:10:35Z</time>
      </trkpt>
      <trkpt lat="46.58531" lon="5.70174">
        <ele>449</ele>
        <time>2022-07-29T08:10:36Z</time>
      </trkpt>
      <trkpt lat="46.58525" lon="5.70164">
        <ele>448.6</ele>
        <time>2022-07-29T08:10:37Z</time>
      </trkpt>
      <trkpt lat="46.58521" lon="5.70153">
        <ele>447.8</ele>
        <time>2022-07-29T08:10:38Z</time>
      </trkpt>
      <trkpt lat="46.58517" lon="5.70139">
        <ele>447.2</ele>
        <time>2022-07-29T08:10:39Z</time>
      </trkpt>
      <trkpt lat="46.58515" lon="5.70125">
        <ele>446.8</ele>
        <time>2022-07-29T08:10:40Z</time>
      </trkpt>
      <trkpt lat="46.58513" lon="5.70111">
        <ele>446.2</ele>
        <time>2022-07-29T08:10:41Z</time>
      </trkpt>
      <trkpt lat="46.58511" lon="5.70098">
        <ele>446</ele>
        <time>2022-07-29T08:10:42Z</time>
      </trkpt>
      <trkpt lat="46.5851" lon="5.70085">
        <ele>445.8</ele>
        <time>2022-07-29T08:10:43Z</time>
      </trkpt>
      <trkpt lat="46.5851" lon="5.70073">
        <ele>445.8</ele>
        <time>2022-07-29T08:10:44Z</time>
      </trkpt>
      <trkpt lat="46.58509" lon="5.70062">
        <ele>445.8</ele>
        <time>2022-07-29T08:10:45Z</time>
      </trkpt>
      <trkpt lat="46.58508" lon="5.7005">
        <ele>445.8</ele>
        <time>2022-07-29T08:10:46Z</time>
      </trkpt>
      <trkpt lat="46.58507" lon="5.70038">
        <ele>445.8</ele>
        <time>2022-07-29T08:10:47Z</time>
      </trkpt>
      <trkpt lat="46.58506" lon="5.70026">
        <ele>445.8</ele>
        <time>2022-07-29T08:10:48Z</time>
      </trkpt>
      <trkpt lat="46.58505" lon="5.70014">
        <ele>445.8</ele>
        <time>2022-07-29T08:10:49Z</time>
      </trkpt>
      <trkpt lat="46.58504" lon="5.70001">
        <ele>445.4</ele>
        <time>2022-07-29T08:10:50Z</time>
      </trkpt>
      <trkpt lat="46.58503" lon="5.69988">
        <ele>445</ele>
        <time>2022-07-29T08:10:51Z</time>
      </trkpt>
      <trkpt lat="46.58502" lon="5.69975">
        <ele>444.8</ele>
        <time>2022-07-29T08:10:52Z</time>
      </trkpt>
      <trkpt lat="46.58502" lon="5.69961">
        <ele>444.6</ele>
        <time>2022-07-29T08:10:53Z</time>
      </trkpt>
      <trkpt lat="46.58502" lon="5.69948">
        <ele>444.2</ele>
        <time>2022-07-29T08:10:54Z</time>
      </trkpt>
      <trkpt lat="46.58504" lon="5.69935">
        <ele>444</ele>
        <time>2022-07-29T08:10:55Z</time>
      </trkpt>
      <trkpt lat="46.58507" lon="5.69921">
        <ele>443.6</ele>
        <time>2022-07-29T08:10:56Z</time>
      </trkpt>
      <trkpt lat="46.5851" lon="5.69909">
        <ele>443.4</ele>
        <time>2022-07-29T08:10:57Z</time>
      </trkpt>
      <trkpt lat="46.58516" lon="5.69899">
        <ele>443.4</ele>
        <time>2022-07-29T08:10:58Z</time>
      </trkpt>
      <trkpt lat="46.5852" lon="5.69887">
        <ele>443.2</ele>
        <time>2022-07-29T08:10:59Z</time>
      </trkpt>
      <trkpt lat="46.58524" lon="5.69875">
        <ele>443.2</ele>
        <time>2022-07-29T08:11:00Z</time>
      </trkpt>
      <trkpt lat="46.58527" lon="5.69863">
        <ele>443.2</ele>
        <time>2022-07-29T08:11:01Z</time>
      </trkpt>
      <trkpt lat="46.5853" lon="5.69852">
        <ele>443</ele>
        <time>2022-07-29T08:11:02Z</time>
      </trkpt>
      <trkpt lat="46.58533" lon="5.69841">
        <ele>443</ele>
        <time>2022-07-29T08:11:03Z</time>
      </trkpt>
      <trkpt lat="46.58536" lon="5.6983">
        <ele>443</ele>
        <time>2022-07-29T08:11:04Z</time>
      </trkpt>
      <trkpt lat="46.5854" lon="5.69819">
        <ele>443</ele>
        <time>2022-07-29T08:11:05Z</time>
      </trkpt>
      <trkpt lat="46.58543" lon="5.69808">
        <ele>443</ele>
        <time>2022-07-29T08:11:06Z</time>
      </trkpt>
      <trkpt lat="46.58546" lon="5.69798">
        <ele>443</ele>
        <time>2022-07-29T08:11:07Z</time>
      </trkpt>
      <trkpt lat="46.58549" lon="5.69788">
        <ele>443</ele>
        <time>2022-07-29T08:11:08Z</time>
      </trkpt>
      <trkpt lat="46.58552" lon="5.69777">
        <ele>443</ele>
        <time>2022-07-29T08:11:09Z</time>
      </trkpt>
      <trkpt lat="46.58555" lon="5.69767">
        <ele>443.2</ele>
        <time>2022-07-29T08:11:10Z</time>
      </trkpt>
      <trkpt lat="46.58557" lon="5.69758">
        <ele>443.2</ele>
        <time>2022-07-29T08:11:11Z</time>
      </trkpt>
      <trkpt lat="46.5856" lon="5.69749">
        <ele>443.2</ele>
        <time>2022-07-29T08:11:12Z</time>
      </trkpt>
      <trkpt lat="46.58562" lon="5.69742">
        <ele>443.2</ele>
        <time>2022-07-29T08:11:13Z</time>
      </trkpt>
      <trkpt lat="46.58563" lon="5.69735">
        <ele>443.4</ele>
        <time>2022-07-29T08:11:14Z</time>
      </trkpt>
      <trkpt lat="46.58565" lon="5.6973">
        <ele>443.4</ele>
        <time>2022-07-29T08:11:15Z</time>
      </trkpt>
      <trkpt lat="46.58566" lon="5.69726">
        <ele>443.4</ele>
        <time>2022-07-29T08:11:16Z</time>
      </trkpt>
      <trkpt lat="46.58567" lon="5.69723">
        <ele>443.4</ele>
        <time>2022-07-29T08:11:17Z</time>
      </trkpt>
      <trkpt lat="46.58567" lon="5.6972">
        <ele>443.4</ele>
        <time>2022-07-29T08:11:18Z</time>
      </trkpt>
      <trkpt lat="46.58565" lon="5.69718">
        <ele>443.4</ele>
        <time>2022-07-29T08:11:19Z</time>
      </trkpt>
      <trkpt lat="46.58563" lon="5.69716">
        <ele>443.4</ele>
        <time>2022-07-29T08:11:20Z</time>
      </trkpt>
      <trkpt lat="46.5856" lon="5.69714">
        <ele>443.4</ele>
        <time>2022-07-29T08:11:21Z</time>
      </trkpt>
      <trkpt lat="46.58557" lon="5.69712">
        <ele>443.6</ele>
        <time>2022-07-29T08:11:22Z</time>
      </trkpt>
      <trkpt lat="46.58555" lon="5.69708">
        <ele>443.6</ele>
        <time>2022-07-29T08:11:23Z</time>
      </trkpt>
      <trkpt lat="46.58552" lon="5.69705">
        <ele>443.6</ele>
        <time>2022-07-29T08:11:24Z</time>
      </trkpt>
      <trkpt lat="46.58548" lon="5.69701">
        <ele>443.6</ele>
        <time>2022-07-29T08:11:25Z</time>
      </trkpt>
      <trkpt lat="46.58545" lon="5.69697">
        <ele>443.8</ele>
        <time>2022-07-29T08:11:26Z</time>
      </trkpt>
      <trkpt lat="46.58541" lon="5.69693">
        <ele>443.8</ele>
        <time>2022-07-29T08:11:27Z</time>
      </trkpt>
      <trkpt lat="46.58538" lon="5.69689">
        <ele>444</ele>
        <time>2022-07-29T08:11:28Z</time>
      </trkpt>
      <trkpt lat="46.58534" lon="5.69685">
        <ele>444</ele>
        <time>2022-07-29T08:11:29Z</time>
      </trkpt>
      <trkpt lat="46.5853" lon="5.69681">
        <ele>444</ele>
        <time>2022-07-29T08:11:30Z</time>
      </trkpt>
      <trkpt lat="46.58527" lon="5.69677">
        <ele>444</ele>
        <time>2022-07-29T08:11:31Z</time>
      </trkpt>
      <trkpt lat="46.58522" lon="5.69673">
        <ele>444.2</ele>
        <time>2022-07-29T08:11:32Z</time>
      </trkpt>
      <trkpt lat="46.58518" lon="5.69669">
        <ele>444.2</ele>
        <time>2022-07-29T08:11:33Z</time>
      </trkpt>
      <trkpt lat="46.58514" lon="5.69665">
        <ele>444.2</ele>
        <time>2022-07-29T08:11:34Z</time>
      </trkpt>
      <trkpt lat="46.5851" lon="5.6966">
        <ele>444.6</ele>
        <time>2022-07-29T08:11:35Z</time>
      </trkpt>
      <trkpt lat="46.58506" lon="5.69656">
        <ele>444.6</ele>
        <time>2022-07-29T08:11:36Z</time>
      </trkpt>
      <trkpt lat="46.58502" lon="5.69651">
        <ele>444.8</ele>
        <time>2022-07-29T08:11:37Z</time>
      </trkpt>
      <trkpt lat="46.58498" lon="5.69646">
        <ele>444.8</ele>
        <time>2022-07-29T08:11:38Z</time>
      </trkpt>
      <trkpt lat="46.58494" lon="5.69642">
        <ele>444.8</ele>
        <time>2022-07-29T08:11:39Z</time>
      </trkpt>
      <trkpt lat="46.5849" lon="5.69637">
        <ele>445.2</ele>
        <time>2022-07-29T08:11:40Z</time>
      </trkpt>
      <trkpt lat="46.58486" lon="5.69633">
        <ele>445.2</ele>
        <time>2022-07-29T08:11:41Z</time>
      </trkpt>
      <trkpt lat="46.58482" lon="5.69628">
        <ele>445.4</ele>
        <time>2022-07-29T08:11:42Z</time>
      </trkpt>
      <trkpt lat="46.58478" lon="5.69624">
        <ele>445.4</ele>
        <time>2022-07-29T08:11:43Z</time>
      </trkpt>
      <trkpt lat="46.58474" lon="5.69619">
        <ele>445.8</ele>
        <time>2022-07-29T08:11:44Z</time>
      </trkpt>
      <trkpt lat="46.58469" lon="5.69614">
        <ele>445.8</ele>
        <time>2022-07-29T08:11:45Z</time>
      </trkpt>
      <trkpt lat="46.58465" lon="5.69609">
        <ele>446</ele>
        <time>2022-07-29T08:11:46Z</time>
      </trkpt>
      <trkpt lat="46.5846" lon="5.69605">
        <ele>446</ele>
        <time>2022-07-29T08:11:47Z</time>
      </trkpt>
      <trkpt lat="46.58456" lon="5.696">
        <ele>446.4</ele>
        <time>2022-07-29T08:11:48Z</time>
      </trkpt>
      <trkpt lat="46.58452" lon="5.69595">
        <ele>446.4</ele>
        <time>2022-07-29T08:11:49Z</time>
      </trkpt>
      <trkpt lat="46.58452" lon="5.69595">
        <ele>446.8</ele>
        <time>2022-07-29T08:11:50Z</time>
      </trkpt>
      <trkpt lat="46.58447" lon="5.6959">
        <ele>447</ele>
        <time>2022-07-29T08:11:51Z</time>
      </trkpt>
      <trkpt lat="46.58443" lon="5.69585">
        <ele>447</ele>
        <time>2022-07-29T08:11:52Z</time>
      </trkpt>
      <trkpt lat="46.58439" lon="5.6958">
        <ele>447.4</ele>
        <time>2022-07-29T08:11:53Z</time>
      </trkpt>
      <trkpt lat="46.58435" lon="5.69575">
        <ele>447.6</ele>
        <time>2022-07-29T08:11:54Z</time>
      </trkpt>
      <trkpt lat="46.58431" lon="5.69571">
        <ele>447.6</ele>
        <time>2022-07-29T08:11:55Z</time>
      </trkpt>
      <trkpt lat="46.58427" lon="5.69566">
        <ele>448</ele>
        <time>2022-07-29T08:11:56Z</time>
      </trkpt>
      <trkpt lat="46.58423" lon="5.69561">
        <ele>448</ele>
        <time>2022-07-29T08:11:57Z</time>
      </trkpt>
      <trkpt lat="46.58419" lon="5.69556">
        <ele>448.4</ele>
        <time>2022-07-29T08:11:58Z</time>
      </trkpt>
      <trkpt lat="46.58415" lon="5.69552">
        <ele>448.6</ele>
        <time>2022-07-29T08:11:59Z</time>
      </trkpt>
      <trkpt lat="46.5841" lon="5.69547">
        <ele>448.6</ele>
        <time>2022-07-29T08:12:00Z</time>
      </trkpt>
      <trkpt lat="46.58406" lon="5.69543">
        <ele>449</ele>
        <time>2022-07-29T08:12:01Z</time>
      </trkpt>
      <trkpt lat="46.58402" lon="5.69538">
        <ele>449.2</ele>
        <time>2022-07-29T08:12:02Z</time>
      </trkpt>
      <trkpt lat="46.58399" lon="5.69533">
        <ele>449.4</ele>
        <time>2022-07-29T08:12:03Z</time>
      </trkpt>
      <trkpt lat="46.58395" lon="5.69529">
        <ele>449.4</ele>
        <time>2022-07-29T08:12:04Z</time>
      </trkpt>
      <trkpt lat="46.58391" lon="5.69525">
        <ele>449.8</ele>
        <time>2022-07-29T08:12:05Z</time>
      </trkpt>
      <trkpt lat="46.58388" lon="5.6952">
        <ele>449.8</ele>
        <time>2022-07-29T08:12:06Z</time>
      </trkpt>
      <trkpt lat="46.58384" lon="5.69515">
        <ele>450.2</ele>
        <time>2022-07-29T08:12:07Z</time>
      </trkpt>
      <trkpt lat="46.5838" lon="5.69511">
        <ele>450.2</ele>
        <time>2022-07-29T08:12:08Z</time>
      </trkpt>
      <trkpt lat="46.58377" lon="5.69506">
        <ele>450.4</ele>
        <time>2022-07-29T08:12:09Z</time>
      </trkpt>
      <trkpt lat="46.58373" lon="5.69502">
        <ele>450.4</ele>
        <time>2022-07-29T08:12:10Z</time>
      </trkpt>
      <trkpt lat="46.58369" lon="5.69497">
        <ele>450.8</ele>
        <time>2022-07-29T08:12:11Z</time>
      </trkpt>
      <trkpt lat="46.58366" lon="5.69493">
        <ele>450.8</ele>
        <time>2022-07-29T08:12:12Z</time>
      </trkpt>
      <trkpt lat="46.58362" lon="5.69489">
        <ele>451.2</ele>
        <time>2022-07-29T08:12:13Z</time>
      </trkpt>
      <trkpt lat="46.58358" lon="5.69485">
        <ele>451.4</ele>
        <time>2022-07-29T08:12:14Z</time>
      </trkpt>
      <trkpt lat="46.58355" lon="5.69481">
        <ele>451.8</ele>
        <time>2022-07-29T08:12:15Z</time>
      </trkpt>
      <trkpt lat="46.58351" lon="5.69477">
        <ele>452</ele>
        <time>2022-07-29T08:12:16Z</time>
      </trkpt>
      <trkpt lat="46.58348" lon="5.69472">
        <ele>452.2</ele>
        <time>2022-07-29T08:12:17Z</time>
      </trkpt>
      <trkpt lat="46.58344" lon="5.69468">
        <ele>452.2</ele>
        <time>2022-07-29T08:12:18Z</time>
      </trkpt>
      <trkpt lat="46.58341" lon="5.69464">
        <ele>452.6</ele>
        <time>2022-07-29T08:12:19Z</time>
      </trkpt>
      <trkpt lat="46.58337" lon="5.69459">
        <ele>452.8</ele>
        <time>2022-07-29T08:12:20Z</time>
      </trkpt>
      <trkpt lat="46.58333" lon="5.69455">
        <ele>452.8</ele>
        <time>2022-07-29T08:12:21Z</time>
      </trkpt>
      <trkpt lat="46.5833" lon="5.6945">
        <ele>453.2</ele>
        <time>2022-07-29T08:12:22Z</time>
      </trkpt>
      <trkpt lat="46.58326" lon="5.69445">
        <ele>453.4</ele>
        <time>2022-07-29T08:12:23Z</time>
      </trkpt>
      <trkpt lat="46.58322" lon="5.69441">
        <ele>453.6</ele>
        <time>2022-07-29T08:12:24Z</time>
      </trkpt>
      <trkpt lat="46.58319" lon="5.69436">
        <ele>454</ele>
        <time>2022-07-29T08:12:25Z</time>
      </trkpt>
      <trkpt lat="46.58315" lon="5.69432">
        <ele>454</ele>
        <time>2022-07-29T08:12:26Z</time>
      </trkpt>
      <trkpt lat="46.58312" lon="5.69428">
        <ele>454.2</ele>
        <time>2022-07-29T08:12:27Z</time>
      </trkpt>
      <trkpt lat="46.58308" lon="5.69424">
        <ele>454.4</ele>
        <time>2022-07-29T08:12:28Z</time>
      </trkpt>
      <trkpt lat="46.58304" lon="5.69419">
        <ele>454.6</ele>
        <time>2022-07-29T08:12:29Z</time>
      </trkpt>
      <trkpt lat="46.58301" lon="5.69415">
        <ele>455</ele>
        <time>2022-07-29T08:12:30Z</time>
      </trkpt>
      <trkpt lat="46.58298" lon="5.69411">
        <ele>455.2</ele>
        <time>2022-07-29T08:12:31Z</time>
      </trkpt>
      <trkpt lat="46.58294" lon="5.69408">
        <ele>455.6</ele>
        <time>2022-07-29T08:12:32Z</time>
      </trkpt>
      <trkpt lat="46.58291" lon="5.69404">
        <ele>455.6</ele>
        <time>2022-07-29T08:12:33Z</time>
      </trkpt>
      <trkpt lat="46.58287" lon="5.694">
        <ele>456</ele>
        <time>2022-07-29T08:12:34Z</time>
      </trkpt>
      <trkpt lat="46.58284" lon="5.69396">
        <ele>456.2</ele>
        <time>2022-07-29T08:12:35Z</time>
      </trkpt>
      <trkpt lat="46.58281" lon="5.69393">
        <ele>456.2</ele>
        <time>2022-07-29T08:12:36Z</time>
      </trkpt>
      <trkpt lat="46.58277" lon="5.69389">
        <ele>456.6</ele>
        <time>2022-07-29T08:12:37Z</time>
      </trkpt>
      <trkpt lat="46.58274" lon="5.69385">
        <ele>456.6</ele>
        <time>2022-07-29T08:12:38Z</time>
      </trkpt>
      <trkpt lat="46.5827" lon="5.69381">
        <ele>457</ele>
        <time>2022-07-29T08:12:39Z</time>
      </trkpt>
      <trkpt lat="46.58267" lon="5.69376">
        <ele>457.4</ele>
        <time>2022-07-29T08:12:40Z</time>
      </trkpt>
      <trkpt lat="46.58263" lon="5.69372">
        <ele>457.6</ele>
        <time>2022-07-29T08:12:41Z</time>
      </trkpt>
      <trkpt lat="46.5826" lon="5.69368">
        <ele>457.6</ele>
        <time>2022-07-29T08:12:42Z</time>
      </trkpt>
      <trkpt lat="46.58256" lon="5.69363">
        <ele>458</ele>
        <time>2022-07-29T08:12:43Z</time>
      </trkpt>
      <trkpt lat="46.58252" lon="5.69359">
        <ele>458</ele>
        <time>2022-07-29T08:12:44Z</time>
      </trkpt>
      <trkpt lat="46.58249" lon="5.69355">
        <ele>458.4</ele>
        <time>2022-07-29T08:12:45Z</time>
      </trkpt>
      <trkpt lat="46.58246" lon="5.69351">
        <ele>458.6</ele>
        <time>2022-07-29T08:12:46Z</time>
      </trkpt>
      <trkpt lat="46.58242" lon="5.69347">
        <ele>458.8</ele>
        <time>2022-07-29T08:12:47Z</time>
      </trkpt>
      <trkpt lat="46.58239" lon="5.69343">
        <ele>458.8</ele>
        <time>2022-07-29T08:12:48Z</time>
      </trkpt>
      <trkpt lat="46.58236" lon="5.69339">
        <ele>459.2</ele>
        <time>2022-07-29T08:12:49Z</time>
      </trkpt>
      <trkpt lat="46.58232" lon="5.69336">
        <ele>459.4</ele>
        <time>2022-07-29T08:12:50Z</time>
      </trkpt>
      <trkpt lat="46.58229" lon="5.69332">
        <ele>459.4</ele>
        <time>2022-07-29T08:12:51Z</time>
      </trkpt>
      <trkpt lat="46.58226" lon="5.69329">
        <ele>459.8</ele>
        <time>2022-07-29T08:12:52Z</time>
      </trkpt>
      <trkpt lat="46.58222" lon="5.69325">
        <ele>459.8</ele>
        <time>2022-07-29T08:12:53Z</time>
      </trkpt>
      <trkpt lat="46.58218" lon="5.69322">
        <ele>460.2</ele>
        <time>2022-07-29T08:12:54Z</time>
      </trkpt>
      <trkpt lat="46.58215" lon="5.69318">
        <ele>460.2</ele>
        <time>2022-07-29T08:12:55Z</time>
      </trkpt>
      <trkpt lat="46.58211" lon="5.69314">
        <ele>460.4</ele>
        <time>2022-07-29T08:12:56Z</time>
      </trkpt>
      <trkpt lat="46.58204" lon="5.69305">
        <ele>460.4</ele>
        <time>2022-07-29T08:12:57Z</time>
      </trkpt>
      <trkpt lat="46.58201" lon="5.693">
        <ele>460.6</ele>
        <time>2022-07-29T08:12:58Z</time>
      </trkpt>
      <trkpt lat="46.58198" lon="5.69295">
        <ele>460.6</ele>
        <time>2022-07-29T08:12:59Z</time>
      </trkpt>
      <trkpt lat="46.58194" lon="5.6929">
        <ele>460.6</ele>
        <time>2022-07-29T08:13:00Z</time>
      </trkpt>
      <trkpt lat="46.58191" lon="5.69285">
        <ele>460.8</ele>
        <time>2022-07-29T08:13:01Z</time>
      </trkpt>
      <trkpt lat="46.58188" lon="5.69281">
        <ele>460.8</ele>
        <time>2022-07-29T08:13:02Z</time>
      </trkpt>
      <trkpt lat="46.58184" lon="5.69277">
        <ele>461.2</ele>
        <time>2022-07-29T08:13:03Z</time>
      </trkpt>
      <trkpt lat="46.58181" lon="5.69272">
        <ele>461.4</ele>
        <time>2022-07-29T08:13:04Z</time>
      </trkpt>
      <trkpt lat="46.58178" lon="5.69268">
        <ele>461.4</ele>
        <time>2022-07-29T08:13:05Z</time>
      </trkpt>
      <trkpt lat="46.58174" lon="5.69264">
        <ele>461.6</ele>
        <time>2022-07-29T08:13:06Z</time>
      </trkpt>
      <trkpt lat="46.58171" lon="5.6926">
        <ele>461.6</ele>
        <time>2022-07-29T08:13:07Z</time>
      </trkpt>
      <trkpt lat="46.58168" lon="5.69256">
        <ele>461.8</ele>
        <time>2022-07-29T08:13:08Z</time>
      </trkpt>
      <trkpt lat="46.58165" lon="5.69252">
        <ele>461.8</ele>
        <time>2022-07-29T08:13:09Z</time>
      </trkpt>
      <trkpt lat="46.58161" lon="5.69248">
        <ele>462.2</ele>
        <time>2022-07-29T08:13:10Z</time>
      </trkpt>
      <trkpt lat="46.58158" lon="5.69244">
        <ele>462.2</ele>
        <time>2022-07-29T08:13:11Z</time>
      </trkpt>
      <trkpt lat="46.58155" lon="5.6924">
        <ele>462.4</ele>
        <time>2022-07-29T08:13:12Z</time>
      </trkpt>
      <trkpt lat="46.58152" lon="5.69236">
        <ele>462.4</ele>
        <time>2022-07-29T08:13:13Z</time>
      </trkpt>
      <trkpt lat="46.58148" lon="5.69232">
        <ele>462.6</ele>
        <time>2022-07-29T08:13:14Z</time>
      </trkpt>
      <trkpt lat="46.58145" lon="5.69228">
        <ele>462.6</ele>
        <time>2022-07-29T08:13:15Z</time>
      </trkpt>
      <trkpt lat="46.58142" lon="5.69224">
        <ele>462.8</ele>
        <time>2022-07-29T08:13:16Z</time>
      </trkpt>
      <trkpt lat="46.58139" lon="5.69221">
        <ele>462.8</ele>
        <time>2022-07-29T08:13:17Z</time>
      </trkpt>
      <trkpt lat="46.58136" lon="5.69217">
        <ele>463.2</ele>
        <time>2022-07-29T08:13:18Z</time>
      </trkpt>
      <trkpt lat="46.58132" lon="5.69213">
        <ele>463.4</ele>
        <time>2022-07-29T08:13:19Z</time>
      </trkpt>
      <trkpt lat="46.58129" lon="5.69209">
        <ele>463.4</ele>
        <time>2022-07-29T08:13:20Z</time>
      </trkpt>
      <trkpt lat="46.58125" lon="5.69205">
        <ele>463.6</ele>
        <time>2022-07-29T08:13:21Z</time>
      </trkpt>
      <trkpt lat="46.58122" lon="5.69201">
        <ele>463.6</ele>
        <time>2022-07-29T08:13:22Z</time>
      </trkpt>
      <trkpt lat="46.58118" lon="5.69197">
        <ele>463.6</ele>
        <time>2022-07-29T08:13:23Z</time>
      </trkpt>
      <trkpt lat="46.58115" lon="5.69193">
        <ele>464</ele>
        <time>2022-07-29T08:13:24Z</time>
      </trkpt>
      <trkpt lat="46.58112" lon="5.69188">
        <ele>464</ele>
        <time>2022-07-29T08:13:25Z</time>
      </trkpt>
      <trkpt lat="46.58108" lon="5.69184">
        <ele>464.2</ele>
        <time>2022-07-29T08:13:26Z</time>
      </trkpt>
      <trkpt lat="46.58105" lon="5.69179">
        <ele>464.2</ele>
        <time>2022-07-29T08:13:27Z</time>
      </trkpt>
      <trkpt lat="46.58101" lon="5.69175">
        <ele>464.4</ele>
        <time>2022-07-29T08:13:28Z</time>
      </trkpt>
      <trkpt lat="46.58097" lon="5.69171">
        <ele>464.4</ele>
        <time>2022-07-29T08:13:29Z</time>
      </trkpt>
      <trkpt lat="46.58094" lon="5.69166">
        <ele>464.6</ele>
        <time>2022-07-29T08:13:30Z</time>
      </trkpt>
      <trkpt lat="46.5809" lon="5.69162">
        <ele>464.6</ele>
        <time>2022-07-29T08:13:31Z</time>
      </trkpt>
      <trkpt lat="46.58086" lon="5.69158">
        <ele>464.6</ele>
        <time>2022-07-29T08:13:32Z</time>
      </trkpt>
      <trkpt lat="46.58083" lon="5.69153">
        <ele>464.6</ele>
        <time>2022-07-29T08:13:33Z</time>
      </trkpt>
      <trkpt lat="46.58079" lon="5.69148">
        <ele>465</ele>
        <time>2022-07-29T08:13:34Z</time>
      </trkpt>
      <trkpt lat="46.58075" lon="5.69143">
        <ele>465</ele>
        <time>2022-07-29T08:13:35Z</time>
      </trkpt>
      <trkpt lat="46.58072" lon="5.69139">
        <ele>465.2</ele>
        <time>2022-07-29T08:13:36Z</time>
      </trkpt>
      <trkpt lat="46.58068" lon="5.69134">
        <ele>465.2</ele>
        <time>2022-07-29T08:13:37Z</time>
      </trkpt>
      <trkpt lat="46.58064" lon="5.69129">
        <ele>465.2</ele>
        <time>2022-07-29T08:13:38Z</time>
      </trkpt>
      <trkpt lat="46.5806" lon="5.69124">
        <ele>465.2</ele>
        <time>2022-07-29T08:13:39Z</time>
      </trkpt>
      <trkpt lat="46.58056" lon="5.69119">
        <ele>465.6</ele>
        <time>2022-07-29T08:13:40Z</time>
      </trkpt>
      <trkpt lat="46.58052" lon="5.69114">
        <ele>465.6</ele>
        <time>2022-07-29T08:13:41Z</time>
      </trkpt>
      <trkpt lat="46.58048" lon="5.69109">
        <ele>465.8</ele>
        <time>2022-07-29T08:13:42Z</time>
      </trkpt>
      <trkpt lat="46.58043" lon="5.69104">
        <ele>465.8</ele>
        <time>2022-07-29T08:13:43Z</time>
      </trkpt>
      <trkpt lat="46.58039" lon="5.69099">
        <ele>465.8</ele>
        <time>2022-07-29T08:13:44Z</time>
      </trkpt>
      <trkpt lat="46.58035" lon="5.69094">
        <ele>466</ele>
        <time>2022-07-29T08:13:45Z</time>
      </trkpt>
      <trkpt lat="46.58031" lon="5.69089">
        <ele>466</ele>
        <time>2022-07-29T08:13:46Z</time>
      </trkpt>
      <trkpt lat="46.58027" lon="5.69084">
        <ele>466.4</ele>
        <time>2022-07-29T08:13:47Z</time>
      </trkpt>
      <trkpt lat="46.58023" lon="5.69079">
        <ele>466.6</ele>
        <time>2022-07-29T08:13:48Z</time>
      </trkpt>
      <trkpt lat="46.58019" lon="5.69075">
        <ele>466.6</ele>
        <time>2022-07-29T08:13:49Z</time>
      </trkpt>
      <trkpt lat="46.58015" lon="5.6907">
        <ele>466.8</ele>
        <time>2022-07-29T08:13:50Z</time>
      </trkpt>
      <trkpt lat="46.58011" lon="5.69065">
        <ele>466.8</ele>
        <time>2022-07-29T08:13:51Z</time>
      </trkpt>
      <trkpt lat="46.58007" lon="5.6906">
        <ele>466.8</ele>
        <time>2022-07-29T08:13:52Z</time>
      </trkpt>
      <trkpt lat="46.58003" lon="5.69055">
        <ele>467.2</ele>
        <time>2022-07-29T08:13:53Z</time>
      </trkpt>
      <trkpt lat="46.57999" lon="5.6905">
        <ele>467.2</ele>
        <time>2022-07-29T08:13:54Z</time>
      </trkpt>
      <trkpt lat="46.57995" lon="5.69045">
        <ele>467.4</ele>
        <time>2022-07-29T08:13:55Z</time>
      </trkpt>
      <trkpt lat="46.57991" lon="5.6904">
        <ele>467.4</ele>
        <time>2022-07-29T08:13:56Z</time>
      </trkpt>
      <trkpt lat="46.57987" lon="5.69035">
        <ele>467.6</ele>
        <time>2022-07-29T08:13:57Z</time>
      </trkpt>
      <trkpt lat="46.57983" lon="5.6903">
        <ele>467.8</ele>
        <time>2022-07-29T08:13:58Z</time>
      </trkpt>
      <trkpt lat="46.57979" lon="5.69025">
        <ele>467.8</ele>
        <time>2022-07-29T08:13:59Z</time>
      </trkpt>
      <trkpt lat="46.57975" lon="5.6902">
        <ele>468</ele>
        <time>2022-07-29T08:14:00Z</time>
      </trkpt>
      <trkpt lat="46.57971" lon="5.69015">
        <ele>468.2</ele>
        <time>2022-07-29T08:14:01Z</time>
      </trkpt>
      <trkpt lat="46.57967" lon="5.6901">
        <ele>468.4</ele>
        <time>2022-07-29T08:14:02Z</time>
      </trkpt>
      <trkpt lat="46.57963" lon="5.69005">
        <ele>468.4</ele>
        <time>2022-07-29T08:14:03Z</time>
      </trkpt>
      <trkpt lat="46.57959" lon="5.69">
        <ele>468.8</ele>
        <time>2022-07-29T08:14:04Z</time>
      </trkpt>
      <trkpt lat="46.57955" lon="5.68995">
        <ele>468.8</ele>
        <time>2022-07-29T08:14:05Z</time>
      </trkpt>
      <trkpt lat="46.57951" lon="5.6899">
        <ele>469</ele>
        <time>2022-07-29T08:14:06Z</time>
      </trkpt>
      <trkpt lat="46.57947" lon="5.68985">
        <ele>469</ele>
        <time>2022-07-29T08:14:07Z</time>
      </trkpt>
      <trkpt lat="46.57943" lon="5.68979">
        <ele>469.4</ele>
        <time>2022-07-29T08:14:08Z</time>
      </trkpt>
      <trkpt lat="46.57939" lon="5.68974">
        <ele>469.4</ele>
        <time>2022-07-29T08:14:09Z</time>
      </trkpt>
      <trkpt lat="46.57935" lon="5.68969">
        <ele>469.6</ele>
        <time>2022-07-29T08:14:10Z</time>
      </trkpt>
      <trkpt lat="46.57931" lon="5.68964">
        <ele>469.6</ele>
        <time>2022-07-29T08:14:11Z</time>
      </trkpt>
      <trkpt lat="46.57926" lon="5.68958">
        <ele>469.6</ele>
        <time>2022-07-29T08:14:12Z</time>
      </trkpt>
      <trkpt lat="46.57922" lon="5.68953">
        <ele>469.6</ele>
        <time>2022-07-29T08:14:13Z</time>
      </trkpt>
      <trkpt lat="46.57917" lon="5.68947">
        <ele>469.6</ele>
        <time>2022-07-29T08:14:14Z</time>
      </trkpt>
      <trkpt lat="46.57912" lon="5.68941">
        <ele>469.6</ele>
        <time>2022-07-29T08:14:15Z</time>
      </trkpt>
      <trkpt lat="46.57907" lon="5.68934">
        <ele>469.6</ele>
        <time>2022-07-29T08:14:16Z</time>
      </trkpt>
      <trkpt lat="46.57903" lon="5.68928">
        <ele>469.6</ele>
        <time>2022-07-29T08:14:17Z</time>
      </trkpt>
      <trkpt lat="46.57898" lon="5.68922">
        <ele>469.6</ele>
        <time>2022-07-29T08:14:18Z</time>
      </trkpt>
      <trkpt lat="46.57893" lon="5.68916">
        <ele>469.6</ele>
        <time>2022-07-29T08:14:19Z</time>
      </trkpt>
      <trkpt lat="46.57888" lon="5.6891">
        <ele>469.6</ele>
        <time>2022-07-29T08:14:20Z</time>
      </trkpt>
      <trkpt lat="46.57883" lon="5.68904">
        <ele>469.6</ele>
        <time>2022-07-29T08:14:21Z</time>
      </trkpt>
      <trkpt lat="46.57878" lon="5.68897">
        <ele>469.6</ele>
        <time>2022-07-29T08:14:22Z</time>
      </trkpt>
      <trkpt lat="46.57873" lon="5.68891">
        <ele>469.6</ele>
        <time>2022-07-29T08:14:23Z</time>
      </trkpt>
      <trkpt lat="46.57868" lon="5.68885">
        <ele>469.6</ele>
        <time>2022-07-29T08:14:24Z</time>
      </trkpt>
      <trkpt lat="46.57862" lon="5.68879">
        <ele>469.6</ele>
        <time>2022-07-29T08:14:25Z</time>
      </trkpt>
      <trkpt lat="46.57857" lon="5.68872">
        <ele>469.6</ele>
        <time>2022-07-29T08:14:26Z</time>
      </trkpt>
      <trkpt lat="46.57852" lon="5.68865">
        <ele>469.6</ele>
        <time>2022-07-29T08:14:27Z</time>
      </trkpt>
      <trkpt lat="46.57847" lon="5.68858">
        <ele>469.4</ele>
        <time>2022-07-29T08:14:28Z</time>
      </trkpt>
      <trkpt lat="46.57841" lon="5.68851">
        <ele>469.2</ele>
        <time>2022-07-29T08:14:29Z</time>
      </trkpt>
      <trkpt lat="46.57836" lon="5.68844">
        <ele>469.2</ele>
        <time>2022-07-29T08:14:30Z</time>
      </trkpt>
      <trkpt lat="46.5783" lon="5.68838">
        <ele>469</ele>
        <time>2022-07-29T08:14:31Z</time>
      </trkpt>
      <trkpt lat="46.57825" lon="5.68831">
        <ele>469</ele>
        <time>2022-07-29T08:14:32Z</time>
      </trkpt>
      <trkpt lat="46.57819" lon="5.68824">
        <ele>469</ele>
        <time>2022-07-29T08:14:33Z</time>
      </trkpt>
      <trkpt lat="46.57813" lon="5.68817">
        <ele>468.8</ele>
        <time>2022-07-29T08:14:34Z</time>
      </trkpt>
      <trkpt lat="46.57808" lon="5.6881">
        <ele>468.8</ele>
        <time>2022-07-29T08:14:35Z</time>
      </trkpt>
      <trkpt lat="46.57802" lon="5.68803">
        <ele>468.8</ele>
        <time>2022-07-29T08:14:36Z</time>
      </trkpt>
      <trkpt lat="46.57797" lon="5.68796">
        <ele>468.8</ele>
        <time>2022-07-29T08:14:37Z</time>
      </trkpt>
      <trkpt lat="46.57791" lon="5.68789">
        <ele>468.8</ele>
        <time>2022-07-29T08:14:38Z</time>
      </trkpt>
      <trkpt lat="46.57786" lon="5.68782">
        <ele>468.8</ele>
        <time>2022-07-29T08:14:39Z</time>
      </trkpt>
      <trkpt lat="46.5778" lon="5.68775">
        <ele>468.8</ele>
        <time>2022-07-29T08:14:40Z</time>
      </trkpt>
      <trkpt lat="46.57775" lon="5.68769">
        <ele>468.8</ele>
        <time>2022-07-29T08:14:41Z</time>
      </trkpt>
      <trkpt lat="46.5777" lon="5.68762">
        <ele>468.8</ele>
        <time>2022-07-29T08:14:42Z</time>
      </trkpt>
      <trkpt lat="46.57765" lon="5.68755">
        <ele>468.8</ele>
        <time>2022-07-29T08:14:43Z</time>
      </trkpt>
      <trkpt lat="46.5776" lon="5.68749">
        <ele>468.8</ele>
        <time>2022-07-29T08:14:44Z</time>
      </trkpt>
      <trkpt lat="46.57755" lon="5.68743">
        <ele>469</ele>
        <time>2022-07-29T08:14:45Z</time>
      </trkpt>
      <trkpt lat="46.5775" lon="5.68736">
        <ele>469</ele>
        <time>2022-07-29T08:14:46Z</time>
      </trkpt>
      <trkpt lat="46.57745" lon="5.6873">
        <ele>469.2</ele>
        <time>2022-07-29T08:14:47Z</time>
      </trkpt>
      <trkpt lat="46.5774" lon="5.68724">
        <ele>469.2</ele>
        <time>2022-07-29T08:14:48Z</time>
      </trkpt>
      <trkpt lat="46.57735" lon="5.68718">
        <ele>469.4</ele>
        <time>2022-07-29T08:14:49Z</time>
      </trkpt>
      <trkpt lat="46.5773" lon="5.68713">
        <ele>469.4</ele>
        <time>2022-07-29T08:14:50Z</time>
      </trkpt>
      <trkpt lat="46.57726" lon="5.68707">
        <ele>469.4</ele>
        <time>2022-07-29T08:14:51Z</time>
      </trkpt>
      <trkpt lat="46.57721" lon="5.68701">
        <ele>469.6</ele>
        <time>2022-07-29T08:14:52Z</time>
      </trkpt>
      <trkpt lat="46.57717" lon="5.68695">
        <ele>469.6</ele>
        <time>2022-07-29T08:14:53Z</time>
      </trkpt>
      <trkpt lat="46.57712" lon="5.68689">
        <ele>469.6</ele>
        <time>2022-07-29T08:14:54Z</time>
      </trkpt>
      <trkpt lat="46.57707" lon="5.68683">
        <ele>469.6</ele>
        <time>2022-07-29T08:14:55Z</time>
      </trkpt>
      <trkpt lat="46.57703" lon="5.68677">
        <ele>469.6</ele>
        <time>2022-07-29T08:14:56Z</time>
      </trkpt>
      <trkpt lat="46.57698" lon="5.68671">
        <ele>470</ele>
        <time>2022-07-29T08:14:57Z</time>
      </trkpt>
      <trkpt lat="46.57693" lon="5.68665">
        <ele>470</ele>
        <time>2022-07-29T08:14:58Z</time>
      </trkpt>
      <trkpt lat="46.57688" lon="5.68658">
        <ele>470</ele>
        <time>2022-07-29T08:14:59Z</time>
      </trkpt>
      <trkpt lat="46.57683" lon="5.68652">
        <ele>470</ele>
        <time>2022-07-29T08:15:00Z</time>
      </trkpt>
      <trkpt lat="46.57678" lon="5.68646">
        <ele>470</ele>
        <time>2022-07-29T08:15:01Z</time>
      </trkpt>
      <trkpt lat="46.57673" lon="5.68639">
        <ele>470</ele>
        <time>2022-07-29T08:15:02Z</time>
      </trkpt>
      <trkpt lat="46.57668" lon="5.68633">
        <ele>470</ele>
        <time>2022-07-29T08:15:03Z</time>
      </trkpt>
      <trkpt lat="46.57662" lon="5.68626">
        <ele>470</ele>
        <time>2022-07-29T08:15:04Z</time>
      </trkpt>
      <trkpt lat="46.57662" lon="5.68626">
        <ele>470</ele>
        <time>2022-07-29T08:15:05Z</time>
      </trkpt>
      <trkpt lat="46.57657" lon="5.68619">
        <ele>470</ele>
        <time>2022-07-29T08:15:06Z</time>
      </trkpt>
      <trkpt lat="46.57651" lon="5.68612">
        <ele>469.6</ele>
        <time>2022-07-29T08:15:07Z</time>
      </trkpt>
      <trkpt lat="46.57646" lon="5.68605">
        <ele>469.6</ele>
        <time>2022-07-29T08:15:08Z</time>
      </trkpt>
      <trkpt lat="46.5764" lon="5.68598">
        <ele>469.6</ele>
        <time>2022-07-29T08:15:09Z</time>
      </trkpt>
      <trkpt lat="46.57634" lon="5.68591">
        <ele>469.6</ele>
        <time>2022-07-29T08:15:10Z</time>
      </trkpt>
      <trkpt lat="46.57629" lon="5.68584">
        <ele>469.4</ele>
        <time>2022-07-29T08:15:11Z</time>
      </trkpt>
      <trkpt lat="46.57623" lon="5.68576">
        <ele>469.4</ele>
        <time>2022-07-29T08:15:12Z</time>
      </trkpt>
      <trkpt lat="46.57616" lon="5.68569">
        <ele>469</ele>
        <time>2022-07-29T08:15:13Z</time>
      </trkpt>
      <trkpt lat="46.5761" lon="5.68561">
        <ele>469</ele>
        <time>2022-07-29T08:15:14Z</time>
      </trkpt>
      <trkpt lat="46.57604" lon="5.68553">
        <ele>468.8</ele>
        <time>2022-07-29T08:15:15Z</time>
      </trkpt>
      <trkpt lat="46.57598" lon="5.68546">
        <ele>468.8</ele>
        <time>2022-07-29T08:15:16Z</time>
      </trkpt>
      <trkpt lat="46.57592" lon="5.68538">
        <ele>468.4</ele>
        <time>2022-07-29T08:15:17Z</time>
      </trkpt>
      <trkpt lat="46.57585" lon="5.6853">
        <ele>468.4</ele>
        <time>2022-07-29T08:15:18Z</time>
      </trkpt>
      <trkpt lat="46.57579" lon="5.68522">
        <ele>468.2</ele>
        <time>2022-07-29T08:15:19Z</time>
      </trkpt>
      <trkpt lat="46.57573" lon="5.68514">
        <ele>468.2</ele>
        <time>2022-07-29T08:15:20Z</time>
      </trkpt>
      <trkpt lat="46.57567" lon="5.68506">
        <ele>468.2</ele>
        <time>2022-07-29T08:15:21Z</time>
      </trkpt>
      <trkpt lat="46.57561" lon="5.68499">
        <ele>468</ele>
        <time>2022-07-29T08:15:22Z</time>
      </trkpt>
      <trkpt lat="46.57555" lon="5.68491">
        <ele>468</ele>
        <time>2022-07-29T08:15:23Z</time>
      </trkpt>
      <trkpt lat="46.57549" lon="5.68484">
        <ele>468</ele>
        <time>2022-07-29T08:15:24Z</time>
      </trkpt>
      <trkpt lat="46.57543" lon="5.68477">
        <ele>468.2</ele>
        <time>2022-07-29T08:15:25Z</time>
      </trkpt>
      <trkpt lat="46.57537" lon="5.6847">
        <ele>468.2</ele>
        <time>2022-07-29T08:15:26Z</time>
      </trkpt>
      <trkpt lat="46.57532" lon="5.68463">
        <ele>468.4</ele>
        <time>2022-07-29T08:15:27Z</time>
      </trkpt>
      <trkpt lat="46.57527" lon="5.68457">
        <ele>468.4</ele>
        <time>2022-07-29T08:15:28Z</time>
      </trkpt>
      <trkpt lat="46.57522" lon="5.6845">
        <ele>468.8</ele>
        <time>2022-07-29T08:15:29Z</time>
      </trkpt>
      <trkpt lat="46.57517" lon="5.68444">
        <ele>468.8</ele>
        <time>2022-07-29T08:15:30Z</time>
      </trkpt>
      <trkpt lat="46.57512" lon="5.68438">
        <ele>469.2</ele>
        <time>2022-07-29T08:15:31Z</time>
      </trkpt>
      <trkpt lat="46.57507" lon="5.68432">
        <ele>469.2</ele>
        <time>2022-07-29T08:15:32Z</time>
      </trkpt>
      <trkpt lat="46.57502" lon="5.68427">
        <ele>469.4</ele>
        <time>2022-07-29T08:15:33Z</time>
      </trkpt>
      <trkpt lat="46.57498" lon="5.68421">
        <ele>469.4</ele>
        <time>2022-07-29T08:15:34Z</time>
      </trkpt>
      <trkpt lat="46.57494" lon="5.68415">
        <ele>469.8</ele>
        <time>2022-07-29T08:15:35Z</time>
      </trkpt>
      <trkpt lat="46.57489" lon="5.68409">
        <ele>470</ele>
        <time>2022-07-29T08:15:36Z</time>
      </trkpt>
      <trkpt lat="46.57485" lon="5.68404">
        <ele>470.2</ele>
        <time>2022-07-29T08:15:37Z</time>
      </trkpt>
      <trkpt lat="46.57481" lon="5.68399">
        <ele>470.2</ele>
        <time>2022-07-29T08:15:38Z</time>
      </trkpt>
      <trkpt lat="46.57477" lon="5.68394">
        <ele>470.6</ele>
        <time>2022-07-29T08:15:39Z</time>
      </trkpt>
      <trkpt lat="46.57473" lon="5.68389">
        <ele>470.6</ele>
        <time>2022-07-29T08:15:40Z</time>
      </trkpt>
      <trkpt lat="46.57469" lon="5.68384">
        <ele>471</ele>
        <time>2022-07-29T08:15:41Z</time>
      </trkpt>
      <trkpt lat="46.57465" lon="5.68379">
        <ele>471</ele>
        <time>2022-07-29T08:15:42Z</time>
      </trkpt>
      <trkpt lat="46.57461" lon="5.68374">
        <ele>471.4</ele>
        <time>2022-07-29T08:15:43Z</time>
      </trkpt>
      <trkpt lat="46.57457" lon="5.68369">
        <ele>471.4</ele>
        <time>2022-07-29T08:15:44Z</time>
      </trkpt>
      <trkpt lat="46.57453" lon="5.68364">
        <ele>471.6</ele>
        <time>2022-07-29T08:15:45Z</time>
      </trkpt>
      <trkpt lat="46.57449" lon="5.68359">
        <ele>471.6</ele>
        <time>2022-07-29T08:15:46Z</time>
      </trkpt>
      <trkpt lat="46.57445" lon="5.68355">
        <ele>471.8</ele>
        <time>2022-07-29T08:15:47Z</time>
      </trkpt>
      <trkpt lat="46.57441" lon="5.6835">
        <ele>471.8</ele>
        <time>2022-07-29T08:15:48Z</time>
      </trkpt>
      <trkpt lat="46.57437" lon="5.68344">
        <ele>471.8</ele>
        <time>2022-07-29T08:15:49Z</time>
      </trkpt>
      <trkpt lat="46.57434" lon="5.6834">
        <ele>472.2</ele>
        <time>2022-07-29T08:15:50Z</time>
      </trkpt>
      <trkpt lat="46.5743" lon="5.68335">
        <ele>472.2</ele>
        <time>2022-07-29T08:15:51Z</time>
      </trkpt>
      <trkpt lat="46.57426" lon="5.6833">
        <ele>472.4</ele>
        <time>2022-07-29T08:15:52Z</time>
      </trkpt>
      <trkpt lat="46.57422" lon="5.68325">
        <ele>472.4</ele>
        <time>2022-07-29T08:15:53Z</time>
      </trkpt>
      <trkpt lat="46.57419" lon="5.6832">
        <ele>472.6</ele>
        <time>2022-07-29T08:15:54Z</time>
      </trkpt>
      <trkpt lat="46.57415" lon="5.68315">
        <ele>472.6</ele>
        <time>2022-07-29T08:15:55Z</time>
      </trkpt>
      <trkpt lat="46.57411" lon="5.6831">
        <ele>473</ele>
        <time>2022-07-29T08:15:56Z</time>
      </trkpt>
      <trkpt lat="46.57407" lon="5.68306">
        <ele>473</ele>
        <time>2022-07-29T08:15:57Z</time>
      </trkpt>
      <trkpt lat="46.57402" lon="5.68301">
        <ele>473.2</ele>
        <time>2022-07-29T08:15:58Z</time>
      </trkpt>
      <trkpt lat="46.57398" lon="5.68295">
        <ele>473.4</ele>
        <time>2022-07-29T08:15:59Z</time>
      </trkpt>
      <trkpt lat="46.57394" lon="5.6829">
        <ele>473.6</ele>
        <time>2022-07-29T08:16:00Z</time>
      </trkpt>
      <trkpt lat="46.5739" lon="5.68284">
        <ele>473.8</ele>
        <time>2022-07-29T08:16:01Z</time>
      </trkpt>
      <trkpt lat="46.57386" lon="5.68279">
        <ele>473.8</ele>
        <time>2022-07-29T08:16:02Z</time>
      </trkpt>
      <trkpt lat="46.57382" lon="5.68274">
        <ele>474.2</ele>
        <time>2022-07-29T08:16:03Z</time>
      </trkpt>
      <trkpt lat="46.57378" lon="5.68269">
        <ele>474.2</ele>
        <time>2022-07-29T08:16:04Z</time>
      </trkpt>
      <trkpt lat="46.57374" lon="5.68263">
        <ele>474.4</ele>
        <time>2022-07-29T08:16:05Z</time>
      </trkpt>
      <trkpt lat="46.5737" lon="5.68258">
        <ele>474.6</ele>
        <time>2022-07-29T08:16:06Z</time>
      </trkpt>
      <trkpt lat="46.57366" lon="5.68253">
        <ele>474.8</ele>
        <time>2022-07-29T08:16:07Z</time>
      </trkpt>
      <trkpt lat="46.57362" lon="5.68248">
        <ele>475.2</ele>
        <time>2022-07-29T08:16:08Z</time>
      </trkpt>
      <trkpt lat="46.57358" lon="5.68243">
        <ele>475.4</ele>
        <time>2022-07-29T08:16:09Z</time>
      </trkpt>
      <trkpt lat="46.57354" lon="5.68239">
        <ele>475.4</ele>
        <time>2022-07-29T08:16:10Z</time>
      </trkpt>
      <trkpt lat="46.57351" lon="5.68234">
        <ele>475.6</ele>
        <time>2022-07-29T08:16:11Z</time>
      </trkpt>
      <trkpt lat="46.57347" lon="5.6823">
        <ele>475.6</ele>
        <time>2022-07-29T08:16:12Z</time>
      </trkpt>
      <trkpt lat="46.57344" lon="5.68225">
        <ele>476</ele>
        <time>2022-07-29T08:16:13Z</time>
      </trkpt>
      <trkpt lat="46.5734" lon="5.6822">
        <ele>476</ele>
        <time>2022-07-29T08:16:14Z</time>
      </trkpt>
      <trkpt lat="46.57336" lon="5.68216">
        <ele>476.4</ele>
        <time>2022-07-29T08:16:15Z</time>
      </trkpt>
      <trkpt lat="46.57333" lon="5.68211">
        <ele>476.6</ele>
        <time>2022-07-29T08:16:16Z</time>
      </trkpt>
      <trkpt lat="46.5733" lon="5.68207">
        <ele>476.8</ele>
        <time>2022-07-29T08:16:17Z</time>
      </trkpt>
      <trkpt lat="46.57326" lon="5.68202">
        <ele>477</ele>
        <time>2022-07-29T08:16:18Z</time>
      </trkpt>
      <trkpt lat="46.57323" lon="5.68198">
        <ele>477</ele>
        <time>2022-07-29T08:16:19Z</time>
      </trkpt>
      <trkpt lat="46.57319" lon="5.68193">
        <ele>477.6</ele>
        <time>2022-07-29T08:16:20Z</time>
      </trkpt>
      <trkpt lat="46.57316" lon="5.68188">
        <ele>477.8</ele>
        <time>2022-07-29T08:16:21Z</time>
      </trkpt>
      <trkpt lat="46.57312" lon="5.68184">
        <ele>478.2</ele>
        <time>2022-07-29T08:16:22Z</time>
      </trkpt>
      <trkpt lat="46.57308" lon="5.68179">
        <ele>478.2</ele>
        <time>2022-07-29T08:16:23Z</time>
      </trkpt>
      <trkpt lat="46.57305" lon="5.68174">
        <ele>478.4</ele>
        <time>2022-07-29T08:16:24Z</time>
      </trkpt>
      <trkpt lat="46.57301" lon="5.68169">
        <ele>478.4</ele>
        <time>2022-07-29T08:16:25Z</time>
      </trkpt>
      <trkpt lat="46.57297" lon="5.68165">
        <ele>478.8</ele>
        <time>2022-07-29T08:16:26Z</time>
      </trkpt>
      <trkpt lat="46.57294" lon="5.6816">
        <ele>479</ele>
        <time>2022-07-29T08:16:27Z</time>
      </trkpt>
      <trkpt lat="46.5729" lon="5.68155">
        <ele>479</ele>
        <time>2022-07-29T08:16:28Z</time>
      </trkpt>
      <trkpt lat="46.57287" lon="5.6815">
        <ele>479</ele>
        <time>2022-07-29T08:16:29Z</time>
      </trkpt>
      <trkpt lat="46.57283" lon="5.68146">
        <ele>479</ele>
        <time>2022-07-29T08:16:30Z</time>
      </trkpt>
      <trkpt lat="46.57279" lon="5.6814">
        <ele>479.4</ele>
        <time>2022-07-29T08:16:31Z</time>
      </trkpt>
      <trkpt lat="46.57275" lon="5.68135">
        <ele>479.4</ele>
        <time>2022-07-29T08:16:32Z</time>
      </trkpt>
      <trkpt lat="46.57271" lon="5.6813">
        <ele>479.4</ele>
        <time>2022-07-29T08:16:33Z</time>
      </trkpt>
      <trkpt lat="46.57267" lon="5.68124">
        <ele>479.4</ele>
        <time>2022-07-29T08:16:34Z</time>
      </trkpt>
      <trkpt lat="46.57263" lon="5.68118">
        <ele>479.4</ele>
        <time>2022-07-29T08:16:35Z</time>
      </trkpt>
      <trkpt lat="46.57258" lon="5.68112">
        <ele>479.4</ele>
        <time>2022-07-29T08:16:36Z</time>
      </trkpt>
      <trkpt lat="46.57253" lon="5.68106">
        <ele>479</ele>
        <time>2022-07-29T08:16:37Z</time>
      </trkpt>
      <trkpt lat="46.57248" lon="5.68099">
        <ele>479</ele>
        <time>2022-07-29T08:16:38Z</time>
      </trkpt>
      <trkpt lat="46.57243" lon="5.68092">
        <ele>478.8</ele>
        <time>2022-07-29T08:16:39Z</time>
      </trkpt>
      <trkpt lat="46.57238" lon="5.68085">
        <ele>478.8</ele>
        <time>2022-07-29T08:16:40Z</time>
      </trkpt>
      <trkpt lat="46.57233" lon="5.68078">
        <ele>478.4</ele>
        <time>2022-07-29T08:16:41Z</time>
      </trkpt>
      <trkpt lat="46.57228" lon="5.68071">
        <ele>478.4</ele>
        <time>2022-07-29T08:16:42Z</time>
      </trkpt>
      <trkpt lat="46.57222" lon="5.68063">
        <ele>478.2</ele>
        <time>2022-07-29T08:16:43Z</time>
      </trkpt>
      <trkpt lat="46.57217" lon="5.68056">
        <ele>478.2</ele>
        <time>2022-07-29T08:16:44Z</time>
      </trkpt>
      <trkpt lat="46.57211" lon="5.68049">
        <ele>478.2</ele>
        <time>2022-07-29T08:16:45Z</time>
      </trkpt>
      <trkpt lat="46.57205" lon="5.68041">
        <ele>478</ele>
        <time>2022-07-29T08:16:46Z</time>
      </trkpt>
      <trkpt lat="46.572" lon="5.68033">
        <ele>478</ele>
        <time>2022-07-29T08:16:47Z</time>
      </trkpt>
      <trkpt lat="46.57194" lon="5.68026">
        <ele>477.8</ele>
        <time>2022-07-29T08:16:48Z</time>
      </trkpt>
      <trkpt lat="46.57188" lon="5.68018">
        <ele>477.8</ele>
        <time>2022-07-29T08:16:49Z</time>
      </trkpt>
      <trkpt lat="46.57183" lon="5.6801">
        <ele>477.8</ele>
        <time>2022-07-29T08:16:50Z</time>
      </trkpt>
      <trkpt lat="46.57177" lon="5.68003">
        <ele>477.4</ele>
        <time>2022-07-29T08:16:51Z</time>
      </trkpt>
      <trkpt lat="46.57171" lon="5.67995">
        <ele>477.4</ele>
        <time>2022-07-29T08:16:52Z</time>
      </trkpt>
      <trkpt lat="46.57166" lon="5.67987">
        <ele>477.4</ele>
        <time>2022-07-29T08:16:53Z</time>
      </trkpt>
      <trkpt lat="46.5716" lon="5.67979">
        <ele>477.2</ele>
        <time>2022-07-29T08:16:54Z</time>
      </trkpt>
      <trkpt lat="46.57154" lon="5.67971">
        <ele>477.2</ele>
        <time>2022-07-29T08:16:55Z</time>
      </trkpt>
      <trkpt lat="46.57148" lon="5.67963">
        <ele>477.2</ele>
        <time>2022-07-29T08:16:56Z</time>
      </trkpt>
      <trkpt lat="46.57143" lon="5.67956">
        <ele>477.2</ele>
        <time>2022-07-29T08:16:57Z</time>
      </trkpt>
      <trkpt lat="46.57137" lon="5.67948">
        <ele>477.2</ele>
        <time>2022-07-29T08:16:58Z</time>
      </trkpt>
      <trkpt lat="46.57132" lon="5.67941">
        <ele>477.2</ele>
        <time>2022-07-29T08:16:59Z</time>
      </trkpt>
      <trkpt lat="46.57126" lon="5.67933">
        <ele>477.2</ele>
        <time>2022-07-29T08:17:00Z</time>
      </trkpt>
      <trkpt lat="46.57121" lon="5.67926">
        <ele>477.2</ele>
        <time>2022-07-29T08:17:01Z</time>
      </trkpt>
      <trkpt lat="46.57115" lon="5.67918">
        <ele>477.2</ele>
        <time>2022-07-29T08:17:02Z</time>
      </trkpt>
      <trkpt lat="46.5711" lon="5.67911">
        <ele>477.2</ele>
        <time>2022-07-29T08:17:03Z</time>
      </trkpt>
      <trkpt lat="46.57105" lon="5.67904">
        <ele>477.2</ele>
        <time>2022-07-29T08:17:04Z</time>
      </trkpt>
      <trkpt lat="46.571" lon="5.67897">
        <ele>477.4</ele>
        <time>2022-07-29T08:17:05Z</time>
      </trkpt>
      <trkpt lat="46.57094" lon="5.6789">
        <ele>477.4</ele>
        <time>2022-07-29T08:17:06Z</time>
      </trkpt>
      <trkpt lat="46.57089" lon="5.67883">
        <ele>477.4</ele>
        <time>2022-07-29T08:17:07Z</time>
      </trkpt>
      <trkpt lat="46.57084" lon="5.67876">
        <ele>477.6</ele>
        <time>2022-07-29T08:17:08Z</time>
      </trkpt>
      <trkpt lat="46.57079" lon="5.67869">
        <ele>477.6</ele>
        <time>2022-07-29T08:17:09Z</time>
      </trkpt>
      <trkpt lat="46.57074" lon="5.67863">
        <ele>477.6</ele>
        <time>2022-07-29T08:17:10Z</time>
      </trkpt>
      <trkpt lat="46.5707" lon="5.67856">
        <ele>477.6</ele>
        <time>2022-07-29T08:17:11Z</time>
      </trkpt>
      <trkpt lat="46.57065" lon="5.6785">
        <ele>477.6</ele>
        <time>2022-07-29T08:17:12Z</time>
      </trkpt>
      <trkpt lat="46.5706" lon="5.67843">
        <ele>477.6</ele>
        <time>2022-07-29T08:17:13Z</time>
      </trkpt>
      <trkpt lat="46.57055" lon="5.67836">
        <ele>477.6</ele>
        <time>2022-07-29T08:17:14Z</time>
      </trkpt>
      <trkpt lat="46.5705" lon="5.6783">
        <ele>477.8</ele>
        <time>2022-07-29T08:17:15Z</time>
      </trkpt>
      <trkpt lat="46.57045" lon="5.67823">
        <ele>477.8</ele>
        <time>2022-07-29T08:17:16Z</time>
      </trkpt>
      <trkpt lat="46.5704" lon="5.67816">
        <ele>477.8</ele>
        <time>2022-07-29T08:17:17Z</time>
      </trkpt>
      <trkpt lat="46.57035" lon="5.67809">
        <ele>477.8</ele>
        <time>2022-07-29T08:17:18Z</time>
      </trkpt>
      <trkpt lat="46.5703" lon="5.67802">
        <ele>477.8</ele>
        <time>2022-07-29T08:17:19Z</time>
      </trkpt>
      <trkpt lat="46.57024" lon="5.67794">
        <ele>477.8</ele>
        <time>2022-07-29T08:17:20Z</time>
      </trkpt>
      <trkpt lat="46.57019" lon="5.67787">
        <ele>477.8</ele>
        <time>2022-07-29T08:17:21Z</time>
      </trkpt>
      <trkpt lat="46.57014" lon="5.6778">
        <ele>478</ele>
        <time>2022-07-29T08:17:22Z</time>
      </trkpt>
      <trkpt lat="46.57009" lon="5.67773">
        <ele>478</ele>
        <time>2022-07-29T08:17:23Z</time>
      </trkpt>
      <trkpt lat="46.57003" lon="5.67766">
        <ele>478</ele>
        <time>2022-07-29T08:17:24Z</time>
      </trkpt>
      <trkpt lat="46.56998" lon="5.67759">
        <ele>478</ele>
        <time>2022-07-29T08:17:25Z</time>
      </trkpt>
      <trkpt lat="46.56993" lon="5.67751">
        <ele>478</ele>
        <time>2022-07-29T08:17:26Z</time>
      </trkpt>
      <trkpt lat="46.56987" lon="5.67744">
        <ele>478</ele>
        <time>2022-07-29T08:17:27Z</time>
      </trkpt>
      <trkpt lat="46.56982" lon="5.67737">
        <ele>478.4</ele>
        <time>2022-07-29T08:17:28Z</time>
      </trkpt>
      <trkpt lat="46.56977" lon="5.6773">
        <ele>478.4</ele>
        <time>2022-07-29T08:17:29Z</time>
      </trkpt>
      <trkpt lat="46.56971" lon="5.67723">
        <ele>478.4</ele>
        <time>2022-07-29T08:17:30Z</time>
      </trkpt>
      <trkpt lat="46.56966" lon="5.67716">
        <ele>478.6</ele>
        <time>2022-07-29T08:17:31Z</time>
      </trkpt>
      <trkpt lat="46.56961" lon="5.67709">
        <ele>478.6</ele>
        <time>2022-07-29T08:17:32Z</time>
      </trkpt>
      <trkpt lat="46.56956" lon="5.67702">
        <ele>478.6</ele>
        <time>2022-07-29T08:17:33Z</time>
      </trkpt>
      <trkpt lat="46.56951" lon="5.67695">
        <ele>478.6</ele>
        <time>2022-07-29T08:17:34Z</time>
      </trkpt>
      <trkpt lat="46.56946" lon="5.67688">
        <ele>478.8</ele>
        <time>2022-07-29T08:17:35Z</time>
      </trkpt>
      <trkpt lat="46.56941" lon="5.67681">
        <ele>478.8</ele>
        <time>2022-07-29T08:17:36Z</time>
      </trkpt>
      <trkpt lat="46.56936" lon="5.67674">
        <ele>478.8</ele>
        <time>2022-07-29T08:17:37Z</time>
      </trkpt>
      <trkpt lat="46.56931" lon="5.67667">
        <ele>479.2</ele>
        <time>2022-07-29T08:17:38Z</time>
      </trkpt>
      <trkpt lat="46.56926" lon="5.67661">
        <ele>479.2</ele>
        <time>2022-07-29T08:17:39Z</time>
      </trkpt>
      <trkpt lat="46.56921" lon="5.67654">
        <ele>479.4</ele>
        <time>2022-07-29T08:17:40Z</time>
      </trkpt>
      <trkpt lat="46.56916" lon="5.67648">
        <ele>479.4</ele>
        <time>2022-07-29T08:17:41Z</time>
      </trkpt>
      <trkpt lat="46.56911" lon="5.67641">
        <ele>479.6</ele>
        <time>2022-07-29T08:17:42Z</time>
      </trkpt>
      <trkpt lat="46.56907" lon="5.67635">
        <ele>479.6</ele>
        <time>2022-07-29T08:17:43Z</time>
      </trkpt>
      <trkpt lat="46.56902" lon="5.67628">
        <ele>479.6</ele>
        <time>2022-07-29T08:17:44Z</time>
      </trkpt>
      <trkpt lat="46.56897" lon="5.67622">
        <ele>479.6</ele>
        <time>2022-07-29T08:17:45Z</time>
      </trkpt>
      <trkpt lat="46.56893" lon="5.67615">
        <ele>480</ele>
        <time>2022-07-29T08:17:46Z</time>
      </trkpt>
      <trkpt lat="46.56888" lon="5.67609">
        <ele>480</ele>
        <time>2022-07-29T08:17:47Z</time>
      </trkpt>
      <trkpt lat="46.56883" lon="5.67603">
        <ele>480</ele>
        <time>2022-07-29T08:17:48Z</time>
      </trkpt>
      <trkpt lat="46.56879" lon="5.67596">
        <ele>480</ele>
        <time>2022-07-29T08:17:49Z</time>
      </trkpt>
      <trkpt lat="46.56874" lon="5.6759">
        <ele>480.4</ele>
        <time>2022-07-29T08:17:50Z</time>
      </trkpt>
      <trkpt lat="46.5687" lon="5.67584">
        <ele>480.4</ele>
        <time>2022-07-29T08:17:51Z</time>
      </trkpt>
      <trkpt lat="46.56865" lon="5.67578">
        <ele>480.4</ele>
        <time>2022-07-29T08:17:52Z</time>
      </trkpt>
      <trkpt lat="46.56861" lon="5.67572">
        <ele>480.4</ele>
        <time>2022-07-29T08:17:53Z</time>
      </trkpt>
      <trkpt lat="46.56856" lon="5.67566">
        <ele>480.6</ele>
        <time>2022-07-29T08:17:54Z</time>
      </trkpt>
      <trkpt lat="46.56852" lon="5.67559">
        <ele>480.6</ele>
        <time>2022-07-29T08:17:55Z</time>
      </trkpt>
      <trkpt lat="46.56847" lon="5.67553">
        <ele>480.8</ele>
        <time>2022-07-29T08:17:56Z</time>
      </trkpt>
      <trkpt lat="46.56842" lon="5.67547">
        <ele>480.8</ele>
        <time>2022-07-29T08:17:57Z</time>
      </trkpt>
      <trkpt lat="46.56838" lon="5.6754">
        <ele>480.8</ele>
        <time>2022-07-29T08:17:58Z</time>
      </trkpt>
      <trkpt lat="46.56833" lon="5.67534">
        <ele>481</ele>
        <time>2022-07-29T08:17:59Z</time>
      </trkpt>
      <trkpt lat="46.56828" lon="5.67527">
        <ele>481</ele>
        <time>2022-07-29T08:18:00Z</time>
      </trkpt>
      <trkpt lat="46.56823" lon="5.6752">
        <ele>481</ele>
        <time>2022-07-29T08:18:01Z</time>
      </trkpt>
      <trkpt lat="46.56818" lon="5.67514">
        <ele>481</ele>
        <time>2022-07-29T08:18:02Z</time>
      </trkpt>
      <trkpt lat="46.56813" lon="5.67507">
        <ele>481.4</ele>
        <time>2022-07-29T08:18:03Z</time>
      </trkpt>
      <trkpt lat="46.56808" lon="5.675">
        <ele>481.4</ele>
        <time>2022-07-29T08:18:04Z</time>
      </trkpt>
      <trkpt lat="46.56803" lon="5.67493">
        <ele>481.4</ele>
        <time>2022-07-29T08:18:05Z</time>
      </trkpt>
      <trkpt lat="46.56798" lon="5.67486">
        <ele>481.4</ele>
        <time>2022-07-29T08:18:06Z</time>
      </trkpt>
      <trkpt lat="46.56793" lon="5.67479">
        <ele>481.4</ele>
        <time>2022-07-29T08:18:07Z</time>
      </trkpt>
      <trkpt lat="46.56788" lon="5.67472">
        <ele>481.4</ele>
        <time>2022-07-29T08:18:08Z</time>
      </trkpt>
      <trkpt lat="46.56783" lon="5.67465">
        <ele>481.4</ele>
        <time>2022-07-29T08:18:09Z</time>
      </trkpt>
      <trkpt lat="46.56778" lon="5.67457">
        <ele>481.4</ele>
        <time>2022-07-29T08:18:10Z</time>
      </trkpt>
      <trkpt lat="46.56772" lon="5.6745">
        <ele>481.4</ele>
        <time>2022-07-29T08:18:11Z</time>
      </trkpt>
      <trkpt lat="46.56767" lon="5.67443">
        <ele>481.4</ele>
        <time>2022-07-29T08:18:12Z</time>
      </trkpt>
      <trkpt lat="46.56762" lon="5.67436">
        <ele>481.4</ele>
        <time>2022-07-29T08:18:13Z</time>
      </trkpt>
      <trkpt lat="46.56756" lon="5.67428">
        <ele>481.4</ele>
        <time>2022-07-29T08:18:14Z</time>
      </trkpt>
      <trkpt lat="46.56751" lon="5.67421">
        <ele>481.4</ele>
        <time>2022-07-29T08:18:15Z</time>
      </trkpt>
      <trkpt lat="46.56745" lon="5.67414">
        <ele>481.4</ele>
        <time>2022-07-29T08:18:16Z</time>
      </trkpt>
      <trkpt lat="46.5674" lon="5.67407">
        <ele>481.4</ele>
        <time>2022-07-29T08:18:17Z</time>
      </trkpt>
      <trkpt lat="46.56734" lon="5.674">
        <ele>481.4</ele>
        <time>2022-07-29T08:18:18Z</time>
      </trkpt>
      <trkpt lat="46.56729" lon="5.67394">
        <ele>481.4</ele>
        <time>2022-07-29T08:18:19Z</time>
      </trkpt>
      <trkpt lat="46.56723" lon="5.67387">
        <ele>481.4</ele>
        <time>2022-07-29T08:18:20Z</time>
      </trkpt>
      <trkpt lat="46.56717" lon="5.67381">
        <ele>481.4</ele>
        <time>2022-07-29T08:18:21Z</time>
      </trkpt>
      <trkpt lat="46.56712" lon="5.67374">
        <ele>481.4</ele>
        <time>2022-07-29T08:18:22Z</time>
      </trkpt>
      <trkpt lat="46.56706" lon="5.67368">
        <ele>481.4</ele>
        <time>2022-07-29T08:18:23Z</time>
      </trkpt>
      <trkpt lat="46.567" lon="5.67362">
        <ele>481.4</ele>
        <time>2022-07-29T08:18:24Z</time>
      </trkpt>
      <trkpt lat="46.56694" lon="5.67356">
        <ele>481.4</ele>
        <time>2022-07-29T08:18:25Z</time>
      </trkpt>
      <trkpt lat="46.56688" lon="5.6735">
        <ele>481.4</ele>
        <time>2022-07-29T08:18:26Z</time>
      </trkpt>
      <trkpt lat="46.56682" lon="5.67344">
        <ele>481.4</ele>
        <time>2022-07-29T08:18:27Z</time>
      </trkpt>
      <trkpt lat="46.56676" lon="5.67339">
        <ele>481.6</ele>
        <time>2022-07-29T08:18:28Z</time>
      </trkpt>
      <trkpt lat="46.5667" lon="5.67333">
        <ele>481.6</ele>
        <time>2022-07-29T08:18:29Z</time>
      </trkpt>
      <trkpt lat="46.56664" lon="5.67328">
        <ele>481.6</ele>
        <time>2022-07-29T08:18:30Z</time>
      </trkpt>
      <trkpt lat="46.56658" lon="5.67322">
        <ele>481.8</ele>
        <time>2022-07-29T08:18:31Z</time>
      </trkpt>
      <trkpt lat="46.56652" lon="5.67317">
        <ele>481.8</ele>
        <time>2022-07-29T08:18:32Z</time>
      </trkpt>
      <trkpt lat="46.56646" lon="5.67311">
        <ele>481.8</ele>
        <time>2022-07-29T08:18:33Z</time>
      </trkpt>
      <trkpt lat="46.5664" lon="5.67305">
        <ele>481.8</ele>
        <time>2022-07-29T08:18:34Z</time>
      </trkpt>
      <trkpt lat="46.56634" lon="5.673">
        <ele>482</ele>
        <time>2022-07-29T08:18:35Z</time>
      </trkpt>
      <trkpt lat="46.56629" lon="5.67294">
        <ele>482</ele>
        <time>2022-07-29T08:18:36Z</time>
      </trkpt>
      <trkpt lat="46.56623" lon="5.67289">
        <ele>482</ele>
        <time>2022-07-29T08:18:37Z</time>
      </trkpt>
      <trkpt lat="46.56617" lon="5.67283">
        <ele>482.4</ele>
        <time>2022-07-29T08:18:38Z</time>
      </trkpt>
      <trkpt lat="46.56612" lon="5.67278">
        <ele>482.4</ele>
        <time>2022-07-29T08:18:39Z</time>
      </trkpt>
      <trkpt lat="46.56607" lon="5.67272">
        <ele>482.6</ele>
        <time>2022-07-29T08:18:40Z</time>
      </trkpt>
      <trkpt lat="46.56602" lon="5.67267">
        <ele>482.6</ele>
        <time>2022-07-29T08:18:41Z</time>
      </trkpt>
      <trkpt lat="46.56597" lon="5.67261">
        <ele>483</ele>
        <time>2022-07-29T08:18:42Z</time>
      </trkpt>
      <trkpt lat="46.56592" lon="5.67256">
        <ele>483</ele>
        <time>2022-07-29T08:18:43Z</time>
      </trkpt>
      <trkpt lat="46.56587" lon="5.6725">
        <ele>483.2</ele>
        <time>2022-07-29T08:18:44Z</time>
      </trkpt>
      <trkpt lat="46.56582" lon="5.67244">
        <ele>483.2</ele>
        <time>2022-07-29T08:18:45Z</time>
      </trkpt>
      <trkpt lat="46.56577" lon="5.67238">
        <ele>483.2</ele>
        <time>2022-07-29T08:18:46Z</time>
      </trkpt>
      <trkpt lat="46.56572" lon="5.67231">
        <ele>483.2</ele>
        <time>2022-07-29T08:18:47Z</time>
      </trkpt>
      <trkpt lat="46.56567" lon="5.67225">
        <ele>483.2</ele>
        <time>2022-07-29T08:18:48Z</time>
      </trkpt>
      <trkpt lat="46.56562" lon="5.67218">
        <ele>483.2</ele>
        <time>2022-07-29T08:18:49Z</time>
      </trkpt>
      <trkpt lat="46.56557" lon="5.67211">
        <ele>483.2</ele>
        <time>2022-07-29T08:18:50Z</time>
      </trkpt>
      <trkpt lat="46.56552" lon="5.67204">
        <ele>483.2</ele>
        <time>2022-07-29T08:18:51Z</time>
      </trkpt>
      <trkpt lat="46.56547" lon="5.67197">
        <ele>483.2</ele>
        <time>2022-07-29T08:18:52Z</time>
      </trkpt>
      <trkpt lat="46.56542" lon="5.6719">
        <ele>483.2</ele>
        <time>2022-07-29T08:18:53Z</time>
      </trkpt>
      <trkpt lat="46.56537" lon="5.67183">
        <ele>483.2</ele>
        <time>2022-07-29T08:18:54Z</time>
      </trkpt>
      <trkpt lat="46.56532" lon="5.67176">
        <ele>483</ele>
        <time>2022-07-29T08:18:55Z</time>
      </trkpt>
      <trkpt lat="46.56527" lon="5.67169">
        <ele>483</ele>
        <time>2022-07-29T08:18:56Z</time>
      </trkpt>
      <trkpt lat="46.56522" lon="5.67162">
        <ele>483</ele>
        <time>2022-07-29T08:18:57Z</time>
      </trkpt>
      <trkpt lat="46.56516" lon="5.67154">
        <ele>483</ele>
        <time>2022-07-29T08:18:58Z</time>
      </trkpt>
      <trkpt lat="46.56511" lon="5.67147">
        <ele>483</ele>
        <time>2022-07-29T08:18:59Z</time>
      </trkpt>
      <trkpt lat="46.56506" lon="5.6714">
        <ele>483</ele>
        <time>2022-07-29T08:19:00Z</time>
      </trkpt>
      <trkpt lat="46.56501" lon="5.67133">
        <ele>482.8</ele>
        <time>2022-07-29T08:19:01Z</time>
      </trkpt>
      <trkpt lat="46.56495" lon="5.67125">
        <ele>482.8</ele>
        <time>2022-07-29T08:19:02Z</time>
      </trkpt>
      <trkpt lat="46.5649" lon="5.67118">
        <ele>482.8</ele>
        <time>2022-07-29T08:19:03Z</time>
      </trkpt>
      <trkpt lat="46.56485" lon="5.67111">
        <ele>482.8</ele>
        <time>2022-07-29T08:19:04Z</time>
      </trkpt>
      <trkpt lat="46.5648" lon="5.67104">
        <ele>482.8</ele>
        <time>2022-07-29T08:19:05Z</time>
      </trkpt>
      <trkpt lat="46.56469" lon="5.67089">
        <ele>482.8</ele>
        <time>2022-07-29T08:19:06Z</time>
      </trkpt>
      <trkpt lat="46.56464" lon="5.67082">
        <ele>482.8</ele>
        <time>2022-07-29T08:19:08Z</time>
      </trkpt>
      <trkpt lat="46.56459" lon="5.67075">
        <ele>482.8</ele>
        <time>2022-07-29T08:19:09Z</time>
      </trkpt>
      <trkpt lat="46.56454" lon="5.67068">
        <ele>482.8</ele>
        <time>2022-07-29T08:19:10Z</time>
      </trkpt>
      <trkpt lat="46.56449" lon="5.67061">
        <ele>482.8</ele>
        <time>2022-07-29T08:19:11Z</time>
      </trkpt>
      <trkpt lat="46.56444" lon="5.67054">
        <ele>482.6</ele>
        <time>2022-07-29T08:19:12Z</time>
      </trkpt>
      <trkpt lat="46.56439" lon="5.67047">
        <ele>482.6</ele>
        <time>2022-07-29T08:19:13Z</time>
      </trkpt>
      <trkpt lat="46.56434" lon="5.6704">
        <ele>482.8</ele>
        <time>2022-07-29T08:19:14Z</time>
      </trkpt>
      <trkpt lat="46.56429" lon="5.67033">
        <ele>482.8</ele>
        <time>2022-07-29T08:19:15Z</time>
      </trkpt>
      <trkpt lat="46.56424" lon="5.67026">
        <ele>482.8</ele>
        <time>2022-07-29T08:19:16Z</time>
      </trkpt>
      <trkpt lat="46.56419" lon="5.67019">
        <ele>482.8</ele>
        <time>2022-07-29T08:19:17Z</time>
      </trkpt>
      <trkpt lat="46.56414" lon="5.67012">
        <ele>482.8</ele>
        <time>2022-07-29T08:19:18Z</time>
      </trkpt>
      <trkpt lat="46.56409" lon="5.67005">
        <ele>483</ele>
        <time>2022-07-29T08:19:19Z</time>
      </trkpt>
      <trkpt lat="46.56404" lon="5.66998">
        <ele>483</ele>
        <time>2022-07-29T08:19:20Z</time>
      </trkpt>
      <trkpt lat="46.56399" lon="5.66992">
        <ele>483</ele>
        <time>2022-07-29T08:19:21Z</time>
      </trkpt>
      <trkpt lat="46.56394" lon="5.66985">
        <ele>483</ele>
        <time>2022-07-29T08:19:22Z</time>
      </trkpt>
      <trkpt lat="46.56389" lon="5.66978">
        <ele>483</ele>
        <time>2022-07-29T08:19:23Z</time>
      </trkpt>
      <trkpt lat="46.56384" lon="5.66971">
        <ele>483</ele>
        <time>2022-07-29T08:19:24Z</time>
      </trkpt>
      <trkpt lat="46.5638" lon="5.66964">
        <ele>483</ele>
        <time>2022-07-29T08:19:25Z</time>
      </trkpt>
      <trkpt lat="46.56375" lon="5.66957">
        <ele>483</ele>
        <time>2022-07-29T08:19:26Z</time>
      </trkpt>
      <trkpt lat="46.5637" lon="5.6695">
        <ele>483</ele>
        <time>2022-07-29T08:19:27Z</time>
      </trkpt>
      <trkpt lat="46.56365" lon="5.66944">
        <ele>483</ele>
        <time>2022-07-29T08:19:28Z</time>
      </trkpt>
      <trkpt lat="46.5636" lon="5.66937">
        <ele>483</ele>
        <time>2022-07-29T08:19:29Z</time>
      </trkpt>
      <trkpt lat="46.56354" lon="5.6693">
        <ele>483</ele>
        <time>2022-07-29T08:19:30Z</time>
      </trkpt>
      <trkpt lat="46.5635" lon="5.66923">
        <ele>483.2</ele>
        <time>2022-07-29T08:19:31Z</time>
      </trkpt>
      <trkpt lat="46.56345" lon="5.66917">
        <ele>483.2</ele>
        <time>2022-07-29T08:19:32Z</time>
      </trkpt>
      <trkpt lat="46.5634" lon="5.6691">
        <ele>483.2</ele>
        <time>2022-07-29T08:19:33Z</time>
      </trkpt>
      <trkpt lat="46.56335" lon="5.66903">
        <ele>483.4</ele>
        <time>2022-07-29T08:19:34Z</time>
      </trkpt>
      <trkpt lat="46.5633" lon="5.66897">
        <ele>483.4</ele>
        <time>2022-07-29T08:19:35Z</time>
      </trkpt>
      <trkpt lat="46.56325" lon="5.66891">
        <ele>483.4</ele>
        <time>2022-07-29T08:19:36Z</time>
      </trkpt>
      <trkpt lat="46.5632" lon="5.66885">
        <ele>483.6</ele>
        <time>2022-07-29T08:19:37Z</time>
      </trkpt>
      <trkpt lat="46.56315" lon="5.66879">
        <ele>483.6</ele>
        <time>2022-07-29T08:19:38Z</time>
      </trkpt>
      <trkpt lat="46.5631" lon="5.66873">
        <ele>483.6</ele>
        <time>2022-07-29T08:19:39Z</time>
      </trkpt>
      <trkpt lat="46.56305" lon="5.66867">
        <ele>484</ele>
        <time>2022-07-29T08:19:40Z</time>
      </trkpt>
      <trkpt lat="46.56299" lon="5.66862">
        <ele>484</ele>
        <time>2022-07-29T08:19:41Z</time>
      </trkpt>
      <trkpt lat="46.56294" lon="5.66857">
        <ele>484</ele>
        <time>2022-07-29T08:19:42Z</time>
      </trkpt>
      <trkpt lat="46.56288" lon="5.66852">
        <ele>484</ele>
        <time>2022-07-29T08:19:43Z</time>
      </trkpt>
      <trkpt lat="46.56282" lon="5.66847">
        <ele>484.2</ele>
        <time>2022-07-29T08:19:44Z</time>
      </trkpt>
      <trkpt lat="46.56276" lon="5.66843">
        <ele>484.2</ele>
        <time>2022-07-29T08:19:45Z</time>
      </trkpt>
      <trkpt lat="46.5627" lon="5.66839">
        <ele>484.2</ele>
        <time>2022-07-29T08:19:46Z</time>
      </trkpt>
      <trkpt lat="46.56264" lon="5.66835">
        <ele>484.4</ele>
        <time>2022-07-29T08:19:47Z</time>
      </trkpt>
      <trkpt lat="46.56258" lon="5.66831">
        <ele>484.4</ele>
        <time>2022-07-29T08:19:48Z</time>
      </trkpt>
      <trkpt lat="46.56252" lon="5.66828">
        <ele>484.6</ele>
        <time>2022-07-29T08:19:49Z</time>
      </trkpt>
      <trkpt lat="46.56247" lon="5.66824">
        <ele>484.6</ele>
        <time>2022-07-29T08:19:50Z</time>
      </trkpt>
      <trkpt lat="46.56241" lon="5.66821">
        <ele>485</ele>
        <time>2022-07-29T08:19:51Z</time>
      </trkpt>
      <trkpt lat="46.56236" lon="5.66818">
        <ele>485</ele>
        <time>2022-07-29T08:19:52Z</time>
      </trkpt>
      <trkpt lat="46.5623" lon="5.66815">
        <ele>485.4</ele>
        <time>2022-07-29T08:19:53Z</time>
      </trkpt>
      <trkpt lat="46.56225" lon="5.66812">
        <ele>485.8</ele>
        <time>2022-07-29T08:19:54Z</time>
      </trkpt>
      <trkpt lat="46.5622" lon="5.6681">
        <ele>486</ele>
        <time>2022-07-29T08:19:55Z</time>
      </trkpt>
      <trkpt lat="46.56215" lon="5.66807">
        <ele>486.4</ele>
        <time>2022-07-29T08:19:56Z</time>
      </trkpt>
      <trkpt lat="46.56211" lon="5.66805">
        <ele>486.6</ele>
        <time>2022-07-29T08:19:57Z</time>
      </trkpt>
      <trkpt lat="46.56206" lon="5.66802">
        <ele>486.8</ele>
        <time>2022-07-29T08:19:58Z</time>
      </trkpt>
      <trkpt lat="46.56201" lon="5.668">
        <ele>486.8</ele>
        <time>2022-07-29T08:19:59Z</time>
      </trkpt>
      <trkpt lat="46.56196" lon="5.66798">
        <ele>487.2</ele>
        <time>2022-07-29T08:20:00Z</time>
      </trkpt>
      <trkpt lat="46.56192" lon="5.66796">
        <ele>487.2</ele>
        <time>2022-07-29T08:20:01Z</time>
      </trkpt>
      <trkpt lat="46.56187" lon="5.66793">
        <ele>487.2</ele>
        <time>2022-07-29T08:20:02Z</time>
      </trkpt>
      <trkpt lat="46.56182" lon="5.66791">
        <ele>487.6</ele>
        <time>2022-07-29T08:20:03Z</time>
      </trkpt>
      <trkpt lat="46.56177" lon="5.66789">
        <ele>487.6</ele>
        <time>2022-07-29T08:20:04Z</time>
      </trkpt>
      <trkpt lat="46.56172" lon="5.66786">
        <ele>487.8</ele>
        <time>2022-07-29T08:20:05Z</time>
      </trkpt>
      <trkpt lat="46.56167" lon="5.66784">
        <ele>487.8</ele>
        <time>2022-07-29T08:20:06Z</time>
      </trkpt>
      <trkpt lat="46.56162" lon="5.66782">
        <ele>487.8</ele>
        <time>2022-07-29T08:20:07Z</time>
      </trkpt>
      <trkpt lat="46.56157" lon="5.66779">
        <ele>487.8</ele>
        <time>2022-07-29T08:20:08Z</time>
      </trkpt>
      <trkpt lat="46.56152" lon="5.66776">
        <ele>488</ele>
        <time>2022-07-29T08:20:09Z</time>
      </trkpt>
      <trkpt lat="46.56147" lon="5.66773">
        <ele>488</ele>
        <time>2022-07-29T08:20:10Z</time>
      </trkpt>
      <trkpt lat="46.56142" lon="5.6677">
        <ele>488.2</ele>
        <time>2022-07-29T08:20:11Z</time>
      </trkpt>
      <trkpt lat="46.56137" lon="5.66767">
        <ele>488.6</ele>
        <time>2022-07-29T08:20:12Z</time>
      </trkpt>
      <trkpt lat="46.56132" lon="5.66763">
        <ele>488.6</ele>
        <time>2022-07-29T08:20:13Z</time>
      </trkpt>
      <trkpt lat="46.56127" lon="5.6676">
        <ele>488.6</ele>
        <time>2022-07-29T08:20:14Z</time>
      </trkpt>
      <trkpt lat="46.56122" lon="5.66756">
        <ele>488.6</ele>
        <time>2022-07-29T08:20:15Z</time>
      </trkpt>
      <trkpt lat="46.56117" lon="5.66752">
        <ele>488.8</ele>
        <time>2022-07-29T08:20:16Z</time>
      </trkpt>
      <trkpt lat="46.56112" lon="5.66749">
        <ele>488.8</ele>
        <time>2022-07-29T08:20:17Z</time>
      </trkpt>
      <trkpt lat="46.56107" lon="5.66744">
        <ele>488.8</ele>
        <time>2022-07-29T08:20:18Z</time>
      </trkpt>
      <trkpt lat="46.56097" lon="5.66735">
        <ele>488.8</ele>
        <time>2022-07-29T08:20:19Z</time>
      </trkpt>
      <trkpt lat="46.56092" lon="5.66731">
        <ele>488.8</ele>
        <time>2022-07-29T08:20:20Z</time>
      </trkpt>
      <trkpt lat="46.56086" lon="5.66725">
        <ele>488.8</ele>
        <time>2022-07-29T08:20:21Z</time>
      </trkpt>
      <trkpt lat="46.56081" lon="5.6672">
        <ele>488.8</ele>
        <time>2022-07-29T08:20:22Z</time>
      </trkpt>
      <trkpt lat="46.56076" lon="5.66714">
        <ele>488.8</ele>
        <time>2022-07-29T08:20:23Z</time>
      </trkpt>
      <trkpt lat="46.56072" lon="5.66708">
        <ele>488.8</ele>
        <time>2022-07-29T08:20:24Z</time>
      </trkpt>
      <trkpt lat="46.56067" lon="5.66701">
        <ele>488.8</ele>
        <time>2022-07-29T08:20:25Z</time>
      </trkpt>
      <trkpt lat="46.56063" lon="5.66693">
        <ele>488.8</ele>
        <time>2022-07-29T08:20:26Z</time>
      </trkpt>
      <trkpt lat="46.56059" lon="5.66686">
        <ele>488.8</ele>
        <time>2022-07-29T08:20:27Z</time>
      </trkpt>
      <trkpt lat="46.56056" lon="5.66678">
        <ele>488.8</ele>
        <time>2022-07-29T08:20:28Z</time>
      </trkpt>
      <trkpt lat="46.56052" lon="5.6667">
        <ele>488.8</ele>
        <time>2022-07-29T08:20:29Z</time>
      </trkpt>
      <trkpt lat="46.56048" lon="5.66662">
        <ele>488.8</ele>
        <time>2022-07-29T08:20:30Z</time>
      </trkpt>
      <trkpt lat="46.56045" lon="5.66655">
        <ele>488.8</ele>
        <time>2022-07-29T08:20:31Z</time>
      </trkpt>
      <trkpt lat="46.56042" lon="5.66647">
        <ele>488.8</ele>
        <time>2022-07-29T08:20:32Z</time>
      </trkpt>
      <trkpt lat="46.56038" lon="5.66639">
        <ele>488.8</ele>
        <time>2022-07-29T08:20:33Z</time>
      </trkpt>
      <trkpt lat="46.56035" lon="5.66631">
        <ele>489</ele>
        <time>2022-07-29T08:20:34Z</time>
      </trkpt>
      <trkpt lat="46.56031" lon="5.66623">
        <ele>489</ele>
        <time>2022-07-29T08:20:35Z</time>
      </trkpt>
      <trkpt lat="46.56028" lon="5.66615">
        <ele>489</ele>
        <time>2022-07-29T08:20:36Z</time>
      </trkpt>
      <trkpt lat="46.56024" lon="5.66607">
        <ele>489</ele>
        <time>2022-07-29T08:20:37Z</time>
      </trkpt>
      <trkpt lat="46.5602" lon="5.66599">
        <ele>489</ele>
        <time>2022-07-29T08:20:38Z</time>
      </trkpt>
      <trkpt lat="46.56017" lon="5.66591">
        <ele>489</ele>
        <time>2022-07-29T08:20:39Z</time>
      </trkpt>
      <trkpt lat="46.56013" lon="5.66582">
        <ele>489.2</ele>
        <time>2022-07-29T08:20:40Z</time>
      </trkpt>
      <trkpt lat="46.56009" lon="5.66574">
        <ele>489.2</ele>
        <time>2022-07-29T08:20:41Z</time>
      </trkpt>
      <trkpt lat="46.56005" lon="5.66566">
        <ele>489.4</ele>
        <time>2022-07-29T08:20:42Z</time>
      </trkpt>
      <trkpt lat="46.56001" lon="5.66558">
        <ele>489.6</ele>
        <time>2022-07-29T08:20:43Z</time>
      </trkpt>
      <trkpt lat="46.55997" lon="5.6655">
        <ele>489.6</ele>
        <time>2022-07-29T08:20:44Z</time>
      </trkpt>
      <trkpt lat="46.55994" lon="5.66542">
        <ele>490</ele>
        <time>2022-07-29T08:20:45Z</time>
      </trkpt>
      <trkpt lat="46.5599" lon="5.66533">
        <ele>490</ele>
        <time>2022-07-29T08:20:46Z</time>
      </trkpt>
      <trkpt lat="46.55986" lon="5.66525">
        <ele>490.2</ele>
        <time>2022-07-29T08:20:47Z</time>
      </trkpt>
      <trkpt lat="46.55982" lon="5.66517">
        <ele>490.2</ele>
        <time>2022-07-29T08:20:48Z</time>
      </trkpt>
      <trkpt lat="46.55978" lon="5.66509">
        <ele>490.2</ele>
        <time>2022-07-29T08:20:49Z</time>
      </trkpt>
      <trkpt lat="46.55975" lon="5.665">
        <ele>490.2</ele>
        <time>2022-07-29T08:20:50Z</time>
      </trkpt>
      <trkpt lat="46.55971" lon="5.66491">
        <ele>490.2</ele>
        <time>2022-07-29T08:20:51Z</time>
      </trkpt>
      <trkpt lat="46.55968" lon="5.66482">
        <ele>490.2</ele>
        <time>2022-07-29T08:20:52Z</time>
      </trkpt>
      <trkpt lat="46.55965" lon="5.66473">
        <ele>490.2</ele>
        <time>2022-07-29T08:20:53Z</time>
      </trkpt>
      <trkpt lat="46.55961" lon="5.66464">
        <ele>490.2</ele>
        <time>2022-07-29T08:20:54Z</time>
      </trkpt>
      <trkpt lat="46.55958" lon="5.66455">
        <ele>490.2</ele>
        <time>2022-07-29T08:20:55Z</time>
      </trkpt>
      <trkpt lat="46.55955" lon="5.66446">
        <ele>490.2</ele>
        <time>2022-07-29T08:20:56Z</time>
      </trkpt>
      <trkpt lat="46.55951" lon="5.66436">
        <ele>490.2</ele>
        <time>2022-07-29T08:20:57Z</time>
      </trkpt>
      <trkpt lat="46.55948" lon="5.66427">
        <ele>490.2</ele>
        <time>2022-07-29T08:20:58Z</time>
      </trkpt>
      <trkpt lat="46.55943" lon="5.66418">
        <ele>490.2</ele>
        <time>2022-07-29T08:20:59Z</time>
      </trkpt>
      <trkpt lat="46.55939" lon="5.6641">
        <ele>490</ele>
        <time>2022-07-29T08:21:00Z</time>
      </trkpt>
      <trkpt lat="46.55934" lon="5.66401">
        <ele>490</ele>
        <time>2022-07-29T08:21:01Z</time>
      </trkpt>
      <trkpt lat="46.55928" lon="5.66394">
        <ele>490</ele>
        <time>2022-07-29T08:21:02Z</time>
      </trkpt>
      <trkpt lat="46.55923" lon="5.66387">
        <ele>490</ele>
        <time>2022-07-29T08:21:03Z</time>
      </trkpt>
      <trkpt lat="46.55917" lon="5.6638">
        <ele>489.8</ele>
        <time>2022-07-29T08:21:04Z</time>
      </trkpt>
      <trkpt lat="46.55911" lon="5.66374">
        <ele>489.8</ele>
        <time>2022-07-29T08:21:05Z</time>
      </trkpt>
      <trkpt lat="46.55905" lon="5.66367">
        <ele>489.8</ele>
        <time>2022-07-29T08:21:06Z</time>
      </trkpt>
      <trkpt lat="46.55899" lon="5.66361">
        <ele>489.8</ele>
        <time>2022-07-29T08:21:07Z</time>
      </trkpt>
      <trkpt lat="46.55893" lon="5.66356">
        <ele>489.8</ele>
        <time>2022-07-29T08:21:08Z</time>
      </trkpt>
      <trkpt lat="46.55887" lon="5.6635">
        <ele>489.8</ele>
        <time>2022-07-29T08:21:09Z</time>
      </trkpt>
      <trkpt lat="46.55882" lon="5.66344">
        <ele>489.8</ele>
        <time>2022-07-29T08:21:10Z</time>
      </trkpt>
      <trkpt lat="46.55876" lon="5.66338">
        <ele>489.8</ele>
        <time>2022-07-29T08:21:11Z</time>
      </trkpt>
      <trkpt lat="46.5587" lon="5.66332">
        <ele>489.8</ele>
        <time>2022-07-29T08:21:12Z</time>
      </trkpt>
      <trkpt lat="46.55865" lon="5.66327">
        <ele>489.8</ele>
        <time>2022-07-29T08:21:13Z</time>
      </trkpt>
      <trkpt lat="46.55859" lon="5.66321">
        <ele>489.8</ele>
        <time>2022-07-29T08:21:14Z</time>
      </trkpt>
      <trkpt lat="46.55853" lon="5.66315">
        <ele>489.8</ele>
        <time>2022-07-29T08:21:15Z</time>
      </trkpt>
      <trkpt lat="46.55847" lon="5.66308">
        <ele>489.8</ele>
        <time>2022-07-29T08:21:16Z</time>
      </trkpt>
      <trkpt lat="46.55841" lon="5.66302">
        <ele>489.8</ele>
        <time>2022-07-29T08:21:17Z</time>
      </trkpt>
      <trkpt lat="46.55835" lon="5.66296">
        <ele>489.8</ele>
        <time>2022-07-29T08:21:18Z</time>
      </trkpt>
      <trkpt lat="46.55829" lon="5.6629">
        <ele>489.8</ele>
        <time>2022-07-29T08:21:19Z</time>
      </trkpt>
      <trkpt lat="46.55823" lon="5.66284">
        <ele>489.8</ele>
        <time>2022-07-29T08:21:20Z</time>
      </trkpt>
      <trkpt lat="46.55817" lon="5.66278">
        <ele>489.8</ele>
        <time>2022-07-29T08:21:21Z</time>
      </trkpt>
      <trkpt lat="46.55811" lon="5.66271">
        <ele>489.8</ele>
        <time>2022-07-29T08:21:22Z</time>
      </trkpt>
      <trkpt lat="46.55805" lon="5.66265">
        <ele>489.8</ele>
        <time>2022-07-29T08:21:23Z</time>
      </trkpt>
      <trkpt lat="46.55799" lon="5.66259">
        <ele>489.8</ele>
        <time>2022-07-29T08:21:24Z</time>
      </trkpt>
      <trkpt lat="46.55792" lon="5.66252">
        <ele>489.8</ele>
        <time>2022-07-29T08:21:25Z</time>
      </trkpt>
      <trkpt lat="46.55786" lon="5.66246">
        <ele>489.8</ele>
        <time>2022-07-29T08:21:26Z</time>
      </trkpt>
      <trkpt lat="46.5578" lon="5.6624">
        <ele>489.8</ele>
        <time>2022-07-29T08:21:27Z</time>
      </trkpt>
      <trkpt lat="46.55774" lon="5.66233">
        <ele>490</ele>
        <time>2022-07-29T08:21:28Z</time>
      </trkpt>
      <trkpt lat="46.55769" lon="5.66227">
        <ele>490</ele>
        <time>2022-07-29T08:21:29Z</time>
      </trkpt>
      <trkpt lat="46.55763" lon="5.66221">
        <ele>490.2</ele>
        <time>2022-07-29T08:21:30Z</time>
      </trkpt>
      <trkpt lat="46.55757" lon="5.66216">
        <ele>490.6</ele>
        <time>2022-07-29T08:21:31Z</time>
      </trkpt>
      <trkpt lat="46.55752" lon="5.6621">
        <ele>490.6</ele>
        <time>2022-07-29T08:21:32Z</time>
      </trkpt>
      <trkpt lat="46.55747" lon="5.66205">
        <ele>491</ele>
        <time>2022-07-29T08:21:33Z</time>
      </trkpt>
      <trkpt lat="46.55742" lon="5.662">
        <ele>491</ele>
        <time>2022-07-29T08:21:34Z</time>
      </trkpt>
      <trkpt lat="46.55738" lon="5.66195">
        <ele>491.4</ele>
        <time>2022-07-29T08:21:35Z</time>
      </trkpt>
      <trkpt lat="46.55733" lon="5.6619">
        <ele>491.4</ele>
        <time>2022-07-29T08:21:36Z</time>
      </trkpt>
      <trkpt lat="46.55728" lon="5.66185">
        <ele>491.8</ele>
        <time>2022-07-29T08:21:37Z</time>
      </trkpt>
      <trkpt lat="46.55723" lon="5.6618">
        <ele>492.2</ele>
        <time>2022-07-29T08:21:38Z</time>
      </trkpt>
      <trkpt lat="46.55719" lon="5.66175">
        <ele>492.4</ele>
        <time>2022-07-29T08:21:39Z</time>
      </trkpt>
      <trkpt lat="46.55714" lon="5.6617">
        <ele>492.8</ele>
        <time>2022-07-29T08:21:40Z</time>
      </trkpt>
      <trkpt lat="46.55709" lon="5.66166">
        <ele>493</ele>
        <time>2022-07-29T08:21:41Z</time>
      </trkpt>
      <trkpt lat="46.55705" lon="5.66161">
        <ele>493.2</ele>
        <time>2022-07-29T08:21:42Z</time>
      </trkpt>
      <trkpt lat="46.55701" lon="5.66157">
        <ele>493.4</ele>
        <time>2022-07-29T08:21:43Z</time>
      </trkpt>
      <trkpt lat="46.55697" lon="5.66153">
        <ele>493.4</ele>
        <time>2022-07-29T08:21:44Z</time>
      </trkpt>
      <trkpt lat="46.55693" lon="5.66149">
        <ele>493.8</ele>
        <time>2022-07-29T08:21:45Z</time>
      </trkpt>
      <trkpt lat="46.55689" lon="5.66144">
        <ele>493.8</ele>
        <time>2022-07-29T08:21:46Z</time>
      </trkpt>
      <trkpt lat="46.55685" lon="5.6614">
        <ele>494</ele>
        <time>2022-07-29T08:21:47Z</time>
      </trkpt>
      <trkpt lat="46.55681" lon="5.66135">
        <ele>494</ele>
        <time>2022-07-29T08:21:48Z</time>
      </trkpt>
      <trkpt lat="46.55676" lon="5.6613">
        <ele>494.2</ele>
        <time>2022-07-29T08:21:49Z</time>
      </trkpt>
      <trkpt lat="46.55672" lon="5.66125">
        <ele>494.4</ele>
        <time>2022-07-29T08:21:50Z</time>
      </trkpt>
      <trkpt lat="46.55668" lon="5.66119">
        <ele>494.4</ele>
        <time>2022-07-29T08:21:51Z</time>
      </trkpt>
      <trkpt lat="46.55664" lon="5.66113">
        <ele>494.6</ele>
        <time>2022-07-29T08:21:52Z</time>
      </trkpt>
      <trkpt lat="46.55661" lon="5.66106">
        <ele>494.6</ele>
        <time>2022-07-29T08:21:53Z</time>
      </trkpt>
      <trkpt lat="46.55658" lon="5.661">
        <ele>494.6</ele>
        <time>2022-07-29T08:21:54Z</time>
      </trkpt>
      <trkpt lat="46.55655" lon="5.66093">
        <ele>494.8</ele>
        <time>2022-07-29T08:21:55Z</time>
      </trkpt>
      <trkpt lat="46.55653" lon="5.66086">
        <ele>494.8</ele>
        <time>2022-07-29T08:21:56Z</time>
      </trkpt>
      <trkpt lat="46.55651" lon="5.66078">
        <ele>495.2</ele>
        <time>2022-07-29T08:21:57Z</time>
      </trkpt>
      <trkpt lat="46.5565" lon="5.6607">
        <ele>495.2</ele>
        <time>2022-07-29T08:21:58Z</time>
      </trkpt>
      <trkpt lat="46.55649" lon="5.66062">
        <ele>495.6</ele>
        <time>2022-07-29T08:21:59Z</time>
      </trkpt>
      <trkpt lat="46.55649" lon="5.66055">
        <ele>495.8</ele>
        <time>2022-07-29T08:22:00Z</time>
      </trkpt>
      <trkpt lat="46.55649" lon="5.66048">
        <ele>496</ele>
        <time>2022-07-29T08:22:01Z</time>
      </trkpt>
      <trkpt lat="46.55649" lon="5.6604">
        <ele>496.2</ele>
        <time>2022-07-29T08:22:02Z</time>
      </trkpt>
      <trkpt lat="46.5565" lon="5.66033">
        <ele>496.4</ele>
        <time>2022-07-29T08:22:03Z</time>
      </trkpt>
      <trkpt lat="46.55651" lon="5.66026">
        <ele>496.4</ele>
        <time>2022-07-29T08:22:04Z</time>
      </trkpt>
      <trkpt lat="46.55652" lon="5.6602">
        <ele>496.8</ele>
        <time>2022-07-29T08:22:05Z</time>
      </trkpt>
      <trkpt lat="46.55653" lon="5.66013">
        <ele>497</ele>
        <time>2022-07-29T08:22:06Z</time>
      </trkpt>
      <trkpt lat="46.55655" lon="5.66007">
        <ele>497.2</ele>
        <time>2022-07-29T08:22:07Z</time>
      </trkpt>
      <trkpt lat="46.55657" lon="5.66002">
        <ele>497.4</ele>
        <time>2022-07-29T08:22:08Z</time>
      </trkpt>
      <trkpt lat="46.55658" lon="5.65996">
        <ele>497.8</ele>
        <time>2022-07-29T08:22:09Z</time>
      </trkpt>
      <trkpt lat="46.5566" lon="5.65991">
        <ele>498</ele>
        <time>2022-07-29T08:22:10Z</time>
      </trkpt>
      <trkpt lat="46.55662" lon="5.65985">
        <ele>498.4</ele>
        <time>2022-07-29T08:22:11Z</time>
      </trkpt>
      <trkpt lat="46.55664" lon="5.6598">
        <ele>498.8</ele>
        <time>2022-07-29T08:22:12Z</time>
      </trkpt>
      <trkpt lat="46.55666" lon="5.65975">
        <ele>499.2</ele>
        <time>2022-07-29T08:22:13Z</time>
      </trkpt>
      <trkpt lat="46.55668" lon="5.6597">
        <ele>499.4</ele>
        <time>2022-07-29T08:22:14Z</time>
      </trkpt>
      <trkpt lat="46.5567" lon="5.65965">
        <ele>499.8</ele>
        <time>2022-07-29T08:22:15Z</time>
      </trkpt>
      <trkpt lat="46.55672" lon="5.6596">
        <ele>500</ele>
        <time>2022-07-29T08:22:16Z</time>
      </trkpt>
      <trkpt lat="46.55673" lon="5.65956">
        <ele>500.4</ele>
        <time>2022-07-29T08:22:17Z</time>
      </trkpt>
      <trkpt lat="46.55675" lon="5.65951">
        <ele>500.6</ele>
        <time>2022-07-29T08:22:18Z</time>
      </trkpt>
      <trkpt lat="46.55677" lon="5.65946">
        <ele>500.8</ele>
        <time>2022-07-29T08:22:19Z</time>
      </trkpt>
      <trkpt lat="46.55679" lon="5.65942">
        <ele>501.2</ele>
        <time>2022-07-29T08:22:20Z</time>
      </trkpt>
      <trkpt lat="46.5568" lon="5.65937">
        <ele>501.4</ele>
        <time>2022-07-29T08:22:21Z</time>
      </trkpt>
      <trkpt lat="46.55682" lon="5.65932">
        <ele>501.6</ele>
        <time>2022-07-29T08:22:22Z</time>
      </trkpt>
      <trkpt lat="46.55683" lon="5.65928">
        <ele>501.6</ele>
        <time>2022-07-29T08:22:23Z</time>
      </trkpt>
      <trkpt lat="46.55684" lon="5.65923">
        <ele>502</ele>
        <time>2022-07-29T08:22:24Z</time>
      </trkpt>
      <trkpt lat="46.55685" lon="5.65918">
        <ele>502.2</ele>
        <time>2022-07-29T08:22:25Z</time>
      </trkpt>
      <trkpt lat="46.55685" lon="5.65913">
        <ele>502.4</ele>
        <time>2022-07-29T08:22:26Z</time>
      </trkpt>
      <trkpt lat="46.55686" lon="5.65908">
        <ele>502.4</ele>
        <time>2022-07-29T08:22:27Z</time>
      </trkpt>
      <trkpt lat="46.55686" lon="5.65902">
        <ele>502.8</ele>
        <time>2022-07-29T08:22:28Z</time>
      </trkpt>
      <trkpt lat="46.55686" lon="5.65897">
        <ele>503</ele>
        <time>2022-07-29T08:22:29Z</time>
      </trkpt>
      <trkpt lat="46.55685" lon="5.65891">
        <ele>503.2</ele>
        <time>2022-07-29T08:22:30Z</time>
      </trkpt>
      <trkpt lat="46.55685" lon="5.65886">
        <ele>503.6</ele>
        <time>2022-07-29T08:22:31Z</time>
      </trkpt>
      <trkpt lat="46.55684" lon="5.65881">
        <ele>503.6</ele>
        <time>2022-07-29T08:22:32Z</time>
      </trkpt>
      <trkpt lat="46.55683" lon="5.65875">
        <ele>504</ele>
        <time>2022-07-29T08:22:33Z</time>
      </trkpt>
      <trkpt lat="46.55682" lon="5.6587">
        <ele>504.2</ele>
        <time>2022-07-29T08:22:34Z</time>
      </trkpt>
      <trkpt lat="46.55681" lon="5.65865">
        <ele>504.2</ele>
        <time>2022-07-29T08:22:35Z</time>
      </trkpt>
      <trkpt lat="46.55679" lon="5.6586">
        <ele>504.6</ele>
        <time>2022-07-29T08:22:36Z</time>
      </trkpt>
      <trkpt lat="46.55678" lon="5.65856">
        <ele>504.8</ele>
        <time>2022-07-29T08:22:37Z</time>
      </trkpt>
      <trkpt lat="46.55676" lon="5.65852">
        <ele>504.8</ele>
        <time>2022-07-29T08:22:38Z</time>
      </trkpt>
      <trkpt lat="46.55674" lon="5.65848">
        <ele>505.2</ele>
        <time>2022-07-29T08:22:39Z</time>
      </trkpt>
      <trkpt lat="46.55671" lon="5.65844">
        <ele>505.4</ele>
        <time>2022-07-29T08:22:40Z</time>
      </trkpt>
      <trkpt lat="46.55669" lon="5.6584">
        <ele>505.6</ele>
        <time>2022-07-29T08:22:41Z</time>
      </trkpt>
      <trkpt lat="46.55666" lon="5.65837">
        <ele>505.6</ele>
        <time>2022-07-29T08:22:42Z</time>
      </trkpt>
      <trkpt lat="46.55664" lon="5.65834">
        <ele>506</ele>
        <time>2022-07-29T08:22:43Z</time>
      </trkpt>
      <trkpt lat="46.55661" lon="5.65831">
        <ele>506.2</ele>
        <time>2022-07-29T08:22:44Z</time>
      </trkpt>
      <trkpt lat="46.55658" lon="5.65828">
        <ele>506.4</ele>
        <time>2022-07-29T08:22:45Z</time>
      </trkpt>
      <trkpt lat="46.55655" lon="5.65825">
        <ele>506.6</ele>
        <time>2022-07-29T08:22:46Z</time>
      </trkpt>
      <trkpt lat="46.55652" lon="5.65823">
        <ele>507</ele>
        <time>2022-07-29T08:22:47Z</time>
      </trkpt>
      <trkpt lat="46.5565" lon="5.6582">
        <ele>507.2</ele>
        <time>2022-07-29T08:22:48Z</time>
      </trkpt>
      <trkpt lat="46.55646" lon="5.65818">
        <ele>507.4</ele>
        <time>2022-07-29T08:22:49Z</time>
      </trkpt>
      <trkpt lat="46.55643" lon="5.65816">
        <ele>507.4</ele>
        <time>2022-07-29T08:22:50Z</time>
      </trkpt>
      <trkpt lat="46.5564" lon="5.65815">
        <ele>507.6</ele>
        <time>2022-07-29T08:22:51Z</time>
      </trkpt>
      <trkpt lat="46.55637" lon="5.65813">
        <ele>507.6</ele>
        <time>2022-07-29T08:22:52Z</time>
      </trkpt>
      <trkpt lat="46.55633" lon="5.65812">
        <ele>508</ele>
        <time>2022-07-29T08:22:53Z</time>
      </trkpt>
      <trkpt lat="46.5563" lon="5.6581">
        <ele>508</ele>
        <time>2022-07-29T08:22:54Z</time>
      </trkpt>
      <trkpt lat="46.55627" lon="5.65808">
        <ele>508.4</ele>
        <time>2022-07-29T08:22:55Z</time>
      </trkpt>
      <trkpt lat="46.55623" lon="5.65806">
        <ele>508.4</ele>
        <time>2022-07-29T08:22:56Z</time>
      </trkpt>
      <trkpt lat="46.5562" lon="5.65804">
        <ele>508.8</ele>
        <time>2022-07-29T08:22:57Z</time>
      </trkpt>
      <trkpt lat="46.55617" lon="5.65802">
        <ele>508.8</ele>
        <time>2022-07-29T08:22:58Z</time>
      </trkpt>
      <trkpt lat="46.55613" lon="5.658">
        <ele>509.2</ele>
        <time>2022-07-29T08:22:59Z</time>
      </trkpt>
      <trkpt lat="46.5561" lon="5.65798">
        <ele>509.4</ele>
        <time>2022-07-29T08:23:00Z</time>
      </trkpt>
      <trkpt lat="46.55607" lon="5.65796">
        <ele>509.4</ele>
        <time>2022-07-29T08:23:01Z</time>
      </trkpt>
      <trkpt lat="46.55603" lon="5.65794">
        <ele>509.6</ele>
        <time>2022-07-29T08:23:02Z</time>
      </trkpt>
      <trkpt lat="46.556" lon="5.65792">
        <ele>510</ele>
        <time>2022-07-29T08:23:03Z</time>
      </trkpt>
      <trkpt lat="46.55597" lon="5.6579">
        <ele>510</ele>
        <time>2022-07-29T08:23:04Z</time>
      </trkpt>
      <trkpt lat="46.55594" lon="5.65788">
        <ele>510.2</ele>
        <time>2022-07-29T08:23:05Z</time>
      </trkpt>
      <trkpt lat="46.5559" lon="5.65786">
        <ele>510.2</ele>
        <time>2022-07-29T08:23:06Z</time>
      </trkpt>
      <trkpt lat="46.55587" lon="5.65784">
        <ele>510.6</ele>
        <time>2022-07-29T08:23:07Z</time>
      </trkpt>
      <trkpt lat="46.55584" lon="5.65782">
        <ele>510.8</ele>
        <time>2022-07-29T08:23:08Z</time>
      </trkpt>
      <trkpt lat="46.55581" lon="5.65781">
        <ele>510.8</ele>
        <time>2022-07-29T08:23:09Z</time>
      </trkpt>
      <trkpt lat="46.55577" lon="5.65779">
        <ele>511.2</ele>
        <time>2022-07-29T08:23:10Z</time>
      </trkpt>
      <trkpt lat="46.55574" lon="5.65777">
        <ele>511.2</ele>
        <time>2022-07-29T08:23:11Z</time>
      </trkpt>
      <trkpt lat="46.55571" lon="5.65775">
        <ele>511.6</ele>
        <time>2022-07-29T08:23:12Z</time>
      </trkpt>
      <trkpt lat="46.55568" lon="5.65773">
        <ele>511.8</ele>
        <time>2022-07-29T08:23:13Z</time>
      </trkpt>
      <trkpt lat="46.55565" lon="5.65771">
        <ele>512</ele>
        <time>2022-07-29T08:23:14Z</time>
      </trkpt>
      <trkpt lat="46.55562" lon="5.65769">
        <ele>512.4</ele>
        <time>2022-07-29T08:23:15Z</time>
      </trkpt>
      <trkpt lat="46.55559" lon="5.65767">
        <ele>512.6</ele>
        <time>2022-07-29T08:23:16Z</time>
      </trkpt>
      <trkpt lat="46.55556" lon="5.65765">
        <ele>512.6</ele>
        <time>2022-07-29T08:23:17Z</time>
      </trkpt>
      <trkpt lat="46.55553" lon="5.65763">
        <ele>512.8</ele>
        <time>2022-07-29T08:23:18Z</time>
      </trkpt>
      <trkpt lat="46.5555" lon="5.65761">
        <ele>513.2</ele>
        <time>2022-07-29T08:23:19Z</time>
      </trkpt>
      <trkpt lat="46.55547" lon="5.6576">
        <ele>513.2</ele>
        <time>2022-07-29T08:23:20Z</time>
      </trkpt>
      <trkpt lat="46.55544" lon="5.65757">
        <ele>513.4</ele>
        <time>2022-07-29T08:23:21Z</time>
      </trkpt>
      <trkpt lat="46.55541" lon="5.65755">
        <ele>513.4</ele>
        <time>2022-07-29T08:23:22Z</time>
      </trkpt>
      <trkpt lat="46.55538" lon="5.65753">
        <ele>513.8</ele>
        <time>2022-07-29T08:23:23Z</time>
      </trkpt>
      <trkpt lat="46.55534" lon="5.6575">
        <ele>513.8</ele>
        <time>2022-07-29T08:23:24Z</time>
      </trkpt>
      <trkpt lat="46.5553" lon="5.65747">
        <ele>514.2</ele>
        <time>2022-07-29T08:23:25Z</time>
      </trkpt>
      <trkpt lat="46.55526" lon="5.65744">
        <ele>514.4</ele>
        <time>2022-07-29T08:23:26Z</time>
      </trkpt>
      <trkpt lat="46.55523" lon="5.65742">
        <ele>515</ele>
        <time>2022-07-29T08:23:27Z</time>
      </trkpt>
      <trkpt lat="46.55519" lon="5.65739">
        <ele>515</ele>
        <time>2022-07-29T08:23:28Z</time>
      </trkpt>
      <trkpt lat="46.55515" lon="5.65736">
        <ele>515.4</ele>
        <time>2022-07-29T08:23:29Z</time>
      </trkpt>
      <trkpt lat="46.55512" lon="5.65734">
        <ele>515.6</ele>
        <time>2022-07-29T08:23:30Z</time>
      </trkpt>
      <trkpt lat="46.55508" lon="5.65731">
        <ele>515.8</ele>
        <time>2022-07-29T08:23:31Z</time>
      </trkpt>
      <trkpt lat="46.55505" lon="5.65729">
        <ele>516</ele>
        <time>2022-07-29T08:23:32Z</time>
      </trkpt>
      <trkpt lat="46.55501" lon="5.65726">
        <ele>516.2</ele>
        <time>2022-07-29T08:23:33Z</time>
      </trkpt>
      <trkpt lat="46.55497" lon="5.65723">
        <ele>516.4</ele>
        <time>2022-07-29T08:23:34Z</time>
      </trkpt>
      <trkpt lat="46.55494" lon="5.65721">
        <ele>516.8</ele>
        <time>2022-07-29T08:23:35Z</time>
      </trkpt>
      <trkpt lat="46.5549" lon="5.65718">
        <ele>517</ele>
        <time>2022-07-29T08:23:36Z</time>
      </trkpt>
      <trkpt lat="46.55487" lon="5.65715">
        <ele>517</ele>
        <time>2022-07-29T08:23:37Z</time>
      </trkpt>
      <trkpt lat="46.55483" lon="5.65713">
        <ele>517.4</ele>
        <time>2022-07-29T08:23:38Z</time>
      </trkpt>
      <trkpt lat="46.5548" lon="5.6571">
        <ele>517.6</ele>
        <time>2022-07-29T08:23:39Z</time>
      </trkpt>
      <trkpt lat="46.55476" lon="5.65708">
        <ele>517.6</ele>
        <time>2022-07-29T08:23:40Z</time>
      </trkpt>
      <trkpt lat="46.55473" lon="5.65705">
        <ele>518</ele>
        <time>2022-07-29T08:23:41Z</time>
      </trkpt>
      <trkpt lat="46.55469" lon="5.65703">
        <ele>518</ele>
        <time>2022-07-29T08:23:42Z</time>
      </trkpt>
      <trkpt lat="46.55466" lon="5.657">
        <ele>518.2</ele>
        <time>2022-07-29T08:23:43Z</time>
      </trkpt>
      <trkpt lat="46.55462" lon="5.65698">
        <ele>518.4</ele>
        <time>2022-07-29T08:23:44Z</time>
      </trkpt>
      <trkpt lat="46.55459" lon="5.65695">
        <ele>518.6</ele>
        <time>2022-07-29T08:23:45Z</time>
      </trkpt>
      <trkpt lat="46.55455" lon="5.65693">
        <ele>519</ele>
        <time>2022-07-29T08:23:46Z</time>
      </trkpt>
      <trkpt lat="46.55451" lon="5.65691">
        <ele>519</ele>
        <time>2022-07-29T08:23:47Z</time>
      </trkpt>
      <trkpt lat="46.55448" lon="5.65688">
        <ele>519.2</ele>
        <time>2022-07-29T08:23:48Z</time>
      </trkpt>
      <trkpt lat="46.55444" lon="5.65686">
        <ele>519.2</ele>
        <time>2022-07-29T08:23:49Z</time>
      </trkpt>
      <trkpt lat="46.55441" lon="5.65683">
        <ele>519.6</ele>
        <time>2022-07-29T08:23:50Z</time>
      </trkpt>
      <trkpt lat="46.55437" lon="5.6568">
        <ele>519.6</ele>
        <time>2022-07-29T08:23:51Z</time>
      </trkpt>
      <trkpt lat="46.55434" lon="5.65678">
        <ele>519.8</ele>
        <time>2022-07-29T08:23:52Z</time>
      </trkpt>
      <trkpt lat="46.5543" lon="5.65676">
        <ele>519.8</ele>
        <time>2022-07-29T08:23:53Z</time>
      </trkpt>
      <trkpt lat="46.55426" lon="5.65673">
        <ele>520.2</ele>
        <time>2022-07-29T08:23:54Z</time>
      </trkpt>
      <trkpt lat="46.55423" lon="5.6567">
        <ele>520.2</ele>
        <time>2022-07-29T08:23:55Z</time>
      </trkpt>
      <trkpt lat="46.55419" lon="5.65668">
        <ele>520.6</ele>
        <time>2022-07-29T08:23:56Z</time>
      </trkpt>
      <trkpt lat="46.55415" lon="5.65665">
        <ele>520.6</ele>
        <time>2022-07-29T08:23:57Z</time>
      </trkpt>
      <trkpt lat="46.55412" lon="5.65663">
        <ele>520.8</ele>
        <time>2022-07-29T08:23:58Z</time>
      </trkpt>
      <trkpt lat="46.55408" lon="5.65661">
        <ele>520.8</ele>
        <time>2022-07-29T08:23:59Z</time>
      </trkpt>
      <trkpt lat="46.55404" lon="5.65658">
        <ele>521.2</ele>
        <time>2022-07-29T08:24:00Z</time>
      </trkpt>
      <trkpt lat="46.55401" lon="5.65656">
        <ele>521.2</ele>
        <time>2022-07-29T08:24:01Z</time>
      </trkpt>
      <trkpt lat="46.55397" lon="5.65654">
        <ele>521.4</ele>
        <time>2022-07-29T08:24:02Z</time>
      </trkpt>
      <trkpt lat="46.55393" lon="5.65652">
        <ele>521.4</ele>
        <time>2022-07-29T08:24:03Z</time>
      </trkpt>
      <trkpt lat="46.5539" lon="5.6565">
        <ele>521.8</ele>
        <time>2022-07-29T08:24:04Z</time>
      </trkpt>
      <trkpt lat="46.55386" lon="5.65648">
        <ele>521.8</ele>
        <time>2022-07-29T08:24:05Z</time>
      </trkpt>
      <trkpt lat="46.55382" lon="5.65646">
        <ele>522</ele>
        <time>2022-07-29T08:24:06Z</time>
      </trkpt>
      <trkpt lat="46.55379" lon="5.65644">
        <ele>522</ele>
        <time>2022-07-29T08:24:07Z</time>
      </trkpt>
      <trkpt lat="46.55375" lon="5.65642">
        <ele>522.4</ele>
        <time>2022-07-29T08:24:08Z</time>
      </trkpt>
      <trkpt lat="46.55372" lon="5.6564">
        <ele>522.4</ele>
        <time>2022-07-29T08:24:09Z</time>
      </trkpt>
      <trkpt lat="46.55368" lon="5.65638">
        <ele>522.6</ele>
        <time>2022-07-29T08:24:10Z</time>
      </trkpt>
      <trkpt lat="46.55364" lon="5.65636">
        <ele>522.6</ele>
        <time>2022-07-29T08:24:11Z</time>
      </trkpt>
      <trkpt lat="46.5536" lon="5.65634">
        <ele>523</ele>
        <time>2022-07-29T08:24:12Z</time>
      </trkpt>
      <trkpt lat="46.55357" lon="5.65632">
        <ele>523</ele>
        <time>2022-07-29T08:24:13Z</time>
      </trkpt>
      <trkpt lat="46.55353" lon="5.6563">
        <ele>523.2</ele>
        <time>2022-07-29T08:24:14Z</time>
      </trkpt>
      <trkpt lat="46.55349" lon="5.65628">
        <ele>523.2</ele>
        <time>2022-07-29T08:24:15Z</time>
      </trkpt>
      <trkpt lat="46.55345" lon="5.65626">
        <ele>523.4</ele>
        <time>2022-07-29T08:24:16Z</time>
      </trkpt>
      <trkpt lat="46.55342" lon="5.65624">
        <ele>523.4</ele>
        <time>2022-07-29T08:24:17Z</time>
      </trkpt>
      <trkpt lat="46.55338" lon="5.65622">
        <ele>523.8</ele>
        <time>2022-07-29T08:24:18Z</time>
      </trkpt>
      <trkpt lat="46.55334" lon="5.6562">
        <ele>524</ele>
        <time>2022-07-29T08:24:19Z</time>
      </trkpt>
      <trkpt lat="46.55331" lon="5.65618">
        <ele>524</ele>
        <time>2022-07-29T08:24:20Z</time>
      </trkpt>
      <trkpt lat="46.55327" lon="5.65616">
        <ele>524.2</ele>
        <time>2022-07-29T08:24:21Z</time>
      </trkpt>
      <trkpt lat="46.55324" lon="5.65614">
        <ele>524.2</ele>
        <time>2022-07-29T08:24:22Z</time>
      </trkpt>
      <trkpt lat="46.5532" lon="5.65612">
        <ele>524.4</ele>
        <time>2022-07-29T08:24:23Z</time>
      </trkpt>
      <trkpt lat="46.55317" lon="5.6561">
        <ele>524.4</ele>
        <time>2022-07-29T08:24:24Z</time>
      </trkpt>
      <trkpt lat="46.55313" lon="5.65608">
        <ele>524.8</ele>
        <time>2022-07-29T08:24:25Z</time>
      </trkpt>
      <trkpt lat="46.5531" lon="5.65606">
        <ele>524.8</ele>
        <time>2022-07-29T08:24:26Z</time>
      </trkpt>
      <trkpt lat="46.55307" lon="5.65603">
        <ele>525.2</ele>
        <time>2022-07-29T08:24:27Z</time>
      </trkpt>
      <trkpt lat="46.55304" lon="5.65601">
        <ele>525.2</ele>
        <time>2022-07-29T08:24:28Z</time>
      </trkpt>
      <trkpt lat="46.55301" lon="5.65598">
        <ele>525.4</ele>
        <time>2022-07-29T08:24:29Z</time>
      </trkpt>
      <trkpt lat="46.55297" lon="5.65596">
        <ele>525.4</ele>
        <time>2022-07-29T08:24:30Z</time>
      </trkpt>
      <trkpt lat="46.55294" lon="5.65594">
        <ele>525.6</ele>
        <time>2022-07-29T08:24:31Z</time>
      </trkpt>
      <trkpt lat="46.5529" lon="5.65592">
        <ele>525.6</ele>
        <time>2022-07-29T08:24:32Z</time>
      </trkpt>
      <trkpt lat="46.55287" lon="5.6559">
        <ele>526</ele>
        <time>2022-07-29T08:24:33Z</time>
      </trkpt>
      <trkpt lat="46.55284" lon="5.65588">
        <ele>526</ele>
        <time>2022-07-29T08:24:34Z</time>
      </trkpt>
      <trkpt lat="46.5528" lon="5.65586">
        <ele>526.2</ele>
        <time>2022-07-29T08:24:35Z</time>
      </trkpt>
      <trkpt lat="46.55277" lon="5.65584">
        <ele>526.4</ele>
        <time>2022-07-29T08:24:36Z</time>
      </trkpt>
      <trkpt lat="46.55273" lon="5.65581">
        <ele>526.4</ele>
        <time>2022-07-29T08:24:37Z</time>
      </trkpt>
      <trkpt lat="46.55269" lon="5.65578">
        <ele>526.8</ele>
        <time>2022-07-29T08:24:38Z</time>
      </trkpt>
      <trkpt lat="46.55266" lon="5.65576">
        <ele>527</ele>
        <time>2022-07-29T08:24:39Z</time>
      </trkpt>
      <trkpt lat="46.55262" lon="5.65573">
        <ele>527</ele>
        <time>2022-07-29T08:24:40Z</time>
      </trkpt>
      <trkpt lat="46.55259" lon="5.65571">
        <ele>527.2</ele>
        <time>2022-07-29T08:24:41Z</time>
      </trkpt>
      <trkpt lat="46.55255" lon="5.65569">
        <ele>527.2</ele>
        <time>2022-07-29T08:24:42Z</time>
      </trkpt>
      <trkpt lat="46.55251" lon="5.65566">
        <ele>527.6</ele>
        <time>2022-07-29T08:24:43Z</time>
      </trkpt>
      <trkpt lat="46.55248" lon="5.65564">
        <ele>527.8</ele>
        <time>2022-07-29T08:24:44Z</time>
      </trkpt>
      <trkpt lat="46.55244" lon="5.65561">
        <ele>527.8</ele>
        <time>2022-07-29T08:24:45Z</time>
      </trkpt>
      <trkpt lat="46.5524" lon="5.65558">
        <ele>528</ele>
        <time>2022-07-29T08:24:46Z</time>
      </trkpt>
      <trkpt lat="46.55237" lon="5.65556">
        <ele>528.2</ele>
        <time>2022-07-29T08:24:47Z</time>
      </trkpt>
      <trkpt lat="46.55233" lon="5.65553">
        <ele>528.6</ele>
        <time>2022-07-29T08:24:48Z</time>
      </trkpt>
      <trkpt lat="46.5523" lon="5.65551">
        <ele>528.6</ele>
        <time>2022-07-29T08:24:49Z</time>
      </trkpt>
      <trkpt lat="46.55226" lon="5.65548">
        <ele>528.8</ele>
        <time>2022-07-29T08:24:50Z</time>
      </trkpt>
      <trkpt lat="46.55222" lon="5.65546">
        <ele>528.8</ele>
        <time>2022-07-29T08:24:51Z</time>
      </trkpt>
      <trkpt lat="46.55219" lon="5.65544">
        <ele>529.2</ele>
        <time>2022-07-29T08:24:52Z</time>
      </trkpt>
      <trkpt lat="46.55215" lon="5.65541">
        <ele>529.2</ele>
        <time>2022-07-29T08:24:53Z</time>
      </trkpt>
      <trkpt lat="46.55212" lon="5.65539">
        <ele>529.4</ele>
        <time>2022-07-29T08:24:54Z</time>
      </trkpt>
      <trkpt lat="46.55208" lon="5.65537">
        <ele>529.4</ele>
        <time>2022-07-29T08:24:55Z</time>
      </trkpt>
      <trkpt lat="46.55204" lon="5.65534">
        <ele>529.6</ele>
        <time>2022-07-29T08:24:56Z</time>
      </trkpt>
      <trkpt lat="46.55201" lon="5.65532">
        <ele>530</ele>
        <time>2022-07-29T08:24:57Z</time>
      </trkpt>
      <trkpt lat="46.55197" lon="5.6553">
        <ele>530</ele>
        <time>2022-07-29T08:24:58Z</time>
      </trkpt>
      <trkpt lat="46.55194" lon="5.65528">
        <ele>530.2</ele>
        <time>2022-07-29T08:24:59Z</time>
      </trkpt>
      <trkpt lat="46.5519" lon="5.65526">
        <ele>530.2</ele>
        <time>2022-07-29T08:25:00Z</time>
      </trkpt>
      <trkpt lat="46.55186" lon="5.65524">
        <ele>530.4</ele>
        <time>2022-07-29T08:25:01Z</time>
      </trkpt>
      <trkpt lat="46.55182" lon="5.65522">
        <ele>530.4</ele>
        <time>2022-07-29T08:25:02Z</time>
      </trkpt>
      <trkpt lat="46.55178" lon="5.6552">
        <ele>530.4</ele>
        <time>2022-07-29T08:25:03Z</time>
      </trkpt>
      <trkpt lat="46.55174" lon="5.65518">
        <ele>530.6</ele>
        <time>2022-07-29T08:25:04Z</time>
      </trkpt>
      <trkpt lat="46.5517" lon="5.65516">
        <ele>530.6</ele>
        <time>2022-07-29T08:25:05Z</time>
      </trkpt>
      <trkpt lat="46.55165" lon="5.65515">
        <ele>531</ele>
        <time>2022-07-29T08:25:06Z</time>
      </trkpt>
      <trkpt lat="46.55161" lon="5.65514">
        <ele>531</ele>
        <time>2022-07-29T08:25:07Z</time>
      </trkpt>
      <trkpt lat="46.55156" lon="5.65513">
        <ele>531</ele>
        <time>2022-07-29T08:25:08Z</time>
      </trkpt>
      <trkpt lat="46.55151" lon="5.65512">
        <ele>531.2</ele>
        <time>2022-07-29T08:25:09Z</time>
      </trkpt>
      <trkpt lat="46.55147" lon="5.65511">
        <ele>531.2</ele>
        <time>2022-07-29T08:25:10Z</time>
      </trkpt>
      <trkpt lat="46.55142" lon="5.65509">
        <ele>531.4</ele>
        <time>2022-07-29T08:25:11Z</time>
      </trkpt>
      <trkpt lat="46.55137" lon="5.65508">
        <ele>531.4</ele>
        <time>2022-07-29T08:25:12Z</time>
      </trkpt>
      <trkpt lat="46.55132" lon="5.65508">
        <ele>531.4</ele>
        <time>2022-07-29T08:25:13Z</time>
      </trkpt>
      <trkpt lat="46.55127" lon="5.65507">
        <ele>531.6</ele>
        <time>2022-07-29T08:25:14Z</time>
      </trkpt>
      <trkpt lat="46.55122" lon="5.65506">
        <ele>531.6</ele>
        <time>2022-07-29T08:25:15Z</time>
      </trkpt>
      <trkpt lat="46.55117" lon="5.65505">
        <ele>531.6</ele>
        <time>2022-07-29T08:25:16Z</time>
      </trkpt>
      <trkpt lat="46.55112" lon="5.65504">
        <ele>532</ele>
        <time>2022-07-29T08:25:17Z</time>
      </trkpt>
      <trkpt lat="46.55106" lon="5.65503">
        <ele>532</ele>
        <time>2022-07-29T08:25:18Z</time>
      </trkpt>
      <trkpt lat="46.55101" lon="5.65502">
        <ele>532.2</ele>
        <time>2022-07-29T08:25:19Z</time>
      </trkpt>
      <trkpt lat="46.55095" lon="5.65501">
        <ele>532.2</ele>
        <time>2022-07-29T08:25:20Z</time>
      </trkpt>
      <trkpt lat="46.55089" lon="5.65499">
        <ele>532.2</ele>
        <time>2022-07-29T08:25:21Z</time>
      </trkpt>
      <trkpt lat="46.55083" lon="5.65498">
        <ele>532.4</ele>
        <time>2022-07-29T08:25:22Z</time>
      </trkpt>
      <trkpt lat="46.55077" lon="5.65497">
        <ele>532.4</ele>
        <time>2022-07-29T08:25:23Z</time>
      </trkpt>
      <trkpt lat="46.55071" lon="5.65496">
        <ele>532.4</ele>
        <time>2022-07-29T08:25:24Z</time>
      </trkpt>
      <trkpt lat="46.55065" lon="5.65495">
        <ele>532.8</ele>
        <time>2022-07-29T08:25:25Z</time>
      </trkpt>
      <trkpt lat="46.55059" lon="5.65494">
        <ele>532.8</ele>
        <time>2022-07-29T08:25:26Z</time>
      </trkpt>
      <trkpt lat="46.55052" lon="5.65492">
        <ele>533</ele>
        <time>2022-07-29T08:25:27Z</time>
      </trkpt>
      <trkpt lat="46.55046" lon="5.65491">
        <ele>533</ele>
        <time>2022-07-29T08:25:28Z</time>
      </trkpt>
      <trkpt lat="46.5504" lon="5.6549">
        <ele>533.2</ele>
        <time>2022-07-29T08:25:29Z</time>
      </trkpt>
      <trkpt lat="46.55034" lon="5.65489">
        <ele>533.2</ele>
        <time>2022-07-29T08:25:30Z</time>
      </trkpt>
      <trkpt lat="46.55028" lon="5.65488">
        <ele>533.6</ele>
        <time>2022-07-29T08:25:31Z</time>
      </trkpt>
      <trkpt lat="46.55022" lon="5.65487">
        <ele>533.6</ele>
        <time>2022-07-29T08:25:32Z</time>
      </trkpt>
      <trkpt lat="46.55016" lon="5.65486">
        <ele>534</ele>
        <time>2022-07-29T08:25:33Z</time>
      </trkpt>
      <trkpt lat="46.5501" lon="5.65484">
        <ele>534</ele>
        <time>2022-07-29T08:25:34Z</time>
      </trkpt>
      <trkpt lat="46.55004" lon="5.65483">
        <ele>534.2</ele>
        <time>2022-07-29T08:25:35Z</time>
      </trkpt>
      <trkpt lat="46.54998" lon="5.65482">
        <ele>534.2</ele>
        <time>2022-07-29T08:25:36Z</time>
      </trkpt>
      <trkpt lat="46.54992" lon="5.65482">
        <ele>534.6</ele>
        <time>2022-07-29T08:25:37Z</time>
      </trkpt>
      <trkpt lat="46.54986" lon="5.65481">
        <ele>534.6</ele>
        <time>2022-07-29T08:25:38Z</time>
      </trkpt>
      <trkpt lat="46.5498" lon="5.65481">
        <ele>534.8</ele>
        <time>2022-07-29T08:25:39Z</time>
      </trkpt>
      <trkpt lat="46.54973" lon="5.6548">
        <ele>534.8</ele>
        <time>2022-07-29T08:25:40Z</time>
      </trkpt>
      <trkpt lat="46.54967" lon="5.6548">
        <ele>535</ele>
        <time>2022-07-29T08:25:41Z</time>
      </trkpt>
      <trkpt lat="46.54961" lon="5.6548">
        <ele>535</ele>
        <time>2022-07-29T08:25:42Z</time>
      </trkpt>
      <trkpt lat="46.54955" lon="5.6548">
        <ele>535</ele>
        <time>2022-07-29T08:25:43Z</time>
      </trkpt>
      <trkpt lat="46.54949" lon="5.65481">
        <ele>535.2</ele>
        <time>2022-07-29T08:25:44Z</time>
      </trkpt>
      <trkpt lat="46.54943" lon="5.65481">
        <ele>535.2</ele>
        <time>2022-07-29T08:25:45Z</time>
      </trkpt>
      <trkpt lat="46.54937" lon="5.65481">
        <ele>535.2</ele>
        <time>2022-07-29T08:25:46Z</time>
      </trkpt>
      <trkpt lat="46.54931" lon="5.65482">
        <ele>535.6</ele>
        <time>2022-07-29T08:25:47Z</time>
      </trkpt>
      <trkpt lat="46.54925" lon="5.65482">
        <ele>535.6</ele>
        <time>2022-07-29T08:25:48Z</time>
      </trkpt>
      <trkpt lat="46.54919" lon="5.65482">
        <ele>535.8</ele>
        <time>2022-07-29T08:25:49Z</time>
      </trkpt>
      <trkpt lat="46.54913" lon="5.65483">
        <ele>535.8</ele>
        <time>2022-07-29T08:25:50Z</time>
      </trkpt>
      <trkpt lat="46.54907" lon="5.65483">
        <ele>536.2</ele>
        <time>2022-07-29T08:25:51Z</time>
      </trkpt>
      <trkpt lat="46.54901" lon="5.65483">
        <ele>536.2</ele>
        <time>2022-07-29T08:25:52Z</time>
      </trkpt>
      <trkpt lat="46.54895" lon="5.65483">
        <ele>536.2</ele>
        <time>2022-07-29T08:25:53Z</time>
      </trkpt>
      <trkpt lat="46.54889" lon="5.65484">
        <ele>536.4</ele>
        <time>2022-07-29T08:25:54Z</time>
      </trkpt>
      <trkpt lat="46.54883" lon="5.65484">
        <ele>536.4</ele>
        <time>2022-07-29T08:25:55Z</time>
      </trkpt>
      <trkpt lat="46.54877" lon="5.65484">
        <ele>536.4</ele>
        <time>2022-07-29T08:25:56Z</time>
      </trkpt>
      <trkpt lat="46.54871" lon="5.65484">
        <ele>536.8</ele>
        <time>2022-07-29T08:25:57Z</time>
      </trkpt>
      <trkpt lat="46.54865" lon="5.65484">
        <ele>536.8</ele>
        <time>2022-07-29T08:25:58Z</time>
      </trkpt>
      <trkpt lat="46.54859" lon="5.65484">
        <ele>537</ele>
        <time>2022-07-29T08:25:59Z</time>
      </trkpt>
      <trkpt lat="46.54853" lon="5.65484">
        <ele>537</ele>
        <time>2022-07-29T08:26:00Z</time>
      </trkpt>
      <trkpt lat="46.54847" lon="5.65484">
        <ele>537</ele>
        <time>2022-07-29T08:26:01Z</time>
      </trkpt>
      <trkpt lat="46.54841" lon="5.65484">
        <ele>537.2</ele>
        <time>2022-07-29T08:26:02Z</time>
      </trkpt>
      <trkpt lat="46.54835" lon="5.65484">
        <ele>537.2</ele>
        <time>2022-07-29T08:26:03Z</time>
      </trkpt>
      <trkpt lat="46.54828" lon="5.65484">
        <ele>537.4</ele>
        <time>2022-07-29T08:26:04Z</time>
      </trkpt>
      <trkpt lat="46.54822" lon="5.65484">
        <ele>537.4</ele>
        <time>2022-07-29T08:26:05Z</time>
      </trkpt>
      <trkpt lat="46.54816" lon="5.65484">
        <ele>537.8</ele>
        <time>2022-07-29T08:26:06Z</time>
      </trkpt>
      <trkpt lat="46.5481" lon="5.65484">
        <ele>537.8</ele>
        <time>2022-07-29T08:26:07Z</time>
      </trkpt>
      <trkpt lat="46.54804" lon="5.65484">
        <ele>538</ele>
        <time>2022-07-29T08:26:08Z</time>
      </trkpt>
      <trkpt lat="46.54798" lon="5.65484">
        <ele>538</ele>
        <time>2022-07-29T08:26:09Z</time>
      </trkpt>
      <trkpt lat="46.54792" lon="5.65485">
        <ele>538.2</ele>
        <time>2022-07-29T08:26:10Z</time>
      </trkpt>
      <trkpt lat="46.54786" lon="5.65485">
        <ele>538.2</ele>
        <time>2022-07-29T08:26:11Z</time>
      </trkpt>
      <trkpt lat="46.54779" lon="5.65486">
        <ele>538.2</ele>
        <time>2022-07-29T08:26:12Z</time>
      </trkpt>
      <trkpt lat="46.54773" lon="5.65487">
        <ele>538.4</ele>
        <time>2022-07-29T08:26:13Z</time>
      </trkpt>
      <trkpt lat="46.54767" lon="5.65489">
        <ele>538.4</ele>
        <time>2022-07-29T08:26:14Z</time>
      </trkpt>
      <trkpt lat="46.54761" lon="5.6549">
        <ele>538.4</ele>
        <time>2022-07-29T08:26:15Z</time>
      </trkpt>
      <trkpt lat="46.54754" lon="5.65492">
        <ele>538.4</ele>
        <time>2022-07-29T08:26:16Z</time>
      </trkpt>
      <trkpt lat="46.54748" lon="5.65494">
        <ele>538.8</ele>
        <time>2022-07-29T08:26:17Z</time>
      </trkpt>
      <trkpt lat="46.54741" lon="5.65496">
        <ele>538.8</ele>
        <time>2022-07-29T08:26:18Z</time>
      </trkpt>
      <trkpt lat="46.54735" lon="5.65497">
        <ele>538.8</ele>
        <time>2022-07-29T08:26:19Z</time>
      </trkpt>
      <trkpt lat="46.54729" lon="5.65499">
        <ele>538.8</ele>
        <time>2022-07-29T08:26:20Z</time>
      </trkpt>
      <trkpt lat="46.54722" lon="5.65501">
        <ele>538.8</ele>
        <time>2022-07-29T08:26:21Z</time>
      </trkpt>
      <trkpt lat="46.54716" lon="5.65503">
        <ele>538.8</ele>
        <time>2022-07-29T08:26:22Z</time>
      </trkpt>
      <trkpt lat="46.54709" lon="5.65505">
        <ele>538.8</ele>
        <time>2022-07-29T08:26:23Z</time>
      </trkpt>
      <trkpt lat="46.54702" lon="5.65507">
        <ele>538.8</ele>
        <time>2022-07-29T08:26:24Z</time>
      </trkpt>
      <trkpt lat="46.54696" lon="5.65509">
        <ele>538.8</ele>
        <time>2022-07-29T08:26:25Z</time>
      </trkpt>
      <trkpt lat="46.54689" lon="5.65511">
        <ele>538.8</ele>
        <time>2022-07-29T08:26:26Z</time>
      </trkpt>
      <trkpt lat="46.54683" lon="5.65513">
        <ele>538.8</ele>
        <time>2022-07-29T08:26:27Z</time>
      </trkpt>
      <trkpt lat="46.54676" lon="5.65515">
        <ele>538.8</ele>
        <time>2022-07-29T08:26:28Z</time>
      </trkpt>
      <trkpt lat="46.54669" lon="5.65517">
        <ele>539</ele>
        <time>2022-07-29T08:26:29Z</time>
      </trkpt>
      <trkpt lat="46.54663" lon="5.65519">
        <ele>539</ele>
        <time>2022-07-29T08:26:30Z</time>
      </trkpt>
      <trkpt lat="46.54656" lon="5.65521">
        <ele>539</ele>
        <time>2022-07-29T08:26:31Z</time>
      </trkpt>
      <trkpt lat="46.5465" lon="5.65522">
        <ele>539</ele>
        <time>2022-07-29T08:26:32Z</time>
      </trkpt>
      <trkpt lat="46.54643" lon="5.65523">
        <ele>539</ele>
        <time>2022-07-29T08:26:33Z</time>
      </trkpt>
      <trkpt lat="46.54637" lon="5.65524">
        <ele>539</ele>
        <time>2022-07-29T08:26:34Z</time>
      </trkpt>
      <trkpt lat="46.5463" lon="5.65525">
        <ele>539</ele>
        <time>2022-07-29T08:26:35Z</time>
      </trkpt>
      <trkpt lat="46.54623" lon="5.65526">
        <ele>539</ele>
        <time>2022-07-29T08:26:36Z</time>
      </trkpt>
      <trkpt lat="46.54616" lon="5.65525">
        <ele>539</ele>
        <time>2022-07-29T08:26:37Z</time>
      </trkpt>
      <trkpt lat="46.54609" lon="5.65525">
        <ele>539</ele>
        <time>2022-07-29T08:26:38Z</time>
      </trkpt>
      <trkpt lat="46.54603" lon="5.65523">
        <ele>539</ele>
        <time>2022-07-29T08:26:39Z</time>
      </trkpt>
      <trkpt lat="46.54596" lon="5.65521">
        <ele>539</ele>
        <time>2022-07-29T08:26:40Z</time>
      </trkpt>
      <trkpt lat="46.54589" lon="5.65518">
        <ele>539</ele>
        <time>2022-07-29T08:26:41Z</time>
      </trkpt>
      <trkpt lat="46.54583" lon="5.65515">
        <ele>539</ele>
        <time>2022-07-29T08:26:42Z</time>
      </trkpt>
      <trkpt lat="46.54576" lon="5.65511">
        <ele>539</ele>
        <time>2022-07-29T08:26:43Z</time>
      </trkpt>
      <trkpt lat="46.5457" lon="5.65507">
        <ele>539.2</ele>
        <time>2022-07-29T08:26:44Z</time>
      </trkpt>
      <trkpt lat="46.54564" lon="5.65502">
        <ele>539.2</ele>
        <time>2022-07-29T08:26:45Z</time>
      </trkpt>
      <trkpt lat="46.54558" lon="5.65498">
        <ele>539.2</ele>
        <time>2022-07-29T08:26:46Z</time>
      </trkpt>
      <trkpt lat="46.54551" lon="5.65493">
        <ele>539</ele>
        <time>2022-07-29T08:26:47Z</time>
      </trkpt>
      <trkpt lat="46.54545" lon="5.65489">
        <ele>539</ele>
        <time>2022-07-29T08:26:48Z</time>
      </trkpt>
      <trkpt lat="46.54539" lon="5.65484">
        <ele>539</ele>
        <time>2022-07-29T08:26:49Z</time>
      </trkpt>
      <trkpt lat="46.54532" lon="5.65479">
        <ele>539</ele>
        <time>2022-07-29T08:26:50Z</time>
      </trkpt>
      <trkpt lat="46.54525" lon="5.65475">
        <ele>539</ele>
        <time>2022-07-29T08:26:51Z</time>
      </trkpt>
      <trkpt lat="46.54519" lon="5.6547">
        <ele>539</ele>
        <time>2022-07-29T08:26:52Z</time>
      </trkpt>
      <trkpt lat="46.54512" lon="5.65465">
        <ele>539</ele>
        <time>2022-07-29T08:26:53Z</time>
      </trkpt>
      <trkpt lat="46.54505" lon="5.6546">
        <ele>539</ele>
        <time>2022-07-29T08:26:54Z</time>
      </trkpt>
      <trkpt lat="46.54498" lon="5.65455">
        <ele>539</ele>
        <time>2022-07-29T08:26:55Z</time>
      </trkpt>
      <trkpt lat="46.54491" lon="5.6545">
        <ele>539</ele>
        <time>2022-07-29T08:26:56Z</time>
      </trkpt>
      <trkpt lat="46.54485" lon="5.65445">
        <ele>539</ele>
        <time>2022-07-29T08:26:57Z</time>
      </trkpt>
      <trkpt lat="46.54478" lon="5.6544">
        <ele>539</ele>
        <time>2022-07-29T08:26:58Z</time>
      </trkpt>
      <trkpt lat="46.54472" lon="5.65435">
        <ele>539</ele>
        <time>2022-07-29T08:26:59Z</time>
      </trkpt>
      <trkpt lat="46.54466" lon="5.6543">
        <ele>539.2</ele>
        <time>2022-07-29T08:27:00Z</time>
      </trkpt>
      <trkpt lat="46.5446" lon="5.65426">
        <ele>539.2</ele>
        <time>2022-07-29T08:27:01Z</time>
      </trkpt>
      <trkpt lat="46.54454" lon="5.65422">
        <ele>539.8</ele>
        <time>2022-07-29T08:27:02Z</time>
      </trkpt>
      <trkpt lat="46.54449" lon="5.65418">
        <ele>539.8</ele>
        <time>2022-07-29T08:27:03Z</time>
      </trkpt>
      <trkpt lat="46.54443" lon="5.65414">
        <ele>540.2</ele>
        <time>2022-07-29T08:27:04Z</time>
      </trkpt>
      <trkpt lat="46.54438" lon="5.6541">
        <ele>540.4</ele>
        <time>2022-07-29T08:27:05Z</time>
      </trkpt>
      <trkpt lat="46.54432" lon="5.65406">
        <ele>540.6</ele>
        <time>2022-07-29T08:27:06Z</time>
      </trkpt>
      <trkpt lat="46.54427" lon="5.65402">
        <ele>540.8</ele>
        <time>2022-07-29T08:27:07Z</time>
      </trkpt>
      <trkpt lat="46.54421" lon="5.65398">
        <ele>541</ele>
        <time>2022-07-29T08:27:08Z</time>
      </trkpt>
      <trkpt lat="46.54416" lon="5.65394">
        <ele>541.4</ele>
        <time>2022-07-29T08:27:09Z</time>
      </trkpt>
      <trkpt lat="46.54411" lon="5.6539">
        <ele>541.6</ele>
        <time>2022-07-29T08:27:10Z</time>
      </trkpt>
      <trkpt lat="46.54406" lon="5.65386">
        <ele>541.8</ele>
        <time>2022-07-29T08:27:11Z</time>
      </trkpt>
      <trkpt lat="46.54401" lon="5.65382">
        <ele>542.2</ele>
        <time>2022-07-29T08:27:12Z</time>
      </trkpt>
      <trkpt lat="46.54396" lon="5.65378">
        <ele>542.4</ele>
        <time>2022-07-29T08:27:13Z</time>
      </trkpt>
      <trkpt lat="46.54391" lon="5.65374">
        <ele>542.8</ele>
        <time>2022-07-29T08:27:14Z</time>
      </trkpt>
      <trkpt lat="46.54386" lon="5.65369">
        <ele>543</ele>
        <time>2022-07-29T08:27:15Z</time>
      </trkpt>
      <trkpt lat="46.54381" lon="5.65364">
        <ele>543.4</ele>
        <time>2022-07-29T08:27:16Z</time>
      </trkpt>
      <trkpt lat="46.54377" lon="5.65359">
        <ele>543.8</ele>
        <time>2022-07-29T08:27:17Z</time>
      </trkpt>
      <trkpt lat="46.54373" lon="5.65354">
        <ele>544.2</ele>
        <time>2022-07-29T08:27:18Z</time>
      </trkpt>
      <trkpt lat="46.54368" lon="5.6535">
        <ele>544.6</ele>
        <time>2022-07-29T08:27:19Z</time>
      </trkpt>
      <trkpt lat="46.54365" lon="5.65345">
        <ele>544.8</ele>
        <time>2022-07-29T08:27:20Z</time>
      </trkpt>
      <trkpt lat="46.54361" lon="5.65341">
        <ele>545</ele>
        <time>2022-07-29T08:27:21Z</time>
      </trkpt>
      <trkpt lat="46.54357" lon="5.65336">
        <ele>545.2</ele>
        <time>2022-07-29T08:27:22Z</time>
      </trkpt>
      <trkpt lat="46.54353" lon="5.65332">
        <ele>545.2</ele>
        <time>2022-07-29T08:27:23Z</time>
      </trkpt>
      <trkpt lat="46.5435" lon="5.65327">
        <ele>545.8</ele>
        <time>2022-07-29T08:27:24Z</time>
      </trkpt>
      <trkpt lat="46.54346" lon="5.65323">
        <ele>546</ele>
        <time>2022-07-29T08:27:25Z</time>
      </trkpt>
      <trkpt lat="46.54342" lon="5.65319">
        <ele>546</ele>
        <time>2022-07-29T08:27:26Z</time>
      </trkpt>
      <trkpt lat="46.54338" lon="5.65314">
        <ele>546.2</ele>
        <time>2022-07-29T08:27:27Z</time>
      </trkpt>
      <trkpt lat="46.54335" lon="5.65309">
        <ele>546.4</ele>
        <time>2022-07-29T08:27:28Z</time>
      </trkpt>
      <trkpt lat="46.54331" lon="5.65305">
        <ele>546.8</ele>
        <time>2022-07-29T08:27:29Z</time>
      </trkpt>
      <trkpt lat="46.54327" lon="5.65301">
        <ele>547</ele>
        <time>2022-07-29T08:27:30Z</time>
      </trkpt>
      <trkpt lat="46.54323" lon="5.65297">
        <ele>547</ele>
        <time>2022-07-29T08:27:31Z</time>
      </trkpt>
      <trkpt lat="46.54319" lon="5.65292">
        <ele>547.2</ele>
        <time>2022-07-29T08:27:32Z</time>
      </trkpt>
      <trkpt lat="46.54316" lon="5.65287">
        <ele>547.2</ele>
        <time>2022-07-29T08:27:33Z</time>
      </trkpt>
      <trkpt lat="46.54312" lon="5.65283">
        <ele>547.2</ele>
        <time>2022-07-29T08:27:34Z</time>
      </trkpt>
      <trkpt lat="46.54308" lon="5.65278">
        <ele>547.6</ele>
        <time>2022-07-29T08:27:35Z</time>
      </trkpt>
      <trkpt lat="46.54303" lon="5.65273">
        <ele>547.6</ele>
        <time>2022-07-29T08:27:36Z</time>
      </trkpt>
      <trkpt lat="46.54299" lon="5.65269">
        <ele>547.8</ele>
        <time>2022-07-29T08:27:37Z</time>
      </trkpt>
      <trkpt lat="46.54295" lon="5.65264">
        <ele>548.4</ele>
        <time>2022-07-29T08:27:38Z</time>
      </trkpt>
      <trkpt lat="46.54291" lon="5.6526">
        <ele>548.6</ele>
        <time>2022-07-29T08:27:39Z</time>
      </trkpt>
      <trkpt lat="46.54287" lon="5.65255">
        <ele>548.6</ele>
        <time>2022-07-29T08:27:40Z</time>
      </trkpt>
      <trkpt lat="46.54283" lon="5.6525">
        <ele>548.6</ele>
        <time>2022-07-29T08:27:41Z</time>
      </trkpt>
      <trkpt lat="46.54279" lon="5.65246">
        <ele>549</ele>
        <time>2022-07-29T08:27:42Z</time>
      </trkpt>
      <trkpt lat="46.54275" lon="5.65241">
        <ele>549</ele>
        <time>2022-07-29T08:27:43Z</time>
      </trkpt>
      <trkpt lat="46.54271" lon="5.65236">
        <ele>549.2</ele>
        <time>2022-07-29T08:27:44Z</time>
      </trkpt>
      <trkpt lat="46.54267" lon="5.65231">
        <ele>549.2</ele>
        <time>2022-07-29T08:27:45Z</time>
      </trkpt>
      <trkpt lat="46.54263" lon="5.65225">
        <ele>549.6</ele>
        <time>2022-07-29T08:27:46Z</time>
      </trkpt>
      <trkpt lat="46.54259" lon="5.6522">
        <ele>549.8</ele>
        <time>2022-07-29T08:27:47Z</time>
      </trkpt>
      <trkpt lat="46.54255" lon="5.65215">
        <ele>550</ele>
        <time>2022-07-29T08:27:48Z</time>
      </trkpt>
      <trkpt lat="46.54251" lon="5.6521">
        <ele>550</ele>
        <time>2022-07-29T08:27:49Z</time>
      </trkpt>
      <trkpt lat="46.54247" lon="5.65205">
        <ele>550.4</ele>
        <time>2022-07-29T08:27:50Z</time>
      </trkpt>
      <trkpt lat="46.54243" lon="5.65199">
        <ele>550.6</ele>
        <time>2022-07-29T08:27:51Z</time>
      </trkpt>
      <trkpt lat="46.54239" lon="5.65194">
        <ele>550.6</ele>
        <time>2022-07-29T08:27:52Z</time>
      </trkpt>
      <trkpt lat="46.54235" lon="5.65189">
        <ele>550.8</ele>
        <time>2022-07-29T08:27:53Z</time>
      </trkpt>
      <trkpt lat="46.54231" lon="5.65184">
        <ele>550.8</ele>
        <time>2022-07-29T08:27:54Z</time>
      </trkpt>
      <trkpt lat="46.54227" lon="5.65178">
        <ele>550.8</ele>
        <time>2022-07-29T08:27:55Z</time>
      </trkpt>
      <trkpt lat="46.54223" lon="5.65172">
        <ele>550.8</ele>
        <time>2022-07-29T08:27:56Z</time>
      </trkpt>
      <trkpt lat="46.54218" lon="5.65166">
        <ele>550.8</ele>
        <time>2022-07-29T08:27:57Z</time>
      </trkpt>
      <trkpt lat="46.54214" lon="5.6516">
        <ele>550.8</ele>
        <time>2022-07-29T08:27:58Z</time>
      </trkpt>
      <trkpt lat="46.54209" lon="5.65154">
        <ele>550.8</ele>
        <time>2022-07-29T08:27:59Z</time>
      </trkpt>
      <trkpt lat="46.54205" lon="5.65148">
        <ele>550.8</ele>
        <time>2022-07-29T08:28:00Z</time>
      </trkpt>
      <trkpt lat="46.542" lon="5.65142">
        <ele>550.8</ele>
        <time>2022-07-29T08:28:01Z</time>
      </trkpt>
      <trkpt lat="46.54196" lon="5.65136">
        <ele>551</ele>
        <time>2022-07-29T08:28:02Z</time>
      </trkpt>
      <trkpt lat="46.54191" lon="5.6513">
        <ele>551</ele>
        <time>2022-07-29T08:28:03Z</time>
      </trkpt>
      <trkpt lat="46.54187" lon="5.65124">
        <ele>551</ele>
        <time>2022-07-29T08:28:04Z</time>
      </trkpt>
      <trkpt lat="46.54183" lon="5.65118">
        <ele>551</ele>
        <time>2022-07-29T08:28:05Z</time>
      </trkpt>
      <trkpt lat="46.54178" lon="5.65111">
        <ele>550.8</ele>
        <time>2022-07-29T08:28:06Z</time>
      </trkpt>
      <trkpt lat="46.54173" lon="5.65105">
        <ele>550.6</ele>
        <time>2022-07-29T08:28:07Z</time>
      </trkpt>
      <trkpt lat="46.54167" lon="5.65098">
        <ele>550.2</ele>
        <time>2022-07-29T08:28:08Z</time>
      </trkpt>
      <trkpt lat="46.54162" lon="5.65091">
        <ele>550</ele>
        <time>2022-07-29T08:28:09Z</time>
      </trkpt>
      <trkpt lat="46.54155" lon="5.65085">
        <ele>549.6</ele>
        <time>2022-07-29T08:28:10Z</time>
      </trkpt>
      <trkpt lat="46.54149" lon="5.65078">
        <ele>549.4</ele>
        <time>2022-07-29T08:28:11Z</time>
      </trkpt>
      <trkpt lat="46.54143" lon="5.65071">
        <ele>549</ele>
        <time>2022-07-29T08:28:12Z</time>
      </trkpt>
      <trkpt lat="46.54136" lon="5.65065">
        <ele>548.8</ele>
        <time>2022-07-29T08:28:13Z</time>
      </trkpt>
      <trkpt lat="46.54129" lon="5.65059">
        <ele>548.4</ele>
        <time>2022-07-29T08:28:14Z</time>
      </trkpt>
      <trkpt lat="46.54122" lon="5.65053">
        <ele>548.2</ele>
        <time>2022-07-29T08:28:15Z</time>
      </trkpt>
      <trkpt lat="46.54115" lon="5.65047">
        <ele>548.2</ele>
        <time>2022-07-29T08:28:16Z</time>
      </trkpt>
      <trkpt lat="46.54108" lon="5.65041">
        <ele>548.2</ele>
        <time>2022-07-29T08:28:17Z</time>
      </trkpt>
      <trkpt lat="46.54101" lon="5.65035">
        <ele>548</ele>
        <time>2022-07-29T08:28:18Z</time>
      </trkpt>
      <trkpt lat="46.54094" lon="5.6503">
        <ele>548</ele>
        <time>2022-07-29T08:28:19Z</time>
      </trkpt>
      <trkpt lat="46.54081" lon="5.65019">
        <ele>548</ele>
        <time>2022-07-29T08:28:20Z</time>
      </trkpt>
      <trkpt lat="46.54074" lon="5.65014">
        <ele>548</ele>
        <time>2022-07-29T08:28:21Z</time>
      </trkpt>
      <trkpt lat="46.54068" lon="5.65009">
        <ele>548</ele>
        <time>2022-07-29T08:28:22Z</time>
      </trkpt>
      <trkpt lat="46.54062" lon="5.65005">
        <ele>548.4</ele>
        <time>2022-07-29T08:28:23Z</time>
      </trkpt>
      <trkpt lat="46.54055" lon="5.65">
        <ele>548.6</ele>
        <time>2022-07-29T08:28:24Z</time>
      </trkpt>
      <trkpt lat="46.54049" lon="5.64995">
        <ele>548.6</ele>
        <time>2022-07-29T08:28:25Z</time>
      </trkpt>
      <trkpt lat="46.54043" lon="5.6499">
        <ele>548.6</ele>
        <time>2022-07-29T08:28:26Z</time>
      </trkpt>
      <trkpt lat="46.54036" lon="5.64984">
        <ele>548.6</ele>
        <time>2022-07-29T08:28:27Z</time>
      </trkpt>
      <trkpt lat="46.5403" lon="5.64979">
        <ele>548.6</ele>
        <time>2022-07-29T08:28:28Z</time>
      </trkpt>
      <trkpt lat="46.54023" lon="5.64973">
        <ele>548.6</ele>
        <time>2022-07-29T08:28:29Z</time>
      </trkpt>
      <trkpt lat="46.54016" lon="5.64967">
        <ele>548.4</ele>
        <time>2022-07-29T08:28:30Z</time>
      </trkpt>
      <trkpt lat="46.54009" lon="5.64961">
        <ele>548</ele>
        <time>2022-07-29T08:28:31Z</time>
      </trkpt>
      <trkpt lat="46.54002" lon="5.64954">
        <ele>547.8</ele>
        <time>2022-07-29T08:28:32Z</time>
      </trkpt>
      <trkpt lat="46.53994" lon="5.64947">
        <ele>547.4</ele>
        <time>2022-07-29T08:28:33Z</time>
      </trkpt>
      <trkpt lat="46.53986" lon="5.64941">
        <ele>547</ele>
        <time>2022-07-29T08:28:34Z</time>
      </trkpt>
      <trkpt lat="46.53986" lon="5.64941">
        <ele>546.6</ele>
        <time>2022-07-29T08:28:35Z</time>
      </trkpt>
      <trkpt lat="46.53977" lon="5.64933">
        <ele>546.2</ele>
        <time>2022-07-29T08:28:36Z</time>
      </trkpt>
      <trkpt lat="46.53968" lon="5.64926">
        <ele>545.8</ele>
        <time>2022-07-29T08:28:37Z</time>
      </trkpt>
      <trkpt lat="46.53959" lon="5.64919">
        <ele>545.4</ele>
        <time>2022-07-29T08:28:38Z</time>
      </trkpt>
      <trkpt lat="46.5395" lon="5.64911">
        <ele>544.8</ele>
        <time>2022-07-29T08:28:39Z</time>
      </trkpt>
      <trkpt lat="46.5394" lon="5.64903">
        <ele>544.2</ele>
        <time>2022-07-29T08:28:40Z</time>
      </trkpt>
      <trkpt lat="46.53931" lon="5.64895">
        <ele>544</ele>
        <time>2022-07-29T08:28:41Z</time>
      </trkpt>
      <trkpt lat="46.53922" lon="5.64886">
        <ele>543.4</ele>
        <time>2022-07-29T08:28:42Z</time>
      </trkpt>
      <trkpt lat="46.53912" lon="5.64878">
        <ele>543.2</ele>
        <time>2022-07-29T08:28:43Z</time>
      </trkpt>
      <trkpt lat="46.53903" lon="5.6487">
        <ele>543.2</ele>
        <time>2022-07-29T08:28:44Z</time>
      </trkpt>
      <trkpt lat="46.53894" lon="5.64863">
        <ele>542.6</ele>
        <time>2022-07-29T08:28:45Z</time>
      </trkpt>
      <trkpt lat="46.53886" lon="5.64855">
        <ele>542.6</ele>
        <time>2022-07-29T08:28:46Z</time>
      </trkpt>
      <trkpt lat="46.53877" lon="5.64848">
        <ele>542.6</ele>
        <time>2022-07-29T08:28:47Z</time>
      </trkpt>
      <trkpt lat="46.53871" lon="5.64841">
        <ele>542.4</ele>
        <time>2022-07-29T08:28:48Z</time>
      </trkpt>
      <trkpt lat="46.53864" lon="5.64835">
        <ele>542.4</ele>
        <time>2022-07-29T08:28:49Z</time>
      </trkpt>
      <trkpt lat="46.53856" lon="5.64827">
        <ele>542.4</ele>
        <time>2022-07-29T08:28:50Z</time>
      </trkpt>
      <trkpt lat="46.53849" lon="5.64821">
        <ele>542.8</ele>
        <time>2022-07-29T08:28:51Z</time>
      </trkpt>
      <trkpt lat="46.53842" lon="5.64815">
        <ele>543</ele>
        <time>2022-07-29T08:28:52Z</time>
      </trkpt>
      <trkpt lat="46.53835" lon="5.64809">
        <ele>543.2</ele>
        <time>2022-07-29T08:28:53Z</time>
      </trkpt>
      <trkpt lat="46.53828" lon="5.64803">
        <ele>543.6</ele>
        <time>2022-07-29T08:28:54Z</time>
      </trkpt>
      <trkpt lat="46.53822" lon="5.64797">
        <ele>544</ele>
        <time>2022-07-29T08:28:55Z</time>
      </trkpt>
      <trkpt lat="46.53815" lon="5.64791">
        <ele>544.2</ele>
        <time>2022-07-29T08:28:56Z</time>
      </trkpt>
      <trkpt lat="46.53809" lon="5.64786">
        <ele>544.2</ele>
        <time>2022-07-29T08:28:57Z</time>
      </trkpt>
      <trkpt lat="46.53803" lon="5.64781">
        <ele>544.6</ele>
        <time>2022-07-29T08:28:58Z</time>
      </trkpt>
      <trkpt lat="46.53797" lon="5.64776">
        <ele>544.8</ele>
        <time>2022-07-29T08:28:59Z</time>
      </trkpt>
      <trkpt lat="46.53791" lon="5.6477">
        <ele>545.2</ele>
        <time>2022-07-29T08:29:00Z</time>
      </trkpt>
      <trkpt lat="46.53785" lon="5.64765">
        <ele>545.4</ele>
        <time>2022-07-29T08:29:01Z</time>
      </trkpt>
      <trkpt lat="46.5378" lon="5.6476">
        <ele>545.6</ele>
        <time>2022-07-29T08:29:02Z</time>
      </trkpt>
      <trkpt lat="46.53774" lon="5.64756">
        <ele>545.6</ele>
        <time>2022-07-29T08:29:03Z</time>
      </trkpt>
      <trkpt lat="46.53769" lon="5.64751">
        <ele>545.8</ele>
        <time>2022-07-29T08:29:04Z</time>
      </trkpt>
      <trkpt lat="46.53763" lon="5.64746">
        <ele>545.8</ele>
        <time>2022-07-29T08:29:05Z</time>
      </trkpt>
      <trkpt lat="46.53757" lon="5.64741">
        <ele>545.8</ele>
        <time>2022-07-29T08:29:06Z</time>
      </trkpt>
      <trkpt lat="46.53751" lon="5.64736">
        <ele>545.8</ele>
        <time>2022-07-29T08:29:07Z</time>
      </trkpt>
      <trkpt lat="46.53745" lon="5.6473">
        <ele>545.8</ele>
        <time>2022-07-29T08:29:08Z</time>
      </trkpt>
      <trkpt lat="46.53739" lon="5.64725">
        <ele>545.8</ele>
        <time>2022-07-29T08:29:09Z</time>
      </trkpt>
      <trkpt lat="46.53732" lon="5.64719">
        <ele>545.8</ele>
        <time>2022-07-29T08:29:10Z</time>
      </trkpt>
      <trkpt lat="46.53726" lon="5.64714">
        <ele>545.8</ele>
        <time>2022-07-29T08:29:11Z</time>
      </trkpt>
      <trkpt lat="46.5372" lon="5.64708">
        <ele>545.8</ele>
        <time>2022-07-29T08:29:12Z</time>
      </trkpt>
      <trkpt lat="46.53713" lon="5.64703">
        <ele>545.8</ele>
        <time>2022-07-29T08:29:13Z</time>
      </trkpt>
      <trkpt lat="46.53707" lon="5.64697">
        <ele>545.8</ele>
        <time>2022-07-29T08:29:14Z</time>
      </trkpt>
      <trkpt lat="46.537" lon="5.64691">
        <ele>545.6</ele>
        <time>2022-07-29T08:29:15Z</time>
      </trkpt>
      <trkpt lat="46.53693" lon="5.64685">
        <ele>545.6</ele>
        <time>2022-07-29T08:29:16Z</time>
      </trkpt>
      <trkpt lat="46.53687" lon="5.64679">
        <ele>545.4</ele>
        <time>2022-07-29T08:29:17Z</time>
      </trkpt>
      <trkpt lat="46.5368" lon="5.64673">
        <ele>545.4</ele>
        <time>2022-07-29T08:29:18Z</time>
      </trkpt>
      <trkpt lat="46.53673" lon="5.64667">
        <ele>545.4</ele>
        <time>2022-07-29T08:29:19Z</time>
      </trkpt>
      <trkpt lat="46.53666" lon="5.64662">
        <ele>545.4</ele>
        <time>2022-07-29T08:29:20Z</time>
      </trkpt>
      <trkpt lat="46.53659" lon="5.64656">
        <ele>545.4</ele>
        <time>2022-07-29T08:29:21Z</time>
      </trkpt>
      <trkpt lat="46.53652" lon="5.6465">
        <ele>545.4</ele>
        <time>2022-07-29T08:29:22Z</time>
      </trkpt>
      <trkpt lat="46.53645" lon="5.64644">
        <ele>545.2</ele>
        <time>2022-07-29T08:29:23Z</time>
      </trkpt>
      <trkpt lat="46.53639" lon="5.64638">
        <ele>545.2</ele>
        <time>2022-07-29T08:29:24Z</time>
      </trkpt>
      <trkpt lat="46.53632" lon="5.64632">
        <ele>545.2</ele>
        <time>2022-07-29T08:29:25Z</time>
      </trkpt>
      <trkpt lat="46.53625" lon="5.64626">
        <ele>545.2</ele>
        <time>2022-07-29T08:29:26Z</time>
      </trkpt>
      <trkpt lat="46.53619" lon="5.6462">
        <ele>545.2</ele>
        <time>2022-07-29T08:29:27Z</time>
      </trkpt>
      <trkpt lat="46.53612" lon="5.64615">
        <ele>545.2</ele>
        <time>2022-07-29T08:29:28Z</time>
      </trkpt>
      <trkpt lat="46.53606" lon="5.64609">
        <ele>545.2</ele>
        <time>2022-07-29T08:29:29Z</time>
      </trkpt>
      <trkpt lat="46.53599" lon="5.64603">
        <ele>545.2</ele>
        <time>2022-07-29T08:29:30Z</time>
      </trkpt>
      <trkpt lat="46.53592" lon="5.64597">
        <ele>545.2</ele>
        <time>2022-07-29T08:29:31Z</time>
      </trkpt>
      <trkpt lat="46.53586" lon="5.64592">
        <ele>545.2</ele>
        <time>2022-07-29T08:29:32Z</time>
      </trkpt>
      <trkpt lat="46.53579" lon="5.64586">
        <ele>545.2</ele>
        <time>2022-07-29T08:29:33Z</time>
      </trkpt>
      <trkpt lat="46.53572" lon="5.6458">
        <ele>545.2</ele>
        <time>2022-07-29T08:29:34Z</time>
      </trkpt>
      <trkpt lat="46.53566" lon="5.64574">
        <ele>545.2</ele>
        <time>2022-07-29T08:29:35Z</time>
      </trkpt>
      <trkpt lat="46.53559" lon="5.64569">
        <ele>545.2</ele>
        <time>2022-07-29T08:29:36Z</time>
      </trkpt>
      <trkpt lat="46.53552" lon="5.64563">
        <ele>545.4</ele>
        <time>2022-07-29T08:29:37Z</time>
      </trkpt>
      <trkpt lat="46.53546" lon="5.64557">
        <ele>545.4</ele>
        <time>2022-07-29T08:29:38Z</time>
      </trkpt>
      <trkpt lat="46.53539" lon="5.64552">
        <ele>545.4</ele>
        <time>2022-07-29T08:29:39Z</time>
      </trkpt>
      <trkpt lat="46.53533" lon="5.64546">
        <ele>545.4</ele>
        <time>2022-07-29T08:29:40Z</time>
      </trkpt>
      <trkpt lat="46.53527" lon="5.64541">
        <ele>545.4</ele>
        <time>2022-07-29T08:29:41Z</time>
      </trkpt>
      <trkpt lat="46.5352" lon="5.64536">
        <ele>545.8</ele>
        <time>2022-07-29T08:29:42Z</time>
      </trkpt>
      <trkpt lat="46.53514" lon="5.6453">
        <ele>545.8</ele>
        <time>2022-07-29T08:29:43Z</time>
      </trkpt>
      <trkpt lat="46.53508" lon="5.64525">
        <ele>545.8</ele>
        <time>2022-07-29T08:29:44Z</time>
      </trkpt>
      <trkpt lat="46.53502" lon="5.6452">
        <ele>546.2</ele>
        <time>2022-07-29T08:29:45Z</time>
      </trkpt>
      <trkpt lat="46.53496" lon="5.64515">
        <ele>546.2</ele>
        <time>2022-07-29T08:29:46Z</time>
      </trkpt>
      <trkpt lat="46.5349" lon="5.6451">
        <ele>546.2</ele>
        <time>2022-07-29T08:29:47Z</time>
      </trkpt>
      <trkpt lat="46.53485" lon="5.64505">
        <ele>546.4</ele>
        <time>2022-07-29T08:29:48Z</time>
      </trkpt>
      <trkpt lat="46.53479" lon="5.64501">
        <ele>546.4</ele>
        <time>2022-07-29T08:29:49Z</time>
      </trkpt>
      <trkpt lat="46.53473" lon="5.64496">
        <ele>546.4</ele>
        <time>2022-07-29T08:29:50Z</time>
      </trkpt>
      <trkpt lat="46.53467" lon="5.64491">
        <ele>546.6</ele>
        <time>2022-07-29T08:29:51Z</time>
      </trkpt>
      <trkpt lat="46.53461" lon="5.64486">
        <ele>546.6</ele>
        <time>2022-07-29T08:29:52Z</time>
      </trkpt>
      <trkpt lat="46.53456" lon="5.64481">
        <ele>546.6</ele>
        <time>2022-07-29T08:29:53Z</time>
      </trkpt>
      <trkpt lat="46.5345" lon="5.64476">
        <ele>546.6</ele>
        <time>2022-07-29T08:29:54Z</time>
      </trkpt>
      <trkpt lat="46.53444" lon="5.64471">
        <ele>546.6</ele>
        <time>2022-07-29T08:29:55Z</time>
      </trkpt>
      <trkpt lat="46.53437" lon="5.64465">
        <ele>546.6</ele>
        <time>2022-07-29T08:29:56Z</time>
      </trkpt>
      <trkpt lat="46.53431" lon="5.6446">
        <ele>546.4</ele>
        <time>2022-07-29T08:29:57Z</time>
      </trkpt>
      <trkpt lat="46.53425" lon="5.64455">
        <ele>546.4</ele>
        <time>2022-07-29T08:29:58Z</time>
      </trkpt>
      <trkpt lat="46.53418" lon="5.6445">
        <ele>546.4</ele>
        <time>2022-07-29T08:29:59Z</time>
      </trkpt>
      <trkpt lat="46.53411" lon="5.64444">
        <ele>546.2</ele>
        <time>2022-07-29T08:30:00Z</time>
      </trkpt>
      <trkpt lat="46.53405" lon="5.64439">
        <ele>546.2</ele>
        <time>2022-07-29T08:30:01Z</time>
      </trkpt>
      <trkpt lat="46.53398" lon="5.64433">
        <ele>545.8</ele>
        <time>2022-07-29T08:30:02Z</time>
      </trkpt>
      <trkpt lat="46.53391" lon="5.64427">
        <ele>545.8</ele>
        <time>2022-07-29T08:30:03Z</time>
      </trkpt>
      <trkpt lat="46.53384" lon="5.64422">
        <ele>545.8</ele>
        <time>2022-07-29T08:30:04Z</time>
      </trkpt>
      <trkpt lat="46.53378" lon="5.64416">
        <ele>545.8</ele>
        <time>2022-07-29T08:30:05Z</time>
      </trkpt>
      <trkpt lat="46.53371" lon="5.6441">
        <ele>545.6</ele>
        <time>2022-07-29T08:30:06Z</time>
      </trkpt>
      <trkpt lat="46.53364" lon="5.64405">
        <ele>545.6</ele>
        <time>2022-07-29T08:30:07Z</time>
      </trkpt>
      <trkpt lat="46.53357" lon="5.64399">
        <ele>545.6</ele>
        <time>2022-07-29T08:30:08Z</time>
      </trkpt>
      <trkpt lat="46.5335" lon="5.64393">
        <ele>545.6</ele>
        <time>2022-07-29T08:30:09Z</time>
      </trkpt>
      <trkpt lat="46.53344" lon="5.64388">
        <ele>545.6</ele>
        <time>2022-07-29T08:30:10Z</time>
      </trkpt>
      <trkpt lat="46.53337" lon="5.64382">
        <ele>545.6</ele>
        <time>2022-07-29T08:30:11Z</time>
      </trkpt>
      <trkpt lat="46.5333" lon="5.64377">
        <ele>545.6</ele>
        <time>2022-07-29T08:30:12Z</time>
      </trkpt>
      <trkpt lat="46.53323" lon="5.64371">
        <ele>545.6</ele>
        <time>2022-07-29T08:30:13Z</time>
      </trkpt>
      <trkpt lat="46.53317" lon="5.64366">
        <ele>545.6</ele>
        <time>2022-07-29T08:30:14Z</time>
      </trkpt>
      <trkpt lat="46.5331" lon="5.6436">
        <ele>545.4</ele>
        <time>2022-07-29T08:30:15Z</time>
      </trkpt>
      <trkpt lat="46.53303" lon="5.64355">
        <ele>545.4</ele>
        <time>2022-07-29T08:30:16Z</time>
      </trkpt>
      <trkpt lat="46.53296" lon="5.6435">
        <ele>545.4</ele>
        <time>2022-07-29T08:30:17Z</time>
      </trkpt>
      <trkpt lat="46.53289" lon="5.64344">
        <ele>545.4</ele>
        <time>2022-07-29T08:30:18Z</time>
      </trkpt>
      <trkpt lat="46.53283" lon="5.64339">
        <ele>545.4</ele>
        <time>2022-07-29T08:30:19Z</time>
      </trkpt>
      <trkpt lat="46.53276" lon="5.64334">
        <ele>545.4</ele>
        <time>2022-07-29T08:30:20Z</time>
      </trkpt>
      <trkpt lat="46.53269" lon="5.64328">
        <ele>545.4</ele>
        <time>2022-07-29T08:30:21Z</time>
      </trkpt>
      <trkpt lat="46.53263" lon="5.64323">
        <ele>545.4</ele>
        <time>2022-07-29T08:30:22Z</time>
      </trkpt>
      <trkpt lat="46.53256" lon="5.64317">
        <ele>545.4</ele>
        <time>2022-07-29T08:30:23Z</time>
      </trkpt>
      <trkpt lat="46.53249" lon="5.64312">
        <ele>545.4</ele>
        <time>2022-07-29T08:30:24Z</time>
      </trkpt>
      <trkpt lat="46.53243" lon="5.64307">
        <ele>545.8</ele>
        <time>2022-07-29T08:30:25Z</time>
      </trkpt>
      <trkpt lat="46.53237" lon="5.64302">
        <ele>545.8</ele>
        <time>2022-07-29T08:30:26Z</time>
      </trkpt>
      <trkpt lat="46.5323" lon="5.64297">
        <ele>546</ele>
        <time>2022-07-29T08:30:27Z</time>
      </trkpt>
      <trkpt lat="46.53224" lon="5.64292">
        <ele>546</ele>
        <time>2022-07-29T08:30:28Z</time>
      </trkpt>
      <trkpt lat="46.53217" lon="5.64287">
        <ele>546.2</ele>
        <time>2022-07-29T08:30:29Z</time>
      </trkpt>
      <trkpt lat="46.53211" lon="5.64282">
        <ele>546.2</ele>
        <time>2022-07-29T08:30:30Z</time>
      </trkpt>
      <trkpt lat="46.53204" lon="5.64277">
        <ele>546.2</ele>
        <time>2022-07-29T08:30:31Z</time>
      </trkpt>
      <trkpt lat="46.53198" lon="5.64272">
        <ele>546.4</ele>
        <time>2022-07-29T08:30:32Z</time>
      </trkpt>
      <trkpt lat="46.53191" lon="5.64266">
        <ele>546.4</ele>
        <time>2022-07-29T08:30:33Z</time>
      </trkpt>
      <trkpt lat="46.53185" lon="5.64261">
        <ele>546.4</ele>
        <time>2022-07-29T08:30:34Z</time>
      </trkpt>
      <trkpt lat="46.53178" lon="5.64255">
        <ele>546.4</ele>
        <time>2022-07-29T08:30:35Z</time>
      </trkpt>
      <trkpt lat="46.53171" lon="5.64249">
        <ele>546.2</ele>
        <time>2022-07-29T08:30:36Z</time>
      </trkpt>
      <trkpt lat="46.53164" lon="5.64243">
        <ele>546.2</ele>
        <time>2022-07-29T08:30:37Z</time>
      </trkpt>
      <trkpt lat="46.53157" lon="5.64238">
        <ele>546</ele>
        <time>2022-07-29T08:30:38Z</time>
      </trkpt>
      <trkpt lat="46.5315" lon="5.64232">
        <ele>546</ele>
        <time>2022-07-29T08:30:39Z</time>
      </trkpt>
      <trkpt lat="46.53142" lon="5.64226">
        <ele>545.6</ele>
        <time>2022-07-29T08:30:40Z</time>
      </trkpt>
      <trkpt lat="46.53135" lon="5.6422">
        <ele>545.4</ele>
        <time>2022-07-29T08:30:41Z</time>
      </trkpt>
      <trkpt lat="46.53128" lon="5.64214">
        <ele>545.4</ele>
        <time>2022-07-29T08:30:42Z</time>
      </trkpt>
      <trkpt lat="46.5312" lon="5.64208">
        <ele>545.4</ele>
        <time>2022-07-29T08:30:43Z</time>
      </trkpt>
      <trkpt lat="46.53113" lon="5.64203">
        <ele>545.2</ele>
        <time>2022-07-29T08:30:44Z</time>
      </trkpt>
      <trkpt lat="46.53105" lon="5.64197">
        <ele>545.2</ele>
        <time>2022-07-29T08:30:45Z</time>
      </trkpt>
      <trkpt lat="46.53097" lon="5.64192">
        <ele>544.8</ele>
        <time>2022-07-29T08:30:46Z</time>
      </trkpt>
      <trkpt lat="46.53089" lon="5.64187">
        <ele>544.6</ele>
        <time>2022-07-29T08:30:47Z</time>
      </trkpt>
      <trkpt lat="46.53081" lon="5.64182">
        <ele>544.2</ele>
        <time>2022-07-29T08:30:48Z</time>
      </trkpt>
      <trkpt lat="46.53072" lon="5.64177">
        <ele>544</ele>
        <time>2022-07-29T08:30:49Z</time>
      </trkpt>
      <trkpt lat="46.53064" lon="5.64172">
        <ele>543.6</ele>
        <time>2022-07-29T08:30:50Z</time>
      </trkpt>
      <trkpt lat="46.53055" lon="5.64167">
        <ele>543.4</ele>
        <time>2022-07-29T08:30:51Z</time>
      </trkpt>
      <trkpt lat="46.53046" lon="5.64162">
        <ele>543.2</ele>
        <time>2022-07-29T08:30:52Z</time>
      </trkpt>
      <trkpt lat="46.53037" lon="5.64157">
        <ele>542.8</ele>
        <time>2022-07-29T08:30:53Z</time>
      </trkpt>
      <trkpt lat="46.53028" lon="5.64153">
        <ele>542.6</ele>
        <time>2022-07-29T08:30:54Z</time>
      </trkpt>
      <trkpt lat="46.5302" lon="5.64149">
        <ele>542.2</ele>
        <time>2022-07-29T08:30:55Z</time>
      </trkpt>
      <trkpt lat="46.53011" lon="5.64145">
        <ele>542.2</ele>
        <time>2022-07-29T08:30:56Z</time>
      </trkpt>
      <trkpt lat="46.53003" lon="5.64141">
        <ele>542</ele>
        <time>2022-07-29T08:30:57Z</time>
      </trkpt>
      <trkpt lat="46.52995" lon="5.64136">
        <ele>541.8</ele>
        <time>2022-07-29T08:30:58Z</time>
      </trkpt>
      <trkpt lat="46.52986" lon="5.64132">
        <ele>541.8</ele>
        <time>2022-07-29T08:30:59Z</time>
      </trkpt>
      <trkpt lat="46.52978" lon="5.64127">
        <ele>541.4</ele>
        <time>2022-07-29T08:31:00Z</time>
      </trkpt>
      <trkpt lat="46.5297" lon="5.64123">
        <ele>541.4</ele>
        <time>2022-07-29T08:31:01Z</time>
      </trkpt>
      <trkpt lat="46.52961" lon="5.64118">
        <ele>541.2</ele>
        <time>2022-07-29T08:31:02Z</time>
      </trkpt>
      <trkpt lat="46.52953" lon="5.64114">
        <ele>541.2</ele>
        <time>2022-07-29T08:31:03Z</time>
      </trkpt>
      <trkpt lat="46.52945" lon="5.64109">
        <ele>540.8</ele>
        <time>2022-07-29T08:31:04Z</time>
      </trkpt>
      <trkpt lat="46.52937" lon="5.64105">
        <ele>540.6</ele>
        <time>2022-07-29T08:31:05Z</time>
      </trkpt>
      <trkpt lat="46.52928" lon="5.641">
        <ele>540.4</ele>
        <time>2022-07-29T08:31:06Z</time>
      </trkpt>
      <trkpt lat="46.52919" lon="5.64095">
        <ele>540</ele>
        <time>2022-07-29T08:31:07Z</time>
      </trkpt>
      <trkpt lat="46.5291" lon="5.6409">
        <ele>539.6</ele>
        <time>2022-07-29T08:31:08Z</time>
      </trkpt>
      <trkpt lat="46.52901" lon="5.64084">
        <ele>539.6</ele>
        <time>2022-07-29T08:31:09Z</time>
      </trkpt>
      <trkpt lat="46.52891" lon="5.64078">
        <ele>539</ele>
        <time>2022-07-29T08:31:10Z</time>
      </trkpt>
      <trkpt lat="46.52882" lon="5.64073">
        <ele>538.2</ele>
        <time>2022-07-29T08:31:11Z</time>
      </trkpt>
      <trkpt lat="46.52872" lon="5.64067">
        <ele>537.4</ele>
        <time>2022-07-29T08:31:12Z</time>
      </trkpt>
      <trkpt lat="46.52862" lon="5.6406">
        <ele>536.8</ele>
        <time>2022-07-29T08:31:13Z</time>
      </trkpt>
      <trkpt lat="46.52851" lon="5.64053">
        <ele>535.8</ele>
        <time>2022-07-29T08:31:14Z</time>
      </trkpt>
      <trkpt lat="46.5284" lon="5.64045">
        <ele>535</ele>
        <time>2022-07-29T08:31:15Z</time>
      </trkpt>
      <trkpt lat="46.52829" lon="5.64038">
        <ele>534.2</ele>
        <time>2022-07-29T08:31:16Z</time>
      </trkpt>
      <trkpt lat="46.52818" lon="5.6403">
        <ele>533.2</ele>
        <time>2022-07-29T08:31:17Z</time>
      </trkpt>
      <trkpt lat="46.52808" lon="5.64024">
        <ele>532.4</ele>
        <time>2022-07-29T08:31:18Z</time>
      </trkpt>
      <trkpt lat="46.52797" lon="5.64022">
        <ele>531.4</ele>
        <time>2022-07-29T08:31:19Z</time>
      </trkpt>
      <trkpt lat="46.52786" lon="5.64022">
        <ele>530.6</ele>
        <time>2022-07-29T08:31:20Z</time>
      </trkpt>
      <trkpt lat="46.52776" lon="5.64025">
        <ele>529.8</ele>
        <time>2022-07-29T08:31:21Z</time>
      </trkpt>
      <trkpt lat="46.52767" lon="5.64028">
        <ele>529.2</ele>
        <time>2022-07-29T08:31:22Z</time>
      </trkpt>
      <trkpt lat="46.52758" lon="5.6403">
        <ele>528.6</ele>
        <time>2022-07-29T08:31:23Z</time>
      </trkpt>
      <trkpt lat="46.52749" lon="5.64027">
        <ele>528.2</ele>
        <time>2022-07-29T08:31:24Z</time>
      </trkpt>
      <trkpt lat="46.52742" lon="5.64021">
        <ele>527.8</ele>
        <time>2022-07-29T08:31:25Z</time>
      </trkpt>
      <trkpt lat="46.52736" lon="5.64012">
        <ele>527.6</ele>
        <time>2022-07-29T08:31:26Z</time>
      </trkpt>
      <trkpt lat="46.52731" lon="5.64002">
        <ele>527.6</ele>
        <time>2022-07-29T08:31:27Z</time>
      </trkpt>
      <trkpt lat="46.52725" lon="5.63994">
        <ele>527.6</ele>
        <time>2022-07-29T08:31:28Z</time>
      </trkpt>
      <trkpt lat="46.5272" lon="5.63985">
        <ele>527.6</ele>
        <time>2022-07-29T08:31:29Z</time>
      </trkpt>
      <trkpt lat="46.52714" lon="5.63977">
        <ele>527.6</ele>
        <time>2022-07-29T08:31:30Z</time>
      </trkpt>
      <trkpt lat="46.52708" lon="5.6397">
        <ele>527.6</ele>
        <time>2022-07-29T08:31:31Z</time>
      </trkpt>
      <trkpt lat="46.52703" lon="5.63963">
        <ele>528</ele>
        <time>2022-07-29T08:31:32Z</time>
      </trkpt>
      <trkpt lat="46.52698" lon="5.63955">
        <ele>528</ele>
        <time>2022-07-29T08:31:33Z</time>
      </trkpt>
      <trkpt lat="46.52692" lon="5.63947">
        <ele>528</ele>
        <time>2022-07-29T08:31:34Z</time>
      </trkpt>
      <trkpt lat="46.52688" lon="5.63939">
        <ele>528</ele>
        <time>2022-07-29T08:31:35Z</time>
      </trkpt>
      <trkpt lat="46.52683" lon="5.63931">
        <ele>528.4</ele>
        <time>2022-07-29T08:31:36Z</time>
      </trkpt>
      <trkpt lat="46.52678" lon="5.63923">
        <ele>528.6</ele>
        <time>2022-07-29T08:31:37Z</time>
      </trkpt>
      <trkpt lat="46.52674" lon="5.63915">
        <ele>528.6</ele>
        <time>2022-07-29T08:31:38Z</time>
      </trkpt>
      <trkpt lat="46.52671" lon="5.63906">
        <ele>528.8</ele>
        <time>2022-07-29T08:31:39Z</time>
      </trkpt>
      <trkpt lat="46.52668" lon="5.63897">
        <ele>528.8</ele>
        <time>2022-07-29T08:31:40Z</time>
      </trkpt>
      <trkpt lat="46.52665" lon="5.63888">
        <ele>529</ele>
        <time>2022-07-29T08:31:41Z</time>
      </trkpt>
      <trkpt lat="46.52663" lon="5.63879">
        <ele>529</ele>
        <time>2022-07-29T08:31:42Z</time>
      </trkpt>
      <trkpt lat="46.52661" lon="5.63872">
        <ele>529.2</ele>
        <time>2022-07-29T08:31:43Z</time>
      </trkpt>
      <trkpt lat="46.52658" lon="5.63864">
        <ele>529.2</ele>
        <time>2022-07-29T08:31:44Z</time>
      </trkpt>
      <trkpt lat="46.52656" lon="5.63856">
        <ele>529.6</ele>
        <time>2022-07-29T08:31:45Z</time>
      </trkpt>
      <trkpt lat="46.52653" lon="5.63845">
        <ele>529.6</ele>
        <time>2022-07-29T08:31:46Z</time>
      </trkpt>
      <trkpt lat="46.5265" lon="5.63835">
        <ele>529.6</ele>
        <time>2022-07-29T08:31:47Z</time>
      </trkpt>
      <trkpt lat="46.52647" lon="5.63826">
        <ele>529.6</ele>
        <time>2022-07-29T08:31:48Z</time>
      </trkpt>
      <trkpt lat="46.5265" lon="5.63812">
        <ele>529.6</ele>
        <time>2022-07-29T08:31:49Z</time>
      </trkpt>
      <trkpt lat="46.52651" lon="5.638">
        <ele>529.6</ele>
        <time>2022-07-29T08:31:50Z</time>
      </trkpt>
      <trkpt lat="46.52651" lon="5.63789">
        <ele>529.6</ele>
        <time>2022-07-29T08:31:51Z</time>
      </trkpt>
      <trkpt lat="46.52649" lon="5.63779">
        <ele>529.6</ele>
        <time>2022-07-29T08:31:52Z</time>
      </trkpt>
      <trkpt lat="46.52648" lon="5.63768">
        <ele>529.6</ele>
        <time>2022-07-29T08:31:53Z</time>
      </trkpt>
      <trkpt lat="46.52648" lon="5.63757">
        <ele>529.6</ele>
        <time>2022-07-29T08:31:54Z</time>
      </trkpt>
      <trkpt lat="46.5265" lon="5.63746">
        <ele>529.6</ele>
        <time>2022-07-29T08:31:55Z</time>
      </trkpt>
      <trkpt lat="46.52651" lon="5.63735">
        <ele>529.6</ele>
        <time>2022-07-29T08:31:56Z</time>
      </trkpt>
      <trkpt lat="46.52653" lon="5.63725">
        <ele>529.6</ele>
        <time>2022-07-29T08:31:57Z</time>
      </trkpt>
      <trkpt lat="46.52655" lon="5.63714">
        <ele>529.2</ele>
        <time>2022-07-29T08:31:58Z</time>
      </trkpt>
      <trkpt lat="46.52657" lon="5.63704">
        <ele>529.2</ele>
        <time>2022-07-29T08:31:59Z</time>
      </trkpt>
      <trkpt lat="46.5266" lon="5.63693">
        <ele>528.8</ele>
        <time>2022-07-29T08:32:00Z</time>
      </trkpt>
      <trkpt lat="46.52663" lon="5.63683">
        <ele>528.8</ele>
        <time>2022-07-29T08:32:01Z</time>
      </trkpt>
      <trkpt lat="46.52666" lon="5.63673">
        <ele>528.6</ele>
        <time>2022-07-29T08:32:02Z</time>
      </trkpt>
      <trkpt lat="46.52668" lon="5.63662">
        <ele>528.6</ele>
        <time>2022-07-29T08:32:03Z</time>
      </trkpt>
      <trkpt lat="46.52671" lon="5.63652">
        <ele>528.2</ele>
        <time>2022-07-29T08:32:04Z</time>
      </trkpt>
      <trkpt lat="46.52675" lon="5.63641">
        <ele>528</ele>
        <time>2022-07-29T08:32:05Z</time>
      </trkpt>
      <trkpt lat="46.52677" lon="5.63631">
        <ele>528</ele>
        <time>2022-07-29T08:32:06Z</time>
      </trkpt>
      <trkpt lat="46.5268" lon="5.6362">
        <ele>527.6</ele>
        <time>2022-07-29T08:32:07Z</time>
      </trkpt>
      <trkpt lat="46.52682" lon="5.63608">
        <ele>527.4</ele>
        <time>2022-07-29T08:32:08Z</time>
      </trkpt>
      <trkpt lat="46.52684" lon="5.63597">
        <ele>527.2</ele>
        <time>2022-07-29T08:32:09Z</time>
      </trkpt>
      <trkpt lat="46.52685" lon="5.63585">
        <ele>527</ele>
        <time>2022-07-29T08:32:10Z</time>
      </trkpt>
      <trkpt lat="46.52687" lon="5.63573">
        <ele>526.8</ele>
        <time>2022-07-29T08:32:11Z</time>
      </trkpt>
      <trkpt lat="46.52688" lon="5.6356">
        <ele>526.2</ele>
        <time>2022-07-29T08:32:12Z</time>
      </trkpt>
      <trkpt lat="46.5269" lon="5.63547">
        <ele>525.8</ele>
        <time>2022-07-29T08:32:13Z</time>
      </trkpt>
      <trkpt lat="46.52691" lon="5.63533">
        <ele>525.4</ele>
        <time>2022-07-29T08:32:14Z</time>
      </trkpt>
      <trkpt lat="46.52692" lon="5.63519">
        <ele>525</ele>
        <time>2022-07-29T08:32:15Z</time>
      </trkpt>
      <trkpt lat="46.52693" lon="5.63504">
        <ele>524.8</ele>
        <time>2022-07-29T08:32:16Z</time>
      </trkpt>
      <trkpt lat="46.52693" lon="5.6349">
        <ele>524.2</ele>
        <time>2022-07-29T08:32:17Z</time>
      </trkpt>
      <trkpt lat="46.52693" lon="5.63475">
        <ele>523.8</ele>
        <time>2022-07-29T08:32:18Z</time>
      </trkpt>
      <trkpt lat="46.52692" lon="5.6346">
        <ele>523.4</ele>
        <time>2022-07-29T08:32:19Z</time>
      </trkpt>
      <trkpt lat="46.5269" lon="5.63445">
        <ele>522.8</ele>
        <time>2022-07-29T08:32:20Z</time>
      </trkpt>
      <trkpt lat="46.52689" lon="5.6343">
        <ele>521.8</ele>
        <time>2022-07-29T08:32:21Z</time>
      </trkpt>
      <trkpt lat="46.52686" lon="5.63415">
        <ele>521.4</ele>
        <time>2022-07-29T08:32:22Z</time>
      </trkpt>
      <trkpt lat="46.52684" lon="5.634">
        <ele>520.8</ele>
        <time>2022-07-29T08:32:23Z</time>
      </trkpt>
      <trkpt lat="46.52682" lon="5.63384">
        <ele>520.4</ele>
        <time>2022-07-29T08:32:24Z</time>
      </trkpt>
      <trkpt lat="46.5268" lon="5.63369">
        <ele>520</ele>
        <time>2022-07-29T08:32:25Z</time>
      </trkpt>
      <trkpt lat="46.52678" lon="5.63354">
        <ele>519.6</ele>
        <time>2022-07-29T08:32:26Z</time>
      </trkpt>
      <trkpt lat="46.52676" lon="5.63341">
        <ele>519.2</ele>
        <time>2022-07-29T08:32:27Z</time>
      </trkpt>
      <trkpt lat="46.52674" lon="5.63326">
        <ele>519</ele>
        <time>2022-07-29T08:32:28Z</time>
      </trkpt>
      <trkpt lat="46.52672" lon="5.63312">
        <ele>518.8</ele>
        <time>2022-07-29T08:32:29Z</time>
      </trkpt>
      <trkpt lat="46.52671" lon="5.63299">
        <ele>518.6</ele>
        <time>2022-07-29T08:32:30Z</time>
      </trkpt>
      <trkpt lat="46.52669" lon="5.63286">
        <ele>518.6</ele>
        <time>2022-07-29T08:32:31Z</time>
      </trkpt>
      <trkpt lat="46.52667" lon="5.63273">
        <ele>518.4</ele>
        <time>2022-07-29T08:32:32Z</time>
      </trkpt>
      <trkpt lat="46.52665" lon="5.63261">
        <ele>518.4</ele>
        <time>2022-07-29T08:32:33Z</time>
      </trkpt>
      <trkpt lat="46.52666" lon="5.6325">
        <ele>518.4</ele>
        <time>2022-07-29T08:32:34Z</time>
      </trkpt>
      <trkpt lat="46.52669" lon="5.63243">
        <ele>518.4</ele>
        <time>2022-07-29T08:32:35Z</time>
      </trkpt>
      <trkpt lat="46.52674" lon="5.63239">
        <ele>518.4</ele>
        <time>2022-07-29T08:32:36Z</time>
      </trkpt>
      <trkpt lat="46.52679" lon="5.63239">
        <ele>518.4</ele>
        <time>2022-07-29T08:32:37Z</time>
      </trkpt>
      <trkpt lat="46.52684" lon="5.63242">
        <ele>518.4</ele>
        <time>2022-07-29T08:32:38Z</time>
      </trkpt>
      <trkpt lat="46.52687" lon="5.63247">
        <ele>518.4</ele>
        <time>2022-07-29T08:32:39Z</time>
      </trkpt>
      <trkpt lat="46.52689" lon="5.63254">
        <ele>518.4</ele>
        <time>2022-07-29T08:32:40Z</time>
      </trkpt>
      <trkpt lat="46.5269" lon="5.63262">
        <ele>518.2</ele>
        <time>2022-07-29T08:32:41Z</time>
      </trkpt>
      <trkpt lat="46.52691" lon="5.63271">
        <ele>517.8</ele>
        <time>2022-07-29T08:32:42Z</time>
      </trkpt>
      <trkpt lat="46.52691" lon="5.63281">
        <ele>517.4</ele>
        <time>2022-07-29T08:32:43Z</time>
      </trkpt>
      <trkpt lat="46.5269" lon="5.63291">
        <ele>516.8</ele>
        <time>2022-07-29T08:32:44Z</time>
      </trkpt>
      <trkpt lat="46.52688" lon="5.63301">
        <ele>516.2</ele>
        <time>2022-07-29T08:32:45Z</time>
      </trkpt>
      <trkpt lat="46.52683" lon="5.6331">
        <ele>515.8</ele>
        <time>2022-07-29T08:32:46Z</time>
      </trkpt>
      <trkpt lat="46.52676" lon="5.63315">
        <ele>515.4</ele>
        <time>2022-07-29T08:32:47Z</time>
      </trkpt>
      <trkpt lat="46.52669" lon="5.63319">
        <ele>515.2</ele>
        <time>2022-07-29T08:32:48Z</time>
      </trkpt>
      <trkpt lat="46.52661" lon="5.63321">
        <ele>515</ele>
        <time>2022-07-29T08:32:49Z</time>
      </trkpt>
      <trkpt lat="46.52653" lon="5.63322">
        <ele>514.6</ele>
        <time>2022-07-29T08:32:50Z</time>
      </trkpt>
      <trkpt lat="46.52646" lon="5.6332">
        <ele>514.4</ele>
        <time>2022-07-29T08:32:51Z</time>
      </trkpt>
      <trkpt lat="46.52638" lon="5.63316">
        <ele>514.4</ele>
        <time>2022-07-29T08:32:52Z</time>
      </trkpt>
      <trkpt lat="46.52631" lon="5.6331">
        <ele>514</ele>
        <time>2022-07-29T08:32:53Z</time>
      </trkpt>
      <trkpt lat="46.52624" lon="5.63304">
        <ele>514</ele>
        <time>2022-07-29T08:32:54Z</time>
      </trkpt>
      <trkpt lat="46.52618" lon="5.63297">
        <ele>513.8</ele>
        <time>2022-07-29T08:32:55Z</time>
      </trkpt>
      <trkpt lat="46.52612" lon="5.63291">
        <ele>513.8</ele>
        <time>2022-07-29T08:32:56Z</time>
      </trkpt>
      <trkpt lat="46.52606" lon="5.63284">
        <ele>513.6</ele>
        <time>2022-07-29T08:32:57Z</time>
      </trkpt>
      <trkpt lat="46.52603" lon="5.63275">
        <ele>513.6</ele>
        <time>2022-07-29T08:32:58Z</time>
      </trkpt>
      <trkpt lat="46.52602" lon="5.63266">
        <ele>513.6</ele>
        <time>2022-07-29T08:32:59Z</time>
      </trkpt>
      <trkpt lat="46.52602" lon="5.63258">
        <ele>513.8</ele>
        <time>2022-07-29T08:33:00Z</time>
      </trkpt>
      <trkpt lat="46.52601" lon="5.63252">
        <ele>513.8</ele>
        <time>2022-07-29T08:33:01Z</time>
      </trkpt>
      <trkpt lat="46.52599" lon="5.63248">
        <ele>514</ele>
        <time>2022-07-29T08:33:02Z</time>
      </trkpt>
      <trkpt lat="46.52595" lon="5.63245">
        <ele>514</ele>
        <time>2022-07-29T08:33:03Z</time>
      </trkpt>
      <trkpt lat="46.52591" lon="5.63243">
        <ele>514</ele>
        <time>2022-07-29T08:33:04Z</time>
      </trkpt>
      <trkpt lat="46.52587" lon="5.63243">
        <ele>514</ele>
        <time>2022-07-29T08:33:05Z</time>
      </trkpt>
      <trkpt lat="46.52582" lon="5.63245">
        <ele>514</ele>
        <time>2022-07-29T08:33:06Z</time>
      </trkpt>
      <trkpt lat="46.52578" lon="5.63246">
        <ele>513.8</ele>
        <time>2022-07-29T08:33:07Z</time>
      </trkpt>
      <trkpt lat="46.52573" lon="5.63249">
        <ele>513.6</ele>
        <time>2022-07-29T08:33:08Z</time>
      </trkpt>
      <trkpt lat="46.52568" lon="5.63251">
        <ele>513.4</ele>
        <time>2022-07-29T08:33:09Z</time>
      </trkpt>
      <trkpt lat="46.52563" lon="5.63253">
        <ele>513.4</ele>
        <time>2022-07-29T08:33:10Z</time>
      </trkpt>
      <trkpt lat="46.52558" lon="5.63255">
        <ele>513</ele>
        <time>2022-07-29T08:33:11Z</time>
      </trkpt>
      <trkpt lat="46.52554" lon="5.63257">
        <ele>512.8</ele>
        <time>2022-07-29T08:33:12Z</time>
      </trkpt>
      <trkpt lat="46.52549" lon="5.63259">
        <ele>512.4</ele>
        <time>2022-07-29T08:33:13Z</time>
      </trkpt>
      <trkpt lat="46.52544" lon="5.63261">
        <ele>512.2</ele>
        <time>2022-07-29T08:33:14Z</time>
      </trkpt>
      <trkpt lat="46.52538" lon="5.63264">
        <ele>512</ele>
        <time>2022-07-29T08:33:15Z</time>
      </trkpt>
      <trkpt lat="46.52533" lon="5.63267">
        <ele>511.6</ele>
        <time>2022-07-29T08:33:16Z</time>
      </trkpt>
      <trkpt lat="46.52527" lon="5.63269">
        <ele>511.2</ele>
        <time>2022-07-29T08:33:17Z</time>
      </trkpt>
      <trkpt lat="46.52521" lon="5.63272">
        <ele>510.8</ele>
        <time>2022-07-29T08:33:18Z</time>
      </trkpt>
      <trkpt lat="46.52515" lon="5.63275">
        <ele>510.4</ele>
        <time>2022-07-29T08:33:19Z</time>
      </trkpt>
      <trkpt lat="46.52509" lon="5.63277">
        <ele>510</ele>
        <time>2022-07-29T08:33:20Z</time>
      </trkpt>
      <trkpt lat="46.52503" lon="5.6328">
        <ele>509.4</ele>
        <time>2022-07-29T08:33:21Z</time>
      </trkpt>
      <trkpt lat="46.52497" lon="5.63282">
        <ele>509</ele>
        <time>2022-07-29T08:33:22Z</time>
      </trkpt>
      <trkpt lat="46.52491" lon="5.63284">
        <ele>508.4</ele>
        <time>2022-07-29T08:33:23Z</time>
      </trkpt>
      <trkpt lat="46.52485" lon="5.63286">
        <ele>508</ele>
        <time>2022-07-29T08:33:24Z</time>
      </trkpt>
      <trkpt lat="46.52479" lon="5.63288">
        <ele>507.6</ele>
        <time>2022-07-29T08:33:25Z</time>
      </trkpt>
      <trkpt lat="46.52472" lon="5.6329">
        <ele>507</ele>
        <time>2022-07-29T08:33:26Z</time>
      </trkpt>
      <trkpt lat="46.52466" lon="5.63292">
        <ele>506.4</ele>
        <time>2022-07-29T08:33:27Z</time>
      </trkpt>
      <trkpt lat="46.52459" lon="5.63294">
        <ele>506</ele>
        <time>2022-07-29T08:33:28Z</time>
      </trkpt>
      <trkpt lat="46.52452" lon="5.63295">
        <ele>505.4</ele>
        <time>2022-07-29T08:33:29Z</time>
      </trkpt>
      <trkpt lat="46.52445" lon="5.63296">
        <ele>504.8</ele>
        <time>2022-07-29T08:33:30Z</time>
      </trkpt>
      <trkpt lat="46.52438" lon="5.63298">
        <ele>504.2</ele>
        <time>2022-07-29T08:33:31Z</time>
      </trkpt>
      <trkpt lat="46.5243" lon="5.633">
        <ele>503.6</ele>
        <time>2022-07-29T08:33:32Z</time>
      </trkpt>
      <trkpt lat="46.52423" lon="5.63302">
        <ele>503.2</ele>
        <time>2022-07-29T08:33:33Z</time>
      </trkpt>
      <trkpt lat="46.52417" lon="5.63304">
        <ele>502.6</ele>
        <time>2022-07-29T08:33:34Z</time>
      </trkpt>
      <trkpt lat="46.5241" lon="5.63308">
        <ele>502</ele>
        <time>2022-07-29T08:33:35Z</time>
      </trkpt>
      <trkpt lat="46.52404" lon="5.63311">
        <ele>501.6</ele>
        <time>2022-07-29T08:33:36Z</time>
      </trkpt>
      <trkpt lat="46.52398" lon="5.63316">
        <ele>501</ele>
        <time>2022-07-29T08:33:37Z</time>
      </trkpt>
      <trkpt lat="46.52391" lon="5.63321">
        <ele>500.6</ele>
        <time>2022-07-29T08:33:38Z</time>
      </trkpt>
      <trkpt lat="46.52385" lon="5.63326">
        <ele>500</ele>
        <time>2022-07-29T08:33:39Z</time>
      </trkpt>
      <trkpt lat="46.52379" lon="5.63332">
        <ele>499.4</ele>
        <time>2022-07-29T08:33:40Z</time>
      </trkpt>
      <trkpt lat="46.52373" lon="5.63339">
        <ele>498.8</ele>
        <time>2022-07-29T08:33:41Z</time>
      </trkpt>
      <trkpt lat="46.52367" lon="5.63345">
        <ele>498.4</ele>
        <time>2022-07-29T08:33:42Z</time>
      </trkpt>
      <trkpt lat="46.52361" lon="5.63352">
        <ele>497.8</ele>
        <time>2022-07-29T08:33:43Z</time>
      </trkpt>
      <trkpt lat="46.52355" lon="5.63358">
        <ele>497.2</ele>
        <time>2022-07-29T08:33:44Z</time>
      </trkpt>
      <trkpt lat="46.52348" lon="5.63364">
        <ele>496.8</ele>
        <time>2022-07-29T08:33:45Z</time>
      </trkpt>
      <trkpt lat="46.52341" lon="5.6337">
        <ele>496</ele>
        <time>2022-07-29T08:33:46Z</time>
      </trkpt>
      <trkpt lat="46.52333" lon="5.63375">
        <ele>495.4</ele>
        <time>2022-07-29T08:33:47Z</time>
      </trkpt>
      <trkpt lat="46.52325" lon="5.63379">
        <ele>494.8</ele>
        <time>2022-07-29T08:33:48Z</time>
      </trkpt>
      <trkpt lat="46.52316" lon="5.63383">
        <ele>494.2</ele>
        <time>2022-07-29T08:33:49Z</time>
      </trkpt>
      <trkpt lat="46.52307" lon="5.63385">
        <ele>493.8</ele>
        <time>2022-07-29T08:33:50Z</time>
      </trkpt>
      <trkpt lat="46.52296" lon="5.63388">
        <ele>493.2</ele>
        <time>2022-07-29T08:33:51Z</time>
      </trkpt>
      <trkpt lat="46.52286" lon="5.6339">
        <ele>492.6</ele>
        <time>2022-07-29T08:33:52Z</time>
      </trkpt>
      <trkpt lat="46.52275" lon="5.63393">
        <ele>492.2</ele>
        <time>2022-07-29T08:33:53Z</time>
      </trkpt>
      <trkpt lat="46.52265" lon="5.63394">
        <ele>491.6</ele>
        <time>2022-07-29T08:33:54Z</time>
      </trkpt>
      <trkpt lat="46.52254" lon="5.63395">
        <ele>491.2</ele>
        <time>2022-07-29T08:33:55Z</time>
      </trkpt>
      <trkpt lat="46.52243" lon="5.63397">
        <ele>490.8</ele>
        <time>2022-07-29T08:33:56Z</time>
      </trkpt>
      <trkpt lat="46.52233" lon="5.63399">
        <ele>490.4</ele>
        <time>2022-07-29T08:33:57Z</time>
      </trkpt>
      <trkpt lat="46.52224" lon="5.63403">
        <ele>490.2</ele>
        <time>2022-07-29T08:33:58Z</time>
      </trkpt>
      <trkpt lat="46.52214" lon="5.63406">
        <ele>490.2</ele>
        <time>2022-07-29T08:33:59Z</time>
      </trkpt>
      <trkpt lat="46.52205" lon="5.63409">
        <ele>490</ele>
        <time>2022-07-29T08:34:00Z</time>
      </trkpt>
      <trkpt lat="46.52197" lon="5.63414">
        <ele>490</ele>
        <time>2022-07-29T08:34:01Z</time>
      </trkpt>
      <trkpt lat="46.52188" lon="5.63419">
        <ele>489.6</ele>
        <time>2022-07-29T08:34:02Z</time>
      </trkpt>
      <trkpt lat="46.5218" lon="5.63426">
        <ele>489.6</ele>
        <time>2022-07-29T08:34:03Z</time>
      </trkpt>
      <trkpt lat="46.52172" lon="5.63434">
        <ele>489.4</ele>
        <time>2022-07-29T08:34:04Z</time>
      </trkpt>
      <trkpt lat="46.52165" lon="5.63442">
        <ele>489.4</ele>
        <time>2022-07-29T08:34:05Z</time>
      </trkpt>
      <trkpt lat="46.52159" lon="5.63452">
        <ele>489.2</ele>
        <time>2022-07-29T08:34:06Z</time>
      </trkpt>
      <trkpt lat="46.52153" lon="5.63462">
        <ele>489.2</ele>
        <time>2022-07-29T08:34:07Z</time>
      </trkpt>
      <trkpt lat="46.52148" lon="5.63472">
        <ele>489.2</ele>
        <time>2022-07-29T08:34:08Z</time>
      </trkpt>
      <trkpt lat="46.52142" lon="5.63481">
        <ele>489.2</ele>
        <time>2022-07-29T08:34:09Z</time>
      </trkpt>
      <trkpt lat="46.52137" lon="5.63491">
        <ele>489.2</ele>
        <time>2022-07-29T08:34:10Z</time>
      </trkpt>
      <trkpt lat="46.52131" lon="5.635">
        <ele>489.2</ele>
        <time>2022-07-29T08:34:11Z</time>
      </trkpt>
      <trkpt lat="46.52126" lon="5.6351">
        <ele>489.2</ele>
        <time>2022-07-29T08:34:12Z</time>
      </trkpt>
      <trkpt lat="46.52122" lon="5.6352">
        <ele>489.2</ele>
        <time>2022-07-29T08:34:13Z</time>
      </trkpt>
      <trkpt lat="46.52118" lon="5.6353">
        <ele>489.2</ele>
        <time>2022-07-29T08:34:14Z</time>
      </trkpt>
      <trkpt lat="46.52113" lon="5.6354">
        <ele>489.4</ele>
        <time>2022-07-29T08:34:15Z</time>
      </trkpt>
      <trkpt lat="46.5211" lon="5.6355">
        <ele>489.4</ele>
        <time>2022-07-29T08:34:16Z</time>
      </trkpt>
      <trkpt lat="46.52107" lon="5.63561">
        <ele>489.4</ele>
        <time>2022-07-29T08:34:17Z</time>
      </trkpt>
      <trkpt lat="46.52104" lon="5.63571">
        <ele>489.4</ele>
        <time>2022-07-29T08:34:18Z</time>
      </trkpt>
      <trkpt lat="46.52101" lon="5.63582">
        <ele>489.4</ele>
        <time>2022-07-29T08:34:19Z</time>
      </trkpt>
      <trkpt lat="46.52098" lon="5.63592">
        <ele>489.6</ele>
        <time>2022-07-29T08:34:20Z</time>
      </trkpt>
      <trkpt lat="46.52095" lon="5.63602">
        <ele>489.6</ele>
        <time>2022-07-29T08:34:21Z</time>
      </trkpt>
      <trkpt lat="46.52091" lon="5.63611">
        <ele>489.6</ele>
        <time>2022-07-29T08:34:22Z</time>
      </trkpt>
      <trkpt lat="46.52086" lon="5.6362">
        <ele>489.6</ele>
        <time>2022-07-29T08:34:23Z</time>
      </trkpt>
      <trkpt lat="46.52081" lon="5.63629">
        <ele>489.6</ele>
        <time>2022-07-29T08:34:24Z</time>
      </trkpt>
      <trkpt lat="46.52076" lon="5.63637">
        <ele>489.6</ele>
        <time>2022-07-29T08:34:25Z</time>
      </trkpt>
      <trkpt lat="46.52071" lon="5.63645">
        <ele>489.6</ele>
        <time>2022-07-29T08:34:26Z</time>
      </trkpt>
      <trkpt lat="46.52066" lon="5.63653">
        <ele>489.6</ele>
        <time>2022-07-29T08:34:27Z</time>
      </trkpt>
      <trkpt lat="46.52061" lon="5.6366">
        <ele>489.6</ele>
        <time>2022-07-29T08:34:28Z</time>
      </trkpt>
      <trkpt lat="46.52056" lon="5.63668">
        <ele>489.6</ele>
        <time>2022-07-29T08:34:29Z</time>
      </trkpt>
      <trkpt lat="46.52051" lon="5.63676">
        <ele>489.6</ele>
        <time>2022-07-29T08:34:30Z</time>
      </trkpt>
      <trkpt lat="46.52046" lon="5.63683">
        <ele>489.6</ele>
        <time>2022-07-29T08:34:31Z</time>
      </trkpt>
      <trkpt lat="46.52042" lon="5.63691">
        <ele>489.6</ele>
        <time>2022-07-29T08:34:32Z</time>
      </trkpt>
      <trkpt lat="46.52037" lon="5.63698">
        <ele>489.6</ele>
        <time>2022-07-29T08:34:33Z</time>
      </trkpt>
      <trkpt lat="46.52031" lon="5.63705">
        <ele>489.6</ele>
        <time>2022-07-29T08:34:34Z</time>
      </trkpt>
      <trkpt lat="46.52026" lon="5.63713">
        <ele>489.6</ele>
        <time>2022-07-29T08:34:35Z</time>
      </trkpt>
      <trkpt lat="46.52021" lon="5.63721">
        <ele>489.6</ele>
        <time>2022-07-29T08:34:36Z</time>
      </trkpt>
      <trkpt lat="46.52016" lon="5.63728">
        <ele>489.6</ele>
        <time>2022-07-29T08:34:37Z</time>
      </trkpt>
      <trkpt lat="46.52011" lon="5.63735">
        <ele>489.6</ele>
        <time>2022-07-29T08:34:38Z</time>
      </trkpt>
      <trkpt lat="46.52" lon="5.6375">
        <ele>489.6</ele>
        <time>2022-07-29T08:34:39Z</time>
      </trkpt>
      <trkpt lat="46.51994" lon="5.63756">
        <ele>489.4</ele>
        <time>2022-07-29T08:34:40Z</time>
      </trkpt>
      <trkpt lat="46.51988" lon="5.63763">
        <ele>489.4</ele>
        <time>2022-07-29T08:34:41Z</time>
      </trkpt>
      <trkpt lat="46.51982" lon="5.63768">
        <ele>489.2</ele>
        <time>2022-07-29T08:34:42Z</time>
      </trkpt>
      <trkpt lat="46.51976" lon="5.63773">
        <ele>489.2</ele>
        <time>2022-07-29T08:34:43Z</time>
      </trkpt>
      <trkpt lat="46.5197" lon="5.63779">
        <ele>489</ele>
        <time>2022-07-29T08:34:44Z</time>
      </trkpt>
      <trkpt lat="46.51963" lon="5.63783">
        <ele>489</ele>
        <time>2022-07-29T08:34:45Z</time>
      </trkpt>
      <trkpt lat="46.51957" lon="5.63788">
        <ele>488.6</ele>
        <time>2022-07-29T08:34:46Z</time>
      </trkpt>
      <trkpt lat="46.5195" lon="5.63793">
        <ele>488.4</ele>
        <time>2022-07-29T08:34:47Z</time>
      </trkpt>
      <trkpt lat="46.51943" lon="5.63797">
        <ele>488</ele>
        <time>2022-07-29T08:34:48Z</time>
      </trkpt>
      <trkpt lat="46.51937" lon="5.63803">
        <ele>488</ele>
        <time>2022-07-29T08:34:49Z</time>
      </trkpt>
      <trkpt lat="46.51931" lon="5.63809">
        <ele>487.6</ele>
        <time>2022-07-29T08:34:50Z</time>
      </trkpt>
      <trkpt lat="46.51924" lon="5.63816">
        <ele>487.6</ele>
        <time>2022-07-29T08:34:51Z</time>
      </trkpt>
      <trkpt lat="46.51919" lon="5.63823">
        <ele>487.2</ele>
        <time>2022-07-29T08:34:52Z</time>
      </trkpt>
      <trkpt lat="46.51913" lon="5.63832">
        <ele>487</ele>
        <time>2022-07-29T08:34:53Z</time>
      </trkpt>
      <trkpt lat="46.51908" lon="5.63842">
        <ele>486.6</ele>
        <time>2022-07-29T08:34:54Z</time>
      </trkpt>
      <trkpt lat="46.51903" lon="5.63852">
        <ele>486.2</ele>
        <time>2022-07-29T08:34:55Z</time>
      </trkpt>
      <trkpt lat="46.51903" lon="5.63852">
        <ele>485.8</ele>
        <time>2022-07-29T08:34:56Z</time>
      </trkpt>
      <trkpt lat="46.51898" lon="5.63863">
        <ele>485.4</ele>
        <time>2022-07-29T08:34:57Z</time>
      </trkpt>
      <trkpt lat="46.51892" lon="5.63873">
        <ele>484.8</ele>
        <time>2022-07-29T08:34:58Z</time>
      </trkpt>
      <trkpt lat="46.51886" lon="5.63883">
        <ele>484.4</ele>
        <time>2022-07-29T08:34:59Z</time>
      </trkpt>
      <trkpt lat="46.51878" lon="5.63891">
        <ele>483.8</ele>
        <time>2022-07-29T08:35:00Z</time>
      </trkpt>
      <trkpt lat="46.51869" lon="5.63898">
        <ele>483.2</ele>
        <time>2022-07-29T08:35:01Z</time>
      </trkpt>
      <trkpt lat="46.51859" lon="5.63902">
        <ele>482.6</ele>
        <time>2022-07-29T08:35:02Z</time>
      </trkpt>
      <trkpt lat="46.51849" lon="5.63905">
        <ele>482</ele>
        <time>2022-07-29T08:35:03Z</time>
      </trkpt>
      <trkpt lat="46.5184" lon="5.63908">
        <ele>481.6</ele>
        <time>2022-07-29T08:35:04Z</time>
      </trkpt>
      <trkpt lat="46.51829" lon="5.6391">
        <ele>480.6</ele>
        <time>2022-07-29T08:35:05Z</time>
      </trkpt>
      <trkpt lat="46.51818" lon="5.63911">
        <ele>480</ele>
        <time>2022-07-29T08:35:06Z</time>
      </trkpt>
      <trkpt lat="46.51806" lon="5.63912">
        <ele>479.2</ele>
        <time>2022-07-29T08:35:07Z</time>
      </trkpt>
      <trkpt lat="46.51794" lon="5.63913">
        <ele>478.4</ele>
        <time>2022-07-29T08:35:08Z</time>
      </trkpt>
      <trkpt lat="46.51783" lon="5.63913">
        <ele>477.6</ele>
        <time>2022-07-29T08:35:09Z</time>
      </trkpt>
      <trkpt lat="46.51772" lon="5.63914">
        <ele>476.6</ele>
        <time>2022-07-29T08:35:10Z</time>
      </trkpt>
      <trkpt lat="46.51761" lon="5.63915">
        <ele>475.8</ele>
        <time>2022-07-29T08:35:11Z</time>
      </trkpt>
      <trkpt lat="46.5175" lon="5.63916">
        <ele>474.8</ele>
        <time>2022-07-29T08:35:12Z</time>
      </trkpt>
      <trkpt lat="46.5174" lon="5.63917">
        <ele>474</ele>
        <time>2022-07-29T08:35:13Z</time>
      </trkpt>
      <trkpt lat="46.5173" lon="5.63918">
        <ele>473</ele>
        <time>2022-07-29T08:35:14Z</time>
      </trkpt>
      <trkpt lat="46.5172" lon="5.63918">
        <ele>472.2</ele>
        <time>2022-07-29T08:35:15Z</time>
      </trkpt>
      <trkpt lat="46.5171" lon="5.63917">
        <ele>471.2</ele>
        <time>2022-07-29T08:35:16Z</time>
      </trkpt>
      <trkpt lat="46.51701" lon="5.63914">
        <ele>470.4</ele>
        <time>2022-07-29T08:35:17Z</time>
      </trkpt>
      <trkpt lat="46.51693" lon="5.6391">
        <ele>469.6</ele>
        <time>2022-07-29T08:35:18Z</time>
      </trkpt>
      <trkpt lat="46.51686" lon="5.63906">
        <ele>468.8</ele>
        <time>2022-07-29T08:35:19Z</time>
      </trkpt>
      <trkpt lat="46.51679" lon="5.63901">
        <ele>467.8</ele>
        <time>2022-07-29T08:35:20Z</time>
      </trkpt>
      <trkpt lat="46.51673" lon="5.63896">
        <ele>467</ele>
        <time>2022-07-29T08:35:21Z</time>
      </trkpt>
      <trkpt lat="46.51668" lon="5.63891">
        <ele>466.2</ele>
        <time>2022-07-29T08:35:22Z</time>
      </trkpt>
      <trkpt lat="46.51664" lon="5.63887">
        <ele>465.4</ele>
        <time>2022-07-29T08:35:23Z</time>
      </trkpt>
      <trkpt lat="46.51661" lon="5.63882">
        <ele>464.8</ele>
        <time>2022-07-29T08:35:24Z</time>
      </trkpt>
      <trkpt lat="46.51658" lon="5.63876">
        <ele>464.4</ele>
        <time>2022-07-29T08:35:25Z</time>
      </trkpt>
      <trkpt lat="46.51656" lon="5.63871">
        <ele>464</ele>
        <time>2022-07-29T08:35:26Z</time>
      </trkpt>
      <trkpt lat="46.51653" lon="5.63866">
        <ele>463.6</ele>
        <time>2022-07-29T08:35:27Z</time>
      </trkpt>
      <trkpt lat="46.51649" lon="5.63862">
        <ele>463.2</ele>
        <time>2022-07-29T08:35:28Z</time>
      </trkpt>
      <trkpt lat="46.51645" lon="5.63856">
        <ele>463</ele>
        <time>2022-07-29T08:35:29Z</time>
      </trkpt>
      <trkpt lat="46.51641" lon="5.63851">
        <ele>462.8</ele>
        <time>2022-07-29T08:35:30Z</time>
      </trkpt>
      <trkpt lat="46.51636" lon="5.63845">
        <ele>462.4</ele>
        <time>2022-07-29T08:35:31Z</time>
      </trkpt>
      <trkpt lat="46.51632" lon="5.63838">
        <ele>462</ele>
        <time>2022-07-29T08:35:32Z</time>
      </trkpt>
      <trkpt lat="46.51627" lon="5.63831">
        <ele>461.6</ele>
        <time>2022-07-29T08:35:33Z</time>
      </trkpt>
      <trkpt lat="46.51622" lon="5.63823">
        <ele>461.2</ele>
        <time>2022-07-29T08:35:34Z</time>
      </trkpt>
      <trkpt lat="46.51617" lon="5.63815">
        <ele>460.6</ele>
        <time>2022-07-29T08:35:35Z</time>
      </trkpt>
      <trkpt lat="46.51612" lon="5.63806">
        <ele>460.2</ele>
        <time>2022-07-29T08:35:36Z</time>
      </trkpt>
      <trkpt lat="46.51607" lon="5.63797">
        <ele>459.6</ele>
        <time>2022-07-29T08:35:37Z</time>
      </trkpt>
      <trkpt lat="46.51601" lon="5.63788">
        <ele>459.2</ele>
        <time>2022-07-29T08:35:38Z</time>
      </trkpt>
      <trkpt lat="46.51595" lon="5.63779">
        <ele>458.6</ele>
        <time>2022-07-29T08:35:39Z</time>
      </trkpt>
      <trkpt lat="46.51589" lon="5.63769">
        <ele>458.2</ele>
        <time>2022-07-29T08:35:40Z</time>
      </trkpt>
      <trkpt lat="46.51583" lon="5.63759">
        <ele>457.8</ele>
        <time>2022-07-29T08:35:41Z</time>
      </trkpt>
      <trkpt lat="46.51577" lon="5.63748">
        <ele>457.2</ele>
        <time>2022-07-29T08:35:42Z</time>
      </trkpt>
      <trkpt lat="46.51571" lon="5.63737">
        <ele>456.8</ele>
        <time>2022-07-29T08:35:43Z</time>
      </trkpt>
      <trkpt lat="46.51565" lon="5.63726">
        <ele>456.2</ele>
        <time>2022-07-29T08:35:44Z</time>
      </trkpt>
      <trkpt lat="46.51559" lon="5.63716">
        <ele>455.8</ele>
        <time>2022-07-29T08:35:45Z</time>
      </trkpt>
      <trkpt lat="46.51552" lon="5.63706">
        <ele>455.2</ele>
        <time>2022-07-29T08:35:46Z</time>
      </trkpt>
      <trkpt lat="46.51544" lon="5.63697">
        <ele>454.8</ele>
        <time>2022-07-29T08:35:47Z</time>
      </trkpt>
      <trkpt lat="46.51534" lon="5.6369">
        <ele>454.4</ele>
        <time>2022-07-29T08:35:48Z</time>
      </trkpt>
      <trkpt lat="46.51525" lon="5.63685">
        <ele>453.8</ele>
        <time>2022-07-29T08:35:49Z</time>
      </trkpt>
      <trkpt lat="46.51515" lon="5.63684">
        <ele>453.4</ele>
        <time>2022-07-29T08:35:50Z</time>
      </trkpt>
      <trkpt lat="46.51504" lon="5.63684">
        <ele>452.8</ele>
        <time>2022-07-29T08:35:51Z</time>
      </trkpt>
      <trkpt lat="46.51493" lon="5.63685">
        <ele>452.2</ele>
        <time>2022-07-29T08:35:52Z</time>
      </trkpt>
      <trkpt lat="46.51483" lon="5.63685">
        <ele>451.8</ele>
        <time>2022-07-29T08:35:53Z</time>
      </trkpt>
      <trkpt lat="46.51472" lon="5.63684">
        <ele>451.2</ele>
        <time>2022-07-29T08:35:54Z</time>
      </trkpt>
      <trkpt lat="46.51461" lon="5.63684">
        <ele>450.6</ele>
        <time>2022-07-29T08:35:55Z</time>
      </trkpt>
      <trkpt lat="46.5145" lon="5.63684">
        <ele>450</ele>
        <time>2022-07-29T08:35:56Z</time>
      </trkpt>
      <trkpt lat="46.5144" lon="5.63684">
        <ele>449.4</ele>
        <time>2022-07-29T08:35:57Z</time>
      </trkpt>
      <trkpt lat="46.51429" lon="5.63683">
        <ele>448.8</ele>
        <time>2022-07-29T08:35:58Z</time>
      </trkpt>
      <trkpt lat="46.51419" lon="5.63682">
        <ele>448.2</ele>
        <time>2022-07-29T08:35:59Z</time>
      </trkpt>
      <trkpt lat="46.5141" lon="5.63679">
        <ele>447.6</ele>
        <time>2022-07-29T08:36:00Z</time>
      </trkpt>
      <trkpt lat="46.51401" lon="5.63676">
        <ele>447</ele>
        <time>2022-07-29T08:36:01Z</time>
      </trkpt>
      <trkpt lat="46.51391" lon="5.63671">
        <ele>446.4</ele>
        <time>2022-07-29T08:36:02Z</time>
      </trkpt>
      <trkpt lat="46.51382" lon="5.63663">
        <ele>445.8</ele>
        <time>2022-07-29T08:36:03Z</time>
      </trkpt>
      <trkpt lat="46.51374" lon="5.63654">
        <ele>445.2</ele>
        <time>2022-07-29T08:36:04Z</time>
      </trkpt>
      <trkpt lat="46.51366" lon="5.63646">
        <ele>444.6</ele>
        <time>2022-07-29T08:36:05Z</time>
      </trkpt>
      <trkpt lat="46.51359" lon="5.63637">
        <ele>444</ele>
        <time>2022-07-29T08:36:06Z</time>
      </trkpt>
      <trkpt lat="46.5135" lon="5.63627">
        <ele>443.6</ele>
        <time>2022-07-29T08:36:07Z</time>
      </trkpt>
      <trkpt lat="46.5134" lon="5.63618">
        <ele>443</ele>
        <time>2022-07-29T08:36:08Z</time>
      </trkpt>
      <trkpt lat="46.51329" lon="5.6361">
        <ele>442.4</ele>
        <time>2022-07-29T08:36:09Z</time>
      </trkpt>
      <trkpt lat="46.51319" lon="5.63603">
        <ele>441.8</ele>
        <time>2022-07-29T08:36:10Z</time>
      </trkpt>
      <trkpt lat="46.51308" lon="5.63596">
        <ele>441.2</ele>
        <time>2022-07-29T08:36:11Z</time>
      </trkpt>
      <trkpt lat="46.51298" lon="5.63589">
        <ele>440.6</ele>
        <time>2022-07-29T08:36:12Z</time>
      </trkpt>
      <trkpt lat="46.51287" lon="5.63582">
        <ele>439.8</ele>
        <time>2022-07-29T08:36:13Z</time>
      </trkpt>
      <trkpt lat="46.51277" lon="5.63574">
        <ele>439.2</ele>
        <time>2022-07-29T08:36:14Z</time>
      </trkpt>
      <trkpt lat="46.51266" lon="5.63566">
        <ele>438.6</ele>
        <time>2022-07-29T08:36:15Z</time>
      </trkpt>
      <trkpt lat="46.51256" lon="5.63558">
        <ele>438</ele>
        <time>2022-07-29T08:36:16Z</time>
      </trkpt>
      <trkpt lat="46.51245" lon="5.6355">
        <ele>437.4</ele>
        <time>2022-07-29T08:36:17Z</time>
      </trkpt>
      <trkpt lat="46.51235" lon="5.63541">
        <ele>436.8</ele>
        <time>2022-07-29T08:36:18Z</time>
      </trkpt>
      <trkpt lat="46.51224" lon="5.63531">
        <ele>436.2</ele>
        <time>2022-07-29T08:36:19Z</time>
      </trkpt>
      <trkpt lat="46.51215" lon="5.63522">
        <ele>435.6</ele>
        <time>2022-07-29T08:36:20Z</time>
      </trkpt>
      <trkpt lat="46.51205" lon="5.63513">
        <ele>435</ele>
        <time>2022-07-29T08:36:21Z</time>
      </trkpt>
      <trkpt lat="46.51195" lon="5.63504">
        <ele>434.4</ele>
        <time>2022-07-29T08:36:22Z</time>
      </trkpt>
      <trkpt lat="46.51186" lon="5.63493">
        <ele>433.8</ele>
        <time>2022-07-29T08:36:23Z</time>
      </trkpt>
      <trkpt lat="46.51177" lon="5.63482">
        <ele>433.2</ele>
        <time>2022-07-29T08:36:24Z</time>
      </trkpt>
      <trkpt lat="46.51168" lon="5.63471">
        <ele>432.6</ele>
        <time>2022-07-29T08:36:25Z</time>
      </trkpt>
      <trkpt lat="46.5116" lon="5.6346">
        <ele>432.2</ele>
        <time>2022-07-29T08:36:26Z</time>
      </trkpt>
      <trkpt lat="46.51151" lon="5.63449">
        <ele>431.6</ele>
        <time>2022-07-29T08:36:27Z</time>
      </trkpt>
      <trkpt lat="46.51143" lon="5.63438">
        <ele>431.2</ele>
        <time>2022-07-29T08:36:28Z</time>
      </trkpt>
      <trkpt lat="46.51135" lon="5.63427">
        <ele>430.8</ele>
        <time>2022-07-29T08:36:29Z</time>
      </trkpt>
      <trkpt lat="46.51127" lon="5.63416">
        <ele>430.4</ele>
        <time>2022-07-29T08:36:30Z</time>
      </trkpt>
      <trkpt lat="46.51119" lon="5.63406">
        <ele>430</ele>
        <time>2022-07-29T08:36:31Z</time>
      </trkpt>
      <trkpt lat="46.5111" lon="5.63397">
        <ele>429.6</ele>
        <time>2022-07-29T08:36:32Z</time>
      </trkpt>
      <trkpt lat="46.51101" lon="5.6339">
        <ele>429.2</ele>
        <time>2022-07-29T08:36:33Z</time>
      </trkpt>
      <trkpt lat="46.51092" lon="5.63384">
        <ele>429</ele>
        <time>2022-07-29T08:36:34Z</time>
      </trkpt>
      <trkpt lat="46.51082" lon="5.63378">
        <ele>428.6</ele>
        <time>2022-07-29T08:36:35Z</time>
      </trkpt>
      <trkpt lat="46.51072" lon="5.63374">
        <ele>428.4</ele>
        <time>2022-07-29T08:36:36Z</time>
      </trkpt>
      <trkpt lat="46.51062" lon="5.63371">
        <ele>428</ele>
        <time>2022-07-29T08:36:37Z</time>
      </trkpt>
      <trkpt lat="46.51052" lon="5.63368">
        <ele>427.6</ele>
        <time>2022-07-29T08:36:38Z</time>
      </trkpt>
      <trkpt lat="46.51041" lon="5.63365">
        <ele>427.2</ele>
        <time>2022-07-29T08:36:39Z</time>
      </trkpt>
      <trkpt lat="46.51031" lon="5.63362">
        <ele>427</ele>
        <time>2022-07-29T08:36:40Z</time>
      </trkpt>
      <trkpt lat="46.51022" lon="5.63359">
        <ele>426.6</ele>
        <time>2022-07-29T08:36:41Z</time>
      </trkpt>
      <trkpt lat="46.51013" lon="5.63357">
        <ele>426.6</ele>
        <time>2022-07-29T08:36:42Z</time>
      </trkpt>
      <trkpt lat="46.51003" lon="5.63353">
        <ele>426.2</ele>
        <time>2022-07-29T08:36:43Z</time>
      </trkpt>
      <trkpt lat="46.50994" lon="5.6335">
        <ele>426</ele>
        <time>2022-07-29T08:36:44Z</time>
      </trkpt>
      <trkpt lat="46.50984" lon="5.63347">
        <ele>425.8</ele>
        <time>2022-07-29T08:36:45Z</time>
      </trkpt>
      <trkpt lat="46.50975" lon="5.63344">
        <ele>425.6</ele>
        <time>2022-07-29T08:36:46Z</time>
      </trkpt>
      <trkpt lat="46.50966" lon="5.63342">
        <ele>425.2</ele>
        <time>2022-07-29T08:36:47Z</time>
      </trkpt>
      <trkpt lat="46.50956" lon="5.63339">
        <ele>425</ele>
        <time>2022-07-29T08:36:48Z</time>
      </trkpt>
      <trkpt lat="46.50946" lon="5.63336">
        <ele>424.8</ele>
        <time>2022-07-29T08:36:49Z</time>
      </trkpt>
      <trkpt lat="46.50937" lon="5.63331">
        <ele>424.4</ele>
        <time>2022-07-29T08:36:50Z</time>
      </trkpt>
      <trkpt lat="46.50928" lon="5.63326">
        <ele>424.2</ele>
        <time>2022-07-29T08:36:51Z</time>
      </trkpt>
      <trkpt lat="46.50919" lon="5.63322">
        <ele>424.2</ele>
        <time>2022-07-29T08:36:52Z</time>
      </trkpt>
      <trkpt lat="46.5091" lon="5.63318">
        <ele>423.8</ele>
        <time>2022-07-29T08:36:53Z</time>
      </trkpt>
      <trkpt lat="46.50902" lon="5.63314">
        <ele>423.4</ele>
        <time>2022-07-29T08:36:54Z</time>
      </trkpt>
      <trkpt lat="46.50893" lon="5.6331">
        <ele>423.2</ele>
        <time>2022-07-29T08:36:55Z</time>
      </trkpt>
      <trkpt lat="46.50884" lon="5.63307">
        <ele>422.8</ele>
        <time>2022-07-29T08:36:56Z</time>
      </trkpt>
      <trkpt lat="46.50875" lon="5.63304">
        <ele>422.6</ele>
        <time>2022-07-29T08:36:57Z</time>
      </trkpt>
      <trkpt lat="46.50867" lon="5.633">
        <ele>422.2</ele>
        <time>2022-07-29T08:36:58Z</time>
      </trkpt>
      <trkpt lat="46.50859" lon="5.63296">
        <ele>421.8</ele>
        <time>2022-07-29T08:36:59Z</time>
      </trkpt>
      <trkpt lat="46.5085" lon="5.63292">
        <ele>421.6</ele>
        <time>2022-07-29T08:37:00Z</time>
      </trkpt>
      <trkpt lat="46.50842" lon="5.63288">
        <ele>421.2</ele>
        <time>2022-07-29T08:37:01Z</time>
      </trkpt>
      <trkpt lat="46.50834" lon="5.63282">
        <ele>421</ele>
        <time>2022-07-29T08:37:02Z</time>
      </trkpt>
      <trkpt lat="46.50827" lon="5.63275">
        <ele>420.8</ele>
        <time>2022-07-29T08:37:03Z</time>
      </trkpt>
      <trkpt lat="46.5082" lon="5.63267">
        <ele>420.6</ele>
        <time>2022-07-29T08:37:04Z</time>
      </trkpt>
      <trkpt lat="46.50814" lon="5.63258">
        <ele>420.2</ele>
        <time>2022-07-29T08:37:05Z</time>
      </trkpt>
      <trkpt lat="46.50809" lon="5.63249">
        <ele>420</ele>
        <time>2022-07-29T08:37:06Z</time>
      </trkpt>
      <trkpt lat="46.50803" lon="5.6324">
        <ele>420</ele>
        <time>2022-07-29T08:37:07Z</time>
      </trkpt>
      <trkpt lat="46.50797" lon="5.63231">
        <ele>419.6</ele>
        <time>2022-07-29T08:37:08Z</time>
      </trkpt>
      <trkpt lat="46.50791" lon="5.63223">
        <ele>419.6</ele>
        <time>2022-07-29T08:37:09Z</time>
      </trkpt>
      <trkpt lat="46.50785" lon="5.63215">
        <ele>419.2</ele>
        <time>2022-07-29T08:37:10Z</time>
      </trkpt>
      <trkpt lat="46.50779" lon="5.63206">
        <ele>419</ele>
        <time>2022-07-29T08:37:11Z</time>
      </trkpt>
      <trkpt lat="46.50773" lon="5.63198">
        <ele>418.6</ele>
        <time>2022-07-29T08:37:12Z</time>
      </trkpt>
      <trkpt lat="46.50767" lon="5.63189">
        <ele>418.4</ele>
        <time>2022-07-29T08:37:13Z</time>
      </trkpt>
      <trkpt lat="46.50761" lon="5.63182">
        <ele>418</ele>
        <time>2022-07-29T08:37:14Z</time>
      </trkpt>
      <trkpt lat="46.50754" lon="5.63175">
        <ele>417.6</ele>
        <time>2022-07-29T08:37:15Z</time>
      </trkpt>
      <trkpt lat="46.50748" lon="5.63168">
        <ele>417</ele>
        <time>2022-07-29T08:37:16Z</time>
      </trkpt>
      <trkpt lat="46.50741" lon="5.63161">
        <ele>416.6</ele>
        <time>2022-07-29T08:37:17Z</time>
      </trkpt>
      <trkpt lat="46.50735" lon="5.63155">
        <ele>416.2</ele>
        <time>2022-07-29T08:37:18Z</time>
      </trkpt>
      <trkpt lat="46.50729" lon="5.63151">
        <ele>416</ele>
        <time>2022-07-29T08:37:19Z</time>
      </trkpt>
      <trkpt lat="46.50723" lon="5.63147">
        <ele>415.6</ele>
        <time>2022-07-29T08:37:20Z</time>
      </trkpt>
      <trkpt lat="46.50716" lon="5.63144">
        <ele>415.2</ele>
        <time>2022-07-29T08:37:21Z</time>
      </trkpt>
      <trkpt lat="46.50708" lon="5.63142">
        <ele>414.8</ele>
        <time>2022-07-29T08:37:22Z</time>
      </trkpt>
      <trkpt lat="46.50701" lon="5.6314">
        <ele>414.4</ele>
        <time>2022-07-29T08:37:23Z</time>
      </trkpt>
      <trkpt lat="46.50693" lon="5.63139">
        <ele>414.2</ele>
        <time>2022-07-29T08:37:24Z</time>
      </trkpt>
      <trkpt lat="46.50685" lon="5.63138">
        <ele>413.8</ele>
        <time>2022-07-29T08:37:25Z</time>
      </trkpt>
      <trkpt lat="46.50677" lon="5.63137">
        <ele>413.4</ele>
        <time>2022-07-29T08:37:26Z</time>
      </trkpt>
      <trkpt lat="46.50668" lon="5.63136">
        <ele>412.8</ele>
        <time>2022-07-29T08:37:27Z</time>
      </trkpt>
      <trkpt lat="46.5066" lon="5.63136">
        <ele>412.4</ele>
        <time>2022-07-29T08:37:28Z</time>
      </trkpt>
      <trkpt lat="46.50651" lon="5.63136">
        <ele>412</ele>
        <time>2022-07-29T08:37:29Z</time>
      </trkpt>
      <trkpt lat="46.50642" lon="5.63137">
        <ele>411.4</ele>
        <time>2022-07-29T08:37:30Z</time>
      </trkpt>
      <trkpt lat="46.50634" lon="5.63139">
        <ele>410.8</ele>
        <time>2022-07-29T08:37:31Z</time>
      </trkpt>
      <trkpt lat="46.50625" lon="5.63141">
        <ele>410.4</ele>
        <time>2022-07-29T08:37:32Z</time>
      </trkpt>
      <trkpt lat="46.50616" lon="5.63143">
        <ele>409.8</ele>
        <time>2022-07-29T08:37:33Z</time>
      </trkpt>
      <trkpt lat="46.50607" lon="5.63145">
        <ele>409.4</ele>
        <time>2022-07-29T08:37:34Z</time>
      </trkpt>
      <trkpt lat="46.50599" lon="5.63147">
        <ele>409</ele>
        <time>2022-07-29T08:37:35Z</time>
      </trkpt>
      <trkpt lat="46.5059" lon="5.63148">
        <ele>408.6</ele>
        <time>2022-07-29T08:37:36Z</time>
      </trkpt>
      <trkpt lat="46.50582" lon="5.6315">
        <ele>408</ele>
        <time>2022-07-29T08:37:37Z</time>
      </trkpt>
      <trkpt lat="46.50574" lon="5.63151">
        <ele>407.8</ele>
        <time>2022-07-29T08:37:38Z</time>
      </trkpt>
      <trkpt lat="46.50567" lon="5.63153">
        <ele>407.4</ele>
        <time>2022-07-29T08:37:39Z</time>
      </trkpt>
      <trkpt lat="46.5056" lon="5.63154">
        <ele>407.2</ele>
        <time>2022-07-29T08:37:40Z</time>
      </trkpt>
      <trkpt lat="46.50553" lon="5.63154">
        <ele>406.8</ele>
        <time>2022-07-29T08:37:41Z</time>
      </trkpt>
      <trkpt lat="46.50548" lon="5.63154">
        <ele>406.6</ele>
        <time>2022-07-29T08:37:42Z</time>
      </trkpt>
      <trkpt lat="46.50542" lon="5.63154">
        <ele>406.6</ele>
        <time>2022-07-29T08:37:43Z</time>
      </trkpt>
      <trkpt lat="46.50538" lon="5.63153">
        <ele>406.2</ele>
        <time>2022-07-29T08:37:44Z</time>
      </trkpt>
      <trkpt lat="46.50534" lon="5.63152">
        <ele>406.2</ele>
        <time>2022-07-29T08:37:45Z</time>
      </trkpt>
      <trkpt lat="46.5053" lon="5.63151">
        <ele>406</ele>
        <time>2022-07-29T08:37:46Z</time>
      </trkpt>
      <trkpt lat="46.50527" lon="5.6315">
        <ele>406</ele>
        <time>2022-07-29T08:37:47Z</time>
      </trkpt>
      <trkpt lat="46.50524" lon="5.6315">
        <ele>406</ele>
        <time>2022-07-29T08:37:48Z</time>
      </trkpt>
      <trkpt lat="46.50523" lon="5.63152">
        <ele>406</ele>
        <time>2022-07-29T08:37:49Z</time>
      </trkpt>
      <trkpt lat="46.50522" lon="5.63153">
        <ele>406</ele>
        <time>2022-07-29T08:37:50Z</time>
      </trkpt>
      <trkpt lat="46.50521" lon="5.63155">
        <ele>406</ele>
        <time>2022-07-29T08:37:51Z</time>
      </trkpt>
      <trkpt lat="46.50521" lon="5.63155">
        <ele>406</ele>
        <time>2022-07-29T08:37:52Z</time>
      </trkpt>
      <trkpt lat="46.50524" lon="5.6316">
        <ele>406.4</ele>
        <time>2022-07-29T08:38:02Z</time>
      </trkpt>
      <trkpt lat="46.50525" lon="5.6316">
        <ele>406.6</ele>
        <time>2022-07-29T08:38:03Z</time>
      </trkpt>
      <trkpt lat="46.50527" lon="5.6316">
        <ele>406.6</ele>
        <time>2022-07-29T08:38:04Z</time>
      </trkpt>
      <trkpt lat="46.50527" lon="5.63161">
        <ele>406.6</ele>
        <time>2022-07-29T08:38:05Z</time>
      </trkpt>
      <trkpt lat="46.50527" lon="5.63161">
        <ele>406.6</ele>
        <time>2022-07-29T08:38:06Z</time>
      </trkpt>
      <trkpt lat="46.50528" lon="5.63161">
        <ele>406.6</ele>
        <time>2022-07-29T08:38:07Z</time>
      </trkpt>
      <trkpt lat="46.50527" lon="5.63161">
        <ele>406.6</ele>
        <time>2022-07-29T08:38:08Z</time>
      </trkpt>
      <trkpt lat="46.50527" lon="5.63161">
        <ele>406.6</ele>
        <time>2022-07-29T08:38:10Z</time>
      </trkpt>
      <trkpt lat="46.50527" lon="5.63161">
        <ele>406.6</ele>
        <time>2022-07-29T08:38:11Z</time>
      </trkpt>
      <trkpt lat="46.50527" lon="5.63161">
        <ele>406.6</ele>
        <time>2022-07-29T08:38:12Z</time>
      </trkpt>
      <trkpt lat="46.50527" lon="5.63161">
        <ele>406.6</ele>
        <time>2022-07-29T08:38:13Z</time>
      </trkpt>
      <trkpt lat="46.50527" lon="5.63161">
        <ele>406.8</ele>
        <time>2022-07-29T08:38:19Z</time>
      </trkpt>
      <trkpt lat="46.50527" lon="5.63161">
        <ele>406.8</ele>
        <time>2022-07-29T08:38:20Z</time>
      </trkpt>
      <trkpt lat="46.50527" lon="5.63161">
        <ele>406.6</ele>
        <time>2022-07-29T08:41:31Z</time>
      </trkpt>
      <trkpt lat="46.50527" lon="5.63161">
        <ele>406.6</ele>
        <time>2022-07-29T08:41:32Z</time>
      </trkpt>
      <trkpt lat="46.50527" lon="5.63161">
        <ele>406.6</ele>
        <time>2022-07-29T08:41:33Z</time>
      </trkpt>
      <trkpt lat="46.50527" lon="5.63161">
        <ele>406.6</ele>
        <time>2022-07-29T08:41:34Z</time>
      </trkpt>
      <trkpt lat="46.50527" lon="5.63161">
        <ele>406.6</ele>
        <time>2022-07-29T08:41:35Z</time>
      </trkpt>
      <trkpt lat="46.50527" lon="5.63161">
        <ele>406.6</ele>
        <time>2022-07-29T08:41:36Z</time>
      </trkpt>
      <trkpt lat="46.50527" lon="5.63161">
        <ele>406.6</ele>
        <time>2022-07-29T08:41:38Z</time>
      </trkpt>
      <trkpt lat="46.50527" lon="5.63161">
        <ele>406.6</ele>
        <time>2022-07-29T08:41:39Z</time>
      </trkpt>
      <trkpt lat="46.50527" lon="5.63161">
        <ele>406.6</ele>
        <time>2022-07-29T08:41:40Z</time>
      </trkpt>
      <trkpt lat="46.50527" lon="5.63161">
        <ele>406.6</ele>
        <time>2022-07-29T08:41:41Z</time>
      </trkpt>
      <trkpt lat="46.50527" lon="5.63161">
        <ele>406.6</ele>
        <time>2022-07-29T08:41:42Z</time>
      </trkpt>
      <trkpt lat="46.50527" lon="5.63161">
        <ele>406.6</ele>
        <time>2022-07-29T08:41:43Z</time>
      </trkpt>
      <trkpt lat="46.50527" lon="5.63161">
        <ele>406.6</ele>
        <time>2022-07-29T08:41:44Z</time>
      </trkpt>
      <trkpt lat="46.50527" lon="5.63161">
        <ele>406.6</ele>
        <time>2022-07-29T08:41:45Z</time>
      </trkpt>
      <trkpt lat="46.50527" lon="5.63161">
        <ele>406.6</ele>
        <time>2022-07-29T08:41:46Z</time>
      </trkpt>
      <trkpt lat="46.50521" lon="5.63159">
        <ele>406.4</ele>
        <time>2022-07-29T08:41:47Z</time>
      </trkpt>
      <trkpt lat="46.50519" lon="5.63157">
        <ele>406.4</ele>
        <time>2022-07-29T08:41:48Z</time>
      </trkpt>
      <trkpt lat="46.50517" lon="5.63154">
        <ele>406.2</ele>
        <time>2022-07-29T08:41:49Z</time>
      </trkpt>
      <trkpt lat="46.50515" lon="5.6315">
        <ele>406.2</ele>
        <time>2022-07-29T08:41:50Z</time>
      </trkpt>
      <trkpt lat="46.50513" lon="5.63146">
        <ele>406.2</ele>
        <time>2022-07-29T08:41:51Z</time>
      </trkpt>
      <trkpt lat="46.50511" lon="5.63142">
        <ele>406.2</ele>
        <time>2022-07-29T08:41:52Z</time>
      </trkpt>
      <trkpt lat="46.5051" lon="5.63138">
        <ele>405.8</ele>
        <time>2022-07-29T08:41:53Z</time>
      </trkpt>
      <trkpt lat="46.50508" lon="5.63133">
        <ele>405.8</ele>
        <time>2022-07-29T08:41:54Z</time>
      </trkpt>
      <trkpt lat="46.50507" lon="5.63128">
        <ele>405.8</ele>
        <time>2022-07-29T08:41:55Z</time>
      </trkpt>
      <trkpt lat="46.50506" lon="5.63122">
        <ele>405.6</ele>
        <time>2022-07-29T08:41:56Z</time>
      </trkpt>
      <trkpt lat="46.50506" lon="5.63117">
        <ele>405.6</ele>
        <time>2022-07-29T08:41:57Z</time>
      </trkpt>
      <trkpt lat="46.50505" lon="5.63111">
        <ele>405.6</ele>
        <time>2022-07-29T08:41:58Z</time>
      </trkpt>
      <trkpt lat="46.50505" lon="5.63106">
        <ele>405.6</ele>
        <time>2022-07-29T08:41:59Z</time>
      </trkpt>
      <trkpt lat="46.50505" lon="5.63106">
        <ele>405.6</ele>
        <time>2022-07-29T08:42:00Z</time>
      </trkpt>
      <trkpt lat="46.50504" lon="5.631">
        <ele>405.6</ele>
        <time>2022-07-29T08:42:01Z</time>
      </trkpt>
      <trkpt lat="46.50503" lon="5.63095">
        <ele>406</ele>
        <time>2022-07-29T08:42:02Z</time>
      </trkpt>
      <trkpt lat="46.50503" lon="5.63089">
        <ele>406</ele>
        <time>2022-07-29T08:42:03Z</time>
      </trkpt>
      <trkpt lat="46.50502" lon="5.63084">
        <ele>406.2</ele>
        <time>2022-07-29T08:42:04Z</time>
      </trkpt>
      <trkpt lat="46.50501" lon="5.6308">
        <ele>406.2</ele>
        <time>2022-07-29T08:42:05Z</time>
      </trkpt>
      <trkpt lat="46.50501" lon="5.63075">
        <ele>406.6</ele>
        <time>2022-07-29T08:42:06Z</time>
      </trkpt>
      <trkpt lat="46.505" lon="5.6307">
        <ele>406.6</ele>
        <time>2022-07-29T08:42:07Z</time>
      </trkpt>
      <trkpt lat="46.50499" lon="5.63065">
        <ele>406.8</ele>
        <time>2022-07-29T08:42:08Z</time>
      </trkpt>
      <trkpt lat="46.50499" lon="5.6306">
        <ele>406.8</ele>
        <time>2022-07-29T08:42:09Z</time>
      </trkpt>
      <trkpt lat="46.50498" lon="5.63055">
        <ele>407</ele>
        <time>2022-07-29T08:42:10Z</time>
      </trkpt>
      <trkpt lat="46.50498" lon="5.63049">
        <ele>407</ele>
        <time>2022-07-29T08:42:11Z</time>
      </trkpt>
      <trkpt lat="46.50497" lon="5.63044">
        <ele>407.2</ele>
        <time>2022-07-29T08:42:12Z</time>
      </trkpt>
      <trkpt lat="46.50496" lon="5.63039">
        <ele>407.2</ele>
        <time>2022-07-29T08:42:13Z</time>
      </trkpt>
      <trkpt lat="46.50495" lon="5.63034">
        <ele>407.4</ele>
        <time>2022-07-29T08:42:14Z</time>
      </trkpt>
      <trkpt lat="46.50493" lon="5.63029">
        <ele>407.4</ele>
        <time>2022-07-29T08:42:15Z</time>
      </trkpt>
      <trkpt lat="46.50492" lon="5.63024">
        <ele>407.8</ele>
        <time>2022-07-29T08:42:16Z</time>
      </trkpt>
      <trkpt lat="46.50491" lon="5.63019">
        <ele>408</ele>
        <time>2022-07-29T08:42:17Z</time>
      </trkpt>
      <trkpt lat="46.5049" lon="5.63014">
        <ele>408.4</ele>
        <time>2022-07-29T08:42:18Z</time>
      </trkpt>
      <trkpt lat="46.50489" lon="5.6301">
        <ele>408.6</ele>
        <time>2022-07-29T08:42:19Z</time>
      </trkpt>
      <trkpt lat="46.50487" lon="5.63005">
        <ele>408.8</ele>
        <time>2022-07-29T08:42:20Z</time>
      </trkpt>
      <trkpt lat="46.50486" lon="5.63001">
        <ele>409.2</ele>
        <time>2022-07-29T08:42:21Z</time>
      </trkpt>
      <trkpt lat="46.50485" lon="5.62996">
        <ele>409.4</ele>
        <time>2022-07-29T08:42:22Z</time>
      </trkpt>
      <trkpt lat="46.50484" lon="5.62992">
        <ele>409.8</ele>
        <time>2022-07-29T08:42:23Z</time>
      </trkpt>
      <trkpt lat="46.50483" lon="5.62988">
        <ele>410</ele>
        <time>2022-07-29T08:42:24Z</time>
      </trkpt>
      <trkpt lat="46.50481" lon="5.62983">
        <ele>410.4</ele>
        <time>2022-07-29T08:42:25Z</time>
      </trkpt>
      <trkpt lat="46.5048" lon="5.62979">
        <ele>410.8</ele>
        <time>2022-07-29T08:42:26Z</time>
      </trkpt>
      <trkpt lat="46.50478" lon="5.62976">
        <ele>411</ele>
        <time>2022-07-29T08:42:27Z</time>
      </trkpt>
      <trkpt lat="46.50476" lon="5.62972">
        <ele>411.4</ele>
        <time>2022-07-29T08:42:28Z</time>
      </trkpt>
      <trkpt lat="46.50474" lon="5.62969">
        <ele>411.6</ele>
        <time>2022-07-29T08:42:29Z</time>
      </trkpt>
      <trkpt lat="46.50472" lon="5.62967">
        <ele>411.8</ele>
        <time>2022-07-29T08:42:30Z</time>
      </trkpt>
      <trkpt lat="46.50469" lon="5.62964">
        <ele>412</ele>
        <time>2022-07-29T08:42:31Z</time>
      </trkpt>
      <trkpt lat="46.50467" lon="5.62962">
        <ele>412.4</ele>
        <time>2022-07-29T08:42:32Z</time>
      </trkpt>
      <trkpt lat="46.50464" lon="5.62959">
        <ele>412.6</ele>
        <time>2022-07-29T08:42:33Z</time>
      </trkpt>
      <trkpt lat="46.50461" lon="5.62957">
        <ele>413</ele>
        <time>2022-07-29T08:42:34Z</time>
      </trkpt>
      <trkpt lat="46.50458" lon="5.62954">
        <ele>413.2</ele>
        <time>2022-07-29T08:42:35Z</time>
      </trkpt>
      <trkpt lat="46.50454" lon="5.62952">
        <ele>413.4</ele>
        <time>2022-07-29T08:42:36Z</time>
      </trkpt>
      <trkpt lat="46.50451" lon="5.6295">
        <ele>413.4</ele>
        <time>2022-07-29T08:42:37Z</time>
      </trkpt>
      <trkpt lat="46.50448" lon="5.62948">
        <ele>413.8</ele>
        <time>2022-07-29T08:42:38Z</time>
      </trkpt>
      <trkpt lat="46.50445" lon="5.62946">
        <ele>414</ele>
        <time>2022-07-29T08:42:39Z</time>
      </trkpt>
      <trkpt lat="46.50442" lon="5.62944">
        <ele>414.4</ele>
        <time>2022-07-29T08:42:40Z</time>
      </trkpt>
      <trkpt lat="46.50439" lon="5.62942">
        <ele>414.4</ele>
        <time>2022-07-29T08:42:41Z</time>
      </trkpt>
      <trkpt lat="46.50436" lon="5.6294">
        <ele>414.8</ele>
        <time>2022-07-29T08:42:42Z</time>
      </trkpt>
      <trkpt lat="46.50433" lon="5.62938">
        <ele>415</ele>
        <time>2022-07-29T08:42:43Z</time>
      </trkpt>
      <trkpt lat="46.5043" lon="5.62936">
        <ele>415.2</ele>
        <time>2022-07-29T08:42:44Z</time>
      </trkpt>
      <trkpt lat="46.50428" lon="5.62934">
        <ele>415.4</ele>
        <time>2022-07-29T08:42:45Z</time>
      </trkpt>
      <trkpt lat="46.50425" lon="5.62932">
        <ele>415.6</ele>
        <time>2022-07-29T08:42:46Z</time>
      </trkpt>
      <trkpt lat="46.50422" lon="5.6293">
        <ele>416</ele>
        <time>2022-07-29T08:42:47Z</time>
      </trkpt>
      <trkpt lat="46.50419" lon="5.62928">
        <ele>416.2</ele>
        <time>2022-07-29T08:42:48Z</time>
      </trkpt>
      <trkpt lat="46.50416" lon="5.62926">
        <ele>416.2</ele>
        <time>2022-07-29T08:42:49Z</time>
      </trkpt>
      <trkpt lat="46.50414" lon="5.62924">
        <ele>416.6</ele>
        <time>2022-07-29T08:42:50Z</time>
      </trkpt>
      <trkpt lat="46.50411" lon="5.62922">
        <ele>416.8</ele>
        <time>2022-07-29T08:42:51Z</time>
      </trkpt>
      <trkpt lat="46.50409" lon="5.62921">
        <ele>417</ele>
        <time>2022-07-29T08:42:52Z</time>
      </trkpt>
      <trkpt lat="46.50406" lon="5.6292">
        <ele>417</ele>
        <time>2022-07-29T08:42:53Z</time>
      </trkpt>
      <trkpt lat="46.50403" lon="5.62918">
        <ele>417.4</ele>
        <time>2022-07-29T08:42:54Z</time>
      </trkpt>
      <trkpt lat="46.50401" lon="5.62916">
        <ele>417.8</ele>
        <time>2022-07-29T08:42:55Z</time>
      </trkpt>
      <trkpt lat="46.50398" lon="5.62915">
        <ele>418</ele>
        <time>2022-07-29T08:42:56Z</time>
      </trkpt>
      <trkpt lat="46.50396" lon="5.62914">
        <ele>418.2</ele>
        <time>2022-07-29T08:42:57Z</time>
      </trkpt>
      <trkpt lat="46.50394" lon="5.62913">
        <ele>418.2</ele>
        <time>2022-07-29T08:42:58Z</time>
      </trkpt>
      <trkpt lat="46.50391" lon="5.62912">
        <ele>418.6</ele>
        <time>2022-07-29T08:42:59Z</time>
      </trkpt>
      <trkpt lat="46.50389" lon="5.62911">
        <ele>418.8</ele>
        <time>2022-07-29T08:43:00Z</time>
      </trkpt>
      <trkpt lat="46.50386" lon="5.6291">
        <ele>418.8</ele>
        <time>2022-07-29T08:43:01Z</time>
      </trkpt>
      <trkpt lat="46.50383" lon="5.62909">
        <ele>419.2</ele>
        <time>2022-07-29T08:43:02Z</time>
      </trkpt>
      <trkpt lat="46.50381" lon="5.62908">
        <ele>419.2</ele>
        <time>2022-07-29T08:43:03Z</time>
      </trkpt>
      <trkpt lat="46.50378" lon="5.62907">
        <ele>419.6</ele>
        <time>2022-07-29T08:43:04Z</time>
      </trkpt>
      <trkpt lat="46.50375" lon="5.62906">
        <ele>419.6</ele>
        <time>2022-07-29T08:43:05Z</time>
      </trkpt>
      <trkpt lat="46.50372" lon="5.62905">
        <ele>419.8</ele>
        <time>2022-07-29T08:43:06Z</time>
      </trkpt>
      <trkpt lat="46.5037" lon="5.62904">
        <ele>420</ele>
        <time>2022-07-29T08:43:07Z</time>
      </trkpt>
      <trkpt lat="46.50367" lon="5.62902">
        <ele>420</ele>
        <time>2022-07-29T08:43:08Z</time>
      </trkpt>
      <trkpt lat="46.50364" lon="5.62901">
        <ele>420.4</ele>
        <time>2022-07-29T08:43:09Z</time>
      </trkpt>
      <trkpt lat="46.50361" lon="5.629">
        <ele>420.4</ele>
        <time>2022-07-29T08:43:10Z</time>
      </trkpt>
      <trkpt lat="46.50359" lon="5.62898">
        <ele>420.8</ele>
        <time>2022-07-29T08:43:11Z</time>
      </trkpt>
      <trkpt lat="46.50356" lon="5.62896">
        <ele>421</ele>
        <time>2022-07-29T08:43:12Z</time>
      </trkpt>
      <trkpt lat="46.50353" lon="5.62894">
        <ele>421</ele>
        <time>2022-07-29T08:43:13Z</time>
      </trkpt>
      <trkpt lat="46.50351" lon="5.62893">
        <ele>421.4</ele>
        <time>2022-07-29T08:43:14Z</time>
      </trkpt>
      <trkpt lat="46.50348" lon="5.62891">
        <ele>421.4</ele>
        <time>2022-07-29T08:43:15Z</time>
      </trkpt>
      <trkpt lat="46.50346" lon="5.62888">
        <ele>421.6</ele>
        <time>2022-07-29T08:43:16Z</time>
      </trkpt>
      <trkpt lat="46.50344" lon="5.62884">
        <ele>422</ele>
        <time>2022-07-29T08:43:17Z</time>
      </trkpt>
      <trkpt lat="46.50341" lon="5.62882">
        <ele>422</ele>
        <time>2022-07-29T08:43:18Z</time>
      </trkpt>
      <trkpt lat="46.50339" lon="5.62878">
        <ele>422.4</ele>
        <time>2022-07-29T08:43:19Z</time>
      </trkpt>
      <trkpt lat="46.50337" lon="5.62875">
        <ele>422.6</ele>
        <time>2022-07-29T08:43:20Z</time>
      </trkpt>
      <trkpt lat="46.50336" lon="5.62872">
        <ele>422.8</ele>
        <time>2022-07-29T08:43:21Z</time>
      </trkpt>
      <trkpt lat="46.50334" lon="5.62869">
        <ele>423</ele>
        <time>2022-07-29T08:43:22Z</time>
      </trkpt>
      <trkpt lat="46.50333" lon="5.62866">
        <ele>423.4</ele>
        <time>2022-07-29T08:43:23Z</time>
      </trkpt>
      <trkpt lat="46.50332" lon="5.62862">
        <ele>423.6</ele>
        <time>2022-07-29T08:43:24Z</time>
      </trkpt>
      <trkpt lat="46.5033" lon="5.62859">
        <ele>423.8</ele>
        <time>2022-07-29T08:43:25Z</time>
      </trkpt>
      <trkpt lat="46.50329" lon="5.62855">
        <ele>423.8</ele>
        <time>2022-07-29T08:43:26Z</time>
      </trkpt>
      <trkpt lat="46.50328" lon="5.62851">
        <ele>424</ele>
        <time>2022-07-29T08:43:27Z</time>
      </trkpt>
      <trkpt lat="46.50327" lon="5.62847">
        <ele>424</ele>
        <time>2022-07-29T08:43:28Z</time>
      </trkpt>
      <trkpt lat="46.50327" lon="5.62843">
        <ele>424.4</ele>
        <time>2022-07-29T08:43:29Z</time>
      </trkpt>
      <trkpt lat="46.50326" lon="5.62839">
        <ele>424.4</ele>
        <time>2022-07-29T08:43:30Z</time>
      </trkpt>
      <trkpt lat="46.50326" lon="5.62835">
        <ele>424.8</ele>
        <time>2022-07-29T08:43:31Z</time>
      </trkpt>
      <trkpt lat="46.50325" lon="5.62831">
        <ele>424.8</ele>
        <time>2022-07-29T08:43:32Z</time>
      </trkpt>
      <trkpt lat="46.50325" lon="5.62827">
        <ele>425</ele>
        <time>2022-07-29T08:43:33Z</time>
      </trkpt>
      <trkpt lat="46.50325" lon="5.62823">
        <ele>425</ele>
        <time>2022-07-29T08:43:34Z</time>
      </trkpt>
      <trkpt lat="46.50326" lon="5.62819">
        <ele>425.4</ele>
        <time>2022-07-29T08:43:35Z</time>
      </trkpt>
      <trkpt lat="46.50326" lon="5.62816">
        <ele>425.6</ele>
        <time>2022-07-29T08:43:36Z</time>
      </trkpt>
      <trkpt lat="46.50327" lon="5.62812">
        <ele>425.6</ele>
        <time>2022-07-29T08:43:37Z</time>
      </trkpt>
      <trkpt lat="46.50329" lon="5.62808">
        <ele>426</ele>
        <time>2022-07-29T08:43:38Z</time>
      </trkpt>
      <trkpt lat="46.5033" lon="5.62805">
        <ele>426.2</ele>
        <time>2022-07-29T08:43:39Z</time>
      </trkpt>
      <trkpt lat="46.50331" lon="5.62801">
        <ele>426.2</ele>
        <time>2022-07-29T08:43:40Z</time>
      </trkpt>
      <trkpt lat="46.50333" lon="5.62797">
        <ele>426.4</ele>
        <time>2022-07-29T08:43:41Z</time>
      </trkpt>
      <trkpt lat="46.50334" lon="5.62794">
        <ele>426.4</ele>
        <time>2022-07-29T08:43:42Z</time>
      </trkpt>
      <trkpt lat="46.50336" lon="5.6279">
        <ele>426.8</ele>
        <time>2022-07-29T08:43:43Z</time>
      </trkpt>
      <trkpt lat="46.50337" lon="5.62787">
        <ele>427</ele>
        <time>2022-07-29T08:43:44Z</time>
      </trkpt>
      <trkpt lat="46.50339" lon="5.62784">
        <ele>427.2</ele>
        <time>2022-07-29T08:43:45Z</time>
      </trkpt>
      <trkpt lat="46.5034" lon="5.62781">
        <ele>427.4</ele>
        <time>2022-07-29T08:43:46Z</time>
      </trkpt>
      <trkpt lat="46.50342" lon="5.62778">
        <ele>427.4</ele>
        <time>2022-07-29T08:43:47Z</time>
      </trkpt>
      <trkpt lat="46.50343" lon="5.62775">
        <ele>427.8</ele>
        <time>2022-07-29T08:43:48Z</time>
      </trkpt>
      <trkpt lat="46.50345" lon="5.62772">
        <ele>428</ele>
        <time>2022-07-29T08:43:49Z</time>
      </trkpt>
      <trkpt lat="46.50347" lon="5.62769">
        <ele>428.2</ele>
        <time>2022-07-29T08:43:50Z</time>
      </trkpt>
      <trkpt lat="46.50348" lon="5.62766">
        <ele>428.4</ele>
        <time>2022-07-29T08:43:51Z</time>
      </trkpt>
      <trkpt lat="46.5035" lon="5.62764">
        <ele>428.6</ele>
        <time>2022-07-29T08:43:52Z</time>
      </trkpt>
      <trkpt lat="46.50352" lon="5.62761">
        <ele>428.6</ele>
        <time>2022-07-29T08:43:53Z</time>
      </trkpt>
      <trkpt lat="46.50354" lon="5.62758">
        <ele>429</ele>
        <time>2022-07-29T08:43:54Z</time>
      </trkpt>
      <trkpt lat="46.50356" lon="5.62756">
        <ele>429</ele>
        <time>2022-07-29T08:43:55Z</time>
      </trkpt>
      <trkpt lat="46.50358" lon="5.62753">
        <ele>429.4</ele>
        <time>2022-07-29T08:43:56Z</time>
      </trkpt>
      <trkpt lat="46.5036" lon="5.62751">
        <ele>429.4</ele>
        <time>2022-07-29T08:43:57Z</time>
      </trkpt>
      <trkpt lat="46.50361" lon="5.62749">
        <ele>429.6</ele>
        <time>2022-07-29T08:43:58Z</time>
      </trkpt>
      <trkpt lat="46.50363" lon="5.62746">
        <ele>429.8</ele>
        <time>2022-07-29T08:43:59Z</time>
      </trkpt>
      <trkpt lat="46.50365" lon="5.62744">
        <ele>430</ele>
        <time>2022-07-29T08:44:00Z</time>
      </trkpt>
      <trkpt lat="46.50367" lon="5.6274">
        <ele>430.2</ele>
        <time>2022-07-29T08:44:01Z</time>
      </trkpt>
      <trkpt lat="46.50369" lon="5.62737">
        <ele>430.4</ele>
        <time>2022-07-29T08:44:02Z</time>
      </trkpt>
      <trkpt lat="46.5037" lon="5.62733">
        <ele>430.4</ele>
        <time>2022-07-29T08:44:03Z</time>
      </trkpt>
      <trkpt lat="46.50372" lon="5.62729">
        <ele>430.8</ele>
        <time>2022-07-29T08:44:04Z</time>
      </trkpt>
      <trkpt lat="46.50374" lon="5.62725">
        <ele>431.2</ele>
        <time>2022-07-29T08:44:05Z</time>
      </trkpt>
      <trkpt lat="46.50375" lon="5.62721">
        <ele>431.2</ele>
        <time>2022-07-29T08:44:06Z</time>
      </trkpt>
      <trkpt lat="46.50377" lon="5.62718">
        <ele>431.4</ele>
        <time>2022-07-29T08:44:07Z</time>
      </trkpt>
      <trkpt lat="46.50378" lon="5.62714">
        <ele>431.6</ele>
        <time>2022-07-29T08:44:08Z</time>
      </trkpt>
      <trkpt lat="46.50379" lon="5.62711">
        <ele>431.6</ele>
        <time>2022-07-29T08:44:09Z</time>
      </trkpt>
      <trkpt lat="46.5038" lon="5.62707">
        <ele>432</ele>
        <time>2022-07-29T08:44:10Z</time>
      </trkpt>
      <trkpt lat="46.50381" lon="5.62703">
        <ele>432</ele>
        <time>2022-07-29T08:44:11Z</time>
      </trkpt>
      <trkpt lat="46.50382" lon="5.627">
        <ele>432</ele>
        <time>2022-07-29T08:44:12Z</time>
      </trkpt>
      <trkpt lat="46.50382" lon="5.62696">
        <ele>432.4</ele>
        <time>2022-07-29T08:44:13Z</time>
      </trkpt>
      <trkpt lat="46.50383" lon="5.62692">
        <ele>432.4</ele>
        <time>2022-07-29T08:44:14Z</time>
      </trkpt>
      <trkpt lat="46.50384" lon="5.62689">
        <ele>432.8</ele>
        <time>2022-07-29T08:44:15Z</time>
      </trkpt>
      <trkpt lat="46.50384" lon="5.62684">
        <ele>433</ele>
        <time>2022-07-29T08:44:16Z</time>
      </trkpt>
      <trkpt lat="46.50385" lon="5.6268">
        <ele>433</ele>
        <time>2022-07-29T08:44:17Z</time>
      </trkpt>
      <trkpt lat="46.50385" lon="5.62676">
        <ele>433.2</ele>
        <time>2022-07-29T08:44:18Z</time>
      </trkpt>
      <trkpt lat="46.50386" lon="5.62672">
        <ele>433.2</ele>
        <time>2022-07-29T08:44:19Z</time>
      </trkpt>
      <trkpt lat="46.50386" lon="5.62668">
        <ele>433.6</ele>
        <time>2022-07-29T08:44:20Z</time>
      </trkpt>
      <trkpt lat="46.50386" lon="5.62664">
        <ele>433.6</ele>
        <time>2022-07-29T08:44:21Z</time>
      </trkpt>
      <trkpt lat="46.50387" lon="5.6266">
        <ele>433.8</ele>
        <time>2022-07-29T08:44:22Z</time>
      </trkpt>
      <trkpt lat="46.50387" lon="5.62655">
        <ele>433.8</ele>
        <time>2022-07-29T08:44:23Z</time>
      </trkpt>
      <trkpt lat="46.50387" lon="5.62651">
        <ele>434.2</ele>
        <time>2022-07-29T08:44:24Z</time>
      </trkpt>
      <trkpt lat="46.50388" lon="5.62647">
        <ele>434.2</ele>
        <time>2022-07-29T08:44:25Z</time>
      </trkpt>
      <trkpt lat="46.50387" lon="5.62643">
        <ele>434.6</ele>
        <time>2022-07-29T08:44:26Z</time>
      </trkpt>
      <trkpt lat="46.50387" lon="5.62639">
        <ele>434.6</ele>
        <time>2022-07-29T08:44:27Z</time>
      </trkpt>
      <trkpt lat="46.50386" lon="5.62635">
        <ele>434.8</ele>
        <time>2022-07-29T08:44:28Z</time>
      </trkpt>
      <trkpt lat="46.50385" lon="5.62632">
        <ele>435</ele>
        <time>2022-07-29T08:44:29Z</time>
      </trkpt>
      <trkpt lat="46.50383" lon="5.62628">
        <ele>435</ele>
        <time>2022-07-29T08:44:30Z</time>
      </trkpt>
      <trkpt lat="46.50381" lon="5.62624">
        <ele>435.4</ele>
        <time>2022-07-29T08:44:31Z</time>
      </trkpt>
      <trkpt lat="46.5038" lon="5.6262">
        <ele>435.4</ele>
        <time>2022-07-29T08:44:32Z</time>
      </trkpt>
      <trkpt lat="46.50378" lon="5.62618">
        <ele>435.8</ele>
        <time>2022-07-29T08:44:33Z</time>
      </trkpt>
      <trkpt lat="46.50375" lon="5.62615">
        <ele>435.8</ele>
        <time>2022-07-29T08:44:34Z</time>
      </trkpt>
      <trkpt lat="46.50373" lon="5.62613">
        <ele>436.2</ele>
        <time>2022-07-29T08:44:35Z</time>
      </trkpt>
      <trkpt lat="46.50371" lon="5.62611">
        <ele>436.2</ele>
        <time>2022-07-29T08:44:36Z</time>
      </trkpt>
      <trkpt lat="46.50368" lon="5.62609">
        <ele>436.4</ele>
        <time>2022-07-29T08:44:37Z</time>
      </trkpt>
      <trkpt lat="46.50365" lon="5.62608">
        <ele>436.4</ele>
        <time>2022-07-29T08:44:38Z</time>
      </trkpt>
      <trkpt lat="46.50363" lon="5.62607">
        <ele>436.8</ele>
        <time>2022-07-29T08:44:39Z</time>
      </trkpt>
      <trkpt lat="46.5036" lon="5.62606">
        <ele>436.8</ele>
        <time>2022-07-29T08:44:40Z</time>
      </trkpt>
      <trkpt lat="46.50358" lon="5.62605">
        <ele>437.2</ele>
        <time>2022-07-29T08:44:41Z</time>
      </trkpt>
      <trkpt lat="46.50355" lon="5.62605">
        <ele>437.2</ele>
        <time>2022-07-29T08:44:42Z</time>
      </trkpt>
      <trkpt lat="46.50352" lon="5.62605">
        <ele>437.4</ele>
        <time>2022-07-29T08:44:43Z</time>
      </trkpt>
      <trkpt lat="46.50349" lon="5.62606">
        <ele>437.4</ele>
        <time>2022-07-29T08:44:44Z</time>
      </trkpt>
      <trkpt lat="46.50346" lon="5.62607">
        <ele>437.6</ele>
        <time>2022-07-29T08:44:45Z</time>
      </trkpt>
      <trkpt lat="46.50343" lon="5.62608">
        <ele>437.6</ele>
        <time>2022-07-29T08:44:46Z</time>
      </trkpt>
      <trkpt lat="46.5034" lon="5.6261">
        <ele>437.8</ele>
        <time>2022-07-29T08:44:47Z</time>
      </trkpt>
      <trkpt lat="46.50337" lon="5.62612">
        <ele>437.8</ele>
        <time>2022-07-29T08:44:48Z</time>
      </trkpt>
      <trkpt lat="46.50335" lon="5.62614">
        <ele>438.2</ele>
        <time>2022-07-29T08:44:49Z</time>
      </trkpt>
      <trkpt lat="46.50332" lon="5.62615">
        <ele>438.2</ele>
        <time>2022-07-29T08:44:50Z</time>
      </trkpt>
      <trkpt lat="46.50329" lon="5.62616">
        <ele>438.4</ele>
        <time>2022-07-29T08:44:51Z</time>
      </trkpt>
      <trkpt lat="46.50326" lon="5.62618">
        <ele>438.4</ele>
        <time>2022-07-29T08:44:52Z</time>
      </trkpt>
      <trkpt lat="46.50323" lon="5.62619">
        <ele>438.8</ele>
        <time>2022-07-29T08:44:53Z</time>
      </trkpt>
      <trkpt lat="46.50321" lon="5.62621">
        <ele>438.8</ele>
        <time>2022-07-29T08:44:54Z</time>
      </trkpt>
      <trkpt lat="46.50318" lon="5.62623">
        <ele>439</ele>
        <time>2022-07-29T08:44:55Z</time>
      </trkpt>
      <trkpt lat="46.50315" lon="5.62624">
        <ele>439</ele>
        <time>2022-07-29T08:44:56Z</time>
      </trkpt>
      <trkpt lat="46.50312" lon="5.62625">
        <ele>439.4</ele>
        <time>2022-07-29T08:44:57Z</time>
      </trkpt>
      <trkpt lat="46.50308" lon="5.62626">
        <ele>439.4</ele>
        <time>2022-07-29T08:44:58Z</time>
      </trkpt>
      <trkpt lat="46.50305" lon="5.62627">
        <ele>439.8</ele>
        <time>2022-07-29T08:44:59Z</time>
      </trkpt>
      <trkpt lat="46.50301" lon="5.62627">
        <ele>439.8</ele>
        <time>2022-07-29T08:45:00Z</time>
      </trkpt>
      <trkpt lat="46.50298" lon="5.62627">
        <ele>440.2</ele>
        <time>2022-07-29T08:45:01Z</time>
      </trkpt>
      <trkpt lat="46.50294" lon="5.62628">
        <ele>440.4</ele>
        <time>2022-07-29T08:45:02Z</time>
      </trkpt>
      <trkpt lat="46.50291" lon="5.62627">
        <ele>440.6</ele>
        <time>2022-07-29T08:45:03Z</time>
      </trkpt>
      <trkpt lat="46.50288" lon="5.62627">
        <ele>440.6</ele>
        <time>2022-07-29T08:45:04Z</time>
      </trkpt>
      <trkpt lat="46.50285" lon="5.62627">
        <ele>441</ele>
        <time>2022-07-29T08:45:05Z</time>
      </trkpt>
      <trkpt lat="46.50281" lon="5.62627">
        <ele>441</ele>
        <time>2022-07-29T08:45:06Z</time>
      </trkpt>
      <trkpt lat="46.50278" lon="5.62626">
        <ele>441.2</ele>
        <time>2022-07-29T08:45:07Z</time>
      </trkpt>
      <trkpt lat="46.50275" lon="5.62625">
        <ele>441.2</ele>
        <time>2022-07-29T08:45:08Z</time>
      </trkpt>
      <trkpt lat="46.50272" lon="5.62624">
        <ele>441.6</ele>
        <time>2022-07-29T08:45:09Z</time>
      </trkpt>
      <trkpt lat="46.50269" lon="5.62623">
        <ele>441.6</ele>
        <time>2022-07-29T08:45:10Z</time>
      </trkpt>
      <trkpt lat="46.50267" lon="5.62622">
        <ele>442</ele>
        <time>2022-07-29T08:45:11Z</time>
      </trkpt>
      <trkpt lat="46.50263" lon="5.6262">
        <ele>442</ele>
        <time>2022-07-29T08:45:12Z</time>
      </trkpt>
      <trkpt lat="46.50261" lon="5.62619">
        <ele>442.4</ele>
        <time>2022-07-29T08:45:13Z</time>
      </trkpt>
      <trkpt lat="46.50258" lon="5.62618">
        <ele>442.4</ele>
        <time>2022-07-29T08:45:14Z</time>
      </trkpt>
      <trkpt lat="46.50255" lon="5.62616">
        <ele>442.8</ele>
        <time>2022-07-29T08:45:15Z</time>
      </trkpt>
      <trkpt lat="46.50252" lon="5.62615">
        <ele>442.8</ele>
        <time>2022-07-29T08:45:16Z</time>
      </trkpt>
      <trkpt lat="46.50249" lon="5.62614">
        <ele>443.2</ele>
        <time>2022-07-29T08:45:17Z</time>
      </trkpt>
      <trkpt lat="46.50246" lon="5.62613">
        <ele>443.2</ele>
        <time>2022-07-29T08:45:18Z</time>
      </trkpt>
      <trkpt lat="46.50243" lon="5.62613">
        <ele>443.4</ele>
        <time>2022-07-29T08:45:19Z</time>
      </trkpt>
      <trkpt lat="46.5024" lon="5.62612">
        <ele>443.4</ele>
        <time>2022-07-29T08:45:20Z</time>
      </trkpt>
      <trkpt lat="46.50237" lon="5.62611">
        <ele>443.8</ele>
        <time>2022-07-29T08:45:21Z</time>
      </trkpt>
      <trkpt lat="46.50234" lon="5.6261">
        <ele>443.8</ele>
        <time>2022-07-29T08:45:22Z</time>
      </trkpt>
      <trkpt lat="46.50231" lon="5.62609">
        <ele>444</ele>
        <time>2022-07-29T08:45:23Z</time>
      </trkpt>
      <trkpt lat="46.50228" lon="5.62608">
        <ele>444</ele>
        <time>2022-07-29T08:45:24Z</time>
      </trkpt>
      <trkpt lat="46.50225" lon="5.62607">
        <ele>444.4</ele>
        <time>2022-07-29T08:45:25Z</time>
      </trkpt>
      <trkpt lat="46.50222" lon="5.62606">
        <ele>444.4</ele>
        <time>2022-07-29T08:45:26Z</time>
      </trkpt>
      <trkpt lat="46.50219" lon="5.62605">
        <ele>444.8</ele>
        <time>2022-07-29T08:45:27Z</time>
      </trkpt>
      <trkpt lat="46.50216" lon="5.62604">
        <ele>444.8</ele>
        <time>2022-07-29T08:45:28Z</time>
      </trkpt>
      <trkpt lat="46.50213" lon="5.62604">
        <ele>445.2</ele>
        <time>2022-07-29T08:45:29Z</time>
      </trkpt>
      <trkpt lat="46.5021" lon="5.62605">
        <ele>445.4</ele>
        <time>2022-07-29T08:45:30Z</time>
      </trkpt>
      <trkpt lat="46.50207" lon="5.62606">
        <ele>445.8</ele>
        <time>2022-07-29T08:45:31Z</time>
      </trkpt>
      <trkpt lat="46.50204" lon="5.62607">
        <ele>446</ele>
        <time>2022-07-29T08:45:32Z</time>
      </trkpt>
      <trkpt lat="46.50201" lon="5.62608">
        <ele>446.2</ele>
        <time>2022-07-29T08:45:33Z</time>
      </trkpt>
      <trkpt lat="46.50199" lon="5.62609">
        <ele>446.2</ele>
        <time>2022-07-29T08:45:34Z</time>
      </trkpt>
      <trkpt lat="46.50196" lon="5.62611">
        <ele>446.4</ele>
        <time>2022-07-29T08:45:35Z</time>
      </trkpt>
      <trkpt lat="46.50193" lon="5.62613">
        <ele>446.4</ele>
        <time>2022-07-29T08:45:36Z</time>
      </trkpt>
      <trkpt lat="46.5019" lon="5.62616">
        <ele>446.8</ele>
        <time>2022-07-29T08:45:37Z</time>
      </trkpt>
      <trkpt lat="46.50187" lon="5.62618">
        <ele>446.8</ele>
        <time>2022-07-29T08:45:38Z</time>
      </trkpt>
      <trkpt lat="46.50184" lon="5.62621">
        <ele>447.2</ele>
        <time>2022-07-29T08:45:39Z</time>
      </trkpt>
      <trkpt lat="46.50181" lon="5.62623">
        <ele>447.2</ele>
        <time>2022-07-29T08:45:40Z</time>
      </trkpt>
      <trkpt lat="46.50178" lon="5.62626">
        <ele>447.2</ele>
        <time>2022-07-29T08:45:41Z</time>
      </trkpt>
      <trkpt lat="46.50175" lon="5.62629">
        <ele>447.4</ele>
        <time>2022-07-29T08:45:42Z</time>
      </trkpt>
      <trkpt lat="46.50172" lon="5.62632">
        <ele>447.4</ele>
        <time>2022-07-29T08:45:43Z</time>
      </trkpt>
      <trkpt lat="46.5017" lon="5.62635">
        <ele>447.6</ele>
        <time>2022-07-29T08:45:44Z</time>
      </trkpt>
      <trkpt lat="46.50167" lon="5.62638">
        <ele>447.6</ele>
        <time>2022-07-29T08:45:45Z</time>
      </trkpt>
      <trkpt lat="46.50165" lon="5.62641">
        <ele>447.8</ele>
        <time>2022-07-29T08:45:46Z</time>
      </trkpt>
      <trkpt lat="46.50162" lon="5.62644">
        <ele>447.8</ele>
        <time>2022-07-29T08:45:47Z</time>
      </trkpt>
      <trkpt lat="46.50159" lon="5.62646">
        <ele>448.2</ele>
        <time>2022-07-29T08:45:48Z</time>
      </trkpt>
      <trkpt lat="46.50157" lon="5.62649">
        <ele>448.2</ele>
        <time>2022-07-29T08:45:49Z</time>
      </trkpt>
      <trkpt lat="46.50154" lon="5.62652">
        <ele>448.4</ele>
        <time>2022-07-29T08:45:50Z</time>
      </trkpt>
      <trkpt lat="46.50151" lon="5.62654">
        <ele>448.4</ele>
        <time>2022-07-29T08:45:51Z</time>
      </trkpt>
      <trkpt lat="46.50148" lon="5.62657">
        <ele>448.4</ele>
        <time>2022-07-29T08:45:52Z</time>
      </trkpt>
      <trkpt lat="46.50146" lon="5.6266">
        <ele>448.6</ele>
        <time>2022-07-29T08:45:53Z</time>
      </trkpt>
      <trkpt lat="46.50144" lon="5.62664">
        <ele>448.6</ele>
        <time>2022-07-29T08:45:54Z</time>
      </trkpt>
      <trkpt lat="46.50141" lon="5.62667">
        <ele>448.8</ele>
        <time>2022-07-29T08:45:55Z</time>
      </trkpt>
      <trkpt lat="46.50139" lon="5.62671">
        <ele>448.8</ele>
        <time>2022-07-29T08:45:56Z</time>
      </trkpt>
      <trkpt lat="46.50136" lon="5.62674">
        <ele>449.2</ele>
        <time>2022-07-29T08:45:57Z</time>
      </trkpt>
      <trkpt lat="46.50133" lon="5.62676">
        <ele>449.2</ele>
        <time>2022-07-29T08:45:58Z</time>
      </trkpt>
      <trkpt lat="46.5013" lon="5.62679">
        <ele>449.4</ele>
        <time>2022-07-29T08:45:59Z</time>
      </trkpt>
      <trkpt lat="46.50127" lon="5.62682">
        <ele>449.4</ele>
        <time>2022-07-29T08:46:00Z</time>
      </trkpt>
      <trkpt lat="46.50125" lon="5.62684">
        <ele>449.8</ele>
        <time>2022-07-29T08:46:01Z</time>
      </trkpt>
      <trkpt lat="46.50122" lon="5.62686">
        <ele>449.8</ele>
        <time>2022-07-29T08:46:02Z</time>
      </trkpt>
      <trkpt lat="46.50119" lon="5.62688">
        <ele>450</ele>
        <time>2022-07-29T08:46:03Z</time>
      </trkpt>
      <trkpt lat="46.50116" lon="5.62691">
        <ele>450</ele>
        <time>2022-07-29T08:46:04Z</time>
      </trkpt>
      <trkpt lat="46.50114" lon="5.62693">
        <ele>450.2</ele>
        <time>2022-07-29T08:46:05Z</time>
      </trkpt>
      <trkpt lat="46.50111" lon="5.62696">
        <ele>450.2</ele>
        <time>2022-07-29T08:46:06Z</time>
      </trkpt>
      <trkpt lat="46.50109" lon="5.62699">
        <ele>450.6</ele>
        <time>2022-07-29T08:46:07Z</time>
      </trkpt>
      <trkpt lat="46.50103" lon="5.62704">
        <ele>450.8</ele>
        <time>2022-07-29T08:46:09Z</time>
      </trkpt>
      <trkpt lat="46.501" lon="5.62708">
        <ele>451</ele>
        <time>2022-07-29T08:46:10Z</time>
      </trkpt>
      <trkpt lat="46.50096" lon="5.62711">
        <ele>451</ele>
        <time>2022-07-29T08:46:11Z</time>
      </trkpt>
      <trkpt lat="46.50093" lon="5.62714">
        <ele>451.2</ele>
        <time>2022-07-29T08:46:12Z</time>
      </trkpt>
      <trkpt lat="46.5009" lon="5.62717">
        <ele>451.2</ele>
        <time>2022-07-29T08:46:13Z</time>
      </trkpt>
      <trkpt lat="46.50086" lon="5.6272">
        <ele>451.2</ele>
        <time>2022-07-29T08:46:14Z</time>
      </trkpt>
      <trkpt lat="46.50082" lon="5.62723">
        <ele>451.4</ele>
        <time>2022-07-29T08:46:15Z</time>
      </trkpt>
      <trkpt lat="46.50078" lon="5.62725">
        <ele>451.4</ele>
        <time>2022-07-29T08:46:16Z</time>
      </trkpt>
      <trkpt lat="46.50075" lon="5.62727">
        <ele>451.6</ele>
        <time>2022-07-29T08:46:17Z</time>
      </trkpt>
      <trkpt lat="46.50071" lon="5.6273">
        <ele>451.6</ele>
        <time>2022-07-29T08:46:18Z</time>
      </trkpt>
      <trkpt lat="46.50067" lon="5.62732">
        <ele>451.8</ele>
        <time>2022-07-29T08:46:19Z</time>
      </trkpt>
      <trkpt lat="46.50064" lon="5.62735">
        <ele>451.8</ele>
        <time>2022-07-29T08:46:20Z</time>
      </trkpt>
      <trkpt lat="46.5006" lon="5.62738">
        <ele>452.2</ele>
        <time>2022-07-29T08:46:21Z</time>
      </trkpt>
      <trkpt lat="46.50056" lon="5.6274">
        <ele>452.2</ele>
        <time>2022-07-29T08:46:22Z</time>
      </trkpt>
      <trkpt lat="46.50052" lon="5.62742">
        <ele>452.2</ele>
        <time>2022-07-29T08:46:23Z</time>
      </trkpt>
      <trkpt lat="46.50048" lon="5.62744">
        <ele>452.4</ele>
        <time>2022-07-29T08:46:24Z</time>
      </trkpt>
      <trkpt lat="46.50044" lon="5.62745">
        <ele>452.4</ele>
        <time>2022-07-29T08:46:25Z</time>
      </trkpt>
      <trkpt lat="46.5004" lon="5.62746">
        <ele>452.4</ele>
        <time>2022-07-29T08:46:26Z</time>
      </trkpt>
      <trkpt lat="46.50036" lon="5.62748">
        <ele>452.8</ele>
        <time>2022-07-29T08:46:27Z</time>
      </trkpt>
      <trkpt lat="46.50031" lon="5.62749">
        <ele>452.8</ele>
        <time>2022-07-29T08:46:28Z</time>
      </trkpt>
      <trkpt lat="46.50027" lon="5.62751">
        <ele>452.8</ele>
        <time>2022-07-29T08:46:29Z</time>
      </trkpt>
      <trkpt lat="46.50023" lon="5.62752">
        <ele>453</ele>
        <time>2022-07-29T08:46:30Z</time>
      </trkpt>
      <trkpt lat="46.50019" lon="5.62753">
        <ele>453</ele>
        <time>2022-07-29T08:46:31Z</time>
      </trkpt>
      <trkpt lat="46.50014" lon="5.62754">
        <ele>453.2</ele>
        <time>2022-07-29T08:46:32Z</time>
      </trkpt>
      <trkpt lat="46.5001" lon="5.62755">
        <ele>453.2</ele>
        <time>2022-07-29T08:46:33Z</time>
      </trkpt>
      <trkpt lat="46.50006" lon="5.62756">
        <ele>453.6</ele>
        <time>2022-07-29T08:46:34Z</time>
      </trkpt>
      <trkpt lat="46.50002" lon="5.62757">
        <ele>453.6</ele>
        <time>2022-07-29T08:46:35Z</time>
      </trkpt>
      <trkpt lat="46.49998" lon="5.62758">
        <ele>453.6</ele>
        <time>2022-07-29T08:46:36Z</time>
      </trkpt>
      <trkpt lat="46.49994" lon="5.62759">
        <ele>453.8</ele>
        <time>2022-07-29T08:46:37Z</time>
      </trkpt>
      <trkpt lat="46.49989" lon="5.62759">
        <ele>453.8</ele>
        <time>2022-07-29T08:46:38Z</time>
      </trkpt>
      <trkpt lat="46.49985" lon="5.62759">
        <ele>454.2</ele>
        <time>2022-07-29T08:46:39Z</time>
      </trkpt>
      <trkpt lat="46.49981" lon="5.62758">
        <ele>454.2</ele>
        <time>2022-07-29T08:46:40Z</time>
      </trkpt>
      <trkpt lat="46.49977" lon="5.62757">
        <ele>454.4</ele>
        <time>2022-07-29T08:46:41Z</time>
      </trkpt>
      <trkpt lat="46.49973" lon="5.62754">
        <ele>454.4</ele>
        <time>2022-07-29T08:46:42Z</time>
      </trkpt>
      <trkpt lat="46.4997" lon="5.62751">
        <ele>454.6</ele>
        <time>2022-07-29T08:46:43Z</time>
      </trkpt>
      <trkpt lat="46.49967" lon="5.62747">
        <ele>454.6</ele>
        <time>2022-07-29T08:46:44Z</time>
      </trkpt>
      <trkpt lat="46.49965" lon="5.62742">
        <ele>454.6</ele>
        <time>2022-07-29T08:46:45Z</time>
      </trkpt>
      <trkpt lat="46.49963" lon="5.62736">
        <ele>454.8</ele>
        <time>2022-07-29T08:46:46Z</time>
      </trkpt>
      <trkpt lat="46.49963" lon="5.6273">
        <ele>454.8</ele>
        <time>2022-07-29T08:46:47Z</time>
      </trkpt>
      <trkpt lat="46.49964" lon="5.62724">
        <ele>454.8</ele>
        <time>2022-07-29T08:46:48Z</time>
      </trkpt>
      <trkpt lat="46.49967" lon="5.62719">
        <ele>454.8</ele>
        <time>2022-07-29T08:46:49Z</time>
      </trkpt>
      <trkpt lat="46.4997" lon="5.62714">
        <ele>454.8</ele>
        <time>2022-07-29T08:46:50Z</time>
      </trkpt>
      <trkpt lat="46.49973" lon="5.62711">
        <ele>454.8</ele>
        <time>2022-07-29T08:46:51Z</time>
      </trkpt>
      <trkpt lat="46.49975" lon="5.62707">
        <ele>454.8</ele>
        <time>2022-07-29T08:46:52Z</time>
      </trkpt>
      <trkpt lat="46.49977" lon="5.62703">
        <ele>454.8</ele>
        <time>2022-07-29T08:46:53Z</time>
      </trkpt>
      <trkpt lat="46.49978" lon="5.62697">
        <ele>454.8</ele>
        <time>2022-07-29T08:46:54Z</time>
      </trkpt>
      <trkpt lat="46.49977" lon="5.62692">
        <ele>454.8</ele>
        <time>2022-07-29T08:46:55Z</time>
      </trkpt>
      <trkpt lat="46.49975" lon="5.62686">
        <ele>454.8</ele>
        <time>2022-07-29T08:46:56Z</time>
      </trkpt>
      <trkpt lat="46.49972" lon="5.62682">
        <ele>454.6</ele>
        <time>2022-07-29T08:46:57Z</time>
      </trkpt>
      <trkpt lat="46.49969" lon="5.62678">
        <ele>454.6</ele>
        <time>2022-07-29T08:46:58Z</time>
      </trkpt>
      <trkpt lat="46.49966" lon="5.62673">
        <ele>454.8</ele>
        <time>2022-07-29T08:46:59Z</time>
      </trkpt>
      <trkpt lat="46.49963" lon="5.62669">
        <ele>454.8</ele>
        <time>2022-07-29T08:47:00Z</time>
      </trkpt>
      <trkpt lat="46.49961" lon="5.62664">
        <ele>455.2</ele>
        <time>2022-07-29T08:47:01Z</time>
      </trkpt>
      <trkpt lat="46.49958" lon="5.62659">
        <ele>455.2</ele>
        <time>2022-07-29T08:47:02Z</time>
      </trkpt>
      <trkpt lat="46.49956" lon="5.62654">
        <ele>455.4</ele>
        <time>2022-07-29T08:47:03Z</time>
      </trkpt>
      <trkpt lat="46.49954" lon="5.62649">
        <ele>455.4</ele>
        <time>2022-07-29T08:47:04Z</time>
      </trkpt>
      <trkpt lat="46.49952" lon="5.62644">
        <ele>455.8</ele>
        <time>2022-07-29T08:47:05Z</time>
      </trkpt>
      <trkpt lat="46.4995" lon="5.6264">
        <ele>455.8</ele>
        <time>2022-07-29T08:47:06Z</time>
      </trkpt>
      <trkpt lat="46.49948" lon="5.62635">
        <ele>456</ele>
        <time>2022-07-29T08:47:07Z</time>
      </trkpt>
      <trkpt lat="46.49946" lon="5.62631">
        <ele>456</ele>
        <time>2022-07-29T08:47:08Z</time>
      </trkpt>
      <trkpt lat="46.49945" lon="5.62626">
        <ele>456.4</ele>
        <time>2022-07-29T08:47:09Z</time>
      </trkpt>
      <trkpt lat="46.49943" lon="5.62622">
        <ele>456.4</ele>
        <time>2022-07-29T08:47:10Z</time>
      </trkpt>
      <trkpt lat="46.49941" lon="5.62617">
        <ele>456.6</ele>
        <time>2022-07-29T08:47:11Z</time>
      </trkpt>
      <trkpt lat="46.49939" lon="5.62612">
        <ele>456.6</ele>
        <time>2022-07-29T08:47:12Z</time>
      </trkpt>
      <trkpt lat="46.49937" lon="5.62607">
        <ele>457</ele>
        <time>2022-07-29T08:47:13Z</time>
      </trkpt>
      <trkpt lat="46.49934" lon="5.62603">
        <ele>457.2</ele>
        <time>2022-07-29T08:47:14Z</time>
      </trkpt>
      <trkpt lat="46.49932" lon="5.62598">
        <ele>457.2</ele>
        <time>2022-07-29T08:47:15Z</time>
      </trkpt>
      <trkpt lat="46.4993" lon="5.62594">
        <ele>457.6</ele>
        <time>2022-07-29T08:47:16Z</time>
      </trkpt>
      <trkpt lat="46.49928" lon="5.6259">
        <ele>457.6</ele>
        <time>2022-07-29T08:47:17Z</time>
      </trkpt>
      <trkpt lat="46.49925" lon="5.62585">
        <ele>458</ele>
        <time>2022-07-29T08:47:18Z</time>
      </trkpt>
      <trkpt lat="46.49923" lon="5.62581">
        <ele>458.2</ele>
        <time>2022-07-29T08:47:19Z</time>
      </trkpt>
      <trkpt lat="46.4992" lon="5.62577">
        <ele>458.2</ele>
        <time>2022-07-29T08:47:20Z</time>
      </trkpt>
      <trkpt lat="46.49917" lon="5.62573">
        <ele>458.4</ele>
        <time>2022-07-29T08:47:21Z</time>
      </trkpt>
      <trkpt lat="46.49914" lon="5.62569">
        <ele>458.4</ele>
        <time>2022-07-29T08:47:22Z</time>
      </trkpt>
      <trkpt lat="46.49911" lon="5.62564">
        <ele>458.8</ele>
        <time>2022-07-29T08:47:23Z</time>
      </trkpt>
      <trkpt lat="46.49908" lon="5.6256">
        <ele>459</ele>
        <time>2022-07-29T08:47:24Z</time>
      </trkpt>
      <trkpt lat="46.49904" lon="5.62555">
        <ele>459</ele>
        <time>2022-07-29T08:47:25Z</time>
      </trkpt>
      <trkpt lat="46.49901" lon="5.62551">
        <ele>459</ele>
        <time>2022-07-29T08:47:26Z</time>
      </trkpt>
      <trkpt lat="46.49898" lon="5.62546">
        <ele>459.2</ele>
        <time>2022-07-29T08:47:27Z</time>
      </trkpt>
      <trkpt lat="46.49895" lon="5.62542">
        <ele>459.2</ele>
        <time>2022-07-29T08:47:28Z</time>
      </trkpt>
      <trkpt lat="46.49892" lon="5.62537">
        <ele>459.6</ele>
        <time>2022-07-29T08:47:29Z</time>
      </trkpt>
      <trkpt lat="46.49889" lon="5.62533">
        <ele>459.6</ele>
        <time>2022-07-29T08:47:30Z</time>
      </trkpt>
      <trkpt lat="46.49886" lon="5.62528">
        <ele>459.8</ele>
        <time>2022-07-29T08:47:31Z</time>
      </trkpt>
      <trkpt lat="46.49883" lon="5.62524">
        <ele>459.8</ele>
        <time>2022-07-29T08:47:32Z</time>
      </trkpt>
      <trkpt lat="46.4988" lon="5.6252">
        <ele>459.8</ele>
        <time>2022-07-29T08:47:33Z</time>
      </trkpt>
      <trkpt lat="46.49877" lon="5.62517">
        <ele>460</ele>
        <time>2022-07-29T08:47:34Z</time>
      </trkpt>
      <trkpt lat="46.49874" lon="5.62512">
        <ele>460</ele>
        <time>2022-07-29T08:47:35Z</time>
      </trkpt>
      <trkpt lat="46.49871" lon="5.62508">
        <ele>460.2</ele>
        <time>2022-07-29T08:47:36Z</time>
      </trkpt>
      <trkpt lat="46.49867" lon="5.62504">
        <ele>460.2</ele>
        <time>2022-07-29T08:47:37Z</time>
      </trkpt>
      <trkpt lat="46.49865" lon="5.625">
        <ele>460.6</ele>
        <time>2022-07-29T08:47:38Z</time>
      </trkpt>
      <trkpt lat="46.49862" lon="5.62496">
        <ele>460.6</ele>
        <time>2022-07-29T08:47:39Z</time>
      </trkpt>
      <trkpt lat="46.49858" lon="5.62491">
        <ele>460.8</ele>
        <time>2022-07-29T08:47:40Z</time>
      </trkpt>
      <trkpt lat="46.49855" lon="5.62487">
        <ele>460.8</ele>
        <time>2022-07-29T08:47:41Z</time>
      </trkpt>
      <trkpt lat="46.49852" lon="5.62483">
        <ele>461.2</ele>
        <time>2022-07-29T08:47:42Z</time>
      </trkpt>
      <trkpt lat="46.49849" lon="5.62479">
        <ele>461.2</ele>
        <time>2022-07-29T08:47:43Z</time>
      </trkpt>
      <trkpt lat="46.49845" lon="5.62474">
        <ele>461.4</ele>
        <time>2022-07-29T08:47:44Z</time>
      </trkpt>
      <trkpt lat="46.49842" lon="5.6247">
        <ele>461.4</ele>
        <time>2022-07-29T08:47:45Z</time>
      </trkpt>
      <trkpt lat="46.49839" lon="5.62465">
        <ele>461.6</ele>
        <time>2022-07-29T08:47:46Z</time>
      </trkpt>
      <trkpt lat="46.49836" lon="5.6246">
        <ele>461.6</ele>
        <time>2022-07-29T08:47:47Z</time>
      </trkpt>
      <trkpt lat="46.49833" lon="5.62455">
        <ele>461.6</ele>
        <time>2022-07-29T08:47:48Z</time>
      </trkpt>
      <trkpt lat="46.49829" lon="5.62451">
        <ele>462</ele>
        <time>2022-07-29T08:47:49Z</time>
      </trkpt>
      <trkpt lat="46.49826" lon="5.62446">
        <ele>462</ele>
        <time>2022-07-29T08:47:50Z</time>
      </trkpt>
      <trkpt lat="46.49823" lon="5.62442">
        <ele>462</ele>
        <time>2022-07-29T08:47:51Z</time>
      </trkpt>
      <trkpt lat="46.49819" lon="5.62437">
        <ele>462.2</ele>
        <time>2022-07-29T08:47:52Z</time>
      </trkpt>
      <trkpt lat="46.49816" lon="5.62433">
        <ele>462.2</ele>
        <time>2022-07-29T08:47:53Z</time>
      </trkpt>
      <trkpt lat="46.49813" lon="5.62429">
        <ele>462.2</ele>
        <time>2022-07-29T08:47:54Z</time>
      </trkpt>
      <trkpt lat="46.4981" lon="5.62424">
        <ele>462.4</ele>
        <time>2022-07-29T08:47:55Z</time>
      </trkpt>
      <trkpt lat="46.49807" lon="5.6242">
        <ele>462.4</ele>
        <time>2022-07-29T08:47:56Z</time>
      </trkpt>
      <trkpt lat="46.49804" lon="5.62416">
        <ele>462.6</ele>
        <time>2022-07-29T08:47:57Z</time>
      </trkpt>
      <trkpt lat="46.498" lon="5.62411">
        <ele>462.6</ele>
        <time>2022-07-29T08:47:58Z</time>
      </trkpt>
      <trkpt lat="46.49797" lon="5.62406">
        <ele>463</ele>
        <time>2022-07-29T08:47:59Z</time>
      </trkpt>
      <trkpt lat="46.49794" lon="5.62402">
        <ele>463</ele>
        <time>2022-07-29T08:48:00Z</time>
      </trkpt>
      <trkpt lat="46.49791" lon="5.62397">
        <ele>463</ele>
        <time>2022-07-29T08:48:01Z</time>
      </trkpt>
      <trkpt lat="46.49788" lon="5.62392">
        <ele>463.2</ele>
        <time>2022-07-29T08:48:02Z</time>
      </trkpt>
      <trkpt lat="46.49785" lon="5.62388">
        <ele>463.2</ele>
        <time>2022-07-29T08:48:03Z</time>
      </trkpt>
      <trkpt lat="46.49781" lon="5.62384">
        <ele>463.4</ele>
        <time>2022-07-29T08:48:04Z</time>
      </trkpt>
      <trkpt lat="46.49778" lon="5.6238">
        <ele>463.4</ele>
        <time>2022-07-29T08:48:05Z</time>
      </trkpt>
      <trkpt lat="46.49775" lon="5.62376">
        <ele>463.8</ele>
        <time>2022-07-29T08:48:06Z</time>
      </trkpt>
      <trkpt lat="46.49772" lon="5.62372">
        <ele>463.8</ele>
        <time>2022-07-29T08:48:07Z</time>
      </trkpt>
      <trkpt lat="46.49769" lon="5.62368">
        <ele>464</ele>
        <time>2022-07-29T08:48:08Z</time>
      </trkpt>
      <trkpt lat="46.49765" lon="5.62365">
        <ele>464</ele>
        <time>2022-07-29T08:48:09Z</time>
      </trkpt>
      <trkpt lat="46.49762" lon="5.62361">
        <ele>464.4</ele>
        <time>2022-07-29T08:48:10Z</time>
      </trkpt>
      <trkpt lat="46.49759" lon="5.62357">
        <ele>464.4</ele>
        <time>2022-07-29T08:48:11Z</time>
      </trkpt>
      <trkpt lat="46.49756" lon="5.62354">
        <ele>464.6</ele>
        <time>2022-07-29T08:48:12Z</time>
      </trkpt>
      <trkpt lat="46.49752" lon="5.6235">
        <ele>464.6</ele>
        <time>2022-07-29T08:48:13Z</time>
      </trkpt>
      <trkpt lat="46.49749" lon="5.62347">
        <ele>464.8</ele>
        <time>2022-07-29T08:48:14Z</time>
      </trkpt>
      <trkpt lat="46.49745" lon="5.62344">
        <ele>464.8</ele>
        <time>2022-07-29T08:48:15Z</time>
      </trkpt>
      <trkpt lat="46.49741" lon="5.6234">
        <ele>465.2</ele>
        <time>2022-07-29T08:48:16Z</time>
      </trkpt>
      <trkpt lat="46.49738" lon="5.62337">
        <ele>465.2</ele>
        <time>2022-07-29T08:48:17Z</time>
      </trkpt>
      <trkpt lat="46.49734" lon="5.62334">
        <ele>465.4</ele>
        <time>2022-07-29T08:48:18Z</time>
      </trkpt>
      <trkpt lat="46.49729" lon="5.62331">
        <ele>465.4</ele>
        <time>2022-07-29T08:48:19Z</time>
      </trkpt>
      <trkpt lat="46.49725" lon="5.62328">
        <ele>465.4</ele>
        <time>2022-07-29T08:48:20Z</time>
      </trkpt>
      <trkpt lat="46.49721" lon="5.62325">
        <ele>465.8</ele>
        <time>2022-07-29T08:48:21Z</time>
      </trkpt>
      <trkpt lat="46.49717" lon="5.62322">
        <ele>465.8</ele>
        <time>2022-07-29T08:48:22Z</time>
      </trkpt>
      <trkpt lat="46.49712" lon="5.62319">
        <ele>466</ele>
        <time>2022-07-29T08:48:23Z</time>
      </trkpt>
      <trkpt lat="46.49708" lon="5.62316">
        <ele>466</ele>
        <time>2022-07-29T08:48:24Z</time>
      </trkpt>
      <trkpt lat="46.49703" lon="5.62314">
        <ele>466.4</ele>
        <time>2022-07-29T08:48:25Z</time>
      </trkpt>
      <trkpt lat="46.49699" lon="5.62311">
        <ele>466.4</ele>
        <time>2022-07-29T08:48:26Z</time>
      </trkpt>
      <trkpt lat="46.49694" lon="5.62309">
        <ele>466.6</ele>
        <time>2022-07-29T08:48:27Z</time>
      </trkpt>
      <trkpt lat="46.4969" lon="5.62307">
        <ele>466.6</ele>
        <time>2022-07-29T08:48:28Z</time>
      </trkpt>
      <trkpt lat="46.49685" lon="5.62305">
        <ele>466.8</ele>
        <time>2022-07-29T08:48:29Z</time>
      </trkpt>
      <trkpt lat="46.4968" lon="5.62303">
        <ele>466.8</ele>
        <time>2022-07-29T08:48:30Z</time>
      </trkpt>
      <trkpt lat="46.49675" lon="5.62302">
        <ele>467.2</ele>
        <time>2022-07-29T08:48:31Z</time>
      </trkpt>
      <trkpt lat="46.49671" lon="5.62301">
        <ele>467.2</ele>
        <time>2022-07-29T08:48:32Z</time>
      </trkpt>
      <trkpt lat="46.49666" lon="5.623">
        <ele>467.6</ele>
        <time>2022-07-29T08:48:33Z</time>
      </trkpt>
      <trkpt lat="46.49661" lon="5.623">
        <ele>467.6</ele>
        <time>2022-07-29T08:48:34Z</time>
      </trkpt>
      <trkpt lat="46.49656" lon="5.623">
        <ele>467.8</ele>
        <time>2022-07-29T08:48:35Z</time>
      </trkpt>
      <trkpt lat="46.49651" lon="5.623">
        <ele>467.8</ele>
        <time>2022-07-29T08:48:36Z</time>
      </trkpt>
      <trkpt lat="46.49647" lon="5.623">
        <ele>468</ele>
        <time>2022-07-29T08:48:37Z</time>
      </trkpt>
      <trkpt lat="46.49642" lon="5.623">
        <ele>468</ele>
        <time>2022-07-29T08:48:38Z</time>
      </trkpt>
      <trkpt lat="46.49637" lon="5.623">
        <ele>468.4</ele>
        <time>2022-07-29T08:48:39Z</time>
      </trkpt>
      <trkpt lat="46.49633" lon="5.623">
        <ele>468.4</ele>
        <time>2022-07-29T08:48:40Z</time>
      </trkpt>
      <trkpt lat="46.49628" lon="5.623">
        <ele>468.6</ele>
        <time>2022-07-29T08:48:41Z</time>
      </trkpt>
      <trkpt lat="46.49624" lon="5.623">
        <ele>468.6</ele>
        <time>2022-07-29T08:48:42Z</time>
      </trkpt>
      <trkpt lat="46.49619" lon="5.623">
        <ele>468.6</ele>
        <time>2022-07-29T08:48:43Z</time>
      </trkpt>
      <trkpt lat="46.49614" lon="5.62299">
        <ele>468.8</ele>
        <time>2022-07-29T08:48:44Z</time>
      </trkpt>
      <trkpt lat="46.4961" lon="5.62299">
        <ele>468.8</ele>
        <time>2022-07-29T08:48:45Z</time>
      </trkpt>
      <trkpt lat="46.49605" lon="5.62298">
        <ele>469.2</ele>
        <time>2022-07-29T08:48:46Z</time>
      </trkpt>
      <trkpt lat="46.49601" lon="5.62298">
        <ele>469.4</ele>
        <time>2022-07-29T08:48:47Z</time>
      </trkpt>
      <trkpt lat="46.49596" lon="5.62297">
        <ele>469.4</ele>
        <time>2022-07-29T08:48:48Z</time>
      </trkpt>
      <trkpt lat="46.49592" lon="5.62297">
        <ele>469.6</ele>
        <time>2022-07-29T08:48:49Z</time>
      </trkpt>
      <trkpt lat="46.49587" lon="5.62296">
        <ele>469.6</ele>
        <time>2022-07-29T08:48:50Z</time>
      </trkpt>
      <trkpt lat="46.49582" lon="5.62295">
        <ele>469.8</ele>
        <time>2022-07-29T08:48:51Z</time>
      </trkpt>
      <trkpt lat="46.49578" lon="5.62295">
        <ele>469.8</ele>
        <time>2022-07-29T08:48:52Z</time>
      </trkpt>
      <trkpt lat="46.49573" lon="5.62294">
        <ele>469.8</ele>
        <time>2022-07-29T08:48:53Z</time>
      </trkpt>
      <trkpt lat="46.49569" lon="5.62293">
        <ele>470.2</ele>
        <time>2022-07-29T08:48:54Z</time>
      </trkpt>
      <trkpt lat="46.49564" lon="5.62292">
        <ele>470.2</ele>
        <time>2022-07-29T08:48:55Z</time>
      </trkpt>
      <trkpt lat="46.4956" lon="5.62291">
        <ele>470.6</ele>
        <time>2022-07-29T08:48:56Z</time>
      </trkpt>
      <trkpt lat="46.49555" lon="5.6229">
        <ele>470.6</ele>
        <time>2022-07-29T08:48:57Z</time>
      </trkpt>
      <trkpt lat="46.49551" lon="5.62289">
        <ele>470.8</ele>
        <time>2022-07-29T08:48:58Z</time>
      </trkpt>
      <trkpt lat="46.49547" lon="5.62288">
        <ele>470.8</ele>
        <time>2022-07-29T08:48:59Z</time>
      </trkpt>
      <trkpt lat="46.49542" lon="5.62288">
        <ele>471.2</ele>
        <time>2022-07-29T08:49:00Z</time>
      </trkpt>
      <trkpt lat="46.49538" lon="5.62287">
        <ele>471.2</ele>
        <time>2022-07-29T08:49:01Z</time>
      </trkpt>
      <trkpt lat="46.49534" lon="5.62285">
        <ele>471.4</ele>
        <time>2022-07-29T08:49:02Z</time>
      </trkpt>
      <trkpt lat="46.4953" lon="5.62284">
        <ele>471.4</ele>
        <time>2022-07-29T08:49:03Z</time>
      </trkpt>
      <trkpt lat="46.49526" lon="5.62283">
        <ele>471.6</ele>
        <time>2022-07-29T08:49:04Z</time>
      </trkpt>
      <trkpt lat="46.49521" lon="5.62282">
        <ele>471.6</ele>
        <time>2022-07-29T08:49:05Z</time>
      </trkpt>
      <trkpt lat="46.49517" lon="5.62281">
        <ele>471.8</ele>
        <time>2022-07-29T08:49:06Z</time>
      </trkpt>
      <trkpt lat="46.49513" lon="5.6228">
        <ele>471.8</ele>
        <time>2022-07-29T08:49:07Z</time>
      </trkpt>
      <trkpt lat="46.49509" lon="5.6228">
        <ele>472</ele>
        <time>2022-07-29T08:49:08Z</time>
      </trkpt>
      <trkpt lat="46.49505" lon="5.62279">
        <ele>472</ele>
        <time>2022-07-29T08:49:09Z</time>
      </trkpt>
      <trkpt lat="46.495" lon="5.62278">
        <ele>472.4</ele>
        <time>2022-07-29T08:49:10Z</time>
      </trkpt>
      <trkpt lat="46.49496" lon="5.62277">
        <ele>472.4</ele>
        <time>2022-07-29T08:49:11Z</time>
      </trkpt>
      <trkpt lat="46.49492" lon="5.62277">
        <ele>472.6</ele>
        <time>2022-07-29T08:49:12Z</time>
      </trkpt>
      <trkpt lat="46.49487" lon="5.62276">
        <ele>472.6</ele>
        <time>2022-07-29T08:49:13Z</time>
      </trkpt>
      <trkpt lat="46.49483" lon="5.62275">
        <ele>472.6</ele>
        <time>2022-07-29T08:49:14Z</time>
      </trkpt>
      <trkpt lat="46.49479" lon="5.62274">
        <ele>473</ele>
        <time>2022-07-29T08:49:15Z</time>
      </trkpt>
      <trkpt lat="46.49475" lon="5.62273">
        <ele>473</ele>
        <time>2022-07-29T08:49:16Z</time>
      </trkpt>
      <trkpt lat="46.49471" lon="5.62272">
        <ele>473.2</ele>
        <time>2022-07-29T08:49:17Z</time>
      </trkpt>
      <trkpt lat="46.49467" lon="5.62272">
        <ele>473.2</ele>
        <time>2022-07-29T08:49:18Z</time>
      </trkpt>
      <trkpt lat="46.49462" lon="5.62272">
        <ele>473.4</ele>
        <time>2022-07-29T08:49:19Z</time>
      </trkpt>
      <trkpt lat="46.49458" lon="5.62272">
        <ele>473.4</ele>
        <time>2022-07-29T08:49:20Z</time>
      </trkpt>
      <trkpt lat="46.49454" lon="5.62273">
        <ele>473.8</ele>
        <time>2022-07-29T08:49:21Z</time>
      </trkpt>
      <trkpt lat="46.4945" lon="5.62274">
        <ele>473.8</ele>
        <time>2022-07-29T08:49:22Z</time>
      </trkpt>
      <trkpt lat="46.49446" lon="5.62275">
        <ele>474.2</ele>
        <time>2022-07-29T08:49:23Z</time>
      </trkpt>
      <trkpt lat="46.49443" lon="5.62278">
        <ele>474.2</ele>
        <time>2022-07-29T08:49:24Z</time>
      </trkpt>
      <trkpt lat="46.49439" lon="5.6228">
        <ele>474.4</ele>
        <time>2022-07-29T08:49:25Z</time>
      </trkpt>
      <trkpt lat="46.49435" lon="5.62282">
        <ele>474.4</ele>
        <time>2022-07-29T08:49:26Z</time>
      </trkpt>
      <trkpt lat="46.49431" lon="5.62284">
        <ele>474.4</ele>
        <time>2022-07-29T08:49:27Z</time>
      </trkpt>
      <trkpt lat="46.49427" lon="5.62286">
        <ele>474.6</ele>
        <time>2022-07-29T08:49:28Z</time>
      </trkpt>
      <trkpt lat="46.49423" lon="5.62288">
        <ele>474.6</ele>
        <time>2022-07-29T08:49:29Z</time>
      </trkpt>
      <trkpt lat="46.49419" lon="5.6229">
        <ele>474.8</ele>
        <time>2022-07-29T08:49:30Z</time>
      </trkpt>
      <trkpt lat="46.49414" lon="5.62291">
        <ele>474.8</ele>
        <time>2022-07-29T08:49:31Z</time>
      </trkpt>
      <trkpt lat="46.4941" lon="5.62291">
        <ele>475.2</ele>
        <time>2022-07-29T08:49:32Z</time>
      </trkpt>
      <trkpt lat="46.49405" lon="5.62292">
        <ele>475.2</ele>
        <time>2022-07-29T08:49:33Z</time>
      </trkpt>
      <trkpt lat="46.494" lon="5.62291">
        <ele>475.4</ele>
        <time>2022-07-29T08:49:34Z</time>
      </trkpt>
      <trkpt lat="46.49396" lon="5.62291">
        <ele>475.4</ele>
        <time>2022-07-29T08:49:35Z</time>
      </trkpt>
      <trkpt lat="46.49391" lon="5.62289">
        <ele>475.6</ele>
        <time>2022-07-29T08:49:36Z</time>
      </trkpt>
      <trkpt lat="46.49386" lon="5.62288">
        <ele>475.6</ele>
        <time>2022-07-29T08:49:37Z</time>
      </trkpt>
      <trkpt lat="46.49382" lon="5.62286">
        <ele>476</ele>
        <time>2022-07-29T08:49:38Z</time>
      </trkpt>
      <trkpt lat="46.49378" lon="5.62283">
        <ele>476.2</ele>
        <time>2022-07-29T08:49:39Z</time>
      </trkpt>
      <trkpt lat="46.49374" lon="5.62281">
        <ele>476.2</ele>
        <time>2022-07-29T08:49:40Z</time>
      </trkpt>
      <trkpt lat="46.4937" lon="5.62278">
        <ele>476.6</ele>
        <time>2022-07-29T08:49:41Z</time>
      </trkpt>
      <trkpt lat="46.49366" lon="5.62275">
        <ele>476.6</ele>
        <time>2022-07-29T08:49:42Z</time>
      </trkpt>
      <trkpt lat="46.49362" lon="5.62272">
        <ele>476.8</ele>
        <time>2022-07-29T08:49:43Z</time>
      </trkpt>
      <trkpt lat="46.49358" lon="5.62269">
        <ele>476.8</ele>
        <time>2022-07-29T08:49:44Z</time>
      </trkpt>
      <trkpt lat="46.49354" lon="5.62266">
        <ele>477</ele>
        <time>2022-07-29T08:49:45Z</time>
      </trkpt>
      <trkpt lat="46.4935" lon="5.62263">
        <ele>477</ele>
        <time>2022-07-29T08:49:46Z</time>
      </trkpt>
      <trkpt lat="46.49346" lon="5.6226">
        <ele>477</ele>
        <time>2022-07-29T08:49:47Z</time>
      </trkpt>
      <trkpt lat="46.49342" lon="5.62258">
        <ele>477.4</ele>
        <time>2022-07-29T08:49:48Z</time>
      </trkpt>
      <trkpt lat="46.49338" lon="5.62254">
        <ele>477.4</ele>
        <time>2022-07-29T08:49:49Z</time>
      </trkpt>
      <trkpt lat="46.49334" lon="5.62251">
        <ele>477.6</ele>
        <time>2022-07-29T08:49:50Z</time>
      </trkpt>
      <trkpt lat="46.4933" lon="5.62249">
        <ele>477.6</ele>
        <time>2022-07-29T08:49:51Z</time>
      </trkpt>
      <trkpt lat="46.49325" lon="5.62246">
        <ele>477.8</ele>
        <time>2022-07-29T08:49:52Z</time>
      </trkpt>
      <trkpt lat="46.49321" lon="5.62243">
        <ele>477.8</ele>
        <time>2022-07-29T08:49:53Z</time>
      </trkpt>
      <trkpt lat="46.49316" lon="5.62241">
        <ele>477.8</ele>
        <time>2022-07-29T08:49:54Z</time>
      </trkpt>
      <trkpt lat="46.49312" lon="5.62239">
        <ele>478</ele>
        <time>2022-07-29T08:49:55Z</time>
      </trkpt>
      <trkpt lat="46.49307" lon="5.62237">
        <ele>478</ele>
        <time>2022-07-29T08:49:56Z</time>
      </trkpt>
      <trkpt lat="46.49302" lon="5.62235">
        <ele>478.2</ele>
        <time>2022-07-29T08:49:57Z</time>
      </trkpt>
      <trkpt lat="46.49297" lon="5.62235">
        <ele>478.2</ele>
        <time>2022-07-29T08:49:58Z</time>
      </trkpt>
      <trkpt lat="46.49292" lon="5.62234">
        <ele>478.6</ele>
        <time>2022-07-29T08:49:59Z</time>
      </trkpt>
      <trkpt lat="46.49287" lon="5.62233">
        <ele>478.6</ele>
        <time>2022-07-29T08:50:00Z</time>
      </trkpt>
      <trkpt lat="46.49282" lon="5.62233">
        <ele>478.8</ele>
        <time>2022-07-29T08:50:01Z</time>
      </trkpt>
      <trkpt lat="46.49277" lon="5.62233">
        <ele>478.8</ele>
        <time>2022-07-29T08:50:02Z</time>
      </trkpt>
      <trkpt lat="46.49272" lon="5.62233">
        <ele>478.8</ele>
        <time>2022-07-29T08:50:03Z</time>
      </trkpt>
      <trkpt lat="46.49267" lon="5.62234">
        <ele>479</ele>
        <time>2022-07-29T08:50:04Z</time>
      </trkpt>
      <trkpt lat="46.49262" lon="5.62235">
        <ele>479</ele>
        <time>2022-07-29T08:50:05Z</time>
      </trkpt>
      <trkpt lat="46.49257" lon="5.62236">
        <ele>479</ele>
        <time>2022-07-29T08:50:06Z</time>
      </trkpt>
      <trkpt lat="46.49253" lon="5.62238">
        <ele>479</ele>
        <time>2022-07-29T08:50:07Z</time>
      </trkpt>
      <trkpt lat="46.49248" lon="5.6224">
        <ele>479</ele>
        <time>2022-07-29T08:50:08Z</time>
      </trkpt>
      <trkpt lat="46.49243" lon="5.62242">
        <ele>479.4</ele>
        <time>2022-07-29T08:50:09Z</time>
      </trkpt>
      <trkpt lat="46.49239" lon="5.62245">
        <ele>479.4</ele>
        <time>2022-07-29T08:50:10Z</time>
      </trkpt>
      <trkpt lat="46.49234" lon="5.62249">
        <ele>479.4</ele>
        <time>2022-07-29T08:50:11Z</time>
      </trkpt>
      <trkpt lat="46.4923" lon="5.62252">
        <ele>479.6</ele>
        <time>2022-07-29T08:50:12Z</time>
      </trkpt>
      <trkpt lat="46.49226" lon="5.62256">
        <ele>479.6</ele>
        <time>2022-07-29T08:50:13Z</time>
      </trkpt>
      <trkpt lat="46.49223" lon="5.62261">
        <ele>479.8</ele>
        <time>2022-07-29T08:50:14Z</time>
      </trkpt>
      <trkpt lat="46.49219" lon="5.62266">
        <ele>479.8</ele>
        <time>2022-07-29T08:50:15Z</time>
      </trkpt>
      <trkpt lat="46.49216" lon="5.62271">
        <ele>480</ele>
        <time>2022-07-29T08:50:16Z</time>
      </trkpt>
      <trkpt lat="46.49213" lon="5.62276">
        <ele>480</ele>
        <time>2022-07-29T08:50:17Z</time>
      </trkpt>
      <trkpt lat="46.49209" lon="5.6228">
        <ele>480.2</ele>
        <time>2022-07-29T08:50:18Z</time>
      </trkpt>
      <trkpt lat="46.49206" lon="5.62285">
        <ele>480.2</ele>
        <time>2022-07-29T08:50:19Z</time>
      </trkpt>
      <trkpt lat="46.49203" lon="5.62289">
        <ele>480.4</ele>
        <time>2022-07-29T08:50:20Z</time>
      </trkpt>
      <trkpt lat="46.49199" lon="5.62293">
        <ele>480.4</ele>
        <time>2022-07-29T08:50:21Z</time>
      </trkpt>
      <trkpt lat="46.49196" lon="5.62297">
        <ele>480.8</ele>
        <time>2022-07-29T08:50:22Z</time>
      </trkpt>
      <trkpt lat="46.49192" lon="5.62301">
        <ele>480.8</ele>
        <time>2022-07-29T08:50:23Z</time>
      </trkpt>
      <trkpt lat="46.49189" lon="5.62304">
        <ele>481.2</ele>
        <time>2022-07-29T08:50:24Z</time>
      </trkpt>
      <trkpt lat="46.49185" lon="5.62308">
        <ele>481.2</ele>
        <time>2022-07-29T08:50:25Z</time>
      </trkpt>
      <trkpt lat="46.49181" lon="5.62311">
        <ele>481.4</ele>
        <time>2022-07-29T08:50:26Z</time>
      </trkpt>
      <trkpt lat="46.49178" lon="5.62314">
        <ele>481.8</ele>
        <time>2022-07-29T08:50:27Z</time>
      </trkpt>
      <trkpt lat="46.49174" lon="5.62316">
        <ele>481.8</ele>
        <time>2022-07-29T08:50:28Z</time>
      </trkpt>
      <trkpt lat="46.4917" lon="5.62318">
        <ele>482</ele>
        <time>2022-07-29T08:50:29Z</time>
      </trkpt>
      <trkpt lat="46.49166" lon="5.62321">
        <ele>482</ele>
        <time>2022-07-29T08:50:30Z</time>
      </trkpt>
      <trkpt lat="46.49162" lon="5.62323">
        <ele>482.4</ele>
        <time>2022-07-29T08:50:31Z</time>
      </trkpt>
      <trkpt lat="46.49158" lon="5.62325">
        <ele>482.4</ele>
        <time>2022-07-29T08:50:32Z</time>
      </trkpt>
      <trkpt lat="46.49154" lon="5.62328">
        <ele>482.6</ele>
        <time>2022-07-29T08:50:33Z</time>
      </trkpt>
      <trkpt lat="46.4915" lon="5.6233">
        <ele>482.6</ele>
        <time>2022-07-29T08:50:34Z</time>
      </trkpt>
      <trkpt lat="46.49146" lon="5.62332">
        <ele>482.6</ele>
        <time>2022-07-29T08:50:35Z</time>
      </trkpt>
      <trkpt lat="46.49138" lon="5.62337">
        <ele>483</ele>
        <time>2022-07-29T08:50:36Z</time>
      </trkpt>
      <trkpt lat="46.49138" lon="5.62337">
        <ele>483</ele>
        <time>2022-07-29T08:50:37Z</time>
      </trkpt>
      <trkpt lat="46.49135" lon="5.62339">
        <ele>483.2</ele>
        <time>2022-07-29T08:50:38Z</time>
      </trkpt>
      <trkpt lat="46.49131" lon="5.62341">
        <ele>483.2</ele>
        <time>2022-07-29T08:50:39Z</time>
      </trkpt>
      <trkpt lat="46.49127" lon="5.62343">
        <ele>483.2</ele>
        <time>2022-07-29T08:50:40Z</time>
      </trkpt>
      <trkpt lat="46.49123" lon="5.62346">
        <ele>483.6</ele>
        <time>2022-07-29T08:50:41Z</time>
      </trkpt>
      <trkpt lat="46.49119" lon="5.62348">
        <ele>483.6</ele>
        <time>2022-07-29T08:50:42Z</time>
      </trkpt>
      <trkpt lat="46.49115" lon="5.6235">
        <ele>483.8</ele>
        <time>2022-07-29T08:50:43Z</time>
      </trkpt>
      <trkpt lat="46.49111" lon="5.62353">
        <ele>483.8</ele>
        <time>2022-07-29T08:50:44Z</time>
      </trkpt>
      <trkpt lat="46.49107" lon="5.62355">
        <ele>484</ele>
        <time>2022-07-29T08:50:45Z</time>
      </trkpt>
      <trkpt lat="46.49104" lon="5.62357">
        <ele>484</ele>
        <time>2022-07-29T08:50:46Z</time>
      </trkpt>
      <trkpt lat="46.491" lon="5.6236">
        <ele>484.4</ele>
        <time>2022-07-29T08:50:47Z</time>
      </trkpt>
      <trkpt lat="46.49097" lon="5.62363">
        <ele>484.4</ele>
        <time>2022-07-29T08:50:48Z</time>
      </trkpt>
      <trkpt lat="46.49094" lon="5.62366">
        <ele>484.6</ele>
        <time>2022-07-29T08:50:49Z</time>
      </trkpt>
      <trkpt lat="46.49091" lon="5.62369">
        <ele>484.6</ele>
        <time>2022-07-29T08:50:50Z</time>
      </trkpt>
      <trkpt lat="46.49088" lon="5.62372">
        <ele>484.6</ele>
        <time>2022-07-29T08:50:51Z</time>
      </trkpt>
      <trkpt lat="46.49084" lon="5.62376">
        <ele>484.8</ele>
        <time>2022-07-29T08:50:52Z</time>
      </trkpt>
      <trkpt lat="46.49082" lon="5.62379">
        <ele>484.8</ele>
        <time>2022-07-29T08:50:53Z</time>
      </trkpt>
      <trkpt lat="46.49079" lon="5.62383">
        <ele>484.8</ele>
        <time>2022-07-29T08:50:54Z</time>
      </trkpt>
      <trkpt lat="46.49076" lon="5.62388">
        <ele>485.2</ele>
        <time>2022-07-29T08:50:55Z</time>
      </trkpt>
      <trkpt lat="46.49073" lon="5.62391">
        <ele>485.2</ele>
        <time>2022-07-29T08:50:56Z</time>
      </trkpt>
      <trkpt lat="46.4907" lon="5.62395">
        <ele>485.2</ele>
        <time>2022-07-29T08:50:57Z</time>
      </trkpt>
      <trkpt lat="46.49067" lon="5.62399">
        <ele>485.4</ele>
        <time>2022-07-29T08:50:58Z</time>
      </trkpt>
      <trkpt lat="46.49064" lon="5.62404">
        <ele>485.4</ele>
        <time>2022-07-29T08:50:59Z</time>
      </trkpt>
      <trkpt lat="46.49061" lon="5.62408">
        <ele>485.4</ele>
        <time>2022-07-29T08:51:00Z</time>
      </trkpt>
      <trkpt lat="46.49058" lon="5.62413">
        <ele>485.4</ele>
        <time>2022-07-29T08:51:01Z</time>
      </trkpt>
      <trkpt lat="46.49054" lon="5.62417">
        <ele>485.4</ele>
        <time>2022-07-29T08:51:02Z</time>
      </trkpt>
      <trkpt lat="46.49051" lon="5.62421">
        <ele>485.6</ele>
        <time>2022-07-29T08:51:03Z</time>
      </trkpt>
      <trkpt lat="46.49047" lon="5.62425">
        <ele>485.6</ele>
        <time>2022-07-29T08:51:04Z</time>
      </trkpt>
      <trkpt lat="46.49043" lon="5.62429">
        <ele>485.6</ele>
        <time>2022-07-29T08:51:05Z</time>
      </trkpt>
      <trkpt lat="46.49039" lon="5.62432">
        <ele>485.6</ele>
        <time>2022-07-29T08:51:06Z</time>
      </trkpt>
      <trkpt lat="46.49035" lon="5.62435">
        <ele>485.6</ele>
        <time>2022-07-29T08:51:07Z</time>
      </trkpt>
      <trkpt lat="46.4903" lon="5.62438">
        <ele>485.6</ele>
        <time>2022-07-29T08:51:08Z</time>
      </trkpt>
      <trkpt lat="46.49026" lon="5.62441">
        <ele>485.6</ele>
        <time>2022-07-29T08:51:09Z</time>
      </trkpt>
      <trkpt lat="46.49021" lon="5.62443">
        <ele>485.8</ele>
        <time>2022-07-29T08:51:10Z</time>
      </trkpt>
      <trkpt lat="46.49017" lon="5.62446">
        <ele>485.8</ele>
        <time>2022-07-29T08:51:11Z</time>
      </trkpt>
      <trkpt lat="46.49012" lon="5.62448">
        <ele>485.8</ele>
        <time>2022-07-29T08:51:12Z</time>
      </trkpt>
      <trkpt lat="46.49008" lon="5.6245">
        <ele>486.2</ele>
        <time>2022-07-29T08:51:13Z</time>
      </trkpt>
      <trkpt lat="46.49003" lon="5.62452">
        <ele>486.2</ele>
        <time>2022-07-29T08:51:14Z</time>
      </trkpt>
      <trkpt lat="46.48998" lon="5.62454">
        <ele>486.4</ele>
        <time>2022-07-29T08:51:15Z</time>
      </trkpt>
      <trkpt lat="46.48994" lon="5.62455">
        <ele>486.4</ele>
        <time>2022-07-29T08:51:16Z</time>
      </trkpt>
      <trkpt lat="46.4899" lon="5.62457">
        <ele>486.8</ele>
        <time>2022-07-29T08:51:17Z</time>
      </trkpt>
      <trkpt lat="46.48986" lon="5.62458">
        <ele>486.8</ele>
        <time>2022-07-29T08:51:18Z</time>
      </trkpt>
      <trkpt lat="46.48982" lon="5.62459">
        <ele>487</ele>
        <time>2022-07-29T08:51:19Z</time>
      </trkpt>
      <trkpt lat="46.48978" lon="5.6246">
        <ele>487.4</ele>
        <time>2022-07-29T08:51:20Z</time>
      </trkpt>
      <trkpt lat="46.48975" lon="5.62462">
        <ele>487.4</ele>
        <time>2022-07-29T08:51:21Z</time>
      </trkpt>
      <trkpt lat="46.48971" lon="5.62463">
        <ele>487.6</ele>
        <time>2022-07-29T08:51:22Z</time>
      </trkpt>
      <trkpt lat="46.48968" lon="5.62463">
        <ele>487.6</ele>
        <time>2022-07-29T08:51:23Z</time>
      </trkpt>
      <trkpt lat="46.48965" lon="5.62464">
        <ele>488</ele>
        <time>2022-07-29T08:51:24Z</time>
      </trkpt>
      <trkpt lat="46.48961" lon="5.62465">
        <ele>488</ele>
        <time>2022-07-29T08:51:25Z</time>
      </trkpt>
      <trkpt lat="46.48958" lon="5.62466">
        <ele>488.2</ele>
        <time>2022-07-29T08:51:26Z</time>
      </trkpt>
      <trkpt lat="46.48954" lon="5.62466">
        <ele>488.2</ele>
        <time>2022-07-29T08:51:27Z</time>
      </trkpt>
      <trkpt lat="46.48951" lon="5.62467">
        <ele>488.4</ele>
        <time>2022-07-29T08:51:28Z</time>
      </trkpt>
      <trkpt lat="46.48947" lon="5.62467">
        <ele>488.4</ele>
        <time>2022-07-29T08:51:29Z</time>
      </trkpt>
      <trkpt lat="46.48943" lon="5.62467">
        <ele>488.4</ele>
        <time>2022-07-29T08:51:30Z</time>
      </trkpt>
      <trkpt lat="46.48938" lon="5.62467">
        <ele>488.4</ele>
        <time>2022-07-29T08:51:31Z</time>
      </trkpt>
      <trkpt lat="46.48934" lon="5.62468">
        <ele>488.4</ele>
        <time>2022-07-29T08:51:32Z</time>
      </trkpt>
      <trkpt lat="46.48929" lon="5.62468">
        <ele>488.4</ele>
        <time>2022-07-29T08:51:33Z</time>
      </trkpt>
      <trkpt lat="46.48924" lon="5.62469">
        <ele>488.2</ele>
        <time>2022-07-29T08:51:34Z</time>
      </trkpt>
      <trkpt lat="46.48919" lon="5.62469">
        <ele>488.2</ele>
        <time>2022-07-29T08:51:35Z</time>
      </trkpt>
      <trkpt lat="46.48914" lon="5.62469">
        <ele>487.8</ele>
        <time>2022-07-29T08:51:36Z</time>
      </trkpt>
      <trkpt lat="46.48908" lon="5.62468">
        <ele>487.8</ele>
        <time>2022-07-29T08:51:37Z</time>
      </trkpt>
      <trkpt lat="46.48902" lon="5.62467">
        <ele>487.4</ele>
        <time>2022-07-29T08:51:38Z</time>
      </trkpt>
      <trkpt lat="46.48897" lon="5.62466">
        <ele>487.2</ele>
        <time>2022-07-29T08:51:39Z</time>
      </trkpt>
      <trkpt lat="46.4889" lon="5.62464">
        <ele>487</ele>
        <time>2022-07-29T08:51:40Z</time>
      </trkpt>
      <trkpt lat="46.48884" lon="5.62461">
        <ele>486.6</ele>
        <time>2022-07-29T08:51:41Z</time>
      </trkpt>
      <trkpt lat="46.48878" lon="5.62458">
        <ele>486.4</ele>
        <time>2022-07-29T08:51:42Z</time>
      </trkpt>
      <trkpt lat="46.48871" lon="5.62454">
        <ele>486.2</ele>
        <time>2022-07-29T08:51:43Z</time>
      </trkpt>
      <trkpt lat="46.48865" lon="5.6245">
        <ele>485.8</ele>
        <time>2022-07-29T08:51:44Z</time>
      </trkpt>
      <trkpt lat="46.48858" lon="5.62445">
        <ele>485.8</ele>
        <time>2022-07-29T08:51:45Z</time>
      </trkpt>
      <trkpt lat="46.48852" lon="5.6244">
        <ele>485.6</ele>
        <time>2022-07-29T08:51:46Z</time>
      </trkpt>
      <trkpt lat="46.48845" lon="5.62434">
        <ele>485.4</ele>
        <time>2022-07-29T08:51:47Z</time>
      </trkpt>
      <trkpt lat="46.48838" lon="5.62428">
        <ele>485.2</ele>
        <time>2022-07-29T08:51:48Z</time>
      </trkpt>
      <trkpt lat="46.48832" lon="5.62422">
        <ele>484.8</ele>
        <time>2022-07-29T08:51:49Z</time>
      </trkpt>
      <trkpt lat="46.48825" lon="5.62416">
        <ele>484.6</ele>
        <time>2022-07-29T08:51:50Z</time>
      </trkpt>
      <trkpt lat="46.48818" lon="5.6241">
        <ele>484.4</ele>
        <time>2022-07-29T08:51:51Z</time>
      </trkpt>
      <trkpt lat="46.48812" lon="5.62404">
        <ele>484.4</ele>
        <time>2022-07-29T08:51:52Z</time>
      </trkpt>
      <trkpt lat="46.48805" lon="5.62398">
        <ele>484.2</ele>
        <time>2022-07-29T08:51:53Z</time>
      </trkpt>
      <trkpt lat="46.48797" lon="5.62393">
        <ele>483.8</ele>
        <time>2022-07-29T08:51:54Z</time>
      </trkpt>
      <trkpt lat="46.4879" lon="5.62388">
        <ele>483.6</ele>
        <time>2022-07-29T08:51:55Z</time>
      </trkpt>
      <trkpt lat="46.48782" lon="5.62384">
        <ele>483.6</ele>
        <time>2022-07-29T08:51:56Z</time>
      </trkpt>
      <trkpt lat="46.48775" lon="5.62381">
        <ele>483.4</ele>
        <time>2022-07-29T08:51:57Z</time>
      </trkpt>
      <trkpt lat="46.48767" lon="5.62378">
        <ele>483.4</ele>
        <time>2022-07-29T08:51:58Z</time>
      </trkpt>
      <trkpt lat="46.4876" lon="5.62376">
        <ele>483</ele>
        <time>2022-07-29T08:51:59Z</time>
      </trkpt>
      <trkpt lat="46.48753" lon="5.62374">
        <ele>483</ele>
        <time>2022-07-29T08:52:00Z</time>
      </trkpt>
      <trkpt lat="46.48746" lon="5.62373">
        <ele>482.8</ele>
        <time>2022-07-29T08:52:01Z</time>
      </trkpt>
      <trkpt lat="46.48738" lon="5.62373">
        <ele>482.8</ele>
        <time>2022-07-29T08:52:02Z</time>
      </trkpt>
      <trkpt lat="46.48731" lon="5.62374">
        <ele>482.8</ele>
        <time>2022-07-29T08:52:03Z</time>
      </trkpt>
      <trkpt lat="46.48723" lon="5.62374">
        <ele>482.8</ele>
        <time>2022-07-29T08:52:04Z</time>
      </trkpt>
      <trkpt lat="46.48716" lon="5.62374">
        <ele>482.4</ele>
        <time>2022-07-29T08:52:05Z</time>
      </trkpt>
      <trkpt lat="46.48709" lon="5.62375">
        <ele>482.2</ele>
        <time>2022-07-29T08:52:06Z</time>
      </trkpt>
      <trkpt lat="46.48701" lon="5.62376">
        <ele>482</ele>
        <time>2022-07-29T08:52:07Z</time>
      </trkpt>
      <trkpt lat="46.48693" lon="5.62377">
        <ele>481.8</ele>
        <time>2022-07-29T08:52:08Z</time>
      </trkpt>
      <trkpt lat="46.48685" lon="5.62377">
        <ele>481.4</ele>
        <time>2022-07-29T08:52:09Z</time>
      </trkpt>
      <trkpt lat="46.48677" lon="5.62378">
        <ele>481.2</ele>
        <time>2022-07-29T08:52:10Z</time>
      </trkpt>
      <trkpt lat="46.48669" lon="5.6238">
        <ele>481</ele>
        <time>2022-07-29T08:52:11Z</time>
      </trkpt>
      <trkpt lat="46.48661" lon="5.62383">
        <ele>481</ele>
        <time>2022-07-29T08:52:12Z</time>
      </trkpt>
      <trkpt lat="46.48654" lon="5.62388">
        <ele>480.8</ele>
        <time>2022-07-29T08:52:13Z</time>
      </trkpt>
      <trkpt lat="46.48647" lon="5.62394">
        <ele>480.8</ele>
        <time>2022-07-29T08:52:14Z</time>
      </trkpt>
      <trkpt lat="46.48641" lon="5.624">
        <ele>480.8</ele>
        <time>2022-07-29T08:52:15Z</time>
      </trkpt>
      <trkpt lat="46.48635" lon="5.62405">
        <ele>480.8</ele>
        <time>2022-07-29T08:52:16Z</time>
      </trkpt>
      <trkpt lat="46.48629" lon="5.62411">
        <ele>480.8</ele>
        <time>2022-07-29T08:52:17Z</time>
      </trkpt>
      <trkpt lat="46.48624" lon="5.62417">
        <ele>480.8</ele>
        <time>2022-07-29T08:52:18Z</time>
      </trkpt>
      <trkpt lat="46.48619" lon="5.62423">
        <ele>480.8</ele>
        <time>2022-07-29T08:52:19Z</time>
      </trkpt>
      <trkpt lat="46.48615" lon="5.62429">
        <ele>481</ele>
        <time>2022-07-29T08:52:20Z</time>
      </trkpt>
      <trkpt lat="46.48611" lon="5.62435">
        <ele>481</ele>
        <time>2022-07-29T08:52:21Z</time>
      </trkpt>
      <trkpt lat="46.48608" lon="5.6244">
        <ele>481.4</ele>
        <time>2022-07-29T08:52:22Z</time>
      </trkpt>
      <trkpt lat="46.48605" lon="5.62445">
        <ele>481.8</ele>
        <time>2022-07-29T08:52:23Z</time>
      </trkpt>
      <trkpt lat="46.48602" lon="5.6245">
        <ele>482</ele>
        <time>2022-07-29T08:52:24Z</time>
      </trkpt>
      <trkpt lat="46.48599" lon="5.62455">
        <ele>482.4</ele>
        <time>2022-07-29T08:52:25Z</time>
      </trkpt>
      <trkpt lat="46.48596" lon="5.6246">
        <ele>482.6</ele>
        <time>2022-07-29T08:52:26Z</time>
      </trkpt>
      <trkpt lat="46.48594" lon="5.62464">
        <ele>482.8</ele>
        <time>2022-07-29T08:52:27Z</time>
      </trkpt>
      <trkpt lat="46.48591" lon="5.62468">
        <ele>483.2</ele>
        <time>2022-07-29T08:52:28Z</time>
      </trkpt>
      <trkpt lat="46.48588" lon="5.62472">
        <ele>483.4</ele>
        <time>2022-07-29T08:52:29Z</time>
      </trkpt>
      <trkpt lat="46.48586" lon="5.62476">
        <ele>483.6</ele>
        <time>2022-07-29T08:52:30Z</time>
      </trkpt>
      <trkpt lat="46.48584" lon="5.62479">
        <ele>483.8</ele>
        <time>2022-07-29T08:52:31Z</time>
      </trkpt>
      <trkpt lat="46.48582" lon="5.62483">
        <ele>483.8</ele>
        <time>2022-07-29T08:52:32Z</time>
      </trkpt>
      <trkpt lat="46.48579" lon="5.62486">
        <ele>484.2</ele>
        <time>2022-07-29T08:52:33Z</time>
      </trkpt>
      <trkpt lat="46.48577" lon="5.62488">
        <ele>484.2</ele>
        <time>2022-07-29T08:52:34Z</time>
      </trkpt>
      <trkpt lat="46.48574" lon="5.62491">
        <ele>484.6</ele>
        <time>2022-07-29T08:52:35Z</time>
      </trkpt>
      <trkpt lat="46.48572" lon="5.62494">
        <ele>485</ele>
        <time>2022-07-29T08:52:36Z</time>
      </trkpt>
      <trkpt lat="46.4857" lon="5.62497">
        <ele>485.4</ele>
        <time>2022-07-29T08:52:37Z</time>
      </trkpt>
      <trkpt lat="46.48568" lon="5.62501">
        <ele>485.6</ele>
        <time>2022-07-29T08:52:38Z</time>
      </trkpt>
      <trkpt lat="46.48566" lon="5.62504">
        <ele>485.8</ele>
        <time>2022-07-29T08:52:39Z</time>
      </trkpt>
      <trkpt lat="46.48564" lon="5.62508">
        <ele>486.2</ele>
        <time>2022-07-29T08:52:40Z</time>
      </trkpt>
      <trkpt lat="46.48562" lon="5.62512">
        <ele>486.4</ele>
        <time>2022-07-29T08:52:41Z</time>
      </trkpt>
      <trkpt lat="46.4856" lon="5.62517">
        <ele>486.6</ele>
        <time>2022-07-29T08:52:42Z</time>
      </trkpt>
      <trkpt lat="46.48558" lon="5.62522">
        <ele>487</ele>
        <time>2022-07-29T08:52:43Z</time>
      </trkpt>
      <trkpt lat="46.48557" lon="5.62527">
        <ele>487.2</ele>
        <time>2022-07-29T08:52:44Z</time>
      </trkpt>
      <trkpt lat="46.48555" lon="5.62532">
        <ele>487.4</ele>
        <time>2022-07-29T08:52:45Z</time>
      </trkpt>
      <trkpt lat="46.48554" lon="5.62536">
        <ele>487.8</ele>
        <time>2022-07-29T08:52:46Z</time>
      </trkpt>
      <trkpt lat="46.48552" lon="5.62541">
        <ele>487.8</ele>
        <time>2022-07-29T08:52:47Z</time>
      </trkpt>
      <trkpt lat="46.48551" lon="5.62546">
        <ele>488.2</ele>
        <time>2022-07-29T08:52:48Z</time>
      </trkpt>
      <trkpt lat="46.4855" lon="5.62551">
        <ele>488.4</ele>
        <time>2022-07-29T08:52:49Z</time>
      </trkpt>
      <trkpt lat="46.48549" lon="5.62555">
        <ele>488.4</ele>
        <time>2022-07-29T08:52:50Z</time>
      </trkpt>
      <trkpt lat="46.48548" lon="5.6256">
        <ele>488.8</ele>
        <time>2022-07-29T08:52:51Z</time>
      </trkpt>
      <trkpt lat="46.48547" lon="5.62564">
        <ele>489.2</ele>
        <time>2022-07-29T08:52:52Z</time>
      </trkpt>
      <trkpt lat="46.48546" lon="5.62569">
        <ele>489.4</ele>
        <time>2022-07-29T08:52:53Z</time>
      </trkpt>
      <trkpt lat="46.48545" lon="5.62573">
        <ele>489.6</ele>
        <time>2022-07-29T08:52:54Z</time>
      </trkpt>
      <trkpt lat="46.48544" lon="5.62578">
        <ele>490</ele>
        <time>2022-07-29T08:52:55Z</time>
      </trkpt>
      <trkpt lat="46.48542" lon="5.62583">
        <ele>490.2</ele>
        <time>2022-07-29T08:52:56Z</time>
      </trkpt>
      <trkpt lat="46.48541" lon="5.62587">
        <ele>490.6</ele>
        <time>2022-07-29T08:52:57Z</time>
      </trkpt>
      <trkpt lat="46.4854" lon="5.62592">
        <ele>490.8</ele>
        <time>2022-07-29T08:52:58Z</time>
      </trkpt>
      <trkpt lat="46.48538" lon="5.62597">
        <ele>491</ele>
        <time>2022-07-29T08:52:59Z</time>
      </trkpt>
      <trkpt lat="46.48537" lon="5.62601">
        <ele>491.4</ele>
        <time>2022-07-29T08:53:00Z</time>
      </trkpt>
      <trkpt lat="46.48535" lon="5.62606">
        <ele>491.6</ele>
        <time>2022-07-29T08:53:01Z</time>
      </trkpt>
      <trkpt lat="46.48534" lon="5.62611">
        <ele>491.8</ele>
        <time>2022-07-29T08:53:02Z</time>
      </trkpt>
      <trkpt lat="46.48533" lon="5.62615">
        <ele>492.2</ele>
        <time>2022-07-29T08:53:03Z</time>
      </trkpt>
      <trkpt lat="46.48532" lon="5.62619">
        <ele>492.6</ele>
        <time>2022-07-29T08:53:04Z</time>
      </trkpt>
      <trkpt lat="46.48531" lon="5.62623">
        <ele>492.8</ele>
        <time>2022-07-29T08:53:05Z</time>
      </trkpt>
      <trkpt lat="46.4853" lon="5.62626">
        <ele>493.2</ele>
        <time>2022-07-29T08:53:06Z</time>
      </trkpt>
      <trkpt lat="46.48528" lon="5.62629">
        <ele>493.2</ele>
        <time>2022-07-29T08:53:07Z</time>
      </trkpt>
      <trkpt lat="46.48526" lon="5.62632">
        <ele>493.4</ele>
        <time>2022-07-29T08:53:08Z</time>
      </trkpt>
      <trkpt lat="46.48524" lon="5.62636">
        <ele>493.4</ele>
        <time>2022-07-29T08:53:09Z</time>
      </trkpt>
      <trkpt lat="46.48521" lon="5.6264">
        <ele>493.4</ele>
        <time>2022-07-29T08:53:10Z</time>
      </trkpt>
      <trkpt lat="46.48517" lon="5.62643">
        <ele>493.2</ele>
        <time>2022-07-29T08:53:11Z</time>
      </trkpt>
      <trkpt lat="46.48512" lon="5.62647">
        <ele>493.2</ele>
        <time>2022-07-29T08:53:12Z</time>
      </trkpt>
      <trkpt lat="46.48507" lon="5.6265">
        <ele>492.8</ele>
        <time>2022-07-29T08:53:13Z</time>
      </trkpt>
      <trkpt lat="46.48501" lon="5.62654">
        <ele>492.4</ele>
        <time>2022-07-29T08:53:14Z</time>
      </trkpt>
      <trkpt lat="46.48495" lon="5.62658">
        <ele>492</ele>
        <time>2022-07-29T08:53:15Z</time>
      </trkpt>
      <trkpt lat="46.48489" lon="5.6266">
        <ele>491.6</ele>
        <time>2022-07-29T08:53:16Z</time>
      </trkpt>
      <trkpt lat="46.48482" lon="5.6266">
        <ele>491.2</ele>
        <time>2022-07-29T08:53:17Z</time>
      </trkpt>
      <trkpt lat="46.48475" lon="5.62658">
        <ele>490.8</ele>
        <time>2022-07-29T08:53:18Z</time>
      </trkpt>
      <trkpt lat="46.48469" lon="5.62653">
        <ele>490.6</ele>
        <time>2022-07-29T08:53:19Z</time>
      </trkpt>
      <trkpt lat="46.48463" lon="5.62648">
        <ele>490.4</ele>
        <time>2022-07-29T08:53:20Z</time>
      </trkpt>
      <trkpt lat="46.48458" lon="5.62642">
        <ele>490.2</ele>
        <time>2022-07-29T08:53:21Z</time>
      </trkpt>
      <trkpt lat="46.48452" lon="5.62636">
        <ele>490.2</ele>
        <time>2022-07-29T08:53:22Z</time>
      </trkpt>
      <trkpt lat="46.48446" lon="5.62631">
        <ele>489.8</ele>
        <time>2022-07-29T08:53:23Z</time>
      </trkpt>
      <trkpt lat="46.48441" lon="5.62625">
        <ele>489.8</ele>
        <time>2022-07-29T08:53:24Z</time>
      </trkpt>
      <trkpt lat="46.48436" lon="5.62621">
        <ele>489.8</ele>
        <time>2022-07-29T08:53:25Z</time>
      </trkpt>
      <trkpt lat="46.48431" lon="5.62616">
        <ele>490</ele>
        <time>2022-07-29T08:53:26Z</time>
      </trkpt>
      <trkpt lat="46.48427" lon="5.62611">
        <ele>490.2</ele>
        <time>2022-07-29T08:53:27Z</time>
      </trkpt>
      <trkpt lat="46.48423" lon="5.62606">
        <ele>490.4</ele>
        <time>2022-07-29T08:53:28Z</time>
      </trkpt>
      <trkpt lat="46.48419" lon="5.62602">
        <ele>490.8</ele>
        <time>2022-07-29T08:53:29Z</time>
      </trkpt>
      <trkpt lat="46.48415" lon="5.62598">
        <ele>491</ele>
        <time>2022-07-29T08:53:30Z</time>
      </trkpt>
      <trkpt lat="46.48412" lon="5.62595">
        <ele>491.2</ele>
        <time>2022-07-29T08:53:31Z</time>
      </trkpt>
      <trkpt lat="46.48408" lon="5.62592">
        <ele>491.6</ele>
        <time>2022-07-29T08:53:32Z</time>
      </trkpt>
      <trkpt lat="46.48405" lon="5.62588">
        <ele>491.8</ele>
        <time>2022-07-29T08:53:33Z</time>
      </trkpt>
      <trkpt lat="46.48401" lon="5.62585">
        <ele>492.2</ele>
        <time>2022-07-29T08:53:34Z</time>
      </trkpt>
      <trkpt lat="46.48398" lon="5.62582">
        <ele>492.4</ele>
        <time>2022-07-29T08:53:35Z</time>
      </trkpt>
      <trkpt lat="46.48395" lon="5.62578">
        <ele>492.6</ele>
        <time>2022-07-29T08:53:36Z</time>
      </trkpt>
      <trkpt lat="46.48393" lon="5.62575">
        <ele>493</ele>
        <time>2022-07-29T08:53:37Z</time>
      </trkpt>
      <trkpt lat="46.4839" lon="5.62572">
        <ele>493.4</ele>
        <time>2022-07-29T08:53:38Z</time>
      </trkpt>
      <trkpt lat="46.48388" lon="5.62569">
        <ele>493.6</ele>
        <time>2022-07-29T08:53:39Z</time>
      </trkpt>
      <trkpt lat="46.48385" lon="5.62568">
        <ele>494</ele>
        <time>2022-07-29T08:53:40Z</time>
      </trkpt>
      <trkpt lat="46.48382" lon="5.62567">
        <ele>494.2</ele>
        <time>2022-07-29T08:53:41Z</time>
      </trkpt>
      <trkpt lat="46.48379" lon="5.62567">
        <ele>494.4</ele>
        <time>2022-07-29T08:53:42Z</time>
      </trkpt>
      <trkpt lat="46.48376" lon="5.62568">
        <ele>494.4</ele>
        <time>2022-07-29T08:53:43Z</time>
      </trkpt>
      <trkpt lat="46.48372" lon="5.62569">
        <ele>494.6</ele>
        <time>2022-07-29T08:53:44Z</time>
      </trkpt>
      <trkpt lat="46.48369" lon="5.6257">
        <ele>494.6</ele>
        <time>2022-07-29T08:53:45Z</time>
      </trkpt>
      <trkpt lat="46.48365" lon="5.62572">
        <ele>494.6</ele>
        <time>2022-07-29T08:53:46Z</time>
      </trkpt>
      <trkpt lat="46.48361" lon="5.62574">
        <ele>494.6</ele>
        <time>2022-07-29T08:53:47Z</time>
      </trkpt>
      <trkpt lat="46.48358" lon="5.62577">
        <ele>494.6</ele>
        <time>2022-07-29T08:53:48Z</time>
      </trkpt>
      <trkpt lat="46.48354" lon="5.62579">
        <ele>494.6</ele>
        <time>2022-07-29T08:53:49Z</time>
      </trkpt>
      <trkpt lat="46.48352" lon="5.62582">
        <ele>494.6</ele>
        <time>2022-07-29T08:53:50Z</time>
      </trkpt>
      <trkpt lat="46.48348" lon="5.62586">
        <ele>494.4</ele>
        <time>2022-07-29T08:53:51Z</time>
      </trkpt>
      <trkpt lat="46.48344" lon="5.62589">
        <ele>494.2</ele>
        <time>2022-07-29T08:53:52Z</time>
      </trkpt>
      <trkpt lat="46.48339" lon="5.62592">
        <ele>494</ele>
        <time>2022-07-29T08:53:53Z</time>
      </trkpt>
      <trkpt lat="46.48333" lon="5.62594">
        <ele>494</ele>
        <time>2022-07-29T08:53:54Z</time>
      </trkpt>
      <trkpt lat="46.48328" lon="5.62595">
        <ele>494</ele>
        <time>2022-07-29T08:53:55Z</time>
      </trkpt>
      <trkpt lat="46.48324" lon="5.62594">
        <ele>494</ele>
        <time>2022-07-29T08:53:56Z</time>
      </trkpt>
      <trkpt lat="46.4832" lon="5.62593">
        <ele>494.2</ele>
        <time>2022-07-29T08:53:57Z</time>
      </trkpt>
      <trkpt lat="46.48316" lon="5.62591">
        <ele>494.4</ele>
        <time>2022-07-29T08:53:58Z</time>
      </trkpt>
      <trkpt lat="46.48314" lon="5.6259">
        <ele>494.6</ele>
        <time>2022-07-29T08:53:59Z</time>
      </trkpt>
      <trkpt lat="46.48311" lon="5.6259">
        <ele>495</ele>
        <time>2022-07-29T08:54:00Z</time>
      </trkpt>
      <trkpt lat="46.48308" lon="5.62589">
        <ele>495.2</ele>
        <time>2022-07-29T08:54:01Z</time>
      </trkpt>
      <trkpt lat="46.48305" lon="5.62588">
        <ele>495.6</ele>
        <time>2022-07-29T08:54:02Z</time>
      </trkpt>
      <trkpt lat="46.48302" lon="5.62587">
        <ele>495.8</ele>
        <time>2022-07-29T08:54:03Z</time>
      </trkpt>
      <trkpt lat="46.48299" lon="5.62587">
        <ele>496</ele>
        <time>2022-07-29T08:54:04Z</time>
      </trkpt>
      <trkpt lat="46.48295" lon="5.62586">
        <ele>496.2</ele>
        <time>2022-07-29T08:54:05Z</time>
      </trkpt>
      <trkpt lat="46.48292" lon="5.62585">
        <ele>496.4</ele>
        <time>2022-07-29T08:54:06Z</time>
      </trkpt>
      <trkpt lat="46.48289" lon="5.62584">
        <ele>496.8</ele>
        <time>2022-07-29T08:54:07Z</time>
      </trkpt>
      <trkpt lat="46.48285" lon="5.62584">
        <ele>497</ele>
        <time>2022-07-29T08:54:08Z</time>
      </trkpt>
      <trkpt lat="46.48281" lon="5.62584">
        <ele>497.4</ele>
        <time>2022-07-29T08:54:09Z</time>
      </trkpt>
      <trkpt lat="46.48277" lon="5.62583">
        <ele>497.6</ele>
        <time>2022-07-29T08:54:10Z</time>
      </trkpt>
      <trkpt lat="46.48274" lon="5.62584">
        <ele>497.8</ele>
        <time>2022-07-29T08:54:11Z</time>
      </trkpt>
      <trkpt lat="46.48271" lon="5.62584">
        <ele>498.2</ele>
        <time>2022-07-29T08:54:12Z</time>
      </trkpt>
      <trkpt lat="46.48269" lon="5.62584">
        <ele>498.4</ele>
        <time>2022-07-29T08:54:13Z</time>
      </trkpt>
      <trkpt lat="46.48266" lon="5.62585">
        <ele>498.8</ele>
        <time>2022-07-29T08:54:14Z</time>
      </trkpt>
      <trkpt lat="46.48263" lon="5.62586">
        <ele>499</ele>
        <time>2022-07-29T08:54:15Z</time>
      </trkpt>
      <trkpt lat="46.4826" lon="5.62587">
        <ele>499.4</ele>
        <time>2022-07-29T08:54:16Z</time>
      </trkpt>
      <trkpt lat="46.48258" lon="5.6259">
        <ele>499.6</ele>
        <time>2022-07-29T08:54:17Z</time>
      </trkpt>
      <trkpt lat="46.48255" lon="5.62592">
        <ele>500</ele>
        <time>2022-07-29T08:54:18Z</time>
      </trkpt>
      <trkpt lat="46.48253" lon="5.62596">
        <ele>500.2</ele>
        <time>2022-07-29T08:54:19Z</time>
      </trkpt>
      <trkpt lat="46.48251" lon="5.62601">
        <ele>500.6</ele>
        <time>2022-07-29T08:54:20Z</time>
      </trkpt>
      <trkpt lat="46.48249" lon="5.62605">
        <ele>500.8</ele>
        <time>2022-07-29T08:54:21Z</time>
      </trkpt>
      <trkpt lat="46.48247" lon="5.62609">
        <ele>501</ele>
        <time>2022-07-29T08:54:22Z</time>
      </trkpt>
      <trkpt lat="46.48245" lon="5.62613">
        <ele>501.4</ele>
        <time>2022-07-29T08:54:24Z</time>
      </trkpt>
      <trkpt lat="46.4824" lon="5.62622">
        <ele>501.4</ele>
        <time>2022-07-29T08:54:25Z</time>
      </trkpt>
      <trkpt lat="46.48238" lon="5.62627">
        <ele>501.6</ele>
        <time>2022-07-29T08:54:26Z</time>
      </trkpt>
      <trkpt lat="46.48236" lon="5.62631">
        <ele>501.6</ele>
        <time>2022-07-29T08:54:27Z</time>
      </trkpt>
      <trkpt lat="46.48235" lon="5.62636">
        <ele>502</ele>
        <time>2022-07-29T08:54:28Z</time>
      </trkpt>
      <trkpt lat="46.48233" lon="5.62641">
        <ele>502</ele>
        <time>2022-07-29T08:54:29Z</time>
      </trkpt>
      <trkpt lat="46.48231" lon="5.62645">
        <ele>502.4</ele>
        <time>2022-07-29T08:54:30Z</time>
      </trkpt>
      <trkpt lat="46.48228" lon="5.62649">
        <ele>502.4</ele>
        <time>2022-07-29T08:54:31Z</time>
      </trkpt>
      <trkpt lat="46.48226" lon="5.62654">
        <ele>502.6</ele>
        <time>2022-07-29T08:54:32Z</time>
      </trkpt>
      <trkpt lat="46.48224" lon="5.62658">
        <ele>502.6</ele>
        <time>2022-07-29T08:54:33Z</time>
      </trkpt>
      <trkpt lat="46.48222" lon="5.62663">
        <ele>503</ele>
        <time>2022-07-29T08:54:34Z</time>
      </trkpt>
      <trkpt lat="46.4822" lon="5.62667">
        <ele>503</ele>
        <time>2022-07-29T08:54:35Z</time>
      </trkpt>
      <trkpt lat="46.48218" lon="5.62672">
        <ele>503.4</ele>
        <time>2022-07-29T08:54:36Z</time>
      </trkpt>
      <trkpt lat="46.48217" lon="5.62676">
        <ele>503.4</ele>
        <time>2022-07-29T08:54:37Z</time>
      </trkpt>
      <trkpt lat="46.48215" lon="5.6268">
        <ele>503.8</ele>
        <time>2022-07-29T08:54:38Z</time>
      </trkpt>
      <trkpt lat="46.48213" lon="5.62685">
        <ele>503.8</ele>
        <time>2022-07-29T08:54:39Z</time>
      </trkpt>
      <trkpt lat="46.48211" lon="5.62689">
        <ele>504</ele>
        <time>2022-07-29T08:54:40Z</time>
      </trkpt>
      <trkpt lat="46.48209" lon="5.62694">
        <ele>504</ele>
        <time>2022-07-29T08:54:41Z</time>
      </trkpt>
      <trkpt lat="46.48207" lon="5.62698">
        <ele>504.4</ele>
        <time>2022-07-29T08:54:42Z</time>
      </trkpt>
      <trkpt lat="46.48205" lon="5.62703">
        <ele>504.4</ele>
        <time>2022-07-29T08:54:43Z</time>
      </trkpt>
      <trkpt lat="46.48202" lon="5.62707">
        <ele>504.6</ele>
        <time>2022-07-29T08:54:44Z</time>
      </trkpt>
      <trkpt lat="46.48199" lon="5.62711">
        <ele>504.6</ele>
        <time>2022-07-29T08:54:45Z</time>
      </trkpt>
      <trkpt lat="46.48196" lon="5.62714">
        <ele>504.8</ele>
        <time>2022-07-29T08:54:46Z</time>
      </trkpt>
      <trkpt lat="46.48193" lon="5.62717">
        <ele>504.8</ele>
        <time>2022-07-29T08:54:47Z</time>
      </trkpt>
      <trkpt lat="46.48189" lon="5.62719">
        <ele>505.2</ele>
        <time>2022-07-29T08:54:48Z</time>
      </trkpt>
      <trkpt lat="46.48186" lon="5.62721">
        <ele>505.2</ele>
        <time>2022-07-29T08:54:49Z</time>
      </trkpt>
      <trkpt lat="46.48184" lon="5.62723">
        <ele>505.8</ele>
        <time>2022-07-29T08:54:50Z</time>
      </trkpt>
      <trkpt lat="46.48182" lon="5.62723">
        <ele>506</ele>
        <time>2022-07-29T08:54:51Z</time>
      </trkpt>
      <trkpt lat="46.4818" lon="5.62724">
        <ele>506.2</ele>
        <time>2022-07-29T08:54:52Z</time>
      </trkpt>
      <trkpt lat="46.48178" lon="5.62725">
        <ele>506.6</ele>
        <time>2022-07-29T08:54:53Z</time>
      </trkpt>
      <trkpt lat="46.48176" lon="5.62727">
        <ele>506.8</ele>
        <time>2022-07-29T08:54:54Z</time>
      </trkpt>
      <trkpt lat="46.48173" lon="5.62729">
        <ele>507.2</ele>
        <time>2022-07-29T08:54:55Z</time>
      </trkpt>
      <trkpt lat="46.4817" lon="5.62732">
        <ele>507.4</ele>
        <time>2022-07-29T08:54:56Z</time>
      </trkpt>
      <trkpt lat="46.48168" lon="5.62735">
        <ele>507.6</ele>
        <time>2022-07-29T08:54:57Z</time>
      </trkpt>
      <trkpt lat="46.48165" lon="5.62737">
        <ele>507.6</ele>
        <time>2022-07-29T08:54:58Z</time>
      </trkpt>
      <trkpt lat="46.48163" lon="5.62739">
        <ele>508</ele>
        <time>2022-07-29T08:54:59Z</time>
      </trkpt>
      <trkpt lat="46.4816" lon="5.62742">
        <ele>508</ele>
        <time>2022-07-29T08:55:00Z</time>
      </trkpt>
      <trkpt lat="46.48158" lon="5.62745">
        <ele>508.4</ele>
        <time>2022-07-29T08:55:01Z</time>
      </trkpt>
      <trkpt lat="46.48155" lon="5.62749">
        <ele>508.4</ele>
        <time>2022-07-29T08:55:02Z</time>
      </trkpt>
      <trkpt lat="46.48152" lon="5.62753">
        <ele>508.6</ele>
        <time>2022-07-29T08:55:03Z</time>
      </trkpt>
      <trkpt lat="46.48149" lon="5.62757">
        <ele>508.6</ele>
        <time>2022-07-29T08:55:04Z</time>
      </trkpt>
      <trkpt lat="46.48147" lon="5.62761">
        <ele>508.8</ele>
        <time>2022-07-29T08:55:05Z</time>
      </trkpt>
      <trkpt lat="46.48144" lon="5.62764">
        <ele>508.8</ele>
        <time>2022-07-29T08:55:06Z</time>
      </trkpt>
      <trkpt lat="46.48141" lon="5.62767">
        <ele>509.2</ele>
        <time>2022-07-29T08:55:07Z</time>
      </trkpt>
      <trkpt lat="46.48139" lon="5.62769">
        <ele>509.4</ele>
        <time>2022-07-29T08:55:08Z</time>
      </trkpt>
      <trkpt lat="46.48137" lon="5.62771">
        <ele>509.8</ele>
        <time>2022-07-29T08:55:09Z</time>
      </trkpt>
      <trkpt lat="46.48135" lon="5.62773">
        <ele>510</ele>
        <time>2022-07-29T08:55:10Z</time>
      </trkpt>
      <trkpt lat="46.48133" lon="5.62775">
        <ele>510.2</ele>
        <time>2022-07-29T08:55:11Z</time>
      </trkpt>
      <trkpt lat="46.48131" lon="5.62777">
        <ele>510.4</ele>
        <time>2022-07-29T08:55:12Z</time>
      </trkpt>
      <trkpt lat="46.48129" lon="5.62779">
        <ele>510.6</ele>
        <time>2022-07-29T08:55:13Z</time>
      </trkpt>
      <trkpt lat="46.48127" lon="5.62781">
        <ele>511</ele>
        <time>2022-07-29T08:55:14Z</time>
      </trkpt>
      <trkpt lat="46.48124" lon="5.62784">
        <ele>511.2</ele>
        <time>2022-07-29T08:55:15Z</time>
      </trkpt>
      <trkpt lat="46.48122" lon="5.62785">
        <ele>511.4</ele>
        <time>2022-07-29T08:55:16Z</time>
      </trkpt>
      <trkpt lat="46.4812" lon="5.62787">
        <ele>511.6</ele>
        <time>2022-07-29T08:55:17Z</time>
      </trkpt>
      <trkpt lat="46.48118" lon="5.62789">
        <ele>512</ele>
        <time>2022-07-29T08:55:18Z</time>
      </trkpt>
      <trkpt lat="46.48115" lon="5.62791">
        <ele>512.2</ele>
        <time>2022-07-29T08:55:19Z</time>
      </trkpt>
      <trkpt lat="46.48113" lon="5.62795">
        <ele>512.4</ele>
        <time>2022-07-29T08:55:20Z</time>
      </trkpt>
      <trkpt lat="46.4811" lon="5.62799">
        <ele>512.6</ele>
        <time>2022-07-29T08:55:21Z</time>
      </trkpt>
      <trkpt lat="46.48108" lon="5.62802">
        <ele>513</ele>
        <time>2022-07-29T08:55:22Z</time>
      </trkpt>
      <trkpt lat="46.48106" lon="5.62806">
        <ele>513.2</ele>
        <time>2022-07-29T08:55:23Z</time>
      </trkpt>
      <trkpt lat="46.48104" lon="5.6281">
        <ele>513.4</ele>
        <time>2022-07-29T08:55:24Z</time>
      </trkpt>
      <trkpt lat="46.48101" lon="5.62812">
        <ele>513.4</ele>
        <time>2022-07-29T08:55:25Z</time>
      </trkpt>
      <trkpt lat="46.48099" lon="5.62815">
        <ele>513.8</ele>
        <time>2022-07-29T08:55:26Z</time>
      </trkpt>
      <trkpt lat="46.48098" lon="5.62817">
        <ele>513.8</ele>
        <time>2022-07-29T08:55:27Z</time>
      </trkpt>
      <trkpt lat="46.48096" lon="5.62819">
        <ele>514.2</ele>
        <time>2022-07-29T08:55:28Z</time>
      </trkpt>
      <trkpt lat="46.48094" lon="5.6282">
        <ele>514.2</ele>
        <time>2022-07-29T08:55:29Z</time>
      </trkpt>
      <trkpt lat="46.48091" lon="5.62823">
        <ele>514.4</ele>
        <time>2022-07-29T08:55:30Z</time>
      </trkpt>
      <trkpt lat="46.48089" lon="5.62826">
        <ele>514.4</ele>
        <time>2022-07-29T08:55:31Z</time>
      </trkpt>
      <trkpt lat="46.48087" lon="5.62828">
        <ele>514.8</ele>
        <time>2022-07-29T08:55:32Z</time>
      </trkpt>
      <trkpt lat="46.48084" lon="5.62831">
        <ele>514.8</ele>
        <time>2022-07-29T08:55:33Z</time>
      </trkpt>
      <trkpt lat="46.48082" lon="5.62834">
        <ele>515.2</ele>
        <time>2022-07-29T08:55:34Z</time>
      </trkpt>
      <trkpt lat="46.48079" lon="5.62836">
        <ele>515.4</ele>
        <time>2022-07-29T08:55:35Z</time>
      </trkpt>
      <trkpt lat="46.48077" lon="5.62838">
        <ele>515.6</ele>
        <time>2022-07-29T08:55:36Z</time>
      </trkpt>
      <trkpt lat="46.48074" lon="5.62841">
        <ele>515.8</ele>
        <time>2022-07-29T08:55:37Z</time>
      </trkpt>
      <trkpt lat="46.48071" lon="5.62842">
        <ele>516</ele>
        <time>2022-07-29T08:55:38Z</time>
      </trkpt>
      <trkpt lat="46.48069" lon="5.62844">
        <ele>516</ele>
        <time>2022-07-29T08:55:39Z</time>
      </trkpt>
      <trkpt lat="46.48066" lon="5.62845">
        <ele>516.4</ele>
        <time>2022-07-29T08:55:40Z</time>
      </trkpt>
      <trkpt lat="46.48063" lon="5.62847">
        <ele>516.4</ele>
        <time>2022-07-29T08:55:41Z</time>
      </trkpt>
      <trkpt lat="46.4806" lon="5.62848">
        <ele>516.8</ele>
        <time>2022-07-29T08:55:42Z</time>
      </trkpt>
      <trkpt lat="46.48056" lon="5.62849">
        <ele>517</ele>
        <time>2022-07-29T08:55:43Z</time>
      </trkpt>
      <trkpt lat="46.48053" lon="5.6285">
        <ele>517</ele>
        <time>2022-07-29T08:55:44Z</time>
      </trkpt>
      <trkpt lat="46.4805" lon="5.62851">
        <ele>517</ele>
        <time>2022-07-29T08:55:45Z</time>
      </trkpt>
      <trkpt lat="46.48047" lon="5.62851">
        <ele>517.4</ele>
        <time>2022-07-29T08:55:46Z</time>
      </trkpt>
      <trkpt lat="46.48043" lon="5.62851">
        <ele>517.4</ele>
        <time>2022-07-29T08:55:47Z</time>
      </trkpt>
      <trkpt lat="46.4804" lon="5.62851">
        <ele>517.6</ele>
        <time>2022-07-29T08:55:48Z</time>
      </trkpt>
      <trkpt lat="46.48036" lon="5.62851">
        <ele>517.6</ele>
        <time>2022-07-29T08:55:49Z</time>
      </trkpt>
      <trkpt lat="46.48033" lon="5.62851">
        <ele>517.8</ele>
        <time>2022-07-29T08:55:50Z</time>
      </trkpt>
      <trkpt lat="46.48029" lon="5.6285">
        <ele>517.8</ele>
        <time>2022-07-29T08:55:51Z</time>
      </trkpt>
      <trkpt lat="46.48026" lon="5.62849">
        <ele>517.8</ele>
        <time>2022-07-29T08:55:52Z</time>
      </trkpt>
      <trkpt lat="46.48022" lon="5.62848">
        <ele>518</ele>
        <time>2022-07-29T08:55:53Z</time>
      </trkpt>
      <trkpt lat="46.48019" lon="5.62848">
        <ele>518</ele>
        <time>2022-07-29T08:55:54Z</time>
      </trkpt>
      <trkpt lat="46.48015" lon="5.62847">
        <ele>518</ele>
        <time>2022-07-29T08:55:55Z</time>
      </trkpt>
      <trkpt lat="46.48012" lon="5.62846">
        <ele>518.2</ele>
        <time>2022-07-29T08:55:56Z</time>
      </trkpt>
      <trkpt lat="46.48008" lon="5.62844">
        <ele>518.2</ele>
        <time>2022-07-29T08:55:57Z</time>
      </trkpt>
      <trkpt lat="46.48005" lon="5.62843">
        <ele>518.2</ele>
        <time>2022-07-29T08:55:58Z</time>
      </trkpt>
      <trkpt lat="46.48001" lon="5.62842">
        <ele>518.2</ele>
        <time>2022-07-29T08:55:59Z</time>
      </trkpt>
      <trkpt lat="46.47998" lon="5.62841">
        <ele>518.2</ele>
        <time>2022-07-29T08:56:00Z</time>
      </trkpt>
      <trkpt lat="46.47994" lon="5.62839">
        <ele>518.2</ele>
        <time>2022-07-29T08:56:01Z</time>
      </trkpt>
      <trkpt lat="46.4799" lon="5.62837">
        <ele>518.2</ele>
        <time>2022-07-29T08:56:02Z</time>
      </trkpt>
      <trkpt lat="46.47987" lon="5.62834">
        <ele>518.2</ele>
        <time>2022-07-29T08:56:03Z</time>
      </trkpt>
      <trkpt lat="46.47983" lon="5.62831">
        <ele>518.2</ele>
        <time>2022-07-29T08:56:04Z</time>
      </trkpt>
      <trkpt lat="46.47979" lon="5.62827">
        <ele>518.2</ele>
        <time>2022-07-29T08:56:05Z</time>
      </trkpt>
      <trkpt lat="46.47976" lon="5.62823">
        <ele>518.2</ele>
        <time>2022-07-29T08:56:06Z</time>
      </trkpt>
      <trkpt lat="46.47972" lon="5.62819">
        <ele>518.2</ele>
        <time>2022-07-29T08:56:07Z</time>
      </trkpt>
      <trkpt lat="46.47969" lon="5.62815">
        <ele>518.2</ele>
        <time>2022-07-29T08:56:08Z</time>
      </trkpt>
      <trkpt lat="46.47965" lon="5.6281">
        <ele>518.2</ele>
        <time>2022-07-29T08:56:09Z</time>
      </trkpt>
      <trkpt lat="46.47961" lon="5.62806">
        <ele>518.2</ele>
        <time>2022-07-29T08:56:10Z</time>
      </trkpt>
      <trkpt lat="46.47958" lon="5.62802">
        <ele>518.2</ele>
        <time>2022-07-29T08:56:11Z</time>
      </trkpt>
      <trkpt lat="46.47954" lon="5.62798">
        <ele>518.2</ele>
        <time>2022-07-29T08:56:12Z</time>
      </trkpt>
      <trkpt lat="46.4795" lon="5.62794">
        <ele>518.4</ele>
        <time>2022-07-29T08:56:13Z</time>
      </trkpt>
      <trkpt lat="46.47947" lon="5.6279">
        <ele>518.4</ele>
        <time>2022-07-29T08:56:14Z</time>
      </trkpt>
      <trkpt lat="46.47943" lon="5.62787">
        <ele>518.8</ele>
        <time>2022-07-29T08:56:15Z</time>
      </trkpt>
      <trkpt lat="46.4794" lon="5.62784">
        <ele>519</ele>
        <time>2022-07-29T08:56:16Z</time>
      </trkpt>
      <trkpt lat="46.47936" lon="5.62783">
        <ele>519.4</ele>
        <time>2022-07-29T08:56:17Z</time>
      </trkpt>
      <trkpt lat="46.47933" lon="5.62781">
        <ele>519.6</ele>
        <time>2022-07-29T08:56:18Z</time>
      </trkpt>
      <trkpt lat="46.4793" lon="5.62779">
        <ele>519.8</ele>
        <time>2022-07-29T08:56:19Z</time>
      </trkpt>
      <trkpt lat="46.47926" lon="5.62777">
        <ele>519.8</ele>
        <time>2022-07-29T08:56:20Z</time>
      </trkpt>
      <trkpt lat="46.47923" lon="5.62775">
        <ele>520.2</ele>
        <time>2022-07-29T08:56:21Z</time>
      </trkpt>
      <trkpt lat="46.4792" lon="5.62774">
        <ele>520.2</ele>
        <time>2022-07-29T08:56:22Z</time>
      </trkpt>
      <trkpt lat="46.47917" lon="5.62772">
        <ele>520.6</ele>
        <time>2022-07-29T08:56:23Z</time>
      </trkpt>
      <trkpt lat="46.47914" lon="5.6277">
        <ele>520.6</ele>
        <time>2022-07-29T08:56:24Z</time>
      </trkpt>
      <trkpt lat="46.47911" lon="5.62768">
        <ele>521</ele>
        <time>2022-07-29T08:56:25Z</time>
      </trkpt>
      <trkpt lat="46.47909" lon="5.62766">
        <ele>521</ele>
        <time>2022-07-29T08:56:26Z</time>
      </trkpt>
      <trkpt lat="46.47906" lon="5.62764">
        <ele>521.2</ele>
        <time>2022-07-29T08:56:27Z</time>
      </trkpt>
      <trkpt lat="46.47903" lon="5.62762">
        <ele>521.2</ele>
        <time>2022-07-29T08:56:28Z</time>
      </trkpt>
      <trkpt lat="46.47901" lon="5.62759">
        <ele>521.2</ele>
        <time>2022-07-29T08:56:29Z</time>
      </trkpt>
      <trkpt lat="46.47898" lon="5.62755">
        <ele>521.6</ele>
        <time>2022-07-29T08:56:30Z</time>
      </trkpt>
      <trkpt lat="46.47895" lon="5.62751">
        <ele>521.6</ele>
        <time>2022-07-29T08:56:31Z</time>
      </trkpt>
      <trkpt lat="46.47893" lon="5.62747">
        <ele>521.8</ele>
        <time>2022-07-29T08:56:32Z</time>
      </trkpt>
      <trkpt lat="46.47891" lon="5.62743">
        <ele>521.8</ele>
        <time>2022-07-29T08:56:33Z</time>
      </trkpt>
      <trkpt lat="46.47889" lon="5.62739">
        <ele>522</ele>
        <time>2022-07-29T08:56:34Z</time>
      </trkpt>
      <trkpt lat="46.47888" lon="5.62735">
        <ele>522</ele>
        <time>2022-07-29T08:56:35Z</time>
      </trkpt>
      <trkpt lat="46.47886" lon="5.62731">
        <ele>522.4</ele>
        <time>2022-07-29T08:56:36Z</time>
      </trkpt>
      <trkpt lat="46.47884" lon="5.62727">
        <ele>522.4</ele>
        <time>2022-07-29T08:56:37Z</time>
      </trkpt>
      <trkpt lat="46.47882" lon="5.62719">
        <ele>522.8</ele>
        <time>2022-07-29T08:56:38Z</time>
      </trkpt>
      <trkpt lat="46.47881" lon="5.62715">
        <ele>522.8</ele>
        <time>2022-07-29T08:56:39Z</time>
      </trkpt>
      <trkpt lat="46.4788" lon="5.6271">
        <ele>523.2</ele>
        <time>2022-07-29T08:56:40Z</time>
      </trkpt>
      <trkpt lat="46.4788" lon="5.6271">
        <ele>523.2</ele>
        <time>2022-07-29T08:56:41Z</time>
      </trkpt>
      <trkpt lat="46.4788" lon="5.62706">
        <ele>523.4</ele>
        <time>2022-07-29T08:56:42Z</time>
      </trkpt>
      <trkpt lat="46.47879" lon="5.62701">
        <ele>523.4</ele>
        <time>2022-07-29T08:56:43Z</time>
      </trkpt>
      <trkpt lat="46.47878" lon="5.62697">
        <ele>523.8</ele>
        <time>2022-07-29T08:56:44Z</time>
      </trkpt>
      <trkpt lat="46.47878" lon="5.62693">
        <ele>523.8</ele>
        <time>2022-07-29T08:56:45Z</time>
      </trkpt>
      <trkpt lat="46.47877" lon="5.62689">
        <ele>524.2</ele>
        <time>2022-07-29T08:56:46Z</time>
      </trkpt>
      <trkpt lat="46.47877" lon="5.62685">
        <ele>524.4</ele>
        <time>2022-07-29T08:56:47Z</time>
      </trkpt>
      <trkpt lat="46.47876" lon="5.62681">
        <ele>524.4</ele>
        <time>2022-07-29T08:56:48Z</time>
      </trkpt>
      <trkpt lat="46.47875" lon="5.62676">
        <ele>524.8</ele>
        <time>2022-07-29T08:56:49Z</time>
      </trkpt>
      <trkpt lat="46.47875" lon="5.62672">
        <ele>524.8</ele>
        <time>2022-07-29T08:56:50Z</time>
      </trkpt>
      <trkpt lat="46.47874" lon="5.62667">
        <ele>525</ele>
        <time>2022-07-29T08:56:51Z</time>
      </trkpt>
      <trkpt lat="46.47873" lon="5.62662">
        <ele>525</ele>
        <time>2022-07-29T08:56:52Z</time>
      </trkpt>
      <trkpt lat="46.47873" lon="5.62657">
        <ele>525.2</ele>
        <time>2022-07-29T08:56:53Z</time>
      </trkpt>
      <trkpt lat="46.47872" lon="5.62653">
        <ele>525.2</ele>
        <time>2022-07-29T08:56:54Z</time>
      </trkpt>
      <trkpt lat="46.47872" lon="5.62648">
        <ele>525.6</ele>
        <time>2022-07-29T08:56:55Z</time>
      </trkpt>
      <trkpt lat="46.47871" lon="5.62643">
        <ele>525.6</ele>
        <time>2022-07-29T08:56:56Z</time>
      </trkpt>
      <trkpt lat="46.47871" lon="5.62639">
        <ele>526</ele>
        <time>2022-07-29T08:56:57Z</time>
      </trkpt>
      <trkpt lat="46.47871" lon="5.62634">
        <ele>526</ele>
        <time>2022-07-29T08:56:58Z</time>
      </trkpt>
      <trkpt lat="46.47871" lon="5.62629">
        <ele>526.2</ele>
        <time>2022-07-29T08:56:59Z</time>
      </trkpt>
      <trkpt lat="46.47871" lon="5.62624">
        <ele>526.2</ele>
        <time>2022-07-29T08:57:00Z</time>
      </trkpt>
      <trkpt lat="46.47872" lon="5.62619">
        <ele>526.4</ele>
        <time>2022-07-29T08:57:01Z</time>
      </trkpt>
      <trkpt lat="46.47872" lon="5.62614">
        <ele>526.4</ele>
        <time>2022-07-29T08:57:02Z</time>
      </trkpt>
      <trkpt lat="46.47872" lon="5.62609">
        <ele>526.8</ele>
        <time>2022-07-29T08:57:03Z</time>
      </trkpt>
      <trkpt lat="46.47873" lon="5.62604">
        <ele>527</ele>
        <time>2022-07-29T08:57:04Z</time>
      </trkpt>
      <trkpt lat="46.47874" lon="5.62599">
        <ele>527.2</ele>
        <time>2022-07-29T08:57:05Z</time>
      </trkpt>
      <trkpt lat="46.47874" lon="5.62594">
        <ele>527.4</ele>
        <time>2022-07-29T08:57:06Z</time>
      </trkpt>
      <trkpt lat="46.47874" lon="5.62589">
        <ele>527.4</ele>
        <time>2022-07-29T08:57:07Z</time>
      </trkpt>
      <trkpt lat="46.47874" lon="5.62585">
        <ele>527.6</ele>
        <time>2022-07-29T08:57:08Z</time>
      </trkpt>
      <trkpt lat="46.47874" lon="5.6258">
        <ele>528</ele>
        <time>2022-07-29T08:57:09Z</time>
      </trkpt>
      <trkpt lat="46.47873" lon="5.62575">
        <ele>528.4</ele>
        <time>2022-07-29T08:57:10Z</time>
      </trkpt>
      <trkpt lat="46.47872" lon="5.62571">
        <ele>528.4</ele>
        <time>2022-07-29T08:57:11Z</time>
      </trkpt>
      <trkpt lat="46.47871" lon="5.62566">
        <ele>528.6</ele>
        <time>2022-07-29T08:57:12Z</time>
      </trkpt>
      <trkpt lat="46.4787" lon="5.62561">
        <ele>528.6</ele>
        <time>2022-07-29T08:57:13Z</time>
      </trkpt>
      <trkpt lat="46.47869" lon="5.62556">
        <ele>528.6</ele>
        <time>2022-07-29T08:57:14Z</time>
      </trkpt>
      <trkpt lat="46.47867" lon="5.62551">
        <ele>529</ele>
        <time>2022-07-29T08:57:15Z</time>
      </trkpt>
      <trkpt lat="46.47865" lon="5.62546">
        <ele>529</ele>
        <time>2022-07-29T08:57:16Z</time>
      </trkpt>
      <trkpt lat="46.47864" lon="5.62542">
        <ele>529.2</ele>
        <time>2022-07-29T08:57:17Z</time>
      </trkpt>
      <trkpt lat="46.47862" lon="5.62537">
        <ele>529.2</ele>
        <time>2022-07-29T08:57:18Z</time>
      </trkpt>
      <trkpt lat="46.47861" lon="5.62532">
        <ele>529.2</ele>
        <time>2022-07-29T08:57:19Z</time>
      </trkpt>
      <trkpt lat="46.4786" lon="5.62527">
        <ele>529.6</ele>
        <time>2022-07-29T08:57:20Z</time>
      </trkpt>
      <trkpt lat="46.4786" lon="5.62522">
        <ele>529.6</ele>
        <time>2022-07-29T08:57:21Z</time>
      </trkpt>
      <trkpt lat="46.47861" lon="5.62516">
        <ele>529.6</ele>
        <time>2022-07-29T08:57:22Z</time>
      </trkpt>
      <trkpt lat="46.47863" lon="5.6251">
        <ele>529.6</ele>
        <time>2022-07-29T08:57:23Z</time>
      </trkpt>
      <trkpt lat="46.47865" lon="5.62503">
        <ele>529.6</ele>
        <time>2022-07-29T08:57:24Z</time>
      </trkpt>
      <trkpt lat="46.47866" lon="5.62496">
        <ele>529.4</ele>
        <time>2022-07-29T08:57:25Z</time>
      </trkpt>
      <trkpt lat="46.47868" lon="5.62489">
        <ele>529.4</ele>
        <time>2022-07-29T08:57:26Z</time>
      </trkpt>
      <trkpt lat="46.4787" lon="5.62483">
        <ele>529.4</ele>
        <time>2022-07-29T08:57:27Z</time>
      </trkpt>
      <trkpt lat="46.47872" lon="5.62475">
        <ele>529</ele>
        <time>2022-07-29T08:57:28Z</time>
      </trkpt>
      <trkpt lat="46.47873" lon="5.62468">
        <ele>529</ele>
        <time>2022-07-29T08:57:29Z</time>
      </trkpt>
      <trkpt lat="46.47876" lon="5.62461">
        <ele>529</ele>
        <time>2022-07-29T08:57:30Z</time>
      </trkpt>
      <trkpt lat="46.47878" lon="5.62453">
        <ele>528.8</ele>
        <time>2022-07-29T08:57:31Z</time>
      </trkpt>
      <trkpt lat="46.47881" lon="5.62446">
        <ele>528.8</ele>
        <time>2022-07-29T08:57:32Z</time>
      </trkpt>
      <trkpt lat="46.47883" lon="5.6244">
        <ele>528.6</ele>
        <time>2022-07-29T08:57:33Z</time>
      </trkpt>
      <trkpt lat="46.47886" lon="5.62433">
        <ele>528.6</ele>
        <time>2022-07-29T08:57:34Z</time>
      </trkpt>
      <trkpt lat="46.47889" lon="5.62425">
        <ele>528.4</ele>
        <time>2022-07-29T08:57:35Z</time>
      </trkpt>
      <trkpt lat="46.47891" lon="5.62418">
        <ele>528.4</ele>
        <time>2022-07-29T08:57:36Z</time>
      </trkpt>
      <trkpt lat="46.47894" lon="5.62411">
        <ele>528.4</ele>
        <time>2022-07-29T08:57:37Z</time>
      </trkpt>
      <trkpt lat="46.47896" lon="5.62403">
        <ele>528</ele>
        <time>2022-07-29T08:57:38Z</time>
      </trkpt>
      <trkpt lat="46.47899" lon="5.62395">
        <ele>528</ele>
        <time>2022-07-29T08:57:39Z</time>
      </trkpt>
      <trkpt lat="46.47902" lon="5.62387">
        <ele>527.4</ele>
        <time>2022-07-29T08:57:40Z</time>
      </trkpt>
      <trkpt lat="46.47906" lon="5.6238">
        <ele>527.4</ele>
        <time>2022-07-29T08:57:41Z</time>
      </trkpt>
      <trkpt lat="46.4791" lon="5.62373">
        <ele>527.2</ele>
        <time>2022-07-29T08:57:42Z</time>
      </trkpt>
      <trkpt lat="46.47914" lon="5.62365">
        <ele>527.2</ele>
        <time>2022-07-29T08:57:43Z</time>
      </trkpt>
      <trkpt lat="46.47919" lon="5.62359">
        <ele>526.8</ele>
        <time>2022-07-29T08:57:44Z</time>
      </trkpt>
      <trkpt lat="46.47923" lon="5.62352">
        <ele>526.8</ele>
        <time>2022-07-29T08:57:45Z</time>
      </trkpt>
      <trkpt lat="46.47928" lon="5.62346">
        <ele>526.4</ele>
        <time>2022-07-29T08:57:46Z</time>
      </trkpt>
      <trkpt lat="46.47933" lon="5.6234">
        <ele>526.4</ele>
        <time>2022-07-29T08:57:47Z</time>
      </trkpt>
      <trkpt lat="46.47938" lon="5.62335">
        <ele>526</ele>
        <time>2022-07-29T08:57:48Z</time>
      </trkpt>
      <trkpt lat="46.47944" lon="5.6233">
        <ele>526</ele>
        <time>2022-07-29T08:57:49Z</time>
      </trkpt>
      <trkpt lat="46.47949" lon="5.62325">
        <ele>525.6</ele>
        <time>2022-07-29T08:57:50Z</time>
      </trkpt>
      <trkpt lat="46.47954" lon="5.6232">
        <ele>525.6</ele>
        <time>2022-07-29T08:57:51Z</time>
      </trkpt>
      <trkpt lat="46.47959" lon="5.62315">
        <ele>525.6</ele>
        <time>2022-07-29T08:57:52Z</time>
      </trkpt>
      <trkpt lat="46.47964" lon="5.62311">
        <ele>525.6</ele>
        <time>2022-07-29T08:57:53Z</time>
      </trkpt>
      <trkpt lat="46.47969" lon="5.62307">
        <ele>525.6</ele>
        <time>2022-07-29T08:57:54Z</time>
      </trkpt>
      <trkpt lat="46.47974" lon="5.62303">
        <ele>525.6</ele>
        <time>2022-07-29T08:57:55Z</time>
      </trkpt>
      <trkpt lat="46.47979" lon="5.62299">
        <ele>525.6</ele>
        <time>2022-07-29T08:57:56Z</time>
      </trkpt>
      <trkpt lat="46.47983" lon="5.62295">
        <ele>526</ele>
        <time>2022-07-29T08:57:57Z</time>
      </trkpt>
      <trkpt lat="46.47987" lon="5.62291">
        <ele>526</ele>
        <time>2022-07-29T08:57:58Z</time>
      </trkpt>
      <trkpt lat="46.47991" lon="5.62287">
        <ele>526.4</ele>
        <time>2022-07-29T08:57:59Z</time>
      </trkpt>
      <trkpt lat="46.47995" lon="5.62283">
        <ele>526.4</ele>
        <time>2022-07-29T08:58:00Z</time>
      </trkpt>
      <trkpt lat="46.47999" lon="5.62278">
        <ele>526.8</ele>
        <time>2022-07-29T08:58:01Z</time>
      </trkpt>
      <trkpt lat="46.48002" lon="5.62274">
        <ele>526.8</ele>
        <time>2022-07-29T08:58:02Z</time>
      </trkpt>
      <trkpt lat="46.48006" lon="5.62269">
        <ele>527</ele>
        <time>2022-07-29T08:58:03Z</time>
      </trkpt>
      <trkpt lat="46.4801" lon="5.62265">
        <ele>527</ele>
        <time>2022-07-29T08:58:04Z</time>
      </trkpt>
      <trkpt lat="46.48013" lon="5.6226">
        <ele>527.4</ele>
        <time>2022-07-29T08:58:05Z</time>
      </trkpt>
      <trkpt lat="46.48016" lon="5.62255">
        <ele>527.6</ele>
        <time>2022-07-29T08:58:06Z</time>
      </trkpt>
      <trkpt lat="46.48019" lon="5.6225">
        <ele>527.8</ele>
        <time>2022-07-29T08:58:07Z</time>
      </trkpt>
      <trkpt lat="46.48021" lon="5.62245">
        <ele>528.2</ele>
        <time>2022-07-29T08:58:08Z</time>
      </trkpt>
      <trkpt lat="46.48024" lon="5.6224">
        <ele>528.6</ele>
        <time>2022-07-29T08:58:09Z</time>
      </trkpt>
      <trkpt lat="46.48026" lon="5.62235">
        <ele>528.8</ele>
        <time>2022-07-29T08:58:10Z</time>
      </trkpt>
      <trkpt lat="46.48028" lon="5.6223">
        <ele>529.2</ele>
        <time>2022-07-29T08:58:11Z</time>
      </trkpt>
      <trkpt lat="46.4803" lon="5.62225">
        <ele>529.6</ele>
        <time>2022-07-29T08:58:12Z</time>
      </trkpt>
      <trkpt lat="46.48031" lon="5.62219">
        <ele>530</ele>
        <time>2022-07-29T08:58:13Z</time>
      </trkpt>
      <trkpt lat="46.48033" lon="5.62213">
        <ele>530.4</ele>
        <time>2022-07-29T08:58:14Z</time>
      </trkpt>
      <trkpt lat="46.48034" lon="5.62208">
        <ele>530.6</ele>
        <time>2022-07-29T08:58:15Z</time>
      </trkpt>
      <trkpt lat="46.48036" lon="5.62203">
        <ele>530.8</ele>
        <time>2022-07-29T08:58:16Z</time>
      </trkpt>
      <trkpt lat="46.48038" lon="5.62197">
        <ele>531.2</ele>
        <time>2022-07-29T08:58:17Z</time>
      </trkpt>
      <trkpt lat="46.4804" lon="5.62191">
        <ele>531.4</ele>
        <time>2022-07-29T08:58:18Z</time>
      </trkpt>
      <trkpt lat="46.48041" lon="5.62185">
        <ele>531.6</ele>
        <time>2022-07-29T08:58:19Z</time>
      </trkpt>
      <trkpt lat="46.48041" lon="5.62179">
        <ele>532</ele>
        <time>2022-07-29T08:58:20Z</time>
      </trkpt>
      <trkpt lat="46.48041" lon="5.62172">
        <ele>532.2</ele>
        <time>2022-07-29T08:58:21Z</time>
      </trkpt>
      <trkpt lat="46.48041" lon="5.62166">
        <ele>532.2</ele>
        <time>2022-07-29T08:58:22Z</time>
      </trkpt>
      <trkpt lat="46.4804" lon="5.6216">
        <ele>532.6</ele>
        <time>2022-07-29T08:58:23Z</time>
      </trkpt>
      <trkpt lat="46.48038" lon="5.62153">
        <ele>532.6</ele>
        <time>2022-07-29T08:58:24Z</time>
      </trkpt>
      <trkpt lat="46.48036" lon="5.62146">
        <ele>532.6</ele>
        <time>2022-07-29T08:58:25Z</time>
      </trkpt>
      <trkpt lat="46.48034" lon="5.62139">
        <ele>532.6</ele>
        <time>2022-07-29T08:58:26Z</time>
      </trkpt>
      <trkpt lat="46.48033" lon="5.62132">
        <ele>532.6</ele>
        <time>2022-07-29T08:58:27Z</time>
      </trkpt>
      <trkpt lat="46.48032" lon="5.62124">
        <ele>532.6</ele>
        <time>2022-07-29T08:58:28Z</time>
      </trkpt>
      <trkpt lat="46.48032" lon="5.62115">
        <ele>532.6</ele>
        <time>2022-07-29T08:58:29Z</time>
      </trkpt>
      <trkpt lat="46.48033" lon="5.62107">
        <ele>532.6</ele>
        <time>2022-07-29T08:58:30Z</time>
      </trkpt>
      <trkpt lat="46.48035" lon="5.62099">
        <ele>532.6</ele>
        <time>2022-07-29T08:58:31Z</time>
      </trkpt>
      <trkpt lat="46.48037" lon="5.62091">
        <ele>532.6</ele>
        <time>2022-07-29T08:58:32Z</time>
      </trkpt>
      <trkpt lat="46.4804" lon="5.62084">
        <ele>532.4</ele>
        <time>2022-07-29T08:58:33Z</time>
      </trkpt>
      <trkpt lat="46.48042" lon="5.62076">
        <ele>532.4</ele>
        <time>2022-07-29T08:58:34Z</time>
      </trkpt>
      <trkpt lat="46.48044" lon="5.62069">
        <ele>532.4</ele>
        <time>2022-07-29T08:58:35Z</time>
      </trkpt>
      <trkpt lat="46.48046" lon="5.62062">
        <ele>532.4</ele>
        <time>2022-07-29T08:58:36Z</time>
      </trkpt>
      <trkpt lat="46.48048" lon="5.62054">
        <ele>532.4</ele>
        <time>2022-07-29T08:58:37Z</time>
      </trkpt>
      <trkpt lat="46.4805" lon="5.62046">
        <ele>532.4</ele>
        <time>2022-07-29T08:58:38Z</time>
      </trkpt>
      <trkpt lat="46.48052" lon="5.62039">
        <ele>532.4</ele>
        <time>2022-07-29T08:58:39Z</time>
      </trkpt>
      <trkpt lat="46.48053" lon="5.62031">
        <ele>532.4</ele>
        <time>2022-07-29T08:58:40Z</time>
      </trkpt>
      <trkpt lat="46.48054" lon="5.62023">
        <ele>532.4</ele>
        <time>2022-07-29T08:58:41Z</time>
      </trkpt>
      <trkpt lat="46.48055" lon="5.62015">
        <ele>532.4</ele>
        <time>2022-07-29T08:58:42Z</time>
      </trkpt>
      <trkpt lat="46.48055" lon="5.62007">
        <ele>532.4</ele>
        <time>2022-07-29T08:58:43Z</time>
      </trkpt>
      <trkpt lat="46.48054" lon="5.61998">
        <ele>532.4</ele>
        <time>2022-07-29T08:58:44Z</time>
      </trkpt>
      <trkpt lat="46.48052" lon="5.61988">
        <ele>532</ele>
        <time>2022-07-29T08:58:45Z</time>
      </trkpt>
      <trkpt lat="46.48049" lon="5.61978">
        <ele>531.6</ele>
        <time>2022-07-29T08:58:46Z</time>
      </trkpt>
      <trkpt lat="46.48046" lon="5.61967">
        <ele>531.4</ele>
        <time>2022-07-29T08:58:47Z</time>
      </trkpt>
      <trkpt lat="46.48043" lon="5.61957">
        <ele>531</ele>
        <time>2022-07-29T08:58:48Z</time>
      </trkpt>
      <trkpt lat="46.4804" lon="5.61945">
        <ele>530.6</ele>
        <time>2022-07-29T08:58:49Z</time>
      </trkpt>
      <trkpt lat="46.48037" lon="5.61934">
        <ele>530.2</ele>
        <time>2022-07-29T08:58:50Z</time>
      </trkpt>
      <trkpt lat="46.48034" lon="5.61922">
        <ele>530</ele>
        <time>2022-07-29T08:58:51Z</time>
      </trkpt>
      <trkpt lat="46.48032" lon="5.6191">
        <ele>530</ele>
        <time>2022-07-29T08:58:52Z</time>
      </trkpt>
      <trkpt lat="46.48031" lon="5.61898">
        <ele>529.6</ele>
        <time>2022-07-29T08:58:53Z</time>
      </trkpt>
      <trkpt lat="46.48031" lon="5.61886">
        <ele>529.6</ele>
        <time>2022-07-29T08:58:54Z</time>
      </trkpt>
      <trkpt lat="46.48031" lon="5.61874">
        <ele>529.6</ele>
        <time>2022-07-29T08:58:55Z</time>
      </trkpt>
      <trkpt lat="46.48031" lon="5.61863">
        <ele>529.6</ele>
        <time>2022-07-29T08:58:56Z</time>
      </trkpt>
      <trkpt lat="46.48032" lon="5.61852">
        <ele>529.6</ele>
        <time>2022-07-29T08:58:57Z</time>
      </trkpt>
      <trkpt lat="46.48032" lon="5.61841">
        <ele>529.6</ele>
        <time>2022-07-29T08:58:58Z</time>
      </trkpt>
      <trkpt lat="46.48033" lon="5.61831">
        <ele>529.6</ele>
        <time>2022-07-29T08:58:59Z</time>
      </trkpt>
      <trkpt lat="46.48032" lon="5.6182">
        <ele>529.8</ele>
        <time>2022-07-29T08:59:00Z</time>
      </trkpt>
      <trkpt lat="46.48032" lon="5.6181">
        <ele>529.8</ele>
        <time>2022-07-29T08:59:01Z</time>
      </trkpt>
      <trkpt lat="46.4803" lon="5.618">
        <ele>530</ele>
        <time>2022-07-29T08:59:02Z</time>
      </trkpt>
      <trkpt lat="46.48028" lon="5.61791">
        <ele>530</ele>
        <time>2022-07-29T08:59:03Z</time>
      </trkpt>
      <trkpt lat="46.48024" lon="5.61783">
        <ele>530.4</ele>
        <time>2022-07-29T08:59:04Z</time>
      </trkpt>
      <trkpt lat="46.4802" lon="5.61776">
        <ele>530.6</ele>
        <time>2022-07-29T08:59:05Z</time>
      </trkpt>
      <trkpt lat="46.48016" lon="5.6177">
        <ele>530.6</ele>
        <time>2022-07-29T08:59:06Z</time>
      </trkpt>
      <trkpt lat="46.48011" lon="5.61765">
        <ele>530.8</ele>
        <time>2022-07-29T08:59:07Z</time>
      </trkpt>
      <trkpt lat="46.48006" lon="5.61761">
        <ele>530.8</ele>
        <time>2022-07-29T08:59:08Z</time>
      </trkpt>
      <trkpt lat="46.48001" lon="5.61757">
        <ele>531.2</ele>
        <time>2022-07-29T08:59:09Z</time>
      </trkpt>
      <trkpt lat="46.47996" lon="5.61754">
        <ele>531.2</ele>
        <time>2022-07-29T08:59:10Z</time>
      </trkpt>
      <trkpt lat="46.47991" lon="5.6175">
        <ele>531.6</ele>
        <time>2022-07-29T08:59:11Z</time>
      </trkpt>
      <trkpt lat="46.47986" lon="5.61747">
        <ele>531.6</ele>
        <time>2022-07-29T08:59:12Z</time>
      </trkpt>
      <trkpt lat="46.47981" lon="5.61744">
        <ele>531.8</ele>
        <time>2022-07-29T08:59:13Z</time>
      </trkpt>
      <trkpt lat="46.47976" lon="5.6174">
        <ele>531.8</ele>
        <time>2022-07-29T08:59:14Z</time>
      </trkpt>
      <trkpt lat="46.47971" lon="5.61736">
        <ele>532</ele>
        <time>2022-07-29T08:59:15Z</time>
      </trkpt>
      <trkpt lat="46.47966" lon="5.61732">
        <ele>532</ele>
        <time>2022-07-29T08:59:16Z</time>
      </trkpt>
      <trkpt lat="46.47961" lon="5.61729">
        <ele>532.2</ele>
        <time>2022-07-29T08:59:17Z</time>
      </trkpt>
      <trkpt lat="46.47956" lon="5.61725">
        <ele>532.2</ele>
        <time>2022-07-29T08:59:18Z</time>
      </trkpt>
      <trkpt lat="46.4795" lon="5.61722">
        <ele>532.4</ele>
        <time>2022-07-29T08:59:19Z</time>
      </trkpt>
      <trkpt lat="46.47945" lon="5.61719">
        <ele>532.4</ele>
        <time>2022-07-29T08:59:20Z</time>
      </trkpt>
      <trkpt lat="46.47939" lon="5.61717">
        <ele>532.4</ele>
        <time>2022-07-29T08:59:21Z</time>
      </trkpt>
      <trkpt lat="46.47934" lon="5.61714">
        <ele>532.4</ele>
        <time>2022-07-29T08:59:22Z</time>
      </trkpt>
      <trkpt lat="46.47928" lon="5.61712">
        <ele>532.4</ele>
        <time>2022-07-29T08:59:23Z</time>
      </trkpt>
      <trkpt lat="46.47923" lon="5.61709">
        <ele>532.8</ele>
        <time>2022-07-29T08:59:24Z</time>
      </trkpt>
      <trkpt lat="46.47917" lon="5.61706">
        <ele>532.8</ele>
        <time>2022-07-29T08:59:25Z</time>
      </trkpt>
      <trkpt lat="46.47912" lon="5.61703">
        <ele>533</ele>
        <time>2022-07-29T08:59:26Z</time>
      </trkpt>
      <trkpt lat="46.47907" lon="5.617">
        <ele>533</ele>
        <time>2022-07-29T08:59:27Z</time>
      </trkpt>
      <trkpt lat="46.47902" lon="5.61697">
        <ele>533.2</ele>
        <time>2022-07-29T08:59:28Z</time>
      </trkpt>
      <trkpt lat="46.47897" lon="5.61694">
        <ele>533.2</ele>
        <time>2022-07-29T08:59:29Z</time>
      </trkpt>
      <trkpt lat="46.47892" lon="5.61691">
        <ele>533.4</ele>
        <time>2022-07-29T08:59:30Z</time>
      </trkpt>
      <trkpt lat="46.47888" lon="5.61688">
        <ele>533.4</ele>
        <time>2022-07-29T08:59:31Z</time>
      </trkpt>
      <trkpt lat="46.47883" lon="5.61685">
        <ele>533.8</ele>
        <time>2022-07-29T08:59:32Z</time>
      </trkpt>
      <trkpt lat="46.47878" lon="5.61681">
        <ele>533.8</ele>
        <time>2022-07-29T08:59:33Z</time>
      </trkpt>
      <trkpt lat="46.47873" lon="5.61678">
        <ele>534</ele>
        <time>2022-07-29T08:59:34Z</time>
      </trkpt>
      <trkpt lat="46.47868" lon="5.61674">
        <ele>534</ele>
        <time>2022-07-29T08:59:35Z</time>
      </trkpt>
      <trkpt lat="46.47863" lon="5.61671">
        <ele>534.2</ele>
        <time>2022-07-29T08:59:36Z</time>
      </trkpt>
      <trkpt lat="46.47859" lon="5.61669">
        <ele>534.2</ele>
        <time>2022-07-29T08:59:37Z</time>
      </trkpt>
      <trkpt lat="46.4785" lon="5.61663">
        <ele>534.2</ele>
        <time>2022-07-29T08:59:38Z</time>
      </trkpt>
      <trkpt lat="46.4785" lon="5.61663">
        <ele>534.4</ele>
        <time>2022-07-29T08:59:39Z</time>
      </trkpt>
      <trkpt lat="46.47846" lon="5.6166">
        <ele>534.4</ele>
        <time>2022-07-29T08:59:40Z</time>
      </trkpt>
      <trkpt lat="46.47841" lon="5.61656">
        <ele>534.6</ele>
        <time>2022-07-29T08:59:41Z</time>
      </trkpt>
      <trkpt lat="46.47837" lon="5.61653">
        <ele>534.6</ele>
        <time>2022-07-29T08:59:42Z</time>
      </trkpt>
      <trkpt lat="46.47832" lon="5.61651">
        <ele>535</ele>
        <time>2022-07-29T08:59:43Z</time>
      </trkpt>
      <trkpt lat="46.47828" lon="5.61648">
        <ele>535</ele>
        <time>2022-07-29T08:59:44Z</time>
      </trkpt>
      <trkpt lat="46.47823" lon="5.61645">
        <ele>535.2</ele>
        <time>2022-07-29T08:59:45Z</time>
      </trkpt>
      <trkpt lat="46.47819" lon="5.61642">
        <ele>535.2</ele>
        <time>2022-07-29T08:59:46Z</time>
      </trkpt>
      <trkpt lat="46.47814" lon="5.61639">
        <ele>535.2</ele>
        <time>2022-07-29T08:59:47Z</time>
      </trkpt>
      <trkpt lat="46.4781" lon="5.61635">
        <ele>535.4</ele>
        <time>2022-07-29T08:59:48Z</time>
      </trkpt>
      <trkpt lat="46.47806" lon="5.61632">
        <ele>535.4</ele>
        <time>2022-07-29T08:59:49Z</time>
      </trkpt>
      <trkpt lat="46.47803" lon="5.61629">
        <ele>535.4</ele>
        <time>2022-07-29T08:59:50Z</time>
      </trkpt>
      <trkpt lat="46.47799" lon="5.61625">
        <ele>535.6</ele>
        <time>2022-07-29T08:59:51Z</time>
      </trkpt>
      <trkpt lat="46.47796" lon="5.61622">
        <ele>535.6</ele>
        <time>2022-07-29T08:59:52Z</time>
      </trkpt>
      <trkpt lat="46.47793" lon="5.61619">
        <ele>535.8</ele>
        <time>2022-07-29T08:59:53Z</time>
      </trkpt>
      <trkpt lat="46.4779" lon="5.61616">
        <ele>535.8</ele>
        <time>2022-07-29T08:59:54Z</time>
      </trkpt>
      <trkpt lat="46.47786" lon="5.61613">
        <ele>535.8</ele>
        <time>2022-07-29T08:59:55Z</time>
      </trkpt>
      <trkpt lat="46.47783" lon="5.6161">
        <ele>535.8</ele>
        <time>2022-07-29T08:59:56Z</time>
      </trkpt>
      <trkpt lat="46.47779" lon="5.61607">
        <ele>535.8</ele>
        <time>2022-07-29T08:59:57Z</time>
      </trkpt>
      <trkpt lat="46.47775" lon="5.61603">
        <ele>535.8</ele>
        <time>2022-07-29T08:59:58Z</time>
      </trkpt>
      <trkpt lat="46.47771" lon="5.616">
        <ele>535.8</ele>
        <time>2022-07-29T08:59:59Z</time>
      </trkpt>
      <trkpt lat="46.47766" lon="5.61598">
        <ele>535.8</ele>
        <time>2022-07-29T09:00:00Z</time>
      </trkpt>
      <trkpt lat="46.4776" lon="5.61598">
        <ele>535.8</ele>
        <time>2022-07-29T09:00:01Z</time>
      </trkpt>
      <trkpt lat="46.47754" lon="5.61598">
        <ele>535.6</ele>
        <time>2022-07-29T09:00:02Z</time>
      </trkpt>
      <trkpt lat="46.47748" lon="5.61598">
        <ele>535.6</ele>
        <time>2022-07-29T09:00:03Z</time>
      </trkpt>
      <trkpt lat="46.47742" lon="5.61597">
        <ele>535.6</ele>
        <time>2022-07-29T09:00:04Z</time>
      </trkpt>
      <trkpt lat="46.4773" lon="5.61593">
        <ele>535.6</ele>
        <time>2022-07-29T09:00:05Z</time>
      </trkpt>
      <trkpt lat="46.47724" lon="5.61591">
        <ele>535.6</ele>
        <time>2022-07-29T09:00:07Z</time>
      </trkpt>
      <trkpt lat="46.47718" lon="5.61587">
        <ele>535.6</ele>
        <time>2022-07-29T09:00:08Z</time>
      </trkpt>
      <trkpt lat="46.47713" lon="5.61584">
        <ele>535.6</ele>
        <time>2022-07-29T09:00:09Z</time>
      </trkpt>
      <trkpt lat="46.47706" lon="5.6158">
        <ele>535.6</ele>
        <time>2022-07-29T09:00:10Z</time>
      </trkpt>
      <trkpt lat="46.477" lon="5.61576">
        <ele>535.6</ele>
        <time>2022-07-29T09:00:11Z</time>
      </trkpt>
      <trkpt lat="46.47694" lon="5.61571">
        <ele>535.6</ele>
        <time>2022-07-29T09:00:12Z</time>
      </trkpt>
      <trkpt lat="46.47687" lon="5.61567">
        <ele>535.4</ele>
        <time>2022-07-29T09:00:13Z</time>
      </trkpt>
      <trkpt lat="46.47681" lon="5.61563">
        <ele>535.4</ele>
        <time>2022-07-29T09:00:14Z</time>
      </trkpt>
      <trkpt lat="46.47674" lon="5.61559">
        <ele>535.2</ele>
        <time>2022-07-29T09:00:15Z</time>
      </trkpt>
      <trkpt lat="46.47667" lon="5.61554">
        <ele>535.2</ele>
        <time>2022-07-29T09:00:16Z</time>
      </trkpt>
      <trkpt lat="46.47661" lon="5.6155">
        <ele>535.2</ele>
        <time>2022-07-29T09:00:17Z</time>
      </trkpt>
      <trkpt lat="46.47654" lon="5.61546">
        <ele>535.2</ele>
        <time>2022-07-29T09:00:18Z</time>
      </trkpt>
      <trkpt lat="46.47648" lon="5.61542">
        <ele>535.2</ele>
        <time>2022-07-29T09:00:19Z</time>
      </trkpt>
      <trkpt lat="46.47641" lon="5.61538">
        <ele>535.2</ele>
        <time>2022-07-29T09:00:20Z</time>
      </trkpt>
      <trkpt lat="46.47635" lon="5.61534">
        <ele>535.2</ele>
        <time>2022-07-29T09:00:21Z</time>
      </trkpt>
      <trkpt lat="46.47629" lon="5.6153">
        <ele>535.6</ele>
        <time>2022-07-29T09:00:22Z</time>
      </trkpt>
      <trkpt lat="46.47623" lon="5.61526">
        <ele>535.8</ele>
        <time>2022-07-29T09:00:23Z</time>
      </trkpt>
      <trkpt lat="46.47618" lon="5.61522">
        <ele>535.8</ele>
        <time>2022-07-29T09:00:24Z</time>
      </trkpt>
      <trkpt lat="46.47612" lon="5.61518">
        <ele>536</ele>
        <time>2022-07-29T09:00:25Z</time>
      </trkpt>
      <trkpt lat="46.47606" lon="5.61515">
        <ele>536</ele>
        <time>2022-07-29T09:00:26Z</time>
      </trkpt>
      <trkpt lat="46.47601" lon="5.61511">
        <ele>536.4</ele>
        <time>2022-07-29T09:00:27Z</time>
      </trkpt>
      <trkpt lat="46.47595" lon="5.61507">
        <ele>536.4</ele>
        <time>2022-07-29T09:00:28Z</time>
      </trkpt>
      <trkpt lat="46.4759" lon="5.61503">
        <ele>536.8</ele>
        <time>2022-07-29T09:00:29Z</time>
      </trkpt>
      <trkpt lat="46.47585" lon="5.61499">
        <ele>537.2</ele>
        <time>2022-07-29T09:00:30Z</time>
      </trkpt>
      <trkpt lat="46.4758" lon="5.61494">
        <ele>537.4</ele>
        <time>2022-07-29T09:00:31Z</time>
      </trkpt>
      <trkpt lat="46.47575" lon="5.61489">
        <ele>537.6</ele>
        <time>2022-07-29T09:00:32Z</time>
      </trkpt>
      <trkpt lat="46.47571" lon="5.61483">
        <ele>538</ele>
        <time>2022-07-29T09:00:33Z</time>
      </trkpt>
      <trkpt lat="46.47567" lon="5.61478">
        <ele>538.4</ele>
        <time>2022-07-29T09:00:34Z</time>
      </trkpt>
      <trkpt lat="46.47563" lon="5.61472">
        <ele>538.6</ele>
        <time>2022-07-29T09:00:35Z</time>
      </trkpt>
      <trkpt lat="46.47559" lon="5.61465">
        <ele>538.8</ele>
        <time>2022-07-29T09:00:36Z</time>
      </trkpt>
      <trkpt lat="46.47554" lon="5.61459">
        <ele>539</ele>
        <time>2022-07-29T09:00:37Z</time>
      </trkpt>
      <trkpt lat="46.4755" lon="5.61453">
        <ele>539.2</ele>
        <time>2022-07-29T09:00:38Z</time>
      </trkpt>
      <trkpt lat="46.47546" lon="5.61446">
        <ele>539.2</ele>
        <time>2022-07-29T09:00:39Z</time>
      </trkpt>
      <trkpt lat="46.47542" lon="5.6144">
        <ele>539.6</ele>
        <time>2022-07-29T09:00:40Z</time>
      </trkpt>
      <trkpt lat="46.47537" lon="5.61433">
        <ele>539.6</ele>
        <time>2022-07-29T09:00:41Z</time>
      </trkpt>
      <trkpt lat="46.47533" lon="5.61426">
        <ele>539.8</ele>
        <time>2022-07-29T09:00:42Z</time>
      </trkpt>
      <trkpt lat="46.47529" lon="5.6142">
        <ele>539.8</ele>
        <time>2022-07-29T09:00:43Z</time>
      </trkpt>
      <trkpt lat="46.47525" lon="5.61413">
        <ele>539.8</ele>
        <time>2022-07-29T09:00:44Z</time>
      </trkpt>
      <trkpt lat="46.4752" lon="5.61407">
        <ele>539.8</ele>
        <time>2022-07-29T09:00:45Z</time>
      </trkpt>
      <trkpt lat="46.47516" lon="5.614">
        <ele>539.8</ele>
        <time>2022-07-29T09:00:46Z</time>
      </trkpt>
      <trkpt lat="46.47511" lon="5.61394">
        <ele>540</ele>
        <time>2022-07-29T09:00:47Z</time>
      </trkpt>
      <trkpt lat="46.47506" lon="5.61389">
        <ele>540</ele>
        <time>2022-07-29T09:00:48Z</time>
      </trkpt>
      <trkpt lat="46.47501" lon="5.61383">
        <ele>540</ele>
        <time>2022-07-29T09:00:49Z</time>
      </trkpt>
      <trkpt lat="46.47495" lon="5.61378">
        <ele>540</ele>
        <time>2022-07-29T09:00:50Z</time>
      </trkpt>
      <trkpt lat="46.47489" lon="5.61373">
        <ele>539.6</ele>
        <time>2022-07-29T09:00:51Z</time>
      </trkpt>
      <trkpt lat="46.47483" lon="5.61368">
        <ele>539.6</ele>
        <time>2022-07-29T09:00:52Z</time>
      </trkpt>
      <trkpt lat="46.47476" lon="5.61363">
        <ele>539.2</ele>
        <time>2022-07-29T09:00:53Z</time>
      </trkpt>
      <trkpt lat="46.47468" lon="5.61358">
        <ele>538.8</ele>
        <time>2022-07-29T09:00:54Z</time>
      </trkpt>
      <trkpt lat="46.47461" lon="5.61354">
        <ele>538.4</ele>
        <time>2022-07-29T09:00:55Z</time>
      </trkpt>
      <trkpt lat="46.47453" lon="5.61349">
        <ele>538</ele>
        <time>2022-07-29T09:00:56Z</time>
      </trkpt>
      <trkpt lat="46.47445" lon="5.61343">
        <ele>537.6</ele>
        <time>2022-07-29T09:00:57Z</time>
      </trkpt>
      <trkpt lat="46.47436" lon="5.61338">
        <ele>537.2</ele>
        <time>2022-07-29T09:00:58Z</time>
      </trkpt>
      <trkpt lat="46.47427" lon="5.61331">
        <ele>536.8</ele>
        <time>2022-07-29T09:00:59Z</time>
      </trkpt>
      <trkpt lat="46.47417" lon="5.61325">
        <ele>536.4</ele>
        <time>2022-07-29T09:01:00Z</time>
      </trkpt>
      <trkpt lat="46.47408" lon="5.61319">
        <ele>536.2</ele>
        <time>2022-07-29T09:01:01Z</time>
      </trkpt>
      <trkpt lat="46.47401" lon="5.61315">
        <ele>535.8</ele>
        <time>2022-07-29T09:01:02Z</time>
      </trkpt>
      <trkpt lat="46.47393" lon="5.61311">
        <ele>535.4</ele>
        <time>2022-07-29T09:01:03Z</time>
      </trkpt>
      <trkpt lat="46.47385" lon="5.61306">
        <ele>535.2</ele>
        <time>2022-07-29T09:01:04Z</time>
      </trkpt>
      <trkpt lat="46.47377" lon="5.61301">
        <ele>535</ele>
        <time>2022-07-29T09:01:05Z</time>
      </trkpt>
      <trkpt lat="46.47369" lon="5.61296">
        <ele>534.6</ele>
        <time>2022-07-29T09:01:06Z</time>
      </trkpt>
      <trkpt lat="46.4736" lon="5.61292">
        <ele>534.4</ele>
        <time>2022-07-29T09:01:07Z</time>
      </trkpt>
      <trkpt lat="46.47352" lon="5.61287">
        <ele>534.4</ele>
        <time>2022-07-29T09:01:08Z</time>
      </trkpt>
      <trkpt lat="46.47343" lon="5.61283">
        <ele>534.2</ele>
        <time>2022-07-29T09:01:09Z</time>
      </trkpt>
      <trkpt lat="46.47334" lon="5.61279">
        <ele>533.8</ele>
        <time>2022-07-29T09:01:10Z</time>
      </trkpt>
      <trkpt lat="46.47326" lon="5.61275">
        <ele>533.6</ele>
        <time>2022-07-29T09:01:11Z</time>
      </trkpt>
      <trkpt lat="46.47317" lon="5.61272">
        <ele>533.4</ele>
        <time>2022-07-29T09:01:12Z</time>
      </trkpt>
      <trkpt lat="46.47308" lon="5.61268">
        <ele>533.2</ele>
        <time>2022-07-29T09:01:13Z</time>
      </trkpt>
      <trkpt lat="46.473" lon="5.61264">
        <ele>533</ele>
        <time>2022-07-29T09:01:14Z</time>
      </trkpt>
      <trkpt lat="46.47291" lon="5.61261">
        <ele>533</ele>
        <time>2022-07-29T09:01:15Z</time>
      </trkpt>
      <trkpt lat="46.47283" lon="5.61258">
        <ele>532.8</ele>
        <time>2022-07-29T09:01:16Z</time>
      </trkpt>
      <trkpt lat="46.47274" lon="5.61255">
        <ele>532.8</ele>
        <time>2022-07-29T09:01:17Z</time>
      </trkpt>
      <trkpt lat="46.47266" lon="5.61252">
        <ele>532.4</ele>
        <time>2022-07-29T09:01:18Z</time>
      </trkpt>
      <trkpt lat="46.47257" lon="5.61249">
        <ele>532.4</ele>
        <time>2022-07-29T09:01:19Z</time>
      </trkpt>
      <trkpt lat="46.47249" lon="5.61247">
        <ele>532.4</ele>
        <time>2022-07-29T09:01:20Z</time>
      </trkpt>
      <trkpt lat="46.4724" lon="5.61245">
        <ele>532.2</ele>
        <time>2022-07-29T09:01:21Z</time>
      </trkpt>
      <trkpt lat="46.47231" lon="5.61244">
        <ele>532.2</ele>
        <time>2022-07-29T09:01:22Z</time>
      </trkpt>
      <trkpt lat="46.47223" lon="5.61242">
        <ele>532.2</ele>
        <time>2022-07-29T09:01:23Z</time>
      </trkpt>
      <trkpt lat="46.47214" lon="5.61241">
        <ele>532</ele>
        <time>2022-07-29T09:01:24Z</time>
      </trkpt>
      <trkpt lat="46.47206" lon="5.6124">
        <ele>532</ele>
        <time>2022-07-29T09:01:25Z</time>
      </trkpt>
      <trkpt lat="46.47197" lon="5.6124">
        <ele>532</ele>
        <time>2022-07-29T09:01:26Z</time>
      </trkpt>
      <trkpt lat="46.47188" lon="5.61241">
        <ele>532</ele>
        <time>2022-07-29T09:01:27Z</time>
      </trkpt>
      <trkpt lat="46.47179" lon="5.61243">
        <ele>532</ele>
        <time>2022-07-29T09:01:28Z</time>
      </trkpt>
      <trkpt lat="46.47171" lon="5.61245">
        <ele>531.8</ele>
        <time>2022-07-29T09:01:29Z</time>
      </trkpt>
      <trkpt lat="46.47162" lon="5.61247">
        <ele>531.8</ele>
        <time>2022-07-29T09:01:30Z</time>
      </trkpt>
      <trkpt lat="46.47153" lon="5.61248">
        <ele>531.8</ele>
        <time>2022-07-29T09:01:31Z</time>
      </trkpt>
      <trkpt lat="46.47145" lon="5.61249">
        <ele>531.8</ele>
        <time>2022-07-29T09:01:32Z</time>
      </trkpt>
      <trkpt lat="46.47136" lon="5.61249">
        <ele>531.8</ele>
        <time>2022-07-29T09:01:33Z</time>
      </trkpt>
      <trkpt lat="46.47128" lon="5.61248">
        <ele>531.8</ele>
        <time>2022-07-29T09:01:34Z</time>
      </trkpt>
      <trkpt lat="46.47121" lon="5.61246">
        <ele>531.4</ele>
        <time>2022-07-29T09:01:35Z</time>
      </trkpt>
      <trkpt lat="46.47114" lon="5.61244">
        <ele>531.4</ele>
        <time>2022-07-29T09:01:36Z</time>
      </trkpt>
      <trkpt lat="46.47108" lon="5.61243">
        <ele>531.4</ele>
        <time>2022-07-29T09:01:37Z</time>
      </trkpt>
      <trkpt lat="46.47103" lon="5.61242">
        <ele>531.4</ele>
        <time>2022-07-29T09:01:38Z</time>
      </trkpt>
      <trkpt lat="46.47098" lon="5.61241">
        <ele>531.4</ele>
        <time>2022-07-29T09:01:39Z</time>
      </trkpt>
      <trkpt lat="46.47094" lon="5.6124">
        <ele>531.4</ele>
        <time>2022-07-29T09:01:40Z</time>
      </trkpt>
      <trkpt lat="46.47091" lon="5.61239">
        <ele>531.4</ele>
        <time>2022-07-29T09:01:41Z</time>
      </trkpt>
      <trkpt lat="46.47089" lon="5.61239">
        <ele>531.4</ele>
        <time>2022-07-29T09:01:42Z</time>
      </trkpt>
      <trkpt lat="46.47088" lon="5.61239">
        <ele>531.4</ele>
        <time>2022-07-29T09:01:43Z</time>
      </trkpt>
      <trkpt lat="46.47088" lon="5.61239">
        <ele>531.4</ele>
        <time>2022-07-29T09:01:44Z</time>
      </trkpt>
      <trkpt lat="46.47088" lon="5.61239">
        <ele>531.4</ele>
        <time>2022-07-29T09:01:45Z</time>
      </trkpt>
      <trkpt lat="46.47088" lon="5.61239">
        <ele>531.4</ele>
        <time>2022-07-29T09:01:46Z</time>
      </trkpt>
      <trkpt lat="46.47088" lon="5.61239">
        <ele>531.4</ele>
        <time>2022-07-29T09:01:48Z</time>
      </trkpt>
      <trkpt lat="46.47088" lon="5.61239">
        <ele>531.4</ele>
        <time>2022-07-29T09:01:49Z</time>
      </trkpt>
      <trkpt lat="46.47088" lon="5.61239">
        <ele>531.4</ele>
        <time>2022-07-29T09:01:50Z</time>
      </trkpt>
      <trkpt lat="46.47088" lon="5.61239">
        <ele>531.4</ele>
        <time>2022-07-29T09:01:51Z</time>
      </trkpt>
      <trkpt lat="46.47088" lon="5.61239">
        <ele>531.4</ele>
        <time>2022-07-29T09:01:52Z</time>
      </trkpt>
      <trkpt lat="46.47088" lon="5.61239">
        <ele>531.4</ele>
        <time>2022-07-29T09:01:53Z</time>
      </trkpt>
      <trkpt lat="46.47088" lon="5.61239">
        <ele>531.4</ele>
        <time>2022-07-29T09:02:10Z</time>
      </trkpt>
      <trkpt lat="46.47088" lon="5.61239">
        <ele>531.4</ele>
        <time>2022-07-29T09:02:11Z</time>
      </trkpt>
      <trkpt lat="46.47088" lon="5.61239">
        <ele>531.4</ele>
        <time>2022-07-29T09:02:13Z</time>
      </trkpt>
      <trkpt lat="46.47088" lon="5.61239">
        <ele>531.4</ele>
        <time>2022-07-29T09:02:14Z</time>
      </trkpt>
      <trkpt lat="46.47088" lon="5.61239">
        <ele>531.4</ele>
        <time>2022-07-29T09:02:15Z</time>
      </trkpt>
      <trkpt lat="46.47088" lon="5.61239">
        <ele>531.4</ele>
        <time>2022-07-29T09:02:16Z</time>
      </trkpt>
      <trkpt lat="46.47088" lon="5.61239">
        <ele>531.4</ele>
        <time>2022-07-29T09:02:17Z</time>
      </trkpt>
      <trkpt lat="46.47088" lon="5.61239">
        <ele>531.4</ele>
        <time>2022-07-29T09:02:18Z</time>
      </trkpt>
      <trkpt lat="46.47088" lon="5.61239">
        <ele>531.4</ele>
        <time>2022-07-29T09:02:20Z</time>
      </trkpt>
      <trkpt lat="46.47088" lon="5.61239">
        <ele>531.4</ele>
        <time>2022-07-29T09:02:21Z</time>
      </trkpt>
      <trkpt lat="46.47088" lon="5.61239">
        <ele>531.4</ele>
        <time>2022-07-29T09:02:22Z</time>
      </trkpt>
      <trkpt lat="46.47088" lon="5.61239">
        <ele>531.4</ele>
        <time>2022-07-29T09:02:23Z</time>
      </trkpt>
      <trkpt lat="46.47088" lon="5.61239">
        <ele>531.4</ele>
        <time>2022-07-29T09:02:35Z</time>
      </trkpt>
      <trkpt lat="46.47088" lon="5.61239">
        <ele>531.4</ele>
        <time>2022-07-29T09:02:36Z</time>
      </trkpt>
      <trkpt lat="46.47088" lon="5.61239">
        <ele>531.4</ele>
        <time>2022-07-29T09:02:37Z</time>
      </trkpt>
      <trkpt lat="46.47086" lon="5.61238">
        <ele>531.4</ele>
        <time>2022-07-29T09:02:38Z</time>
      </trkpt>
      <trkpt lat="46.47084" lon="5.61238">
        <ele>531.4</ele>
        <time>2022-07-29T09:02:39Z</time>
      </trkpt>
      <trkpt lat="46.47082" lon="5.61238">
        <ele>531.4</ele>
        <time>2022-07-29T09:02:40Z</time>
      </trkpt>
      <trkpt lat="46.4708" lon="5.61238">
        <ele>531.4</ele>
        <time>2022-07-29T09:02:41Z</time>
      </trkpt>
      <trkpt lat="46.47077" lon="5.61238">
        <ele>531.4</ele>
        <time>2022-07-29T09:02:42Z</time>
      </trkpt>
      <trkpt lat="46.47074" lon="5.61238">
        <ele>531.4</ele>
        <time>2022-07-29T09:02:43Z</time>
      </trkpt>
      <trkpt lat="46.47071" lon="5.61237">
        <ele>531.4</ele>
        <time>2022-07-29T09:02:44Z</time>
      </trkpt>
      <trkpt lat="46.47068" lon="5.61237">
        <ele>531.4</ele>
        <time>2022-07-29T09:02:45Z</time>
      </trkpt>
      <trkpt lat="46.47064" lon="5.61236">
        <ele>531.4</ele>
        <time>2022-07-29T09:02:46Z</time>
      </trkpt>
      <trkpt lat="46.4706" lon="5.61236">
        <ele>531.4</ele>
        <time>2022-07-29T09:02:47Z</time>
      </trkpt>
      <trkpt lat="46.47056" lon="5.61236">
        <ele>531.4</ele>
        <time>2022-07-29T09:02:48Z</time>
      </trkpt>
      <trkpt lat="46.47052" lon="5.61236">
        <ele>531.4</ele>
        <time>2022-07-29T09:02:49Z</time>
      </trkpt>
      <trkpt lat="46.47047" lon="5.61236">
        <ele>531</ele>
        <time>2022-07-29T09:02:50Z</time>
      </trkpt>
      <trkpt lat="46.47042" lon="5.61235">
        <ele>531</ele>
        <time>2022-07-29T09:02:51Z</time>
      </trkpt>
      <trkpt lat="46.47037" lon="5.61233">
        <ele>530.8</ele>
        <time>2022-07-29T09:02:52Z</time>
      </trkpt>
      <trkpt lat="46.47032" lon="5.61232">
        <ele>530.8</ele>
        <time>2022-07-29T09:02:53Z</time>
      </trkpt>
      <trkpt lat="46.47026" lon="5.61231">
        <ele>530.6</ele>
        <time>2022-07-29T09:02:54Z</time>
      </trkpt>
      <trkpt lat="46.4702" lon="5.61229">
        <ele>530.6</ele>
        <time>2022-07-29T09:02:55Z</time>
      </trkpt>
      <trkpt lat="46.47014" lon="5.61228">
        <ele>530.4</ele>
        <time>2022-07-29T09:02:56Z</time>
      </trkpt>
      <trkpt lat="46.47008" lon="5.61227">
        <ele>530.2</ele>
        <time>2022-07-29T09:02:57Z</time>
      </trkpt>
      <trkpt lat="46.47002" lon="5.61225">
        <ele>530.2</ele>
        <time>2022-07-29T09:02:58Z</time>
      </trkpt>
      <trkpt lat="46.46995" lon="5.61223">
        <ele>530</ele>
        <time>2022-07-29T09:02:59Z</time>
      </trkpt>
      <trkpt lat="46.46989" lon="5.61221">
        <ele>529.6</ele>
        <time>2022-07-29T09:03:00Z</time>
      </trkpt>
      <trkpt lat="46.46982" lon="5.61218">
        <ele>529.4</ele>
        <time>2022-07-29T09:03:01Z</time>
      </trkpt>
      <trkpt lat="46.46976" lon="5.61216">
        <ele>529.4</ele>
        <time>2022-07-29T09:03:02Z</time>
      </trkpt>
      <trkpt lat="46.46969" lon="5.61214">
        <ele>529.2</ele>
        <time>2022-07-29T09:03:03Z</time>
      </trkpt>
      <trkpt lat="46.46962" lon="5.61211">
        <ele>529.2</ele>
        <time>2022-07-29T09:03:04Z</time>
      </trkpt>
      <trkpt lat="46.46955" lon="5.61209">
        <ele>528.8</ele>
        <time>2022-07-29T09:03:05Z</time>
      </trkpt>
      <trkpt lat="46.46948" lon="5.61206">
        <ele>528.6</ele>
        <time>2022-07-29T09:03:06Z</time>
      </trkpt>
      <trkpt lat="46.4694" lon="5.61203">
        <ele>528.6</ele>
        <time>2022-07-29T09:03:07Z</time>
      </trkpt>
      <trkpt lat="46.46933" lon="5.612">
        <ele>528.2</ele>
        <time>2022-07-29T09:03:08Z</time>
      </trkpt>
      <trkpt lat="46.46925" lon="5.61197">
        <ele>528.2</ele>
        <time>2022-07-29T09:03:09Z</time>
      </trkpt>
      <trkpt lat="46.46918" lon="5.61193">
        <ele>528</ele>
        <time>2022-07-29T09:03:10Z</time>
      </trkpt>
      <trkpt lat="46.4691" lon="5.6119">
        <ele>528</ele>
        <time>2022-07-29T09:03:11Z</time>
      </trkpt>
      <trkpt lat="46.46903" lon="5.61187">
        <ele>527.8</ele>
        <time>2022-07-29T09:03:12Z</time>
      </trkpt>
      <trkpt lat="46.46896" lon="5.61183">
        <ele>527.8</ele>
        <time>2022-07-29T09:03:13Z</time>
      </trkpt>
      <trkpt lat="46.46889" lon="5.6118">
        <ele>527.6</ele>
        <time>2022-07-29T09:03:14Z</time>
      </trkpt>
      <trkpt lat="46.46882" lon="5.61176">
        <ele>527.6</ele>
        <time>2022-07-29T09:03:15Z</time>
      </trkpt>
      <trkpt lat="46.46875" lon="5.61173">
        <ele>527.6</ele>
        <time>2022-07-29T09:03:16Z</time>
      </trkpt>
      <trkpt lat="46.46867" lon="5.61169">
        <ele>527.6</ele>
        <time>2022-07-29T09:03:17Z</time>
      </trkpt>
      <trkpt lat="46.4686" lon="5.61166">
        <ele>527.4</ele>
        <time>2022-07-29T09:03:18Z</time>
      </trkpt>
      <trkpt lat="46.46853" lon="5.61163">
        <ele>527.4</ele>
        <time>2022-07-29T09:03:19Z</time>
      </trkpt>
      <trkpt lat="46.46846" lon="5.61159">
        <ele>527.4</ele>
        <time>2022-07-29T09:03:20Z</time>
      </trkpt>
      <trkpt lat="46.46839" lon="5.61156">
        <ele>527.4</ele>
        <time>2022-07-29T09:03:21Z</time>
      </trkpt>
      <trkpt lat="46.46832" lon="5.61153">
        <ele>527.4</ele>
        <time>2022-07-29T09:03:22Z</time>
      </trkpt>
      <trkpt lat="46.46825" lon="5.61151">
        <ele>527.4</ele>
        <time>2022-07-29T09:03:23Z</time>
      </trkpt>
      <trkpt lat="46.46818" lon="5.61148">
        <ele>527.4</ele>
        <time>2022-07-29T09:03:24Z</time>
      </trkpt>
      <trkpt lat="46.46811" lon="5.61146">
        <ele>527.4</ele>
        <time>2022-07-29T09:03:25Z</time>
      </trkpt>
      <trkpt lat="46.46804" lon="5.61144">
        <ele>527.4</ele>
        <time>2022-07-29T09:03:26Z</time>
      </trkpt>
      <trkpt lat="46.46797" lon="5.61142">
        <ele>527.4</ele>
        <time>2022-07-29T09:03:27Z</time>
      </trkpt>
      <trkpt lat="46.46789" lon="5.6114">
        <ele>527.2</ele>
        <time>2022-07-29T09:03:28Z</time>
      </trkpt>
      <trkpt lat="46.46782" lon="5.61138">
        <ele>527.2</ele>
        <time>2022-07-29T09:03:29Z</time>
      </trkpt>
      <trkpt lat="46.46776" lon="5.61136">
        <ele>527.2</ele>
        <time>2022-07-29T09:03:30Z</time>
      </trkpt>
      <trkpt lat="46.46769" lon="5.61134">
        <ele>527.6</ele>
        <time>2022-07-29T09:03:31Z</time>
      </trkpt>
      <trkpt lat="46.46762" lon="5.61132">
        <ele>527.6</ele>
        <time>2022-07-29T09:03:32Z</time>
      </trkpt>
      <trkpt lat="46.46756" lon="5.61131">
        <ele>527.6</ele>
        <time>2022-07-29T09:03:33Z</time>
      </trkpt>
      <trkpt lat="46.4675" lon="5.61129">
        <ele>527.6</ele>
        <time>2022-07-29T09:03:34Z</time>
      </trkpt>
      <trkpt lat="46.46744" lon="5.61128">
        <ele>527.6</ele>
        <time>2022-07-29T09:03:35Z</time>
      </trkpt>
      <trkpt lat="46.46738" lon="5.61126">
        <ele>527.8</ele>
        <time>2022-07-29T09:03:36Z</time>
      </trkpt>
      <trkpt lat="46.46732" lon="5.61125">
        <ele>527.8</ele>
        <time>2022-07-29T09:03:37Z</time>
      </trkpt>
      <trkpt lat="46.46727" lon="5.61124">
        <ele>527.8</ele>
        <time>2022-07-29T09:03:38Z</time>
      </trkpt>
      <trkpt lat="46.46722" lon="5.61122">
        <ele>527.8</ele>
        <time>2022-07-29T09:03:39Z</time>
      </trkpt>
      <trkpt lat="46.46718" lon="5.61119">
        <ele>527.8</ele>
        <time>2022-07-29T09:03:40Z</time>
      </trkpt>
      <trkpt lat="46.46715" lon="5.61113">
        <ele>527.8</ele>
        <time>2022-07-29T09:03:41Z</time>
      </trkpt>
      <trkpt lat="46.46714" lon="5.61107">
        <ele>527.8</ele>
        <time>2022-07-29T09:03:42Z</time>
      </trkpt>
      <trkpt lat="46.46715" lon="5.611">
        <ele>527.8</ele>
        <time>2022-07-29T09:03:43Z</time>
      </trkpt>
      <trkpt lat="46.46715" lon="5.61092">
        <ele>527.8</ele>
        <time>2022-07-29T09:03:44Z</time>
      </trkpt>
      <trkpt lat="46.46717" lon="5.61084">
        <ele>527.8</ele>
        <time>2022-07-29T09:03:45Z</time>
      </trkpt>
      <trkpt lat="46.46718" lon="5.61076">
        <ele>527.8</ele>
        <time>2022-07-29T09:03:46Z</time>
      </trkpt>
      <trkpt lat="46.4672" lon="5.61068">
        <ele>527.8</ele>
        <time>2022-07-29T09:03:47Z</time>
      </trkpt>
      <trkpt lat="46.46722" lon="5.6106">
        <ele>527.8</ele>
        <time>2022-07-29T09:03:48Z</time>
      </trkpt>
      <trkpt lat="46.46723" lon="5.61051">
        <ele>527.8</ele>
        <time>2022-07-29T09:03:49Z</time>
      </trkpt>
      <trkpt lat="46.46725" lon="5.61042">
        <ele>527.8</ele>
        <time>2022-07-29T09:03:50Z</time>
      </trkpt>
      <trkpt lat="46.46726" lon="5.61033">
        <ele>527.6</ele>
        <time>2022-07-29T09:03:51Z</time>
      </trkpt>
      <trkpt lat="46.46728" lon="5.61024">
        <ele>527.6</ele>
        <time>2022-07-29T09:03:52Z</time>
      </trkpt>
      <trkpt lat="46.46729" lon="5.61015">
        <ele>527.6</ele>
        <time>2022-07-29T09:03:53Z</time>
      </trkpt>
      <trkpt lat="46.46731" lon="5.61005">
        <ele>527.6</ele>
        <time>2022-07-29T09:03:54Z</time>
      </trkpt>
      <trkpt lat="46.46733" lon="5.60996">
        <ele>527.4</ele>
        <time>2022-07-29T09:03:55Z</time>
      </trkpt>
      <trkpt lat="46.46735" lon="5.60986">
        <ele>527.4</ele>
        <time>2022-07-29T09:03:56Z</time>
      </trkpt>
      <trkpt lat="46.46736" lon="5.60976">
        <ele>527.4</ele>
        <time>2022-07-29T09:03:57Z</time>
      </trkpt>
      <trkpt lat="46.46738" lon="5.60965">
        <ele>527</ele>
        <time>2022-07-29T09:03:58Z</time>
      </trkpt>
      <trkpt lat="46.4674" lon="5.60955">
        <ele>527</ele>
        <time>2022-07-29T09:03:59Z</time>
      </trkpt>
      <trkpt lat="46.46741" lon="5.60944">
        <ele>526.8</ele>
        <time>2022-07-29T09:04:00Z</time>
      </trkpt>
      <trkpt lat="46.46743" lon="5.60933">
        <ele>526.8</ele>
        <time>2022-07-29T09:04:01Z</time>
      </trkpt>
      <trkpt lat="46.46745" lon="5.60922">
        <ele>526.4</ele>
        <time>2022-07-29T09:04:02Z</time>
      </trkpt>
      <trkpt lat="46.46747" lon="5.60911">
        <ele>526.2</ele>
        <time>2022-07-29T09:04:03Z</time>
      </trkpt>
      <trkpt lat="46.46748" lon="5.609">
        <ele>526</ele>
        <time>2022-07-29T09:04:04Z</time>
      </trkpt>
      <trkpt lat="46.4675" lon="5.60889">
        <ele>526</ele>
        <time>2022-07-29T09:04:05Z</time>
      </trkpt>
      <trkpt lat="46.46752" lon="5.60877">
        <ele>525.8</ele>
        <time>2022-07-29T09:04:06Z</time>
      </trkpt>
      <trkpt lat="46.46753" lon="5.60866">
        <ele>525.8</ele>
        <time>2022-07-29T09:04:07Z</time>
      </trkpt>
      <trkpt lat="46.46755" lon="5.60854">
        <ele>525.4</ele>
        <time>2022-07-29T09:04:08Z</time>
      </trkpt>
      <trkpt lat="46.46757" lon="5.60842">
        <ele>525.4</ele>
        <time>2022-07-29T09:04:09Z</time>
      </trkpt>
      <trkpt lat="46.46759" lon="5.60831">
        <ele>525.4</ele>
        <time>2022-07-29T09:04:10Z</time>
      </trkpt>
      <trkpt lat="46.46761" lon="5.60819">
        <ele>525.2</ele>
        <time>2022-07-29T09:04:11Z</time>
      </trkpt>
      <trkpt lat="46.46762" lon="5.60808">
        <ele>525.2</ele>
        <time>2022-07-29T09:04:12Z</time>
      </trkpt>
      <trkpt lat="46.46764" lon="5.60797">
        <ele>525.2</ele>
        <time>2022-07-29T09:04:13Z</time>
      </trkpt>
      <trkpt lat="46.46766" lon="5.60786">
        <ele>525.2</ele>
        <time>2022-07-29T09:04:14Z</time>
      </trkpt>
      <trkpt lat="46.46767" lon="5.60775">
        <ele>525.2</ele>
        <time>2022-07-29T09:04:15Z</time>
      </trkpt>
      <trkpt lat="46.46767" lon="5.60764">
        <ele>525.4</ele>
        <time>2022-07-29T09:04:16Z</time>
      </trkpt>
      <trkpt lat="46.46767" lon="5.60754">
        <ele>525.4</ele>
        <time>2022-07-29T09:04:17Z</time>
      </trkpt>
      <trkpt lat="46.46766" lon="5.60745">
        <ele>525.8</ele>
        <time>2022-07-29T09:04:18Z</time>
      </trkpt>
      <trkpt lat="46.46764" lon="5.60736">
        <ele>526</ele>
        <time>2022-07-29T09:04:19Z</time>
      </trkpt>
      <trkpt lat="46.46761" lon="5.60728">
        <ele>526.2</ele>
        <time>2022-07-29T09:04:20Z</time>
      </trkpt>
      <trkpt lat="46.46759" lon="5.60721">
        <ele>526.6</ele>
        <time>2022-07-29T09:04:21Z</time>
      </trkpt>
      <trkpt lat="46.46756" lon="5.60713">
        <ele>526.8</ele>
        <time>2022-07-29T09:04:22Z</time>
      </trkpt>
      <trkpt lat="46.46754" lon="5.60706">
        <ele>527.2</ele>
        <time>2022-07-29T09:04:23Z</time>
      </trkpt>
      <trkpt lat="46.46751" lon="5.60699">
        <ele>527.6</ele>
        <time>2022-07-29T09:04:24Z</time>
      </trkpt>
      <trkpt lat="46.46748" lon="5.60692">
        <ele>527.8</ele>
        <time>2022-07-29T09:04:25Z</time>
      </trkpt>
      <trkpt lat="46.46746" lon="5.60684">
        <ele>527.8</ele>
        <time>2022-07-29T09:04:26Z</time>
      </trkpt>
      <trkpt lat="46.46743" lon="5.60677">
        <ele>528.4</ele>
        <time>2022-07-29T09:04:27Z</time>
      </trkpt>
      <trkpt lat="46.46741" lon="5.60669">
        <ele>528.6</ele>
        <time>2022-07-29T09:04:28Z</time>
      </trkpt>
      <trkpt lat="46.46738" lon="5.60661">
        <ele>529</ele>
        <time>2022-07-29T09:04:29Z</time>
      </trkpt>
      <trkpt lat="46.46735" lon="5.60654">
        <ele>529.2</ele>
        <time>2022-07-29T09:04:30Z</time>
      </trkpt>
      <trkpt lat="46.46732" lon="5.60647">
        <ele>529.4</ele>
        <time>2022-07-29T09:04:31Z</time>
      </trkpt>
      <trkpt lat="46.46729" lon="5.60639">
        <ele>529.8</ele>
        <time>2022-07-29T09:04:32Z</time>
      </trkpt>
      <trkpt lat="46.46726" lon="5.60632">
        <ele>529.8</ele>
        <time>2022-07-29T09:04:33Z</time>
      </trkpt>
      <trkpt lat="46.46723" lon="5.60625">
        <ele>530</ele>
        <time>2022-07-29T09:04:34Z</time>
      </trkpt>
      <trkpt lat="46.4672" lon="5.60618">
        <ele>530</ele>
        <time>2022-07-29T09:04:35Z</time>
      </trkpt>
      <trkpt lat="46.46717" lon="5.6061">
        <ele>530</ele>
        <time>2022-07-29T09:04:36Z</time>
      </trkpt>
      <trkpt lat="46.46714" lon="5.60602">
        <ele>530</ele>
        <time>2022-07-29T09:04:37Z</time>
      </trkpt>
      <trkpt lat="46.46711" lon="5.60593">
        <ele>529.6</ele>
        <time>2022-07-29T09:04:38Z</time>
      </trkpt>
      <trkpt lat="46.46708" lon="5.60584">
        <ele>529.4</ele>
        <time>2022-07-29T09:04:39Z</time>
      </trkpt>
      <trkpt lat="46.46703" lon="5.60574">
        <ele>529</ele>
        <time>2022-07-29T09:04:40Z</time>
      </trkpt>
      <trkpt lat="46.46698" lon="5.60565">
        <ele>528.8</ele>
        <time>2022-07-29T09:04:41Z</time>
      </trkpt>
      <trkpt lat="46.46692" lon="5.60556">
        <ele>528.4</ele>
        <time>2022-07-29T09:04:42Z</time>
      </trkpt>
      <trkpt lat="46.46687" lon="5.60547">
        <ele>528</ele>
        <time>2022-07-29T09:04:43Z</time>
      </trkpt>
      <trkpt lat="46.46681" lon="5.60539">
        <ele>527.8</ele>
        <time>2022-07-29T09:04:44Z</time>
      </trkpt>
      <trkpt lat="46.46675" lon="5.60531">
        <ele>527.6</ele>
        <time>2022-07-29T09:04:45Z</time>
      </trkpt>
      <trkpt lat="46.46668" lon="5.60524">
        <ele>527.6</ele>
        <time>2022-07-29T09:04:46Z</time>
      </trkpt>
      <trkpt lat="46.46662" lon="5.60517">
        <ele>527.4</ele>
        <time>2022-07-29T09:04:47Z</time>
      </trkpt>
      <trkpt lat="46.46655" lon="5.60511">
        <ele>527.4</ele>
        <time>2022-07-29T09:04:48Z</time>
      </trkpt>
      <trkpt lat="46.46648" lon="5.60507">
        <ele>527.4</ele>
        <time>2022-07-29T09:04:49Z</time>
      </trkpt>
      <trkpt lat="46.46641" lon="5.60505">
        <ele>527.6</ele>
        <time>2022-07-29T09:04:50Z</time>
      </trkpt>
      <trkpt lat="46.46634" lon="5.60504">
        <ele>527.6</ele>
        <time>2022-07-29T09:04:51Z</time>
      </trkpt>
      <trkpt lat="46.46627" lon="5.60504">
        <ele>528</ele>
        <time>2022-07-29T09:04:52Z</time>
      </trkpt>
      <trkpt lat="46.46621" lon="5.60505">
        <ele>528.2</ele>
        <time>2022-07-29T09:04:53Z</time>
      </trkpt>
      <trkpt lat="46.46615" lon="5.60506">
        <ele>528.6</ele>
        <time>2022-07-29T09:04:54Z</time>
      </trkpt>
      <trkpt lat="46.4661" lon="5.60506">
        <ele>529</ele>
        <time>2022-07-29T09:04:55Z</time>
      </trkpt>
      <trkpt lat="46.46606" lon="5.60506">
        <ele>529.4</ele>
        <time>2022-07-29T09:04:56Z</time>
      </trkpt>
      <trkpt lat="46.46601" lon="5.60505">
        <ele>529.8</ele>
        <time>2022-07-29T09:04:57Z</time>
      </trkpt>
      <trkpt lat="46.46597" lon="5.60504">
        <ele>530.2</ele>
        <time>2022-07-29T09:04:58Z</time>
      </trkpt>
      <trkpt lat="46.46593" lon="5.60504">
        <ele>530.6</ele>
        <time>2022-07-29T09:04:59Z</time>
      </trkpt>
      <trkpt lat="46.46589" lon="5.60502">
        <ele>531</ele>
        <time>2022-07-29T09:05:00Z</time>
      </trkpt>
      <trkpt lat="46.46585" lon="5.60499">
        <ele>531.2</ele>
        <time>2022-07-29T09:05:01Z</time>
      </trkpt>
      <trkpt lat="46.46581" lon="5.60496">
        <ele>531.6</ele>
        <time>2022-07-29T09:05:02Z</time>
      </trkpt>
      <trkpt lat="46.46577" lon="5.60493">
        <ele>531.8</ele>
        <time>2022-07-29T09:05:03Z</time>
      </trkpt>
      <trkpt lat="46.46573" lon="5.60489">
        <ele>532</ele>
        <time>2022-07-29T09:05:04Z</time>
      </trkpt>
      <trkpt lat="46.4657" lon="5.60484">
        <ele>532.4</ele>
        <time>2022-07-29T09:05:05Z</time>
      </trkpt>
      <trkpt lat="46.46567" lon="5.60479">
        <ele>532.4</ele>
        <time>2022-07-29T09:05:06Z</time>
      </trkpt>
      <trkpt lat="46.46563" lon="5.60474">
        <ele>532.6</ele>
        <time>2022-07-29T09:05:07Z</time>
      </trkpt>
      <trkpt lat="46.46559" lon="5.6047">
        <ele>532.6</ele>
        <time>2022-07-29T09:05:08Z</time>
      </trkpt>
      <trkpt lat="46.46555" lon="5.60465">
        <ele>532.6</ele>
        <time>2022-07-29T09:05:09Z</time>
      </trkpt>
      <trkpt lat="46.46552" lon="5.60459">
        <ele>533</ele>
        <time>2022-07-29T09:05:10Z</time>
      </trkpt>
      <trkpt lat="46.46548" lon="5.60453">
        <ele>533</ele>
        <time>2022-07-29T09:05:11Z</time>
      </trkpt>
      <trkpt lat="46.46545" lon="5.60447">
        <ele>533.2</ele>
        <time>2022-07-29T09:05:12Z</time>
      </trkpt>
      <trkpt lat="46.46542" lon="5.60441">
        <ele>533.2</ele>
        <time>2022-07-29T09:05:13Z</time>
      </trkpt>
      <trkpt lat="46.4654" lon="5.60435">
        <ele>533.4</ele>
        <time>2022-07-29T09:05:14Z</time>
      </trkpt>
      <trkpt lat="46.46537" lon="5.60428">
        <ele>533.4</ele>
        <time>2022-07-29T09:05:15Z</time>
      </trkpt>
      <trkpt lat="46.46535" lon="5.60422">
        <ele>533.4</ele>
        <time>2022-07-29T09:05:16Z</time>
      </trkpt>
      <trkpt lat="46.46532" lon="5.60415">
        <ele>533.4</ele>
        <time>2022-07-29T09:05:17Z</time>
      </trkpt>
      <trkpt lat="46.4653" lon="5.60408">
        <ele>533.4</ele>
        <time>2022-07-29T09:05:18Z</time>
      </trkpt>
      <trkpt lat="46.46526" lon="5.604">
        <ele>533.4</ele>
        <time>2022-07-29T09:05:19Z</time>
      </trkpt>
      <trkpt lat="46.46523" lon="5.60392">
        <ele>533.4</ele>
        <time>2022-07-29T09:05:20Z</time>
      </trkpt>
      <trkpt lat="46.46518" lon="5.60385">
        <ele>533</ele>
        <time>2022-07-29T09:05:21Z</time>
      </trkpt>
      <trkpt lat="46.46513" lon="5.60378">
        <ele>533</ele>
        <time>2022-07-29T09:05:22Z</time>
      </trkpt>
      <trkpt lat="46.46508" lon="5.60371">
        <ele>532.6</ele>
        <time>2022-07-29T09:05:23Z</time>
      </trkpt>
      <trkpt lat="46.46502" lon="5.60363">
        <ele>532.2</ele>
        <time>2022-07-29T09:05:24Z</time>
      </trkpt>
      <trkpt lat="46.46496" lon="5.60356">
        <ele>531.8</ele>
        <time>2022-07-29T09:05:25Z</time>
      </trkpt>
      <trkpt lat="46.4649" lon="5.60348">
        <ele>531.6</ele>
        <time>2022-07-29T09:05:26Z</time>
      </trkpt>
      <trkpt lat="46.46485" lon="5.6034">
        <ele>531.2</ele>
        <time>2022-07-29T09:05:27Z</time>
      </trkpt>
      <trkpt lat="46.4648" lon="5.6033">
        <ele>530.8</ele>
        <time>2022-07-29T09:05:28Z</time>
      </trkpt>
      <trkpt lat="46.46476" lon="5.6032">
        <ele>530.6</ele>
        <time>2022-07-29T09:05:29Z</time>
      </trkpt>
      <trkpt lat="46.46472" lon="5.60308">
        <ele>530.2</ele>
        <time>2022-07-29T09:05:30Z</time>
      </trkpt>
      <trkpt lat="46.46469" lon="5.60296">
        <ele>529.6</ele>
        <time>2022-07-29T09:05:31Z</time>
      </trkpt>
      <trkpt lat="46.46464" lon="5.60284">
        <ele>529</ele>
        <time>2022-07-29T09:05:32Z</time>
      </trkpt>
      <trkpt lat="46.46459" lon="5.60271">
        <ele>528.6</ele>
        <time>2022-07-29T09:05:33Z</time>
      </trkpt>
      <trkpt lat="46.46453" lon="5.60259">
        <ele>528</ele>
        <time>2022-07-29T09:05:34Z</time>
      </trkpt>
      <trkpt lat="46.46448" lon="5.60247">
        <ele>527.4</ele>
        <time>2022-07-29T09:05:35Z</time>
      </trkpt>
      <trkpt lat="46.46442" lon="5.60235">
        <ele>526.8</ele>
        <time>2022-07-29T09:05:36Z</time>
      </trkpt>
      <trkpt lat="46.46437" lon="5.60224">
        <ele>526</ele>
        <time>2022-07-29T09:05:37Z</time>
      </trkpt>
      <trkpt lat="46.46432" lon="5.60211">
        <ele>525.4</ele>
        <time>2022-07-29T09:05:38Z</time>
      </trkpt>
      <trkpt lat="46.46428" lon="5.60198">
        <ele>525</ele>
        <time>2022-07-29T09:05:39Z</time>
      </trkpt>
      <trkpt lat="46.46425" lon="5.60184">
        <ele>524.4</ele>
        <time>2022-07-29T09:05:40Z</time>
      </trkpt>
      <trkpt lat="46.46421" lon="5.60169">
        <ele>524</ele>
        <time>2022-07-29T09:05:41Z</time>
      </trkpt>
      <trkpt lat="46.46421" lon="5.60169">
        <ele>523.4</ele>
        <time>2022-07-29T09:05:42Z</time>
      </trkpt>
      <trkpt lat="46.4642" lon="5.60154">
        <ele>522.8</ele>
        <time>2022-07-29T09:05:43Z</time>
      </trkpt>
      <trkpt lat="46.46419" lon="5.60138">
        <ele>522.4</ele>
        <time>2022-07-29T09:05:44Z</time>
      </trkpt>
      <trkpt lat="46.46416" lon="5.60122">
        <ele>522</ele>
        <time>2022-07-29T09:05:45Z</time>
      </trkpt>
      <trkpt lat="46.46413" lon="5.60107">
        <ele>521.8</ele>
        <time>2022-07-29T09:05:46Z</time>
      </trkpt>
      <trkpt lat="46.46408" lon="5.60094">
        <ele>521.4</ele>
        <time>2022-07-29T09:05:47Z</time>
      </trkpt>
      <trkpt lat="46.46402" lon="5.60081">
        <ele>521.2</ele>
        <time>2022-07-29T09:05:48Z</time>
      </trkpt>
      <trkpt lat="46.46396" lon="5.6007">
        <ele>521</ele>
        <time>2022-07-29T09:05:49Z</time>
      </trkpt>
      <trkpt lat="46.4639" lon="5.6006">
        <ele>520.8</ele>
        <time>2022-07-29T09:05:50Z</time>
      </trkpt>
      <trkpt lat="46.46382" lon="5.60051">
        <ele>520.6</ele>
        <time>2022-07-29T09:05:51Z</time>
      </trkpt>
      <trkpt lat="46.46368" lon="5.60032">
        <ele>520.6</ele>
        <time>2022-07-29T09:05:52Z</time>
      </trkpt>
      <trkpt lat="46.46362" lon="5.60021">
        <ele>520</ele>
        <time>2022-07-29T09:05:53Z</time>
      </trkpt>
      <trkpt lat="46.46357" lon="5.60008">
        <ele>519.8</ele>
        <time>2022-07-29T09:05:54Z</time>
      </trkpt>
      <trkpt lat="46.46354" lon="5.59994">
        <ele>519.6</ele>
        <time>2022-07-29T09:05:55Z</time>
      </trkpt>
      <trkpt lat="46.46354" lon="5.5998">
        <ele>519.4</ele>
        <time>2022-07-29T09:05:56Z</time>
      </trkpt>
      <trkpt lat="46.46354" lon="5.59966">
        <ele>519.2</ele>
        <time>2022-07-29T09:05:57Z</time>
      </trkpt>
      <trkpt lat="46.46357" lon="5.59952">
        <ele>519</ele>
        <time>2022-07-29T09:05:58Z</time>
      </trkpt>
      <trkpt lat="46.4636" lon="5.59939">
        <ele>519</ele>
        <time>2022-07-29T09:05:59Z</time>
      </trkpt>
      <trkpt lat="46.46363" lon="5.59926">
        <ele>518.8</ele>
        <time>2022-07-29T09:06:00Z</time>
      </trkpt>
      <trkpt lat="46.46366" lon="5.59913">
        <ele>518.8</ele>
        <time>2022-07-29T09:06:01Z</time>
      </trkpt>
      <trkpt lat="46.46369" lon="5.599">
        <ele>518.8</ele>
        <time>2022-07-29T09:06:02Z</time>
      </trkpt>
      <trkpt lat="46.46371" lon="5.59888">
        <ele>518.8</ele>
        <time>2022-07-29T09:06:03Z</time>
      </trkpt>
      <trkpt lat="46.46372" lon="5.59876">
        <ele>518.8</ele>
        <time>2022-07-29T09:06:04Z</time>
      </trkpt>
      <trkpt lat="46.46373" lon="5.59864">
        <ele>518.8</ele>
        <time>2022-07-29T09:06:05Z</time>
      </trkpt>
      <trkpt lat="46.46374" lon="5.59851">
        <ele>518.8</ele>
        <time>2022-07-29T09:06:06Z</time>
      </trkpt>
      <trkpt lat="46.46373" lon="5.5984">
        <ele>518.8</ele>
        <time>2022-07-29T09:06:07Z</time>
      </trkpt>
      <trkpt lat="46.46372" lon="5.59828">
        <ele>518.8</ele>
        <time>2022-07-29T09:06:08Z</time>
      </trkpt>
      <trkpt lat="46.46371" lon="5.59817">
        <ele>518.8</ele>
        <time>2022-07-29T09:06:09Z</time>
      </trkpt>
      <trkpt lat="46.46369" lon="5.59806">
        <ele>518.8</ele>
        <time>2022-07-29T09:06:10Z</time>
      </trkpt>
      <trkpt lat="46.46367" lon="5.59796">
        <ele>519.2</ele>
        <time>2022-07-29T09:06:11Z</time>
      </trkpt>
      <trkpt lat="46.46365" lon="5.59787">
        <ele>519.4</ele>
        <time>2022-07-29T09:06:12Z</time>
      </trkpt>
      <trkpt lat="46.46363" lon="5.59778">
        <ele>519.4</ele>
        <time>2022-07-29T09:06:13Z</time>
      </trkpt>
      <trkpt lat="46.46361" lon="5.59769">
        <ele>519.8</ele>
        <time>2022-07-29T09:06:14Z</time>
      </trkpt>
      <trkpt lat="46.46358" lon="5.59761">
        <ele>520</ele>
        <time>2022-07-29T09:06:15Z</time>
      </trkpt>
      <trkpt lat="46.46356" lon="5.59753">
        <ele>520.2</ele>
        <time>2022-07-29T09:06:16Z</time>
      </trkpt>
      <trkpt lat="46.46354" lon="5.59745">
        <ele>520.2</ele>
        <time>2022-07-29T09:06:17Z</time>
      </trkpt>
      <trkpt lat="46.46353" lon="5.59738">
        <ele>520.4</ele>
        <time>2022-07-29T09:06:18Z</time>
      </trkpt>
      <trkpt lat="46.46351" lon="5.5973">
        <ele>520.4</ele>
        <time>2022-07-29T09:06:19Z</time>
      </trkpt>
      <trkpt lat="46.46349" lon="5.59723">
        <ele>520.6</ele>
        <time>2022-07-29T09:06:20Z</time>
      </trkpt>
      <trkpt lat="46.46347" lon="5.59716">
        <ele>520.6</ele>
        <time>2022-07-29T09:06:21Z</time>
      </trkpt>
      <trkpt lat="46.46345" lon="5.59708">
        <ele>520.6</ele>
        <time>2022-07-29T09:06:22Z</time>
      </trkpt>
      <trkpt lat="46.46343" lon="5.597">
        <ele>520.6</ele>
        <time>2022-07-29T09:06:23Z</time>
      </trkpt>
      <trkpt lat="46.46342" lon="5.59693">
        <ele>520.6</ele>
        <time>2022-07-29T09:06:24Z</time>
      </trkpt>
      <trkpt lat="46.46341" lon="5.59685">
        <ele>520.6</ele>
        <time>2022-07-29T09:06:25Z</time>
      </trkpt>
      <trkpt lat="46.4634" lon="5.59677">
        <ele>520.6</ele>
        <time>2022-07-29T09:06:26Z</time>
      </trkpt>
      <trkpt lat="46.46339" lon="5.59669">
        <ele>520.4</ele>
        <time>2022-07-29T09:06:27Z</time>
      </trkpt>
      <trkpt lat="46.46339" lon="5.59661">
        <ele>520.4</ele>
        <time>2022-07-29T09:06:28Z</time>
      </trkpt>
      <trkpt lat="46.4634" lon="5.59653">
        <ele>520</ele>
        <time>2022-07-29T09:06:29Z</time>
      </trkpt>
      <trkpt lat="46.4634" lon="5.59644">
        <ele>519.8</ele>
        <time>2022-07-29T09:06:30Z</time>
      </trkpt>
      <trkpt lat="46.46341" lon="5.59634">
        <ele>519.6</ele>
        <time>2022-07-29T09:06:31Z</time>
      </trkpt>
      <trkpt lat="46.46342" lon="5.59623">
        <ele>519.2</ele>
        <time>2022-07-29T09:06:32Z</time>
      </trkpt>
      <trkpt lat="46.46344" lon="5.59612">
        <ele>518.8</ele>
        <time>2022-07-29T09:06:33Z</time>
      </trkpt>
      <trkpt lat="46.46346" lon="5.59602">
        <ele>518.2</ele>
        <time>2022-07-29T09:06:34Z</time>
      </trkpt>
      <trkpt lat="46.46349" lon="5.59591">
        <ele>517.8</ele>
        <time>2022-07-29T09:06:35Z</time>
      </trkpt>
      <trkpt lat="46.46352" lon="5.59581">
        <ele>517.2</ele>
        <time>2022-07-29T09:06:36Z</time>
      </trkpt>
      <trkpt lat="46.46356" lon="5.59572">
        <ele>516.6</ele>
        <time>2022-07-29T09:06:37Z</time>
      </trkpt>
      <trkpt lat="46.46359" lon="5.59564">
        <ele>516</ele>
        <time>2022-07-29T09:06:38Z</time>
      </trkpt>
      <trkpt lat="46.46362" lon="5.59557">
        <ele>515.6</ele>
        <time>2022-07-29T09:06:39Z</time>
      </trkpt>
      <trkpt lat="46.46364" lon="5.59551">
        <ele>515.2</ele>
        <time>2022-07-29T09:06:40Z</time>
      </trkpt>
      <trkpt lat="46.46365" lon="5.59547">
        <ele>515</ele>
        <time>2022-07-29T09:06:41Z</time>
      </trkpt>
      <trkpt lat="46.46364" lon="5.59543">
        <ele>514.8</ele>
        <time>2022-07-29T09:06:42Z</time>
      </trkpt>
      <trkpt lat="46.46363" lon="5.5954">
        <ele>514.8</ele>
        <time>2022-07-29T09:06:43Z</time>
      </trkpt>
      <trkpt lat="46.46362" lon="5.59538">
        <ele>514.6</ele>
        <time>2022-07-29T09:06:44Z</time>
      </trkpt>
      <trkpt lat="46.46359" lon="5.59538">
        <ele>514.6</ele>
        <time>2022-07-29T09:06:45Z</time>
      </trkpt>
      <trkpt lat="46.46358" lon="5.59539">
        <ele>514.6</ele>
        <time>2022-07-29T09:06:46Z</time>
      </trkpt>
      <trkpt lat="46.46356" lon="5.5954">
        <ele>514.6</ele>
        <time>2022-07-29T09:06:47Z</time>
      </trkpt>
      <trkpt lat="46.46353" lon="5.59541">
        <ele>514.6</ele>
        <time>2022-07-29T09:06:48Z</time>
      </trkpt>
      <trkpt lat="46.4635" lon="5.59542">
        <ele>514.6</ele>
        <time>2022-07-29T09:06:49Z</time>
      </trkpt>
      <trkpt lat="46.46348" lon="5.59544">
        <ele>514.8</ele>
        <time>2022-07-29T09:06:50Z</time>
      </trkpt>
      <trkpt lat="46.46344" lon="5.59546">
        <ele>514.8</ele>
        <time>2022-07-29T09:06:51Z</time>
      </trkpt>
      <trkpt lat="46.46341" lon="5.59547">
        <ele>515</ele>
        <time>2022-07-29T09:06:52Z</time>
      </trkpt>
      <trkpt lat="46.46339" lon="5.59549">
        <ele>515</ele>
        <time>2022-07-29T09:06:53Z</time>
      </trkpt>
      <trkpt lat="46.46336" lon="5.5955">
        <ele>515.4</ele>
        <time>2022-07-29T09:06:54Z</time>
      </trkpt>
      <trkpt lat="46.46333" lon="5.59551">
        <ele>515.6</ele>
        <time>2022-07-29T09:06:55Z</time>
      </trkpt>
      <trkpt lat="46.4633" lon="5.59554">
        <ele>516</ele>
        <time>2022-07-29T09:06:56Z</time>
      </trkpt>
      <trkpt lat="46.46326" lon="5.59556">
        <ele>516</ele>
        <time>2022-07-29T09:06:57Z</time>
      </trkpt>
      <trkpt lat="46.46323" lon="5.59558">
        <ele>516.2</ele>
        <time>2022-07-29T09:06:58Z</time>
      </trkpt>
      <trkpt lat="46.4632" lon="5.5956">
        <ele>516.6</ele>
        <time>2022-07-29T09:06:59Z</time>
      </trkpt>
      <trkpt lat="46.46317" lon="5.59563">
        <ele>516.8</ele>
        <time>2022-07-29T09:07:00Z</time>
      </trkpt>
      <trkpt lat="46.46314" lon="5.59565">
        <ele>517</ele>
        <time>2022-07-29T09:07:01Z</time>
      </trkpt>
      <trkpt lat="46.46312" lon="5.59568">
        <ele>517.4</ele>
        <time>2022-07-29T09:07:02Z</time>
      </trkpt>
      <trkpt lat="46.46309" lon="5.5957">
        <ele>517.6</ele>
        <time>2022-07-29T09:07:03Z</time>
      </trkpt>
      <trkpt lat="46.46306" lon="5.59572">
        <ele>517.8</ele>
        <time>2022-07-29T09:07:04Z</time>
      </trkpt>
      <trkpt lat="46.46303" lon="5.59574">
        <ele>518.2</ele>
        <time>2022-07-29T09:07:05Z</time>
      </trkpt>
      <trkpt lat="46.463" lon="5.59576">
        <ele>518.4</ele>
        <time>2022-07-29T09:07:06Z</time>
      </trkpt>
      <trkpt lat="46.46298" lon="5.59579">
        <ele>518.6</ele>
        <time>2022-07-29T09:07:07Z</time>
      </trkpt>
      <trkpt lat="46.46295" lon="5.59581">
        <ele>519</ele>
        <time>2022-07-29T09:07:08Z</time>
      </trkpt>
      <trkpt lat="46.46291" lon="5.59584">
        <ele>519.2</ele>
        <time>2022-07-29T09:07:09Z</time>
      </trkpt>
      <trkpt lat="46.46288" lon="5.59586">
        <ele>519.4</ele>
        <time>2022-07-29T09:07:10Z</time>
      </trkpt>
      <trkpt lat="46.46284" lon="5.59587">
        <ele>519.4</ele>
        <time>2022-07-29T09:07:11Z</time>
      </trkpt>
      <trkpt lat="46.46281" lon="5.59588">
        <ele>519.8</ele>
        <time>2022-07-29T09:07:12Z</time>
      </trkpt>
      <trkpt lat="46.46278" lon="5.59588">
        <ele>520</ele>
        <time>2022-07-29T09:07:13Z</time>
      </trkpt>
      <trkpt lat="46.46274" lon="5.59589">
        <ele>520.2</ele>
        <time>2022-07-29T09:07:14Z</time>
      </trkpt>
      <trkpt lat="46.4627" lon="5.5959">
        <ele>520.6</ele>
        <time>2022-07-29T09:07:15Z</time>
      </trkpt>
      <trkpt lat="46.46266" lon="5.59591">
        <ele>520.6</ele>
        <time>2022-07-29T09:07:16Z</time>
      </trkpt>
      <trkpt lat="46.46262" lon="5.59592">
        <ele>520.8</ele>
        <time>2022-07-29T09:07:17Z</time>
      </trkpt>
      <trkpt lat="46.46258" lon="5.59594">
        <ele>520.8</ele>
        <time>2022-07-29T09:07:18Z</time>
      </trkpt>
      <trkpt lat="46.46254" lon="5.59596">
        <ele>520.8</ele>
        <time>2022-07-29T09:07:19Z</time>
      </trkpt>
      <trkpt lat="46.4625" lon="5.59598">
        <ele>520.8</ele>
        <time>2022-07-29T09:07:20Z</time>
      </trkpt>
      <trkpt lat="46.46246" lon="5.59602">
        <ele>520.8</ele>
        <time>2022-07-29T09:07:21Z</time>
      </trkpt>
      <trkpt lat="46.46241" lon="5.59606">
        <ele>520.8</ele>
        <time>2022-07-29T09:07:22Z</time>
      </trkpt>
      <trkpt lat="46.46236" lon="5.59612">
        <ele>520.6</ele>
        <time>2022-07-29T09:07:23Z</time>
      </trkpt>
      <trkpt lat="46.46231" lon="5.5962">
        <ele>520.4</ele>
        <time>2022-07-29T09:07:24Z</time>
      </trkpt>
      <trkpt lat="46.46226" lon="5.59627">
        <ele>520.4</ele>
        <time>2022-07-29T09:07:25Z</time>
      </trkpt>
      <trkpt lat="46.46222" lon="5.59635">
        <ele>520.4</ele>
        <time>2022-07-29T09:07:26Z</time>
      </trkpt>
      <trkpt lat="46.46218" lon="5.59643">
        <ele>520.4</ele>
        <time>2022-07-29T09:07:27Z</time>
      </trkpt>
      <trkpt lat="46.46214" lon="5.5965">
        <ele>520.4</ele>
        <time>2022-07-29T09:07:28Z</time>
      </trkpt>
      <trkpt lat="46.4621" lon="5.59657">
        <ele>520.4</ele>
        <time>2022-07-29T09:07:29Z</time>
      </trkpt>
      <trkpt lat="46.46207" lon="5.59664">
        <ele>520.4</ele>
        <time>2022-07-29T09:07:30Z</time>
      </trkpt>
      <trkpt lat="46.46204" lon="5.5967">
        <ele>520.6</ele>
        <time>2022-07-29T09:07:31Z</time>
      </trkpt>
      <trkpt lat="46.46201" lon="5.59675">
        <ele>521</ele>
        <time>2022-07-29T09:07:32Z</time>
      </trkpt>
      <trkpt lat="46.46198" lon="5.59679">
        <ele>521.2</ele>
        <time>2022-07-29T09:07:33Z</time>
      </trkpt>
      <trkpt lat="46.46196" lon="5.59683">
        <ele>521.6</ele>
        <time>2022-07-29T09:07:34Z</time>
      </trkpt>
      <trkpt lat="46.46193" lon="5.59686">
        <ele>521.8</ele>
        <time>2022-07-29T09:07:35Z</time>
      </trkpt>
      <trkpt lat="46.4619" lon="5.59689">
        <ele>522.2</ele>
        <time>2022-07-29T09:07:36Z</time>
      </trkpt>
      <trkpt lat="46.46185" lon="5.59693">
        <ele>522.6</ele>
        <time>2022-07-29T09:07:37Z</time>
      </trkpt>
      <trkpt lat="46.46182" lon="5.59695">
        <ele>522.8</ele>
        <time>2022-07-29T09:07:38Z</time>
      </trkpt>
      <trkpt lat="46.46179" lon="5.59696">
        <ele>522.8</ele>
        <time>2022-07-29T09:07:39Z</time>
      </trkpt>
      <trkpt lat="46.46175" lon="5.59697">
        <ele>523.2</ele>
        <time>2022-07-29T09:07:40Z</time>
      </trkpt>
      <trkpt lat="46.46171" lon="5.59698">
        <ele>523.2</ele>
        <time>2022-07-29T09:07:41Z</time>
      </trkpt>
      <trkpt lat="46.46171" lon="5.59698">
        <ele>523.4</ele>
        <time>2022-07-29T09:07:42Z</time>
      </trkpt>
      <trkpt lat="46.46167" lon="5.597">
        <ele>523.4</ele>
        <time>2022-07-29T09:07:43Z</time>
      </trkpt>
      <trkpt lat="46.46163" lon="5.59701">
        <ele>523.4</ele>
        <time>2022-07-29T09:07:44Z</time>
      </trkpt>
      <trkpt lat="46.46159" lon="5.59703">
        <ele>523.6</ele>
        <time>2022-07-29T09:07:45Z</time>
      </trkpt>
      <trkpt lat="46.46155" lon="5.59705">
        <ele>523.6</ele>
        <time>2022-07-29T09:07:46Z</time>
      </trkpt>
      <trkpt lat="46.46151" lon="5.59708">
        <ele>523.6</ele>
        <time>2022-07-29T09:07:47Z</time>
      </trkpt>
      <trkpt lat="46.46147" lon="5.59712">
        <ele>523.6</ele>
        <time>2022-07-29T09:07:48Z</time>
      </trkpt>
      <trkpt lat="46.46143" lon="5.59716">
        <ele>523.6</ele>
        <time>2022-07-29T09:07:49Z</time>
      </trkpt>
      <trkpt lat="46.46139" lon="5.5972">
        <ele>523.6</ele>
        <time>2022-07-29T09:07:50Z</time>
      </trkpt>
      <trkpt lat="46.46135" lon="5.59724">
        <ele>523.6</ele>
        <time>2022-07-29T09:07:51Z</time>
      </trkpt>
      <trkpt lat="46.46132" lon="5.59727">
        <ele>523.6</ele>
        <time>2022-07-29T09:07:52Z</time>
      </trkpt>
      <trkpt lat="46.46128" lon="5.59731">
        <ele>523.6</ele>
        <time>2022-07-29T09:07:53Z</time>
      </trkpt>
      <trkpt lat="46.46124" lon="5.59735">
        <ele>523.6</ele>
        <time>2022-07-29T09:07:54Z</time>
      </trkpt>
      <trkpt lat="46.46121" lon="5.59739">
        <ele>523.6</ele>
        <time>2022-07-29T09:07:55Z</time>
      </trkpt>
      <trkpt lat="46.46117" lon="5.59743">
        <ele>523.6</ele>
        <time>2022-07-29T09:07:56Z</time>
      </trkpt>
      <trkpt lat="46.46114" lon="5.59748">
        <ele>524</ele>
        <time>2022-07-29T09:07:57Z</time>
      </trkpt>
      <trkpt lat="46.46111" lon="5.59752">
        <ele>524.2</ele>
        <time>2022-07-29T09:07:58Z</time>
      </trkpt>
      <trkpt lat="46.46108" lon="5.59757">
        <ele>524.4</ele>
        <time>2022-07-29T09:07:59Z</time>
      </trkpt>
      <trkpt lat="46.46105" lon="5.59761">
        <ele>524.6</ele>
        <time>2022-07-29T09:08:00Z</time>
      </trkpt>
      <trkpt lat="46.46103" lon="5.59765">
        <ele>524.8</ele>
        <time>2022-07-29T09:08:01Z</time>
      </trkpt>
      <trkpt lat="46.46101" lon="5.59769">
        <ele>525.2</ele>
        <time>2022-07-29T09:08:02Z</time>
      </trkpt>
      <trkpt lat="46.46098" lon="5.59772">
        <ele>525.4</ele>
        <time>2022-07-29T09:08:03Z</time>
      </trkpt>
      <trkpt lat="46.46095" lon="5.59777">
        <ele>525.6</ele>
        <time>2022-07-29T09:08:04Z</time>
      </trkpt>
      <trkpt lat="46.46093" lon="5.59781">
        <ele>525.6</ele>
        <time>2022-07-29T09:08:05Z</time>
      </trkpt>
      <trkpt lat="46.4609" lon="5.59785">
        <ele>525.8</ele>
        <time>2022-07-29T09:08:06Z</time>
      </trkpt>
      <trkpt lat="46.46087" lon="5.59791">
        <ele>525.8</ele>
        <time>2022-07-29T09:08:07Z</time>
      </trkpt>
      <trkpt lat="46.46083" lon="5.59796">
        <ele>525.8</ele>
        <time>2022-07-29T09:08:08Z</time>
      </trkpt>
      <trkpt lat="46.46078" lon="5.59801">
        <ele>525.8</ele>
        <time>2022-07-29T09:08:09Z</time>
      </trkpt>
      <trkpt lat="46.46074" lon="5.59806">
        <ele>525.6</ele>
        <time>2022-07-29T09:08:10Z</time>
      </trkpt>
      <trkpt lat="46.4607" lon="5.5981">
        <ele>525.6</ele>
        <time>2022-07-29T09:08:11Z</time>
      </trkpt>
      <trkpt lat="46.46064" lon="5.59813">
        <ele>525.2</ele>
        <time>2022-07-29T09:08:12Z</time>
      </trkpt>
      <trkpt lat="46.46058" lon="5.59815">
        <ele>525.2</ele>
        <time>2022-07-29T09:08:13Z</time>
      </trkpt>
      <trkpt lat="46.46052" lon="5.59815">
        <ele>525</ele>
        <time>2022-07-29T09:08:14Z</time>
      </trkpt>
      <trkpt lat="46.46047" lon="5.59815">
        <ele>525</ele>
        <time>2022-07-29T09:08:15Z</time>
      </trkpt>
      <trkpt lat="46.46043" lon="5.59814">
        <ele>525</ele>
        <time>2022-07-29T09:08:16Z</time>
      </trkpt>
      <trkpt lat="46.46038" lon="5.59813">
        <ele>525</ele>
        <time>2022-07-29T09:08:17Z</time>
      </trkpt>
      <trkpt lat="46.46032" lon="5.59812">
        <ele>525</ele>
        <time>2022-07-29T09:08:18Z</time>
      </trkpt>
      <trkpt lat="46.46026" lon="5.5981">
        <ele>525</ele>
        <time>2022-07-29T09:08:19Z</time>
      </trkpt>
      <trkpt lat="46.46021" lon="5.59809">
        <ele>525</ele>
        <time>2022-07-29T09:08:20Z</time>
      </trkpt>
      <trkpt lat="46.46016" lon="5.59806">
        <ele>525.2</ele>
        <time>2022-07-29T09:08:21Z</time>
      </trkpt>
      <trkpt lat="46.46011" lon="5.59804">
        <ele>525.2</ele>
        <time>2022-07-29T09:08:22Z</time>
      </trkpt>
      <trkpt lat="46.46006" lon="5.59801">
        <ele>525.6</ele>
        <time>2022-07-29T09:08:23Z</time>
      </trkpt>
      <trkpt lat="46.46001" lon="5.59799">
        <ele>525.8</ele>
        <time>2022-07-29T09:08:24Z</time>
      </trkpt>
      <trkpt lat="46.45997" lon="5.59796">
        <ele>525.8</ele>
        <time>2022-07-29T09:08:25Z</time>
      </trkpt>
      <trkpt lat="46.45993" lon="5.59794">
        <ele>525.8</ele>
        <time>2022-07-29T09:08:26Z</time>
      </trkpt>
      <trkpt lat="46.45989" lon="5.59792">
        <ele>526</ele>
        <time>2022-07-29T09:08:27Z</time>
      </trkpt>
      <trkpt lat="46.45984" lon="5.59791">
        <ele>526</ele>
        <time>2022-07-29T09:08:28Z</time>
      </trkpt>
      <trkpt lat="46.4598" lon="5.59789">
        <ele>526.4</ele>
        <time>2022-07-29T09:08:29Z</time>
      </trkpt>
      <trkpt lat="46.45975" lon="5.59786">
        <ele>526.4</ele>
        <time>2022-07-29T09:08:30Z</time>
      </trkpt>
      <trkpt lat="46.4597" lon="5.59784">
        <ele>526.4</ele>
        <time>2022-07-29T09:08:31Z</time>
      </trkpt>
      <trkpt lat="46.45965" lon="5.59781">
        <ele>526.4</ele>
        <time>2022-07-29T09:08:32Z</time>
      </trkpt>
      <trkpt lat="46.45961" lon="5.59778">
        <ele>526.4</ele>
        <time>2022-07-29T09:08:33Z</time>
      </trkpt>
      <trkpt lat="46.45956" lon="5.59776">
        <ele>526.4</ele>
        <time>2022-07-29T09:08:34Z</time>
      </trkpt>
      <trkpt lat="46.4595" lon="5.59774">
        <ele>526.6</ele>
        <time>2022-07-29T09:08:35Z</time>
      </trkpt>
      <trkpt lat="46.45945" lon="5.59772">
        <ele>526.6</ele>
        <time>2022-07-29T09:08:36Z</time>
      </trkpt>
      <trkpt lat="46.45939" lon="5.5977">
        <ele>526.6</ele>
        <time>2022-07-29T09:08:37Z</time>
      </trkpt>
      <trkpt lat="46.45934" lon="5.59767">
        <ele>526.6</ele>
        <time>2022-07-29T09:08:38Z</time>
      </trkpt>
      <trkpt lat="46.45929" lon="5.59765">
        <ele>526.8</ele>
        <time>2022-07-29T09:08:39Z</time>
      </trkpt>
      <trkpt lat="46.45924" lon="5.59763">
        <ele>526.8</ele>
        <time>2022-07-29T09:08:40Z</time>
      </trkpt>
      <trkpt lat="46.45919" lon="5.59761">
        <ele>526.8</ele>
        <time>2022-07-29T09:08:41Z</time>
      </trkpt>
      <trkpt lat="46.45914" lon="5.5976">
        <ele>526.8</ele>
        <time>2022-07-29T09:08:42Z</time>
      </trkpt>
      <trkpt lat="46.45908" lon="5.59759">
        <ele>526.8</ele>
        <time>2022-07-29T09:08:43Z</time>
      </trkpt>
      <trkpt lat="46.45903" lon="5.59758">
        <ele>526.8</ele>
        <time>2022-07-29T09:08:44Z</time>
      </trkpt>
      <trkpt lat="46.45897" lon="5.59758">
        <ele>526.8</ele>
        <time>2022-07-29T09:08:45Z</time>
      </trkpt>
      <trkpt lat="46.45891" lon="5.59758">
        <ele>527</ele>
        <time>2022-07-29T09:08:46Z</time>
      </trkpt>
      <trkpt lat="46.45886" lon="5.59759">
        <ele>527</ele>
        <time>2022-07-29T09:08:47Z</time>
      </trkpt>
      <trkpt lat="46.4588" lon="5.59761">
        <ele>527</ele>
        <time>2022-07-29T09:08:48Z</time>
      </trkpt>
      <trkpt lat="46.45874" lon="5.59765">
        <ele>527</ele>
        <time>2022-07-29T09:08:49Z</time>
      </trkpt>
      <trkpt lat="46.45869" lon="5.59768">
        <ele>527.2</ele>
        <time>2022-07-29T09:08:50Z</time>
      </trkpt>
      <trkpt lat="46.45864" lon="5.59772">
        <ele>527.2</ele>
        <time>2022-07-29T09:08:51Z</time>
      </trkpt>
      <trkpt lat="46.45859" lon="5.59777">
        <ele>527.2</ele>
        <time>2022-07-29T09:08:52Z</time>
      </trkpt>
      <trkpt lat="46.45854" lon="5.59783">
        <ele>527.6</ele>
        <time>2022-07-29T09:08:53Z</time>
      </trkpt>
      <trkpt lat="46.4585" lon="5.59788">
        <ele>527.6</ele>
        <time>2022-07-29T09:08:54Z</time>
      </trkpt>
      <trkpt lat="46.45846" lon="5.59793">
        <ele>527.6</ele>
        <time>2022-07-29T09:08:55Z</time>
      </trkpt>
      <trkpt lat="46.45842" lon="5.59798">
        <ele>527.8</ele>
        <time>2022-07-29T09:08:56Z</time>
      </trkpt>
      <trkpt lat="46.45838" lon="5.59803">
        <ele>527.8</ele>
        <time>2022-07-29T09:08:57Z</time>
      </trkpt>
      <trkpt lat="46.45835" lon="5.59808">
        <ele>528</ele>
        <time>2022-07-29T09:08:58Z</time>
      </trkpt>
      <trkpt lat="46.45832" lon="5.59814">
        <ele>528</ele>
        <time>2022-07-29T09:08:59Z</time>
      </trkpt>
      <trkpt lat="46.45829" lon="5.59821">
        <ele>528.2</ele>
        <time>2022-07-29T09:09:00Z</time>
      </trkpt>
      <trkpt lat="46.45827" lon="5.59827">
        <ele>528.2</ele>
        <time>2022-07-29T09:09:01Z</time>
      </trkpt>
      <trkpt lat="46.45824" lon="5.59833">
        <ele>528.6</ele>
        <time>2022-07-29T09:09:02Z</time>
      </trkpt>
      <trkpt lat="46.45821" lon="5.59839">
        <ele>528.6</ele>
        <time>2022-07-29T09:09:03Z</time>
      </trkpt>
      <trkpt lat="46.45818" lon="5.59846">
        <ele>528.8</ele>
        <time>2022-07-29T09:09:04Z</time>
      </trkpt>
      <trkpt lat="46.45816" lon="5.59854">
        <ele>528.8</ele>
        <time>2022-07-29T09:09:05Z</time>
      </trkpt>
      <trkpt lat="46.45813" lon="5.59861">
        <ele>528.8</ele>
        <time>2022-07-29T09:09:06Z</time>
      </trkpt>
      <trkpt lat="46.4581" lon="5.59868">
        <ele>528.8</ele>
        <time>2022-07-29T09:09:07Z</time>
      </trkpt>
      <trkpt lat="46.45807" lon="5.59875">
        <ele>529</ele>
        <time>2022-07-29T09:09:08Z</time>
      </trkpt>
      <trkpt lat="46.45804" lon="5.59882">
        <ele>529</ele>
        <time>2022-07-29T09:09:09Z</time>
      </trkpt>
      <trkpt lat="46.45801" lon="5.59889">
        <ele>529</ele>
        <time>2022-07-29T09:09:10Z</time>
      </trkpt>
      <trkpt lat="46.45799" lon="5.59897">
        <ele>529</ele>
        <time>2022-07-29T09:09:11Z</time>
      </trkpt>
      <trkpt lat="46.45796" lon="5.59904">
        <ele>529.2</ele>
        <time>2022-07-29T09:09:12Z</time>
      </trkpt>
      <trkpt lat="46.45794" lon="5.59911">
        <ele>529.2</ele>
        <time>2022-07-29T09:09:13Z</time>
      </trkpt>
      <trkpt lat="46.45791" lon="5.59918">
        <ele>529.2</ele>
        <time>2022-07-29T09:09:14Z</time>
      </trkpt>
      <trkpt lat="46.45789" lon="5.59925">
        <ele>529.2</ele>
        <time>2022-07-29T09:09:15Z</time>
      </trkpt>
      <trkpt lat="46.45787" lon="5.59931">
        <ele>529.2</ele>
        <time>2022-07-29T09:09:16Z</time>
      </trkpt>
      <trkpt lat="46.45785" lon="5.59939">
        <ele>529.2</ele>
        <time>2022-07-29T09:09:17Z</time>
      </trkpt>
      <trkpt lat="46.45783" lon="5.59946">
        <ele>529.2</ele>
        <time>2022-07-29T09:09:18Z</time>
      </trkpt>
      <trkpt lat="46.45782" lon="5.59955">
        <ele>529.2</ele>
        <time>2022-07-29T09:09:19Z</time>
      </trkpt>
      <trkpt lat="46.4578" lon="5.59963">
        <ele>529</ele>
        <time>2022-07-29T09:09:20Z</time>
      </trkpt>
      <trkpt lat="46.45778" lon="5.59973">
        <ele>528.8</ele>
        <time>2022-07-29T09:09:21Z</time>
      </trkpt>
      <trkpt lat="46.45776" lon="5.59982">
        <ele>528.4</ele>
        <time>2022-07-29T09:09:22Z</time>
      </trkpt>
      <trkpt lat="46.45774" lon="5.59992">
        <ele>528.2</ele>
        <time>2022-07-29T09:09:23Z</time>
      </trkpt>
      <trkpt lat="46.45773" lon="5.60002">
        <ele>527.8</ele>
        <time>2022-07-29T09:09:24Z</time>
      </trkpt>
      <trkpt lat="46.45772" lon="5.60013">
        <ele>527.4</ele>
        <time>2022-07-29T09:09:25Z</time>
      </trkpt>
      <trkpt lat="46.45771" lon="5.60024">
        <ele>527</ele>
        <time>2022-07-29T09:09:26Z</time>
      </trkpt>
      <trkpt lat="46.4577" lon="5.60036">
        <ele>526.6</ele>
        <time>2022-07-29T09:09:27Z</time>
      </trkpt>
      <trkpt lat="46.45768" lon="5.60048">
        <ele>526.2</ele>
        <time>2022-07-29T09:09:28Z</time>
      </trkpt>
      <trkpt lat="46.45765" lon="5.6006">
        <ele>526</ele>
        <time>2022-07-29T09:09:29Z</time>
      </trkpt>
      <trkpt lat="46.45761" lon="5.60071">
        <ele>525.6</ele>
        <time>2022-07-29T09:09:30Z</time>
      </trkpt>
      <trkpt lat="46.45758" lon="5.60083">
        <ele>525.2</ele>
        <time>2022-07-29T09:09:31Z</time>
      </trkpt>
      <trkpt lat="46.45755" lon="5.60094">
        <ele>524.8</ele>
        <time>2022-07-29T09:09:32Z</time>
      </trkpt>
      <trkpt lat="46.45752" lon="5.60106">
        <ele>524.6</ele>
        <time>2022-07-29T09:09:33Z</time>
      </trkpt>
      <trkpt lat="46.4575" lon="5.60117">
        <ele>524.2</ele>
        <time>2022-07-29T09:09:34Z</time>
      </trkpt>
      <trkpt lat="46.45748" lon="5.60129">
        <ele>524</ele>
        <time>2022-07-29T09:09:35Z</time>
      </trkpt>
      <trkpt lat="46.45745" lon="5.6014">
        <ele>523.8</ele>
        <time>2022-07-29T09:09:36Z</time>
      </trkpt>
      <trkpt lat="46.45741" lon="5.60151">
        <ele>523.6</ele>
        <time>2022-07-29T09:09:37Z</time>
      </trkpt>
      <trkpt lat="46.45737" lon="5.60161">
        <ele>523.6</ele>
        <time>2022-07-29T09:09:38Z</time>
      </trkpt>
      <trkpt lat="46.45733" lon="5.60171">
        <ele>523.2</ele>
        <time>2022-07-29T09:09:39Z</time>
      </trkpt>
      <trkpt lat="46.45728" lon="5.6018">
        <ele>523.2</ele>
        <time>2022-07-29T09:09:40Z</time>
      </trkpt>
      <trkpt lat="46.45723" lon="5.6019">
        <ele>522.8</ele>
        <time>2022-07-29T09:09:41Z</time>
      </trkpt>
      <trkpt lat="46.45719" lon="5.60199">
        <ele>522.8</ele>
        <time>2022-07-29T09:09:42Z</time>
      </trkpt>
      <trkpt lat="46.45714" lon="5.60207">
        <ele>522.6</ele>
        <time>2022-07-29T09:09:43Z</time>
      </trkpt>
      <trkpt lat="46.45709" lon="5.60216">
        <ele>522.6</ele>
        <time>2022-07-29T09:09:44Z</time>
      </trkpt>
      <trkpt lat="46.45704" lon="5.60224">
        <ele>522.6</ele>
        <time>2022-07-29T09:09:45Z</time>
      </trkpt>
      <trkpt lat="46.45699" lon="5.60232">
        <ele>522.6</ele>
        <time>2022-07-29T09:09:46Z</time>
      </trkpt>
      <trkpt lat="46.45693" lon="5.60239">
        <ele>522.6</ele>
        <time>2022-07-29T09:09:47Z</time>
      </trkpt>
      <trkpt lat="46.45688" lon="5.60247">
        <ele>522.6</ele>
        <time>2022-07-29T09:09:48Z</time>
      </trkpt>
      <trkpt lat="46.45683" lon="5.60255">
        <ele>522.6</ele>
        <time>2022-07-29T09:09:49Z</time>
      </trkpt>
      <trkpt lat="46.45679" lon="5.60263">
        <ele>522.6</ele>
        <time>2022-07-29T09:09:50Z</time>
      </trkpt>
      <trkpt lat="46.45679" lon="5.60263">
        <ele>522.2</ele>
        <time>2022-07-29T09:09:51Z</time>
      </trkpt>
      <trkpt lat="46.45674" lon="5.60272">
        <ele>522.2</ele>
        <time>2022-07-29T09:09:52Z</time>
      </trkpt>
      <trkpt lat="46.4567" lon="5.60281">
        <ele>522.2</ele>
        <time>2022-07-29T09:09:53Z</time>
      </trkpt>
      <trkpt lat="46.45667" lon="5.6029">
        <ele>522</ele>
        <time>2022-07-29T09:09:54Z</time>
      </trkpt>
      <trkpt lat="46.45665" lon="5.60301">
        <ele>521.8</ele>
        <time>2022-07-29T09:09:55Z</time>
      </trkpt>
      <trkpt lat="46.45662" lon="5.60311">
        <ele>521.8</ele>
        <time>2022-07-29T09:09:56Z</time>
      </trkpt>
      <trkpt lat="46.45661" lon="5.60323">
        <ele>521.2</ele>
        <time>2022-07-29T09:09:57Z</time>
      </trkpt>
      <trkpt lat="46.45659" lon="5.60334">
        <ele>521</ele>
        <time>2022-07-29T09:09:58Z</time>
      </trkpt>
      <trkpt lat="46.45658" lon="5.60346">
        <ele>520.4</ele>
        <time>2022-07-29T09:09:59Z</time>
      </trkpt>
      <trkpt lat="46.45657" lon="5.60359">
        <ele>520</ele>
        <time>2022-07-29T09:10:00Z</time>
      </trkpt>
      <trkpt lat="46.45656" lon="5.60372">
        <ele>519.6</ele>
        <time>2022-07-29T09:10:01Z</time>
      </trkpt>
      <trkpt lat="46.45655" lon="5.60385">
        <ele>519</ele>
        <time>2022-07-29T09:10:02Z</time>
      </trkpt>
      <trkpt lat="46.45654" lon="5.60398">
        <ele>518.6</ele>
        <time>2022-07-29T09:10:03Z</time>
      </trkpt>
      <trkpt lat="46.45654" lon="5.60411">
        <ele>518.4</ele>
        <time>2022-07-29T09:10:04Z</time>
      </trkpt>
      <trkpt lat="46.45654" lon="5.60424">
        <ele>518.2</ele>
        <time>2022-07-29T09:10:05Z</time>
      </trkpt>
      <trkpt lat="46.45653" lon="5.60436">
        <ele>518.2</ele>
        <time>2022-07-29T09:10:06Z</time>
      </trkpt>
      <trkpt lat="46.45653" lon="5.60447">
        <ele>518.2</ele>
        <time>2022-07-29T09:10:07Z</time>
      </trkpt>
      <trkpt lat="46.45653" lon="5.60458">
        <ele>518.2</ele>
        <time>2022-07-29T09:10:08Z</time>
      </trkpt>
      <trkpt lat="46.45653" lon="5.60469">
        <ele>518.2</ele>
        <time>2022-07-29T09:10:09Z</time>
      </trkpt>
      <trkpt lat="46.45652" lon="5.60479">
        <ele>518.2</ele>
        <time>2022-07-29T09:10:10Z</time>
      </trkpt>
      <trkpt lat="46.45652" lon="5.60488">
        <ele>518.6</ele>
        <time>2022-07-29T09:10:11Z</time>
      </trkpt>
      <trkpt lat="46.4565" lon="5.60496">
        <ele>518.6</ele>
        <time>2022-07-29T09:10:12Z</time>
      </trkpt>
      <trkpt lat="46.45647" lon="5.60504">
        <ele>518.6</ele>
        <time>2022-07-29T09:10:13Z</time>
      </trkpt>
      <trkpt lat="46.45644" lon="5.6051">
        <ele>518.8</ele>
        <time>2022-07-29T09:10:14Z</time>
      </trkpt>
      <trkpt lat="46.45639" lon="5.60516">
        <ele>518.8</ele>
        <time>2022-07-29T09:10:15Z</time>
      </trkpt>
      <trkpt lat="46.45634" lon="5.6052">
        <ele>519</ele>
        <time>2022-07-29T09:10:16Z</time>
      </trkpt>
      <trkpt lat="46.4563" lon="5.60524">
        <ele>519.2</ele>
        <time>2022-07-29T09:10:17Z</time>
      </trkpt>
      <trkpt lat="46.45626" lon="5.60528">
        <ele>519.2</ele>
        <time>2022-07-29T09:10:18Z</time>
      </trkpt>
      <trkpt lat="46.45622" lon="5.60531">
        <ele>519.6</ele>
        <time>2022-07-29T09:10:19Z</time>
      </trkpt>
      <trkpt lat="46.45619" lon="5.60534">
        <ele>519.6</ele>
        <time>2022-07-29T09:10:20Z</time>
      </trkpt>
      <trkpt lat="46.45616" lon="5.60537">
        <ele>520</ele>
        <time>2022-07-29T09:10:21Z</time>
      </trkpt>
      <trkpt lat="46.45613" lon="5.60539">
        <ele>520</ele>
        <time>2022-07-29T09:10:22Z</time>
      </trkpt>
      <trkpt lat="46.45609" lon="5.60542">
        <ele>520.2</ele>
        <time>2022-07-29T09:10:23Z</time>
      </trkpt>
      <trkpt lat="46.45606" lon="5.60545">
        <ele>520.2</ele>
        <time>2022-07-29T09:10:24Z</time>
      </trkpt>
      <trkpt lat="46.45603" lon="5.60548">
        <ele>520.4</ele>
        <time>2022-07-29T09:10:25Z</time>
      </trkpt>
      <trkpt lat="46.45601" lon="5.60552">
        <ele>520.4</ele>
        <time>2022-07-29T09:10:26Z</time>
      </trkpt>
      <trkpt lat="46.45599" lon="5.60557">
        <ele>520.8</ele>
        <time>2022-07-29T09:10:27Z</time>
      </trkpt>
      <trkpt lat="46.45597" lon="5.60561">
        <ele>520.8</ele>
        <time>2022-07-29T09:10:28Z</time>
      </trkpt>
      <trkpt lat="46.45595" lon="5.60565">
        <ele>521</ele>
        <time>2022-07-29T09:10:29Z</time>
      </trkpt>
      <trkpt lat="46.45591" lon="5.60569">
        <ele>521</ele>
        <time>2022-07-29T09:10:30Z</time>
      </trkpt>
      <trkpt lat="46.45587" lon="5.60572">
        <ele>521</ele>
        <time>2022-07-29T09:10:31Z</time>
      </trkpt>
      <trkpt lat="46.45583" lon="5.60576">
        <ele>521</ele>
        <time>2022-07-29T09:10:32Z</time>
      </trkpt>
      <trkpt lat="46.45578" lon="5.60578">
        <ele>520.8</ele>
        <time>2022-07-29T09:10:33Z</time>
      </trkpt>
      <trkpt lat="46.45572" lon="5.6058">
        <ele>520.2</ele>
        <time>2022-07-29T09:10:34Z</time>
      </trkpt>
      <trkpt lat="46.45564" lon="5.6058">
        <ele>519.8</ele>
        <time>2022-07-29T09:10:35Z</time>
      </trkpt>
      <trkpt lat="46.45556" lon="5.60579">
        <ele>519.2</ele>
        <time>2022-07-29T09:10:36Z</time>
      </trkpt>
      <trkpt lat="46.45547" lon="5.60578">
        <ele>518.4</ele>
        <time>2022-07-29T09:10:37Z</time>
      </trkpt>
      <trkpt lat="46.45538" lon="5.60576">
        <ele>517.6</ele>
        <time>2022-07-29T09:10:38Z</time>
      </trkpt>
      <trkpt lat="46.45527" lon="5.60573">
        <ele>516.6</ele>
        <time>2022-07-29T09:10:39Z</time>
      </trkpt>
      <trkpt lat="46.45517" lon="5.60571">
        <ele>515.8</ele>
        <time>2022-07-29T09:10:40Z</time>
      </trkpt>
      <trkpt lat="46.45505" lon="5.60568">
        <ele>514.8</ele>
        <time>2022-07-29T09:10:41Z</time>
      </trkpt>
      <trkpt lat="46.45494" lon="5.60565">
        <ele>513.8</ele>
        <time>2022-07-29T09:10:42Z</time>
      </trkpt>
      <trkpt lat="46.45483" lon="5.6056">
        <ele>512.8</ele>
        <time>2022-07-29T09:10:43Z</time>
      </trkpt>
      <trkpt lat="46.45472" lon="5.60555">
        <ele>511.8</ele>
        <time>2022-07-29T09:10:44Z</time>
      </trkpt>
      <trkpt lat="46.45461" lon="5.60549">
        <ele>511</ele>
        <time>2022-07-29T09:10:45Z</time>
      </trkpt>
      <trkpt lat="46.4545" lon="5.60542">
        <ele>510.2</ele>
        <time>2022-07-29T09:10:46Z</time>
      </trkpt>
      <trkpt lat="46.45439" lon="5.60535">
        <ele>509.4</ele>
        <time>2022-07-29T09:10:47Z</time>
      </trkpt>
      <trkpt lat="46.45429" lon="5.60527">
        <ele>508.8</ele>
        <time>2022-07-29T09:10:48Z</time>
      </trkpt>
      <trkpt lat="46.45419" lon="5.60519">
        <ele>508.2</ele>
        <time>2022-07-29T09:10:49Z</time>
      </trkpt>
      <trkpt lat="46.45408" lon="5.60512">
        <ele>507.8</ele>
        <time>2022-07-29T09:10:50Z</time>
      </trkpt>
      <trkpt lat="46.45398" lon="5.60506">
        <ele>507.2</ele>
        <time>2022-07-29T09:10:51Z</time>
      </trkpt>
      <trkpt lat="46.45387" lon="5.60501">
        <ele>506.6</ele>
        <time>2022-07-29T09:10:52Z</time>
      </trkpt>
      <trkpt lat="46.45377" lon="5.60497">
        <ele>506.2</ele>
        <time>2022-07-29T09:10:53Z</time>
      </trkpt>
      <trkpt lat="46.45367" lon="5.60495">
        <ele>505.8</ele>
        <time>2022-07-29T09:10:54Z</time>
      </trkpt>
      <trkpt lat="46.45359" lon="5.60494">
        <ele>505.4</ele>
        <time>2022-07-29T09:10:55Z</time>
      </trkpt>
      <trkpt lat="46.45351" lon="5.60496">
        <ele>505.2</ele>
        <time>2022-07-29T09:10:56Z</time>
      </trkpt>
      <trkpt lat="46.45343" lon="5.605">
        <ele>504.8</ele>
        <time>2022-07-29T09:10:57Z</time>
      </trkpt>
      <trkpt lat="46.45339" lon="5.60511">
        <ele>504.2</ele>
        <time>2022-07-29T09:10:58Z</time>
      </trkpt>
      <trkpt lat="46.45336" lon="5.60523">
        <ele>503.6</ele>
        <time>2022-07-29T09:10:59Z</time>
      </trkpt>
      <trkpt lat="46.45334" lon="5.60537">
        <ele>503</ele>
        <time>2022-07-29T09:11:00Z</time>
      </trkpt>
      <trkpt lat="46.45331" lon="5.60551">
        <ele>502.4</ele>
        <time>2022-07-29T09:11:01Z</time>
      </trkpt>
      <trkpt lat="46.45329" lon="5.60566">
        <ele>501.8</ele>
        <time>2022-07-29T09:11:02Z</time>
      </trkpt>
      <trkpt lat="46.45326" lon="5.6058">
        <ele>501.4</ele>
        <time>2022-07-29T09:11:03Z</time>
      </trkpt>
      <trkpt lat="46.45323" lon="5.60594">
        <ele>500.8</ele>
        <time>2022-07-29T09:11:04Z</time>
      </trkpt>
      <trkpt lat="46.45319" lon="5.60608">
        <ele>500.2</ele>
        <time>2022-07-29T09:11:05Z</time>
      </trkpt>
      <trkpt lat="46.45315" lon="5.60621">
        <ele>499.6</ele>
        <time>2022-07-29T09:11:06Z</time>
      </trkpt>
      <trkpt lat="46.45311" lon="5.60629">
        <ele>499</ele>
        <time>2022-07-29T09:11:07Z</time>
      </trkpt>
      <trkpt lat="46.45305" lon="5.60636">
        <ele>498.4</ele>
        <time>2022-07-29T09:11:08Z</time>
      </trkpt>
      <trkpt lat="46.45299" lon="5.60637">
        <ele>497.8</ele>
        <time>2022-07-29T09:11:09Z</time>
      </trkpt>
      <trkpt lat="46.45293" lon="5.60634">
        <ele>497.2</ele>
        <time>2022-07-29T09:11:10Z</time>
      </trkpt>
      <trkpt lat="46.45289" lon="5.60627">
        <ele>496.6</ele>
        <time>2022-07-29T09:11:11Z</time>
      </trkpt>
      <trkpt lat="46.45285" lon="5.60619">
        <ele>496.2</ele>
        <time>2022-07-29T09:11:12Z</time>
      </trkpt>
      <trkpt lat="46.45281" lon="5.60609">
        <ele>495.6</ele>
        <time>2022-07-29T09:11:13Z</time>
      </trkpt>
      <trkpt lat="46.45278" lon="5.60598">
        <ele>495</ele>
        <time>2022-07-29T09:11:14Z</time>
      </trkpt>
      <trkpt lat="46.45275" lon="5.60587">
        <ele>494.4</ele>
        <time>2022-07-29T09:11:15Z</time>
      </trkpt>
      <trkpt lat="46.4527" lon="5.60577">
        <ele>493.8</ele>
        <time>2022-07-29T09:11:16Z</time>
      </trkpt>
      <trkpt lat="46.45263" lon="5.60569">
        <ele>493</ele>
        <time>2022-07-29T09:11:17Z</time>
      </trkpt>
      <trkpt lat="46.45255" lon="5.60561">
        <ele>492.4</ele>
        <time>2022-07-29T09:11:18Z</time>
      </trkpt>
      <trkpt lat="46.45247" lon="5.60554">
        <ele>491.8</ele>
        <time>2022-07-29T09:11:19Z</time>
      </trkpt>
      <trkpt lat="46.45238" lon="5.60549">
        <ele>491.2</ele>
        <time>2022-07-29T09:11:20Z</time>
      </trkpt>
      <trkpt lat="46.45227" lon="5.60547">
        <ele>490.4</ele>
        <time>2022-07-29T09:11:21Z</time>
      </trkpt>
      <trkpt lat="46.45217" lon="5.60545">
        <ele>489.8</ele>
        <time>2022-07-29T09:11:22Z</time>
      </trkpt>
      <trkpt lat="46.45205" lon="5.6054">
        <ele>489</ele>
        <time>2022-07-29T09:11:23Z</time>
      </trkpt>
      <trkpt lat="46.45195" lon="5.60535">
        <ele>488</ele>
        <time>2022-07-29T09:11:24Z</time>
      </trkpt>
      <trkpt lat="46.45184" lon="5.60528">
        <ele>486.2</ele>
        <time>2022-07-29T09:11:25Z</time>
      </trkpt>
      <trkpt lat="46.45173" lon="5.60521">
        <ele>485.4</ele>
        <time>2022-07-29T09:11:26Z</time>
      </trkpt>
      <trkpt lat="46.45162" lon="5.60513">
        <ele>484.6</ele>
        <time>2022-07-29T09:11:27Z</time>
      </trkpt>
      <trkpt lat="46.45151" lon="5.60506">
        <ele>483.6</ele>
        <time>2022-07-29T09:11:28Z</time>
      </trkpt>
      <trkpt lat="46.4514" lon="5.60499">
        <ele>482.4</ele>
        <time>2022-07-29T09:11:29Z</time>
      </trkpt>
      <trkpt lat="46.45129" lon="5.6049">
        <ele>481.4</ele>
        <time>2022-07-29T09:11:30Z</time>
      </trkpt>
      <trkpt lat="46.45121" lon="5.60478">
        <ele>480.2</ele>
        <time>2022-07-29T09:11:31Z</time>
      </trkpt>
      <trkpt lat="46.45115" lon="5.60463">
        <ele>479.2</ele>
        <time>2022-07-29T09:11:32Z</time>
      </trkpt>
      <trkpt lat="46.45112" lon="5.60446">
        <ele>478.2</ele>
        <time>2022-07-29T09:11:33Z</time>
      </trkpt>
      <trkpt lat="46.45112" lon="5.60428">
        <ele>477.4</ele>
        <time>2022-07-29T09:11:34Z</time>
      </trkpt>
      <trkpt lat="46.45115" lon="5.60411">
        <ele>477</ele>
        <time>2022-07-29T09:11:35Z</time>
      </trkpt>
      <trkpt lat="46.45118" lon="5.60396">
        <ele>476.4</ele>
        <time>2022-07-29T09:11:36Z</time>
      </trkpt>
      <trkpt lat="46.4512" lon="5.60382">
        <ele>475.8</ele>
        <time>2022-07-29T09:11:37Z</time>
      </trkpt>
      <trkpt lat="46.45118" lon="5.60369">
        <ele>475.2</ele>
        <time>2022-07-29T09:11:38Z</time>
      </trkpt>
      <trkpt lat="46.45114" lon="5.60357">
        <ele>474.2</ele>
        <time>2022-07-29T09:11:39Z</time>
      </trkpt>
      <trkpt lat="46.45106" lon="5.60348">
        <ele>473.4</ele>
        <time>2022-07-29T09:11:40Z</time>
      </trkpt>
      <trkpt lat="46.45097" lon="5.6034">
        <ele>472.4</ele>
        <time>2022-07-29T09:11:41Z</time>
      </trkpt>
      <trkpt lat="46.45087" lon="5.60333">
        <ele>471.4</ele>
        <time>2022-07-29T09:11:42Z</time>
      </trkpt>
      <trkpt lat="46.45076" lon="5.60327">
        <ele>470.4</ele>
        <time>2022-07-29T09:11:43Z</time>
      </trkpt>
      <trkpt lat="46.45065" lon="5.60321">
        <ele>469.4</ele>
        <time>2022-07-29T09:11:44Z</time>
      </trkpt>
      <trkpt lat="46.45054" lon="5.60313">
        <ele>468.6</ele>
        <time>2022-07-29T09:11:45Z</time>
      </trkpt>
      <trkpt lat="46.45044" lon="5.60305">
        <ele>467.6</ele>
        <time>2022-07-29T09:11:46Z</time>
      </trkpt>
      <trkpt lat="46.45034" lon="5.60294">
        <ele>466.8</ele>
        <time>2022-07-29T09:11:47Z</time>
      </trkpt>
      <trkpt lat="46.45024" lon="5.60283">
        <ele>465.6</ele>
        <time>2022-07-29T09:11:48Z</time>
      </trkpt>
      <trkpt lat="46.45015" lon="5.60271">
        <ele>464.8</ele>
        <time>2022-07-29T09:11:49Z</time>
      </trkpt>
      <trkpt lat="46.45005" lon="5.6026">
        <ele>464</ele>
        <time>2022-07-29T09:11:50Z</time>
      </trkpt>
      <trkpt lat="46.44994" lon="5.6025">
        <ele>463.4</ele>
        <time>2022-07-29T09:11:51Z</time>
      </trkpt>
      <trkpt lat="46.44983" lon="5.60242">
        <ele>462.8</ele>
        <time>2022-07-29T09:11:52Z</time>
      </trkpt>
      <trkpt lat="46.44972" lon="5.60235">
        <ele>462.4</ele>
        <time>2022-07-29T09:11:53Z</time>
      </trkpt>
      <trkpt lat="46.44961" lon="5.60229">
        <ele>461.8</ele>
        <time>2022-07-29T09:11:54Z</time>
      </trkpt>
      <trkpt lat="46.44949" lon="5.60222">
        <ele>461.6</ele>
        <time>2022-07-29T09:11:55Z</time>
      </trkpt>
      <trkpt lat="46.44938" lon="5.60216">
        <ele>461.4</ele>
        <time>2022-07-29T09:11:56Z</time>
      </trkpt>
      <trkpt lat="46.44928" lon="5.6021">
        <ele>461.4</ele>
        <time>2022-07-29T09:11:57Z</time>
      </trkpt>
      <trkpt lat="46.44917" lon="5.60205">
        <ele>461.2</ele>
        <time>2022-07-29T09:11:58Z</time>
      </trkpt>
      <trkpt lat="46.44907" lon="5.602">
        <ele>461.2</ele>
        <time>2022-07-29T09:11:59Z</time>
      </trkpt>
      <trkpt lat="46.44897" lon="5.60197">
        <ele>461.2</ele>
        <time>2022-07-29T09:12:00Z</time>
      </trkpt>
      <trkpt lat="46.44887" lon="5.60193">
        <ele>460.8</ele>
        <time>2022-07-29T09:12:01Z</time>
      </trkpt>
      <trkpt lat="46.44877" lon="5.6019">
        <ele>460.8</ele>
        <time>2022-07-29T09:12:02Z</time>
      </trkpt>
      <trkpt lat="46.44868" lon="5.60187">
        <ele>460.8</ele>
        <time>2022-07-29T09:12:03Z</time>
      </trkpt>
      <trkpt lat="46.44858" lon="5.60185">
        <ele>460.8</ele>
        <time>2022-07-29T09:12:04Z</time>
      </trkpt>
      <trkpt lat="46.44849" lon="5.60184">
        <ele>460.8</ele>
        <time>2022-07-29T09:12:05Z</time>
      </trkpt>
      <trkpt lat="46.4484" lon="5.60185">
        <ele>460.8</ele>
        <time>2022-07-29T09:12:06Z</time>
      </trkpt>
      <trkpt lat="46.44831" lon="5.60187">
        <ele>460.8</ele>
        <time>2022-07-29T09:12:07Z</time>
      </trkpt>
      <trkpt lat="46.44822" lon="5.60188">
        <ele>460.6</ele>
        <time>2022-07-29T09:12:08Z</time>
      </trkpt>
      <trkpt lat="46.44812" lon="5.60187">
        <ele>460.4</ele>
        <time>2022-07-29T09:12:09Z</time>
      </trkpt>
      <trkpt lat="46.44802" lon="5.60184">
        <ele>460</ele>
        <time>2022-07-29T09:12:10Z</time>
      </trkpt>
      <trkpt lat="46.44793" lon="5.60178">
        <ele>460</ele>
        <time>2022-07-29T09:12:11Z</time>
      </trkpt>
      <trkpt lat="46.44785" lon="5.60171">
        <ele>459.6</ele>
        <time>2022-07-29T09:12:12Z</time>
      </trkpt>
      <trkpt lat="46.44778" lon="5.60161">
        <ele>459.6</ele>
        <time>2022-07-29T09:12:13Z</time>
      </trkpt>
      <trkpt lat="46.44772" lon="5.6015">
        <ele>459.6</ele>
        <time>2022-07-29T09:12:14Z</time>
      </trkpt>
      <trkpt lat="46.44766" lon="5.60141">
        <ele>459.6</ele>
        <time>2022-07-29T09:12:15Z</time>
      </trkpt>
      <trkpt lat="46.44761" lon="5.60132">
        <ele>460</ele>
        <time>2022-07-29T09:12:16Z</time>
      </trkpt>
      <trkpt lat="46.44756" lon="5.60123">
        <ele>460.2</ele>
        <time>2022-07-29T09:12:17Z</time>
      </trkpt>
      <trkpt lat="46.44751" lon="5.60115">
        <ele>460.6</ele>
        <time>2022-07-29T09:12:18Z</time>
      </trkpt>
      <trkpt lat="46.44747" lon="5.60108">
        <ele>461</ele>
        <time>2022-07-29T09:12:19Z</time>
      </trkpt>
      <trkpt lat="46.44743" lon="5.60102">
        <ele>461.2</ele>
        <time>2022-07-29T09:12:20Z</time>
      </trkpt>
      <trkpt lat="46.44739" lon="5.60096">
        <ele>461.6</ele>
        <time>2022-07-29T09:12:21Z</time>
      </trkpt>
      <trkpt lat="46.44736" lon="5.60091">
        <ele>462.2</ele>
        <time>2022-07-29T09:12:22Z</time>
      </trkpt>
      <trkpt lat="46.44733" lon="5.60087">
        <ele>462.6</ele>
        <time>2022-07-29T09:12:23Z</time>
      </trkpt>
      <trkpt lat="46.44729" lon="5.60083">
        <ele>463</ele>
        <time>2022-07-29T09:12:24Z</time>
      </trkpt>
      <trkpt lat="46.44727" lon="5.6008">
        <ele>463.4</ele>
        <time>2022-07-29T09:12:25Z</time>
      </trkpt>
      <trkpt lat="46.44724" lon="5.60076">
        <ele>463.8</ele>
        <time>2022-07-29T09:12:26Z</time>
      </trkpt>
      <trkpt lat="46.44721" lon="5.60073">
        <ele>464.2</ele>
        <time>2022-07-29T09:12:27Z</time>
      </trkpt>
      <trkpt lat="46.44718" lon="5.6007">
        <ele>464.4</ele>
        <time>2022-07-29T09:12:28Z</time>
      </trkpt>
      <trkpt lat="46.44715" lon="5.60066">
        <ele>464.6</ele>
        <time>2022-07-29T09:12:29Z</time>
      </trkpt>
      <trkpt lat="46.44711" lon="5.60062">
        <ele>464.6</ele>
        <time>2022-07-29T09:12:30Z</time>
      </trkpt>
      <trkpt lat="46.44708" lon="5.60059">
        <ele>465</ele>
        <time>2022-07-29T09:12:31Z</time>
      </trkpt>
      <trkpt lat="46.44704" lon="5.60056">
        <ele>465.2</ele>
        <time>2022-07-29T09:12:32Z</time>
      </trkpt>
      <trkpt lat="46.44699" lon="5.60053">
        <ele>465.2</ele>
        <time>2022-07-29T09:12:33Z</time>
      </trkpt>
      <trkpt lat="46.44695" lon="5.60049">
        <ele>465.4</ele>
        <time>2022-07-29T09:12:34Z</time>
      </trkpt>
      <trkpt lat="46.44691" lon="5.60045">
        <ele>465.6</ele>
        <time>2022-07-29T09:12:35Z</time>
      </trkpt>
      <trkpt lat="46.44687" lon="5.60042">
        <ele>466</ele>
        <time>2022-07-29T09:12:36Z</time>
      </trkpt>
      <trkpt lat="46.44683" lon="5.60039">
        <ele>466.2</ele>
        <time>2022-07-29T09:12:37Z</time>
      </trkpt>
      <trkpt lat="46.44678" lon="5.60038">
        <ele>466.4</ele>
        <time>2022-07-29T09:12:38Z</time>
      </trkpt>
      <trkpt lat="46.44674" lon="5.60036">
        <ele>466.8</ele>
        <time>2022-07-29T09:12:39Z</time>
      </trkpt>
      <trkpt lat="46.44669" lon="5.60035">
        <ele>467</ele>
        <time>2022-07-29T09:12:40Z</time>
      </trkpt>
      <trkpt lat="46.44665" lon="5.60034">
        <ele>467.4</ele>
        <time>2022-07-29T09:12:41Z</time>
      </trkpt>
      <trkpt lat="46.44661" lon="5.60032">
        <ele>467.8</ele>
        <time>2022-07-29T09:12:42Z</time>
      </trkpt>
      <trkpt lat="46.44657" lon="5.60031">
        <ele>468</ele>
        <time>2022-07-29T09:12:43Z</time>
      </trkpt>
      <trkpt lat="46.44653" lon="5.6003">
        <ele>468.4</ele>
        <time>2022-07-29T09:12:44Z</time>
      </trkpt>
      <trkpt lat="46.44649" lon="5.60029">
        <ele>468.8</ele>
        <time>2022-07-29T09:12:45Z</time>
      </trkpt>
      <trkpt lat="46.44645" lon="5.60028">
        <ele>469</ele>
        <time>2022-07-29T09:12:46Z</time>
      </trkpt>
      <trkpt lat="46.44642" lon="5.60027">
        <ele>469.4</ele>
        <time>2022-07-29T09:12:47Z</time>
      </trkpt>
      <trkpt lat="46.44639" lon="5.60026">
        <ele>469.6</ele>
        <time>2022-07-29T09:12:48Z</time>
      </trkpt>
      <trkpt lat="46.44635" lon="5.60026">
        <ele>469.8</ele>
        <time>2022-07-29T09:12:49Z</time>
      </trkpt>
      <trkpt lat="46.44632" lon="5.60026">
        <ele>469.8</ele>
        <time>2022-07-29T09:12:50Z</time>
      </trkpt>
      <trkpt lat="46.44629" lon="5.60026">
        <ele>470.2</ele>
        <time>2022-07-29T09:12:51Z</time>
      </trkpt>
      <trkpt lat="46.44626" lon="5.60026">
        <ele>470.2</ele>
        <time>2022-07-29T09:12:52Z</time>
      </trkpt>
      <trkpt lat="46.44623" lon="5.60025">
        <ele>470.2</ele>
        <time>2022-07-29T09:12:53Z</time>
      </trkpt>
      <trkpt lat="46.44619" lon="5.60025">
        <ele>470.2</ele>
        <time>2022-07-29T09:12:54Z</time>
      </trkpt>
      <trkpt lat="46.44615" lon="5.60024">
        <ele>470.2</ele>
        <time>2022-07-29T09:12:55Z</time>
      </trkpt>
      <trkpt lat="46.44611" lon="5.60023">
        <ele>470.2</ele>
        <time>2022-07-29T09:12:56Z</time>
      </trkpt>
      <trkpt lat="46.44606" lon="5.60023">
        <ele>470.2</ele>
        <time>2022-07-29T09:12:57Z</time>
      </trkpt>
      <trkpt lat="46.446" lon="5.60022">
        <ele>469.8</ele>
        <time>2022-07-29T09:12:58Z</time>
      </trkpt>
      <trkpt lat="46.44595" lon="5.60021">
        <ele>469.8</ele>
        <time>2022-07-29T09:12:59Z</time>
      </trkpt>
      <trkpt lat="46.44589" lon="5.60021">
        <ele>469.4</ele>
        <time>2022-07-29T09:13:00Z</time>
      </trkpt>
      <trkpt lat="46.44582" lon="5.60019">
        <ele>469.2</ele>
        <time>2022-07-29T09:13:01Z</time>
      </trkpt>
      <trkpt lat="46.44576" lon="5.60018">
        <ele>468.8</ele>
        <time>2022-07-29T09:13:02Z</time>
      </trkpt>
      <trkpt lat="46.44569" lon="5.60017">
        <ele>468.6</ele>
        <time>2022-07-29T09:13:03Z</time>
      </trkpt>
      <trkpt lat="46.44562" lon="5.60016">
        <ele>468.2</ele>
        <time>2022-07-29T09:13:04Z</time>
      </trkpt>
      <trkpt lat="46.44555" lon="5.60016">
        <ele>467.8</ele>
        <time>2022-07-29T09:13:05Z</time>
      </trkpt>
      <trkpt lat="46.44548" lon="5.60016">
        <ele>467.4</ele>
        <time>2022-07-29T09:13:06Z</time>
      </trkpt>
      <trkpt lat="46.4454" lon="5.60017">
        <ele>466.8</ele>
        <time>2022-07-29T09:13:07Z</time>
      </trkpt>
      <trkpt lat="46.44532" lon="5.60018">
        <ele>466.4</ele>
        <time>2022-07-29T09:13:08Z</time>
      </trkpt>
      <trkpt lat="46.44523" lon="5.60018">
        <ele>465.8</ele>
        <time>2022-07-29T09:13:09Z</time>
      </trkpt>
      <trkpt lat="46.44514" lon="5.60017">
        <ele>465.2</ele>
        <time>2022-07-29T09:13:10Z</time>
      </trkpt>
      <trkpt lat="46.44505" lon="5.60015">
        <ele>464.6</ele>
        <time>2022-07-29T09:13:11Z</time>
      </trkpt>
      <trkpt lat="46.44496" lon="5.60012">
        <ele>464</ele>
        <time>2022-07-29T09:13:12Z</time>
      </trkpt>
      <trkpt lat="46.44486" lon="5.60008">
        <ele>463.6</ele>
        <time>2022-07-29T09:13:13Z</time>
      </trkpt>
      <trkpt lat="46.44477" lon="5.60005">
        <ele>463</ele>
        <time>2022-07-29T09:13:14Z</time>
      </trkpt>
      <trkpt lat="46.44467" lon="5.60001">
        <ele>462.4</ele>
        <time>2022-07-29T09:13:15Z</time>
      </trkpt>
      <trkpt lat="46.44457" lon="5.59998">
        <ele>462</ele>
        <time>2022-07-29T09:13:16Z</time>
      </trkpt>
      <trkpt lat="46.44448" lon="5.59995">
        <ele>461.4</ele>
        <time>2022-07-29T09:13:17Z</time>
      </trkpt>
      <trkpt lat="46.44439" lon="5.59991">
        <ele>461</ele>
        <time>2022-07-29T09:13:18Z</time>
      </trkpt>
      <trkpt lat="46.44429" lon="5.59988">
        <ele>460.6</ele>
        <time>2022-07-29T09:13:19Z</time>
      </trkpt>
      <trkpt lat="46.44419" lon="5.59984">
        <ele>460.2</ele>
        <time>2022-07-29T09:13:20Z</time>
      </trkpt>
      <trkpt lat="46.44409" lon="5.59981">
        <ele>459.8</ele>
        <time>2022-07-29T09:13:21Z</time>
      </trkpt>
      <trkpt lat="46.44399" lon="5.59978">
        <ele>459.2</ele>
        <time>2022-07-29T09:13:22Z</time>
      </trkpt>
      <trkpt lat="46.44389" lon="5.59976">
        <ele>459</ele>
        <time>2022-07-29T09:13:23Z</time>
      </trkpt>
      <trkpt lat="46.44379" lon="5.59973">
        <ele>458.6</ele>
        <time>2022-07-29T09:13:24Z</time>
      </trkpt>
      <trkpt lat="46.4437" lon="5.59971">
        <ele>458</ele>
        <time>2022-07-29T09:13:25Z</time>
      </trkpt>
      <trkpt lat="46.4436" lon="5.59969">
        <ele>457.4</ele>
        <time>2022-07-29T09:13:26Z</time>
      </trkpt>
      <trkpt lat="46.44351" lon="5.59968">
        <ele>457</ele>
        <time>2022-07-29T09:13:27Z</time>
      </trkpt>
      <trkpt lat="46.44342" lon="5.59967">
        <ele>456.4</ele>
        <time>2022-07-29T09:13:28Z</time>
      </trkpt>
      <trkpt lat="46.44333" lon="5.59967">
        <ele>455.8</ele>
        <time>2022-07-29T09:13:29Z</time>
      </trkpt>
      <trkpt lat="46.44324" lon="5.59971">
        <ele>455.4</ele>
        <time>2022-07-29T09:13:30Z</time>
      </trkpt>
      <trkpt lat="46.44316" lon="5.59978">
        <ele>454.8</ele>
        <time>2022-07-29T09:13:31Z</time>
      </trkpt>
      <trkpt lat="46.44309" lon="5.59987">
        <ele>454.4</ele>
        <time>2022-07-29T09:13:32Z</time>
      </trkpt>
      <trkpt lat="46.44301" lon="5.59996">
        <ele>454.2</ele>
        <time>2022-07-29T09:13:33Z</time>
      </trkpt>
      <trkpt lat="46.44293" lon="5.60004">
        <ele>454.2</ele>
        <time>2022-07-29T09:13:34Z</time>
      </trkpt>
      <trkpt lat="46.44285" lon="5.60008">
        <ele>454</ele>
        <time>2022-07-29T09:13:35Z</time>
      </trkpt>
      <trkpt lat="46.44276" lon="5.60008">
        <ele>454</ele>
        <time>2022-07-29T09:13:36Z</time>
      </trkpt>
      <trkpt lat="46.44268" lon="5.60007">
        <ele>454.2</ele>
        <time>2022-07-29T09:13:37Z</time>
      </trkpt>
      <trkpt lat="46.44261" lon="5.60005">
        <ele>454.4</ele>
        <time>2022-07-29T09:13:38Z</time>
      </trkpt>
      <trkpt lat="46.44255" lon="5.60001">
        <ele>454.8</ele>
        <time>2022-07-29T09:13:39Z</time>
      </trkpt>
      <trkpt lat="46.4425" lon="5.59997">
        <ele>455</ele>
        <time>2022-07-29T09:13:40Z</time>
      </trkpt>
      <trkpt lat="46.44244" lon="5.59992">
        <ele>455.2</ele>
        <time>2022-07-29T09:13:41Z</time>
      </trkpt>
      <trkpt lat="46.44239" lon="5.59987">
        <ele>455.2</ele>
        <time>2022-07-29T09:13:42Z</time>
      </trkpt>
      <trkpt lat="46.44234" lon="5.59982">
        <ele>455.4</ele>
        <time>2022-07-29T09:13:43Z</time>
      </trkpt>
      <trkpt lat="46.44229" lon="5.59976">
        <ele>455.4</ele>
        <time>2022-07-29T09:13:44Z</time>
      </trkpt>
      <trkpt lat="46.44224" lon="5.5997">
        <ele>455.4</ele>
        <time>2022-07-29T09:13:45Z</time>
      </trkpt>
      <trkpt lat="46.4422" lon="5.59965">
        <ele>455.4</ele>
        <time>2022-07-29T09:13:46Z</time>
      </trkpt>
      <trkpt lat="46.44215" lon="5.5996">
        <ele>455.4</ele>
        <time>2022-07-29T09:13:47Z</time>
      </trkpt>
      <trkpt lat="46.4421" lon="5.59955">
        <ele>455.4</ele>
        <time>2022-07-29T09:13:48Z</time>
      </trkpt>
      <trkpt lat="46.44205" lon="5.5995">
        <ele>455.4</ele>
        <time>2022-07-29T09:13:49Z</time>
      </trkpt>
      <trkpt lat="46.442" lon="5.59945">
        <ele>455.4</ele>
        <time>2022-07-29T09:13:50Z</time>
      </trkpt>
      <trkpt lat="46.44195" lon="5.5994">
        <ele>455.4</ele>
        <time>2022-07-29T09:13:51Z</time>
      </trkpt>
      <trkpt lat="46.4419" lon="5.59936">
        <ele>455.4</ele>
        <time>2022-07-29T09:13:52Z</time>
      </trkpt>
      <trkpt lat="46.44185" lon="5.59931">
        <ele>455.4</ele>
        <time>2022-07-29T09:13:53Z</time>
      </trkpt>
      <trkpt lat="46.4418" lon="5.59927">
        <ele>455.4</ele>
        <time>2022-07-29T09:13:54Z</time>
      </trkpt>
      <trkpt lat="46.44176" lon="5.59922">
        <ele>455.6</ele>
        <time>2022-07-29T09:13:55Z</time>
      </trkpt>
      <trkpt lat="46.44172" lon="5.59916">
        <ele>455.6</ele>
        <time>2022-07-29T09:13:56Z</time>
      </trkpt>
      <trkpt lat="46.44168" lon="5.5991">
        <ele>455.6</ele>
        <time>2022-07-29T09:13:57Z</time>
      </trkpt>
      <trkpt lat="46.44165" lon="5.59904">
        <ele>455.6</ele>
        <time>2022-07-29T09:13:58Z</time>
      </trkpt>
      <trkpt lat="46.44162" lon="5.59897">
        <ele>455.6</ele>
        <time>2022-07-29T09:13:59Z</time>
      </trkpt>
      <trkpt lat="46.44159" lon="5.59889">
        <ele>455.4</ele>
        <time>2022-07-29T09:14:00Z</time>
      </trkpt>
      <trkpt lat="46.44157" lon="5.59882">
        <ele>455.4</ele>
        <time>2022-07-29T09:14:01Z</time>
      </trkpt>
      <trkpt lat="46.44155" lon="5.59874">
        <ele>455</ele>
        <time>2022-07-29T09:14:02Z</time>
      </trkpt>
      <trkpt lat="46.44153" lon="5.59865">
        <ele>455</ele>
        <time>2022-07-29T09:14:03Z</time>
      </trkpt>
      <trkpt lat="46.44151" lon="5.59856">
        <ele>454.8</ele>
        <time>2022-07-29T09:14:04Z</time>
      </trkpt>
      <trkpt lat="46.44149" lon="5.59848">
        <ele>454.8</ele>
        <time>2022-07-29T09:14:05Z</time>
      </trkpt>
      <trkpt lat="46.44148" lon="5.59839">
        <ele>454.8</ele>
        <time>2022-07-29T09:14:06Z</time>
      </trkpt>
      <trkpt lat="46.44147" lon="5.5983">
        <ele>454.6</ele>
        <time>2022-07-29T09:14:07Z</time>
      </trkpt>
      <trkpt lat="46.44146" lon="5.5982">
        <ele>454.4</ele>
        <time>2022-07-29T09:14:08Z</time>
      </trkpt>
      <trkpt lat="46.44145" lon="5.5981">
        <ele>454</ele>
        <time>2022-07-29T09:14:09Z</time>
      </trkpt>
      <trkpt lat="46.44145" lon="5.598">
        <ele>453.6</ele>
        <time>2022-07-29T09:14:10Z</time>
      </trkpt>
      <trkpt lat="46.44144" lon="5.5979">
        <ele>453.4</ele>
        <time>2022-07-29T09:14:11Z</time>
      </trkpt>
      <trkpt lat="46.44143" lon="5.59779">
        <ele>453</ele>
        <time>2022-07-29T09:14:12Z</time>
      </trkpt>
      <trkpt lat="46.44142" lon="5.59767">
        <ele>452.6</ele>
        <time>2022-07-29T09:14:13Z</time>
      </trkpt>
      <trkpt lat="46.44141" lon="5.59756">
        <ele>452.2</ele>
        <time>2022-07-29T09:14:14Z</time>
      </trkpt>
      <trkpt lat="46.44141" lon="5.59744">
        <ele>451.6</ele>
        <time>2022-07-29T09:14:15Z</time>
      </trkpt>
      <trkpt lat="46.44139" lon="5.59718">
        <ele>451.2</ele>
        <time>2022-07-29T09:14:16Z</time>
      </trkpt>
      <trkpt lat="46.44138" lon="5.59704">
        <ele>450.6</ele>
        <time>2022-07-29T09:14:17Z</time>
      </trkpt>
      <trkpt lat="46.44136" lon="5.59689">
        <ele>449.8</ele>
        <time>2022-07-29T09:14:18Z</time>
      </trkpt>
      <trkpt lat="46.44132" lon="5.59674">
        <ele>449</ele>
        <time>2022-07-29T09:14:19Z</time>
      </trkpt>
      <trkpt lat="46.44128" lon="5.59658">
        <ele>448</ele>
        <time>2022-07-29T09:14:20Z</time>
      </trkpt>
      <trkpt lat="46.44121" lon="5.59642">
        <ele>447</ele>
        <time>2022-07-29T09:14:21Z</time>
      </trkpt>
      <trkpt lat="46.44116" lon="5.59625">
        <ele>446</ele>
        <time>2022-07-29T09:14:22Z</time>
      </trkpt>
      <trkpt lat="46.44111" lon="5.59609">
        <ele>444.8</ele>
        <time>2022-07-29T09:14:23Z</time>
      </trkpt>
      <trkpt lat="46.44106" lon="5.59592">
        <ele>443.6</ele>
        <time>2022-07-29T09:14:24Z</time>
      </trkpt>
      <trkpt lat="46.44101" lon="5.59576">
        <ele>442.6</ele>
        <time>2022-07-29T09:14:25Z</time>
      </trkpt>
      <trkpt lat="46.44096" lon="5.59559">
        <ele>441.4</ele>
        <time>2022-07-29T09:14:26Z</time>
      </trkpt>
      <trkpt lat="46.4409" lon="5.59542">
        <ele>440.2</ele>
        <time>2022-07-29T09:14:27Z</time>
      </trkpt>
      <trkpt lat="46.44085" lon="5.59525">
        <ele>439</ele>
        <time>2022-07-29T09:14:28Z</time>
      </trkpt>
      <trkpt lat="46.44081" lon="5.5951">
        <ele>437.6</ele>
        <time>2022-07-29T09:14:29Z</time>
      </trkpt>
      <trkpt lat="46.44076" lon="5.59494">
        <ele>436.4</ele>
        <time>2022-07-29T09:14:30Z</time>
      </trkpt>
      <trkpt lat="46.4407" lon="5.59479">
        <ele>435</ele>
        <time>2022-07-29T09:14:31Z</time>
      </trkpt>
      <trkpt lat="46.44065" lon="5.59466">
        <ele>433.8</ele>
        <time>2022-07-29T09:14:32Z</time>
      </trkpt>
      <trkpt lat="46.44058" lon="5.59454">
        <ele>432.6</ele>
        <time>2022-07-29T09:14:33Z</time>
      </trkpt>
      <trkpt lat="46.4405" lon="5.59445">
        <ele>431.4</ele>
        <time>2022-07-29T09:14:34Z</time>
      </trkpt>
      <trkpt lat="46.44041" lon="5.59438">
        <ele>430.6</ele>
        <time>2022-07-29T09:14:35Z</time>
      </trkpt>
      <trkpt lat="46.44031" lon="5.59433">
        <ele>429.8</ele>
        <time>2022-07-29T09:14:36Z</time>
      </trkpt>
      <trkpt lat="46.44021" lon="5.59427">
        <ele>429</ele>
        <time>2022-07-29T09:14:37Z</time>
      </trkpt>
      <trkpt lat="46.44012" lon="5.59421">
        <ele>428.6</ele>
        <time>2022-07-29T09:14:38Z</time>
      </trkpt>
      <trkpt lat="46.44002" lon="5.59416">
        <ele>428.2</ele>
        <time>2022-07-29T09:14:39Z</time>
      </trkpt>
      <trkpt lat="46.43993" lon="5.5941">
        <ele>428</ele>
        <time>2022-07-29T09:14:40Z</time>
      </trkpt>
      <trkpt lat="46.43984" lon="5.59405">
        <ele>428</ele>
        <time>2022-07-29T09:14:41Z</time>
      </trkpt>
      <trkpt lat="46.43975" lon="5.594">
        <ele>428</ele>
        <time>2022-07-29T09:14:42Z</time>
      </trkpt>
      <trkpt lat="46.43967" lon="5.59395">
        <ele>428</ele>
        <time>2022-07-29T09:14:43Z</time>
      </trkpt>
      <trkpt lat="46.43958" lon="5.59391">
        <ele>428</ele>
        <time>2022-07-29T09:14:44Z</time>
      </trkpt>
      <trkpt lat="46.4395" lon="5.59386">
        <ele>428</ele>
        <time>2022-07-29T09:14:45Z</time>
      </trkpt>
      <trkpt lat="46.43942" lon="5.59381">
        <ele>428</ele>
        <time>2022-07-29T09:14:46Z</time>
      </trkpt>
      <trkpt lat="46.43935" lon="5.59376">
        <ele>428.2</ele>
        <time>2022-07-29T09:14:47Z</time>
      </trkpt>
      <trkpt lat="46.43929" lon="5.59369">
        <ele>428.2</ele>
        <time>2022-07-29T09:14:48Z</time>
      </trkpt>
      <trkpt lat="46.43923" lon="5.59361">
        <ele>428.6</ele>
        <time>2022-07-29T09:14:49Z</time>
      </trkpt>
      <trkpt lat="46.43919" lon="5.59352">
        <ele>428.6</ele>
        <time>2022-07-29T09:14:50Z</time>
      </trkpt>
      <trkpt lat="46.43917" lon="5.59342">
        <ele>429</ele>
        <time>2022-07-29T09:14:51Z</time>
      </trkpt>
      <trkpt lat="46.43915" lon="5.59332">
        <ele>429.4</ele>
        <time>2022-07-29T09:14:52Z</time>
      </trkpt>
      <trkpt lat="46.43915" lon="5.59322">
        <ele>429.6</ele>
        <time>2022-07-29T09:14:53Z</time>
      </trkpt>
      <trkpt lat="46.43914" lon="5.59312">
        <ele>430</ele>
        <time>2022-07-29T09:14:54Z</time>
      </trkpt>
      <trkpt lat="46.43914" lon="5.59303">
        <ele>430.2</ele>
        <time>2022-07-29T09:14:55Z</time>
      </trkpt>
      <trkpt lat="46.43914" lon="5.59294">
        <ele>430.6</ele>
        <time>2022-07-29T09:14:56Z</time>
      </trkpt>
      <trkpt lat="46.43914" lon="5.59285">
        <ele>431</ele>
        <time>2022-07-29T09:14:57Z</time>
      </trkpt>
      <trkpt lat="46.43914" lon="5.59277">
        <ele>431.4</ele>
        <time>2022-07-29T09:14:58Z</time>
      </trkpt>
      <trkpt lat="46.43914" lon="5.59269">
        <ele>431.8</ele>
        <time>2022-07-29T09:14:59Z</time>
      </trkpt>
      <trkpt lat="46.43913" lon="5.59261">
        <ele>432.2</ele>
        <time>2022-07-29T09:15:00Z</time>
      </trkpt>
      <trkpt lat="46.43911" lon="5.59253">
        <ele>432.8</ele>
        <time>2022-07-29T09:15:01Z</time>
      </trkpt>
      <trkpt lat="46.43909" lon="5.59246">
        <ele>433.2</ele>
        <time>2022-07-29T09:15:02Z</time>
      </trkpt>
      <trkpt lat="46.43907" lon="5.59239">
        <ele>433.6</ele>
        <time>2022-07-29T09:15:03Z</time>
      </trkpt>
      <trkpt lat="46.43904" lon="5.59233">
        <ele>434</ele>
        <time>2022-07-29T09:15:04Z</time>
      </trkpt>
      <trkpt lat="46.43901" lon="5.59227">
        <ele>434.6</ele>
        <time>2022-07-29T09:15:05Z</time>
      </trkpt>
      <trkpt lat="46.43898" lon="5.59222">
        <ele>435</ele>
        <time>2022-07-29T09:15:06Z</time>
      </trkpt>
      <trkpt lat="46.43894" lon="5.59218">
        <ele>435.4</ele>
        <time>2022-07-29T09:15:07Z</time>
      </trkpt>
      <trkpt lat="46.4389" lon="5.59215">
        <ele>435.8</ele>
        <time>2022-07-29T09:15:08Z</time>
      </trkpt>
      <trkpt lat="46.43886" lon="5.59212">
        <ele>436</ele>
        <time>2022-07-29T09:15:09Z</time>
      </trkpt>
      <trkpt lat="46.43881" lon="5.5921">
        <ele>436.4</ele>
        <time>2022-07-29T09:15:10Z</time>
      </trkpt>
      <trkpt lat="46.43877" lon="5.59207">
        <ele>436.8</ele>
        <time>2022-07-29T09:15:11Z</time>
      </trkpt>
      <trkpt lat="46.43873" lon="5.59205">
        <ele>437</ele>
        <time>2022-07-29T09:15:12Z</time>
      </trkpt>
      <trkpt lat="46.43869" lon="5.59203">
        <ele>437.4</ele>
        <time>2022-07-29T09:15:13Z</time>
      </trkpt>
      <trkpt lat="46.43864" lon="5.59201">
        <ele>437.6</ele>
        <time>2022-07-29T09:15:14Z</time>
      </trkpt>
      <trkpt lat="46.4386" lon="5.59198">
        <ele>437.6</ele>
        <time>2022-07-29T09:15:15Z</time>
      </trkpt>
      <trkpt lat="46.43856" lon="5.59195">
        <ele>438</ele>
        <time>2022-07-29T09:15:16Z</time>
      </trkpt>
      <trkpt lat="46.43853" lon="5.59193">
        <ele>438</ele>
        <time>2022-07-29T09:15:17Z</time>
      </trkpt>
      <trkpt lat="46.43848" lon="5.59191">
        <ele>438.2</ele>
        <time>2022-07-29T09:15:18Z</time>
      </trkpt>
      <trkpt lat="46.43844" lon="5.59188">
        <ele>438.2</ele>
        <time>2022-07-29T09:15:19Z</time>
      </trkpt>
      <trkpt lat="46.4384" lon="5.59186">
        <ele>438.2</ele>
        <time>2022-07-29T09:15:20Z</time>
      </trkpt>
      <trkpt lat="46.43835" lon="5.59183">
        <ele>438.2</ele>
        <time>2022-07-29T09:15:21Z</time>
      </trkpt>
      <trkpt lat="46.43831" lon="5.5918">
        <ele>438.4</ele>
        <time>2022-07-29T09:15:22Z</time>
      </trkpt>
      <trkpt lat="46.43826" lon="5.59177">
        <ele>438.4</ele>
        <time>2022-07-29T09:15:23Z</time>
      </trkpt>
      <trkpt lat="46.43822" lon="5.59174">
        <ele>438.4</ele>
        <time>2022-07-29T09:15:24Z</time>
      </trkpt>
      <trkpt lat="46.43817" lon="5.59171">
        <ele>438.4</ele>
        <time>2022-07-29T09:15:25Z</time>
      </trkpt>
      <trkpt lat="46.43812" lon="5.59168">
        <ele>438.4</ele>
        <time>2022-07-29T09:15:26Z</time>
      </trkpt>
      <trkpt lat="46.43807" lon="5.59165">
        <ele>438.4</ele>
        <time>2022-07-29T09:15:27Z</time>
      </trkpt>
      <trkpt lat="46.43802" lon="5.59163">
        <ele>438.4</ele>
        <time>2022-07-29T09:15:28Z</time>
      </trkpt>
      <trkpt lat="46.43797" lon="5.5916">
        <ele>438.4</ele>
        <time>2022-07-29T09:15:29Z</time>
      </trkpt>
      <trkpt lat="46.43792" lon="5.59156">
        <ele>438.4</ele>
        <time>2022-07-29T09:15:30Z</time>
      </trkpt>
      <trkpt lat="46.43786" lon="5.59153">
        <ele>438.4</ele>
        <time>2022-07-29T09:15:31Z</time>
      </trkpt>
      <trkpt lat="46.43781" lon="5.5915">
        <ele>438.4</ele>
        <time>2022-07-29T09:15:32Z</time>
      </trkpt>
      <trkpt lat="46.43776" lon="5.59146">
        <ele>438.4</ele>
        <time>2022-07-29T09:15:33Z</time>
      </trkpt>
      <trkpt lat="46.43771" lon="5.59143">
        <ele>438.4</ele>
        <time>2022-07-29T09:15:34Z</time>
      </trkpt>
      <trkpt lat="46.43765" lon="5.5914">
        <ele>438.4</ele>
        <time>2022-07-29T09:15:35Z</time>
      </trkpt>
      <trkpt lat="46.4376" lon="5.59136">
        <ele>438.4</ele>
        <time>2022-07-29T09:15:36Z</time>
      </trkpt>
      <trkpt lat="46.43754" lon="5.59133">
        <ele>438.4</ele>
        <time>2022-07-29T09:15:37Z</time>
      </trkpt>
      <trkpt lat="46.43748" lon="5.59129">
        <ele>438.4</ele>
        <time>2022-07-29T09:15:38Z</time>
      </trkpt>
      <trkpt lat="46.43743" lon="5.59126">
        <ele>438.4</ele>
        <time>2022-07-29T09:15:39Z</time>
      </trkpt>
      <trkpt lat="46.43737" lon="5.59122">
        <ele>438.4</ele>
        <time>2022-07-29T09:15:40Z</time>
      </trkpt>
      <trkpt lat="46.43731" lon="5.59118">
        <ele>438.4</ele>
        <time>2022-07-29T09:15:41Z</time>
      </trkpt>
      <trkpt lat="46.43725" lon="5.59115">
        <ele>438.4</ele>
        <time>2022-07-29T09:15:42Z</time>
      </trkpt>
      <trkpt lat="46.43719" lon="5.59111">
        <ele>438.4</ele>
        <time>2022-07-29T09:15:43Z</time>
      </trkpt>
      <trkpt lat="46.43713" lon="5.59108">
        <ele>438.2</ele>
        <time>2022-07-29T09:15:44Z</time>
      </trkpt>
      <trkpt lat="46.43707" lon="5.59104">
        <ele>438.2</ele>
        <time>2022-07-29T09:15:45Z</time>
      </trkpt>
      <trkpt lat="46.43701" lon="5.59099">
        <ele>438.2</ele>
        <time>2022-07-29T09:15:46Z</time>
      </trkpt>
      <trkpt lat="46.43694" lon="5.59095">
        <ele>437.8</ele>
        <time>2022-07-29T09:15:47Z</time>
      </trkpt>
      <trkpt lat="46.43688" lon="5.59091">
        <ele>437.8</ele>
        <time>2022-07-29T09:15:48Z</time>
      </trkpt>
      <trkpt lat="46.43682" lon="5.59088">
        <ele>437.8</ele>
        <time>2022-07-29T09:15:49Z</time>
      </trkpt>
      <trkpt lat="46.43676" lon="5.59084">
        <ele>437.6</ele>
        <time>2022-07-29T09:15:50Z</time>
      </trkpt>
      <trkpt lat="46.43669" lon="5.5908">
        <ele>437.6</ele>
        <time>2022-07-29T09:15:51Z</time>
      </trkpt>
      <trkpt lat="46.43663" lon="5.59077">
        <ele>437.4</ele>
        <time>2022-07-29T09:15:52Z</time>
      </trkpt>
      <trkpt lat="46.43657" lon="5.59074">
        <ele>437.4</ele>
        <time>2022-07-29T09:15:53Z</time>
      </trkpt>
      <trkpt lat="46.4365" lon="5.59071">
        <ele>437.4</ele>
        <time>2022-07-29T09:15:54Z</time>
      </trkpt>
      <trkpt lat="46.43644" lon="5.59068">
        <ele>437.4</ele>
        <time>2022-07-29T09:15:55Z</time>
      </trkpt>
      <trkpt lat="46.43637" lon="5.59065">
        <ele>437.2</ele>
        <time>2022-07-29T09:15:56Z</time>
      </trkpt>
      <trkpt lat="46.43631" lon="5.59063">
        <ele>437.2</ele>
        <time>2022-07-29T09:15:57Z</time>
      </trkpt>
      <trkpt lat="46.43624" lon="5.59061">
        <ele>437.2</ele>
        <time>2022-07-29T09:15:58Z</time>
      </trkpt>
      <trkpt lat="46.43617" lon="5.59059">
        <ele>437.2</ele>
        <time>2022-07-29T09:15:59Z</time>
      </trkpt>
      <trkpt lat="46.4361" lon="5.59057">
        <ele>436.8</ele>
        <time>2022-07-29T09:16:00Z</time>
      </trkpt>
      <trkpt lat="46.43603" lon="5.59055">
        <ele>436.8</ele>
        <time>2022-07-29T09:16:01Z</time>
      </trkpt>
      <trkpt lat="46.43596" lon="5.59053">
        <ele>436.6</ele>
        <time>2022-07-29T09:16:02Z</time>
      </trkpt>
      <trkpt lat="46.43589" lon="5.59052">
        <ele>436.4</ele>
        <time>2022-07-29T09:16:03Z</time>
      </trkpt>
      <trkpt lat="46.43589" lon="5.59052">
        <ele>436.4</ele>
        <time>2022-07-29T09:16:04Z</time>
      </trkpt>
      <trkpt lat="46.43582" lon="5.5905">
        <ele>436.4</ele>
        <time>2022-07-29T09:16:05Z</time>
      </trkpt>
      <trkpt lat="46.43575" lon="5.59048">
        <ele>436</ele>
        <time>2022-07-29T09:16:06Z</time>
      </trkpt>
      <trkpt lat="46.43568" lon="5.59047">
        <ele>436</ele>
        <time>2022-07-29T09:16:07Z</time>
      </trkpt>
      <trkpt lat="46.43561" lon="5.59045">
        <ele>435.8</ele>
        <time>2022-07-29T09:16:08Z</time>
      </trkpt>
      <trkpt lat="46.43554" lon="5.59044">
        <ele>435.6</ele>
        <time>2022-07-29T09:16:09Z</time>
      </trkpt>
      <trkpt lat="46.43546" lon="5.59042">
        <ele>435.2</ele>
        <time>2022-07-29T09:16:10Z</time>
      </trkpt>
      <trkpt lat="46.43539" lon="5.5904">
        <ele>435</ele>
        <time>2022-07-29T09:16:11Z</time>
      </trkpt>
      <trkpt lat="46.43531" lon="5.59039">
        <ele>435</ele>
        <time>2022-07-29T09:16:12Z</time>
      </trkpt>
      <trkpt lat="46.43523" lon="5.59037">
        <ele>434.6</ele>
        <time>2022-07-29T09:16:13Z</time>
      </trkpt>
      <trkpt lat="46.43515" lon="5.59036">
        <ele>434.4</ele>
        <time>2022-07-29T09:16:14Z</time>
      </trkpt>
      <trkpt lat="46.43507" lon="5.59034">
        <ele>434.2</ele>
        <time>2022-07-29T09:16:15Z</time>
      </trkpt>
      <trkpt lat="46.43499" lon="5.59032">
        <ele>433.8</ele>
        <time>2022-07-29T09:16:16Z</time>
      </trkpt>
      <trkpt lat="46.43491" lon="5.5903">
        <ele>433.6</ele>
        <time>2022-07-29T09:16:17Z</time>
      </trkpt>
      <trkpt lat="46.43482" lon="5.59029">
        <ele>433.4</ele>
        <time>2022-07-29T09:16:18Z</time>
      </trkpt>
      <trkpt lat="46.43474" lon="5.59027">
        <ele>433.4</ele>
        <time>2022-07-29T09:16:19Z</time>
      </trkpt>
      <trkpt lat="46.43466" lon="5.59025">
        <ele>432.8</ele>
        <time>2022-07-29T09:16:20Z</time>
      </trkpt>
      <trkpt lat="46.43457" lon="5.59024">
        <ele>432.6</ele>
        <time>2022-07-29T09:16:21Z</time>
      </trkpt>
      <trkpt lat="46.43449" lon="5.59022">
        <ele>432.4</ele>
        <time>2022-07-29T09:16:22Z</time>
      </trkpt>
      <trkpt lat="46.4344" lon="5.5902">
        <ele>432.2</ele>
        <time>2022-07-29T09:16:23Z</time>
      </trkpt>
      <trkpt lat="46.43432" lon="5.59018">
        <ele>432</ele>
        <time>2022-07-29T09:16:24Z</time>
      </trkpt>
      <trkpt lat="46.43423" lon="5.59017">
        <ele>432</ele>
        <time>2022-07-29T09:16:25Z</time>
      </trkpt>
      <trkpt lat="46.43415" lon="5.59015">
        <ele>431.6</ele>
        <time>2022-07-29T09:16:26Z</time>
      </trkpt>
      <trkpt lat="46.43407" lon="5.59013">
        <ele>431.6</ele>
        <time>2022-07-29T09:16:27Z</time>
      </trkpt>
      <trkpt lat="46.43398" lon="5.59012">
        <ele>431.6</ele>
        <time>2022-07-29T09:16:28Z</time>
      </trkpt>
      <trkpt lat="46.4339" lon="5.5901">
        <ele>431.4</ele>
        <time>2022-07-29T09:16:29Z</time>
      </trkpt>
      <trkpt lat="46.43382" lon="5.59008">
        <ele>431.4</ele>
        <time>2022-07-29T09:16:30Z</time>
      </trkpt>
      <trkpt lat="46.43374" lon="5.59007">
        <ele>431.4</ele>
        <time>2022-07-29T09:16:31Z</time>
      </trkpt>
      <trkpt lat="46.43366" lon="5.59005">
        <ele>431.4</ele>
        <time>2022-07-29T09:16:32Z</time>
      </trkpt>
      <trkpt lat="46.43358" lon="5.59003">
        <ele>431</ele>
        <time>2022-07-29T09:16:33Z</time>
      </trkpt>
      <trkpt lat="46.4335" lon="5.59002">
        <ele>431</ele>
        <time>2022-07-29T09:16:34Z</time>
      </trkpt>
      <trkpt lat="46.43342" lon="5.59">
        <ele>431</ele>
        <time>2022-07-29T09:16:35Z</time>
      </trkpt>
      <trkpt lat="46.43335" lon="5.58998">
        <ele>430.8</ele>
        <time>2022-07-29T09:16:36Z</time>
      </trkpt>
      <trkpt lat="46.43327" lon="5.58997">
        <ele>430.8</ele>
        <time>2022-07-29T09:16:37Z</time>
      </trkpt>
      <trkpt lat="46.43319" lon="5.58995">
        <ele>430.4</ele>
        <time>2022-07-29T09:16:38Z</time>
      </trkpt>
      <trkpt lat="46.43311" lon="5.58993">
        <ele>430.4</ele>
        <time>2022-07-29T09:16:39Z</time>
      </trkpt>
      <trkpt lat="46.43304" lon="5.58992">
        <ele>430.4</ele>
        <time>2022-07-29T09:16:40Z</time>
      </trkpt>
      <trkpt lat="46.43296" lon="5.58991">
        <ele>430.4</ele>
        <time>2022-07-29T09:16:41Z</time>
      </trkpt>
      <trkpt lat="46.43289" lon="5.5899">
        <ele>430.4</ele>
        <time>2022-07-29T09:16:42Z</time>
      </trkpt>
      <trkpt lat="46.43282" lon="5.58988">
        <ele>430.4</ele>
        <time>2022-07-29T09:16:43Z</time>
      </trkpt>
      <trkpt lat="46.43275" lon="5.58988">
        <ele>430.4</ele>
        <time>2022-07-29T09:16:44Z</time>
      </trkpt>
      <trkpt lat="46.43268" lon="5.58987">
        <ele>430.4</ele>
        <time>2022-07-29T09:16:45Z</time>
      </trkpt>
      <trkpt lat="46.43261" lon="5.58986">
        <ele>430.4</ele>
        <time>2022-07-29T09:16:46Z</time>
      </trkpt>
      <trkpt lat="46.43254" lon="5.58986">
        <ele>430.4</ele>
        <time>2022-07-29T09:16:47Z</time>
      </trkpt>
      <trkpt lat="46.43247" lon="5.58985">
        <ele>430.6</ele>
        <time>2022-07-29T09:16:48Z</time>
      </trkpt>
      <trkpt lat="46.4324" lon="5.58984">
        <ele>430.6</ele>
        <time>2022-07-29T09:16:49Z</time>
      </trkpt>
      <trkpt lat="46.43233" lon="5.58984">
        <ele>430.6</ele>
        <time>2022-07-29T09:16:50Z</time>
      </trkpt>
      <trkpt lat="46.43226" lon="5.58983">
        <ele>430.6</ele>
        <time>2022-07-29T09:16:51Z</time>
      </trkpt>
      <trkpt lat="46.43219" lon="5.58983">
        <ele>430.4</ele>
        <time>2022-07-29T09:16:52Z</time>
      </trkpt>
      <trkpt lat="46.43212" lon="5.58983">
        <ele>430.4</ele>
        <time>2022-07-29T09:16:53Z</time>
      </trkpt>
      <trkpt lat="46.43205" lon="5.58983">
        <ele>430.4</ele>
        <time>2022-07-29T09:16:54Z</time>
      </trkpt>
      <trkpt lat="46.43198" lon="5.58982">
        <ele>430.4</ele>
        <time>2022-07-29T09:16:55Z</time>
      </trkpt>
      <trkpt lat="46.43191" lon="5.58982">
        <ele>430.4</ele>
        <time>2022-07-29T09:16:56Z</time>
      </trkpt>
      <trkpt lat="46.43184" lon="5.58981">
        <ele>430.4</ele>
        <time>2022-07-29T09:16:57Z</time>
      </trkpt>
      <trkpt lat="46.43177" lon="5.58981">
        <ele>430.4</ele>
        <time>2022-07-29T09:16:58Z</time>
      </trkpt>
      <trkpt lat="46.4317" lon="5.58981">
        <ele>430.2</ele>
        <time>2022-07-29T09:16:59Z</time>
      </trkpt>
      <trkpt lat="46.43163" lon="5.5898">
        <ele>430.2</ele>
        <time>2022-07-29T09:17:00Z</time>
      </trkpt>
      <trkpt lat="46.43156" lon="5.5898">
        <ele>430.2</ele>
        <time>2022-07-29T09:17:01Z</time>
      </trkpt>
      <trkpt lat="46.43149" lon="5.5898">
        <ele>430.2</ele>
        <time>2022-07-29T09:17:02Z</time>
      </trkpt>
      <trkpt lat="46.43142" lon="5.5898">
        <ele>430.2</ele>
        <time>2022-07-29T09:17:03Z</time>
      </trkpt>
      <trkpt lat="46.43136" lon="5.58979">
        <ele>430.2</ele>
        <time>2022-07-29T09:17:04Z</time>
      </trkpt>
      <trkpt lat="46.43129" lon="5.58979">
        <ele>430.4</ele>
        <time>2022-07-29T09:17:05Z</time>
      </trkpt>
      <trkpt lat="46.43123" lon="5.58979">
        <ele>430.4</ele>
        <time>2022-07-29T09:17:06Z</time>
      </trkpt>
      <trkpt lat="46.43116" lon="5.58978">
        <ele>430.4</ele>
        <time>2022-07-29T09:17:07Z</time>
      </trkpt>
      <trkpt lat="46.4311" lon="5.58978">
        <ele>430.4</ele>
        <time>2022-07-29T09:17:08Z</time>
      </trkpt>
      <trkpt lat="46.43104" lon="5.58978">
        <ele>430.6</ele>
        <time>2022-07-29T09:17:09Z</time>
      </trkpt>
      <trkpt lat="46.43097" lon="5.58977">
        <ele>430.6</ele>
        <time>2022-07-29T09:17:10Z</time>
      </trkpt>
      <trkpt lat="46.43091" lon="5.58976">
        <ele>431</ele>
        <time>2022-07-29T09:17:11Z</time>
      </trkpt>
      <trkpt lat="46.43085" lon="5.58976">
        <ele>431</ele>
        <time>2022-07-29T09:17:12Z</time>
      </trkpt>
      <trkpt lat="46.43079" lon="5.58975">
        <ele>431.2</ele>
        <time>2022-07-29T09:17:13Z</time>
      </trkpt>
      <trkpt lat="46.43073" lon="5.58975">
        <ele>431.2</ele>
        <time>2022-07-29T09:17:14Z</time>
      </trkpt>
      <trkpt lat="46.43067" lon="5.58975">
        <ele>431.6</ele>
        <time>2022-07-29T09:17:15Z</time>
      </trkpt>
      <trkpt lat="46.43061" lon="5.58974">
        <ele>431.6</ele>
        <time>2022-07-29T09:17:16Z</time>
      </trkpt>
      <trkpt lat="46.43055" lon="5.58974">
        <ele>431.8</ele>
        <time>2022-07-29T09:17:17Z</time>
      </trkpt>
      <trkpt lat="46.43049" lon="5.58974">
        <ele>431.8</ele>
        <time>2022-07-29T09:17:18Z</time>
      </trkpt>
      <trkpt lat="46.43044" lon="5.58973">
        <ele>431.8</ele>
        <time>2022-07-29T09:17:19Z</time>
      </trkpt>
      <trkpt lat="46.43038" lon="5.58973">
        <ele>432.2</ele>
        <time>2022-07-29T09:17:20Z</time>
      </trkpt>
      <trkpt lat="46.43033" lon="5.58973">
        <ele>432.2</ele>
        <time>2022-07-29T09:17:21Z</time>
      </trkpt>
      <trkpt lat="46.43027" lon="5.58972">
        <ele>432.4</ele>
        <time>2022-07-29T09:17:22Z</time>
      </trkpt>
      <trkpt lat="46.43022" lon="5.58972">
        <ele>432.4</ele>
        <time>2022-07-29T09:17:23Z</time>
      </trkpt>
      <trkpt lat="46.43016" lon="5.58972">
        <ele>432.8</ele>
        <time>2022-07-29T09:17:24Z</time>
      </trkpt>
      <trkpt lat="46.43011" lon="5.58972">
        <ele>432.8</ele>
        <time>2022-07-29T09:17:25Z</time>
      </trkpt>
      <trkpt lat="46.43006" lon="5.58971">
        <ele>433</ele>
        <time>2022-07-29T09:17:26Z</time>
      </trkpt>
      <trkpt lat="46.43001" lon="5.58971">
        <ele>433</ele>
        <time>2022-07-29T09:17:27Z</time>
      </trkpt>
      <trkpt lat="46.42995" lon="5.58971">
        <ele>433.2</ele>
        <time>2022-07-29T09:17:28Z</time>
      </trkpt>
      <trkpt lat="46.4299" lon="5.5897">
        <ele>433.4</ele>
        <time>2022-07-29T09:17:29Z</time>
      </trkpt>
      <trkpt lat="46.42985" lon="5.5897">
        <ele>433.4</ele>
        <time>2022-07-29T09:17:30Z</time>
      </trkpt>
      <trkpt lat="46.4298" lon="5.5897">
        <ele>433.8</ele>
        <time>2022-07-29T09:17:31Z</time>
      </trkpt>
      <trkpt lat="46.42976" lon="5.58971">
        <ele>433.8</ele>
        <time>2022-07-29T09:17:32Z</time>
      </trkpt>
      <trkpt lat="46.42971" lon="5.58971">
        <ele>434.2</ele>
        <time>2022-07-29T09:17:33Z</time>
      </trkpt>
      <trkpt lat="46.42967" lon="5.58971">
        <ele>434.2</ele>
        <time>2022-07-29T09:17:34Z</time>
      </trkpt>
      <trkpt lat="46.42962" lon="5.58971">
        <ele>434.6</ele>
        <time>2022-07-29T09:17:35Z</time>
      </trkpt>
      <trkpt lat="46.42958" lon="5.5897">
        <ele>434.8</ele>
        <time>2022-07-29T09:17:36Z</time>
      </trkpt>
      <trkpt lat="46.42953" lon="5.5897">
        <ele>435</ele>
        <time>2022-07-29T09:17:37Z</time>
      </trkpt>
      <trkpt lat="46.42949" lon="5.5897">
        <ele>435</ele>
        <time>2022-07-29T09:17:38Z</time>
      </trkpt>
      <trkpt lat="46.42944" lon="5.5897">
        <ele>435.2</ele>
        <time>2022-07-29T09:17:39Z</time>
      </trkpt>
      <trkpt lat="46.42939" lon="5.58969">
        <ele>435.2</ele>
        <time>2022-07-29T09:17:40Z</time>
      </trkpt>
      <trkpt lat="46.42935" lon="5.58969">
        <ele>435.6</ele>
        <time>2022-07-29T09:17:41Z</time>
      </trkpt>
      <trkpt lat="46.4293" lon="5.58968">
        <ele>435.6</ele>
        <time>2022-07-29T09:17:42Z</time>
      </trkpt>
      <trkpt lat="46.42925" lon="5.58968">
        <ele>435.8</ele>
        <time>2022-07-29T09:17:43Z</time>
      </trkpt>
      <trkpt lat="46.4292" lon="5.58968">
        <ele>435.8</ele>
        <time>2022-07-29T09:17:44Z</time>
      </trkpt>
      <trkpt lat="46.42916" lon="5.58968">
        <ele>435.8</ele>
        <time>2022-07-29T09:17:45Z</time>
      </trkpt>
      <trkpt lat="46.42911" lon="5.58968">
        <ele>436.2</ele>
        <time>2022-07-29T09:17:46Z</time>
      </trkpt>
      <trkpt lat="46.42906" lon="5.58968">
        <ele>436.2</ele>
        <time>2022-07-29T09:17:47Z</time>
      </trkpt>
      <trkpt lat="46.42901" lon="5.58968">
        <ele>436.2</ele>
        <time>2022-07-29T09:17:48Z</time>
      </trkpt>
      <trkpt lat="46.42896" lon="5.58968">
        <ele>436.4</ele>
        <time>2022-07-29T09:17:49Z</time>
      </trkpt>
      <trkpt lat="46.42891" lon="5.58968">
        <ele>436.4</ele>
        <time>2022-07-29T09:17:50Z</time>
      </trkpt>
      <trkpt lat="46.42886" lon="5.58968">
        <ele>436.6</ele>
        <time>2022-07-29T09:17:51Z</time>
      </trkpt>
      <trkpt lat="46.42882" lon="5.58968">
        <ele>436.6</ele>
        <time>2022-07-29T09:17:52Z</time>
      </trkpt>
      <trkpt lat="46.42877" lon="5.58968">
        <ele>437</ele>
        <time>2022-07-29T09:17:53Z</time>
      </trkpt>
      <trkpt lat="46.42872" lon="5.58968">
        <ele>437</ele>
        <time>2022-07-29T09:17:54Z</time>
      </trkpt>
      <trkpt lat="46.42868" lon="5.58968">
        <ele>437.2</ele>
        <time>2022-07-29T09:17:55Z</time>
      </trkpt>
      <trkpt lat="46.42863" lon="5.58968">
        <ele>437.2</ele>
        <time>2022-07-29T09:17:56Z</time>
      </trkpt>
      <trkpt lat="46.42859" lon="5.58968">
        <ele>437.4</ele>
        <time>2022-07-29T09:17:57Z</time>
      </trkpt>
      <trkpt lat="46.42855" lon="5.58969">
        <ele>437.4</ele>
        <time>2022-07-29T09:17:58Z</time>
      </trkpt>
      <trkpt lat="46.4285" lon="5.58969">
        <ele>437.8</ele>
        <time>2022-07-29T09:17:59Z</time>
      </trkpt>
      <trkpt lat="46.42846" lon="5.5897">
        <ele>437.8</ele>
        <time>2022-07-29T09:18:00Z</time>
      </trkpt>
      <trkpt lat="46.42842" lon="5.58971">
        <ele>438</ele>
        <time>2022-07-29T09:18:01Z</time>
      </trkpt>
      <trkpt lat="46.42838" lon="5.58973">
        <ele>438</ele>
        <time>2022-07-29T09:18:02Z</time>
      </trkpt>
      <trkpt lat="46.42834" lon="5.58975">
        <ele>438</ele>
        <time>2022-07-29T09:18:03Z</time>
      </trkpt>
      <trkpt lat="46.4283" lon="5.58979">
        <ele>438.2</ele>
        <time>2022-07-29T09:18:04Z</time>
      </trkpt>
      <trkpt lat="46.42826" lon="5.58982">
        <ele>438.2</ele>
        <time>2022-07-29T09:18:05Z</time>
      </trkpt>
      <trkpt lat="46.42823" lon="5.58985">
        <ele>438.6</ele>
        <time>2022-07-29T09:18:06Z</time>
      </trkpt>
      <trkpt lat="46.4282" lon="5.58989">
        <ele>438.6</ele>
        <time>2022-07-29T09:18:07Z</time>
      </trkpt>
      <trkpt lat="46.42817" lon="5.58993">
        <ele>438.8</ele>
        <time>2022-07-29T09:18:08Z</time>
      </trkpt>
      <trkpt lat="46.42813" lon="5.58997">
        <ele>439</ele>
        <time>2022-07-29T09:18:09Z</time>
      </trkpt>
      <trkpt lat="46.42811" lon="5.59001">
        <ele>439.4</ele>
        <time>2022-07-29T09:18:10Z</time>
      </trkpt>
      <trkpt lat="46.42808" lon="5.59005">
        <ele>439.6</ele>
        <time>2022-07-29T09:18:11Z</time>
      </trkpt>
      <trkpt lat="46.42805" lon="5.59009">
        <ele>439.6</ele>
        <time>2022-07-29T09:18:12Z</time>
      </trkpt>
      <trkpt lat="46.42802" lon="5.59013">
        <ele>440</ele>
        <time>2022-07-29T09:18:13Z</time>
      </trkpt>
      <trkpt lat="46.42799" lon="5.59016">
        <ele>440.2</ele>
        <time>2022-07-29T09:18:14Z</time>
      </trkpt>
      <trkpt lat="46.42796" lon="5.5902">
        <ele>440.6</ele>
        <time>2022-07-29T09:18:15Z</time>
      </trkpt>
      <trkpt lat="46.42794" lon="5.59024">
        <ele>440.8</ele>
        <time>2022-07-29T09:18:16Z</time>
      </trkpt>
      <trkpt lat="46.42792" lon="5.59028">
        <ele>441</ele>
        <time>2022-07-29T09:18:17Z</time>
      </trkpt>
      <trkpt lat="46.42789" lon="5.59031">
        <ele>441.4</ele>
        <time>2022-07-29T09:18:18Z</time>
      </trkpt>
      <trkpt lat="46.42787" lon="5.59035">
        <ele>441.4</ele>
        <time>2022-07-29T09:18:19Z</time>
      </trkpt>
      <trkpt lat="46.42784" lon="5.59039">
        <ele>441.6</ele>
        <time>2022-07-29T09:18:20Z</time>
      </trkpt>
      <trkpt lat="46.42782" lon="5.59044">
        <ele>441.6</ele>
        <time>2022-07-29T09:18:21Z</time>
      </trkpt>
      <trkpt lat="46.4278" lon="5.59048">
        <ele>442</ele>
        <time>2022-07-29T09:18:22Z</time>
      </trkpt>
      <trkpt lat="46.42778" lon="5.59053">
        <ele>442</ele>
        <time>2022-07-29T09:18:23Z</time>
      </trkpt>
      <trkpt lat="46.42775" lon="5.59057">
        <ele>442.2</ele>
        <time>2022-07-29T09:18:24Z</time>
      </trkpt>
      <trkpt lat="46.42772" lon="5.59061">
        <ele>442.2</ele>
        <time>2022-07-29T09:18:25Z</time>
      </trkpt>
      <trkpt lat="46.4277" lon="5.59065">
        <ele>442.6</ele>
        <time>2022-07-29T09:18:26Z</time>
      </trkpt>
      <trkpt lat="46.42767" lon="5.5907">
        <ele>442.6</ele>
        <time>2022-07-29T09:18:27Z</time>
      </trkpt>
      <trkpt lat="46.42765" lon="5.59075">
        <ele>442.8</ele>
        <time>2022-07-29T09:18:28Z</time>
      </trkpt>
      <trkpt lat="46.42763" lon="5.59079">
        <ele>442.8</ele>
        <time>2022-07-29T09:18:29Z</time>
      </trkpt>
      <trkpt lat="46.4276" lon="5.59083">
        <ele>443.2</ele>
        <time>2022-07-29T09:18:30Z</time>
      </trkpt>
      <trkpt lat="46.42758" lon="5.59087">
        <ele>443.2</ele>
        <time>2022-07-29T09:18:31Z</time>
      </trkpt>
      <trkpt lat="46.42755" lon="5.59091">
        <ele>443.4</ele>
        <time>2022-07-29T09:18:32Z</time>
      </trkpt>
      <trkpt lat="46.42753" lon="5.59095">
        <ele>443.4</ele>
        <time>2022-07-29T09:18:33Z</time>
      </trkpt>
      <trkpt lat="46.4275" lon="5.59099">
        <ele>443.8</ele>
        <time>2022-07-29T09:18:34Z</time>
      </trkpt>
      <trkpt lat="46.42748" lon="5.59102">
        <ele>443.8</ele>
        <time>2022-07-29T09:18:35Z</time>
      </trkpt>
      <trkpt lat="46.42745" lon="5.59106">
        <ele>444</ele>
        <time>2022-07-29T09:18:36Z</time>
      </trkpt>
      <trkpt lat="46.42742" lon="5.59109">
        <ele>444</ele>
        <time>2022-07-29T09:18:37Z</time>
      </trkpt>
      <trkpt lat="46.4274" lon="5.59111">
        <ele>444.4</ele>
        <time>2022-07-29T09:18:38Z</time>
      </trkpt>
      <trkpt lat="46.42737" lon="5.59114">
        <ele>444.6</ele>
        <time>2022-07-29T09:18:39Z</time>
      </trkpt>
      <trkpt lat="46.42734" lon="5.59117">
        <ele>444.6</ele>
        <time>2022-07-29T09:18:40Z</time>
      </trkpt>
      <trkpt lat="46.42732" lon="5.5912">
        <ele>445</ele>
        <time>2022-07-29T09:18:41Z</time>
      </trkpt>
      <trkpt lat="46.42729" lon="5.59123">
        <ele>445</ele>
        <time>2022-07-29T09:18:42Z</time>
      </trkpt>
      <trkpt lat="46.42727" lon="5.59125">
        <ele>445.4</ele>
        <time>2022-07-29T09:18:43Z</time>
      </trkpt>
      <trkpt lat="46.42724" lon="5.59128">
        <ele>445.6</ele>
        <time>2022-07-29T09:18:44Z</time>
      </trkpt>
      <trkpt lat="46.42721" lon="5.5913">
        <ele>445.6</ele>
        <time>2022-07-29T09:18:45Z</time>
      </trkpt>
      <trkpt lat="46.42719" lon="5.59133">
        <ele>446</ele>
        <time>2022-07-29T09:18:46Z</time>
      </trkpt>
      <trkpt lat="46.42716" lon="5.59137">
        <ele>446</ele>
        <time>2022-07-29T09:18:47Z</time>
      </trkpt>
      <trkpt lat="46.42714" lon="5.59141">
        <ele>446.4</ele>
        <time>2022-07-29T09:18:48Z</time>
      </trkpt>
      <trkpt lat="46.42713" lon="5.59145">
        <ele>446.6</ele>
        <time>2022-07-29T09:18:49Z</time>
      </trkpt>
      <trkpt lat="46.42711" lon="5.59149">
        <ele>446.8</ele>
        <time>2022-07-29T09:18:50Z</time>
      </trkpt>
      <trkpt lat="46.4271" lon="5.59153">
        <ele>447</ele>
        <time>2022-07-29T09:18:51Z</time>
      </trkpt>
      <trkpt lat="46.42709" lon="5.59158">
        <ele>447.2</ele>
        <time>2022-07-29T09:18:52Z</time>
      </trkpt>
      <trkpt lat="46.42708" lon="5.59162">
        <ele>447.2</ele>
        <time>2022-07-29T09:18:53Z</time>
      </trkpt>
      <trkpt lat="46.42707" lon="5.59167">
        <ele>447.6</ele>
        <time>2022-07-29T09:18:54Z</time>
      </trkpt>
      <trkpt lat="46.42706" lon="5.59172">
        <ele>447.6</ele>
        <time>2022-07-29T09:18:55Z</time>
      </trkpt>
      <trkpt lat="46.42706" lon="5.59176">
        <ele>447.8</ele>
        <time>2022-07-29T09:18:56Z</time>
      </trkpt>
      <trkpt lat="46.42705" lon="5.59181">
        <ele>447.8</ele>
        <time>2022-07-29T09:18:57Z</time>
      </trkpt>
      <trkpt lat="46.42704" lon="5.59186">
        <ele>448</ele>
        <time>2022-07-29T09:18:58Z</time>
      </trkpt>
      <trkpt lat="46.42704" lon="5.59191">
        <ele>448</ele>
        <time>2022-07-29T09:18:59Z</time>
      </trkpt>
      <trkpt lat="46.42704" lon="5.59196">
        <ele>448.4</ele>
        <time>2022-07-29T09:19:00Z</time>
      </trkpt>
      <trkpt lat="46.42704" lon="5.59201">
        <ele>448.4</ele>
        <time>2022-07-29T09:19:01Z</time>
      </trkpt>
      <trkpt lat="46.42704" lon="5.59206">
        <ele>448.8</ele>
        <time>2022-07-29T09:19:02Z</time>
      </trkpt>
      <trkpt lat="46.42704" lon="5.59211">
        <ele>448.8</ele>
        <time>2022-07-29T09:19:03Z</time>
      </trkpt>
      <trkpt lat="46.42704" lon="5.59217">
        <ele>449</ele>
        <time>2022-07-29T09:19:04Z</time>
      </trkpt>
      <trkpt lat="46.42704" lon="5.59222">
        <ele>449</ele>
        <time>2022-07-29T09:19:05Z</time>
      </trkpt>
      <trkpt lat="46.42705" lon="5.59227">
        <ele>449.2</ele>
        <time>2022-07-29T09:19:06Z</time>
      </trkpt>
      <trkpt lat="46.42705" lon="5.59232">
        <ele>449.2</ele>
        <time>2022-07-29T09:19:07Z</time>
      </trkpt>
      <trkpt lat="46.42705" lon="5.59237">
        <ele>449.6</ele>
        <time>2022-07-29T09:19:08Z</time>
      </trkpt>
      <trkpt lat="46.42705" lon="5.59243">
        <ele>449.6</ele>
        <time>2022-07-29T09:19:09Z</time>
      </trkpt>
      <trkpt lat="46.42705" lon="5.59248">
        <ele>450</ele>
        <time>2022-07-29T09:19:10Z</time>
      </trkpt>
      <trkpt lat="46.42705" lon="5.59253">
        <ele>450</ele>
        <time>2022-07-29T09:19:11Z</time>
      </trkpt>
      <trkpt lat="46.42706" lon="5.59258">
        <ele>450</ele>
        <time>2022-07-29T09:19:12Z</time>
      </trkpt>
      <trkpt lat="46.42706" lon="5.59264">
        <ele>450.2</ele>
        <time>2022-07-29T09:19:13Z</time>
      </trkpt>
      <trkpt lat="46.42706" lon="5.59269">
        <ele>450.2</ele>
        <time>2022-07-29T09:19:14Z</time>
      </trkpt>
      <trkpt lat="46.42707" lon="5.59275">
        <ele>450.2</ele>
        <time>2022-07-29T09:19:15Z</time>
      </trkpt>
      <trkpt lat="46.42707" lon="5.5928">
        <ele>450.4</ele>
        <time>2022-07-29T09:19:16Z</time>
      </trkpt>
      <trkpt lat="46.42707" lon="5.59286">
        <ele>450.4</ele>
        <time>2022-07-29T09:19:17Z</time>
      </trkpt>
      <trkpt lat="46.42707" lon="5.59291">
        <ele>450.8</ele>
        <time>2022-07-29T09:19:18Z</time>
      </trkpt>
      <trkpt lat="46.42706" lon="5.59297">
        <ele>450.8</ele>
        <time>2022-07-29T09:19:19Z</time>
      </trkpt>
      <trkpt lat="46.42706" lon="5.59302">
        <ele>451</ele>
        <time>2022-07-29T09:19:20Z</time>
      </trkpt>
      <trkpt lat="46.42706" lon="5.59308">
        <ele>451</ele>
        <time>2022-07-29T09:19:21Z</time>
      </trkpt>
      <trkpt lat="46.42706" lon="5.59313">
        <ele>451.2</ele>
        <time>2022-07-29T09:19:22Z</time>
      </trkpt>
      <trkpt lat="46.42706" lon="5.59318">
        <ele>451.2</ele>
        <time>2022-07-29T09:19:23Z</time>
      </trkpt>
      <trkpt lat="46.42706" lon="5.59324">
        <ele>451.4</ele>
        <time>2022-07-29T09:19:24Z</time>
      </trkpt>
      <trkpt lat="46.42705" lon="5.59329">
        <ele>451.4</ele>
        <time>2022-07-29T09:19:25Z</time>
      </trkpt>
      <trkpt lat="46.42705" lon="5.59335">
        <ele>451.8</ele>
        <time>2022-07-29T09:19:26Z</time>
      </trkpt>
      <trkpt lat="46.42704" lon="5.5934">
        <ele>451.8</ele>
        <time>2022-07-29T09:19:27Z</time>
      </trkpt>
      <trkpt lat="46.42704" lon="5.59345">
        <ele>451.8</ele>
        <time>2022-07-29T09:19:28Z</time>
      </trkpt>
      <trkpt lat="46.42703" lon="5.59351">
        <ele>452</ele>
        <time>2022-07-29T09:19:29Z</time>
      </trkpt>
      <trkpt lat="46.42702" lon="5.59356">
        <ele>452</ele>
        <time>2022-07-29T09:19:30Z</time>
      </trkpt>
      <trkpt lat="46.42702" lon="5.59362">
        <ele>452.2</ele>
        <time>2022-07-29T09:19:31Z</time>
      </trkpt>
      <trkpt lat="46.42701" lon="5.59367">
        <ele>452.2</ele>
        <time>2022-07-29T09:19:32Z</time>
      </trkpt>
      <trkpt lat="46.42701" lon="5.59373">
        <ele>452.6</ele>
        <time>2022-07-29T09:19:33Z</time>
      </trkpt>
      <trkpt lat="46.427" lon="5.59378">
        <ele>452.6</ele>
        <time>2022-07-29T09:19:34Z</time>
      </trkpt>
      <trkpt lat="46.427" lon="5.59384">
        <ele>452.8</ele>
        <time>2022-07-29T09:19:35Z</time>
      </trkpt>
      <trkpt lat="46.427" lon="5.59389">
        <ele>452.8</ele>
        <time>2022-07-29T09:19:36Z</time>
      </trkpt>
      <trkpt lat="46.42699" lon="5.59394">
        <ele>453.2</ele>
        <time>2022-07-29T09:19:37Z</time>
      </trkpt>
      <trkpt lat="46.42699" lon="5.59399">
        <ele>453.2</ele>
        <time>2022-07-29T09:19:38Z</time>
      </trkpt>
      <trkpt lat="46.42698" lon="5.59404">
        <ele>453.6</ele>
        <time>2022-07-29T09:19:39Z</time>
      </trkpt>
      <trkpt lat="46.42698" lon="5.59409">
        <ele>453.8</ele>
        <time>2022-07-29T09:19:40Z</time>
      </trkpt>
      <trkpt lat="46.42698" lon="5.59415">
        <ele>453.8</ele>
        <time>2022-07-29T09:19:41Z</time>
      </trkpt>
      <trkpt lat="46.42698" lon="5.5942">
        <ele>454</ele>
        <time>2022-07-29T09:19:42Z</time>
      </trkpt>
      <trkpt lat="46.42697" lon="5.59425">
        <ele>454.2</ele>
        <time>2022-07-29T09:19:43Z</time>
      </trkpt>
      <trkpt lat="46.42697" lon="5.59431">
        <ele>454.4</ele>
        <time>2022-07-29T09:19:44Z</time>
      </trkpt>
      <trkpt lat="46.42697" lon="5.59436">
        <ele>454.8</ele>
        <time>2022-07-29T09:19:45Z</time>
      </trkpt>
      <trkpt lat="46.42697" lon="5.59441">
        <ele>455</ele>
        <time>2022-07-29T09:19:46Z</time>
      </trkpt>
      <trkpt lat="46.42696" lon="5.59446">
        <ele>455.2</ele>
        <time>2022-07-29T09:19:47Z</time>
      </trkpt>
      <trkpt lat="46.42696" lon="5.59451">
        <ele>455.4</ele>
        <time>2022-07-29T09:19:48Z</time>
      </trkpt>
      <trkpt lat="46.42696" lon="5.59456">
        <ele>455.4</ele>
        <time>2022-07-29T09:19:49Z</time>
      </trkpt>
      <trkpt lat="46.42695" lon="5.59461">
        <ele>455.8</ele>
        <time>2022-07-29T09:19:50Z</time>
      </trkpt>
      <trkpt lat="46.42694" lon="5.59466">
        <ele>456.2</ele>
        <time>2022-07-29T09:19:51Z</time>
      </trkpt>
      <trkpt lat="46.42694" lon="5.5947">
        <ele>456.4</ele>
        <time>2022-07-29T09:19:52Z</time>
      </trkpt>
      <trkpt lat="46.42694" lon="5.59475">
        <ele>456.6</ele>
        <time>2022-07-29T09:19:53Z</time>
      </trkpt>
      <trkpt lat="46.42694" lon="5.5948">
        <ele>456.8</ele>
        <time>2022-07-29T09:19:54Z</time>
      </trkpt>
      <trkpt lat="46.42693" lon="5.59485">
        <ele>457.2</ele>
        <time>2022-07-29T09:19:55Z</time>
      </trkpt>
      <trkpt lat="46.42693" lon="5.5949">
        <ele>457.4</ele>
        <time>2022-07-29T09:19:56Z</time>
      </trkpt>
      <trkpt lat="46.42693" lon="5.59494">
        <ele>457.6</ele>
        <time>2022-07-29T09:19:57Z</time>
      </trkpt>
      <trkpt lat="46.42693" lon="5.59499">
        <ele>458</ele>
        <time>2022-07-29T09:19:58Z</time>
      </trkpt>
      <trkpt lat="46.42693" lon="5.59503">
        <ele>458.4</ele>
        <time>2022-07-29T09:19:59Z</time>
      </trkpt>
      <trkpt lat="46.42694" lon="5.59508">
        <ele>458.6</ele>
        <time>2022-07-29T09:20:00Z</time>
      </trkpt>
      <trkpt lat="46.42694" lon="5.59513">
        <ele>459</ele>
        <time>2022-07-29T09:20:01Z</time>
      </trkpt>
      <trkpt lat="46.42694" lon="5.59518">
        <ele>459.4</ele>
        <time>2022-07-29T09:20:02Z</time>
      </trkpt>
      <trkpt lat="46.42694" lon="5.59522">
        <ele>459.6</ele>
        <time>2022-07-29T09:20:03Z</time>
      </trkpt>
      <trkpt lat="46.42695" lon="5.59527">
        <ele>460</ele>
        <time>2022-07-29T09:20:04Z</time>
      </trkpt>
      <trkpt lat="46.42695" lon="5.59531">
        <ele>460.4</ele>
        <time>2022-07-29T09:20:05Z</time>
      </trkpt>
      <trkpt lat="46.42695" lon="5.59536">
        <ele>460.6</ele>
        <time>2022-07-29T09:20:06Z</time>
      </trkpt>
      <trkpt lat="46.42696" lon="5.5954">
        <ele>461</ele>
        <time>2022-07-29T09:20:07Z</time>
      </trkpt>
      <trkpt lat="46.42696" lon="5.59544">
        <ele>461.4</ele>
        <time>2022-07-29T09:20:08Z</time>
      </trkpt>
      <trkpt lat="46.42697" lon="5.59548">
        <ele>461.6</ele>
        <time>2022-07-29T09:20:09Z</time>
      </trkpt>
      <trkpt lat="46.42699" lon="5.59553">
        <ele>462</ele>
        <time>2022-07-29T09:20:10Z</time>
      </trkpt>
      <trkpt lat="46.427" lon="5.59557">
        <ele>462.2</ele>
        <time>2022-07-29T09:20:11Z</time>
      </trkpt>
      <trkpt lat="46.427" lon="5.59561">
        <ele>462.6</ele>
        <time>2022-07-29T09:20:12Z</time>
      </trkpt>
      <trkpt lat="46.42701" lon="5.59565">
        <ele>462.8</ele>
        <time>2022-07-29T09:20:13Z</time>
      </trkpt>
      <trkpt lat="46.42701" lon="5.5957">
        <ele>463</ele>
        <time>2022-07-29T09:20:14Z</time>
      </trkpt>
      <trkpt lat="46.42702" lon="5.59574">
        <ele>463.4</ele>
        <time>2022-07-29T09:20:15Z</time>
      </trkpt>
      <trkpt lat="46.42703" lon="5.59579">
        <ele>463.8</ele>
        <time>2022-07-29T09:20:16Z</time>
      </trkpt>
      <trkpt lat="46.42704" lon="5.59583">
        <ele>464</ele>
        <time>2022-07-29T09:20:17Z</time>
      </trkpt>
      <trkpt lat="46.42704" lon="5.59588">
        <ele>464.4</ele>
        <time>2022-07-29T09:20:18Z</time>
      </trkpt>
      <trkpt lat="46.42705" lon="5.59592">
        <ele>464.6</ele>
        <time>2022-07-29T09:20:19Z</time>
      </trkpt>
      <trkpt lat="46.42705" lon="5.59597">
        <ele>465</ele>
        <time>2022-07-29T09:20:20Z</time>
      </trkpt>
      <trkpt lat="46.42706" lon="5.59601">
        <ele>465.4</ele>
        <time>2022-07-29T09:20:21Z</time>
      </trkpt>
      <trkpt lat="46.42706" lon="5.59605">
        <ele>465.6</ele>
        <time>2022-07-29T09:20:22Z</time>
      </trkpt>
      <trkpt lat="46.42707" lon="5.5961">
        <ele>466</ele>
        <time>2022-07-29T09:20:23Z</time>
      </trkpt>
      <trkpt lat="46.42707" lon="5.59614">
        <ele>466.2</ele>
        <time>2022-07-29T09:20:24Z</time>
      </trkpt>
      <trkpt lat="46.42707" lon="5.59618">
        <ele>466.6</ele>
        <time>2022-07-29T09:20:25Z</time>
      </trkpt>
      <trkpt lat="46.42708" lon="5.59622">
        <ele>466.8</ele>
        <time>2022-07-29T09:20:26Z</time>
      </trkpt>
      <trkpt lat="46.42708" lon="5.59626">
        <ele>467.2</ele>
        <time>2022-07-29T09:20:27Z</time>
      </trkpt>
      <trkpt lat="46.42709" lon="5.5963">
        <ele>467.4</ele>
        <time>2022-07-29T09:20:28Z</time>
      </trkpt>
      <trkpt lat="46.4271" lon="5.59634">
        <ele>467.8</ele>
        <time>2022-07-29T09:20:29Z</time>
      </trkpt>
      <trkpt lat="46.42709" lon="5.59638">
        <ele>468</ele>
        <time>2022-07-29T09:20:30Z</time>
      </trkpt>
      <trkpt lat="46.42708" lon="5.59641">
        <ele>468.4</ele>
        <time>2022-07-29T09:20:31Z</time>
      </trkpt>
      <trkpt lat="46.42707" lon="5.59644">
        <ele>468.6</ele>
        <time>2022-07-29T09:20:32Z</time>
      </trkpt>
      <trkpt lat="46.42705" lon="5.59648">
        <ele>468.6</ele>
        <time>2022-07-29T09:20:33Z</time>
      </trkpt>
      <trkpt lat="46.42702" lon="5.5965">
        <ele>469</ele>
        <time>2022-07-29T09:20:34Z</time>
      </trkpt>
      <trkpt lat="46.427" lon="5.59653">
        <ele>469.4</ele>
        <time>2022-07-29T09:20:35Z</time>
      </trkpt>
      <trkpt lat="46.42697" lon="5.59655">
        <ele>469.4</ele>
        <time>2022-07-29T09:20:36Z</time>
      </trkpt>
      <trkpt lat="46.42694" lon="5.59658">
        <ele>469.6</ele>
        <time>2022-07-29T09:20:37Z</time>
      </trkpt>
      <trkpt lat="46.42691" lon="5.5966">
        <ele>469.6</ele>
        <time>2022-07-29T09:20:38Z</time>
      </trkpt>
      <trkpt lat="46.42688" lon="5.59663">
        <ele>470</ele>
        <time>2022-07-29T09:20:39Z</time>
      </trkpt>
      <trkpt lat="46.42686" lon="5.59665">
        <ele>470</ele>
        <time>2022-07-29T09:20:40Z</time>
      </trkpt>
      <trkpt lat="46.42683" lon="5.59667">
        <ele>470.4</ele>
        <time>2022-07-29T09:20:41Z</time>
      </trkpt>
      <trkpt lat="46.42681" lon="5.59669">
        <ele>470.6</ele>
        <time>2022-07-29T09:20:42Z</time>
      </trkpt>
      <trkpt lat="46.42678" lon="5.59671">
        <ele>470.8</ele>
        <time>2022-07-29T09:20:43Z</time>
      </trkpt>
      <trkpt lat="46.42676" lon="5.59673">
        <ele>471.2</ele>
        <time>2022-07-29T09:20:44Z</time>
      </trkpt>
      <trkpt lat="46.42674" lon="5.59675">
        <ele>471.4</ele>
        <time>2022-07-29T09:20:45Z</time>
      </trkpt>
      <trkpt lat="46.42671" lon="5.59677">
        <ele>471.6</ele>
        <time>2022-07-29T09:20:46Z</time>
      </trkpt>
      <trkpt lat="46.42669" lon="5.59679">
        <ele>471.8</ele>
        <time>2022-07-29T09:20:47Z</time>
      </trkpt>
      <trkpt lat="46.42666" lon="5.59681">
        <ele>472</ele>
        <time>2022-07-29T09:20:48Z</time>
      </trkpt>
      <trkpt lat="46.42664" lon="5.59682">
        <ele>472.2</ele>
        <time>2022-07-29T09:20:49Z</time>
      </trkpt>
      <trkpt lat="46.42661" lon="5.59684">
        <ele>472.6</ele>
        <time>2022-07-29T09:20:50Z</time>
      </trkpt>
      <trkpt lat="46.42659" lon="5.59686">
        <ele>472.8</ele>
        <time>2022-07-29T09:20:51Z</time>
      </trkpt>
      <trkpt lat="46.42656" lon="5.59688">
        <ele>473</ele>
        <time>2022-07-29T09:20:52Z</time>
      </trkpt>
      <trkpt lat="46.42654" lon="5.5969">
        <ele>473.4</ele>
        <time>2022-07-29T09:20:53Z</time>
      </trkpt>
      <trkpt lat="46.42652" lon="5.59691">
        <ele>473.6</ele>
        <time>2022-07-29T09:20:54Z</time>
      </trkpt>
      <trkpt lat="46.42649" lon="5.59692">
        <ele>473.8</ele>
        <time>2022-07-29T09:20:55Z</time>
      </trkpt>
      <trkpt lat="46.42647" lon="5.59694">
        <ele>474.2</ele>
        <time>2022-07-29T09:20:56Z</time>
      </trkpt>
      <trkpt lat="46.42644" lon="5.59695">
        <ele>474.4</ele>
        <time>2022-07-29T09:20:57Z</time>
      </trkpt>
      <trkpt lat="46.42642" lon="5.59697">
        <ele>474.6</ele>
        <time>2022-07-29T09:20:58Z</time>
      </trkpt>
      <trkpt lat="46.42639" lon="5.59698">
        <ele>474.8</ele>
        <time>2022-07-29T09:20:59Z</time>
      </trkpt>
      <trkpt lat="46.42637" lon="5.597">
        <ele>475</ele>
        <time>2022-07-29T09:21:00Z</time>
      </trkpt>
      <trkpt lat="46.42634" lon="5.59702">
        <ele>475.4</ele>
        <time>2022-07-29T09:21:01Z</time>
      </trkpt>
      <trkpt lat="46.42631" lon="5.59703">
        <ele>475.6</ele>
        <time>2022-07-29T09:21:02Z</time>
      </trkpt>
      <trkpt lat="46.42629" lon="5.59705">
        <ele>475.6</ele>
        <time>2022-07-29T09:21:03Z</time>
      </trkpt>
      <trkpt lat="46.42626" lon="5.59706">
        <ele>476</ele>
        <time>2022-07-29T09:21:04Z</time>
      </trkpt>
      <trkpt lat="46.42623" lon="5.59708">
        <ele>476</ele>
        <time>2022-07-29T09:21:05Z</time>
      </trkpt>
      <trkpt lat="46.4262" lon="5.59709">
        <ele>476.2</ele>
        <time>2022-07-29T09:21:06Z</time>
      </trkpt>
      <trkpt lat="46.42617" lon="5.59711">
        <ele>476.4</ele>
        <time>2022-07-29T09:21:07Z</time>
      </trkpt>
      <trkpt lat="46.42615" lon="5.59713">
        <ele>476.8</ele>
        <time>2022-07-29T09:21:08Z</time>
      </trkpt>
      <trkpt lat="46.42612" lon="5.59715">
        <ele>477</ele>
        <time>2022-07-29T09:21:09Z</time>
      </trkpt>
      <trkpt lat="46.4261" lon="5.59717">
        <ele>477</ele>
        <time>2022-07-29T09:21:10Z</time>
      </trkpt>
      <trkpt lat="46.42607" lon="5.59719">
        <ele>477.2</ele>
        <time>2022-07-29T09:21:11Z</time>
      </trkpt>
      <trkpt lat="46.42604" lon="5.59721">
        <ele>477.2</ele>
        <time>2022-07-29T09:21:12Z</time>
      </trkpt>
      <trkpt lat="46.42601" lon="5.59723">
        <ele>477.6</ele>
        <time>2022-07-29T09:21:13Z</time>
      </trkpt>
      <trkpt lat="46.42598" lon="5.59724">
        <ele>477.6</ele>
        <time>2022-07-29T09:21:14Z</time>
      </trkpt>
      <trkpt lat="46.42594" lon="5.59726">
        <ele>478</ele>
        <time>2022-07-29T09:21:15Z</time>
      </trkpt>
      <trkpt lat="46.42591" lon="5.59728">
        <ele>478.2</ele>
        <time>2022-07-29T09:21:16Z</time>
      </trkpt>
      <trkpt lat="46.42588" lon="5.5973">
        <ele>478.4</ele>
        <time>2022-07-29T09:21:17Z</time>
      </trkpt>
      <trkpt lat="46.42585" lon="5.59731">
        <ele>478.8</ele>
        <time>2022-07-29T09:21:18Z</time>
      </trkpt>
      <trkpt lat="46.42583" lon="5.59732">
        <ele>479</ele>
        <time>2022-07-29T09:21:19Z</time>
      </trkpt>
      <trkpt lat="46.4258" lon="5.59733">
        <ele>479.2</ele>
        <time>2022-07-29T09:21:20Z</time>
      </trkpt>
      <trkpt lat="46.42577" lon="5.59735">
        <ele>479.4</ele>
        <time>2022-07-29T09:21:21Z</time>
      </trkpt>
      <trkpt lat="46.42575" lon="5.59736">
        <ele>479.8</ele>
        <time>2022-07-29T09:21:22Z</time>
      </trkpt>
      <trkpt lat="46.42572" lon="5.59738">
        <ele>480</ele>
        <time>2022-07-29T09:21:23Z</time>
      </trkpt>
      <trkpt lat="46.42569" lon="5.59739">
        <ele>480.2</ele>
        <time>2022-07-29T09:21:24Z</time>
      </trkpt>
      <trkpt lat="46.42567" lon="5.5974">
        <ele>480.4</ele>
        <time>2022-07-29T09:21:25Z</time>
      </trkpt>
      <trkpt lat="46.42564" lon="5.59742">
        <ele>480.8</ele>
        <time>2022-07-29T09:21:26Z</time>
      </trkpt>
      <trkpt lat="46.42562" lon="5.59743">
        <ele>481</ele>
        <time>2022-07-29T09:21:27Z</time>
      </trkpt>
      <trkpt lat="46.42559" lon="5.59745">
        <ele>481.2</ele>
        <time>2022-07-29T09:21:28Z</time>
      </trkpt>
      <trkpt lat="46.42557" lon="5.59745">
        <ele>481.4</ele>
        <time>2022-07-29T09:21:29Z</time>
      </trkpt>
      <trkpt lat="46.42554" lon="5.59746">
        <ele>481.4</ele>
        <time>2022-07-29T09:21:30Z</time>
      </trkpt>
      <trkpt lat="46.42552" lon="5.59747">
        <ele>482</ele>
        <time>2022-07-29T09:21:31Z</time>
      </trkpt>
      <trkpt lat="46.42549" lon="5.59749">
        <ele>482.2</ele>
        <time>2022-07-29T09:21:32Z</time>
      </trkpt>
      <trkpt lat="46.42547" lon="5.5975">
        <ele>482.4</ele>
        <time>2022-07-29T09:21:33Z</time>
      </trkpt>
      <trkpt lat="46.42545" lon="5.59752">
        <ele>482.6</ele>
        <time>2022-07-29T09:21:34Z</time>
      </trkpt>
      <trkpt lat="46.42542" lon="5.59754">
        <ele>482.8</ele>
        <time>2022-07-29T09:21:35Z</time>
      </trkpt>
      <trkpt lat="46.4254" lon="5.59756">
        <ele>483.2</ele>
        <time>2022-07-29T09:21:36Z</time>
      </trkpt>
      <trkpt lat="46.42538" lon="5.59759">
        <ele>483.4</ele>
        <time>2022-07-29T09:21:37Z</time>
      </trkpt>
      <trkpt lat="46.42537" lon="5.59761">
        <ele>483.8</ele>
        <time>2022-07-29T09:21:38Z</time>
      </trkpt>
      <trkpt lat="46.42536" lon="5.59764">
        <ele>484</ele>
        <time>2022-07-29T09:21:39Z</time>
      </trkpt>
      <trkpt lat="46.42535" lon="5.59768">
        <ele>484.4</ele>
        <time>2022-07-29T09:21:40Z</time>
      </trkpt>
      <trkpt lat="46.42536" lon="5.59771">
        <ele>484.6</ele>
        <time>2022-07-29T09:21:41Z</time>
      </trkpt>
      <trkpt lat="46.42537" lon="5.59774">
        <ele>485</ele>
        <time>2022-07-29T09:21:42Z</time>
      </trkpt>
      <trkpt lat="46.42539" lon="5.59776">
        <ele>485.2</ele>
        <time>2022-07-29T09:21:43Z</time>
      </trkpt>
      <trkpt lat="46.42541" lon="5.59777">
        <ele>485.4</ele>
        <time>2022-07-29T09:21:44Z</time>
      </trkpt>
      <trkpt lat="46.42544" lon="5.59778">
        <ele>485.6</ele>
        <time>2022-07-29T09:21:45Z</time>
      </trkpt>
      <trkpt lat="46.42547" lon="5.59779">
        <ele>486</ele>
        <time>2022-07-29T09:21:46Z</time>
      </trkpt>
      <trkpt lat="46.4255" lon="5.5978">
        <ele>486.2</ele>
        <time>2022-07-29T09:21:47Z</time>
      </trkpt>
      <trkpt lat="46.42553" lon="5.5978">
        <ele>486.4</ele>
        <time>2022-07-29T09:21:48Z</time>
      </trkpt>
      <trkpt lat="46.42555" lon="5.59781">
        <ele>486.6</ele>
        <time>2022-07-29T09:21:49Z</time>
      </trkpt>
      <trkpt lat="46.42558" lon="5.59782">
        <ele>486.8</ele>
        <time>2022-07-29T09:21:50Z</time>
      </trkpt>
      <trkpt lat="46.42561" lon="5.59783">
        <ele>487</ele>
        <time>2022-07-29T09:21:51Z</time>
      </trkpt>
      <trkpt lat="46.42563" lon="5.59784">
        <ele>487.2</ele>
        <time>2022-07-29T09:21:52Z</time>
      </trkpt>
      <trkpt lat="46.42566" lon="5.59785">
        <ele>487.2</ele>
        <time>2022-07-29T09:21:53Z</time>
      </trkpt>
      <trkpt lat="46.42569" lon="5.59785">
        <ele>487.6</ele>
        <time>2022-07-29T09:21:54Z</time>
      </trkpt>
      <trkpt lat="46.42572" lon="5.59785">
        <ele>487.6</ele>
        <time>2022-07-29T09:21:55Z</time>
      </trkpt>
      <trkpt lat="46.42577" lon="5.59786">
        <ele>488</ele>
        <time>2022-07-29T09:21:57Z</time>
      </trkpt>
      <trkpt lat="46.4258" lon="5.59786">
        <ele>488.4</ele>
        <time>2022-07-29T09:21:58Z</time>
      </trkpt>
      <trkpt lat="46.42582" lon="5.59787">
        <ele>488.4</ele>
        <time>2022-07-29T09:21:59Z</time>
      </trkpt>
      <trkpt lat="46.42585" lon="5.59787">
        <ele>488.6</ele>
        <time>2022-07-29T09:22:00Z</time>
      </trkpt>
      <trkpt lat="46.42588" lon="5.59787">
        <ele>489</ele>
        <time>2022-07-29T09:22:01Z</time>
      </trkpt>
      <trkpt lat="46.4259" lon="5.59786">
        <ele>489.2</ele>
        <time>2022-07-29T09:22:02Z</time>
      </trkpt>
      <trkpt lat="46.42593" lon="5.59785">
        <ele>489.4</ele>
        <time>2022-07-29T09:22:03Z</time>
      </trkpt>
      <trkpt lat="46.42595" lon="5.59783">
        <ele>489.4</ele>
        <time>2022-07-29T09:22:04Z</time>
      </trkpt>
      <trkpt lat="46.42598" lon="5.59782">
        <ele>489.6</ele>
        <time>2022-07-29T09:22:05Z</time>
      </trkpt>
      <trkpt lat="46.42601" lon="5.59781">
        <ele>490</ele>
        <time>2022-07-29T09:22:06Z</time>
      </trkpt>
      <trkpt lat="46.42604" lon="5.5978">
        <ele>490</ele>
        <time>2022-07-29T09:22:07Z</time>
      </trkpt>
      <trkpt lat="46.42607" lon="5.59779">
        <ele>490.2</ele>
        <time>2022-07-29T09:22:08Z</time>
      </trkpt>
      <trkpt lat="46.42609" lon="5.59779">
        <ele>490.2</ele>
        <time>2022-07-29T09:22:09Z</time>
      </trkpt>
      <trkpt lat="46.42612" lon="5.59778">
        <ele>490.6</ele>
        <time>2022-07-29T09:22:10Z</time>
      </trkpt>
      <trkpt lat="46.42615" lon="5.59778">
        <ele>490.6</ele>
        <time>2022-07-29T09:22:11Z</time>
      </trkpt>
      <trkpt lat="46.42618" lon="5.59779">
        <ele>491</ele>
        <time>2022-07-29T09:22:12Z</time>
      </trkpt>
      <trkpt lat="46.42621" lon="5.59779">
        <ele>491.2</ele>
        <time>2022-07-29T09:22:13Z</time>
      </trkpt>
      <trkpt lat="46.42624" lon="5.59779">
        <ele>491.4</ele>
        <time>2022-07-29T09:22:14Z</time>
      </trkpt>
      <trkpt lat="46.42626" lon="5.5978">
        <ele>491.8</ele>
        <time>2022-07-29T09:22:15Z</time>
      </trkpt>
      <trkpt lat="46.42629" lon="5.5978">
        <ele>491.8</ele>
        <time>2022-07-29T09:22:16Z</time>
      </trkpt>
      <trkpt lat="46.42632" lon="5.5978">
        <ele>492.2</ele>
        <time>2022-07-29T09:22:17Z</time>
      </trkpt>
      <trkpt lat="46.42634" lon="5.5978">
        <ele>492.2</ele>
        <time>2022-07-29T09:22:18Z</time>
      </trkpt>
      <trkpt lat="46.42637" lon="5.5978">
        <ele>492.6</ele>
        <time>2022-07-29T09:22:19Z</time>
      </trkpt>
      <trkpt lat="46.42641" lon="5.5978">
        <ele>492.8</ele>
        <time>2022-07-29T09:22:20Z</time>
      </trkpt>
      <trkpt lat="46.42644" lon="5.5978">
        <ele>493</ele>
        <time>2022-07-29T09:22:21Z</time>
      </trkpt>
      <trkpt lat="46.42647" lon="5.59779">
        <ele>493.2</ele>
        <time>2022-07-29T09:22:22Z</time>
      </trkpt>
      <trkpt lat="46.4265" lon="5.59778">
        <ele>493.6</ele>
        <time>2022-07-29T09:22:23Z</time>
      </trkpt>
      <trkpt lat="46.42653" lon="5.59777">
        <ele>493.8</ele>
        <time>2022-07-29T09:22:24Z</time>
      </trkpt>
      <trkpt lat="46.42657" lon="5.59777">
        <ele>494</ele>
        <time>2022-07-29T09:22:25Z</time>
      </trkpt>
      <trkpt lat="46.4266" lon="5.59777">
        <ele>494.2</ele>
        <time>2022-07-29T09:22:26Z</time>
      </trkpt>
      <trkpt lat="46.42663" lon="5.59778">
        <ele>494.4</ele>
        <time>2022-07-29T09:22:27Z</time>
      </trkpt>
      <trkpt lat="46.42666" lon="5.59779">
        <ele>494.4</ele>
        <time>2022-07-29T09:22:28Z</time>
      </trkpt>
      <trkpt lat="46.42668" lon="5.5978">
        <ele>494.8</ele>
        <time>2022-07-29T09:22:29Z</time>
      </trkpt>
      <trkpt lat="46.42671" lon="5.59782">
        <ele>494.8</ele>
        <time>2022-07-29T09:22:30Z</time>
      </trkpt>
      <trkpt lat="46.42674" lon="5.59783">
        <ele>495.2</ele>
        <time>2022-07-29T09:22:31Z</time>
      </trkpt>
      <trkpt lat="46.42677" lon="5.59785">
        <ele>495.2</ele>
        <time>2022-07-29T09:22:32Z</time>
      </trkpt>
      <trkpt lat="46.4268" lon="5.59787">
        <ele>495.4</ele>
        <time>2022-07-29T09:22:33Z</time>
      </trkpt>
      <trkpt lat="46.42683" lon="5.59788">
        <ele>495.6</ele>
        <time>2022-07-29T09:22:34Z</time>
      </trkpt>
      <trkpt lat="46.42685" lon="5.5979">
        <ele>495.6</ele>
        <time>2022-07-29T09:22:35Z</time>
      </trkpt>
      <trkpt lat="46.42688" lon="5.59793">
        <ele>496</ele>
        <time>2022-07-29T09:22:36Z</time>
      </trkpt>
      <trkpt lat="46.42691" lon="5.59795">
        <ele>496</ele>
        <time>2022-07-29T09:22:37Z</time>
      </trkpt>
      <trkpt lat="46.42694" lon="5.59797">
        <ele>496.4</ele>
        <time>2022-07-29T09:22:38Z</time>
      </trkpt>
      <trkpt lat="46.42698" lon="5.59799">
        <ele>496.4</ele>
        <time>2022-07-29T09:22:39Z</time>
      </trkpt>
      <trkpt lat="46.42701" lon="5.59801">
        <ele>496.8</ele>
        <time>2022-07-29T09:22:40Z</time>
      </trkpt>
      <trkpt lat="46.42704" lon="5.59804">
        <ele>497</ele>
        <time>2022-07-29T09:22:41Z</time>
      </trkpt>
      <trkpt lat="46.42707" lon="5.59806">
        <ele>497.2</ele>
        <time>2022-07-29T09:22:42Z</time>
      </trkpt>
      <trkpt lat="46.4271" lon="5.59808">
        <ele>497.2</ele>
        <time>2022-07-29T09:22:43Z</time>
      </trkpt>
      <trkpt lat="46.42713" lon="5.59811">
        <ele>497.6</ele>
        <time>2022-07-29T09:22:44Z</time>
      </trkpt>
      <trkpt lat="46.42716" lon="5.59814">
        <ele>498</ele>
        <time>2022-07-29T09:22:45Z</time>
      </trkpt>
      <trkpt lat="46.42719" lon="5.59817">
        <ele>498</ele>
        <time>2022-07-29T09:22:46Z</time>
      </trkpt>
      <trkpt lat="46.42722" lon="5.59819">
        <ele>498.2</ele>
        <time>2022-07-29T09:22:47Z</time>
      </trkpt>
      <trkpt lat="46.42725" lon="5.59821">
        <ele>498.2</ele>
        <time>2022-07-29T09:22:48Z</time>
      </trkpt>
      <trkpt lat="46.42729" lon="5.59823">
        <ele>498.6</ele>
        <time>2022-07-29T09:22:49Z</time>
      </trkpt>
      <trkpt lat="46.42732" lon="5.59825">
        <ele>498.8</ele>
        <time>2022-07-29T09:22:50Z</time>
      </trkpt>
      <trkpt lat="46.42736" lon="5.59827">
        <ele>499.2</ele>
        <time>2022-07-29T09:22:51Z</time>
      </trkpt>
      <trkpt lat="46.42739" lon="5.59828">
        <ele>499.4</ele>
        <time>2022-07-29T09:22:52Z</time>
      </trkpt>
      <trkpt lat="46.42743" lon="5.59829">
        <ele>499.8</ele>
        <time>2022-07-29T09:22:53Z</time>
      </trkpt>
      <trkpt lat="46.42746" lon="5.5983">
        <ele>500</ele>
        <time>2022-07-29T09:22:54Z</time>
      </trkpt>
      <trkpt lat="46.42749" lon="5.59831">
        <ele>500.2</ele>
        <time>2022-07-29T09:22:55Z</time>
      </trkpt>
      <trkpt lat="46.42752" lon="5.59833">
        <ele>500.2</ele>
        <time>2022-07-29T09:22:56Z</time>
      </trkpt>
      <trkpt lat="46.42756" lon="5.59835">
        <ele>500.6</ele>
        <time>2022-07-29T09:22:57Z</time>
      </trkpt>
      <trkpt lat="46.42759" lon="5.59836">
        <ele>500.8</ele>
        <time>2022-07-29T09:22:58Z</time>
      </trkpt>
      <trkpt lat="46.42762" lon="5.59839">
        <ele>501.2</ele>
        <time>2022-07-29T09:22:59Z</time>
      </trkpt>
      <trkpt lat="46.42765" lon="5.59841">
        <ele>501.4</ele>
        <time>2022-07-29T09:23:00Z</time>
      </trkpt>
      <trkpt lat="46.42768" lon="5.59843">
        <ele>501.6</ele>
        <time>2022-07-29T09:23:01Z</time>
      </trkpt>
      <trkpt lat="46.42771" lon="5.59845">
        <ele>501.6</ele>
        <time>2022-07-29T09:23:02Z</time>
      </trkpt>
      <trkpt lat="46.42774" lon="5.59847">
        <ele>502</ele>
        <time>2022-07-29T09:23:03Z</time>
      </trkpt>
      <trkpt lat="46.42777" lon="5.59849">
        <ele>502</ele>
        <time>2022-07-29T09:23:04Z</time>
      </trkpt>
      <trkpt lat="46.4278" lon="5.59851">
        <ele>502.4</ele>
        <time>2022-07-29T09:23:05Z</time>
      </trkpt>
      <trkpt lat="46.42783" lon="5.59854">
        <ele>502.6</ele>
        <time>2022-07-29T09:23:06Z</time>
      </trkpt>
      <trkpt lat="46.42786" lon="5.59856">
        <ele>502.6</ele>
        <time>2022-07-29T09:23:07Z</time>
      </trkpt>
      <trkpt lat="46.42789" lon="5.59859">
        <ele>502.8</ele>
        <time>2022-07-29T09:23:08Z</time>
      </trkpt>
      <trkpt lat="46.42791" lon="5.59862">
        <ele>502.8</ele>
        <time>2022-07-29T09:23:09Z</time>
      </trkpt>
      <trkpt lat="46.42794" lon="5.59865">
        <ele>503.2</ele>
        <time>2022-07-29T09:23:10Z</time>
      </trkpt>
      <trkpt lat="46.42797" lon="5.59868">
        <ele>503.2</ele>
        <time>2022-07-29T09:23:11Z</time>
      </trkpt>
      <trkpt lat="46.42799" lon="5.59871">
        <ele>503.6</ele>
        <time>2022-07-29T09:23:12Z</time>
      </trkpt>
      <trkpt lat="46.42802" lon="5.59873">
        <ele>503.6</ele>
        <time>2022-07-29T09:23:13Z</time>
      </trkpt>
      <trkpt lat="46.42805" lon="5.59875">
        <ele>504.2</ele>
        <time>2022-07-29T09:23:14Z</time>
      </trkpt>
      <trkpt lat="46.42808" lon="5.59877">
        <ele>504.4</ele>
        <time>2022-07-29T09:23:15Z</time>
      </trkpt>
      <trkpt lat="46.4281" lon="5.59879">
        <ele>504.4</ele>
        <time>2022-07-29T09:23:16Z</time>
      </trkpt>
      <trkpt lat="46.42813" lon="5.59882">
        <ele>504.8</ele>
        <time>2022-07-29T09:23:17Z</time>
      </trkpt>
      <trkpt lat="46.42816" lon="5.59885">
        <ele>505</ele>
        <time>2022-07-29T09:23:18Z</time>
      </trkpt>
      <trkpt lat="46.42818" lon="5.59888">
        <ele>505.2</ele>
        <time>2022-07-29T09:23:19Z</time>
      </trkpt>
      <trkpt lat="46.42821" lon="5.59891">
        <ele>505.6</ele>
        <time>2022-07-29T09:23:20Z</time>
      </trkpt>
      <trkpt lat="46.42823" lon="5.59894">
        <ele>505.8</ele>
        <time>2022-07-29T09:23:21Z</time>
      </trkpt>
      <trkpt lat="46.42826" lon="5.59896">
        <ele>506</ele>
        <time>2022-07-29T09:23:22Z</time>
      </trkpt>
      <trkpt lat="46.42829" lon="5.59898">
        <ele>506.2</ele>
        <time>2022-07-29T09:23:23Z</time>
      </trkpt>
      <trkpt lat="46.42832" lon="5.59901">
        <ele>506.2</ele>
        <time>2022-07-29T09:23:24Z</time>
      </trkpt>
      <trkpt lat="46.42835" lon="5.59903">
        <ele>506.6</ele>
        <time>2022-07-29T09:23:25Z</time>
      </trkpt>
      <trkpt lat="46.42838" lon="5.59905">
        <ele>506.6</ele>
        <time>2022-07-29T09:23:26Z</time>
      </trkpt>
      <trkpt lat="46.42841" lon="5.59906">
        <ele>507</ele>
        <time>2022-07-29T09:23:27Z</time>
      </trkpt>
      <trkpt lat="46.42843" lon="5.59908">
        <ele>507</ele>
        <time>2022-07-29T09:23:28Z</time>
      </trkpt>
      <trkpt lat="46.42846" lon="5.5991">
        <ele>507.4</ele>
        <time>2022-07-29T09:23:29Z</time>
      </trkpt>
      <trkpt lat="46.42849" lon="5.59911">
        <ele>507.6</ele>
        <time>2022-07-29T09:23:30Z</time>
      </trkpt>
      <trkpt lat="46.42853" lon="5.59912">
        <ele>507.8</ele>
        <time>2022-07-29T09:23:31Z</time>
      </trkpt>
      <trkpt lat="46.42856" lon="5.59914">
        <ele>507.8</ele>
        <time>2022-07-29T09:23:32Z</time>
      </trkpt>
      <trkpt lat="46.42859" lon="5.59915">
        <ele>508</ele>
        <time>2022-07-29T09:23:33Z</time>
      </trkpt>
      <trkpt lat="46.42862" lon="5.59917">
        <ele>508</ele>
        <time>2022-07-29T09:23:34Z</time>
      </trkpt>
      <trkpt lat="46.42864" lon="5.59918">
        <ele>508.4</ele>
        <time>2022-07-29T09:23:35Z</time>
      </trkpt>
      <trkpt lat="46.42867" lon="5.5992">
        <ele>508.6</ele>
        <time>2022-07-29T09:23:36Z</time>
      </trkpt>
      <trkpt lat="46.4287" lon="5.59921">
        <ele>508.6</ele>
        <time>2022-07-29T09:23:37Z</time>
      </trkpt>
      <trkpt lat="46.42873" lon="5.59922">
        <ele>509</ele>
        <time>2022-07-29T09:23:38Z</time>
      </trkpt>
      <trkpt lat="46.42876" lon="5.59923">
        <ele>509</ele>
        <time>2022-07-29T09:23:39Z</time>
      </trkpt>
      <trkpt lat="46.42878" lon="5.59925">
        <ele>509.4</ele>
        <time>2022-07-29T09:23:40Z</time>
      </trkpt>
      <trkpt lat="46.42881" lon="5.59926">
        <ele>509.6</ele>
        <time>2022-07-29T09:23:41Z</time>
      </trkpt>
      <trkpt lat="46.42884" lon="5.59928">
        <ele>509.8</ele>
        <time>2022-07-29T09:23:42Z</time>
      </trkpt>
      <trkpt lat="46.42887" lon="5.59929">
        <ele>510</ele>
        <time>2022-07-29T09:23:43Z</time>
      </trkpt>
      <trkpt lat="46.42891" lon="5.59931">
        <ele>510</ele>
        <time>2022-07-29T09:23:44Z</time>
      </trkpt>
      <trkpt lat="46.42894" lon="5.59932">
        <ele>510.4</ele>
        <time>2022-07-29T09:23:45Z</time>
      </trkpt>
      <trkpt lat="46.42898" lon="5.59933">
        <ele>510.4</ele>
        <time>2022-07-29T09:23:46Z</time>
      </trkpt>
      <trkpt lat="46.42902" lon="5.59934">
        <ele>510.6</ele>
        <time>2022-07-29T09:23:47Z</time>
      </trkpt>
      <trkpt lat="46.42906" lon="5.59935">
        <ele>510.6</ele>
        <time>2022-07-29T09:23:48Z</time>
      </trkpt>
      <trkpt lat="46.4291" lon="5.59936">
        <ele>511</ele>
        <time>2022-07-29T09:23:49Z</time>
      </trkpt>
      <trkpt lat="46.42914" lon="5.59937">
        <ele>511.2</ele>
        <time>2022-07-29T09:23:50Z</time>
      </trkpt>
      <trkpt lat="46.42918" lon="5.59939">
        <ele>511.4</ele>
        <time>2022-07-29T09:23:51Z</time>
      </trkpt>
      <trkpt lat="46.42921" lon="5.5994">
        <ele>511.8</ele>
        <time>2022-07-29T09:23:52Z</time>
      </trkpt>
      <trkpt lat="46.42925" lon="5.59942">
        <ele>512.2</ele>
        <time>2022-07-29T09:23:53Z</time>
      </trkpt>
      <trkpt lat="46.42927" lon="5.59945">
        <ele>512.4</ele>
        <time>2022-07-29T09:23:54Z</time>
      </trkpt>
      <trkpt lat="46.4293" lon="5.59948">
        <ele>512.6</ele>
        <time>2022-07-29T09:23:55Z</time>
      </trkpt>
      <trkpt lat="46.42932" lon="5.59951">
        <ele>513</ele>
        <time>2022-07-29T09:23:56Z</time>
      </trkpt>
      <trkpt lat="46.42937" lon="5.59956">
        <ele>513.6</ele>
        <time>2022-07-29T09:23:57Z</time>
      </trkpt>
      <trkpt lat="46.42939" lon="5.59959">
        <ele>513.8</ele>
        <time>2022-07-29T09:23:58Z</time>
      </trkpt>
      <trkpt lat="46.42941" lon="5.59961">
        <ele>514.2</ele>
        <time>2022-07-29T09:23:59Z</time>
      </trkpt>
      <trkpt lat="46.42944" lon="5.59964">
        <ele>514.4</ele>
        <time>2022-07-29T09:24:00Z</time>
      </trkpt>
      <trkpt lat="46.42945" lon="5.59967">
        <ele>514.8</ele>
        <time>2022-07-29T09:24:01Z</time>
      </trkpt>
      <trkpt lat="46.42947" lon="5.59971">
        <ele>515.2</ele>
        <time>2022-07-29T09:24:03Z</time>
      </trkpt>
      <trkpt lat="46.42948" lon="5.59974">
        <ele>515.4</ele>
        <time>2022-07-29T09:24:04Z</time>
      </trkpt>
      <trkpt lat="46.42949" lon="5.59978">
        <ele>515.8</ele>
        <time>2022-07-29T09:24:05Z</time>
      </trkpt>
      <trkpt lat="46.42949" lon="5.59981">
        <ele>516</ele>
        <time>2022-07-29T09:24:06Z</time>
      </trkpt>
      <trkpt lat="46.42949" lon="5.59985">
        <ele>516.2</ele>
        <time>2022-07-29T09:24:07Z</time>
      </trkpt>
      <trkpt lat="46.42948" lon="5.59988">
        <ele>516.6</ele>
        <time>2022-07-29T09:24:08Z</time>
      </trkpt>
      <trkpt lat="46.42946" lon="5.59992">
        <ele>517</ele>
        <time>2022-07-29T09:24:09Z</time>
      </trkpt>
      <trkpt lat="46.42944" lon="5.59994">
        <ele>517.2</ele>
        <time>2022-07-29T09:24:10Z</time>
      </trkpt>
      <trkpt lat="46.42942" lon="5.59996">
        <ele>517.2</ele>
        <time>2022-07-29T09:24:11Z</time>
      </trkpt>
      <trkpt lat="46.4294" lon="5.59996">
        <ele>517.6</ele>
        <time>2022-07-29T09:24:12Z</time>
      </trkpt>
      <trkpt lat="46.42937" lon="5.59996">
        <ele>517.6</ele>
        <time>2022-07-29T09:24:13Z</time>
      </trkpt>
      <trkpt lat="46.42934" lon="5.59997">
        <ele>517.8</ele>
        <time>2022-07-29T09:24:14Z</time>
      </trkpt>
      <trkpt lat="46.4293" lon="5.59997">
        <ele>517.8</ele>
        <time>2022-07-29T09:24:15Z</time>
      </trkpt>
      <trkpt lat="46.42927" lon="5.59997">
        <ele>518.2</ele>
        <time>2022-07-29T09:24:16Z</time>
      </trkpt>
      <trkpt lat="46.42924" lon="5.59997">
        <ele>518.2</ele>
        <time>2022-07-29T09:24:17Z</time>
      </trkpt>
      <trkpt lat="46.4292" lon="5.59997">
        <ele>518.4</ele>
        <time>2022-07-29T09:24:18Z</time>
      </trkpt>
      <trkpt lat="46.42917" lon="5.59997">
        <ele>518.4</ele>
        <time>2022-07-29T09:24:19Z</time>
      </trkpt>
      <trkpt lat="46.42914" lon="5.59997">
        <ele>518.6</ele>
        <time>2022-07-29T09:24:20Z</time>
      </trkpt>
      <trkpt lat="46.42911" lon="5.59997">
        <ele>518.6</ele>
        <time>2022-07-29T09:24:21Z</time>
      </trkpt>
      <trkpt lat="46.42908" lon="5.59998">
        <ele>519</ele>
        <time>2022-07-29T09:24:22Z</time>
      </trkpt>
      <trkpt lat="46.42905" lon="5.59998">
        <ele>519</ele>
        <time>2022-07-29T09:24:23Z</time>
      </trkpt>
      <trkpt lat="46.42902" lon="5.59999">
        <ele>519.2</ele>
        <time>2022-07-29T09:24:24Z</time>
      </trkpt>
      <trkpt lat="46.42899" lon="5.6">
        <ele>519.2</ele>
        <time>2022-07-29T09:24:25Z</time>
      </trkpt>
      <trkpt lat="46.42896" lon="5.6">
        <ele>519.6</ele>
        <time>2022-07-29T09:24:26Z</time>
      </trkpt>
      <trkpt lat="46.42893" lon="5.60001">
        <ele>519.8</ele>
        <time>2022-07-29T09:24:27Z</time>
      </trkpt>
      <trkpt lat="46.42891" lon="5.60002">
        <ele>519.8</ele>
        <time>2022-07-29T09:24:28Z</time>
      </trkpt>
      <trkpt lat="46.42888" lon="5.60002">
        <ele>520.2</ele>
        <time>2022-07-29T09:24:29Z</time>
      </trkpt>
      <trkpt lat="46.42885" lon="5.60002">
        <ele>520.4</ele>
        <time>2022-07-29T09:24:30Z</time>
      </trkpt>
      <trkpt lat="46.42883" lon="5.60002">
        <ele>520.4</ele>
        <time>2022-07-29T09:24:31Z</time>
      </trkpt>
      <trkpt lat="46.4288" lon="5.60002">
        <ele>520.8</ele>
        <time>2022-07-29T09:24:32Z</time>
      </trkpt>
      <trkpt lat="46.42877" lon="5.60003">
        <ele>521</ele>
        <time>2022-07-29T09:24:33Z</time>
      </trkpt>
      <trkpt lat="46.42874" lon="5.60004">
        <ele>521</ele>
        <time>2022-07-29T09:24:34Z</time>
      </trkpt>
      <trkpt lat="46.42872" lon="5.60004">
        <ele>521.4</ele>
        <time>2022-07-29T09:24:35Z</time>
      </trkpt>
      <trkpt lat="46.42869" lon="5.60005">
        <ele>521.4</ele>
        <time>2022-07-29T09:24:36Z</time>
      </trkpt>
      <trkpt lat="46.42866" lon="5.60005">
        <ele>521.6</ele>
        <time>2022-07-29T09:24:37Z</time>
      </trkpt>
      <trkpt lat="46.42864" lon="5.60006">
        <ele>522</ele>
        <time>2022-07-29T09:24:38Z</time>
      </trkpt>
      <trkpt lat="46.42861" lon="5.60006">
        <ele>522</ele>
        <time>2022-07-29T09:24:39Z</time>
      </trkpt>
      <trkpt lat="46.42858" lon="5.60006">
        <ele>522.2</ele>
        <time>2022-07-29T09:24:40Z</time>
      </trkpt>
      <trkpt lat="46.42855" lon="5.60006">
        <ele>522.2</ele>
        <time>2022-07-29T09:24:41Z</time>
      </trkpt>
      <trkpt lat="46.42853" lon="5.60006">
        <ele>522.6</ele>
        <time>2022-07-29T09:24:42Z</time>
      </trkpt>
      <trkpt lat="46.4285" lon="5.60006">
        <ele>522.8</ele>
        <time>2022-07-29T09:24:43Z</time>
      </trkpt>
      <trkpt lat="46.42847" lon="5.60007">
        <ele>523</ele>
        <time>2022-07-29T09:24:44Z</time>
      </trkpt>
      <trkpt lat="46.42845" lon="5.60007">
        <ele>523.4</ele>
        <time>2022-07-29T09:24:45Z</time>
      </trkpt>
      <trkpt lat="46.42842" lon="5.60008">
        <ele>523.4</ele>
        <time>2022-07-29T09:24:46Z</time>
      </trkpt>
      <trkpt lat="46.42839" lon="5.60009">
        <ele>523.6</ele>
        <time>2022-07-29T09:24:47Z</time>
      </trkpt>
      <trkpt lat="46.42836" lon="5.60009">
        <ele>523.8</ele>
        <time>2022-07-29T09:24:48Z</time>
      </trkpt>
      <trkpt lat="46.42833" lon="5.60009">
        <ele>523.8</ele>
        <time>2022-07-29T09:24:49Z</time>
      </trkpt>
      <trkpt lat="46.4283" lon="5.60009">
        <ele>524.2</ele>
        <time>2022-07-29T09:24:50Z</time>
      </trkpt>
      <trkpt lat="46.42827" lon="5.6001">
        <ele>524.2</ele>
        <time>2022-07-29T09:24:51Z</time>
      </trkpt>
      <trkpt lat="46.42825" lon="5.6001">
        <ele>524.6</ele>
        <time>2022-07-29T09:24:52Z</time>
      </trkpt>
      <trkpt lat="46.42822" lon="5.60011">
        <ele>524.6</ele>
        <time>2022-07-29T09:24:53Z</time>
      </trkpt>
      <trkpt lat="46.42819" lon="5.60012">
        <ele>525</ele>
        <time>2022-07-29T09:24:54Z</time>
      </trkpt>
      <trkpt lat="46.42817" lon="5.60013">
        <ele>525.2</ele>
        <time>2022-07-29T09:24:55Z</time>
      </trkpt>
      <trkpt lat="46.42814" lon="5.60015">
        <ele>525.2</ele>
        <time>2022-07-29T09:24:56Z</time>
      </trkpt>
      <trkpt lat="46.42811" lon="5.60016">
        <ele>525.6</ele>
        <time>2022-07-29T09:24:57Z</time>
      </trkpt>
      <trkpt lat="46.42809" lon="5.60018">
        <ele>525.6</ele>
        <time>2022-07-29T09:24:58Z</time>
      </trkpt>
      <trkpt lat="46.42806" lon="5.6002">
        <ele>526</ele>
        <time>2022-07-29T09:24:59Z</time>
      </trkpt>
      <trkpt lat="46.42803" lon="5.60021">
        <ele>526.2</ele>
        <time>2022-07-29T09:25:00Z</time>
      </trkpt>
      <trkpt lat="46.428" lon="5.60022">
        <ele>526.2</ele>
        <time>2022-07-29T09:25:01Z</time>
      </trkpt>
      <trkpt lat="46.42797" lon="5.60024">
        <ele>526.4</ele>
        <time>2022-07-29T09:25:02Z</time>
      </trkpt>
      <trkpt lat="46.42794" lon="5.60026">
        <ele>526.4</ele>
        <time>2022-07-29T09:25:03Z</time>
      </trkpt>
      <trkpt lat="46.42791" lon="5.60028">
        <ele>526.8</ele>
        <time>2022-07-29T09:25:04Z</time>
      </trkpt>
      <trkpt lat="46.42789" lon="5.6003">
        <ele>527</ele>
        <time>2022-07-29T09:25:05Z</time>
      </trkpt>
      <trkpt lat="46.42786" lon="5.60032">
        <ele>527.2</ele>
        <time>2022-07-29T09:25:06Z</time>
      </trkpt>
      <trkpt lat="46.42784" lon="5.60035">
        <ele>527.4</ele>
        <time>2022-07-29T09:25:07Z</time>
      </trkpt>
      <trkpt lat="46.42781" lon="5.60037">
        <ele>527.6</ele>
        <time>2022-07-29T09:25:08Z</time>
      </trkpt>
      <trkpt lat="46.42779" lon="5.60039">
        <ele>528</ele>
        <time>2022-07-29T09:25:09Z</time>
      </trkpt>
      <trkpt lat="46.42777" lon="5.60042">
        <ele>528</ele>
        <time>2022-07-29T09:25:10Z</time>
      </trkpt>
      <trkpt lat="46.42776" lon="5.60044">
        <ele>528.2</ele>
        <time>2022-07-29T09:25:11Z</time>
      </trkpt>
      <trkpt lat="46.42774" lon="5.60047">
        <ele>528.2</ele>
        <time>2022-07-29T09:25:12Z</time>
      </trkpt>
      <trkpt lat="46.42772" lon="5.6005">
        <ele>528.6</ele>
        <time>2022-07-29T09:25:13Z</time>
      </trkpt>
      <trkpt lat="46.4277" lon="5.60053">
        <ele>528.8</ele>
        <time>2022-07-29T09:25:14Z</time>
      </trkpt>
      <trkpt lat="46.42768" lon="5.60056">
        <ele>528.8</ele>
        <time>2022-07-29T09:25:15Z</time>
      </trkpt>
      <trkpt lat="46.42766" lon="5.6006">
        <ele>529.2</ele>
        <time>2022-07-29T09:25:16Z</time>
      </trkpt>
      <trkpt lat="46.42765" lon="5.60064">
        <ele>529.6</ele>
        <time>2022-07-29T09:25:17Z</time>
      </trkpt>
      <trkpt lat="46.42763" lon="5.60067">
        <ele>529.8</ele>
        <time>2022-07-29T09:25:18Z</time>
      </trkpt>
      <trkpt lat="46.42762" lon="5.6007">
        <ele>530.2</ele>
        <time>2022-07-29T09:25:19Z</time>
      </trkpt>
      <trkpt lat="46.42761" lon="5.60073">
        <ele>530.4</ele>
        <time>2022-07-29T09:25:20Z</time>
      </trkpt>
      <trkpt lat="46.42761" lon="5.60077">
        <ele>530.4</ele>
        <time>2022-07-29T09:25:21Z</time>
      </trkpt>
      <trkpt lat="46.4276" lon="5.60081">
        <ele>530.8</ele>
        <time>2022-07-29T09:25:22Z</time>
      </trkpt>
      <trkpt lat="46.42759" lon="5.60084">
        <ele>531</ele>
        <time>2022-07-29T09:25:23Z</time>
      </trkpt>
      <trkpt lat="46.42758" lon="5.60088">
        <ele>531</ele>
        <time>2022-07-29T09:25:24Z</time>
      </trkpt>
      <trkpt lat="46.42757" lon="5.60092">
        <ele>531.4</ele>
        <time>2022-07-29T09:25:25Z</time>
      </trkpt>
      <trkpt lat="46.42756" lon="5.60095">
        <ele>531.4</ele>
        <time>2022-07-29T09:25:26Z</time>
      </trkpt>
      <trkpt lat="46.42755" lon="5.60099">
        <ele>531.6</ele>
        <time>2022-07-29T09:25:27Z</time>
      </trkpt>
      <trkpt lat="46.42754" lon="5.60103">
        <ele>531.8</ele>
        <time>2022-07-29T09:25:28Z</time>
      </trkpt>
      <trkpt lat="46.42753" lon="5.60107">
        <ele>531.8</ele>
        <time>2022-07-29T09:25:29Z</time>
      </trkpt>
      <trkpt lat="46.42752" lon="5.60111">
        <ele>532.2</ele>
        <time>2022-07-29T09:25:30Z</time>
      </trkpt>
      <trkpt lat="46.42751" lon="5.60114">
        <ele>532.4</ele>
        <time>2022-07-29T09:25:31Z</time>
      </trkpt>
      <trkpt lat="46.42749" lon="5.60118">
        <ele>532.4</ele>
        <time>2022-07-29T09:25:32Z</time>
      </trkpt>
      <trkpt lat="46.42748" lon="5.60122">
        <ele>532.8</ele>
        <time>2022-07-29T09:25:33Z</time>
      </trkpt>
      <trkpt lat="46.42746" lon="5.60125">
        <ele>532.8</ele>
        <time>2022-07-29T09:25:34Z</time>
      </trkpt>
      <trkpt lat="46.42745" lon="5.60129">
        <ele>533.2</ele>
        <time>2022-07-29T09:25:35Z</time>
      </trkpt>
      <trkpt lat="46.42743" lon="5.60132">
        <ele>533.2</ele>
        <time>2022-07-29T09:25:36Z</time>
      </trkpt>
      <trkpt lat="46.42741" lon="5.60136">
        <ele>533.4</ele>
        <time>2022-07-29T09:25:37Z</time>
      </trkpt>
      <trkpt lat="46.42739" lon="5.60139">
        <ele>533.6</ele>
        <time>2022-07-29T09:25:38Z</time>
      </trkpt>
      <trkpt lat="46.42737" lon="5.60142">
        <ele>533.8</ele>
        <time>2022-07-29T09:25:39Z</time>
      </trkpt>
      <trkpt lat="46.42735" lon="5.60145">
        <ele>533.8</ele>
        <time>2022-07-29T09:25:40Z</time>
      </trkpt>
      <trkpt lat="46.42732" lon="5.60148">
        <ele>534.2</ele>
        <time>2022-07-29T09:25:41Z</time>
      </trkpt>
      <trkpt lat="46.4273" lon="5.6015">
        <ele>534.2</ele>
        <time>2022-07-29T09:25:42Z</time>
      </trkpt>
      <trkpt lat="46.42727" lon="5.60152">
        <ele>534.2</ele>
        <time>2022-07-29T09:25:43Z</time>
      </trkpt>
      <trkpt lat="46.42724" lon="5.60154">
        <ele>534.2</ele>
        <time>2022-07-29T09:25:44Z</time>
      </trkpt>
      <trkpt lat="46.42721" lon="5.60156">
        <ele>534.4</ele>
        <time>2022-07-29T09:25:45Z</time>
      </trkpt>
      <trkpt lat="46.42718" lon="5.60158">
        <ele>534.4</ele>
        <time>2022-07-29T09:25:46Z</time>
      </trkpt>
      <trkpt lat="46.42715" lon="5.6016">
        <ele>534.6</ele>
        <time>2022-07-29T09:25:47Z</time>
      </trkpt>
      <trkpt lat="46.42711" lon="5.60162">
        <ele>534.6</ele>
        <time>2022-07-29T09:25:48Z</time>
      </trkpt>
      <trkpt lat="46.42708" lon="5.60164">
        <ele>535</ele>
        <time>2022-07-29T09:25:49Z</time>
      </trkpt>
      <trkpt lat="46.42705" lon="5.60166">
        <ele>535</ele>
        <time>2022-07-29T09:25:50Z</time>
      </trkpt>
      <trkpt lat="46.42702" lon="5.60168">
        <ele>535.2</ele>
        <time>2022-07-29T09:25:51Z</time>
      </trkpt>
      <trkpt lat="46.42699" lon="5.6017">
        <ele>535.2</ele>
        <time>2022-07-29T09:25:52Z</time>
      </trkpt>
      <trkpt lat="46.42696" lon="5.60172">
        <ele>535.4</ele>
        <time>2022-07-29T09:25:53Z</time>
      </trkpt>
      <trkpt lat="46.42693" lon="5.60173">
        <ele>535.4</ele>
        <time>2022-07-29T09:25:54Z</time>
      </trkpt>
      <trkpt lat="46.4269" lon="5.60175">
        <ele>535.6</ele>
        <time>2022-07-29T09:25:55Z</time>
      </trkpt>
      <trkpt lat="46.42687" lon="5.60176">
        <ele>535.6</ele>
        <time>2022-07-29T09:25:56Z</time>
      </trkpt>
      <trkpt lat="46.42684" lon="5.60178">
        <ele>536</ele>
        <time>2022-07-29T09:25:57Z</time>
      </trkpt>
      <trkpt lat="46.42682" lon="5.60179">
        <ele>536</ele>
        <time>2022-07-29T09:25:58Z</time>
      </trkpt>
      <trkpt lat="46.42679" lon="5.60181">
        <ele>536.4</ele>
        <time>2022-07-29T09:25:59Z</time>
      </trkpt>
      <trkpt lat="46.42677" lon="5.60182">
        <ele>536.4</ele>
        <time>2022-07-29T09:26:00Z</time>
      </trkpt>
      <trkpt lat="46.42675" lon="5.60183">
        <ele>536.6</ele>
        <time>2022-07-29T09:26:01Z</time>
      </trkpt>
      <trkpt lat="46.42672" lon="5.60184">
        <ele>536.6</ele>
        <time>2022-07-29T09:26:02Z</time>
      </trkpt>
      <trkpt lat="46.42669" lon="5.60185">
        <ele>537</ele>
        <time>2022-07-29T09:26:03Z</time>
      </trkpt>
      <trkpt lat="46.42666" lon="5.60187">
        <ele>537</ele>
        <time>2022-07-29T09:26:04Z</time>
      </trkpt>
      <trkpt lat="46.42664" lon="5.60188">
        <ele>537.4</ele>
        <time>2022-07-29T09:26:05Z</time>
      </trkpt>
      <trkpt lat="46.42661" lon="5.60189">
        <ele>537.6</ele>
        <time>2022-07-29T09:26:06Z</time>
      </trkpt>
      <trkpt lat="46.42658" lon="5.6019">
        <ele>537.6</ele>
        <time>2022-07-29T09:26:07Z</time>
      </trkpt>
      <trkpt lat="46.42656" lon="5.60191">
        <ele>538</ele>
        <time>2022-07-29T09:26:08Z</time>
      </trkpt>
      <trkpt lat="46.42654" lon="5.60192">
        <ele>538</ele>
        <time>2022-07-29T09:26:09Z</time>
      </trkpt>
      <trkpt lat="46.42651" lon="5.60193">
        <ele>538.2</ele>
        <time>2022-07-29T09:26:10Z</time>
      </trkpt>
      <trkpt lat="46.42647" lon="5.60193">
        <ele>538.2</ele>
        <time>2022-07-29T09:26:11Z</time>
      </trkpt>
      <trkpt lat="46.42644" lon="5.60193">
        <ele>538.4</ele>
        <time>2022-07-29T09:26:12Z</time>
      </trkpt>
      <trkpt lat="46.42641" lon="5.60192">
        <ele>538.6</ele>
        <time>2022-07-29T09:26:13Z</time>
      </trkpt>
      <trkpt lat="46.42637" lon="5.60192">
        <ele>538.8</ele>
        <time>2022-07-29T09:26:14Z</time>
      </trkpt>
      <trkpt lat="46.42633" lon="5.60192">
        <ele>538.8</ele>
        <time>2022-07-29T09:26:15Z</time>
      </trkpt>
      <trkpt lat="46.42629" lon="5.60192">
        <ele>539</ele>
        <time>2022-07-29T09:26:16Z</time>
      </trkpt>
      <trkpt lat="46.42626" lon="5.60191">
        <ele>539</ele>
        <time>2022-07-29T09:26:17Z</time>
      </trkpt>
      <trkpt lat="46.42623" lon="5.6019">
        <ele>539.4</ele>
        <time>2022-07-29T09:26:18Z</time>
      </trkpt>
      <trkpt lat="46.4262" lon="5.60188">
        <ele>539.4</ele>
        <time>2022-07-29T09:26:19Z</time>
      </trkpt>
      <trkpt lat="46.42617" lon="5.60186">
        <ele>539.8</ele>
        <time>2022-07-29T09:26:20Z</time>
      </trkpt>
      <trkpt lat="46.42615" lon="5.60184">
        <ele>539.8</ele>
        <time>2022-07-29T09:26:21Z</time>
      </trkpt>
      <trkpt lat="46.42613" lon="5.60182">
        <ele>540</ele>
        <time>2022-07-29T09:26:22Z</time>
      </trkpt>
      <trkpt lat="46.4261" lon="5.6018">
        <ele>540</ele>
        <time>2022-07-29T09:26:23Z</time>
      </trkpt>
      <trkpt lat="46.42607" lon="5.60178">
        <ele>540.6</ele>
        <time>2022-07-29T09:26:24Z</time>
      </trkpt>
      <trkpt lat="46.42605" lon="5.60176">
        <ele>540.8</ele>
        <time>2022-07-29T09:26:25Z</time>
      </trkpt>
      <trkpt lat="46.42602" lon="5.60174">
        <ele>540.8</ele>
        <time>2022-07-29T09:26:26Z</time>
      </trkpt>
      <trkpt lat="46.42598" lon="5.60173">
        <ele>541.2</ele>
        <time>2022-07-29T09:26:27Z</time>
      </trkpt>
      <trkpt lat="46.42595" lon="5.60173">
        <ele>541.6</ele>
        <time>2022-07-29T09:26:28Z</time>
      </trkpt>
      <trkpt lat="46.42591" lon="5.60173">
        <ele>541.6</ele>
        <time>2022-07-29T09:26:29Z</time>
      </trkpt>
      <trkpt lat="46.42588" lon="5.60174">
        <ele>541.8</ele>
        <time>2022-07-29T09:26:30Z</time>
      </trkpt>
      <trkpt lat="46.42585" lon="5.60176">
        <ele>542</ele>
        <time>2022-07-29T09:26:31Z</time>
      </trkpt>
      <trkpt lat="46.42583" lon="5.60179">
        <ele>542.2</ele>
        <time>2022-07-29T09:26:32Z</time>
      </trkpt>
      <trkpt lat="46.42583" lon="5.60183">
        <ele>542.6</ele>
        <time>2022-07-29T09:26:33Z</time>
      </trkpt>
      <trkpt lat="46.42584" lon="5.60188">
        <ele>542.8</ele>
        <time>2022-07-29T09:26:34Z</time>
      </trkpt>
      <trkpt lat="46.42586" lon="5.60191">
        <ele>542.8</ele>
        <time>2022-07-29T09:26:35Z</time>
      </trkpt>
      <trkpt lat="46.42588" lon="5.60194">
        <ele>543.2</ele>
        <time>2022-07-29T09:26:36Z</time>
      </trkpt>
      <trkpt lat="46.42591" lon="5.60197">
        <ele>543.2</ele>
        <time>2022-07-29T09:26:37Z</time>
      </trkpt>
      <trkpt lat="46.42593" lon="5.602">
        <ele>543.4</ele>
        <time>2022-07-29T09:26:38Z</time>
      </trkpt>
      <trkpt lat="46.42596" lon="5.60203">
        <ele>543.6</ele>
        <time>2022-07-29T09:26:39Z</time>
      </trkpt>
      <trkpt lat="46.42599" lon="5.60206">
        <ele>543.6</ele>
        <time>2022-07-29T09:26:40Z</time>
      </trkpt>
      <trkpt lat="46.42601" lon="5.60209">
        <ele>544</ele>
        <time>2022-07-29T09:26:41Z</time>
      </trkpt>
      <trkpt lat="46.42604" lon="5.60212">
        <ele>544</ele>
        <time>2022-07-29T09:26:42Z</time>
      </trkpt>
      <trkpt lat="46.42606" lon="5.60216">
        <ele>544.4</ele>
        <time>2022-07-29T09:26:43Z</time>
      </trkpt>
      <trkpt lat="46.42608" lon="5.60219">
        <ele>544.4</ele>
        <time>2022-07-29T09:26:44Z</time>
      </trkpt>
      <trkpt lat="46.4261" lon="5.60222">
        <ele>544.8</ele>
        <time>2022-07-29T09:26:45Z</time>
      </trkpt>
      <trkpt lat="46.42612" lon="5.60225">
        <ele>545</ele>
        <time>2022-07-29T09:26:46Z</time>
      </trkpt>
      <trkpt lat="46.42613" lon="5.60228">
        <ele>545</ele>
        <time>2022-07-29T09:26:47Z</time>
      </trkpt>
      <trkpt lat="46.42615" lon="5.6023">
        <ele>545.4</ele>
        <time>2022-07-29T09:26:48Z</time>
      </trkpt>
      <trkpt lat="46.42617" lon="5.60233">
        <ele>545.6</ele>
        <time>2022-07-29T09:26:49Z</time>
      </trkpt>
      <trkpt lat="46.42619" lon="5.60234">
        <ele>545.8</ele>
        <time>2022-07-29T09:26:50Z</time>
      </trkpt>
      <trkpt lat="46.42621" lon="5.60236">
        <ele>546.2</ele>
        <time>2022-07-29T09:26:51Z</time>
      </trkpt>
      <trkpt lat="46.42623" lon="5.60238">
        <ele>546.4</ele>
        <time>2022-07-29T09:26:52Z</time>
      </trkpt>
      <trkpt lat="46.42625" lon="5.60238">
        <ele>546.6</ele>
        <time>2022-07-29T09:26:53Z</time>
      </trkpt>
      <trkpt lat="46.42628" lon="5.60239">
        <ele>546.8</ele>
        <time>2022-07-29T09:26:54Z</time>
      </trkpt>
      <trkpt lat="46.4263" lon="5.60239">
        <ele>547</ele>
        <time>2022-07-29T09:26:55Z</time>
      </trkpt>
      <trkpt lat="46.42633" lon="5.60239">
        <ele>547.4</ele>
        <time>2022-07-29T09:26:56Z</time>
      </trkpt>
      <trkpt lat="46.42636" lon="5.60239">
        <ele>547.6</ele>
        <time>2022-07-29T09:26:57Z</time>
      </trkpt>
      <trkpt lat="46.42639" lon="5.6024">
        <ele>547.6</ele>
        <time>2022-07-29T09:26:58Z</time>
      </trkpt>
      <trkpt lat="46.42642" lon="5.6024">
        <ele>548</ele>
        <time>2022-07-29T09:26:59Z</time>
      </trkpt>
      <trkpt lat="46.42645" lon="5.60239">
        <ele>548.2</ele>
        <time>2022-07-29T09:27:00Z</time>
      </trkpt>
      <trkpt lat="46.42647" lon="5.60238">
        <ele>548.4</ele>
        <time>2022-07-29T09:27:01Z</time>
      </trkpt>
      <trkpt lat="46.4265" lon="5.60238">
        <ele>548.8</ele>
        <time>2022-07-29T09:27:02Z</time>
      </trkpt>
      <trkpt lat="46.42653" lon="5.60237">
        <ele>549</ele>
        <time>2022-07-29T09:27:03Z</time>
      </trkpt>
      <trkpt lat="46.42656" lon="5.60237">
        <ele>549</ele>
        <time>2022-07-29T09:27:04Z</time>
      </trkpt>
      <trkpt lat="46.42659" lon="5.60236">
        <ele>549.2</ele>
        <time>2022-07-29T09:27:05Z</time>
      </trkpt>
      <trkpt lat="46.42662" lon="5.60235">
        <ele>549.2</ele>
        <time>2022-07-29T09:27:06Z</time>
      </trkpt>
      <trkpt lat="46.42665" lon="5.60235">
        <ele>549.6</ele>
        <time>2022-07-29T09:27:07Z</time>
      </trkpt>
      <trkpt lat="46.42669" lon="5.60234">
        <ele>549.6</ele>
        <time>2022-07-29T09:27:08Z</time>
      </trkpt>
      <trkpt lat="46.42671" lon="5.60234">
        <ele>550</ele>
        <time>2022-07-29T09:27:09Z</time>
      </trkpt>
      <trkpt lat="46.42675" lon="5.60233">
        <ele>550.2</ele>
        <time>2022-07-29T09:27:10Z</time>
      </trkpt>
      <trkpt lat="46.42678" lon="5.60233">
        <ele>550.2</ele>
        <time>2022-07-29T09:27:11Z</time>
      </trkpt>
      <trkpt lat="46.4268" lon="5.60232">
        <ele>550.4</ele>
        <time>2022-07-29T09:27:12Z</time>
      </trkpt>
      <trkpt lat="46.42683" lon="5.60231">
        <ele>550.6</ele>
        <time>2022-07-29T09:27:13Z</time>
      </trkpt>
      <trkpt lat="46.42686" lon="5.60231">
        <ele>550.6</ele>
        <time>2022-07-29T09:27:14Z</time>
      </trkpt>
      <trkpt lat="46.42689" lon="5.60232">
        <ele>551</ele>
        <time>2022-07-29T09:27:15Z</time>
      </trkpt>
      <trkpt lat="46.42695" lon="5.60231">
        <ele>551</ele>
        <time>2022-07-29T09:27:16Z</time>
      </trkpt>
      <trkpt lat="46.42698" lon="5.60231">
        <ele>551.4</ele>
        <time>2022-07-29T09:27:17Z</time>
      </trkpt>
      <trkpt lat="46.42701" lon="5.60231">
        <ele>551.4</ele>
        <time>2022-07-29T09:27:18Z</time>
      </trkpt>
      <trkpt lat="46.42704" lon="5.6023">
        <ele>551.8</ele>
        <time>2022-07-29T09:27:19Z</time>
      </trkpt>
      <trkpt lat="46.42707" lon="5.60229">
        <ele>552</ele>
        <time>2022-07-29T09:27:20Z</time>
      </trkpt>
      <trkpt lat="46.4271" lon="5.60228">
        <ele>552.2</ele>
        <time>2022-07-29T09:27:21Z</time>
      </trkpt>
      <trkpt lat="46.42713" lon="5.60227">
        <ele>552.2</ele>
        <time>2022-07-29T09:27:22Z</time>
      </trkpt>
      <trkpt lat="46.42716" lon="5.60227">
        <ele>552.6</ele>
        <time>2022-07-29T09:27:23Z</time>
      </trkpt>
      <trkpt lat="46.42719" lon="5.60228">
        <ele>552.8</ele>
        <time>2022-07-29T09:27:24Z</time>
      </trkpt>
      <trkpt lat="46.42722" lon="5.60228">
        <ele>553</ele>
        <time>2022-07-29T09:27:25Z</time>
      </trkpt>
      <trkpt lat="46.42725" lon="5.60228">
        <ele>553</ele>
        <time>2022-07-29T09:27:26Z</time>
      </trkpt>
      <trkpt lat="46.42728" lon="5.60229">
        <ele>553.4</ele>
        <time>2022-07-29T09:27:27Z</time>
      </trkpt>
      <trkpt lat="46.4273" lon="5.60229">
        <ele>553.6</ele>
        <time>2022-07-29T09:27:28Z</time>
      </trkpt>
      <trkpt lat="46.42733" lon="5.6023">
        <ele>553.6</ele>
        <time>2022-07-29T09:27:29Z</time>
      </trkpt>
      <trkpt lat="46.42736" lon="5.6023">
        <ele>554</ele>
        <time>2022-07-29T09:27:30Z</time>
      </trkpt>
      <trkpt lat="46.42739" lon="5.60231">
        <ele>554.2</ele>
        <time>2022-07-29T09:27:31Z</time>
      </trkpt>
      <trkpt lat="46.42742" lon="5.60231">
        <ele>554.4</ele>
        <time>2022-07-29T09:27:32Z</time>
      </trkpt>
      <trkpt lat="46.42745" lon="5.60232">
        <ele>554.6</ele>
        <time>2022-07-29T09:27:33Z</time>
      </trkpt>
      <trkpt lat="46.42748" lon="5.60232">
        <ele>554.6</ele>
        <time>2022-07-29T09:27:34Z</time>
      </trkpt>
      <trkpt lat="46.42751" lon="5.60232">
        <ele>555</ele>
        <time>2022-07-29T09:27:35Z</time>
      </trkpt>
      <trkpt lat="46.42754" lon="5.60232">
        <ele>555.2</ele>
        <time>2022-07-29T09:27:36Z</time>
      </trkpt>
      <trkpt lat="46.42758" lon="5.60232">
        <ele>555.4</ele>
        <time>2022-07-29T09:27:37Z</time>
      </trkpt>
      <trkpt lat="46.42761" lon="5.60233">
        <ele>555.4</ele>
        <time>2022-07-29T09:27:38Z</time>
      </trkpt>
      <trkpt lat="46.42764" lon="5.60233">
        <ele>555.8</ele>
        <time>2022-07-29T09:27:39Z</time>
      </trkpt>
      <trkpt lat="46.42767" lon="5.60233">
        <ele>555.8</ele>
        <time>2022-07-29T09:27:40Z</time>
      </trkpt>
      <trkpt lat="46.4277" lon="5.60232">
        <ele>556.2</ele>
        <time>2022-07-29T09:27:41Z</time>
      </trkpt>
      <trkpt lat="46.42774" lon="5.60231">
        <ele>556.4</ele>
        <time>2022-07-29T09:27:42Z</time>
      </trkpt>
      <trkpt lat="46.42777" lon="5.60231">
        <ele>556.8</ele>
        <time>2022-07-29T09:27:43Z</time>
      </trkpt>
      <trkpt lat="46.4278" lon="5.6023">
        <ele>556.8</ele>
        <time>2022-07-29T09:27:44Z</time>
      </trkpt>
      <trkpt lat="46.42784" lon="5.60228">
        <ele>557.2</ele>
        <time>2022-07-29T09:27:45Z</time>
      </trkpt>
      <trkpt lat="46.42787" lon="5.60226">
        <ele>557.2</ele>
        <time>2022-07-29T09:27:46Z</time>
      </trkpt>
      <trkpt lat="46.42791" lon="5.60224">
        <ele>557.4</ele>
        <time>2022-07-29T09:27:47Z</time>
      </trkpt>
      <trkpt lat="46.42794" lon="5.60221">
        <ele>557.4</ele>
        <time>2022-07-29T09:27:48Z</time>
      </trkpt>
      <trkpt lat="46.42797" lon="5.60219">
        <ele>557.8</ele>
        <time>2022-07-29T09:27:49Z</time>
      </trkpt>
      <trkpt lat="46.428" lon="5.60217">
        <ele>558.2</ele>
        <time>2022-07-29T09:27:50Z</time>
      </trkpt>
      <trkpt lat="46.42803" lon="5.60215">
        <ele>558.4</ele>
        <time>2022-07-29T09:27:51Z</time>
      </trkpt>
      <trkpt lat="46.42805" lon="5.60212">
        <ele>558.6</ele>
        <time>2022-07-29T09:27:52Z</time>
      </trkpt>
      <trkpt lat="46.42808" lon="5.6021">
        <ele>558.8</ele>
        <time>2022-07-29T09:27:53Z</time>
      </trkpt>
      <trkpt lat="46.4281" lon="5.60208">
        <ele>559</ele>
        <time>2022-07-29T09:27:54Z</time>
      </trkpt>
      <trkpt lat="46.42813" lon="5.60206">
        <ele>559.2</ele>
        <time>2022-07-29T09:27:55Z</time>
      </trkpt>
      <trkpt lat="46.42815" lon="5.60203">
        <ele>559.2</ele>
        <time>2022-07-29T09:27:56Z</time>
      </trkpt>
      <trkpt lat="46.42818" lon="5.60202">
        <ele>559.6</ele>
        <time>2022-07-29T09:27:57Z</time>
      </trkpt>
      <trkpt lat="46.4282" lon="5.602">
        <ele>559.8</ele>
        <time>2022-07-29T09:27:58Z</time>
      </trkpt>
      <trkpt lat="46.42823" lon="5.60198">
        <ele>559.8</ele>
        <time>2022-07-29T09:27:59Z</time>
      </trkpt>
      <trkpt lat="46.42826" lon="5.60196">
        <ele>560.2</ele>
        <time>2022-07-29T09:28:00Z</time>
      </trkpt>
      <trkpt lat="46.42829" lon="5.60195">
        <ele>560.2</ele>
        <time>2022-07-29T09:28:01Z</time>
      </trkpt>
      <trkpt lat="46.42831" lon="5.60193">
        <ele>560.4</ele>
        <time>2022-07-29T09:28:02Z</time>
      </trkpt>
      <trkpt lat="46.42834" lon="5.60191">
        <ele>560.4</ele>
        <time>2022-07-29T09:28:03Z</time>
      </trkpt>
      <trkpt lat="46.42837" lon="5.60189">
        <ele>560.8</ele>
        <time>2022-07-29T09:28:04Z</time>
      </trkpt>
      <trkpt lat="46.4284" lon="5.60188">
        <ele>561</ele>
        <time>2022-07-29T09:28:05Z</time>
      </trkpt>
      <trkpt lat="46.42842" lon="5.60188">
        <ele>561</ele>
        <time>2022-07-29T09:28:06Z</time>
      </trkpt>
      <trkpt lat="46.42845" lon="5.60187">
        <ele>561.4</ele>
        <time>2022-07-29T09:28:07Z</time>
      </trkpt>
      <trkpt lat="46.42848" lon="5.60188">
        <ele>561.4</ele>
        <time>2022-07-29T09:28:08Z</time>
      </trkpt>
      <trkpt lat="46.42851" lon="5.60188">
        <ele>561.8</ele>
        <time>2022-07-29T09:28:09Z</time>
      </trkpt>
      <trkpt lat="46.42854" lon="5.60188">
        <ele>561.8</ele>
        <time>2022-07-29T09:28:10Z</time>
      </trkpt>
      <trkpt lat="46.42857" lon="5.60188">
        <ele>562</ele>
        <time>2022-07-29T09:28:11Z</time>
      </trkpt>
      <trkpt lat="46.4286" lon="5.60188">
        <ele>562</ele>
        <time>2022-07-29T09:28:12Z</time>
      </trkpt>
      <trkpt lat="46.42863" lon="5.60189">
        <ele>562.4</ele>
        <time>2022-07-29T09:28:13Z</time>
      </trkpt>
      <trkpt lat="46.42866" lon="5.60189">
        <ele>562.4</ele>
        <time>2022-07-29T09:28:14Z</time>
      </trkpt>
      <trkpt lat="46.42869" lon="5.6019">
        <ele>562.6</ele>
        <time>2022-07-29T09:28:15Z</time>
      </trkpt>
      <trkpt lat="46.42872" lon="5.6019">
        <ele>563</ele>
        <time>2022-07-29T09:28:16Z</time>
      </trkpt>
      <trkpt lat="46.42875" lon="5.60191">
        <ele>563.2</ele>
        <time>2022-07-29T09:28:17Z</time>
      </trkpt>
      <trkpt lat="46.42878" lon="5.60192">
        <ele>563.4</ele>
        <time>2022-07-29T09:28:18Z</time>
      </trkpt>
      <trkpt lat="46.42882" lon="5.60193">
        <ele>563.8</ele>
        <time>2022-07-29T09:28:19Z</time>
      </trkpt>
      <trkpt lat="46.42885" lon="5.60194">
        <ele>564</ele>
        <time>2022-07-29T09:28:20Z</time>
      </trkpt>
      <trkpt lat="46.42888" lon="5.60196">
        <ele>564.2</ele>
        <time>2022-07-29T09:28:21Z</time>
      </trkpt>
      <trkpt lat="46.42891" lon="5.60197">
        <ele>564.6</ele>
        <time>2022-07-29T09:28:22Z</time>
      </trkpt>
      <trkpt lat="46.42894" lon="5.60198">
        <ele>564.8</ele>
        <time>2022-07-29T09:28:23Z</time>
      </trkpt>
      <trkpt lat="46.42897" lon="5.60199">
        <ele>565</ele>
        <time>2022-07-29T09:28:24Z</time>
      </trkpt>
      <trkpt lat="46.42897" lon="5.60199">
        <ele>565.2</ele>
        <time>2022-07-29T09:28:25Z</time>
      </trkpt>
      <trkpt lat="46.42899" lon="5.602">
        <ele>565.2</ele>
        <time>2022-07-29T09:28:26Z</time>
      </trkpt>
      <trkpt lat="46.42902" lon="5.60201">
        <ele>565.6</ele>
        <time>2022-07-29T09:28:27Z</time>
      </trkpt>
      <trkpt lat="46.42905" lon="5.60202">
        <ele>565.6</ele>
        <time>2022-07-29T09:28:28Z</time>
      </trkpt>
      <trkpt lat="46.42908" lon="5.60203">
        <ele>566</ele>
        <time>2022-07-29T09:28:29Z</time>
      </trkpt>
      <trkpt lat="46.4291" lon="5.60204">
        <ele>566</ele>
        <time>2022-07-29T09:28:30Z</time>
      </trkpt>
      <trkpt lat="46.42913" lon="5.60206">
        <ele>566.2</ele>
        <time>2022-07-29T09:28:31Z</time>
      </trkpt>
      <trkpt lat="46.42915" lon="5.60207">
        <ele>566.2</ele>
        <time>2022-07-29T09:28:32Z</time>
      </trkpt>
      <trkpt lat="46.42918" lon="5.60208">
        <ele>566.6</ele>
        <time>2022-07-29T09:28:33Z</time>
      </trkpt>
      <trkpt lat="46.42921" lon="5.60209">
        <ele>566.6</ele>
        <time>2022-07-29T09:28:34Z</time>
      </trkpt>
      <trkpt lat="46.42924" lon="5.6021">
        <ele>567</ele>
        <time>2022-07-29T09:28:35Z</time>
      </trkpt>
      <trkpt lat="46.42926" lon="5.60211">
        <ele>567</ele>
        <time>2022-07-29T09:28:36Z</time>
      </trkpt>
      <trkpt lat="46.42929" lon="5.60213">
        <ele>567.2</ele>
        <time>2022-07-29T09:28:37Z</time>
      </trkpt>
      <trkpt lat="46.42931" lon="5.60214">
        <ele>567.6</ele>
        <time>2022-07-29T09:28:38Z</time>
      </trkpt>
      <trkpt lat="46.42933" lon="5.60215">
        <ele>567.6</ele>
        <time>2022-07-29T09:28:39Z</time>
      </trkpt>
      <trkpt lat="46.42936" lon="5.60216">
        <ele>567.8</ele>
        <time>2022-07-29T09:28:40Z</time>
      </trkpt>
      <trkpt lat="46.42938" lon="5.60217">
        <ele>568</ele>
        <time>2022-07-29T09:28:41Z</time>
      </trkpt>
      <trkpt lat="46.42941" lon="5.60218">
        <ele>568</ele>
        <time>2022-07-29T09:28:42Z</time>
      </trkpt>
      <trkpt lat="46.42943" lon="5.60218">
        <ele>568.4</ele>
        <time>2022-07-29T09:28:43Z</time>
      </trkpt>
      <trkpt lat="46.42946" lon="5.60219">
        <ele>568.6</ele>
        <time>2022-07-29T09:28:44Z</time>
      </trkpt>
      <trkpt lat="46.42949" lon="5.60219">
        <ele>568.8</ele>
        <time>2022-07-29T09:28:45Z</time>
      </trkpt>
      <trkpt lat="46.42952" lon="5.6022">
        <ele>568.8</ele>
        <time>2022-07-29T09:28:46Z</time>
      </trkpt>
      <trkpt lat="46.42955" lon="5.60221">
        <ele>569</ele>
        <time>2022-07-29T09:28:47Z</time>
      </trkpt>
      <trkpt lat="46.42958" lon="5.60222">
        <ele>569</ele>
        <time>2022-07-29T09:28:48Z</time>
      </trkpt>
      <trkpt lat="46.42961" lon="5.60223">
        <ele>569.4</ele>
        <time>2022-07-29T09:28:49Z</time>
      </trkpt>
      <trkpt lat="46.42964" lon="5.60224">
        <ele>569.6</ele>
        <time>2022-07-29T09:28:50Z</time>
      </trkpt>
      <trkpt lat="46.42967" lon="5.60225">
        <ele>569.6</ele>
        <time>2022-07-29T09:28:51Z</time>
      </trkpt>
      <trkpt lat="46.4297" lon="5.60225">
        <ele>570.2</ele>
        <time>2022-07-29T09:28:52Z</time>
      </trkpt>
      <trkpt lat="46.42973" lon="5.60227">
        <ele>570.4</ele>
        <time>2022-07-29T09:28:53Z</time>
      </trkpt>
      <trkpt lat="46.42976" lon="5.60228">
        <ele>570.4</ele>
        <time>2022-07-29T09:28:54Z</time>
      </trkpt>
      <trkpt lat="46.42979" lon="5.6023">
        <ele>570.8</ele>
        <time>2022-07-29T09:28:55Z</time>
      </trkpt>
      <trkpt lat="46.42982" lon="5.60232">
        <ele>571</ele>
        <time>2022-07-29T09:28:56Z</time>
      </trkpt>
      <trkpt lat="46.42985" lon="5.60234">
        <ele>571.2</ele>
        <time>2022-07-29T09:28:57Z</time>
      </trkpt>
      <trkpt lat="46.42988" lon="5.60236">
        <ele>571.6</ele>
        <time>2022-07-29T09:28:58Z</time>
      </trkpt>
      <trkpt lat="46.4299" lon="5.60238">
        <ele>571.8</ele>
        <time>2022-07-29T09:28:59Z</time>
      </trkpt>
      <trkpt lat="46.42993" lon="5.6024">
        <ele>572.2</ele>
        <time>2022-07-29T09:29:00Z</time>
      </trkpt>
      <trkpt lat="46.42996" lon="5.60243">
        <ele>572.4</ele>
        <time>2022-07-29T09:29:01Z</time>
      </trkpt>
      <trkpt lat="46.42998" lon="5.60245">
        <ele>572.4</ele>
        <time>2022-07-29T09:29:02Z</time>
      </trkpt>
      <trkpt lat="46.43001" lon="5.60247">
        <ele>572.8</ele>
        <time>2022-07-29T09:29:03Z</time>
      </trkpt>
      <trkpt lat="46.43003" lon="5.60249">
        <ele>572.8</ele>
        <time>2022-07-29T09:29:04Z</time>
      </trkpt>
      <trkpt lat="46.43005" lon="5.60252">
        <ele>573</ele>
        <time>2022-07-29T09:29:05Z</time>
      </trkpt>
      <trkpt lat="46.43008" lon="5.60254">
        <ele>573</ele>
        <time>2022-07-29T09:29:06Z</time>
      </trkpt>
      <trkpt lat="46.4301" lon="5.60256">
        <ele>573.4</ele>
        <time>2022-07-29T09:29:07Z</time>
      </trkpt>
      <trkpt lat="46.43012" lon="5.60258">
        <ele>573.8</ele>
        <time>2022-07-29T09:29:08Z</time>
      </trkpt>
      <trkpt lat="46.43014" lon="5.6026">
        <ele>573.8</ele>
        <time>2022-07-29T09:29:09Z</time>
      </trkpt>
      <trkpt lat="46.43015" lon="5.60261">
        <ele>574</ele>
        <time>2022-07-29T09:29:10Z</time>
      </trkpt>
      <trkpt lat="46.43017" lon="5.60263">
        <ele>574</ele>
        <time>2022-07-29T09:29:11Z</time>
      </trkpt>
      <trkpt lat="46.43019" lon="5.60264">
        <ele>574.4</ele>
        <time>2022-07-29T09:29:12Z</time>
      </trkpt>
      <trkpt lat="46.43022" lon="5.60266">
        <ele>574.6</ele>
        <time>2022-07-29T09:29:13Z</time>
      </trkpt>
      <trkpt lat="46.43024" lon="5.60267">
        <ele>574.6</ele>
        <time>2022-07-29T09:29:14Z</time>
      </trkpt>
      <trkpt lat="46.43026" lon="5.60269">
        <ele>575</ele>
        <time>2022-07-29T09:29:15Z</time>
      </trkpt>
      <trkpt lat="46.43029" lon="5.6027">
        <ele>575</ele>
        <time>2022-07-29T09:29:16Z</time>
      </trkpt>
      <trkpt lat="46.43032" lon="5.60271">
        <ele>575.2</ele>
        <time>2022-07-29T09:29:17Z</time>
      </trkpt>
      <trkpt lat="46.43034" lon="5.60271">
        <ele>575.4</ele>
        <time>2022-07-29T09:29:18Z</time>
      </trkpt>
      <trkpt lat="46.43037" lon="5.60271">
        <ele>575.4</ele>
        <time>2022-07-29T09:29:19Z</time>
      </trkpt>
      <trkpt lat="46.43039" lon="5.60271">
        <ele>575.8</ele>
        <time>2022-07-29T09:29:20Z</time>
      </trkpt>
      <trkpt lat="46.43042" lon="5.60271">
        <ele>575.8</ele>
        <time>2022-07-29T09:29:21Z</time>
      </trkpt>
      <trkpt lat="46.43045" lon="5.6027">
        <ele>576</ele>
        <time>2022-07-29T09:29:22Z</time>
      </trkpt>
      <trkpt lat="46.43048" lon="5.60269">
        <ele>576</ele>
        <time>2022-07-29T09:29:23Z</time>
      </trkpt>
      <trkpt lat="46.43052" lon="5.60268">
        <ele>576.4</ele>
        <time>2022-07-29T09:29:24Z</time>
      </trkpt>
      <trkpt lat="46.43056" lon="5.60267">
        <ele>576.4</ele>
        <time>2022-07-29T09:29:25Z</time>
      </trkpt>
      <trkpt lat="46.4306" lon="5.60265">
        <ele>577</ele>
        <time>2022-07-29T09:29:26Z</time>
      </trkpt>
      <trkpt lat="46.43064" lon="5.60264">
        <ele>577.2</ele>
        <time>2022-07-29T09:29:27Z</time>
      </trkpt>
      <trkpt lat="46.43067" lon="5.60262">
        <ele>577.4</ele>
        <time>2022-07-29T09:29:28Z</time>
      </trkpt>
      <trkpt lat="46.4307" lon="5.6026">
        <ele>577.6</ele>
        <time>2022-07-29T09:29:29Z</time>
      </trkpt>
      <trkpt lat="46.43073" lon="5.60258">
        <ele>577.8</ele>
        <time>2022-07-29T09:29:30Z</time>
      </trkpt>
      <trkpt lat="46.43076" lon="5.60257">
        <ele>577.8</ele>
        <time>2022-07-29T09:29:31Z</time>
      </trkpt>
      <trkpt lat="46.43079" lon="5.60255">
        <ele>578.2</ele>
        <time>2022-07-29T09:29:32Z</time>
      </trkpt>
      <trkpt lat="46.43082" lon="5.60254">
        <ele>578.6</ele>
        <time>2022-07-29T09:29:33Z</time>
      </trkpt>
      <trkpt lat="46.43085" lon="5.60253">
        <ele>578.8</ele>
        <time>2022-07-29T09:29:34Z</time>
      </trkpt>
      <trkpt lat="46.43087" lon="5.60253">
        <ele>579.2</ele>
        <time>2022-07-29T09:29:35Z</time>
      </trkpt>
      <trkpt lat="46.4309" lon="5.60253">
        <ele>579.4</ele>
        <time>2022-07-29T09:29:36Z</time>
      </trkpt>
      <trkpt lat="46.43094" lon="5.60254">
        <ele>579.4</ele>
        <time>2022-07-29T09:29:37Z</time>
      </trkpt>
      <trkpt lat="46.43096" lon="5.60256">
        <ele>579.8</ele>
        <time>2022-07-29T09:29:38Z</time>
      </trkpt>
      <trkpt lat="46.43099" lon="5.60257">
        <ele>579.8</ele>
        <time>2022-07-29T09:29:39Z</time>
      </trkpt>
      <trkpt lat="46.43101" lon="5.60261">
        <ele>580.2</ele>
        <time>2022-07-29T09:29:40Z</time>
      </trkpt>
      <trkpt lat="46.43104" lon="5.60266">
        <ele>580.6</ele>
        <time>2022-07-29T09:29:41Z</time>
      </trkpt>
      <trkpt lat="46.43105" lon="5.6027">
        <ele>580.6</ele>
        <time>2022-07-29T09:29:42Z</time>
      </trkpt>
      <trkpt lat="46.43106" lon="5.60274">
        <ele>580.8</ele>
        <time>2022-07-29T09:29:43Z</time>
      </trkpt>
      <trkpt lat="46.43107" lon="5.60279">
        <ele>580.8</ele>
        <time>2022-07-29T09:29:44Z</time>
      </trkpt>
      <trkpt lat="46.43109" lon="5.60283">
        <ele>581.2</ele>
        <time>2022-07-29T09:29:45Z</time>
      </trkpt>
      <trkpt lat="46.43111" lon="5.60288">
        <ele>581.4</ele>
        <time>2022-07-29T09:29:46Z</time>
      </trkpt>
      <trkpt lat="46.43112" lon="5.60292">
        <ele>581.6</ele>
        <time>2022-07-29T09:29:47Z</time>
      </trkpt>
      <trkpt lat="46.43114" lon="5.60297">
        <ele>581.6</ele>
        <time>2022-07-29T09:29:48Z</time>
      </trkpt>
      <trkpt lat="46.43115" lon="5.60302">
        <ele>582</ele>
        <time>2022-07-29T09:29:49Z</time>
      </trkpt>
      <trkpt lat="46.43117" lon="5.60307">
        <ele>582</ele>
        <time>2022-07-29T09:29:50Z</time>
      </trkpt>
      <trkpt lat="46.43118" lon="5.60312">
        <ele>582.4</ele>
        <time>2022-07-29T09:29:51Z</time>
      </trkpt>
      <trkpt lat="46.4312" lon="5.60316">
        <ele>582.6</ele>
        <time>2022-07-29T09:29:52Z</time>
      </trkpt>
      <trkpt lat="46.43121" lon="5.60321">
        <ele>582.6</ele>
        <time>2022-07-29T09:29:53Z</time>
      </trkpt>
      <trkpt lat="46.43123" lon="5.60326">
        <ele>583.2</ele>
        <time>2022-07-29T09:29:54Z</time>
      </trkpt>
      <trkpt lat="46.43124" lon="5.6033">
        <ele>583.4</ele>
        <time>2022-07-29T09:29:55Z</time>
      </trkpt>
      <trkpt lat="46.43125" lon="5.60335">
        <ele>583.6</ele>
        <time>2022-07-29T09:29:56Z</time>
      </trkpt>
      <trkpt lat="46.43127" lon="5.60339">
        <ele>584</ele>
        <time>2022-07-29T09:29:57Z</time>
      </trkpt>
      <trkpt lat="46.43129" lon="5.60344">
        <ele>584.2</ele>
        <time>2022-07-29T09:29:58Z</time>
      </trkpt>
      <trkpt lat="46.4313" lon="5.60348">
        <ele>584.4</ele>
        <time>2022-07-29T09:29:59Z</time>
      </trkpt>
      <trkpt lat="46.43132" lon="5.60352">
        <ele>584.6</ele>
        <time>2022-07-29T09:30:00Z</time>
      </trkpt>
      <trkpt lat="46.43134" lon="5.60356">
        <ele>585</ele>
        <time>2022-07-29T09:30:01Z</time>
      </trkpt>
      <trkpt lat="46.43136" lon="5.6036">
        <ele>585</ele>
        <time>2022-07-29T09:30:02Z</time>
      </trkpt>
      <trkpt lat="46.43138" lon="5.60364">
        <ele>585.4</ele>
        <time>2022-07-29T09:30:03Z</time>
      </trkpt>
      <trkpt lat="46.43139" lon="5.60369">
        <ele>585.4</ele>
        <time>2022-07-29T09:30:04Z</time>
      </trkpt>
      <trkpt lat="46.4314" lon="5.60373">
        <ele>585.8</ele>
        <time>2022-07-29T09:30:05Z</time>
      </trkpt>
      <trkpt lat="46.43142" lon="5.60378">
        <ele>585.8</ele>
        <time>2022-07-29T09:30:06Z</time>
      </trkpt>
      <trkpt lat="46.43143" lon="5.60382">
        <ele>586.2</ele>
        <time>2022-07-29T09:30:07Z</time>
      </trkpt>
      <trkpt lat="46.43145" lon="5.60386">
        <ele>586.4</ele>
        <time>2022-07-29T09:30:08Z</time>
      </trkpt>
      <trkpt lat="46.43147" lon="5.6039">
        <ele>586.6</ele>
        <time>2022-07-29T09:30:09Z</time>
      </trkpt>
      <trkpt lat="46.43149" lon="5.60394">
        <ele>586.8</ele>
        <time>2022-07-29T09:30:10Z</time>
      </trkpt>
      <trkpt lat="46.4315" lon="5.60398">
        <ele>587</ele>
        <time>2022-07-29T09:30:11Z</time>
      </trkpt>
      <trkpt lat="46.43152" lon="5.60402">
        <ele>587.4</ele>
        <time>2022-07-29T09:30:12Z</time>
      </trkpt>
      <trkpt lat="46.43154" lon="5.60406">
        <ele>587.4</ele>
        <time>2022-07-29T09:30:13Z</time>
      </trkpt>
      <trkpt lat="46.43155" lon="5.6041">
        <ele>587.6</ele>
        <time>2022-07-29T09:30:14Z</time>
      </trkpt>
      <trkpt lat="46.43157" lon="5.60414">
        <ele>587.8</ele>
        <time>2022-07-29T09:30:15Z</time>
      </trkpt>
      <trkpt lat="46.43158" lon="5.60418">
        <ele>587.8</ele>
        <time>2022-07-29T09:30:16Z</time>
      </trkpt>
      <trkpt lat="46.4316" lon="5.60422">
        <ele>588.2</ele>
        <time>2022-07-29T09:30:17Z</time>
      </trkpt>
      <trkpt lat="46.43162" lon="5.60426">
        <ele>588.2</ele>
        <time>2022-07-29T09:30:18Z</time>
      </trkpt>
      <trkpt lat="46.43163" lon="5.60431">
        <ele>588.6</ele>
        <time>2022-07-29T09:30:19Z</time>
      </trkpt>
      <trkpt lat="46.43164" lon="5.60435">
        <ele>588.8</ele>
        <time>2022-07-29T09:30:20Z</time>
      </trkpt>
      <trkpt lat="46.43165" lon="5.6044">
        <ele>588.8</ele>
        <time>2022-07-29T09:30:21Z</time>
      </trkpt>
      <trkpt lat="46.43167" lon="5.60444">
        <ele>589.4</ele>
        <time>2022-07-29T09:30:22Z</time>
      </trkpt>
      <trkpt lat="46.43169" lon="5.60448">
        <ele>589.6</ele>
        <time>2022-07-29T09:30:23Z</time>
      </trkpt>
      <trkpt lat="46.43171" lon="5.60452">
        <ele>589.6</ele>
        <time>2022-07-29T09:30:24Z</time>
      </trkpt>
      <trkpt lat="46.43173" lon="5.60456">
        <ele>590</ele>
        <time>2022-07-29T09:30:25Z</time>
      </trkpt>
      <trkpt lat="46.43174" lon="5.6046">
        <ele>590.2</ele>
        <time>2022-07-29T09:30:26Z</time>
      </trkpt>
      <trkpt lat="46.43176" lon="5.60464">
        <ele>590.4</ele>
        <time>2022-07-29T09:30:27Z</time>
      </trkpt>
      <trkpt lat="46.43178" lon="5.60468">
        <ele>590.4</ele>
        <time>2022-07-29T09:30:28Z</time>
      </trkpt>
      <trkpt lat="46.4318" lon="5.60472">
        <ele>590.8</ele>
        <time>2022-07-29T09:30:29Z</time>
      </trkpt>
      <trkpt lat="46.43182" lon="5.60476">
        <ele>591</ele>
        <time>2022-07-29T09:30:30Z</time>
      </trkpt>
      <trkpt lat="46.43183" lon="5.6048">
        <ele>591</ele>
        <time>2022-07-29T09:30:31Z</time>
      </trkpt>
      <trkpt lat="46.43185" lon="5.60484">
        <ele>591.4</ele>
        <time>2022-07-29T09:30:32Z</time>
      </trkpt>
      <trkpt lat="46.43186" lon="5.60488">
        <ele>591.6</ele>
        <time>2022-07-29T09:30:33Z</time>
      </trkpt>
      <trkpt lat="46.43187" lon="5.60491">
        <ele>591.6</ele>
        <time>2022-07-29T09:30:34Z</time>
      </trkpt>
      <trkpt lat="46.43189" lon="5.60495">
        <ele>592</ele>
        <time>2022-07-29T09:30:35Z</time>
      </trkpt>
      <trkpt lat="46.4319" lon="5.60499">
        <ele>592</ele>
        <time>2022-07-29T09:30:36Z</time>
      </trkpt>
      <trkpt lat="46.43192" lon="5.60502">
        <ele>592.4</ele>
        <time>2022-07-29T09:30:37Z</time>
      </trkpt>
      <trkpt lat="46.43193" lon="5.60505">
        <ele>592.6</ele>
        <time>2022-07-29T09:30:38Z</time>
      </trkpt>
      <trkpt lat="46.43195" lon="5.60509">
        <ele>592.8</ele>
        <time>2022-07-29T09:30:39Z</time>
      </trkpt>
      <trkpt lat="46.43197" lon="5.60512">
        <ele>593.2</ele>
        <time>2022-07-29T09:30:40Z</time>
      </trkpt>
      <trkpt lat="46.43198" lon="5.60516">
        <ele>593.4</ele>
        <time>2022-07-29T09:30:41Z</time>
      </trkpt>
      <trkpt lat="46.43199" lon="5.60519">
        <ele>593.6</ele>
        <time>2022-07-29T09:30:42Z</time>
      </trkpt>
      <trkpt lat="46.43201" lon="5.60522">
        <ele>593.8</ele>
        <time>2022-07-29T09:30:43Z</time>
      </trkpt>
      <trkpt lat="46.43203" lon="5.60525">
        <ele>594.2</ele>
        <time>2022-07-29T09:30:44Z</time>
      </trkpt>
      <trkpt lat="46.43204" lon="5.60528">
        <ele>594.4</ele>
        <time>2022-07-29T09:30:45Z</time>
      </trkpt>
      <trkpt lat="46.43206" lon="5.6053">
        <ele>594.6</ele>
        <time>2022-07-29T09:30:46Z</time>
      </trkpt>
      <trkpt lat="46.43207" lon="5.60533">
        <ele>594.8</ele>
        <time>2022-07-29T09:30:47Z</time>
      </trkpt>
      <trkpt lat="46.43209" lon="5.60535">
        <ele>595.2</ele>
        <time>2022-07-29T09:30:48Z</time>
      </trkpt>
      <trkpt lat="46.43211" lon="5.60538">
        <ele>595.2</ele>
        <time>2022-07-29T09:30:49Z</time>
      </trkpt>
      <trkpt lat="46.43212" lon="5.60541">
        <ele>595.4</ele>
        <time>2022-07-29T09:30:50Z</time>
      </trkpt>
      <trkpt lat="46.43214" lon="5.60543">
        <ele>595.4</ele>
        <time>2022-07-29T09:30:51Z</time>
      </trkpt>
      <trkpt lat="46.43216" lon="5.60546">
        <ele>595.8</ele>
        <time>2022-07-29T09:30:52Z</time>
      </trkpt>
      <trkpt lat="46.43218" lon="5.60549">
        <ele>595.8</ele>
        <time>2022-07-29T09:30:53Z</time>
      </trkpt>
      <trkpt lat="46.4322" lon="5.60552">
        <ele>596</ele>
        <time>2022-07-29T09:30:54Z</time>
      </trkpt>
      <trkpt lat="46.43222" lon="5.60554">
        <ele>596.2</ele>
        <time>2022-07-29T09:30:55Z</time>
      </trkpt>
      <trkpt lat="46.43224" lon="5.60557">
        <ele>596.2</ele>
        <time>2022-07-29T09:30:56Z</time>
      </trkpt>
      <trkpt lat="46.43226" lon="5.60559">
        <ele>596.8</ele>
        <time>2022-07-29T09:30:57Z</time>
      </trkpt>
      <trkpt lat="46.43228" lon="5.60561">
        <ele>596.8</ele>
        <time>2022-07-29T09:30:58Z</time>
      </trkpt>
      <trkpt lat="46.4323" lon="5.60564">
        <ele>597.2</ele>
        <time>2022-07-29T09:30:59Z</time>
      </trkpt>
      <trkpt lat="46.43231" lon="5.60566">
        <ele>597.4</ele>
        <time>2022-07-29T09:31:00Z</time>
      </trkpt>
      <trkpt lat="46.43232" lon="5.60568">
        <ele>597.4</ele>
        <time>2022-07-29T09:31:01Z</time>
      </trkpt>
      <trkpt lat="46.43234" lon="5.6057">
        <ele>597.8</ele>
        <time>2022-07-29T09:31:02Z</time>
      </trkpt>
      <trkpt lat="46.43235" lon="5.60572">
        <ele>598</ele>
        <time>2022-07-29T09:31:03Z</time>
      </trkpt>
      <trkpt lat="46.43236" lon="5.60574">
        <ele>598.4</ele>
        <time>2022-07-29T09:31:04Z</time>
      </trkpt>
      <trkpt lat="46.43238" lon="5.60576">
        <ele>598.6</ele>
        <time>2022-07-29T09:31:05Z</time>
      </trkpt>
      <trkpt lat="46.43241" lon="5.60578">
        <ele>598.8</ele>
        <time>2022-07-29T09:31:06Z</time>
      </trkpt>
      <trkpt lat="46.43243" lon="5.6058">
        <ele>599</ele>
        <time>2022-07-29T09:31:07Z</time>
      </trkpt>
      <trkpt lat="46.43245" lon="5.60582">
        <ele>599.4</ele>
        <time>2022-07-29T09:31:08Z</time>
      </trkpt>
      <trkpt lat="46.43246" lon="5.60584">
        <ele>599.6</ele>
        <time>2022-07-29T09:31:09Z</time>
      </trkpt>
      <trkpt lat="46.43249" lon="5.60586">
        <ele>599.8</ele>
        <time>2022-07-29T09:31:10Z</time>
      </trkpt>
      <trkpt lat="46.43251" lon="5.60587">
        <ele>600</ele>
        <time>2022-07-29T09:31:11Z</time>
      </trkpt>
      <trkpt lat="46.43253" lon="5.60589">
        <ele>600.4</ele>
        <time>2022-07-29T09:31:12Z</time>
      </trkpt>
      <trkpt lat="46.43255" lon="5.6059">
        <ele>600.6</ele>
        <time>2022-07-29T09:31:13Z</time>
      </trkpt>
      <trkpt lat="46.43257" lon="5.60592">
        <ele>600.8</ele>
        <time>2022-07-29T09:31:14Z</time>
      </trkpt>
      <trkpt lat="46.43259" lon="5.60593">
        <ele>601</ele>
        <time>2022-07-29T09:31:15Z</time>
      </trkpt>
      <trkpt lat="46.43261" lon="5.60595">
        <ele>601.4</ele>
        <time>2022-07-29T09:31:16Z</time>
      </trkpt>
      <trkpt lat="46.43263" lon="5.60596">
        <ele>601.4</ele>
        <time>2022-07-29T09:31:17Z</time>
      </trkpt>
      <trkpt lat="46.43265" lon="5.60598">
        <ele>601.6</ele>
        <time>2022-07-29T09:31:18Z</time>
      </trkpt>
      <trkpt lat="46.43267" lon="5.60599">
        <ele>601.6</ele>
        <time>2022-07-29T09:31:19Z</time>
      </trkpt>
      <trkpt lat="46.43269" lon="5.606">
        <ele>602</ele>
        <time>2022-07-29T09:31:20Z</time>
      </trkpt>
      <trkpt lat="46.43271" lon="5.60602">
        <ele>602</ele>
        <time>2022-07-29T09:31:21Z</time>
      </trkpt>
      <trkpt lat="46.43273" lon="5.60603">
        <ele>602.4</ele>
        <time>2022-07-29T09:31:22Z</time>
      </trkpt>
      <trkpt lat="46.43276" lon="5.60605">
        <ele>602.4</ele>
        <time>2022-07-29T09:31:23Z</time>
      </trkpt>
      <trkpt lat="46.43278" lon="5.60606">
        <ele>602.8</ele>
        <time>2022-07-29T09:31:24Z</time>
      </trkpt>
      <trkpt lat="46.4328" lon="5.60607">
        <ele>602.8</ele>
        <time>2022-07-29T09:31:25Z</time>
      </trkpt>
      <trkpt lat="46.43282" lon="5.60608">
        <ele>603</ele>
        <time>2022-07-29T09:31:26Z</time>
      </trkpt>
      <trkpt lat="46.43285" lon="5.60609">
        <ele>603</ele>
        <time>2022-07-29T09:31:27Z</time>
      </trkpt>
      <trkpt lat="46.43288" lon="5.6061">
        <ele>603.4</ele>
        <time>2022-07-29T09:31:28Z</time>
      </trkpt>
      <trkpt lat="46.4329" lon="5.60611">
        <ele>603.4</ele>
        <time>2022-07-29T09:31:29Z</time>
      </trkpt>
      <trkpt lat="46.43293" lon="5.60612">
        <ele>603.8</ele>
        <time>2022-07-29T09:31:30Z</time>
      </trkpt>
      <trkpt lat="46.43296" lon="5.60613">
        <ele>603.8</ele>
        <time>2022-07-29T09:31:31Z</time>
      </trkpt>
      <trkpt lat="46.43298" lon="5.60614">
        <ele>604</ele>
        <time>2022-07-29T09:31:32Z</time>
      </trkpt>
      <trkpt lat="46.43301" lon="5.60614">
        <ele>604</ele>
        <time>2022-07-29T09:31:33Z</time>
      </trkpt>
      <trkpt lat="46.43303" lon="5.60615">
        <ele>604.4</ele>
        <time>2022-07-29T09:31:34Z</time>
      </trkpt>
      <trkpt lat="46.43305" lon="5.60616">
        <ele>604.6</ele>
        <time>2022-07-29T09:31:35Z</time>
      </trkpt>
      <trkpt lat="46.43307" lon="5.60616">
        <ele>605</ele>
        <time>2022-07-29T09:31:36Z</time>
      </trkpt>
      <trkpt lat="46.4331" lon="5.60616">
        <ele>605.2</ele>
        <time>2022-07-29T09:31:37Z</time>
      </trkpt>
      <trkpt lat="46.43313" lon="5.60615">
        <ele>605.4</ele>
        <time>2022-07-29T09:31:38Z</time>
      </trkpt>
      <trkpt lat="46.43316" lon="5.60614">
        <ele>605.6</ele>
        <time>2022-07-29T09:31:39Z</time>
      </trkpt>
      <trkpt lat="46.43319" lon="5.60613">
        <ele>606</ele>
        <time>2022-07-29T09:31:40Z</time>
      </trkpt>
      <trkpt lat="46.43321" lon="5.60612">
        <ele>606.2</ele>
        <time>2022-07-29T09:31:41Z</time>
      </trkpt>
      <trkpt lat="46.43324" lon="5.60611">
        <ele>606.6</ele>
        <time>2022-07-29T09:31:42Z</time>
      </trkpt>
      <trkpt lat="46.43327" lon="5.6061">
        <ele>606.8</ele>
        <time>2022-07-29T09:31:43Z</time>
      </trkpt>
      <trkpt lat="46.4333" lon="5.6061">
        <ele>607.2</ele>
        <time>2022-07-29T09:31:44Z</time>
      </trkpt>
      <trkpt lat="46.43332" lon="5.60609">
        <ele>607.4</ele>
        <time>2022-07-29T09:31:45Z</time>
      </trkpt>
      <trkpt lat="46.43335" lon="5.60609">
        <ele>607.8</ele>
        <time>2022-07-29T09:31:46Z</time>
      </trkpt>
      <trkpt lat="46.43338" lon="5.60608">
        <ele>608</ele>
        <time>2022-07-29T09:31:47Z</time>
      </trkpt>
      <trkpt lat="46.43341" lon="5.60606">
        <ele>608.4</ele>
        <time>2022-07-29T09:31:48Z</time>
      </trkpt>
      <trkpt lat="46.43344" lon="5.60604">
        <ele>608.6</ele>
        <time>2022-07-29T09:31:49Z</time>
      </trkpt>
      <trkpt lat="46.43347" lon="5.60603">
        <ele>609</ele>
        <time>2022-07-29T09:31:50Z</time>
      </trkpt>
      <trkpt lat="46.4335" lon="5.60601">
        <ele>609.2</ele>
        <time>2022-07-29T09:31:51Z</time>
      </trkpt>
      <trkpt lat="46.43352" lon="5.606">
        <ele>609.4</ele>
        <time>2022-07-29T09:31:52Z</time>
      </trkpt>
      <trkpt lat="46.43354" lon="5.60599">
        <ele>609.8</ele>
        <time>2022-07-29T09:31:53Z</time>
      </trkpt>
      <trkpt lat="46.43357" lon="5.60598">
        <ele>610.2</ele>
        <time>2022-07-29T09:31:54Z</time>
      </trkpt>
      <trkpt lat="46.43358" lon="5.60598">
        <ele>610.4</ele>
        <time>2022-07-29T09:31:55Z</time>
      </trkpt>
      <trkpt lat="46.43361" lon="5.60597">
        <ele>610.6</ele>
        <time>2022-07-29T09:31:56Z</time>
      </trkpt>
      <trkpt lat="46.43363" lon="5.60596">
        <ele>611</ele>
        <time>2022-07-29T09:31:57Z</time>
      </trkpt>
      <trkpt lat="46.43365" lon="5.60596">
        <ele>611.2</ele>
        <time>2022-07-29T09:31:58Z</time>
      </trkpt>
      <trkpt lat="46.43367" lon="5.60595">
        <ele>611.2</ele>
        <time>2022-07-29T09:31:59Z</time>
      </trkpt>
      <trkpt lat="46.43369" lon="5.60594">
        <ele>611.6</ele>
        <time>2022-07-29T09:32:00Z</time>
      </trkpt>
      <trkpt lat="46.43372" lon="5.60592">
        <ele>612</ele>
        <time>2022-07-29T09:32:01Z</time>
      </trkpt>
      <trkpt lat="46.43374" lon="5.60591">
        <ele>612.2</ele>
        <time>2022-07-29T09:32:02Z</time>
      </trkpt>
      <trkpt lat="46.43377" lon="5.60589">
        <ele>612.4</ele>
        <time>2022-07-29T09:32:03Z</time>
      </trkpt>
      <trkpt lat="46.43379" lon="5.60588">
        <ele>612.6</ele>
        <time>2022-07-29T09:32:04Z</time>
      </trkpt>
      <trkpt lat="46.43381" lon="5.60587">
        <ele>613</ele>
        <time>2022-07-29T09:32:05Z</time>
      </trkpt>
      <trkpt lat="46.43384" lon="5.60587">
        <ele>613.2</ele>
        <time>2022-07-29T09:32:06Z</time>
      </trkpt>
      <trkpt lat="46.43386" lon="5.60587">
        <ele>613.4</ele>
        <time>2022-07-29T09:32:07Z</time>
      </trkpt>
      <trkpt lat="46.43388" lon="5.60587">
        <ele>613.6</ele>
        <time>2022-07-29T09:32:08Z</time>
      </trkpt>
      <trkpt lat="46.43391" lon="5.60587">
        <ele>614</ele>
        <time>2022-07-29T09:32:09Z</time>
      </trkpt>
      <trkpt lat="46.43393" lon="5.60587">
        <ele>614.4</ele>
        <time>2022-07-29T09:32:10Z</time>
      </trkpt>
      <trkpt lat="46.43396" lon="5.60587">
        <ele>614.6</ele>
        <time>2022-07-29T09:32:11Z</time>
      </trkpt>
      <trkpt lat="46.43399" lon="5.60587">
        <ele>615</ele>
        <time>2022-07-29T09:32:12Z</time>
      </trkpt>
      <trkpt lat="46.43402" lon="5.60588">
        <ele>615.2</ele>
        <time>2022-07-29T09:32:13Z</time>
      </trkpt>
      <trkpt lat="46.43404" lon="5.60588">
        <ele>615.6</ele>
        <time>2022-07-29T09:32:14Z</time>
      </trkpt>
      <trkpt lat="46.43406" lon="5.60588">
        <ele>616</ele>
        <time>2022-07-29T09:32:15Z</time>
      </trkpt>
      <trkpt lat="46.43409" lon="5.60588">
        <ele>616.4</ele>
        <time>2022-07-29T09:32:16Z</time>
      </trkpt>
      <trkpt lat="46.43412" lon="5.60588">
        <ele>616.8</ele>
        <time>2022-07-29T09:32:17Z</time>
      </trkpt>
      <trkpt lat="46.43415" lon="5.6059">
        <ele>617.2</ele>
        <time>2022-07-29T09:32:18Z</time>
      </trkpt>
      <trkpt lat="46.43418" lon="5.60591">
        <ele>617.4</ele>
        <time>2022-07-29T09:32:19Z</time>
      </trkpt>
      <trkpt lat="46.43421" lon="5.60593">
        <ele>617.6</ele>
        <time>2022-07-29T09:32:20Z</time>
      </trkpt>
      <trkpt lat="46.43424" lon="5.60596">
        <ele>618</ele>
        <time>2022-07-29T09:32:21Z</time>
      </trkpt>
      <trkpt lat="46.43427" lon="5.60599">
        <ele>618.2</ele>
        <time>2022-07-29T09:32:22Z</time>
      </trkpt>
      <trkpt lat="46.43429" lon="5.60602">
        <ele>618.6</ele>
        <time>2022-07-29T09:32:23Z</time>
      </trkpt>
      <trkpt lat="46.43431" lon="5.60606">
        <ele>618.8</ele>
        <time>2022-07-29T09:32:24Z</time>
      </trkpt>
      <trkpt lat="46.43433" lon="5.60609">
        <ele>619.2</ele>
        <time>2022-07-29T09:32:25Z</time>
      </trkpt>
      <trkpt lat="46.43434" lon="5.60613">
        <ele>619.4</ele>
        <time>2022-07-29T09:32:26Z</time>
      </trkpt>
      <trkpt lat="46.43435" lon="5.60617">
        <ele>619.4</ele>
        <time>2022-07-29T09:32:27Z</time>
      </trkpt>
      <trkpt lat="46.43436" lon="5.60621">
        <ele>619.8</ele>
        <time>2022-07-29T09:32:28Z</time>
      </trkpt>
      <trkpt lat="46.43437" lon="5.60625">
        <ele>619.8</ele>
        <time>2022-07-29T09:32:29Z</time>
      </trkpt>
      <trkpt lat="46.43438" lon="5.6063">
        <ele>620</ele>
        <time>2022-07-29T09:32:30Z</time>
      </trkpt>
      <trkpt lat="46.43439" lon="5.60634">
        <ele>620</ele>
        <time>2022-07-29T09:32:31Z</time>
      </trkpt>
      <trkpt lat="46.4344" lon="5.60638">
        <ele>620.4</ele>
        <time>2022-07-29T09:32:32Z</time>
      </trkpt>
      <trkpt lat="46.43442" lon="5.60642">
        <ele>620.4</ele>
        <time>2022-07-29T09:32:33Z</time>
      </trkpt>
      <trkpt lat="46.43443" lon="5.60646">
        <ele>620.8</ele>
        <time>2022-07-29T09:32:34Z</time>
      </trkpt>
      <trkpt lat="46.43444" lon="5.6065">
        <ele>621</ele>
        <time>2022-07-29T09:32:35Z</time>
      </trkpt>
      <trkpt lat="46.43445" lon="5.60654">
        <ele>621.2</ele>
        <time>2022-07-29T09:32:36Z</time>
      </trkpt>
      <trkpt lat="46.43446" lon="5.60657">
        <ele>621.2</ele>
        <time>2022-07-29T09:32:37Z</time>
      </trkpt>
      <trkpt lat="46.43447" lon="5.6066">
        <ele>621.8</ele>
        <time>2022-07-29T09:32:38Z</time>
      </trkpt>
      <trkpt lat="46.43448" lon="5.60663">
        <ele>621.8</ele>
        <time>2022-07-29T09:32:39Z</time>
      </trkpt>
      <trkpt lat="46.43449" lon="5.60667">
        <ele>622</ele>
        <time>2022-07-29T09:32:40Z</time>
      </trkpt>
      <trkpt lat="46.43449" lon="5.6067">
        <ele>622.2</ele>
        <time>2022-07-29T09:32:41Z</time>
      </trkpt>
      <trkpt lat="46.43451" lon="5.60673">
        <ele>622.4</ele>
        <time>2022-07-29T09:32:42Z</time>
      </trkpt>
      <trkpt lat="46.43453" lon="5.60676">
        <ele>622.8</ele>
        <time>2022-07-29T09:32:43Z</time>
      </trkpt>
      <trkpt lat="46.43456" lon="5.60679">
        <ele>623.2</ele>
        <time>2022-07-29T09:32:44Z</time>
      </trkpt>
      <trkpt lat="46.43457" lon="5.60682">
        <ele>623.4</ele>
        <time>2022-07-29T09:32:45Z</time>
      </trkpt>
      <trkpt lat="46.43459" lon="5.60686">
        <ele>623.6</ele>
        <time>2022-07-29T09:32:46Z</time>
      </trkpt>
      <trkpt lat="46.4346" lon="5.60689">
        <ele>623.8</ele>
        <time>2022-07-29T09:32:47Z</time>
      </trkpt>
      <trkpt lat="46.43461" lon="5.60693">
        <ele>623.8</ele>
        <time>2022-07-29T09:32:48Z</time>
      </trkpt>
      <trkpt lat="46.43462" lon="5.60697">
        <ele>624</ele>
        <time>2022-07-29T09:32:49Z</time>
      </trkpt>
      <trkpt lat="46.43463" lon="5.60701">
        <ele>624</ele>
        <time>2022-07-29T09:32:50Z</time>
      </trkpt>
      <trkpt lat="46.43465" lon="5.60704">
        <ele>624.2</ele>
        <time>2022-07-29T09:32:51Z</time>
      </trkpt>
      <trkpt lat="46.43467" lon="5.60707">
        <ele>624.2</ele>
        <time>2022-07-29T09:32:52Z</time>
      </trkpt>
      <trkpt lat="46.4347" lon="5.6071">
        <ele>624.6</ele>
        <time>2022-07-29T09:32:53Z</time>
      </trkpt>
      <trkpt lat="46.43472" lon="5.60712">
        <ele>624.6</ele>
        <time>2022-07-29T09:32:54Z</time>
      </trkpt>
      <trkpt lat="46.43475" lon="5.60715">
        <ele>624.6</ele>
        <time>2022-07-29T09:32:55Z</time>
      </trkpt>
      <trkpt lat="46.43477" lon="5.60718">
        <ele>624.6</ele>
        <time>2022-07-29T09:32:56Z</time>
      </trkpt>
      <trkpt lat="46.43479" lon="5.6072">
        <ele>624.8</ele>
        <time>2022-07-29T09:32:57Z</time>
      </trkpt>
      <trkpt lat="46.43481" lon="5.60722">
        <ele>624.8</ele>
        <time>2022-07-29T09:32:58Z</time>
      </trkpt>
      <trkpt lat="46.43483" lon="5.60725">
        <ele>624.8</ele>
        <time>2022-07-29T09:32:59Z</time>
      </trkpt>
      <trkpt lat="46.43485" lon="5.60727">
        <ele>625.2</ele>
        <time>2022-07-29T09:33:00Z</time>
      </trkpt>
      <trkpt lat="46.43487" lon="5.60729">
        <ele>625.2</ele>
        <time>2022-07-29T09:33:01Z</time>
      </trkpt>
      <trkpt lat="46.43488" lon="5.6073">
        <ele>625.4</ele>
        <time>2022-07-29T09:33:02Z</time>
      </trkpt>
      <trkpt lat="46.4349" lon="5.60732">
        <ele>625.4</ele>
        <time>2022-07-29T09:33:03Z</time>
      </trkpt>
      <trkpt lat="46.43491" lon="5.60733">
        <ele>625.8</ele>
        <time>2022-07-29T09:33:04Z</time>
      </trkpt>
      <trkpt lat="46.43493" lon="5.60735">
        <ele>625.8</ele>
        <time>2022-07-29T09:33:05Z</time>
      </trkpt>
      <trkpt lat="46.43494" lon="5.60736">
        <ele>626</ele>
        <time>2022-07-29T09:33:06Z</time>
      </trkpt>
      <trkpt lat="46.43495" lon="5.60738">
        <ele>626</ele>
        <time>2022-07-29T09:33:07Z</time>
      </trkpt>
      <trkpt lat="46.43497" lon="5.60741">
        <ele>626.2</ele>
        <time>2022-07-29T09:33:08Z</time>
      </trkpt>
      <trkpt lat="46.43499" lon="5.60743">
        <ele>626.2</ele>
        <time>2022-07-29T09:33:09Z</time>
      </trkpt>
      <trkpt lat="46.435" lon="5.60745">
        <ele>626.6</ele>
        <time>2022-07-29T09:33:10Z</time>
      </trkpt>
      <trkpt lat="46.43502" lon="5.60747">
        <ele>626.6</ele>
        <time>2022-07-29T09:33:11Z</time>
      </trkpt>
      <trkpt lat="46.43503" lon="5.60749">
        <ele>627</ele>
        <time>2022-07-29T09:33:12Z</time>
      </trkpt>
      <trkpt lat="46.43503" lon="5.60751">
        <ele>627.2</ele>
        <time>2022-07-29T09:33:13Z</time>
      </trkpt>
      <trkpt lat="46.43504" lon="5.60754">
        <ele>627.2</ele>
        <time>2022-07-29T09:33:14Z</time>
      </trkpt>
      <trkpt lat="46.43505" lon="5.60757">
        <ele>627.4</ele>
        <time>2022-07-29T09:33:15Z</time>
      </trkpt>
      <trkpt lat="46.43507" lon="5.60759">
        <ele>627.4</ele>
        <time>2022-07-29T09:33:16Z</time>
      </trkpt>
      <trkpt lat="46.43509" lon="5.60761">
        <ele>627.6</ele>
        <time>2022-07-29T09:33:17Z</time>
      </trkpt>
      <trkpt lat="46.4351" lon="5.60762">
        <ele>627.8</ele>
        <time>2022-07-29T09:33:18Z</time>
      </trkpt>
      <trkpt lat="46.43512" lon="5.60763">
        <ele>627.8</ele>
        <time>2022-07-29T09:33:19Z</time>
      </trkpt>
      <trkpt lat="46.43515" lon="5.60763">
        <ele>628.2</ele>
        <time>2022-07-29T09:33:20Z</time>
      </trkpt>
      <trkpt lat="46.43517" lon="5.60763">
        <ele>628.4</ele>
        <time>2022-07-29T09:33:21Z</time>
      </trkpt>
      <trkpt lat="46.43519" lon="5.60763">
        <ele>628.4</ele>
        <time>2022-07-29T09:33:22Z</time>
      </trkpt>
      <trkpt lat="46.43521" lon="5.60763">
        <ele>628.6</ele>
        <time>2022-07-29T09:33:23Z</time>
      </trkpt>
      <trkpt lat="46.43523" lon="5.60762">
        <ele>628.6</ele>
        <time>2022-07-29T09:33:24Z</time>
      </trkpt>
      <trkpt lat="46.43525" lon="5.60762">
        <ele>628.8</ele>
        <time>2022-07-29T09:33:25Z</time>
      </trkpt>
      <trkpt lat="46.43527" lon="5.60761">
        <ele>628.8</ele>
        <time>2022-07-29T09:33:26Z</time>
      </trkpt>
      <trkpt lat="46.43528" lon="5.60759">
        <ele>628.8</ele>
        <time>2022-07-29T09:33:27Z</time>
      </trkpt>
      <trkpt lat="46.43528" lon="5.60756">
        <ele>629.2</ele>
        <time>2022-07-29T09:33:28Z</time>
      </trkpt>
      <trkpt lat="46.43528" lon="5.60752">
        <ele>629.2</ele>
        <time>2022-07-29T09:33:29Z</time>
      </trkpt>
      <trkpt lat="46.43527" lon="5.60749">
        <ele>629.2</ele>
        <time>2022-07-29T09:33:30Z</time>
      </trkpt>
      <trkpt lat="46.43526" lon="5.60745">
        <ele>629.2</ele>
        <time>2022-07-29T09:33:31Z</time>
      </trkpt>
      <trkpt lat="46.43526" lon="5.60741">
        <ele>629.2</ele>
        <time>2022-07-29T09:33:32Z</time>
      </trkpt>
      <trkpt lat="46.43525" lon="5.60736">
        <ele>629.2</ele>
        <time>2022-07-29T09:33:33Z</time>
      </trkpt>
      <trkpt lat="46.43525" lon="5.60732">
        <ele>629.2</ele>
        <time>2022-07-29T09:33:34Z</time>
      </trkpt>
      <trkpt lat="46.43525" lon="5.60728">
        <ele>628.8</ele>
        <time>2022-07-29T09:33:35Z</time>
      </trkpt>
      <trkpt lat="46.43525" lon="5.60723">
        <ele>628.8</ele>
        <time>2022-07-29T09:33:36Z</time>
      </trkpt>
      <trkpt lat="46.43525" lon="5.60719">
        <ele>628.8</ele>
        <time>2022-07-29T09:33:37Z</time>
      </trkpt>
      <trkpt lat="46.43524" lon="5.60716">
        <ele>628.8</ele>
        <time>2022-07-29T09:33:38Z</time>
      </trkpt>
      <trkpt lat="46.43522" lon="5.60713">
        <ele>628.6</ele>
        <time>2022-07-29T09:33:39Z</time>
      </trkpt>
      <trkpt lat="46.4352" lon="5.60711">
        <ele>628.6</ele>
        <time>2022-07-29T09:33:40Z</time>
      </trkpt>
      <trkpt lat="46.43517" lon="5.6071">
        <ele>628.6</ele>
        <time>2022-07-29T09:33:41Z</time>
      </trkpt>
      <trkpt lat="46.43515" lon="5.6071">
        <ele>628.4</ele>
        <time>2022-07-29T09:33:42Z</time>
      </trkpt>
      <trkpt lat="46.43512" lon="5.60709">
        <ele>628.4</ele>
        <time>2022-07-29T09:33:43Z</time>
      </trkpt>
      <trkpt lat="46.43509" lon="5.60709">
        <ele>628</ele>
        <time>2022-07-29T09:33:44Z</time>
      </trkpt>
      <trkpt lat="46.43506" lon="5.6071">
        <ele>628</ele>
        <time>2022-07-29T09:33:45Z</time>
      </trkpt>
      <trkpt lat="46.43504" lon="5.60712">
        <ele>627.8</ele>
        <time>2022-07-29T09:33:46Z</time>
      </trkpt>
      <trkpt lat="46.43503" lon="5.60715">
        <ele>627.8</ele>
        <time>2022-07-29T09:33:47Z</time>
      </trkpt>
      <trkpt lat="46.43502" lon="5.60719">
        <ele>627.4</ele>
        <time>2022-07-29T09:33:48Z</time>
      </trkpt>
      <trkpt lat="46.43501" lon="5.60722">
        <ele>627.4</ele>
        <time>2022-07-29T09:33:49Z</time>
      </trkpt>
      <trkpt lat="46.435" lon="5.60724">
        <ele>627</ele>
        <time>2022-07-29T09:33:50Z</time>
      </trkpt>
      <trkpt lat="46.43499" lon="5.60726">
        <ele>626.8</ele>
        <time>2022-07-29T09:33:51Z</time>
      </trkpt>
      <trkpt lat="46.43496" lon="5.60727">
        <ele>626.4</ele>
        <time>2022-07-29T09:33:52Z</time>
      </trkpt>
      <trkpt lat="46.43493" lon="5.60727">
        <ele>626.4</ele>
        <time>2022-07-29T09:33:53Z</time>
      </trkpt>
      <trkpt lat="46.4349" lon="5.60725">
        <ele>626.2</ele>
        <time>2022-07-29T09:33:54Z</time>
      </trkpt>
      <trkpt lat="46.43487" lon="5.60722">
        <ele>625.8</ele>
        <time>2022-07-29T09:33:55Z</time>
      </trkpt>
      <trkpt lat="46.43483" lon="5.60718">
        <ele>625.6</ele>
        <time>2022-07-29T09:33:56Z</time>
      </trkpt>
      <trkpt lat="46.43479" lon="5.60714">
        <ele>625.4</ele>
        <time>2022-07-29T09:33:57Z</time>
      </trkpt>
      <trkpt lat="46.43475" lon="5.60709">
        <ele>625.4</ele>
        <time>2022-07-29T09:33:58Z</time>
      </trkpt>
      <trkpt lat="46.43472" lon="5.60703">
        <ele>625</ele>
        <time>2022-07-29T09:33:59Z</time>
      </trkpt>
      <trkpt lat="46.43468" lon="5.60697">
        <ele>625</ele>
        <time>2022-07-29T09:34:00Z</time>
      </trkpt>
      <trkpt lat="46.43465" lon="5.60691">
        <ele>624.6</ele>
        <time>2022-07-29T09:34:01Z</time>
      </trkpt>
      <trkpt lat="46.43462" lon="5.60683">
        <ele>624.4</ele>
        <time>2022-07-29T09:34:02Z</time>
      </trkpt>
      <trkpt lat="46.4346" lon="5.60675">
        <ele>624</ele>
        <time>2022-07-29T09:34:03Z</time>
      </trkpt>
      <trkpt lat="46.43457" lon="5.60667">
        <ele>623.6</ele>
        <time>2022-07-29T09:34:04Z</time>
      </trkpt>
      <trkpt lat="46.43454" lon="5.60657">
        <ele>623</ele>
        <time>2022-07-29T09:34:05Z</time>
      </trkpt>
      <trkpt lat="46.43452" lon="5.60647">
        <ele>622.4</ele>
        <time>2022-07-29T09:34:06Z</time>
      </trkpt>
      <trkpt lat="46.43449" lon="5.60635">
        <ele>621.8</ele>
        <time>2022-07-29T09:34:07Z</time>
      </trkpt>
      <trkpt lat="46.43447" lon="5.60624">
        <ele>621.2</ele>
        <time>2022-07-29T09:34:08Z</time>
      </trkpt>
      <trkpt lat="46.43445" lon="5.60614">
        <ele>620.8</ele>
        <time>2022-07-29T09:34:09Z</time>
      </trkpt>
      <trkpt lat="46.43442" lon="5.60605">
        <ele>620.2</ele>
        <time>2022-07-29T09:34:10Z</time>
      </trkpt>
      <trkpt lat="46.43438" lon="5.60597">
        <ele>619.8</ele>
        <time>2022-07-29T09:34:11Z</time>
      </trkpt>
      <trkpt lat="46.43433" lon="5.60591">
        <ele>619.2</ele>
        <time>2022-07-29T09:34:12Z</time>
      </trkpt>
      <trkpt lat="46.43427" lon="5.60587">
        <ele>618.4</ele>
        <time>2022-07-29T09:34:13Z</time>
      </trkpt>
      <trkpt lat="46.43419" lon="5.60584">
        <ele>617.6</ele>
        <time>2022-07-29T09:34:14Z</time>
      </trkpt>
      <trkpt lat="46.4341" lon="5.60583">
        <ele>616.8</ele>
        <time>2022-07-29T09:34:15Z</time>
      </trkpt>
      <trkpt lat="46.43401" lon="5.60583">
        <ele>615.8</ele>
        <time>2022-07-29T09:34:16Z</time>
      </trkpt>
      <trkpt lat="46.43391" lon="5.60586">
        <ele>614.8</ele>
        <time>2022-07-29T09:34:17Z</time>
      </trkpt>
      <trkpt lat="46.43381" lon="5.6059">
        <ele>613.6</ele>
        <time>2022-07-29T09:34:18Z</time>
      </trkpt>
      <trkpt lat="46.43369" lon="5.60595">
        <ele>612.4</ele>
        <time>2022-07-29T09:34:19Z</time>
      </trkpt>
      <trkpt lat="46.43358" lon="5.60601">
        <ele>611.4</ele>
        <time>2022-07-29T09:34:20Z</time>
      </trkpt>
      <trkpt lat="46.43347" lon="5.60606">
        <ele>610.2</ele>
        <time>2022-07-29T09:34:21Z</time>
      </trkpt>
      <trkpt lat="46.43337" lon="5.6061">
        <ele>609</ele>
        <time>2022-07-29T09:34:22Z</time>
      </trkpt>
      <trkpt lat="46.43326" lon="5.60613">
        <ele>608</ele>
        <time>2022-07-29T09:34:23Z</time>
      </trkpt>
      <trkpt lat="46.43316" lon="5.60614">
        <ele>607</ele>
        <time>2022-07-29T09:34:24Z</time>
      </trkpt>
      <trkpt lat="46.43305" lon="5.60614">
        <ele>605.8</ele>
        <time>2022-07-29T09:34:25Z</time>
      </trkpt>
      <trkpt lat="46.43295" lon="5.60611">
        <ele>605</ele>
        <time>2022-07-29T09:34:26Z</time>
      </trkpt>
      <trkpt lat="46.43284" lon="5.60606">
        <ele>604.2</ele>
        <time>2022-07-29T09:34:27Z</time>
      </trkpt>
      <trkpt lat="46.43274" lon="5.60599">
        <ele>603.2</ele>
        <time>2022-07-29T09:34:28Z</time>
      </trkpt>
      <trkpt lat="46.43265" lon="5.60592">
        <ele>602.4</ele>
        <time>2022-07-29T09:34:29Z</time>
      </trkpt>
      <trkpt lat="46.43256" lon="5.60585">
        <ele>601.6</ele>
        <time>2022-07-29T09:34:30Z</time>
      </trkpt>
      <trkpt lat="46.43248" lon="5.60578">
        <ele>600.6</ele>
        <time>2022-07-29T09:34:31Z</time>
      </trkpt>
      <trkpt lat="46.4324" lon="5.60569">
        <ele>599.8</ele>
        <time>2022-07-29T09:34:32Z</time>
      </trkpt>
      <trkpt lat="46.43232" lon="5.60559">
        <ele>598.8</ele>
        <time>2022-07-29T09:34:33Z</time>
      </trkpt>
      <trkpt lat="46.43225" lon="5.60548">
        <ele>598</ele>
        <time>2022-07-29T09:34:34Z</time>
      </trkpt>
      <trkpt lat="46.43218" lon="5.60536">
        <ele>597.2</ele>
        <time>2022-07-29T09:34:35Z</time>
      </trkpt>
      <trkpt lat="46.43212" lon="5.60524">
        <ele>596.2</ele>
        <time>2022-07-29T09:34:36Z</time>
      </trkpt>
      <trkpt lat="46.43206" lon="5.60511">
        <ele>595.4</ele>
        <time>2022-07-29T09:34:37Z</time>
      </trkpt>
      <trkpt lat="46.432" lon="5.60497">
        <ele>594.4</ele>
        <time>2022-07-29T09:34:38Z</time>
      </trkpt>
      <trkpt lat="46.43194" lon="5.60483">
        <ele>593.4</ele>
        <time>2022-07-29T09:34:39Z</time>
      </trkpt>
      <trkpt lat="46.43187" lon="5.60468">
        <ele>592.4</ele>
        <time>2022-07-29T09:34:40Z</time>
      </trkpt>
      <trkpt lat="46.4318" lon="5.60453">
        <ele>591.4</ele>
        <time>2022-07-29T09:34:41Z</time>
      </trkpt>
      <trkpt lat="46.43174" lon="5.60438">
        <ele>590.8</ele>
        <time>2022-07-29T09:34:42Z</time>
      </trkpt>
      <trkpt lat="46.43168" lon="5.60422">
        <ele>590</ele>
        <time>2022-07-29T09:34:43Z</time>
      </trkpt>
      <trkpt lat="46.43162" lon="5.60406">
        <ele>589.2</ele>
        <time>2022-07-29T09:34:44Z</time>
      </trkpt>
      <trkpt lat="46.43156" lon="5.6039">
        <ele>588.4</ele>
        <time>2022-07-29T09:34:45Z</time>
      </trkpt>
      <trkpt lat="46.43151" lon="5.60374">
        <ele>587.6</ele>
        <time>2022-07-29T09:34:46Z</time>
      </trkpt>
      <trkpt lat="46.43145" lon="5.60358">
        <ele>586.8</ele>
        <time>2022-07-29T09:34:47Z</time>
      </trkpt>
      <trkpt lat="46.43139" lon="5.60341">
        <ele>586</ele>
        <time>2022-07-29T09:34:48Z</time>
      </trkpt>
      <trkpt lat="46.43133" lon="5.60325">
        <ele>585.2</ele>
        <time>2022-07-29T09:34:49Z</time>
      </trkpt>
      <trkpt lat="46.43128" lon="5.60308">
        <ele>584.4</ele>
        <time>2022-07-29T09:34:50Z</time>
      </trkpt>
      <trkpt lat="46.43124" lon="5.60291">
        <ele>583.8</ele>
        <time>2022-07-29T09:34:51Z</time>
      </trkpt>
      <trkpt lat="46.4312" lon="5.60276">
        <ele>583</ele>
        <time>2022-07-29T09:34:52Z</time>
      </trkpt>
      <trkpt lat="46.43116" lon="5.60265">
        <ele>582.6</ele>
        <time>2022-07-29T09:34:53Z</time>
      </trkpt>
      <trkpt lat="46.43111" lon="5.60257">
        <ele>581.8</ele>
        <time>2022-07-29T09:34:54Z</time>
      </trkpt>
      <trkpt lat="46.43104" lon="5.60252">
        <ele>581.2</ele>
        <time>2022-07-29T09:34:55Z</time>
      </trkpt>
      <trkpt lat="46.43096" lon="5.60252">
        <ele>580.6</ele>
        <time>2022-07-29T09:34:56Z</time>
      </trkpt>
      <trkpt lat="46.43088" lon="5.60255">
        <ele>579.8</ele>
        <time>2022-07-29T09:34:57Z</time>
      </trkpt>
      <trkpt lat="46.4308" lon="5.60261">
        <ele>579</ele>
        <time>2022-07-29T09:34:58Z</time>
      </trkpt>
      <trkpt lat="46.43071" lon="5.60267">
        <ele>578.4</ele>
        <time>2022-07-29T09:34:59Z</time>
      </trkpt>
      <trkpt lat="46.43062" lon="5.60272">
        <ele>577.6</ele>
        <time>2022-07-29T09:35:00Z</time>
      </trkpt>
      <trkpt lat="46.43051" lon="5.60274">
        <ele>577</ele>
        <time>2022-07-29T09:35:01Z</time>
      </trkpt>
      <trkpt lat="46.43041" lon="5.60273">
        <ele>576.2</ele>
        <time>2022-07-29T09:35:02Z</time>
      </trkpt>
      <trkpt lat="46.43031" lon="5.60268">
        <ele>575.6</ele>
        <time>2022-07-29T09:35:03Z</time>
      </trkpt>
      <trkpt lat="46.43021" lon="5.60261">
        <ele>575</ele>
        <time>2022-07-29T09:35:04Z</time>
      </trkpt>
      <trkpt lat="46.43012" lon="5.60252">
        <ele>574.2</ele>
        <time>2022-07-29T09:35:05Z</time>
      </trkpt>
      <trkpt lat="46.43003" lon="5.60243">
        <ele>573.6</ele>
        <time>2022-07-29T09:35:06Z</time>
      </trkpt>
      <trkpt lat="46.42993" lon="5.60236">
        <ele>572.8</ele>
        <time>2022-07-29T09:35:07Z</time>
      </trkpt>
      <trkpt lat="46.42983" lon="5.6023">
        <ele>572</ele>
        <time>2022-07-29T09:35:08Z</time>
      </trkpt>
      <trkpt lat="46.42972" lon="5.60226">
        <ele>571.4</ele>
        <time>2022-07-29T09:35:09Z</time>
      </trkpt>
      <trkpt lat="46.4296" lon="5.60222">
        <ele>570.6</ele>
        <time>2022-07-29T09:35:10Z</time>
      </trkpt>
      <trkpt lat="46.42949" lon="5.60219">
        <ele>569.8</ele>
        <time>2022-07-29T09:35:11Z</time>
      </trkpt>
      <trkpt lat="46.42925" lon="5.6021">
        <ele>569</ele>
        <time>2022-07-29T09:35:12Z</time>
      </trkpt>
      <trkpt lat="46.42914" lon="5.60205">
        <ele>568.2</ele>
        <time>2022-07-29T09:35:13Z</time>
      </trkpt>
      <trkpt lat="46.42903" lon="5.60201">
        <ele>567.4</ele>
        <time>2022-07-29T09:35:14Z</time>
      </trkpt>
      <trkpt lat="46.42892" lon="5.60196">
        <ele>566.6</ele>
        <time>2022-07-29T09:35:15Z</time>
      </trkpt>
      <trkpt lat="46.42881" lon="5.60193">
        <ele>565.8</ele>
        <time>2022-07-29T09:35:16Z</time>
      </trkpt>
      <trkpt lat="46.4287" lon="5.60191">
        <ele>565.2</ele>
        <time>2022-07-29T09:35:17Z</time>
      </trkpt>
      <trkpt lat="46.42859" lon="5.6019">
        <ele>564.4</ele>
        <time>2022-07-29T09:35:18Z</time>
      </trkpt>
      <trkpt lat="46.42848" lon="5.60191">
        <ele>563.6</ele>
        <time>2022-07-29T09:35:19Z</time>
      </trkpt>
      <trkpt lat="46.42838" lon="5.60194">
        <ele>562.8</ele>
        <time>2022-07-29T09:35:20Z</time>
      </trkpt>
      <trkpt lat="46.42828" lon="5.60201">
        <ele>562.2</ele>
        <time>2022-07-29T09:35:21Z</time>
      </trkpt>
      <trkpt lat="46.42818" lon="5.60209">
        <ele>561.4</ele>
        <time>2022-07-29T09:35:22Z</time>
      </trkpt>
      <trkpt lat="46.42808" lon="5.60218">
        <ele>560.8</ele>
        <time>2022-07-29T09:35:23Z</time>
      </trkpt>
      <trkpt lat="46.42798" lon="5.60226">
        <ele>560</ele>
        <time>2022-07-29T09:35:24Z</time>
      </trkpt>
      <trkpt lat="46.42787" lon="5.60233">
        <ele>559.2</ele>
        <time>2022-07-29T09:35:25Z</time>
      </trkpt>
      <trkpt lat="46.42774" lon="5.60238">
        <ele>558.4</ele>
        <time>2022-07-29T09:35:26Z</time>
      </trkpt>
      <trkpt lat="46.42761" lon="5.60239">
        <ele>557.8</ele>
        <time>2022-07-29T09:35:27Z</time>
      </trkpt>
      <trkpt lat="46.42749" lon="5.60238">
        <ele>557</ele>
        <time>2022-07-29T09:35:28Z</time>
      </trkpt>
      <trkpt lat="46.42738" lon="5.60238">
        <ele>556.4</ele>
        <time>2022-07-29T09:35:29Z</time>
      </trkpt>
      <trkpt lat="46.42727" lon="5.60236">
        <ele>555.6</ele>
        <time>2022-07-29T09:35:30Z</time>
      </trkpt>
      <trkpt lat="46.42716" lon="5.60236">
        <ele>554.8</ele>
        <time>2022-07-29T09:35:31Z</time>
      </trkpt>
      <trkpt lat="46.42705" lon="5.60236">
        <ele>554</ele>
        <time>2022-07-29T09:35:32Z</time>
      </trkpt>
      <trkpt lat="46.42694" lon="5.60236">
        <ele>553.2</ele>
        <time>2022-07-29T09:35:33Z</time>
      </trkpt>
      <trkpt lat="46.42684" lon="5.60236">
        <ele>552.6</ele>
        <time>2022-07-29T09:35:34Z</time>
      </trkpt>
      <trkpt lat="46.42674" lon="5.60237">
        <ele>551.8</ele>
        <time>2022-07-29T09:35:35Z</time>
      </trkpt>
      <trkpt lat="46.42666" lon="5.60239">
        <ele>551.2</ele>
        <time>2022-07-29T09:35:36Z</time>
      </trkpt>
      <trkpt lat="46.42658" lon="5.60241">
        <ele>550.4</ele>
        <time>2022-07-29T09:35:37Z</time>
      </trkpt>
      <trkpt lat="46.4265" lon="5.60242">
        <ele>549.8</ele>
        <time>2022-07-29T09:35:38Z</time>
      </trkpt>
      <trkpt lat="46.42642" lon="5.60243">
        <ele>549.2</ele>
        <time>2022-07-29T09:35:39Z</time>
      </trkpt>
      <trkpt lat="46.42635" lon="5.60242">
        <ele>548.6</ele>
        <time>2022-07-29T09:35:40Z</time>
      </trkpt>
      <trkpt lat="46.42628" lon="5.6024">
        <ele>548.2</ele>
        <time>2022-07-29T09:35:41Z</time>
      </trkpt>
      <trkpt lat="46.42622" lon="5.60237">
        <ele>547.6</ele>
        <time>2022-07-29T09:35:42Z</time>
      </trkpt>
      <trkpt lat="46.42617" lon="5.60234">
        <ele>547</ele>
        <time>2022-07-29T09:35:43Z</time>
      </trkpt>
      <trkpt lat="46.42612" lon="5.6023">
        <ele>546.4</ele>
        <time>2022-07-29T09:35:44Z</time>
      </trkpt>
      <trkpt lat="46.42608" lon="5.60226">
        <ele>546</ele>
        <time>2022-07-29T09:35:45Z</time>
      </trkpt>
      <trkpt lat="46.42605" lon="5.60221">
        <ele>545.6</ele>
        <time>2022-07-29T09:35:46Z</time>
      </trkpt>
      <trkpt lat="46.42602" lon="5.60217">
        <ele>545.2</ele>
        <time>2022-07-29T09:35:47Z</time>
      </trkpt>
      <trkpt lat="46.42599" lon="5.60213">
        <ele>545</ele>
        <time>2022-07-29T09:35:48Z</time>
      </trkpt>
      <trkpt lat="46.42597" lon="5.60209">
        <ele>544.8</ele>
        <time>2022-07-29T09:35:49Z</time>
      </trkpt>
      <trkpt lat="46.42594" lon="5.60205">
        <ele>544.4</ele>
        <time>2022-07-29T09:35:50Z</time>
      </trkpt>
      <trkpt lat="46.42591" lon="5.60202">
        <ele>544.2</ele>
        <time>2022-07-29T09:35:51Z</time>
      </trkpt>
      <trkpt lat="46.42587" lon="5.60198">
        <ele>544.2</ele>
        <time>2022-07-29T09:35:52Z</time>
      </trkpt>
      <trkpt lat="46.42584" lon="5.60195">
        <ele>543.8</ele>
        <time>2022-07-29T09:35:53Z</time>
      </trkpt>
      <trkpt lat="46.42582" lon="5.60191">
        <ele>543.4</ele>
        <time>2022-07-29T09:35:54Z</time>
      </trkpt>
      <trkpt lat="46.4258" lon="5.60188">
        <ele>543.2</ele>
        <time>2022-07-29T09:35:55Z</time>
      </trkpt>
      <trkpt lat="46.42579" lon="5.60184">
        <ele>543</ele>
        <time>2022-07-29T09:35:56Z</time>
      </trkpt>
      <trkpt lat="46.42578" lon="5.60181">
        <ele>543</ele>
        <time>2022-07-29T09:35:57Z</time>
      </trkpt>
      <trkpt lat="46.42577" lon="5.60178">
        <ele>542.6</ele>
        <time>2022-07-29T09:35:58Z</time>
      </trkpt>
      <trkpt lat="46.42576" lon="5.60177">
        <ele>542.6</ele>
        <time>2022-07-29T09:35:59Z</time>
      </trkpt>
      <trkpt lat="46.42576" lon="5.60177">
        <ele>542.4</ele>
        <time>2022-07-29T09:36:00Z</time>
      </trkpt>
      <trkpt lat="46.42576" lon="5.60176">
        <ele>542.4</ele>
        <time>2022-07-29T09:36:01Z</time>
      </trkpt>
      <trkpt lat="46.42576" lon="5.60176">
        <ele>542.4</ele>
        <time>2022-07-29T09:36:02Z</time>
      </trkpt>
      <trkpt lat="46.42571" lon="5.60174">
        <ele>542.4</ele>
        <time>2022-07-29T09:36:05Z</time>
      </trkpt>
      <trkpt lat="46.42571" lon="5.60175">
        <ele>542.6</ele>
        <time>2022-07-29T09:36:06Z</time>
      </trkpt>
      <trkpt lat="46.4257" lon="5.60175">
        <ele>542.6</ele>
        <time>2022-07-29T09:36:07Z</time>
      </trkpt>
      <trkpt lat="46.42569" lon="5.60175">
        <ele>542.6</ele>
        <time>2022-07-29T09:36:08Z</time>
      </trkpt>
      <trkpt lat="46.42568" lon="5.60175">
        <ele>542.8</ele>
        <time>2022-07-29T09:36:09Z</time>
      </trkpt>
      <trkpt lat="46.42568" lon="5.60175">
        <ele>542.8</ele>
        <time>2022-07-29T09:36:10Z</time>
      </trkpt>
      <trkpt lat="46.42567" lon="5.60175">
        <ele>543.2</ele>
        <time>2022-07-29T09:36:11Z</time>
      </trkpt>
      <trkpt lat="46.42567" lon="5.60175">
        <ele>543.2</ele>
        <time>2022-07-29T09:36:12Z</time>
      </trkpt>
      <trkpt lat="46.42567" lon="5.60175">
        <ele>543.6</ele>
        <time>2022-07-29T09:36:13Z</time>
      </trkpt>
      <trkpt lat="46.42567" lon="5.60175">
        <ele>544</ele>
        <time>2022-07-29T09:36:17Z</time>
      </trkpt>
      <trkpt lat="46.42567" lon="5.60175">
        <ele>544.4</ele>
        <time>2022-07-29T09:36:18Z</time>
      </trkpt>
      <trkpt lat="46.42567" lon="5.60175">
        <ele>544.4</ele>
        <time>2022-07-29T09:36:19Z</time>
      </trkpt>
      <trkpt lat="46.42557" lon="5.60176">
        <ele>545.2</ele>
        <time>2022-07-29T09:36:22Z</time>
      </trkpt>
      <trkpt lat="46.42556" lon="5.60176">
        <ele>545.2</ele>
        <time>2022-07-29T09:36:23Z</time>
      </trkpt>
      <trkpt lat="46.42555" lon="5.60177">
        <ele>545.6</ele>
        <time>2022-07-29T09:36:24Z</time>
      </trkpt>
      <trkpt lat="46.42554" lon="5.60177">
        <ele>545.8</ele>
        <time>2022-07-29T09:36:25Z</time>
      </trkpt>
      <trkpt lat="46.42554" lon="5.60177">
        <ele>546</ele>
        <time>2022-07-29T09:36:26Z</time>
      </trkpt>
      <trkpt lat="46.42554" lon="5.60177">
        <ele>547.6</ele>
        <time>2022-07-29T09:36:34Z</time>
      </trkpt>
      <trkpt lat="46.42554" lon="5.60177">
        <ele>547.8</ele>
        <time>2022-07-29T09:36:35Z</time>
      </trkpt>
      <trkpt lat="46.42545" lon="5.60178">
        <ele>548.2</ele>
        <time>2022-07-29T09:36:37Z</time>
      </trkpt>
      <trkpt lat="46.42544" lon="5.60179">
        <ele>548.2</ele>
        <time>2022-07-29T09:36:38Z</time>
      </trkpt>
      <trkpt lat="46.42543" lon="5.60179">
        <ele>548.4</ele>
        <time>2022-07-29T09:36:39Z</time>
      </trkpt>
      <trkpt lat="46.42542" lon="5.6018">
        <ele>548.4</ele>
        <time>2022-07-29T09:36:40Z</time>
      </trkpt>
      <trkpt lat="46.42542" lon="5.6018">
        <ele>548.4</ele>
        <time>2022-07-29T09:36:41Z</time>
      </trkpt>
      <trkpt lat="46.42542" lon="5.6018">
        <ele>549.6</ele>
        <time>2022-07-29T09:36:47Z</time>
      </trkpt>
      <trkpt lat="46.42542" lon="5.6018">
        <ele>550</ele>
        <time>2022-07-29T09:36:48Z</time>
      </trkpt>
      <trkpt lat="46.42533" lon="5.6018">
        <ele>550.2</ele>
        <time>2022-07-29T09:36:51Z</time>
      </trkpt>
      <trkpt lat="46.42532" lon="5.6018">
        <ele>550.6</ele>
        <time>2022-07-29T09:36:52Z</time>
      </trkpt>
      <trkpt lat="46.42531" lon="5.6018">
        <ele>550.6</ele>
        <time>2022-07-29T09:36:53Z</time>
      </trkpt>
      <trkpt lat="46.4253" lon="5.6018">
        <ele>551</ele>
        <time>2022-07-29T09:36:54Z</time>
      </trkpt>
      <trkpt lat="46.4253" lon="5.6018">
        <ele>551</ele>
        <time>2022-07-29T09:36:55Z</time>
      </trkpt>
      <trkpt lat="46.4253" lon="5.6018">
        <ele>551.2</ele>
        <time>2022-07-29T09:36:57Z</time>
      </trkpt>
      <trkpt lat="46.4253" lon="5.6018">
        <ele>551.4</ele>
        <time>2022-07-29T09:36:58Z</time>
      </trkpt>
      <trkpt lat="46.42521" lon="5.6018">
        <ele>553.4</ele>
        <time>2022-07-29T09:37:08Z</time>
      </trkpt>
      <trkpt lat="46.4252" lon="5.6018">
        <ele>553.6</ele>
        <time>2022-07-29T09:37:09Z</time>
      </trkpt>
      <trkpt lat="46.4252" lon="5.6018">
        <ele>553.6</ele>
        <time>2022-07-29T09:37:10Z</time>
      </trkpt>
      <trkpt lat="46.42519" lon="5.6018">
        <ele>553.8</ele>
        <time>2022-07-29T09:37:11Z</time>
      </trkpt>
      <trkpt lat="46.42519" lon="5.6018">
        <ele>553.8</ele>
        <time>2022-07-29T09:37:12Z</time>
      </trkpt>
      <trkpt lat="46.42519" lon="5.6018">
        <ele>554.6</ele>
        <time>2022-07-29T09:37:16Z</time>
      </trkpt>
      <trkpt lat="46.42519" lon="5.6018">
        <ele>555</ele>
        <time>2022-07-29T09:37:17Z</time>
      </trkpt>
      <trkpt lat="46.42509" lon="5.6018">
        <ele>555.6</ele>
        <time>2022-07-29T09:37:21Z</time>
      </trkpt>
      <trkpt lat="46.42509" lon="5.6018">
        <ele>555.8</ele>
        <time>2022-07-29T09:37:22Z</time>
      </trkpt>
      <trkpt lat="46.42508" lon="5.6018">
        <ele>555.8</ele>
        <time>2022-07-29T09:37:23Z</time>
      </trkpt>
      <trkpt lat="46.42507" lon="5.6018">
        <ele>556</ele>
        <time>2022-07-29T09:37:24Z</time>
      </trkpt>
      <trkpt lat="46.42507" lon="5.6018">
        <ele>556</ele>
        <time>2022-07-29T09:37:25Z</time>
      </trkpt>
      <trkpt lat="46.42507" lon="5.6018">
        <ele>556.8</ele>
        <time>2022-07-29T09:37:31Z</time>
      </trkpt>
      <trkpt lat="46.42507" lon="5.6018">
        <ele>557.2</ele>
        <time>2022-07-29T09:37:32Z</time>
      </trkpt>
      <trkpt lat="46.42498" lon="5.60182">
        <ele>557.6</ele>
        <time>2022-07-29T09:37:36Z</time>
      </trkpt>
      <trkpt lat="46.42497" lon="5.60183">
        <ele>557.6</ele>
        <time>2022-07-29T09:37:37Z</time>
      </trkpt>
      <trkpt lat="46.42497" lon="5.60183">
        <ele>558</ele>
        <time>2022-07-29T09:37:38Z</time>
      </trkpt>
      <trkpt lat="46.42496" lon="5.60183">
        <ele>558</ele>
        <time>2022-07-29T09:37:39Z</time>
      </trkpt>
      <trkpt lat="46.42496" lon="5.60183">
        <ele>558.2</ele>
        <time>2022-07-29T09:37:40Z</time>
      </trkpt>
      <trkpt lat="46.42496" lon="5.60183">
        <ele>558.2</ele>
        <time>2022-07-29T09:37:42Z</time>
      </trkpt>
      <trkpt lat="46.42496" lon="5.60183">
        <ele>558.2</ele>
        <time>2022-07-29T09:37:43Z</time>
      </trkpt>
      <trkpt lat="46.42496" lon="5.60183">
        <ele>558.4</ele>
        <time>2022-07-29T09:37:44Z</time>
      </trkpt>
      <trkpt lat="46.42496" lon="5.60183">
        <ele>558.4</ele>
        <time>2022-07-29T09:37:50Z</time>
      </trkpt>
      <trkpt lat="46.42496" lon="5.60183">
        <ele>558.4</ele>
        <time>2022-07-29T09:37:51Z</time>
      </trkpt>
      <trkpt lat="46.42496" lon="5.60183">
        <ele>558.4</ele>
        <time>2022-07-29T09:37:52Z</time>
      </trkpt>
      <trkpt lat="46.42496" lon="5.60183">
        <ele>558.4</ele>
        <time>2022-07-29T09:37:53Z</time>
      </trkpt>
      <trkpt lat="46.42496" lon="5.60183">
        <ele>558.4</ele>
        <time>2022-07-29T09:37:54Z</time>
      </trkpt>
      <trkpt lat="46.42496" lon="5.60183">
        <ele>558.4</ele>
        <time>2022-07-29T09:37:55Z</time>
      </trkpt>
      <trkpt lat="46.42496" lon="5.60183">
        <ele>558.4</ele>
        <time>2022-07-29T09:37:56Z</time>
      </trkpt>
      <trkpt lat="46.42496" lon="5.60183">
        <ele>558.4</ele>
        <time>2022-07-29T09:37:57Z</time>
      </trkpt>
      <trkpt lat="46.42496" lon="5.60183">
        <ele>558.4</ele>
        <time>2022-07-29T09:37:58Z</time>
      </trkpt>
      <trkpt lat="46.42496" lon="5.60183">
        <ele>558.4</ele>
        <time>2022-07-29T09:37:59Z</time>
      </trkpt>
      <trkpt lat="46.42496" lon="5.60183">
        <ele>558.2</ele>
        <time>2022-07-29T09:38:00Z</time>
      </trkpt>
      <trkpt lat="46.42496" lon="5.60183">
        <ele>558.2</ele>
        <time>2022-07-29T09:38:01Z</time>
      </trkpt>
      <trkpt lat="46.42496" lon="5.60183">
        <ele>558.2</ele>
        <time>2022-07-29T09:38:02Z</time>
      </trkpt>
      <trkpt lat="46.42496" lon="5.60183">
        <ele>557.6</ele>
        <time>2022-07-29T09:38:07Z</time>
      </trkpt>
      <trkpt lat="46.42496" lon="5.60183">
        <ele>557.6</ele>
        <time>2022-07-29T09:38:08Z</time>
      </trkpt>
      <trkpt lat="46.42496" lon="5.60183">
        <ele>557.4</ele>
        <time>2022-07-29T09:38:11Z</time>
      </trkpt>
      <trkpt lat="46.42496" lon="5.60183">
        <ele>557</ele>
        <time>2022-07-29T09:38:12Z</time>
      </trkpt>
      <trkpt lat="46.42496" lon="5.60183">
        <ele>556.4</ele>
        <time>2022-07-29T09:38:19Z</time>
      </trkpt>
      <trkpt lat="46.42496" lon="5.60183">
        <ele>556</ele>
        <time>2022-07-29T09:38:20Z</time>
      </trkpt>
      <trkpt lat="46.42506" lon="5.6018">
        <ele>556</ele>
        <time>2022-07-29T09:38:21Z</time>
      </trkpt>
      <trkpt lat="46.42506" lon="5.6018">
        <ele>555.6</ele>
        <time>2022-07-29T09:38:22Z</time>
      </trkpt>
      <trkpt lat="46.42507" lon="5.6018">
        <ele>555.6</ele>
        <time>2022-07-29T09:38:23Z</time>
      </trkpt>
      <trkpt lat="46.42507" lon="5.6018">
        <ele>555.4</ele>
        <time>2022-07-29T09:38:24Z</time>
      </trkpt>
      <trkpt lat="46.42507" lon="5.6018">
        <ele>555.2</ele>
        <time>2022-07-29T09:38:25Z</time>
      </trkpt>
      <trkpt lat="46.42507" lon="5.6018">
        <ele>555.2</ele>
        <time>2022-07-29T09:38:26Z</time>
      </trkpt>
      <trkpt lat="46.42507" lon="5.6018">
        <ele>554.2</ele>
        <time>2022-07-29T09:38:29Z</time>
      </trkpt>
      <trkpt lat="46.42507" lon="5.6018">
        <ele>554.2</ele>
        <time>2022-07-29T09:38:30Z</time>
      </trkpt>
      <trkpt lat="46.42507" lon="5.6018">
        <ele>552.8</ele>
        <time>2022-07-29T09:38:37Z</time>
      </trkpt>
      <trkpt lat="46.42516" lon="5.60176">
        <ele>552.6</ele>
        <time>2022-07-29T09:38:38Z</time>
      </trkpt>
      <trkpt lat="46.42517" lon="5.60176">
        <ele>552.6</ele>
        <time>2022-07-29T09:38:39Z</time>
      </trkpt>
      <trkpt lat="46.42517" lon="5.60176">
        <ele>552.2</ele>
        <time>2022-07-29T09:38:40Z</time>
      </trkpt>
      <trkpt lat="46.42518" lon="5.60175">
        <ele>552.2</ele>
        <time>2022-07-29T09:38:41Z</time>
      </trkpt>
      <trkpt lat="46.42518" lon="5.60175">
        <ele>551.8</ele>
        <time>2022-07-29T09:38:42Z</time>
      </trkpt>
      <trkpt lat="46.42518" lon="5.60175">
        <ele>550.2</ele>
        <time>2022-07-29T09:38:52Z</time>
      </trkpt>
      <trkpt lat="46.42527" lon="5.60174">
        <ele>550</ele>
        <time>2022-07-29T09:38:53Z</time>
      </trkpt>
      <trkpt lat="46.42528" lon="5.60174">
        <ele>549.8</ele>
        <time>2022-07-29T09:38:54Z</time>
      </trkpt>
      <trkpt lat="46.42529" lon="5.60174">
        <ele>549.6</ele>
        <time>2022-07-29T09:38:55Z</time>
      </trkpt>
      <trkpt lat="46.42529" lon="5.60174">
        <ele>549.6</ele>
        <time>2022-07-29T09:38:56Z</time>
      </trkpt>
      <trkpt lat="46.42529" lon="5.60174">
        <ele>549.4</ele>
        <time>2022-07-29T09:38:57Z</time>
      </trkpt>
      <trkpt lat="46.42529" lon="5.60174">
        <ele>548.8</ele>
        <time>2022-07-29T09:39:01Z</time>
      </trkpt>
      <trkpt lat="46.42529" lon="5.60174">
        <ele>548.4</ele>
        <time>2022-07-29T09:39:02Z</time>
      </trkpt>
      <trkpt lat="46.42529" lon="5.60174">
        <ele>548.4</ele>
        <time>2022-07-29T09:39:03Z</time>
      </trkpt>
      <trkpt lat="46.42538" lon="5.60173">
        <ele>547.6</ele>
        <time>2022-07-29T09:39:06Z</time>
      </trkpt>
      <trkpt lat="46.42539" lon="5.60173">
        <ele>547.6</ele>
        <time>2022-07-29T09:39:07Z</time>
      </trkpt>
      <trkpt lat="46.4254" lon="5.60174">
        <ele>547.4</ele>
        <time>2022-07-29T09:39:08Z</time>
      </trkpt>
      <trkpt lat="46.42541" lon="5.60174">
        <ele>547</ele>
        <time>2022-07-29T09:39:09Z</time>
      </trkpt>
      <trkpt lat="46.42541" lon="5.60174">
        <ele>546.8</ele>
        <time>2022-07-29T09:39:10Z</time>
      </trkpt>
      <trkpt lat="46.42551" lon="5.60172">
        <ele>545</ele>
        <time>2022-07-29T09:39:20Z</time>
      </trkpt>
      <trkpt lat="46.42551" lon="5.60172">
        <ele>544.6</ele>
        <time>2022-07-29T09:39:21Z</time>
      </trkpt>
      <trkpt lat="46.42552" lon="5.60171">
        <ele>544.4</ele>
        <time>2022-07-29T09:39:22Z</time>
      </trkpt>
      <trkpt lat="46.42553" lon="5.60171">
        <ele>544.4</ele>
        <time>2022-07-29T09:39:23Z</time>
      </trkpt>
      <trkpt lat="46.42553" lon="5.60171">
        <ele>544</ele>
        <time>2022-07-29T09:39:24Z</time>
      </trkpt>
      <trkpt lat="46.42562" lon="5.6017">
        <ele>542.6</ele>
        <time>2022-07-29T09:39:32Z</time>
      </trkpt>
      <trkpt lat="46.42564" lon="5.6017">
        <ele>542.2</ele>
        <time>2022-07-29T09:39:33Z</time>
      </trkpt>
      <trkpt lat="46.42565" lon="5.6017">
        <ele>542.2</ele>
        <time>2022-07-29T09:39:34Z</time>
      </trkpt>
      <trkpt lat="46.42566" lon="5.6017">
        <ele>541.8</ele>
        <time>2022-07-29T09:39:35Z</time>
      </trkpt>
      <trkpt lat="46.42566" lon="5.6017">
        <ele>541.8</ele>
        <time>2022-07-29T09:39:36Z</time>
      </trkpt>
      <trkpt lat="46.42566" lon="5.6017">
        <ele>541.6</ele>
        <time>2022-07-29T09:39:37Z</time>
      </trkpt>
      <trkpt lat="46.42566" lon="5.6017">
        <ele>541.6</ele>
        <time>2022-07-29T09:39:38Z</time>
      </trkpt>
      <trkpt lat="46.42566" lon="5.6017">
        <ele>541.4</ele>
        <time>2022-07-29T09:39:39Z</time>
      </trkpt>
      <trkpt lat="46.42566" lon="5.6017">
        <ele>541.4</ele>
        <time>2022-07-29T09:39:40Z</time>
      </trkpt>
      <trkpt lat="46.42566" lon="5.6017">
        <ele>541.4</ele>
        <time>2022-07-29T09:39:41Z</time>
      </trkpt>
      <trkpt lat="46.42566" lon="5.6017">
        <ele>541.4</ele>
        <time>2022-07-29T09:39:42Z</time>
      </trkpt>
      <trkpt lat="46.4257" lon="5.60171">
        <ele>541.4</ele>
        <time>2022-07-29T09:39:43Z</time>
      </trkpt>
      <trkpt lat="46.42572" lon="5.6017">
        <ele>541.2</ele>
        <time>2022-07-29T09:39:44Z</time>
      </trkpt>
      <trkpt lat="46.42575" lon="5.6017">
        <ele>541.2</ele>
        <time>2022-07-29T09:39:45Z</time>
      </trkpt>
      <trkpt lat="46.42578" lon="5.6017">
        <ele>541</ele>
        <time>2022-07-29T09:39:46Z</time>
      </trkpt>
      <trkpt lat="46.42582" lon="5.60171">
        <ele>541</ele>
        <time>2022-07-29T09:39:47Z</time>
      </trkpt>
      <trkpt lat="46.42585" lon="5.60172">
        <ele>540.6</ele>
        <time>2022-07-29T09:39:48Z</time>
      </trkpt>
      <trkpt lat="46.42588" lon="5.60175">
        <ele>540.4</ele>
        <time>2022-07-29T09:39:49Z</time>
      </trkpt>
      <trkpt lat="46.42592" lon="5.60179">
        <ele>540.4</ele>
        <time>2022-07-29T09:39:50Z</time>
      </trkpt>
      <trkpt lat="46.42596" lon="5.60183">
        <ele>540</ele>
        <time>2022-07-29T09:39:51Z</time>
      </trkpt>
      <trkpt lat="46.426" lon="5.60188">
        <ele>539.8</ele>
        <time>2022-07-29T09:39:52Z</time>
      </trkpt>
      <trkpt lat="46.42604" lon="5.60191">
        <ele>539.4</ele>
        <time>2022-07-29T09:39:53Z</time>
      </trkpt>
      <trkpt lat="46.42609" lon="5.60194">
        <ele>539.2</ele>
        <time>2022-07-29T09:39:54Z</time>
      </trkpt>
      <trkpt lat="46.42614" lon="5.60195">
        <ele>539</ele>
        <time>2022-07-29T09:39:55Z</time>
      </trkpt>
      <trkpt lat="46.4262" lon="5.60194">
        <ele>538.6</ele>
        <time>2022-07-29T09:39:56Z</time>
      </trkpt>
      <trkpt lat="46.42626" lon="5.60193">
        <ele>538.4</ele>
        <time>2022-07-29T09:39:57Z</time>
      </trkpt>
      <trkpt lat="46.42632" lon="5.6019">
        <ele>538</ele>
        <time>2022-07-29T09:39:58Z</time>
      </trkpt>
      <trkpt lat="46.42638" lon="5.60188">
        <ele>537.6</ele>
        <time>2022-07-29T09:39:59Z</time>
      </trkpt>
      <trkpt lat="46.42645" lon="5.60185">
        <ele>537.4</ele>
        <time>2022-07-29T09:40:00Z</time>
      </trkpt>
      <trkpt lat="46.42651" lon="5.60182">
        <ele>537</ele>
        <time>2022-07-29T09:40:01Z</time>
      </trkpt>
      <trkpt lat="46.42659" lon="5.60179">
        <ele>536.6</ele>
        <time>2022-07-29T09:40:02Z</time>
      </trkpt>
      <trkpt lat="46.42666" lon="5.60176">
        <ele>536.2</ele>
        <time>2022-07-29T09:40:03Z</time>
      </trkpt>
      <trkpt lat="46.42674" lon="5.60172">
        <ele>535.8</ele>
        <time>2022-07-29T09:40:04Z</time>
      </trkpt>
      <trkpt lat="46.42681" lon="5.60168">
        <ele>535.4</ele>
        <time>2022-07-29T09:40:05Z</time>
      </trkpt>
      <trkpt lat="46.4269" lon="5.60163">
        <ele>535</ele>
        <time>2022-07-29T09:40:06Z</time>
      </trkpt>
      <trkpt lat="46.42699" lon="5.60159">
        <ele>534.6</ele>
        <time>2022-07-29T09:40:07Z</time>
      </trkpt>
      <trkpt lat="46.42708" lon="5.60154">
        <ele>534.2</ele>
        <time>2022-07-29T09:40:08Z</time>
      </trkpt>
      <trkpt lat="46.42717" lon="5.60148">
        <ele>533.8</ele>
        <time>2022-07-29T09:40:09Z</time>
      </trkpt>
      <trkpt lat="46.42725" lon="5.60142">
        <ele>533.4</ele>
        <time>2022-07-29T09:40:10Z</time>
      </trkpt>
      <trkpt lat="46.42732" lon="5.60133">
        <ele>533.2</ele>
        <time>2022-07-29T09:40:11Z</time>
      </trkpt>
      <trkpt lat="46.42738" lon="5.60123">
        <ele>532.8</ele>
        <time>2022-07-29T09:40:12Z</time>
      </trkpt>
      <trkpt lat="46.42744" lon="5.6011">
        <ele>532.4</ele>
        <time>2022-07-29T09:40:13Z</time>
      </trkpt>
      <trkpt lat="46.42749" lon="5.60096">
        <ele>532</ele>
        <time>2022-07-29T09:40:14Z</time>
      </trkpt>
      <trkpt lat="46.42753" lon="5.60081">
        <ele>531.4</ele>
        <time>2022-07-29T09:40:15Z</time>
      </trkpt>
      <trkpt lat="46.42757" lon="5.60066">
        <ele>530.8</ele>
        <time>2022-07-29T09:40:16Z</time>
      </trkpt>
      <trkpt lat="46.42762" lon="5.60054">
        <ele>530.2</ele>
        <time>2022-07-29T09:40:17Z</time>
      </trkpt>
      <trkpt lat="46.4277" lon="5.60042">
        <ele>528.6</ele>
        <time>2022-07-29T09:40:18Z</time>
      </trkpt>
      <trkpt lat="46.42778" lon="5.60032">
        <ele>527.8</ele>
        <time>2022-07-29T09:40:19Z</time>
      </trkpt>
      <trkpt lat="46.42788" lon="5.60025">
        <ele>527.2</ele>
        <time>2022-07-29T09:40:20Z</time>
      </trkpt>
      <trkpt lat="46.42798" lon="5.60019">
        <ele>526.4</ele>
        <time>2022-07-29T09:40:21Z</time>
      </trkpt>
      <trkpt lat="46.42809" lon="5.60013">
        <ele>525.8</ele>
        <time>2022-07-29T09:40:22Z</time>
      </trkpt>
      <trkpt lat="46.42819" lon="5.60008">
        <ele>525</ele>
        <time>2022-07-29T09:40:23Z</time>
      </trkpt>
      <trkpt lat="46.42829" lon="5.60006">
        <ele>524.4</ele>
        <time>2022-07-29T09:40:24Z</time>
      </trkpt>
      <trkpt lat="46.42839" lon="5.60003">
        <ele>523.6</ele>
        <time>2022-07-29T09:40:25Z</time>
      </trkpt>
      <trkpt lat="46.42849" lon="5.60002">
        <ele>522.8</ele>
        <time>2022-07-29T09:40:26Z</time>
      </trkpt>
      <trkpt lat="46.4286" lon="5.6">
        <ele>522.2</ele>
        <time>2022-07-29T09:40:27Z</time>
      </trkpt>
      <trkpt lat="46.42871" lon="5.6">
        <ele>521.4</ele>
        <time>2022-07-29T09:40:28Z</time>
      </trkpt>
      <trkpt lat="46.42881" lon="5.59999">
        <ele>520.8</ele>
        <time>2022-07-29T09:40:29Z</time>
      </trkpt>
      <trkpt lat="46.42892" lon="5.59997">
        <ele>520</ele>
        <time>2022-07-29T09:40:30Z</time>
      </trkpt>
      <trkpt lat="46.42902" lon="5.59996">
        <ele>519.2</ele>
        <time>2022-07-29T09:40:31Z</time>
      </trkpt>
      <trkpt lat="46.42912" lon="5.59994">
        <ele>518.4</ele>
        <time>2022-07-29T09:40:32Z</time>
      </trkpt>
      <trkpt lat="46.4292" lon="5.59994">
        <ele>518</ele>
        <time>2022-07-29T09:40:33Z</time>
      </trkpt>
      <trkpt lat="46.42928" lon="5.59995">
        <ele>517.4</ele>
        <time>2022-07-29T09:40:34Z</time>
      </trkpt>
      <trkpt lat="46.42935" lon="5.59995">
        <ele>517</ele>
        <time>2022-07-29T09:40:35Z</time>
      </trkpt>
      <trkpt lat="46.42942" lon="5.59993">
        <ele>516.8</ele>
        <time>2022-07-29T09:40:36Z</time>
      </trkpt>
      <trkpt lat="46.42945" lon="5.59987">
        <ele>516.8</ele>
        <time>2022-07-29T09:40:37Z</time>
      </trkpt>
      <trkpt lat="46.42946" lon="5.59978">
        <ele>516.4</ele>
        <time>2022-07-29T09:40:38Z</time>
      </trkpt>
      <trkpt lat="46.42943" lon="5.59968">
        <ele>515.8</ele>
        <time>2022-07-29T09:40:39Z</time>
      </trkpt>
      <trkpt lat="46.42939" lon="5.59959">
        <ele>515.4</ele>
        <time>2022-07-29T09:40:40Z</time>
      </trkpt>
      <trkpt lat="46.42933" lon="5.5995">
        <ele>514.8</ele>
        <time>2022-07-29T09:40:41Z</time>
      </trkpt>
      <trkpt lat="46.42925" lon="5.59942">
        <ele>514.2</ele>
        <time>2022-07-29T09:40:42Z</time>
      </trkpt>
      <trkpt lat="46.42918" lon="5.59936">
        <ele>513.4</ele>
        <time>2022-07-29T09:40:43Z</time>
      </trkpt>
      <trkpt lat="46.42909" lon="5.59931">
        <ele>512.4</ele>
        <time>2022-07-29T09:40:44Z</time>
      </trkpt>
      <trkpt lat="46.42899" lon="5.59928">
        <ele>511.6</ele>
        <time>2022-07-29T09:40:45Z</time>
      </trkpt>
      <trkpt lat="46.42889" lon="5.59926">
        <ele>510.8</ele>
        <time>2022-07-29T09:40:46Z</time>
      </trkpt>
      <trkpt lat="46.42879" lon="5.59922">
        <ele>510</ele>
        <time>2022-07-29T09:40:47Z</time>
      </trkpt>
      <trkpt lat="46.4287" lon="5.59917">
        <ele>509.4</ele>
        <time>2022-07-29T09:40:48Z</time>
      </trkpt>
      <trkpt lat="46.4286" lon="5.59912">
        <ele>508.8</ele>
        <time>2022-07-29T09:40:49Z</time>
      </trkpt>
      <trkpt lat="46.4285" lon="5.59907">
        <ele>508.2</ele>
        <time>2022-07-29T09:40:50Z</time>
      </trkpt>
      <trkpt lat="46.42839" lon="5.59902">
        <ele>507.4</ele>
        <time>2022-07-29T09:40:51Z</time>
      </trkpt>
      <trkpt lat="46.42829" lon="5.59896">
        <ele>506.8</ele>
        <time>2022-07-29T09:40:52Z</time>
      </trkpt>
      <trkpt lat="46.4282" lon="5.59888">
        <ele>506.2</ele>
        <time>2022-07-29T09:40:53Z</time>
      </trkpt>
      <trkpt lat="46.42811" lon="5.5988">
        <ele>505.6</ele>
        <time>2022-07-29T09:40:54Z</time>
      </trkpt>
      <trkpt lat="46.42802" lon="5.5987">
        <ele>504.8</ele>
        <time>2022-07-29T09:40:55Z</time>
      </trkpt>
      <trkpt lat="46.42793" lon="5.5986">
        <ele>504.2</ele>
        <time>2022-07-29T09:40:56Z</time>
      </trkpt>
      <trkpt lat="46.42783" lon="5.59851">
        <ele>503.4</ele>
        <time>2022-07-29T09:40:57Z</time>
      </trkpt>
      <trkpt lat="46.42773" lon="5.59842">
        <ele>502.6</ele>
        <time>2022-07-29T09:40:58Z</time>
      </trkpt>
      <trkpt lat="46.42761" lon="5.59834">
        <ele>502</ele>
        <time>2022-07-29T09:40:59Z</time>
      </trkpt>
      <trkpt lat="46.4275" lon="5.59828">
        <ele>501.2</ele>
        <time>2022-07-29T09:41:00Z</time>
      </trkpt>
      <trkpt lat="46.4274" lon="5.59824">
        <ele>500.4</ele>
        <time>2022-07-29T09:41:01Z</time>
      </trkpt>
      <trkpt lat="46.42729" lon="5.59819">
        <ele>499.8</ele>
        <time>2022-07-29T09:41:02Z</time>
      </trkpt>
      <trkpt lat="46.42719" lon="5.59812">
        <ele>498.8</ele>
        <time>2022-07-29T09:41:03Z</time>
      </trkpt>
      <trkpt lat="46.4271" lon="5.59803">
        <ele>498</ele>
        <time>2022-07-29T09:41:04Z</time>
      </trkpt>
      <trkpt lat="46.42701" lon="5.59795">
        <ele>497.4</ele>
        <time>2022-07-29T09:41:05Z</time>
      </trkpt>
      <trkpt lat="46.42691" lon="5.59789">
        <ele>496.6</ele>
        <time>2022-07-29T09:41:06Z</time>
      </trkpt>
      <trkpt lat="46.42682" lon="5.59783">
        <ele>496</ele>
        <time>2022-07-29T09:41:07Z</time>
      </trkpt>
      <trkpt lat="46.42671" lon="5.59779">
        <ele>495.4</ele>
        <time>2022-07-29T09:41:08Z</time>
      </trkpt>
      <trkpt lat="46.42661" lon="5.59776">
        <ele>494.8</ele>
        <time>2022-07-29T09:41:09Z</time>
      </trkpt>
      <trkpt lat="46.42651" lon="5.59776">
        <ele>494.2</ele>
        <time>2022-07-29T09:41:10Z</time>
      </trkpt>
      <trkpt lat="46.42641" lon="5.59778">
        <ele>493.6</ele>
        <time>2022-07-29T09:41:11Z</time>
      </trkpt>
      <trkpt lat="46.42631" lon="5.59779">
        <ele>492.8</ele>
        <time>2022-07-29T09:41:12Z</time>
      </trkpt>
      <trkpt lat="46.4262" lon="5.59778">
        <ele>492</ele>
        <time>2022-07-29T09:41:13Z</time>
      </trkpt>
      <trkpt lat="46.42609" lon="5.59778">
        <ele>491.4</ele>
        <time>2022-07-29T09:41:14Z</time>
      </trkpt>
      <trkpt lat="46.42599" lon="5.59781">
        <ele>490.6</ele>
        <time>2022-07-29T09:41:15Z</time>
      </trkpt>
      <trkpt lat="46.42588" lon="5.59785">
        <ele>489.8</ele>
        <time>2022-07-29T09:41:16Z</time>
      </trkpt>
      <trkpt lat="46.42577" lon="5.59787">
        <ele>489.2</ele>
        <time>2022-07-29T09:41:17Z</time>
      </trkpt>
      <trkpt lat="46.42566" lon="5.59785">
        <ele>488.4</ele>
        <time>2022-07-29T09:41:18Z</time>
      </trkpt>
      <trkpt lat="46.42557" lon="5.5978">
        <ele>487.6</ele>
        <time>2022-07-29T09:41:19Z</time>
      </trkpt>
      <trkpt lat="46.42548" lon="5.59777">
        <ele>486.8</ele>
        <time>2022-07-29T09:41:20Z</time>
      </trkpt>
      <trkpt lat="46.42541" lon="5.59775">
        <ele>486.2</ele>
        <time>2022-07-29T09:41:21Z</time>
      </trkpt>
      <trkpt lat="46.42535" lon="5.59772">
        <ele>485.6</ele>
        <time>2022-07-29T09:41:22Z</time>
      </trkpt>
      <trkpt lat="46.42533" lon="5.59766">
        <ele>485</ele>
        <time>2022-07-29T09:41:23Z</time>
      </trkpt>
      <trkpt lat="46.42533" lon="5.59759">
        <ele>484.6</ele>
        <time>2022-07-29T09:41:24Z</time>
      </trkpt>
      <trkpt lat="46.42537" lon="5.59753">
        <ele>484</ele>
        <time>2022-07-29T09:41:25Z</time>
      </trkpt>
      <trkpt lat="46.42542" lon="5.59747">
        <ele>483.2</ele>
        <time>2022-07-29T09:41:26Z</time>
      </trkpt>
      <trkpt lat="46.42548" lon="5.59743">
        <ele>482.6</ele>
        <time>2022-07-29T09:41:27Z</time>
      </trkpt>
      <trkpt lat="46.42556" lon="5.5974">
        <ele>482</ele>
        <time>2022-07-29T09:41:28Z</time>
      </trkpt>
      <trkpt lat="46.42563" lon="5.59737">
        <ele>481.4</ele>
        <time>2022-07-29T09:41:29Z</time>
      </trkpt>
      <trkpt lat="46.42571" lon="5.59733">
        <ele>480.6</ele>
        <time>2022-07-29T09:41:30Z</time>
      </trkpt>
      <trkpt lat="46.42579" lon="5.59728">
        <ele>480</ele>
        <time>2022-07-29T09:41:31Z</time>
      </trkpt>
      <trkpt lat="46.42587" lon="5.59724">
        <ele>479.4</ele>
        <time>2022-07-29T09:41:32Z</time>
      </trkpt>
      <trkpt lat="46.42596" lon="5.59719">
        <ele>478.6</ele>
        <time>2022-07-29T09:41:33Z</time>
      </trkpt>
      <trkpt lat="46.42606" lon="5.59714">
        <ele>478</ele>
        <time>2022-07-29T09:41:34Z</time>
      </trkpt>
      <trkpt lat="46.42615" lon="5.59709">
        <ele>477.2</ele>
        <time>2022-07-29T09:41:35Z</time>
      </trkpt>
      <trkpt lat="46.42624" lon="5.59703">
        <ele>476.6</ele>
        <time>2022-07-29T09:41:36Z</time>
      </trkpt>
      <trkpt lat="46.42634" lon="5.59697">
        <ele>475.8</ele>
        <time>2022-07-29T09:41:37Z</time>
      </trkpt>
      <trkpt lat="46.42643" lon="5.5969">
        <ele>475</ele>
        <time>2022-07-29T09:41:38Z</time>
      </trkpt>
      <trkpt lat="46.42653" lon="5.59684">
        <ele>474.4</ele>
        <time>2022-07-29T09:41:39Z</time>
      </trkpt>
      <trkpt lat="46.42663" lon="5.59677">
        <ele>473.6</ele>
        <time>2022-07-29T09:41:40Z</time>
      </trkpt>
      <trkpt lat="46.42672" lon="5.59671">
        <ele>473</ele>
        <time>2022-07-29T09:41:41Z</time>
      </trkpt>
      <trkpt lat="46.4268" lon="5.59665">
        <ele>472.2</ele>
        <time>2022-07-29T09:41:42Z</time>
      </trkpt>
      <trkpt lat="46.42688" lon="5.59658">
        <ele>471.2</ele>
        <time>2022-07-29T09:41:43Z</time>
      </trkpt>
      <trkpt lat="46.42695" lon="5.59653">
        <ele>470.6</ele>
        <time>2022-07-29T09:41:44Z</time>
      </trkpt>
      <trkpt lat="46.42701" lon="5.59647">
        <ele>469.8</ele>
        <time>2022-07-29T09:41:45Z</time>
      </trkpt>
      <trkpt lat="46.42706" lon="5.59642">
        <ele>469.4</ele>
        <time>2022-07-29T09:41:46Z</time>
      </trkpt>
      <trkpt lat="46.42709" lon="5.59635">
        <ele>468.8</ele>
        <time>2022-07-29T09:41:47Z</time>
      </trkpt>
      <trkpt lat="46.42709" lon="5.59627">
        <ele>468.2</ele>
        <time>2022-07-29T09:41:48Z</time>
      </trkpt>
      <trkpt lat="46.42709" lon="5.59618">
        <ele>467.8</ele>
        <time>2022-07-29T09:41:49Z</time>
      </trkpt>
      <trkpt lat="46.42707" lon="5.59609">
        <ele>467.2</ele>
        <time>2022-07-29T09:41:50Z</time>
      </trkpt>
      <trkpt lat="46.42706" lon="5.59599">
        <ele>466.6</ele>
        <time>2022-07-29T09:41:51Z</time>
      </trkpt>
      <trkpt lat="46.42705" lon="5.5959">
        <ele>466</ele>
        <time>2022-07-29T09:41:52Z</time>
      </trkpt>
      <trkpt lat="46.42704" lon="5.59581">
        <ele>465.4</ele>
        <time>2022-07-29T09:41:53Z</time>
      </trkpt>
      <trkpt lat="46.42703" lon="5.59574">
        <ele>464.8</ele>
        <time>2022-07-29T09:41:54Z</time>
      </trkpt>
      <trkpt lat="46.42702" lon="5.59567">
        <ele>464.2</ele>
        <time>2022-07-29T09:41:55Z</time>
      </trkpt>
      <trkpt lat="46.42699" lon="5.59562">
        <ele>463.6</ele>
        <time>2022-07-29T09:41:56Z</time>
      </trkpt>
      <trkpt lat="46.42695" lon="5.59559">
        <ele>463.2</ele>
        <time>2022-07-29T09:41:57Z</time>
      </trkpt>
      <trkpt lat="46.42689" lon="5.59559">
        <ele>462.8</ele>
        <time>2022-07-29T09:41:58Z</time>
      </trkpt>
      <trkpt lat="46.42684" lon="5.5956">
        <ele>462.2</ele>
        <time>2022-07-29T09:41:59Z</time>
      </trkpt>
      <trkpt lat="46.42678" lon="5.59561">
        <ele>461.8</ele>
        <time>2022-07-29T09:42:00Z</time>
      </trkpt>
      <trkpt lat="46.42672" lon="5.59562">
        <ele>461.6</ele>
        <time>2022-07-29T09:42:01Z</time>
      </trkpt>
      <trkpt lat="46.42666" lon="5.59563">
        <ele>461.2</ele>
        <time>2022-07-29T09:42:02Z</time>
      </trkpt>
      <trkpt lat="46.4266" lon="5.59564">
        <ele>461</ele>
        <time>2022-07-29T09:42:03Z</time>
      </trkpt>
      <trkpt lat="46.42654" lon="5.59565">
        <ele>460.8</ele>
        <time>2022-07-29T09:42:04Z</time>
      </trkpt>
      <trkpt lat="46.42649" lon="5.59566">
        <ele>460.6</ele>
        <time>2022-07-29T09:42:05Z</time>
      </trkpt>
      <trkpt lat="46.42644" lon="5.59567">
        <ele>460.6</ele>
        <time>2022-07-29T09:42:06Z</time>
      </trkpt>
      <trkpt lat="46.42639" lon="5.59567">
        <ele>460.6</ele>
        <time>2022-07-29T09:42:07Z</time>
      </trkpt>
      <trkpt lat="46.42634" lon="5.59567">
        <ele>460.6</ele>
        <time>2022-07-29T09:42:08Z</time>
      </trkpt>
      <trkpt lat="46.42629" lon="5.59565">
        <ele>460.6</ele>
        <time>2022-07-29T09:42:09Z</time>
      </trkpt>
      <trkpt lat="46.42625" lon="5.59562">
        <ele>460.6</ele>
        <time>2022-07-29T09:42:10Z</time>
      </trkpt>
      <trkpt lat="46.42621" lon="5.59558">
        <ele>460.6</ele>
        <time>2022-07-29T09:42:11Z</time>
      </trkpt>
      <trkpt lat="46.42617" lon="5.59554">
        <ele>460.6</ele>
        <time>2022-07-29T09:42:12Z</time>
      </trkpt>
      <trkpt lat="46.42613" lon="5.5955">
        <ele>460.6</ele>
        <time>2022-07-29T09:42:13Z</time>
      </trkpt>
      <trkpt lat="46.4261" lon="5.59546">
        <ele>460.8</ele>
        <time>2022-07-29T09:42:14Z</time>
      </trkpt>
      <trkpt lat="46.42607" lon="5.59542">
        <ele>460.8</ele>
        <time>2022-07-29T09:42:15Z</time>
      </trkpt>
      <trkpt lat="46.42603" lon="5.59538">
        <ele>460.8</ele>
        <time>2022-07-29T09:42:16Z</time>
      </trkpt>
      <trkpt lat="46.426" lon="5.59535">
        <ele>460.8</ele>
        <time>2022-07-29T09:42:17Z</time>
      </trkpt>
      <trkpt lat="46.42596" lon="5.59531">
        <ele>460.8</ele>
        <time>2022-07-29T09:42:18Z</time>
      </trkpt>
      <trkpt lat="46.42592" lon="5.59528">
        <ele>460.8</ele>
        <time>2022-07-29T09:42:19Z</time>
      </trkpt>
      <trkpt lat="46.42588" lon="5.59524">
        <ele>460.8</ele>
        <time>2022-07-29T09:42:20Z</time>
      </trkpt>
      <trkpt lat="46.42585" lon="5.5952">
        <ele>460.8</ele>
        <time>2022-07-29T09:42:21Z</time>
      </trkpt>
      <trkpt lat="46.42581" lon="5.59517">
        <ele>460.8</ele>
        <time>2022-07-29T09:42:22Z</time>
      </trkpt>
      <trkpt lat="46.42577" lon="5.59513">
        <ele>460.8</ele>
        <time>2022-07-29T09:42:23Z</time>
      </trkpt>
      <trkpt lat="46.42573" lon="5.5951">
        <ele>460.6</ele>
        <time>2022-07-29T09:42:24Z</time>
      </trkpt>
      <trkpt lat="46.42569" lon="5.59506">
        <ele>460.6</ele>
        <time>2022-07-29T09:42:25Z</time>
      </trkpt>
      <trkpt lat="46.42564" lon="5.59502">
        <ele>460.4</ele>
        <time>2022-07-29T09:42:26Z</time>
      </trkpt>
      <trkpt lat="46.4256" lon="5.59498">
        <ele>460.4</ele>
        <time>2022-07-29T09:42:27Z</time>
      </trkpt>
      <trkpt lat="46.42555" lon="5.59495">
        <ele>460</ele>
        <time>2022-07-29T09:42:28Z</time>
      </trkpt>
      <trkpt lat="46.42549" lon="5.59491">
        <ele>459.8</ele>
        <time>2022-07-29T09:42:29Z</time>
      </trkpt>
      <trkpt lat="46.42543" lon="5.59489">
        <ele>459.4</ele>
        <time>2022-07-29T09:42:30Z</time>
      </trkpt>
      <trkpt lat="46.42536" lon="5.59488">
        <ele>459</ele>
        <time>2022-07-29T09:42:31Z</time>
      </trkpt>
      <trkpt lat="46.42528" lon="5.59488">
        <ele>458.4</ele>
        <time>2022-07-29T09:42:32Z</time>
      </trkpt>
      <trkpt lat="46.42519" lon="5.59488">
        <ele>457.8</ele>
        <time>2022-07-29T09:42:33Z</time>
      </trkpt>
      <trkpt lat="46.4251" lon="5.59488">
        <ele>457.2</ele>
        <time>2022-07-29T09:42:34Z</time>
      </trkpt>
      <trkpt lat="46.425" lon="5.59488">
        <ele>456.4</ele>
        <time>2022-07-29T09:42:35Z</time>
      </trkpt>
      <trkpt lat="46.42489" lon="5.59487">
        <ele>455.6</ele>
        <time>2022-07-29T09:42:36Z</time>
      </trkpt>
      <trkpt lat="46.4248" lon="5.59484">
        <ele>455</ele>
        <time>2022-07-29T09:42:37Z</time>
      </trkpt>
      <trkpt lat="46.42471" lon="5.59481">
        <ele>454.6</ele>
        <time>2022-07-29T09:42:38Z</time>
      </trkpt>
      <trkpt lat="46.42471" lon="5.59481">
        <ele>454.6</ele>
        <time>2022-07-29T09:42:39Z</time>
      </trkpt>
      <trkpt lat="46.42464" lon="5.59478">
        <ele>454.2</ele>
        <time>2022-07-29T09:42:40Z</time>
      </trkpt>
      <trkpt lat="46.42456" lon="5.59476">
        <ele>454.2</ele>
        <time>2022-07-29T09:42:41Z</time>
      </trkpt>
      <trkpt lat="46.42449" lon="5.59475">
        <ele>454.2</ele>
        <time>2022-07-29T09:42:42Z</time>
      </trkpt>
      <trkpt lat="46.42442" lon="5.59475">
        <ele>454.6</ele>
        <time>2022-07-29T09:42:43Z</time>
      </trkpt>
      <trkpt lat="46.42435" lon="5.59475">
        <ele>454.8</ele>
        <time>2022-07-29T09:42:44Z</time>
      </trkpt>
      <trkpt lat="46.42429" lon="5.59475">
        <ele>455</ele>
        <time>2022-07-29T09:42:45Z</time>
      </trkpt>
      <trkpt lat="46.42424" lon="5.59474">
        <ele>455.2</ele>
        <time>2022-07-29T09:42:46Z</time>
      </trkpt>
      <trkpt lat="46.42418" lon="5.59474">
        <ele>455.6</ele>
        <time>2022-07-29T09:42:47Z</time>
      </trkpt>
      <trkpt lat="46.42414" lon="5.59475">
        <ele>456</ele>
        <time>2022-07-29T09:42:48Z</time>
      </trkpt>
      <trkpt lat="46.42409" lon="5.59475">
        <ele>456.4</ele>
        <time>2022-07-29T09:42:49Z</time>
      </trkpt>
      <trkpt lat="46.42406" lon="5.59475">
        <ele>456.8</ele>
        <time>2022-07-29T09:42:50Z</time>
      </trkpt>
      <trkpt lat="46.42402" lon="5.59476">
        <ele>457.2</ele>
        <time>2022-07-29T09:42:51Z</time>
      </trkpt>
      <trkpt lat="46.42399" lon="5.59476">
        <ele>457.6</ele>
        <time>2022-07-29T09:42:52Z</time>
      </trkpt>
      <trkpt lat="46.42396" lon="5.59477">
        <ele>458</ele>
        <time>2022-07-29T09:42:53Z</time>
      </trkpt>
      <trkpt lat="46.42392" lon="5.59477">
        <ele>458.2</ele>
        <time>2022-07-29T09:42:54Z</time>
      </trkpt>
      <trkpt lat="46.42389" lon="5.59478">
        <ele>458.6</ele>
        <time>2022-07-29T09:42:55Z</time>
      </trkpt>
      <trkpt lat="46.42386" lon="5.59478">
        <ele>459</ele>
        <time>2022-07-29T09:42:56Z</time>
      </trkpt>
      <trkpt lat="46.42383" lon="5.59477">
        <ele>459.4</ele>
        <time>2022-07-29T09:42:57Z</time>
      </trkpt>
      <trkpt lat="46.42379" lon="5.59478">
        <ele>459.8</ele>
        <time>2022-07-29T09:42:58Z</time>
      </trkpt>
      <trkpt lat="46.42376" lon="5.59478">
        <ele>460</ele>
        <time>2022-07-29T09:42:59Z</time>
      </trkpt>
      <trkpt lat="46.42373" lon="5.59479">
        <ele>460.4</ele>
        <time>2022-07-29T09:43:00Z</time>
      </trkpt>
      <trkpt lat="46.4237" lon="5.5948">
        <ele>460.8</ele>
        <time>2022-07-29T09:43:01Z</time>
      </trkpt>
      <trkpt lat="46.42366" lon="5.5948">
        <ele>461.2</ele>
        <time>2022-07-29T09:43:02Z</time>
      </trkpt>
      <trkpt lat="46.42364" lon="5.59481">
        <ele>461.6</ele>
        <time>2022-07-29T09:43:03Z</time>
      </trkpt>
      <trkpt lat="46.42361" lon="5.59481">
        <ele>462</ele>
        <time>2022-07-29T09:43:04Z</time>
      </trkpt>
      <trkpt lat="46.42358" lon="5.59481">
        <ele>462.4</ele>
        <time>2022-07-29T09:43:05Z</time>
      </trkpt>
      <trkpt lat="46.42356" lon="5.59481">
        <ele>462.8</ele>
        <time>2022-07-29T09:43:06Z</time>
      </trkpt>
      <trkpt lat="46.42353" lon="5.59481">
        <ele>463.2</ele>
        <time>2022-07-29T09:43:07Z</time>
      </trkpt>
      <trkpt lat="46.42351" lon="5.59482">
        <ele>463.6</ele>
        <time>2022-07-29T09:43:08Z</time>
      </trkpt>
      <trkpt lat="46.42349" lon="5.59482">
        <ele>464</ele>
        <time>2022-07-29T09:43:09Z</time>
      </trkpt>
      <trkpt lat="46.42347" lon="5.59483">
        <ele>464.2</ele>
        <time>2022-07-29T09:43:10Z</time>
      </trkpt>
      <trkpt lat="46.42345" lon="5.59484">
        <ele>464.6</ele>
        <time>2022-07-29T09:43:11Z</time>
      </trkpt>
      <trkpt lat="46.42343" lon="5.59484">
        <ele>464.8</ele>
        <time>2022-07-29T09:43:12Z</time>
      </trkpt>
      <trkpt lat="46.42341" lon="5.59485">
        <ele>464.8</ele>
        <time>2022-07-29T09:43:13Z</time>
      </trkpt>
      <trkpt lat="46.42339" lon="5.59486">
        <ele>465.2</ele>
        <time>2022-07-29T09:43:14Z</time>
      </trkpt>
      <trkpt lat="46.42337" lon="5.59486">
        <ele>465.2</ele>
        <time>2022-07-29T09:43:15Z</time>
      </trkpt>
      <trkpt lat="46.42335" lon="5.59487">
        <ele>465.6</ele>
        <time>2022-07-29T09:43:16Z</time>
      </trkpt>
      <trkpt lat="46.42333" lon="5.59488">
        <ele>465.8</ele>
        <time>2022-07-29T09:43:17Z</time>
      </trkpt>
      <trkpt lat="46.42331" lon="5.59489">
        <ele>465.8</ele>
        <time>2022-07-29T09:43:18Z</time>
      </trkpt>
      <trkpt lat="46.4233" lon="5.5949">
        <ele>466.2</ele>
        <time>2022-07-29T09:43:19Z</time>
      </trkpt>
      <trkpt lat="46.42328" lon="5.5949">
        <ele>466.2</ele>
        <time>2022-07-29T09:43:20Z</time>
      </trkpt>
      <trkpt lat="46.42326" lon="5.59491">
        <ele>466.6</ele>
        <time>2022-07-29T09:43:21Z</time>
      </trkpt>
      <trkpt lat="46.42324" lon="5.59491">
        <ele>466.8</ele>
        <time>2022-07-29T09:43:22Z</time>
      </trkpt>
      <trkpt lat="46.42322" lon="5.59492">
        <ele>466.8</ele>
        <time>2022-07-29T09:43:23Z</time>
      </trkpt>
      <trkpt lat="46.4232" lon="5.59493">
        <ele>467.2</ele>
        <time>2022-07-29T09:43:24Z</time>
      </trkpt>
      <trkpt lat="46.42318" lon="5.59493">
        <ele>467.2</ele>
        <time>2022-07-29T09:43:25Z</time>
      </trkpt>
      <trkpt lat="46.42317" lon="5.59494">
        <ele>467.6</ele>
        <time>2022-07-29T09:43:26Z</time>
      </trkpt>
      <trkpt lat="46.42315" lon="5.59495">
        <ele>467.6</ele>
        <time>2022-07-29T09:43:27Z</time>
      </trkpt>
      <trkpt lat="46.42313" lon="5.59497">
        <ele>468</ele>
        <time>2022-07-29T09:43:28Z</time>
      </trkpt>
      <trkpt lat="46.42312" lon="5.59498">
        <ele>468</ele>
        <time>2022-07-29T09:43:29Z</time>
      </trkpt>
      <trkpt lat="46.4231" lon="5.59498">
        <ele>468.2</ele>
        <time>2022-07-29T09:43:30Z</time>
      </trkpt>
      <trkpt lat="46.42308" lon="5.59499">
        <ele>468.6</ele>
        <time>2022-07-29T09:43:31Z</time>
      </trkpt>
      <trkpt lat="46.42306" lon="5.59499">
        <ele>468.6</ele>
        <time>2022-07-29T09:43:32Z</time>
      </trkpt>
      <trkpt lat="46.42304" lon="5.595">
        <ele>468.8</ele>
        <time>2022-07-29T09:43:33Z</time>
      </trkpt>
      <trkpt lat="46.42303" lon="5.59501">
        <ele>468.8</ele>
        <time>2022-07-29T09:43:34Z</time>
      </trkpt>
      <trkpt lat="46.42301" lon="5.59501">
        <ele>469.2</ele>
        <time>2022-07-29T09:43:35Z</time>
      </trkpt>
      <trkpt lat="46.42299" lon="5.59502">
        <ele>469.2</ele>
        <time>2022-07-29T09:43:36Z</time>
      </trkpt>
      <trkpt lat="46.42298" lon="5.59502">
        <ele>469.6</ele>
        <time>2022-07-29T09:43:37Z</time>
      </trkpt>
      <trkpt lat="46.42296" lon="5.59503">
        <ele>469.8</ele>
        <time>2022-07-29T09:43:38Z</time>
      </trkpt>
      <trkpt lat="46.42294" lon="5.59504">
        <ele>470.2</ele>
        <time>2022-07-29T09:43:39Z</time>
      </trkpt>
      <trkpt lat="46.42292" lon="5.59504">
        <ele>470.2</ele>
        <time>2022-07-29T09:43:40Z</time>
      </trkpt>
      <trkpt lat="46.42291" lon="5.59505">
        <ele>470.4</ele>
        <time>2022-07-29T09:43:41Z</time>
      </trkpt>
      <trkpt lat="46.42289" lon="5.59507">
        <ele>470.4</ele>
        <time>2022-07-29T09:43:42Z</time>
      </trkpt>
      <trkpt lat="46.42288" lon="5.59508">
        <ele>470.8</ele>
        <time>2022-07-29T09:43:43Z</time>
      </trkpt>
      <trkpt lat="46.42286" lon="5.59508">
        <ele>470.8</ele>
        <time>2022-07-29T09:43:44Z</time>
      </trkpt>
      <trkpt lat="46.42285" lon="5.59509">
        <ele>471</ele>
        <time>2022-07-29T09:43:45Z</time>
      </trkpt>
      <trkpt lat="46.42284" lon="5.59509">
        <ele>471</ele>
        <time>2022-07-29T09:43:46Z</time>
      </trkpt>
      <trkpt lat="46.42282" lon="5.5951">
        <ele>471.4</ele>
        <time>2022-07-29T09:43:47Z</time>
      </trkpt>
      <trkpt lat="46.4228" lon="5.5951">
        <ele>471.4</ele>
        <time>2022-07-29T09:43:48Z</time>
      </trkpt>
      <trkpt lat="46.42278" lon="5.59511">
        <ele>471.8</ele>
        <time>2022-07-29T09:43:49Z</time>
      </trkpt>
      <trkpt lat="46.42277" lon="5.59511">
        <ele>472</ele>
        <time>2022-07-29T09:43:50Z</time>
      </trkpt>
      <trkpt lat="46.42275" lon="5.59512">
        <ele>472.2</ele>
        <time>2022-07-29T09:43:51Z</time>
      </trkpt>
      <trkpt lat="46.42274" lon="5.59512">
        <ele>472.6</ele>
        <time>2022-07-29T09:43:52Z</time>
      </trkpt>
      <trkpt lat="46.42272" lon="5.59513">
        <ele>472.8</ele>
        <time>2022-07-29T09:43:53Z</time>
      </trkpt>
      <trkpt lat="46.4227" lon="5.59514">
        <ele>472.8</ele>
        <time>2022-07-29T09:43:54Z</time>
      </trkpt>
      <trkpt lat="46.42267" lon="5.59514">
        <ele>473.2</ele>
        <time>2022-07-29T09:43:55Z</time>
      </trkpt>
      <trkpt lat="46.42265" lon="5.59515">
        <ele>473.6</ele>
        <time>2022-07-29T09:43:56Z</time>
      </trkpt>
      <trkpt lat="46.42264" lon="5.59515">
        <ele>473.8</ele>
        <time>2022-07-29T09:43:57Z</time>
      </trkpt>
      <trkpt lat="46.42262" lon="5.59516">
        <ele>474.2</ele>
        <time>2022-07-29T09:43:58Z</time>
      </trkpt>
      <trkpt lat="46.4226" lon="5.59517">
        <ele>474.6</ele>
        <time>2022-07-29T09:43:59Z</time>
      </trkpt>
      <trkpt lat="46.42257" lon="5.59517">
        <ele>474.8</ele>
        <time>2022-07-29T09:44:00Z</time>
      </trkpt>
      <trkpt lat="46.42256" lon="5.59518">
        <ele>475.2</ele>
        <time>2022-07-29T09:44:01Z</time>
      </trkpt>
      <trkpt lat="46.42254" lon="5.59518">
        <ele>475.4</ele>
        <time>2022-07-29T09:44:02Z</time>
      </trkpt>
      <trkpt lat="46.42252" lon="5.59518">
        <ele>475.8</ele>
        <time>2022-07-29T09:44:03Z</time>
      </trkpt>
      <trkpt lat="46.42251" lon="5.59519">
        <ele>476</ele>
        <time>2022-07-29T09:44:04Z</time>
      </trkpt>
      <trkpt lat="46.42249" lon="5.59518">
        <ele>476.4</ele>
        <time>2022-07-29T09:44:05Z</time>
      </trkpt>
      <trkpt lat="46.42247" lon="5.59518">
        <ele>476.6</ele>
        <time>2022-07-29T09:44:06Z</time>
      </trkpt>
      <trkpt lat="46.42245" lon="5.59517">
        <ele>476.8</ele>
        <time>2022-07-29T09:44:07Z</time>
      </trkpt>
      <trkpt lat="46.42243" lon="5.59517">
        <ele>477.2</ele>
        <time>2022-07-29T09:44:08Z</time>
      </trkpt>
      <trkpt lat="46.42241" lon="5.59517">
        <ele>477.6</ele>
        <time>2022-07-29T09:44:09Z</time>
      </trkpt>
      <trkpt lat="46.42239" lon="5.59517">
        <ele>477.8</ele>
        <time>2022-07-29T09:44:10Z</time>
      </trkpt>
      <trkpt lat="46.42237" lon="5.59518">
        <ele>478.2</ele>
        <time>2022-07-29T09:44:11Z</time>
      </trkpt>
      <trkpt lat="46.42235" lon="5.59518">
        <ele>478.4</ele>
        <time>2022-07-29T09:44:12Z</time>
      </trkpt>
      <trkpt lat="46.42234" lon="5.59517">
        <ele>478.6</ele>
        <time>2022-07-29T09:44:13Z</time>
      </trkpt>
      <trkpt lat="46.42232" lon="5.59517">
        <ele>479</ele>
        <time>2022-07-29T09:44:14Z</time>
      </trkpt>
      <trkpt lat="46.4223" lon="5.59517">
        <ele>479.2</ele>
        <time>2022-07-29T09:44:15Z</time>
      </trkpt>
      <trkpt lat="46.42229" lon="5.59516">
        <ele>479.4</ele>
        <time>2022-07-29T09:44:16Z</time>
      </trkpt>
      <trkpt lat="46.42228" lon="5.59515">
        <ele>479.6</ele>
        <time>2022-07-29T09:44:17Z</time>
      </trkpt>
      <trkpt lat="46.42226" lon="5.59515">
        <ele>479.8</ele>
        <time>2022-07-29T09:44:18Z</time>
      </trkpt>
      <trkpt lat="46.42225" lon="5.59514">
        <ele>479.8</ele>
        <time>2022-07-29T09:44:19Z</time>
      </trkpt>
      <trkpt lat="46.42223" lon="5.59514">
        <ele>480.2</ele>
        <time>2022-07-29T09:44:20Z</time>
      </trkpt>
      <trkpt lat="46.42222" lon="5.59513">
        <ele>480.6</ele>
        <time>2022-07-29T09:44:21Z</time>
      </trkpt>
      <trkpt lat="46.4222" lon="5.59513">
        <ele>480.6</ele>
        <time>2022-07-29T09:44:22Z</time>
      </trkpt>
      <trkpt lat="46.42218" lon="5.59513">
        <ele>480.8</ele>
        <time>2022-07-29T09:44:23Z</time>
      </trkpt>
      <trkpt lat="46.42217" lon="5.59512">
        <ele>481.2</ele>
        <time>2022-07-29T09:44:24Z</time>
      </trkpt>
      <trkpt lat="46.42216" lon="5.59511">
        <ele>481.4</ele>
        <time>2022-07-29T09:44:25Z</time>
      </trkpt>
      <trkpt lat="46.42214" lon="5.5951">
        <ele>481.6</ele>
        <time>2022-07-29T09:44:26Z</time>
      </trkpt>
      <trkpt lat="46.42213" lon="5.59509">
        <ele>481.8</ele>
        <time>2022-07-29T09:44:27Z</time>
      </trkpt>
      <trkpt lat="46.42211" lon="5.59508">
        <ele>481.8</ele>
        <time>2022-07-29T09:44:28Z</time>
      </trkpt>
      <trkpt lat="46.4221" lon="5.59508">
        <ele>482.2</ele>
        <time>2022-07-29T09:44:29Z</time>
      </trkpt>
      <trkpt lat="46.42208" lon="5.59507">
        <ele>482.2</ele>
        <time>2022-07-29T09:44:30Z</time>
      </trkpt>
      <trkpt lat="46.42207" lon="5.59506">
        <ele>482.6</ele>
        <time>2022-07-29T09:44:31Z</time>
      </trkpt>
      <trkpt lat="46.42205" lon="5.59505">
        <ele>482.6</ele>
        <time>2022-07-29T09:44:32Z</time>
      </trkpt>
      <trkpt lat="46.42204" lon="5.59504">
        <ele>482.8</ele>
        <time>2022-07-29T09:44:33Z</time>
      </trkpt>
      <trkpt lat="46.42202" lon="5.59503">
        <ele>483</ele>
        <time>2022-07-29T09:44:34Z</time>
      </trkpt>
      <trkpt lat="46.42201" lon="5.59502">
        <ele>483.2</ele>
        <time>2022-07-29T09:44:35Z</time>
      </trkpt>
      <trkpt lat="46.42199" lon="5.59501">
        <ele>483.6</ele>
        <time>2022-07-29T09:44:36Z</time>
      </trkpt>
      <trkpt lat="46.42198" lon="5.595">
        <ele>483.6</ele>
        <time>2022-07-29T09:44:37Z</time>
      </trkpt>
      <trkpt lat="46.42197" lon="5.59499">
        <ele>483.8</ele>
        <time>2022-07-29T09:44:38Z</time>
      </trkpt>
      <trkpt lat="46.42195" lon="5.59497">
        <ele>484</ele>
        <time>2022-07-29T09:44:39Z</time>
      </trkpt>
      <trkpt lat="46.42194" lon="5.59496">
        <ele>484</ele>
        <time>2022-07-29T09:44:40Z</time>
      </trkpt>
      <trkpt lat="46.42193" lon="5.59494">
        <ele>484.4</ele>
        <time>2022-07-29T09:44:41Z</time>
      </trkpt>
      <trkpt lat="46.42191" lon="5.59493">
        <ele>484.4</ele>
        <time>2022-07-29T09:44:42Z</time>
      </trkpt>
      <trkpt lat="46.4219" lon="5.59492">
        <ele>484.8</ele>
        <time>2022-07-29T09:44:43Z</time>
      </trkpt>
      <trkpt lat="46.42188" lon="5.59491">
        <ele>484.8</ele>
        <time>2022-07-29T09:44:44Z</time>
      </trkpt>
      <trkpt lat="46.42187" lon="5.5949">
        <ele>485.2</ele>
        <time>2022-07-29T09:44:45Z</time>
      </trkpt>
      <trkpt lat="46.42185" lon="5.59488">
        <ele>485.2</ele>
        <time>2022-07-29T09:44:46Z</time>
      </trkpt>
      <trkpt lat="46.42184" lon="5.59487">
        <ele>485.4</ele>
        <time>2022-07-29T09:44:47Z</time>
      </trkpt>
      <trkpt lat="46.42182" lon="5.59486">
        <ele>485.4</ele>
        <time>2022-07-29T09:44:48Z</time>
      </trkpt>
      <trkpt lat="46.4218" lon="5.59485">
        <ele>485.6</ele>
        <time>2022-07-29T09:44:49Z</time>
      </trkpt>
      <trkpt lat="46.42178" lon="5.59484">
        <ele>485.6</ele>
        <time>2022-07-29T09:44:50Z</time>
      </trkpt>
      <trkpt lat="46.42177" lon="5.59483">
        <ele>485.6</ele>
        <time>2022-07-29T09:44:51Z</time>
      </trkpt>
      <trkpt lat="46.42175" lon="5.59482">
        <ele>486</ele>
        <time>2022-07-29T09:44:52Z</time>
      </trkpt>
      <trkpt lat="46.42173" lon="5.5948">
        <ele>486</ele>
        <time>2022-07-29T09:44:53Z</time>
      </trkpt>
      <trkpt lat="46.42172" lon="5.59479">
        <ele>486</ele>
        <time>2022-07-29T09:44:54Z</time>
      </trkpt>
      <trkpt lat="46.4217" lon="5.59478">
        <ele>486.2</ele>
        <time>2022-07-29T09:44:55Z</time>
      </trkpt>
      <trkpt lat="46.42168" lon="5.59477">
        <ele>486.2</ele>
        <time>2022-07-29T09:44:56Z</time>
      </trkpt>
      <trkpt lat="46.42166" lon="5.59476">
        <ele>486.2</ele>
        <time>2022-07-29T09:44:57Z</time>
      </trkpt>
      <trkpt lat="46.42164" lon="5.59475">
        <ele>486.4</ele>
        <time>2022-07-29T09:44:58Z</time>
      </trkpt>
      <trkpt lat="46.42161" lon="5.59474">
        <ele>486.4</ele>
        <time>2022-07-29T09:44:59Z</time>
      </trkpt>
      <trkpt lat="46.42159" lon="5.59473">
        <ele>486.4</ele>
        <time>2022-07-29T09:45:00Z</time>
      </trkpt>
      <trkpt lat="46.42157" lon="5.59472">
        <ele>486.4</ele>
        <time>2022-07-29T09:45:01Z</time>
      </trkpt>
      <trkpt lat="46.42154" lon="5.59471">
        <ele>486.4</ele>
        <time>2022-07-29T09:45:02Z</time>
      </trkpt>
      <trkpt lat="46.42151" lon="5.5947">
        <ele>486.6</ele>
        <time>2022-07-29T09:45:03Z</time>
      </trkpt>
      <trkpt lat="46.42148" lon="5.59469">
        <ele>486.6</ele>
        <time>2022-07-29T09:45:04Z</time>
      </trkpt>
      <trkpt lat="46.42145" lon="5.59468">
        <ele>486.6</ele>
        <time>2022-07-29T09:45:05Z</time>
      </trkpt>
      <trkpt lat="46.42142" lon="5.59468">
        <ele>486.6</ele>
        <time>2022-07-29T09:45:06Z</time>
      </trkpt>
      <trkpt lat="46.42139" lon="5.59468">
        <ele>486.6</ele>
        <time>2022-07-29T09:45:07Z</time>
      </trkpt>
      <trkpt lat="46.42135" lon="5.59469">
        <ele>486.6</ele>
        <time>2022-07-29T09:45:08Z</time>
      </trkpt>
      <trkpt lat="46.42132" lon="5.59471">
        <ele>486.6</ele>
        <time>2022-07-29T09:45:09Z</time>
      </trkpt>
      <trkpt lat="46.42128" lon="5.59475">
        <ele>486.6</ele>
        <time>2022-07-29T09:45:10Z</time>
      </trkpt>
      <trkpt lat="46.42126" lon="5.59479">
        <ele>486.6</ele>
        <time>2022-07-29T09:45:11Z</time>
      </trkpt>
      <trkpt lat="46.42124" lon="5.59484">
        <ele>486.6</ele>
        <time>2022-07-29T09:45:12Z</time>
      </trkpt>
      <trkpt lat="46.42122" lon="5.59488">
        <ele>486.6</ele>
        <time>2022-07-29T09:45:13Z</time>
      </trkpt>
      <trkpt lat="46.42121" lon="5.59492">
        <ele>487</ele>
        <time>2022-07-29T09:45:14Z</time>
      </trkpt>
      <trkpt lat="46.4212" lon="5.59496">
        <ele>487</ele>
        <time>2022-07-29T09:45:15Z</time>
      </trkpt>
      <trkpt lat="46.42118" lon="5.595">
        <ele>487.4</ele>
        <time>2022-07-29T09:45:16Z</time>
      </trkpt>
      <trkpt lat="46.42117" lon="5.59503">
        <ele>487.6</ele>
        <time>2022-07-29T09:45:17Z</time>
      </trkpt>
      <trkpt lat="46.42115" lon="5.59507">
        <ele>487.8</ele>
        <time>2022-07-29T09:45:18Z</time>
      </trkpt>
      <trkpt lat="46.42114" lon="5.5951">
        <ele>488</ele>
        <time>2022-07-29T09:45:19Z</time>
      </trkpt>
      <trkpt lat="46.42113" lon="5.59514">
        <ele>488.2</ele>
        <time>2022-07-29T09:45:20Z</time>
      </trkpt>
      <trkpt lat="46.42112" lon="5.59517">
        <ele>488.2</ele>
        <time>2022-07-29T09:45:21Z</time>
      </trkpt>
      <trkpt lat="46.42111" lon="5.59521">
        <ele>488.8</ele>
        <time>2022-07-29T09:45:22Z</time>
      </trkpt>
      <trkpt lat="46.42109" lon="5.59524">
        <ele>489</ele>
        <time>2022-07-29T09:45:23Z</time>
      </trkpt>
      <trkpt lat="46.42108" lon="5.59528">
        <ele>489.2</ele>
        <time>2022-07-29T09:45:24Z</time>
      </trkpt>
      <trkpt lat="46.42107" lon="5.59531">
        <ele>489.6</ele>
        <time>2022-07-29T09:45:25Z</time>
      </trkpt>
      <trkpt lat="46.42105" lon="5.59534">
        <ele>489.8</ele>
        <time>2022-07-29T09:45:26Z</time>
      </trkpt>
      <trkpt lat="46.42103" lon="5.59537">
        <ele>490</ele>
        <time>2022-07-29T09:45:27Z</time>
      </trkpt>
      <trkpt lat="46.42101" lon="5.5954">
        <ele>490.4</ele>
        <time>2022-07-29T09:45:28Z</time>
      </trkpt>
      <trkpt lat="46.421" lon="5.59543">
        <ele>490.6</ele>
        <time>2022-07-29T09:45:29Z</time>
      </trkpt>
      <trkpt lat="46.42099" lon="5.59546">
        <ele>490.8</ele>
        <time>2022-07-29T09:45:30Z</time>
      </trkpt>
      <trkpt lat="46.42098" lon="5.59548">
        <ele>491.2</ele>
        <time>2022-07-29T09:45:31Z</time>
      </trkpt>
      <trkpt lat="46.42097" lon="5.59552">
        <ele>491.4</ele>
        <time>2022-07-29T09:45:32Z</time>
      </trkpt>
      <trkpt lat="46.42095" lon="5.59555">
        <ele>491.6</ele>
        <time>2022-07-29T09:45:33Z</time>
      </trkpt>
      <trkpt lat="46.42094" lon="5.59558">
        <ele>492</ele>
        <time>2022-07-29T09:45:34Z</time>
      </trkpt>
      <trkpt lat="46.42092" lon="5.59561">
        <ele>492.2</ele>
        <time>2022-07-29T09:45:35Z</time>
      </trkpt>
      <trkpt lat="46.42091" lon="5.59564">
        <ele>492.4</ele>
        <time>2022-07-29T09:45:36Z</time>
      </trkpt>
      <trkpt lat="46.42089" lon="5.59567">
        <ele>492.8</ele>
        <time>2022-07-29T09:45:37Z</time>
      </trkpt>
      <trkpt lat="46.42088" lon="5.5957">
        <ele>493</ele>
        <time>2022-07-29T09:45:38Z</time>
      </trkpt>
      <trkpt lat="46.42086" lon="5.59573">
        <ele>493.2</ele>
        <time>2022-07-29T09:45:39Z</time>
      </trkpt>
      <trkpt lat="46.42085" lon="5.59575">
        <ele>493.6</ele>
        <time>2022-07-29T09:45:40Z</time>
      </trkpt>
      <trkpt lat="46.42083" lon="5.59578">
        <ele>493.8</ele>
        <time>2022-07-29T09:45:41Z</time>
      </trkpt>
      <trkpt lat="46.42082" lon="5.5958">
        <ele>493.8</ele>
        <time>2022-07-29T09:45:42Z</time>
      </trkpt>
      <trkpt lat="46.4208" lon="5.59583">
        <ele>494.2</ele>
        <time>2022-07-29T09:45:43Z</time>
      </trkpt>
      <trkpt lat="46.42079" lon="5.59586">
        <ele>494.4</ele>
        <time>2022-07-29T09:45:44Z</time>
      </trkpt>
      <trkpt lat="46.42077" lon="5.59589">
        <ele>494.6</ele>
        <time>2022-07-29T09:45:45Z</time>
      </trkpt>
      <trkpt lat="46.42076" lon="5.59591">
        <ele>494.6</ele>
        <time>2022-07-29T09:45:46Z</time>
      </trkpt>
      <trkpt lat="46.42074" lon="5.59594">
        <ele>495</ele>
        <time>2022-07-29T09:45:47Z</time>
      </trkpt>
      <trkpt lat="46.42073" lon="5.59597">
        <ele>495</ele>
        <time>2022-07-29T09:45:48Z</time>
      </trkpt>
      <trkpt lat="46.42071" lon="5.59599">
        <ele>495.2</ele>
        <time>2022-07-29T09:45:49Z</time>
      </trkpt>
      <trkpt lat="46.42069" lon="5.59601">
        <ele>495.2</ele>
        <time>2022-07-29T09:45:50Z</time>
      </trkpt>
      <trkpt lat="46.42067" lon="5.59604">
        <ele>495.6</ele>
        <time>2022-07-29T09:45:51Z</time>
      </trkpt>
      <trkpt lat="46.42065" lon="5.59606">
        <ele>495.8</ele>
        <time>2022-07-29T09:45:52Z</time>
      </trkpt>
      <trkpt lat="46.42063" lon="5.59609">
        <ele>495.8</ele>
        <time>2022-07-29T09:45:53Z</time>
      </trkpt>
      <trkpt lat="46.42061" lon="5.59612">
        <ele>496</ele>
        <time>2022-07-29T09:45:54Z</time>
      </trkpt>
      <trkpt lat="46.42058" lon="5.59614">
        <ele>496</ele>
        <time>2022-07-29T09:45:55Z</time>
      </trkpt>
      <trkpt lat="46.42056" lon="5.59617">
        <ele>496</ele>
        <time>2022-07-29T09:45:56Z</time>
      </trkpt>
      <trkpt lat="46.42054" lon="5.5962">
        <ele>496</ele>
        <time>2022-07-29T09:45:57Z</time>
      </trkpt>
      <trkpt lat="46.42052" lon="5.59623">
        <ele>496.2</ele>
        <time>2022-07-29T09:45:58Z</time>
      </trkpt>
      <trkpt lat="46.4205" lon="5.59626">
        <ele>496.2</ele>
        <time>2022-07-29T09:45:59Z</time>
      </trkpt>
      <trkpt lat="46.42047" lon="5.59629">
        <ele>496.2</ele>
        <time>2022-07-29T09:46:00Z</time>
      </trkpt>
      <trkpt lat="46.42045" lon="5.59632">
        <ele>496.6</ele>
        <time>2022-07-29T09:46:01Z</time>
      </trkpt>
      <trkpt lat="46.42043" lon="5.59635">
        <ele>496.6</ele>
        <time>2022-07-29T09:46:02Z</time>
      </trkpt>
      <trkpt lat="46.4204" lon="5.59638">
        <ele>496.8</ele>
        <time>2022-07-29T09:46:03Z</time>
      </trkpt>
      <trkpt lat="46.42038" lon="5.59641">
        <ele>496.8</ele>
        <time>2022-07-29T09:46:04Z</time>
      </trkpt>
      <trkpt lat="46.42035" lon="5.59645">
        <ele>497</ele>
        <time>2022-07-29T09:46:05Z</time>
      </trkpt>
      <trkpt lat="46.42033" lon="5.59648">
        <ele>497.2</ele>
        <time>2022-07-29T09:46:06Z</time>
      </trkpt>
      <trkpt lat="46.42031" lon="5.59651">
        <ele>497.6</ele>
        <time>2022-07-29T09:46:07Z</time>
      </trkpt>
      <trkpt lat="46.42029" lon="5.59654">
        <ele>497.6</ele>
        <time>2022-07-29T09:46:08Z</time>
      </trkpt>
      <trkpt lat="46.42027" lon="5.59657">
        <ele>497.8</ele>
        <time>2022-07-29T09:46:09Z</time>
      </trkpt>
      <trkpt lat="46.42024" lon="5.5966">
        <ele>498.2</ele>
        <time>2022-07-29T09:46:10Z</time>
      </trkpt>
      <trkpt lat="46.42022" lon="5.59662">
        <ele>498.4</ele>
        <time>2022-07-29T09:46:11Z</time>
      </trkpt>
      <trkpt lat="46.4202" lon="5.59665">
        <ele>498.6</ele>
        <time>2022-07-29T09:46:12Z</time>
      </trkpt>
      <trkpt lat="46.42017" lon="5.59668">
        <ele>499</ele>
        <time>2022-07-29T09:46:13Z</time>
      </trkpt>
      <trkpt lat="46.42015" lon="5.5967">
        <ele>499.2</ele>
        <time>2022-07-29T09:46:14Z</time>
      </trkpt>
      <trkpt lat="46.42013" lon="5.59672">
        <ele>499.6</ele>
        <time>2022-07-29T09:46:15Z</time>
      </trkpt>
      <trkpt lat="46.42011" lon="5.59675">
        <ele>499.8</ele>
        <time>2022-07-29T09:46:16Z</time>
      </trkpt>
      <trkpt lat="46.42007" lon="5.59679">
        <ele>500.2</ele>
        <time>2022-07-29T09:46:17Z</time>
      </trkpt>
      <trkpt lat="46.42005" lon="5.59681">
        <ele>500.2</ele>
        <time>2022-07-29T09:46:18Z</time>
      </trkpt>
      <trkpt lat="46.42003" lon="5.59684">
        <ele>500.6</ele>
        <time>2022-07-29T09:46:19Z</time>
      </trkpt>
      <trkpt lat="46.42001" lon="5.59687">
        <ele>500.8</ele>
        <time>2022-07-29T09:46:20Z</time>
      </trkpt>
      <trkpt lat="46.41999" lon="5.5969">
        <ele>501</ele>
        <time>2022-07-29T09:46:21Z</time>
      </trkpt>
      <trkpt lat="46.41997" lon="5.59692">
        <ele>501.2</ele>
        <time>2022-07-29T09:46:22Z</time>
      </trkpt>
      <trkpt lat="46.41995" lon="5.59695">
        <ele>501.6</ele>
        <time>2022-07-29T09:46:23Z</time>
      </trkpt>
      <trkpt lat="46.41992" lon="5.59698">
        <ele>501.6</ele>
        <time>2022-07-29T09:46:24Z</time>
      </trkpt>
      <trkpt lat="46.41991" lon="5.59701">
        <ele>501.8</ele>
        <time>2022-07-29T09:46:25Z</time>
      </trkpt>
      <trkpt lat="46.41988" lon="5.59703">
        <ele>501.8</ele>
        <time>2022-07-29T09:46:26Z</time>
      </trkpt>
      <trkpt lat="46.41986" lon="5.59706">
        <ele>502.2</ele>
        <time>2022-07-29T09:46:27Z</time>
      </trkpt>
      <trkpt lat="46.41984" lon="5.59709">
        <ele>502.4</ele>
        <time>2022-07-29T09:46:28Z</time>
      </trkpt>
      <trkpt lat="46.41982" lon="5.59711">
        <ele>502.4</ele>
        <time>2022-07-29T09:46:29Z</time>
      </trkpt>
      <trkpt lat="46.4198" lon="5.59714">
        <ele>502.8</ele>
        <time>2022-07-29T09:46:31Z</time>
      </trkpt>
      <trkpt lat="46.41978" lon="5.59717">
        <ele>502.8</ele>
        <time>2022-07-29T09:46:32Z</time>
      </trkpt>
      <trkpt lat="46.41976" lon="5.5972">
        <ele>503.2</ele>
        <time>2022-07-29T09:46:33Z</time>
      </trkpt>
      <trkpt lat="46.41974" lon="5.59723">
        <ele>503.2</ele>
        <time>2022-07-29T09:46:34Z</time>
      </trkpt>
      <trkpt lat="46.41972" lon="5.59725">
        <ele>503.4</ele>
        <time>2022-07-29T09:46:35Z</time>
      </trkpt>
      <trkpt lat="46.4197" lon="5.59728">
        <ele>503.4</ele>
        <time>2022-07-29T09:46:36Z</time>
      </trkpt>
      <trkpt lat="46.41968" lon="5.59731">
        <ele>503.8</ele>
        <time>2022-07-29T09:46:37Z</time>
      </trkpt>
      <trkpt lat="46.41966" lon="5.59734">
        <ele>503.8</ele>
        <time>2022-07-29T09:46:38Z</time>
      </trkpt>
      <trkpt lat="46.41965" lon="5.59736">
        <ele>504.2</ele>
        <time>2022-07-29T09:46:39Z</time>
      </trkpt>
      <trkpt lat="46.41963" lon="5.59738">
        <ele>504.4</ele>
        <time>2022-07-29T09:46:40Z</time>
      </trkpt>
      <trkpt lat="46.41961" lon="5.59741">
        <ele>504.6</ele>
        <time>2022-07-29T09:46:41Z</time>
      </trkpt>
      <trkpt lat="46.41959" lon="5.59743">
        <ele>504.8</ele>
        <time>2022-07-29T09:46:42Z</time>
      </trkpt>
      <trkpt lat="46.41957" lon="5.59745">
        <ele>504.8</ele>
        <time>2022-07-29T09:46:43Z</time>
      </trkpt>
      <trkpt lat="46.41956" lon="5.59747">
        <ele>505.2</ele>
        <time>2022-07-29T09:46:44Z</time>
      </trkpt>
      <trkpt lat="46.41954" lon="5.59749">
        <ele>505.2</ele>
        <time>2022-07-29T09:46:45Z</time>
      </trkpt>
      <trkpt lat="46.41952" lon="5.59752">
        <ele>505.6</ele>
        <time>2022-07-29T09:46:46Z</time>
      </trkpt>
      <trkpt lat="46.41951" lon="5.59754">
        <ele>505.6</ele>
        <time>2022-07-29T09:46:47Z</time>
      </trkpt>
      <trkpt lat="46.41949" lon="5.59757">
        <ele>506</ele>
        <time>2022-07-29T09:46:48Z</time>
      </trkpt>
      <trkpt lat="46.41948" lon="5.59759">
        <ele>506</ele>
        <time>2022-07-29T09:46:49Z</time>
      </trkpt>
      <trkpt lat="46.41946" lon="5.59762">
        <ele>506.4</ele>
        <time>2022-07-29T09:46:50Z</time>
      </trkpt>
      <trkpt lat="46.41944" lon="5.59765">
        <ele>506.4</ele>
        <time>2022-07-29T09:46:51Z</time>
      </trkpt>
      <trkpt lat="46.41942" lon="5.59767">
        <ele>506.8</ele>
        <time>2022-07-29T09:46:52Z</time>
      </trkpt>
      <trkpt lat="46.4194" lon="5.5977">
        <ele>507</ele>
        <time>2022-07-29T09:46:53Z</time>
      </trkpt>
      <trkpt lat="46.41938" lon="5.59773">
        <ele>507</ele>
        <time>2022-07-29T09:46:54Z</time>
      </trkpt>
      <trkpt lat="46.41937" lon="5.59776">
        <ele>507.4</ele>
        <time>2022-07-29T09:46:55Z</time>
      </trkpt>
      <trkpt lat="46.41935" lon="5.59779">
        <ele>507.4</ele>
        <time>2022-07-29T09:46:56Z</time>
      </trkpt>
      <trkpt lat="46.41933" lon="5.59781">
        <ele>507.6</ele>
        <time>2022-07-29T09:46:57Z</time>
      </trkpt>
      <trkpt lat="46.41931" lon="5.59784">
        <ele>507.6</ele>
        <time>2022-07-29T09:46:58Z</time>
      </trkpt>
      <trkpt lat="46.41929" lon="5.59787">
        <ele>508</ele>
        <time>2022-07-29T09:46:59Z</time>
      </trkpt>
      <trkpt lat="46.41927" lon="5.59789">
        <ele>508.4</ele>
        <time>2022-07-29T09:47:00Z</time>
      </trkpt>
      <trkpt lat="46.41925" lon="5.59792">
        <ele>508.4</ele>
        <time>2022-07-29T09:47:01Z</time>
      </trkpt>
      <trkpt lat="46.41923" lon="5.59794">
        <ele>508.8</ele>
        <time>2022-07-29T09:47:02Z</time>
      </trkpt>
      <trkpt lat="46.41922" lon="5.59796">
        <ele>508.8</ele>
        <time>2022-07-29T09:47:03Z</time>
      </trkpt>
      <trkpt lat="46.4192" lon="5.59799">
        <ele>509.2</ele>
        <time>2022-07-29T09:47:04Z</time>
      </trkpt>
      <trkpt lat="46.41919" lon="5.59801">
        <ele>509.2</ele>
        <time>2022-07-29T09:47:05Z</time>
      </trkpt>
      <trkpt lat="46.41917" lon="5.59804">
        <ele>509.6</ele>
        <time>2022-07-29T09:47:06Z</time>
      </trkpt>
      <trkpt lat="46.41915" lon="5.59806">
        <ele>509.6</ele>
        <time>2022-07-29T09:47:07Z</time>
      </trkpt>
      <trkpt lat="46.41914" lon="5.59809">
        <ele>510</ele>
        <time>2022-07-29T09:47:08Z</time>
      </trkpt>
      <trkpt lat="46.41912" lon="5.59811">
        <ele>510</ele>
        <time>2022-07-29T09:47:09Z</time>
      </trkpt>
      <trkpt lat="46.41911" lon="5.59814">
        <ele>510.4</ele>
        <time>2022-07-29T09:47:10Z</time>
      </trkpt>
      <trkpt lat="46.41909" lon="5.59816">
        <ele>510.6</ele>
        <time>2022-07-29T09:47:11Z</time>
      </trkpt>
      <trkpt lat="46.41907" lon="5.59818">
        <ele>510.6</ele>
        <time>2022-07-29T09:47:12Z</time>
      </trkpt>
      <trkpt lat="46.41905" lon="5.59821">
        <ele>511</ele>
        <time>2022-07-29T09:47:13Z</time>
      </trkpt>
      <trkpt lat="46.41903" lon="5.59823">
        <ele>511</ele>
        <time>2022-07-29T09:47:14Z</time>
      </trkpt>
      <trkpt lat="46.41902" lon="5.59826">
        <ele>511.2</ele>
        <time>2022-07-29T09:47:15Z</time>
      </trkpt>
      <trkpt lat="46.419" lon="5.59828">
        <ele>511.2</ele>
        <time>2022-07-29T09:47:16Z</time>
      </trkpt>
      <trkpt lat="46.41898" lon="5.59831">
        <ele>511.6</ele>
        <time>2022-07-29T09:47:17Z</time>
      </trkpt>
      <trkpt lat="46.41896" lon="5.59833">
        <ele>511.6</ele>
        <time>2022-07-29T09:47:18Z</time>
      </trkpt>
      <trkpt lat="46.41894" lon="5.59835">
        <ele>512</ele>
        <time>2022-07-29T09:47:19Z</time>
      </trkpt>
      <trkpt lat="46.41892" lon="5.59837">
        <ele>512.2</ele>
        <time>2022-07-29T09:47:20Z</time>
      </trkpt>
      <trkpt lat="46.4189" lon="5.5984">
        <ele>512.2</ele>
        <time>2022-07-29T09:47:21Z</time>
      </trkpt>
      <trkpt lat="46.41888" lon="5.59842">
        <ele>512.6</ele>
        <time>2022-07-29T09:47:22Z</time>
      </trkpt>
      <trkpt lat="46.41887" lon="5.59845">
        <ele>512.6</ele>
        <time>2022-07-29T09:47:23Z</time>
      </trkpt>
      <trkpt lat="46.41885" lon="5.59847">
        <ele>512.8</ele>
        <time>2022-07-29T09:47:24Z</time>
      </trkpt>
      <trkpt lat="46.41884" lon="5.5985">
        <ele>512.8</ele>
        <time>2022-07-29T09:47:25Z</time>
      </trkpt>
      <trkpt lat="46.41882" lon="5.59853">
        <ele>513</ele>
        <time>2022-07-29T09:47:26Z</time>
      </trkpt>
      <trkpt lat="46.4188" lon="5.59855">
        <ele>513</ele>
        <time>2022-07-29T09:47:27Z</time>
      </trkpt>
      <trkpt lat="46.41878" lon="5.59858">
        <ele>513.4</ele>
        <time>2022-07-29T09:47:28Z</time>
      </trkpt>
      <trkpt lat="46.41876" lon="5.59861">
        <ele>513.4</ele>
        <time>2022-07-29T09:47:29Z</time>
      </trkpt>
      <trkpt lat="46.41874" lon="5.59864">
        <ele>513.6</ele>
        <time>2022-07-29T09:47:30Z</time>
      </trkpt>
      <trkpt lat="46.41873" lon="5.59867">
        <ele>513.6</ele>
        <time>2022-07-29T09:47:31Z</time>
      </trkpt>
      <trkpt lat="46.41871" lon="5.5987">
        <ele>514</ele>
        <time>2022-07-29T09:47:32Z</time>
      </trkpt>
      <trkpt lat="46.41869" lon="5.59873">
        <ele>514.2</ele>
        <time>2022-07-29T09:47:33Z</time>
      </trkpt>
      <trkpt lat="46.41868" lon="5.59876">
        <ele>514.4</ele>
        <time>2022-07-29T09:47:34Z</time>
      </trkpt>
      <trkpt lat="46.41866" lon="5.59879">
        <ele>514.6</ele>
        <time>2022-07-29T09:47:35Z</time>
      </trkpt>
      <trkpt lat="46.41865" lon="5.59882">
        <ele>514.6</ele>
        <time>2022-07-29T09:47:36Z</time>
      </trkpt>
      <trkpt lat="46.41864" lon="5.59885">
        <ele>515</ele>
        <time>2022-07-29T09:47:37Z</time>
      </trkpt>
      <trkpt lat="46.41862" lon="5.59888">
        <ele>515</ele>
        <time>2022-07-29T09:47:38Z</time>
      </trkpt>
      <trkpt lat="46.41861" lon="5.5989">
        <ele>515.4</ele>
        <time>2022-07-29T09:47:39Z</time>
      </trkpt>
      <trkpt lat="46.41859" lon="5.59893">
        <ele>515.4</ele>
        <time>2022-07-29T09:47:40Z</time>
      </trkpt>
      <trkpt lat="46.41857" lon="5.59896">
        <ele>515.8</ele>
        <time>2022-07-29T09:47:41Z</time>
      </trkpt>
      <trkpt lat="46.41855" lon="5.59898">
        <ele>516</ele>
        <time>2022-07-29T09:47:42Z</time>
      </trkpt>
      <trkpt lat="46.41854" lon="5.59901">
        <ele>516.2</ele>
        <time>2022-07-29T09:47:43Z</time>
      </trkpt>
      <trkpt lat="46.41852" lon="5.59903">
        <ele>516.2</ele>
        <time>2022-07-29T09:47:44Z</time>
      </trkpt>
      <trkpt lat="46.4185" lon="5.59906">
        <ele>516.6</ele>
        <time>2022-07-29T09:47:45Z</time>
      </trkpt>
      <trkpt lat="46.41849" lon="5.59908">
        <ele>516.6</ele>
        <time>2022-07-29T09:47:46Z</time>
      </trkpt>
      <trkpt lat="46.41847" lon="5.59909">
        <ele>516.8</ele>
        <time>2022-07-29T09:47:47Z</time>
      </trkpt>
      <trkpt lat="46.41845" lon="5.59911">
        <ele>516.8</ele>
        <time>2022-07-29T09:47:48Z</time>
      </trkpt>
      <trkpt lat="46.41843" lon="5.59913">
        <ele>517.2</ele>
        <time>2022-07-29T09:47:49Z</time>
      </trkpt>
      <trkpt lat="46.4184" lon="5.59915">
        <ele>517.2</ele>
        <time>2022-07-29T09:47:50Z</time>
      </trkpt>
      <trkpt lat="46.41839" lon="5.59916">
        <ele>517.4</ele>
        <time>2022-07-29T09:47:51Z</time>
      </trkpt>
      <trkpt lat="46.41837" lon="5.59918">
        <ele>517.4</ele>
        <time>2022-07-29T09:47:52Z</time>
      </trkpt>
      <trkpt lat="46.41835" lon="5.5992">
        <ele>517.6</ele>
        <time>2022-07-29T09:47:53Z</time>
      </trkpt>
      <trkpt lat="46.41833" lon="5.59922">
        <ele>517.6</ele>
        <time>2022-07-29T09:47:54Z</time>
      </trkpt>
      <trkpt lat="46.41832" lon="5.59923">
        <ele>518</ele>
        <time>2022-07-29T09:47:55Z</time>
      </trkpt>
      <trkpt lat="46.4183" lon="5.59925">
        <ele>518</ele>
        <time>2022-07-29T09:47:56Z</time>
      </trkpt>
      <trkpt lat="46.41828" lon="5.59927">
        <ele>518.2</ele>
        <time>2022-07-29T09:47:57Z</time>
      </trkpt>
      <trkpt lat="46.41826" lon="5.59928">
        <ele>518.2</ele>
        <time>2022-07-29T09:47:58Z</time>
      </trkpt>
      <trkpt lat="46.41824" lon="5.5993">
        <ele>518.6</ele>
        <time>2022-07-29T09:47:59Z</time>
      </trkpt>
      <trkpt lat="46.41822" lon="5.59932">
        <ele>518.6</ele>
        <time>2022-07-29T09:48:00Z</time>
      </trkpt>
      <trkpt lat="46.4182" lon="5.59934">
        <ele>518.8</ele>
        <time>2022-07-29T09:48:01Z</time>
      </trkpt>
      <trkpt lat="46.41819" lon="5.59936">
        <ele>518.8</ele>
        <time>2022-07-29T09:48:02Z</time>
      </trkpt>
      <trkpt lat="46.41817" lon="5.59937">
        <ele>519.2</ele>
        <time>2022-07-29T09:48:03Z</time>
      </trkpt>
      <trkpt lat="46.41815" lon="5.59939">
        <ele>519.2</ele>
        <time>2022-07-29T09:48:04Z</time>
      </trkpt>
      <trkpt lat="46.41813" lon="5.5994">
        <ele>519.6</ele>
        <time>2022-07-29T09:48:05Z</time>
      </trkpt>
      <trkpt lat="46.41811" lon="5.59942">
        <ele>519.6</ele>
        <time>2022-07-29T09:48:06Z</time>
      </trkpt>
      <trkpt lat="46.4181" lon="5.59943">
        <ele>519.8</ele>
        <time>2022-07-29T09:48:07Z</time>
      </trkpt>
      <trkpt lat="46.41808" lon="5.59945">
        <ele>519.8</ele>
        <time>2022-07-29T09:48:08Z</time>
      </trkpt>
      <trkpt lat="46.41806" lon="5.59946">
        <ele>520</ele>
        <time>2022-07-29T09:48:09Z</time>
      </trkpt>
      <trkpt lat="46.41804" lon="5.59948">
        <ele>520</ele>
        <time>2022-07-29T09:48:10Z</time>
      </trkpt>
      <trkpt lat="46.41803" lon="5.59951">
        <ele>520.4</ele>
        <time>2022-07-29T09:48:11Z</time>
      </trkpt>
      <trkpt lat="46.41801" lon="5.59953">
        <ele>520.4</ele>
        <time>2022-07-29T09:48:12Z</time>
      </trkpt>
      <trkpt lat="46.41799" lon="5.59954">
        <ele>520.8</ele>
        <time>2022-07-29T09:48:13Z</time>
      </trkpt>
      <trkpt lat="46.41798" lon="5.59956">
        <ele>520.8</ele>
        <time>2022-07-29T09:48:14Z</time>
      </trkpt>
      <trkpt lat="46.41796" lon="5.59958">
        <ele>521</ele>
        <time>2022-07-29T09:48:15Z</time>
      </trkpt>
      <trkpt lat="46.41795" lon="5.59959">
        <ele>521</ele>
        <time>2022-07-29T09:48:16Z</time>
      </trkpt>
      <trkpt lat="46.41793" lon="5.59961">
        <ele>521.4</ele>
        <time>2022-07-29T09:48:17Z</time>
      </trkpt>
      <trkpt lat="46.41792" lon="5.59963">
        <ele>521.6</ele>
        <time>2022-07-29T09:48:18Z</time>
      </trkpt>
      <trkpt lat="46.4179" lon="5.59965">
        <ele>521.6</ele>
        <time>2022-07-29T09:48:19Z</time>
      </trkpt>
      <trkpt lat="46.41788" lon="5.59967">
        <ele>522</ele>
        <time>2022-07-29T09:48:20Z</time>
      </trkpt>
      <trkpt lat="46.41787" lon="5.59968">
        <ele>522</ele>
        <time>2022-07-29T09:48:21Z</time>
      </trkpt>
      <trkpt lat="46.41785" lon="5.59969">
        <ele>522.4</ele>
        <time>2022-07-29T09:48:22Z</time>
      </trkpt>
      <trkpt lat="46.41783" lon="5.5997">
        <ele>522.4</ele>
        <time>2022-07-29T09:48:23Z</time>
      </trkpt>
      <trkpt lat="46.41781" lon="5.59971">
        <ele>522.8</ele>
        <time>2022-07-29T09:48:24Z</time>
      </trkpt>
      <trkpt lat="46.4178" lon="5.59972">
        <ele>523</ele>
        <time>2022-07-29T09:48:25Z</time>
      </trkpt>
      <trkpt lat="46.41778" lon="5.59974">
        <ele>523</ele>
        <time>2022-07-29T09:48:26Z</time>
      </trkpt>
      <trkpt lat="46.41777" lon="5.59974">
        <ele>523.4</ele>
        <time>2022-07-29T09:48:27Z</time>
      </trkpt>
      <trkpt lat="46.41775" lon="5.59974">
        <ele>523.4</ele>
        <time>2022-07-29T09:48:28Z</time>
      </trkpt>
      <trkpt lat="46.41774" lon="5.59973">
        <ele>523.8</ele>
        <time>2022-07-29T09:48:29Z</time>
      </trkpt>
      <trkpt lat="46.41772" lon="5.59973">
        <ele>523.8</ele>
        <time>2022-07-29T09:48:30Z</time>
      </trkpt>
      <trkpt lat="46.4177" lon="5.59972">
        <ele>524.2</ele>
        <time>2022-07-29T09:48:31Z</time>
      </trkpt>
      <trkpt lat="46.41768" lon="5.5997">
        <ele>524.2</ele>
        <time>2022-07-29T09:48:32Z</time>
      </trkpt>
      <trkpt lat="46.41767" lon="5.59968">
        <ele>524.6</ele>
        <time>2022-07-29T09:48:33Z</time>
      </trkpt>
      <trkpt lat="46.41765" lon="5.59966">
        <ele>524.6</ele>
        <time>2022-07-29T09:48:34Z</time>
      </trkpt>
      <trkpt lat="46.41763" lon="5.59964">
        <ele>525</ele>
        <time>2022-07-29T09:48:35Z</time>
      </trkpt>
      <trkpt lat="46.41762" lon="5.59962">
        <ele>525.2</ele>
        <time>2022-07-29T09:48:36Z</time>
      </trkpt>
      <trkpt lat="46.4176" lon="5.59961">
        <ele>525.4</ele>
        <time>2022-07-29T09:48:37Z</time>
      </trkpt>
      <trkpt lat="46.41758" lon="5.59959">
        <ele>525.8</ele>
        <time>2022-07-29T09:48:38Z</time>
      </trkpt>
      <trkpt lat="46.41756" lon="5.59958">
        <ele>526</ele>
        <time>2022-07-29T09:48:39Z</time>
      </trkpt>
      <trkpt lat="46.41754" lon="5.59956">
        <ele>526</ele>
        <time>2022-07-29T09:48:40Z</time>
      </trkpt>
      <trkpt lat="46.41752" lon="5.59955">
        <ele>526.4</ele>
        <time>2022-07-29T09:48:41Z</time>
      </trkpt>
      <trkpt lat="46.4175" lon="5.59954">
        <ele>526.4</ele>
        <time>2022-07-29T09:48:42Z</time>
      </trkpt>
      <trkpt lat="46.41747" lon="5.59954">
        <ele>526.6</ele>
        <time>2022-07-29T09:48:43Z</time>
      </trkpt>
      <trkpt lat="46.41744" lon="5.59953">
        <ele>526.6</ele>
        <time>2022-07-29T09:48:44Z</time>
      </trkpt>
      <trkpt lat="46.41741" lon="5.59953">
        <ele>527</ele>
        <time>2022-07-29T09:48:45Z</time>
      </trkpt>
      <trkpt lat="46.41739" lon="5.59952">
        <ele>527</ele>
        <time>2022-07-29T09:48:46Z</time>
      </trkpt>
      <trkpt lat="46.41736" lon="5.59952">
        <ele>527.4</ele>
        <time>2022-07-29T09:48:47Z</time>
      </trkpt>
      <trkpt lat="46.41734" lon="5.59952">
        <ele>527.4</ele>
        <time>2022-07-29T09:48:48Z</time>
      </trkpt>
      <trkpt lat="46.41732" lon="5.59952">
        <ele>527.8</ele>
        <time>2022-07-29T09:48:49Z</time>
      </trkpt>
      <trkpt lat="46.4173" lon="5.59951">
        <ele>527.8</ele>
        <time>2022-07-29T09:48:50Z</time>
      </trkpt>
      <trkpt lat="46.41728" lon="5.59951">
        <ele>528</ele>
        <time>2022-07-29T09:48:51Z</time>
      </trkpt>
      <trkpt lat="46.41726" lon="5.59951">
        <ele>528</ele>
        <time>2022-07-29T09:48:52Z</time>
      </trkpt>
      <trkpt lat="46.41724" lon="5.59952">
        <ele>528.2</ele>
        <time>2022-07-29T09:48:53Z</time>
      </trkpt>
      <trkpt lat="46.41722" lon="5.59952">
        <ele>528.2</ele>
        <time>2022-07-29T09:48:54Z</time>
      </trkpt>
      <trkpt lat="46.4172" lon="5.59953">
        <ele>528.6</ele>
        <time>2022-07-29T09:48:55Z</time>
      </trkpt>
      <trkpt lat="46.41718" lon="5.59953">
        <ele>528.6</ele>
        <time>2022-07-29T09:48:56Z</time>
      </trkpt>
      <trkpt lat="46.41716" lon="5.59953">
        <ele>528.8</ele>
        <time>2022-07-29T09:48:57Z</time>
      </trkpt>
      <trkpt lat="46.41713" lon="5.59954">
        <ele>528.8</ele>
        <time>2022-07-29T09:48:58Z</time>
      </trkpt>
      <trkpt lat="46.41711" lon="5.59955">
        <ele>529.2</ele>
        <time>2022-07-29T09:48:59Z</time>
      </trkpt>
      <trkpt lat="46.4171" lon="5.59955">
        <ele>529.2</ele>
        <time>2022-07-29T09:49:00Z</time>
      </trkpt>
      <trkpt lat="46.41708" lon="5.59956">
        <ele>529.4</ele>
        <time>2022-07-29T09:49:01Z</time>
      </trkpt>
      <trkpt lat="46.41706" lon="5.59956">
        <ele>529.4</ele>
        <time>2022-07-29T09:49:02Z</time>
      </trkpt>
      <trkpt lat="46.41703" lon="5.59956">
        <ele>529.8</ele>
        <time>2022-07-29T09:49:03Z</time>
      </trkpt>
      <trkpt lat="46.41701" lon="5.59957">
        <ele>530.2</ele>
        <time>2022-07-29T09:49:04Z</time>
      </trkpt>
      <trkpt lat="46.417" lon="5.59957">
        <ele>530.2</ele>
        <time>2022-07-29T09:49:05Z</time>
      </trkpt>
      <trkpt lat="46.41698" lon="5.59958">
        <ele>530.4</ele>
        <time>2022-07-29T09:49:06Z</time>
      </trkpt>
      <trkpt lat="46.41697" lon="5.59959">
        <ele>530.8</ele>
        <time>2022-07-29T09:49:07Z</time>
      </trkpt>
      <trkpt lat="46.41694" lon="5.59959">
        <ele>530.8</ele>
        <time>2022-07-29T09:49:08Z</time>
      </trkpt>
      <trkpt lat="46.41692" lon="5.5996">
        <ele>531</ele>
        <time>2022-07-29T09:49:09Z</time>
      </trkpt>
      <trkpt lat="46.4169" lon="5.59961">
        <ele>531.4</ele>
        <time>2022-07-29T09:49:10Z</time>
      </trkpt>
      <trkpt lat="46.41687" lon="5.59961">
        <ele>531.4</ele>
        <time>2022-07-29T09:49:11Z</time>
      </trkpt>
      <trkpt lat="46.41685" lon="5.59961">
        <ele>531.6</ele>
        <time>2022-07-29T09:49:12Z</time>
      </trkpt>
      <trkpt lat="46.41682" lon="5.59962">
        <ele>532</ele>
        <time>2022-07-29T09:49:13Z</time>
      </trkpt>
      <trkpt lat="46.4168" lon="5.59962">
        <ele>532</ele>
        <time>2022-07-29T09:49:14Z</time>
      </trkpt>
      <trkpt lat="46.41675" lon="5.59963">
        <ele>532.2</ele>
        <time>2022-07-29T09:49:15Z</time>
      </trkpt>
      <trkpt lat="46.41673" lon="5.59963">
        <ele>532.2</ele>
        <time>2022-07-29T09:49:16Z</time>
      </trkpt>
      <trkpt lat="46.41672" lon="5.59964">
        <ele>532.4</ele>
        <time>2022-07-29T09:49:17Z</time>
      </trkpt>
      <trkpt lat="46.4167" lon="5.59964">
        <ele>532.4</ele>
        <time>2022-07-29T09:49:18Z</time>
      </trkpt>
      <trkpt lat="46.41668" lon="5.59965">
        <ele>532.8</ele>
        <time>2022-07-29T09:49:19Z</time>
      </trkpt>
      <trkpt lat="46.41666" lon="5.59966">
        <ele>532.8</ele>
        <time>2022-07-29T09:49:20Z</time>
      </trkpt>
      <trkpt lat="46.41664" lon="5.59967">
        <ele>533</ele>
        <time>2022-07-29T09:49:21Z</time>
      </trkpt>
      <trkpt lat="46.41662" lon="5.59968">
        <ele>533</ele>
        <time>2022-07-29T09:49:22Z</time>
      </trkpt>
      <trkpt lat="46.4166" lon="5.59969">
        <ele>533</ele>
        <time>2022-07-29T09:49:23Z</time>
      </trkpt>
      <trkpt lat="46.41658" lon="5.5997">
        <ele>533.4</ele>
        <time>2022-07-29T09:49:24Z</time>
      </trkpt>
      <trkpt lat="46.41655" lon="5.59971">
        <ele>533.4</ele>
        <time>2022-07-29T09:49:25Z</time>
      </trkpt>
      <trkpt lat="46.41654" lon="5.59972">
        <ele>533.8</ele>
        <time>2022-07-29T09:49:26Z</time>
      </trkpt>
      <trkpt lat="46.41652" lon="5.59973">
        <ele>533.8</ele>
        <time>2022-07-29T09:49:27Z</time>
      </trkpt>
      <trkpt lat="46.4165" lon="5.59974">
        <ele>534.2</ele>
        <time>2022-07-29T09:49:28Z</time>
      </trkpt>
      <trkpt lat="46.41648" lon="5.59975">
        <ele>534.2</ele>
        <time>2022-07-29T09:49:29Z</time>
      </trkpt>
      <trkpt lat="46.41646" lon="5.59976">
        <ele>534.4</ele>
        <time>2022-07-29T09:49:30Z</time>
      </trkpt>
      <trkpt lat="46.41644" lon="5.59978">
        <ele>534.4</ele>
        <time>2022-07-29T09:49:31Z</time>
      </trkpt>
      <trkpt lat="46.41642" lon="5.59979">
        <ele>534.8</ele>
        <time>2022-07-29T09:49:32Z</time>
      </trkpt>
      <trkpt lat="46.41641" lon="5.5998">
        <ele>534.8</ele>
        <time>2022-07-29T09:49:33Z</time>
      </trkpt>
      <trkpt lat="46.41639" lon="5.59981">
        <ele>535.2</ele>
        <time>2022-07-29T09:49:34Z</time>
      </trkpt>
      <trkpt lat="46.41638" lon="5.59983">
        <ele>535.2</ele>
        <time>2022-07-29T09:49:35Z</time>
      </trkpt>
      <trkpt lat="46.41636" lon="5.59984">
        <ele>535.4</ele>
        <time>2022-07-29T09:49:36Z</time>
      </trkpt>
      <trkpt lat="46.41634" lon="5.59985">
        <ele>535.6</ele>
        <time>2022-07-29T09:49:37Z</time>
      </trkpt>
      <trkpt lat="46.41632" lon="5.59986">
        <ele>535.6</ele>
        <time>2022-07-29T09:49:38Z</time>
      </trkpt>
      <trkpt lat="46.4163" lon="5.59988">
        <ele>536</ele>
        <time>2022-07-29T09:49:39Z</time>
      </trkpt>
      <trkpt lat="46.41628" lon="5.59989">
        <ele>536</ele>
        <time>2022-07-29T09:49:40Z</time>
      </trkpt>
      <trkpt lat="46.41627" lon="5.5999">
        <ele>536.4</ele>
        <time>2022-07-29T09:49:41Z</time>
      </trkpt>
      <trkpt lat="46.41625" lon="5.59991">
        <ele>536.4</ele>
        <time>2022-07-29T09:49:42Z</time>
      </trkpt>
      <trkpt lat="46.41624" lon="5.59992">
        <ele>536.6</ele>
        <time>2022-07-29T09:49:43Z</time>
      </trkpt>
      <trkpt lat="46.41623" lon="5.59993">
        <ele>536.6</ele>
        <time>2022-07-29T09:49:44Z</time>
      </trkpt>
      <trkpt lat="46.41621" lon="5.59994">
        <ele>537</ele>
        <time>2022-07-29T09:49:45Z</time>
      </trkpt>
      <trkpt lat="46.41618" lon="5.59994">
        <ele>537</ele>
        <time>2022-07-29T09:49:46Z</time>
      </trkpt>
      <trkpt lat="46.41616" lon="5.59995">
        <ele>537.2</ele>
        <time>2022-07-29T09:49:47Z</time>
      </trkpt>
      <trkpt lat="46.41614" lon="5.59995">
        <ele>537.2</ele>
        <time>2022-07-29T09:49:48Z</time>
      </trkpt>
      <trkpt lat="46.41612" lon="5.59995">
        <ele>537.4</ele>
        <time>2022-07-29T09:49:49Z</time>
      </trkpt>
      <trkpt lat="46.4161" lon="5.59995">
        <ele>537.4</ele>
        <time>2022-07-29T09:49:50Z</time>
      </trkpt>
      <trkpt lat="46.41608" lon="5.59995">
        <ele>537.8</ele>
        <time>2022-07-29T09:49:51Z</time>
      </trkpt>
      <trkpt lat="46.41606" lon="5.59994">
        <ele>537.8</ele>
        <time>2022-07-29T09:49:52Z</time>
      </trkpt>
      <trkpt lat="46.41604" lon="5.59993">
        <ele>538.2</ele>
        <time>2022-07-29T09:49:53Z</time>
      </trkpt>
      <trkpt lat="46.41603" lon="5.59992">
        <ele>538.2</ele>
        <time>2022-07-29T09:49:54Z</time>
      </trkpt>
      <trkpt lat="46.41601" lon="5.59991">
        <ele>538.6</ele>
        <time>2022-07-29T09:49:55Z</time>
      </trkpt>
      <trkpt lat="46.41599" lon="5.59989">
        <ele>538.6</ele>
        <time>2022-07-29T09:49:56Z</time>
      </trkpt>
      <trkpt lat="46.41597" lon="5.59988">
        <ele>538.8</ele>
        <time>2022-07-29T09:49:57Z</time>
      </trkpt>
      <trkpt lat="46.41595" lon="5.59986">
        <ele>539.2</ele>
        <time>2022-07-29T09:49:58Z</time>
      </trkpt>
      <trkpt lat="46.41593" lon="5.59983">
        <ele>539.4</ele>
        <time>2022-07-29T09:49:59Z</time>
      </trkpt>
      <trkpt lat="46.41591" lon="5.59981">
        <ele>539.4</ele>
        <time>2022-07-29T09:50:00Z</time>
      </trkpt>
      <trkpt lat="46.41589" lon="5.5998">
        <ele>539.6</ele>
        <time>2022-07-29T09:50:01Z</time>
      </trkpt>
      <trkpt lat="46.41588" lon="5.59978">
        <ele>539.8</ele>
        <time>2022-07-29T09:50:02Z</time>
      </trkpt>
      <trkpt lat="46.41586" lon="5.59976">
        <ele>540</ele>
        <time>2022-07-29T09:50:03Z</time>
      </trkpt>
      <trkpt lat="46.41584" lon="5.59974">
        <ele>540.2</ele>
        <time>2022-07-29T09:50:04Z</time>
      </trkpt>
      <trkpt lat="46.41583" lon="5.59972">
        <ele>540.2</ele>
        <time>2022-07-29T09:50:05Z</time>
      </trkpt>
      <trkpt lat="46.41581" lon="5.5997">
        <ele>540.6</ele>
        <time>2022-07-29T09:50:06Z</time>
      </trkpt>
      <trkpt lat="46.41578" lon="5.59968">
        <ele>540.6</ele>
        <time>2022-07-29T09:50:07Z</time>
      </trkpt>
      <trkpt lat="46.41577" lon="5.59966">
        <ele>540.8</ele>
        <time>2022-07-29T09:50:08Z</time>
      </trkpt>
      <trkpt lat="46.41575" lon="5.59964">
        <ele>540.8</ele>
        <time>2022-07-29T09:50:09Z</time>
      </trkpt>
      <trkpt lat="46.41573" lon="5.59962">
        <ele>541.2</ele>
        <time>2022-07-29T09:50:10Z</time>
      </trkpt>
      <trkpt lat="46.41572" lon="5.5996">
        <ele>541.4</ele>
        <time>2022-07-29T09:50:11Z</time>
      </trkpt>
      <trkpt lat="46.4157" lon="5.59959">
        <ele>541.6</ele>
        <time>2022-07-29T09:50:12Z</time>
      </trkpt>
      <trkpt lat="46.41569" lon="5.59957">
        <ele>541.8</ele>
        <time>2022-07-29T09:50:13Z</time>
      </trkpt>
      <trkpt lat="46.41567" lon="5.59956">
        <ele>541.8</ele>
        <time>2022-07-29T09:50:14Z</time>
      </trkpt>
      <trkpt lat="46.41566" lon="5.59954">
        <ele>542.2</ele>
        <time>2022-07-29T09:50:15Z</time>
      </trkpt>
      <trkpt lat="46.41565" lon="5.59953">
        <ele>542.2</ele>
        <time>2022-07-29T09:50:16Z</time>
      </trkpt>
      <trkpt lat="46.41564" lon="5.59952">
        <ele>542.4</ele>
        <time>2022-07-29T09:50:17Z</time>
      </trkpt>
      <trkpt lat="46.41564" lon="5.5995">
        <ele>542.4</ele>
        <time>2022-07-29T09:50:18Z</time>
      </trkpt>
      <trkpt lat="46.41562" lon="5.59948">
        <ele>542.8</ele>
        <time>2022-07-29T09:50:19Z</time>
      </trkpt>
      <trkpt lat="46.41561" lon="5.59947">
        <ele>543</ele>
        <time>2022-07-29T09:50:20Z</time>
      </trkpt>
      <trkpt lat="46.4156" lon="5.59945">
        <ele>543</ele>
        <time>2022-07-29T09:50:21Z</time>
      </trkpt>
      <trkpt lat="46.41558" lon="5.59943">
        <ele>543.2</ele>
        <time>2022-07-29T09:50:22Z</time>
      </trkpt>
      <trkpt lat="46.41557" lon="5.59942">
        <ele>543.2</ele>
        <time>2022-07-29T09:50:23Z</time>
      </trkpt>
      <trkpt lat="46.41556" lon="5.5994">
        <ele>543.4</ele>
        <time>2022-07-29T09:50:24Z</time>
      </trkpt>
      <trkpt lat="46.41554" lon="5.59939">
        <ele>543.4</ele>
        <time>2022-07-29T09:50:25Z</time>
      </trkpt>
      <trkpt lat="46.41553" lon="5.59937">
        <ele>543.8</ele>
        <time>2022-07-29T09:50:26Z</time>
      </trkpt>
      <trkpt lat="46.41552" lon="5.59936">
        <ele>543.8</ele>
        <time>2022-07-29T09:50:27Z</time>
      </trkpt>
      <trkpt lat="46.4155" lon="5.59934">
        <ele>544</ele>
        <time>2022-07-29T09:50:28Z</time>
      </trkpt>
      <trkpt lat="46.41548" lon="5.59932">
        <ele>544</ele>
        <time>2022-07-29T09:50:29Z</time>
      </trkpt>
      <trkpt lat="46.41546" lon="5.5993">
        <ele>544.2</ele>
        <time>2022-07-29T09:50:30Z</time>
      </trkpt>
      <trkpt lat="46.41544" lon="5.59927">
        <ele>544.2</ele>
        <time>2022-07-29T09:50:31Z</time>
      </trkpt>
      <trkpt lat="46.41542" lon="5.59925">
        <ele>544.4</ele>
        <time>2022-07-29T09:50:32Z</time>
      </trkpt>
      <trkpt lat="46.4154" lon="5.59923">
        <ele>544.4</ele>
        <time>2022-07-29T09:50:33Z</time>
      </trkpt>
      <trkpt lat="46.41539" lon="5.59921">
        <ele>544.6</ele>
        <time>2022-07-29T09:50:34Z</time>
      </trkpt>
      <trkpt lat="46.41537" lon="5.59919">
        <ele>544.6</ele>
        <time>2022-07-29T09:50:35Z</time>
      </trkpt>
      <trkpt lat="46.41536" lon="5.59916">
        <ele>545</ele>
        <time>2022-07-29T09:50:36Z</time>
      </trkpt>
      <trkpt lat="46.41534" lon="5.59913">
        <ele>545</ele>
        <time>2022-07-29T09:50:37Z</time>
      </trkpt>
      <trkpt lat="46.41532" lon="5.59911">
        <ele>545.2</ele>
        <time>2022-07-29T09:50:38Z</time>
      </trkpt>
      <trkpt lat="46.4153" lon="5.59908">
        <ele>545.2</ele>
        <time>2022-07-29T09:50:39Z</time>
      </trkpt>
      <trkpt lat="46.41528" lon="5.59906">
        <ele>545.6</ele>
        <time>2022-07-29T09:50:40Z</time>
      </trkpt>
      <trkpt lat="46.41526" lon="5.59904">
        <ele>545.6</ele>
        <time>2022-07-29T09:50:41Z</time>
      </trkpt>
      <trkpt lat="46.41525" lon="5.59902">
        <ele>545.8</ele>
        <time>2022-07-29T09:50:42Z</time>
      </trkpt>
      <trkpt lat="46.41523" lon="5.599">
        <ele>545.8</ele>
        <time>2022-07-29T09:50:43Z</time>
      </trkpt>
      <trkpt lat="46.41522" lon="5.59899">
        <ele>546</ele>
        <time>2022-07-29T09:50:44Z</time>
      </trkpt>
      <trkpt lat="46.41521" lon="5.59897">
        <ele>546</ele>
        <time>2022-07-29T09:50:45Z</time>
      </trkpt>
      <trkpt lat="46.4152" lon="5.59895">
        <ele>546.4</ele>
        <time>2022-07-29T09:50:46Z</time>
      </trkpt>
      <trkpt lat="46.41518" lon="5.59893">
        <ele>546.4</ele>
        <time>2022-07-29T09:50:47Z</time>
      </trkpt>
      <trkpt lat="46.41518" lon="5.5989">
        <ele>546.6</ele>
        <time>2022-07-29T09:50:48Z</time>
      </trkpt>
      <trkpt lat="46.41516" lon="5.59888">
        <ele>546.6</ele>
        <time>2022-07-29T09:50:49Z</time>
      </trkpt>
      <trkpt lat="46.41515" lon="5.59885">
        <ele>547</ele>
        <time>2022-07-29T09:50:50Z</time>
      </trkpt>
      <trkpt lat="46.41514" lon="5.59883">
        <ele>547</ele>
        <time>2022-07-29T09:50:51Z</time>
      </trkpt>
      <trkpt lat="46.41513" lon="5.5988">
        <ele>547.2</ele>
        <time>2022-07-29T09:50:52Z</time>
      </trkpt>
      <trkpt lat="46.41511" lon="5.59878">
        <ele>547.2</ele>
        <time>2022-07-29T09:50:53Z</time>
      </trkpt>
      <trkpt lat="46.4151" lon="5.59876">
        <ele>547.6</ele>
        <time>2022-07-29T09:50:54Z</time>
      </trkpt>
      <trkpt lat="46.41509" lon="5.59873">
        <ele>547.6</ele>
        <time>2022-07-29T09:50:55Z</time>
      </trkpt>
      <trkpt lat="46.41508" lon="5.5987">
        <ele>547.8</ele>
        <time>2022-07-29T09:50:56Z</time>
      </trkpt>
      <trkpt lat="46.41507" lon="5.59868">
        <ele>547.8</ele>
        <time>2022-07-29T09:50:57Z</time>
      </trkpt>
      <trkpt lat="46.41506" lon="5.59865">
        <ele>548.2</ele>
        <time>2022-07-29T09:50:58Z</time>
      </trkpt>
      <trkpt lat="46.41504" lon="5.59862">
        <ele>548.2</ele>
        <time>2022-07-29T09:50:59Z</time>
      </trkpt>
      <trkpt lat="46.41503" lon="5.59859">
        <ele>548.4</ele>
        <time>2022-07-29T09:51:00Z</time>
      </trkpt>
      <trkpt lat="46.41502" lon="5.59855">
        <ele>548.4</ele>
        <time>2022-07-29T09:51:01Z</time>
      </trkpt>
      <trkpt lat="46.41501" lon="5.59852">
        <ele>548.8</ele>
        <time>2022-07-29T09:51:02Z</time>
      </trkpt>
      <trkpt lat="46.415" lon="5.59849">
        <ele>548.8</ele>
        <time>2022-07-29T09:51:03Z</time>
      </trkpt>
      <trkpt lat="46.41499" lon="5.59846">
        <ele>549.2</ele>
        <time>2022-07-29T09:51:04Z</time>
      </trkpt>
      <trkpt lat="46.41498" lon="5.59844">
        <ele>549.2</ele>
        <time>2022-07-29T09:51:05Z</time>
      </trkpt>
      <trkpt lat="46.41497" lon="5.59841">
        <ele>549.4</ele>
        <time>2022-07-29T09:51:06Z</time>
      </trkpt>
      <trkpt lat="46.41496" lon="5.59838">
        <ele>549.4</ele>
        <time>2022-07-29T09:51:07Z</time>
      </trkpt>
      <trkpt lat="46.41495" lon="5.59836">
        <ele>549.4</ele>
        <time>2022-07-29T09:51:08Z</time>
      </trkpt>
      <trkpt lat="46.41494" lon="5.59833">
        <ele>549.6</ele>
        <time>2022-07-29T09:51:09Z</time>
      </trkpt>
      <trkpt lat="46.41493" lon="5.5983">
        <ele>549.6</ele>
        <time>2022-07-29T09:51:10Z</time>
      </trkpt>
      <trkpt lat="46.41493" lon="5.59827">
        <ele>549.8</ele>
        <time>2022-07-29T09:51:11Z</time>
      </trkpt>
      <trkpt lat="46.41492" lon="5.59824">
        <ele>549.8</ele>
        <time>2022-07-29T09:51:12Z</time>
      </trkpt>
      <trkpt lat="46.41491" lon="5.59821">
        <ele>550.2</ele>
        <time>2022-07-29T09:51:13Z</time>
      </trkpt>
      <trkpt lat="46.4149" lon="5.59818">
        <ele>550.4</ele>
        <time>2022-07-29T09:51:14Z</time>
      </trkpt>
      <trkpt lat="46.41489" lon="5.59815">
        <ele>550.4</ele>
        <time>2022-07-29T09:51:15Z</time>
      </trkpt>
      <trkpt lat="46.41488" lon="5.59813">
        <ele>550.6</ele>
        <time>2022-07-29T09:51:16Z</time>
      </trkpt>
      <trkpt lat="46.41487" lon="5.5981">
        <ele>550.8</ele>
        <time>2022-07-29T09:51:17Z</time>
      </trkpt>
      <trkpt lat="46.41485" lon="5.59808">
        <ele>550.8</ele>
        <time>2022-07-29T09:51:18Z</time>
      </trkpt>
      <trkpt lat="46.41484" lon="5.59805">
        <ele>550.8</ele>
        <time>2022-07-29T09:51:19Z</time>
      </trkpt>
      <trkpt lat="46.41482" lon="5.59803">
        <ele>551.2</ele>
        <time>2022-07-29T09:51:20Z</time>
      </trkpt>
      <trkpt lat="46.4148" lon="5.59801">
        <ele>551.2</ele>
        <time>2022-07-29T09:51:21Z</time>
      </trkpt>
      <trkpt lat="46.41479" lon="5.59799">
        <ele>551.6</ele>
        <time>2022-07-29T09:51:22Z</time>
      </trkpt>
      <trkpt lat="46.41477" lon="5.59797">
        <ele>551.6</ele>
        <time>2022-07-29T09:51:23Z</time>
      </trkpt>
      <trkpt lat="46.41474" lon="5.59796">
        <ele>551.8</ele>
        <time>2022-07-29T09:51:24Z</time>
      </trkpt>
      <trkpt lat="46.41472" lon="5.59794">
        <ele>551.8</ele>
        <time>2022-07-29T09:51:25Z</time>
      </trkpt>
      <trkpt lat="46.4147" lon="5.59793">
        <ele>552</ele>
        <time>2022-07-29T09:51:26Z</time>
      </trkpt>
      <trkpt lat="46.41467" lon="5.59791">
        <ele>552</ele>
        <time>2022-07-29T09:51:27Z</time>
      </trkpt>
      <trkpt lat="46.41465" lon="5.59789">
        <ele>552.2</ele>
        <time>2022-07-29T09:51:28Z</time>
      </trkpt>
      <trkpt lat="46.41463" lon="5.59788">
        <ele>552.2</ele>
        <time>2022-07-29T09:51:29Z</time>
      </trkpt>
      <trkpt lat="46.41462" lon="5.59786">
        <ele>552.6</ele>
        <time>2022-07-29T09:51:30Z</time>
      </trkpt>
      <trkpt lat="46.4146" lon="5.59784">
        <ele>552.6</ele>
        <time>2022-07-29T09:51:31Z</time>
      </trkpt>
      <trkpt lat="46.41458" lon="5.59782">
        <ele>552.8</ele>
        <time>2022-07-29T09:51:32Z</time>
      </trkpt>
      <trkpt lat="46.41456" lon="5.5978">
        <ele>552.8</ele>
        <time>2022-07-29T09:51:33Z</time>
      </trkpt>
      <trkpt lat="46.41454" lon="5.59779">
        <ele>553.2</ele>
        <time>2022-07-29T09:51:34Z</time>
      </trkpt>
      <trkpt lat="46.41451" lon="5.59778">
        <ele>553.2</ele>
        <time>2022-07-29T09:51:35Z</time>
      </trkpt>
      <trkpt lat="46.41449" lon="5.59779">
        <ele>553.6</ele>
        <time>2022-07-29T09:51:36Z</time>
      </trkpt>
      <trkpt lat="46.41447" lon="5.59779">
        <ele>553.6</ele>
        <time>2022-07-29T09:51:37Z</time>
      </trkpt>
      <trkpt lat="46.41445" lon="5.59781">
        <ele>553.8</ele>
        <time>2022-07-29T09:51:38Z</time>
      </trkpt>
      <trkpt lat="46.41444" lon="5.59783">
        <ele>553.8</ele>
        <time>2022-07-29T09:51:39Z</time>
      </trkpt>
      <trkpt lat="46.41443" lon="5.59786">
        <ele>554.2</ele>
        <time>2022-07-29T09:51:40Z</time>
      </trkpt>
      <trkpt lat="46.41442" lon="5.59789">
        <ele>554.2</ele>
        <time>2022-07-29T09:51:41Z</time>
      </trkpt>
      <trkpt lat="46.41442" lon="5.59792">
        <ele>554.6</ele>
        <time>2022-07-29T09:51:42Z</time>
      </trkpt>
      <trkpt lat="46.41443" lon="5.59795">
        <ele>554.6</ele>
        <time>2022-07-29T09:51:43Z</time>
      </trkpt>
      <trkpt lat="46.41443" lon="5.59797">
        <ele>554.8</ele>
        <time>2022-07-29T09:51:44Z</time>
      </trkpt>
      <trkpt lat="46.41445" lon="5.59799">
        <ele>554.8</ele>
        <time>2022-07-29T09:51:45Z</time>
      </trkpt>
      <trkpt lat="46.41446" lon="5.598">
        <ele>555.2</ele>
        <time>2022-07-29T09:51:46Z</time>
      </trkpt>
      <trkpt lat="46.41448" lon="5.59802">
        <ele>555.2</ele>
        <time>2022-07-29T09:51:47Z</time>
      </trkpt>
      <trkpt lat="46.41449" lon="5.59803">
        <ele>555.4</ele>
        <time>2022-07-29T09:51:48Z</time>
      </trkpt>
      <trkpt lat="46.41451" lon="5.59805">
        <ele>555.4</ele>
        <time>2022-07-29T09:51:49Z</time>
      </trkpt>
      <trkpt lat="46.41452" lon="5.59806">
        <ele>555.8</ele>
        <time>2022-07-29T09:51:50Z</time>
      </trkpt>
      <trkpt lat="46.41454" lon="5.59807">
        <ele>555.8</ele>
        <time>2022-07-29T09:51:51Z</time>
      </trkpt>
      <trkpt lat="46.41456" lon="5.59808">
        <ele>556</ele>
        <time>2022-07-29T09:51:52Z</time>
      </trkpt>
      <trkpt lat="46.41458" lon="5.59809">
        <ele>556</ele>
        <time>2022-07-29T09:51:53Z</time>
      </trkpt>
      <trkpt lat="46.4146" lon="5.5981">
        <ele>556.2</ele>
        <time>2022-07-29T09:51:54Z</time>
      </trkpt>
      <trkpt lat="46.41462" lon="5.59812">
        <ele>556.2</ele>
        <time>2022-07-29T09:51:55Z</time>
      </trkpt>
      <trkpt lat="46.41462" lon="5.59812">
        <ele>556.6</ele>
        <time>2022-07-29T09:51:56Z</time>
      </trkpt>
      <trkpt lat="46.41463" lon="5.59814">
        <ele>556.6</ele>
        <time>2022-07-29T09:51:57Z</time>
      </trkpt>
      <trkpt lat="46.41465" lon="5.59817">
        <ele>556.8</ele>
        <time>2022-07-29T09:51:58Z</time>
      </trkpt>
      <trkpt lat="46.41466" lon="5.59819">
        <ele>556.8</ele>
        <time>2022-07-29T09:51:59Z</time>
      </trkpt>
      <trkpt lat="46.41467" lon="5.59821">
        <ele>557.4</ele>
        <time>2022-07-29T09:52:00Z</time>
      </trkpt>
      <trkpt lat="46.41469" lon="5.59824">
        <ele>557.4</ele>
        <time>2022-07-29T09:52:01Z</time>
      </trkpt>
      <trkpt lat="46.4147" lon="5.59826">
        <ele>557.6</ele>
        <time>2022-07-29T09:52:02Z</time>
      </trkpt>
      <trkpt lat="46.41471" lon="5.59828">
        <ele>558</ele>
        <time>2022-07-29T09:52:03Z</time>
      </trkpt>
      <trkpt lat="46.41472" lon="5.59831">
        <ele>558.2</ele>
        <time>2022-07-29T09:52:04Z</time>
      </trkpt>
      <trkpt lat="46.41473" lon="5.59833">
        <ele>558.2</ele>
        <time>2022-07-29T09:52:05Z</time>
      </trkpt>
      <trkpt lat="46.41475" lon="5.59835">
        <ele>558.2</ele>
        <time>2022-07-29T09:52:06Z</time>
      </trkpt>
      <trkpt lat="46.41476" lon="5.59838">
        <ele>558.6</ele>
        <time>2022-07-29T09:52:07Z</time>
      </trkpt>
      <trkpt lat="46.41476" lon="5.59841">
        <ele>558.8</ele>
        <time>2022-07-29T09:52:08Z</time>
      </trkpt>
      <trkpt lat="46.41477" lon="5.59844">
        <ele>559</ele>
        <time>2022-07-29T09:52:09Z</time>
      </trkpt>
      <trkpt lat="46.41478" lon="5.59847">
        <ele>559.2</ele>
        <time>2022-07-29T09:52:10Z</time>
      </trkpt>
      <trkpt lat="46.41479" lon="5.5985">
        <ele>559.2</ele>
        <time>2022-07-29T09:52:11Z</time>
      </trkpt>
      <trkpt lat="46.41479" lon="5.59852">
        <ele>559.6</ele>
        <time>2022-07-29T09:52:12Z</time>
      </trkpt>
      <trkpt lat="46.41479" lon="5.59855">
        <ele>559.6</ele>
        <time>2022-07-29T09:52:13Z</time>
      </trkpt>
      <trkpt lat="46.4148" lon="5.59859">
        <ele>559.8</ele>
        <time>2022-07-29T09:52:14Z</time>
      </trkpt>
      <trkpt lat="46.41481" lon="5.59862">
        <ele>559.8</ele>
        <time>2022-07-29T09:52:15Z</time>
      </trkpt>
      <trkpt lat="46.41481" lon="5.59864">
        <ele>560.2</ele>
        <time>2022-07-29T09:52:16Z</time>
      </trkpt>
      <trkpt lat="46.41481" lon="5.59867">
        <ele>560.2</ele>
        <time>2022-07-29T09:52:17Z</time>
      </trkpt>
      <trkpt lat="46.41481" lon="5.5987">
        <ele>560.6</ele>
        <time>2022-07-29T09:52:18Z</time>
      </trkpt>
      <trkpt lat="46.41482" lon="5.59873">
        <ele>560.6</ele>
        <time>2022-07-29T09:52:19Z</time>
      </trkpt>
      <trkpt lat="46.41482" lon="5.59876">
        <ele>561</ele>
        <time>2022-07-29T09:52:20Z</time>
      </trkpt>
      <trkpt lat="46.41482" lon="5.59879">
        <ele>561</ele>
        <time>2022-07-29T09:52:21Z</time>
      </trkpt>
      <trkpt lat="46.41483" lon="5.59882">
        <ele>561.2</ele>
        <time>2022-07-29T09:52:22Z</time>
      </trkpt>
      <trkpt lat="46.41484" lon="5.59885">
        <ele>561.2</ele>
        <time>2022-07-29T09:52:23Z</time>
      </trkpt>
      <trkpt lat="46.41484" lon="5.59888">
        <ele>561.6</ele>
        <time>2022-07-29T09:52:24Z</time>
      </trkpt>
      <trkpt lat="46.41485" lon="5.59891">
        <ele>561.6</ele>
        <time>2022-07-29T09:52:25Z</time>
      </trkpt>
      <trkpt lat="46.41485" lon="5.59893">
        <ele>561.6</ele>
        <time>2022-07-29T09:52:26Z</time>
      </trkpt>
      <trkpt lat="46.41485" lon="5.59896">
        <ele>562</ele>
        <time>2022-07-29T09:52:27Z</time>
      </trkpt>
      <trkpt lat="46.41486" lon="5.59899">
        <ele>562</ele>
        <time>2022-07-29T09:52:28Z</time>
      </trkpt>
      <trkpt lat="46.41486" lon="5.59902">
        <ele>562.2</ele>
        <time>2022-07-29T09:52:29Z</time>
      </trkpt>
      <trkpt lat="46.41486" lon="5.59905">
        <ele>562.2</ele>
        <time>2022-07-29T09:52:30Z</time>
      </trkpt>
      <trkpt lat="46.41487" lon="5.59908">
        <ele>562.6</ele>
        <time>2022-07-29T09:52:31Z</time>
      </trkpt>
      <trkpt lat="46.41488" lon="5.59911">
        <ele>562.6</ele>
        <time>2022-07-29T09:52:32Z</time>
      </trkpt>
      <trkpt lat="46.41489" lon="5.59914">
        <ele>562.8</ele>
        <time>2022-07-29T09:52:33Z</time>
      </trkpt>
      <trkpt lat="46.4149" lon="5.59917">
        <ele>562.8</ele>
        <time>2022-07-29T09:52:34Z</time>
      </trkpt>
      <trkpt lat="46.41491" lon="5.5992">
        <ele>563.2</ele>
        <time>2022-07-29T09:52:35Z</time>
      </trkpt>
      <trkpt lat="46.41491" lon="5.59923">
        <ele>563.2</ele>
        <time>2022-07-29T09:52:36Z</time>
      </trkpt>
      <trkpt lat="46.41492" lon="5.59926">
        <ele>563.4</ele>
        <time>2022-07-29T09:52:37Z</time>
      </trkpt>
      <trkpt lat="46.41494" lon="5.59929">
        <ele>563.4</ele>
        <time>2022-07-29T09:52:38Z</time>
      </trkpt>
      <trkpt lat="46.41494" lon="5.59932">
        <ele>563.8</ele>
        <time>2022-07-29T09:52:39Z</time>
      </trkpt>
      <trkpt lat="46.41495" lon="5.59935">
        <ele>563.8</ele>
        <time>2022-07-29T09:52:40Z</time>
      </trkpt>
      <trkpt lat="46.41496" lon="5.59937">
        <ele>564</ele>
        <time>2022-07-29T09:52:41Z</time>
      </trkpt>
      <trkpt lat="46.41498" lon="5.5994">
        <ele>564</ele>
        <time>2022-07-29T09:52:42Z</time>
      </trkpt>
      <trkpt lat="46.41499" lon="5.59942">
        <ele>564.4</ele>
        <time>2022-07-29T09:52:43Z</time>
      </trkpt>
      <trkpt lat="46.415" lon="5.59945">
        <ele>564.4</ele>
        <time>2022-07-29T09:52:44Z</time>
      </trkpt>
      <trkpt lat="46.41502" lon="5.59948">
        <ele>564.6</ele>
        <time>2022-07-29T09:52:45Z</time>
      </trkpt>
      <trkpt lat="46.41503" lon="5.59951">
        <ele>564.8</ele>
        <time>2022-07-29T09:52:46Z</time>
      </trkpt>
      <trkpt lat="46.41504" lon="5.59954">
        <ele>564.8</ele>
        <time>2022-07-29T09:52:47Z</time>
      </trkpt>
      <trkpt lat="46.41505" lon="5.59956">
        <ele>565.2</ele>
        <time>2022-07-29T09:52:48Z</time>
      </trkpt>
      <trkpt lat="46.41506" lon="5.59959">
        <ele>565.2</ele>
        <time>2022-07-29T09:52:49Z</time>
      </trkpt>
      <trkpt lat="46.41508" lon="5.59961">
        <ele>565.4</ele>
        <time>2022-07-29T09:52:50Z</time>
      </trkpt>
      <trkpt lat="46.41509" lon="5.59964">
        <ele>565.4</ele>
        <time>2022-07-29T09:52:51Z</time>
      </trkpt>
      <trkpt lat="46.4151" lon="5.59967">
        <ele>565.8</ele>
        <time>2022-07-29T09:52:52Z</time>
      </trkpt>
      <trkpt lat="46.41511" lon="5.5997">
        <ele>565.8</ele>
        <time>2022-07-29T09:52:53Z</time>
      </trkpt>
      <trkpt lat="46.41512" lon="5.59972">
        <ele>566.2</ele>
        <time>2022-07-29T09:52:54Z</time>
      </trkpt>
      <trkpt lat="46.41514" lon="5.59974">
        <ele>566.2</ele>
        <time>2022-07-29T09:52:55Z</time>
      </trkpt>
      <trkpt lat="46.41516" lon="5.59977">
        <ele>566.2</ele>
        <time>2022-07-29T09:52:56Z</time>
      </trkpt>
      <trkpt lat="46.41517" lon="5.5998">
        <ele>566.4</ele>
        <time>2022-07-29T09:52:57Z</time>
      </trkpt>
      <trkpt lat="46.41518" lon="5.59983">
        <ele>566.4</ele>
        <time>2022-07-29T09:52:58Z</time>
      </trkpt>
      <trkpt lat="46.4152" lon="5.59985">
        <ele>566.8</ele>
        <time>2022-07-29T09:52:59Z</time>
      </trkpt>
      <trkpt lat="46.41521" lon="5.59988">
        <ele>566.8</ele>
        <time>2022-07-29T09:53:00Z</time>
      </trkpt>
      <trkpt lat="46.41522" lon="5.5999">
        <ele>567</ele>
        <time>2022-07-29T09:53:01Z</time>
      </trkpt>
      <trkpt lat="46.41523" lon="5.59993">
        <ele>567</ele>
        <time>2022-07-29T09:53:02Z</time>
      </trkpt>
      <trkpt lat="46.41524" lon="5.59995">
        <ele>567.4</ele>
        <time>2022-07-29T09:53:03Z</time>
      </trkpt>
      <trkpt lat="46.41525" lon="5.59998">
        <ele>567.4</ele>
        <time>2022-07-29T09:53:04Z</time>
      </trkpt>
      <trkpt lat="46.41526" lon="5.6">
        <ele>567.6</ele>
        <time>2022-07-29T09:53:05Z</time>
      </trkpt>
      <trkpt lat="46.41528" lon="5.60003">
        <ele>567.6</ele>
        <time>2022-07-29T09:53:06Z</time>
      </trkpt>
      <trkpt lat="46.41529" lon="5.60005">
        <ele>567.8</ele>
        <time>2022-07-29T09:53:07Z</time>
      </trkpt>
      <trkpt lat="46.4153" lon="5.60007">
        <ele>567.8</ele>
        <time>2022-07-29T09:53:08Z</time>
      </trkpt>
      <trkpt lat="46.41531" lon="5.6001">
        <ele>568.2</ele>
        <time>2022-07-29T09:53:09Z</time>
      </trkpt>
      <trkpt lat="46.41533" lon="5.60012">
        <ele>568.2</ele>
        <time>2022-07-29T09:53:10Z</time>
      </trkpt>
      <trkpt lat="46.41533" lon="5.60015">
        <ele>568.6</ele>
        <time>2022-07-29T09:53:11Z</time>
      </trkpt>
      <trkpt lat="46.41534" lon="5.60018">
        <ele>568.6</ele>
        <time>2022-07-29T09:53:12Z</time>
      </trkpt>
      <trkpt lat="46.41535" lon="5.6002">
        <ele>568.8</ele>
        <time>2022-07-29T09:53:13Z</time>
      </trkpt>
      <trkpt lat="46.41537" lon="5.60023">
        <ele>568.8</ele>
        <time>2022-07-29T09:53:14Z</time>
      </trkpt>
      <trkpt lat="46.41538" lon="5.60025">
        <ele>569.2</ele>
        <time>2022-07-29T09:53:15Z</time>
      </trkpt>
      <trkpt lat="46.4154" lon="5.60027">
        <ele>569.2</ele>
        <time>2022-07-29T09:53:16Z</time>
      </trkpt>
      <trkpt lat="46.41541" lon="5.60029">
        <ele>569.4</ele>
        <time>2022-07-29T09:53:17Z</time>
      </trkpt>
      <trkpt lat="46.41543" lon="5.60032">
        <ele>569.4</ele>
        <time>2022-07-29T09:53:18Z</time>
      </trkpt>
      <trkpt lat="46.41544" lon="5.60034">
        <ele>569.6</ele>
        <time>2022-07-29T09:53:19Z</time>
      </trkpt>
      <trkpt lat="46.41545" lon="5.60036">
        <ele>569.6</ele>
        <time>2022-07-29T09:53:20Z</time>
      </trkpt>
      <trkpt lat="46.41547" lon="5.60037">
        <ele>570</ele>
        <time>2022-07-29T09:53:21Z</time>
      </trkpt>
      <trkpt lat="46.41548" lon="5.6004">
        <ele>570</ele>
        <time>2022-07-29T09:53:22Z</time>
      </trkpt>
      <trkpt lat="46.4155" lon="5.60042">
        <ele>570.2</ele>
        <time>2022-07-29T09:53:23Z</time>
      </trkpt>
      <trkpt lat="46.41551" lon="5.60044">
        <ele>570.4</ele>
        <time>2022-07-29T09:53:24Z</time>
      </trkpt>
      <trkpt lat="46.41553" lon="5.60046">
        <ele>570.4</ele>
        <time>2022-07-29T09:53:25Z</time>
      </trkpt>
      <trkpt lat="46.41554" lon="5.60048">
        <ele>570.6</ele>
        <time>2022-07-29T09:53:26Z</time>
      </trkpt>
      <trkpt lat="46.41556" lon="5.6005">
        <ele>570.6</ele>
        <time>2022-07-29T09:53:27Z</time>
      </trkpt>
      <trkpt lat="46.41557" lon="5.60052">
        <ele>571</ele>
        <time>2022-07-29T09:53:28Z</time>
      </trkpt>
      <trkpt lat="46.41558" lon="5.60054">
        <ele>571</ele>
        <time>2022-07-29T09:53:29Z</time>
      </trkpt>
      <trkpt lat="46.41559" lon="5.60057">
        <ele>571.2</ele>
        <time>2022-07-29T09:53:30Z</time>
      </trkpt>
      <trkpt lat="46.4156" lon="5.60058">
        <ele>571.2</ele>
        <time>2022-07-29T09:53:31Z</time>
      </trkpt>
      <trkpt lat="46.41562" lon="5.6006">
        <ele>571.6</ele>
        <time>2022-07-29T09:53:32Z</time>
      </trkpt>
      <trkpt lat="46.41563" lon="5.60061">
        <ele>571.6</ele>
        <time>2022-07-29T09:53:33Z</time>
      </trkpt>
      <trkpt lat="46.41564" lon="5.60063">
        <ele>571.8</ele>
        <time>2022-07-29T09:53:34Z</time>
      </trkpt>
      <trkpt lat="46.41565" lon="5.60065">
        <ele>571.8</ele>
        <time>2022-07-29T09:53:35Z</time>
      </trkpt>
      <trkpt lat="46.41566" lon="5.60067">
        <ele>572</ele>
        <time>2022-07-29T09:53:36Z</time>
      </trkpt>
      <trkpt lat="46.41567" lon="5.60069">
        <ele>572</ele>
        <time>2022-07-29T09:53:37Z</time>
      </trkpt>
      <trkpt lat="46.41569" lon="5.60071">
        <ele>572.4</ele>
        <time>2022-07-29T09:53:38Z</time>
      </trkpt>
      <trkpt lat="46.4157" lon="5.60073">
        <ele>572.4</ele>
        <time>2022-07-29T09:53:39Z</time>
      </trkpt>
      <trkpt lat="46.41572" lon="5.60075">
        <ele>572.6</ele>
        <time>2022-07-29T09:53:40Z</time>
      </trkpt>
      <trkpt lat="46.41573" lon="5.60076">
        <ele>572.6</ele>
        <time>2022-07-29T09:53:41Z</time>
      </trkpt>
      <trkpt lat="46.41574" lon="5.60079">
        <ele>573</ele>
        <time>2022-07-29T09:53:42Z</time>
      </trkpt>
      <trkpt lat="46.41576" lon="5.60081">
        <ele>573</ele>
        <time>2022-07-29T09:53:43Z</time>
      </trkpt>
      <trkpt lat="46.41578" lon="5.60082">
        <ele>573.2</ele>
        <time>2022-07-29T09:53:44Z</time>
      </trkpt>
      <trkpt lat="46.41579" lon="5.60084">
        <ele>573.2</ele>
        <time>2022-07-29T09:53:45Z</time>
      </trkpt>
      <trkpt lat="46.41581" lon="5.60085">
        <ele>573.6</ele>
        <time>2022-07-29T09:53:46Z</time>
      </trkpt>
      <trkpt lat="46.41582" lon="5.60086">
        <ele>573.6</ele>
        <time>2022-07-29T09:53:47Z</time>
      </trkpt>
      <trkpt lat="46.41584" lon="5.60087">
        <ele>573.8</ele>
        <time>2022-07-29T09:53:48Z</time>
      </trkpt>
      <trkpt lat="46.41586" lon="5.60088">
        <ele>573.8</ele>
        <time>2022-07-29T09:53:49Z</time>
      </trkpt>
      <trkpt lat="46.41588" lon="5.60089">
        <ele>574</ele>
        <time>2022-07-29T09:53:50Z</time>
      </trkpt>
      <trkpt lat="46.4159" lon="5.6009">
        <ele>574</ele>
        <time>2022-07-29T09:53:51Z</time>
      </trkpt>
      <trkpt lat="46.41592" lon="5.60091">
        <ele>574.2</ele>
        <time>2022-07-29T09:53:52Z</time>
      </trkpt>
      <trkpt lat="46.41593" lon="5.60091">
        <ele>574.2</ele>
        <time>2022-07-29T09:53:53Z</time>
      </trkpt>
      <trkpt lat="46.41595" lon="5.60091">
        <ele>574.6</ele>
        <time>2022-07-29T09:53:54Z</time>
      </trkpt>
      <trkpt lat="46.41597" lon="5.60091">
        <ele>574.6</ele>
        <time>2022-07-29T09:53:55Z</time>
      </trkpt>
      <trkpt lat="46.41599" lon="5.60091">
        <ele>574.8</ele>
        <time>2022-07-29T09:53:56Z</time>
      </trkpt>
      <trkpt lat="46.41601" lon="5.60091">
        <ele>574.8</ele>
        <time>2022-07-29T09:53:57Z</time>
      </trkpt>
      <trkpt lat="46.41603" lon="5.6009">
        <ele>575</ele>
        <time>2022-07-29T09:53:58Z</time>
      </trkpt>
      <trkpt lat="46.41605" lon="5.6009">
        <ele>575</ele>
        <time>2022-07-29T09:53:59Z</time>
      </trkpt>
      <trkpt lat="46.41607" lon="5.6009">
        <ele>575.4</ele>
        <time>2022-07-29T09:54:00Z</time>
      </trkpt>
      <trkpt lat="46.41609" lon="5.60089">
        <ele>575.4</ele>
        <time>2022-07-29T09:54:01Z</time>
      </trkpt>
      <trkpt lat="46.41611" lon="5.60089">
        <ele>575.4</ele>
        <time>2022-07-29T09:54:02Z</time>
      </trkpt>
      <trkpt lat="46.41612" lon="5.60089">
        <ele>575.6</ele>
        <time>2022-07-29T09:54:03Z</time>
      </trkpt>
      <trkpt lat="46.41614" lon="5.60089">
        <ele>575.6</ele>
        <time>2022-07-29T09:54:04Z</time>
      </trkpt>
      <trkpt lat="46.41615" lon="5.60088">
        <ele>576</ele>
        <time>2022-07-29T09:54:05Z</time>
      </trkpt>
      <trkpt lat="46.41617" lon="5.60088">
        <ele>576</ele>
        <time>2022-07-29T09:54:06Z</time>
      </trkpt>
      <trkpt lat="46.41619" lon="5.60088">
        <ele>576.2</ele>
        <time>2022-07-29T09:54:07Z</time>
      </trkpt>
      <trkpt lat="46.41622" lon="5.60088">
        <ele>576.2</ele>
        <time>2022-07-29T09:54:08Z</time>
      </trkpt>
      <trkpt lat="46.41625" lon="5.60089">
        <ele>576.6</ele>
        <time>2022-07-29T09:54:09Z</time>
      </trkpt>
      <trkpt lat="46.41627" lon="5.60089">
        <ele>576.8</ele>
        <time>2022-07-29T09:54:10Z</time>
      </trkpt>
      <trkpt lat="46.41629" lon="5.60089">
        <ele>576.8</ele>
        <time>2022-07-29T09:54:11Z</time>
      </trkpt>
      <trkpt lat="46.41632" lon="5.6009">
        <ele>577</ele>
        <time>2022-07-29T09:54:12Z</time>
      </trkpt>
      <trkpt lat="46.41634" lon="5.6009">
        <ele>577</ele>
        <time>2022-07-29T09:54:13Z</time>
      </trkpt>
      <trkpt lat="46.41636" lon="5.6009">
        <ele>577.4</ele>
        <time>2022-07-29T09:54:14Z</time>
      </trkpt>
      <trkpt lat="46.41638" lon="5.60091">
        <ele>577.4</ele>
        <time>2022-07-29T09:54:15Z</time>
      </trkpt>
      <trkpt lat="46.4164" lon="5.60091">
        <ele>577.8</ele>
        <time>2022-07-29T09:54:16Z</time>
      </trkpt>
      <trkpt lat="46.41642" lon="5.60092">
        <ele>577.8</ele>
        <time>2022-07-29T09:54:17Z</time>
      </trkpt>
      <trkpt lat="46.41644" lon="5.60092">
        <ele>578</ele>
        <time>2022-07-29T09:54:18Z</time>
      </trkpt>
      <trkpt lat="46.41646" lon="5.60093">
        <ele>578</ele>
        <time>2022-07-29T09:54:19Z</time>
      </trkpt>
      <trkpt lat="46.41649" lon="5.60094">
        <ele>578.2</ele>
        <time>2022-07-29T09:54:20Z</time>
      </trkpt>
      <trkpt lat="46.41651" lon="5.60095">
        <ele>578.2</ele>
        <time>2022-07-29T09:54:21Z</time>
      </trkpt>
      <trkpt lat="46.41653" lon="5.60096">
        <ele>578.6</ele>
        <time>2022-07-29T09:54:22Z</time>
      </trkpt>
      <trkpt lat="46.41655" lon="5.60097">
        <ele>578.6</ele>
        <time>2022-07-29T09:54:23Z</time>
      </trkpt>
      <trkpt lat="46.41657" lon="5.60098">
        <ele>578.8</ele>
        <time>2022-07-29T09:54:24Z</time>
      </trkpt>
      <trkpt lat="46.41659" lon="5.60098">
        <ele>578.8</ele>
        <time>2022-07-29T09:54:25Z</time>
      </trkpt>
      <trkpt lat="46.41661" lon="5.60099">
        <ele>579.2</ele>
        <time>2022-07-29T09:54:26Z</time>
      </trkpt>
      <trkpt lat="46.41662" lon="5.601">
        <ele>579.2</ele>
        <time>2022-07-29T09:54:27Z</time>
      </trkpt>
      <trkpt lat="46.41664" lon="5.60101">
        <ele>579.2</ele>
        <time>2022-07-29T09:54:28Z</time>
      </trkpt>
      <trkpt lat="46.41666" lon="5.60102">
        <ele>579.4</ele>
        <time>2022-07-29T09:54:29Z</time>
      </trkpt>
      <trkpt lat="46.41668" lon="5.60103">
        <ele>579.4</ele>
        <time>2022-07-29T09:54:30Z</time>
      </trkpt>
      <trkpt lat="46.4167" lon="5.60104">
        <ele>579.6</ele>
        <time>2022-07-29T09:54:31Z</time>
      </trkpt>
      <trkpt lat="46.41671" lon="5.60105">
        <ele>579.6</ele>
        <time>2022-07-29T09:54:32Z</time>
      </trkpt>
      <trkpt lat="46.41673" lon="5.60107">
        <ele>580</ele>
        <time>2022-07-29T09:54:33Z</time>
      </trkpt>
      <trkpt lat="46.41675" lon="5.60108">
        <ele>580</ele>
        <time>2022-07-29T09:54:34Z</time>
      </trkpt>
      <trkpt lat="46.41676" lon="5.60109">
        <ele>580.4</ele>
        <time>2022-07-29T09:54:35Z</time>
      </trkpt>
      <trkpt lat="46.41678" lon="5.60111">
        <ele>580.6</ele>
        <time>2022-07-29T09:54:36Z</time>
      </trkpt>
      <trkpt lat="46.41679" lon="5.60112">
        <ele>580.6</ele>
        <time>2022-07-29T09:54:37Z</time>
      </trkpt>
      <trkpt lat="46.41681" lon="5.60113">
        <ele>580.8</ele>
        <time>2022-07-29T09:54:38Z</time>
      </trkpt>
      <trkpt lat="46.41682" lon="5.60114">
        <ele>580.8</ele>
        <time>2022-07-29T09:54:39Z</time>
      </trkpt>
      <trkpt lat="46.41684" lon="5.60115">
        <ele>581.2</ele>
        <time>2022-07-29T09:54:40Z</time>
      </trkpt>
      <trkpt lat="46.41686" lon="5.60115">
        <ele>581.2</ele>
        <time>2022-07-29T09:54:41Z</time>
      </trkpt>
      <trkpt lat="46.41688" lon="5.60116">
        <ele>581.6</ele>
        <time>2022-07-29T09:54:42Z</time>
      </trkpt>
      <trkpt lat="46.41689" lon="5.60117">
        <ele>581.6</ele>
        <time>2022-07-29T09:54:43Z</time>
      </trkpt>
      <trkpt lat="46.41691" lon="5.60118">
        <ele>581.8</ele>
        <time>2022-07-29T09:54:44Z</time>
      </trkpt>
      <trkpt lat="46.41693" lon="5.60118">
        <ele>581.8</ele>
        <time>2022-07-29T09:54:45Z</time>
      </trkpt>
      <trkpt lat="46.41695" lon="5.60119">
        <ele>582</ele>
        <time>2022-07-29T09:54:46Z</time>
      </trkpt>
      <trkpt lat="46.41697" lon="5.6012">
        <ele>582</ele>
        <time>2022-07-29T09:54:47Z</time>
      </trkpt>
      <trkpt lat="46.41699" lon="5.60121">
        <ele>582.2</ele>
        <time>2022-07-29T09:54:48Z</time>
      </trkpt>
      <trkpt lat="46.41701" lon="5.60122">
        <ele>582.2</ele>
        <time>2022-07-29T09:54:49Z</time>
      </trkpt>
      <trkpt lat="46.41703" lon="5.60123">
        <ele>582.4</ele>
        <time>2022-07-29T09:54:50Z</time>
      </trkpt>
      <trkpt lat="46.41705" lon="5.60124">
        <ele>582.4</ele>
        <time>2022-07-29T09:54:51Z</time>
      </trkpt>
      <trkpt lat="46.41708" lon="5.60125">
        <ele>582.6</ele>
        <time>2022-07-29T09:54:52Z</time>
      </trkpt>
      <trkpt lat="46.4171" lon="5.60127">
        <ele>582.6</ele>
        <time>2022-07-29T09:54:53Z</time>
      </trkpt>
      <trkpt lat="46.41712" lon="5.60128">
        <ele>582.6</ele>
        <time>2022-07-29T09:54:54Z</time>
      </trkpt>
      <trkpt lat="46.41714" lon="5.6013">
        <ele>583</ele>
        <time>2022-07-29T09:54:55Z</time>
      </trkpt>
      <trkpt lat="46.41717" lon="5.60131">
        <ele>583</ele>
        <time>2022-07-29T09:54:56Z</time>
      </trkpt>
      <trkpt lat="46.4172" lon="5.60133">
        <ele>583</ele>
        <time>2022-07-29T09:54:57Z</time>
      </trkpt>
      <trkpt lat="46.41722" lon="5.60134">
        <ele>583</ele>
        <time>2022-07-29T09:54:58Z</time>
      </trkpt>
      <trkpt lat="46.41725" lon="5.60135">
        <ele>583</ele>
        <time>2022-07-29T09:54:59Z</time>
      </trkpt>
      <trkpt lat="46.41727" lon="5.60136">
        <ele>583</ele>
        <time>2022-07-29T09:55:00Z</time>
      </trkpt>
      <trkpt lat="46.41729" lon="5.60137">
        <ele>583.2</ele>
        <time>2022-07-29T09:55:01Z</time>
      </trkpt>
      <trkpt lat="46.41731" lon="5.60138">
        <ele>583.2</ele>
        <time>2022-07-29T09:55:02Z</time>
      </trkpt>
      <trkpt lat="46.41734" lon="5.60139">
        <ele>583.2</ele>
        <time>2022-07-29T09:55:03Z</time>
      </trkpt>
      <trkpt lat="46.41736" lon="5.6014">
        <ele>583.2</ele>
        <time>2022-07-29T09:55:04Z</time>
      </trkpt>
      <trkpt lat="46.41738" lon="5.6014">
        <ele>583.4</ele>
        <time>2022-07-29T09:55:05Z</time>
      </trkpt>
      <trkpt lat="46.4174" lon="5.6014">
        <ele>583.4</ele>
        <time>2022-07-29T09:55:06Z</time>
      </trkpt>
      <trkpt lat="46.41741" lon="5.6014">
        <ele>583.4</ele>
        <time>2022-07-29T09:55:07Z</time>
      </trkpt>
      <trkpt lat="46.41744" lon="5.6014">
        <ele>583.6</ele>
        <time>2022-07-29T09:55:08Z</time>
      </trkpt>
      <trkpt lat="46.41746" lon="5.6014">
        <ele>583.6</ele>
        <time>2022-07-29T09:55:09Z</time>
      </trkpt>
      <trkpt lat="46.41748" lon="5.6014">
        <ele>583.6</ele>
        <time>2022-07-29T09:55:10Z</time>
      </trkpt>
      <trkpt lat="46.41751" lon="5.6014">
        <ele>584</ele>
        <time>2022-07-29T09:55:11Z</time>
      </trkpt>
      <trkpt lat="46.41753" lon="5.6014">
        <ele>584</ele>
        <time>2022-07-29T09:55:12Z</time>
      </trkpt>
      <trkpt lat="46.41756" lon="5.6014">
        <ele>584.2</ele>
        <time>2022-07-29T09:55:13Z</time>
      </trkpt>
      <trkpt lat="46.41758" lon="5.6014">
        <ele>584.2</ele>
        <time>2022-07-29T09:55:14Z</time>
      </trkpt>
      <trkpt lat="46.4176" lon="5.6014">
        <ele>584.4</ele>
        <time>2022-07-29T09:55:15Z</time>
      </trkpt>
      <trkpt lat="46.41763" lon="5.60141">
        <ele>584.6</ele>
        <time>2022-07-29T09:55:16Z</time>
      </trkpt>
      <trkpt lat="46.41765" lon="5.60141">
        <ele>584.6</ele>
        <time>2022-07-29T09:55:17Z</time>
      </trkpt>
      <trkpt lat="46.41767" lon="5.60142">
        <ele>585</ele>
        <time>2022-07-29T09:55:18Z</time>
      </trkpt>
      <trkpt lat="46.41769" lon="5.60142">
        <ele>585</ele>
        <time>2022-07-29T09:55:19Z</time>
      </trkpt>
      <trkpt lat="46.41771" lon="5.60142">
        <ele>585.2</ele>
        <time>2022-07-29T09:55:20Z</time>
      </trkpt>
      <trkpt lat="46.41774" lon="5.60143">
        <ele>585.2</ele>
        <time>2022-07-29T09:55:21Z</time>
      </trkpt>
      <trkpt lat="46.41776" lon="5.60143">
        <ele>585.6</ele>
        <time>2022-07-29T09:55:22Z</time>
      </trkpt>
      <trkpt lat="46.41778" lon="5.60145">
        <ele>585.8</ele>
        <time>2022-07-29T09:55:23Z</time>
      </trkpt>
      <trkpt lat="46.41781" lon="5.60146">
        <ele>585.8</ele>
        <time>2022-07-29T09:55:24Z</time>
      </trkpt>
      <trkpt lat="46.41783" lon="5.60146">
        <ele>586</ele>
        <time>2022-07-29T09:55:25Z</time>
      </trkpt>
      <trkpt lat="46.41786" lon="5.60147">
        <ele>586.2</ele>
        <time>2022-07-29T09:55:26Z</time>
      </trkpt>
      <trkpt lat="46.41788" lon="5.60148">
        <ele>586.4</ele>
        <time>2022-07-29T09:55:27Z</time>
      </trkpt>
      <trkpt lat="46.4179" lon="5.60148">
        <ele>586.4</ele>
        <time>2022-07-29T09:55:28Z</time>
      </trkpt>
      <trkpt lat="46.41793" lon="5.60148">
        <ele>586.8</ele>
        <time>2022-07-29T09:55:29Z</time>
      </trkpt>
      <trkpt lat="46.41795" lon="5.60149">
        <ele>586.8</ele>
        <time>2022-07-29T09:55:30Z</time>
      </trkpt>
      <trkpt lat="46.41798" lon="5.60149">
        <ele>587.2</ele>
        <time>2022-07-29T09:55:31Z</time>
      </trkpt>
      <trkpt lat="46.418" lon="5.60149">
        <ele>587.2</ele>
        <time>2022-07-29T09:55:32Z</time>
      </trkpt>
      <trkpt lat="46.41803" lon="5.60149">
        <ele>587.4</ele>
        <time>2022-07-29T09:55:33Z</time>
      </trkpt>
      <trkpt lat="46.41805" lon="5.60149">
        <ele>587.4</ele>
        <time>2022-07-29T09:55:34Z</time>
      </trkpt>
      <trkpt lat="46.41809" lon="5.6015">
        <ele>587.8</ele>
        <time>2022-07-29T09:55:35Z</time>
      </trkpt>
      <trkpt lat="46.41811" lon="5.60151">
        <ele>587.8</ele>
        <time>2022-07-29T09:55:36Z</time>
      </trkpt>
      <trkpt lat="46.41814" lon="5.60152">
        <ele>588.2</ele>
        <time>2022-07-29T09:55:37Z</time>
      </trkpt>
      <trkpt lat="46.41816" lon="5.60154">
        <ele>588.2</ele>
        <time>2022-07-29T09:55:38Z</time>
      </trkpt>
      <trkpt lat="46.41819" lon="5.60155">
        <ele>588.4</ele>
        <time>2022-07-29T09:55:39Z</time>
      </trkpt>
      <trkpt lat="46.41822" lon="5.60155">
        <ele>588.4</ele>
        <time>2022-07-29T09:55:40Z</time>
      </trkpt>
      <trkpt lat="46.41824" lon="5.60156">
        <ele>588.6</ele>
        <time>2022-07-29T09:55:41Z</time>
      </trkpt>
      <trkpt lat="46.41827" lon="5.60157">
        <ele>588.6</ele>
        <time>2022-07-29T09:55:42Z</time>
      </trkpt>
      <trkpt lat="46.41829" lon="5.60158">
        <ele>589</ele>
        <time>2022-07-29T09:55:43Z</time>
      </trkpt>
      <trkpt lat="46.41832" lon="5.60159">
        <ele>589</ele>
        <time>2022-07-29T09:55:44Z</time>
      </trkpt>
      <trkpt lat="46.41835" lon="5.60161">
        <ele>589.4</ele>
        <time>2022-07-29T09:55:45Z</time>
      </trkpt>
      <trkpt lat="46.41837" lon="5.60162">
        <ele>589.4</ele>
        <time>2022-07-29T09:55:46Z</time>
      </trkpt>
      <trkpt lat="46.41841" lon="5.60163">
        <ele>589.8</ele>
        <time>2022-07-29T09:55:47Z</time>
      </trkpt>
      <trkpt lat="46.41843" lon="5.60165">
        <ele>589.8</ele>
        <time>2022-07-29T09:55:48Z</time>
      </trkpt>
      <trkpt lat="46.41846" lon="5.60166">
        <ele>590.2</ele>
        <time>2022-07-29T09:55:49Z</time>
      </trkpt>
      <trkpt lat="46.41848" lon="5.60167">
        <ele>590.2</ele>
        <time>2022-07-29T09:55:50Z</time>
      </trkpt>
      <trkpt lat="46.4185" lon="5.60169">
        <ele>590.4</ele>
        <time>2022-07-29T09:55:51Z</time>
      </trkpt>
      <trkpt lat="46.41853" lon="5.60171">
        <ele>590.4</ele>
        <time>2022-07-29T09:55:52Z</time>
      </trkpt>
      <trkpt lat="46.41854" lon="5.60173">
        <ele>590.8</ele>
        <time>2022-07-29T09:55:53Z</time>
      </trkpt>
      <trkpt lat="46.41856" lon="5.60175">
        <ele>590.8</ele>
        <time>2022-07-29T09:55:54Z</time>
      </trkpt>
      <trkpt lat="46.41857" lon="5.60178">
        <ele>591.2</ele>
        <time>2022-07-29T09:55:55Z</time>
      </trkpt>
      <trkpt lat="46.41858" lon="5.60182">
        <ele>591.2</ele>
        <time>2022-07-29T09:55:56Z</time>
      </trkpt>
      <trkpt lat="46.41859" lon="5.60185">
        <ele>591.6</ele>
        <time>2022-07-29T09:55:57Z</time>
      </trkpt>
      <trkpt lat="46.4186" lon="5.60188">
        <ele>591.6</ele>
        <time>2022-07-29T09:55:58Z</time>
      </trkpt>
      <trkpt lat="46.41861" lon="5.60192">
        <ele>591.8</ele>
        <time>2022-07-29T09:55:59Z</time>
      </trkpt>
      <trkpt lat="46.41862" lon="5.60195">
        <ele>591.8</ele>
        <time>2022-07-29T09:56:00Z</time>
      </trkpt>
      <trkpt lat="46.41863" lon="5.60198">
        <ele>592</ele>
        <time>2022-07-29T09:56:01Z</time>
      </trkpt>
      <trkpt lat="46.41865" lon="5.60201">
        <ele>592</ele>
        <time>2022-07-29T09:56:02Z</time>
      </trkpt>
      <trkpt lat="46.41867" lon="5.60205">
        <ele>592</ele>
        <time>2022-07-29T09:56:03Z</time>
      </trkpt>
      <trkpt lat="46.41868" lon="5.60208">
        <ele>592.2</ele>
        <time>2022-07-29T09:56:04Z</time>
      </trkpt>
      <trkpt lat="46.4187" lon="5.60211">
        <ele>592.2</ele>
        <time>2022-07-29T09:56:05Z</time>
      </trkpt>
      <trkpt lat="46.41871" lon="5.60214">
        <ele>592.6</ele>
        <time>2022-07-29T09:56:06Z</time>
      </trkpt>
      <trkpt lat="46.41872" lon="5.60217">
        <ele>592.6</ele>
        <time>2022-07-29T09:56:07Z</time>
      </trkpt>
      <trkpt lat="46.41874" lon="5.60219">
        <ele>592.8</ele>
        <time>2022-07-29T09:56:08Z</time>
      </trkpt>
      <trkpt lat="46.41875" lon="5.60222">
        <ele>592.8</ele>
        <time>2022-07-29T09:56:09Z</time>
      </trkpt>
      <trkpt lat="46.41876" lon="5.60224">
        <ele>593</ele>
        <time>2022-07-29T09:56:10Z</time>
      </trkpt>
      <trkpt lat="46.41878" lon="5.60227">
        <ele>593</ele>
        <time>2022-07-29T09:56:11Z</time>
      </trkpt>
      <trkpt lat="46.41879" lon="5.60229">
        <ele>593.4</ele>
        <time>2022-07-29T09:56:12Z</time>
      </trkpt>
      <trkpt lat="46.41881" lon="5.60231">
        <ele>593.4</ele>
        <time>2022-07-29T09:56:13Z</time>
      </trkpt>
      <trkpt lat="46.41882" lon="5.60234">
        <ele>593.6</ele>
        <time>2022-07-29T09:56:14Z</time>
      </trkpt>
      <trkpt lat="46.41883" lon="5.60236">
        <ele>593.6</ele>
        <time>2022-07-29T09:56:15Z</time>
      </trkpt>
      <trkpt lat="46.41885" lon="5.60239">
        <ele>594</ele>
        <time>2022-07-29T09:56:16Z</time>
      </trkpt>
      <trkpt lat="46.41886" lon="5.60241">
        <ele>594</ele>
        <time>2022-07-29T09:56:17Z</time>
      </trkpt>
      <trkpt lat="46.41887" lon="5.60244">
        <ele>594.2</ele>
        <time>2022-07-29T09:56:18Z</time>
      </trkpt>
      <trkpt lat="46.41889" lon="5.60246">
        <ele>594.4</ele>
        <time>2022-07-29T09:56:19Z</time>
      </trkpt>
      <trkpt lat="46.4189" lon="5.60249">
        <ele>594.4</ele>
        <time>2022-07-29T09:56:20Z</time>
      </trkpt>
      <trkpt lat="46.41892" lon="5.60251">
        <ele>594.8</ele>
        <time>2022-07-29T09:56:21Z</time>
      </trkpt>
      <trkpt lat="46.41894" lon="5.60254">
        <ele>594.8</ele>
        <time>2022-07-29T09:56:22Z</time>
      </trkpt>
      <trkpt lat="46.41895" lon="5.60256">
        <ele>595</ele>
        <time>2022-07-29T09:56:23Z</time>
      </trkpt>
      <trkpt lat="46.41896" lon="5.60259">
        <ele>595</ele>
        <time>2022-07-29T09:56:24Z</time>
      </trkpt>
      <trkpt lat="46.41897" lon="5.60262">
        <ele>595.4</ele>
        <time>2022-07-29T09:56:25Z</time>
      </trkpt>
      <trkpt lat="46.41898" lon="5.60264">
        <ele>595.4</ele>
        <time>2022-07-29T09:56:26Z</time>
      </trkpt>
      <trkpt lat="46.41899" lon="5.60267">
        <ele>595.6</ele>
        <time>2022-07-29T09:56:27Z</time>
      </trkpt>
      <trkpt lat="46.419" lon="5.6027">
        <ele>595.6</ele>
        <time>2022-07-29T09:56:28Z</time>
      </trkpt>
      <trkpt lat="46.41901" lon="5.60272">
        <ele>596</ele>
        <time>2022-07-29T09:56:29Z</time>
      </trkpt>
      <trkpt lat="46.41902" lon="5.60275">
        <ele>596</ele>
        <time>2022-07-29T09:56:30Z</time>
      </trkpt>
      <trkpt lat="46.41904" lon="5.60277">
        <ele>596.2</ele>
        <time>2022-07-29T09:56:31Z</time>
      </trkpt>
      <trkpt lat="46.41905" lon="5.60279">
        <ele>596.2</ele>
        <time>2022-07-29T09:56:32Z</time>
      </trkpt>
      <trkpt lat="46.41906" lon="5.60281">
        <ele>596.6</ele>
        <time>2022-07-29T09:56:33Z</time>
      </trkpt>
      <trkpt lat="46.41907" lon="5.60284">
        <ele>596.8</ele>
        <time>2022-07-29T09:56:34Z</time>
      </trkpt>
      <trkpt lat="46.41908" lon="5.60286">
        <ele>596.8</ele>
        <time>2022-07-29T09:56:35Z</time>
      </trkpt>
      <trkpt lat="46.41909" lon="5.60288">
        <ele>597.2</ele>
        <time>2022-07-29T09:56:36Z</time>
      </trkpt>
      <trkpt lat="46.4191" lon="5.6029">
        <ele>597.2</ele>
        <time>2022-07-29T09:56:37Z</time>
      </trkpt>
      <trkpt lat="46.41912" lon="5.60292">
        <ele>597.4</ele>
        <time>2022-07-29T09:56:38Z</time>
      </trkpt>
      <trkpt lat="46.41913" lon="5.60294">
        <ele>597.4</ele>
        <time>2022-07-29T09:56:39Z</time>
      </trkpt>
      <trkpt lat="46.41915" lon="5.60296">
        <ele>597.6</ele>
        <time>2022-07-29T09:56:40Z</time>
      </trkpt>
      <trkpt lat="46.41916" lon="5.60297">
        <ele>597.6</ele>
        <time>2022-07-29T09:56:41Z</time>
      </trkpt>
      <trkpt lat="46.41917" lon="5.60299">
        <ele>597.8</ele>
        <time>2022-07-29T09:56:42Z</time>
      </trkpt>
      <trkpt lat="46.4192" lon="5.603">
        <ele>597.8</ele>
        <time>2022-07-29T09:56:43Z</time>
      </trkpt>
      <trkpt lat="46.41921" lon="5.60301">
        <ele>597.8</ele>
        <time>2022-07-29T09:56:44Z</time>
      </trkpt>
      <trkpt lat="46.41923" lon="5.60302">
        <ele>598.2</ele>
        <time>2022-07-29T09:56:45Z</time>
      </trkpt>
      <trkpt lat="46.41924" lon="5.60303">
        <ele>598.2</ele>
        <time>2022-07-29T09:56:46Z</time>
      </trkpt>
      <trkpt lat="46.41926" lon="5.60303">
        <ele>598.2</ele>
        <time>2022-07-29T09:56:47Z</time>
      </trkpt>
      <trkpt lat="46.41928" lon="5.60304">
        <ele>598.4</ele>
        <time>2022-07-29T09:56:48Z</time>
      </trkpt>
      <trkpt lat="46.4193" lon="5.60304">
        <ele>598.4</ele>
        <time>2022-07-29T09:56:49Z</time>
      </trkpt>
      <trkpt lat="46.41931" lon="5.60305">
        <ele>598.4</ele>
        <time>2022-07-29T09:56:50Z</time>
      </trkpt>
      <trkpt lat="46.41933" lon="5.60305">
        <ele>598.8</ele>
        <time>2022-07-29T09:56:51Z</time>
      </trkpt>
      <trkpt lat="46.41934" lon="5.60305">
        <ele>598.8</ele>
        <time>2022-07-29T09:56:52Z</time>
      </trkpt>
      <trkpt lat="46.41936" lon="5.60305">
        <ele>598.8</ele>
        <time>2022-07-29T09:56:53Z</time>
      </trkpt>
      <trkpt lat="46.41938" lon="5.60306">
        <ele>599</ele>
        <time>2022-07-29T09:56:54Z</time>
      </trkpt>
      <trkpt lat="46.41939" lon="5.60306">
        <ele>599</ele>
        <time>2022-07-29T09:56:55Z</time>
      </trkpt>
      <trkpt lat="46.4194" lon="5.60306">
        <ele>599</ele>
        <time>2022-07-29T09:56:56Z</time>
      </trkpt>
      <trkpt lat="46.4194" lon="5.60306">
        <ele>599</ele>
        <time>2022-07-29T09:56:57Z</time>
      </trkpt>
      <trkpt lat="46.4194" lon="5.60306">
        <ele>599</ele>
        <time>2022-07-29T09:56:58Z</time>
      </trkpt>
      <trkpt lat="46.41944" lon="5.60308">
        <ele>599</ele>
        <time>2022-07-29T09:57:01Z</time>
      </trkpt>
      <trkpt lat="46.41946" lon="5.60309">
        <ele>599.2</ele>
        <time>2022-07-29T09:57:02Z</time>
      </trkpt>
      <trkpt lat="46.41948" lon="5.6031">
        <ele>599.2</ele>
        <time>2022-07-29T09:57:03Z</time>
      </trkpt>
      <trkpt lat="46.41951" lon="5.60312">
        <ele>599.2</ele>
        <time>2022-07-29T09:57:04Z</time>
      </trkpt>
      <trkpt lat="46.41953" lon="5.60313">
        <ele>599.2</ele>
        <time>2022-07-29T09:57:05Z</time>
      </trkpt>
      <trkpt lat="46.41955" lon="5.60315">
        <ele>599.2</ele>
        <time>2022-07-29T09:57:06Z</time>
      </trkpt>
      <trkpt lat="46.41957" lon="5.60316">
        <ele>599.2</ele>
        <time>2022-07-29T09:57:07Z</time>
      </trkpt>
      <trkpt lat="46.41959" lon="5.60318">
        <ele>599.6</ele>
        <time>2022-07-29T09:57:08Z</time>
      </trkpt>
      <trkpt lat="46.4196" lon="5.6032">
        <ele>599.6</ele>
        <time>2022-07-29T09:57:09Z</time>
      </trkpt>
      <trkpt lat="46.41962" lon="5.60321">
        <ele>599.6</ele>
        <time>2022-07-29T09:57:10Z</time>
      </trkpt>
      <trkpt lat="46.41964" lon="5.60322">
        <ele>599.8</ele>
        <time>2022-07-29T09:57:11Z</time>
      </trkpt>
      <trkpt lat="46.41966" lon="5.60323">
        <ele>599.8</ele>
        <time>2022-07-29T09:57:12Z</time>
      </trkpt>
      <trkpt lat="46.41968" lon="5.60324">
        <ele>599.8</ele>
        <time>2022-07-29T09:57:13Z</time>
      </trkpt>
      <trkpt lat="46.4197" lon="5.60326">
        <ele>600</ele>
        <time>2022-07-29T09:57:14Z</time>
      </trkpt>
      <trkpt lat="46.41972" lon="5.60328">
        <ele>600</ele>
        <time>2022-07-29T09:57:15Z</time>
      </trkpt>
      <trkpt lat="46.41974" lon="5.60329">
        <ele>600</ele>
        <time>2022-07-29T09:57:16Z</time>
      </trkpt>
      <trkpt lat="46.41976" lon="5.6033">
        <ele>600.4</ele>
        <time>2022-07-29T09:57:17Z</time>
      </trkpt>
      <trkpt lat="46.41978" lon="5.60332">
        <ele>600.4</ele>
        <time>2022-07-29T09:57:18Z</time>
      </trkpt>
      <trkpt lat="46.4198" lon="5.60334">
        <ele>600.6</ele>
        <time>2022-07-29T09:57:19Z</time>
      </trkpt>
      <trkpt lat="46.41982" lon="5.60336">
        <ele>600.6</ele>
        <time>2022-07-29T09:57:20Z</time>
      </trkpt>
      <trkpt lat="46.41984" lon="5.60338">
        <ele>601</ele>
        <time>2022-07-29T09:57:21Z</time>
      </trkpt>
      <trkpt lat="46.41986" lon="5.6034">
        <ele>601</ele>
        <time>2022-07-29T09:57:22Z</time>
      </trkpt>
      <trkpt lat="46.41988" lon="5.60342">
        <ele>601.2</ele>
        <time>2022-07-29T09:57:23Z</time>
      </trkpt>
      <trkpt lat="46.4199" lon="5.60344">
        <ele>601.2</ele>
        <time>2022-07-29T09:57:24Z</time>
      </trkpt>
      <trkpt lat="46.41992" lon="5.60346">
        <ele>601.4</ele>
        <time>2022-07-29T09:57:25Z</time>
      </trkpt>
      <trkpt lat="46.41994" lon="5.60349">
        <ele>601.4</ele>
        <time>2022-07-29T09:57:26Z</time>
      </trkpt>
      <trkpt lat="46.41996" lon="5.60352">
        <ele>601.4</ele>
        <time>2022-07-29T09:57:27Z</time>
      </trkpt>
      <trkpt lat="46.41997" lon="5.60354">
        <ele>601.6</ele>
        <time>2022-07-29T09:57:28Z</time>
      </trkpt>
      <trkpt lat="46.41999" lon="5.60357">
        <ele>601.6</ele>
        <time>2022-07-29T09:57:29Z</time>
      </trkpt>
      <trkpt lat="46.42001" lon="5.6036">
        <ele>601.6</ele>
        <time>2022-07-29T09:57:30Z</time>
      </trkpt>
      <trkpt lat="46.42002" lon="5.60363">
        <ele>602</ele>
        <time>2022-07-29T09:57:31Z</time>
      </trkpt>
      <trkpt lat="46.42003" lon="5.60365">
        <ele>602</ele>
        <time>2022-07-29T09:57:32Z</time>
      </trkpt>
      <trkpt lat="46.42005" lon="5.60368">
        <ele>602.2</ele>
        <time>2022-07-29T09:57:33Z</time>
      </trkpt>
      <trkpt lat="46.42006" lon="5.60371">
        <ele>602.2</ele>
        <time>2022-07-29T09:57:34Z</time>
      </trkpt>
      <trkpt lat="46.42006" lon="5.60373">
        <ele>602.2</ele>
        <time>2022-07-29T09:57:35Z</time>
      </trkpt>
      <trkpt lat="46.42007" lon="5.60374">
        <ele>602.2</ele>
        <time>2022-07-29T09:57:36Z</time>
      </trkpt>
      <trkpt lat="46.42007" lon="5.60374">
        <ele>602.4</ele>
        <time>2022-07-29T09:57:37Z</time>
      </trkpt>
      <trkpt lat="46.42007" lon="5.60375">
        <ele>602.4</ele>
        <time>2022-07-29T09:57:38Z</time>
      </trkpt>
      <trkpt lat="46.42007" lon="5.60375">
        <ele>602.4</ele>
        <time>2022-07-29T09:57:39Z</time>
      </trkpt>
      <trkpt lat="46.42007" lon="5.60375">
        <ele>602.4</ele>
        <time>2022-07-29T09:57:40Z</time>
      </trkpt>
      <trkpt lat="46.42007" lon="5.60375">
        <ele>602.6</ele>
        <time>2022-07-29T09:57:43Z</time>
      </trkpt>
      <trkpt lat="46.42007" lon="5.60375">
        <ele>602.6</ele>
        <time>2022-07-29T09:57:44Z</time>
      </trkpt>
      <trkpt lat="46.42007" lon="5.60375">
        <ele>602.6</ele>
        <time>2022-07-29T09:57:45Z</time>
      </trkpt>
      <trkpt lat="46.42007" lon="5.60375">
        <ele>602.6</ele>
        <time>2022-07-29T09:57:46Z</time>
      </trkpt>
      <trkpt lat="46.42007" lon="5.60375">
        <ele>602.6</ele>
        <time>2022-07-29T09:57:47Z</time>
      </trkpt>
      <trkpt lat="46.42007" lon="5.60375">
        <ele>602.6</ele>
        <time>2022-07-29T09:57:48Z</time>
      </trkpt>
      <trkpt lat="46.42007" lon="5.60375">
        <ele>602.6</ele>
        <time>2022-07-29T09:57:49Z</time>
      </trkpt>
      <trkpt lat="46.42007" lon="5.60375">
        <ele>602.6</ele>
        <time>2022-07-29T09:57:50Z</time>
      </trkpt>
      <trkpt lat="46.42007" lon="5.60375">
        <ele>602.6</ele>
        <time>2022-07-29T09:57:51Z</time>
      </trkpt>
      <trkpt lat="46.42007" lon="5.60375">
        <ele>602.6</ele>
        <time>2022-07-29T09:57:52Z</time>
      </trkpt>
      <trkpt lat="46.42007" lon="5.60375">
        <ele>602.6</ele>
        <time>2022-07-29T09:57:53Z</time>
      </trkpt>
      <trkpt lat="46.42007" lon="5.60375">
        <ele>602.6</ele>
        <time>2022-07-29T09:58:02Z</time>
      </trkpt>
      <trkpt lat="46.42007" lon="5.60375">
        <ele>602.6</ele>
        <time>2022-07-29T09:58:03Z</time>
      </trkpt>
      <trkpt lat="46.42007" lon="5.60375">
        <ele>602.6</ele>
        <time>2022-07-29T09:58:23Z</time>
      </trkpt>
      <trkpt lat="46.42007" lon="5.60375">
        <ele>602.6</ele>
        <time>2022-07-29T09:58:24Z</time>
      </trkpt>
      <trkpt lat="46.42007" lon="5.60375">
        <ele>602.6</ele>
        <time>2022-07-29T09:58:25Z</time>
      </trkpt>
      <trkpt lat="46.42007" lon="5.60375">
        <ele>602.4</ele>
        <time>2022-07-29T09:58:31Z</time>
      </trkpt>
      <trkpt lat="46.42007" lon="5.60375">
        <ele>602.4</ele>
        <time>2022-07-29T09:58:32Z</time>
      </trkpt>
      <trkpt lat="46.42007" lon="5.60375">
        <ele>602.4</ele>
        <time>2022-07-29T09:58:33Z</time>
      </trkpt>
      <trkpt lat="46.42007" lon="5.60375">
        <ele>602.4</ele>
        <time>2022-07-29T09:58:34Z</time>
      </trkpt>
      <trkpt lat="46.42007" lon="5.60375">
        <ele>602.4</ele>
        <time>2022-07-29T09:58:35Z</time>
      </trkpt>
      <trkpt lat="46.42007" lon="5.60375">
        <ele>602.6</ele>
        <time>2022-07-29T09:58:36Z</time>
      </trkpt>
      <trkpt lat="46.42007" lon="5.60375">
        <ele>602.6</ele>
        <time>2022-07-29T09:58:37Z</time>
      </trkpt>
      <trkpt lat="46.42007" lon="5.60375">
        <ele>602.6</ele>
        <time>2022-07-29T09:58:38Z</time>
      </trkpt>
      <trkpt lat="46.42007" lon="5.60375">
        <ele>602.6</ele>
        <time>2022-07-29T09:58:39Z</time>
      </trkpt>
      <trkpt lat="46.42007" lon="5.60375">
        <ele>602.6</ele>
        <time>2022-07-29T09:58:40Z</time>
      </trkpt>
      <trkpt lat="46.42007" lon="5.60375">
        <ele>602.6</ele>
        <time>2022-07-29T09:58:41Z</time>
      </trkpt>
      <trkpt lat="46.42007" lon="5.60375">
        <ele>602.6</ele>
        <time>2022-07-29T09:58:42Z</time>
      </trkpt>
      <trkpt lat="46.42007" lon="5.60375">
        <ele>602.6</ele>
        <time>2022-07-29T09:58:43Z</time>
      </trkpt>
      <trkpt lat="46.42007" lon="5.60375">
        <ele>602.6</ele>
        <time>2022-07-29T09:58:47Z</time>
      </trkpt>
      <trkpt lat="46.42007" lon="5.60375">
        <ele>602.6</ele>
        <time>2022-07-29T09:58:48Z</time>
      </trkpt>
      <trkpt lat="46.42007" lon="5.60375">
        <ele>602.6</ele>
        <time>2022-07-29T09:58:49Z</time>
      </trkpt>
      <trkpt lat="46.42007" lon="5.60375">
        <ele>602.6</ele>
        <time>2022-07-29T09:58:50Z</time>
      </trkpt>
      <trkpt lat="46.42007" lon="5.60375">
        <ele>602.6</ele>
        <time>2022-07-29T09:58:51Z</time>
      </trkpt>
      <trkpt lat="46.42007" lon="5.60375">
        <ele>602.6</ele>
        <time>2022-07-29T09:58:52Z</time>
      </trkpt>
      <trkpt lat="46.42007" lon="5.60375">
        <ele>602.6</ele>
        <time>2022-07-29T09:58:53Z</time>
      </trkpt>
      <trkpt lat="46.42007" lon="5.60375">
        <ele>602.6</ele>
        <time>2022-07-29T09:58:54Z</time>
      </trkpt>
      <trkpt lat="46.42007" lon="5.60375">
        <ele>602.6</ele>
        <time>2022-07-29T09:58:55Z</time>
      </trkpt>
      <trkpt lat="46.42007" lon="5.60375">
        <ele>602.6</ele>
        <time>2022-07-29T09:58:56Z</time>
      </trkpt>
      <trkpt lat="46.42005" lon="5.60368">
        <ele>602.4</ele>
        <time>2022-07-29T09:58:57Z</time>
      </trkpt>
      <trkpt lat="46.42005" lon="5.60366">
        <ele>602.4</ele>
        <time>2022-07-29T09:58:58Z</time>
      </trkpt>
      <trkpt lat="46.42004" lon="5.60364">
        <ele>602.4</ele>
        <time>2022-07-29T09:58:59Z</time>
      </trkpt>
      <trkpt lat="46.42003" lon="5.60363">
        <ele>602.4</ele>
        <time>2022-07-29T09:59:00Z</time>
      </trkpt>
      <trkpt lat="46.42002" lon="5.6036">
        <ele>602.4</ele>
        <time>2022-07-29T09:59:01Z</time>
      </trkpt>
      <trkpt lat="46.42001" lon="5.60358">
        <ele>602.4</ele>
        <time>2022-07-29T09:59:02Z</time>
      </trkpt>
      <trkpt lat="46.42" lon="5.60356">
        <ele>602.2</ele>
        <time>2022-07-29T09:59:03Z</time>
      </trkpt>
      <trkpt lat="46.41998" lon="5.60354">
        <ele>602.2</ele>
        <time>2022-07-29T09:59:04Z</time>
      </trkpt>
      <trkpt lat="46.41996" lon="5.60351">
        <ele>602.2</ele>
        <time>2022-07-29T09:59:05Z</time>
      </trkpt>
      <trkpt lat="46.41995" lon="5.60349">
        <ele>602</ele>
        <time>2022-07-29T09:59:06Z</time>
      </trkpt>
      <trkpt lat="46.41992" lon="5.60346">
        <ele>602</ele>
        <time>2022-07-29T09:59:07Z</time>
      </trkpt>
      <trkpt lat="46.4199" lon="5.60344">
        <ele>602</ele>
        <time>2022-07-29T09:59:08Z</time>
      </trkpt>
      <trkpt lat="46.41988" lon="5.60341">
        <ele>601.6</ele>
        <time>2022-07-29T09:59:09Z</time>
      </trkpt>
      <trkpt lat="46.41986" lon="5.60339">
        <ele>601.6</ele>
        <time>2022-07-29T09:59:10Z</time>
      </trkpt>
      <trkpt lat="46.41983" lon="5.60338">
        <ele>601.4</ele>
        <time>2022-07-29T09:59:11Z</time>
      </trkpt>
      <trkpt lat="46.4198" lon="5.60335">
        <ele>601.4</ele>
        <time>2022-07-29T09:59:12Z</time>
      </trkpt>
      <trkpt lat="46.41978" lon="5.60333">
        <ele>601</ele>
        <time>2022-07-29T09:59:13Z</time>
      </trkpt>
      <trkpt lat="46.41975" lon="5.60331">
        <ele>601</ele>
        <time>2022-07-29T09:59:14Z</time>
      </trkpt>
      <trkpt lat="46.41973" lon="5.60329">
        <ele>600.8</ele>
        <time>2022-07-29T09:59:15Z</time>
      </trkpt>
      <trkpt lat="46.4197" lon="5.60327">
        <ele>600.8</ele>
        <time>2022-07-29T09:59:16Z</time>
      </trkpt>
      <trkpt lat="46.41967" lon="5.60325">
        <ele>600.6</ele>
        <time>2022-07-29T09:59:17Z</time>
      </trkpt>
      <trkpt lat="46.41964" lon="5.60323">
        <ele>600.6</ele>
        <time>2022-07-29T09:59:18Z</time>
      </trkpt>
      <trkpt lat="46.41961" lon="5.60321">
        <ele>600.2</ele>
        <time>2022-07-29T09:59:19Z</time>
      </trkpt>
      <trkpt lat="46.41958" lon="5.60318">
        <ele>600.2</ele>
        <time>2022-07-29T09:59:20Z</time>
      </trkpt>
      <trkpt lat="46.41955" lon="5.60317">
        <ele>600</ele>
        <time>2022-07-29T09:59:21Z</time>
      </trkpt>
      <trkpt lat="46.41951" lon="5.60315">
        <ele>600</ele>
        <time>2022-07-29T09:59:22Z</time>
      </trkpt>
      <trkpt lat="46.41948" lon="5.60313">
        <ele>600</ele>
        <time>2022-07-29T09:59:23Z</time>
      </trkpt>
      <trkpt lat="46.41945" lon="5.60312">
        <ele>599.8</ele>
        <time>2022-07-29T09:59:24Z</time>
      </trkpt>
      <trkpt lat="46.41942" lon="5.6031">
        <ele>599.8</ele>
        <time>2022-07-29T09:59:25Z</time>
      </trkpt>
      <trkpt lat="46.41939" lon="5.60309">
        <ele>599.4</ele>
        <time>2022-07-29T09:59:26Z</time>
      </trkpt>
      <trkpt lat="46.41937" lon="5.60309">
        <ele>599.4</ele>
        <time>2022-07-29T09:59:27Z</time>
      </trkpt>
      <trkpt lat="46.41934" lon="5.60308">
        <ele>599.2</ele>
        <time>2022-07-29T09:59:28Z</time>
      </trkpt>
      <trkpt lat="46.41931" lon="5.60307">
        <ele>599.2</ele>
        <time>2022-07-29T09:59:29Z</time>
      </trkpt>
      <trkpt lat="46.41929" lon="5.60305">
        <ele>599</ele>
        <time>2022-07-29T09:59:30Z</time>
      </trkpt>
      <trkpt lat="46.41927" lon="5.60304">
        <ele>599</ele>
        <time>2022-07-29T09:59:31Z</time>
      </trkpt>
      <trkpt lat="46.41924" lon="5.60302">
        <ele>598.6</ele>
        <time>2022-07-29T09:59:32Z</time>
      </trkpt>
      <trkpt lat="46.41922" lon="5.603">
        <ele>598.6</ele>
        <time>2022-07-29T09:59:33Z</time>
      </trkpt>
      <trkpt lat="46.4192" lon="5.60298">
        <ele>598.4</ele>
        <time>2022-07-29T09:59:34Z</time>
      </trkpt>
      <trkpt lat="46.41919" lon="5.60296">
        <ele>598.4</ele>
        <time>2022-07-29T09:59:35Z</time>
      </trkpt>
      <trkpt lat="46.41917" lon="5.60294">
        <ele>598</ele>
        <time>2022-07-29T09:59:36Z</time>
      </trkpt>
      <trkpt lat="46.41916" lon="5.60293">
        <ele>598</ele>
        <time>2022-07-29T09:59:37Z</time>
      </trkpt>
      <trkpt lat="46.41915" lon="5.6029">
        <ele>597.6</ele>
        <time>2022-07-29T09:59:38Z</time>
      </trkpt>
      <trkpt lat="46.41913" lon="5.60288">
        <ele>597.6</ele>
        <time>2022-07-29T09:59:39Z</time>
      </trkpt>
      <trkpt lat="46.41912" lon="5.60285">
        <ele>597.4</ele>
        <time>2022-07-29T09:59:40Z</time>
      </trkpt>
      <trkpt lat="46.4191" lon="5.60282">
        <ele>597.2</ele>
        <time>2022-07-29T09:59:41Z</time>
      </trkpt>
      <trkpt lat="46.41908" lon="5.60279">
        <ele>596.8</ele>
        <time>2022-07-29T09:59:42Z</time>
      </trkpt>
      <trkpt lat="46.41907" lon="5.60275">
        <ele>596.6</ele>
        <time>2022-07-29T09:59:43Z</time>
      </trkpt>
      <trkpt lat="46.41905" lon="5.60272">
        <ele>596.6</ele>
        <time>2022-07-29T09:59:44Z</time>
      </trkpt>
      <trkpt lat="46.41903" lon="5.60268">
        <ele>596.2</ele>
        <time>2022-07-29T09:59:45Z</time>
      </trkpt>
      <trkpt lat="46.41902" lon="5.60265">
        <ele>596</ele>
        <time>2022-07-29T09:59:46Z</time>
      </trkpt>
      <trkpt lat="46.419" lon="5.60261">
        <ele>595.6</ele>
        <time>2022-07-29T09:59:47Z</time>
      </trkpt>
      <trkpt lat="46.41898" lon="5.60257">
        <ele>595.4</ele>
        <time>2022-07-29T09:59:48Z</time>
      </trkpt>
      <trkpt lat="46.41895" lon="5.60253">
        <ele>595.2</ele>
        <time>2022-07-29T09:59:49Z</time>
      </trkpt>
      <trkpt lat="46.41894" lon="5.6025">
        <ele>595</ele>
        <time>2022-07-29T09:59:50Z</time>
      </trkpt>
      <trkpt lat="46.41892" lon="5.60246">
        <ele>594.6</ele>
        <time>2022-07-29T09:59:51Z</time>
      </trkpt>
      <trkpt lat="46.4189" lon="5.60243">
        <ele>594.6</ele>
        <time>2022-07-29T09:59:52Z</time>
      </trkpt>
      <trkpt lat="46.41888" lon="5.60239">
        <ele>594.2</ele>
        <time>2022-07-29T09:59:53Z</time>
      </trkpt>
      <trkpt lat="46.41886" lon="5.60235">
        <ele>594</ele>
        <time>2022-07-29T09:59:54Z</time>
      </trkpt>
      <trkpt lat="46.41884" lon="5.60231">
        <ele>593.8</ele>
        <time>2022-07-29T09:59:55Z</time>
      </trkpt>
      <trkpt lat="46.41882" lon="5.60228">
        <ele>593.4</ele>
        <time>2022-07-29T09:59:56Z</time>
      </trkpt>
      <trkpt lat="46.41881" lon="5.60224">
        <ele>593.2</ele>
        <time>2022-07-29T09:59:57Z</time>
      </trkpt>
      <trkpt lat="46.41879" lon="5.6022">
        <ele>593.2</ele>
        <time>2022-07-29T09:59:58Z</time>
      </trkpt>
      <trkpt lat="46.41877" lon="5.60216">
        <ele>592.6</ele>
        <time>2022-07-29T09:59:59Z</time>
      </trkpt>
      <trkpt lat="46.41876" lon="5.60212">
        <ele>592.6</ele>
        <time>2022-07-29T10:00:00Z</time>
      </trkpt>
      <trkpt lat="46.41874" lon="5.60207">
        <ele>592.4</ele>
        <time>2022-07-29T10:00:01Z</time>
      </trkpt>
      <trkpt lat="46.41873" lon="5.60202">
        <ele>592.4</ele>
        <time>2022-07-29T10:00:02Z</time>
      </trkpt>
      <trkpt lat="46.41872" lon="5.60198">
        <ele>591.8</ele>
        <time>2022-07-29T10:00:03Z</time>
      </trkpt>
      <trkpt lat="46.41871" lon="5.60194">
        <ele>591.6</ele>
        <time>2022-07-29T10:00:04Z</time>
      </trkpt>
      <trkpt lat="46.41869" lon="5.6019">
        <ele>591.4</ele>
        <time>2022-07-29T10:00:05Z</time>
      </trkpt>
      <trkpt lat="46.41867" lon="5.60186">
        <ele>591.2</ele>
        <time>2022-07-29T10:00:06Z</time>
      </trkpt>
      <trkpt lat="46.41863" lon="5.60183">
        <ele>591</ele>
        <time>2022-07-29T10:00:07Z</time>
      </trkpt>
      <trkpt lat="46.4186" lon="5.60179">
        <ele>590.8</ele>
        <time>2022-07-29T10:00:08Z</time>
      </trkpt>
      <trkpt lat="46.41856" lon="5.60177">
        <ele>590.8</ele>
        <time>2022-07-29T10:00:09Z</time>
      </trkpt>
      <trkpt lat="46.41853" lon="5.60174">
        <ele>590.2</ele>
        <time>2022-07-29T10:00:10Z</time>
      </trkpt>
      <trkpt lat="46.41849" lon="5.60173">
        <ele>590</ele>
        <time>2022-07-29T10:00:11Z</time>
      </trkpt>
      <trkpt lat="46.41846" lon="5.60171">
        <ele>589.8</ele>
        <time>2022-07-29T10:00:12Z</time>
      </trkpt>
      <trkpt lat="46.41843" lon="5.6017">
        <ele>589.6</ele>
        <time>2022-07-29T10:00:13Z</time>
      </trkpt>
      <trkpt lat="46.41839" lon="5.60169">
        <ele>589.4</ele>
        <time>2022-07-29T10:00:14Z</time>
      </trkpt>
      <trkpt lat="46.41836" lon="5.60168">
        <ele>589.2</ele>
        <time>2022-07-29T10:00:15Z</time>
      </trkpt>
      <trkpt lat="46.41833" lon="5.60167">
        <ele>589.2</ele>
        <time>2022-07-29T10:00:16Z</time>
      </trkpt>
      <trkpt lat="46.4183" lon="5.60166">
        <ele>588.8</ele>
        <time>2022-07-29T10:00:17Z</time>
      </trkpt>
      <trkpt lat="46.41827" lon="5.60165">
        <ele>588.8</ele>
        <time>2022-07-29T10:00:18Z</time>
      </trkpt>
      <trkpt lat="46.41823" lon="5.60164">
        <ele>588.4</ele>
        <time>2022-07-29T10:00:19Z</time>
      </trkpt>
      <trkpt lat="46.4182" lon="5.60163">
        <ele>588.2</ele>
        <time>2022-07-29T10:00:20Z</time>
      </trkpt>
      <trkpt lat="46.41816" lon="5.60163">
        <ele>588</ele>
        <time>2022-07-29T10:00:21Z</time>
      </trkpt>
      <trkpt lat="46.41813" lon="5.60162">
        <ele>587.8</ele>
        <time>2022-07-29T10:00:22Z</time>
      </trkpt>
      <trkpt lat="46.4181" lon="5.60161">
        <ele>587.8</ele>
        <time>2022-07-29T10:00:23Z</time>
      </trkpt>
      <trkpt lat="46.41807" lon="5.6016">
        <ele>587.4</ele>
        <time>2022-07-29T10:00:24Z</time>
      </trkpt>
      <trkpt lat="46.41804" lon="5.60159">
        <ele>587.2</ele>
        <time>2022-07-29T10:00:25Z</time>
      </trkpt>
      <trkpt lat="46.41801" lon="5.60158">
        <ele>586.8</ele>
        <time>2022-07-29T10:00:26Z</time>
      </trkpt>
      <trkpt lat="46.41798" lon="5.60158">
        <ele>586.8</ele>
        <time>2022-07-29T10:00:27Z</time>
      </trkpt>
      <trkpt lat="46.41794" lon="5.60157">
        <ele>586.4</ele>
        <time>2022-07-29T10:00:28Z</time>
      </trkpt>
      <trkpt lat="46.41791" lon="5.60156">
        <ele>586.2</ele>
        <time>2022-07-29T10:00:29Z</time>
      </trkpt>
      <trkpt lat="46.41787" lon="5.60155">
        <ele>585.8</ele>
        <time>2022-07-29T10:00:30Z</time>
      </trkpt>
      <trkpt lat="46.41784" lon="5.60154">
        <ele>585.6</ele>
        <time>2022-07-29T10:00:31Z</time>
      </trkpt>
      <trkpt lat="46.4178" lon="5.60153">
        <ele>585.4</ele>
        <time>2022-07-29T10:00:32Z</time>
      </trkpt>
      <trkpt lat="46.41776" lon="5.60152">
        <ele>585.2</ele>
        <time>2022-07-29T10:00:33Z</time>
      </trkpt>
      <trkpt lat="46.41773" lon="5.60152">
        <ele>584.8</ele>
        <time>2022-07-29T10:00:34Z</time>
      </trkpt>
      <trkpt lat="46.41769" lon="5.60152">
        <ele>584.8</ele>
        <time>2022-07-29T10:00:35Z</time>
      </trkpt>
      <trkpt lat="46.41765" lon="5.60152">
        <ele>584.4</ele>
        <time>2022-07-29T10:00:36Z</time>
      </trkpt>
      <trkpt lat="46.41762" lon="5.60151">
        <ele>584.4</ele>
        <time>2022-07-29T10:00:37Z</time>
      </trkpt>
      <trkpt lat="46.41758" lon="5.60151">
        <ele>584.2</ele>
        <time>2022-07-29T10:00:38Z</time>
      </trkpt>
      <trkpt lat="46.41755" lon="5.6015">
        <ele>584.2</ele>
        <time>2022-07-29T10:00:39Z</time>
      </trkpt>
      <trkpt lat="46.41751" lon="5.60149">
        <ele>583.8</ele>
        <time>2022-07-29T10:00:40Z</time>
      </trkpt>
      <trkpt lat="46.41747" lon="5.60148">
        <ele>583.8</ele>
        <time>2022-07-29T10:00:41Z</time>
      </trkpt>
      <trkpt lat="46.41744" lon="5.60146">
        <ele>583.4</ele>
        <time>2022-07-29T10:00:42Z</time>
      </trkpt>
      <trkpt lat="46.41741" lon="5.60144">
        <ele>583.4</ele>
        <time>2022-07-29T10:00:43Z</time>
      </trkpt>
      <trkpt lat="46.41738" lon="5.60143">
        <ele>583.2</ele>
        <time>2022-07-29T10:00:44Z</time>
      </trkpt>
      <trkpt lat="46.41734" lon="5.60141">
        <ele>583.2</ele>
        <time>2022-07-29T10:00:45Z</time>
      </trkpt>
      <trkpt lat="46.41731" lon="5.60138">
        <ele>583</ele>
        <time>2022-07-29T10:00:46Z</time>
      </trkpt>
      <trkpt lat="46.41727" lon="5.60136">
        <ele>583</ele>
        <time>2022-07-29T10:00:47Z</time>
      </trkpt>
      <trkpt lat="46.41723" lon="5.60134">
        <ele>582.8</ele>
        <time>2022-07-29T10:00:48Z</time>
      </trkpt>
      <trkpt lat="46.4172" lon="5.60132">
        <ele>582.8</ele>
        <time>2022-07-29T10:00:49Z</time>
      </trkpt>
      <trkpt lat="46.41717" lon="5.6013">
        <ele>582.8</ele>
        <time>2022-07-29T10:00:50Z</time>
      </trkpt>
      <trkpt lat="46.41714" lon="5.60128">
        <ele>582.4</ele>
        <time>2022-07-29T10:00:51Z</time>
      </trkpt>
      <trkpt lat="46.41711" lon="5.60127">
        <ele>582.2</ele>
        <time>2022-07-29T10:00:52Z</time>
      </trkpt>
      <trkpt lat="46.41708" lon="5.60125">
        <ele>582.2</ele>
        <time>2022-07-29T10:00:53Z</time>
      </trkpt>
      <trkpt lat="46.41706" lon="5.60124">
        <ele>581.8</ele>
        <time>2022-07-29T10:00:54Z</time>
      </trkpt>
      <trkpt lat="46.41704" lon="5.60122">
        <ele>581.6</ele>
        <time>2022-07-29T10:00:55Z</time>
      </trkpt>
      <trkpt lat="46.41702" lon="5.60121">
        <ele>581.6</ele>
        <time>2022-07-29T10:00:56Z</time>
      </trkpt>
      <trkpt lat="46.417" lon="5.6012">
        <ele>581.2</ele>
        <time>2022-07-29T10:00:57Z</time>
      </trkpt>
      <trkpt lat="46.41698" lon="5.60118">
        <ele>581</ele>
        <time>2022-07-29T10:00:58Z</time>
      </trkpt>
      <trkpt lat="46.41696" lon="5.60117">
        <ele>580.8</ele>
        <time>2022-07-29T10:00:59Z</time>
      </trkpt>
      <trkpt lat="46.41693" lon="5.60115">
        <ele>580.6</ele>
        <time>2022-07-29T10:01:00Z</time>
      </trkpt>
      <trkpt lat="46.41691" lon="5.60114">
        <ele>580.2</ele>
        <time>2022-07-29T10:01:01Z</time>
      </trkpt>
      <trkpt lat="46.41688" lon="5.60113">
        <ele>580</ele>
        <time>2022-07-29T10:01:02Z</time>
      </trkpt>
      <trkpt lat="46.41686" lon="5.60112">
        <ele>579.8</ele>
        <time>2022-07-29T10:01:03Z</time>
      </trkpt>
      <trkpt lat="46.41683" lon="5.60111">
        <ele>579.8</ele>
        <time>2022-07-29T10:01:04Z</time>
      </trkpt>
      <trkpt lat="46.4168" lon="5.60109">
        <ele>579.4</ele>
        <time>2022-07-29T10:01:05Z</time>
      </trkpt>
      <trkpt lat="46.41677" lon="5.60108">
        <ele>579.4</ele>
        <time>2022-07-29T10:01:06Z</time>
      </trkpt>
      <trkpt lat="46.41673" lon="5.60107">
        <ele>579.2</ele>
        <time>2022-07-29T10:01:07Z</time>
      </trkpt>
      <trkpt lat="46.41673" lon="5.60107">
        <ele>579.2</ele>
        <time>2022-07-29T10:01:08Z</time>
      </trkpt>
      <trkpt lat="46.4167" lon="5.60106">
        <ele>579</ele>
        <time>2022-07-29T10:01:09Z</time>
      </trkpt>
      <trkpt lat="46.41667" lon="5.60105">
        <ele>579</ele>
        <time>2022-07-29T10:01:10Z</time>
      </trkpt>
      <trkpt lat="46.41664" lon="5.60105">
        <ele>578.6</ele>
        <time>2022-07-29T10:01:11Z</time>
      </trkpt>
      <trkpt lat="46.41662" lon="5.60104">
        <ele>578.6</ele>
        <time>2022-07-29T10:01:12Z</time>
      </trkpt>
      <trkpt lat="46.41659" lon="5.60103">
        <ele>578.2</ele>
        <time>2022-07-29T10:01:13Z</time>
      </trkpt>
      <trkpt lat="46.41656" lon="5.60102">
        <ele>578.2</ele>
        <time>2022-07-29T10:01:14Z</time>
      </trkpt>
      <trkpt lat="46.41653" lon="5.60101">
        <ele>577.8</ele>
        <time>2022-07-29T10:01:15Z</time>
      </trkpt>
      <trkpt lat="46.4165" lon="5.60101">
        <ele>577.8</ele>
        <time>2022-07-29T10:01:16Z</time>
      </trkpt>
      <trkpt lat="46.41648" lon="5.601">
        <ele>577.6</ele>
        <time>2022-07-29T10:01:17Z</time>
      </trkpt>
      <trkpt lat="46.41645" lon="5.601">
        <ele>577.6</ele>
        <time>2022-07-29T10:01:18Z</time>
      </trkpt>
      <trkpt lat="46.41642" lon="5.601">
        <ele>577.2</ele>
        <time>2022-07-29T10:01:19Z</time>
      </trkpt>
      <trkpt lat="46.41639" lon="5.60099">
        <ele>577</ele>
        <time>2022-07-29T10:01:20Z</time>
      </trkpt>
      <trkpt lat="46.41637" lon="5.60099">
        <ele>576.6</ele>
        <time>2022-07-29T10:01:21Z</time>
      </trkpt>
      <trkpt lat="46.41634" lon="5.60099">
        <ele>576.6</ele>
        <time>2022-07-29T10:01:22Z</time>
      </trkpt>
      <trkpt lat="46.41631" lon="5.60098">
        <ele>576.4</ele>
        <time>2022-07-29T10:01:23Z</time>
      </trkpt>
      <trkpt lat="46.41629" lon="5.60098">
        <ele>576.4</ele>
        <time>2022-07-29T10:01:24Z</time>
      </trkpt>
      <trkpt lat="46.41626" lon="5.60099">
        <ele>576</ele>
        <time>2022-07-29T10:01:25Z</time>
      </trkpt>
      <trkpt lat="46.41623" lon="5.60099">
        <ele>575.8</ele>
        <time>2022-07-29T10:01:26Z</time>
      </trkpt>
      <trkpt lat="46.4162" lon="5.60098">
        <ele>575.6</ele>
        <time>2022-07-29T10:01:27Z</time>
      </trkpt>
      <trkpt lat="46.41617" lon="5.60098">
        <ele>575.6</ele>
        <time>2022-07-29T10:01:28Z</time>
      </trkpt>
      <trkpt lat="46.41614" lon="5.60098">
        <ele>575.2</ele>
        <time>2022-07-29T10:01:29Z</time>
      </trkpt>
      <trkpt lat="46.41612" lon="5.60098">
        <ele>575.2</ele>
        <time>2022-07-29T10:01:30Z</time>
      </trkpt>
      <trkpt lat="46.41609" lon="5.60097">
        <ele>575</ele>
        <time>2022-07-29T10:01:31Z</time>
      </trkpt>
      <trkpt lat="46.41606" lon="5.60097">
        <ele>575</ele>
        <time>2022-07-29T10:01:32Z</time>
      </trkpt>
      <trkpt lat="46.41604" lon="5.60097">
        <ele>574.6</ele>
        <time>2022-07-29T10:01:33Z</time>
      </trkpt>
      <trkpt lat="46.416" lon="5.60096">
        <ele>574.6</ele>
        <time>2022-07-29T10:01:34Z</time>
      </trkpt>
      <trkpt lat="46.41597" lon="5.60095">
        <ele>574.2</ele>
        <time>2022-07-29T10:01:35Z</time>
      </trkpt>
      <trkpt lat="46.41594" lon="5.60093">
        <ele>574.2</ele>
        <time>2022-07-29T10:01:36Z</time>
      </trkpt>
      <trkpt lat="46.41592" lon="5.60091">
        <ele>573.8</ele>
        <time>2022-07-29T10:01:37Z</time>
      </trkpt>
      <trkpt lat="46.41589" lon="5.60089">
        <ele>573.8</ele>
        <time>2022-07-29T10:01:38Z</time>
      </trkpt>
      <trkpt lat="46.41587" lon="5.60087">
        <ele>573.4</ele>
        <time>2022-07-29T10:01:39Z</time>
      </trkpt>
      <trkpt lat="46.41585" lon="5.60085">
        <ele>573.4</ele>
        <time>2022-07-29T10:01:40Z</time>
      </trkpt>
      <trkpt lat="46.41582" lon="5.60084">
        <ele>573</ele>
        <time>2022-07-29T10:01:41Z</time>
      </trkpt>
      <trkpt lat="46.41581" lon="5.60081">
        <ele>573</ele>
        <time>2022-07-29T10:01:42Z</time>
      </trkpt>
      <trkpt lat="46.41579" lon="5.60079">
        <ele>572.8</ele>
        <time>2022-07-29T10:01:43Z</time>
      </trkpt>
      <trkpt lat="46.41578" lon="5.60078">
        <ele>572.4</ele>
        <time>2022-07-29T10:01:44Z</time>
      </trkpt>
      <trkpt lat="46.41576" lon="5.60076">
        <ele>572.2</ele>
        <time>2022-07-29T10:01:45Z</time>
      </trkpt>
      <trkpt lat="46.41575" lon="5.60074">
        <ele>572.2</ele>
        <time>2022-07-29T10:01:46Z</time>
      </trkpt>
      <trkpt lat="46.41573" lon="5.60072">
        <ele>571.8</ele>
        <time>2022-07-29T10:01:47Z</time>
      </trkpt>
      <trkpt lat="46.41571" lon="5.6007">
        <ele>571.6</ele>
        <time>2022-07-29T10:01:48Z</time>
      </trkpt>
      <trkpt lat="46.41569" lon="5.60067">
        <ele>571.6</ele>
        <time>2022-07-29T10:01:49Z</time>
      </trkpt>
      <trkpt lat="46.41567" lon="5.60064">
        <ele>571.2</ele>
        <time>2022-07-29T10:01:50Z</time>
      </trkpt>
      <trkpt lat="46.41564" lon="5.60062">
        <ele>571.2</ele>
        <time>2022-07-29T10:01:51Z</time>
      </trkpt>
      <trkpt lat="46.41562" lon="5.60059">
        <ele>570.8</ele>
        <time>2022-07-29T10:01:52Z</time>
      </trkpt>
      <trkpt lat="46.4156" lon="5.60057">
        <ele>570.6</ele>
        <time>2022-07-29T10:01:53Z</time>
      </trkpt>
      <trkpt lat="46.41558" lon="5.60054">
        <ele>570.6</ele>
        <time>2022-07-29T10:01:54Z</time>
      </trkpt>
      <trkpt lat="46.41556" lon="5.60052">
        <ele>570.2</ele>
        <time>2022-07-29T10:01:55Z</time>
      </trkpt>
      <trkpt lat="46.41554" lon="5.60049">
        <ele>570</ele>
        <time>2022-07-29T10:01:56Z</time>
      </trkpt>
      <trkpt lat="46.41552" lon="5.60046">
        <ele>569.8</ele>
        <time>2022-07-29T10:01:57Z</time>
      </trkpt>
      <trkpt lat="46.4155" lon="5.60043">
        <ele>569.6</ele>
        <time>2022-07-29T10:01:58Z</time>
      </trkpt>
      <trkpt lat="46.41549" lon="5.60041">
        <ele>569.4</ele>
        <time>2022-07-29T10:01:59Z</time>
      </trkpt>
      <trkpt lat="46.41547" lon="5.60037">
        <ele>569</ele>
        <time>2022-07-29T10:02:00Z</time>
      </trkpt>
      <trkpt lat="46.41545" lon="5.60035">
        <ele>568.8</ele>
        <time>2022-07-29T10:02:01Z</time>
      </trkpt>
      <trkpt lat="46.41543" lon="5.60032">
        <ele>568.6</ele>
        <time>2022-07-29T10:02:02Z</time>
      </trkpt>
      <trkpt lat="46.4154" lon="5.60028">
        <ele>568.4</ele>
        <time>2022-07-29T10:02:03Z</time>
      </trkpt>
      <trkpt lat="46.41538" lon="5.60025">
        <ele>568.2</ele>
        <time>2022-07-29T10:02:04Z</time>
      </trkpt>
      <trkpt lat="46.41536" lon="5.60022">
        <ele>568</ele>
        <time>2022-07-29T10:02:05Z</time>
      </trkpt>
      <trkpt lat="46.41534" lon="5.60018">
        <ele>567.6</ele>
        <time>2022-07-29T10:02:06Z</time>
      </trkpt>
      <trkpt lat="46.41532" lon="5.60015">
        <ele>567.4</ele>
        <time>2022-07-29T10:02:07Z</time>
      </trkpt>
      <trkpt lat="46.4153" lon="5.60011">
        <ele>567.2</ele>
        <time>2022-07-29T10:02:08Z</time>
      </trkpt>
      <trkpt lat="46.41528" lon="5.60007">
        <ele>567</ele>
        <time>2022-07-29T10:02:09Z</time>
      </trkpt>
      <trkpt lat="46.41525" lon="5.60002">
        <ele>566.6</ele>
        <time>2022-07-29T10:02:10Z</time>
      </trkpt>
      <trkpt lat="46.41523" lon="5.59998">
        <ele>566.4</ele>
        <time>2022-07-29T10:02:11Z</time>
      </trkpt>
      <trkpt lat="46.41522" lon="5.59994">
        <ele>566.2</ele>
        <time>2022-07-29T10:02:12Z</time>
      </trkpt>
      <trkpt lat="46.4152" lon="5.5999">
        <ele>566</ele>
        <time>2022-07-29T10:02:13Z</time>
      </trkpt>
      <trkpt lat="46.41518" lon="5.59987">
        <ele>565.6</ele>
        <time>2022-07-29T10:02:14Z</time>
      </trkpt>
      <trkpt lat="46.41517" lon="5.59984">
        <ele>565.4</ele>
        <time>2022-07-29T10:02:15Z</time>
      </trkpt>
      <trkpt lat="46.41515" lon="5.59979">
        <ele>565.2</ele>
        <time>2022-07-29T10:02:16Z</time>
      </trkpt>
      <trkpt lat="46.41514" lon="5.59975">
        <ele>565</ele>
        <time>2022-07-29T10:02:17Z</time>
      </trkpt>
      <trkpt lat="46.41512" lon="5.59971">
        <ele>564.6</ele>
        <time>2022-07-29T10:02:18Z</time>
      </trkpt>
      <trkpt lat="46.41511" lon="5.59967">
        <ele>564.4</ele>
        <time>2022-07-29T10:02:19Z</time>
      </trkpt>
      <trkpt lat="46.41509" lon="5.59962">
        <ele>564.2</ele>
        <time>2022-07-29T10:02:20Z</time>
      </trkpt>
      <trkpt lat="46.41508" lon="5.59959">
        <ele>564.2</ele>
        <time>2022-07-29T10:02:21Z</time>
      </trkpt>
      <trkpt lat="46.41507" lon="5.59954">
        <ele>563.8</ele>
        <time>2022-07-29T10:02:22Z</time>
      </trkpt>
      <trkpt lat="46.41505" lon="5.5995">
        <ele>563.6</ele>
        <time>2022-07-29T10:02:23Z</time>
      </trkpt>
      <trkpt lat="46.41504" lon="5.59946">
        <ele>563.4</ele>
        <time>2022-07-29T10:02:24Z</time>
      </trkpt>
      <trkpt lat="46.41502" lon="5.5994">
        <ele>563.4</ele>
        <time>2022-07-29T10:02:25Z</time>
      </trkpt>
      <trkpt lat="46.41501" lon="5.59936">
        <ele>563</ele>
        <time>2022-07-29T10:02:26Z</time>
      </trkpt>
      <trkpt lat="46.415" lon="5.59931">
        <ele>562.6</ele>
        <time>2022-07-29T10:02:27Z</time>
      </trkpt>
      <trkpt lat="46.41499" lon="5.59926">
        <ele>562.6</ele>
        <time>2022-07-29T10:02:28Z</time>
      </trkpt>
      <trkpt lat="46.41497" lon="5.59921">
        <ele>562.4</ele>
        <time>2022-07-29T10:02:29Z</time>
      </trkpt>
      <trkpt lat="46.41495" lon="5.59915">
        <ele>562.4</ele>
        <time>2022-07-29T10:02:30Z</time>
      </trkpt>
      <trkpt lat="46.41494" lon="5.59909">
        <ele>562</ele>
        <time>2022-07-29T10:02:31Z</time>
      </trkpt>
      <trkpt lat="46.41492" lon="5.59903">
        <ele>561.6</ele>
        <time>2022-07-29T10:02:32Z</time>
      </trkpt>
      <trkpt lat="46.41491" lon="5.59898">
        <ele>561.4</ele>
        <time>2022-07-29T10:02:33Z</time>
      </trkpt>
      <trkpt lat="46.41489" lon="5.59892">
        <ele>561</ele>
        <time>2022-07-29T10:02:34Z</time>
      </trkpt>
      <trkpt lat="46.41488" lon="5.59887">
        <ele>561</ele>
        <time>2022-07-29T10:02:35Z</time>
      </trkpt>
      <trkpt lat="46.41487" lon="5.59883">
        <ele>560.6</ele>
        <time>2022-07-29T10:02:36Z</time>
      </trkpt>
      <trkpt lat="46.41486" lon="5.59878">
        <ele>560.4</ele>
        <time>2022-07-29T10:02:37Z</time>
      </trkpt>
      <trkpt lat="46.41485" lon="5.59874">
        <ele>560.2</ele>
        <time>2022-07-29T10:02:38Z</time>
      </trkpt>
      <trkpt lat="46.41483" lon="5.59869">
        <ele>560.2</ele>
        <time>2022-07-29T10:02:39Z</time>
      </trkpt>
      <trkpt lat="46.41482" lon="5.59864">
        <ele>559.6</ele>
        <time>2022-07-29T10:02:40Z</time>
      </trkpt>
      <trkpt lat="46.41481" lon="5.59859">
        <ele>559.4</ele>
        <time>2022-07-29T10:02:41Z</time>
      </trkpt>
      <trkpt lat="46.41479" lon="5.59855">
        <ele>559.2</ele>
        <time>2022-07-29T10:02:42Z</time>
      </trkpt>
      <trkpt lat="46.41478" lon="5.59851">
        <ele>559</ele>
        <time>2022-07-29T10:02:43Z</time>
      </trkpt>
      <trkpt lat="46.41477" lon="5.59847">
        <ele>558.6</ele>
        <time>2022-07-29T10:02:44Z</time>
      </trkpt>
      <trkpt lat="46.41476" lon="5.59844">
        <ele>558.4</ele>
        <time>2022-07-29T10:02:45Z</time>
      </trkpt>
      <trkpt lat="46.41474" lon="5.5984">
        <ele>558</ele>
        <time>2022-07-29T10:02:46Z</time>
      </trkpt>
      <trkpt lat="46.41473" lon="5.59837">
        <ele>557.6</ele>
        <time>2022-07-29T10:02:47Z</time>
      </trkpt>
      <trkpt lat="46.41471" lon="5.59832">
        <ele>557.2</ele>
        <time>2022-07-29T10:02:48Z</time>
      </trkpt>
      <trkpt lat="46.41468" lon="5.59828">
        <ele>556.8</ele>
        <time>2022-07-29T10:02:49Z</time>
      </trkpt>
      <trkpt lat="46.41464" lon="5.59824">
        <ele>556.6</ele>
        <time>2022-07-29T10:02:50Z</time>
      </trkpt>
      <trkpt lat="46.4146" lon="5.5982">
        <ele>556.2</ele>
        <time>2022-07-29T10:02:51Z</time>
      </trkpt>
      <trkpt lat="46.41456" lon="5.59816">
        <ele>556</ele>
        <time>2022-07-29T10:02:52Z</time>
      </trkpt>
      <trkpt lat="46.41452" lon="5.59812">
        <ele>555.6</ele>
        <time>2022-07-29T10:02:53Z</time>
      </trkpt>
      <trkpt lat="46.41448" lon="5.59809">
        <ele>555.4</ele>
        <time>2022-07-29T10:02:54Z</time>
      </trkpt>
      <trkpt lat="46.41446" lon="5.59805">
        <ele>555</ele>
        <time>2022-07-29T10:02:55Z</time>
      </trkpt>
      <trkpt lat="46.41445" lon="5.598">
        <ele>554.6</ele>
        <time>2022-07-29T10:02:56Z</time>
      </trkpt>
      <trkpt lat="46.41444" lon="5.59794">
        <ele>554.4</ele>
        <time>2022-07-29T10:02:57Z</time>
      </trkpt>
      <trkpt lat="46.41445" lon="5.59789">
        <ele>554</ele>
        <time>2022-07-29T10:02:58Z</time>
      </trkpt>
      <trkpt lat="46.41448" lon="5.59785">
        <ele>553.6</ele>
        <time>2022-07-29T10:02:59Z</time>
      </trkpt>
      <trkpt lat="46.41451" lon="5.59783">
        <ele>553.4</ele>
        <time>2022-07-29T10:03:00Z</time>
      </trkpt>
      <trkpt lat="46.41454" lon="5.59783">
        <ele>553</ele>
        <time>2022-07-29T10:03:01Z</time>
      </trkpt>
      <trkpt lat="46.41458" lon="5.59784">
        <ele>552.8</ele>
        <time>2022-07-29T10:03:02Z</time>
      </trkpt>
      <trkpt lat="46.4146" lon="5.59786">
        <ele>552.6</ele>
        <time>2022-07-29T10:03:03Z</time>
      </trkpt>
      <trkpt lat="46.41462" lon="5.59787">
        <ele>552.4</ele>
        <time>2022-07-29T10:03:04Z</time>
      </trkpt>
      <trkpt lat="46.41464" lon="5.59788">
        <ele>552.2</ele>
        <time>2022-07-29T10:03:05Z</time>
      </trkpt>
      <trkpt lat="46.41466" lon="5.5979">
        <ele>552.2</ele>
        <time>2022-07-29T10:03:06Z</time>
      </trkpt>
      <trkpt lat="46.41468" lon="5.59792">
        <ele>551.8</ele>
        <time>2022-07-29T10:03:07Z</time>
      </trkpt>
      <trkpt lat="46.41471" lon="5.59793">
        <ele>551.8</ele>
        <time>2022-07-29T10:03:08Z</time>
      </trkpt>
      <trkpt lat="46.41473" lon="5.59795">
        <ele>551.4</ele>
        <time>2022-07-29T10:03:09Z</time>
      </trkpt>
      <trkpt lat="46.41475" lon="5.59797">
        <ele>551.4</ele>
        <time>2022-07-29T10:03:10Z</time>
      </trkpt>
      <trkpt lat="46.41477" lon="5.598">
        <ele>551</ele>
        <time>2022-07-29T10:03:11Z</time>
      </trkpt>
      <trkpt lat="46.4148" lon="5.59803">
        <ele>550.8</ele>
        <time>2022-07-29T10:03:12Z</time>
      </trkpt>
      <trkpt lat="46.41482" lon="5.59806">
        <ele>550.8</ele>
        <time>2022-07-29T10:03:13Z</time>
      </trkpt>
      <trkpt lat="46.41484" lon="5.59809">
        <ele>550.6</ele>
        <time>2022-07-29T10:03:14Z</time>
      </trkpt>
      <trkpt lat="46.41486" lon="5.59812">
        <ele>550.4</ele>
        <time>2022-07-29T10:03:15Z</time>
      </trkpt>
      <trkpt lat="46.41488" lon="5.59816">
        <ele>550.4</ele>
        <time>2022-07-29T10:03:16Z</time>
      </trkpt>
      <trkpt lat="46.41489" lon="5.59819">
        <ele>550</ele>
        <time>2022-07-29T10:03:17Z</time>
      </trkpt>
      <trkpt lat="46.41491" lon="5.59822">
        <ele>550</ele>
        <time>2022-07-29T10:03:18Z</time>
      </trkpt>
      <trkpt lat="46.41492" lon="5.59826">
        <ele>549.6</ele>
        <time>2022-07-29T10:03:19Z</time>
      </trkpt>
      <trkpt lat="46.41493" lon="5.59829">
        <ele>549.4</ele>
        <time>2022-07-29T10:03:20Z</time>
      </trkpt>
      <trkpt lat="46.41495" lon="5.59834">
        <ele>549.2</ele>
        <time>2022-07-29T10:03:21Z</time>
      </trkpt>
      <trkpt lat="46.41496" lon="5.59838">
        <ele>548.8</ele>
        <time>2022-07-29T10:03:22Z</time>
      </trkpt>
      <trkpt lat="46.41498" lon="5.59843">
        <ele>548.6</ele>
        <time>2022-07-29T10:03:23Z</time>
      </trkpt>
      <trkpt lat="46.415" lon="5.59847">
        <ele>548.4</ele>
        <time>2022-07-29T10:03:24Z</time>
      </trkpt>
      <trkpt lat="46.41502" lon="5.59852">
        <ele>548.2</ele>
        <time>2022-07-29T10:03:25Z</time>
      </trkpt>
      <trkpt lat="46.41504" lon="5.59856">
        <ele>548</ele>
        <time>2022-07-29T10:03:26Z</time>
      </trkpt>
      <trkpt lat="46.41505" lon="5.59861">
        <ele>548</ele>
        <time>2022-07-29T10:03:27Z</time>
      </trkpt>
      <trkpt lat="46.41507" lon="5.59864">
        <ele>547.6</ele>
        <time>2022-07-29T10:03:28Z</time>
      </trkpt>
      <trkpt lat="46.41509" lon="5.59868">
        <ele>547.4</ele>
        <time>2022-07-29T10:03:29Z</time>
      </trkpt>
      <trkpt lat="46.4151" lon="5.59871">
        <ele>547.4</ele>
        <time>2022-07-29T10:03:30Z</time>
      </trkpt>
      <trkpt lat="46.41512" lon="5.59874">
        <ele>547</ele>
        <time>2022-07-29T10:03:31Z</time>
      </trkpt>
      <trkpt lat="46.41514" lon="5.59878">
        <ele>546.8</ele>
        <time>2022-07-29T10:03:32Z</time>
      </trkpt>
      <trkpt lat="46.41516" lon="5.59881">
        <ele>546.6</ele>
        <time>2022-07-29T10:03:33Z</time>
      </trkpt>
      <trkpt lat="46.41518" lon="5.59885">
        <ele>546.2</ele>
        <time>2022-07-29T10:03:34Z</time>
      </trkpt>
      <trkpt lat="46.41521" lon="5.59889">
        <ele>546</ele>
        <time>2022-07-29T10:03:35Z</time>
      </trkpt>
      <trkpt lat="46.41523" lon="5.59892">
        <ele>545.6</ele>
        <time>2022-07-29T10:03:36Z</time>
      </trkpt>
      <trkpt lat="46.41526" lon="5.59896">
        <ele>545.4</ele>
        <time>2022-07-29T10:03:37Z</time>
      </trkpt>
      <trkpt lat="46.41528" lon="5.599">
        <ele>545.2</ele>
        <time>2022-07-29T10:03:38Z</time>
      </trkpt>
      <trkpt lat="46.4153" lon="5.59903">
        <ele>545</ele>
        <time>2022-07-29T10:03:39Z</time>
      </trkpt>
      <trkpt lat="46.41532" lon="5.59906">
        <ele>544.6</ele>
        <time>2022-07-29T10:03:40Z</time>
      </trkpt>
      <trkpt lat="46.41535" lon="5.59909">
        <ele>544.4</ele>
        <time>2022-07-29T10:03:41Z</time>
      </trkpt>
      <trkpt lat="46.41537" lon="5.59912">
        <ele>544.2</ele>
        <time>2022-07-29T10:03:42Z</time>
      </trkpt>
      <trkpt lat="46.41541" lon="5.59915">
        <ele>544</ele>
        <time>2022-07-29T10:03:43Z</time>
      </trkpt>
      <trkpt lat="46.41543" lon="5.59919">
        <ele>543.8</ele>
        <time>2022-07-29T10:03:44Z</time>
      </trkpt>
      <trkpt lat="46.41546" lon="5.59922">
        <ele>543.6</ele>
        <time>2022-07-29T10:03:45Z</time>
      </trkpt>
      <trkpt lat="46.41549" lon="5.59925">
        <ele>543.2</ele>
        <time>2022-07-29T10:03:46Z</time>
      </trkpt>
      <trkpt lat="46.41552" lon="5.59928">
        <ele>543.2</ele>
        <time>2022-07-29T10:03:47Z</time>
      </trkpt>
      <trkpt lat="46.41554" lon="5.5993">
        <ele>542.8</ele>
        <time>2022-07-29T10:03:48Z</time>
      </trkpt>
      <trkpt lat="46.41557" lon="5.59933">
        <ele>542.6</ele>
        <time>2022-07-29T10:03:49Z</time>
      </trkpt>
      <trkpt lat="46.4156" lon="5.59936">
        <ele>542.4</ele>
        <time>2022-07-29T10:03:50Z</time>
      </trkpt>
      <trkpt lat="46.41563" lon="5.59938">
        <ele>542.2</ele>
        <time>2022-07-29T10:03:51Z</time>
      </trkpt>
      <trkpt lat="46.41565" lon="5.59941">
        <ele>541.8</ele>
        <time>2022-07-29T10:03:52Z</time>
      </trkpt>
      <trkpt lat="46.41568" lon="5.59943">
        <ele>541.6</ele>
        <time>2022-07-29T10:03:53Z</time>
      </trkpt>
      <trkpt lat="46.4157" lon="5.59945">
        <ele>541.2</ele>
        <time>2022-07-29T10:03:54Z</time>
      </trkpt>
      <trkpt lat="46.41573" lon="5.59948">
        <ele>541</ele>
        <time>2022-07-29T10:03:55Z</time>
      </trkpt>
      <trkpt lat="46.41576" lon="5.59951">
        <ele>541</ele>
        <time>2022-07-29T10:03:56Z</time>
      </trkpt>
      <trkpt lat="46.41578" lon="5.59954">
        <ele>540.6</ele>
        <time>2022-07-29T10:03:57Z</time>
      </trkpt>
      <trkpt lat="46.41581" lon="5.59956">
        <ele>540.4</ele>
        <time>2022-07-29T10:03:58Z</time>
      </trkpt>
      <trkpt lat="46.41583" lon="5.59959">
        <ele>540</ele>
        <time>2022-07-29T10:03:59Z</time>
      </trkpt>
      <trkpt lat="46.41586" lon="5.59961">
        <ele>539.8</ele>
        <time>2022-07-29T10:04:00Z</time>
      </trkpt>
      <trkpt lat="46.41588" lon="5.59964">
        <ele>539.6</ele>
        <time>2022-07-29T10:04:01Z</time>
      </trkpt>
      <trkpt lat="46.41591" lon="5.59968">
        <ele>539.2</ele>
        <time>2022-07-29T10:04:02Z</time>
      </trkpt>
      <trkpt lat="46.41593" lon="5.59971">
        <ele>539</ele>
        <time>2022-07-29T10:04:03Z</time>
      </trkpt>
      <trkpt lat="46.41594" lon="5.59973">
        <ele>538.8</ele>
        <time>2022-07-29T10:04:04Z</time>
      </trkpt>
      <trkpt lat="46.41596" lon="5.59976">
        <ele>538.6</ele>
        <time>2022-07-29T10:04:05Z</time>
      </trkpt>
      <trkpt lat="46.41599" lon="5.59977">
        <ele>538.2</ele>
        <time>2022-07-29T10:04:06Z</time>
      </trkpt>
      <trkpt lat="46.41601" lon="5.59979">
        <ele>538</ele>
        <time>2022-07-29T10:04:07Z</time>
      </trkpt>
      <trkpt lat="46.41603" lon="5.5998">
        <ele>537.8</ele>
        <time>2022-07-29T10:04:08Z</time>
      </trkpt>
      <trkpt lat="46.41605" lon="5.5998">
        <ele>537.8</ele>
        <time>2022-07-29T10:04:09Z</time>
      </trkpt>
      <trkpt lat="46.41607" lon="5.5998">
        <ele>537.2</ele>
        <time>2022-07-29T10:04:10Z</time>
      </trkpt>
      <trkpt lat="46.4161" lon="5.5998">
        <ele>537</ele>
        <time>2022-07-29T10:04:11Z</time>
      </trkpt>
      <trkpt lat="46.41612" lon="5.59979">
        <ele>537</ele>
        <time>2022-07-29T10:04:12Z</time>
      </trkpt>
      <trkpt lat="46.41615" lon="5.59978">
        <ele>536.6</ele>
        <time>2022-07-29T10:04:13Z</time>
      </trkpt>
      <trkpt lat="46.41618" lon="5.59976">
        <ele>536.4</ele>
        <time>2022-07-29T10:04:14Z</time>
      </trkpt>
      <trkpt lat="46.4162" lon="5.59975">
        <ele>536.4</ele>
        <time>2022-07-29T10:04:15Z</time>
      </trkpt>
      <trkpt lat="46.41623" lon="5.59973">
        <ele>536</ele>
        <time>2022-07-29T10:04:16Z</time>
      </trkpt>
      <trkpt lat="46.41626" lon="5.59971">
        <ele>535.6</ele>
        <time>2022-07-29T10:04:17Z</time>
      </trkpt>
      <trkpt lat="46.4163" lon="5.5997">
        <ele>535.4</ele>
        <time>2022-07-29T10:04:18Z</time>
      </trkpt>
      <trkpt lat="46.41633" lon="5.59968">
        <ele>535.2</ele>
        <time>2022-07-29T10:04:19Z</time>
      </trkpt>
      <trkpt lat="46.41636" lon="5.59966">
        <ele>534.8</ele>
        <time>2022-07-29T10:04:20Z</time>
      </trkpt>
      <trkpt lat="46.41639" lon="5.59965">
        <ele>534.6</ele>
        <time>2022-07-29T10:04:21Z</time>
      </trkpt>
      <trkpt lat="46.41641" lon="5.59963">
        <ele>534.4</ele>
        <time>2022-07-29T10:04:22Z</time>
      </trkpt>
      <trkpt lat="46.41644" lon="5.59962">
        <ele>534.2</ele>
        <time>2022-07-29T10:04:23Z</time>
      </trkpt>
      <trkpt lat="46.41646" lon="5.59961">
        <ele>533.8</ele>
        <time>2022-07-29T10:04:24Z</time>
      </trkpt>
      <trkpt lat="46.41648" lon="5.59959">
        <ele>533.6</ele>
        <time>2022-07-29T10:04:25Z</time>
      </trkpt>
      <trkpt lat="46.41649" lon="5.59958">
        <ele>533.4</ele>
        <time>2022-07-29T10:04:26Z</time>
      </trkpt>
      <trkpt lat="46.41651" lon="5.59956">
        <ele>533.4</ele>
        <time>2022-07-29T10:04:27Z</time>
      </trkpt>
      <trkpt lat="46.41654" lon="5.59955">
        <ele>533</ele>
        <time>2022-07-29T10:04:28Z</time>
      </trkpt>
      <trkpt lat="46.41656" lon="5.59953">
        <ele>533</ele>
        <time>2022-07-29T10:04:29Z</time>
      </trkpt>
      <trkpt lat="46.41659" lon="5.59952">
        <ele>532.6</ele>
        <time>2022-07-29T10:04:30Z</time>
      </trkpt>
      <trkpt lat="46.41663" lon="5.59951">
        <ele>532.4</ele>
        <time>2022-07-29T10:04:31Z</time>
      </trkpt>
      <trkpt lat="46.41666" lon="5.5995">
        <ele>532</ele>
        <time>2022-07-29T10:04:32Z</time>
      </trkpt>
      <trkpt lat="46.41668" lon="5.5995">
        <ele>531.8</ele>
        <time>2022-07-29T10:04:33Z</time>
      </trkpt>
      <trkpt lat="46.4167" lon="5.59949">
        <ele>531.8</ele>
        <time>2022-07-29T10:04:34Z</time>
      </trkpt>
      <trkpt lat="46.41673" lon="5.59949">
        <ele>531.4</ele>
        <time>2022-07-29T10:04:35Z</time>
      </trkpt>
      <trkpt lat="46.41675" lon="5.59948">
        <ele>531.2</ele>
        <time>2022-07-29T10:04:36Z</time>
      </trkpt>
      <trkpt lat="46.41678" lon="5.59948">
        <ele>531</ele>
        <time>2022-07-29T10:04:37Z</time>
      </trkpt>
      <trkpt lat="46.4168" lon="5.59947">
        <ele>531</ele>
        <time>2022-07-29T10:04:38Z</time>
      </trkpt>
      <trkpt lat="46.41683" lon="5.59947">
        <ele>530.6</ele>
        <time>2022-07-29T10:04:39Z</time>
      </trkpt>
      <trkpt lat="46.41684" lon="5.59946">
        <ele>530.2</ele>
        <time>2022-07-29T10:04:40Z</time>
      </trkpt>
      <trkpt lat="46.41686" lon="5.59946">
        <ele>530</ele>
        <time>2022-07-29T10:04:41Z</time>
      </trkpt>
      <trkpt lat="46.41688" lon="5.59946">
        <ele>529.6</ele>
        <time>2022-07-29T10:04:42Z</time>
      </trkpt>
      <trkpt lat="46.4169" lon="5.59946">
        <ele>529.4</ele>
        <time>2022-07-29T10:04:43Z</time>
      </trkpt>
      <trkpt lat="46.41692" lon="5.59946">
        <ele>529.2</ele>
        <time>2022-07-29T10:04:44Z</time>
      </trkpt>
      <trkpt lat="46.41693" lon="5.59946">
        <ele>529.2</ele>
        <time>2022-07-29T10:04:45Z</time>
      </trkpt>
      <trkpt lat="46.41695" lon="5.59946">
        <ele>528.6</ele>
        <time>2022-07-29T10:04:46Z</time>
      </trkpt>
      <trkpt lat="46.41697" lon="5.59946">
        <ele>528.4</ele>
        <time>2022-07-29T10:04:47Z</time>
      </trkpt>
      <trkpt lat="46.417" lon="5.59945">
        <ele>528.2</ele>
        <time>2022-07-29T10:04:48Z</time>
      </trkpt>
      <trkpt lat="46.41702" lon="5.59944">
        <ele>528</ele>
        <time>2022-07-29T10:04:49Z</time>
      </trkpt>
      <trkpt lat="46.41705" lon="5.59944">
        <ele>527.8</ele>
        <time>2022-07-29T10:04:50Z</time>
      </trkpt>
      <trkpt lat="46.41707" lon="5.59943">
        <ele>527.6</ele>
        <time>2022-07-29T10:04:51Z</time>
      </trkpt>
      <trkpt lat="46.4171" lon="5.59943">
        <ele>527.4</ele>
        <time>2022-07-29T10:04:52Z</time>
      </trkpt>
      <trkpt lat="46.41712" lon="5.59943">
        <ele>527.2</ele>
        <time>2022-07-29T10:04:53Z</time>
      </trkpt>
      <trkpt lat="46.41714" lon="5.59943">
        <ele>527.2</ele>
        <time>2022-07-29T10:04:54Z</time>
      </trkpt>
      <trkpt lat="46.41716" lon="5.59942">
        <ele>526.8</ele>
        <time>2022-07-29T10:04:55Z</time>
      </trkpt>
      <trkpt lat="46.41719" lon="5.59942">
        <ele>526.6</ele>
        <time>2022-07-29T10:04:56Z</time>
      </trkpt>
      <trkpt lat="46.41722" lon="5.59942">
        <ele>526.4</ele>
        <time>2022-07-29T10:04:57Z</time>
      </trkpt>
      <trkpt lat="46.41725" lon="5.59942">
        <ele>526.4</ele>
        <time>2022-07-29T10:04:58Z</time>
      </trkpt>
      <trkpt lat="46.41728" lon="5.59944">
        <ele>526</ele>
        <time>2022-07-29T10:04:59Z</time>
      </trkpt>
      <trkpt lat="46.4173" lon="5.59945">
        <ele>525.8</ele>
        <time>2022-07-29T10:05:00Z</time>
      </trkpt>
      <trkpt lat="46.41733" lon="5.59947">
        <ele>525.4</ele>
        <time>2022-07-29T10:05:01Z</time>
      </trkpt>
      <trkpt lat="46.41736" lon="5.59948">
        <ele>525.2</ele>
        <time>2022-07-29T10:05:02Z</time>
      </trkpt>
      <trkpt lat="46.41738" lon="5.5995">
        <ele>525</ele>
        <time>2022-07-29T10:05:03Z</time>
      </trkpt>
      <trkpt lat="46.4174" lon="5.59952">
        <ele>524.6</ele>
        <time>2022-07-29T10:05:04Z</time>
      </trkpt>
      <trkpt lat="46.41742" lon="5.59954">
        <ele>524.4</ele>
        <time>2022-07-29T10:05:05Z</time>
      </trkpt>
      <trkpt lat="46.41744" lon="5.59956">
        <ele>524.2</ele>
        <time>2022-07-29T10:05:06Z</time>
      </trkpt>
      <trkpt lat="46.41746" lon="5.59958">
        <ele>523.8</ele>
        <time>2022-07-29T10:05:07Z</time>
      </trkpt>
      <trkpt lat="46.41748" lon="5.5996">
        <ele>523.6</ele>
        <time>2022-07-29T10:05:08Z</time>
      </trkpt>
      <trkpt lat="46.41751" lon="5.59963">
        <ele>523.4</ele>
        <time>2022-07-29T10:05:09Z</time>
      </trkpt>
      <trkpt lat="46.41754" lon="5.59964">
        <ele>523.2</ele>
        <time>2022-07-29T10:05:10Z</time>
      </trkpt>
      <trkpt lat="46.41757" lon="5.59964">
        <ele>522.8</ele>
        <time>2022-07-29T10:05:11Z</time>
      </trkpt>
      <trkpt lat="46.4176" lon="5.59964">
        <ele>522.6</ele>
        <time>2022-07-29T10:05:12Z</time>
      </trkpt>
      <trkpt lat="46.41763" lon="5.59964">
        <ele>522.2</ele>
        <time>2022-07-29T10:05:13Z</time>
      </trkpt>
      <trkpt lat="46.41766" lon="5.59963">
        <ele>522</ele>
        <time>2022-07-29T10:05:14Z</time>
      </trkpt>
      <trkpt lat="46.41769" lon="5.59961">
        <ele>521.8</ele>
        <time>2022-07-29T10:05:15Z</time>
      </trkpt>
      <trkpt lat="46.41772" lon="5.59959">
        <ele>521.8</ele>
        <time>2022-07-29T10:05:16Z</time>
      </trkpt>
      <trkpt lat="46.41775" lon="5.59957">
        <ele>521.4</ele>
        <time>2022-07-29T10:05:17Z</time>
      </trkpt>
      <trkpt lat="46.41779" lon="5.59954">
        <ele>521</ele>
        <time>2022-07-29T10:05:18Z</time>
      </trkpt>
      <trkpt lat="46.41782" lon="5.59951">
        <ele>520.8</ele>
        <time>2022-07-29T10:05:19Z</time>
      </trkpt>
      <trkpt lat="46.41785" lon="5.59948">
        <ele>520.4</ele>
        <time>2022-07-29T10:05:20Z</time>
      </trkpt>
      <trkpt lat="46.41789" lon="5.59944">
        <ele>520.2</ele>
        <time>2022-07-29T10:05:21Z</time>
      </trkpt>
      <trkpt lat="46.41793" lon="5.5994">
        <ele>519.8</ele>
        <time>2022-07-29T10:05:22Z</time>
      </trkpt>
      <trkpt lat="46.41797" lon="5.59936">
        <ele>519.4</ele>
        <time>2022-07-29T10:05:23Z</time>
      </trkpt>
      <trkpt lat="46.41802" lon="5.59932">
        <ele>519</ele>
        <time>2022-07-29T10:05:24Z</time>
      </trkpt>
      <trkpt lat="46.41807" lon="5.59927">
        <ele>518.8</ele>
        <time>2022-07-29T10:05:25Z</time>
      </trkpt>
      <trkpt lat="46.41812" lon="5.59924">
        <ele>518.4</ele>
        <time>2022-07-29T10:05:26Z</time>
      </trkpt>
      <trkpt lat="46.41817" lon="5.59921">
        <ele>518.2</ele>
        <time>2022-07-29T10:05:27Z</time>
      </trkpt>
      <trkpt lat="46.41822" lon="5.59918">
        <ele>517.8</ele>
        <time>2022-07-29T10:05:28Z</time>
      </trkpt>
      <trkpt lat="46.41827" lon="5.59915">
        <ele>517.4</ele>
        <time>2022-07-29T10:05:29Z</time>
      </trkpt>
      <trkpt lat="46.41832" lon="5.5991">
        <ele>517</ele>
        <time>2022-07-29T10:05:30Z</time>
      </trkpt>
      <trkpt lat="46.41838" lon="5.59906">
        <ele>516.6</ele>
        <time>2022-07-29T10:05:31Z</time>
      </trkpt>
      <trkpt lat="46.41843" lon="5.599">
        <ele>516.4</ele>
        <time>2022-07-29T10:05:32Z</time>
      </trkpt>
      <trkpt lat="46.41848" lon="5.59894">
        <ele>515.8</ele>
        <time>2022-07-29T10:05:33Z</time>
      </trkpt>
      <trkpt lat="46.41853" lon="5.59887">
        <ele>515.4</ele>
        <time>2022-07-29T10:05:34Z</time>
      </trkpt>
      <trkpt lat="46.41858" lon="5.59879">
        <ele>515</ele>
        <time>2022-07-29T10:05:35Z</time>
      </trkpt>
      <trkpt lat="46.41862" lon="5.59871">
        <ele>514.4</ele>
        <time>2022-07-29T10:05:36Z</time>
      </trkpt>
      <trkpt lat="46.41867" lon="5.59863">
        <ele>513.8</ele>
        <time>2022-07-29T10:05:37Z</time>
      </trkpt>
      <trkpt lat="46.41873" lon="5.59854">
        <ele>513.2</ele>
        <time>2022-07-29T10:05:38Z</time>
      </trkpt>
      <trkpt lat="46.41879" lon="5.59846">
        <ele>512.8</ele>
        <time>2022-07-29T10:05:39Z</time>
      </trkpt>
      <trkpt lat="46.41885" lon="5.59837">
        <ele>512.2</ele>
        <time>2022-07-29T10:05:40Z</time>
      </trkpt>
      <trkpt lat="46.41892" lon="5.59829">
        <ele>511.4</ele>
        <time>2022-07-29T10:05:41Z</time>
      </trkpt>
      <trkpt lat="46.41899" lon="5.5982">
        <ele>510.8</ele>
        <time>2022-07-29T10:05:42Z</time>
      </trkpt>
      <trkpt lat="46.41906" lon="5.5981">
        <ele>510.2</ele>
        <time>2022-07-29T10:05:43Z</time>
      </trkpt>
      <trkpt lat="46.41913" lon="5.59801">
        <ele>509.6</ele>
        <time>2022-07-29T10:05:44Z</time>
      </trkpt>
      <trkpt lat="46.4192" lon="5.59791">
        <ele>508.8</ele>
        <time>2022-07-29T10:05:45Z</time>
      </trkpt>
      <trkpt lat="46.41928" lon="5.5978">
        <ele>508</ele>
        <time>2022-07-29T10:05:46Z</time>
      </trkpt>
      <trkpt lat="46.41935" lon="5.5977">
        <ele>507.2</ele>
        <time>2022-07-29T10:05:47Z</time>
      </trkpt>
      <trkpt lat="46.41941" lon="5.5976">
        <ele>506.6</ele>
        <time>2022-07-29T10:05:48Z</time>
      </trkpt>
      <trkpt lat="46.41948" lon="5.59749">
        <ele>505.8</ele>
        <time>2022-07-29T10:05:49Z</time>
      </trkpt>
      <trkpt lat="46.41956" lon="5.59738">
        <ele>505</ele>
        <time>2022-07-29T10:05:50Z</time>
      </trkpt>
      <trkpt lat="46.41963" lon="5.59729">
        <ele>504.2</ele>
        <time>2022-07-29T10:05:51Z</time>
      </trkpt>
      <trkpt lat="46.4197" lon="5.59719">
        <ele>503.6</ele>
        <time>2022-07-29T10:05:52Z</time>
      </trkpt>
      <trkpt lat="46.41978" lon="5.5971">
        <ele>502.8</ele>
        <time>2022-07-29T10:05:53Z</time>
      </trkpt>
      <trkpt lat="46.41985" lon="5.59702">
        <ele>502</ele>
        <time>2022-07-29T10:05:54Z</time>
      </trkpt>
      <trkpt lat="46.41992" lon="5.59693">
        <ele>501.2</ele>
        <time>2022-07-29T10:05:55Z</time>
      </trkpt>
      <trkpt lat="46.41999" lon="5.59684">
        <ele>500.6</ele>
        <time>2022-07-29T10:05:56Z</time>
      </trkpt>
      <trkpt lat="46.42006" lon="5.59675">
        <ele>499.8</ele>
        <time>2022-07-29T10:05:57Z</time>
      </trkpt>
      <trkpt lat="46.42012" lon="5.59667">
        <ele>499.2</ele>
        <time>2022-07-29T10:05:58Z</time>
      </trkpt>
      <trkpt lat="46.42019" lon="5.59659">
        <ele>498.4</ele>
        <time>2022-07-29T10:05:59Z</time>
      </trkpt>
      <trkpt lat="46.42026" lon="5.59651">
        <ele>497.8</ele>
        <time>2022-07-29T10:06:00Z</time>
      </trkpt>
      <trkpt lat="46.42032" lon="5.59643">
        <ele>497</ele>
        <time>2022-07-29T10:06:01Z</time>
      </trkpt>
      <trkpt lat="46.42038" lon="5.59635">
        <ele>496.6</ele>
        <time>2022-07-29T10:06:02Z</time>
      </trkpt>
      <trkpt lat="46.42044" lon="5.59627">
        <ele>496</ele>
        <time>2022-07-29T10:06:03Z</time>
      </trkpt>
      <trkpt lat="46.4205" lon="5.59619">
        <ele>495.6</ele>
        <time>2022-07-29T10:06:04Z</time>
      </trkpt>
      <trkpt lat="46.42056" lon="5.59612">
        <ele>495.2</ele>
        <time>2022-07-29T10:06:05Z</time>
      </trkpt>
      <trkpt lat="46.42061" lon="5.59605">
        <ele>495</ele>
        <time>2022-07-29T10:06:06Z</time>
      </trkpt>
      <trkpt lat="46.42066" lon="5.59599">
        <ele>494.6</ele>
        <time>2022-07-29T10:06:07Z</time>
      </trkpt>
      <trkpt lat="46.42071" lon="5.59593">
        <ele>494.4</ele>
        <time>2022-07-29T10:06:08Z</time>
      </trkpt>
      <trkpt lat="46.42075" lon="5.59587">
        <ele>494</ele>
        <time>2022-07-29T10:06:09Z</time>
      </trkpt>
      <trkpt lat="46.42079" lon="5.5958">
        <ele>493.6</ele>
        <time>2022-07-29T10:06:10Z</time>
      </trkpt>
      <trkpt lat="46.42084" lon="5.59573">
        <ele>493.4</ele>
        <time>2022-07-29T10:06:11Z</time>
      </trkpt>
      <trkpt lat="46.42088" lon="5.59565">
        <ele>492.8</ele>
        <time>2022-07-29T10:06:12Z</time>
      </trkpt>
      <trkpt lat="46.42092" lon="5.59556">
        <ele>492.2</ele>
        <time>2022-07-29T10:06:13Z</time>
      </trkpt>
      <trkpt lat="46.42096" lon="5.59547">
        <ele>491.6</ele>
        <time>2022-07-29T10:06:14Z</time>
      </trkpt>
      <trkpt lat="46.421" lon="5.59538">
        <ele>491</ele>
        <time>2022-07-29T10:06:15Z</time>
      </trkpt>
      <trkpt lat="46.42104" lon="5.59529">
        <ele>490.4</ele>
        <time>2022-07-29T10:06:16Z</time>
      </trkpt>
      <trkpt lat="46.42107" lon="5.5952">
        <ele>489.6</ele>
        <time>2022-07-29T10:06:17Z</time>
      </trkpt>
      <trkpt lat="46.42111" lon="5.59512">
        <ele>489.2</ele>
        <time>2022-07-29T10:06:18Z</time>
      </trkpt>
      <trkpt lat="46.42114" lon="5.59505">
        <ele>487.8</ele>
        <time>2022-07-29T10:06:19Z</time>
      </trkpt>
      <trkpt lat="46.42117" lon="5.59497">
        <ele>487.2</ele>
        <time>2022-07-29T10:06:20Z</time>
      </trkpt>
      <trkpt lat="46.42119" lon="5.5949">
        <ele>486.8</ele>
        <time>2022-07-29T10:06:21Z</time>
      </trkpt>
      <trkpt lat="46.4212" lon="5.59484">
        <ele>486.2</ele>
        <time>2022-07-29T10:06:22Z</time>
      </trkpt>
      <trkpt lat="46.4212" lon="5.59478">
        <ele>485.6</ele>
        <time>2022-07-29T10:06:23Z</time>
      </trkpt>
      <trkpt lat="46.42118" lon="5.59473">
        <ele>485.2</ele>
        <time>2022-07-29T10:06:24Z</time>
      </trkpt>
      <trkpt lat="46.42115" lon="5.59469">
        <ele>484.6</ele>
        <time>2022-07-29T10:06:25Z</time>
      </trkpt>
      <trkpt lat="46.4211" lon="5.59466">
        <ele>484</ele>
        <time>2022-07-29T10:06:26Z</time>
      </trkpt>
      <trkpt lat="46.42104" lon="5.59466">
        <ele>483.4</ele>
        <time>2022-07-29T10:06:27Z</time>
      </trkpt>
      <trkpt lat="46.42097" lon="5.59467">
        <ele>482.6</ele>
        <time>2022-07-29T10:06:28Z</time>
      </trkpt>
      <trkpt lat="46.42089" lon="5.59468">
        <ele>481.8</ele>
        <time>2022-07-29T10:06:29Z</time>
      </trkpt>
      <trkpt lat="46.42081" lon="5.59471">
        <ele>481.2</ele>
        <time>2022-07-29T10:06:30Z</time>
      </trkpt>
      <trkpt lat="46.42072" lon="5.59473">
        <ele>480.4</ele>
        <time>2022-07-29T10:06:31Z</time>
      </trkpt>
      <trkpt lat="46.42064" lon="5.59476">
        <ele>479.6</ele>
        <time>2022-07-29T10:06:32Z</time>
      </trkpt>
      <trkpt lat="46.42055" lon="5.5948">
        <ele>478.8</ele>
        <time>2022-07-29T10:06:33Z</time>
      </trkpt>
      <trkpt lat="46.42046" lon="5.59484">
        <ele>478.2</ele>
        <time>2022-07-29T10:06:34Z</time>
      </trkpt>
      <trkpt lat="46.42036" lon="5.59488">
        <ele>477.6</ele>
        <time>2022-07-29T10:06:35Z</time>
      </trkpt>
      <trkpt lat="46.42026" lon="5.59492">
        <ele>477</ele>
        <time>2022-07-29T10:06:36Z</time>
      </trkpt>
      <trkpt lat="46.42017" lon="5.59497">
        <ele>476.4</ele>
        <time>2022-07-29T10:06:37Z</time>
      </trkpt>
      <trkpt lat="46.42007" lon="5.59502">
        <ele>475.6</ele>
        <time>2022-07-29T10:06:38Z</time>
      </trkpt>
      <trkpt lat="46.41998" lon="5.59509">
        <ele>475</ele>
        <time>2022-07-29T10:06:39Z</time>
      </trkpt>
      <trkpt lat="46.41988" lon="5.59515">
        <ele>474.2</ele>
        <time>2022-07-29T10:06:40Z</time>
      </trkpt>
      <trkpt lat="46.41978" lon="5.59521">
        <ele>473.6</ele>
        <time>2022-07-29T10:06:41Z</time>
      </trkpt>
      <trkpt lat="46.41967" lon="5.59526">
        <ele>472.8</ele>
        <time>2022-07-29T10:06:42Z</time>
      </trkpt>
      <trkpt lat="46.41957" lon="5.59531">
        <ele>472</ele>
        <time>2022-07-29T10:06:43Z</time>
      </trkpt>
      <trkpt lat="46.41947" lon="5.59537">
        <ele>471.2</ele>
        <time>2022-07-29T10:06:44Z</time>
      </trkpt>
      <trkpt lat="46.41938" lon="5.59542">
        <ele>470.4</ele>
        <time>2022-07-29T10:06:45Z</time>
      </trkpt>
      <trkpt lat="46.41927" lon="5.59546">
        <ele>469.4</ele>
        <time>2022-07-29T10:06:46Z</time>
      </trkpt>
      <trkpt lat="46.41917" lon="5.5955">
        <ele>468.6</ele>
        <time>2022-07-29T10:06:47Z</time>
      </trkpt>
      <trkpt lat="46.41905" lon="5.59553">
        <ele>467.6</ele>
        <time>2022-07-29T10:06:48Z</time>
      </trkpt>
      <trkpt lat="46.41894" lon="5.59555">
        <ele>466.8</ele>
        <time>2022-07-29T10:06:49Z</time>
      </trkpt>
      <trkpt lat="46.41884" lon="5.59557">
        <ele>466</ele>
        <time>2022-07-29T10:06:50Z</time>
      </trkpt>
      <trkpt lat="46.41874" lon="5.59556">
        <ele>465</ele>
        <time>2022-07-29T10:06:51Z</time>
      </trkpt>
      <trkpt lat="46.41864" lon="5.59554">
        <ele>464.2</ele>
        <time>2022-07-29T10:06:52Z</time>
      </trkpt>
      <trkpt lat="46.41855" lon="5.5955">
        <ele>463.4</ele>
        <time>2022-07-29T10:06:53Z</time>
      </trkpt>
      <trkpt lat="46.41846" lon="5.59547">
        <ele>462.6</ele>
        <time>2022-07-29T10:06:54Z</time>
      </trkpt>
      <trkpt lat="46.41838" lon="5.59542">
        <ele>462</ele>
        <time>2022-07-29T10:06:55Z</time>
      </trkpt>
      <trkpt lat="46.41829" lon="5.59537">
        <ele>461.4</ele>
        <time>2022-07-29T10:06:56Z</time>
      </trkpt>
      <trkpt lat="46.41821" lon="5.59532">
        <ele>461</ele>
        <time>2022-07-29T10:06:57Z</time>
      </trkpt>
      <trkpt lat="46.41813" lon="5.59527">
        <ele>460.4</ele>
        <time>2022-07-29T10:06:58Z</time>
      </trkpt>
      <trkpt lat="46.41806" lon="5.59522">
        <ele>460</ele>
        <time>2022-07-29T10:06:59Z</time>
      </trkpt>
      <trkpt lat="46.418" lon="5.59515">
        <ele>459.4</ele>
        <time>2022-07-29T10:07:00Z</time>
      </trkpt>
      <trkpt lat="46.41794" lon="5.59508">
        <ele>458.8</ele>
        <time>2022-07-29T10:07:01Z</time>
      </trkpt>
      <trkpt lat="46.4179" lon="5.595">
        <ele>458.4</ele>
        <time>2022-07-29T10:07:02Z</time>
      </trkpt>
      <trkpt lat="46.41787" lon="5.59491">
        <ele>457.6</ele>
        <time>2022-07-29T10:07:03Z</time>
      </trkpt>
      <trkpt lat="46.41785" lon="5.59481">
        <ele>457</ele>
        <time>2022-07-29T10:07:04Z</time>
      </trkpt>
      <trkpt lat="46.41784" lon="5.59469">
        <ele>456.4</ele>
        <time>2022-07-29T10:07:05Z</time>
      </trkpt>
      <trkpt lat="46.41783" lon="5.59457">
        <ele>455.8</ele>
        <time>2022-07-29T10:07:06Z</time>
      </trkpt>
      <trkpt lat="46.41783" lon="5.59446">
        <ele>455.2</ele>
        <time>2022-07-29T10:07:07Z</time>
      </trkpt>
      <trkpt lat="46.41782" lon="5.59435">
        <ele>454.6</ele>
        <time>2022-07-29T10:07:08Z</time>
      </trkpt>
      <trkpt lat="46.4178" lon="5.59425">
        <ele>454</ele>
        <time>2022-07-29T10:07:09Z</time>
      </trkpt>
      <trkpt lat="46.41776" lon="5.59415">
        <ele>453.4</ele>
        <time>2022-07-29T10:07:10Z</time>
      </trkpt>
      <trkpt lat="46.41772" lon="5.59405">
        <ele>452.8</ele>
        <time>2022-07-29T10:07:11Z</time>
      </trkpt>
      <trkpt lat="46.4177" lon="5.59396">
        <ele>452.2</ele>
        <time>2022-07-29T10:07:12Z</time>
      </trkpt>
      <trkpt lat="46.41769" lon="5.59384">
        <ele>451.6</ele>
        <time>2022-07-29T10:07:13Z</time>
      </trkpt>
      <trkpt lat="46.41769" lon="5.59372">
        <ele>450.6</ele>
        <time>2022-07-29T10:07:14Z</time>
      </trkpt>
      <trkpt lat="46.41769" lon="5.59359">
        <ele>449.8</ele>
        <time>2022-07-29T10:07:15Z</time>
      </trkpt>
      <trkpt lat="46.4177" lon="5.59346">
        <ele>449</ele>
        <time>2022-07-29T10:07:16Z</time>
      </trkpt>
      <trkpt lat="46.41771" lon="5.59334">
        <ele>448.4</ele>
        <time>2022-07-29T10:07:17Z</time>
      </trkpt>
      <trkpt lat="46.41772" lon="5.59322">
        <ele>447.6</ele>
        <time>2022-07-29T10:07:18Z</time>
      </trkpt>
      <trkpt lat="46.41773" lon="5.59312">
        <ele>447</ele>
        <time>2022-07-29T10:07:19Z</time>
      </trkpt>
      <trkpt lat="46.41773" lon="5.59301">
        <ele>446.2</ele>
        <time>2022-07-29T10:07:20Z</time>
      </trkpt>
      <trkpt lat="46.41772" lon="5.59291">
        <ele>445.6</ele>
        <time>2022-07-29T10:07:21Z</time>
      </trkpt>
      <trkpt lat="46.41769" lon="5.59281">
        <ele>444.8</ele>
        <time>2022-07-29T10:07:22Z</time>
      </trkpt>
      <trkpt lat="46.41764" lon="5.5927">
        <ele>444.2</ele>
        <time>2022-07-29T10:07:23Z</time>
      </trkpt>
      <trkpt lat="46.4176" lon="5.59259">
        <ele>443.6</ele>
        <time>2022-07-29T10:07:24Z</time>
      </trkpt>
      <trkpt lat="46.41755" lon="5.59249">
        <ele>442.8</ele>
        <time>2022-07-29T10:07:25Z</time>
      </trkpt>
      <trkpt lat="46.4175" lon="5.59237">
        <ele>442.2</ele>
        <time>2022-07-29T10:07:26Z</time>
      </trkpt>
      <trkpt lat="46.41744" lon="5.59225">
        <ele>441.4</ele>
        <time>2022-07-29T10:07:27Z</time>
      </trkpt>
      <trkpt lat="46.4174" lon="5.59213">
        <ele>440.4</ele>
        <time>2022-07-29T10:07:28Z</time>
      </trkpt>
      <trkpt lat="46.41737" lon="5.59201">
        <ele>439.8</ele>
        <time>2022-07-29T10:07:29Z</time>
      </trkpt>
      <trkpt lat="46.41732" lon="5.59188">
        <ele>439</ele>
        <time>2022-07-29T10:07:30Z</time>
      </trkpt>
      <trkpt lat="46.41728" lon="5.59175">
        <ele>438.4</ele>
        <time>2022-07-29T10:07:31Z</time>
      </trkpt>
      <trkpt lat="46.41725" lon="5.59163">
        <ele>437.8</ele>
        <time>2022-07-29T10:07:32Z</time>
      </trkpt>
      <trkpt lat="46.41723" lon="5.59154">
        <ele>437.4</ele>
        <time>2022-07-29T10:07:33Z</time>
      </trkpt>
      <trkpt lat="46.4172" lon="5.59148">
        <ele>437</ele>
        <time>2022-07-29T10:07:34Z</time>
      </trkpt>
      <trkpt lat="46.41717" lon="5.59142">
        <ele>436.8</ele>
        <time>2022-07-29T10:07:35Z</time>
      </trkpt>
      <trkpt lat="46.41713" lon="5.59137">
        <ele>436.4</ele>
        <time>2022-07-29T10:07:36Z</time>
      </trkpt>
      <trkpt lat="46.41709" lon="5.59132">
        <ele>436.4</ele>
        <time>2022-07-29T10:07:37Z</time>
      </trkpt>
      <trkpt lat="46.41704" lon="5.59127">
        <ele>436</ele>
        <time>2022-07-29T10:07:38Z</time>
      </trkpt>
      <trkpt lat="46.417" lon="5.59122">
        <ele>436</ele>
        <time>2022-07-29T10:07:39Z</time>
      </trkpt>
      <trkpt lat="46.41695" lon="5.59116">
        <ele>435.6</ele>
        <time>2022-07-29T10:07:40Z</time>
      </trkpt>
      <trkpt lat="46.4169" lon="5.5911">
        <ele>435.6</ele>
        <time>2022-07-29T10:07:41Z</time>
      </trkpt>
      <trkpt lat="46.41685" lon="5.59104">
        <ele>435.2</ele>
        <time>2022-07-29T10:07:42Z</time>
      </trkpt>
      <trkpt lat="46.4168" lon="5.59098">
        <ele>435</ele>
        <time>2022-07-29T10:07:43Z</time>
      </trkpt>
      <trkpt lat="46.41674" lon="5.59092">
        <ele>434.6</ele>
        <time>2022-07-29T10:07:44Z</time>
      </trkpt>
      <trkpt lat="46.41669" lon="5.59085">
        <ele>434.4</ele>
        <time>2022-07-29T10:07:45Z</time>
      </trkpt>
      <trkpt lat="46.41663" lon="5.59076">
        <ele>434</ele>
        <time>2022-07-29T10:07:46Z</time>
      </trkpt>
      <trkpt lat="46.41658" lon="5.59067">
        <ele>433.6</ele>
        <time>2022-07-29T10:07:47Z</time>
      </trkpt>
      <trkpt lat="46.41654" lon="5.59057">
        <ele>433.4</ele>
        <time>2022-07-29T10:07:48Z</time>
      </trkpt>
      <trkpt lat="46.41649" lon="5.59047">
        <ele>433</ele>
        <time>2022-07-29T10:07:49Z</time>
      </trkpt>
      <trkpt lat="46.41646" lon="5.59036">
        <ele>432.6</ele>
        <time>2022-07-29T10:07:50Z</time>
      </trkpt>
      <trkpt lat="46.41643" lon="5.59024">
        <ele>432.4</ele>
        <time>2022-07-29T10:07:51Z</time>
      </trkpt>
      <trkpt lat="46.4164" lon="5.59012">
        <ele>432</ele>
        <time>2022-07-29T10:07:52Z</time>
      </trkpt>
      <trkpt lat="46.41638" lon="5.59">
        <ele>431.8</ele>
        <time>2022-07-29T10:07:53Z</time>
      </trkpt>
      <trkpt lat="46.41635" lon="5.58989">
        <ele>431.8</ele>
        <time>2022-07-29T10:07:54Z</time>
      </trkpt>
      <trkpt lat="46.41633" lon="5.58977">
        <ele>431.6</ele>
        <time>2022-07-29T10:07:55Z</time>
      </trkpt>
      <trkpt lat="46.4163" lon="5.58965">
        <ele>431.6</ele>
        <time>2022-07-29T10:07:56Z</time>
      </trkpt>
      <trkpt lat="46.41627" lon="5.58954">
        <ele>431.6</ele>
        <time>2022-07-29T10:07:57Z</time>
      </trkpt>
      <trkpt lat="46.41625" lon="5.58943">
        <ele>431.4</ele>
        <time>2022-07-29T10:07:58Z</time>
      </trkpt>
      <trkpt lat="46.41623" lon="5.58933">
        <ele>431.4</ele>
        <time>2022-07-29T10:07:59Z</time>
      </trkpt>
      <trkpt lat="46.41621" lon="5.58922">
        <ele>431.4</ele>
        <time>2022-07-29T10:08:00Z</time>
      </trkpt>
      <trkpt lat="46.41619" lon="5.58912">
        <ele>431.4</ele>
        <time>2022-07-29T10:08:01Z</time>
      </trkpt>
      <trkpt lat="46.41617" lon="5.58902">
        <ele>431.4</ele>
        <time>2022-07-29T10:08:02Z</time>
      </trkpt>
      <trkpt lat="46.41614" lon="5.58893">
        <ele>431.6</ele>
        <time>2022-07-29T10:08:03Z</time>
      </trkpt>
      <trkpt lat="46.41611" lon="5.58884">
        <ele>431.6</ele>
        <time>2022-07-29T10:08:04Z</time>
      </trkpt>
      <trkpt lat="46.41608" lon="5.58876">
        <ele>431.6</ele>
        <time>2022-07-29T10:08:05Z</time>
      </trkpt>
      <trkpt lat="46.41605" lon="5.58867">
        <ele>431.6</ele>
        <time>2022-07-29T10:08:06Z</time>
      </trkpt>
      <trkpt lat="46.416" lon="5.58851">
        <ele>431.8</ele>
        <time>2022-07-29T10:08:07Z</time>
      </trkpt>
      <trkpt lat="46.41597" lon="5.58843">
        <ele>431.8</ele>
        <time>2022-07-29T10:08:08Z</time>
      </trkpt>
      <trkpt lat="46.41594" lon="5.58835">
        <ele>431.8</ele>
        <time>2022-07-29T10:08:09Z</time>
      </trkpt>
      <trkpt lat="46.41591" lon="5.58827">
        <ele>431.8</ele>
        <time>2022-07-29T10:08:10Z</time>
      </trkpt>
      <trkpt lat="46.41587" lon="5.58819">
        <ele>431.8</ele>
        <time>2022-07-29T10:08:11Z</time>
      </trkpt>
      <trkpt lat="46.41584" lon="5.58811">
        <ele>431.8</ele>
        <time>2022-07-29T10:08:12Z</time>
      </trkpt>
      <trkpt lat="46.41581" lon="5.58803">
        <ele>431.8</ele>
        <time>2022-07-29T10:08:13Z</time>
      </trkpt>
      <trkpt lat="46.41578" lon="5.58795">
        <ele>431.8</ele>
        <time>2022-07-29T10:08:14Z</time>
      </trkpt>
      <trkpt lat="46.41574" lon="5.58787">
        <ele>431.8</ele>
        <time>2022-07-29T10:08:15Z</time>
      </trkpt>
      <trkpt lat="46.41571" lon="5.58779">
        <ele>431.8</ele>
        <time>2022-07-29T10:08:16Z</time>
      </trkpt>
      <trkpt lat="46.41568" lon="5.58771">
        <ele>431.8</ele>
        <time>2022-07-29T10:08:17Z</time>
      </trkpt>
      <trkpt lat="46.41565" lon="5.58763">
        <ele>431.8</ele>
        <time>2022-07-29T10:08:18Z</time>
      </trkpt>
      <trkpt lat="46.41562" lon="5.58755">
        <ele>431.8</ele>
        <time>2022-07-29T10:08:19Z</time>
      </trkpt>
      <trkpt lat="46.4156" lon="5.58747">
        <ele>431.4</ele>
        <time>2022-07-29T10:08:20Z</time>
      </trkpt>
      <trkpt lat="46.41557" lon="5.5874">
        <ele>431.4</ele>
        <time>2022-07-29T10:08:21Z</time>
      </trkpt>
      <trkpt lat="46.41555" lon="5.58732">
        <ele>431.4</ele>
        <time>2022-07-29T10:08:22Z</time>
      </trkpt>
      <trkpt lat="46.41553" lon="5.58725">
        <ele>431.4</ele>
        <time>2022-07-29T10:08:23Z</time>
      </trkpt>
      <trkpt lat="46.4155" lon="5.58719">
        <ele>431.4</ele>
        <time>2022-07-29T10:08:24Z</time>
      </trkpt>
      <trkpt lat="46.41547" lon="5.58712">
        <ele>431.4</ele>
        <time>2022-07-29T10:08:25Z</time>
      </trkpt>
      <trkpt lat="46.41544" lon="5.58706">
        <ele>431.4</ele>
        <time>2022-07-29T10:08:26Z</time>
      </trkpt>
      <trkpt lat="46.41542" lon="5.587">
        <ele>431.4</ele>
        <time>2022-07-29T10:08:27Z</time>
      </trkpt>
      <trkpt lat="46.4154" lon="5.58694">
        <ele>431.4</ele>
        <time>2022-07-29T10:08:28Z</time>
      </trkpt>
      <trkpt lat="46.41539" lon="5.58689">
        <ele>431.2</ele>
        <time>2022-07-29T10:08:29Z</time>
      </trkpt>
      <trkpt lat="46.41537" lon="5.58685">
        <ele>431.2</ele>
        <time>2022-07-29T10:08:30Z</time>
      </trkpt>
      <trkpt lat="46.41536" lon="5.58681">
        <ele>431.2</ele>
        <time>2022-07-29T10:08:31Z</time>
      </trkpt>
      <trkpt lat="46.41534" lon="5.58678">
        <ele>431</ele>
        <time>2022-07-29T10:08:32Z</time>
      </trkpt>
      <trkpt lat="46.41533" lon="5.58674">
        <ele>431</ele>
        <time>2022-07-29T10:08:33Z</time>
      </trkpt>
      <trkpt lat="46.41531" lon="5.5867">
        <ele>430.6</ele>
        <time>2022-07-29T10:08:34Z</time>
      </trkpt>
      <trkpt lat="46.41528" lon="5.58666">
        <ele>430.6</ele>
        <time>2022-07-29T10:08:35Z</time>
      </trkpt>
      <trkpt lat="46.41524" lon="5.58664">
        <ele>430.4</ele>
        <time>2022-07-29T10:08:36Z</time>
      </trkpt>
      <trkpt lat="46.4152" lon="5.58661">
        <ele>430.4</ele>
        <time>2022-07-29T10:08:37Z</time>
      </trkpt>
      <trkpt lat="46.41514" lon="5.58659">
        <ele>430</ele>
        <time>2022-07-29T10:08:38Z</time>
      </trkpt>
      <trkpt lat="46.41509" lon="5.58658">
        <ele>430</ele>
        <time>2022-07-29T10:08:39Z</time>
      </trkpt>
      <trkpt lat="46.41503" lon="5.58658">
        <ele>429.6</ele>
        <time>2022-07-29T10:08:40Z</time>
      </trkpt>
      <trkpt lat="46.41497" lon="5.58659">
        <ele>429.4</ele>
        <time>2022-07-29T10:08:41Z</time>
      </trkpt>
      <trkpt lat="46.4149" lon="5.58662">
        <ele>429.2</ele>
        <time>2022-07-29T10:08:42Z</time>
      </trkpt>
      <trkpt lat="46.41484" lon="5.58666">
        <ele>428.8</ele>
        <time>2022-07-29T10:08:43Z</time>
      </trkpt>
      <trkpt lat="46.41477" lon="5.58669">
        <ele>428.4</ele>
        <time>2022-07-29T10:08:44Z</time>
      </trkpt>
      <trkpt lat="46.41469" lon="5.58674">
        <ele>428</ele>
        <time>2022-07-29T10:08:45Z</time>
      </trkpt>
      <trkpt lat="46.41462" lon="5.58678">
        <ele>427.6</ele>
        <time>2022-07-29T10:08:46Z</time>
      </trkpt>
      <trkpt lat="46.41454" lon="5.58683">
        <ele>427.2</ele>
        <time>2022-07-29T10:08:47Z</time>
      </trkpt>
      <trkpt lat="46.41446" lon="5.58688">
        <ele>426.6</ele>
        <time>2022-07-29T10:08:48Z</time>
      </trkpt>
      <trkpt lat="46.41438" lon="5.58693">
        <ele>426.2</ele>
        <time>2022-07-29T10:08:49Z</time>
      </trkpt>
      <trkpt lat="46.4143" lon="5.58698">
        <ele>425.6</ele>
        <time>2022-07-29T10:08:50Z</time>
      </trkpt>
      <trkpt lat="46.41422" lon="5.58704">
        <ele>425</ele>
        <time>2022-07-29T10:08:51Z</time>
      </trkpt>
      <trkpt lat="46.41412" lon="5.58711">
        <ele>424.4</ele>
        <time>2022-07-29T10:08:52Z</time>
      </trkpt>
      <trkpt lat="46.41403" lon="5.58717">
        <ele>423.8</ele>
        <time>2022-07-29T10:08:53Z</time>
      </trkpt>
      <trkpt lat="46.41394" lon="5.58722">
        <ele>423.4</ele>
        <time>2022-07-29T10:08:54Z</time>
      </trkpt>
      <trkpt lat="46.41385" lon="5.58728">
        <ele>423</ele>
        <time>2022-07-29T10:08:55Z</time>
      </trkpt>
      <trkpt lat="46.41376" lon="5.58733">
        <ele>422.6</ele>
        <time>2022-07-29T10:08:56Z</time>
      </trkpt>
      <trkpt lat="46.41369" lon="5.58737">
        <ele>422.4</ele>
        <time>2022-07-29T10:08:57Z</time>
      </trkpt>
      <trkpt lat="46.41362" lon="5.58738">
        <ele>422.4</ele>
        <time>2022-07-29T10:08:58Z</time>
      </trkpt>
      <trkpt lat="46.41356" lon="5.58736">
        <ele>422</ele>
        <time>2022-07-29T10:08:59Z</time>
      </trkpt>
      <trkpt lat="46.41351" lon="5.5873">
        <ele>422</ele>
        <time>2022-07-29T10:09:00Z</time>
      </trkpt>
      <trkpt lat="46.41349" lon="5.58722">
        <ele>422</ele>
        <time>2022-07-29T10:09:01Z</time>
      </trkpt>
      <trkpt lat="46.4135" lon="5.58715">
        <ele>422</ele>
        <time>2022-07-29T10:09:02Z</time>
      </trkpt>
      <trkpt lat="46.41352" lon="5.58708">
        <ele>422.4</ele>
        <time>2022-07-29T10:09:03Z</time>
      </trkpt>
      <trkpt lat="46.41355" lon="5.58703">
        <ele>422.6</ele>
        <time>2022-07-29T10:09:04Z</time>
      </trkpt>
      <trkpt lat="46.41357" lon="5.58698">
        <ele>423</ele>
        <time>2022-07-29T10:09:05Z</time>
      </trkpt>
      <trkpt lat="46.41359" lon="5.58694">
        <ele>423.2</ele>
        <time>2022-07-29T10:09:06Z</time>
      </trkpt>
      <trkpt lat="46.4136" lon="5.58689">
        <ele>423.4</ele>
        <time>2022-07-29T10:09:07Z</time>
      </trkpt>
      <trkpt lat="46.41362" lon="5.58686">
        <ele>423.6</ele>
        <time>2022-07-29T10:09:08Z</time>
      </trkpt>
      <trkpt lat="46.41364" lon="5.58682">
        <ele>424</ele>
        <time>2022-07-29T10:09:09Z</time>
      </trkpt>
      <trkpt lat="46.41365" lon="5.58678">
        <ele>424.2</ele>
        <time>2022-07-29T10:09:10Z</time>
      </trkpt>
      <trkpt lat="46.41367" lon="5.58674">
        <ele>424.4</ele>
        <time>2022-07-29T10:09:11Z</time>
      </trkpt>
      <trkpt lat="46.41368" lon="5.58671">
        <ele>424.4</ele>
        <time>2022-07-29T10:09:12Z</time>
      </trkpt>
      <trkpt lat="46.4137" lon="5.58667">
        <ele>424.8</ele>
        <time>2022-07-29T10:09:13Z</time>
      </trkpt>
      <trkpt lat="46.41371" lon="5.58665">
        <ele>424.8</ele>
        <time>2022-07-29T10:09:14Z</time>
      </trkpt>
      <trkpt lat="46.41372" lon="5.58662">
        <ele>425.2</ele>
        <time>2022-07-29T10:09:15Z</time>
      </trkpt>
      <trkpt lat="46.41373" lon="5.58659">
        <ele>425.2</ele>
        <time>2022-07-29T10:09:16Z</time>
      </trkpt>
      <trkpt lat="46.41374" lon="5.58657">
        <ele>425.4</ele>
        <time>2022-07-29T10:09:17Z</time>
      </trkpt>
      <trkpt lat="46.41375" lon="5.58655">
        <ele>425.4</ele>
        <time>2022-07-29T10:09:18Z</time>
      </trkpt>
      <trkpt lat="46.41375" lon="5.58653">
        <ele>425.4</ele>
        <time>2022-07-29T10:09:19Z</time>
      </trkpt>
      <trkpt lat="46.41375" lon="5.58653">
        <ele>425.8</ele>
        <time>2022-07-29T10:09:20Z</time>
      </trkpt>
      <trkpt lat="46.41374" lon="5.58654">
        <ele>425.8</ele>
        <time>2022-07-29T10:09:21Z</time>
      </trkpt>
      <trkpt lat="46.41373" lon="5.58655">
        <ele>425.8</ele>
        <time>2022-07-29T10:09:22Z</time>
      </trkpt>
      <trkpt lat="46.41372" lon="5.58658">
        <ele>425.8</ele>
        <time>2022-07-29T10:09:23Z</time>
      </trkpt>
      <trkpt lat="46.41371" lon="5.58661">
        <ele>425.8</ele>
        <time>2022-07-29T10:09:24Z</time>
      </trkpt>
      <trkpt lat="46.4137" lon="5.58665">
        <ele>425.4</ele>
        <time>2022-07-29T10:09:25Z</time>
      </trkpt>
      <trkpt lat="46.41368" lon="5.58669">
        <ele>425.4</ele>
        <time>2022-07-29T10:09:26Z</time>
      </trkpt>
      <trkpt lat="46.41366" lon="5.58674">
        <ele>425.2</ele>
        <time>2022-07-29T10:09:27Z</time>
      </trkpt>
      <trkpt lat="46.41364" lon="5.58679">
        <ele>425</ele>
        <time>2022-07-29T10:09:28Z</time>
      </trkpt>
      <trkpt lat="46.41361" lon="5.58684">
        <ele>424.8</ele>
        <time>2022-07-29T10:09:29Z</time>
      </trkpt>
      <trkpt lat="46.41359" lon="5.5869">
        <ele>424.6</ele>
        <time>2022-07-29T10:09:30Z</time>
      </trkpt>
      <trkpt lat="46.41356" lon="5.58697">
        <ele>424.2</ele>
        <time>2022-07-29T10:09:31Z</time>
      </trkpt>
      <trkpt lat="46.41354" lon="5.58704">
        <ele>423.8</ele>
        <time>2022-07-29T10:09:32Z</time>
      </trkpt>
      <trkpt lat="46.41352" lon="5.58712">
        <ele>423.4</ele>
        <time>2022-07-29T10:09:33Z</time>
      </trkpt>
      <trkpt lat="46.41352" lon="5.58721">
        <ele>423.2</ele>
        <time>2022-07-29T10:09:34Z</time>
      </trkpt>
      <trkpt lat="46.41352" lon="5.58728">
        <ele>423</ele>
        <time>2022-07-29T10:09:35Z</time>
      </trkpt>
      <trkpt lat="46.41351" lon="5.58735">
        <ele>422.6</ele>
        <time>2022-07-29T10:09:36Z</time>
      </trkpt>
      <trkpt lat="46.41349" lon="5.58741">
        <ele>422.6</ele>
        <time>2022-07-29T10:09:37Z</time>
      </trkpt>
      <trkpt lat="46.41346" lon="5.58745">
        <ele>422.4</ele>
        <time>2022-07-29T10:09:38Z</time>
      </trkpt>
      <trkpt lat="46.41342" lon="5.58749">
        <ele>422.4</ele>
        <time>2022-07-29T10:09:39Z</time>
      </trkpt>
      <trkpt lat="46.41338" lon="5.58752">
        <ele>422.4</ele>
        <time>2022-07-29T10:09:40Z</time>
      </trkpt>
      <trkpt lat="46.41335" lon="5.58755">
        <ele>422.4</ele>
        <time>2022-07-29T10:09:41Z</time>
      </trkpt>
      <trkpt lat="46.41332" lon="5.58758">
        <ele>422.8</ele>
        <time>2022-07-29T10:09:42Z</time>
      </trkpt>
      <trkpt lat="46.41328" lon="5.5876">
        <ele>422.8</ele>
        <time>2022-07-29T10:09:43Z</time>
      </trkpt>
      <trkpt lat="46.41325" lon="5.58762">
        <ele>422.8</ele>
        <time>2022-07-29T10:09:44Z</time>
      </trkpt>
      <trkpt lat="46.41322" lon="5.58765">
        <ele>423</ele>
        <time>2022-07-29T10:09:45Z</time>
      </trkpt>
      <trkpt lat="46.41318" lon="5.58767">
        <ele>423</ele>
        <time>2022-07-29T10:09:46Z</time>
      </trkpt>
      <trkpt lat="46.41315" lon="5.5877">
        <ele>423.2</ele>
        <time>2022-07-29T10:09:47Z</time>
      </trkpt>
      <trkpt lat="46.41311" lon="5.58772">
        <ele>423.2</ele>
        <time>2022-07-29T10:09:48Z</time>
      </trkpt>
      <trkpt lat="46.41308" lon="5.58774">
        <ele>423.6</ele>
        <time>2022-07-29T10:09:49Z</time>
      </trkpt>
      <trkpt lat="46.41305" lon="5.58777">
        <ele>423.6</ele>
        <time>2022-07-29T10:09:50Z</time>
      </trkpt>
      <trkpt lat="46.41302" lon="5.58779">
        <ele>424</ele>
        <time>2022-07-29T10:09:51Z</time>
      </trkpt>
      <trkpt lat="46.41299" lon="5.58782">
        <ele>424</ele>
        <time>2022-07-29T10:09:52Z</time>
      </trkpt>
      <trkpt lat="46.41296" lon="5.58785">
        <ele>424.2</ele>
        <time>2022-07-29T10:09:53Z</time>
      </trkpt>
      <trkpt lat="46.41293" lon="5.58788">
        <ele>424.2</ele>
        <time>2022-07-29T10:09:54Z</time>
      </trkpt>
      <trkpt lat="46.4129" lon="5.5879">
        <ele>424.2</ele>
        <time>2022-07-29T10:09:55Z</time>
      </trkpt>
      <trkpt lat="46.41288" lon="5.58792">
        <ele>424.6</ele>
        <time>2022-07-29T10:09:56Z</time>
      </trkpt>
      <trkpt lat="46.41285" lon="5.58794">
        <ele>424.8</ele>
        <time>2022-07-29T10:09:57Z</time>
      </trkpt>
      <trkpt lat="46.41282" lon="5.58796">
        <ele>424.8</ele>
        <time>2022-07-29T10:09:58Z</time>
      </trkpt>
      <trkpt lat="46.41282" lon="5.58796">
        <ele>425.2</ele>
        <time>2022-07-29T10:09:59Z</time>
      </trkpt>
      <trkpt lat="46.41277" lon="5.58799">
        <ele>425.4</ele>
        <time>2022-07-29T10:10:00Z</time>
      </trkpt>
      <trkpt lat="46.41274" lon="5.58802">
        <ele>425.4</ele>
        <time>2022-07-29T10:10:01Z</time>
      </trkpt>
      <trkpt lat="46.41271" lon="5.58805">
        <ele>425.8</ele>
        <time>2022-07-29T10:10:02Z</time>
      </trkpt>
      <trkpt lat="46.41269" lon="5.58807">
        <ele>425.8</ele>
        <time>2022-07-29T10:10:03Z</time>
      </trkpt>
      <trkpt lat="46.41266" lon="5.58809">
        <ele>426.2</ele>
        <time>2022-07-29T10:10:04Z</time>
      </trkpt>
      <trkpt lat="46.41263" lon="5.58811">
        <ele>426.4</ele>
        <time>2022-07-29T10:10:05Z</time>
      </trkpt>
      <trkpt lat="46.41261" lon="5.58813">
        <ele>426.4</ele>
        <time>2022-07-29T10:10:06Z</time>
      </trkpt>
      <trkpt lat="46.41258" lon="5.58815">
        <ele>426.8</ele>
        <time>2022-07-29T10:10:07Z</time>
      </trkpt>
      <trkpt lat="46.41255" lon="5.58816">
        <ele>426.8</ele>
        <time>2022-07-29T10:10:08Z</time>
      </trkpt>
      <trkpt lat="46.41252" lon="5.58818">
        <ele>427</ele>
        <time>2022-07-29T10:10:09Z</time>
      </trkpt>
      <trkpt lat="46.4125" lon="5.5882">
        <ele>427</ele>
        <time>2022-07-29T10:10:10Z</time>
      </trkpt>
      <trkpt lat="46.41247" lon="5.58822">
        <ele>427.4</ele>
        <time>2022-07-29T10:10:11Z</time>
      </trkpt>
      <trkpt lat="46.41244" lon="5.58825">
        <ele>427.4</ele>
        <time>2022-07-29T10:10:12Z</time>
      </trkpt>
      <trkpt lat="46.41241" lon="5.58827">
        <ele>427.6</ele>
        <time>2022-07-29T10:10:13Z</time>
      </trkpt>
      <trkpt lat="46.41238" lon="5.58829">
        <ele>427.6</ele>
        <time>2022-07-29T10:10:14Z</time>
      </trkpt>
      <trkpt lat="46.41235" lon="5.58831">
        <ele>428</ele>
        <time>2022-07-29T10:10:15Z</time>
      </trkpt>
      <trkpt lat="46.41232" lon="5.58833">
        <ele>428</ele>
        <time>2022-07-29T10:10:16Z</time>
      </trkpt>
      <trkpt lat="46.41229" lon="5.58835">
        <ele>428.2</ele>
        <time>2022-07-29T10:10:17Z</time>
      </trkpt>
      <trkpt lat="46.41226" lon="5.58837">
        <ele>428.2</ele>
        <time>2022-07-29T10:10:18Z</time>
      </trkpt>
      <trkpt lat="46.41223" lon="5.58839">
        <ele>428.6</ele>
        <time>2022-07-29T10:10:19Z</time>
      </trkpt>
      <trkpt lat="46.4122" lon="5.58841">
        <ele>428.6</ele>
        <time>2022-07-29T10:10:20Z</time>
      </trkpt>
      <trkpt lat="46.41217" lon="5.58843">
        <ele>428.6</ele>
        <time>2022-07-29T10:10:21Z</time>
      </trkpt>
      <trkpt lat="46.41214" lon="5.58846">
        <ele>428.8</ele>
        <time>2022-07-29T10:10:22Z</time>
      </trkpt>
      <trkpt lat="46.41211" lon="5.58848">
        <ele>428.8</ele>
        <time>2022-07-29T10:10:23Z</time>
      </trkpt>
      <trkpt lat="46.41207" lon="5.58851">
        <ele>428.8</ele>
        <time>2022-07-29T10:10:24Z</time>
      </trkpt>
      <trkpt lat="46.41204" lon="5.58853">
        <ele>428.8</ele>
        <time>2022-07-29T10:10:25Z</time>
      </trkpt>
      <trkpt lat="46.41201" lon="5.58856">
        <ele>429.2</ele>
        <time>2022-07-29T10:10:26Z</time>
      </trkpt>
      <trkpt lat="46.41198" lon="5.58859">
        <ele>429.2</ele>
        <time>2022-07-29T10:10:27Z</time>
      </trkpt>
      <trkpt lat="46.41194" lon="5.58862">
        <ele>429.2</ele>
        <time>2022-07-29T10:10:28Z</time>
      </trkpt>
      <trkpt lat="46.41191" lon="5.58865">
        <ele>429.2</ele>
        <time>2022-07-29T10:10:29Z</time>
      </trkpt>
      <trkpt lat="46.41188" lon="5.58868">
        <ele>429.4</ele>
        <time>2022-07-29T10:10:30Z</time>
      </trkpt>
      <trkpt lat="46.41185" lon="5.58871">
        <ele>429.4</ele>
        <time>2022-07-29T10:10:31Z</time>
      </trkpt>
      <trkpt lat="46.41182" lon="5.58874">
        <ele>429.4</ele>
        <time>2022-07-29T10:10:32Z</time>
      </trkpt>
      <trkpt lat="46.41179" lon="5.58877">
        <ele>429.8</ele>
        <time>2022-07-29T10:10:33Z</time>
      </trkpt>
      <trkpt lat="46.41177" lon="5.58881">
        <ele>430</ele>
        <time>2022-07-29T10:10:34Z</time>
      </trkpt>
      <trkpt lat="46.41175" lon="5.58885">
        <ele>430</ele>
        <time>2022-07-29T10:10:35Z</time>
      </trkpt>
      <trkpt lat="46.41173" lon="5.58888">
        <ele>430.2</ele>
        <time>2022-07-29T10:10:36Z</time>
      </trkpt>
      <trkpt lat="46.4117" lon="5.58891">
        <ele>430.2</ele>
        <time>2022-07-29T10:10:37Z</time>
      </trkpt>
      <trkpt lat="46.41168" lon="5.58894">
        <ele>430.6</ele>
        <time>2022-07-29T10:10:38Z</time>
      </trkpt>
      <trkpt lat="46.41165" lon="5.58897">
        <ele>430.6</ele>
        <time>2022-07-29T10:10:39Z</time>
      </trkpt>
      <trkpt lat="46.41162" lon="5.58899">
        <ele>430.8</ele>
        <time>2022-07-29T10:10:40Z</time>
      </trkpt>
      <trkpt lat="46.4116" lon="5.58902">
        <ele>430.8</ele>
        <time>2022-07-29T10:10:41Z</time>
      </trkpt>
      <trkpt lat="46.41157" lon="5.58905">
        <ele>431</ele>
        <time>2022-07-29T10:10:42Z</time>
      </trkpt>
      <trkpt lat="46.41154" lon="5.58907">
        <ele>431</ele>
        <time>2022-07-29T10:10:43Z</time>
      </trkpt>
      <trkpt lat="46.41151" lon="5.5891">
        <ele>431</ele>
        <time>2022-07-29T10:10:44Z</time>
      </trkpt>
      <trkpt lat="46.41148" lon="5.58913">
        <ele>431</ele>
        <time>2022-07-29T10:10:45Z</time>
      </trkpt>
      <trkpt lat="46.41145" lon="5.58916">
        <ele>431.4</ele>
        <time>2022-07-29T10:10:46Z</time>
      </trkpt>
      <trkpt lat="46.41142" lon="5.58918">
        <ele>431.4</ele>
        <time>2022-07-29T10:10:47Z</time>
      </trkpt>
      <trkpt lat="46.41139" lon="5.58921">
        <ele>431.4</ele>
        <time>2022-07-29T10:10:48Z</time>
      </trkpt>
      <trkpt lat="46.41136" lon="5.58924">
        <ele>431.6</ele>
        <time>2022-07-29T10:10:49Z</time>
      </trkpt>
      <trkpt lat="46.41133" lon="5.58927">
        <ele>431.6</ele>
        <time>2022-07-29T10:10:50Z</time>
      </trkpt>
      <trkpt lat="46.4113" lon="5.5893">
        <ele>431.8</ele>
        <time>2022-07-29T10:10:51Z</time>
      </trkpt>
      <trkpt lat="46.41127" lon="5.58932">
        <ele>431.8</ele>
        <time>2022-07-29T10:10:52Z</time>
      </trkpt>
      <trkpt lat="46.41124" lon="5.58934">
        <ele>432.2</ele>
        <time>2022-07-29T10:10:53Z</time>
      </trkpt>
      <trkpt lat="46.41121" lon="5.58935">
        <ele>432.2</ele>
        <time>2022-07-29T10:10:54Z</time>
      </trkpt>
      <trkpt lat="46.41118" lon="5.58936">
        <ele>432.4</ele>
        <time>2022-07-29T10:10:55Z</time>
      </trkpt>
      <trkpt lat="46.41114" lon="5.58937">
        <ele>432.6</ele>
        <time>2022-07-29T10:10:56Z</time>
      </trkpt>
      <trkpt lat="46.41111" lon="5.58938">
        <ele>432.6</ele>
        <time>2022-07-29T10:10:57Z</time>
      </trkpt>
      <trkpt lat="46.41108" lon="5.58939">
        <ele>433</ele>
        <time>2022-07-29T10:10:58Z</time>
      </trkpt>
      <trkpt lat="46.41104" lon="5.58939">
        <ele>433</ele>
        <time>2022-07-29T10:10:59Z</time>
      </trkpt>
      <trkpt lat="46.41101" lon="5.5894">
        <ele>433.2</ele>
        <time>2022-07-29T10:11:00Z</time>
      </trkpt>
      <trkpt lat="46.41098" lon="5.58939">
        <ele>433.2</ele>
        <time>2022-07-29T10:11:01Z</time>
      </trkpt>
      <trkpt lat="46.41095" lon="5.58939">
        <ele>433.6</ele>
        <time>2022-07-29T10:11:02Z</time>
      </trkpt>
      <trkpt lat="46.41091" lon="5.58939">
        <ele>433.6</ele>
        <time>2022-07-29T10:11:03Z</time>
      </trkpt>
      <trkpt lat="46.41088" lon="5.58938">
        <ele>433.8</ele>
        <time>2022-07-29T10:11:04Z</time>
      </trkpt>
      <trkpt lat="46.41085" lon="5.58938">
        <ele>433.8</ele>
        <time>2022-07-29T10:11:05Z</time>
      </trkpt>
      <trkpt lat="46.41081" lon="5.58939">
        <ele>434.2</ele>
        <time>2022-07-29T10:11:06Z</time>
      </trkpt>
      <trkpt lat="46.41078" lon="5.58939">
        <ele>434.4</ele>
        <time>2022-07-29T10:11:07Z</time>
      </trkpt>
      <trkpt lat="46.41075" lon="5.58939">
        <ele>434.6</ele>
        <time>2022-07-29T10:11:08Z</time>
      </trkpt>
      <trkpt lat="46.41071" lon="5.58938">
        <ele>434.8</ele>
        <time>2022-07-29T10:11:09Z</time>
      </trkpt>
      <trkpt lat="46.41068" lon="5.58938">
        <ele>435.2</ele>
        <time>2022-07-29T10:11:10Z</time>
      </trkpt>
      <trkpt lat="46.41065" lon="5.58937">
        <ele>435.4</ele>
        <time>2022-07-29T10:11:11Z</time>
      </trkpt>
      <trkpt lat="46.41062" lon="5.58936">
        <ele>435.6</ele>
        <time>2022-07-29T10:11:12Z</time>
      </trkpt>
      <trkpt lat="46.41059" lon="5.58935">
        <ele>435.6</ele>
        <time>2022-07-29T10:11:13Z</time>
      </trkpt>
      <trkpt lat="46.41056" lon="5.58934">
        <ele>436</ele>
        <time>2022-07-29T10:11:14Z</time>
      </trkpt>
      <trkpt lat="46.41053" lon="5.58933">
        <ele>436</ele>
        <time>2022-07-29T10:11:15Z</time>
      </trkpt>
      <trkpt lat="46.4105" lon="5.58932">
        <ele>436.4</ele>
        <time>2022-07-29T10:11:16Z</time>
      </trkpt>
      <trkpt lat="46.41046" lon="5.58931">
        <ele>436.6</ele>
        <time>2022-07-29T10:11:17Z</time>
      </trkpt>
      <trkpt lat="46.41043" lon="5.58929">
        <ele>436.6</ele>
        <time>2022-07-29T10:11:18Z</time>
      </trkpt>
      <trkpt lat="46.4104" lon="5.58927">
        <ele>436.8</ele>
        <time>2022-07-29T10:11:19Z</time>
      </trkpt>
      <trkpt lat="46.41037" lon="5.58925">
        <ele>436.8</ele>
        <time>2022-07-29T10:11:20Z</time>
      </trkpt>
      <trkpt lat="46.41034" lon="5.58923">
        <ele>437.2</ele>
        <time>2022-07-29T10:11:21Z</time>
      </trkpt>
      <trkpt lat="46.41031" lon="5.58921">
        <ele>437.2</ele>
        <time>2022-07-29T10:11:22Z</time>
      </trkpt>
      <trkpt lat="46.41028" lon="5.58919">
        <ele>437.4</ele>
        <time>2022-07-29T10:11:23Z</time>
      </trkpt>
      <trkpt lat="46.41025" lon="5.58917">
        <ele>437.4</ele>
        <time>2022-07-29T10:11:24Z</time>
      </trkpt>
      <trkpt lat="46.41022" lon="5.58915">
        <ele>437.8</ele>
        <time>2022-07-29T10:11:25Z</time>
      </trkpt>
      <trkpt lat="46.4102" lon="5.58913">
        <ele>438.2</ele>
        <time>2022-07-29T10:11:26Z</time>
      </trkpt>
      <trkpt lat="46.41017" lon="5.58911">
        <ele>438.2</ele>
        <time>2022-07-29T10:11:27Z</time>
      </trkpt>
      <trkpt lat="46.41015" lon="5.58909">
        <ele>438.4</ele>
        <time>2022-07-29T10:11:28Z</time>
      </trkpt>
      <trkpt lat="46.41013" lon="5.58908">
        <ele>438.4</ele>
        <time>2022-07-29T10:11:29Z</time>
      </trkpt>
      <trkpt lat="46.41011" lon="5.58906">
        <ele>438.8</ele>
        <time>2022-07-29T10:11:30Z</time>
      </trkpt>
      <trkpt lat="46.41009" lon="5.58903">
        <ele>439.2</ele>
        <time>2022-07-29T10:11:31Z</time>
      </trkpt>
      <trkpt lat="46.41007" lon="5.58901">
        <ele>439.2</ele>
        <time>2022-07-29T10:11:32Z</time>
      </trkpt>
      <trkpt lat="46.41005" lon="5.58898">
        <ele>439.6</ele>
        <time>2022-07-29T10:11:33Z</time>
      </trkpt>
      <trkpt lat="46.41002" lon="5.58896">
        <ele>439.8</ele>
        <time>2022-07-29T10:11:34Z</time>
      </trkpt>
      <trkpt lat="46.41" lon="5.58894">
        <ele>440</ele>
        <time>2022-07-29T10:11:35Z</time>
      </trkpt>
      <trkpt lat="46.40997" lon="5.58893">
        <ele>440.2</ele>
        <time>2022-07-29T10:11:36Z</time>
      </trkpt>
      <trkpt lat="46.40995" lon="5.58892">
        <ele>440.4</ele>
        <time>2022-07-29T10:11:37Z</time>
      </trkpt>
      <trkpt lat="46.40992" lon="5.5889">
        <ele>440.8</ele>
        <time>2022-07-29T10:11:38Z</time>
      </trkpt>
      <trkpt lat="46.4099" lon="5.58889">
        <ele>440.8</ele>
        <time>2022-07-29T10:11:39Z</time>
      </trkpt>
      <trkpt lat="46.40987" lon="5.58888">
        <ele>441.2</ele>
        <time>2022-07-29T10:11:40Z</time>
      </trkpt>
      <trkpt lat="46.40984" lon="5.58887">
        <ele>441.2</ele>
        <time>2022-07-29T10:11:41Z</time>
      </trkpt>
      <trkpt lat="46.40982" lon="5.58886">
        <ele>441.6</ele>
        <time>2022-07-29T10:11:42Z</time>
      </trkpt>
      <trkpt lat="46.40979" lon="5.58886">
        <ele>441.8</ele>
        <time>2022-07-29T10:11:43Z</time>
      </trkpt>
      <trkpt lat="46.40976" lon="5.58885">
        <ele>442</ele>
        <time>2022-07-29T10:11:44Z</time>
      </trkpt>
      <trkpt lat="46.40974" lon="5.58886">
        <ele>442.2</ele>
        <time>2022-07-29T10:11:45Z</time>
      </trkpt>
      <trkpt lat="46.40972" lon="5.58886">
        <ele>442.2</ele>
        <time>2022-07-29T10:11:46Z</time>
      </trkpt>
      <trkpt lat="46.4097" lon="5.58886">
        <ele>442.6</ele>
        <time>2022-07-29T10:11:47Z</time>
      </trkpt>
      <trkpt lat="46.40968" lon="5.58885">
        <ele>442.8</ele>
        <time>2022-07-29T10:11:48Z</time>
      </trkpt>
      <trkpt lat="46.40966" lon="5.58885">
        <ele>443</ele>
        <time>2022-07-29T10:11:49Z</time>
      </trkpt>
      <trkpt lat="46.40964" lon="5.58885">
        <ele>443.4</ele>
        <time>2022-07-29T10:11:50Z</time>
      </trkpt>
      <trkpt lat="46.40962" lon="5.58886">
        <ele>443.4</ele>
        <time>2022-07-29T10:11:51Z</time>
      </trkpt>
      <trkpt lat="46.40959" lon="5.58886">
        <ele>443.6</ele>
        <time>2022-07-29T10:11:52Z</time>
      </trkpt>
      <trkpt lat="46.40957" lon="5.58886">
        <ele>443.8</ele>
        <time>2022-07-29T10:11:53Z</time>
      </trkpt>
      <trkpt lat="46.40955" lon="5.58886">
        <ele>443.8</ele>
        <time>2022-07-29T10:11:54Z</time>
      </trkpt>
      <trkpt lat="46.40953" lon="5.58886">
        <ele>444.2</ele>
        <time>2022-07-29T10:11:55Z</time>
      </trkpt>
      <trkpt lat="46.40951" lon="5.58885">
        <ele>444.4</ele>
        <time>2022-07-29T10:11:56Z</time>
      </trkpt>
      <trkpt lat="46.40949" lon="5.58884">
        <ele>444.4</ele>
        <time>2022-07-29T10:11:57Z</time>
      </trkpt>
      <trkpt lat="46.40947" lon="5.58883">
        <ele>444.8</ele>
        <time>2022-07-29T10:11:58Z</time>
      </trkpt>
      <trkpt lat="46.40945" lon="5.58882">
        <ele>444.8</ele>
        <time>2022-07-29T10:11:59Z</time>
      </trkpt>
      <trkpt lat="46.40943" lon="5.58881">
        <ele>445.2</ele>
        <time>2022-07-29T10:12:00Z</time>
      </trkpt>
      <trkpt lat="46.40941" lon="5.5888">
        <ele>445.2</ele>
        <time>2022-07-29T10:12:01Z</time>
      </trkpt>
      <trkpt lat="46.40939" lon="5.58879">
        <ele>445.6</ele>
        <time>2022-07-29T10:12:02Z</time>
      </trkpt>
      <trkpt lat="46.40937" lon="5.58879">
        <ele>445.8</ele>
        <time>2022-07-29T10:12:03Z</time>
      </trkpt>
      <trkpt lat="46.40935" lon="5.58878">
        <ele>446.2</ele>
        <time>2022-07-29T10:12:04Z</time>
      </trkpt>
      <trkpt lat="46.40932" lon="5.58878">
        <ele>446.2</ele>
        <time>2022-07-29T10:12:05Z</time>
      </trkpt>
      <trkpt lat="46.4093" lon="5.58878">
        <ele>446.4</ele>
        <time>2022-07-29T10:12:06Z</time>
      </trkpt>
      <trkpt lat="46.40928" lon="5.58877">
        <ele>446.8</ele>
        <time>2022-07-29T10:12:07Z</time>
      </trkpt>
      <trkpt lat="46.40926" lon="5.58877">
        <ele>446.8</ele>
        <time>2022-07-29T10:12:08Z</time>
      </trkpt>
      <trkpt lat="46.40924" lon="5.58876">
        <ele>447.2</ele>
        <time>2022-07-29T10:12:09Z</time>
      </trkpt>
      <trkpt lat="46.40922" lon="5.58875">
        <ele>447.4</ele>
        <time>2022-07-29T10:12:10Z</time>
      </trkpt>
      <trkpt lat="46.4092" lon="5.58874">
        <ele>447.6</ele>
        <time>2022-07-29T10:12:11Z</time>
      </trkpt>
      <trkpt lat="46.40918" lon="5.58873">
        <ele>447.6</ele>
        <time>2022-07-29T10:12:12Z</time>
      </trkpt>
      <trkpt lat="46.40916" lon="5.58872">
        <ele>448</ele>
        <time>2022-07-29T10:12:13Z</time>
      </trkpt>
      <trkpt lat="46.40914" lon="5.58871">
        <ele>448.2</ele>
        <time>2022-07-29T10:12:14Z</time>
      </trkpt>
      <trkpt lat="46.40912" lon="5.58869">
        <ele>448.4</ele>
        <time>2022-07-29T10:12:15Z</time>
      </trkpt>
      <trkpt lat="46.4091" lon="5.58868">
        <ele>448.6</ele>
        <time>2022-07-29T10:12:16Z</time>
      </trkpt>
      <trkpt lat="46.40908" lon="5.58867">
        <ele>448.8</ele>
        <time>2022-07-29T10:12:17Z</time>
      </trkpt>
      <trkpt lat="46.40906" lon="5.58866">
        <ele>449</ele>
        <time>2022-07-29T10:12:18Z</time>
      </trkpt>
      <trkpt lat="46.40904" lon="5.58865">
        <ele>449</ele>
        <time>2022-07-29T10:12:19Z</time>
      </trkpt>
      <trkpt lat="46.40902" lon="5.58863">
        <ele>449.4</ele>
        <time>2022-07-29T10:12:20Z</time>
      </trkpt>
      <trkpt lat="46.409" lon="5.58862">
        <ele>449.4</ele>
        <time>2022-07-29T10:12:21Z</time>
      </trkpt>
      <trkpt lat="46.40898" lon="5.58861">
        <ele>449.8</ele>
        <time>2022-07-29T10:12:22Z</time>
      </trkpt>
      <trkpt lat="46.40896" lon="5.5886">
        <ele>450</ele>
        <time>2022-07-29T10:12:23Z</time>
      </trkpt>
      <trkpt lat="46.40894" lon="5.58859">
        <ele>450</ele>
        <time>2022-07-29T10:12:24Z</time>
      </trkpt>
      <trkpt lat="46.40893" lon="5.58857">
        <ele>450.2</ele>
        <time>2022-07-29T10:12:25Z</time>
      </trkpt>
      <trkpt lat="46.40891" lon="5.58856">
        <ele>450.6</ele>
        <time>2022-07-29T10:12:26Z</time>
      </trkpt>
      <trkpt lat="46.40889" lon="5.58855">
        <ele>450.8</ele>
        <time>2022-07-29T10:12:27Z</time>
      </trkpt>
      <trkpt lat="46.40887" lon="5.58853">
        <ele>451</ele>
        <time>2022-07-29T10:12:28Z</time>
      </trkpt>
      <trkpt lat="46.40885" lon="5.58852">
        <ele>451</ele>
        <time>2022-07-29T10:12:29Z</time>
      </trkpt>
      <trkpt lat="46.40882" lon="5.58852">
        <ele>451.4</ele>
        <time>2022-07-29T10:12:30Z</time>
      </trkpt>
      <trkpt lat="46.4088" lon="5.58851">
        <ele>451.4</ele>
        <time>2022-07-29T10:12:31Z</time>
      </trkpt>
      <trkpt lat="46.40878" lon="5.58851">
        <ele>451.8</ele>
        <time>2022-07-29T10:12:32Z</time>
      </trkpt>
      <trkpt lat="46.40875" lon="5.58851">
        <ele>452</ele>
        <time>2022-07-29T10:12:33Z</time>
      </trkpt>
      <trkpt lat="46.40873" lon="5.5885">
        <ele>452.2</ele>
        <time>2022-07-29T10:12:34Z</time>
      </trkpt>
      <trkpt lat="46.40871" lon="5.58849">
        <ele>452.4</ele>
        <time>2022-07-29T10:12:35Z</time>
      </trkpt>
      <trkpt lat="46.40869" lon="5.58849">
        <ele>452.4</ele>
        <time>2022-07-29T10:12:36Z</time>
      </trkpt>
      <trkpt lat="46.40867" lon="5.58848">
        <ele>453</ele>
        <time>2022-07-29T10:12:37Z</time>
      </trkpt>
      <trkpt lat="46.40864" lon="5.58848">
        <ele>453.2</ele>
        <time>2022-07-29T10:12:38Z</time>
      </trkpt>
      <trkpt lat="46.40862" lon="5.58848">
        <ele>453.4</ele>
        <time>2022-07-29T10:12:39Z</time>
      </trkpt>
      <trkpt lat="46.4086" lon="5.58847">
        <ele>453.6</ele>
        <time>2022-07-29T10:12:40Z</time>
      </trkpt>
      <trkpt lat="46.40858" lon="5.58846">
        <ele>453.8</ele>
        <time>2022-07-29T10:12:41Z</time>
      </trkpt>
      <trkpt lat="46.40855" lon="5.58846">
        <ele>453.8</ele>
        <time>2022-07-29T10:12:42Z</time>
      </trkpt>
      <trkpt lat="46.40853" lon="5.58845">
        <ele>454.2</ele>
        <time>2022-07-29T10:12:43Z</time>
      </trkpt>
      <trkpt lat="46.40851" lon="5.58845">
        <ele>454.4</ele>
        <time>2022-07-29T10:12:44Z</time>
      </trkpt>
      <trkpt lat="46.40849" lon="5.58844">
        <ele>454.8</ele>
        <time>2022-07-29T10:12:45Z</time>
      </trkpt>
      <trkpt lat="46.40847" lon="5.58844">
        <ele>455</ele>
        <time>2022-07-29T10:12:46Z</time>
      </trkpt>
      <trkpt lat="46.40845" lon="5.58843">
        <ele>455.2</ele>
        <time>2022-07-29T10:12:47Z</time>
      </trkpt>
      <trkpt lat="46.40842" lon="5.58843">
        <ele>455.2</ele>
        <time>2022-07-29T10:12:48Z</time>
      </trkpt>
      <trkpt lat="46.4084" lon="5.58842">
        <ele>455.6</ele>
        <time>2022-07-29T10:12:49Z</time>
      </trkpt>
      <trkpt lat="46.40838" lon="5.58841">
        <ele>455.8</ele>
        <time>2022-07-29T10:12:50Z</time>
      </trkpt>
      <trkpt lat="46.40836" lon="5.5884">
        <ele>456</ele>
        <time>2022-07-29T10:12:51Z</time>
      </trkpt>
      <trkpt lat="46.40833" lon="5.58839">
        <ele>456</ele>
        <time>2022-07-29T10:12:52Z</time>
      </trkpt>
      <trkpt lat="46.40831" lon="5.58838">
        <ele>456.4</ele>
        <time>2022-07-29T10:12:53Z</time>
      </trkpt>
      <trkpt lat="46.40829" lon="5.58837">
        <ele>456.8</ele>
        <time>2022-07-29T10:12:54Z</time>
      </trkpt>
      <trkpt lat="46.40827" lon="5.58837">
        <ele>457</ele>
        <time>2022-07-29T10:12:55Z</time>
      </trkpt>
      <trkpt lat="46.40824" lon="5.58836">
        <ele>457.2</ele>
        <time>2022-07-29T10:12:56Z</time>
      </trkpt>
      <trkpt lat="46.40822" lon="5.58835">
        <ele>457.2</ele>
        <time>2022-07-29T10:12:57Z</time>
      </trkpt>
      <trkpt lat="46.4082" lon="5.58834">
        <ele>457.6</ele>
        <time>2022-07-29T10:12:58Z</time>
      </trkpt>
      <trkpt lat="46.40817" lon="5.58833">
        <ele>457.6</ele>
        <time>2022-07-29T10:12:59Z</time>
      </trkpt>
      <trkpt lat="46.40815" lon="5.58832">
        <ele>457.8</ele>
        <time>2022-07-29T10:13:00Z</time>
      </trkpt>
      <trkpt lat="46.40813" lon="5.58831">
        <ele>457.8</ele>
        <time>2022-07-29T10:13:01Z</time>
      </trkpt>
      <trkpt lat="46.4081" lon="5.5883">
        <ele>458.2</ele>
        <time>2022-07-29T10:13:02Z</time>
      </trkpt>
      <trkpt lat="46.40808" lon="5.58829">
        <ele>458.2</ele>
        <time>2022-07-29T10:13:03Z</time>
      </trkpt>
      <trkpt lat="46.40806" lon="5.58827">
        <ele>458.4</ele>
        <time>2022-07-29T10:13:04Z</time>
      </trkpt>
      <trkpt lat="46.40804" lon="5.58826">
        <ele>458.4</ele>
        <time>2022-07-29T10:13:05Z</time>
      </trkpt>
      <trkpt lat="46.40801" lon="5.58824">
        <ele>458.6</ele>
        <time>2022-07-29T10:13:06Z</time>
      </trkpt>
      <trkpt lat="46.40799" lon="5.58823">
        <ele>458.6</ele>
        <time>2022-07-29T10:13:07Z</time>
      </trkpt>
      <trkpt lat="46.40796" lon="5.58822">
        <ele>458.6</ele>
        <time>2022-07-29T10:13:08Z</time>
      </trkpt>
      <trkpt lat="46.40794" lon="5.5882">
        <ele>459</ele>
        <time>2022-07-29T10:13:09Z</time>
      </trkpt>
      <trkpt lat="46.40791" lon="5.58819">
        <ele>459</ele>
        <time>2022-07-29T10:13:10Z</time>
      </trkpt>
      <trkpt lat="46.40789" lon="5.58816">
        <ele>459</ele>
        <time>2022-07-29T10:13:11Z</time>
      </trkpt>
      <trkpt lat="46.40786" lon="5.58815">
        <ele>459</ele>
        <time>2022-07-29T10:13:12Z</time>
      </trkpt>
      <trkpt lat="46.40783" lon="5.58813">
        <ele>459</ele>
        <time>2022-07-29T10:13:13Z</time>
      </trkpt>
      <trkpt lat="46.4078" lon="5.58811">
        <ele>459</ele>
        <time>2022-07-29T10:13:14Z</time>
      </trkpt>
      <trkpt lat="46.40777" lon="5.5881">
        <ele>459</ele>
        <time>2022-07-29T10:13:15Z</time>
      </trkpt>
      <trkpt lat="46.40774" lon="5.58809">
        <ele>459</ele>
        <time>2022-07-29T10:13:16Z</time>
      </trkpt>
      <trkpt lat="46.40772" lon="5.58807">
        <ele>459.2</ele>
        <time>2022-07-29T10:13:17Z</time>
      </trkpt>
      <trkpt lat="46.40769" lon="5.58805">
        <ele>459.2</ele>
        <time>2022-07-29T10:13:18Z</time>
      </trkpt>
      <trkpt lat="46.40766" lon="5.58803">
        <ele>459.2</ele>
        <time>2022-07-29T10:13:19Z</time>
      </trkpt>
      <trkpt lat="46.40764" lon="5.588">
        <ele>459.2</ele>
        <time>2022-07-29T10:13:20Z</time>
      </trkpt>
      <trkpt lat="46.40761" lon="5.58798">
        <ele>459.2</ele>
        <time>2022-07-29T10:13:21Z</time>
      </trkpt>
      <trkpt lat="46.40758" lon="5.58795">
        <ele>459.2</ele>
        <time>2022-07-29T10:13:22Z</time>
      </trkpt>
      <trkpt lat="46.40754" lon="5.58793">
        <ele>459.2</ele>
        <time>2022-07-29T10:13:23Z</time>
      </trkpt>
      <trkpt lat="46.4075" lon="5.5879">
        <ele>459</ele>
        <time>2022-07-29T10:13:24Z</time>
      </trkpt>
      <trkpt lat="46.40747" lon="5.58786">
        <ele>459</ele>
        <time>2022-07-29T10:13:25Z</time>
      </trkpt>
      <trkpt lat="46.40743" lon="5.58783">
        <ele>459</ele>
        <time>2022-07-29T10:13:26Z</time>
      </trkpt>
      <trkpt lat="46.4074" lon="5.58779">
        <ele>459</ele>
        <time>2022-07-29T10:13:27Z</time>
      </trkpt>
      <trkpt lat="46.40737" lon="5.58775">
        <ele>458.6</ele>
        <time>2022-07-29T10:13:28Z</time>
      </trkpt>
      <trkpt lat="46.40733" lon="5.5877">
        <ele>458.6</ele>
        <time>2022-07-29T10:13:29Z</time>
      </trkpt>
      <trkpt lat="46.4073" lon="5.58765">
        <ele>458.4</ele>
        <time>2022-07-29T10:13:30Z</time>
      </trkpt>
      <trkpt lat="46.40727" lon="5.5876">
        <ele>458.4</ele>
        <time>2022-07-29T10:13:31Z</time>
      </trkpt>
      <trkpt lat="46.40723" lon="5.58756">
        <ele>458.4</ele>
        <time>2022-07-29T10:13:32Z</time>
      </trkpt>
      <trkpt lat="46.40719" lon="5.58752">
        <ele>458</ele>
        <time>2022-07-29T10:13:33Z</time>
      </trkpt>
      <trkpt lat="46.40715" lon="5.58747">
        <ele>458</ele>
        <time>2022-07-29T10:13:34Z</time>
      </trkpt>
      <trkpt lat="46.40711" lon="5.58743">
        <ele>458</ele>
        <time>2022-07-29T10:13:35Z</time>
      </trkpt>
      <trkpt lat="46.40707" lon="5.58738">
        <ele>458</ele>
        <time>2022-07-29T10:13:36Z</time>
      </trkpt>
      <trkpt lat="46.40703" lon="5.58733">
        <ele>458</ele>
        <time>2022-07-29T10:13:37Z</time>
      </trkpt>
      <trkpt lat="46.40699" lon="5.58728">
        <ele>458</ele>
        <time>2022-07-29T10:13:38Z</time>
      </trkpt>
      <trkpt lat="46.40694" lon="5.58724">
        <ele>458</ele>
        <time>2022-07-29T10:13:39Z</time>
      </trkpt>
      <trkpt lat="46.4069" lon="5.5872">
        <ele>458</ele>
        <time>2022-07-29T10:13:40Z</time>
      </trkpt>
      <trkpt lat="46.40686" lon="5.58717">
        <ele>458</ele>
        <time>2022-07-29T10:13:41Z</time>
      </trkpt>
      <trkpt lat="46.40681" lon="5.58713">
        <ele>458</ele>
        <time>2022-07-29T10:13:42Z</time>
      </trkpt>
      <trkpt lat="46.40677" lon="5.5871">
        <ele>458</ele>
        <time>2022-07-29T10:13:43Z</time>
      </trkpt>
      <trkpt lat="46.40672" lon="5.58708">
        <ele>458</ele>
        <time>2022-07-29T10:13:44Z</time>
      </trkpt>
      <trkpt lat="46.40666" lon="5.58706">
        <ele>458</ele>
        <time>2022-07-29T10:13:45Z</time>
      </trkpt>
      <trkpt lat="46.40661" lon="5.58705">
        <ele>458</ele>
        <time>2022-07-29T10:13:46Z</time>
      </trkpt>
      <trkpt lat="46.40656" lon="5.58705">
        <ele>458</ele>
        <time>2022-07-29T10:13:47Z</time>
      </trkpt>
      <trkpt lat="46.4065" lon="5.58706">
        <ele>458</ele>
        <time>2022-07-29T10:13:48Z</time>
      </trkpt>
      <trkpt lat="46.40645" lon="5.58708">
        <ele>458</ele>
        <time>2022-07-29T10:13:49Z</time>
      </trkpt>
      <trkpt lat="46.4064" lon="5.5871">
        <ele>458</ele>
        <time>2022-07-29T10:13:50Z</time>
      </trkpt>
      <trkpt lat="46.40636" lon="5.58712">
        <ele>458</ele>
        <time>2022-07-29T10:13:51Z</time>
      </trkpt>
      <trkpt lat="46.40636" lon="5.58712">
        <ele>458.2</ele>
        <time>2022-07-29T10:13:52Z</time>
      </trkpt>
      <trkpt lat="46.40632" lon="5.58715">
        <ele>458.2</ele>
        <time>2022-07-29T10:13:53Z</time>
      </trkpt>
      <trkpt lat="46.40628" lon="5.58718">
        <ele>458.6</ele>
        <time>2022-07-29T10:13:54Z</time>
      </trkpt>
      <trkpt lat="46.40624" lon="5.5872">
        <ele>458.8</ele>
        <time>2022-07-29T10:13:55Z</time>
      </trkpt>
      <trkpt lat="46.40621" lon="5.58723">
        <ele>459</ele>
        <time>2022-07-29T10:13:56Z</time>
      </trkpt>
      <trkpt lat="46.40618" lon="5.58727">
        <ele>459.2</ele>
        <time>2022-07-29T10:13:57Z</time>
      </trkpt>
      <trkpt lat="46.40616" lon="5.5873">
        <ele>459.6</ele>
        <time>2022-07-29T10:13:58Z</time>
      </trkpt>
      <trkpt lat="46.40615" lon="5.58734">
        <ele>459.8</ele>
        <time>2022-07-29T10:13:59Z</time>
      </trkpt>
      <trkpt lat="46.40613" lon="5.58738">
        <ele>460</ele>
        <time>2022-07-29T10:14:00Z</time>
      </trkpt>
      <trkpt lat="46.40611" lon="5.58741">
        <ele>460</ele>
        <time>2022-07-29T10:14:01Z</time>
      </trkpt>
      <trkpt lat="46.40609" lon="5.58743">
        <ele>460.4</ele>
        <time>2022-07-29T10:14:02Z</time>
      </trkpt>
      <trkpt lat="46.40607" lon="5.58746">
        <ele>460.6</ele>
        <time>2022-07-29T10:14:03Z</time>
      </trkpt>
      <trkpt lat="46.40605" lon="5.58749">
        <ele>460.8</ele>
        <time>2022-07-29T10:14:04Z</time>
      </trkpt>
      <trkpt lat="46.40604" lon="5.58753">
        <ele>460.8</ele>
        <time>2022-07-29T10:14:05Z</time>
      </trkpt>
      <trkpt lat="46.40602" lon="5.58756">
        <ele>461.2</ele>
        <time>2022-07-29T10:14:06Z</time>
      </trkpt>
      <trkpt lat="46.406" lon="5.5876">
        <ele>461.2</ele>
        <time>2022-07-29T10:14:07Z</time>
      </trkpt>
      <trkpt lat="46.40599" lon="5.58763">
        <ele>461.4</ele>
        <time>2022-07-29T10:14:08Z</time>
      </trkpt>
      <trkpt lat="46.40597" lon="5.58767">
        <ele>461.4</ele>
        <time>2022-07-29T10:14:09Z</time>
      </trkpt>
      <trkpt lat="46.40595" lon="5.5877">
        <ele>461.8</ele>
        <time>2022-07-29T10:14:10Z</time>
      </trkpt>
      <trkpt lat="46.40594" lon="5.58774">
        <ele>461.8</ele>
        <time>2022-07-29T10:14:11Z</time>
      </trkpt>
      <trkpt lat="46.40592" lon="5.58778">
        <ele>462</ele>
        <time>2022-07-29T10:14:12Z</time>
      </trkpt>
      <trkpt lat="46.40591" lon="5.58781">
        <ele>462</ele>
        <time>2022-07-29T10:14:13Z</time>
      </trkpt>
      <trkpt lat="46.40589" lon="5.58785">
        <ele>462.4</ele>
        <time>2022-07-29T10:14:14Z</time>
      </trkpt>
      <trkpt lat="46.40587" lon="5.58788">
        <ele>462.4</ele>
        <time>2022-07-29T10:14:15Z</time>
      </trkpt>
      <trkpt lat="46.40585" lon="5.58792">
        <ele>462.4</ele>
        <time>2022-07-29T10:14:16Z</time>
      </trkpt>
      <trkpt lat="46.40583" lon="5.58796">
        <ele>462.6</ele>
        <time>2022-07-29T10:14:17Z</time>
      </trkpt>
      <trkpt lat="46.40582" lon="5.588">
        <ele>462.6</ele>
        <time>2022-07-29T10:14:18Z</time>
      </trkpt>
      <trkpt lat="46.4058" lon="5.58804">
        <ele>462.6</ele>
        <time>2022-07-29T10:14:19Z</time>
      </trkpt>
      <trkpt lat="46.40577" lon="5.58808">
        <ele>462.6</ele>
        <time>2022-07-29T10:14:20Z</time>
      </trkpt>
      <trkpt lat="46.40575" lon="5.58812">
        <ele>462.8</ele>
        <time>2022-07-29T10:14:21Z</time>
      </trkpt>
      <trkpt lat="46.40573" lon="5.58816">
        <ele>462.8</ele>
        <time>2022-07-29T10:14:22Z</time>
      </trkpt>
      <trkpt lat="46.40571" lon="5.5882">
        <ele>463</ele>
        <time>2022-07-29T10:14:23Z</time>
      </trkpt>
      <trkpt lat="46.40569" lon="5.58825">
        <ele>463</ele>
        <time>2022-07-29T10:14:24Z</time>
      </trkpt>
      <trkpt lat="46.40567" lon="5.58829">
        <ele>463</ele>
        <time>2022-07-29T10:14:25Z</time>
      </trkpt>
      <trkpt lat="46.40565" lon="5.58834">
        <ele>463.4</ele>
        <time>2022-07-29T10:14:26Z</time>
      </trkpt>
      <trkpt lat="46.40563" lon="5.58838">
        <ele>463.4</ele>
        <time>2022-07-29T10:14:27Z</time>
      </trkpt>
      <trkpt lat="46.40561" lon="5.58842">
        <ele>463.4</ele>
        <time>2022-07-29T10:14:28Z</time>
      </trkpt>
      <trkpt lat="46.40559" lon="5.58847">
        <ele>463.4</ele>
        <time>2022-07-29T10:14:29Z</time>
      </trkpt>
      <trkpt lat="46.40557" lon="5.58851">
        <ele>463.6</ele>
        <time>2022-07-29T10:14:30Z</time>
      </trkpt>
      <trkpt lat="46.40555" lon="5.58856">
        <ele>463.6</ele>
        <time>2022-07-29T10:14:31Z</time>
      </trkpt>
      <trkpt lat="46.40553" lon="5.5886">
        <ele>463.8</ele>
        <time>2022-07-29T10:14:32Z</time>
      </trkpt>
      <trkpt lat="46.40551" lon="5.58865">
        <ele>463.8</ele>
        <time>2022-07-29T10:14:33Z</time>
      </trkpt>
      <trkpt lat="46.40549" lon="5.58869">
        <ele>464.2</ele>
        <time>2022-07-29T10:14:34Z</time>
      </trkpt>
      <trkpt lat="46.40547" lon="5.58873">
        <ele>464.2</ele>
        <time>2022-07-29T10:14:35Z</time>
      </trkpt>
      <trkpt lat="46.40545" lon="5.58877">
        <ele>464.4</ele>
        <time>2022-07-29T10:14:36Z</time>
      </trkpt>
      <trkpt lat="46.40543" lon="5.58881">
        <ele>464.6</ele>
        <time>2022-07-29T10:14:37Z</time>
      </trkpt>
      <trkpt lat="46.40542" lon="5.58884">
        <ele>464.6</ele>
        <time>2022-07-29T10:14:38Z</time>
      </trkpt>
      <trkpt lat="46.4054" lon="5.58888">
        <ele>464.8</ele>
        <time>2022-07-29T10:14:39Z</time>
      </trkpt>
      <trkpt lat="46.40539" lon="5.58892">
        <ele>464.8</ele>
        <time>2022-07-29T10:14:40Z</time>
      </trkpt>
      <trkpt lat="46.40537" lon="5.58896">
        <ele>465.2</ele>
        <time>2022-07-29T10:14:41Z</time>
      </trkpt>
      <trkpt lat="46.40536" lon="5.589">
        <ele>465.2</ele>
        <time>2022-07-29T10:14:42Z</time>
      </trkpt>
      <trkpt lat="46.40534" lon="5.58903">
        <ele>465.6</ele>
        <time>2022-07-29T10:14:43Z</time>
      </trkpt>
      <trkpt lat="46.40532" lon="5.58907">
        <ele>465.6</ele>
        <time>2022-07-29T10:14:44Z</time>
      </trkpt>
      <trkpt lat="46.4053" lon="5.58909">
        <ele>466</ele>
        <time>2022-07-29T10:14:45Z</time>
      </trkpt>
      <trkpt lat="46.40528" lon="5.58912">
        <ele>466.2</ele>
        <time>2022-07-29T10:14:46Z</time>
      </trkpt>
      <trkpt lat="46.40526" lon="5.58913">
        <ele>466.6</ele>
        <time>2022-07-29T10:14:47Z</time>
      </trkpt>
      <trkpt lat="46.40524" lon="5.58913">
        <ele>466.8</ele>
        <time>2022-07-29T10:14:48Z</time>
      </trkpt>
      <trkpt lat="46.40522" lon="5.58911">
        <ele>467</ele>
        <time>2022-07-29T10:14:49Z</time>
      </trkpt>
      <trkpt lat="46.4052" lon="5.58908">
        <ele>467</ele>
        <time>2022-07-29T10:14:50Z</time>
      </trkpt>
      <trkpt lat="46.40519" lon="5.58905">
        <ele>467.2</ele>
        <time>2022-07-29T10:14:51Z</time>
      </trkpt>
      <trkpt lat="46.40518" lon="5.58901">
        <ele>467.2</ele>
        <time>2022-07-29T10:14:52Z</time>
      </trkpt>
      <trkpt lat="46.40517" lon="5.58897">
        <ele>467.6</ele>
        <time>2022-07-29T10:14:53Z</time>
      </trkpt>
      <trkpt lat="46.40516" lon="5.58892">
        <ele>467.6</ele>
        <time>2022-07-29T10:14:54Z</time>
      </trkpt>
      <trkpt lat="46.40515" lon="5.58888">
        <ele>467.8</ele>
        <time>2022-07-29T10:14:55Z</time>
      </trkpt>
      <trkpt lat="46.40515" lon="5.58884">
        <ele>467.8</ele>
        <time>2022-07-29T10:14:56Z</time>
      </trkpt>
      <trkpt lat="46.40514" lon="5.5888">
        <ele>468.2</ele>
        <time>2022-07-29T10:14:57Z</time>
      </trkpt>
      <trkpt lat="46.40513" lon="5.58875">
        <ele>468.4</ele>
        <time>2022-07-29T10:14:58Z</time>
      </trkpt>
      <trkpt lat="46.40512" lon="5.58871">
        <ele>468.4</ele>
        <time>2022-07-29T10:14:59Z</time>
      </trkpt>
      <trkpt lat="46.40511" lon="5.58866">
        <ele>468.8</ele>
        <time>2022-07-29T10:15:00Z</time>
      </trkpt>
      <trkpt lat="46.40511" lon="5.58862">
        <ele>469</ele>
        <time>2022-07-29T10:15:01Z</time>
      </trkpt>
      <trkpt lat="46.4051" lon="5.58858">
        <ele>469.2</ele>
        <time>2022-07-29T10:15:02Z</time>
      </trkpt>
      <trkpt lat="46.4051" lon="5.58855">
        <ele>469.4</ele>
        <time>2022-07-29T10:15:03Z</time>
      </trkpt>
      <trkpt lat="46.4051" lon="5.58851">
        <ele>469.6</ele>
        <time>2022-07-29T10:15:04Z</time>
      </trkpt>
      <trkpt lat="46.40509" lon="5.58847">
        <ele>470</ele>
        <time>2022-07-29T10:15:05Z</time>
      </trkpt>
      <trkpt lat="46.40509" lon="5.58842">
        <ele>470</ele>
        <time>2022-07-29T10:15:06Z</time>
      </trkpt>
      <trkpt lat="46.40509" lon="5.58838">
        <ele>470.4</ele>
        <time>2022-07-29T10:15:07Z</time>
      </trkpt>
      <trkpt lat="46.40509" lon="5.58834">
        <ele>470.6</ele>
        <time>2022-07-29T10:15:08Z</time>
      </trkpt>
      <trkpt lat="46.40509" lon="5.5883">
        <ele>470.8</ele>
        <time>2022-07-29T10:15:09Z</time>
      </trkpt>
      <trkpt lat="46.40509" lon="5.58826">
        <ele>471.2</ele>
        <time>2022-07-29T10:15:10Z</time>
      </trkpt>
      <trkpt lat="46.4051" lon="5.58822">
        <ele>471.4</ele>
        <time>2022-07-29T10:15:11Z</time>
      </trkpt>
      <trkpt lat="46.4051" lon="5.58818">
        <ele>471.8</ele>
        <time>2022-07-29T10:15:12Z</time>
      </trkpt>
      <trkpt lat="46.40511" lon="5.58813">
        <ele>472</ele>
        <time>2022-07-29T10:15:13Z</time>
      </trkpt>
      <trkpt lat="46.40511" lon="5.58809">
        <ele>472</ele>
        <time>2022-07-29T10:15:14Z</time>
      </trkpt>
      <trkpt lat="46.40511" lon="5.58805">
        <ele>472.4</ele>
        <time>2022-07-29T10:15:15Z</time>
      </trkpt>
      <trkpt lat="46.40511" lon="5.58801">
        <ele>472.6</ele>
        <time>2022-07-29T10:15:16Z</time>
      </trkpt>
      <trkpt lat="46.40512" lon="5.58797">
        <ele>472.8</ele>
        <time>2022-07-29T10:15:17Z</time>
      </trkpt>
      <trkpt lat="46.40512" lon="5.58792">
        <ele>473.2</ele>
        <time>2022-07-29T10:15:18Z</time>
      </trkpt>
      <trkpt lat="46.40512" lon="5.58788">
        <ele>473.2</ele>
        <time>2022-07-29T10:15:19Z</time>
      </trkpt>
      <trkpt lat="46.40512" lon="5.58784">
        <ele>473.6</ele>
        <time>2022-07-29T10:15:20Z</time>
      </trkpt>
      <trkpt lat="46.40512" lon="5.5878">
        <ele>473.8</ele>
        <time>2022-07-29T10:15:21Z</time>
      </trkpt>
      <trkpt lat="46.40512" lon="5.58776">
        <ele>474</ele>
        <time>2022-07-29T10:15:22Z</time>
      </trkpt>
      <trkpt lat="46.40511" lon="5.58772">
        <ele>474</ele>
        <time>2022-07-29T10:15:23Z</time>
      </trkpt>
      <trkpt lat="46.4051" lon="5.58769">
        <ele>474.4</ele>
        <time>2022-07-29T10:15:24Z</time>
      </trkpt>
      <trkpt lat="46.4051" lon="5.58766">
        <ele>474.6</ele>
        <time>2022-07-29T10:15:25Z</time>
      </trkpt>
      <trkpt lat="46.40509" lon="5.58762">
        <ele>474.6</ele>
        <time>2022-07-29T10:15:26Z</time>
      </trkpt>
      <trkpt lat="46.40509" lon="5.58759">
        <ele>475</ele>
        <time>2022-07-29T10:15:27Z</time>
      </trkpt>
      <trkpt lat="46.40508" lon="5.58755">
        <ele>475.2</ele>
        <time>2022-07-29T10:15:28Z</time>
      </trkpt>
      <trkpt lat="46.40508" lon="5.58752">
        <ele>475.4</ele>
        <time>2022-07-29T10:15:29Z</time>
      </trkpt>
      <trkpt lat="46.40507" lon="5.58749">
        <ele>475.4</ele>
        <time>2022-07-29T10:15:30Z</time>
      </trkpt>
      <trkpt lat="46.40506" lon="5.58746">
        <ele>475.6</ele>
        <time>2022-07-29T10:15:31Z</time>
      </trkpt>
      <trkpt lat="46.40505" lon="5.58743">
        <ele>475.6</ele>
        <time>2022-07-29T10:15:32Z</time>
      </trkpt>
      <trkpt lat="46.40504" lon="5.5874">
        <ele>476</ele>
        <time>2022-07-29T10:15:33Z</time>
      </trkpt>
      <trkpt lat="46.40503" lon="5.58738">
        <ele>476</ele>
        <time>2022-07-29T10:15:34Z</time>
      </trkpt>
      <trkpt lat="46.40502" lon="5.58735">
        <ele>476.4</ele>
        <time>2022-07-29T10:15:35Z</time>
      </trkpt>
      <trkpt lat="46.40501" lon="5.58733">
        <ele>476.4</ele>
        <time>2022-07-29T10:15:36Z</time>
      </trkpt>
      <trkpt lat="46.405" lon="5.5873">
        <ele>476.6</ele>
        <time>2022-07-29T10:15:37Z</time>
      </trkpt>
      <trkpt lat="46.40499" lon="5.58727">
        <ele>476.6</ele>
        <time>2022-07-29T10:15:38Z</time>
      </trkpt>
      <trkpt lat="46.40498" lon="5.58724">
        <ele>477</ele>
        <time>2022-07-29T10:15:39Z</time>
      </trkpt>
      <trkpt lat="46.40497" lon="5.58721">
        <ele>477</ele>
        <time>2022-07-29T10:15:40Z</time>
      </trkpt>
      <trkpt lat="46.40496" lon="5.58718">
        <ele>477.4</ele>
        <time>2022-07-29T10:15:41Z</time>
      </trkpt>
      <trkpt lat="46.40494" lon="5.58715">
        <ele>477.4</ele>
        <time>2022-07-29T10:15:42Z</time>
      </trkpt>
      <trkpt lat="46.40493" lon="5.58713">
        <ele>477.6</ele>
        <time>2022-07-29T10:15:43Z</time>
      </trkpt>
      <trkpt lat="46.40492" lon="5.5871">
        <ele>477.6</ele>
        <time>2022-07-29T10:15:44Z</time>
      </trkpt>
      <trkpt lat="46.4049" lon="5.58708">
        <ele>477.8</ele>
        <time>2022-07-29T10:15:45Z</time>
      </trkpt>
      <trkpt lat="46.40489" lon="5.58705">
        <ele>477.8</ele>
        <time>2022-07-29T10:15:46Z</time>
      </trkpt>
      <trkpt lat="46.40488" lon="5.58702">
        <ele>478.2</ele>
        <time>2022-07-29T10:15:47Z</time>
      </trkpt>
      <trkpt lat="46.40486" lon="5.587">
        <ele>478.2</ele>
        <time>2022-07-29T10:15:48Z</time>
      </trkpt>
      <trkpt lat="46.40485" lon="5.58697">
        <ele>478.6</ele>
        <time>2022-07-29T10:15:49Z</time>
      </trkpt>
      <trkpt lat="46.40483" lon="5.58695">
        <ele>478.8</ele>
        <time>2022-07-29T10:15:50Z</time>
      </trkpt>
      <trkpt lat="46.40482" lon="5.58693">
        <ele>478.8</ele>
        <time>2022-07-29T10:15:51Z</time>
      </trkpt>
      <trkpt lat="46.40481" lon="5.5869">
        <ele>479.2</ele>
        <time>2022-07-29T10:15:52Z</time>
      </trkpt>
      <trkpt lat="46.4048" lon="5.58688">
        <ele>479.2</ele>
        <time>2022-07-29T10:15:53Z</time>
      </trkpt>
      <trkpt lat="46.40478" lon="5.58686">
        <ele>479.6</ele>
        <time>2022-07-29T10:15:54Z</time>
      </trkpt>
      <trkpt lat="46.40477" lon="5.58683">
        <ele>479.6</ele>
        <time>2022-07-29T10:15:55Z</time>
      </trkpt>
      <trkpt lat="46.40475" lon="5.58681">
        <ele>479.8</ele>
        <time>2022-07-29T10:15:56Z</time>
      </trkpt>
      <trkpt lat="46.40474" lon="5.58678">
        <ele>479.8</ele>
        <time>2022-07-29T10:15:57Z</time>
      </trkpt>
      <trkpt lat="46.40473" lon="5.58676">
        <ele>480.2</ele>
        <time>2022-07-29T10:15:58Z</time>
      </trkpt>
      <trkpt lat="46.40471" lon="5.58673">
        <ele>480.4</ele>
        <time>2022-07-29T10:15:59Z</time>
      </trkpt>
      <trkpt lat="46.40468" lon="5.58667">
        <ele>480.4</ele>
        <time>2022-07-29T10:16:00Z</time>
      </trkpt>
      <trkpt lat="46.40467" lon="5.58663">
        <ele>480.4</ele>
        <time>2022-07-29T10:16:01Z</time>
      </trkpt>
      <trkpt lat="46.40466" lon="5.5866">
        <ele>480.8</ele>
        <time>2022-07-29T10:16:02Z</time>
      </trkpt>
      <trkpt lat="46.40464" lon="5.58656">
        <ele>480.8</ele>
        <time>2022-07-29T10:16:03Z</time>
      </trkpt>
      <trkpt lat="46.40463" lon="5.58652">
        <ele>480.8</ele>
        <time>2022-07-29T10:16:04Z</time>
      </trkpt>
      <trkpt lat="46.40463" lon="5.58648">
        <ele>480.8</ele>
        <time>2022-07-29T10:16:05Z</time>
      </trkpt>
      <trkpt lat="46.40461" lon="5.58644">
        <ele>481</ele>
        <time>2022-07-29T10:16:06Z</time>
      </trkpt>
      <trkpt lat="46.4046" lon="5.58639">
        <ele>481</ele>
        <time>2022-07-29T10:16:07Z</time>
      </trkpt>
      <trkpt lat="46.40459" lon="5.58635">
        <ele>481</ele>
        <time>2022-07-29T10:16:08Z</time>
      </trkpt>
      <trkpt lat="46.40458" lon="5.5863">
        <ele>481</ele>
        <time>2022-07-29T10:16:09Z</time>
      </trkpt>
      <trkpt lat="46.40457" lon="5.58624">
        <ele>481</ele>
        <time>2022-07-29T10:16:10Z</time>
      </trkpt>
      <trkpt lat="46.40456" lon="5.58618">
        <ele>480.8</ele>
        <time>2022-07-29T10:16:11Z</time>
      </trkpt>
      <trkpt lat="46.40455" lon="5.58611">
        <ele>480.8</ele>
        <time>2022-07-29T10:16:12Z</time>
      </trkpt>
      <trkpt lat="46.40454" lon="5.58604">
        <ele>480.8</ele>
        <time>2022-07-29T10:16:13Z</time>
      </trkpt>
      <trkpt lat="46.40454" lon="5.58596">
        <ele>480.6</ele>
        <time>2022-07-29T10:16:14Z</time>
      </trkpt>
      <trkpt lat="46.40453" lon="5.58589">
        <ele>480.6</ele>
        <time>2022-07-29T10:16:15Z</time>
      </trkpt>
      <trkpt lat="46.40453" lon="5.58581">
        <ele>480.6</ele>
        <time>2022-07-29T10:16:16Z</time>
      </trkpt>
      <trkpt lat="46.40453" lon="5.58574">
        <ele>480.4</ele>
        <time>2022-07-29T10:16:17Z</time>
      </trkpt>
      <trkpt lat="46.40453" lon="5.58567">
        <ele>480.4</ele>
        <time>2022-07-29T10:16:18Z</time>
      </trkpt>
      <trkpt lat="46.40453" lon="5.58559">
        <ele>480.4</ele>
        <time>2022-07-29T10:16:19Z</time>
      </trkpt>
      <trkpt lat="46.40453" lon="5.58552">
        <ele>480.4</ele>
        <time>2022-07-29T10:16:20Z</time>
      </trkpt>
      <trkpt lat="46.40452" lon="5.58545">
        <ele>480.6</ele>
        <time>2022-07-29T10:16:21Z</time>
      </trkpt>
      <trkpt lat="46.40452" lon="5.58539">
        <ele>480.6</ele>
        <time>2022-07-29T10:16:22Z</time>
      </trkpt>
      <trkpt lat="46.40452" lon="5.58532">
        <ele>480.8</ele>
        <time>2022-07-29T10:16:23Z</time>
      </trkpt>
      <trkpt lat="46.40452" lon="5.58526">
        <ele>480.8</ele>
        <time>2022-07-29T10:16:24Z</time>
      </trkpt>
      <trkpt lat="46.40452" lon="5.5852">
        <ele>481.2</ele>
        <time>2022-07-29T10:16:25Z</time>
      </trkpt>
      <trkpt lat="46.40452" lon="5.58515">
        <ele>481.4</ele>
        <time>2022-07-29T10:16:26Z</time>
      </trkpt>
      <trkpt lat="46.40452" lon="5.5851">
        <ele>481.6</ele>
        <time>2022-07-29T10:16:27Z</time>
      </trkpt>
      <trkpt lat="46.40451" lon="5.58505">
        <ele>482</ele>
        <time>2022-07-29T10:16:28Z</time>
      </trkpt>
      <trkpt lat="46.40451" lon="5.58501">
        <ele>482</ele>
        <time>2022-07-29T10:16:29Z</time>
      </trkpt>
      <trkpt lat="46.4045" lon="5.58497">
        <ele>482.4</ele>
        <time>2022-07-29T10:16:30Z</time>
      </trkpt>
      <trkpt lat="46.40449" lon="5.58493">
        <ele>482.6</ele>
        <time>2022-07-29T10:16:31Z</time>
      </trkpt>
      <trkpt lat="46.40448" lon="5.58489">
        <ele>483</ele>
        <time>2022-07-29T10:16:32Z</time>
      </trkpt>
      <trkpt lat="46.40447" lon="5.58485">
        <ele>483.2</ele>
        <time>2022-07-29T10:16:33Z</time>
      </trkpt>
      <trkpt lat="46.40446" lon="5.58481">
        <ele>483.4</ele>
        <time>2022-07-29T10:16:34Z</time>
      </trkpt>
      <trkpt lat="46.40446" lon="5.58478">
        <ele>483.6</ele>
        <time>2022-07-29T10:16:35Z</time>
      </trkpt>
      <trkpt lat="46.40445" lon="5.58475">
        <ele>483.8</ele>
        <time>2022-07-29T10:16:36Z</time>
      </trkpt>
      <trkpt lat="46.40444" lon="5.58472">
        <ele>484</ele>
        <time>2022-07-29T10:16:37Z</time>
      </trkpt>
      <trkpt lat="46.40443" lon="5.58469">
        <ele>484.4</ele>
        <time>2022-07-29T10:16:38Z</time>
      </trkpt>
      <trkpt lat="46.40442" lon="5.58465">
        <ele>484.6</ele>
        <time>2022-07-29T10:16:39Z</time>
      </trkpt>
      <trkpt lat="46.40442" lon="5.58462">
        <ele>484.8</ele>
        <time>2022-07-29T10:16:40Z</time>
      </trkpt>
      <trkpt lat="46.40441" lon="5.58459">
        <ele>485</ele>
        <time>2022-07-29T10:16:41Z</time>
      </trkpt>
      <trkpt lat="46.40441" lon="5.58455">
        <ele>485.2</ele>
        <time>2022-07-29T10:16:42Z</time>
      </trkpt>
      <trkpt lat="46.40441" lon="5.58452">
        <ele>485.6</ele>
        <time>2022-07-29T10:16:43Z</time>
      </trkpt>
      <trkpt lat="46.4044" lon="5.58448">
        <ele>485.8</ele>
        <time>2022-07-29T10:16:44Z</time>
      </trkpt>
      <trkpt lat="46.40439" lon="5.58444">
        <ele>486</ele>
        <time>2022-07-29T10:16:45Z</time>
      </trkpt>
      <trkpt lat="46.40439" lon="5.5844">
        <ele>486.2</ele>
        <time>2022-07-29T10:16:46Z</time>
      </trkpt>
      <trkpt lat="46.40439" lon="5.58436">
        <ele>486.2</ele>
        <time>2022-07-29T10:16:47Z</time>
      </trkpt>
      <trkpt lat="46.40439" lon="5.58433">
        <ele>486.6</ele>
        <time>2022-07-29T10:16:48Z</time>
      </trkpt>
      <trkpt lat="46.40439" lon="5.58428">
        <ele>486.6</ele>
        <time>2022-07-29T10:16:49Z</time>
      </trkpt>
      <trkpt lat="46.40439" lon="5.58424">
        <ele>487</ele>
        <time>2022-07-29T10:16:50Z</time>
      </trkpt>
      <trkpt lat="46.40439" lon="5.5842">
        <ele>487</ele>
        <time>2022-07-29T10:16:51Z</time>
      </trkpt>
      <trkpt lat="46.40439" lon="5.58417">
        <ele>487.2</ele>
        <time>2022-07-29T10:16:52Z</time>
      </trkpt>
      <trkpt lat="46.40439" lon="5.58413">
        <ele>487.2</ele>
        <time>2022-07-29T10:16:53Z</time>
      </trkpt>
      <trkpt lat="46.40439" lon="5.58409">
        <ele>487.2</ele>
        <time>2022-07-29T10:16:54Z</time>
      </trkpt>
      <trkpt lat="46.40438" lon="5.58405">
        <ele>487.6</ele>
        <time>2022-07-29T10:16:55Z</time>
      </trkpt>
      <trkpt lat="46.40438" lon="5.58401">
        <ele>487.6</ele>
        <time>2022-07-29T10:16:56Z</time>
      </trkpt>
      <trkpt lat="46.40438" lon="5.58397">
        <ele>487.6</ele>
        <time>2022-07-29T10:16:57Z</time>
      </trkpt>
      <trkpt lat="46.40438" lon="5.58393">
        <ele>487.6</ele>
        <time>2022-07-29T10:16:58Z</time>
      </trkpt>
      <trkpt lat="46.40437" lon="5.58389">
        <ele>487.8</ele>
        <time>2022-07-29T10:16:59Z</time>
      </trkpt>
      <trkpt lat="46.40437" lon="5.58385">
        <ele>487.8</ele>
        <time>2022-07-29T10:17:00Z</time>
      </trkpt>
      <trkpt lat="46.40437" lon="5.58381">
        <ele>488</ele>
        <time>2022-07-29T10:17:01Z</time>
      </trkpt>
      <trkpt lat="46.40437" lon="5.58377">
        <ele>488</ele>
        <time>2022-07-29T10:17:02Z</time>
      </trkpt>
      <trkpt lat="46.40437" lon="5.58372">
        <ele>488</ele>
        <time>2022-07-29T10:17:03Z</time>
      </trkpt>
      <trkpt lat="46.40436" lon="5.58368">
        <ele>488.4</ele>
        <time>2022-07-29T10:17:04Z</time>
      </trkpt>
      <trkpt lat="46.40434" lon="5.58364">
        <ele>488.4</ele>
        <time>2022-07-29T10:17:05Z</time>
      </trkpt>
      <trkpt lat="46.40431" lon="5.58361">
        <ele>488.4</ele>
        <time>2022-07-29T10:17:06Z</time>
      </trkpt>
      <trkpt lat="46.40428" lon="5.5836">
        <ele>488.4</ele>
        <time>2022-07-29T10:17:07Z</time>
      </trkpt>
      <trkpt lat="46.40425" lon="5.58359">
        <ele>488.4</ele>
        <time>2022-07-29T10:17:08Z</time>
      </trkpt>
      <trkpt lat="46.40421" lon="5.58359">
        <ele>488.4</ele>
        <time>2022-07-29T10:17:09Z</time>
      </trkpt>
      <trkpt lat="46.40418" lon="5.58359">
        <ele>488.4</ele>
        <time>2022-07-29T10:17:10Z</time>
      </trkpt>
      <trkpt lat="46.40415" lon="5.58359">
        <ele>488.6</ele>
        <time>2022-07-29T10:17:11Z</time>
      </trkpt>
      <trkpt lat="46.40411" lon="5.58359">
        <ele>488.6</ele>
        <time>2022-07-29T10:17:12Z</time>
      </trkpt>
      <trkpt lat="46.40408" lon="5.58359">
        <ele>489</ele>
        <time>2022-07-29T10:17:13Z</time>
      </trkpt>
      <trkpt lat="46.40405" lon="5.58359">
        <ele>489.2</ele>
        <time>2022-07-29T10:17:14Z</time>
      </trkpt>
      <trkpt lat="46.40403" lon="5.58359">
        <ele>489.2</ele>
        <time>2022-07-29T10:17:15Z</time>
      </trkpt>
      <trkpt lat="46.404" lon="5.5836">
        <ele>489.6</ele>
        <time>2022-07-29T10:17:16Z</time>
      </trkpt>
      <trkpt lat="46.40398" lon="5.58359">
        <ele>489.6</ele>
        <time>2022-07-29T10:17:17Z</time>
      </trkpt>
      <trkpt lat="46.40395" lon="5.58359">
        <ele>489.8</ele>
        <time>2022-07-29T10:17:18Z</time>
      </trkpt>
      <trkpt lat="46.40392" lon="5.58358">
        <ele>489.8</ele>
        <time>2022-07-29T10:17:19Z</time>
      </trkpt>
      <trkpt lat="46.40389" lon="5.58358">
        <ele>490</ele>
        <time>2022-07-29T10:17:20Z</time>
      </trkpt>
      <trkpt lat="46.40386" lon="5.58357">
        <ele>490</ele>
        <time>2022-07-29T10:17:21Z</time>
      </trkpt>
      <trkpt lat="46.40383" lon="5.58357">
        <ele>490.4</ele>
        <time>2022-07-29T10:17:22Z</time>
      </trkpt>
      <trkpt lat="46.40381" lon="5.58357">
        <ele>490.6</ele>
        <time>2022-07-29T10:17:23Z</time>
      </trkpt>
      <trkpt lat="46.40378" lon="5.58356">
        <ele>490.8</ele>
        <time>2022-07-29T10:17:24Z</time>
      </trkpt>
      <trkpt lat="46.40376" lon="5.58355">
        <ele>491.2</ele>
        <time>2022-07-29T10:17:25Z</time>
      </trkpt>
      <trkpt lat="46.40373" lon="5.58355">
        <ele>491.4</ele>
        <time>2022-07-29T10:17:26Z</time>
      </trkpt>
      <trkpt lat="46.40371" lon="5.58355">
        <ele>491.4</ele>
        <time>2022-07-29T10:17:27Z</time>
      </trkpt>
      <trkpt lat="46.40369" lon="5.58354">
        <ele>491.8</ele>
        <time>2022-07-29T10:17:28Z</time>
      </trkpt>
      <trkpt lat="46.40366" lon="5.58355">
        <ele>492</ele>
        <time>2022-07-29T10:17:29Z</time>
      </trkpt>
      <trkpt lat="46.40364" lon="5.58355">
        <ele>492.4</ele>
        <time>2022-07-29T10:17:30Z</time>
      </trkpt>
      <trkpt lat="46.40361" lon="5.58354">
        <ele>492.4</ele>
        <time>2022-07-29T10:17:31Z</time>
      </trkpt>
      <trkpt lat="46.40358" lon="5.58354">
        <ele>492.6</ele>
        <time>2022-07-29T10:17:32Z</time>
      </trkpt>
      <trkpt lat="46.40355" lon="5.58354">
        <ele>493</ele>
        <time>2022-07-29T10:17:33Z</time>
      </trkpt>
      <trkpt lat="46.40353" lon="5.58354">
        <ele>493</ele>
        <time>2022-07-29T10:17:34Z</time>
      </trkpt>
      <trkpt lat="46.4035" lon="5.58353">
        <ele>493.4</ele>
        <time>2022-07-29T10:17:35Z</time>
      </trkpt>
      <trkpt lat="46.40347" lon="5.58353">
        <ele>493.4</ele>
        <time>2022-07-29T10:17:36Z</time>
      </trkpt>
      <trkpt lat="46.40344" lon="5.58353">
        <ele>493.6</ele>
        <time>2022-07-29T10:17:37Z</time>
      </trkpt>
      <trkpt lat="46.40341" lon="5.58353">
        <ele>493.8</ele>
        <time>2022-07-29T10:17:38Z</time>
      </trkpt>
      <trkpt lat="46.40339" lon="5.58353">
        <ele>494</ele>
        <time>2022-07-29T10:17:39Z</time>
      </trkpt>
      <trkpt lat="46.40336" lon="5.58353">
        <ele>494.4</ele>
        <time>2022-07-29T10:17:40Z</time>
      </trkpt>
      <trkpt lat="46.40333" lon="5.58353">
        <ele>494.6</ele>
        <time>2022-07-29T10:17:41Z</time>
      </trkpt>
      <trkpt lat="46.40331" lon="5.58353">
        <ele>494.8</ele>
        <time>2022-07-29T10:17:42Z</time>
      </trkpt>
      <trkpt lat="46.40328" lon="5.58353">
        <ele>495</ele>
        <time>2022-07-29T10:17:43Z</time>
      </trkpt>
      <trkpt lat="46.40326" lon="5.58353">
        <ele>495.4</ele>
        <time>2022-07-29T10:17:44Z</time>
      </trkpt>
      <trkpt lat="46.40323" lon="5.58353">
        <ele>495.8</ele>
        <time>2022-07-29T10:17:45Z</time>
      </trkpt>
      <trkpt lat="46.40321" lon="5.58354">
        <ele>496</ele>
        <time>2022-07-29T10:17:46Z</time>
      </trkpt>
      <trkpt lat="46.40318" lon="5.58354">
        <ele>496.4</ele>
        <time>2022-07-29T10:17:47Z</time>
      </trkpt>
      <trkpt lat="46.40316" lon="5.58354">
        <ele>496.6</ele>
        <time>2022-07-29T10:17:48Z</time>
      </trkpt>
      <trkpt lat="46.40314" lon="5.58354">
        <ele>496.8</ele>
        <time>2022-07-29T10:17:49Z</time>
      </trkpt>
      <trkpt lat="46.40311" lon="5.58354">
        <ele>497</ele>
        <time>2022-07-29T10:17:50Z</time>
      </trkpt>
      <trkpt lat="46.40309" lon="5.58354">
        <ele>497.2</ele>
        <time>2022-07-29T10:17:51Z</time>
      </trkpt>
      <trkpt lat="46.40306" lon="5.58353">
        <ele>497.2</ele>
        <time>2022-07-29T10:17:52Z</time>
      </trkpt>
      <trkpt lat="46.40303" lon="5.58353">
        <ele>497.6</ele>
        <time>2022-07-29T10:17:53Z</time>
      </trkpt>
      <trkpt lat="46.40301" lon="5.58352">
        <ele>497.6</ele>
        <time>2022-07-29T10:17:54Z</time>
      </trkpt>
      <trkpt lat="46.40298" lon="5.58352">
        <ele>498</ele>
        <time>2022-07-29T10:17:55Z</time>
      </trkpt>
      <trkpt lat="46.40295" lon="5.58351">
        <ele>498</ele>
        <time>2022-07-29T10:17:56Z</time>
      </trkpt>
      <trkpt lat="46.40292" lon="5.58351">
        <ele>498.2</ele>
        <time>2022-07-29T10:17:57Z</time>
      </trkpt>
      <trkpt lat="46.40289" lon="5.58351">
        <ele>498.2</ele>
        <time>2022-07-29T10:17:58Z</time>
      </trkpt>
      <trkpt lat="46.40287" lon="5.5835">
        <ele>498.4</ele>
        <time>2022-07-29T10:17:59Z</time>
      </trkpt>
      <trkpt lat="46.40284" lon="5.58349">
        <ele>498.4</ele>
        <time>2022-07-29T10:18:00Z</time>
      </trkpt>
      <trkpt lat="46.40281" lon="5.58349">
        <ele>498.6</ele>
        <time>2022-07-29T10:18:01Z</time>
      </trkpt>
      <trkpt lat="46.40278" lon="5.58349">
        <ele>498.6</ele>
        <time>2022-07-29T10:18:02Z</time>
      </trkpt>
      <trkpt lat="46.40275" lon="5.58348">
        <ele>499</ele>
        <time>2022-07-29T10:18:03Z</time>
      </trkpt>
      <trkpt lat="46.40273" lon="5.58348">
        <ele>499</ele>
        <time>2022-07-29T10:18:04Z</time>
      </trkpt>
      <trkpt lat="46.4027" lon="5.58348">
        <ele>499.2</ele>
        <time>2022-07-29T10:18:05Z</time>
      </trkpt>
      <trkpt lat="46.40267" lon="5.58347">
        <ele>499.2</ele>
        <time>2022-07-29T10:18:06Z</time>
      </trkpt>
      <trkpt lat="46.40264" lon="5.58346">
        <ele>499.6</ele>
        <time>2022-07-29T10:18:07Z</time>
      </trkpt>
      <trkpt lat="46.40261" lon="5.58345">
        <ele>499.6</ele>
        <time>2022-07-29T10:18:08Z</time>
      </trkpt>
      <trkpt lat="46.40258" lon="5.58345">
        <ele>499.8</ele>
        <time>2022-07-29T10:18:09Z</time>
      </trkpt>
      <trkpt lat="46.40255" lon="5.58344">
        <ele>499.8</ele>
        <time>2022-07-29T10:18:10Z</time>
      </trkpt>
      <trkpt lat="46.40252" lon="5.58343">
        <ele>500.2</ele>
        <time>2022-07-29T10:18:11Z</time>
      </trkpt>
      <trkpt lat="46.40249" lon="5.58343">
        <ele>500.2</ele>
        <time>2022-07-29T10:18:12Z</time>
      </trkpt>
      <trkpt lat="46.40247" lon="5.58342">
        <ele>500.4</ele>
        <time>2022-07-29T10:18:13Z</time>
      </trkpt>
      <trkpt lat="46.40244" lon="5.58341">
        <ele>500.4</ele>
        <time>2022-07-29T10:18:14Z</time>
      </trkpt>
      <trkpt lat="46.40241" lon="5.5834">
        <ele>500.6</ele>
        <time>2022-07-29T10:18:15Z</time>
      </trkpt>
      <trkpt lat="46.40238" lon="5.58339">
        <ele>500.6</ele>
        <time>2022-07-29T10:18:16Z</time>
      </trkpt>
      <trkpt lat="46.40236" lon="5.58338">
        <ele>501</ele>
        <time>2022-07-29T10:18:17Z</time>
      </trkpt>
      <trkpt lat="46.40233" lon="5.58337">
        <ele>501</ele>
        <time>2022-07-29T10:18:18Z</time>
      </trkpt>
      <trkpt lat="46.4023" lon="5.58336">
        <ele>501.2</ele>
        <time>2022-07-29T10:18:19Z</time>
      </trkpt>
      <trkpt lat="46.40228" lon="5.58335">
        <ele>501.2</ele>
        <time>2022-07-29T10:18:20Z</time>
      </trkpt>
      <trkpt lat="46.40225" lon="5.58334">
        <ele>501.6</ele>
        <time>2022-07-29T10:18:21Z</time>
      </trkpt>
      <trkpt lat="46.40223" lon="5.58334">
        <ele>501.6</ele>
        <time>2022-07-29T10:18:22Z</time>
      </trkpt>
      <trkpt lat="46.4022" lon="5.58333">
        <ele>501.8</ele>
        <time>2022-07-29T10:18:23Z</time>
      </trkpt>
      <trkpt lat="46.40217" lon="5.58332">
        <ele>501.8</ele>
        <time>2022-07-29T10:18:24Z</time>
      </trkpt>
      <trkpt lat="46.40213" lon="5.5833">
        <ele>502</ele>
        <time>2022-07-29T10:18:25Z</time>
      </trkpt>
      <trkpt lat="46.4021" lon="5.58329">
        <ele>502</ele>
        <time>2022-07-29T10:18:26Z</time>
      </trkpt>
      <trkpt lat="46.40207" lon="5.58328">
        <ele>502.4</ele>
        <time>2022-07-29T10:18:27Z</time>
      </trkpt>
      <trkpt lat="46.40204" lon="5.58327">
        <ele>502.4</ele>
        <time>2022-07-29T10:18:28Z</time>
      </trkpt>
      <trkpt lat="46.402" lon="5.58326">
        <ele>502.6</ele>
        <time>2022-07-29T10:18:29Z</time>
      </trkpt>
      <trkpt lat="46.40197" lon="5.58325">
        <ele>502.6</ele>
        <time>2022-07-29T10:18:30Z</time>
      </trkpt>
      <trkpt lat="46.40194" lon="5.58325">
        <ele>502.8</ele>
        <time>2022-07-29T10:18:31Z</time>
      </trkpt>
      <trkpt lat="46.40191" lon="5.58324">
        <ele>502.8</ele>
        <time>2022-07-29T10:18:32Z</time>
      </trkpt>
      <trkpt lat="46.40189" lon="5.58324">
        <ele>503</ele>
        <time>2022-07-29T10:18:33Z</time>
      </trkpt>
      <trkpt lat="46.40186" lon="5.58323">
        <ele>503</ele>
        <time>2022-07-29T10:18:34Z</time>
      </trkpt>
      <trkpt lat="46.40183" lon="5.58322">
        <ele>503.2</ele>
        <time>2022-07-29T10:18:35Z</time>
      </trkpt>
      <trkpt lat="46.4018" lon="5.58322">
        <ele>503.2</ele>
        <time>2022-07-29T10:18:36Z</time>
      </trkpt>
      <trkpt lat="46.40177" lon="5.58321">
        <ele>503.6</ele>
        <time>2022-07-29T10:18:37Z</time>
      </trkpt>
      <trkpt lat="46.40175" lon="5.5832">
        <ele>503.6</ele>
        <time>2022-07-29T10:18:38Z</time>
      </trkpt>
      <trkpt lat="46.40172" lon="5.5832">
        <ele>504</ele>
        <time>2022-07-29T10:18:39Z</time>
      </trkpt>
      <trkpt lat="46.40169" lon="5.5832">
        <ele>504</ele>
        <time>2022-07-29T10:18:40Z</time>
      </trkpt>
      <trkpt lat="46.40166" lon="5.5832">
        <ele>504.4</ele>
        <time>2022-07-29T10:18:41Z</time>
      </trkpt>
      <trkpt lat="46.40164" lon="5.58319">
        <ele>504.4</ele>
        <time>2022-07-29T10:18:42Z</time>
      </trkpt>
      <trkpt lat="46.40161" lon="5.5832">
        <ele>504.8</ele>
        <time>2022-07-29T10:18:43Z</time>
      </trkpt>
      <trkpt lat="46.40158" lon="5.58321">
        <ele>505</ele>
        <time>2022-07-29T10:18:44Z</time>
      </trkpt>
      <trkpt lat="46.40156" lon="5.58322">
        <ele>505.2</ele>
        <time>2022-07-29T10:18:45Z</time>
      </trkpt>
      <trkpt lat="46.40154" lon="5.58324">
        <ele>505.4</ele>
        <time>2022-07-29T10:18:46Z</time>
      </trkpt>
      <trkpt lat="46.40151" lon="5.58325">
        <ele>505.4</ele>
        <time>2022-07-29T10:18:47Z</time>
      </trkpt>
      <trkpt lat="46.40149" lon="5.58326">
        <ele>505.8</ele>
        <time>2022-07-29T10:18:48Z</time>
      </trkpt>
      <trkpt lat="46.40147" lon="5.58327">
        <ele>505.8</ele>
        <time>2022-07-29T10:18:49Z</time>
      </trkpt>
      <trkpt lat="46.40145" lon="5.58328">
        <ele>506.2</ele>
        <time>2022-07-29T10:18:50Z</time>
      </trkpt>
      <trkpt lat="46.40143" lon="5.58328">
        <ele>506.4</ele>
        <time>2022-07-29T10:18:51Z</time>
      </trkpt>
      <trkpt lat="46.40141" lon="5.58329">
        <ele>506.6</ele>
        <time>2022-07-29T10:18:52Z</time>
      </trkpt>
      <trkpt lat="46.40139" lon="5.5833">
        <ele>506.6</ele>
        <time>2022-07-29T10:18:53Z</time>
      </trkpt>
      <trkpt lat="46.40137" lon="5.5833">
        <ele>507</ele>
        <time>2022-07-29T10:18:54Z</time>
      </trkpt>
      <trkpt lat="46.40134" lon="5.58331">
        <ele>507.2</ele>
        <time>2022-07-29T10:18:55Z</time>
      </trkpt>
      <trkpt lat="46.40132" lon="5.58331">
        <ele>507.2</ele>
        <time>2022-07-29T10:18:56Z</time>
      </trkpt>
      <trkpt lat="46.40129" lon="5.58332">
        <ele>507.6</ele>
        <time>2022-07-29T10:18:57Z</time>
      </trkpt>
      <trkpt lat="46.40127" lon="5.58332">
        <ele>507.6</ele>
        <time>2022-07-29T10:18:58Z</time>
      </trkpt>
      <trkpt lat="46.40125" lon="5.58333">
        <ele>507.8</ele>
        <time>2022-07-29T10:18:59Z</time>
      </trkpt>
      <trkpt lat="46.40122" lon="5.58333">
        <ele>507.8</ele>
        <time>2022-07-29T10:19:00Z</time>
      </trkpt>
      <trkpt lat="46.40119" lon="5.58333">
        <ele>508.2</ele>
        <time>2022-07-29T10:19:01Z</time>
      </trkpt>
      <trkpt lat="46.40117" lon="5.58333">
        <ele>508.2</ele>
        <time>2022-07-29T10:19:02Z</time>
      </trkpt>
      <trkpt lat="46.40114" lon="5.58333">
        <ele>508.4</ele>
        <time>2022-07-29T10:19:03Z</time>
      </trkpt>
      <trkpt lat="46.40111" lon="5.58333">
        <ele>508.4</ele>
        <time>2022-07-29T10:19:04Z</time>
      </trkpt>
      <trkpt lat="46.40108" lon="5.58333">
        <ele>508.8</ele>
        <time>2022-07-29T10:19:05Z</time>
      </trkpt>
      <trkpt lat="46.40106" lon="5.58334">
        <ele>508.8</ele>
        <time>2022-07-29T10:19:06Z</time>
      </trkpt>
      <trkpt lat="46.40104" lon="5.58333">
        <ele>509.2</ele>
        <time>2022-07-29T10:19:07Z</time>
      </trkpt>
      <trkpt lat="46.40101" lon="5.58333">
        <ele>509.4</ele>
        <time>2022-07-29T10:19:08Z</time>
      </trkpt>
      <trkpt lat="46.40099" lon="5.58333">
        <ele>509.6</ele>
        <time>2022-07-29T10:19:09Z</time>
      </trkpt>
      <trkpt lat="46.40096" lon="5.58333">
        <ele>509.6</ele>
        <time>2022-07-29T10:19:10Z</time>
      </trkpt>
      <trkpt lat="46.40094" lon="5.58332">
        <ele>510</ele>
        <time>2022-07-29T10:19:11Z</time>
      </trkpt>
      <trkpt lat="46.40091" lon="5.58332">
        <ele>510</ele>
        <time>2022-07-29T10:19:12Z</time>
      </trkpt>
      <trkpt lat="46.40089" lon="5.58332">
        <ele>510.4</ele>
        <time>2022-07-29T10:19:13Z</time>
      </trkpt>
      <trkpt lat="46.40086" lon="5.58331">
        <ele>510.6</ele>
        <time>2022-07-29T10:19:14Z</time>
      </trkpt>
      <trkpt lat="46.40084" lon="5.58331">
        <ele>510.6</ele>
        <time>2022-07-29T10:19:15Z</time>
      </trkpt>
      <trkpt lat="46.40081" lon="5.5833">
        <ele>511</ele>
        <time>2022-07-29T10:19:16Z</time>
      </trkpt>
      <trkpt lat="46.40079" lon="5.58329">
        <ele>511</ele>
        <time>2022-07-29T10:19:17Z</time>
      </trkpt>
      <trkpt lat="46.40077" lon="5.58329">
        <ele>511.4</ele>
        <time>2022-07-29T10:19:18Z</time>
      </trkpt>
      <trkpt lat="46.40074" lon="5.58328">
        <ele>511.4</ele>
        <time>2022-07-29T10:19:19Z</time>
      </trkpt>
      <trkpt lat="46.40072" lon="5.58328">
        <ele>511.6</ele>
        <time>2022-07-29T10:19:20Z</time>
      </trkpt>
      <trkpt lat="46.40069" lon="5.58327">
        <ele>511.6</ele>
        <time>2022-07-29T10:19:21Z</time>
      </trkpt>
      <trkpt lat="46.40067" lon="5.58326">
        <ele>512</ele>
        <time>2022-07-29T10:19:22Z</time>
      </trkpt>
      <trkpt lat="46.40065" lon="5.58325">
        <ele>512</ele>
        <time>2022-07-29T10:19:23Z</time>
      </trkpt>
      <trkpt lat="46.40062" lon="5.58325">
        <ele>512.4</ele>
        <time>2022-07-29T10:19:24Z</time>
      </trkpt>
      <trkpt lat="46.4006" lon="5.58323">
        <ele>512.4</ele>
        <time>2022-07-29T10:19:25Z</time>
      </trkpt>
      <trkpt lat="46.40058" lon="5.58322">
        <ele>512.8</ele>
        <time>2022-07-29T10:19:26Z</time>
      </trkpt>
      <trkpt lat="46.40056" lon="5.58321">
        <ele>512.8</ele>
        <time>2022-07-29T10:19:27Z</time>
      </trkpt>
      <trkpt lat="46.40054" lon="5.5832">
        <ele>513.2</ele>
        <time>2022-07-29T10:19:28Z</time>
      </trkpt>
      <trkpt lat="46.40052" lon="5.58319">
        <ele>513.2</ele>
        <time>2022-07-29T10:19:29Z</time>
      </trkpt>
      <trkpt lat="46.40049" lon="5.58318">
        <ele>513.4</ele>
        <time>2022-07-29T10:19:30Z</time>
      </trkpt>
      <trkpt lat="46.40047" lon="5.58318">
        <ele>513.4</ele>
        <time>2022-07-29T10:19:31Z</time>
      </trkpt>
      <trkpt lat="46.40044" lon="5.58318">
        <ele>513.8</ele>
        <time>2022-07-29T10:19:32Z</time>
      </trkpt>
      <trkpt lat="46.40042" lon="5.58318">
        <ele>513.8</ele>
        <time>2022-07-29T10:19:33Z</time>
      </trkpt>
      <trkpt lat="46.4004" lon="5.5832">
        <ele>514.2</ele>
        <time>2022-07-29T10:19:34Z</time>
      </trkpt>
      <trkpt lat="46.40039" lon="5.58322">
        <ele>514.2</ele>
        <time>2022-07-29T10:19:35Z</time>
      </trkpt>
      <trkpt lat="46.40039" lon="5.58324">
        <ele>514.4</ele>
        <time>2022-07-29T10:19:36Z</time>
      </trkpt>
      <trkpt lat="46.4004" lon="5.58327">
        <ele>514.4</ele>
        <time>2022-07-29T10:19:37Z</time>
      </trkpt>
      <trkpt lat="46.4004" lon="5.58329">
        <ele>514.8</ele>
        <time>2022-07-29T10:19:38Z</time>
      </trkpt>
      <trkpt lat="46.40042" lon="5.58332">
        <ele>515</ele>
        <time>2022-07-29T10:19:39Z</time>
      </trkpt>
      <trkpt lat="46.40043" lon="5.58334">
        <ele>515</ele>
        <time>2022-07-29T10:19:40Z</time>
      </trkpt>
      <trkpt lat="46.40044" lon="5.58337">
        <ele>515.4</ele>
        <time>2022-07-29T10:19:41Z</time>
      </trkpt>
      <trkpt lat="46.40045" lon="5.5834">
        <ele>515.4</ele>
        <time>2022-07-29T10:19:42Z</time>
      </trkpt>
      <trkpt lat="46.40047" lon="5.58342">
        <ele>515.6</ele>
        <time>2022-07-29T10:19:43Z</time>
      </trkpt>
      <trkpt lat="46.40049" lon="5.58344">
        <ele>515.6</ele>
        <time>2022-07-29T10:19:44Z</time>
      </trkpt>
      <trkpt lat="46.40051" lon="5.58346">
        <ele>516</ele>
        <time>2022-07-29T10:19:45Z</time>
      </trkpt>
      <trkpt lat="46.40053" lon="5.58348">
        <ele>516</ele>
        <time>2022-07-29T10:19:46Z</time>
      </trkpt>
      <trkpt lat="46.40054" lon="5.58351">
        <ele>516.2</ele>
        <time>2022-07-29T10:19:47Z</time>
      </trkpt>
      <trkpt lat="46.40056" lon="5.58353">
        <ele>516.2</ele>
        <time>2022-07-29T10:19:48Z</time>
      </trkpt>
      <trkpt lat="46.40058" lon="5.58356">
        <ele>516.4</ele>
        <time>2022-07-29T10:19:49Z</time>
      </trkpt>
      <trkpt lat="46.4006" lon="5.58358">
        <ele>516.4</ele>
        <time>2022-07-29T10:19:50Z</time>
      </trkpt>
      <trkpt lat="46.40061" lon="5.58361">
        <ele>516.6</ele>
        <time>2022-07-29T10:19:51Z</time>
      </trkpt>
      <trkpt lat="46.40063" lon="5.58364">
        <ele>516.6</ele>
        <time>2022-07-29T10:19:52Z</time>
      </trkpt>
      <trkpt lat="46.40065" lon="5.58366">
        <ele>516.8</ele>
        <time>2022-07-29T10:19:53Z</time>
      </trkpt>
      <trkpt lat="46.40066" lon="5.58369">
        <ele>516.8</ele>
        <time>2022-07-29T10:19:54Z</time>
      </trkpt>
      <trkpt lat="46.40068" lon="5.58372">
        <ele>517.2</ele>
        <time>2022-07-29T10:19:55Z</time>
      </trkpt>
      <trkpt lat="46.4007" lon="5.58375">
        <ele>517.2</ele>
        <time>2022-07-29T10:19:56Z</time>
      </trkpt>
      <trkpt lat="46.40072" lon="5.58378">
        <ele>517.4</ele>
        <time>2022-07-29T10:19:57Z</time>
      </trkpt>
      <trkpt lat="46.40073" lon="5.58381">
        <ele>517.4</ele>
        <time>2022-07-29T10:19:58Z</time>
      </trkpt>
      <trkpt lat="46.40075" lon="5.58384">
        <ele>517.6</ele>
        <time>2022-07-29T10:19:59Z</time>
      </trkpt>
      <trkpt lat="46.40077" lon="5.58387">
        <ele>517.6</ele>
        <time>2022-07-29T10:20:00Z</time>
      </trkpt>
      <trkpt lat="46.40078" lon="5.5839">
        <ele>518</ele>
        <time>2022-07-29T10:20:01Z</time>
      </trkpt>
      <trkpt lat="46.4008" lon="5.58392">
        <ele>518</ele>
        <time>2022-07-29T10:20:02Z</time>
      </trkpt>
      <trkpt lat="46.40081" lon="5.58395">
        <ele>518.2</ele>
        <time>2022-07-29T10:20:03Z</time>
      </trkpt>
      <trkpt lat="46.40083" lon="5.58398">
        <ele>518.6</ele>
        <time>2022-07-29T10:20:04Z</time>
      </trkpt>
      <trkpt lat="46.40085" lon="5.58401">
        <ele>518.6</ele>
        <time>2022-07-29T10:20:05Z</time>
      </trkpt>
      <trkpt lat="46.40086" lon="5.58404">
        <ele>518.8</ele>
        <time>2022-07-29T10:20:06Z</time>
      </trkpt>
      <trkpt lat="46.40088" lon="5.58408">
        <ele>519</ele>
        <time>2022-07-29T10:20:07Z</time>
      </trkpt>
      <trkpt lat="46.40089" lon="5.58411">
        <ele>519.2</ele>
        <time>2022-07-29T10:20:08Z</time>
      </trkpt>
      <trkpt lat="46.40089" lon="5.58414">
        <ele>519.2</ele>
        <time>2022-07-29T10:20:09Z</time>
      </trkpt>
      <trkpt lat="46.40089" lon="5.58417">
        <ele>519.8</ele>
        <time>2022-07-29T10:20:10Z</time>
      </trkpt>
      <trkpt lat="46.40089" lon="5.5842">
        <ele>520</ele>
        <time>2022-07-29T10:20:11Z</time>
      </trkpt>
      <trkpt lat="46.40088" lon="5.58422">
        <ele>520.2</ele>
        <time>2022-07-29T10:20:12Z</time>
      </trkpt>
      <trkpt lat="46.40086" lon="5.58424">
        <ele>520.2</ele>
        <time>2022-07-29T10:20:13Z</time>
      </trkpt>
      <trkpt lat="46.40084" lon="5.58424">
        <ele>520.6</ele>
        <time>2022-07-29T10:20:14Z</time>
      </trkpt>
      <trkpt lat="46.40083" lon="5.58424">
        <ele>520.6</ele>
        <time>2022-07-29T10:20:15Z</time>
      </trkpt>
      <trkpt lat="46.40081" lon="5.58423">
        <ele>521</ele>
        <time>2022-07-29T10:20:16Z</time>
      </trkpt>
      <trkpt lat="46.40079" lon="5.58422">
        <ele>521</ele>
        <time>2022-07-29T10:20:17Z</time>
      </trkpt>
      <trkpt lat="46.40078" lon="5.58421">
        <ele>521.4</ele>
        <time>2022-07-29T10:20:18Z</time>
      </trkpt>
      <trkpt lat="46.40076" lon="5.58419">
        <ele>521.4</ele>
        <time>2022-07-29T10:20:19Z</time>
      </trkpt>
      <trkpt lat="46.40075" lon="5.58418">
        <ele>521.6</ele>
        <time>2022-07-29T10:20:20Z</time>
      </trkpt>
      <trkpt lat="46.40074" lon="5.58416">
        <ele>521.6</ele>
        <time>2022-07-29T10:20:21Z</time>
      </trkpt>
      <trkpt lat="46.40072" lon="5.58414">
        <ele>522</ele>
        <time>2022-07-29T10:20:22Z</time>
      </trkpt>
      <trkpt lat="46.40071" lon="5.58412">
        <ele>522</ele>
        <time>2022-07-29T10:20:23Z</time>
      </trkpt>
      <trkpt lat="46.40069" lon="5.5841">
        <ele>522.2</ele>
        <time>2022-07-29T10:20:24Z</time>
      </trkpt>
      <trkpt lat="46.40066" lon="5.58408">
        <ele>522.2</ele>
        <time>2022-07-29T10:20:25Z</time>
      </trkpt>
      <trkpt lat="46.40064" lon="5.58407">
        <ele>522.4</ele>
        <time>2022-07-29T10:20:26Z</time>
      </trkpt>
      <trkpt lat="46.40062" lon="5.58406">
        <ele>522.8</ele>
        <time>2022-07-29T10:20:27Z</time>
      </trkpt>
      <trkpt lat="46.4006" lon="5.58404">
        <ele>522.8</ele>
        <time>2022-07-29T10:20:28Z</time>
      </trkpt>
      <trkpt lat="46.40058" lon="5.58403">
        <ele>523</ele>
        <time>2022-07-29T10:20:29Z</time>
      </trkpt>
      <trkpt lat="46.40056" lon="5.58401">
        <ele>523</ele>
        <time>2022-07-29T10:20:30Z</time>
      </trkpt>
      <trkpt lat="46.40055" lon="5.584">
        <ele>523.4</ele>
        <time>2022-07-29T10:20:31Z</time>
      </trkpt>
      <trkpt lat="46.40053" lon="5.584">
        <ele>523.6</ele>
        <time>2022-07-29T10:20:32Z</time>
      </trkpt>
      <trkpt lat="46.40051" lon="5.58399">
        <ele>523.6</ele>
        <time>2022-07-29T10:20:33Z</time>
      </trkpt>
      <trkpt lat="46.40049" lon="5.58398">
        <ele>524</ele>
        <time>2022-07-29T10:20:34Z</time>
      </trkpt>
      <trkpt lat="46.40047" lon="5.58397">
        <ele>524</ele>
        <time>2022-07-29T10:20:35Z</time>
      </trkpt>
      <trkpt lat="46.40044" lon="5.58396">
        <ele>524.4</ele>
        <time>2022-07-29T10:20:36Z</time>
      </trkpt>
      <trkpt lat="46.40042" lon="5.58396">
        <ele>524.4</ele>
        <time>2022-07-29T10:20:37Z</time>
      </trkpt>
      <trkpt lat="46.40039" lon="5.58395">
        <ele>524.4</ele>
        <time>2022-07-29T10:20:38Z</time>
      </trkpt>
      <trkpt lat="46.40037" lon="5.58394">
        <ele>524.8</ele>
        <time>2022-07-29T10:20:39Z</time>
      </trkpt>
      <trkpt lat="46.40034" lon="5.58394">
        <ele>524.8</ele>
        <time>2022-07-29T10:20:40Z</time>
      </trkpt>
      <trkpt lat="46.40031" lon="5.58393">
        <ele>525.2</ele>
        <time>2022-07-29T10:20:41Z</time>
      </trkpt>
      <trkpt lat="46.40029" lon="5.58392">
        <ele>525.4</ele>
        <time>2022-07-29T10:20:42Z</time>
      </trkpt>
      <trkpt lat="46.40026" lon="5.58391">
        <ele>525.4</ele>
        <time>2022-07-29T10:20:43Z</time>
      </trkpt>
      <trkpt lat="46.40023" lon="5.5839">
        <ele>525.8</ele>
        <time>2022-07-29T10:20:44Z</time>
      </trkpt>
      <trkpt lat="46.40021" lon="5.58389">
        <ele>526</ele>
        <time>2022-07-29T10:20:45Z</time>
      </trkpt>
      <trkpt lat="46.40018" lon="5.58388">
        <ele>526</ele>
        <time>2022-07-29T10:20:46Z</time>
      </trkpt>
      <trkpt lat="46.40016" lon="5.58388">
        <ele>526.2</ele>
        <time>2022-07-29T10:20:47Z</time>
      </trkpt>
      <trkpt lat="46.40013" lon="5.58387">
        <ele>526.2</ele>
        <time>2022-07-29T10:20:48Z</time>
      </trkpt>
      <trkpt lat="46.4001" lon="5.58386">
        <ele>526.6</ele>
        <time>2022-07-29T10:20:49Z</time>
      </trkpt>
      <trkpt lat="46.40007" lon="5.58385">
        <ele>526.6</ele>
        <time>2022-07-29T10:20:50Z</time>
      </trkpt>
      <trkpt lat="46.40005" lon="5.58384">
        <ele>526.8</ele>
        <time>2022-07-29T10:20:51Z</time>
      </trkpt>
      <trkpt lat="46.40002" lon="5.58384">
        <ele>526.8</ele>
        <time>2022-07-29T10:20:52Z</time>
      </trkpt>
      <trkpt lat="46.4" lon="5.58383">
        <ele>527</ele>
        <time>2022-07-29T10:20:53Z</time>
      </trkpt>
      <trkpt lat="46.39997" lon="5.58383">
        <ele>527</ele>
        <time>2022-07-29T10:20:54Z</time>
      </trkpt>
      <trkpt lat="46.39995" lon="5.58382">
        <ele>527.4</ele>
        <time>2022-07-29T10:20:55Z</time>
      </trkpt>
      <trkpt lat="46.39992" lon="5.58381">
        <ele>527.4</ele>
        <time>2022-07-29T10:20:56Z</time>
      </trkpt>
      <trkpt lat="46.39989" lon="5.5838">
        <ele>527.4</ele>
        <time>2022-07-29T10:20:57Z</time>
      </trkpt>
      <trkpt lat="46.39987" lon="5.58378">
        <ele>527.6</ele>
        <time>2022-07-29T10:20:58Z</time>
      </trkpt>
      <trkpt lat="46.39985" lon="5.58376">
        <ele>527.6</ele>
        <time>2022-07-29T10:20:59Z</time>
      </trkpt>
      <trkpt lat="46.39983" lon="5.58374">
        <ele>527.8</ele>
        <time>2022-07-29T10:21:00Z</time>
      </trkpt>
      <trkpt lat="46.39981" lon="5.58372">
        <ele>527.8</ele>
        <time>2022-07-29T10:21:01Z</time>
      </trkpt>
      <trkpt lat="46.39979" lon="5.5837">
        <ele>528.2</ele>
        <time>2022-07-29T10:21:02Z</time>
      </trkpt>
      <trkpt lat="46.39978" lon="5.58368">
        <ele>528.4</ele>
        <time>2022-07-29T10:21:03Z</time>
      </trkpt>
      <trkpt lat="46.39976" lon="5.58366">
        <ele>528.4</ele>
        <time>2022-07-29T10:21:04Z</time>
      </trkpt>
      <trkpt lat="46.39974" lon="5.58364">
        <ele>528.8</ele>
        <time>2022-07-29T10:21:05Z</time>
      </trkpt>
      <trkpt lat="46.39972" lon="5.58362">
        <ele>528.8</ele>
        <time>2022-07-29T10:21:06Z</time>
      </trkpt>
      <trkpt lat="46.3997" lon="5.5836">
        <ele>529.2</ele>
        <time>2022-07-29T10:21:07Z</time>
      </trkpt>
      <trkpt lat="46.39968" lon="5.58359">
        <ele>529.2</ele>
        <time>2022-07-29T10:21:08Z</time>
      </trkpt>
      <trkpt lat="46.39965" lon="5.58357">
        <ele>529.4</ele>
        <time>2022-07-29T10:21:09Z</time>
      </trkpt>
      <trkpt lat="46.39963" lon="5.58356">
        <ele>529.4</ele>
        <time>2022-07-29T10:21:10Z</time>
      </trkpt>
      <trkpt lat="46.3996" lon="5.58354">
        <ele>529.8</ele>
        <time>2022-07-29T10:21:11Z</time>
      </trkpt>
      <trkpt lat="46.39958" lon="5.58353">
        <ele>530</ele>
        <time>2022-07-29T10:21:12Z</time>
      </trkpt>
      <trkpt lat="46.39956" lon="5.58352">
        <ele>530</ele>
        <time>2022-07-29T10:21:13Z</time>
      </trkpt>
      <trkpt lat="46.39953" lon="5.58351">
        <ele>530.2</ele>
        <time>2022-07-29T10:21:14Z</time>
      </trkpt>
      <trkpt lat="46.39951" lon="5.5835">
        <ele>530.2</ele>
        <time>2022-07-29T10:21:15Z</time>
      </trkpt>
      <trkpt lat="46.39949" lon="5.58349">
        <ele>530.6</ele>
        <time>2022-07-29T10:21:16Z</time>
      </trkpt>
      <trkpt lat="46.39946" lon="5.58349">
        <ele>530.6</ele>
        <time>2022-07-29T10:21:17Z</time>
      </trkpt>
      <trkpt lat="46.39944" lon="5.58348">
        <ele>530.6</ele>
        <time>2022-07-29T10:21:18Z</time>
      </trkpt>
      <trkpt lat="46.39941" lon="5.58347">
        <ele>530.8</ele>
        <time>2022-07-29T10:21:19Z</time>
      </trkpt>
      <trkpt lat="46.39939" lon="5.58346">
        <ele>530.8</ele>
        <time>2022-07-29T10:21:20Z</time>
      </trkpt>
      <trkpt lat="46.39937" lon="5.58344">
        <ele>530.8</ele>
        <time>2022-07-29T10:21:21Z</time>
      </trkpt>
      <trkpt lat="46.39934" lon="5.58343">
        <ele>531</ele>
        <time>2022-07-29T10:21:22Z</time>
      </trkpt>
      <trkpt lat="46.39932" lon="5.58342">
        <ele>531</ele>
        <time>2022-07-29T10:21:23Z</time>
      </trkpt>
      <trkpt lat="46.3993" lon="5.5834">
        <ele>531.2</ele>
        <time>2022-07-29T10:21:24Z</time>
      </trkpt>
      <trkpt lat="46.39928" lon="5.58339">
        <ele>531.2</ele>
        <time>2022-07-29T10:21:25Z</time>
      </trkpt>
      <trkpt lat="46.39926" lon="5.58337">
        <ele>531.4</ele>
        <time>2022-07-29T10:21:26Z</time>
      </trkpt>
      <trkpt lat="46.39923" lon="5.58336">
        <ele>531.4</ele>
        <time>2022-07-29T10:21:27Z</time>
      </trkpt>
      <trkpt lat="46.39921" lon="5.58335">
        <ele>531.8</ele>
        <time>2022-07-29T10:21:28Z</time>
      </trkpt>
      <trkpt lat="46.39919" lon="5.58334">
        <ele>531.8</ele>
        <time>2022-07-29T10:21:29Z</time>
      </trkpt>
      <trkpt lat="46.39917" lon="5.58332">
        <ele>532</ele>
        <time>2022-07-29T10:21:30Z</time>
      </trkpt>
      <trkpt lat="46.39915" lon="5.5833">
        <ele>532</ele>
        <time>2022-07-29T10:21:31Z</time>
      </trkpt>
      <trkpt lat="46.39913" lon="5.58329">
        <ele>532.4</ele>
        <time>2022-07-29T10:21:32Z</time>
      </trkpt>
      <trkpt lat="46.39911" lon="5.58328">
        <ele>532.4</ele>
        <time>2022-07-29T10:21:33Z</time>
      </trkpt>
      <trkpt lat="46.3991" lon="5.58327">
        <ele>532.8</ele>
        <time>2022-07-29T10:21:34Z</time>
      </trkpt>
      <trkpt lat="46.39908" lon="5.58325">
        <ele>532.8</ele>
        <time>2022-07-29T10:21:35Z</time>
      </trkpt>
      <trkpt lat="46.39906" lon="5.58324">
        <ele>533</ele>
        <time>2022-07-29T10:21:36Z</time>
      </trkpt>
      <trkpt lat="46.39904" lon="5.58322">
        <ele>533</ele>
        <time>2022-07-29T10:21:37Z</time>
      </trkpt>
      <trkpt lat="46.39902" lon="5.58321">
        <ele>533.2</ele>
        <time>2022-07-29T10:21:38Z</time>
      </trkpt>
      <trkpt lat="46.399" lon="5.58319">
        <ele>533.2</ele>
        <time>2022-07-29T10:21:39Z</time>
      </trkpt>
      <trkpt lat="46.39898" lon="5.58318">
        <ele>533.2</ele>
        <time>2022-07-29T10:21:40Z</time>
      </trkpt>
      <trkpt lat="46.39896" lon="5.58316">
        <ele>533.6</ele>
        <time>2022-07-29T10:21:41Z</time>
      </trkpt>
      <trkpt lat="46.39893" lon="5.58315">
        <ele>533.6</ele>
        <time>2022-07-29T10:21:42Z</time>
      </trkpt>
      <trkpt lat="46.39891" lon="5.58314">
        <ele>533.8</ele>
        <time>2022-07-29T10:21:43Z</time>
      </trkpt>
      <trkpt lat="46.39889" lon="5.58313">
        <ele>533.8</ele>
        <time>2022-07-29T10:21:44Z</time>
      </trkpt>
      <trkpt lat="46.39887" lon="5.58312">
        <ele>533.8</ele>
        <time>2022-07-29T10:21:45Z</time>
      </trkpt>
      <trkpt lat="46.39884" lon="5.5831">
        <ele>534</ele>
        <time>2022-07-29T10:21:46Z</time>
      </trkpt>
      <trkpt lat="46.39883" lon="5.58309">
        <ele>534</ele>
        <time>2022-07-29T10:21:47Z</time>
      </trkpt>
      <trkpt lat="46.39881" lon="5.58308">
        <ele>534</ele>
        <time>2022-07-29T10:21:48Z</time>
      </trkpt>
      <trkpt lat="46.39879" lon="5.58307">
        <ele>534.4</ele>
        <time>2022-07-29T10:21:49Z</time>
      </trkpt>
      <trkpt lat="46.39877" lon="5.58306">
        <ele>534.4</ele>
        <time>2022-07-29T10:21:50Z</time>
      </trkpt>
      <trkpt lat="46.39875" lon="5.58305">
        <ele>534.4</ele>
        <time>2022-07-29T10:21:51Z</time>
      </trkpt>
      <trkpt lat="46.39872" lon="5.58303">
        <ele>534.6</ele>
        <time>2022-07-29T10:21:52Z</time>
      </trkpt>
      <trkpt lat="46.3987" lon="5.58301">
        <ele>534.6</ele>
        <time>2022-07-29T10:21:53Z</time>
      </trkpt>
      <trkpt lat="46.39868" lon="5.58299">
        <ele>535</ele>
        <time>2022-07-29T10:21:54Z</time>
      </trkpt>
      <trkpt lat="46.39866" lon="5.58296">
        <ele>535</ele>
        <time>2022-07-29T10:21:55Z</time>
      </trkpt>
      <trkpt lat="46.39865" lon="5.58293">
        <ele>535.4</ele>
        <time>2022-07-29T10:21:56Z</time>
      </trkpt>
      <trkpt lat="46.39864" lon="5.58291">
        <ele>535.4</ele>
        <time>2022-07-29T10:21:57Z</time>
      </trkpt>
      <trkpt lat="46.39862" lon="5.58288">
        <ele>535.6</ele>
        <time>2022-07-29T10:21:58Z</time>
      </trkpt>
      <trkpt lat="46.3986" lon="5.58285">
        <ele>535.6</ele>
        <time>2022-07-29T10:21:59Z</time>
      </trkpt>
      <trkpt lat="46.39859" lon="5.58282">
        <ele>536</ele>
        <time>2022-07-29T10:22:00Z</time>
      </trkpt>
      <trkpt lat="46.39858" lon="5.58279">
        <ele>536</ele>
        <time>2022-07-29T10:22:01Z</time>
      </trkpt>
      <trkpt lat="46.39857" lon="5.58276">
        <ele>536.4</ele>
        <time>2022-07-29T10:22:02Z</time>
      </trkpt>
      <trkpt lat="46.39856" lon="5.58273">
        <ele>536.6</ele>
        <time>2022-07-29T10:22:03Z</time>
      </trkpt>
      <trkpt lat="46.39856" lon="5.5827">
        <ele>536.8</ele>
        <time>2022-07-29T10:22:04Z</time>
      </trkpt>
      <trkpt lat="46.39855" lon="5.58267">
        <ele>536.8</ele>
        <time>2022-07-29T10:22:05Z</time>
      </trkpt>
      <trkpt lat="46.39854" lon="5.58263">
        <ele>537</ele>
        <time>2022-07-29T10:22:06Z</time>
      </trkpt>
      <trkpt lat="46.39853" lon="5.5826">
        <ele>537</ele>
        <time>2022-07-29T10:22:07Z</time>
      </trkpt>
      <trkpt lat="46.39852" lon="5.58256">
        <ele>537.4</ele>
        <time>2022-07-29T10:22:08Z</time>
      </trkpt>
      <trkpt lat="46.39851" lon="5.58253">
        <ele>537.4</ele>
        <time>2022-07-29T10:22:09Z</time>
      </trkpt>
      <trkpt lat="46.39849" lon="5.5825">
        <ele>537.6</ele>
        <time>2022-07-29T10:22:10Z</time>
      </trkpt>
      <trkpt lat="46.39848" lon="5.58247">
        <ele>537.6</ele>
        <time>2022-07-29T10:22:11Z</time>
      </trkpt>
      <trkpt lat="46.39847" lon="5.58244">
        <ele>537.8</ele>
        <time>2022-07-29T10:22:12Z</time>
      </trkpt>
      <trkpt lat="46.39845" lon="5.58241">
        <ele>537.8</ele>
        <time>2022-07-29T10:22:13Z</time>
      </trkpt>
      <trkpt lat="46.39843" lon="5.58238">
        <ele>538.2</ele>
        <time>2022-07-29T10:22:14Z</time>
      </trkpt>
      <trkpt lat="46.39842" lon="5.58236">
        <ele>538.2</ele>
        <time>2022-07-29T10:22:15Z</time>
      </trkpt>
      <trkpt lat="46.3984" lon="5.58233">
        <ele>538.4</ele>
        <time>2022-07-29T10:22:16Z</time>
      </trkpt>
      <trkpt lat="46.39838" lon="5.58231">
        <ele>538.4</ele>
        <time>2022-07-29T10:22:17Z</time>
      </trkpt>
      <trkpt lat="46.39836" lon="5.5823">
        <ele>538.4</ele>
        <time>2022-07-29T10:22:18Z</time>
      </trkpt>
      <trkpt lat="46.39834" lon="5.58228">
        <ele>538.6</ele>
        <time>2022-07-29T10:22:19Z</time>
      </trkpt>
      <trkpt lat="46.39832" lon="5.58227">
        <ele>538.6</ele>
        <time>2022-07-29T10:22:20Z</time>
      </trkpt>
      <trkpt lat="46.3983" lon="5.58226">
        <ele>538.6</ele>
        <time>2022-07-29T10:22:21Z</time>
      </trkpt>
      <trkpt lat="46.39827" lon="5.58225">
        <ele>539</ele>
        <time>2022-07-29T10:22:22Z</time>
      </trkpt>
      <trkpt lat="46.39825" lon="5.58224">
        <ele>539</ele>
        <time>2022-07-29T10:22:23Z</time>
      </trkpt>
      <trkpt lat="46.39823" lon="5.58224">
        <ele>539.2</ele>
        <time>2022-07-29T10:22:24Z</time>
      </trkpt>
      <trkpt lat="46.3982" lon="5.58223">
        <ele>539.2</ele>
        <time>2022-07-29T10:22:25Z</time>
      </trkpt>
      <trkpt lat="46.39818" lon="5.58223">
        <ele>539.6</ele>
        <time>2022-07-29T10:22:26Z</time>
      </trkpt>
      <trkpt lat="46.39815" lon="5.58223">
        <ele>539.6</ele>
        <time>2022-07-29T10:22:27Z</time>
      </trkpt>
      <trkpt lat="46.39812" lon="5.58223">
        <ele>540</ele>
        <time>2022-07-29T10:22:28Z</time>
      </trkpt>
      <trkpt lat="46.3981" lon="5.58224">
        <ele>540</ele>
        <time>2022-07-29T10:22:29Z</time>
      </trkpt>
      <trkpt lat="46.39808" lon="5.58224">
        <ele>540.2</ele>
        <time>2022-07-29T10:22:30Z</time>
      </trkpt>
      <trkpt lat="46.39806" lon="5.58225">
        <ele>540.2</ele>
        <time>2022-07-29T10:22:31Z</time>
      </trkpt>
      <trkpt lat="46.39804" lon="5.58227">
        <ele>540.4</ele>
        <time>2022-07-29T10:22:32Z</time>
      </trkpt>
      <trkpt lat="46.39803" lon="5.58229">
        <ele>540.4</ele>
        <time>2022-07-29T10:22:33Z</time>
      </trkpt>
      <trkpt lat="46.39802" lon="5.58231">
        <ele>540.8</ele>
        <time>2022-07-29T10:22:34Z</time>
      </trkpt>
      <trkpt lat="46.39801" lon="5.58233">
        <ele>541</ele>
        <time>2022-07-29T10:22:35Z</time>
      </trkpt>
      <trkpt lat="46.398" lon="5.58236">
        <ele>541.2</ele>
        <time>2022-07-29T10:22:36Z</time>
      </trkpt>
      <trkpt lat="46.39799" lon="5.58239">
        <ele>541.2</ele>
        <time>2022-07-29T10:22:37Z</time>
      </trkpt>
      <trkpt lat="46.39798" lon="5.58242">
        <ele>541.2</ele>
        <time>2022-07-29T10:22:38Z</time>
      </trkpt>
      <trkpt lat="46.39797" lon="5.58245">
        <ele>541.4</ele>
        <time>2022-07-29T10:22:39Z</time>
      </trkpt>
      <trkpt lat="46.39796" lon="5.58248">
        <ele>541.4</ele>
        <time>2022-07-29T10:22:40Z</time>
      </trkpt>
      <trkpt lat="46.39796" lon="5.5825">
        <ele>541.8</ele>
        <time>2022-07-29T10:22:41Z</time>
      </trkpt>
      <trkpt lat="46.39795" lon="5.58253">
        <ele>541.8</ele>
        <time>2022-07-29T10:22:42Z</time>
      </trkpt>
      <trkpt lat="46.39794" lon="5.58256">
        <ele>542</ele>
        <time>2022-07-29T10:22:43Z</time>
      </trkpt>
      <trkpt lat="46.39793" lon="5.58259">
        <ele>542</ele>
        <time>2022-07-29T10:22:44Z</time>
      </trkpt>
      <trkpt lat="46.39792" lon="5.58262">
        <ele>542.4</ele>
        <time>2022-07-29T10:22:45Z</time>
      </trkpt>
      <trkpt lat="46.39791" lon="5.58265">
        <ele>542.4</ele>
        <time>2022-07-29T10:22:46Z</time>
      </trkpt>
      <trkpt lat="46.3979" lon="5.58269">
        <ele>542.6</ele>
        <time>2022-07-29T10:22:47Z</time>
      </trkpt>
      <trkpt lat="46.39789" lon="5.58272">
        <ele>542.6</ele>
        <time>2022-07-29T10:22:48Z</time>
      </trkpt>
      <trkpt lat="46.39789" lon="5.58272">
        <ele>543</ele>
        <time>2022-07-29T10:22:49Z</time>
      </trkpt>
      <trkpt lat="46.39788" lon="5.58275">
        <ele>543</ele>
        <time>2022-07-29T10:22:50Z</time>
      </trkpt>
      <trkpt lat="46.39787" lon="5.58278">
        <ele>543.2</ele>
        <time>2022-07-29T10:22:51Z</time>
      </trkpt>
      <trkpt lat="46.39786" lon="5.58282">
        <ele>543.4</ele>
        <time>2022-07-29T10:22:52Z</time>
      </trkpt>
      <trkpt lat="46.39785" lon="5.58285">
        <ele>543.4</ele>
        <time>2022-07-29T10:22:53Z</time>
      </trkpt>
      <trkpt lat="46.39784" lon="5.58288">
        <ele>543.8</ele>
        <time>2022-07-29T10:22:54Z</time>
      </trkpt>
      <trkpt lat="46.39783" lon="5.58291">
        <ele>543.8</ele>
        <time>2022-07-29T10:22:55Z</time>
      </trkpt>
      <trkpt lat="46.39782" lon="5.58294">
        <ele>544</ele>
        <time>2022-07-29T10:22:56Z</time>
      </trkpt>
      <trkpt lat="46.39782" lon="5.58297">
        <ele>544</ele>
        <time>2022-07-29T10:22:57Z</time>
      </trkpt>
      <trkpt lat="46.39781" lon="5.58301">
        <ele>544</ele>
        <time>2022-07-29T10:22:58Z</time>
      </trkpt>
      <trkpt lat="46.3978" lon="5.58304">
        <ele>544.4</ele>
        <time>2022-07-29T10:22:59Z</time>
      </trkpt>
      <trkpt lat="46.39779" lon="5.58307">
        <ele>544.4</ele>
        <time>2022-07-29T10:23:00Z</time>
      </trkpt>
      <trkpt lat="46.39778" lon="5.5831">
        <ele>544.8</ele>
        <time>2022-07-29T10:23:01Z</time>
      </trkpt>
      <trkpt lat="46.39777" lon="5.58314">
        <ele>544.8</ele>
        <time>2022-07-29T10:23:02Z</time>
      </trkpt>
      <trkpt lat="46.39777" lon="5.58317">
        <ele>545</ele>
        <time>2022-07-29T10:23:03Z</time>
      </trkpt>
      <trkpt lat="46.39775" lon="5.5832">
        <ele>545</ele>
        <time>2022-07-29T10:23:04Z</time>
      </trkpt>
      <trkpt lat="46.39774" lon="5.58323">
        <ele>545.2</ele>
        <time>2022-07-29T10:23:05Z</time>
      </trkpt>
      <trkpt lat="46.39773" lon="5.58325">
        <ele>545.2</ele>
        <time>2022-07-29T10:23:06Z</time>
      </trkpt>
      <trkpt lat="46.39772" lon="5.58328">
        <ele>545.6</ele>
        <time>2022-07-29T10:23:07Z</time>
      </trkpt>
      <trkpt lat="46.39771" lon="5.58331">
        <ele>545.6</ele>
        <time>2022-07-29T10:23:08Z</time>
      </trkpt>
      <trkpt lat="46.3977" lon="5.58334">
        <ele>545.8</ele>
        <time>2022-07-29T10:23:09Z</time>
      </trkpt>
      <trkpt lat="46.39769" lon="5.58338">
        <ele>545.8</ele>
        <time>2022-07-29T10:23:10Z</time>
      </trkpt>
      <trkpt lat="46.39767" lon="5.58341">
        <ele>546.2</ele>
        <time>2022-07-29T10:23:11Z</time>
      </trkpt>
      <trkpt lat="46.39766" lon="5.58344">
        <ele>546.2</ele>
        <time>2022-07-29T10:23:12Z</time>
      </trkpt>
      <trkpt lat="46.39765" lon="5.58347">
        <ele>546.4</ele>
        <time>2022-07-29T10:23:13Z</time>
      </trkpt>
      <trkpt lat="46.39763" lon="5.5835">
        <ele>546.4</ele>
        <time>2022-07-29T10:23:14Z</time>
      </trkpt>
      <trkpt lat="46.39762" lon="5.58352">
        <ele>546.4</ele>
        <time>2022-07-29T10:23:15Z</time>
      </trkpt>
      <trkpt lat="46.3976" lon="5.58355">
        <ele>546.6</ele>
        <time>2022-07-29T10:23:16Z</time>
      </trkpt>
      <trkpt lat="46.39759" lon="5.58357">
        <ele>546.6</ele>
        <time>2022-07-29T10:23:17Z</time>
      </trkpt>
      <trkpt lat="46.39758" lon="5.58359">
        <ele>546.8</ele>
        <time>2022-07-29T10:23:18Z</time>
      </trkpt>
      <trkpt lat="46.39756" lon="5.58361">
        <ele>546.8</ele>
        <time>2022-07-29T10:23:19Z</time>
      </trkpt>
      <trkpt lat="46.39756" lon="5.58362">
        <ele>546.8</ele>
        <time>2022-07-29T10:23:20Z</time>
      </trkpt>
      <trkpt lat="46.39755" lon="5.58362">
        <ele>546.8</ele>
        <time>2022-07-29T10:23:21Z</time>
      </trkpt>
      <trkpt lat="46.39755" lon="5.58363">
        <ele>546.8</ele>
        <time>2022-07-29T10:23:22Z</time>
      </trkpt>
      <trkpt lat="46.39755" lon="5.58363">
        <ele>547</ele>
        <time>2022-07-29T10:23:24Z</time>
      </trkpt>
      <trkpt lat="46.39755" lon="5.58363">
        <ele>547</ele>
        <time>2022-07-29T10:23:25Z</time>
      </trkpt>
      <trkpt lat="46.39755" lon="5.58363">
        <ele>547</ele>
        <time>2022-07-29T10:23:26Z</time>
      </trkpt>
      <trkpt lat="46.39755" lon="5.58363">
        <ele>547</ele>
        <time>2022-07-29T10:23:31Z</time>
      </trkpt>
      <trkpt lat="46.39755" lon="5.58363">
        <ele>547</ele>
        <time>2022-07-29T10:23:32Z</time>
      </trkpt>
      <trkpt lat="46.39755" lon="5.58363">
        <ele>547</ele>
        <time>2022-07-29T10:23:33Z</time>
      </trkpt>
      <trkpt lat="46.39755" lon="5.58363">
        <ele>547</ele>
        <time>2022-07-29T10:23:34Z</time>
      </trkpt>
      <trkpt lat="46.39755" lon="5.58363">
        <ele>547</ele>
        <time>2022-07-29T10:23:35Z</time>
      </trkpt>
      <trkpt lat="46.39755" lon="5.58363">
        <ele>547</ele>
        <time>2022-07-29T10:23:36Z</time>
      </trkpt>
      <trkpt lat="46.39755" lon="5.58363">
        <ele>547</ele>
        <time>2022-07-29T10:23:42Z</time>
      </trkpt>
      <trkpt lat="46.39755" lon="5.58363">
        <ele>547</ele>
        <time>2022-07-29T10:23:43Z</time>
      </trkpt>
      <trkpt lat="46.39755" lon="5.58363">
        <ele>547</ele>
        <time>2022-07-29T10:23:49Z</time>
      </trkpt>
      <trkpt lat="46.39755" lon="5.58363">
        <ele>547</ele>
        <time>2022-07-29T10:23:50Z</time>
      </trkpt>
      <trkpt lat="46.39755" lon="5.58363">
        <ele>547</ele>
        <time>2022-07-29T10:23:51Z</time>
      </trkpt>
      <trkpt lat="46.39755" lon="5.58363">
        <ele>547</ele>
        <time>2022-07-29T10:23:52Z</time>
      </trkpt>
      <trkpt lat="46.39755" lon="5.58363">
        <ele>547</ele>
        <time>2022-07-29T10:23:53Z</time>
      </trkpt>
      <trkpt lat="46.39755" lon="5.58363">
        <ele>547</ele>
        <time>2022-07-29T10:23:54Z</time>
      </trkpt>
      <trkpt lat="46.39755" lon="5.58363">
        <ele>547</ele>
        <time>2022-07-29T10:23:55Z</time>
      </trkpt>
      <trkpt lat="46.39755" lon="5.58363">
        <ele>547</ele>
        <time>2022-07-29T10:23:56Z</time>
      </trkpt>
      <trkpt lat="46.39755" lon="5.58363">
        <ele>547</ele>
        <time>2022-07-29T10:23:57Z</time>
      </trkpt>
      <trkpt lat="46.39755" lon="5.58363">
        <ele>547</ele>
        <time>2022-07-29T10:23:58Z</time>
      </trkpt>
      <trkpt lat="46.39755" lon="5.58363">
        <ele>547</ele>
        <time>2022-07-29T10:24:07Z</time>
      </trkpt>
      <trkpt lat="46.39755" lon="5.58363">
        <ele>547</ele>
        <time>2022-07-29T10:24:08Z</time>
      </trkpt>
      <trkpt lat="46.39755" lon="5.58363">
        <ele>547</ele>
        <time>2022-07-29T10:24:11Z</time>
      </trkpt>
      <trkpt lat="46.39755" lon="5.58363">
        <ele>547</ele>
        <time>2022-07-29T10:24:12Z</time>
      </trkpt>
      <trkpt lat="46.39755" lon="5.58363">
        <ele>547</ele>
        <time>2022-07-29T10:24:18Z</time>
      </trkpt>
      <trkpt lat="46.39755" lon="5.58363">
        <ele>547</ele>
        <time>2022-07-29T10:24:19Z</time>
      </trkpt>
      <trkpt lat="46.39755" lon="5.58363">
        <ele>547</ele>
        <time>2022-07-29T10:24:20Z</time>
      </trkpt>
      <trkpt lat="46.39755" lon="5.58363">
        <ele>547</ele>
        <time>2022-07-29T10:24:21Z</time>
      </trkpt>
      <trkpt lat="46.39755" lon="5.58363">
        <ele>547</ele>
        <time>2022-07-29T10:24:22Z</time>
      </trkpt>
      <trkpt lat="46.39755" lon="5.58363">
        <ele>547</ele>
        <time>2022-07-29T10:24:23Z</time>
      </trkpt>
      <trkpt lat="46.39755" lon="5.58363">
        <ele>547</ele>
        <time>2022-07-29T10:24:24Z</time>
      </trkpt>
      <trkpt lat="46.39755" lon="5.58363">
        <ele>547</ele>
        <time>2022-07-29T10:24:26Z</time>
      </trkpt>
      <trkpt lat="46.39755" lon="5.58363">
        <ele>547</ele>
        <time>2022-07-29T10:24:27Z</time>
      </trkpt>
      <trkpt lat="46.39755" lon="5.58363">
        <ele>547</ele>
        <time>2022-07-29T10:24:28Z</time>
      </trkpt>
      <trkpt lat="46.39755" lon="5.58363">
        <ele>547</ele>
        <time>2022-07-29T10:24:29Z</time>
      </trkpt>
      <trkpt lat="46.39755" lon="5.58363">
        <ele>547</ele>
        <time>2022-07-29T10:24:30Z</time>
      </trkpt>
      <trkpt lat="46.39755" lon="5.58363">
        <ele>547.2</ele>
        <time>2022-07-29T10:25:17Z</time>
      </trkpt>
      <trkpt lat="46.39755" lon="5.58363">
        <ele>547.2</ele>
        <time>2022-07-29T10:25:18Z</time>
      </trkpt>
      <trkpt lat="46.39755" lon="5.58363">
        <ele>547.2</ele>
        <time>2022-07-29T10:25:19Z</time>
      </trkpt>
      <trkpt lat="46.39755" lon="5.58363">
        <ele>547.2</ele>
        <time>2022-07-29T10:25:20Z</time>
      </trkpt>
      <trkpt lat="46.39755" lon="5.58363">
        <ele>547.2</ele>
        <time>2022-07-29T10:25:21Z</time>
      </trkpt>
      <trkpt lat="46.39755" lon="5.58363">
        <ele>547.2</ele>
        <time>2022-07-29T10:25:22Z</time>
      </trkpt>
      <trkpt lat="46.39755" lon="5.58363">
        <ele>547.2</ele>
        <time>2022-07-29T10:25:23Z</time>
      </trkpt>
      <trkpt lat="46.39755" lon="5.58363">
        <ele>547.2</ele>
        <time>2022-07-29T10:25:24Z</time>
      </trkpt>
      <trkpt lat="46.39755" lon="5.58363">
        <ele>547.2</ele>
        <time>2022-07-29T10:25:25Z</time>
      </trkpt>
      <trkpt lat="46.39755" lon="5.58363">
        <ele>547.2</ele>
        <time>2022-07-29T10:25:28Z</time>
      </trkpt>
      <trkpt lat="46.39755" lon="5.58363">
        <ele>547.2</ele>
        <time>2022-07-29T10:25:29Z</time>
      </trkpt>
      <trkpt lat="46.39755" lon="5.58363">
        <ele>547.2</ele>
        <time>2022-07-29T10:25:30Z</time>
      </trkpt>
      <trkpt lat="46.39755" lon="5.58363">
        <ele>547.2</ele>
        <time>2022-07-29T10:25:31Z</time>
      </trkpt>
      <trkpt lat="46.39755" lon="5.58363">
        <ele>547.2</ele>
        <time>2022-07-29T10:25:32Z</time>
      </trkpt>
      <trkpt lat="46.39755" lon="5.58363">
        <ele>547.2</ele>
        <time>2022-07-29T10:25:41Z</time>
      </trkpt>
      <trkpt lat="46.39755" lon="5.58363">
        <ele>547.2</ele>
        <time>2022-07-29T10:25:42Z</time>
      </trkpt>
      <trkpt lat="46.39755" lon="5.58363">
        <ele>547.2</ele>
        <time>2022-07-29T10:25:43Z</time>
      </trkpt>
      <trkpt lat="46.39755" lon="5.58363">
        <ele>547.2</ele>
        <time>2022-07-29T10:25:44Z</time>
      </trkpt>
      <trkpt lat="46.39755" lon="5.58363">
        <ele>547.2</ele>
        <time>2022-07-29T10:25:48Z</time>
      </trkpt>
      <trkpt lat="46.39755" lon="5.58363">
        <ele>547.2</ele>
        <time>2022-07-29T10:25:49Z</time>
      </trkpt>
      <trkpt lat="46.39755" lon="5.58363">
        <ele>547.2</ele>
        <time>2022-07-29T10:25:50Z</time>
      </trkpt>
      <trkpt lat="46.39755" lon="5.58363">
        <ele>547.2</ele>
        <time>2022-07-29T10:25:51Z</time>
      </trkpt>
      <trkpt lat="46.39755" lon="5.58363">
        <ele>547.2</ele>
        <time>2022-07-29T10:25:52Z</time>
      </trkpt>
      <trkpt lat="46.39755" lon="5.58363">
        <ele>547.2</ele>
        <time>2022-07-29T10:25:53Z</time>
      </trkpt>
      <trkpt lat="46.39755" lon="5.58363">
        <ele>547.2</ele>
        <time>2022-07-29T10:25:55Z</time>
      </trkpt>
      <trkpt lat="46.39755" lon="5.58363">
        <ele>547.2</ele>
        <time>2022-07-29T10:25:56Z</time>
      </trkpt>
      <trkpt lat="46.39755" lon="5.58363">
        <ele>547.2</ele>
        <time>2022-07-29T10:25:57Z</time>
      </trkpt>
      <trkpt lat="46.39755" lon="5.58363">
        <ele>547.2</ele>
        <time>2022-07-29T10:25:58Z</time>
      </trkpt>
      <trkpt lat="46.39755" lon="5.58363">
        <ele>547.2</ele>
        <time>2022-07-29T10:25:59Z</time>
      </trkpt>
      <trkpt lat="46.39755" lon="5.58363">
        <ele>547.2</ele>
        <time>2022-07-29T10:26:00Z</time>
      </trkpt>
      <trkpt lat="46.39755" lon="5.58363">
        <ele>547.2</ele>
        <time>2022-07-29T10:26:01Z</time>
      </trkpt>
      <trkpt lat="46.39755" lon="5.58363">
        <ele>547.6</ele>
        <time>2022-07-29T10:26:02Z</time>
      </trkpt>
      <trkpt lat="46.39755" lon="5.58363">
        <ele>547.6</ele>
        <time>2022-07-29T10:26:05Z</time>
      </trkpt>
      <trkpt lat="46.39755" lon="5.58363">
        <ele>547.6</ele>
        <time>2022-07-29T10:26:06Z</time>
      </trkpt>
      <trkpt lat="46.39755" lon="5.58363">
        <ele>547.6</ele>
        <time>2022-07-29T10:26:07Z</time>
      </trkpt>
      <trkpt lat="46.39755" lon="5.58363">
        <ele>547.2</ele>
        <time>2022-07-29T10:26:14Z</time>
      </trkpt>
      <trkpt lat="46.39755" lon="5.58363">
        <ele>547.2</ele>
        <time>2022-07-29T10:26:15Z</time>
      </trkpt>
      <trkpt lat="46.39755" lon="5.58363">
        <ele>547.2</ele>
        <time>2022-07-29T10:26:16Z</time>
      </trkpt>
      <trkpt lat="46.39755" lon="5.58363">
        <ele>547.2</ele>
        <time>2022-07-29T10:26:17Z</time>
      </trkpt>
      <trkpt lat="46.39755" lon="5.58363">
        <ele>547.2</ele>
        <time>2022-07-29T10:26:18Z</time>
      </trkpt>
      <trkpt lat="46.39755" lon="5.58363">
        <ele>547.2</ele>
        <time>2022-07-29T10:26:24Z</time>
      </trkpt>
      <trkpt lat="46.39755" lon="5.58363">
        <ele>547.2</ele>
        <time>2022-07-29T10:26:25Z</time>
      </trkpt>
      <trkpt lat="46.39755" lon="5.58363">
        <ele>547.4</ele>
        <time>2022-07-29T10:26:27Z</time>
      </trkpt>
      <trkpt lat="46.39755" lon="5.58363">
        <ele>547.4</ele>
        <time>2022-07-29T10:26:28Z</time>
      </trkpt>
      <trkpt lat="46.39755" lon="5.58363">
        <ele>547.4</ele>
        <time>2022-07-29T10:26:49Z</time>
      </trkpt>
      <trkpt lat="46.39755" lon="5.58363">
        <ele>547.4</ele>
        <time>2022-07-29T10:26:50Z</time>
      </trkpt>
      <trkpt lat="46.39755" lon="5.58363">
        <ele>547.8</ele>
        <time>2022-07-29T10:26:58Z</time>
      </trkpt>
      <trkpt lat="46.39755" lon="5.58363">
        <ele>547.8</ele>
        <time>2022-07-29T10:26:59Z</time>
      </trkpt>
      <trkpt lat="46.39755" lon="5.58363">
        <ele>547.8</ele>
        <time>2022-07-29T10:27:00Z</time>
      </trkpt>
      <trkpt lat="46.39755" lon="5.58363">
        <ele>547.8</ele>
        <time>2022-07-29T10:27:10Z</time>
      </trkpt>
      <trkpt lat="46.39755" lon="5.58363">
        <ele>547.8</ele>
        <time>2022-07-29T10:27:11Z</time>
      </trkpt>
      <trkpt lat="46.39755" lon="5.58363">
        <ele>547.8</ele>
        <time>2022-07-29T10:27:12Z</time>
      </trkpt>
      <trkpt lat="46.39752" lon="5.58364">
        <ele>547.8</ele>
        <time>2022-07-29T10:27:13Z</time>
      </trkpt>
      <trkpt lat="46.39751" lon="5.58366">
        <ele>547.8</ele>
        <time>2022-07-29T10:27:14Z</time>
      </trkpt>
      <trkpt lat="46.3975" lon="5.58367">
        <ele>547.8</ele>
        <time>2022-07-29T10:27:15Z</time>
      </trkpt>
      <trkpt lat="46.39749" lon="5.58368">
        <ele>547.8</ele>
        <time>2022-07-29T10:27:16Z</time>
      </trkpt>
      <trkpt lat="46.39747" lon="5.5837">
        <ele>547.8</ele>
        <time>2022-07-29T10:27:17Z</time>
      </trkpt>
      <trkpt lat="46.39746" lon="5.58372">
        <ele>548</ele>
        <time>2022-07-29T10:27:18Z</time>
      </trkpt>
      <trkpt lat="46.39744" lon="5.58373">
        <ele>548</ele>
        <time>2022-07-29T10:27:19Z</time>
      </trkpt>
      <trkpt lat="46.39741" lon="5.58374">
        <ele>548</ele>
        <time>2022-07-29T10:27:20Z</time>
      </trkpt>
      <trkpt lat="46.39739" lon="5.58375">
        <ele>548.2</ele>
        <time>2022-07-29T10:27:21Z</time>
      </trkpt>
      <trkpt lat="46.39737" lon="5.58376">
        <ele>548.2</ele>
        <time>2022-07-29T10:27:22Z</time>
      </trkpt>
      <trkpt lat="46.39735" lon="5.58377">
        <ele>548.2</ele>
        <time>2022-07-29T10:27:23Z</time>
      </trkpt>
      <trkpt lat="46.39733" lon="5.58378">
        <ele>548.4</ele>
        <time>2022-07-29T10:27:24Z</time>
      </trkpt>
      <trkpt lat="46.3973" lon="5.58379">
        <ele>548.4</ele>
        <time>2022-07-29T10:27:25Z</time>
      </trkpt>
      <trkpt lat="46.39728" lon="5.58379">
        <ele>548.4</ele>
        <time>2022-07-29T10:27:26Z</time>
      </trkpt>
      <trkpt lat="46.39726" lon="5.5838">
        <ele>548.4</ele>
        <time>2022-07-29T10:27:27Z</time>
      </trkpt>
      <trkpt lat="46.39724" lon="5.58381">
        <ele>548.8</ele>
        <time>2022-07-29T10:27:28Z</time>
      </trkpt>
      <trkpt lat="46.39721" lon="5.58382">
        <ele>548.8</ele>
        <time>2022-07-29T10:27:29Z</time>
      </trkpt>
      <trkpt lat="46.39718" lon="5.58382">
        <ele>549</ele>
        <time>2022-07-29T10:27:30Z</time>
      </trkpt>
      <trkpt lat="46.39715" lon="5.58383">
        <ele>549</ele>
        <time>2022-07-29T10:27:31Z</time>
      </trkpt>
      <trkpt lat="46.39712" lon="5.58384">
        <ele>549</ele>
        <time>2022-07-29T10:27:32Z</time>
      </trkpt>
      <trkpt lat="46.3971" lon="5.58385">
        <ele>549.4</ele>
        <time>2022-07-29T10:27:33Z</time>
      </trkpt>
      <trkpt lat="46.39707" lon="5.58385">
        <ele>549.6</ele>
        <time>2022-07-29T10:27:34Z</time>
      </trkpt>
      <trkpt lat="46.39705" lon="5.58386">
        <ele>549.6</ele>
        <time>2022-07-29T10:27:35Z</time>
      </trkpt>
      <trkpt lat="46.39702" lon="5.58386">
        <ele>550</ele>
        <time>2022-07-29T10:27:36Z</time>
      </trkpt>
      <trkpt lat="46.397" lon="5.58386">
        <ele>550</ele>
        <time>2022-07-29T10:27:37Z</time>
      </trkpt>
      <trkpt lat="46.39697" lon="5.58386">
        <ele>550.2</ele>
        <time>2022-07-29T10:27:38Z</time>
      </trkpt>
      <trkpt lat="46.39695" lon="5.58386">
        <ele>550.2</ele>
        <time>2022-07-29T10:27:39Z</time>
      </trkpt>
      <trkpt lat="46.39693" lon="5.58387">
        <ele>550.6</ele>
        <time>2022-07-29T10:27:40Z</time>
      </trkpt>
      <trkpt lat="46.3969" lon="5.58388">
        <ele>550.6</ele>
        <time>2022-07-29T10:27:41Z</time>
      </trkpt>
      <trkpt lat="46.39688" lon="5.58389">
        <ele>551</ele>
        <time>2022-07-29T10:27:42Z</time>
      </trkpt>
      <trkpt lat="46.39685" lon="5.5839">
        <ele>551</ele>
        <time>2022-07-29T10:27:43Z</time>
      </trkpt>
      <trkpt lat="46.39683" lon="5.58391">
        <ele>551.2</ele>
        <time>2022-07-29T10:27:44Z</time>
      </trkpt>
      <trkpt lat="46.3968" lon="5.58394">
        <ele>551.2</ele>
        <time>2022-07-29T10:27:45Z</time>
      </trkpt>
      <trkpt lat="46.39678" lon="5.58396">
        <ele>551.6</ele>
        <time>2022-07-29T10:27:46Z</time>
      </trkpt>
      <trkpt lat="46.39675" lon="5.58397">
        <ele>551.6</ele>
        <time>2022-07-29T10:27:47Z</time>
      </trkpt>
      <trkpt lat="46.39673" lon="5.58398">
        <ele>551.8</ele>
        <time>2022-07-29T10:27:48Z</time>
      </trkpt>
      <trkpt lat="46.39669" lon="5.584">
        <ele>551.8</ele>
        <time>2022-07-29T10:27:49Z</time>
      </trkpt>
      <trkpt lat="46.39667" lon="5.58402">
        <ele>551.8</ele>
        <time>2022-07-29T10:27:50Z</time>
      </trkpt>
      <trkpt lat="46.39663" lon="5.58404">
        <ele>552</ele>
        <time>2022-07-29T10:27:51Z</time>
      </trkpt>
      <trkpt lat="46.3966" lon="5.58405">
        <ele>552</ele>
        <time>2022-07-29T10:27:52Z</time>
      </trkpt>
      <trkpt lat="46.39657" lon="5.58407">
        <ele>552</ele>
        <time>2022-07-29T10:27:53Z</time>
      </trkpt>
      <trkpt lat="46.39654" lon="5.58408">
        <ele>552.4</ele>
        <time>2022-07-29T10:27:54Z</time>
      </trkpt>
      <trkpt lat="46.39651" lon="5.5841">
        <ele>552.4</ele>
        <time>2022-07-29T10:27:55Z</time>
      </trkpt>
      <trkpt lat="46.39648" lon="5.58411">
        <ele>552.4</ele>
        <time>2022-07-29T10:27:56Z</time>
      </trkpt>
      <trkpt lat="46.39645" lon="5.58412">
        <ele>552.6</ele>
        <time>2022-07-29T10:27:57Z</time>
      </trkpt>
      <trkpt lat="46.39642" lon="5.58413">
        <ele>552.6</ele>
        <time>2022-07-29T10:27:58Z</time>
      </trkpt>
      <trkpt lat="46.3964" lon="5.58414">
        <ele>552.8</ele>
        <time>2022-07-29T10:27:59Z</time>
      </trkpt>
      <trkpt lat="46.39637" lon="5.58415">
        <ele>553</ele>
        <time>2022-07-29T10:28:00Z</time>
      </trkpt>
      <trkpt lat="46.39634" lon="5.58416">
        <ele>553</ele>
        <time>2022-07-29T10:28:01Z</time>
      </trkpt>
      <trkpt lat="46.39632" lon="5.58417">
        <ele>553.4</ele>
        <time>2022-07-29T10:28:02Z</time>
      </trkpt>
      <trkpt lat="46.39629" lon="5.58417">
        <ele>553.4</ele>
        <time>2022-07-29T10:28:03Z</time>
      </trkpt>
      <trkpt lat="46.39627" lon="5.58418">
        <ele>553.8</ele>
        <time>2022-07-29T10:28:04Z</time>
      </trkpt>
      <trkpt lat="46.39624" lon="5.58418">
        <ele>553.8</ele>
        <time>2022-07-29T10:28:05Z</time>
      </trkpt>
      <trkpt lat="46.39622" lon="5.58419">
        <ele>554.2</ele>
        <time>2022-07-29T10:28:06Z</time>
      </trkpt>
      <trkpt lat="46.39619" lon="5.58419">
        <ele>554.4</ele>
        <time>2022-07-29T10:28:07Z</time>
      </trkpt>
      <trkpt lat="46.39617" lon="5.58419">
        <ele>554.6</ele>
        <time>2022-07-29T10:28:08Z</time>
      </trkpt>
      <trkpt lat="46.39614" lon="5.5842">
        <ele>554.6</ele>
        <time>2022-07-29T10:28:09Z</time>
      </trkpt>
      <trkpt lat="46.39612" lon="5.5842">
        <ele>555</ele>
        <time>2022-07-29T10:28:10Z</time>
      </trkpt>
      <trkpt lat="46.39609" lon="5.5842">
        <ele>555</ele>
        <time>2022-07-29T10:28:11Z</time>
      </trkpt>
      <trkpt lat="46.39607" lon="5.58421">
        <ele>555.4</ele>
        <time>2022-07-29T10:28:12Z</time>
      </trkpt>
      <trkpt lat="46.39604" lon="5.58422">
        <ele>555.4</ele>
        <time>2022-07-29T10:28:13Z</time>
      </trkpt>
      <trkpt lat="46.39602" lon="5.58422">
        <ele>555.8</ele>
        <time>2022-07-29T10:28:14Z</time>
      </trkpt>
      <trkpt lat="46.396" lon="5.58423">
        <ele>556.2</ele>
        <time>2022-07-29T10:28:15Z</time>
      </trkpt>
      <trkpt lat="46.39597" lon="5.58424">
        <ele>556.2</ele>
        <time>2022-07-29T10:28:16Z</time>
      </trkpt>
      <trkpt lat="46.39595" lon="5.58425">
        <ele>556.4</ele>
        <time>2022-07-29T10:28:17Z</time>
      </trkpt>
      <trkpt lat="46.39593" lon="5.58425">
        <ele>556.4</ele>
        <time>2022-07-29T10:28:18Z</time>
      </trkpt>
      <trkpt lat="46.39591" lon="5.58426">
        <ele>556.8</ele>
        <time>2022-07-29T10:28:19Z</time>
      </trkpt>
      <trkpt lat="46.39589" lon="5.58427">
        <ele>556.8</ele>
        <time>2022-07-29T10:28:20Z</time>
      </trkpt>
      <trkpt lat="46.39586" lon="5.58427">
        <ele>557.2</ele>
        <time>2022-07-29T10:28:21Z</time>
      </trkpt>
      <trkpt lat="46.39584" lon="5.58428">
        <ele>557.2</ele>
        <time>2022-07-29T10:28:22Z</time>
      </trkpt>
      <trkpt lat="46.39582" lon="5.58428">
        <ele>557.4</ele>
        <time>2022-07-29T10:28:23Z</time>
      </trkpt>
      <trkpt lat="46.39579" lon="5.58428">
        <ele>557.4</ele>
        <time>2022-07-29T10:28:24Z</time>
      </trkpt>
      <trkpt lat="46.39577" lon="5.58428">
        <ele>557.8</ele>
        <time>2022-07-29T10:28:25Z</time>
      </trkpt>
      <trkpt lat="46.39574" lon="5.58428">
        <ele>557.8</ele>
        <time>2022-07-29T10:28:26Z</time>
      </trkpt>
      <trkpt lat="46.39572" lon="5.58428">
        <ele>558</ele>
        <time>2022-07-29T10:28:27Z</time>
      </trkpt>
      <trkpt lat="46.3957" lon="5.58427">
        <ele>558</ele>
        <time>2022-07-29T10:28:28Z</time>
      </trkpt>
      <trkpt lat="46.39568" lon="5.58426">
        <ele>558.2</ele>
        <time>2022-07-29T10:28:29Z</time>
      </trkpt>
      <trkpt lat="46.39566" lon="5.58425">
        <ele>558.2</ele>
        <time>2022-07-29T10:28:30Z</time>
      </trkpt>
      <trkpt lat="46.39564" lon="5.58424">
        <ele>558.6</ele>
        <time>2022-07-29T10:28:31Z</time>
      </trkpt>
      <trkpt lat="46.39562" lon="5.58423">
        <ele>558.6</ele>
        <time>2022-07-29T10:28:32Z</time>
      </trkpt>
      <trkpt lat="46.39561" lon="5.58423">
        <ele>559</ele>
        <time>2022-07-29T10:28:33Z</time>
      </trkpt>
      <trkpt lat="46.39559" lon="5.58422">
        <ele>559.2</ele>
        <time>2022-07-29T10:28:34Z</time>
      </trkpt>
      <trkpt lat="46.39557" lon="5.58421">
        <ele>559.4</ele>
        <time>2022-07-29T10:28:35Z</time>
      </trkpt>
      <trkpt lat="46.39556" lon="5.5842">
        <ele>559.4</ele>
        <time>2022-07-29T10:28:36Z</time>
      </trkpt>
      <trkpt lat="46.39554" lon="5.58419">
        <ele>559.6</ele>
        <time>2022-07-29T10:28:37Z</time>
      </trkpt>
      <trkpt lat="46.39552" lon="5.58418">
        <ele>559.6</ele>
        <time>2022-07-29T10:28:38Z</time>
      </trkpt>
      <trkpt lat="46.3955" lon="5.58417">
        <ele>560</ele>
        <time>2022-07-29T10:28:39Z</time>
      </trkpt>
      <trkpt lat="46.39548" lon="5.58416">
        <ele>560.2</ele>
        <time>2022-07-29T10:28:40Z</time>
      </trkpt>
      <trkpt lat="46.39546" lon="5.58416">
        <ele>560.2</ele>
        <time>2022-07-29T10:28:41Z</time>
      </trkpt>
      <trkpt lat="46.39543" lon="5.58415">
        <ele>560.6</ele>
        <time>2022-07-29T10:28:42Z</time>
      </trkpt>
      <trkpt lat="46.3954" lon="5.58415">
        <ele>560.6</ele>
        <time>2022-07-29T10:28:43Z</time>
      </trkpt>
      <trkpt lat="46.39538" lon="5.58414">
        <ele>560.8</ele>
        <time>2022-07-29T10:28:44Z</time>
      </trkpt>
      <trkpt lat="46.39535" lon="5.58414">
        <ele>560.8</ele>
        <time>2022-07-29T10:28:45Z</time>
      </trkpt>
      <trkpt lat="46.39532" lon="5.58415">
        <ele>561</ele>
        <time>2022-07-29T10:28:46Z</time>
      </trkpt>
      <trkpt lat="46.39529" lon="5.58415">
        <ele>561</ele>
        <time>2022-07-29T10:28:47Z</time>
      </trkpt>
      <trkpt lat="46.39527" lon="5.58416">
        <ele>561.4</ele>
        <time>2022-07-29T10:28:48Z</time>
      </trkpt>
      <trkpt lat="46.39525" lon="5.58417">
        <ele>561.6</ele>
        <time>2022-07-29T10:28:49Z</time>
      </trkpt>
      <trkpt lat="46.39523" lon="5.58418">
        <ele>561.8</ele>
        <time>2022-07-29T10:28:50Z</time>
      </trkpt>
      <trkpt lat="46.39521" lon="5.58419">
        <ele>562</ele>
        <time>2022-07-29T10:28:51Z</time>
      </trkpt>
      <trkpt lat="46.39519" lon="5.5842">
        <ele>562</ele>
        <time>2022-07-29T10:28:52Z</time>
      </trkpt>
      <trkpt lat="46.39517" lon="5.58422">
        <ele>562.2</ele>
        <time>2022-07-29T10:28:53Z</time>
      </trkpt>
      <trkpt lat="46.39515" lon="5.58425">
        <ele>562.2</ele>
        <time>2022-07-29T10:28:54Z</time>
      </trkpt>
      <trkpt lat="46.39513" lon="5.58428">
        <ele>562.6</ele>
        <time>2022-07-29T10:28:55Z</time>
      </trkpt>
      <trkpt lat="46.39512" lon="5.58431">
        <ele>562.6</ele>
        <time>2022-07-29T10:28:56Z</time>
      </trkpt>
      <trkpt lat="46.3951" lon="5.58434">
        <ele>562.8</ele>
        <time>2022-07-29T10:28:57Z</time>
      </trkpt>
      <trkpt lat="46.39508" lon="5.58437">
        <ele>562.8</ele>
        <time>2022-07-29T10:28:58Z</time>
      </trkpt>
      <trkpt lat="46.39506" lon="5.5844">
        <ele>563</ele>
        <time>2022-07-29T10:28:59Z</time>
      </trkpt>
      <trkpt lat="46.39504" lon="5.58442">
        <ele>563</ele>
        <time>2022-07-29T10:29:00Z</time>
      </trkpt>
      <trkpt lat="46.39502" lon="5.58445">
        <ele>563.4</ele>
        <time>2022-07-29T10:29:01Z</time>
      </trkpt>
      <trkpt lat="46.395" lon="5.58448">
        <ele>563.4</ele>
        <time>2022-07-29T10:29:02Z</time>
      </trkpt>
      <trkpt lat="46.39498" lon="5.5845">
        <ele>563.6</ele>
        <time>2022-07-29T10:29:03Z</time>
      </trkpt>
      <trkpt lat="46.39496" lon="5.58452">
        <ele>563.6</ele>
        <time>2022-07-29T10:29:04Z</time>
      </trkpt>
      <trkpt lat="46.39493" lon="5.58454">
        <ele>564</ele>
        <time>2022-07-29T10:29:05Z</time>
      </trkpt>
      <trkpt lat="46.39491" lon="5.58456">
        <ele>564</ele>
        <time>2022-07-29T10:29:06Z</time>
      </trkpt>
      <trkpt lat="46.39488" lon="5.58457">
        <ele>564.2</ele>
        <time>2022-07-29T10:29:07Z</time>
      </trkpt>
      <trkpt lat="46.39485" lon="5.58458">
        <ele>564.4</ele>
        <time>2022-07-29T10:29:08Z</time>
      </trkpt>
      <trkpt lat="46.39482" lon="5.58459">
        <ele>564.4</ele>
        <time>2022-07-29T10:29:09Z</time>
      </trkpt>
      <trkpt lat="46.3948" lon="5.58459">
        <ele>564.8</ele>
        <time>2022-07-29T10:29:10Z</time>
      </trkpt>
      <trkpt lat="46.39477" lon="5.5846">
        <ele>564.8</ele>
        <time>2022-07-29T10:29:11Z</time>
      </trkpt>
      <trkpt lat="46.39474" lon="5.58459">
        <ele>565</ele>
        <time>2022-07-29T10:29:12Z</time>
      </trkpt>
      <trkpt lat="46.39471" lon="5.58459">
        <ele>565</ele>
        <time>2022-07-29T10:29:13Z</time>
      </trkpt>
      <trkpt lat="46.39468" lon="5.58458">
        <ele>565.4</ele>
        <time>2022-07-29T10:29:14Z</time>
      </trkpt>
      <trkpt lat="46.39465" lon="5.58457">
        <ele>565.6</ele>
        <time>2022-07-29T10:29:15Z</time>
      </trkpt>
      <trkpt lat="46.39463" lon="5.58455">
        <ele>565.6</ele>
        <time>2022-07-29T10:29:16Z</time>
      </trkpt>
      <trkpt lat="46.39461" lon="5.58453">
        <ele>565.8</ele>
        <time>2022-07-29T10:29:17Z</time>
      </trkpt>
      <trkpt lat="46.39458" lon="5.58451">
        <ele>565.8</ele>
        <time>2022-07-29T10:29:18Z</time>
      </trkpt>
      <trkpt lat="46.39456" lon="5.58449">
        <ele>566.2</ele>
        <time>2022-07-29T10:29:19Z</time>
      </trkpt>
      <trkpt lat="46.39454" lon="5.58448">
        <ele>566.2</ele>
        <time>2022-07-29T10:29:20Z</time>
      </trkpt>
      <trkpt lat="46.39452" lon="5.58446">
        <ele>566.6</ele>
        <time>2022-07-29T10:29:21Z</time>
      </trkpt>
      <trkpt lat="46.3945" lon="5.58444">
        <ele>566.8</ele>
        <time>2022-07-29T10:29:22Z</time>
      </trkpt>
      <trkpt lat="46.39448" lon="5.58443">
        <ele>566.8</ele>
        <time>2022-07-29T10:29:23Z</time>
      </trkpt>
      <trkpt lat="46.39446" lon="5.58441">
        <ele>567.2</ele>
        <time>2022-07-29T10:29:24Z</time>
      </trkpt>
      <trkpt lat="46.39444" lon="5.58439">
        <ele>567.4</ele>
        <time>2022-07-29T10:29:25Z</time>
      </trkpt>
      <trkpt lat="46.39442" lon="5.58438">
        <ele>567.4</ele>
        <time>2022-07-29T10:29:26Z</time>
      </trkpt>
      <trkpt lat="46.3944" lon="5.58437">
        <ele>567.8</ele>
        <time>2022-07-29T10:29:27Z</time>
      </trkpt>
      <trkpt lat="46.39438" lon="5.58435">
        <ele>567.8</ele>
        <time>2022-07-29T10:29:28Z</time>
      </trkpt>
      <trkpt lat="46.39436" lon="5.58434">
        <ele>568</ele>
        <time>2022-07-29T10:29:29Z</time>
      </trkpt>
      <trkpt lat="46.39433" lon="5.58432">
        <ele>568</ele>
        <time>2022-07-29T10:29:30Z</time>
      </trkpt>
      <trkpt lat="46.39431" lon="5.5843">
        <ele>568.4</ele>
        <time>2022-07-29T10:29:31Z</time>
      </trkpt>
      <trkpt lat="46.3943" lon="5.58429">
        <ele>568.4</ele>
        <time>2022-07-29T10:29:32Z</time>
      </trkpt>
      <trkpt lat="46.39428" lon="5.58427">
        <ele>568.6</ele>
        <time>2022-07-29T10:29:33Z</time>
      </trkpt>
      <trkpt lat="46.39426" lon="5.58425">
        <ele>568.6</ele>
        <time>2022-07-29T10:29:34Z</time>
      </trkpt>
      <trkpt lat="46.39425" lon="5.58422">
        <ele>569</ele>
        <time>2022-07-29T10:29:35Z</time>
      </trkpt>
      <trkpt lat="46.39423" lon="5.5842">
        <ele>569</ele>
        <time>2022-07-29T10:29:36Z</time>
      </trkpt>
      <trkpt lat="46.39421" lon="5.58418">
        <ele>569.2</ele>
        <time>2022-07-29T10:29:37Z</time>
      </trkpt>
      <trkpt lat="46.3942" lon="5.58416">
        <ele>569.2</ele>
        <time>2022-07-29T10:29:38Z</time>
      </trkpt>
      <trkpt lat="46.39419" lon="5.58413">
        <ele>569.6</ele>
        <time>2022-07-29T10:29:39Z</time>
      </trkpt>
      <trkpt lat="46.39418" lon="5.5841">
        <ele>569.6</ele>
        <time>2022-07-29T10:29:40Z</time>
      </trkpt>
      <trkpt lat="46.39416" lon="5.58408">
        <ele>570</ele>
        <time>2022-07-29T10:29:41Z</time>
      </trkpt>
      <trkpt lat="46.39415" lon="5.58405">
        <ele>570.2</ele>
        <time>2022-07-29T10:29:42Z</time>
      </trkpt>
      <trkpt lat="46.39414" lon="5.58403">
        <ele>570.4</ele>
        <time>2022-07-29T10:29:43Z</time>
      </trkpt>
      <trkpt lat="46.39413" lon="5.58401">
        <ele>570.6</ele>
        <time>2022-07-29T10:29:44Z</time>
      </trkpt>
      <trkpt lat="46.39411" lon="5.58399">
        <ele>570.8</ele>
        <time>2022-07-29T10:29:45Z</time>
      </trkpt>
      <trkpt lat="46.3941" lon="5.58396">
        <ele>570.8</ele>
        <time>2022-07-29T10:29:46Z</time>
      </trkpt>
      <trkpt lat="46.39408" lon="5.58393">
        <ele>571.2</ele>
        <time>2022-07-29T10:29:47Z</time>
      </trkpt>
      <trkpt lat="46.39407" lon="5.5839">
        <ele>571.2</ele>
        <time>2022-07-29T10:29:48Z</time>
      </trkpt>
      <trkpt lat="46.39405" lon="5.58388">
        <ele>571.6</ele>
        <time>2022-07-29T10:29:49Z</time>
      </trkpt>
      <trkpt lat="46.39403" lon="5.58385">
        <ele>571.6</ele>
        <time>2022-07-29T10:29:50Z</time>
      </trkpt>
      <trkpt lat="46.39401" lon="5.58382">
        <ele>572</ele>
        <time>2022-07-29T10:29:51Z</time>
      </trkpt>
      <trkpt lat="46.39398" lon="5.5838">
        <ele>572</ele>
        <time>2022-07-29T10:29:52Z</time>
      </trkpt>
      <trkpt lat="46.39396" lon="5.58377">
        <ele>572.2</ele>
        <time>2022-07-29T10:29:53Z</time>
      </trkpt>
      <trkpt lat="46.39394" lon="5.58376">
        <ele>572.2</ele>
        <time>2022-07-29T10:29:54Z</time>
      </trkpt>
      <trkpt lat="46.39391" lon="5.58375">
        <ele>572.6</ele>
        <time>2022-07-29T10:29:55Z</time>
      </trkpt>
      <trkpt lat="46.39388" lon="5.58375">
        <ele>572.6</ele>
        <time>2022-07-29T10:29:56Z</time>
      </trkpt>
      <trkpt lat="46.39385" lon="5.58375">
        <ele>572.8</ele>
        <time>2022-07-29T10:29:57Z</time>
      </trkpt>
      <trkpt lat="46.39382" lon="5.58375">
        <ele>572.8</ele>
        <time>2022-07-29T10:29:58Z</time>
      </trkpt>
      <trkpt lat="46.3938" lon="5.58377">
        <ele>573.2</ele>
        <time>2022-07-29T10:29:59Z</time>
      </trkpt>
      <trkpt lat="46.39377" lon="5.58378">
        <ele>573.2</ele>
        <time>2022-07-29T10:30:00Z</time>
      </trkpt>
      <trkpt lat="46.39375" lon="5.58381">
        <ele>573.4</ele>
        <time>2022-07-29T10:30:01Z</time>
      </trkpt>
      <trkpt lat="46.39373" lon="5.58383">
        <ele>573.4</ele>
        <time>2022-07-29T10:30:02Z</time>
      </trkpt>
      <trkpt lat="46.39371" lon="5.58386">
        <ele>573.8</ele>
        <time>2022-07-29T10:30:03Z</time>
      </trkpt>
      <trkpt lat="46.39369" lon="5.58389">
        <ele>573.8</ele>
        <time>2022-07-29T10:30:04Z</time>
      </trkpt>
      <trkpt lat="46.39368" lon="5.58393">
        <ele>574</ele>
        <time>2022-07-29T10:30:05Z</time>
      </trkpt>
      <trkpt lat="46.39367" lon="5.58396">
        <ele>574.2</ele>
        <time>2022-07-29T10:30:06Z</time>
      </trkpt>
      <trkpt lat="46.39367" lon="5.584">
        <ele>574.2</ele>
        <time>2022-07-29T10:30:07Z</time>
      </trkpt>
      <trkpt lat="46.39367" lon="5.58404">
        <ele>574.6</ele>
        <time>2022-07-29T10:30:08Z</time>
      </trkpt>
      <trkpt lat="46.39367" lon="5.58408">
        <ele>574.6</ele>
        <time>2022-07-29T10:30:09Z</time>
      </trkpt>
      <trkpt lat="46.39368" lon="5.58411">
        <ele>574.8</ele>
        <time>2022-07-29T10:30:10Z</time>
      </trkpt>
      <trkpt lat="46.39369" lon="5.58415">
        <ele>574.8</ele>
        <time>2022-07-29T10:30:11Z</time>
      </trkpt>
      <trkpt lat="46.3937" lon="5.58418">
        <ele>575.2</ele>
        <time>2022-07-29T10:30:12Z</time>
      </trkpt>
      <trkpt lat="46.39372" lon="5.58421">
        <ele>575.2</ele>
        <time>2022-07-29T10:30:13Z</time>
      </trkpt>
      <trkpt lat="46.39373" lon="5.58425">
        <ele>575.4</ele>
        <time>2022-07-29T10:30:14Z</time>
      </trkpt>
      <trkpt lat="46.39375" lon="5.58428">
        <ele>575.4</ele>
        <time>2022-07-29T10:30:15Z</time>
      </trkpt>
      <trkpt lat="46.39376" lon="5.58431">
        <ele>575.8</ele>
        <time>2022-07-29T10:30:16Z</time>
      </trkpt>
      <trkpt lat="46.39378" lon="5.58434">
        <ele>575.8</ele>
        <time>2022-07-29T10:30:17Z</time>
      </trkpt>
      <trkpt lat="46.39379" lon="5.58437">
        <ele>576</ele>
        <time>2022-07-29T10:30:18Z</time>
      </trkpt>
      <trkpt lat="46.39381" lon="5.5844">
        <ele>576</ele>
        <time>2022-07-29T10:30:19Z</time>
      </trkpt>
      <trkpt lat="46.39382" lon="5.58444">
        <ele>576.4</ele>
        <time>2022-07-29T10:30:20Z</time>
      </trkpt>
      <trkpt lat="46.39384" lon="5.58447">
        <ele>576.4</ele>
        <time>2022-07-29T10:30:21Z</time>
      </trkpt>
      <trkpt lat="46.39385" lon="5.58451">
        <ele>576.6</ele>
        <time>2022-07-29T10:30:22Z</time>
      </trkpt>
      <trkpt lat="46.39387" lon="5.58455">
        <ele>576.6</ele>
        <time>2022-07-29T10:30:23Z</time>
      </trkpt>
      <trkpt lat="46.39389" lon="5.58458">
        <ele>576.6</ele>
        <time>2022-07-29T10:30:24Z</time>
      </trkpt>
      <trkpt lat="46.3939" lon="5.58462">
        <ele>576.8</ele>
        <time>2022-07-29T10:30:25Z</time>
      </trkpt>
      <trkpt lat="46.39392" lon="5.58467">
        <ele>576.8</ele>
        <time>2022-07-29T10:30:26Z</time>
      </trkpt>
      <trkpt lat="46.39393" lon="5.58471">
        <ele>577</ele>
        <time>2022-07-29T10:30:27Z</time>
      </trkpt>
      <trkpt lat="46.39393" lon="5.58476">
        <ele>577</ele>
        <time>2022-07-29T10:30:28Z</time>
      </trkpt>
      <trkpt lat="46.39394" lon="5.58481">
        <ele>577.2</ele>
        <time>2022-07-29T10:30:29Z</time>
      </trkpt>
      <trkpt lat="46.39394" lon="5.58486">
        <ele>577.2</ele>
        <time>2022-07-29T10:30:30Z</time>
      </trkpt>
      <trkpt lat="46.39395" lon="5.58491">
        <ele>577.4</ele>
        <time>2022-07-29T10:30:31Z</time>
      </trkpt>
      <trkpt lat="46.39394" lon="5.58496">
        <ele>577.4</ele>
        <time>2022-07-29T10:30:32Z</time>
      </trkpt>
      <trkpt lat="46.39394" lon="5.58501">
        <ele>577.8</ele>
        <time>2022-07-29T10:30:33Z</time>
      </trkpt>
      <trkpt lat="46.39394" lon="5.58507">
        <ele>577.8</ele>
        <time>2022-07-29T10:30:34Z</time>
      </trkpt>
      <trkpt lat="46.39394" lon="5.58512">
        <ele>578</ele>
        <time>2022-07-29T10:30:35Z</time>
      </trkpt>
      <trkpt lat="46.39394" lon="5.58517">
        <ele>578</ele>
        <time>2022-07-29T10:30:36Z</time>
      </trkpt>
      <trkpt lat="46.39394" lon="5.58523">
        <ele>578</ele>
        <time>2022-07-29T10:30:37Z</time>
      </trkpt>
      <trkpt lat="46.39394" lon="5.58529">
        <ele>578</ele>
        <time>2022-07-29T10:30:38Z</time>
      </trkpt>
      <trkpt lat="46.39394" lon="5.58535">
        <ele>578.2</ele>
        <time>2022-07-29T10:30:39Z</time>
      </trkpt>
      <trkpt lat="46.39394" lon="5.5854">
        <ele>578.2</ele>
        <time>2022-07-29T10:30:40Z</time>
      </trkpt>
      <trkpt lat="46.39394" lon="5.58546">
        <ele>578.4</ele>
        <time>2022-07-29T10:30:41Z</time>
      </trkpt>
      <trkpt lat="46.39394" lon="5.58552">
        <ele>578.4</ele>
        <time>2022-07-29T10:30:42Z</time>
      </trkpt>
      <trkpt lat="46.39394" lon="5.58557">
        <ele>578.4</ele>
        <time>2022-07-29T10:30:43Z</time>
      </trkpt>
      <trkpt lat="46.39394" lon="5.58563">
        <ele>578.6</ele>
        <time>2022-07-29T10:30:44Z</time>
      </trkpt>
      <trkpt lat="46.39394" lon="5.58569">
        <ele>578.6</ele>
        <time>2022-07-29T10:30:45Z</time>
      </trkpt>
      <trkpt lat="46.39394" lon="5.58574">
        <ele>578.6</ele>
        <time>2022-07-29T10:30:46Z</time>
      </trkpt>
      <trkpt lat="46.39394" lon="5.5858">
        <ele>578.6</ele>
        <time>2022-07-29T10:30:47Z</time>
      </trkpt>
      <trkpt lat="46.39395" lon="5.58586">
        <ele>579</ele>
        <time>2022-07-29T10:30:48Z</time>
      </trkpt>
      <trkpt lat="46.39395" lon="5.58592">
        <ele>579</ele>
        <time>2022-07-29T10:30:49Z</time>
      </trkpt>
      <trkpt lat="46.39396" lon="5.58598">
        <ele>579</ele>
        <time>2022-07-29T10:30:50Z</time>
      </trkpt>
      <trkpt lat="46.39396" lon="5.58604">
        <ele>579.2</ele>
        <time>2022-07-29T10:30:51Z</time>
      </trkpt>
      <trkpt lat="46.39396" lon="5.5861">
        <ele>579.2</ele>
        <time>2022-07-29T10:30:52Z</time>
      </trkpt>
      <trkpt lat="46.39396" lon="5.58616">
        <ele>579.4</ele>
        <time>2022-07-29T10:30:53Z</time>
      </trkpt>
      <trkpt lat="46.39397" lon="5.58623">
        <ele>579.4</ele>
        <time>2022-07-29T10:30:54Z</time>
      </trkpt>
      <trkpt lat="46.39397" lon="5.58629">
        <ele>579.6</ele>
        <time>2022-07-29T10:30:55Z</time>
      </trkpt>
      <trkpt lat="46.39397" lon="5.58635">
        <ele>579.6</ele>
        <time>2022-07-29T10:30:56Z</time>
      </trkpt>
      <trkpt lat="46.39397" lon="5.58641">
        <ele>579.6</ele>
        <time>2022-07-29T10:30:57Z</time>
      </trkpt>
      <trkpt lat="46.39397" lon="5.58647">
        <ele>580</ele>
        <time>2022-07-29T10:30:58Z</time>
      </trkpt>
      <trkpt lat="46.39398" lon="5.58652">
        <ele>580</ele>
        <time>2022-07-29T10:30:59Z</time>
      </trkpt>
      <trkpt lat="46.39398" lon="5.58658">
        <ele>580</ele>
        <time>2022-07-29T10:31:00Z</time>
      </trkpt>
      <trkpt lat="46.39398" lon="5.58664">
        <ele>580.2</ele>
        <time>2022-07-29T10:31:01Z</time>
      </trkpt>
      <trkpt lat="46.39398" lon="5.5867">
        <ele>580.2</ele>
        <time>2022-07-29T10:31:02Z</time>
      </trkpt>
      <trkpt lat="46.39398" lon="5.58675">
        <ele>580.4</ele>
        <time>2022-07-29T10:31:03Z</time>
      </trkpt>
      <trkpt lat="46.39399" lon="5.58681">
        <ele>580.4</ele>
        <time>2022-07-29T10:31:04Z</time>
      </trkpt>
      <trkpt lat="46.39399" lon="5.58686">
        <ele>580.8</ele>
        <time>2022-07-29T10:31:05Z</time>
      </trkpt>
      <trkpt lat="46.39399" lon="5.58691">
        <ele>580.8</ele>
        <time>2022-07-29T10:31:06Z</time>
      </trkpt>
      <trkpt lat="46.394" lon="5.58697">
        <ele>581</ele>
        <time>2022-07-29T10:31:07Z</time>
      </trkpt>
      <trkpt lat="46.394" lon="5.58697">
        <ele>581</ele>
        <time>2022-07-29T10:31:08Z</time>
      </trkpt>
      <trkpt lat="46.394" lon="5.58702">
        <ele>581</ele>
        <time>2022-07-29T10:31:09Z</time>
      </trkpt>
      <trkpt lat="46.394" lon="5.58708">
        <ele>581</ele>
        <time>2022-07-29T10:31:10Z</time>
      </trkpt>
      <trkpt lat="46.39401" lon="5.58713">
        <ele>581.4</ele>
        <time>2022-07-29T10:31:11Z</time>
      </trkpt>
      <trkpt lat="46.39401" lon="5.58719">
        <ele>581.4</ele>
        <time>2022-07-29T10:31:12Z</time>
      </trkpt>
      <trkpt lat="46.39401" lon="5.58724">
        <ele>581.4</ele>
        <time>2022-07-29T10:31:13Z</time>
      </trkpt>
      <trkpt lat="46.39402" lon="5.5873">
        <ele>581.6</ele>
        <time>2022-07-29T10:31:14Z</time>
      </trkpt>
      <trkpt lat="46.39402" lon="5.58736">
        <ele>581.6</ele>
        <time>2022-07-29T10:31:15Z</time>
      </trkpt>
      <trkpt lat="46.39402" lon="5.58742">
        <ele>581.8</ele>
        <time>2022-07-29T10:31:16Z</time>
      </trkpt>
      <trkpt lat="46.39402" lon="5.58747">
        <ele>581.8</ele>
        <time>2022-07-29T10:31:17Z</time>
      </trkpt>
      <trkpt lat="46.39402" lon="5.58752">
        <ele>582.2</ele>
        <time>2022-07-29T10:31:18Z</time>
      </trkpt>
      <trkpt lat="46.39401" lon="5.58758">
        <ele>582.2</ele>
        <time>2022-07-29T10:31:19Z</time>
      </trkpt>
      <trkpt lat="46.394" lon="5.58763">
        <ele>582.2</ele>
        <time>2022-07-29T10:31:20Z</time>
      </trkpt>
      <trkpt lat="46.39399" lon="5.58768">
        <ele>582.4</ele>
        <time>2022-07-29T10:31:21Z</time>
      </trkpt>
      <trkpt lat="46.39397" lon="5.58773">
        <ele>582.4</ele>
        <time>2022-07-29T10:31:22Z</time>
      </trkpt>
      <trkpt lat="46.39396" lon="5.58779">
        <ele>582.4</ele>
        <time>2022-07-29T10:31:23Z</time>
      </trkpt>
      <trkpt lat="46.39394" lon="5.58783">
        <ele>582.4</ele>
        <time>2022-07-29T10:31:24Z</time>
      </trkpt>
      <trkpt lat="46.39391" lon="5.58788">
        <ele>582.6</ele>
        <time>2022-07-29T10:31:25Z</time>
      </trkpt>
      <trkpt lat="46.39389" lon="5.58793">
        <ele>582.6</ele>
        <time>2022-07-29T10:31:26Z</time>
      </trkpt>
      <trkpt lat="46.39386" lon="5.58797">
        <ele>582.8</ele>
        <time>2022-07-29T10:31:27Z</time>
      </trkpt>
      <trkpt lat="46.39384" lon="5.58801">
        <ele>582.8</ele>
        <time>2022-07-29T10:31:28Z</time>
      </trkpt>
      <trkpt lat="46.39381" lon="5.58805">
        <ele>583.2</ele>
        <time>2022-07-29T10:31:29Z</time>
      </trkpt>
      <trkpt lat="46.39378" lon="5.58809">
        <ele>583.2</ele>
        <time>2022-07-29T10:31:30Z</time>
      </trkpt>
      <trkpt lat="46.39376" lon="5.58812">
        <ele>583.4</ele>
        <time>2022-07-29T10:31:31Z</time>
      </trkpt>
      <trkpt lat="46.39373" lon="5.58815">
        <ele>583.4</ele>
        <time>2022-07-29T10:31:32Z</time>
      </trkpt>
      <trkpt lat="46.3937" lon="5.58818">
        <ele>583.8</ele>
        <time>2022-07-29T10:31:33Z</time>
      </trkpt>
      <trkpt lat="46.39367" lon="5.5882">
        <ele>584</ele>
        <time>2022-07-29T10:31:34Z</time>
      </trkpt>
      <trkpt lat="46.39364" lon="5.58822">
        <ele>584</ele>
        <time>2022-07-29T10:31:35Z</time>
      </trkpt>
      <trkpt lat="46.39361" lon="5.58824">
        <ele>584.4</ele>
        <time>2022-07-29T10:31:36Z</time>
      </trkpt>
      <trkpt lat="46.39359" lon="5.58827">
        <ele>584.4</ele>
        <time>2022-07-29T10:31:37Z</time>
      </trkpt>
      <trkpt lat="46.39356" lon="5.5883">
        <ele>584.8</ele>
        <time>2022-07-29T10:31:38Z</time>
      </trkpt>
      <trkpt lat="46.39353" lon="5.58833">
        <ele>585</ele>
        <time>2022-07-29T10:31:39Z</time>
      </trkpt>
      <trkpt lat="46.3935" lon="5.58836">
        <ele>585.2</ele>
        <time>2022-07-29T10:31:40Z</time>
      </trkpt>
      <trkpt lat="46.39347" lon="5.58839">
        <ele>585.2</ele>
        <time>2022-07-29T10:31:41Z</time>
      </trkpt>
      <trkpt lat="46.39345" lon="5.58841">
        <ele>585.6</ele>
        <time>2022-07-29T10:31:42Z</time>
      </trkpt>
      <trkpt lat="46.39342" lon="5.58843">
        <ele>585.6</ele>
        <time>2022-07-29T10:31:43Z</time>
      </trkpt>
      <trkpt lat="46.39339" lon="5.58846">
        <ele>585.8</ele>
        <time>2022-07-29T10:31:44Z</time>
      </trkpt>
      <trkpt lat="46.39337" lon="5.58848">
        <ele>585.8</ele>
        <time>2022-07-29T10:31:45Z</time>
      </trkpt>
      <trkpt lat="46.39334" lon="5.58851">
        <ele>586.2</ele>
        <time>2022-07-29T10:31:46Z</time>
      </trkpt>
      <trkpt lat="46.39331" lon="5.58853">
        <ele>586.2</ele>
        <time>2022-07-29T10:31:47Z</time>
      </trkpt>
      <trkpt lat="46.39329" lon="5.58855">
        <ele>586.6</ele>
        <time>2022-07-29T10:31:48Z</time>
      </trkpt>
      <trkpt lat="46.39326" lon="5.58857">
        <ele>586.8</ele>
        <time>2022-07-29T10:31:49Z</time>
      </trkpt>
      <trkpt lat="46.39324" lon="5.58859">
        <ele>587.2</ele>
        <time>2022-07-29T10:31:50Z</time>
      </trkpt>
      <trkpt lat="46.39321" lon="5.58861">
        <ele>587.4</ele>
        <time>2022-07-29T10:31:51Z</time>
      </trkpt>
      <trkpt lat="46.39319" lon="5.58863">
        <ele>587.4</ele>
        <time>2022-07-29T10:31:52Z</time>
      </trkpt>
      <trkpt lat="46.39316" lon="5.58865">
        <ele>587.6</ele>
        <time>2022-07-29T10:31:53Z</time>
      </trkpt>
      <trkpt lat="46.39314" lon="5.58868">
        <ele>588</ele>
        <time>2022-07-29T10:31:54Z</time>
      </trkpt>
      <trkpt lat="46.39312" lon="5.5887">
        <ele>588</ele>
        <time>2022-07-29T10:31:55Z</time>
      </trkpt>
      <trkpt lat="46.39309" lon="5.58872">
        <ele>588.4</ele>
        <time>2022-07-29T10:31:56Z</time>
      </trkpt>
      <trkpt lat="46.39307" lon="5.58875">
        <ele>588.4</ele>
        <time>2022-07-29T10:31:57Z</time>
      </trkpt>
      <trkpt lat="46.39304" lon="5.58877">
        <ele>588.8</ele>
        <time>2022-07-29T10:31:58Z</time>
      </trkpt>
      <trkpt lat="46.39302" lon="5.5888">
        <ele>588.8</ele>
        <time>2022-07-29T10:31:59Z</time>
      </trkpt>
      <trkpt lat="46.39299" lon="5.58882">
        <ele>589</ele>
        <time>2022-07-29T10:32:00Z</time>
      </trkpt>
      <trkpt lat="46.39295" lon="5.58884">
        <ele>589.4</ele>
        <time>2022-07-29T10:32:01Z</time>
      </trkpt>
      <trkpt lat="46.39293" lon="5.58887">
        <ele>589.6</ele>
        <time>2022-07-29T10:32:02Z</time>
      </trkpt>
      <trkpt lat="46.3929" lon="5.58889">
        <ele>589.6</ele>
        <time>2022-07-29T10:32:03Z</time>
      </trkpt>
      <trkpt lat="46.39288" lon="5.58892">
        <ele>589.8</ele>
        <time>2022-07-29T10:32:04Z</time>
      </trkpt>
      <trkpt lat="46.39285" lon="5.58895">
        <ele>590.2</ele>
        <time>2022-07-29T10:32:05Z</time>
      </trkpt>
      <trkpt lat="46.39283" lon="5.58898">
        <ele>590.2</ele>
        <time>2022-07-29T10:32:06Z</time>
      </trkpt>
      <trkpt lat="46.39281" lon="5.58902">
        <ele>590.6</ele>
        <time>2022-07-29T10:32:07Z</time>
      </trkpt>
      <trkpt lat="46.39279" lon="5.58906">
        <ele>591</ele>
        <time>2022-07-29T10:32:08Z</time>
      </trkpt>
      <trkpt lat="46.39277" lon="5.5891">
        <ele>591.2</ele>
        <time>2022-07-29T10:32:09Z</time>
      </trkpt>
      <trkpt lat="46.39275" lon="5.58914">
        <ele>591.2</ele>
        <time>2022-07-29T10:32:10Z</time>
      </trkpt>
      <trkpt lat="46.39274" lon="5.58918">
        <ele>591.6</ele>
        <time>2022-07-29T10:32:11Z</time>
      </trkpt>
      <trkpt lat="46.39272" lon="5.58922">
        <ele>591.8</ele>
        <time>2022-07-29T10:32:12Z</time>
      </trkpt>
      <trkpt lat="46.39271" lon="5.58926">
        <ele>592</ele>
        <time>2022-07-29T10:32:13Z</time>
      </trkpt>
      <trkpt lat="46.3927" lon="5.5893">
        <ele>592</ele>
        <time>2022-07-29T10:32:14Z</time>
      </trkpt>
      <trkpt lat="46.3927" lon="5.58934">
        <ele>592.4</ele>
        <time>2022-07-29T10:32:15Z</time>
      </trkpt>
      <trkpt lat="46.39269" lon="5.58939">
        <ele>592.6</ele>
        <time>2022-07-29T10:32:16Z</time>
      </trkpt>
      <trkpt lat="46.39268" lon="5.58943">
        <ele>592.6</ele>
        <time>2022-07-29T10:32:17Z</time>
      </trkpt>
      <trkpt lat="46.39268" lon="5.58948">
        <ele>593</ele>
        <time>2022-07-29T10:32:18Z</time>
      </trkpt>
      <trkpt lat="46.39267" lon="5.58952">
        <ele>593</ele>
        <time>2022-07-29T10:32:19Z</time>
      </trkpt>
      <trkpt lat="46.39267" lon="5.58957">
        <ele>593.4</ele>
        <time>2022-07-29T10:32:20Z</time>
      </trkpt>
      <trkpt lat="46.39266" lon="5.58961">
        <ele>593.6</ele>
        <time>2022-07-29T10:32:21Z</time>
      </trkpt>
      <trkpt lat="46.39266" lon="5.58966">
        <ele>593.8</ele>
        <time>2022-07-29T10:32:22Z</time>
      </trkpt>
      <trkpt lat="46.39265" lon="5.58971">
        <ele>593.8</ele>
        <time>2022-07-29T10:32:23Z</time>
      </trkpt>
      <trkpt lat="46.39265" lon="5.58975">
        <ele>594.2</ele>
        <time>2022-07-29T10:32:24Z</time>
      </trkpt>
      <trkpt lat="46.39264" lon="5.5898">
        <ele>594.2</ele>
        <time>2022-07-29T10:32:25Z</time>
      </trkpt>
      <trkpt lat="46.39263" lon="5.58984">
        <ele>594.4</ele>
        <time>2022-07-29T10:32:26Z</time>
      </trkpt>
      <trkpt lat="46.39263" lon="5.58989">
        <ele>594.4</ele>
        <time>2022-07-29T10:32:27Z</time>
      </trkpt>
      <trkpt lat="46.39262" lon="5.58993">
        <ele>594.8</ele>
        <time>2022-07-29T10:32:28Z</time>
      </trkpt>
      <trkpt lat="46.39262" lon="5.58998">
        <ele>594.8</ele>
        <time>2022-07-29T10:32:29Z</time>
      </trkpt>
      <trkpt lat="46.39261" lon="5.59002">
        <ele>595.2</ele>
        <time>2022-07-29T10:32:30Z</time>
      </trkpt>
      <trkpt lat="46.3926" lon="5.59006">
        <ele>595.4</ele>
        <time>2022-07-29T10:32:31Z</time>
      </trkpt>
      <trkpt lat="46.39258" lon="5.5901">
        <ele>595.4</ele>
        <time>2022-07-29T10:32:32Z</time>
      </trkpt>
      <trkpt lat="46.39256" lon="5.59014">
        <ele>595.6</ele>
        <time>2022-07-29T10:32:33Z</time>
      </trkpt>
      <trkpt lat="46.39254" lon="5.59018">
        <ele>596</ele>
        <time>2022-07-29T10:32:34Z</time>
      </trkpt>
      <trkpt lat="46.39251" lon="5.59021">
        <ele>596.2</ele>
        <time>2022-07-29T10:32:35Z</time>
      </trkpt>
      <trkpt lat="46.39249" lon="5.59024">
        <ele>596.6</ele>
        <time>2022-07-29T10:32:36Z</time>
      </trkpt>
      <trkpt lat="46.39246" lon="5.59027">
        <ele>596.8</ele>
        <time>2022-07-29T10:32:37Z</time>
      </trkpt>
      <trkpt lat="46.39243" lon="5.59029">
        <ele>597.2</ele>
        <time>2022-07-29T10:32:38Z</time>
      </trkpt>
      <trkpt lat="46.39239" lon="5.5903">
        <ele>597.4</ele>
        <time>2022-07-29T10:32:39Z</time>
      </trkpt>
      <trkpt lat="46.39237" lon="5.59032">
        <ele>597.6</ele>
        <time>2022-07-29T10:32:40Z</time>
      </trkpt>
      <trkpt lat="46.39234" lon="5.59034">
        <ele>598</ele>
        <time>2022-07-29T10:32:41Z</time>
      </trkpt>
      <trkpt lat="46.39231" lon="5.59036">
        <ele>598.2</ele>
        <time>2022-07-29T10:32:42Z</time>
      </trkpt>
      <trkpt lat="46.39228" lon="5.59038">
        <ele>598.4</ele>
        <time>2022-07-29T10:32:43Z</time>
      </trkpt>
      <trkpt lat="46.39226" lon="5.59041">
        <ele>598.6</ele>
        <time>2022-07-29T10:32:44Z</time>
      </trkpt>
      <trkpt lat="46.39224" lon="5.59044">
        <ele>598.8</ele>
        <time>2022-07-29T10:32:45Z</time>
      </trkpt>
      <trkpt lat="46.39221" lon="5.59047">
        <ele>599.2</ele>
        <time>2022-07-29T10:32:46Z</time>
      </trkpt>
      <trkpt lat="46.39219" lon="5.5905">
        <ele>599.4</ele>
        <time>2022-07-29T10:32:47Z</time>
      </trkpt>
      <trkpt lat="46.39217" lon="5.59053">
        <ele>599.4</ele>
        <time>2022-07-29T10:32:48Z</time>
      </trkpt>
      <trkpt lat="46.39215" lon="5.59056">
        <ele>599.6</ele>
        <time>2022-07-29T10:32:49Z</time>
      </trkpt>
      <trkpt lat="46.39213" lon="5.59059">
        <ele>599.8</ele>
        <time>2022-07-29T10:32:50Z</time>
      </trkpt>
      <trkpt lat="46.3921" lon="5.59062">
        <ele>599.8</ele>
        <time>2022-07-29T10:32:51Z</time>
      </trkpt>
      <trkpt lat="46.39208" lon="5.59066">
        <ele>600.2</ele>
        <time>2022-07-29T10:32:52Z</time>
      </trkpt>
      <trkpt lat="46.39206" lon="5.59069">
        <ele>600.2</ele>
        <time>2022-07-29T10:32:53Z</time>
      </trkpt>
      <trkpt lat="46.39204" lon="5.59072">
        <ele>600.6</ele>
        <time>2022-07-29T10:32:54Z</time>
      </trkpt>
      <trkpt lat="46.39202" lon="5.59075">
        <ele>600.6</ele>
        <time>2022-07-29T10:32:55Z</time>
      </trkpt>
      <trkpt lat="46.392" lon="5.59077">
        <ele>601</ele>
        <time>2022-07-29T10:32:56Z</time>
      </trkpt>
      <trkpt lat="46.39198" lon="5.59079">
        <ele>601.2</ele>
        <time>2022-07-29T10:32:57Z</time>
      </trkpt>
      <trkpt lat="46.39195" lon="5.59081">
        <ele>601.4</ele>
        <time>2022-07-29T10:32:58Z</time>
      </trkpt>
      <trkpt lat="46.39193" lon="5.59082">
        <ele>601.6</ele>
        <time>2022-07-29T10:32:59Z</time>
      </trkpt>
      <trkpt lat="46.3919" lon="5.59083">
        <ele>601.8</ele>
        <time>2022-07-29T10:33:00Z</time>
      </trkpt>
      <trkpt lat="46.39188" lon="5.59084">
        <ele>602</ele>
        <time>2022-07-29T10:33:01Z</time>
      </trkpt>
      <trkpt lat="46.39186" lon="5.59085">
        <ele>602.2</ele>
        <time>2022-07-29T10:33:02Z</time>
      </trkpt>
      <trkpt lat="46.39183" lon="5.59086">
        <ele>602.2</ele>
        <time>2022-07-29T10:33:03Z</time>
      </trkpt>
      <trkpt lat="46.39181" lon="5.59086">
        <ele>602.6</ele>
        <time>2022-07-29T10:33:04Z</time>
      </trkpt>
      <trkpt lat="46.39179" lon="5.59087">
        <ele>602.6</ele>
        <time>2022-07-29T10:33:05Z</time>
      </trkpt>
      <trkpt lat="46.39176" lon="5.59087">
        <ele>603</ele>
        <time>2022-07-29T10:33:06Z</time>
      </trkpt>
      <trkpt lat="46.39173" lon="5.59087">
        <ele>603.2</ele>
        <time>2022-07-29T10:33:07Z</time>
      </trkpt>
      <trkpt lat="46.39171" lon="5.59087">
        <ele>603.4</ele>
        <time>2022-07-29T10:33:08Z</time>
      </trkpt>
      <trkpt lat="46.39168" lon="5.59086">
        <ele>603.8</ele>
        <time>2022-07-29T10:33:09Z</time>
      </trkpt>
      <trkpt lat="46.39165" lon="5.59086">
        <ele>603.8</ele>
        <time>2022-07-29T10:33:10Z</time>
      </trkpt>
      <trkpt lat="46.39163" lon="5.59086">
        <ele>604</ele>
        <time>2022-07-29T10:33:11Z</time>
      </trkpt>
      <trkpt lat="46.3916" lon="5.59086">
        <ele>604</ele>
        <time>2022-07-29T10:33:12Z</time>
      </trkpt>
      <trkpt lat="46.39157" lon="5.59087">
        <ele>604.2</ele>
        <time>2022-07-29T10:33:13Z</time>
      </trkpt>
      <trkpt lat="46.39155" lon="5.59087">
        <ele>604.2</ele>
        <time>2022-07-29T10:33:14Z</time>
      </trkpt>
      <trkpt lat="46.39152" lon="5.59087">
        <ele>604.6</ele>
        <time>2022-07-29T10:33:15Z</time>
      </trkpt>
      <trkpt lat="46.3915" lon="5.59087">
        <ele>604.6</ele>
        <time>2022-07-29T10:33:16Z</time>
      </trkpt>
      <trkpt lat="46.39147" lon="5.59087">
        <ele>605</ele>
        <time>2022-07-29T10:33:17Z</time>
      </trkpt>
      <trkpt lat="46.39144" lon="5.59087">
        <ele>605</ele>
        <time>2022-07-29T10:33:18Z</time>
      </trkpt>
      <trkpt lat="46.39142" lon="5.59087">
        <ele>605.4</ele>
        <time>2022-07-29T10:33:19Z</time>
      </trkpt>
      <trkpt lat="46.39139" lon="5.59087">
        <ele>605.4</ele>
        <time>2022-07-29T10:33:20Z</time>
      </trkpt>
      <trkpt lat="46.39136" lon="5.59088">
        <ele>605.6</ele>
        <time>2022-07-29T10:33:21Z</time>
      </trkpt>
      <trkpt lat="46.39133" lon="5.59089">
        <ele>605.6</ele>
        <time>2022-07-29T10:33:22Z</time>
      </trkpt>
      <trkpt lat="46.39131" lon="5.5909">
        <ele>606</ele>
        <time>2022-07-29T10:33:23Z</time>
      </trkpt>
      <trkpt lat="46.39128" lon="5.59091">
        <ele>606.2</ele>
        <time>2022-07-29T10:33:24Z</time>
      </trkpt>
      <trkpt lat="46.39125" lon="5.59093">
        <ele>606.2</ele>
        <time>2022-07-29T10:33:25Z</time>
      </trkpt>
      <trkpt lat="46.39123" lon="5.59094">
        <ele>606.4</ele>
        <time>2022-07-29T10:33:26Z</time>
      </trkpt>
      <trkpt lat="46.3912" lon="5.59096">
        <ele>606.4</ele>
        <time>2022-07-29T10:33:27Z</time>
      </trkpt>
      <trkpt lat="46.39118" lon="5.59098">
        <ele>606.8</ele>
        <time>2022-07-29T10:33:28Z</time>
      </trkpt>
      <trkpt lat="46.39115" lon="5.59099">
        <ele>606.8</ele>
        <time>2022-07-29T10:33:29Z</time>
      </trkpt>
      <trkpt lat="46.39112" lon="5.59101">
        <ele>607.2</ele>
        <time>2022-07-29T10:33:30Z</time>
      </trkpt>
      <trkpt lat="46.3911" lon="5.59102">
        <ele>607.2</ele>
        <time>2022-07-29T10:33:31Z</time>
      </trkpt>
      <trkpt lat="46.39107" lon="5.59104">
        <ele>607.4</ele>
        <time>2022-07-29T10:33:32Z</time>
      </trkpt>
      <trkpt lat="46.39104" lon="5.59106">
        <ele>607.4</ele>
        <time>2022-07-29T10:33:33Z</time>
      </trkpt>
      <trkpt lat="46.39101" lon="5.59108">
        <ele>607.8</ele>
        <time>2022-07-29T10:33:34Z</time>
      </trkpt>
      <trkpt lat="46.39099" lon="5.5911">
        <ele>607.8</ele>
        <time>2022-07-29T10:33:35Z</time>
      </trkpt>
      <trkpt lat="46.39096" lon="5.59112">
        <ele>608</ele>
        <time>2022-07-29T10:33:36Z</time>
      </trkpt>
      <trkpt lat="46.39094" lon="5.59115">
        <ele>608</ele>
        <time>2022-07-29T10:33:37Z</time>
      </trkpt>
      <trkpt lat="46.39092" lon="5.59118">
        <ele>608.6</ele>
        <time>2022-07-29T10:33:38Z</time>
      </trkpt>
      <trkpt lat="46.3909" lon="5.59121">
        <ele>608.6</ele>
        <time>2022-07-29T10:33:39Z</time>
      </trkpt>
      <trkpt lat="46.39088" lon="5.59123">
        <ele>608.8</ele>
        <time>2022-07-29T10:33:40Z</time>
      </trkpt>
      <trkpt lat="46.39086" lon="5.59126">
        <ele>608.8</ele>
        <time>2022-07-29T10:33:41Z</time>
      </trkpt>
      <trkpt lat="46.39084" lon="5.59128">
        <ele>609.2</ele>
        <time>2022-07-29T10:33:42Z</time>
      </trkpt>
      <trkpt lat="46.39083" lon="5.59131">
        <ele>609.6</ele>
        <time>2022-07-29T10:33:43Z</time>
      </trkpt>
      <trkpt lat="46.39082" lon="5.59134">
        <ele>609.6</ele>
        <time>2022-07-29T10:33:44Z</time>
      </trkpt>
      <trkpt lat="46.39081" lon="5.59137">
        <ele>609.8</ele>
        <time>2022-07-29T10:33:45Z</time>
      </trkpt>
      <trkpt lat="46.39081" lon="5.5914">
        <ele>609.8</ele>
        <time>2022-07-29T10:33:46Z</time>
      </trkpt>
      <trkpt lat="46.39081" lon="5.59144">
        <ele>610.2</ele>
        <time>2022-07-29T10:33:47Z</time>
      </trkpt>
      <trkpt lat="46.39081" lon="5.59148">
        <ele>610.2</ele>
        <time>2022-07-29T10:33:48Z</time>
      </trkpt>
      <trkpt lat="46.39081" lon="5.59153">
        <ele>610.4</ele>
        <time>2022-07-29T10:33:49Z</time>
      </trkpt>
      <trkpt lat="46.39081" lon="5.59157">
        <ele>610.4</ele>
        <time>2022-07-29T10:33:50Z</time>
      </trkpt>
      <trkpt lat="46.39082" lon="5.59162">
        <ele>610.4</ele>
        <time>2022-07-29T10:33:51Z</time>
      </trkpt>
      <trkpt lat="46.39083" lon="5.59167">
        <ele>610.6</ele>
        <time>2022-07-29T10:33:52Z</time>
      </trkpt>
      <trkpt lat="46.39085" lon="5.59171">
        <ele>610.6</ele>
        <time>2022-07-29T10:33:53Z</time>
      </trkpt>
      <trkpt lat="46.39087" lon="5.59175">
        <ele>610.6</ele>
        <time>2022-07-29T10:33:54Z</time>
      </trkpt>
      <trkpt lat="46.3909" lon="5.59178">
        <ele>611</ele>
        <time>2022-07-29T10:33:55Z</time>
      </trkpt>
      <trkpt lat="46.39094" lon="5.59182">
        <ele>611</ele>
        <time>2022-07-29T10:33:56Z</time>
      </trkpt>
      <trkpt lat="46.39097" lon="5.59184">
        <ele>611.2</ele>
        <time>2022-07-29T10:33:57Z</time>
      </trkpt>
      <trkpt lat="46.39101" lon="5.59187">
        <ele>611.2</ele>
        <time>2022-07-29T10:33:58Z</time>
      </trkpt>
      <trkpt lat="46.39104" lon="5.59189">
        <ele>611.4</ele>
        <time>2022-07-29T10:33:59Z</time>
      </trkpt>
      <trkpt lat="46.39107" lon="5.59191">
        <ele>611.4</ele>
        <time>2022-07-29T10:34:00Z</time>
      </trkpt>
      <trkpt lat="46.3911" lon="5.59192">
        <ele>612</ele>
        <time>2022-07-29T10:34:01Z</time>
      </trkpt>
      <trkpt lat="46.39112" lon="5.59194">
        <ele>612.2</ele>
        <time>2022-07-29T10:34:02Z</time>
      </trkpt>
      <trkpt lat="46.39115" lon="5.59195">
        <ele>612.4</ele>
        <time>2022-07-29T10:34:03Z</time>
      </trkpt>
      <trkpt lat="46.39117" lon="5.59196">
        <ele>612.6</ele>
        <time>2022-07-29T10:34:04Z</time>
      </trkpt>
      <trkpt lat="46.39119" lon="5.59196">
        <ele>612.6</ele>
        <time>2022-07-29T10:34:05Z</time>
      </trkpt>
      <trkpt lat="46.39122" lon="5.59197">
        <ele>612.8</ele>
        <time>2022-07-29T10:34:06Z</time>
      </trkpt>
      <trkpt lat="46.39125" lon="5.59199">
        <ele>612.8</ele>
        <time>2022-07-29T10:34:07Z</time>
      </trkpt>
      <trkpt lat="46.39128" lon="5.59201">
        <ele>613.2</ele>
        <time>2022-07-29T10:34:08Z</time>
      </trkpt>
      <trkpt lat="46.39131" lon="5.59202">
        <ele>613.4</ele>
        <time>2022-07-29T10:34:09Z</time>
      </trkpt>
      <trkpt lat="46.39133" lon="5.59203">
        <ele>613.4</ele>
        <time>2022-07-29T10:34:10Z</time>
      </trkpt>
      <trkpt lat="46.39136" lon="5.59204">
        <ele>613.8</ele>
        <time>2022-07-29T10:34:11Z</time>
      </trkpt>
      <trkpt lat="46.39138" lon="5.59205">
        <ele>613.8</ele>
        <time>2022-07-29T10:34:12Z</time>
      </trkpt>
      <trkpt lat="46.3914" lon="5.59206">
        <ele>614</ele>
        <time>2022-07-29T10:34:13Z</time>
      </trkpt>
      <trkpt lat="46.39142" lon="5.59207">
        <ele>614</ele>
        <time>2022-07-29T10:34:14Z</time>
      </trkpt>
      <trkpt lat="46.39144" lon="5.59209">
        <ele>614.4</ele>
        <time>2022-07-29T10:34:15Z</time>
      </trkpt>
      <trkpt lat="46.39147" lon="5.5921">
        <ele>614.4</ele>
        <time>2022-07-29T10:34:16Z</time>
      </trkpt>
      <trkpt lat="46.39149" lon="5.59211">
        <ele>614.6</ele>
        <time>2022-07-29T10:34:17Z</time>
      </trkpt>
      <trkpt lat="46.39152" lon="5.59213">
        <ele>614.6</ele>
        <time>2022-07-29T10:34:18Z</time>
      </trkpt>
      <trkpt lat="46.39155" lon="5.59215">
        <ele>614.8</ele>
        <time>2022-07-29T10:34:19Z</time>
      </trkpt>
      <trkpt lat="46.39158" lon="5.59217">
        <ele>614.8</ele>
        <time>2022-07-29T10:34:20Z</time>
      </trkpt>
      <trkpt lat="46.39161" lon="5.5922">
        <ele>614.8</ele>
        <time>2022-07-29T10:34:21Z</time>
      </trkpt>
      <trkpt lat="46.39164" lon="5.59221">
        <ele>615</ele>
        <time>2022-07-29T10:34:22Z</time>
      </trkpt>
      <trkpt lat="46.39168" lon="5.59224">
        <ele>615</ele>
        <time>2022-07-29T10:34:23Z</time>
      </trkpt>
      <trkpt lat="46.39171" lon="5.59227">
        <ele>615</ele>
        <time>2022-07-29T10:34:24Z</time>
      </trkpt>
      <trkpt lat="46.39175" lon="5.59229">
        <ele>615</ele>
        <time>2022-07-29T10:34:25Z</time>
      </trkpt>
      <trkpt lat="46.39179" lon="5.59232">
        <ele>615.2</ele>
        <time>2022-07-29T10:34:26Z</time>
      </trkpt>
      <trkpt lat="46.39183" lon="5.59235">
        <ele>615.2</ele>
        <time>2022-07-29T10:34:27Z</time>
      </trkpt>
      <trkpt lat="46.39188" lon="5.59238">
        <ele>615.2</ele>
        <time>2022-07-29T10:34:28Z</time>
      </trkpt>
      <trkpt lat="46.39192" lon="5.59241">
        <ele>615.2</ele>
        <time>2022-07-29T10:34:29Z</time>
      </trkpt>
      <trkpt lat="46.39196" lon="5.59244">
        <ele>615.2</ele>
        <time>2022-07-29T10:34:30Z</time>
      </trkpt>
      <trkpt lat="46.39201" lon="5.59247">
        <ele>615.4</ele>
        <time>2022-07-29T10:34:31Z</time>
      </trkpt>
      <trkpt lat="46.39205" lon="5.5925">
        <ele>615.4</ele>
        <time>2022-07-29T10:34:32Z</time>
      </trkpt>
      <trkpt lat="46.39208" lon="5.59253">
        <ele>615.4</ele>
        <time>2022-07-29T10:34:33Z</time>
      </trkpt>
      <trkpt lat="46.39212" lon="5.59255">
        <ele>615.8</ele>
        <time>2022-07-29T10:34:34Z</time>
      </trkpt>
      <trkpt lat="46.39215" lon="5.59258">
        <ele>615.8</ele>
        <time>2022-07-29T10:34:35Z</time>
      </trkpt>
      <trkpt lat="46.39217" lon="5.59261">
        <ele>615.8</ele>
        <time>2022-07-29T10:34:36Z</time>
      </trkpt>
      <trkpt lat="46.3922" lon="5.59263">
        <ele>616</ele>
        <time>2022-07-29T10:34:37Z</time>
      </trkpt>
      <trkpt lat="46.39223" lon="5.59265">
        <ele>616</ele>
        <time>2022-07-29T10:34:38Z</time>
      </trkpt>
      <trkpt lat="46.39227" lon="5.59268">
        <ele>616.2</ele>
        <time>2022-07-29T10:34:39Z</time>
      </trkpt>
      <trkpt lat="46.3923" lon="5.59271">
        <ele>616.2</ele>
        <time>2022-07-29T10:34:40Z</time>
      </trkpt>
      <trkpt lat="46.39233" lon="5.59273">
        <ele>616.4</ele>
        <time>2022-07-29T10:34:41Z</time>
      </trkpt>
      <trkpt lat="46.39237" lon="5.59275">
        <ele>616.4</ele>
        <time>2022-07-29T10:34:42Z</time>
      </trkpt>
      <trkpt lat="46.3924" lon="5.59277">
        <ele>616.6</ele>
        <time>2022-07-29T10:34:43Z</time>
      </trkpt>
      <trkpt lat="46.39243" lon="5.5928">
        <ele>616.6</ele>
        <time>2022-07-29T10:34:44Z</time>
      </trkpt>
      <trkpt lat="46.39247" lon="5.59283">
        <ele>617</ele>
        <time>2022-07-29T10:34:45Z</time>
      </trkpt>
      <trkpt lat="46.3925" lon="5.59286">
        <ele>617</ele>
        <time>2022-07-29T10:34:46Z</time>
      </trkpt>
      <trkpt lat="46.39254" lon="5.59289">
        <ele>617.2</ele>
        <time>2022-07-29T10:34:47Z</time>
      </trkpt>
      <trkpt lat="46.39257" lon="5.59291">
        <ele>617.2</ele>
        <time>2022-07-29T10:34:48Z</time>
      </trkpt>
      <trkpt lat="46.39261" lon="5.59294">
        <ele>617.4</ele>
        <time>2022-07-29T10:34:49Z</time>
      </trkpt>
      <trkpt lat="46.39265" lon="5.59297">
        <ele>617.4</ele>
        <time>2022-07-29T10:34:50Z</time>
      </trkpt>
      <trkpt lat="46.39268" lon="5.593">
        <ele>617.8</ele>
        <time>2022-07-29T10:34:51Z</time>
      </trkpt>
      <trkpt lat="46.39272" lon="5.59302">
        <ele>617.8</ele>
        <time>2022-07-29T10:34:52Z</time>
      </trkpt>
      <trkpt lat="46.39275" lon="5.59305">
        <ele>618</ele>
        <time>2022-07-29T10:34:53Z</time>
      </trkpt>
      <trkpt lat="46.39279" lon="5.59308">
        <ele>618</ele>
        <time>2022-07-29T10:34:54Z</time>
      </trkpt>
      <trkpt lat="46.39283" lon="5.59311">
        <ele>618.4</ele>
        <time>2022-07-29T10:34:55Z</time>
      </trkpt>
      <trkpt lat="46.39287" lon="5.59314">
        <ele>618.4</ele>
        <time>2022-07-29T10:34:56Z</time>
      </trkpt>
      <trkpt lat="46.3929" lon="5.59317">
        <ele>618.8</ele>
        <time>2022-07-29T10:34:57Z</time>
      </trkpt>
      <trkpt lat="46.39293" lon="5.5932">
        <ele>618.8</ele>
        <time>2022-07-29T10:34:58Z</time>
      </trkpt>
      <trkpt lat="46.39297" lon="5.59323">
        <ele>619</ele>
        <time>2022-07-29T10:34:59Z</time>
      </trkpt>
      <trkpt lat="46.39301" lon="5.59326">
        <ele>619</ele>
        <time>2022-07-29T10:35:00Z</time>
      </trkpt>
      <trkpt lat="46.39305" lon="5.59329">
        <ele>619.2</ele>
        <time>2022-07-29T10:35:01Z</time>
      </trkpt>
      <trkpt lat="46.39309" lon="5.59332">
        <ele>619.2</ele>
        <time>2022-07-29T10:35:02Z</time>
      </trkpt>
      <trkpt lat="46.39313" lon="5.59334">
        <ele>619.6</ele>
        <time>2022-07-29T10:35:03Z</time>
      </trkpt>
      <trkpt lat="46.39317" lon="5.59337">
        <ele>619.6</ele>
        <time>2022-07-29T10:35:04Z</time>
      </trkpt>
      <trkpt lat="46.3932" lon="5.59341">
        <ele>619.8</ele>
        <time>2022-07-29T10:35:05Z</time>
      </trkpt>
      <trkpt lat="46.39324" lon="5.59344">
        <ele>619.8</ele>
        <time>2022-07-29T10:35:06Z</time>
      </trkpt>
      <trkpt lat="46.39328" lon="5.59347">
        <ele>619.8</ele>
        <time>2022-07-29T10:35:07Z</time>
      </trkpt>
      <trkpt lat="46.39331" lon="5.5935">
        <ele>620.2</ele>
        <time>2022-07-29T10:35:08Z</time>
      </trkpt>
      <trkpt lat="46.39334" lon="5.59354">
        <ele>620.2</ele>
        <time>2022-07-29T10:35:09Z</time>
      </trkpt>
      <trkpt lat="46.39338" lon="5.59357">
        <ele>620.2</ele>
        <time>2022-07-29T10:35:10Z</time>
      </trkpt>
      <trkpt lat="46.39342" lon="5.5936">
        <ele>620.4</ele>
        <time>2022-07-29T10:35:11Z</time>
      </trkpt>
      <trkpt lat="46.39345" lon="5.59363">
        <ele>620.4</ele>
        <time>2022-07-29T10:35:12Z</time>
      </trkpt>
      <trkpt lat="46.39348" lon="5.59366">
        <ele>620.8</ele>
        <time>2022-07-29T10:35:13Z</time>
      </trkpt>
      <trkpt lat="46.39352" lon="5.59369">
        <ele>620.8</ele>
        <time>2022-07-29T10:35:14Z</time>
      </trkpt>
      <trkpt lat="46.39355" lon="5.59372">
        <ele>621</ele>
        <time>2022-07-29T10:35:15Z</time>
      </trkpt>
      <trkpt lat="46.39359" lon="5.59375">
        <ele>621</ele>
        <time>2022-07-29T10:35:16Z</time>
      </trkpt>
      <trkpt lat="46.39362" lon="5.59378">
        <ele>621</ele>
        <time>2022-07-29T10:35:17Z</time>
      </trkpt>
      <trkpt lat="46.39365" lon="5.59383">
        <ele>621.4</ele>
        <time>2022-07-29T10:35:18Z</time>
      </trkpt>
      <trkpt lat="46.39368" lon="5.59388">
        <ele>621.4</ele>
        <time>2022-07-29T10:35:19Z</time>
      </trkpt>
      <trkpt lat="46.39371" lon="5.59393">
        <ele>621.6</ele>
        <time>2022-07-29T10:35:20Z</time>
      </trkpt>
      <trkpt lat="46.39373" lon="5.59399">
        <ele>621.6</ele>
        <time>2022-07-29T10:35:21Z</time>
      </trkpt>
      <trkpt lat="46.39374" lon="5.59404">
        <ele>621.6</ele>
        <time>2022-07-29T10:35:22Z</time>
      </trkpt>
      <trkpt lat="46.39374" lon="5.5941">
        <ele>621.8</ele>
        <time>2022-07-29T10:35:23Z</time>
      </trkpt>
      <trkpt lat="46.39373" lon="5.59416">
        <ele>621.8</ele>
        <time>2022-07-29T10:35:24Z</time>
      </trkpt>
      <trkpt lat="46.39372" lon="5.59421">
        <ele>621.8</ele>
        <time>2022-07-29T10:35:25Z</time>
      </trkpt>
      <trkpt lat="46.3937" lon="5.59426">
        <ele>622.2</ele>
        <time>2022-07-29T10:35:26Z</time>
      </trkpt>
      <trkpt lat="46.39368" lon="5.59431">
        <ele>622.4</ele>
        <time>2022-07-29T10:35:27Z</time>
      </trkpt>
      <trkpt lat="46.39366" lon="5.59435">
        <ele>622.4</ele>
        <time>2022-07-29T10:35:28Z</time>
      </trkpt>
      <trkpt lat="46.39363" lon="5.59438">
        <ele>622.8</ele>
        <time>2022-07-29T10:35:29Z</time>
      </trkpt>
      <trkpt lat="46.39361" lon="5.59441">
        <ele>623.2</ele>
        <time>2022-07-29T10:35:30Z</time>
      </trkpt>
      <trkpt lat="46.39358" lon="5.59444">
        <ele>623.4</ele>
        <time>2022-07-29T10:35:31Z</time>
      </trkpt>
      <trkpt lat="46.39355" lon="5.59446">
        <ele>623.6</ele>
        <time>2022-07-29T10:35:32Z</time>
      </trkpt>
      <trkpt lat="46.39353" lon="5.59448">
        <ele>624</ele>
        <time>2022-07-29T10:35:33Z</time>
      </trkpt>
      <trkpt lat="46.3935" lon="5.59451">
        <ele>624.2</ele>
        <time>2022-07-29T10:35:34Z</time>
      </trkpt>
      <trkpt lat="46.39347" lon="5.59454">
        <ele>624.6</ele>
        <time>2022-07-29T10:35:35Z</time>
      </trkpt>
      <trkpt lat="46.39344" lon="5.59455">
        <ele>624.8</ele>
        <time>2022-07-29T10:35:36Z</time>
      </trkpt>
      <trkpt lat="46.39341" lon="5.59457">
        <ele>625.2</ele>
        <time>2022-07-29T10:35:37Z</time>
      </trkpt>
      <trkpt lat="46.39338" lon="5.59459">
        <ele>625.4</ele>
        <time>2022-07-29T10:35:38Z</time>
      </trkpt>
      <trkpt lat="46.39334" lon="5.5946">
        <ele>625.8</ele>
        <time>2022-07-29T10:35:39Z</time>
      </trkpt>
      <trkpt lat="46.39331" lon="5.59461">
        <ele>626</ele>
        <time>2022-07-29T10:35:40Z</time>
      </trkpt>
      <trkpt lat="46.39328" lon="5.59462">
        <ele>626.2</ele>
        <time>2022-07-29T10:35:41Z</time>
      </trkpt>
      <trkpt lat="46.39325" lon="5.59462">
        <ele>626.6</ele>
        <time>2022-07-29T10:35:42Z</time>
      </trkpt>
      <trkpt lat="46.39322" lon="5.59462">
        <ele>626.8</ele>
        <time>2022-07-29T10:35:43Z</time>
      </trkpt>
      <trkpt lat="46.3932" lon="5.59461">
        <ele>627</ele>
        <time>2022-07-29T10:35:44Z</time>
      </trkpt>
      <trkpt lat="46.39317" lon="5.5946">
        <ele>627</ele>
        <time>2022-07-29T10:35:45Z</time>
      </trkpt>
      <trkpt lat="46.39315" lon="5.5946">
        <ele>627.4</ele>
        <time>2022-07-29T10:35:46Z</time>
      </trkpt>
      <trkpt lat="46.39312" lon="5.59459">
        <ele>627.4</ele>
        <time>2022-07-29T10:35:47Z</time>
      </trkpt>
      <trkpt lat="46.3931" lon="5.59459">
        <ele>628</ele>
        <time>2022-07-29T10:35:48Z</time>
      </trkpt>
      <trkpt lat="46.39308" lon="5.59458">
        <ele>628.2</ele>
        <time>2022-07-29T10:35:49Z</time>
      </trkpt>
      <trkpt lat="46.39305" lon="5.59458">
        <ele>628.4</ele>
        <time>2022-07-29T10:35:50Z</time>
      </trkpt>
      <trkpt lat="46.39303" lon="5.59458">
        <ele>628.6</ele>
        <time>2022-07-29T10:35:51Z</time>
      </trkpt>
      <trkpt lat="46.393" lon="5.59457">
        <ele>628.8</ele>
        <time>2022-07-29T10:35:52Z</time>
      </trkpt>
      <trkpt lat="46.39298" lon="5.59456">
        <ele>629</ele>
        <time>2022-07-29T10:35:53Z</time>
      </trkpt>
      <trkpt lat="46.39296" lon="5.59456">
        <ele>629</ele>
        <time>2022-07-29T10:35:54Z</time>
      </trkpt>
      <trkpt lat="46.39294" lon="5.59455">
        <ele>629.6</ele>
        <time>2022-07-29T10:35:55Z</time>
      </trkpt>
      <trkpt lat="46.39291" lon="5.59454">
        <ele>629.8</ele>
        <time>2022-07-29T10:35:56Z</time>
      </trkpt>
      <trkpt lat="46.39289" lon="5.59453">
        <ele>630</ele>
        <time>2022-07-29T10:35:57Z</time>
      </trkpt>
      <trkpt lat="46.39287" lon="5.59452">
        <ele>630</ele>
        <time>2022-07-29T10:35:58Z</time>
      </trkpt>
      <trkpt lat="46.39285" lon="5.59451">
        <ele>630.2</ele>
        <time>2022-07-29T10:35:59Z</time>
      </trkpt>
      <trkpt lat="46.39284" lon="5.59449">
        <ele>630.2</ele>
        <time>2022-07-29T10:36:00Z</time>
      </trkpt>
      <trkpt lat="46.39282" lon="5.59448">
        <ele>630.6</ele>
        <time>2022-07-29T10:36:01Z</time>
      </trkpt>
      <trkpt lat="46.3928" lon="5.59447">
        <ele>630.8</ele>
        <time>2022-07-29T10:36:02Z</time>
      </trkpt>
      <trkpt lat="46.39278" lon="5.59445">
        <ele>630.8</ele>
        <time>2022-07-29T10:36:03Z</time>
      </trkpt>
      <trkpt lat="46.39276" lon="5.59444">
        <ele>631.2</ele>
        <time>2022-07-29T10:36:04Z</time>
      </trkpt>
      <trkpt lat="46.39275" lon="5.59442">
        <ele>631.4</ele>
        <time>2022-07-29T10:36:05Z</time>
      </trkpt>
      <trkpt lat="46.39273" lon="5.5944">
        <ele>631.4</ele>
        <time>2022-07-29T10:36:06Z</time>
      </trkpt>
      <trkpt lat="46.39271" lon="5.59438">
        <ele>631.8</ele>
        <time>2022-07-29T10:36:07Z</time>
      </trkpt>
      <trkpt lat="46.39269" lon="5.59437">
        <ele>631.8</ele>
        <time>2022-07-29T10:36:08Z</time>
      </trkpt>
      <trkpt lat="46.39267" lon="5.59437">
        <ele>632.2</ele>
        <time>2022-07-29T10:36:09Z</time>
      </trkpt>
      <trkpt lat="46.39264" lon="5.59435">
        <ele>632.2</ele>
        <time>2022-07-29T10:36:10Z</time>
      </trkpt>
      <trkpt lat="46.39262" lon="5.59434">
        <ele>632.6</ele>
        <time>2022-07-29T10:36:11Z</time>
      </trkpt>
      <trkpt lat="46.3926" lon="5.59433">
        <ele>632.6</ele>
        <time>2022-07-29T10:36:12Z</time>
      </trkpt>
      <trkpt lat="46.39258" lon="5.59432">
        <ele>633</ele>
        <time>2022-07-29T10:36:13Z</time>
      </trkpt>
      <trkpt lat="46.39255" lon="5.59431">
        <ele>633</ele>
        <time>2022-07-29T10:36:14Z</time>
      </trkpt>
      <trkpt lat="46.39253" lon="5.5943">
        <ele>633.2</ele>
        <time>2022-07-29T10:36:15Z</time>
      </trkpt>
      <trkpt lat="46.39251" lon="5.59429">
        <ele>633.2</ele>
        <time>2022-07-29T10:36:16Z</time>
      </trkpt>
      <trkpt lat="46.39248" lon="5.59429">
        <ele>633.4</ele>
        <time>2022-07-29T10:36:17Z</time>
      </trkpt>
      <trkpt lat="46.39245" lon="5.59429">
        <ele>633.4</ele>
        <time>2022-07-29T10:36:18Z</time>
      </trkpt>
      <trkpt lat="46.39243" lon="5.59429">
        <ele>633.8</ele>
        <time>2022-07-29T10:36:19Z</time>
      </trkpt>
      <trkpt lat="46.3924" lon="5.59429">
        <ele>633.8</ele>
        <time>2022-07-29T10:36:20Z</time>
      </trkpt>
      <trkpt lat="46.39237" lon="5.59429">
        <ele>634.2</ele>
        <time>2022-07-29T10:36:21Z</time>
      </trkpt>
      <trkpt lat="46.39235" lon="5.5943">
        <ele>634.2</ele>
        <time>2022-07-29T10:36:22Z</time>
      </trkpt>
      <trkpt lat="46.39232" lon="5.59431">
        <ele>634.6</ele>
        <time>2022-07-29T10:36:23Z</time>
      </trkpt>
      <trkpt lat="46.39229" lon="5.59432">
        <ele>634.6</ele>
        <time>2022-07-29T10:36:24Z</time>
      </trkpt>
      <trkpt lat="46.39227" lon="5.59433">
        <ele>634.8</ele>
        <time>2022-07-29T10:36:25Z</time>
      </trkpt>
      <trkpt lat="46.39225" lon="5.59434">
        <ele>634.8</ele>
        <time>2022-07-29T10:36:26Z</time>
      </trkpt>
      <trkpt lat="46.39222" lon="5.59435">
        <ele>635.2</ele>
        <time>2022-07-29T10:36:27Z</time>
      </trkpt>
      <trkpt lat="46.3922" lon="5.59436">
        <ele>635.2</ele>
        <time>2022-07-29T10:36:28Z</time>
      </trkpt>
      <trkpt lat="46.39218" lon="5.59437">
        <ele>635.4</ele>
        <time>2022-07-29T10:36:29Z</time>
      </trkpt>
      <trkpt lat="46.39216" lon="5.59438">
        <ele>635.4</ele>
        <time>2022-07-29T10:36:30Z</time>
      </trkpt>
      <trkpt lat="46.39214" lon="5.59439">
        <ele>635.8</ele>
        <time>2022-07-29T10:36:31Z</time>
      </trkpt>
      <trkpt lat="46.39212" lon="5.59441">
        <ele>635.8</ele>
        <time>2022-07-29T10:36:32Z</time>
      </trkpt>
      <trkpt lat="46.3921" lon="5.59443">
        <ele>636.2</ele>
        <time>2022-07-29T10:36:33Z</time>
      </trkpt>
      <trkpt lat="46.39207" lon="5.59445">
        <ele>636.4</ele>
        <time>2022-07-29T10:36:34Z</time>
      </trkpt>
      <trkpt lat="46.39205" lon="5.59446">
        <ele>636.4</ele>
        <time>2022-07-29T10:36:35Z</time>
      </trkpt>
      <trkpt lat="46.39203" lon="5.59449">
        <ele>636.8</ele>
        <time>2022-07-29T10:36:36Z</time>
      </trkpt>
      <trkpt lat="46.39201" lon="5.59451">
        <ele>636.8</ele>
        <time>2022-07-29T10:36:37Z</time>
      </trkpt>
      <trkpt lat="46.392" lon="5.59454">
        <ele>637</ele>
        <time>2022-07-29T10:36:38Z</time>
      </trkpt>
      <trkpt lat="46.39196" lon="5.59459">
        <ele>637</ele>
        <time>2022-07-29T10:36:39Z</time>
      </trkpt>
      <trkpt lat="46.39195" lon="5.59462">
        <ele>637.4</ele>
        <time>2022-07-29T10:36:40Z</time>
      </trkpt>
      <trkpt lat="46.39194" lon="5.59464">
        <ele>637.4</ele>
        <time>2022-07-29T10:36:41Z</time>
      </trkpt>
      <trkpt lat="46.39192" lon="5.59467">
        <ele>637.8</ele>
        <time>2022-07-29T10:36:42Z</time>
      </trkpt>
      <trkpt lat="46.39191" lon="5.5947">
        <ele>637.8</ele>
        <time>2022-07-29T10:36:43Z</time>
      </trkpt>
      <trkpt lat="46.39189" lon="5.59473">
        <ele>638.2</ele>
        <time>2022-07-29T10:36:44Z</time>
      </trkpt>
      <trkpt lat="46.39188" lon="5.59477">
        <ele>638.4</ele>
        <time>2022-07-29T10:36:45Z</time>
      </trkpt>
      <trkpt lat="46.39186" lon="5.5948">
        <ele>638.4</ele>
        <time>2022-07-29T10:36:46Z</time>
      </trkpt>
      <trkpt lat="46.39185" lon="5.59484">
        <ele>638.6</ele>
        <time>2022-07-29T10:36:47Z</time>
      </trkpt>
      <trkpt lat="46.39183" lon="5.59487">
        <ele>638.6</ele>
        <time>2022-07-29T10:36:48Z</time>
      </trkpt>
      <trkpt lat="46.39182" lon="5.5949">
        <ele>639</ele>
        <time>2022-07-29T10:36:49Z</time>
      </trkpt>
      <trkpt lat="46.3918" lon="5.59493">
        <ele>639.4</ele>
        <time>2022-07-29T10:36:50Z</time>
      </trkpt>
      <trkpt lat="46.39179" lon="5.59495">
        <ele>639.6</ele>
        <time>2022-07-29T10:36:51Z</time>
      </trkpt>
      <trkpt lat="46.39177" lon="5.59497">
        <ele>639.6</ele>
        <time>2022-07-29T10:36:52Z</time>
      </trkpt>
      <trkpt lat="46.39175" lon="5.59499">
        <ele>640</ele>
        <time>2022-07-29T10:36:53Z</time>
      </trkpt>
      <trkpt lat="46.39172" lon="5.59502">
        <ele>640.2</ele>
        <time>2022-07-29T10:36:54Z</time>
      </trkpt>
      <trkpt lat="46.3917" lon="5.59504">
        <ele>640.2</ele>
        <time>2022-07-29T10:36:55Z</time>
      </trkpt>
      <trkpt lat="46.39168" lon="5.59506">
        <ele>640.2</ele>
        <time>2022-07-29T10:36:56Z</time>
      </trkpt>
      <trkpt lat="46.39166" lon="5.59508">
        <ele>640.6</ele>
        <time>2022-07-29T10:36:57Z</time>
      </trkpt>
      <trkpt lat="46.39163" lon="5.5951">
        <ele>640.8</ele>
        <time>2022-07-29T10:36:58Z</time>
      </trkpt>
      <trkpt lat="46.39161" lon="5.59511">
        <ele>640.8</ele>
        <time>2022-07-29T10:36:59Z</time>
      </trkpt>
      <trkpt lat="46.39158" lon="5.59513">
        <ele>641.2</ele>
        <time>2022-07-29T10:37:00Z</time>
      </trkpt>
      <trkpt lat="46.39156" lon="5.59514">
        <ele>641.6</ele>
        <time>2022-07-29T10:37:01Z</time>
      </trkpt>
      <trkpt lat="46.39153" lon="5.59515">
        <ele>641.6</ele>
        <time>2022-07-29T10:37:02Z</time>
      </trkpt>
      <trkpt lat="46.3915" lon="5.59516">
        <ele>641.8</ele>
        <time>2022-07-29T10:37:03Z</time>
      </trkpt>
      <trkpt lat="46.39147" lon="5.59518">
        <ele>642.2</ele>
        <time>2022-07-29T10:37:04Z</time>
      </trkpt>
      <trkpt lat="46.39142" lon="5.59521">
        <ele>642.6</ele>
        <time>2022-07-29T10:37:05Z</time>
      </trkpt>
      <trkpt lat="46.39139" lon="5.59522">
        <ele>642.8</ele>
        <time>2022-07-29T10:37:07Z</time>
      </trkpt>
      <trkpt lat="46.39137" lon="5.59524">
        <ele>643</ele>
        <time>2022-07-29T10:37:08Z</time>
      </trkpt>
      <trkpt lat="46.39134" lon="5.59525">
        <ele>643</ele>
        <time>2022-07-29T10:37:09Z</time>
      </trkpt>
      <trkpt lat="46.39131" lon="5.59526">
        <ele>643.4</ele>
        <time>2022-07-29T10:37:10Z</time>
      </trkpt>
      <trkpt lat="46.39128" lon="5.59527">
        <ele>643.6</ele>
        <time>2022-07-29T10:37:11Z</time>
      </trkpt>
      <trkpt lat="46.39126" lon="5.59529">
        <ele>644</ele>
        <time>2022-07-29T10:37:12Z</time>
      </trkpt>
      <trkpt lat="46.39123" lon="5.5953">
        <ele>644</ele>
        <time>2022-07-29T10:37:13Z</time>
      </trkpt>
      <trkpt lat="46.39121" lon="5.59532">
        <ele>644.4</ele>
        <time>2022-07-29T10:37:14Z</time>
      </trkpt>
      <trkpt lat="46.39119" lon="5.59535">
        <ele>644.6</ele>
        <time>2022-07-29T10:37:15Z</time>
      </trkpt>
      <trkpt lat="46.39116" lon="5.59537">
        <ele>644.8</ele>
        <time>2022-07-29T10:37:16Z</time>
      </trkpt>
      <trkpt lat="46.39115" lon="5.59539">
        <ele>645.2</ele>
        <time>2022-07-29T10:37:17Z</time>
      </trkpt>
      <trkpt lat="46.39113" lon="5.59542">
        <ele>645.4</ele>
        <time>2022-07-29T10:37:18Z</time>
      </trkpt>
      <trkpt lat="46.39111" lon="5.59545">
        <ele>645.8</ele>
        <time>2022-07-29T10:37:19Z</time>
      </trkpt>
      <trkpt lat="46.39109" lon="5.59548">
        <ele>646</ele>
        <time>2022-07-29T10:37:20Z</time>
      </trkpt>
      <trkpt lat="46.39108" lon="5.59552">
        <ele>646.2</ele>
        <time>2022-07-29T10:37:21Z</time>
      </trkpt>
      <trkpt lat="46.39107" lon="5.59555">
        <ele>646.2</ele>
        <time>2022-07-29T10:37:22Z</time>
      </trkpt>
      <trkpt lat="46.39106" lon="5.59559">
        <ele>646.6</ele>
        <time>2022-07-29T10:37:23Z</time>
      </trkpt>
      <trkpt lat="46.39105" lon="5.59563">
        <ele>646.6</ele>
        <time>2022-07-29T10:37:24Z</time>
      </trkpt>
      <trkpt lat="46.39103" lon="5.59566">
        <ele>647</ele>
        <time>2022-07-29T10:37:25Z</time>
      </trkpt>
      <trkpt lat="46.39102" lon="5.5957">
        <ele>647.4</ele>
        <time>2022-07-29T10:37:26Z</time>
      </trkpt>
      <trkpt lat="46.39101" lon="5.59574">
        <ele>647.6</ele>
        <time>2022-07-29T10:37:27Z</time>
      </trkpt>
      <trkpt lat="46.391" lon="5.59578">
        <ele>647.8</ele>
        <time>2022-07-29T10:37:28Z</time>
      </trkpt>
      <trkpt lat="46.391" lon="5.59582">
        <ele>648</ele>
        <time>2022-07-29T10:37:29Z</time>
      </trkpt>
      <trkpt lat="46.39099" lon="5.59586">
        <ele>648.4</ele>
        <time>2022-07-29T10:37:30Z</time>
      </trkpt>
      <trkpt lat="46.39099" lon="5.5959">
        <ele>648.6</ele>
        <time>2022-07-29T10:37:31Z</time>
      </trkpt>
      <trkpt lat="46.39098" lon="5.59594">
        <ele>649</ele>
        <time>2022-07-29T10:37:32Z</time>
      </trkpt>
      <trkpt lat="46.39098" lon="5.59598">
        <ele>649.2</ele>
        <time>2022-07-29T10:37:33Z</time>
      </trkpt>
      <trkpt lat="46.39097" lon="5.59601">
        <ele>649.4</ele>
        <time>2022-07-29T10:37:34Z</time>
      </trkpt>
      <trkpt lat="46.39097" lon="5.59605">
        <ele>649.4</ele>
        <time>2022-07-29T10:37:35Z</time>
      </trkpt>
      <trkpt lat="46.39097" lon="5.5961">
        <ele>649.8</ele>
        <time>2022-07-29T10:37:36Z</time>
      </trkpt>
      <trkpt lat="46.39097" lon="5.59614">
        <ele>649.8</ele>
        <time>2022-07-29T10:37:37Z</time>
      </trkpt>
      <trkpt lat="46.39097" lon="5.59618">
        <ele>650.2</ele>
        <time>2022-07-29T10:37:38Z</time>
      </trkpt>
      <trkpt lat="46.39097" lon="5.59623">
        <ele>650.2</ele>
        <time>2022-07-29T10:37:39Z</time>
      </trkpt>
      <trkpt lat="46.39096" lon="5.59627">
        <ele>650.4</ele>
        <time>2022-07-29T10:37:40Z</time>
      </trkpt>
      <trkpt lat="46.39097" lon="5.59633">
        <ele>650.4</ele>
        <time>2022-07-29T10:37:41Z</time>
      </trkpt>
      <trkpt lat="46.39096" lon="5.59638">
        <ele>650.4</ele>
        <time>2022-07-29T10:37:42Z</time>
      </trkpt>
      <trkpt lat="46.39096" lon="5.59644">
        <ele>650.4</ele>
        <time>2022-07-29T10:37:43Z</time>
      </trkpt>
      <trkpt lat="46.39096" lon="5.5965">
        <ele>650.4</ele>
        <time>2022-07-29T10:37:44Z</time>
      </trkpt>
      <trkpt lat="46.39096" lon="5.59656">
        <ele>650.4</ele>
        <time>2022-07-29T10:37:45Z</time>
      </trkpt>
      <trkpt lat="46.39097" lon="5.59663">
        <ele>650.2</ele>
        <time>2022-07-29T10:37:46Z</time>
      </trkpt>
      <trkpt lat="46.39097" lon="5.59671">
        <ele>650.2</ele>
        <time>2022-07-29T10:37:47Z</time>
      </trkpt>
      <trkpt lat="46.39099" lon="5.59679">
        <ele>649.8</ele>
        <time>2022-07-29T10:37:48Z</time>
      </trkpt>
      <trkpt lat="46.391" lon="5.59687">
        <ele>649.4</ele>
        <time>2022-07-29T10:37:49Z</time>
      </trkpt>
      <trkpt lat="46.39102" lon="5.59697">
        <ele>649.2</ele>
        <time>2022-07-29T10:37:50Z</time>
      </trkpt>
      <trkpt lat="46.39103" lon="5.59707">
        <ele>648.8</ele>
        <time>2022-07-29T10:37:51Z</time>
      </trkpt>
      <trkpt lat="46.39105" lon="5.59717">
        <ele>648.4</ele>
        <time>2022-07-29T10:37:52Z</time>
      </trkpt>
      <trkpt lat="46.39106" lon="5.59728">
        <ele>648.2</ele>
        <time>2022-07-29T10:37:53Z</time>
      </trkpt>
      <trkpt lat="46.39108" lon="5.59739">
        <ele>647.8</ele>
        <time>2022-07-29T10:37:54Z</time>
      </trkpt>
      <trkpt lat="46.3911" lon="5.5975">
        <ele>647.4</ele>
        <time>2022-07-29T10:37:55Z</time>
      </trkpt>
      <trkpt lat="46.39112" lon="5.59761">
        <ele>647</ele>
        <time>2022-07-29T10:37:56Z</time>
      </trkpt>
      <trkpt lat="46.39114" lon="5.59772">
        <ele>646.8</ele>
        <time>2022-07-29T10:37:57Z</time>
      </trkpt>
      <trkpt lat="46.39117" lon="5.59784">
        <ele>646.2</ele>
        <time>2022-07-29T10:37:58Z</time>
      </trkpt>
      <trkpt lat="46.3912" lon="5.59796">
        <ele>645.8</ele>
        <time>2022-07-29T10:37:59Z</time>
      </trkpt>
      <trkpt lat="46.39122" lon="5.59808">
        <ele>645.6</ele>
        <time>2022-07-29T10:38:00Z</time>
      </trkpt>
      <trkpt lat="46.39125" lon="5.5982">
        <ele>645.2</ele>
        <time>2022-07-29T10:38:01Z</time>
      </trkpt>
      <trkpt lat="46.39128" lon="5.59831">
        <ele>644.6</ele>
        <time>2022-07-29T10:38:02Z</time>
      </trkpt>
      <trkpt lat="46.3913" lon="5.59843">
        <ele>644.2</ele>
        <time>2022-07-29T10:38:03Z</time>
      </trkpt>
      <trkpt lat="46.39132" lon="5.59855">
        <ele>644</ele>
        <time>2022-07-29T10:38:04Z</time>
      </trkpt>
      <trkpt lat="46.39133" lon="5.59867">
        <ele>643.8</ele>
        <time>2022-07-29T10:38:05Z</time>
      </trkpt>
      <trkpt lat="46.39134" lon="5.59878">
        <ele>643.8</ele>
        <time>2022-07-29T10:38:06Z</time>
      </trkpt>
      <trkpt lat="46.39134" lon="5.59887">
        <ele>643.8</ele>
        <time>2022-07-29T10:38:07Z</time>
      </trkpt>
      <trkpt lat="46.39134" lon="5.59887">
        <ele>643.8</ele>
        <time>2022-07-29T10:38:08Z</time>
      </trkpt>
      <trkpt lat="46.39134" lon="5.59897">
        <ele>643.8</ele>
        <time>2022-07-29T10:38:09Z</time>
      </trkpt>
      <trkpt lat="46.39134" lon="5.59905">
        <ele>644.2</ele>
        <time>2022-07-29T10:38:10Z</time>
      </trkpt>
      <trkpt lat="46.39134" lon="5.59913">
        <ele>644.4</ele>
        <time>2022-07-29T10:38:11Z</time>
      </trkpt>
      <trkpt lat="46.39134" lon="5.5992">
        <ele>644.6</ele>
        <time>2022-07-29T10:38:12Z</time>
      </trkpt>
      <trkpt lat="46.39135" lon="5.59926">
        <ele>645</ele>
        <time>2022-07-29T10:38:13Z</time>
      </trkpt>
      <trkpt lat="46.39135" lon="5.59932">
        <ele>645.2</ele>
        <time>2022-07-29T10:38:14Z</time>
      </trkpt>
      <trkpt lat="46.39135" lon="5.59938">
        <ele>645.4</ele>
        <time>2022-07-29T10:38:15Z</time>
      </trkpt>
      <trkpt lat="46.39135" lon="5.59944">
        <ele>645.8</ele>
        <time>2022-07-29T10:38:16Z</time>
      </trkpt>
      <trkpt lat="46.39135" lon="5.59949">
        <ele>646</ele>
        <time>2022-07-29T10:38:17Z</time>
      </trkpt>
      <trkpt lat="46.39135" lon="5.59954">
        <ele>646.2</ele>
        <time>2022-07-29T10:38:18Z</time>
      </trkpt>
      <trkpt lat="46.39135" lon="5.59959">
        <ele>646.6</ele>
        <time>2022-07-29T10:38:19Z</time>
      </trkpt>
      <trkpt lat="46.39135" lon="5.59964">
        <ele>646.8</ele>
        <time>2022-07-29T10:38:20Z</time>
      </trkpt>
      <trkpt lat="46.39135" lon="5.59969">
        <ele>647</ele>
        <time>2022-07-29T10:38:21Z</time>
      </trkpt>
      <trkpt lat="46.39135" lon="5.59974">
        <ele>647.2</ele>
        <time>2022-07-29T10:38:22Z</time>
      </trkpt>
      <trkpt lat="46.39135" lon="5.59979">
        <ele>647.6</ele>
        <time>2022-07-29T10:38:23Z</time>
      </trkpt>
      <trkpt lat="46.39135" lon="5.59983">
        <ele>647.8</ele>
        <time>2022-07-29T10:38:24Z</time>
      </trkpt>
      <trkpt lat="46.39135" lon="5.59988">
        <ele>648</ele>
        <time>2022-07-29T10:38:25Z</time>
      </trkpt>
      <trkpt lat="46.39135" lon="5.59992">
        <ele>648.2</ele>
        <time>2022-07-29T10:38:26Z</time>
      </trkpt>
      <trkpt lat="46.39136" lon="5.59997">
        <ele>648.4</ele>
        <time>2022-07-29T10:38:27Z</time>
      </trkpt>
      <trkpt lat="46.39136" lon="5.60001">
        <ele>648.4</ele>
        <time>2022-07-29T10:38:28Z</time>
      </trkpt>
      <trkpt lat="46.39137" lon="5.60006">
        <ele>648.8</ele>
        <time>2022-07-29T10:38:29Z</time>
      </trkpt>
      <trkpt lat="46.39137" lon="5.60011">
        <ele>649</ele>
        <time>2022-07-29T10:38:30Z</time>
      </trkpt>
      <trkpt lat="46.39137" lon="5.60016">
        <ele>649</ele>
        <time>2022-07-29T10:38:31Z</time>
      </trkpt>
      <trkpt lat="46.39137" lon="5.60021">
        <ele>649.2</ele>
        <time>2022-07-29T10:38:32Z</time>
      </trkpt>
      <trkpt lat="46.39138" lon="5.60025">
        <ele>649.2</ele>
        <time>2022-07-29T10:38:33Z</time>
      </trkpt>
      <trkpt lat="46.39138" lon="5.6003">
        <ele>649.4</ele>
        <time>2022-07-29T10:38:34Z</time>
      </trkpt>
      <trkpt lat="46.39139" lon="5.60035">
        <ele>649.4</ele>
        <time>2022-07-29T10:38:35Z</time>
      </trkpt>
      <trkpt lat="46.3914" lon="5.6004">
        <ele>649.8</ele>
        <time>2022-07-29T10:38:36Z</time>
      </trkpt>
      <trkpt lat="46.39141" lon="5.60045">
        <ele>649.8</ele>
        <time>2022-07-29T10:38:37Z</time>
      </trkpt>
      <trkpt lat="46.39142" lon="5.6005">
        <ele>650</ele>
        <time>2022-07-29T10:38:38Z</time>
      </trkpt>
      <trkpt lat="46.39143" lon="5.60055">
        <ele>650</ele>
        <time>2022-07-29T10:38:39Z</time>
      </trkpt>
      <trkpt lat="46.39144" lon="5.6006">
        <ele>650.2</ele>
        <time>2022-07-29T10:38:40Z</time>
      </trkpt>
      <trkpt lat="46.39144" lon="5.60065">
        <ele>650.2</ele>
        <time>2022-07-29T10:38:41Z</time>
      </trkpt>
      <trkpt lat="46.39146" lon="5.6007">
        <ele>650.2</ele>
        <time>2022-07-29T10:38:42Z</time>
      </trkpt>
      <trkpt lat="46.39147" lon="5.60075">
        <ele>650.6</ele>
        <time>2022-07-29T10:38:43Z</time>
      </trkpt>
      <trkpt lat="46.39148" lon="5.60079">
        <ele>650.6</ele>
        <time>2022-07-29T10:38:44Z</time>
      </trkpt>
      <trkpt lat="46.3915" lon="5.60084">
        <ele>650.8</ele>
        <time>2022-07-29T10:38:45Z</time>
      </trkpt>
      <trkpt lat="46.39152" lon="5.60088">
        <ele>650.8</ele>
        <time>2022-07-29T10:38:46Z</time>
      </trkpt>
      <trkpt lat="46.39154" lon="5.60092">
        <ele>651.2</ele>
        <time>2022-07-29T10:38:47Z</time>
      </trkpt>
      <trkpt lat="46.39155" lon="5.60096">
        <ele>651.2</ele>
        <time>2022-07-29T10:38:48Z</time>
      </trkpt>
      <trkpt lat="46.39157" lon="5.601">
        <ele>651.4</ele>
        <time>2022-07-29T10:38:49Z</time>
      </trkpt>
      <trkpt lat="46.39159" lon="5.60104">
        <ele>651.4</ele>
        <time>2022-07-29T10:38:50Z</time>
      </trkpt>
      <trkpt lat="46.3916" lon="5.60107">
        <ele>651.6</ele>
        <time>2022-07-29T10:38:51Z</time>
      </trkpt>
      <trkpt lat="46.39162" lon="5.60111">
        <ele>651.6</ele>
        <time>2022-07-29T10:38:52Z</time>
      </trkpt>
      <trkpt lat="46.39164" lon="5.60115">
        <ele>652</ele>
        <time>2022-07-29T10:38:53Z</time>
      </trkpt>
      <trkpt lat="46.39166" lon="5.60119">
        <ele>652</ele>
        <time>2022-07-29T10:38:54Z</time>
      </trkpt>
      <trkpt lat="46.39168" lon="5.60123">
        <ele>652.4</ele>
        <time>2022-07-29T10:38:55Z</time>
      </trkpt>
      <trkpt lat="46.3917" lon="5.60128">
        <ele>652.4</ele>
        <time>2022-07-29T10:38:56Z</time>
      </trkpt>
      <trkpt lat="46.39172" lon="5.60132">
        <ele>652.8</ele>
        <time>2022-07-29T10:38:57Z</time>
      </trkpt>
      <trkpt lat="46.39174" lon="5.60136">
        <ele>653</ele>
        <time>2022-07-29T10:38:58Z</time>
      </trkpt>
      <trkpt lat="46.39176" lon="5.6014">
        <ele>653</ele>
        <time>2022-07-29T10:38:59Z</time>
      </trkpt>
      <trkpt lat="46.39178" lon="5.60144">
        <ele>653.4</ele>
        <time>2022-07-29T10:39:00Z</time>
      </trkpt>
      <trkpt lat="46.39181" lon="5.60147">
        <ele>653.4</ele>
        <time>2022-07-29T10:39:01Z</time>
      </trkpt>
      <trkpt lat="46.39183" lon="5.60151">
        <ele>653.8</ele>
        <time>2022-07-29T10:39:02Z</time>
      </trkpt>
      <trkpt lat="46.39185" lon="5.60155">
        <ele>653.8</ele>
        <time>2022-07-29T10:39:03Z</time>
      </trkpt>
      <trkpt lat="46.39188" lon="5.60159">
        <ele>654.2</ele>
        <time>2022-07-29T10:39:04Z</time>
      </trkpt>
      <trkpt lat="46.39191" lon="5.60162">
        <ele>654.2</ele>
        <time>2022-07-29T10:39:05Z</time>
      </trkpt>
      <trkpt lat="46.39193" lon="5.60165">
        <ele>654.6</ele>
        <time>2022-07-29T10:39:06Z</time>
      </trkpt>
      <trkpt lat="46.39196" lon="5.60169">
        <ele>654.8</ele>
        <time>2022-07-29T10:39:07Z</time>
      </trkpt>
      <trkpt lat="46.39199" lon="5.60172">
        <ele>654.8</ele>
        <time>2022-07-29T10:39:08Z</time>
      </trkpt>
      <trkpt lat="46.39201" lon="5.60176">
        <ele>655.2</ele>
        <time>2022-07-29T10:39:09Z</time>
      </trkpt>
      <trkpt lat="46.39204" lon="5.6018">
        <ele>655.2</ele>
        <time>2022-07-29T10:39:10Z</time>
      </trkpt>
      <trkpt lat="46.39206" lon="5.60183">
        <ele>655.4</ele>
        <time>2022-07-29T10:39:11Z</time>
      </trkpt>
      <trkpt lat="46.39209" lon="5.60186">
        <ele>655.4</ele>
        <time>2022-07-29T10:39:12Z</time>
      </trkpt>
      <trkpt lat="46.39212" lon="5.60189">
        <ele>655.8</ele>
        <time>2022-07-29T10:39:13Z</time>
      </trkpt>
      <trkpt lat="46.39214" lon="5.60191">
        <ele>656</ele>
        <time>2022-07-29T10:39:14Z</time>
      </trkpt>
      <trkpt lat="46.39217" lon="5.60194">
        <ele>656.2</ele>
        <time>2022-07-29T10:39:15Z</time>
      </trkpt>
      <trkpt lat="46.3922" lon="5.60197">
        <ele>656.2</ele>
        <time>2022-07-29T10:39:16Z</time>
      </trkpt>
      <trkpt lat="46.39223" lon="5.60199">
        <ele>656.6</ele>
        <time>2022-07-29T10:39:17Z</time>
      </trkpt>
      <trkpt lat="46.39226" lon="5.60201">
        <ele>656.6</ele>
        <time>2022-07-29T10:39:18Z</time>
      </trkpt>
      <trkpt lat="46.39229" lon="5.60204">
        <ele>657</ele>
        <time>2022-07-29T10:39:19Z</time>
      </trkpt>
      <trkpt lat="46.39232" lon="5.60206">
        <ele>657.2</ele>
        <time>2022-07-29T10:39:20Z</time>
      </trkpt>
      <trkpt lat="46.39235" lon="5.60209">
        <ele>657.2</ele>
        <time>2022-07-29T10:39:21Z</time>
      </trkpt>
      <trkpt lat="46.39238" lon="5.60212">
        <ele>657.4</ele>
        <time>2022-07-29T10:39:22Z</time>
      </trkpt>
      <trkpt lat="46.39241" lon="5.60215">
        <ele>657.4</ele>
        <time>2022-07-29T10:39:23Z</time>
      </trkpt>
      <trkpt lat="46.39244" lon="5.60218">
        <ele>657.8</ele>
        <time>2022-07-29T10:39:24Z</time>
      </trkpt>
      <trkpt lat="46.39247" lon="5.60221">
        <ele>658</ele>
        <time>2022-07-29T10:39:25Z</time>
      </trkpt>
      <trkpt lat="46.39249" lon="5.60223">
        <ele>658.2</ele>
        <time>2022-07-29T10:39:26Z</time>
      </trkpt>
      <trkpt lat="46.39252" lon="5.60226">
        <ele>658.4</ele>
        <time>2022-07-29T10:39:27Z</time>
      </trkpt>
      <trkpt lat="46.39254" lon="5.60229">
        <ele>658.6</ele>
        <time>2022-07-29T10:39:28Z</time>
      </trkpt>
      <trkpt lat="46.39256" lon="5.60231">
        <ele>659</ele>
        <time>2022-07-29T10:39:29Z</time>
      </trkpt>
      <trkpt lat="46.39259" lon="5.60233">
        <ele>659</ele>
        <time>2022-07-29T10:39:30Z</time>
      </trkpt>
      <trkpt lat="46.39261" lon="5.60236">
        <ele>659.2</ele>
        <time>2022-07-29T10:39:31Z</time>
      </trkpt>
      <trkpt lat="46.39264" lon="5.60239">
        <ele>659.2</ele>
        <time>2022-07-29T10:39:32Z</time>
      </trkpt>
      <trkpt lat="46.39266" lon="5.60242">
        <ele>659.6</ele>
        <time>2022-07-29T10:39:33Z</time>
      </trkpt>
      <trkpt lat="46.39268" lon="5.60245">
        <ele>659.6</ele>
        <time>2022-07-29T10:39:34Z</time>
      </trkpt>
      <trkpt lat="46.3927" lon="5.60248">
        <ele>659.8</ele>
        <time>2022-07-29T10:39:35Z</time>
      </trkpt>
      <trkpt lat="46.39273" lon="5.6025">
        <ele>659.8</ele>
        <time>2022-07-29T10:39:36Z</time>
      </trkpt>
      <trkpt lat="46.39275" lon="5.60253">
        <ele>660.2</ele>
        <time>2022-07-29T10:39:37Z</time>
      </trkpt>
      <trkpt lat="46.39278" lon="5.60255">
        <ele>660.2</ele>
        <time>2022-07-29T10:39:38Z</time>
      </trkpt>
      <trkpt lat="46.3928" lon="5.60258">
        <ele>660.4</ele>
        <time>2022-07-29T10:39:39Z</time>
      </trkpt>
      <trkpt lat="46.39283" lon="5.60261">
        <ele>660.4</ele>
        <time>2022-07-29T10:39:40Z</time>
      </trkpt>
      <trkpt lat="46.39286" lon="5.60264">
        <ele>660.8</ele>
        <time>2022-07-29T10:39:41Z</time>
      </trkpt>
      <trkpt lat="46.39289" lon="5.60267">
        <ele>660.8</ele>
        <time>2022-07-29T10:39:42Z</time>
      </trkpt>
      <trkpt lat="46.39291" lon="5.60271">
        <ele>661.2</ele>
        <time>2022-07-29T10:39:43Z</time>
      </trkpt>
      <trkpt lat="46.39294" lon="5.60274">
        <ele>661.4</ele>
        <time>2022-07-29T10:39:44Z</time>
      </trkpt>
      <trkpt lat="46.39296" lon="5.60277">
        <ele>661.8</ele>
        <time>2022-07-29T10:39:45Z</time>
      </trkpt>
      <trkpt lat="46.39298" lon="5.60281">
        <ele>662</ele>
        <time>2022-07-29T10:39:46Z</time>
      </trkpt>
      <trkpt lat="46.393" lon="5.60284">
        <ele>662</ele>
        <time>2022-07-29T10:39:47Z</time>
      </trkpt>
      <trkpt lat="46.39302" lon="5.60288">
        <ele>662.2</ele>
        <time>2022-07-29T10:39:48Z</time>
      </trkpt>
      <trkpt lat="46.39304" lon="5.60292">
        <ele>662.4</ele>
        <time>2022-07-29T10:39:49Z</time>
      </trkpt>
      <trkpt lat="46.39306" lon="5.60295">
        <ele>662.6</ele>
        <time>2022-07-29T10:39:50Z</time>
      </trkpt>
      <trkpt lat="46.39308" lon="5.60299">
        <ele>663</ele>
        <time>2022-07-29T10:39:51Z</time>
      </trkpt>
      <trkpt lat="46.3931" lon="5.60302">
        <ele>663</ele>
        <time>2022-07-29T10:39:52Z</time>
      </trkpt>
      <trkpt lat="46.39312" lon="5.60306">
        <ele>663.4</ele>
        <time>2022-07-29T10:39:53Z</time>
      </trkpt>
      <trkpt lat="46.39314" lon="5.6031">
        <ele>663.6</ele>
        <time>2022-07-29T10:39:54Z</time>
      </trkpt>
      <trkpt lat="46.39315" lon="5.60314">
        <ele>663.8</ele>
        <time>2022-07-29T10:39:55Z</time>
      </trkpt>
      <trkpt lat="46.39317" lon="5.60318">
        <ele>664</ele>
        <time>2022-07-29T10:39:56Z</time>
      </trkpt>
      <trkpt lat="46.39319" lon="5.60322">
        <ele>664</ele>
        <time>2022-07-29T10:39:57Z</time>
      </trkpt>
      <trkpt lat="46.39321" lon="5.60325">
        <ele>664.4</ele>
        <time>2022-07-29T10:39:58Z</time>
      </trkpt>
      <trkpt lat="46.39324" lon="5.60328">
        <ele>664.4</ele>
        <time>2022-07-29T10:39:59Z</time>
      </trkpt>
      <trkpt lat="46.39327" lon="5.60331">
        <ele>664.6</ele>
        <time>2022-07-29T10:40:00Z</time>
      </trkpt>
      <trkpt lat="46.3933" lon="5.60333">
        <ele>664.6</ele>
        <time>2022-07-29T10:40:01Z</time>
      </trkpt>
      <trkpt lat="46.39333" lon="5.60335">
        <ele>665</ele>
        <time>2022-07-29T10:40:02Z</time>
      </trkpt>
      <trkpt lat="46.39336" lon="5.60336">
        <ele>665</ele>
        <time>2022-07-29T10:40:03Z</time>
      </trkpt>
      <trkpt lat="46.39339" lon="5.60337">
        <ele>665.4</ele>
        <time>2022-07-29T10:40:04Z</time>
      </trkpt>
      <trkpt lat="46.39342" lon="5.60338">
        <ele>665.4</ele>
        <time>2022-07-29T10:40:05Z</time>
      </trkpt>
      <trkpt lat="46.39345" lon="5.60339">
        <ele>665.8</ele>
        <time>2022-07-29T10:40:06Z</time>
      </trkpt>
      <trkpt lat="46.39348" lon="5.6034">
        <ele>665.8</ele>
        <time>2022-07-29T10:40:07Z</time>
      </trkpt>
      <trkpt lat="46.39351" lon="5.60341">
        <ele>666</ele>
        <time>2022-07-29T10:40:08Z</time>
      </trkpt>
      <trkpt lat="46.39355" lon="5.60342">
        <ele>666</ele>
        <time>2022-07-29T10:40:09Z</time>
      </trkpt>
      <trkpt lat="46.39358" lon="5.60343">
        <ele>666.4</ele>
        <time>2022-07-29T10:40:10Z</time>
      </trkpt>
      <trkpt lat="46.39362" lon="5.60344">
        <ele>666.4</ele>
        <time>2022-07-29T10:40:11Z</time>
      </trkpt>
      <trkpt lat="46.39365" lon="5.60345">
        <ele>666.6</ele>
        <time>2022-07-29T10:40:12Z</time>
      </trkpt>
      <trkpt lat="46.39369" lon="5.60346">
        <ele>666.8</ele>
        <time>2022-07-29T10:40:13Z</time>
      </trkpt>
      <trkpt lat="46.39372" lon="5.60348">
        <ele>666.8</ele>
        <time>2022-07-29T10:40:14Z</time>
      </trkpt>
      <trkpt lat="46.39375" lon="5.6035">
        <ele>667.2</ele>
        <time>2022-07-29T10:40:15Z</time>
      </trkpt>
      <trkpt lat="46.39378" lon="5.60352">
        <ele>667.4</ele>
        <time>2022-07-29T10:40:16Z</time>
      </trkpt>
      <trkpt lat="46.39381" lon="5.60354">
        <ele>667.6</ele>
        <time>2022-07-29T10:40:17Z</time>
      </trkpt>
      <trkpt lat="46.39384" lon="5.60356">
        <ele>667.8</ele>
        <time>2022-07-29T10:40:18Z</time>
      </trkpt>
      <trkpt lat="46.39386" lon="5.60358">
        <ele>667.8</ele>
        <time>2022-07-29T10:40:19Z</time>
      </trkpt>
      <trkpt lat="46.39389" lon="5.6036">
        <ele>668.2</ele>
        <time>2022-07-29T10:40:20Z</time>
      </trkpt>
      <trkpt lat="46.39391" lon="5.60362">
        <ele>668.6</ele>
        <time>2022-07-29T10:40:21Z</time>
      </trkpt>
      <trkpt lat="46.39394" lon="5.60365">
        <ele>668.6</ele>
        <time>2022-07-29T10:40:22Z</time>
      </trkpt>
      <trkpt lat="46.39396" lon="5.60368">
        <ele>668.8</ele>
        <time>2022-07-29T10:40:23Z</time>
      </trkpt>
      <trkpt lat="46.39399" lon="5.60371">
        <ele>669</ele>
        <time>2022-07-29T10:40:24Z</time>
      </trkpt>
      <trkpt lat="46.39402" lon="5.60374">
        <ele>669</ele>
        <time>2022-07-29T10:40:25Z</time>
      </trkpt>
      <trkpt lat="46.39404" lon="5.60378">
        <ele>669.4</ele>
        <time>2022-07-29T10:40:26Z</time>
      </trkpt>
      <trkpt lat="46.39407" lon="5.60381">
        <ele>669.4</ele>
        <time>2022-07-29T10:40:27Z</time>
      </trkpt>
      <trkpt lat="46.3941" lon="5.60383">
        <ele>669.6</ele>
        <time>2022-07-29T10:40:28Z</time>
      </trkpt>
      <trkpt lat="46.39412" lon="5.60385">
        <ele>669.8</ele>
        <time>2022-07-29T10:40:29Z</time>
      </trkpt>
      <trkpt lat="46.39415" lon="5.60388">
        <ele>669.8</ele>
        <time>2022-07-29T10:40:30Z</time>
      </trkpt>
      <trkpt lat="46.39418" lon="5.6039">
        <ele>670.2</ele>
        <time>2022-07-29T10:40:31Z</time>
      </trkpt>
      <trkpt lat="46.3942" lon="5.60392">
        <ele>670.2</ele>
        <time>2022-07-29T10:40:32Z</time>
      </trkpt>
      <trkpt lat="46.39423" lon="5.60394">
        <ele>670.4</ele>
        <time>2022-07-29T10:40:33Z</time>
      </trkpt>
      <trkpt lat="46.39426" lon="5.60396">
        <ele>670.4</ele>
        <time>2022-07-29T10:40:34Z</time>
      </trkpt>
      <trkpt lat="46.39429" lon="5.60399">
        <ele>670.8</ele>
        <time>2022-07-29T10:40:35Z</time>
      </trkpt>
      <trkpt lat="46.39432" lon="5.60401">
        <ele>670.8</ele>
        <time>2022-07-29T10:40:36Z</time>
      </trkpt>
      <trkpt lat="46.39434" lon="5.60403">
        <ele>671</ele>
        <time>2022-07-29T10:40:37Z</time>
      </trkpt>
      <trkpt lat="46.39437" lon="5.60404">
        <ele>671</ele>
        <time>2022-07-29T10:40:38Z</time>
      </trkpt>
      <trkpt lat="46.39439" lon="5.60406">
        <ele>671.4</ele>
        <time>2022-07-29T10:40:39Z</time>
      </trkpt>
      <trkpt lat="46.39441" lon="5.60408">
        <ele>671.6</ele>
        <time>2022-07-29T10:40:40Z</time>
      </trkpt>
      <trkpt lat="46.39444" lon="5.6041">
        <ele>671.8</ele>
        <time>2022-07-29T10:40:41Z</time>
      </trkpt>
      <trkpt lat="46.39447" lon="5.60412">
        <ele>671.8</ele>
        <time>2022-07-29T10:40:42Z</time>
      </trkpt>
      <trkpt lat="46.3945" lon="5.60414">
        <ele>672</ele>
        <time>2022-07-29T10:40:43Z</time>
      </trkpt>
      <trkpt lat="46.39453" lon="5.60416">
        <ele>672</ele>
        <time>2022-07-29T10:40:44Z</time>
      </trkpt>
      <trkpt lat="46.39455" lon="5.60418">
        <ele>672.4</ele>
        <time>2022-07-29T10:40:45Z</time>
      </trkpt>
      <trkpt lat="46.39458" lon="5.6042">
        <ele>672.4</ele>
        <time>2022-07-29T10:40:46Z</time>
      </trkpt>
      <trkpt lat="46.39461" lon="5.60422">
        <ele>672.8</ele>
        <time>2022-07-29T10:40:47Z</time>
      </trkpt>
      <trkpt lat="46.39464" lon="5.60424">
        <ele>672.8</ele>
        <time>2022-07-29T10:40:48Z</time>
      </trkpt>
      <trkpt lat="46.39467" lon="5.60426">
        <ele>673.2</ele>
        <time>2022-07-29T10:40:49Z</time>
      </trkpt>
      <trkpt lat="46.3947" lon="5.60428">
        <ele>673.2</ele>
        <time>2022-07-29T10:40:50Z</time>
      </trkpt>
      <trkpt lat="46.39473" lon="5.6043">
        <ele>673.6</ele>
        <time>2022-07-29T10:40:51Z</time>
      </trkpt>
      <trkpt lat="46.39475" lon="5.60432">
        <ele>673.6</ele>
        <time>2022-07-29T10:40:52Z</time>
      </trkpt>
      <trkpt lat="46.39478" lon="5.60434">
        <ele>673.6</ele>
        <time>2022-07-29T10:40:53Z</time>
      </trkpt>
      <trkpt lat="46.39481" lon="5.60437">
        <ele>673.8</ele>
        <time>2022-07-29T10:40:54Z</time>
      </trkpt>
      <trkpt lat="46.39484" lon="5.6044">
        <ele>673.8</ele>
        <time>2022-07-29T10:40:55Z</time>
      </trkpt>
      <trkpt lat="46.39487" lon="5.60442">
        <ele>674.2</ele>
        <time>2022-07-29T10:40:56Z</time>
      </trkpt>
      <trkpt lat="46.39489" lon="5.60445">
        <ele>674.2</ele>
        <time>2022-07-29T10:40:57Z</time>
      </trkpt>
      <trkpt lat="46.39492" lon="5.60447">
        <ele>674.6</ele>
        <time>2022-07-29T10:40:58Z</time>
      </trkpt>
      <trkpt lat="46.39495" lon="5.60451">
        <ele>674.6</ele>
        <time>2022-07-29T10:40:59Z</time>
      </trkpt>
      <trkpt lat="46.39498" lon="5.60454">
        <ele>675.2</ele>
        <time>2022-07-29T10:41:00Z</time>
      </trkpt>
      <trkpt lat="46.39501" lon="5.60457">
        <ele>675.2</ele>
        <time>2022-07-29T10:41:01Z</time>
      </trkpt>
      <trkpt lat="46.39503" lon="5.6046">
        <ele>675.4</ele>
        <time>2022-07-29T10:41:02Z</time>
      </trkpt>
      <trkpt lat="46.39506" lon="5.60463">
        <ele>675.4</ele>
        <time>2022-07-29T10:41:03Z</time>
      </trkpt>
      <trkpt lat="46.39509" lon="5.60466">
        <ele>675.6</ele>
        <time>2022-07-29T10:41:04Z</time>
      </trkpt>
      <trkpt lat="46.39511" lon="5.60469">
        <ele>675.6</ele>
        <time>2022-07-29T10:41:05Z</time>
      </trkpt>
      <trkpt lat="46.39514" lon="5.60472">
        <ele>676</ele>
        <time>2022-07-29T10:41:06Z</time>
      </trkpt>
      <trkpt lat="46.39517" lon="5.60476">
        <ele>676</ele>
        <time>2022-07-29T10:41:07Z</time>
      </trkpt>
      <trkpt lat="46.3952" lon="5.60478">
        <ele>676.2</ele>
        <time>2022-07-29T10:41:08Z</time>
      </trkpt>
      <trkpt lat="46.39523" lon="5.60481">
        <ele>676.4</ele>
        <time>2022-07-29T10:41:09Z</time>
      </trkpt>
      <trkpt lat="46.39526" lon="5.60483">
        <ele>676.4</ele>
        <time>2022-07-29T10:41:10Z</time>
      </trkpt>
      <trkpt lat="46.39528" lon="5.60486">
        <ele>676.8</ele>
        <time>2022-07-29T10:41:11Z</time>
      </trkpt>
      <trkpt lat="46.39531" lon="5.60489">
        <ele>676.8</ele>
        <time>2022-07-29T10:41:12Z</time>
      </trkpt>
      <trkpt lat="46.39533" lon="5.60492">
        <ele>677.2</ele>
        <time>2022-07-29T10:41:13Z</time>
      </trkpt>
      <trkpt lat="46.39536" lon="5.60495">
        <ele>677.2</ele>
        <time>2022-07-29T10:41:14Z</time>
      </trkpt>
      <trkpt lat="46.39538" lon="5.60498">
        <ele>677.4</ele>
        <time>2022-07-29T10:41:15Z</time>
      </trkpt>
      <trkpt lat="46.39541" lon="5.605">
        <ele>677.4</ele>
        <time>2022-07-29T10:41:16Z</time>
      </trkpt>
      <trkpt lat="46.39544" lon="5.60503">
        <ele>677.8</ele>
        <time>2022-07-29T10:41:17Z</time>
      </trkpt>
      <trkpt lat="46.39547" lon="5.60506">
        <ele>677.8</ele>
        <time>2022-07-29T10:41:18Z</time>
      </trkpt>
      <trkpt lat="46.3955" lon="5.60509">
        <ele>678</ele>
        <time>2022-07-29T10:41:19Z</time>
      </trkpt>
      <trkpt lat="46.39552" lon="5.60512">
        <ele>678</ele>
        <time>2022-07-29T10:41:20Z</time>
      </trkpt>
      <trkpt lat="46.39555" lon="5.60515">
        <ele>678.4</ele>
        <time>2022-07-29T10:41:21Z</time>
      </trkpt>
      <trkpt lat="46.39558" lon="5.60518">
        <ele>678.4</ele>
        <time>2022-07-29T10:41:22Z</time>
      </trkpt>
      <trkpt lat="46.39561" lon="5.60521">
        <ele>678.8</ele>
        <time>2022-07-29T10:41:23Z</time>
      </trkpt>
      <trkpt lat="46.39564" lon="5.60524">
        <ele>679</ele>
        <time>2022-07-29T10:41:24Z</time>
      </trkpt>
      <trkpt lat="46.39566" lon="5.60527">
        <ele>679</ele>
        <time>2022-07-29T10:41:25Z</time>
      </trkpt>
      <trkpt lat="46.39569" lon="5.6053">
        <ele>679.4</ele>
        <time>2022-07-29T10:41:26Z</time>
      </trkpt>
      <trkpt lat="46.39571" lon="5.60533">
        <ele>679.6</ele>
        <time>2022-07-29T10:41:27Z</time>
      </trkpt>
      <trkpt lat="46.39574" lon="5.60536">
        <ele>680</ele>
        <time>2022-07-29T10:41:28Z</time>
      </trkpt>
      <trkpt lat="46.39576" lon="5.6054">
        <ele>680.2</ele>
        <time>2022-07-29T10:41:29Z</time>
      </trkpt>
      <trkpt lat="46.39578" lon="5.60544">
        <ele>680.2</ele>
        <time>2022-07-29T10:41:30Z</time>
      </trkpt>
      <trkpt lat="46.39582" lon="5.60551">
        <ele>680.4</ele>
        <time>2022-07-29T10:41:31Z</time>
      </trkpt>
      <trkpt lat="46.39585" lon="5.60554">
        <ele>680.8</ele>
        <time>2022-07-29T10:41:32Z</time>
      </trkpt>
      <trkpt lat="46.39587" lon="5.60558">
        <ele>680.8</ele>
        <time>2022-07-29T10:41:33Z</time>
      </trkpt>
      <trkpt lat="46.39589" lon="5.60561">
        <ele>681.2</ele>
        <time>2022-07-29T10:41:34Z</time>
      </trkpt>
      <trkpt lat="46.39592" lon="5.60565">
        <ele>681.2</ele>
        <time>2022-07-29T10:41:35Z</time>
      </trkpt>
      <trkpt lat="46.39595" lon="5.6057">
        <ele>681.4</ele>
        <time>2022-07-29T10:41:36Z</time>
      </trkpt>
      <trkpt lat="46.39597" lon="5.60574">
        <ele>681.4</ele>
        <time>2022-07-29T10:41:37Z</time>
      </trkpt>
      <trkpt lat="46.396" lon="5.60577">
        <ele>681.8</ele>
        <time>2022-07-29T10:41:38Z</time>
      </trkpt>
      <trkpt lat="46.39602" lon="5.60581">
        <ele>681.8</ele>
        <time>2022-07-29T10:41:39Z</time>
      </trkpt>
      <trkpt lat="46.39605" lon="5.60584">
        <ele>681.8</ele>
        <time>2022-07-29T10:41:40Z</time>
      </trkpt>
      <trkpt lat="46.39607" lon="5.60589">
        <ele>682.2</ele>
        <time>2022-07-29T10:41:41Z</time>
      </trkpt>
      <trkpt lat="46.39609" lon="5.60594">
        <ele>682.2</ele>
        <time>2022-07-29T10:41:42Z</time>
      </trkpt>
      <trkpt lat="46.39612" lon="5.60598">
        <ele>682.4</ele>
        <time>2022-07-29T10:41:43Z</time>
      </trkpt>
      <trkpt lat="46.39614" lon="5.60603">
        <ele>682.4</ele>
        <time>2022-07-29T10:41:44Z</time>
      </trkpt>
      <trkpt lat="46.39616" lon="5.60608">
        <ele>682.6</ele>
        <time>2022-07-29T10:41:45Z</time>
      </trkpt>
      <trkpt lat="46.39618" lon="5.60612">
        <ele>682.6</ele>
        <time>2022-07-29T10:41:46Z</time>
      </trkpt>
      <trkpt lat="46.3962" lon="5.60617">
        <ele>683</ele>
        <time>2022-07-29T10:41:47Z</time>
      </trkpt>
      <trkpt lat="46.39622" lon="5.60622">
        <ele>683</ele>
        <time>2022-07-29T10:41:48Z</time>
      </trkpt>
      <trkpt lat="46.39624" lon="5.60626">
        <ele>683.4</ele>
        <time>2022-07-29T10:41:49Z</time>
      </trkpt>
      <trkpt lat="46.39626" lon="5.6063">
        <ele>683.4</ele>
        <time>2022-07-29T10:41:50Z</time>
      </trkpt>
      <trkpt lat="46.39628" lon="5.60634">
        <ele>683.8</ele>
        <time>2022-07-29T10:41:51Z</time>
      </trkpt>
      <trkpt lat="46.3963" lon="5.60638">
        <ele>683.8</ele>
        <time>2022-07-29T10:41:52Z</time>
      </trkpt>
      <trkpt lat="46.39631" lon="5.60642">
        <ele>684.2</ele>
        <time>2022-07-29T10:41:53Z</time>
      </trkpt>
      <trkpt lat="46.39633" lon="5.60647">
        <ele>684.2</ele>
        <time>2022-07-29T10:41:54Z</time>
      </trkpt>
      <trkpt lat="46.39636" lon="5.60651">
        <ele>684.6</ele>
        <time>2022-07-29T10:41:55Z</time>
      </trkpt>
      <trkpt lat="46.39638" lon="5.60655">
        <ele>684.6</ele>
        <time>2022-07-29T10:41:56Z</time>
      </trkpt>
      <trkpt lat="46.3964" lon="5.60659">
        <ele>685</ele>
        <time>2022-07-29T10:41:57Z</time>
      </trkpt>
      <trkpt lat="46.39641" lon="5.60663">
        <ele>685</ele>
        <time>2022-07-29T10:41:58Z</time>
      </trkpt>
      <trkpt lat="46.39643" lon="5.60667">
        <ele>685.2</ele>
        <time>2022-07-29T10:41:59Z</time>
      </trkpt>
      <trkpt lat="46.39645" lon="5.60671">
        <ele>685.4</ele>
        <time>2022-07-29T10:42:00Z</time>
      </trkpt>
      <trkpt lat="46.39648" lon="5.60674">
        <ele>685.4</ele>
        <time>2022-07-29T10:42:01Z</time>
      </trkpt>
      <trkpt lat="46.3965" lon="5.60678">
        <ele>685.8</ele>
        <time>2022-07-29T10:42:02Z</time>
      </trkpt>
      <trkpt lat="46.39652" lon="5.60682">
        <ele>685.8</ele>
        <time>2022-07-29T10:42:03Z</time>
      </trkpt>
      <trkpt lat="46.39653" lon="5.60685">
        <ele>686.2</ele>
        <time>2022-07-29T10:42:04Z</time>
      </trkpt>
      <trkpt lat="46.39655" lon="5.60689">
        <ele>686.4</ele>
        <time>2022-07-29T10:42:05Z</time>
      </trkpt>
      <trkpt lat="46.39656" lon="5.60693">
        <ele>686.4</ele>
        <time>2022-07-29T10:42:06Z</time>
      </trkpt>
      <trkpt lat="46.39658" lon="5.60696">
        <ele>686.8</ele>
        <time>2022-07-29T10:42:07Z</time>
      </trkpt>
      <trkpt lat="46.3966" lon="5.607">
        <ele>686.8</ele>
        <time>2022-07-29T10:42:08Z</time>
      </trkpt>
      <trkpt lat="46.39661" lon="5.60704">
        <ele>687</ele>
        <time>2022-07-29T10:42:09Z</time>
      </trkpt>
      <trkpt lat="46.39663" lon="5.60708">
        <ele>687.2</ele>
        <time>2022-07-29T10:42:10Z</time>
      </trkpt>
      <trkpt lat="46.39665" lon="5.60711">
        <ele>687.2</ele>
        <time>2022-07-29T10:42:11Z</time>
      </trkpt>
      <trkpt lat="46.39666" lon="5.60715">
        <ele>687.6</ele>
        <time>2022-07-29T10:42:12Z</time>
      </trkpt>
      <trkpt lat="46.39668" lon="5.6072">
        <ele>687.6</ele>
        <time>2022-07-29T10:42:13Z</time>
      </trkpt>
      <trkpt lat="46.3967" lon="5.60723">
        <ele>687.8</ele>
        <time>2022-07-29T10:42:14Z</time>
      </trkpt>
      <trkpt lat="46.39672" lon="5.60727">
        <ele>687.8</ele>
        <time>2022-07-29T10:42:15Z</time>
      </trkpt>
      <trkpt lat="46.39674" lon="5.60732">
        <ele>688.2</ele>
        <time>2022-07-29T10:42:16Z</time>
      </trkpt>
      <trkpt lat="46.39676" lon="5.60736">
        <ele>688.2</ele>
        <time>2022-07-29T10:42:17Z</time>
      </trkpt>
      <trkpt lat="46.39679" lon="5.6074">
        <ele>688.4</ele>
        <time>2022-07-29T10:42:18Z</time>
      </trkpt>
      <trkpt lat="46.39681" lon="5.60744">
        <ele>688.4</ele>
        <time>2022-07-29T10:42:19Z</time>
      </trkpt>
      <trkpt lat="46.39683" lon="5.60748">
        <ele>688.4</ele>
        <time>2022-07-29T10:42:20Z</time>
      </trkpt>
      <trkpt lat="46.39685" lon="5.60752">
        <ele>688.6</ele>
        <time>2022-07-29T10:42:21Z</time>
      </trkpt>
      <trkpt lat="46.39687" lon="5.60757">
        <ele>688.6</ele>
        <time>2022-07-29T10:42:22Z</time>
      </trkpt>
      <trkpt lat="46.39689" lon="5.60761">
        <ele>688.6</ele>
        <time>2022-07-29T10:42:23Z</time>
      </trkpt>
      <trkpt lat="46.3969" lon="5.60765">
        <ele>689</ele>
        <time>2022-07-29T10:42:24Z</time>
      </trkpt>
      <trkpt lat="46.39692" lon="5.60769">
        <ele>689</ele>
        <time>2022-07-29T10:42:25Z</time>
      </trkpt>
      <trkpt lat="46.39694" lon="5.60773">
        <ele>689.2</ele>
        <time>2022-07-29T10:42:26Z</time>
      </trkpt>
      <trkpt lat="46.39695" lon="5.60777">
        <ele>689.2</ele>
        <time>2022-07-29T10:42:27Z</time>
      </trkpt>
      <trkpt lat="46.39696" lon="5.60782">
        <ele>689.6</ele>
        <time>2022-07-29T10:42:28Z</time>
      </trkpt>
      <trkpt lat="46.39697" lon="5.60787">
        <ele>689.6</ele>
        <time>2022-07-29T10:42:29Z</time>
      </trkpt>
      <trkpt lat="46.39697" lon="5.60791">
        <ele>689.8</ele>
        <time>2022-07-29T10:42:30Z</time>
      </trkpt>
      <trkpt lat="46.39698" lon="5.60796">
        <ele>689.8</ele>
        <time>2022-07-29T10:42:31Z</time>
      </trkpt>
      <trkpt lat="46.39698" lon="5.608">
        <ele>690.2</ele>
        <time>2022-07-29T10:42:32Z</time>
      </trkpt>
      <trkpt lat="46.39699" lon="5.60804">
        <ele>690.4</ele>
        <time>2022-07-29T10:42:33Z</time>
      </trkpt>
      <trkpt lat="46.39699" lon="5.60809">
        <ele>690.6</ele>
        <time>2022-07-29T10:42:34Z</time>
      </trkpt>
      <trkpt lat="46.397" lon="5.60814">
        <ele>690.6</ele>
        <time>2022-07-29T10:42:35Z</time>
      </trkpt>
      <trkpt lat="46.39701" lon="5.60818">
        <ele>691</ele>
        <time>2022-07-29T10:42:36Z</time>
      </trkpt>
      <trkpt lat="46.39702" lon="5.60823">
        <ele>691</ele>
        <time>2022-07-29T10:42:37Z</time>
      </trkpt>
      <trkpt lat="46.39703" lon="5.60828">
        <ele>691.2</ele>
        <time>2022-07-29T10:42:38Z</time>
      </trkpt>
      <trkpt lat="46.39704" lon="5.60832">
        <ele>691.6</ele>
        <time>2022-07-29T10:42:39Z</time>
      </trkpt>
      <trkpt lat="46.39705" lon="5.60836">
        <ele>691.8</ele>
        <time>2022-07-29T10:42:40Z</time>
      </trkpt>
      <trkpt lat="46.39705" lon="5.6084">
        <ele>692</ele>
        <time>2022-07-29T10:42:41Z</time>
      </trkpt>
      <trkpt lat="46.39705" lon="5.60844">
        <ele>692.2</ele>
        <time>2022-07-29T10:42:42Z</time>
      </trkpt>
      <trkpt lat="46.39705" lon="5.60848">
        <ele>692.2</ele>
        <time>2022-07-29T10:42:43Z</time>
      </trkpt>
      <trkpt lat="46.39703" lon="5.60851">
        <ele>692.6</ele>
        <time>2022-07-29T10:42:44Z</time>
      </trkpt>
      <trkpt lat="46.39701" lon="5.60853">
        <ele>692.8</ele>
        <time>2022-07-29T10:42:45Z</time>
      </trkpt>
      <trkpt lat="46.39698" lon="5.60854">
        <ele>693</ele>
        <time>2022-07-29T10:42:46Z</time>
      </trkpt>
      <trkpt lat="46.39695" lon="5.60854">
        <ele>693.4</ele>
        <time>2022-07-29T10:42:47Z</time>
      </trkpt>
      <trkpt lat="46.39692" lon="5.60854">
        <ele>693.6</ele>
        <time>2022-07-29T10:42:48Z</time>
      </trkpt>
      <trkpt lat="46.3969" lon="5.60852">
        <ele>693.8</ele>
        <time>2022-07-29T10:42:49Z</time>
      </trkpt>
      <trkpt lat="46.39688" lon="5.60849">
        <ele>694.2</ele>
        <time>2022-07-29T10:42:50Z</time>
      </trkpt>
      <trkpt lat="46.39686" lon="5.60846">
        <ele>694.4</ele>
        <time>2022-07-29T10:42:51Z</time>
      </trkpt>
      <trkpt lat="46.39685" lon="5.60843">
        <ele>694.4</ele>
        <time>2022-07-29T10:42:52Z</time>
      </trkpt>
      <trkpt lat="46.39683" lon="5.6084">
        <ele>694.6</ele>
        <time>2022-07-29T10:42:53Z</time>
      </trkpt>
      <trkpt lat="46.39681" lon="5.60838">
        <ele>694.6</ele>
        <time>2022-07-29T10:42:54Z</time>
      </trkpt>
      <trkpt lat="46.39678" lon="5.60835">
        <ele>695</ele>
        <time>2022-07-29T10:42:55Z</time>
      </trkpt>
      <trkpt lat="46.39676" lon="5.60833">
        <ele>695.2</ele>
        <time>2022-07-29T10:42:56Z</time>
      </trkpt>
      <trkpt lat="46.39672" lon="5.6083">
        <ele>695.2</ele>
        <time>2022-07-29T10:42:57Z</time>
      </trkpt>
      <trkpt lat="46.39669" lon="5.60829">
        <ele>695.6</ele>
        <time>2022-07-29T10:42:58Z</time>
      </trkpt>
      <trkpt lat="46.39666" lon="5.60827">
        <ele>695.6</ele>
        <time>2022-07-29T10:42:59Z</time>
      </trkpt>
      <trkpt lat="46.39662" lon="5.60825">
        <ele>695.8</ele>
        <time>2022-07-29T10:43:00Z</time>
      </trkpt>
      <trkpt lat="46.39659" lon="5.60824">
        <ele>695.8</ele>
        <time>2022-07-29T10:43:01Z</time>
      </trkpt>
      <trkpt lat="46.39656" lon="5.60822">
        <ele>696.2</ele>
        <time>2022-07-29T10:43:02Z</time>
      </trkpt>
      <trkpt lat="46.39653" lon="5.60821">
        <ele>696.2</ele>
        <time>2022-07-29T10:43:03Z</time>
      </trkpt>
      <trkpt lat="46.39649" lon="5.60819">
        <ele>696.6</ele>
        <time>2022-07-29T10:43:04Z</time>
      </trkpt>
      <trkpt lat="46.39646" lon="5.60818">
        <ele>696.8</ele>
        <time>2022-07-29T10:43:05Z</time>
      </trkpt>
      <trkpt lat="46.39643" lon="5.60818">
        <ele>697</ele>
        <time>2022-07-29T10:43:06Z</time>
      </trkpt>
      <trkpt lat="46.3964" lon="5.60818">
        <ele>697</ele>
        <time>2022-07-29T10:43:07Z</time>
      </trkpt>
      <trkpt lat="46.39637" lon="5.60819">
        <ele>697.4</ele>
        <time>2022-07-29T10:43:08Z</time>
      </trkpt>
      <trkpt lat="46.39634" lon="5.60819">
        <ele>697.4</ele>
        <time>2022-07-29T10:43:09Z</time>
      </trkpt>
      <trkpt lat="46.39632" lon="5.60819">
        <ele>697.8</ele>
        <time>2022-07-29T10:43:10Z</time>
      </trkpt>
      <trkpt lat="46.39629" lon="5.60819">
        <ele>697.8</ele>
        <time>2022-07-29T10:43:11Z</time>
      </trkpt>
      <trkpt lat="46.39626" lon="5.6082">
        <ele>698</ele>
        <time>2022-07-29T10:43:12Z</time>
      </trkpt>
      <trkpt lat="46.39623" lon="5.6082">
        <ele>698</ele>
        <time>2022-07-29T10:43:13Z</time>
      </trkpt>
      <trkpt lat="46.3962" lon="5.60821">
        <ele>698.2</ele>
        <time>2022-07-29T10:43:14Z</time>
      </trkpt>
      <trkpt lat="46.39616" lon="5.60822">
        <ele>698.2</ele>
        <time>2022-07-29T10:43:15Z</time>
      </trkpt>
      <trkpt lat="46.39613" lon="5.60824">
        <ele>698.2</ele>
        <time>2022-07-29T10:43:16Z</time>
      </trkpt>
      <trkpt lat="46.39611" lon="5.60825">
        <ele>698.6</ele>
        <time>2022-07-29T10:43:17Z</time>
      </trkpt>
      <trkpt lat="46.39608" lon="5.60826">
        <ele>698.6</ele>
        <time>2022-07-29T10:43:18Z</time>
      </trkpt>
      <trkpt lat="46.39605" lon="5.60828">
        <ele>698.6</ele>
        <time>2022-07-29T10:43:19Z</time>
      </trkpt>
      <trkpt lat="46.39601" lon="5.60829">
        <ele>698.6</ele>
        <time>2022-07-29T10:43:20Z</time>
      </trkpt>
      <trkpt lat="46.39597" lon="5.60831">
        <ele>698.6</ele>
        <time>2022-07-29T10:43:21Z</time>
      </trkpt>
      <trkpt lat="46.39593" lon="5.60832">
        <ele>698.6</ele>
        <time>2022-07-29T10:43:22Z</time>
      </trkpt>
      <trkpt lat="46.39589" lon="5.60833">
        <ele>698.6</ele>
        <time>2022-07-29T10:43:23Z</time>
      </trkpt>
      <trkpt lat="46.39585" lon="5.60833">
        <ele>698.8</ele>
        <time>2022-07-29T10:43:24Z</time>
      </trkpt>
      <trkpt lat="46.39581" lon="5.60833">
        <ele>698.8</ele>
        <time>2022-07-29T10:43:25Z</time>
      </trkpt>
      <trkpt lat="46.39577" lon="5.60833">
        <ele>698.8</ele>
        <time>2022-07-29T10:43:26Z</time>
      </trkpt>
      <trkpt lat="46.39573" lon="5.60832">
        <ele>699</ele>
        <time>2022-07-29T10:43:27Z</time>
      </trkpt>
      <trkpt lat="46.3957" lon="5.60831">
        <ele>699</ele>
        <time>2022-07-29T10:43:28Z</time>
      </trkpt>
      <trkpt lat="46.39566" lon="5.6083">
        <ele>699.4</ele>
        <time>2022-07-29T10:43:29Z</time>
      </trkpt>
      <trkpt lat="46.39563" lon="5.60828">
        <ele>699.4</ele>
        <time>2022-07-29T10:43:30Z</time>
      </trkpt>
      <trkpt lat="46.39559" lon="5.60827">
        <ele>699.4</ele>
        <time>2022-07-29T10:43:31Z</time>
      </trkpt>
      <trkpt lat="46.39555" lon="5.60826">
        <ele>699.6</ele>
        <time>2022-07-29T10:43:32Z</time>
      </trkpt>
      <trkpt lat="46.39552" lon="5.60824">
        <ele>699.6</ele>
        <time>2022-07-29T10:43:33Z</time>
      </trkpt>
      <trkpt lat="46.39548" lon="5.60823">
        <ele>699.6</ele>
        <time>2022-07-29T10:43:34Z</time>
      </trkpt>
      <trkpt lat="46.39545" lon="5.60821">
        <ele>700</ele>
        <time>2022-07-29T10:43:35Z</time>
      </trkpt>
      <trkpt lat="46.39542" lon="5.6082">
        <ele>700.2</ele>
        <time>2022-07-29T10:43:36Z</time>
      </trkpt>
      <trkpt lat="46.39539" lon="5.60818">
        <ele>700.4</ele>
        <time>2022-07-29T10:43:37Z</time>
      </trkpt>
      <trkpt lat="46.39536" lon="5.60815">
        <ele>700.4</ele>
        <time>2022-07-29T10:43:38Z</time>
      </trkpt>
      <trkpt lat="46.39533" lon="5.60813">
        <ele>700.8</ele>
        <time>2022-07-29T10:43:39Z</time>
      </trkpt>
      <trkpt lat="46.3953" lon="5.60811">
        <ele>700.8</ele>
        <time>2022-07-29T10:43:40Z</time>
      </trkpt>
      <trkpt lat="46.39527" lon="5.60809">
        <ele>701.2</ele>
        <time>2022-07-29T10:43:41Z</time>
      </trkpt>
      <trkpt lat="46.39524" lon="5.60807">
        <ele>701.4</ele>
        <time>2022-07-29T10:43:42Z</time>
      </trkpt>
      <trkpt lat="46.39521" lon="5.60805">
        <ele>701.6</ele>
        <time>2022-07-29T10:43:43Z</time>
      </trkpt>
      <trkpt lat="46.39521" lon="5.60805">
        <ele>701.8</ele>
        <time>2022-07-29T10:43:44Z</time>
      </trkpt>
      <trkpt lat="46.39518" lon="5.60802">
        <ele>702.2</ele>
        <time>2022-07-29T10:43:45Z</time>
      </trkpt>
      <trkpt lat="46.39515" lon="5.608">
        <ele>702.4</ele>
        <time>2022-07-29T10:43:46Z</time>
      </trkpt>
      <trkpt lat="46.39512" lon="5.60798">
        <ele>702.4</ele>
        <time>2022-07-29T10:43:47Z</time>
      </trkpt>
      <trkpt lat="46.39509" lon="5.60795">
        <ele>702.6</ele>
        <time>2022-07-29T10:43:48Z</time>
      </trkpt>
      <trkpt lat="46.39507" lon="5.60793">
        <ele>702.6</ele>
        <time>2022-07-29T10:43:49Z</time>
      </trkpt>
      <trkpt lat="46.39504" lon="5.6079">
        <ele>702.6</ele>
        <time>2022-07-29T10:43:50Z</time>
      </trkpt>
      <trkpt lat="46.39501" lon="5.60789">
        <ele>702.8</ele>
        <time>2022-07-29T10:43:51Z</time>
      </trkpt>
      <trkpt lat="46.39497" lon="5.60787">
        <ele>702.8</ele>
        <time>2022-07-29T10:43:52Z</time>
      </trkpt>
      <trkpt lat="46.39494" lon="5.60785">
        <ele>702.8</ele>
        <time>2022-07-29T10:43:53Z</time>
      </trkpt>
      <trkpt lat="46.39491" lon="5.60783">
        <ele>703.2</ele>
        <time>2022-07-29T10:43:54Z</time>
      </trkpt>
      <trkpt lat="46.39488" lon="5.60782">
        <ele>703.2</ele>
        <time>2022-07-29T10:43:55Z</time>
      </trkpt>
      <trkpt lat="46.39484" lon="5.6078">
        <ele>703.4</ele>
        <time>2022-07-29T10:43:56Z</time>
      </trkpt>
      <trkpt lat="46.39481" lon="5.60778">
        <ele>703.4</ele>
        <time>2022-07-29T10:43:57Z</time>
      </trkpt>
      <trkpt lat="46.39478" lon="5.60777">
        <ele>703.4</ele>
        <time>2022-07-29T10:43:58Z</time>
      </trkpt>
      <trkpt lat="46.39474" lon="5.60776">
        <ele>703.6</ele>
        <time>2022-07-29T10:43:59Z</time>
      </trkpt>
      <trkpt lat="46.39471" lon="5.60774">
        <ele>703.6</ele>
        <time>2022-07-29T10:44:00Z</time>
      </trkpt>
      <trkpt lat="46.39467" lon="5.60773">
        <ele>703.6</ele>
        <time>2022-07-29T10:44:01Z</time>
      </trkpt>
      <trkpt lat="46.39463" lon="5.60772">
        <ele>703.6</ele>
        <time>2022-07-29T10:44:02Z</time>
      </trkpt>
      <trkpt lat="46.39459" lon="5.6077">
        <ele>704</ele>
        <time>2022-07-29T10:44:03Z</time>
      </trkpt>
      <trkpt lat="46.39456" lon="5.60769">
        <ele>704</ele>
        <time>2022-07-29T10:44:04Z</time>
      </trkpt>
      <trkpt lat="46.39452" lon="5.60768">
        <ele>704</ele>
        <time>2022-07-29T10:44:05Z</time>
      </trkpt>
      <trkpt lat="46.39448" lon="5.60768">
        <ele>704.2</ele>
        <time>2022-07-29T10:44:06Z</time>
      </trkpt>
      <trkpt lat="46.39444" lon="5.60768">
        <ele>704.2</ele>
        <time>2022-07-29T10:44:07Z</time>
      </trkpt>
      <trkpt lat="46.3944" lon="5.60768">
        <ele>704.2</ele>
        <time>2022-07-29T10:44:08Z</time>
      </trkpt>
      <trkpt lat="46.39436" lon="5.60769">
        <ele>704.4</ele>
        <time>2022-07-29T10:44:09Z</time>
      </trkpt>
      <trkpt lat="46.39433" lon="5.6077">
        <ele>704.4</ele>
        <time>2022-07-29T10:44:10Z</time>
      </trkpt>
      <trkpt lat="46.39429" lon="5.60773">
        <ele>704.4</ele>
        <time>2022-07-29T10:44:11Z</time>
      </trkpt>
      <trkpt lat="46.39426" lon="5.60777">
        <ele>704.8</ele>
        <time>2022-07-29T10:44:12Z</time>
      </trkpt>
      <trkpt lat="46.39424" lon="5.60782">
        <ele>704.8</ele>
        <time>2022-07-29T10:44:13Z</time>
      </trkpt>
      <trkpt lat="46.39424" lon="5.60787">
        <ele>705</ele>
        <time>2022-07-29T10:44:14Z</time>
      </trkpt>
      <trkpt lat="46.39424" lon="5.60793">
        <ele>705</ele>
        <time>2022-07-29T10:44:15Z</time>
      </trkpt>
      <trkpt lat="46.39425" lon="5.60798">
        <ele>705.4</ele>
        <time>2022-07-29T10:44:16Z</time>
      </trkpt>
      <trkpt lat="46.39427" lon="5.60803">
        <ele>705.6</ele>
        <time>2022-07-29T10:44:17Z</time>
      </trkpt>
      <trkpt lat="46.39429" lon="5.60807">
        <ele>705.6</ele>
        <time>2022-07-29T10:44:18Z</time>
      </trkpt>
      <trkpt lat="46.39432" lon="5.6081">
        <ele>706</ele>
        <time>2022-07-29T10:44:19Z</time>
      </trkpt>
      <trkpt lat="46.39435" lon="5.60813">
        <ele>706.2</ele>
        <time>2022-07-29T10:44:20Z</time>
      </trkpt>
      <trkpt lat="46.39438" lon="5.60815">
        <ele>706.2</ele>
        <time>2022-07-29T10:44:21Z</time>
      </trkpt>
      <trkpt lat="46.39441" lon="5.60816">
        <ele>706.6</ele>
        <time>2022-07-29T10:44:22Z</time>
      </trkpt>
      <trkpt lat="46.39444" lon="5.60818">
        <ele>706.6</ele>
        <time>2022-07-29T10:44:23Z</time>
      </trkpt>
      <trkpt lat="46.39447" lon="5.60819">
        <ele>706.8</ele>
        <time>2022-07-29T10:44:24Z</time>
      </trkpt>
      <trkpt lat="46.39451" lon="5.60821">
        <ele>706.8</ele>
        <time>2022-07-29T10:44:25Z</time>
      </trkpt>
      <trkpt lat="46.39454" lon="5.60822">
        <ele>707.2</ele>
        <time>2022-07-29T10:44:26Z</time>
      </trkpt>
      <trkpt lat="46.39457" lon="5.60823">
        <ele>707.4</ele>
        <time>2022-07-29T10:44:27Z</time>
      </trkpt>
      <trkpt lat="46.39461" lon="5.60824">
        <ele>707.4</ele>
        <time>2022-07-29T10:44:28Z</time>
      </trkpt>
      <trkpt lat="46.39464" lon="5.60825">
        <ele>707.8</ele>
        <time>2022-07-29T10:44:29Z</time>
      </trkpt>
      <trkpt lat="46.39467" lon="5.60826">
        <ele>707.8</ele>
        <time>2022-07-29T10:44:30Z</time>
      </trkpt>
      <trkpt lat="46.39471" lon="5.60827">
        <ele>708</ele>
        <time>2022-07-29T10:44:31Z</time>
      </trkpt>
      <trkpt lat="46.39474" lon="5.60829">
        <ele>708</ele>
        <time>2022-07-29T10:44:32Z</time>
      </trkpt>
      <trkpt lat="46.39478" lon="5.6083">
        <ele>708.4</ele>
        <time>2022-07-29T10:44:33Z</time>
      </trkpt>
      <trkpt lat="46.39482" lon="5.60832">
        <ele>708.4</ele>
        <time>2022-07-29T10:44:34Z</time>
      </trkpt>
      <trkpt lat="46.39485" lon="5.60833">
        <ele>708.6</ele>
        <time>2022-07-29T10:44:35Z</time>
      </trkpt>
      <trkpt lat="46.39488" lon="5.60834">
        <ele>708.6</ele>
        <time>2022-07-29T10:44:36Z</time>
      </trkpt>
      <trkpt lat="46.39491" lon="5.60835">
        <ele>709</ele>
        <time>2022-07-29T10:44:37Z</time>
      </trkpt>
      <trkpt lat="46.39495" lon="5.60837">
        <ele>709.2</ele>
        <time>2022-07-29T10:44:38Z</time>
      </trkpt>
      <trkpt lat="46.39498" lon="5.60839">
        <ele>709.2</ele>
        <time>2022-07-29T10:44:39Z</time>
      </trkpt>
      <trkpt lat="46.39501" lon="5.60841">
        <ele>709.6</ele>
        <time>2022-07-29T10:44:40Z</time>
      </trkpt>
      <trkpt lat="46.39504" lon="5.60844">
        <ele>709.6</ele>
        <time>2022-07-29T10:44:41Z</time>
      </trkpt>
      <trkpt lat="46.39507" lon="5.60847">
        <ele>710</ele>
        <time>2022-07-29T10:44:42Z</time>
      </trkpt>
      <trkpt lat="46.39509" lon="5.6085">
        <ele>710.2</ele>
        <time>2022-07-29T10:44:43Z</time>
      </trkpt>
      <trkpt lat="46.39511" lon="5.60854">
        <ele>710.4</ele>
        <time>2022-07-29T10:44:44Z</time>
      </trkpt>
      <trkpt lat="46.39513" lon="5.60857">
        <ele>710.4</ele>
        <time>2022-07-29T10:44:45Z</time>
      </trkpt>
      <trkpt lat="46.39515" lon="5.60861">
        <ele>711</ele>
        <time>2022-07-29T10:44:46Z</time>
      </trkpt>
      <trkpt lat="46.39517" lon="5.60865">
        <ele>711</ele>
        <time>2022-07-29T10:44:47Z</time>
      </trkpt>
      <trkpt lat="46.39518" lon="5.60868">
        <ele>711.2</ele>
        <time>2022-07-29T10:44:48Z</time>
      </trkpt>
      <trkpt lat="46.39519" lon="5.60872">
        <ele>711.2</ele>
        <time>2022-07-29T10:44:49Z</time>
      </trkpt>
      <trkpt lat="46.3952" lon="5.60876">
        <ele>711.6</ele>
        <time>2022-07-29T10:44:50Z</time>
      </trkpt>
      <trkpt lat="46.39521" lon="5.6088">
        <ele>711.6</ele>
        <time>2022-07-29T10:44:51Z</time>
      </trkpt>
      <trkpt lat="46.39522" lon="5.60884">
        <ele>712.2</ele>
        <time>2022-07-29T10:44:52Z</time>
      </trkpt>
      <trkpt lat="46.39523" lon="5.60888">
        <ele>712.4</ele>
        <time>2022-07-29T10:44:53Z</time>
      </trkpt>
      <trkpt lat="46.39524" lon="5.60892">
        <ele>712.8</ele>
        <time>2022-07-29T10:44:54Z</time>
      </trkpt>
      <trkpt lat="46.39525" lon="5.60896">
        <ele>713</ele>
        <time>2022-07-29T10:44:55Z</time>
      </trkpt>
      <trkpt lat="46.39526" lon="5.60899">
        <ele>713.2</ele>
        <time>2022-07-29T10:44:56Z</time>
      </trkpt>
      <trkpt lat="46.39527" lon="5.60902">
        <ele>713.6</ele>
        <time>2022-07-29T10:44:57Z</time>
      </trkpt>
      <trkpt lat="46.39527" lon="5.60906">
        <ele>714</ele>
        <time>2022-07-29T10:44:58Z</time>
      </trkpt>
      <trkpt lat="46.39527" lon="5.6091">
        <ele>714.2</ele>
        <time>2022-07-29T10:44:59Z</time>
      </trkpt>
      <trkpt lat="46.39527" lon="5.60913">
        <ele>714.4</ele>
        <time>2022-07-29T10:45:00Z</time>
      </trkpt>
      <trkpt lat="46.39525" lon="5.60916">
        <ele>714.8</ele>
        <time>2022-07-29T10:45:01Z</time>
      </trkpt>
      <trkpt lat="46.39523" lon="5.60919">
        <ele>715</ele>
        <time>2022-07-29T10:45:02Z</time>
      </trkpt>
      <trkpt lat="46.39521" lon="5.60921">
        <ele>715.2</ele>
        <time>2022-07-29T10:45:03Z</time>
      </trkpt>
      <trkpt lat="46.39518" lon="5.60923">
        <ele>715.4</ele>
        <time>2022-07-29T10:45:04Z</time>
      </trkpt>
      <trkpt lat="46.39515" lon="5.60924">
        <ele>715.6</ele>
        <time>2022-07-29T10:45:05Z</time>
      </trkpt>
      <trkpt lat="46.39513" lon="5.60924">
        <ele>716</ele>
        <time>2022-07-29T10:45:06Z</time>
      </trkpt>
      <trkpt lat="46.3951" lon="5.60924">
        <ele>716</ele>
        <time>2022-07-29T10:45:07Z</time>
      </trkpt>
      <trkpt lat="46.39508" lon="5.60923">
        <ele>716.2</ele>
        <time>2022-07-29T10:45:08Z</time>
      </trkpt>
      <trkpt lat="46.39506" lon="5.60923">
        <ele>716.2</ele>
        <time>2022-07-29T10:45:09Z</time>
      </trkpt>
      <trkpt lat="46.39503" lon="5.60922">
        <ele>716.6</ele>
        <time>2022-07-29T10:45:10Z</time>
      </trkpt>
      <trkpt lat="46.39501" lon="5.60923">
        <ele>716.6</ele>
        <time>2022-07-29T10:45:11Z</time>
      </trkpt>
      <trkpt lat="46.39499" lon="5.60922">
        <ele>716.8</ele>
        <time>2022-07-29T10:45:12Z</time>
      </trkpt>
      <trkpt lat="46.39496" lon="5.60922">
        <ele>716.8</ele>
        <time>2022-07-29T10:45:13Z</time>
      </trkpt>
      <trkpt lat="46.39493" lon="5.60921">
        <ele>717</ele>
        <time>2022-07-29T10:45:14Z</time>
      </trkpt>
      <trkpt lat="46.3949" lon="5.60921">
        <ele>717</ele>
        <time>2022-07-29T10:45:15Z</time>
      </trkpt>
      <trkpt lat="46.39487" lon="5.60921">
        <ele>717.4</ele>
        <time>2022-07-29T10:45:16Z</time>
      </trkpt>
      <trkpt lat="46.39484" lon="5.60921">
        <ele>717.4</ele>
        <time>2022-07-29T10:45:17Z</time>
      </trkpt>
      <trkpt lat="46.39481" lon="5.6092">
        <ele>717.4</ele>
        <time>2022-07-29T10:45:18Z</time>
      </trkpt>
      <trkpt lat="46.39478" lon="5.6092">
        <ele>717.4</ele>
        <time>2022-07-29T10:45:19Z</time>
      </trkpt>
      <trkpt lat="46.39475" lon="5.60919">
        <ele>717.4</ele>
        <time>2022-07-29T10:45:20Z</time>
      </trkpt>
      <trkpt lat="46.39471" lon="5.60919">
        <ele>717.6</ele>
        <time>2022-07-29T10:45:21Z</time>
      </trkpt>
      <trkpt lat="46.39468" lon="5.60918">
        <ele>717.6</ele>
        <time>2022-07-29T10:45:22Z</time>
      </trkpt>
      <trkpt lat="46.39465" lon="5.60918">
        <ele>717.8</ele>
        <time>2022-07-29T10:45:23Z</time>
      </trkpt>
      <trkpt lat="46.39462" lon="5.60917">
        <ele>717.8</ele>
        <time>2022-07-29T10:45:24Z</time>
      </trkpt>
      <trkpt lat="46.39458" lon="5.60916">
        <ele>717.8</ele>
        <time>2022-07-29T10:45:25Z</time>
      </trkpt>
      <trkpt lat="46.39455" lon="5.60916">
        <ele>718.2</ele>
        <time>2022-07-29T10:45:26Z</time>
      </trkpt>
      <trkpt lat="46.39451" lon="5.60915">
        <ele>718.2</ele>
        <time>2022-07-29T10:45:27Z</time>
      </trkpt>
      <trkpt lat="46.39448" lon="5.60915">
        <ele>718.4</ele>
        <time>2022-07-29T10:45:28Z</time>
      </trkpt>
      <trkpt lat="46.39444" lon="5.60914">
        <ele>718.4</ele>
        <time>2022-07-29T10:45:29Z</time>
      </trkpt>
      <trkpt lat="46.39441" lon="5.60914">
        <ele>718.6</ele>
        <time>2022-07-29T10:45:30Z</time>
      </trkpt>
      <trkpt lat="46.39438" lon="5.60915">
        <ele>718.6</ele>
        <time>2022-07-29T10:45:31Z</time>
      </trkpt>
      <trkpt lat="46.39435" lon="5.60917">
        <ele>718.8</ele>
        <time>2022-07-29T10:45:32Z</time>
      </trkpt>
      <trkpt lat="46.39433" lon="5.60918">
        <ele>718.8</ele>
        <time>2022-07-29T10:45:33Z</time>
      </trkpt>
      <trkpt lat="46.3943" lon="5.6092">
        <ele>719.2</ele>
        <time>2022-07-29T10:45:34Z</time>
      </trkpt>
      <trkpt lat="46.39427" lon="5.60922">
        <ele>719.2</ele>
        <time>2022-07-29T10:45:35Z</time>
      </trkpt>
      <trkpt lat="46.39425" lon="5.60925">
        <ele>719.6</ele>
        <time>2022-07-29T10:45:36Z</time>
      </trkpt>
      <trkpt lat="46.39423" lon="5.60927">
        <ele>719.6</ele>
        <time>2022-07-29T10:45:37Z</time>
      </trkpt>
      <trkpt lat="46.3942" lon="5.60929">
        <ele>719.8</ele>
        <time>2022-07-29T10:45:38Z</time>
      </trkpt>
      <trkpt lat="46.39418" lon="5.60932">
        <ele>720</ele>
        <time>2022-07-29T10:45:39Z</time>
      </trkpt>
      <trkpt lat="46.39416" lon="5.60935">
        <ele>720.2</ele>
        <time>2022-07-29T10:45:40Z</time>
      </trkpt>
      <trkpt lat="46.39414" lon="5.60938">
        <ele>720.6</ele>
        <time>2022-07-29T10:45:41Z</time>
      </trkpt>
      <trkpt lat="46.39413" lon="5.60941">
        <ele>720.8</ele>
        <time>2022-07-29T10:45:42Z</time>
      </trkpt>
      <trkpt lat="46.39412" lon="5.60944">
        <ele>721</ele>
        <time>2022-07-29T10:45:43Z</time>
      </trkpt>
      <trkpt lat="46.39411" lon="5.60946">
        <ele>721.2</ele>
        <time>2022-07-29T10:45:44Z</time>
      </trkpt>
      <trkpt lat="46.3941" lon="5.60949">
        <ele>721.2</ele>
        <time>2022-07-29T10:45:45Z</time>
      </trkpt>
      <trkpt lat="46.39408" lon="5.60951">
        <ele>721.6</ele>
        <time>2022-07-29T10:45:46Z</time>
      </trkpt>
      <trkpt lat="46.39407" lon="5.60954">
        <ele>721.6</ele>
        <time>2022-07-29T10:45:47Z</time>
      </trkpt>
      <trkpt lat="46.39405" lon="5.60957">
        <ele>721.6</ele>
        <time>2022-07-29T10:45:48Z</time>
      </trkpt>
      <trkpt lat="46.39402" lon="5.60959">
        <ele>721.8</ele>
        <time>2022-07-29T10:45:49Z</time>
      </trkpt>
      <trkpt lat="46.394" lon="5.60962">
        <ele>721.8</ele>
        <time>2022-07-29T10:45:50Z</time>
      </trkpt>
      <trkpt lat="46.39397" lon="5.60964">
        <ele>722</ele>
        <time>2022-07-29T10:45:51Z</time>
      </trkpt>
      <trkpt lat="46.39394" lon="5.60966">
        <ele>722</ele>
        <time>2022-07-29T10:45:52Z</time>
      </trkpt>
      <trkpt lat="46.39391" lon="5.60968">
        <ele>722.4</ele>
        <time>2022-07-29T10:45:53Z</time>
      </trkpt>
      <trkpt lat="46.39388" lon="5.60969">
        <ele>722.4</ele>
        <time>2022-07-29T10:45:54Z</time>
      </trkpt>
      <trkpt lat="46.39385" lon="5.60969">
        <ele>722.6</ele>
        <time>2022-07-29T10:45:55Z</time>
      </trkpt>
      <trkpt lat="46.39382" lon="5.6097">
        <ele>722.6</ele>
        <time>2022-07-29T10:45:56Z</time>
      </trkpt>
      <trkpt lat="46.39379" lon="5.6097">
        <ele>722.6</ele>
        <time>2022-07-29T10:45:57Z</time>
      </trkpt>
      <trkpt lat="46.39376" lon="5.6097">
        <ele>722.8</ele>
        <time>2022-07-29T10:45:58Z</time>
      </trkpt>
      <trkpt lat="46.39373" lon="5.6097">
        <ele>722.8</ele>
        <time>2022-07-29T10:45:59Z</time>
      </trkpt>
      <trkpt lat="46.39371" lon="5.6097">
        <ele>723</ele>
        <time>2022-07-29T10:46:00Z</time>
      </trkpt>
      <trkpt lat="46.39368" lon="5.60971">
        <ele>723</ele>
        <time>2022-07-29T10:46:01Z</time>
      </trkpt>
      <trkpt lat="46.39364" lon="5.60972">
        <ele>723.4</ele>
        <time>2022-07-29T10:46:02Z</time>
      </trkpt>
      <trkpt lat="46.39358" lon="5.60973">
        <ele>723.4</ele>
        <time>2022-07-29T10:46:03Z</time>
      </trkpt>
      <trkpt lat="46.39354" lon="5.60974">
        <ele>723.4</ele>
        <time>2022-07-29T10:46:04Z</time>
      </trkpt>
      <trkpt lat="46.39351" lon="5.60975">
        <ele>723.4</ele>
        <time>2022-07-29T10:46:05Z</time>
      </trkpt>
      <trkpt lat="46.39349" lon="5.60977">
        <ele>723.6</ele>
        <time>2022-07-29T10:46:06Z</time>
      </trkpt>
      <trkpt lat="46.39346" lon="5.60979">
        <ele>723.6</ele>
        <time>2022-07-29T10:46:07Z</time>
      </trkpt>
      <trkpt lat="46.39343" lon="5.60982">
        <ele>723.6</ele>
        <time>2022-07-29T10:46:08Z</time>
      </trkpt>
      <trkpt lat="46.3934" lon="5.60985">
        <ele>723.8</ele>
        <time>2022-07-29T10:46:09Z</time>
      </trkpt>
      <trkpt lat="46.39337" lon="5.60989">
        <ele>723.8</ele>
        <time>2022-07-29T10:46:10Z</time>
      </trkpt>
      <trkpt lat="46.39334" lon="5.60993">
        <ele>723.8</ele>
        <time>2022-07-29T10:46:11Z</time>
      </trkpt>
      <trkpt lat="46.39332" lon="5.60998">
        <ele>724</ele>
        <time>2022-07-29T10:46:12Z</time>
      </trkpt>
      <trkpt lat="46.3933" lon="5.61002">
        <ele>724</ele>
        <time>2022-07-29T10:46:13Z</time>
      </trkpt>
      <trkpt lat="46.39328" lon="5.61006">
        <ele>724.4</ele>
        <time>2022-07-29T10:46:14Z</time>
      </trkpt>
      <trkpt lat="46.39326" lon="5.6101">
        <ele>724.4</ele>
        <time>2022-07-29T10:46:15Z</time>
      </trkpt>
      <trkpt lat="46.39325" lon="5.61015">
        <ele>724.6</ele>
        <time>2022-07-29T10:46:16Z</time>
      </trkpt>
      <trkpt lat="46.39323" lon="5.6102">
        <ele>724.6</ele>
        <time>2022-07-29T10:46:17Z</time>
      </trkpt>
      <trkpt lat="46.39322" lon="5.61024">
        <ele>724.8</ele>
        <time>2022-07-29T10:46:18Z</time>
      </trkpt>
      <trkpt lat="46.39321" lon="5.61029">
        <ele>724.8</ele>
        <time>2022-07-29T10:46:19Z</time>
      </trkpt>
      <trkpt lat="46.39321" lon="5.61035">
        <ele>724.8</ele>
        <time>2022-07-29T10:46:20Z</time>
      </trkpt>
      <trkpt lat="46.3932" lon="5.6104">
        <ele>724.8</ele>
        <time>2022-07-29T10:46:21Z</time>
      </trkpt>
      <trkpt lat="46.3932" lon="5.61045">
        <ele>724.8</ele>
        <time>2022-07-29T10:46:22Z</time>
      </trkpt>
      <trkpt lat="46.3932" lon="5.61051">
        <ele>724.8</ele>
        <time>2022-07-29T10:46:23Z</time>
      </trkpt>
      <trkpt lat="46.3932" lon="5.61056">
        <ele>725</ele>
        <time>2022-07-29T10:46:24Z</time>
      </trkpt>
      <trkpt lat="46.39321" lon="5.61062">
        <ele>725</ele>
        <time>2022-07-29T10:46:25Z</time>
      </trkpt>
      <trkpt lat="46.39321" lon="5.61068">
        <ele>724.8</ele>
        <time>2022-07-29T10:46:26Z</time>
      </trkpt>
      <trkpt lat="46.39322" lon="5.61074">
        <ele>724.8</ele>
        <time>2022-07-29T10:46:27Z</time>
      </trkpt>
      <trkpt lat="46.39324" lon="5.6108">
        <ele>724.6</ele>
        <time>2022-07-29T10:46:28Z</time>
      </trkpt>
      <trkpt lat="46.39325" lon="5.61087">
        <ele>724.6</ele>
        <time>2022-07-29T10:46:29Z</time>
      </trkpt>
      <trkpt lat="46.39327" lon="5.61094">
        <ele>724.2</ele>
        <time>2022-07-29T10:46:30Z</time>
      </trkpt>
      <trkpt lat="46.3933" lon="5.611">
        <ele>724.2</ele>
        <time>2022-07-29T10:46:31Z</time>
      </trkpt>
      <trkpt lat="46.39333" lon="5.61106">
        <ele>723.8</ele>
        <time>2022-07-29T10:46:32Z</time>
      </trkpt>
      <trkpt lat="46.39336" lon="5.61112">
        <ele>723.8</ele>
        <time>2022-07-29T10:46:33Z</time>
      </trkpt>
      <trkpt lat="46.39339" lon="5.61118">
        <ele>723.4</ele>
        <time>2022-07-29T10:46:34Z</time>
      </trkpt>
      <trkpt lat="46.39343" lon="5.61125">
        <ele>723.4</ele>
        <time>2022-07-29T10:46:35Z</time>
      </trkpt>
      <trkpt lat="46.39347" lon="5.61132">
        <ele>723.2</ele>
        <time>2022-07-29T10:46:36Z</time>
      </trkpt>
      <trkpt lat="46.3935" lon="5.61138">
        <ele>723.2</ele>
        <time>2022-07-29T10:46:37Z</time>
      </trkpt>
      <trkpt lat="46.39354" lon="5.61146">
        <ele>722.8</ele>
        <time>2022-07-29T10:46:38Z</time>
      </trkpt>
      <trkpt lat="46.39358" lon="5.61154">
        <ele>722.8</ele>
        <time>2022-07-29T10:46:39Z</time>
      </trkpt>
      <trkpt lat="46.39361" lon="5.61162">
        <ele>722.4</ele>
        <time>2022-07-29T10:46:40Z</time>
      </trkpt>
      <trkpt lat="46.39365" lon="5.6117">
        <ele>722.2</ele>
        <time>2022-07-29T10:46:41Z</time>
      </trkpt>
      <trkpt lat="46.3937" lon="5.61179">
        <ele>721.8</ele>
        <time>2022-07-29T10:46:42Z</time>
      </trkpt>
      <trkpt lat="46.39374" lon="5.61188">
        <ele>721.6</ele>
        <time>2022-07-29T10:46:43Z</time>
      </trkpt>
      <trkpt lat="46.39379" lon="5.61198">
        <ele>721.4</ele>
        <time>2022-07-29T10:46:44Z</time>
      </trkpt>
      <trkpt lat="46.39383" lon="5.61207">
        <ele>721</ele>
        <time>2022-07-29T10:46:45Z</time>
      </trkpt>
      <trkpt lat="46.39388" lon="5.61217">
        <ele>720.8</ele>
        <time>2022-07-29T10:46:46Z</time>
      </trkpt>
      <trkpt lat="46.39393" lon="5.61226">
        <ele>720.4</ele>
        <time>2022-07-29T10:46:47Z</time>
      </trkpt>
      <trkpt lat="46.39398" lon="5.61236">
        <ele>720.4</ele>
        <time>2022-07-29T10:46:48Z</time>
      </trkpt>
      <trkpt lat="46.39403" lon="5.61246">
        <ele>720</ele>
        <time>2022-07-29T10:46:49Z</time>
      </trkpt>
      <trkpt lat="46.39408" lon="5.61256">
        <ele>719.6</ele>
        <time>2022-07-29T10:46:50Z</time>
      </trkpt>
      <trkpt lat="46.39413" lon="5.61266">
        <ele>719.2</ele>
        <time>2022-07-29T10:46:51Z</time>
      </trkpt>
      <trkpt lat="46.39419" lon="5.61275">
        <ele>719</ele>
        <time>2022-07-29T10:46:52Z</time>
      </trkpt>
      <trkpt lat="46.39425" lon="5.61285">
        <ele>718.6</ele>
        <time>2022-07-29T10:46:53Z</time>
      </trkpt>
      <trkpt lat="46.39431" lon="5.61294">
        <ele>718.2</ele>
        <time>2022-07-29T10:46:54Z</time>
      </trkpt>
      <trkpt lat="46.39437" lon="5.61303">
        <ele>717.8</ele>
        <time>2022-07-29T10:46:55Z</time>
      </trkpt>
      <trkpt lat="46.39443" lon="5.61312">
        <ele>717.6</ele>
        <time>2022-07-29T10:46:56Z</time>
      </trkpt>
      <trkpt lat="46.3945" lon="5.6132">
        <ele>717.2</ele>
        <time>2022-07-29T10:46:57Z</time>
      </trkpt>
      <trkpt lat="46.39457" lon="5.61328">
        <ele>716.8</ele>
        <time>2022-07-29T10:46:58Z</time>
      </trkpt>
      <trkpt lat="46.39464" lon="5.61338">
        <ele>716.4</ele>
        <time>2022-07-29T10:46:59Z</time>
      </trkpt>
      <trkpt lat="46.3947" lon="5.61349">
        <ele>716</ele>
        <time>2022-07-29T10:47:00Z</time>
      </trkpt>
      <trkpt lat="46.39476" lon="5.6136">
        <ele>715.4</ele>
        <time>2022-07-29T10:47:01Z</time>
      </trkpt>
      <trkpt lat="46.39481" lon="5.61371">
        <ele>715.2</ele>
        <time>2022-07-29T10:47:02Z</time>
      </trkpt>
      <trkpt lat="46.39486" lon="5.61381">
        <ele>714.8</ele>
        <time>2022-07-29T10:47:03Z</time>
      </trkpt>
      <trkpt lat="46.39492" lon="5.61391">
        <ele>714.4</ele>
        <time>2022-07-29T10:47:04Z</time>
      </trkpt>
      <trkpt lat="46.39498" lon="5.61401">
        <ele>714</ele>
        <time>2022-07-29T10:47:05Z</time>
      </trkpt>
      <trkpt lat="46.39505" lon="5.6141">
        <ele>713.6</ele>
        <time>2022-07-29T10:47:06Z</time>
      </trkpt>
      <trkpt lat="46.39512" lon="5.61419">
        <ele>713.2</ele>
        <time>2022-07-29T10:47:07Z</time>
      </trkpt>
      <trkpt lat="46.3952" lon="5.61427">
        <ele>713</ele>
        <time>2022-07-29T10:47:08Z</time>
      </trkpt>
      <trkpt lat="46.39527" lon="5.61436">
        <ele>712.6</ele>
        <time>2022-07-29T10:47:09Z</time>
      </trkpt>
      <trkpt lat="46.39535" lon="5.61444">
        <ele>712.4</ele>
        <time>2022-07-29T10:47:10Z</time>
      </trkpt>
      <trkpt lat="46.39543" lon="5.61452">
        <ele>712</ele>
        <time>2022-07-29T10:47:11Z</time>
      </trkpt>
      <trkpt lat="46.39551" lon="5.61461">
        <ele>711.6</ele>
        <time>2022-07-29T10:47:12Z</time>
      </trkpt>
      <trkpt lat="46.39559" lon="5.6147">
        <ele>711.2</ele>
        <time>2022-07-29T10:47:13Z</time>
      </trkpt>
      <trkpt lat="46.39566" lon="5.6148">
        <ele>710.8</ele>
        <time>2022-07-29T10:47:14Z</time>
      </trkpt>
      <trkpt lat="46.39574" lon="5.61489">
        <ele>710.4</ele>
        <time>2022-07-29T10:47:15Z</time>
      </trkpt>
      <trkpt lat="46.39581" lon="5.61499">
        <ele>710.2</ele>
        <time>2022-07-29T10:47:16Z</time>
      </trkpt>
      <trkpt lat="46.39589" lon="5.61509">
        <ele>710</ele>
        <time>2022-07-29T10:47:17Z</time>
      </trkpt>
      <trkpt lat="46.39596" lon="5.61518">
        <ele>709.8</ele>
        <time>2022-07-29T10:47:18Z</time>
      </trkpt>
      <trkpt lat="46.39603" lon="5.61528">
        <ele>709.4</ele>
        <time>2022-07-29T10:47:19Z</time>
      </trkpt>
      <trkpt lat="46.3961" lon="5.61538">
        <ele>709.2</ele>
        <time>2022-07-29T10:47:20Z</time>
      </trkpt>
      <trkpt lat="46.39617" lon="5.61549">
        <ele>709</ele>
        <time>2022-07-29T10:47:21Z</time>
      </trkpt>
      <trkpt lat="46.39624" lon="5.61559">
        <ele>709</ele>
        <time>2022-07-29T10:47:22Z</time>
      </trkpt>
      <trkpt lat="46.39631" lon="5.61569">
        <ele>708.8</ele>
        <time>2022-07-29T10:47:23Z</time>
      </trkpt>
      <trkpt lat="46.39637" lon="5.6158">
        <ele>708.8</ele>
        <time>2022-07-29T10:47:24Z</time>
      </trkpt>
      <trkpt lat="46.39643" lon="5.6159">
        <ele>708.8</ele>
        <time>2022-07-29T10:47:25Z</time>
      </trkpt>
      <trkpt lat="46.39649" lon="5.616">
        <ele>708.8</ele>
        <time>2022-07-29T10:47:26Z</time>
      </trkpt>
      <trkpt lat="46.39654" lon="5.6161">
        <ele>708.8</ele>
        <time>2022-07-29T10:47:27Z</time>
      </trkpt>
      <trkpt lat="46.39661" lon="5.61619">
        <ele>708.6</ele>
        <time>2022-07-29T10:47:28Z</time>
      </trkpt>
      <trkpt lat="46.39667" lon="5.61628">
        <ele>708.6</ele>
        <time>2022-07-29T10:47:29Z</time>
      </trkpt>
      <trkpt lat="46.39674" lon="5.61635">
        <ele>708.6</ele>
        <time>2022-07-29T10:47:30Z</time>
      </trkpt>
      <trkpt lat="46.39682" lon="5.61642">
        <ele>708.2</ele>
        <time>2022-07-29T10:47:31Z</time>
      </trkpt>
      <trkpt lat="46.3969" lon="5.61648">
        <ele>708</ele>
        <time>2022-07-29T10:47:32Z</time>
      </trkpt>
      <trkpt lat="46.39698" lon="5.61654">
        <ele>707.6</ele>
        <time>2022-07-29T10:47:33Z</time>
      </trkpt>
      <trkpt lat="46.39706" lon="5.6166">
        <ele>707.2</ele>
        <time>2022-07-29T10:47:34Z</time>
      </trkpt>
      <trkpt lat="46.39714" lon="5.6167">
        <ele>706.8</ele>
        <time>2022-07-29T10:47:35Z</time>
      </trkpt>
      <trkpt lat="46.39721" lon="5.61681">
        <ele>706.4</ele>
        <time>2022-07-29T10:47:36Z</time>
      </trkpt>
      <trkpt lat="46.39728" lon="5.61693">
        <ele>706</ele>
        <time>2022-07-29T10:47:37Z</time>
      </trkpt>
      <trkpt lat="46.39735" lon="5.61704">
        <ele>705.8</ele>
        <time>2022-07-29T10:47:38Z</time>
      </trkpt>
      <trkpt lat="46.39741" lon="5.61715">
        <ele>705.6</ele>
        <time>2022-07-29T10:47:39Z</time>
      </trkpt>
      <trkpt lat="46.39746" lon="5.61727">
        <ele>705.2</ele>
        <time>2022-07-29T10:47:40Z</time>
      </trkpt>
      <trkpt lat="46.39752" lon="5.61738">
        <ele>705</ele>
        <time>2022-07-29T10:47:41Z</time>
      </trkpt>
      <trkpt lat="46.39758" lon="5.61749">
        <ele>704.8</ele>
        <time>2022-07-29T10:47:42Z</time>
      </trkpt>
      <trkpt lat="46.39764" lon="5.6176">
        <ele>704.6</ele>
        <time>2022-07-29T10:47:43Z</time>
      </trkpt>
      <trkpt lat="46.3977" lon="5.6177">
        <ele>704.4</ele>
        <time>2022-07-29T10:47:44Z</time>
      </trkpt>
      <trkpt lat="46.39776" lon="5.61781">
        <ele>704.4</ele>
        <time>2022-07-29T10:47:45Z</time>
      </trkpt>
      <trkpt lat="46.39781" lon="5.61791">
        <ele>704.2</ele>
        <time>2022-07-29T10:47:46Z</time>
      </trkpt>
      <trkpt lat="46.39787" lon="5.61802">
        <ele>704.2</ele>
        <time>2022-07-29T10:47:47Z</time>
      </trkpt>
      <trkpt lat="46.39792" lon="5.61812">
        <ele>704.2</ele>
        <time>2022-07-29T10:47:48Z</time>
      </trkpt>
      <trkpt lat="46.39797" lon="5.61821">
        <ele>703.8</ele>
        <time>2022-07-29T10:47:49Z</time>
      </trkpt>
      <trkpt lat="46.39802" lon="5.61831">
        <ele>703.8</ele>
        <time>2022-07-29T10:47:50Z</time>
      </trkpt>
      <trkpt lat="46.39808" lon="5.6184">
        <ele>703.8</ele>
        <time>2022-07-29T10:47:51Z</time>
      </trkpt>
      <trkpt lat="46.39814" lon="5.61848">
        <ele>703.8</ele>
        <time>2022-07-29T10:47:52Z</time>
      </trkpt>
      <trkpt lat="46.3982" lon="5.61856">
        <ele>703.6</ele>
        <time>2022-07-29T10:47:53Z</time>
      </trkpt>
      <trkpt lat="46.39827" lon="5.61864">
        <ele>703.2</ele>
        <time>2022-07-29T10:47:54Z</time>
      </trkpt>
      <trkpt lat="46.39834" lon="5.61872">
        <ele>703</ele>
        <time>2022-07-29T10:47:55Z</time>
      </trkpt>
      <trkpt lat="46.39842" lon="5.61878">
        <ele>702.6</ele>
        <time>2022-07-29T10:47:56Z</time>
      </trkpt>
      <trkpt lat="46.3985" lon="5.61884">
        <ele>702.4</ele>
        <time>2022-07-29T10:47:57Z</time>
      </trkpt>
      <trkpt lat="46.39858" lon="5.6189">
        <ele>702</ele>
        <time>2022-07-29T10:47:58Z</time>
      </trkpt>
      <trkpt lat="46.39867" lon="5.61895">
        <ele>702</ele>
        <time>2022-07-29T10:47:59Z</time>
      </trkpt>
      <trkpt lat="46.39867" lon="5.61895">
        <ele>702</ele>
        <time>2022-07-29T10:48:00Z</time>
      </trkpt>
      <trkpt lat="46.39885" lon="5.61901">
        <ele>701.4</ele>
        <time>2022-07-29T10:48:01Z</time>
      </trkpt>
      <trkpt lat="46.39895" lon="5.61902">
        <ele>701</ele>
        <time>2022-07-29T10:48:02Z</time>
      </trkpt>
      <trkpt lat="46.39904" lon="5.61902">
        <ele>700.4</ele>
        <time>2022-07-29T10:48:03Z</time>
      </trkpt>
      <trkpt lat="46.39913" lon="5.61904">
        <ele>700</ele>
        <time>2022-07-29T10:48:04Z</time>
      </trkpt>
      <trkpt lat="46.39923" lon="5.61908">
        <ele>699.6</ele>
        <time>2022-07-29T10:48:05Z</time>
      </trkpt>
      <trkpt lat="46.39932" lon="5.61913">
        <ele>699.2</ele>
        <time>2022-07-29T10:48:06Z</time>
      </trkpt>
      <trkpt lat="46.39941" lon="5.61921">
        <ele>698.6</ele>
        <time>2022-07-29T10:48:07Z</time>
      </trkpt>
      <trkpt lat="46.3995" lon="5.61927">
        <ele>698</ele>
        <time>2022-07-29T10:48:08Z</time>
      </trkpt>
      <trkpt lat="46.3996" lon="5.61934">
        <ele>697.6</ele>
        <time>2022-07-29T10:48:09Z</time>
      </trkpt>
      <trkpt lat="46.3997" lon="5.61941">
        <ele>697</ele>
        <time>2022-07-29T10:48:10Z</time>
      </trkpt>
      <trkpt lat="46.3998" lon="5.61948">
        <ele>696.4</ele>
        <time>2022-07-29T10:48:11Z</time>
      </trkpt>
      <trkpt lat="46.3999" lon="5.61955">
        <ele>695.8</ele>
        <time>2022-07-29T10:48:12Z</time>
      </trkpt>
      <trkpt lat="46.39999" lon="5.61963">
        <ele>695.2</ele>
        <time>2022-07-29T10:48:13Z</time>
      </trkpt>
      <trkpt lat="46.40008" lon="5.61972">
        <ele>694.6</ele>
        <time>2022-07-29T10:48:14Z</time>
      </trkpt>
      <trkpt lat="46.40018" lon="5.6198">
        <ele>694</ele>
        <time>2022-07-29T10:48:15Z</time>
      </trkpt>
      <trkpt lat="46.40027" lon="5.61988">
        <ele>693.4</ele>
        <time>2022-07-29T10:48:16Z</time>
      </trkpt>
      <trkpt lat="46.40035" lon="5.61998">
        <ele>692.8</ele>
        <time>2022-07-29T10:48:17Z</time>
      </trkpt>
      <trkpt lat="46.40042" lon="5.6201">
        <ele>692.2</ele>
        <time>2022-07-29T10:48:18Z</time>
      </trkpt>
      <trkpt lat="46.40047" lon="5.62025">
        <ele>691.4</ele>
        <time>2022-07-29T10:48:19Z</time>
      </trkpt>
      <trkpt lat="46.40051" lon="5.62041">
        <ele>690.6</ele>
        <time>2022-07-29T10:48:20Z</time>
      </trkpt>
      <trkpt lat="46.40054" lon="5.62057">
        <ele>689.8</ele>
        <time>2022-07-29T10:48:21Z</time>
      </trkpt>
      <trkpt lat="46.40058" lon="5.62073">
        <ele>689</ele>
        <time>2022-07-29T10:48:22Z</time>
      </trkpt>
      <trkpt lat="46.40061" lon="5.6209">
        <ele>688.4</ele>
        <time>2022-07-29T10:48:23Z</time>
      </trkpt>
      <trkpt lat="46.40065" lon="5.62106">
        <ele>687.8</ele>
        <time>2022-07-29T10:48:24Z</time>
      </trkpt>
      <trkpt lat="46.40069" lon="5.62122">
        <ele>687.4</ele>
        <time>2022-07-29T10:48:25Z</time>
      </trkpt>
      <trkpt lat="46.40075" lon="5.62137">
        <ele>686.8</ele>
        <time>2022-07-29T10:48:26Z</time>
      </trkpt>
      <trkpt lat="46.40081" lon="5.62151">
        <ele>686.6</ele>
        <time>2022-07-29T10:48:27Z</time>
      </trkpt>
      <trkpt lat="46.40088" lon="5.62163">
        <ele>686.2</ele>
        <time>2022-07-29T10:48:28Z</time>
      </trkpt>
      <trkpt lat="46.40096" lon="5.62174">
        <ele>686</ele>
        <time>2022-07-29T10:48:29Z</time>
      </trkpt>
      <trkpt lat="46.40103" lon="5.62185">
        <ele>685.8</ele>
        <time>2022-07-29T10:48:30Z</time>
      </trkpt>
      <trkpt lat="46.40111" lon="5.62196">
        <ele>685.6</ele>
        <time>2022-07-29T10:48:31Z</time>
      </trkpt>
      <trkpt lat="46.40119" lon="5.62208">
        <ele>685.2</ele>
        <time>2022-07-29T10:48:32Z</time>
      </trkpt>
      <trkpt lat="46.40126" lon="5.62219">
        <ele>685.2</ele>
        <time>2022-07-29T10:48:33Z</time>
      </trkpt>
      <trkpt lat="46.40132" lon="5.62231">
        <ele>685</ele>
        <time>2022-07-29T10:48:34Z</time>
      </trkpt>
      <trkpt lat="46.40137" lon="5.62242">
        <ele>685</ele>
        <time>2022-07-29T10:48:35Z</time>
      </trkpt>
      <trkpt lat="46.40142" lon="5.62254">
        <ele>685</ele>
        <time>2022-07-29T10:48:36Z</time>
      </trkpt>
      <trkpt lat="46.40147" lon="5.62265">
        <ele>685</ele>
        <time>2022-07-29T10:48:37Z</time>
      </trkpt>
      <trkpt lat="46.40151" lon="5.62276">
        <ele>685</ele>
        <time>2022-07-29T10:48:38Z</time>
      </trkpt>
      <trkpt lat="46.40156" lon="5.62287">
        <ele>685.2</ele>
        <time>2022-07-29T10:48:39Z</time>
      </trkpt>
      <trkpt lat="46.40161" lon="5.62296">
        <ele>685.2</ele>
        <time>2022-07-29T10:48:40Z</time>
      </trkpt>
      <trkpt lat="46.40166" lon="5.62306">
        <ele>685.2</ele>
        <time>2022-07-29T10:48:41Z</time>
      </trkpt>
      <trkpt lat="46.40172" lon="5.62315">
        <ele>685.2</ele>
        <time>2022-07-29T10:48:42Z</time>
      </trkpt>
      <trkpt lat="46.40178" lon="5.62323">
        <ele>685.2</ele>
        <time>2022-07-29T10:48:43Z</time>
      </trkpt>
      <trkpt lat="46.40184" lon="5.62331">
        <ele>685.2</ele>
        <time>2022-07-29T10:48:44Z</time>
      </trkpt>
      <trkpt lat="46.40191" lon="5.62339">
        <ele>685.2</ele>
        <time>2022-07-29T10:48:45Z</time>
      </trkpt>
      <trkpt lat="46.40197" lon="5.62347">
        <ele>685.2</ele>
        <time>2022-07-29T10:48:46Z</time>
      </trkpt>
      <trkpt lat="46.40204" lon="5.62353">
        <ele>685.6</ele>
        <time>2022-07-29T10:48:47Z</time>
      </trkpt>
      <trkpt lat="46.4021" lon="5.62359">
        <ele>685.8</ele>
        <time>2022-07-29T10:48:48Z</time>
      </trkpt>
      <trkpt lat="46.40216" lon="5.62364">
        <ele>686.2</ele>
        <time>2022-07-29T10:48:49Z</time>
      </trkpt>
      <trkpt lat="46.40222" lon="5.6237">
        <ele>686.4</ele>
        <time>2022-07-29T10:48:50Z</time>
      </trkpt>
      <trkpt lat="46.40227" lon="5.62376">
        <ele>686.6</ele>
        <time>2022-07-29T10:48:51Z</time>
      </trkpt>
      <trkpt lat="46.40231" lon="5.62382">
        <ele>686.8</ele>
        <time>2022-07-29T10:48:52Z</time>
      </trkpt>
      <trkpt lat="46.40236" lon="5.62388">
        <ele>687.2</ele>
        <time>2022-07-29T10:48:53Z</time>
      </trkpt>
      <trkpt lat="46.40241" lon="5.62393">
        <ele>687.4</ele>
        <time>2022-07-29T10:48:54Z</time>
      </trkpt>
      <trkpt lat="46.40245" lon="5.62399">
        <ele>687.6</ele>
        <time>2022-07-29T10:48:55Z</time>
      </trkpt>
      <trkpt lat="46.40249" lon="5.62405">
        <ele>687.8</ele>
        <time>2022-07-29T10:48:56Z</time>
      </trkpt>
      <trkpt lat="46.40254" lon="5.6241">
        <ele>687.8</ele>
        <time>2022-07-29T10:48:57Z</time>
      </trkpt>
      <trkpt lat="46.40258" lon="5.62415">
        <ele>688.2</ele>
        <time>2022-07-29T10:48:58Z</time>
      </trkpt>
      <trkpt lat="46.40262" lon="5.62419">
        <ele>688.4</ele>
        <time>2022-07-29T10:48:59Z</time>
      </trkpt>
      <trkpt lat="46.40266" lon="5.62424">
        <ele>688.6</ele>
        <time>2022-07-29T10:49:00Z</time>
      </trkpt>
      <trkpt lat="46.4027" lon="5.62428">
        <ele>689</ele>
        <time>2022-07-29T10:49:01Z</time>
      </trkpt>
      <trkpt lat="46.40275" lon="5.62431">
        <ele>689.2</ele>
        <time>2022-07-29T10:49:02Z</time>
      </trkpt>
      <trkpt lat="46.40279" lon="5.62435">
        <ele>689.6</ele>
        <time>2022-07-29T10:49:03Z</time>
      </trkpt>
      <trkpt lat="46.40284" lon="5.62438">
        <ele>690</ele>
        <time>2022-07-29T10:49:04Z</time>
      </trkpt>
      <trkpt lat="46.40289" lon="5.62442">
        <ele>690.2</ele>
        <time>2022-07-29T10:49:05Z</time>
      </trkpt>
      <trkpt lat="46.40293" lon="5.62446">
        <ele>690.6</ele>
        <time>2022-07-29T10:49:06Z</time>
      </trkpt>
      <trkpt lat="46.40298" lon="5.62449">
        <ele>690.8</ele>
        <time>2022-07-29T10:49:07Z</time>
      </trkpt>
      <trkpt lat="46.40303" lon="5.62452">
        <ele>691.2</ele>
        <time>2022-07-29T10:49:08Z</time>
      </trkpt>
      <trkpt lat="46.40307" lon="5.62455">
        <ele>691.6</ele>
        <time>2022-07-29T10:49:09Z</time>
      </trkpt>
      <trkpt lat="46.40311" lon="5.62458">
        <ele>692</ele>
        <time>2022-07-29T10:49:10Z</time>
      </trkpt>
      <trkpt lat="46.40315" lon="5.62462">
        <ele>692.2</ele>
        <time>2022-07-29T10:49:11Z</time>
      </trkpt>
      <trkpt lat="46.40319" lon="5.62465">
        <ele>692.6</ele>
        <time>2022-07-29T10:49:12Z</time>
      </trkpt>
      <trkpt lat="46.40324" lon="5.62467">
        <ele>693</ele>
        <time>2022-07-29T10:49:13Z</time>
      </trkpt>
      <trkpt lat="46.40328" lon="5.6247">
        <ele>693.4</ele>
        <time>2022-07-29T10:49:14Z</time>
      </trkpt>
      <trkpt lat="46.40332" lon="5.62472">
        <ele>693.6</ele>
        <time>2022-07-29T10:49:15Z</time>
      </trkpt>
      <trkpt lat="46.40336" lon="5.62475">
        <ele>694</ele>
        <time>2022-07-29T10:49:16Z</time>
      </trkpt>
      <trkpt lat="46.40339" lon="5.62478">
        <ele>694.4</ele>
        <time>2022-07-29T10:49:17Z</time>
      </trkpt>
      <trkpt lat="46.40343" lon="5.6248">
        <ele>694.8</ele>
        <time>2022-07-29T10:49:18Z</time>
      </trkpt>
      <trkpt lat="46.40346" lon="5.62483">
        <ele>695</ele>
        <time>2022-07-29T10:49:19Z</time>
      </trkpt>
      <trkpt lat="46.4035" lon="5.62485">
        <ele>695.4</ele>
        <time>2022-07-29T10:49:20Z</time>
      </trkpt>
      <trkpt lat="46.40353" lon="5.62488">
        <ele>695.8</ele>
        <time>2022-07-29T10:49:21Z</time>
      </trkpt>
      <trkpt lat="46.40357" lon="5.62491">
        <ele>696</ele>
        <time>2022-07-29T10:49:22Z</time>
      </trkpt>
      <trkpt lat="46.4036" lon="5.62493">
        <ele>696.2</ele>
        <time>2022-07-29T10:49:23Z</time>
      </trkpt>
      <trkpt lat="46.40364" lon="5.62496">
        <ele>696.6</ele>
        <time>2022-07-29T10:49:24Z</time>
      </trkpt>
      <trkpt lat="46.40367" lon="5.62499">
        <ele>696.6</ele>
        <time>2022-07-29T10:49:25Z</time>
      </trkpt>
      <trkpt lat="46.40371" lon="5.62502">
        <ele>696.8</ele>
        <time>2022-07-29T10:49:26Z</time>
      </trkpt>
      <trkpt lat="46.40374" lon="5.62505">
        <ele>696.8</ele>
        <time>2022-07-29T10:49:27Z</time>
      </trkpt>
      <trkpt lat="46.40378" lon="5.62507">
        <ele>697.2</ele>
        <time>2022-07-29T10:49:28Z</time>
      </trkpt>
      <trkpt lat="46.40381" lon="5.6251">
        <ele>697.2</ele>
        <time>2022-07-29T10:49:29Z</time>
      </trkpt>
      <trkpt lat="46.40385" lon="5.62512">
        <ele>697.6</ele>
        <time>2022-07-29T10:49:30Z</time>
      </trkpt>
      <trkpt lat="46.40388" lon="5.62515">
        <ele>697.6</ele>
        <time>2022-07-29T10:49:31Z</time>
      </trkpt>
      <trkpt lat="46.40392" lon="5.62517">
        <ele>697.8</ele>
        <time>2022-07-29T10:49:32Z</time>
      </trkpt>
      <trkpt lat="46.40395" lon="5.6252">
        <ele>697.8</ele>
        <time>2022-07-29T10:49:33Z</time>
      </trkpt>
      <trkpt lat="46.40398" lon="5.62523">
        <ele>697.8</ele>
        <time>2022-07-29T10:49:34Z</time>
      </trkpt>
      <trkpt lat="46.40402" lon="5.62526">
        <ele>698.2</ele>
        <time>2022-07-29T10:49:35Z</time>
      </trkpt>
      <trkpt lat="46.40406" lon="5.62529">
        <ele>698.2</ele>
        <time>2022-07-29T10:49:36Z</time>
      </trkpt>
      <trkpt lat="46.40409" lon="5.62532">
        <ele>698.2</ele>
        <time>2022-07-29T10:49:37Z</time>
      </trkpt>
      <trkpt lat="46.40413" lon="5.62535">
        <ele>698.2</ele>
        <time>2022-07-29T10:49:38Z</time>
      </trkpt>
      <trkpt lat="46.40417" lon="5.62539">
        <ele>698.4</ele>
        <time>2022-07-29T10:49:39Z</time>
      </trkpt>
      <trkpt lat="46.40421" lon="5.62543">
        <ele>698.4</ele>
        <time>2022-07-29T10:49:40Z</time>
      </trkpt>
      <trkpt lat="46.40425" lon="5.62547">
        <ele>698.4</ele>
        <time>2022-07-29T10:49:41Z</time>
      </trkpt>
      <trkpt lat="46.40429" lon="5.62552">
        <ele>698.4</ele>
        <time>2022-07-29T10:49:42Z</time>
      </trkpt>
      <trkpt lat="46.40433" lon="5.62558">
        <ele>698.2</ele>
        <time>2022-07-29T10:49:43Z</time>
      </trkpt>
      <trkpt lat="46.40437" lon="5.62565">
        <ele>698.2</ele>
        <time>2022-07-29T10:49:44Z</time>
      </trkpt>
      <trkpt lat="46.40441" lon="5.62572">
        <ele>697.8</ele>
        <time>2022-07-29T10:49:45Z</time>
      </trkpt>
      <trkpt lat="46.40444" lon="5.6258">
        <ele>697.8</ele>
        <time>2022-07-29T10:49:46Z</time>
      </trkpt>
      <trkpt lat="46.40446" lon="5.62589">
        <ele>697.6</ele>
        <time>2022-07-29T10:49:47Z</time>
      </trkpt>
      <trkpt lat="46.40448" lon="5.62598">
        <ele>697.4</ele>
        <time>2022-07-29T10:49:48Z</time>
      </trkpt>
      <trkpt lat="46.40449" lon="5.62609">
        <ele>697</ele>
        <time>2022-07-29T10:49:49Z</time>
      </trkpt>
      <trkpt lat="46.4045" lon="5.62619">
        <ele>696.8</ele>
        <time>2022-07-29T10:49:50Z</time>
      </trkpt>
      <trkpt lat="46.40452" lon="5.6263">
        <ele>696.4</ele>
        <time>2022-07-29T10:49:51Z</time>
      </trkpt>
      <trkpt lat="46.40454" lon="5.6264">
        <ele>696.2</ele>
        <time>2022-07-29T10:49:52Z</time>
      </trkpt>
      <trkpt lat="46.40458" lon="5.6265">
        <ele>695.8</ele>
        <time>2022-07-29T10:49:53Z</time>
      </trkpt>
      <trkpt lat="46.40463" lon="5.62659">
        <ele>695.6</ele>
        <time>2022-07-29T10:49:54Z</time>
      </trkpt>
      <trkpt lat="46.40468" lon="5.62668">
        <ele>695.2</ele>
        <time>2022-07-29T10:49:55Z</time>
      </trkpt>
      <trkpt lat="46.40474" lon="5.62676">
        <ele>695</ele>
        <time>2022-07-29T10:49:56Z</time>
      </trkpt>
      <trkpt lat="46.40479" lon="5.62684">
        <ele>695</ele>
        <time>2022-07-29T10:49:57Z</time>
      </trkpt>
      <trkpt lat="46.40485" lon="5.62692">
        <ele>694.6</ele>
        <time>2022-07-29T10:49:58Z</time>
      </trkpt>
      <trkpt lat="46.40491" lon="5.62699">
        <ele>694.6</ele>
        <time>2022-07-29T10:49:59Z</time>
      </trkpt>
      <trkpt lat="46.40497" lon="5.62706">
        <ele>694.6</ele>
        <time>2022-07-29T10:50:00Z</time>
      </trkpt>
      <trkpt lat="46.40503" lon="5.62712">
        <ele>694.6</ele>
        <time>2022-07-29T10:50:01Z</time>
      </trkpt>
      <trkpt lat="46.4051" lon="5.62717">
        <ele>694.6</ele>
        <time>2022-07-29T10:50:02Z</time>
      </trkpt>
      <trkpt lat="46.40516" lon="5.62722">
        <ele>694.6</ele>
        <time>2022-07-29T10:50:03Z</time>
      </trkpt>
      <trkpt lat="46.40521" lon="5.62726">
        <ele>695</ele>
        <time>2022-07-29T10:50:04Z</time>
      </trkpt>
      <trkpt lat="46.40527" lon="5.62729">
        <ele>695.2</ele>
        <time>2022-07-29T10:50:05Z</time>
      </trkpt>
      <trkpt lat="46.40532" lon="5.62732">
        <ele>695.2</ele>
        <time>2022-07-29T10:50:06Z</time>
      </trkpt>
      <trkpt lat="46.40537" lon="5.62735">
        <ele>695.6</ele>
        <time>2022-07-29T10:50:07Z</time>
      </trkpt>
      <trkpt lat="46.40543" lon="5.62737">
        <ele>695.8</ele>
        <time>2022-07-29T10:50:08Z</time>
      </trkpt>
      <trkpt lat="46.40548" lon="5.62739">
        <ele>696</ele>
        <time>2022-07-29T10:50:09Z</time>
      </trkpt>
      <trkpt lat="46.40553" lon="5.62741">
        <ele>696.4</ele>
        <time>2022-07-29T10:50:10Z</time>
      </trkpt>
      <trkpt lat="46.40558" lon="5.62743">
        <ele>696.6</ele>
        <time>2022-07-29T10:50:11Z</time>
      </trkpt>
      <trkpt lat="46.40563" lon="5.62745">
        <ele>697</ele>
        <time>2022-07-29T10:50:12Z</time>
      </trkpt>
      <trkpt lat="46.40567" lon="5.62746">
        <ele>697.2</ele>
        <time>2022-07-29T10:50:13Z</time>
      </trkpt>
      <trkpt lat="46.40572" lon="5.62747">
        <ele>697.6</ele>
        <time>2022-07-29T10:50:14Z</time>
      </trkpt>
      <trkpt lat="46.40576" lon="5.62749">
        <ele>697.8</ele>
        <time>2022-07-29T10:50:15Z</time>
      </trkpt>
      <trkpt lat="46.40581" lon="5.6275">
        <ele>698</ele>
        <time>2022-07-29T10:50:16Z</time>
      </trkpt>
      <trkpt lat="46.40585" lon="5.62752">
        <ele>698</ele>
        <time>2022-07-29T10:50:17Z</time>
      </trkpt>
      <trkpt lat="46.4059" lon="5.62754">
        <ele>698.4</ele>
        <time>2022-07-29T10:50:18Z</time>
      </trkpt>
      <trkpt lat="46.40594" lon="5.62756">
        <ele>698.4</ele>
        <time>2022-07-29T10:50:19Z</time>
      </trkpt>
      <trkpt lat="46.40599" lon="5.62758">
        <ele>698.4</ele>
        <time>2022-07-29T10:50:20Z</time>
      </trkpt>
      <trkpt lat="46.40604" lon="5.62761">
        <ele>698.4</ele>
        <time>2022-07-29T10:50:21Z</time>
      </trkpt>
      <trkpt lat="46.40608" lon="5.62763">
        <ele>698.4</ele>
        <time>2022-07-29T10:50:22Z</time>
      </trkpt>
      <trkpt lat="46.40613" lon="5.62766">
        <ele>698.4</ele>
        <time>2022-07-29T10:50:23Z</time>
      </trkpt>
      <trkpt lat="46.40618" lon="5.62769">
        <ele>698.4</ele>
        <time>2022-07-29T10:50:24Z</time>
      </trkpt>
      <trkpt lat="46.40623" lon="5.62772">
        <ele>698.4</ele>
        <time>2022-07-29T10:50:25Z</time>
      </trkpt>
      <trkpt lat="46.40628" lon="5.62776">
        <ele>698.4</ele>
        <time>2022-07-29T10:50:26Z</time>
      </trkpt>
      <trkpt lat="46.40633" lon="5.6278">
        <ele>698.4</ele>
        <time>2022-07-29T10:50:27Z</time>
      </trkpt>
      <trkpt lat="46.40638" lon="5.62784">
        <ele>698.4</ele>
        <time>2022-07-29T10:50:28Z</time>
      </trkpt>
      <trkpt lat="46.40643" lon="5.62788">
        <ele>698.4</ele>
        <time>2022-07-29T10:50:29Z</time>
      </trkpt>
      <trkpt lat="46.40648" lon="5.62792">
        <ele>698.4</ele>
        <time>2022-07-29T10:50:30Z</time>
      </trkpt>
      <trkpt lat="46.40653" lon="5.62797">
        <ele>698.4</ele>
        <time>2022-07-29T10:50:31Z</time>
      </trkpt>
      <trkpt lat="46.40657" lon="5.62802">
        <ele>698.4</ele>
        <time>2022-07-29T10:50:32Z</time>
      </trkpt>
      <trkpt lat="46.40662" lon="5.62807">
        <ele>698.6</ele>
        <time>2022-07-29T10:50:33Z</time>
      </trkpt>
      <trkpt lat="46.40665" lon="5.62813">
        <ele>698.6</ele>
        <time>2022-07-29T10:50:34Z</time>
      </trkpt>
      <trkpt lat="46.40669" lon="5.62819">
        <ele>698.6</ele>
        <time>2022-07-29T10:50:35Z</time>
      </trkpt>
      <trkpt lat="46.40673" lon="5.62825">
        <ele>698.6</ele>
        <time>2022-07-29T10:50:36Z</time>
      </trkpt>
      <trkpt lat="46.40676" lon="5.62832">
        <ele>698.4</ele>
        <time>2022-07-29T10:50:37Z</time>
      </trkpt>
      <trkpt lat="46.40679" lon="5.6284">
        <ele>698.4</ele>
        <time>2022-07-29T10:50:38Z</time>
      </trkpt>
      <trkpt lat="46.40683" lon="5.62848">
        <ele>698.2</ele>
        <time>2022-07-29T10:50:39Z</time>
      </trkpt>
      <trkpt lat="46.40686" lon="5.62856">
        <ele>697.8</ele>
        <time>2022-07-29T10:50:40Z</time>
      </trkpt>
      <trkpt lat="46.4069" lon="5.62865">
        <ele>697.6</ele>
        <time>2022-07-29T10:50:41Z</time>
      </trkpt>
      <trkpt lat="46.40694" lon="5.62873">
        <ele>697.4</ele>
        <time>2022-07-29T10:50:42Z</time>
      </trkpt>
      <trkpt lat="46.40699" lon="5.62881">
        <ele>697</ele>
        <time>2022-07-29T10:50:43Z</time>
      </trkpt>
      <trkpt lat="46.40706" lon="5.62889">
        <ele>696.6</ele>
        <time>2022-07-29T10:50:44Z</time>
      </trkpt>
      <trkpt lat="46.40713" lon="5.62896">
        <ele>696</ele>
        <time>2022-07-29T10:50:45Z</time>
      </trkpt>
      <trkpt lat="46.40721" lon="5.62902">
        <ele>695.6</ele>
        <time>2022-07-29T10:50:46Z</time>
      </trkpt>
      <trkpt lat="46.40729" lon="5.62907">
        <ele>695</ele>
        <time>2022-07-29T10:50:47Z</time>
      </trkpt>
      <trkpt lat="46.40738" lon="5.62911">
        <ele>694.6</ele>
        <time>2022-07-29T10:50:48Z</time>
      </trkpt>
      <trkpt lat="46.40748" lon="5.62913">
        <ele>694</ele>
        <time>2022-07-29T10:50:49Z</time>
      </trkpt>
      <trkpt lat="46.40758" lon="5.62916">
        <ele>693.6</ele>
        <time>2022-07-29T10:50:50Z</time>
      </trkpt>
      <trkpt lat="46.40768" lon="5.62918">
        <ele>692.8</ele>
        <time>2022-07-29T10:50:51Z</time>
      </trkpt>
      <trkpt lat="46.40779" lon="5.6292">
        <ele>692.2</ele>
        <time>2022-07-29T10:50:52Z</time>
      </trkpt>
      <trkpt lat="46.4079" lon="5.62922">
        <ele>691.6</ele>
        <time>2022-07-29T10:50:53Z</time>
      </trkpt>
      <trkpt lat="46.408" lon="5.62924">
        <ele>690.8</ele>
        <time>2022-07-29T10:50:54Z</time>
      </trkpt>
      <trkpt lat="46.4081" lon="5.62925">
        <ele>690.4</ele>
        <time>2022-07-29T10:50:55Z</time>
      </trkpt>
      <trkpt lat="46.40822" lon="5.62926">
        <ele>689.6</ele>
        <time>2022-07-29T10:50:56Z</time>
      </trkpt>
      <trkpt lat="46.40833" lon="5.62926">
        <ele>689.2</ele>
        <time>2022-07-29T10:50:57Z</time>
      </trkpt>
      <trkpt lat="46.40843" lon="5.62928">
        <ele>688.8</ele>
        <time>2022-07-29T10:50:58Z</time>
      </trkpt>
      <trkpt lat="46.40853" lon="5.62932">
        <ele>688.4</ele>
        <time>2022-07-29T10:50:59Z</time>
      </trkpt>
      <trkpt lat="46.40863" lon="5.62937">
        <ele>687.8</ele>
        <time>2022-07-29T10:51:00Z</time>
      </trkpt>
      <trkpt lat="46.40874" lon="5.62943">
        <ele>687.4</ele>
        <time>2022-07-29T10:51:01Z</time>
      </trkpt>
      <trkpt lat="46.40883" lon="5.62952">
        <ele>687</ele>
        <time>2022-07-29T10:51:02Z</time>
      </trkpt>
      <trkpt lat="46.40892" lon="5.6296">
        <ele>686.6</ele>
        <time>2022-07-29T10:51:03Z</time>
      </trkpt>
      <trkpt lat="46.40901" lon="5.62967">
        <ele>686.2</ele>
        <time>2022-07-29T10:51:04Z</time>
      </trkpt>
      <trkpt lat="46.40912" lon="5.62975">
        <ele>685.6</ele>
        <time>2022-07-29T10:51:05Z</time>
      </trkpt>
      <trkpt lat="46.40922" lon="5.62981">
        <ele>685</ele>
        <time>2022-07-29T10:51:06Z</time>
      </trkpt>
      <trkpt lat="46.40932" lon="5.62988">
        <ele>684.4</ele>
        <time>2022-07-29T10:51:07Z</time>
      </trkpt>
      <trkpt lat="46.40943" lon="5.62994">
        <ele>683.8</ele>
        <time>2022-07-29T10:51:08Z</time>
      </trkpt>
      <trkpt lat="46.40954" lon="5.63">
        <ele>683.2</ele>
        <time>2022-07-29T10:51:09Z</time>
      </trkpt>
      <trkpt lat="46.40964" lon="5.63006">
        <ele>682.6</ele>
        <time>2022-07-29T10:51:10Z</time>
      </trkpt>
      <trkpt lat="46.40975" lon="5.63014">
        <ele>682.2</ele>
        <time>2022-07-29T10:51:11Z</time>
      </trkpt>
      <trkpt lat="46.40984" lon="5.63023">
        <ele>681.8</ele>
        <time>2022-07-29T10:51:12Z</time>
      </trkpt>
      <trkpt lat="46.40994" lon="5.63032">
        <ele>681.4</ele>
        <time>2022-07-29T10:51:13Z</time>
      </trkpt>
      <trkpt lat="46.41003" lon="5.63041">
        <ele>681</ele>
        <time>2022-07-29T10:51:14Z</time>
      </trkpt>
      <trkpt lat="46.41012" lon="5.6305">
        <ele>680.6</ele>
        <time>2022-07-29T10:51:15Z</time>
      </trkpt>
      <trkpt lat="46.4102" lon="5.6306">
        <ele>680.2</ele>
        <time>2022-07-29T10:51:16Z</time>
      </trkpt>
      <trkpt lat="46.41028" lon="5.63071">
        <ele>679.8</ele>
        <time>2022-07-29T10:51:17Z</time>
      </trkpt>
      <trkpt lat="46.41034" lon="5.63085">
        <ele>679.4</ele>
        <time>2022-07-29T10:51:18Z</time>
      </trkpt>
      <trkpt lat="46.4104" lon="5.63099">
        <ele>679</ele>
        <time>2022-07-29T10:51:19Z</time>
      </trkpt>
      <trkpt lat="46.41046" lon="5.63111">
        <ele>678.6</ele>
        <time>2022-07-29T10:51:20Z</time>
      </trkpt>
      <trkpt lat="46.41054" lon="5.63123">
        <ele>678.4</ele>
        <time>2022-07-29T10:51:21Z</time>
      </trkpt>
      <trkpt lat="46.41062" lon="5.63132">
        <ele>678</ele>
        <time>2022-07-29T10:51:22Z</time>
      </trkpt>
      <trkpt lat="46.41072" lon="5.63139">
        <ele>677.8</ele>
        <time>2022-07-29T10:51:23Z</time>
      </trkpt>
      <trkpt lat="46.41081" lon="5.63144">
        <ele>677.8</ele>
        <time>2022-07-29T10:51:24Z</time>
      </trkpt>
      <trkpt lat="46.41091" lon="5.63149">
        <ele>677.4</ele>
        <time>2022-07-29T10:51:25Z</time>
      </trkpt>
      <trkpt lat="46.41101" lon="5.63154">
        <ele>677.4</ele>
        <time>2022-07-29T10:51:26Z</time>
      </trkpt>
      <trkpt lat="46.4111" lon="5.6316">
        <ele>677</ele>
        <time>2022-07-29T10:51:27Z</time>
      </trkpt>
      <trkpt lat="46.41119" lon="5.63166">
        <ele>677</ele>
        <time>2022-07-29T10:51:28Z</time>
      </trkpt>
      <trkpt lat="46.41128" lon="5.63171">
        <ele>676.6</ele>
        <time>2022-07-29T10:51:29Z</time>
      </trkpt>
      <trkpt lat="46.41137" lon="5.63177">
        <ele>676.6</ele>
        <time>2022-07-29T10:51:30Z</time>
      </trkpt>
      <trkpt lat="46.41145" lon="5.63181">
        <ele>676.4</ele>
        <time>2022-07-29T10:51:31Z</time>
      </trkpt>
      <trkpt lat="46.41154" lon="5.63186">
        <ele>676.4</ele>
        <time>2022-07-29T10:51:32Z</time>
      </trkpt>
      <trkpt lat="46.41163" lon="5.6319">
        <ele>676.2</ele>
        <time>2022-07-29T10:51:33Z</time>
      </trkpt>
      <trkpt lat="46.41172" lon="5.63194">
        <ele>676.2</ele>
        <time>2022-07-29T10:51:34Z</time>
      </trkpt>
      <trkpt lat="46.4118" lon="5.63199">
        <ele>675.8</ele>
        <time>2022-07-29T10:51:35Z</time>
      </trkpt>
      <trkpt lat="46.41188" lon="5.63202">
        <ele>675.6</ele>
        <time>2022-07-29T10:51:36Z</time>
      </trkpt>
      <trkpt lat="46.41197" lon="5.63207">
        <ele>675.6</ele>
        <time>2022-07-29T10:51:37Z</time>
      </trkpt>
      <trkpt lat="46.41206" lon="5.63211">
        <ele>675.2</ele>
        <time>2022-07-29T10:51:38Z</time>
      </trkpt>
      <trkpt lat="46.41216" lon="5.63216">
        <ele>675</ele>
        <time>2022-07-29T10:51:39Z</time>
      </trkpt>
      <trkpt lat="46.41225" lon="5.63221">
        <ele>675</ele>
        <time>2022-07-29T10:51:40Z</time>
      </trkpt>
      <trkpt lat="46.41234" lon="5.63225">
        <ele>674.6</ele>
        <time>2022-07-29T10:51:41Z</time>
      </trkpt>
      <trkpt lat="46.41243" lon="5.63229">
        <ele>674.6</ele>
        <time>2022-07-29T10:51:42Z</time>
      </trkpt>
      <trkpt lat="46.41252" lon="5.63233">
        <ele>674.2</ele>
        <time>2022-07-29T10:51:43Z</time>
      </trkpt>
      <trkpt lat="46.4126" lon="5.63238">
        <ele>674.2</ele>
        <time>2022-07-29T10:51:44Z</time>
      </trkpt>
      <trkpt lat="46.41269" lon="5.63243">
        <ele>674</ele>
        <time>2022-07-29T10:51:45Z</time>
      </trkpt>
      <trkpt lat="46.41277" lon="5.63247">
        <ele>674</ele>
        <time>2022-07-29T10:51:46Z</time>
      </trkpt>
      <trkpt lat="46.41286" lon="5.63251">
        <ele>673.6</ele>
        <time>2022-07-29T10:51:47Z</time>
      </trkpt>
      <trkpt lat="46.41294" lon="5.63256">
        <ele>673.6</ele>
        <time>2022-07-29T10:51:48Z</time>
      </trkpt>
      <trkpt lat="46.41302" lon="5.6326">
        <ele>673.6</ele>
        <time>2022-07-29T10:51:49Z</time>
      </trkpt>
      <trkpt lat="46.4131" lon="5.63265">
        <ele>673.6</ele>
        <time>2022-07-29T10:51:50Z</time>
      </trkpt>
      <trkpt lat="46.41318" lon="5.63269">
        <ele>673.4</ele>
        <time>2022-07-29T10:51:51Z</time>
      </trkpt>
      <trkpt lat="46.41326" lon="5.63274">
        <ele>673.4</ele>
        <time>2022-07-29T10:51:52Z</time>
      </trkpt>
      <trkpt lat="46.41335" lon="5.63278">
        <ele>673.4</ele>
        <time>2022-07-29T10:51:53Z</time>
      </trkpt>
      <trkpt lat="46.41342" lon="5.63282">
        <ele>673.2</ele>
        <time>2022-07-29T10:51:54Z</time>
      </trkpt>
      <trkpt lat="46.4135" lon="5.63286">
        <ele>673.2</ele>
        <time>2022-07-29T10:51:55Z</time>
      </trkpt>
      <trkpt lat="46.41358" lon="5.6329">
        <ele>673.2</ele>
        <time>2022-07-29T10:51:56Z</time>
      </trkpt>
      <trkpt lat="46.41366" lon="5.63294">
        <ele>673</ele>
        <time>2022-07-29T10:51:57Z</time>
      </trkpt>
      <trkpt lat="46.41374" lon="5.63298">
        <ele>673</ele>
        <time>2022-07-29T10:51:58Z</time>
      </trkpt>
      <trkpt lat="46.41382" lon="5.63302">
        <ele>673</ele>
        <time>2022-07-29T10:51:59Z</time>
      </trkpt>
      <trkpt lat="46.41389" lon="5.63306">
        <ele>673</ele>
        <time>2022-07-29T10:52:00Z</time>
      </trkpt>
      <trkpt lat="46.41397" lon="5.6331">
        <ele>672.8</ele>
        <time>2022-07-29T10:52:01Z</time>
      </trkpt>
      <trkpt lat="46.41404" lon="5.63314">
        <ele>672.8</ele>
        <time>2022-07-29T10:52:02Z</time>
      </trkpt>
      <trkpt lat="46.41412" lon="5.63318">
        <ele>672.4</ele>
        <time>2022-07-29T10:52:03Z</time>
      </trkpt>
      <trkpt lat="46.4142" lon="5.63322">
        <ele>672.4</ele>
        <time>2022-07-29T10:52:04Z</time>
      </trkpt>
      <trkpt lat="46.41427" lon="5.63325">
        <ele>672.4</ele>
        <time>2022-07-29T10:52:05Z</time>
      </trkpt>
      <trkpt lat="46.41434" lon="5.63329">
        <ele>672.4</ele>
        <time>2022-07-29T10:52:06Z</time>
      </trkpt>
      <trkpt lat="46.41442" lon="5.63333">
        <ele>672.4</ele>
        <time>2022-07-29T10:52:07Z</time>
      </trkpt>
      <trkpt lat="46.41449" lon="5.63336">
        <ele>672.4</ele>
        <time>2022-07-29T10:52:08Z</time>
      </trkpt>
      <trkpt lat="46.41456" lon="5.6334">
        <ele>672.4</ele>
        <time>2022-07-29T10:52:09Z</time>
      </trkpt>
      <trkpt lat="46.41463" lon="5.63343">
        <ele>672.4</ele>
        <time>2022-07-29T10:52:10Z</time>
      </trkpt>
      <trkpt lat="46.41469" lon="5.63347">
        <ele>672.4</ele>
        <time>2022-07-29T10:52:11Z</time>
      </trkpt>
      <trkpt lat="46.41476" lon="5.6335">
        <ele>672.8</ele>
        <time>2022-07-29T10:52:12Z</time>
      </trkpt>
      <trkpt lat="46.41483" lon="5.63353">
        <ele>672.8</ele>
        <time>2022-07-29T10:52:13Z</time>
      </trkpt>
      <trkpt lat="46.41489" lon="5.63356">
        <ele>673</ele>
        <time>2022-07-29T10:52:14Z</time>
      </trkpt>
      <trkpt lat="46.41495" lon="5.63358">
        <ele>673</ele>
        <time>2022-07-29T10:52:15Z</time>
      </trkpt>
      <trkpt lat="46.41501" lon="5.6336">
        <ele>673.4</ele>
        <time>2022-07-29T10:52:16Z</time>
      </trkpt>
      <trkpt lat="46.41507" lon="5.63362">
        <ele>673.4</ele>
        <time>2022-07-29T10:52:17Z</time>
      </trkpt>
      <trkpt lat="46.41513" lon="5.63364">
        <ele>673.6</ele>
        <time>2022-07-29T10:52:18Z</time>
      </trkpt>
      <trkpt lat="46.41519" lon="5.63366">
        <ele>673.6</ele>
        <time>2022-07-29T10:52:19Z</time>
      </trkpt>
      <trkpt lat="46.41525" lon="5.63368">
        <ele>673.6</ele>
        <time>2022-07-29T10:52:20Z</time>
      </trkpt>
      <trkpt lat="46.41531" lon="5.6337">
        <ele>673.8</ele>
        <time>2022-07-29T10:52:21Z</time>
      </trkpt>
      <trkpt lat="46.41537" lon="5.63372">
        <ele>673.8</ele>
        <time>2022-07-29T10:52:22Z</time>
      </trkpt>
      <trkpt lat="46.41544" lon="5.63375">
        <ele>673.8</ele>
        <time>2022-07-29T10:52:23Z</time>
      </trkpt>
      <trkpt lat="46.4155" lon="5.63377">
        <ele>673.8</ele>
        <time>2022-07-29T10:52:24Z</time>
      </trkpt>
      <trkpt lat="46.41556" lon="5.63379">
        <ele>673.8</ele>
        <time>2022-07-29T10:52:25Z</time>
      </trkpt>
      <trkpt lat="46.41563" lon="5.63382">
        <ele>673.8</ele>
        <time>2022-07-29T10:52:26Z</time>
      </trkpt>
      <trkpt lat="46.41569" lon="5.63385">
        <ele>673.8</ele>
        <time>2022-07-29T10:52:27Z</time>
      </trkpt>
      <trkpt lat="46.41575" lon="5.63388">
        <ele>673.8</ele>
        <time>2022-07-29T10:52:28Z</time>
      </trkpt>
      <trkpt lat="46.41581" lon="5.63391">
        <ele>673.8</ele>
        <time>2022-07-29T10:52:29Z</time>
      </trkpt>
      <trkpt lat="46.41588" lon="5.63394">
        <ele>674.2</ele>
        <time>2022-07-29T10:52:30Z</time>
      </trkpt>
      <trkpt lat="46.41594" lon="5.63398">
        <ele>674.2</ele>
        <time>2022-07-29T10:52:31Z</time>
      </trkpt>
      <trkpt lat="46.41601" lon="5.63401">
        <ele>674.2</ele>
        <time>2022-07-29T10:52:32Z</time>
      </trkpt>
      <trkpt lat="46.41607" lon="5.63404">
        <ele>674.2</ele>
        <time>2022-07-29T10:52:33Z</time>
      </trkpt>
      <trkpt lat="46.41614" lon="5.63407">
        <ele>674.2</ele>
        <time>2022-07-29T10:52:34Z</time>
      </trkpt>
      <trkpt lat="46.4162" lon="5.6341">
        <ele>674.2</ele>
        <time>2022-07-29T10:52:35Z</time>
      </trkpt>
      <trkpt lat="46.41627" lon="5.63413">
        <ele>674.2</ele>
        <time>2022-07-29T10:52:36Z</time>
      </trkpt>
      <trkpt lat="46.41633" lon="5.63417">
        <ele>673.8</ele>
        <time>2022-07-29T10:52:37Z</time>
      </trkpt>
      <trkpt lat="46.4164" lon="5.6342">
        <ele>673.8</ele>
        <time>2022-07-29T10:52:38Z</time>
      </trkpt>
      <trkpt lat="46.41646" lon="5.63424">
        <ele>673.6</ele>
        <time>2022-07-29T10:52:39Z</time>
      </trkpt>
      <trkpt lat="46.41646" lon="5.63424">
        <ele>673.6</ele>
        <time>2022-07-29T10:52:40Z</time>
      </trkpt>
      <trkpt lat="46.41652" lon="5.6343">
        <ele>673.2</ele>
        <time>2022-07-29T10:52:41Z</time>
      </trkpt>
      <trkpt lat="46.41657" lon="5.63437">
        <ele>672.8</ele>
        <time>2022-07-29T10:52:42Z</time>
      </trkpt>
      <trkpt lat="46.4166" lon="5.63447">
        <ele>672.4</ele>
        <time>2022-07-29T10:52:43Z</time>
      </trkpt>
      <trkpt lat="46.41663" lon="5.63458">
        <ele>672</ele>
        <time>2022-07-29T10:52:44Z</time>
      </trkpt>
      <trkpt lat="46.41663" lon="5.6347">
        <ele>671.6</ele>
        <time>2022-07-29T10:52:45Z</time>
      </trkpt>
      <trkpt lat="46.41662" lon="5.63482">
        <ele>671.4</ele>
        <time>2022-07-29T10:52:46Z</time>
      </trkpt>
      <trkpt lat="46.4166" lon="5.63493">
        <ele>671</ele>
        <time>2022-07-29T10:52:47Z</time>
      </trkpt>
      <trkpt lat="46.41658" lon="5.63504">
        <ele>670.8</ele>
        <time>2022-07-29T10:52:48Z</time>
      </trkpt>
      <trkpt lat="46.41657" lon="5.63515">
        <ele>670.8</ele>
        <time>2022-07-29T10:52:49Z</time>
      </trkpt>
      <trkpt lat="46.41658" lon="5.63526">
        <ele>670.6</ele>
        <time>2022-07-29T10:52:50Z</time>
      </trkpt>
      <trkpt lat="46.41662" lon="5.63536">
        <ele>670.6</ele>
        <time>2022-07-29T10:52:51Z</time>
      </trkpt>
      <trkpt lat="46.41666" lon="5.63544">
        <ele>670.2</ele>
        <time>2022-07-29T10:52:52Z</time>
      </trkpt>
      <trkpt lat="46.41672" lon="5.63551">
        <ele>670.2</ele>
        <time>2022-07-29T10:52:53Z</time>
      </trkpt>
      <trkpt lat="46.41679" lon="5.63556">
        <ele>670</ele>
        <time>2022-07-29T10:52:54Z</time>
      </trkpt>
      <trkpt lat="46.41685" lon="5.63561">
        <ele>669.8</ele>
        <time>2022-07-29T10:52:55Z</time>
      </trkpt>
      <trkpt lat="46.41692" lon="5.63566">
        <ele>669.4</ele>
        <time>2022-07-29T10:52:56Z</time>
      </trkpt>
      <trkpt lat="46.417" lon="5.63572">
        <ele>669.2</ele>
        <time>2022-07-29T10:52:57Z</time>
      </trkpt>
      <trkpt lat="46.41707" lon="5.63578">
        <ele>668.8</ele>
        <time>2022-07-29T10:52:58Z</time>
      </trkpt>
      <trkpt lat="46.41715" lon="5.63583">
        <ele>668.4</ele>
        <time>2022-07-29T10:52:59Z</time>
      </trkpt>
      <trkpt lat="46.41722" lon="5.63589">
        <ele>668</ele>
        <time>2022-07-29T10:53:00Z</time>
      </trkpt>
      <trkpt lat="46.4173" lon="5.63595">
        <ele>668</ele>
        <time>2022-07-29T10:53:01Z</time>
      </trkpt>
      <trkpt lat="46.41738" lon="5.63601">
        <ele>667.6</ele>
        <time>2022-07-29T10:53:02Z</time>
      </trkpt>
      <trkpt lat="46.41746" lon="5.63607">
        <ele>667.4</ele>
        <time>2022-07-29T10:53:03Z</time>
      </trkpt>
      <trkpt lat="46.41754" lon="5.63614">
        <ele>667</ele>
        <time>2022-07-29T10:53:04Z</time>
      </trkpt>
      <trkpt lat="46.41762" lon="5.6362">
        <ele>666.6</ele>
        <time>2022-07-29T10:53:05Z</time>
      </trkpt>
      <trkpt lat="46.41771" lon="5.63626">
        <ele>666.2</ele>
        <time>2022-07-29T10:53:06Z</time>
      </trkpt>
      <trkpt lat="46.4178" lon="5.63633">
        <ele>666</ele>
        <time>2022-07-29T10:53:07Z</time>
      </trkpt>
      <trkpt lat="46.41788" lon="5.63641">
        <ele>665.6</ele>
        <time>2022-07-29T10:53:08Z</time>
      </trkpt>
      <trkpt lat="46.41797" lon="5.63647">
        <ele>665</ele>
        <time>2022-07-29T10:53:09Z</time>
      </trkpt>
      <trkpt lat="46.41806" lon="5.63653">
        <ele>664.4</ele>
        <time>2022-07-29T10:53:10Z</time>
      </trkpt>
      <trkpt lat="46.41815" lon="5.6366">
        <ele>664</ele>
        <time>2022-07-29T10:53:11Z</time>
      </trkpt>
      <trkpt lat="46.41824" lon="5.63667">
        <ele>663.2</ele>
        <time>2022-07-29T10:53:12Z</time>
      </trkpt>
      <trkpt lat="46.41834" lon="5.63674">
        <ele>662.6</ele>
        <time>2022-07-29T10:53:13Z</time>
      </trkpt>
      <trkpt lat="46.41843" lon="5.63682">
        <ele>662</ele>
        <time>2022-07-29T10:53:14Z</time>
      </trkpt>
      <trkpt lat="46.41853" lon="5.6369">
        <ele>661.2</ele>
        <time>2022-07-29T10:53:15Z</time>
      </trkpt>
      <trkpt lat="46.41863" lon="5.63698">
        <ele>660.6</ele>
        <time>2022-07-29T10:53:16Z</time>
      </trkpt>
      <trkpt lat="46.41873" lon="5.63705">
        <ele>660</ele>
        <time>2022-07-29T10:53:17Z</time>
      </trkpt>
      <trkpt lat="46.41883" lon="5.63713">
        <ele>659.2</ele>
        <time>2022-07-29T10:53:18Z</time>
      </trkpt>
      <trkpt lat="46.41893" lon="5.63721">
        <ele>658.6</ele>
        <time>2022-07-29T10:53:19Z</time>
      </trkpt>
      <trkpt lat="46.41903" lon="5.63728">
        <ele>657.8</ele>
        <time>2022-07-29T10:53:20Z</time>
      </trkpt>
      <trkpt lat="46.41914" lon="5.63737">
        <ele>657.2</ele>
        <time>2022-07-29T10:53:21Z</time>
      </trkpt>
      <trkpt lat="46.41924" lon="5.63746">
        <ele>656.4</ele>
        <time>2022-07-29T10:53:22Z</time>
      </trkpt>
      <trkpt lat="46.41934" lon="5.63754">
        <ele>655.8</ele>
        <time>2022-07-29T10:53:23Z</time>
      </trkpt>
      <trkpt lat="46.41945" lon="5.63761">
        <ele>655.2</ele>
        <time>2022-07-29T10:53:24Z</time>
      </trkpt>
      <trkpt lat="46.41955" lon="5.63769">
        <ele>654.6</ele>
        <time>2022-07-29T10:53:25Z</time>
      </trkpt>
      <trkpt lat="46.41966" lon="5.63777">
        <ele>654</ele>
        <time>2022-07-29T10:53:26Z</time>
      </trkpt>
      <trkpt lat="46.41976" lon="5.63784">
        <ele>653.4</ele>
        <time>2022-07-29T10:53:27Z</time>
      </trkpt>
      <trkpt lat="46.41987" lon="5.63793">
        <ele>652.8</ele>
        <time>2022-07-29T10:53:28Z</time>
      </trkpt>
      <trkpt lat="46.41998" lon="5.638">
        <ele>652</ele>
        <time>2022-07-29T10:53:29Z</time>
      </trkpt>
      <trkpt lat="46.42009" lon="5.63808">
        <ele>651.2</ele>
        <time>2022-07-29T10:53:30Z</time>
      </trkpt>
      <trkpt lat="46.4202" lon="5.63816">
        <ele>650.4</ele>
        <time>2022-07-29T10:53:31Z</time>
      </trkpt>
      <trkpt lat="46.42031" lon="5.63823">
        <ele>649.6</ele>
        <time>2022-07-29T10:53:32Z</time>
      </trkpt>
      <trkpt lat="46.42042" lon="5.63832">
        <ele>649</ele>
        <time>2022-07-29T10:53:33Z</time>
      </trkpt>
      <trkpt lat="46.42054" lon="5.63839">
        <ele>648.2</ele>
        <time>2022-07-29T10:53:34Z</time>
      </trkpt>
      <trkpt lat="46.42065" lon="5.63846">
        <ele>647.4</ele>
        <time>2022-07-29T10:53:35Z</time>
      </trkpt>
      <trkpt lat="46.42076" lon="5.63854">
        <ele>646.8</ele>
        <time>2022-07-29T10:53:36Z</time>
      </trkpt>
      <trkpt lat="46.42087" lon="5.63861">
        <ele>646.2</ele>
        <time>2022-07-29T10:53:37Z</time>
      </trkpt>
      <trkpt lat="46.42098" lon="5.63869">
        <ele>645.8</ele>
        <time>2022-07-29T10:53:38Z</time>
      </trkpt>
      <trkpt lat="46.42109" lon="5.63877">
        <ele>645</ele>
        <time>2022-07-29T10:53:39Z</time>
      </trkpt>
      <trkpt lat="46.42121" lon="5.63885">
        <ele>644.4</ele>
        <time>2022-07-29T10:53:40Z</time>
      </trkpt>
      <trkpt lat="46.42132" lon="5.63892">
        <ele>644</ele>
        <time>2022-07-29T10:53:41Z</time>
      </trkpt>
      <trkpt lat="46.42142" lon="5.639">
        <ele>643.4</ele>
        <time>2022-07-29T10:53:42Z</time>
      </trkpt>
      <trkpt lat="46.4215" lon="5.63909">
        <ele>642.8</ele>
        <time>2022-07-29T10:53:43Z</time>
      </trkpt>
      <trkpt lat="46.42157" lon="5.63919">
        <ele>642.4</ele>
        <time>2022-07-29T10:53:44Z</time>
      </trkpt>
      <trkpt lat="46.42164" lon="5.6393">
        <ele>641.8</ele>
        <time>2022-07-29T10:53:45Z</time>
      </trkpt>
      <trkpt lat="46.42168" lon="5.63943">
        <ele>641.4</ele>
        <time>2022-07-29T10:53:46Z</time>
      </trkpt>
      <trkpt lat="46.42169" lon="5.63959">
        <ele>640.8</ele>
        <time>2022-07-29T10:53:47Z</time>
      </trkpt>
      <trkpt lat="46.42169" lon="5.63975">
        <ele>640.2</ele>
        <time>2022-07-29T10:53:48Z</time>
      </trkpt>
      <trkpt lat="46.42168" lon="5.63992">
        <ele>639.4</ele>
        <time>2022-07-29T10:53:49Z</time>
      </trkpt>
      <trkpt lat="46.42166" lon="5.64006">
        <ele>638.8</ele>
        <time>2022-07-29T10:53:50Z</time>
      </trkpt>
      <trkpt lat="46.42164" lon="5.64023">
        <ele>638.2</ele>
        <time>2022-07-29T10:53:51Z</time>
      </trkpt>
      <trkpt lat="46.42161" lon="5.64039">
        <ele>637.6</ele>
        <time>2022-07-29T10:53:52Z</time>
      </trkpt>
      <trkpt lat="46.42159" lon="5.64054">
        <ele>636.8</ele>
        <time>2022-07-29T10:53:53Z</time>
      </trkpt>
      <trkpt lat="46.42157" lon="5.6407">
        <ele>636.2</ele>
        <time>2022-07-29T10:53:54Z</time>
      </trkpt>
      <trkpt lat="46.42157" lon="5.64086">
        <ele>635.6</ele>
        <time>2022-07-29T10:53:55Z</time>
      </trkpt>
      <trkpt lat="46.4216" lon="5.64102">
        <ele>635</ele>
        <time>2022-07-29T10:53:56Z</time>
      </trkpt>
      <trkpt lat="46.42164" lon="5.64117">
        <ele>634.4</ele>
        <time>2022-07-29T10:53:57Z</time>
      </trkpt>
      <trkpt lat="46.42171" lon="5.6413">
        <ele>634</ele>
        <time>2022-07-29T10:53:58Z</time>
      </trkpt>
      <trkpt lat="46.42178" lon="5.64142">
        <ele>633.4</ele>
        <time>2022-07-29T10:53:59Z</time>
      </trkpt>
      <trkpt lat="46.42186" lon="5.64154">
        <ele>633</ele>
        <time>2022-07-29T10:54:00Z</time>
      </trkpt>
      <trkpt lat="46.42195" lon="5.64164">
        <ele>632.4</ele>
        <time>2022-07-29T10:54:01Z</time>
      </trkpt>
      <trkpt lat="46.42206" lon="5.64171">
        <ele>632</ele>
        <time>2022-07-29T10:54:02Z</time>
      </trkpt>
      <trkpt lat="46.42216" lon="5.64175">
        <ele>631.4</ele>
        <time>2022-07-29T10:54:03Z</time>
      </trkpt>
      <trkpt lat="46.42227" lon="5.64176">
        <ele>630.8</ele>
        <time>2022-07-29T10:54:04Z</time>
      </trkpt>
      <trkpt lat="46.42238" lon="5.64178">
        <ele>630.4</ele>
        <time>2022-07-29T10:54:05Z</time>
      </trkpt>
      <trkpt lat="46.42249" lon="5.64181">
        <ele>629.8</ele>
        <time>2022-07-29T10:54:06Z</time>
      </trkpt>
      <trkpt lat="46.4226" lon="5.64185">
        <ele>629</ele>
        <time>2022-07-29T10:54:07Z</time>
      </trkpt>
      <trkpt lat="46.42272" lon="5.6419">
        <ele>628.2</ele>
        <time>2022-07-29T10:54:08Z</time>
      </trkpt>
      <trkpt lat="46.42283" lon="5.64195">
        <ele>627.4</ele>
        <time>2022-07-29T10:54:09Z</time>
      </trkpt>
      <trkpt lat="46.42295" lon="5.64201">
        <ele>626.6</ele>
        <time>2022-07-29T10:54:10Z</time>
      </trkpt>
      <trkpt lat="46.42307" lon="5.64208">
        <ele>625.6</ele>
        <time>2022-07-29T10:54:11Z</time>
      </trkpt>
      <trkpt lat="46.42318" lon="5.64216">
        <ele>624.8</ele>
        <time>2022-07-29T10:54:12Z</time>
      </trkpt>
      <trkpt lat="46.42328" lon="5.64226">
        <ele>624</ele>
        <time>2022-07-29T10:54:13Z</time>
      </trkpt>
      <trkpt lat="46.42337" lon="5.64237">
        <ele>623.2</ele>
        <time>2022-07-29T10:54:14Z</time>
      </trkpt>
      <trkpt lat="46.42345" lon="5.64251">
        <ele>622.4</ele>
        <time>2022-07-29T10:54:15Z</time>
      </trkpt>
      <trkpt lat="46.42351" lon="5.64266">
        <ele>621.4</ele>
        <time>2022-07-29T10:54:16Z</time>
      </trkpt>
      <trkpt lat="46.42358" lon="5.64281">
        <ele>620.4</ele>
        <time>2022-07-29T10:54:17Z</time>
      </trkpt>
      <trkpt lat="46.42363" lon="5.64297">
        <ele>619.6</ele>
        <time>2022-07-29T10:54:18Z</time>
      </trkpt>
      <trkpt lat="46.42369" lon="5.64313">
        <ele>618.8</ele>
        <time>2022-07-29T10:54:19Z</time>
      </trkpt>
      <trkpt lat="46.42373" lon="5.64328">
        <ele>618</ele>
        <time>2022-07-29T10:54:20Z</time>
      </trkpt>
      <trkpt lat="46.42377" lon="5.64344">
        <ele>617</ele>
        <time>2022-07-29T10:54:21Z</time>
      </trkpt>
      <trkpt lat="46.42378" lon="5.64361">
        <ele>616.2</ele>
        <time>2022-07-29T10:54:22Z</time>
      </trkpt>
      <trkpt lat="46.42378" lon="5.64378">
        <ele>615.4</ele>
        <time>2022-07-29T10:54:23Z</time>
      </trkpt>
      <trkpt lat="46.42376" lon="5.64395">
        <ele>614.6</ele>
        <time>2022-07-29T10:54:24Z</time>
      </trkpt>
      <trkpt lat="46.42372" lon="5.64411">
        <ele>614</ele>
        <time>2022-07-29T10:54:25Z</time>
      </trkpt>
      <trkpt lat="46.42367" lon="5.64427">
        <ele>612.2</ele>
        <time>2022-07-29T10:54:26Z</time>
      </trkpt>
      <trkpt lat="46.42362" lon="5.64443">
        <ele>611.2</ele>
        <time>2022-07-29T10:54:27Z</time>
      </trkpt>
      <trkpt lat="46.42356" lon="5.64459">
        <ele>610.4</ele>
        <time>2022-07-29T10:54:28Z</time>
      </trkpt>
      <trkpt lat="46.42349" lon="5.64475">
        <ele>609.6</ele>
        <time>2022-07-29T10:54:29Z</time>
      </trkpt>
      <trkpt lat="46.42344" lon="5.64492">
        <ele>608.6</ele>
        <time>2022-07-29T10:54:30Z</time>
      </trkpt>
      <trkpt lat="46.42339" lon="5.64508">
        <ele>607.8</ele>
        <time>2022-07-29T10:54:31Z</time>
      </trkpt>
      <trkpt lat="46.42334" lon="5.64525">
        <ele>607</ele>
        <time>2022-07-29T10:54:32Z</time>
      </trkpt>
      <trkpt lat="46.42327" lon="5.64539">
        <ele>606</ele>
        <time>2022-07-29T10:54:33Z</time>
      </trkpt>
      <trkpt lat="46.4232" lon="5.64552">
        <ele>605.2</ele>
        <time>2022-07-29T10:54:34Z</time>
      </trkpt>
      <trkpt lat="46.42313" lon="5.64564">
        <ele>604.4</ele>
        <time>2022-07-29T10:54:35Z</time>
      </trkpt>
      <trkpt lat="46.42308" lon="5.64576">
        <ele>603.8</ele>
        <time>2022-07-29T10:54:36Z</time>
      </trkpt>
      <trkpt lat="46.42304" lon="5.64589">
        <ele>602.8</ele>
        <time>2022-07-29T10:54:37Z</time>
      </trkpt>
      <trkpt lat="46.42302" lon="5.64603">
        <ele>602</ele>
        <time>2022-07-29T10:54:38Z</time>
      </trkpt>
      <trkpt lat="46.42306" lon="5.64619">
        <ele>601.4</ele>
        <time>2022-07-29T10:54:39Z</time>
      </trkpt>
      <trkpt lat="46.4231" lon="5.64634">
        <ele>600.6</ele>
        <time>2022-07-29T10:54:40Z</time>
      </trkpt>
      <trkpt lat="46.42317" lon="5.64645">
        <ele>600</ele>
        <time>2022-07-29T10:54:41Z</time>
      </trkpt>
      <trkpt lat="46.42326" lon="5.64653">
        <ele>599.4</ele>
        <time>2022-07-29T10:54:42Z</time>
      </trkpt>
      <trkpt lat="46.42333" lon="5.6466">
        <ele>598.8</ele>
        <time>2022-07-29T10:54:43Z</time>
      </trkpt>
      <trkpt lat="46.42339" lon="5.64668">
        <ele>598.2</ele>
        <time>2022-07-29T10:54:44Z</time>
      </trkpt>
      <trkpt lat="46.42341" lon="5.64678">
        <ele>597.4</ele>
        <time>2022-07-29T10:54:45Z</time>
      </trkpt>
      <trkpt lat="46.42339" lon="5.64689">
        <ele>596.8</ele>
        <time>2022-07-29T10:54:46Z</time>
      </trkpt>
      <trkpt lat="46.42334" lon="5.64699">
        <ele>596</ele>
        <time>2022-07-29T10:54:47Z</time>
      </trkpt>
      <trkpt lat="46.42328" lon="5.64708">
        <ele>595.2</ele>
        <time>2022-07-29T10:54:48Z</time>
      </trkpt>
      <trkpt lat="46.42322" lon="5.64718">
        <ele>594.6</ele>
        <time>2022-07-29T10:54:49Z</time>
      </trkpt>
      <trkpt lat="46.42316" lon="5.64729">
        <ele>594.2</ele>
        <time>2022-07-29T10:54:50Z</time>
      </trkpt>
      <trkpt lat="46.42309" lon="5.64739">
        <ele>593.8</ele>
        <time>2022-07-29T10:54:51Z</time>
      </trkpt>
      <trkpt lat="46.42303" lon="5.6475">
        <ele>593.2</ele>
        <time>2022-07-29T10:54:52Z</time>
      </trkpt>
      <trkpt lat="46.42297" lon="5.6476">
        <ele>593</ele>
        <time>2022-07-29T10:54:53Z</time>
      </trkpt>
      <trkpt lat="46.42291" lon="5.6477">
        <ele>592.4</ele>
        <time>2022-07-29T10:54:54Z</time>
      </trkpt>
      <trkpt lat="46.42285" lon="5.64781">
        <ele>592</ele>
        <time>2022-07-29T10:54:55Z</time>
      </trkpt>
      <trkpt lat="46.42278" lon="5.64792">
        <ele>591.6</ele>
        <time>2022-07-29T10:54:56Z</time>
      </trkpt>
      <trkpt lat="46.42272" lon="5.64802">
        <ele>591</ele>
        <time>2022-07-29T10:54:57Z</time>
      </trkpt>
      <trkpt lat="46.42267" lon="5.64812">
        <ele>590.4</ele>
        <time>2022-07-29T10:54:58Z</time>
      </trkpt>
      <trkpt lat="46.42264" lon="5.64823">
        <ele>589.6</ele>
        <time>2022-07-29T10:54:59Z</time>
      </trkpt>
      <trkpt lat="46.42265" lon="5.64834">
        <ele>589</ele>
        <time>2022-07-29T10:55:00Z</time>
      </trkpt>
      <trkpt lat="46.42268" lon="5.64846">
        <ele>588.4</ele>
        <time>2022-07-29T10:55:01Z</time>
      </trkpt>
      <trkpt lat="46.42274" lon="5.64857">
        <ele>588.4</ele>
        <time>2022-07-29T10:55:02Z</time>
      </trkpt>
      <trkpt lat="46.42281" lon="5.64868">
        <ele>587.6</ele>
        <time>2022-07-29T10:55:03Z</time>
      </trkpt>
      <trkpt lat="46.4229" lon="5.64877">
        <ele>587</ele>
        <time>2022-07-29T10:55:04Z</time>
      </trkpt>
      <trkpt lat="46.42299" lon="5.64886">
        <ele>586.4</ele>
        <time>2022-07-29T10:55:05Z</time>
      </trkpt>
      <trkpt lat="46.42307" lon="5.64894">
        <ele>585.6</ele>
        <time>2022-07-29T10:55:06Z</time>
      </trkpt>
      <trkpt lat="46.42316" lon="5.64901">
        <ele>585</ele>
        <time>2022-07-29T10:55:07Z</time>
      </trkpt>
      <trkpt lat="46.42323" lon="5.64906">
        <ele>584.2</ele>
        <time>2022-07-29T10:55:08Z</time>
      </trkpt>
      <trkpt lat="46.42329" lon="5.64912">
        <ele>583.6</ele>
        <time>2022-07-29T10:55:09Z</time>
      </trkpt>
      <trkpt lat="46.42334" lon="5.64918">
        <ele>583.2</ele>
        <time>2022-07-29T10:55:10Z</time>
      </trkpt>
      <trkpt lat="46.42335" lon="5.64926">
        <ele>582.6</ele>
        <time>2022-07-29T10:55:11Z</time>
      </trkpt>
      <trkpt lat="46.42334" lon="5.64934">
        <ele>582.4</ele>
        <time>2022-07-29T10:55:12Z</time>
      </trkpt>
      <trkpt lat="46.42332" lon="5.64941">
        <ele>582</ele>
        <time>2022-07-29T10:55:13Z</time>
      </trkpt>
      <trkpt lat="46.42327" lon="5.64947">
        <ele>581.6</ele>
        <time>2022-07-29T10:55:14Z</time>
      </trkpt>
      <trkpt lat="46.42322" lon="5.64952">
        <ele>581.4</ele>
        <time>2022-07-29T10:55:15Z</time>
      </trkpt>
      <trkpt lat="46.42316" lon="5.64957">
        <ele>581</ele>
        <time>2022-07-29T10:55:16Z</time>
      </trkpt>
      <trkpt lat="46.4231" lon="5.64961">
        <ele>580.6</ele>
        <time>2022-07-29T10:55:17Z</time>
      </trkpt>
      <trkpt lat="46.42303" lon="5.64964">
        <ele>580.2</ele>
        <time>2022-07-29T10:55:18Z</time>
      </trkpt>
      <trkpt lat="46.42296" lon="5.64967">
        <ele>579.8</ele>
        <time>2022-07-29T10:55:19Z</time>
      </trkpt>
      <trkpt lat="46.42288" lon="5.64971">
        <ele>579.4</ele>
        <time>2022-07-29T10:55:20Z</time>
      </trkpt>
      <trkpt lat="46.42281" lon="5.64974">
        <ele>579</ele>
        <time>2022-07-29T10:55:21Z</time>
      </trkpt>
      <trkpt lat="46.42273" lon="5.64977">
        <ele>578.6</ele>
        <time>2022-07-29T10:55:22Z</time>
      </trkpt>
      <trkpt lat="46.42265" lon="5.64978">
        <ele>578.2</ele>
        <time>2022-07-29T10:55:23Z</time>
      </trkpt>
      <trkpt lat="46.42257" lon="5.6498">
        <ele>577.8</ele>
        <time>2022-07-29T10:55:24Z</time>
      </trkpt>
      <trkpt lat="46.42248" lon="5.64981">
        <ele>577.4</ele>
        <time>2022-07-29T10:55:25Z</time>
      </trkpt>
      <trkpt lat="46.4224" lon="5.64983">
        <ele>577</ele>
        <time>2022-07-29T10:55:26Z</time>
      </trkpt>
      <trkpt lat="46.42231" lon="5.64984">
        <ele>576.6</ele>
        <time>2022-07-29T10:55:27Z</time>
      </trkpt>
      <trkpt lat="46.42222" lon="5.64985">
        <ele>576.2</ele>
        <time>2022-07-29T10:55:28Z</time>
      </trkpt>
      <trkpt lat="46.42213" lon="5.64986">
        <ele>575.8</ele>
        <time>2022-07-29T10:55:29Z</time>
      </trkpt>
      <trkpt lat="46.42206" lon="5.64986">
        <ele>575.4</ele>
        <time>2022-07-29T10:55:30Z</time>
      </trkpt>
      <trkpt lat="46.422" lon="5.64987">
        <ele>575</ele>
        <time>2022-07-29T10:55:31Z</time>
      </trkpt>
      <trkpt lat="46.42194" lon="5.64989">
        <ele>574.8</ele>
        <time>2022-07-29T10:55:32Z</time>
      </trkpt>
      <trkpt lat="46.42193" lon="5.64991">
        <ele>574.8</ele>
        <time>2022-07-29T10:55:33Z</time>
      </trkpt>
      <trkpt lat="46.42194" lon="5.64991">
        <ele>574.4</ele>
        <time>2022-07-29T10:55:34Z</time>
      </trkpt>
      <trkpt lat="46.42194" lon="5.64991">
        <ele>574.4</ele>
        <time>2022-07-29T10:55:35Z</time>
      </trkpt>
      <trkpt lat="46.42194" lon="5.64991">
        <ele>574.4</ele>
        <time>2022-07-29T10:55:37Z</time>
      </trkpt>
      <trkpt lat="46.42194" lon="5.64991">
        <ele>574.4</ele>
        <time>2022-07-29T10:55:38Z</time>
      </trkpt>
      <trkpt lat="46.42199" lon="5.64995">
        <ele>574.2</ele>
        <time>2022-07-29T10:55:42Z</time>
      </trkpt>
      <trkpt lat="46.422" lon="5.64996">
        <ele>574.2</ele>
        <time>2022-07-29T10:55:43Z</time>
      </trkpt>
      <trkpt lat="46.422" lon="5.64996">
        <ele>574.2</ele>
        <time>2022-07-29T10:55:44Z</time>
      </trkpt>
      <trkpt lat="46.42201" lon="5.64996">
        <ele>574.2</ele>
        <time>2022-07-29T10:55:45Z</time>
      </trkpt>
      <trkpt lat="46.42201" lon="5.64996">
        <ele>574.2</ele>
        <time>2022-07-29T10:55:46Z</time>
      </trkpt>
      <trkpt lat="46.42201" lon="5.64996">
        <ele>574.2</ele>
        <time>2022-07-29T10:55:48Z</time>
      </trkpt>
      <trkpt lat="46.42201" lon="5.64996">
        <ele>574.2</ele>
        <time>2022-07-29T10:55:49Z</time>
      </trkpt>
      <trkpt lat="46.42201" lon="5.64996">
        <ele>574.2</ele>
        <time>2022-07-29T10:55:50Z</time>
      </trkpt>
      <trkpt lat="46.42201" lon="5.64996">
        <ele>574.2</ele>
        <time>2022-07-29T10:55:51Z</time>
      </trkpt>
      <trkpt lat="46.42201" lon="5.64996">
        <ele>574.2</ele>
        <time>2022-07-29T10:55:52Z</time>
      </trkpt>
      <trkpt lat="46.42201" lon="5.64996">
        <ele>574.2</ele>
        <time>2022-07-29T10:55:53Z</time>
      </trkpt>
      <trkpt lat="46.42201" lon="5.64996">
        <ele>574.2</ele>
        <time>2022-07-29T10:56:23Z</time>
      </trkpt>
      <trkpt lat="46.42201" lon="5.64996">
        <ele>574.2</ele>
        <time>2022-07-29T10:56:24Z</time>
      </trkpt>
      <trkpt lat="46.422" lon="5.64993">
        <ele>574.2</ele>
        <time>2022-07-29T10:56:25Z</time>
      </trkpt>
      <trkpt lat="46.422" lon="5.64993">
        <ele>574.2</ele>
        <time>2022-07-29T10:56:26Z</time>
      </trkpt>
      <trkpt lat="46.422" lon="5.64992">
        <ele>574.2</ele>
        <time>2022-07-29T10:56:27Z</time>
      </trkpt>
      <trkpt lat="46.422" lon="5.64992">
        <ele>574.2</ele>
        <time>2022-07-29T10:56:28Z</time>
      </trkpt>
      <trkpt lat="46.422" lon="5.64992">
        <ele>574.2</ele>
        <time>2022-07-29T10:56:29Z</time>
      </trkpt>
      <trkpt lat="46.422" lon="5.64992">
        <ele>574.2</ele>
        <time>2022-07-29T10:56:30Z</time>
      </trkpt>
      <trkpt lat="46.422" lon="5.64992">
        <ele>574.6</ele>
        <time>2022-07-29T10:56:31Z</time>
      </trkpt>
      <trkpt lat="46.42197" lon="5.64989">
        <ele>574.6</ele>
        <time>2022-07-29T10:56:33Z</time>
      </trkpt>
      <trkpt lat="46.42194" lon="5.64988">
        <ele>574.6</ele>
        <time>2022-07-29T10:56:34Z</time>
      </trkpt>
      <trkpt lat="46.42191" lon="5.64988">
        <ele>574.2</ele>
        <time>2022-07-29T10:56:35Z</time>
      </trkpt>
      <trkpt lat="46.42188" lon="5.64987">
        <ele>574.2</ele>
        <time>2022-07-29T10:56:36Z</time>
      </trkpt>
      <trkpt lat="46.42184" lon="5.64986">
        <ele>573.8</ele>
        <time>2022-07-29T10:56:37Z</time>
      </trkpt>
      <trkpt lat="46.4218" lon="5.64985">
        <ele>573.6</ele>
        <time>2022-07-29T10:56:38Z</time>
      </trkpt>
      <trkpt lat="46.42175" lon="5.64984">
        <ele>573.4</ele>
        <time>2022-07-29T10:56:39Z</time>
      </trkpt>
      <trkpt lat="46.4217" lon="5.64983">
        <ele>573</ele>
        <time>2022-07-29T10:56:40Z</time>
      </trkpt>
      <trkpt lat="46.42165" lon="5.64983">
        <ele>572.6</ele>
        <time>2022-07-29T10:56:41Z</time>
      </trkpt>
      <trkpt lat="46.42159" lon="5.64982">
        <ele>572.4</ele>
        <time>2022-07-29T10:56:42Z</time>
      </trkpt>
      <trkpt lat="46.42153" lon="5.64982">
        <ele>572.2</ele>
        <time>2022-07-29T10:56:43Z</time>
      </trkpt>
      <trkpt lat="46.42148" lon="5.64982">
        <ele>572.2</ele>
        <time>2022-07-29T10:56:44Z</time>
      </trkpt>
      <trkpt lat="46.42142" lon="5.64981">
        <ele>571.8</ele>
        <time>2022-07-29T10:56:45Z</time>
      </trkpt>
      <trkpt lat="46.42135" lon="5.64981">
        <ele>571.6</ele>
        <time>2022-07-29T10:56:46Z</time>
      </trkpt>
      <trkpt lat="46.42129" lon="5.64981">
        <ele>571.2</ele>
        <time>2022-07-29T10:56:47Z</time>
      </trkpt>
      <trkpt lat="46.42122" lon="5.64981">
        <ele>570.8</ele>
        <time>2022-07-29T10:56:48Z</time>
      </trkpt>
      <trkpt lat="46.42115" lon="5.6498">
        <ele>570.6</ele>
        <time>2022-07-29T10:56:49Z</time>
      </trkpt>
      <trkpt lat="46.42108" lon="5.6498">
        <ele>570.6</ele>
        <time>2022-07-29T10:56:50Z</time>
      </trkpt>
      <trkpt lat="46.421" lon="5.64979">
        <ele>570.2</ele>
        <time>2022-07-29T10:56:51Z</time>
      </trkpt>
      <trkpt lat="46.42092" lon="5.64978">
        <ele>570</ele>
        <time>2022-07-29T10:56:52Z</time>
      </trkpt>
      <trkpt lat="46.42084" lon="5.64977">
        <ele>569.6</ele>
        <time>2022-07-29T10:56:53Z</time>
      </trkpt>
      <trkpt lat="46.42076" lon="5.64976">
        <ele>569.2</ele>
        <time>2022-07-29T10:56:54Z</time>
      </trkpt>
      <trkpt lat="46.42068" lon="5.64974">
        <ele>568.8</ele>
        <time>2022-07-29T10:56:55Z</time>
      </trkpt>
      <trkpt lat="46.42059" lon="5.64971">
        <ele>568.2</ele>
        <time>2022-07-29T10:56:56Z</time>
      </trkpt>
      <trkpt lat="46.4205" lon="5.64969">
        <ele>567.6</ele>
        <time>2022-07-29T10:56:57Z</time>
      </trkpt>
      <trkpt lat="46.42041" lon="5.64966">
        <ele>567</ele>
        <time>2022-07-29T10:56:58Z</time>
      </trkpt>
      <trkpt lat="46.42031" lon="5.64964">
        <ele>566.4</ele>
        <time>2022-07-29T10:56:59Z</time>
      </trkpt>
      <trkpt lat="46.42021" lon="5.64961">
        <ele>565.8</ele>
        <time>2022-07-29T10:57:00Z</time>
      </trkpt>
      <trkpt lat="46.42011" lon="5.64958">
        <ele>565.2</ele>
        <time>2022-07-29T10:57:01Z</time>
      </trkpt>
      <trkpt lat="46.42001" lon="5.64955">
        <ele>564.6</ele>
        <time>2022-07-29T10:57:02Z</time>
      </trkpt>
      <trkpt lat="46.41991" lon="5.64951">
        <ele>564</ele>
        <time>2022-07-29T10:57:03Z</time>
      </trkpt>
      <trkpt lat="46.41981" lon="5.64946">
        <ele>563.6</ele>
        <time>2022-07-29T10:57:04Z</time>
      </trkpt>
      <trkpt lat="46.4197" lon="5.6494">
        <ele>562.8</ele>
        <time>2022-07-29T10:57:05Z</time>
      </trkpt>
      <trkpt lat="46.41959" lon="5.64935">
        <ele>562</ele>
        <time>2022-07-29T10:57:06Z</time>
      </trkpt>
      <trkpt lat="46.41948" lon="5.64932">
        <ele>561.2</ele>
        <time>2022-07-29T10:57:07Z</time>
      </trkpt>
      <trkpt lat="46.41937" lon="5.64931">
        <ele>560.4</ele>
        <time>2022-07-29T10:57:08Z</time>
      </trkpt>
      <trkpt lat="46.41924" lon="5.6493">
        <ele>559.6</ele>
        <time>2022-07-29T10:57:09Z</time>
      </trkpt>
      <trkpt lat="46.41911" lon="5.64931">
        <ele>559</ele>
        <time>2022-07-29T10:57:10Z</time>
      </trkpt>
      <trkpt lat="46.419" lon="5.64931">
        <ele>558.4</ele>
        <time>2022-07-29T10:57:11Z</time>
      </trkpt>
      <trkpt lat="46.41889" lon="5.6493">
        <ele>558</ele>
        <time>2022-07-29T10:57:12Z</time>
      </trkpt>
      <trkpt lat="46.41879" lon="5.6493">
        <ele>557.6</ele>
        <time>2022-07-29T10:57:13Z</time>
      </trkpt>
      <trkpt lat="46.41868" lon="5.64929">
        <ele>557.2</ele>
        <time>2022-07-29T10:57:14Z</time>
      </trkpt>
      <trkpt lat="46.41856" lon="5.6493">
        <ele>556.6</ele>
        <time>2022-07-29T10:57:15Z</time>
      </trkpt>
      <trkpt lat="46.41845" lon="5.64929">
        <ele>556.2</ele>
        <time>2022-07-29T10:57:16Z</time>
      </trkpt>
      <trkpt lat="46.41834" lon="5.64928">
        <ele>555.8</ele>
        <time>2022-07-29T10:57:17Z</time>
      </trkpt>
      <trkpt lat="46.41823" lon="5.64927">
        <ele>555.6</ele>
        <time>2022-07-29T10:57:18Z</time>
      </trkpt>
      <trkpt lat="46.41813" lon="5.64927">
        <ele>555.4</ele>
        <time>2022-07-29T10:57:19Z</time>
      </trkpt>
      <trkpt lat="46.41803" lon="5.64925">
        <ele>555</ele>
        <time>2022-07-29T10:57:20Z</time>
      </trkpt>
      <trkpt lat="46.41792" lon="5.64922">
        <ele>554.6</ele>
        <time>2022-07-29T10:57:21Z</time>
      </trkpt>
      <trkpt lat="46.41782" lon="5.64918">
        <ele>554</ele>
        <time>2022-07-29T10:57:22Z</time>
      </trkpt>
      <trkpt lat="46.4177" lon="5.64914">
        <ele>553.4</ele>
        <time>2022-07-29T10:57:23Z</time>
      </trkpt>
      <trkpt lat="46.4176" lon="5.64908">
        <ele>552.8</ele>
        <time>2022-07-29T10:57:24Z</time>
      </trkpt>
      <trkpt lat="46.41749" lon="5.64902">
        <ele>552.2</ele>
        <time>2022-07-29T10:57:25Z</time>
      </trkpt>
      <trkpt lat="46.41738" lon="5.64897">
        <ele>551.4</ele>
        <time>2022-07-29T10:57:26Z</time>
      </trkpt>
      <trkpt lat="46.41726" lon="5.64893">
        <ele>550.6</ele>
        <time>2022-07-29T10:57:27Z</time>
      </trkpt>
      <trkpt lat="46.41714" lon="5.64892">
        <ele>549.8</ele>
        <time>2022-07-29T10:57:28Z</time>
      </trkpt>
      <trkpt lat="46.41703" lon="5.64891">
        <ele>549.2</ele>
        <time>2022-07-29T10:57:29Z</time>
      </trkpt>
      <trkpt lat="46.41691" lon="5.64889">
        <ele>548.4</ele>
        <time>2022-07-29T10:57:30Z</time>
      </trkpt>
      <trkpt lat="46.41678" lon="5.64889">
        <ele>547.4</ele>
        <time>2022-07-29T10:57:31Z</time>
      </trkpt>
      <trkpt lat="46.41665" lon="5.64888">
        <ele>546.6</ele>
        <time>2022-07-29T10:57:32Z</time>
      </trkpt>
      <trkpt lat="46.41653" lon="5.64888">
        <ele>545.8</ele>
        <time>2022-07-29T10:57:33Z</time>
      </trkpt>
      <trkpt lat="46.4164" lon="5.64887">
        <ele>545</ele>
        <time>2022-07-29T10:57:34Z</time>
      </trkpt>
      <trkpt lat="46.41627" lon="5.64887">
        <ele>544.2</ele>
        <time>2022-07-29T10:57:35Z</time>
      </trkpt>
      <trkpt lat="46.41614" lon="5.64888">
        <ele>543.4</ele>
        <time>2022-07-29T10:57:36Z</time>
      </trkpt>
      <trkpt lat="46.41601" lon="5.64891">
        <ele>542.6</ele>
        <time>2022-07-29T10:57:37Z</time>
      </trkpt>
      <trkpt lat="46.4159" lon="5.64896">
        <ele>542.2</ele>
        <time>2022-07-29T10:57:38Z</time>
      </trkpt>
      <trkpt lat="46.41578" lon="5.64901">
        <ele>541.6</ele>
        <time>2022-07-29T10:57:39Z</time>
      </trkpt>
      <trkpt lat="46.41566" lon="5.64903">
        <ele>540.8</ele>
        <time>2022-07-29T10:57:40Z</time>
      </trkpt>
      <trkpt lat="46.41553" lon="5.64903">
        <ele>540.2</ele>
        <time>2022-07-29T10:57:41Z</time>
      </trkpt>
      <trkpt lat="46.41541" lon="5.64901">
        <ele>539.6</ele>
        <time>2022-07-29T10:57:42Z</time>
      </trkpt>
      <trkpt lat="46.41529" lon="5.64898">
        <ele>538.8</ele>
        <time>2022-07-29T10:57:43Z</time>
      </trkpt>
      <trkpt lat="46.41517" lon="5.64897">
        <ele>538.2</ele>
        <time>2022-07-29T10:57:44Z</time>
      </trkpt>
      <trkpt lat="46.41504" lon="5.64895">
        <ele>537.4</ele>
        <time>2022-07-29T10:57:45Z</time>
      </trkpt>
      <trkpt lat="46.41492" lon="5.64893">
        <ele>536.6</ele>
        <time>2022-07-29T10:57:46Z</time>
      </trkpt>
      <trkpt lat="46.41479" lon="5.64893">
        <ele>536</ele>
        <time>2022-07-29T10:57:47Z</time>
      </trkpt>
      <trkpt lat="46.41467" lon="5.64894">
        <ele>535.6</ele>
        <time>2022-07-29T10:57:48Z</time>
      </trkpt>
      <trkpt lat="46.41455" lon="5.64894">
        <ele>535</ele>
        <time>2022-07-29T10:57:49Z</time>
      </trkpt>
      <trkpt lat="46.41443" lon="5.64896">
        <ele>534.2</ele>
        <time>2022-07-29T10:57:50Z</time>
      </trkpt>
      <trkpt lat="46.4143" lon="5.64899">
        <ele>533.4</ele>
        <time>2022-07-29T10:57:51Z</time>
      </trkpt>
      <trkpt lat="46.41419" lon="5.64906">
        <ele>532.8</ele>
        <time>2022-07-29T10:57:52Z</time>
      </trkpt>
      <trkpt lat="46.41408" lon="5.6491">
        <ele>532.2</ele>
        <time>2022-07-29T10:57:53Z</time>
      </trkpt>
      <trkpt lat="46.41396" lon="5.64914">
        <ele>531.6</ele>
        <time>2022-07-29T10:57:54Z</time>
      </trkpt>
      <trkpt lat="46.41384" lon="5.64915">
        <ele>531</ele>
        <time>2022-07-29T10:57:55Z</time>
      </trkpt>
      <trkpt lat="46.41371" lon="5.64915">
        <ele>530.2</ele>
        <time>2022-07-29T10:57:56Z</time>
      </trkpt>
      <trkpt lat="46.41359" lon="5.64914">
        <ele>529.4</ele>
        <time>2022-07-29T10:57:57Z</time>
      </trkpt>
      <trkpt lat="46.41347" lon="5.64912">
        <ele>528.8</ele>
        <time>2022-07-29T10:57:58Z</time>
      </trkpt>
      <trkpt lat="46.41334" lon="5.64909">
        <ele>528</ele>
        <time>2022-07-29T10:57:59Z</time>
      </trkpt>
      <trkpt lat="46.41322" lon="5.64906">
        <ele>527.2</ele>
        <time>2022-07-29T10:58:00Z</time>
      </trkpt>
      <trkpt lat="46.41309" lon="5.64904">
        <ele>526.4</ele>
        <time>2022-07-29T10:58:01Z</time>
      </trkpt>
      <trkpt lat="46.41296" lon="5.64903">
        <ele>525.6</ele>
        <time>2022-07-29T10:58:02Z</time>
      </trkpt>
      <trkpt lat="46.41284" lon="5.64903">
        <ele>524.8</ele>
        <time>2022-07-29T10:58:03Z</time>
      </trkpt>
      <trkpt lat="46.41271" lon="5.64903">
        <ele>524</ele>
        <time>2022-07-29T10:58:04Z</time>
      </trkpt>
      <trkpt lat="46.41259" lon="5.64902">
        <ele>523.6</ele>
        <time>2022-07-29T10:58:05Z</time>
      </trkpt>
      <trkpt lat="46.41248" lon="5.64901">
        <ele>523</ele>
        <time>2022-07-29T10:58:06Z</time>
      </trkpt>
      <trkpt lat="46.41236" lon="5.64899">
        <ele>522.6</ele>
        <time>2022-07-29T10:58:07Z</time>
      </trkpt>
      <trkpt lat="46.41224" lon="5.64898">
        <ele>522</ele>
        <time>2022-07-29T10:58:08Z</time>
      </trkpt>
      <trkpt lat="46.41212" lon="5.64897">
        <ele>522</ele>
        <time>2022-07-29T10:58:09Z</time>
      </trkpt>
      <trkpt lat="46.41212" lon="5.64897">
        <ele>522</ele>
        <time>2022-07-29T10:58:10Z</time>
      </trkpt>
      <trkpt lat="46.41202" lon="5.64896">
        <ele>521.6</ele>
        <time>2022-07-29T10:58:11Z</time>
      </trkpt>
      <trkpt lat="46.41191" lon="5.64895">
        <ele>521.6</ele>
        <time>2022-07-29T10:58:12Z</time>
      </trkpt>
      <trkpt lat="46.41181" lon="5.64894">
        <ele>521.6</ele>
        <time>2022-07-29T10:58:13Z</time>
      </trkpt>
      <trkpt lat="46.41172" lon="5.64892">
        <ele>521.6</ele>
        <time>2022-07-29T10:58:14Z</time>
      </trkpt>
      <trkpt lat="46.41163" lon="5.64889">
        <ele>521.6</ele>
        <time>2022-07-29T10:58:15Z</time>
      </trkpt>
      <trkpt lat="46.41154" lon="5.64887">
        <ele>521.6</ele>
        <time>2022-07-29T10:58:16Z</time>
      </trkpt>
      <trkpt lat="46.41146" lon="5.64885">
        <ele>522</ele>
        <time>2022-07-29T10:58:17Z</time>
      </trkpt>
      <trkpt lat="46.41138" lon="5.64883">
        <ele>522</ele>
        <time>2022-07-29T10:58:18Z</time>
      </trkpt>
      <trkpt lat="46.4113" lon="5.64881">
        <ele>522</ele>
        <time>2022-07-29T10:58:19Z</time>
      </trkpt>
      <trkpt lat="46.41122" lon="5.64878">
        <ele>522.2</ele>
        <time>2022-07-29T10:58:20Z</time>
      </trkpt>
      <trkpt lat="46.41115" lon="5.64875">
        <ele>522.2</ele>
        <time>2022-07-29T10:58:21Z</time>
      </trkpt>
      <trkpt lat="46.41107" lon="5.64873">
        <ele>522.6</ele>
        <time>2022-07-29T10:58:22Z</time>
      </trkpt>
      <trkpt lat="46.411" lon="5.64872">
        <ele>522.6</ele>
        <time>2022-07-29T10:58:23Z</time>
      </trkpt>
      <trkpt lat="46.41093" lon="5.6487">
        <ele>522.8</ele>
        <time>2022-07-29T10:58:24Z</time>
      </trkpt>
      <trkpt lat="46.41086" lon="5.64869">
        <ele>522.8</ele>
        <time>2022-07-29T10:58:25Z</time>
      </trkpt>
      <trkpt lat="46.41079" lon="5.64868">
        <ele>522.8</ele>
        <time>2022-07-29T10:58:26Z</time>
      </trkpt>
      <trkpt lat="46.41071" lon="5.64867">
        <ele>522.2</ele>
        <time>2022-07-29T10:58:27Z</time>
      </trkpt>
      <trkpt lat="46.41063" lon="5.64865">
        <ele>522</ele>
        <time>2022-07-29T10:58:28Z</time>
      </trkpt>
      <trkpt lat="46.41055" lon="5.64863">
        <ele>521.6</ele>
        <time>2022-07-29T10:58:29Z</time>
      </trkpt>
      <trkpt lat="46.41046" lon="5.64861">
        <ele>521.2</ele>
        <time>2022-07-29T10:58:30Z</time>
      </trkpt>
      <trkpt lat="46.41038" lon="5.6486">
        <ele>520.8</ele>
        <time>2022-07-29T10:58:31Z</time>
      </trkpt>
      <trkpt lat="46.41029" lon="5.64858">
        <ele>520.4</ele>
        <time>2022-07-29T10:58:32Z</time>
      </trkpt>
      <trkpt lat="46.41019" lon="5.64856">
        <ele>519.8</ele>
        <time>2022-07-29T10:58:33Z</time>
      </trkpt>
      <trkpt lat="46.41011" lon="5.64853">
        <ele>519.2</ele>
        <time>2022-07-29T10:58:34Z</time>
      </trkpt>
      <trkpt lat="46.41001" lon="5.64851">
        <ele>518.6</ele>
        <time>2022-07-29T10:58:35Z</time>
      </trkpt>
      <trkpt lat="46.40991" lon="5.6485">
        <ele>518</ele>
        <time>2022-07-29T10:58:36Z</time>
      </trkpt>
      <trkpt lat="46.40971" lon="5.64845">
        <ele>517.4</ele>
        <time>2022-07-29T10:58:37Z</time>
      </trkpt>
      <trkpt lat="46.4096" lon="5.64843">
        <ele>516.8</ele>
        <time>2022-07-29T10:58:38Z</time>
      </trkpt>
      <trkpt lat="46.4095" lon="5.64841">
        <ele>516</ele>
        <time>2022-07-29T10:58:39Z</time>
      </trkpt>
      <trkpt lat="46.40939" lon="5.6484">
        <ele>515.2</ele>
        <time>2022-07-29T10:58:40Z</time>
      </trkpt>
      <trkpt lat="46.40927" lon="5.64839">
        <ele>514.4</ele>
        <time>2022-07-29T10:58:41Z</time>
      </trkpt>
      <trkpt lat="46.40915" lon="5.64838">
        <ele>513.4</ele>
        <time>2022-07-29T10:58:42Z</time>
      </trkpt>
      <trkpt lat="46.40903" lon="5.64837">
        <ele>512.6</ele>
        <time>2022-07-29T10:58:43Z</time>
      </trkpt>
      <trkpt lat="46.40891" lon="5.64838">
        <ele>511.6</ele>
        <time>2022-07-29T10:58:44Z</time>
      </trkpt>
      <trkpt lat="46.40878" lon="5.6484">
        <ele>510.8</ele>
        <time>2022-07-29T10:58:45Z</time>
      </trkpt>
      <trkpt lat="46.40866" lon="5.64843">
        <ele>510</ele>
        <time>2022-07-29T10:58:46Z</time>
      </trkpt>
      <trkpt lat="46.40855" lon="5.64844">
        <ele>509.4</ele>
        <time>2022-07-29T10:58:47Z</time>
      </trkpt>
      <trkpt lat="46.40843" lon="5.64844">
        <ele>508.6</ele>
        <time>2022-07-29T10:58:48Z</time>
      </trkpt>
      <trkpt lat="46.40831" lon="5.64843">
        <ele>508</ele>
        <time>2022-07-29T10:58:49Z</time>
      </trkpt>
      <trkpt lat="46.40819" lon="5.64841">
        <ele>506.8</ele>
        <time>2022-07-29T10:58:51Z</time>
      </trkpt>
      <trkpt lat="46.40807" lon="5.64839">
        <ele>506.2</ele>
        <time>2022-07-29T10:58:52Z</time>
      </trkpt>
      <trkpt lat="46.40795" lon="5.64837">
        <ele>505.8</ele>
        <time>2022-07-29T10:58:53Z</time>
      </trkpt>
      <trkpt lat="46.40784" lon="5.64836">
        <ele>505.2</ele>
        <time>2022-07-29T10:58:54Z</time>
      </trkpt>
      <trkpt lat="46.40773" lon="5.64835">
        <ele>504.8</ele>
        <time>2022-07-29T10:58:55Z</time>
      </trkpt>
      <trkpt lat="46.40761" lon="5.64835">
        <ele>504.4</ele>
        <time>2022-07-29T10:58:56Z</time>
      </trkpt>
      <trkpt lat="46.4075" lon="5.64835">
        <ele>504.4</ele>
        <time>2022-07-29T10:58:57Z</time>
      </trkpt>
      <trkpt lat="46.4074" lon="5.64835">
        <ele>504.2</ele>
        <time>2022-07-29T10:58:58Z</time>
      </trkpt>
      <trkpt lat="46.4073" lon="5.64835">
        <ele>504.2</ele>
        <time>2022-07-29T10:58:59Z</time>
      </trkpt>
      <trkpt lat="46.4072" lon="5.64835">
        <ele>504.2</ele>
        <time>2022-07-29T10:59:00Z</time>
      </trkpt>
      <trkpt lat="46.40711" lon="5.64836">
        <ele>504.4</ele>
        <time>2022-07-29T10:59:01Z</time>
      </trkpt>
      <trkpt lat="46.40702" lon="5.64836">
        <ele>504.4</ele>
        <time>2022-07-29T10:59:02Z</time>
      </trkpt>
      <trkpt lat="46.40694" lon="5.64836">
        <ele>504.8</ele>
        <time>2022-07-29T10:59:03Z</time>
      </trkpt>
      <trkpt lat="46.40686" lon="5.64836">
        <ele>504.8</ele>
        <time>2022-07-29T10:59:04Z</time>
      </trkpt>
      <trkpt lat="46.40678" lon="5.64836">
        <ele>505.2</ele>
        <time>2022-07-29T10:59:05Z</time>
      </trkpt>
      <trkpt lat="46.4067" lon="5.64836">
        <ele>505.2</ele>
        <time>2022-07-29T10:59:06Z</time>
      </trkpt>
      <trkpt lat="46.40663" lon="5.64837">
        <ele>505.4</ele>
        <time>2022-07-29T10:59:07Z</time>
      </trkpt>
      <trkpt lat="46.40656" lon="5.64838">
        <ele>505.4</ele>
        <time>2022-07-29T10:59:08Z</time>
      </trkpt>
      <trkpt lat="46.4065" lon="5.6484">
        <ele>505.6</ele>
        <time>2022-07-29T10:59:09Z</time>
      </trkpt>
      <trkpt lat="46.40644" lon="5.64841">
        <ele>505.6</ele>
        <time>2022-07-29T10:59:10Z</time>
      </trkpt>
      <trkpt lat="46.40637" lon="5.64843">
        <ele>505.6</ele>
        <time>2022-07-29T10:59:11Z</time>
      </trkpt>
      <trkpt lat="46.4063" lon="5.64844">
        <ele>506</ele>
        <time>2022-07-29T10:59:12Z</time>
      </trkpt>
      <trkpt lat="46.40624" lon="5.64845">
        <ele>506</ele>
        <time>2022-07-29T10:59:13Z</time>
      </trkpt>
      <trkpt lat="46.40617" lon="5.64847">
        <ele>506</ele>
        <time>2022-07-29T10:59:14Z</time>
      </trkpt>
      <trkpt lat="46.4061" lon="5.64848">
        <ele>506</ele>
        <time>2022-07-29T10:59:15Z</time>
      </trkpt>
      <trkpt lat="46.40604" lon="5.6485">
        <ele>506</ele>
        <time>2022-07-29T10:59:16Z</time>
      </trkpt>
      <trkpt lat="46.40597" lon="5.64852">
        <ele>506</ele>
        <time>2022-07-29T10:59:17Z</time>
      </trkpt>
      <trkpt lat="46.4059" lon="5.64853">
        <ele>506</ele>
        <time>2022-07-29T10:59:18Z</time>
      </trkpt>
      <trkpt lat="46.40584" lon="5.64855">
        <ele>505.8</ele>
        <time>2022-07-29T10:59:19Z</time>
      </trkpt>
      <trkpt lat="46.40577" lon="5.64856">
        <ele>505.8</ele>
        <time>2022-07-29T10:59:20Z</time>
      </trkpt>
      <trkpt lat="46.4057" lon="5.64858">
        <ele>505.4</ele>
        <time>2022-07-29T10:59:21Z</time>
      </trkpt>
      <trkpt lat="46.40563" lon="5.64859">
        <ele>505.4</ele>
        <time>2022-07-29T10:59:22Z</time>
      </trkpt>
      <trkpt lat="46.40555" lon="5.64861">
        <ele>505.2</ele>
        <time>2022-07-29T10:59:23Z</time>
      </trkpt>
      <trkpt lat="46.40548" lon="5.64862">
        <ele>505.2</ele>
        <time>2022-07-29T10:59:24Z</time>
      </trkpt>
      <trkpt lat="46.40541" lon="5.64862">
        <ele>504.8</ele>
        <time>2022-07-29T10:59:25Z</time>
      </trkpt>
      <trkpt lat="46.40533" lon="5.64863">
        <ele>504.8</ele>
        <time>2022-07-29T10:59:26Z</time>
      </trkpt>
      <trkpt lat="46.40525" lon="5.64862">
        <ele>504.6</ele>
        <time>2022-07-29T10:59:27Z</time>
      </trkpt>
      <trkpt lat="46.40517" lon="5.64862">
        <ele>504.6</ele>
        <time>2022-07-29T10:59:28Z</time>
      </trkpt>
      <trkpt lat="46.4051" lon="5.64861">
        <ele>504.6</ele>
        <time>2022-07-29T10:59:29Z</time>
      </trkpt>
      <trkpt lat="46.40502" lon="5.6486">
        <ele>504.4</ele>
        <time>2022-07-29T10:59:30Z</time>
      </trkpt>
      <trkpt lat="46.40495" lon="5.64859">
        <ele>504.4</ele>
        <time>2022-07-29T10:59:31Z</time>
      </trkpt>
      <trkpt lat="46.40488" lon="5.64857">
        <ele>504.4</ele>
        <time>2022-07-29T10:59:32Z</time>
      </trkpt>
      <trkpt lat="46.4048" lon="5.64856">
        <ele>504.4</ele>
        <time>2022-07-29T10:59:33Z</time>
      </trkpt>
      <trkpt lat="46.40473" lon="5.64855">
        <ele>504.4</ele>
        <time>2022-07-29T10:59:34Z</time>
      </trkpt>
      <trkpt lat="46.40466" lon="5.64854">
        <ele>504.4</ele>
        <time>2022-07-29T10:59:35Z</time>
      </trkpt>
      <trkpt lat="46.40459" lon="5.64853">
        <ele>504.4</ele>
        <time>2022-07-29T10:59:36Z</time>
      </trkpt>
      <trkpt lat="46.40452" lon="5.64852">
        <ele>504.4</ele>
        <time>2022-07-29T10:59:37Z</time>
      </trkpt>
      <trkpt lat="46.40445" lon="5.64851">
        <ele>504.4</ele>
        <time>2022-07-29T10:59:38Z</time>
      </trkpt>
      <trkpt lat="46.40438" lon="5.6485">
        <ele>504.4</ele>
        <time>2022-07-29T10:59:39Z</time>
      </trkpt>
      <trkpt lat="46.40431" lon="5.64849">
        <ele>504.6</ele>
        <time>2022-07-29T10:59:40Z</time>
      </trkpt>
      <trkpt lat="46.40425" lon="5.64849">
        <ele>504.6</ele>
        <time>2022-07-29T10:59:41Z</time>
      </trkpt>
      <trkpt lat="46.40418" lon="5.64848">
        <ele>504.6</ele>
        <time>2022-07-29T10:59:42Z</time>
      </trkpt>
      <trkpt lat="46.40412" lon="5.64847">
        <ele>505</ele>
        <time>2022-07-29T10:59:43Z</time>
      </trkpt>
      <trkpt lat="46.40406" lon="5.64847">
        <ele>505</ele>
        <time>2022-07-29T10:59:44Z</time>
      </trkpt>
      <trkpt lat="46.40399" lon="5.64847">
        <ele>505</ele>
        <time>2022-07-29T10:59:45Z</time>
      </trkpt>
      <trkpt lat="46.40393" lon="5.64847">
        <ele>505</ele>
        <time>2022-07-29T10:59:46Z</time>
      </trkpt>
      <trkpt lat="46.40387" lon="5.64848">
        <ele>505</ele>
        <time>2022-07-29T10:59:47Z</time>
      </trkpt>
      <trkpt lat="46.40381" lon="5.6485">
        <ele>505</ele>
        <time>2022-07-29T10:59:48Z</time>
      </trkpt>
      <trkpt lat="46.40375" lon="5.64853">
        <ele>505</ele>
        <time>2022-07-29T10:59:49Z</time>
      </trkpt>
      <trkpt lat="46.4037" lon="5.64856">
        <ele>505.2</ele>
        <time>2022-07-29T10:59:50Z</time>
      </trkpt>
      <trkpt lat="46.40365" lon="5.6486">
        <ele>505.2</ele>
        <time>2022-07-29T10:59:51Z</time>
      </trkpt>
      <trkpt lat="46.4036" lon="5.64865">
        <ele>505.2</ele>
        <time>2022-07-29T10:59:52Z</time>
      </trkpt>
      <trkpt lat="46.40355" lon="5.6487">
        <ele>505.4</ele>
        <time>2022-07-29T10:59:53Z</time>
      </trkpt>
      <trkpt lat="46.40351" lon="5.64875">
        <ele>505.4</ele>
        <time>2022-07-29T10:59:54Z</time>
      </trkpt>
      <trkpt lat="46.40347" lon="5.64881">
        <ele>505.6</ele>
        <time>2022-07-29T10:59:55Z</time>
      </trkpt>
      <trkpt lat="46.40344" lon="5.64888">
        <ele>505.6</ele>
        <time>2022-07-29T10:59:56Z</time>
      </trkpt>
      <trkpt lat="46.40341" lon="5.64895">
        <ele>506</ele>
        <time>2022-07-29T10:59:57Z</time>
      </trkpt>
      <trkpt lat="46.40339" lon="5.64901">
        <ele>506.4</ele>
        <time>2022-07-29T10:59:58Z</time>
      </trkpt>
      <trkpt lat="46.40337" lon="5.64908">
        <ele>506.6</ele>
        <time>2022-07-29T10:59:59Z</time>
      </trkpt>
      <trkpt lat="46.40336" lon="5.64914">
        <ele>507</ele>
        <time>2022-07-29T11:00:00Z</time>
      </trkpt>
      <trkpt lat="46.40334" lon="5.6492">
        <ele>507.2</ele>
        <time>2022-07-29T11:00:01Z</time>
      </trkpt>
      <trkpt lat="46.40333" lon="5.64926">
        <ele>507.2</ele>
        <time>2022-07-29T11:00:02Z</time>
      </trkpt>
      <trkpt lat="46.40332" lon="5.64931">
        <ele>507.8</ele>
        <time>2022-07-29T11:00:03Z</time>
      </trkpt>
      <trkpt lat="46.4033" lon="5.64935">
        <ele>508</ele>
        <time>2022-07-29T11:00:04Z</time>
      </trkpt>
      <trkpt lat="46.40329" lon="5.6494">
        <ele>508.2</ele>
        <time>2022-07-29T11:00:05Z</time>
      </trkpt>
      <trkpt lat="46.40328" lon="5.64945">
        <ele>508.2</ele>
        <time>2022-07-29T11:00:06Z</time>
      </trkpt>
      <trkpt lat="46.40327" lon="5.6495">
        <ele>508.6</ele>
        <time>2022-07-29T11:00:07Z</time>
      </trkpt>
      <trkpt lat="46.40325" lon="5.64954">
        <ele>508.8</ele>
        <time>2022-07-29T11:00:08Z</time>
      </trkpt>
      <trkpt lat="46.40324" lon="5.64959">
        <ele>509</ele>
        <time>2022-07-29T11:00:09Z</time>
      </trkpt>
      <trkpt lat="46.40322" lon="5.64963">
        <ele>509</ele>
        <time>2022-07-29T11:00:10Z</time>
      </trkpt>
      <trkpt lat="46.4032" lon="5.64968">
        <ele>509.4</ele>
        <time>2022-07-29T11:00:11Z</time>
      </trkpt>
      <trkpt lat="46.40319" lon="5.64973">
        <ele>509.4</ele>
        <time>2022-07-29T11:00:12Z</time>
      </trkpt>
      <trkpt lat="46.40317" lon="5.64977">
        <ele>509.6</ele>
        <time>2022-07-29T11:00:13Z</time>
      </trkpt>
      <trkpt lat="46.40315" lon="5.64982">
        <ele>509.6</ele>
        <time>2022-07-29T11:00:14Z</time>
      </trkpt>
      <trkpt lat="46.40313" lon="5.64987">
        <ele>509.6</ele>
        <time>2022-07-29T11:00:15Z</time>
      </trkpt>
      <trkpt lat="46.40311" lon="5.64993">
        <ele>509.8</ele>
        <time>2022-07-29T11:00:16Z</time>
      </trkpt>
      <trkpt lat="46.40309" lon="5.64998">
        <ele>509.8</ele>
        <time>2022-07-29T11:00:17Z</time>
      </trkpt>
      <trkpt lat="46.40307" lon="5.65003">
        <ele>509.8</ele>
        <time>2022-07-29T11:00:18Z</time>
      </trkpt>
      <trkpt lat="46.40305" lon="5.65008">
        <ele>509.8</ele>
        <time>2022-07-29T11:00:19Z</time>
      </trkpt>
      <trkpt lat="46.40303" lon="5.65014">
        <ele>509.8</ele>
        <time>2022-07-29T11:00:20Z</time>
      </trkpt>
      <trkpt lat="46.403" lon="5.65019">
        <ele>509.8</ele>
        <time>2022-07-29T11:00:21Z</time>
      </trkpt>
      <trkpt lat="46.40298" lon="5.65024">
        <ele>509.6</ele>
        <time>2022-07-29T11:00:22Z</time>
      </trkpt>
      <trkpt lat="46.40296" lon="5.6503">
        <ele>509.6</ele>
        <time>2022-07-29T11:00:23Z</time>
      </trkpt>
      <trkpt lat="46.40294" lon="5.65037">
        <ele>509.4</ele>
        <time>2022-07-29T11:00:24Z</time>
      </trkpt>
      <trkpt lat="46.40292" lon="5.65044">
        <ele>509.4</ele>
        <time>2022-07-29T11:00:25Z</time>
      </trkpt>
      <trkpt lat="46.40291" lon="5.65052">
        <ele>509.2</ele>
        <time>2022-07-29T11:00:26Z</time>
      </trkpt>
      <trkpt lat="46.40289" lon="5.65061">
        <ele>509.2</ele>
        <time>2022-07-29T11:00:27Z</time>
      </trkpt>
      <trkpt lat="46.40287" lon="5.65069">
        <ele>508.8</ele>
        <time>2022-07-29T11:00:28Z</time>
      </trkpt>
      <trkpt lat="46.40286" lon="5.65077">
        <ele>508.8</ele>
        <time>2022-07-29T11:00:29Z</time>
      </trkpt>
      <trkpt lat="46.40284" lon="5.65085">
        <ele>508.8</ele>
        <time>2022-07-29T11:00:30Z</time>
      </trkpt>
      <trkpt lat="46.40282" lon="5.65094">
        <ele>508.4</ele>
        <time>2022-07-29T11:00:31Z</time>
      </trkpt>
      <trkpt lat="46.40281" lon="5.65102">
        <ele>508.4</ele>
        <time>2022-07-29T11:00:32Z</time>
      </trkpt>
      <trkpt lat="46.40279" lon="5.65111">
        <ele>508.2</ele>
        <time>2022-07-29T11:00:33Z</time>
      </trkpt>
      <trkpt lat="46.40277" lon="5.65121">
        <ele>508.2</ele>
        <time>2022-07-29T11:00:34Z</time>
      </trkpt>
      <trkpt lat="46.40275" lon="5.65131">
        <ele>507.8</ele>
        <time>2022-07-29T11:00:35Z</time>
      </trkpt>
      <trkpt lat="46.40273" lon="5.65141">
        <ele>507.8</ele>
        <time>2022-07-29T11:00:36Z</time>
      </trkpt>
      <trkpt lat="46.40271" lon="5.65151">
        <ele>507.4</ele>
        <time>2022-07-29T11:00:37Z</time>
      </trkpt>
      <trkpt lat="46.40269" lon="5.65161">
        <ele>507.4</ele>
        <time>2022-07-29T11:00:38Z</time>
      </trkpt>
      <trkpt lat="46.40266" lon="5.6517">
        <ele>507.2</ele>
        <time>2022-07-29T11:00:39Z</time>
      </trkpt>
      <trkpt lat="46.40264" lon="5.6518">
        <ele>507.2</ele>
        <time>2022-07-29T11:00:40Z</time>
      </trkpt>
      <trkpt lat="46.40263" lon="5.6519">
        <ele>507.2</ele>
        <time>2022-07-29T11:00:41Z</time>
      </trkpt>
      <trkpt lat="46.40263" lon="5.652">
        <ele>507.2</ele>
        <time>2022-07-29T11:00:42Z</time>
      </trkpt>
      <trkpt lat="46.40262" lon="5.65209">
        <ele>507.2</ele>
        <time>2022-07-29T11:00:43Z</time>
      </trkpt>
      <trkpt lat="46.40262" lon="5.65218">
        <ele>507.2</ele>
        <time>2022-07-29T11:00:44Z</time>
      </trkpt>
      <trkpt lat="46.40262" lon="5.65226">
        <ele>507.2</ele>
        <time>2022-07-29T11:00:45Z</time>
      </trkpt>
      <trkpt lat="46.40262" lon="5.65235">
        <ele>507.2</ele>
        <time>2022-07-29T11:00:46Z</time>
      </trkpt>
      <trkpt lat="46.40261" lon="5.65244">
        <ele>507</ele>
        <time>2022-07-29T11:00:47Z</time>
      </trkpt>
      <trkpt lat="46.4026" lon="5.65253">
        <ele>506.8</ele>
        <time>2022-07-29T11:00:48Z</time>
      </trkpt>
      <trkpt lat="46.40259" lon="5.65263">
        <ele>506.4</ele>
        <time>2022-07-29T11:00:49Z</time>
      </trkpt>
      <trkpt lat="46.40257" lon="5.65273">
        <ele>506.2</ele>
        <time>2022-07-29T11:00:50Z</time>
      </trkpt>
      <trkpt lat="46.40254" lon="5.65283">
        <ele>505.8</ele>
        <time>2022-07-29T11:00:51Z</time>
      </trkpt>
      <trkpt lat="46.40251" lon="5.65293">
        <ele>505.2</ele>
        <time>2022-07-29T11:00:52Z</time>
      </trkpt>
      <trkpt lat="46.40248" lon="5.65304">
        <ele>504.8</ele>
        <time>2022-07-29T11:00:53Z</time>
      </trkpt>
      <trkpt lat="46.40245" lon="5.65315">
        <ele>504</ele>
        <time>2022-07-29T11:00:54Z</time>
      </trkpt>
      <trkpt lat="46.4024" lon="5.65326">
        <ele>503.4</ele>
        <time>2022-07-29T11:00:55Z</time>
      </trkpt>
      <trkpt lat="46.40235" lon="5.65337">
        <ele>503</ele>
        <time>2022-07-29T11:00:56Z</time>
      </trkpt>
      <trkpt lat="46.40229" lon="5.65348">
        <ele>502.6</ele>
        <time>2022-07-29T11:00:57Z</time>
      </trkpt>
      <trkpt lat="46.40223" lon="5.65358">
        <ele>502.2</ele>
        <time>2022-07-29T11:00:58Z</time>
      </trkpt>
      <trkpt lat="46.40217" lon="5.65367">
        <ele>501.8</ele>
        <time>2022-07-29T11:00:59Z</time>
      </trkpt>
      <trkpt lat="46.40211" lon="5.65377">
        <ele>501.6</ele>
        <time>2022-07-29T11:01:00Z</time>
      </trkpt>
      <trkpt lat="46.40205" lon="5.65387">
        <ele>501.6</ele>
        <time>2022-07-29T11:01:01Z</time>
      </trkpt>
      <trkpt lat="46.40199" lon="5.65396">
        <ele>501.2</ele>
        <time>2022-07-29T11:01:02Z</time>
      </trkpt>
      <trkpt lat="46.40193" lon="5.65406">
        <ele>501.2</ele>
        <time>2022-07-29T11:01:03Z</time>
      </trkpt>
      <trkpt lat="46.40188" lon="5.65416">
        <ele>501.2</ele>
        <time>2022-07-29T11:01:04Z</time>
      </trkpt>
      <trkpt lat="46.40182" lon="5.65426">
        <ele>501</ele>
        <time>2022-07-29T11:01:05Z</time>
      </trkpt>
      <trkpt lat="46.40176" lon="5.65435">
        <ele>501</ele>
        <time>2022-07-29T11:01:06Z</time>
      </trkpt>
      <trkpt lat="46.4017" lon="5.65444">
        <ele>501</ele>
        <time>2022-07-29T11:01:07Z</time>
      </trkpt>
      <trkpt lat="46.40164" lon="5.65453">
        <ele>500.8</ele>
        <time>2022-07-29T11:01:08Z</time>
      </trkpt>
      <trkpt lat="46.40157" lon="5.65461">
        <ele>500.8</ele>
        <time>2022-07-29T11:01:09Z</time>
      </trkpt>
      <trkpt lat="46.4015" lon="5.65469">
        <ele>500.4</ele>
        <time>2022-07-29T11:01:10Z</time>
      </trkpt>
      <trkpt lat="46.40143" lon="5.65476">
        <ele>500.2</ele>
        <time>2022-07-29T11:01:11Z</time>
      </trkpt>
      <trkpt lat="46.40136" lon="5.65484">
        <ele>500</ele>
        <time>2022-07-29T11:01:12Z</time>
      </trkpt>
      <trkpt lat="46.40129" lon="5.65491">
        <ele>499.8</ele>
        <time>2022-07-29T11:01:13Z</time>
      </trkpt>
      <trkpt lat="46.40122" lon="5.65499">
        <ele>499.6</ele>
        <time>2022-07-29T11:01:14Z</time>
      </trkpt>
      <trkpt lat="46.40115" lon="5.65507">
        <ele>499.4</ele>
        <time>2022-07-29T11:01:15Z</time>
      </trkpt>
      <trkpt lat="46.40108" lon="5.65515">
        <ele>499.4</ele>
        <time>2022-07-29T11:01:16Z</time>
      </trkpt>
      <trkpt lat="46.40102" lon="5.65523">
        <ele>499</ele>
        <time>2022-07-29T11:01:17Z</time>
      </trkpt>
      <trkpt lat="46.40095" lon="5.65531">
        <ele>499</ele>
        <time>2022-07-29T11:01:18Z</time>
      </trkpt>
      <trkpt lat="46.40089" lon="5.65539">
        <ele>499</ele>
        <time>2022-07-29T11:01:19Z</time>
      </trkpt>
      <trkpt lat="46.40083" lon="5.65546">
        <ele>499</ele>
        <time>2022-07-29T11:01:20Z</time>
      </trkpt>
      <trkpt lat="46.40071" lon="5.65562">
        <ele>498.6</ele>
        <time>2022-07-29T11:01:21Z</time>
      </trkpt>
      <trkpt lat="46.40066" lon="5.6557">
        <ele>498.6</ele>
        <time>2022-07-29T11:01:22Z</time>
      </trkpt>
      <trkpt lat="46.4006" lon="5.65578">
        <ele>498.6</ele>
        <time>2022-07-29T11:01:23Z</time>
      </trkpt>
      <trkpt lat="46.40055" lon="5.65586">
        <ele>498.4</ele>
        <time>2022-07-29T11:01:24Z</time>
      </trkpt>
      <trkpt lat="46.40049" lon="5.65594">
        <ele>498.4</ele>
        <time>2022-07-29T11:01:25Z</time>
      </trkpt>
      <trkpt lat="46.40044" lon="5.65602">
        <ele>498.4</ele>
        <time>2022-07-29T11:01:26Z</time>
      </trkpt>
      <trkpt lat="46.40038" lon="5.6561">
        <ele>498.4</ele>
        <time>2022-07-29T11:01:27Z</time>
      </trkpt>
      <trkpt lat="46.40033" lon="5.65617">
        <ele>498.4</ele>
        <time>2022-07-29T11:01:28Z</time>
      </trkpt>
      <trkpt lat="46.40027" lon="5.65625">
        <ele>498.4</ele>
        <time>2022-07-29T11:01:29Z</time>
      </trkpt>
      <trkpt lat="46.40022" lon="5.65633">
        <ele>498.4</ele>
        <time>2022-07-29T11:01:30Z</time>
      </trkpt>
      <trkpt lat="46.40017" lon="5.6564">
        <ele>498.2</ele>
        <time>2022-07-29T11:01:31Z</time>
      </trkpt>
      <trkpt lat="46.40012" lon="5.65648">
        <ele>498.2</ele>
        <time>2022-07-29T11:01:32Z</time>
      </trkpt>
      <trkpt lat="46.40007" lon="5.65656">
        <ele>498.2</ele>
        <time>2022-07-29T11:01:33Z</time>
      </trkpt>
      <trkpt lat="46.40003" lon="5.65664">
        <ele>498.4</ele>
        <time>2022-07-29T11:01:34Z</time>
      </trkpt>
      <trkpt lat="46.4" lon="5.65672">
        <ele>498.4</ele>
        <time>2022-07-29T11:01:35Z</time>
      </trkpt>
      <trkpt lat="46.39996" lon="5.6568">
        <ele>498.4</ele>
        <time>2022-07-29T11:01:36Z</time>
      </trkpt>
      <trkpt lat="46.39994" lon="5.65689">
        <ele>498.4</ele>
        <time>2022-07-29T11:01:37Z</time>
      </trkpt>
      <trkpt lat="46.39991" lon="5.65698">
        <ele>498.4</ele>
        <time>2022-07-29T11:01:38Z</time>
      </trkpt>
      <trkpt lat="46.39989" lon="5.65708">
        <ele>498</ele>
        <time>2022-07-29T11:01:39Z</time>
      </trkpt>
      <trkpt lat="46.39987" lon="5.65717">
        <ele>498</ele>
        <time>2022-07-29T11:01:40Z</time>
      </trkpt>
      <trkpt lat="46.39984" lon="5.65727">
        <ele>497.8</ele>
        <time>2022-07-29T11:01:41Z</time>
      </trkpt>
      <trkpt lat="46.39982" lon="5.65737">
        <ele>497.4</ele>
        <time>2022-07-29T11:01:42Z</time>
      </trkpt>
      <trkpt lat="46.3998" lon="5.65748">
        <ele>497.2</ele>
        <time>2022-07-29T11:01:43Z</time>
      </trkpt>
      <trkpt lat="46.39977" lon="5.65758">
        <ele>497</ele>
        <time>2022-07-29T11:01:44Z</time>
      </trkpt>
      <trkpt lat="46.39973" lon="5.65768">
        <ele>496.6</ele>
        <time>2022-07-29T11:01:45Z</time>
      </trkpt>
      <trkpt lat="46.39968" lon="5.65778">
        <ele>496.2</ele>
        <time>2022-07-29T11:01:46Z</time>
      </trkpt>
      <trkpt lat="46.39963" lon="5.65787">
        <ele>495.8</ele>
        <time>2022-07-29T11:01:47Z</time>
      </trkpt>
      <trkpt lat="46.39956" lon="5.65797">
        <ele>495.2</ele>
        <time>2022-07-29T11:01:48Z</time>
      </trkpt>
      <trkpt lat="46.39949" lon="5.65806">
        <ele>494.6</ele>
        <time>2022-07-29T11:01:49Z</time>
      </trkpt>
      <trkpt lat="46.39941" lon="5.65815">
        <ele>493.8</ele>
        <time>2022-07-29T11:01:50Z</time>
      </trkpt>
      <trkpt lat="46.39933" lon="5.65824">
        <ele>493.2</ele>
        <time>2022-07-29T11:01:51Z</time>
      </trkpt>
      <trkpt lat="46.39925" lon="5.65832">
        <ele>492.2</ele>
        <time>2022-07-29T11:01:52Z</time>
      </trkpt>
      <trkpt lat="46.39916" lon="5.65841">
        <ele>491.4</ele>
        <time>2022-07-29T11:01:53Z</time>
      </trkpt>
      <trkpt lat="46.39907" lon="5.65849">
        <ele>490.6</ele>
        <time>2022-07-29T11:01:54Z</time>
      </trkpt>
      <trkpt lat="46.39898" lon="5.65857">
        <ele>489.6</ele>
        <time>2022-07-29T11:01:55Z</time>
      </trkpt>
      <trkpt lat="46.39888" lon="5.65868">
        <ele>488.8</ele>
        <time>2022-07-29T11:01:56Z</time>
      </trkpt>
      <trkpt lat="46.39879" lon="5.6588">
        <ele>487.8</ele>
        <time>2022-07-29T11:01:57Z</time>
      </trkpt>
      <trkpt lat="46.39871" lon="5.65894">
        <ele>487</ele>
        <time>2022-07-29T11:01:58Z</time>
      </trkpt>
      <trkpt lat="46.39867" lon="5.65907">
        <ele>486.2</ele>
        <time>2022-07-29T11:01:59Z</time>
      </trkpt>
      <trkpt lat="46.39863" lon="5.65923">
        <ele>485.6</ele>
        <time>2022-07-29T11:02:00Z</time>
      </trkpt>
      <trkpt lat="46.39861" lon="5.65939">
        <ele>484.8</ele>
        <time>2022-07-29T11:02:01Z</time>
      </trkpt>
      <trkpt lat="46.39859" lon="5.65955">
        <ele>484.2</ele>
        <time>2022-07-29T11:02:02Z</time>
      </trkpt>
      <trkpt lat="46.39859" lon="5.65971">
        <ele>483.6</ele>
        <time>2022-07-29T11:02:03Z</time>
      </trkpt>
      <trkpt lat="46.39858" lon="5.65988">
        <ele>483</ele>
        <time>2022-07-29T11:02:04Z</time>
      </trkpt>
      <trkpt lat="46.39856" lon="5.66005">
        <ele>482.4</ele>
        <time>2022-07-29T11:02:05Z</time>
      </trkpt>
      <trkpt lat="46.39855" lon="5.66023">
        <ele>481.8</ele>
        <time>2022-07-29T11:02:06Z</time>
      </trkpt>
      <trkpt lat="46.39854" lon="5.6604">
        <ele>481.4</ele>
        <time>2022-07-29T11:02:07Z</time>
      </trkpt>
      <trkpt lat="46.39853" lon="5.66057">
        <ele>481</ele>
        <time>2022-07-29T11:02:08Z</time>
      </trkpt>
      <trkpt lat="46.39853" lon="5.66073">
        <ele>480.8</ele>
        <time>2022-07-29T11:02:09Z</time>
      </trkpt>
      <trkpt lat="46.39853" lon="5.66088">
        <ele>480.8</ele>
        <time>2022-07-29T11:02:10Z</time>
      </trkpt>
      <trkpt lat="46.39854" lon="5.66102">
        <ele>480.8</ele>
        <time>2022-07-29T11:02:11Z</time>
      </trkpt>
      <trkpt lat="46.39855" lon="5.66116">
        <ele>481</ele>
        <time>2022-07-29T11:02:12Z</time>
      </trkpt>
      <trkpt lat="46.39857" lon="5.66128">
        <ele>481.4</ele>
        <time>2022-07-29T11:02:13Z</time>
      </trkpt>
      <trkpt lat="46.3986" lon="5.6614">
        <ele>481.4</ele>
        <time>2022-07-29T11:02:14Z</time>
      </trkpt>
      <trkpt lat="46.39862" lon="5.66151">
        <ele>481.8</ele>
        <time>2022-07-29T11:02:15Z</time>
      </trkpt>
      <trkpt lat="46.39865" lon="5.66162">
        <ele>482</ele>
        <time>2022-07-29T11:02:16Z</time>
      </trkpt>
      <trkpt lat="46.39869" lon="5.66171">
        <ele>482.4</ele>
        <time>2022-07-29T11:02:17Z</time>
      </trkpt>
      <trkpt lat="46.39872" lon="5.6618">
        <ele>482.6</ele>
        <time>2022-07-29T11:02:18Z</time>
      </trkpt>
      <trkpt lat="46.39876" lon="5.66189">
        <ele>483</ele>
        <time>2022-07-29T11:02:19Z</time>
      </trkpt>
      <trkpt lat="46.39879" lon="5.66196">
        <ele>483.2</ele>
        <time>2022-07-29T11:02:20Z</time>
      </trkpt>
      <trkpt lat="46.39883" lon="5.66204">
        <ele>483.6</ele>
        <time>2022-07-29T11:02:21Z</time>
      </trkpt>
      <trkpt lat="46.39887" lon="5.6621">
        <ele>483.8</ele>
        <time>2022-07-29T11:02:22Z</time>
      </trkpt>
      <trkpt lat="46.3989" lon="5.66217">
        <ele>484</ele>
        <time>2022-07-29T11:02:23Z</time>
      </trkpt>
      <trkpt lat="46.39894" lon="5.66223">
        <ele>484.4</ele>
        <time>2022-07-29T11:02:24Z</time>
      </trkpt>
      <trkpt lat="46.39897" lon="5.66229">
        <ele>484.6</ele>
        <time>2022-07-29T11:02:25Z</time>
      </trkpt>
      <trkpt lat="46.399" lon="5.66235">
        <ele>484.8</ele>
        <time>2022-07-29T11:02:26Z</time>
      </trkpt>
      <trkpt lat="46.39903" lon="5.66241">
        <ele>485</ele>
        <time>2022-07-29T11:02:27Z</time>
      </trkpt>
      <trkpt lat="46.39906" lon="5.66247">
        <ele>485.4</ele>
        <time>2022-07-29T11:02:28Z</time>
      </trkpt>
      <trkpt lat="46.39908" lon="5.66253">
        <ele>485.4</ele>
        <time>2022-07-29T11:02:29Z</time>
      </trkpt>
      <trkpt lat="46.39911" lon="5.66259">
        <ele>485.6</ele>
        <time>2022-07-29T11:02:30Z</time>
      </trkpt>
      <trkpt lat="46.39913" lon="5.66265">
        <ele>485.6</ele>
        <time>2022-07-29T11:02:31Z</time>
      </trkpt>
      <trkpt lat="46.39916" lon="5.66271">
        <ele>485.8</ele>
        <time>2022-07-29T11:02:32Z</time>
      </trkpt>
      <trkpt lat="46.39918" lon="5.66276">
        <ele>485.8</ele>
        <time>2022-07-29T11:02:33Z</time>
      </trkpt>
      <trkpt lat="46.3992" lon="5.66282">
        <ele>486.2</ele>
        <time>2022-07-29T11:02:34Z</time>
      </trkpt>
      <trkpt lat="46.39922" lon="5.66287">
        <ele>486.2</ele>
        <time>2022-07-29T11:02:35Z</time>
      </trkpt>
      <trkpt lat="46.39924" lon="5.66292">
        <ele>486.2</ele>
        <time>2022-07-29T11:02:36Z</time>
      </trkpt>
      <trkpt lat="46.39926" lon="5.66298">
        <ele>486.6</ele>
        <time>2022-07-29T11:02:37Z</time>
      </trkpt>
      <trkpt lat="46.39928" lon="5.66302">
        <ele>486.6</ele>
        <time>2022-07-29T11:02:38Z</time>
      </trkpt>
      <trkpt lat="46.39931" lon="5.66307">
        <ele>486.8</ele>
        <time>2022-07-29T11:02:39Z</time>
      </trkpt>
      <trkpt lat="46.39933" lon="5.66312">
        <ele>486.8</ele>
        <time>2022-07-29T11:02:40Z</time>
      </trkpt>
      <trkpt lat="46.39935" lon="5.66317">
        <ele>487</ele>
        <time>2022-07-29T11:02:41Z</time>
      </trkpt>
      <trkpt lat="46.39937" lon="5.66322">
        <ele>487</ele>
        <time>2022-07-29T11:02:42Z</time>
      </trkpt>
      <trkpt lat="46.39939" lon="5.66327">
        <ele>487</ele>
        <time>2022-07-29T11:02:43Z</time>
      </trkpt>
      <trkpt lat="46.39941" lon="5.66332">
        <ele>487.4</ele>
        <time>2022-07-29T11:02:44Z</time>
      </trkpt>
      <trkpt lat="46.39944" lon="5.66337">
        <ele>487.4</ele>
        <time>2022-07-29T11:02:45Z</time>
      </trkpt>
      <trkpt lat="46.39945" lon="5.66342">
        <ele>487.6</ele>
        <time>2022-07-29T11:02:46Z</time>
      </trkpt>
      <trkpt lat="46.39948" lon="5.66347">
        <ele>487.6</ele>
        <time>2022-07-29T11:02:47Z</time>
      </trkpt>
      <trkpt lat="46.3995" lon="5.66351">
        <ele>487.6</ele>
        <time>2022-07-29T11:02:48Z</time>
      </trkpt>
      <trkpt lat="46.39952" lon="5.66356">
        <ele>487.8</ele>
        <time>2022-07-29T11:02:49Z</time>
      </trkpt>
      <trkpt lat="46.39954" lon="5.66361">
        <ele>487.8</ele>
        <time>2022-07-29T11:02:50Z</time>
      </trkpt>
      <trkpt lat="46.39957" lon="5.66366">
        <ele>488</ele>
        <time>2022-07-29T11:02:51Z</time>
      </trkpt>
      <trkpt lat="46.39959" lon="5.66371">
        <ele>488</ele>
        <time>2022-07-29T11:02:52Z</time>
      </trkpt>
      <trkpt lat="46.39961" lon="5.66376">
        <ele>488</ele>
        <time>2022-07-29T11:02:53Z</time>
      </trkpt>
      <trkpt lat="46.39963" lon="5.66381">
        <ele>488.4</ele>
        <time>2022-07-29T11:02:54Z</time>
      </trkpt>
      <trkpt lat="46.39965" lon="5.66386">
        <ele>488.4</ele>
        <time>2022-07-29T11:02:55Z</time>
      </trkpt>
      <trkpt lat="46.39968" lon="5.66391">
        <ele>488.4</ele>
        <time>2022-07-29T11:02:56Z</time>
      </trkpt>
      <trkpt lat="46.3997" lon="5.66396">
        <ele>488.4</ele>
        <time>2022-07-29T11:02:57Z</time>
      </trkpt>
      <trkpt lat="46.39973" lon="5.66401">
        <ele>488.6</ele>
        <time>2022-07-29T11:02:58Z</time>
      </trkpt>
      <trkpt lat="46.39975" lon="5.66406">
        <ele>488.6</ele>
        <time>2022-07-29T11:02:59Z</time>
      </trkpt>
      <trkpt lat="46.39977" lon="5.66411">
        <ele>488.6</ele>
        <time>2022-07-29T11:03:00Z</time>
      </trkpt>
      <trkpt lat="46.3998" lon="5.66416">
        <ele>488.6</ele>
        <time>2022-07-29T11:03:01Z</time>
      </trkpt>
      <trkpt lat="46.39983" lon="5.66421">
        <ele>488.8</ele>
        <time>2022-07-29T11:03:02Z</time>
      </trkpt>
      <trkpt lat="46.39985" lon="5.66427">
        <ele>488.8</ele>
        <time>2022-07-29T11:03:03Z</time>
      </trkpt>
      <trkpt lat="46.39988" lon="5.66432">
        <ele>488.8</ele>
        <time>2022-07-29T11:03:04Z</time>
      </trkpt>
      <trkpt lat="46.39992" lon="5.66438">
        <ele>488.6</ele>
        <time>2022-07-29T11:03:05Z</time>
      </trkpt>
      <trkpt lat="46.39995" lon="5.66444">
        <ele>488.6</ele>
        <time>2022-07-29T11:03:06Z</time>
      </trkpt>
      <trkpt lat="46.39999" lon="5.66451">
        <ele>488.2</ele>
        <time>2022-07-29T11:03:07Z</time>
      </trkpt>
      <trkpt lat="46.40003" lon="5.66458">
        <ele>488</ele>
        <time>2022-07-29T11:03:08Z</time>
      </trkpt>
      <trkpt lat="46.40008" lon="5.66465">
        <ele>487.6</ele>
        <time>2022-07-29T11:03:09Z</time>
      </trkpt>
      <trkpt lat="46.40013" lon="5.66472">
        <ele>487.4</ele>
        <time>2022-07-29T11:03:10Z</time>
      </trkpt>
      <trkpt lat="46.40018" lon="5.6648">
        <ele>487</ele>
        <time>2022-07-29T11:03:11Z</time>
      </trkpt>
      <trkpt lat="46.40023" lon="5.66488">
        <ele>486.6</ele>
        <time>2022-07-29T11:03:12Z</time>
      </trkpt>
      <trkpt lat="46.40029" lon="5.66496">
        <ele>486.2</ele>
        <time>2022-07-29T11:03:13Z</time>
      </trkpt>
      <trkpt lat="46.40034" lon="5.66505">
        <ele>486</ele>
        <time>2022-07-29T11:03:14Z</time>
      </trkpt>
      <trkpt lat="46.4004" lon="5.66513">
        <ele>485.6</ele>
        <time>2022-07-29T11:03:15Z</time>
      </trkpt>
      <trkpt lat="46.40046" lon="5.66522">
        <ele>485.2</ele>
        <time>2022-07-29T11:03:16Z</time>
      </trkpt>
      <trkpt lat="46.40052" lon="5.66531">
        <ele>484.8</ele>
        <time>2022-07-29T11:03:17Z</time>
      </trkpt>
      <trkpt lat="46.40058" lon="5.66541">
        <ele>484.4</ele>
        <time>2022-07-29T11:03:18Z</time>
      </trkpt>
      <trkpt lat="46.40065" lon="5.6655">
        <ele>484.2</ele>
        <time>2022-07-29T11:03:19Z</time>
      </trkpt>
      <trkpt lat="46.40071" lon="5.66559">
        <ele>484</ele>
        <time>2022-07-29T11:03:20Z</time>
      </trkpt>
      <trkpt lat="46.40078" lon="5.66569">
        <ele>483.6</ele>
        <time>2022-07-29T11:03:21Z</time>
      </trkpt>
      <trkpt lat="46.40085" lon="5.66578">
        <ele>483.2</ele>
        <time>2022-07-29T11:03:22Z</time>
      </trkpt>
      <trkpt lat="46.40091" lon="5.66587">
        <ele>482.8</ele>
        <time>2022-07-29T11:03:23Z</time>
      </trkpt>
      <trkpt lat="46.40098" lon="5.66597">
        <ele>482.6</ele>
        <time>2022-07-29T11:03:24Z</time>
      </trkpt>
      <trkpt lat="46.40104" lon="5.66606">
        <ele>482.4</ele>
        <time>2022-07-29T11:03:25Z</time>
      </trkpt>
      <trkpt lat="46.4011" lon="5.66615">
        <ele>482.4</ele>
        <time>2022-07-29T11:03:26Z</time>
      </trkpt>
      <trkpt lat="46.40117" lon="5.66624">
        <ele>482</ele>
        <time>2022-07-29T11:03:27Z</time>
      </trkpt>
      <trkpt lat="46.40123" lon="5.66633">
        <ele>482</ele>
        <time>2022-07-29T11:03:28Z</time>
      </trkpt>
      <trkpt lat="46.40129" lon="5.66642">
        <ele>481.8</ele>
        <time>2022-07-29T11:03:29Z</time>
      </trkpt>
      <trkpt lat="46.40135" lon="5.66651">
        <ele>481.6</ele>
        <time>2022-07-29T11:03:30Z</time>
      </trkpt>
      <trkpt lat="46.40141" lon="5.6666">
        <ele>481.6</ele>
        <time>2022-07-29T11:03:31Z</time>
      </trkpt>
      <trkpt lat="46.40146" lon="5.66669">
        <ele>481.2</ele>
        <time>2022-07-29T11:03:32Z</time>
      </trkpt>
      <trkpt lat="46.40152" lon="5.66678">
        <ele>481</ele>
        <time>2022-07-29T11:03:33Z</time>
      </trkpt>
      <trkpt lat="46.40158" lon="5.66687">
        <ele>480.8</ele>
        <time>2022-07-29T11:03:34Z</time>
      </trkpt>
      <trkpt lat="46.40164" lon="5.66696">
        <ele>480.8</ele>
        <time>2022-07-29T11:03:35Z</time>
      </trkpt>
      <trkpt lat="46.4017" lon="5.66705">
        <ele>480.2</ele>
        <time>2022-07-29T11:03:36Z</time>
      </trkpt>
      <trkpt lat="46.40176" lon="5.66714">
        <ele>480</ele>
        <time>2022-07-29T11:03:37Z</time>
      </trkpt>
      <trkpt lat="46.40183" lon="5.66723">
        <ele>479.8</ele>
        <time>2022-07-29T11:03:38Z</time>
      </trkpt>
      <trkpt lat="46.40189" lon="5.66732">
        <ele>479.6</ele>
        <time>2022-07-29T11:03:39Z</time>
      </trkpt>
      <trkpt lat="46.40195" lon="5.66741">
        <ele>479.6</ele>
        <time>2022-07-29T11:03:40Z</time>
      </trkpt>
      <trkpt lat="46.40201" lon="5.6675">
        <ele>479.2</ele>
        <time>2022-07-29T11:03:41Z</time>
      </trkpt>
      <trkpt lat="46.40208" lon="5.66759">
        <ele>479.2</ele>
        <time>2022-07-29T11:03:42Z</time>
      </trkpt>
      <trkpt lat="46.40214" lon="5.66767">
        <ele>479.2</ele>
        <time>2022-07-29T11:03:43Z</time>
      </trkpt>
      <trkpt lat="46.40221" lon="5.66774">
        <ele>479</ele>
        <time>2022-07-29T11:03:44Z</time>
      </trkpt>
      <trkpt lat="46.40228" lon="5.6678">
        <ele>479</ele>
        <time>2022-07-29T11:03:45Z</time>
      </trkpt>
      <trkpt lat="46.40235" lon="5.66785">
        <ele>479</ele>
        <time>2022-07-29T11:03:46Z</time>
      </trkpt>
      <trkpt lat="46.40243" lon="5.66789">
        <ele>479</ele>
        <time>2022-07-29T11:03:47Z</time>
      </trkpt>
      <trkpt lat="46.4025" lon="5.66793">
        <ele>478.8</ele>
        <time>2022-07-29T11:03:48Z</time>
      </trkpt>
      <trkpt lat="46.40257" lon="5.66796">
        <ele>478.8</ele>
        <time>2022-07-29T11:03:49Z</time>
      </trkpt>
      <trkpt lat="46.40265" lon="5.66798">
        <ele>478.4</ele>
        <time>2022-07-29T11:03:50Z</time>
      </trkpt>
      <trkpt lat="46.40273" lon="5.668">
        <ele>478.2</ele>
        <time>2022-07-29T11:03:51Z</time>
      </trkpt>
      <trkpt lat="46.40281" lon="5.66801">
        <ele>477.8</ele>
        <time>2022-07-29T11:03:52Z</time>
      </trkpt>
      <trkpt lat="46.40289" lon="5.66801">
        <ele>477.4</ele>
        <time>2022-07-29T11:03:53Z</time>
      </trkpt>
      <trkpt lat="46.40298" lon="5.66802">
        <ele>477</ele>
        <time>2022-07-29T11:03:54Z</time>
      </trkpt>
      <trkpt lat="46.40305" lon="5.66804">
        <ele>476.6</ele>
        <time>2022-07-29T11:03:55Z</time>
      </trkpt>
      <trkpt lat="46.40313" lon="5.6681">
        <ele>476.4</ele>
        <time>2022-07-29T11:03:56Z</time>
      </trkpt>
      <trkpt lat="46.4032" lon="5.66817">
        <ele>475.8</ele>
        <time>2022-07-29T11:03:57Z</time>
      </trkpt>
      <trkpt lat="46.40325" lon="5.66826">
        <ele>475.4</ele>
        <time>2022-07-29T11:03:58Z</time>
      </trkpt>
      <trkpt lat="46.40329" lon="5.66837">
        <ele>475</ele>
        <time>2022-07-29T11:03:59Z</time>
      </trkpt>
      <trkpt lat="46.4033" lon="5.66849">
        <ele>474.8</ele>
        <time>2022-07-29T11:04:00Z</time>
      </trkpt>
      <trkpt lat="46.40328" lon="5.66861">
        <ele>474.4</ele>
        <time>2022-07-29T11:04:01Z</time>
      </trkpt>
      <trkpt lat="46.40325" lon="5.66872">
        <ele>474</ele>
        <time>2022-07-29T11:04:02Z</time>
      </trkpt>
      <trkpt lat="46.40319" lon="5.66881">
        <ele>473.6</ele>
        <time>2022-07-29T11:04:03Z</time>
      </trkpt>
      <trkpt lat="46.40312" lon="5.66888">
        <ele>473</ele>
        <time>2022-07-29T11:04:04Z</time>
      </trkpt>
      <trkpt lat="46.40304" lon="5.66892">
        <ele>472.6</ele>
        <time>2022-07-29T11:04:05Z</time>
      </trkpt>
      <trkpt lat="46.40294" lon="5.66893">
        <ele>472</ele>
        <time>2022-07-29T11:04:06Z</time>
      </trkpt>
      <trkpt lat="46.40284" lon="5.66893">
        <ele>471.6</ele>
        <time>2022-07-29T11:04:07Z</time>
      </trkpt>
      <trkpt lat="46.40274" lon="5.66888">
        <ele>471.2</ele>
        <time>2022-07-29T11:04:08Z</time>
      </trkpt>
      <trkpt lat="46.40264" lon="5.66881">
        <ele>470.6</ele>
        <time>2022-07-29T11:04:09Z</time>
      </trkpt>
      <trkpt lat="46.40255" lon="5.66872">
        <ele>470</ele>
        <time>2022-07-29T11:04:10Z</time>
      </trkpt>
      <trkpt lat="46.40247" lon="5.66862">
        <ele>469.4</ele>
        <time>2022-07-29T11:04:11Z</time>
      </trkpt>
      <trkpt lat="46.40238" lon="5.66852">
        <ele>468.6</ele>
        <time>2022-07-29T11:04:12Z</time>
      </trkpt>
      <trkpt lat="46.4023" lon="5.66843">
        <ele>468</ele>
        <time>2022-07-29T11:04:13Z</time>
      </trkpt>
      <trkpt lat="46.40222" lon="5.66833">
        <ele>467.6</ele>
        <time>2022-07-29T11:04:14Z</time>
      </trkpt>
      <trkpt lat="46.40213" lon="5.66824">
        <ele>467</ele>
        <time>2022-07-29T11:04:15Z</time>
      </trkpt>
      <trkpt lat="46.40204" lon="5.66815">
        <ele>466.4</ele>
        <time>2022-07-29T11:04:16Z</time>
      </trkpt>
      <trkpt lat="46.40196" lon="5.66806">
        <ele>465.6</ele>
        <time>2022-07-29T11:04:17Z</time>
      </trkpt>
      <trkpt lat="46.40186" lon="5.66796">
        <ele>465</ele>
        <time>2022-07-29T11:04:18Z</time>
      </trkpt>
      <trkpt lat="46.40177" lon="5.66787">
        <ele>464.4</ele>
        <time>2022-07-29T11:04:19Z</time>
      </trkpt>
      <trkpt lat="46.40168" lon="5.66777">
        <ele>463.8</ele>
        <time>2022-07-29T11:04:20Z</time>
      </trkpt>
      <trkpt lat="46.40159" lon="5.66768">
        <ele>463</ele>
        <time>2022-07-29T11:04:21Z</time>
      </trkpt>
      <trkpt lat="46.4015" lon="5.66758">
        <ele>462.4</ele>
        <time>2022-07-29T11:04:22Z</time>
      </trkpt>
      <trkpt lat="46.40141" lon="5.66748">
        <ele>461.6</ele>
        <time>2022-07-29T11:04:23Z</time>
      </trkpt>
      <trkpt lat="46.40131" lon="5.66738">
        <ele>460.8</ele>
        <time>2022-07-29T11:04:24Z</time>
      </trkpt>
      <trkpt lat="46.40122" lon="5.66728">
        <ele>460</ele>
        <time>2022-07-29T11:04:25Z</time>
      </trkpt>
      <trkpt lat="46.40112" lon="5.66718">
        <ele>459.4</ele>
        <time>2022-07-29T11:04:26Z</time>
      </trkpt>
      <trkpt lat="46.40102" lon="5.66708">
        <ele>458.6</ele>
        <time>2022-07-29T11:04:27Z</time>
      </trkpt>
      <trkpt lat="46.40093" lon="5.66697">
        <ele>457.8</ele>
        <time>2022-07-29T11:04:28Z</time>
      </trkpt>
      <trkpt lat="46.40083" lon="5.66687">
        <ele>457</ele>
        <time>2022-07-29T11:04:29Z</time>
      </trkpt>
      <trkpt lat="46.40073" lon="5.66676">
        <ele>456.2</ele>
        <time>2022-07-29T11:04:30Z</time>
      </trkpt>
      <trkpt lat="46.40063" lon="5.66666">
        <ele>455.6</ele>
        <time>2022-07-29T11:04:31Z</time>
      </trkpt>
      <trkpt lat="46.40053" lon="5.66655">
        <ele>454.8</ele>
        <time>2022-07-29T11:04:32Z</time>
      </trkpt>
      <trkpt lat="46.40043" lon="5.66644">
        <ele>454</ele>
        <time>2022-07-29T11:04:33Z</time>
      </trkpt>
      <trkpt lat="46.40033" lon="5.66634">
        <ele>453.4</ele>
        <time>2022-07-29T11:04:34Z</time>
      </trkpt>
      <trkpt lat="46.40023" lon="5.66624">
        <ele>452.6</ele>
        <time>2022-07-29T11:04:35Z</time>
      </trkpt>
      <trkpt lat="46.40013" lon="5.66614">
        <ele>452</ele>
        <time>2022-07-29T11:04:36Z</time>
      </trkpt>
      <trkpt lat="46.40003" lon="5.66605">
        <ele>451.4</ele>
        <time>2022-07-29T11:04:37Z</time>
      </trkpt>
      <trkpt lat="46.39992" lon="5.66597">
        <ele>451</ele>
        <time>2022-07-29T11:04:38Z</time>
      </trkpt>
      <trkpt lat="46.39982" lon="5.66587">
        <ele>450.4</ele>
        <time>2022-07-29T11:04:39Z</time>
      </trkpt>
      <trkpt lat="46.39972" lon="5.66577">
        <ele>449.6</ele>
        <time>2022-07-29T11:04:40Z</time>
      </trkpt>
      <trkpt lat="46.39964" lon="5.66566">
        <ele>449</ele>
        <time>2022-07-29T11:04:41Z</time>
      </trkpt>
      <trkpt lat="46.39956" lon="5.66556">
        <ele>448.4</ele>
        <time>2022-07-29T11:04:42Z</time>
      </trkpt>
      <trkpt lat="46.3995" lon="5.66544">
        <ele>447.8</ele>
        <time>2022-07-29T11:04:43Z</time>
      </trkpt>
      <trkpt lat="46.39943" lon="5.66533">
        <ele>447.2</ele>
        <time>2022-07-29T11:04:44Z</time>
      </trkpt>
      <trkpt lat="46.39936" lon="5.6652">
        <ele>446.6</ele>
        <time>2022-07-29T11:04:45Z</time>
      </trkpt>
      <trkpt lat="46.39929" lon="5.66507">
        <ele>446</ele>
        <time>2022-07-29T11:04:46Z</time>
      </trkpt>
      <trkpt lat="46.39922" lon="5.66495">
        <ele>445.4</ele>
        <time>2022-07-29T11:04:47Z</time>
      </trkpt>
      <trkpt lat="46.39915" lon="5.66482">
        <ele>444.8</ele>
        <time>2022-07-29T11:04:48Z</time>
      </trkpt>
      <trkpt lat="46.39907" lon="5.66469">
        <ele>444</ele>
        <time>2022-07-29T11:04:49Z</time>
      </trkpt>
      <trkpt lat="46.39899" lon="5.66457">
        <ele>443.2</ele>
        <time>2022-07-29T11:04:50Z</time>
      </trkpt>
      <trkpt lat="46.39891" lon="5.66445">
        <ele>442.4</ele>
        <time>2022-07-29T11:04:51Z</time>
      </trkpt>
      <trkpt lat="46.39882" lon="5.66433">
        <ele>441.6</ele>
        <time>2022-07-29T11:04:52Z</time>
      </trkpt>
      <trkpt lat="46.39873" lon="5.66421">
        <ele>440.8</ele>
        <time>2022-07-29T11:04:53Z</time>
      </trkpt>
      <trkpt lat="46.39865" lon="5.66408">
        <ele>439.8</ele>
        <time>2022-07-29T11:04:54Z</time>
      </trkpt>
      <trkpt lat="46.39856" lon="5.66396">
        <ele>439</ele>
        <time>2022-07-29T11:04:55Z</time>
      </trkpt>
      <trkpt lat="46.39846" lon="5.66385">
        <ele>438.2</ele>
        <time>2022-07-29T11:04:56Z</time>
      </trkpt>
      <trkpt lat="46.39837" lon="5.66373">
        <ele>437.2</ele>
        <time>2022-07-29T11:04:57Z</time>
      </trkpt>
      <trkpt lat="46.39827" lon="5.66362">
        <ele>436.4</ele>
        <time>2022-07-29T11:04:58Z</time>
      </trkpt>
      <trkpt lat="46.39817" lon="5.6635">
        <ele>435.6</ele>
        <time>2022-07-29T11:04:59Z</time>
      </trkpt>
      <trkpt lat="46.39807" lon="5.6634">
        <ele>434.6</ele>
        <time>2022-07-29T11:05:00Z</time>
      </trkpt>
      <trkpt lat="46.39796" lon="5.66328">
        <ele>433.6</ele>
        <time>2022-07-29T11:05:01Z</time>
      </trkpt>
      <trkpt lat="46.39786" lon="5.66317">
        <ele>432.8</ele>
        <time>2022-07-29T11:05:02Z</time>
      </trkpt>
      <trkpt lat="46.39776" lon="5.66306">
        <ele>431.8</ele>
        <time>2022-07-29T11:05:03Z</time>
      </trkpt>
      <trkpt lat="46.39765" lon="5.66296">
        <ele>431</ele>
        <time>2022-07-29T11:05:04Z</time>
      </trkpt>
      <trkpt lat="46.39755" lon="5.66285">
        <ele>430.2</ele>
        <time>2022-07-29T11:05:05Z</time>
      </trkpt>
      <trkpt lat="46.39745" lon="5.66274">
        <ele>429.2</ele>
        <time>2022-07-29T11:05:06Z</time>
      </trkpt>
      <trkpt lat="46.39734" lon="5.66263">
        <ele>428.4</ele>
        <time>2022-07-29T11:05:07Z</time>
      </trkpt>
      <trkpt lat="46.39724" lon="5.66254">
        <ele>427.6</ele>
        <time>2022-07-29T11:05:08Z</time>
      </trkpt>
      <trkpt lat="46.39713" lon="5.66247">
        <ele>426.8</ele>
        <time>2022-07-29T11:05:09Z</time>
      </trkpt>
      <trkpt lat="46.39703" lon="5.66239">
        <ele>426</ele>
        <time>2022-07-29T11:05:10Z</time>
      </trkpt>
      <trkpt lat="46.39693" lon="5.66229">
        <ele>425.4</ele>
        <time>2022-07-29T11:05:11Z</time>
      </trkpt>
      <trkpt lat="46.39685" lon="5.66218">
        <ele>424.6</ele>
        <time>2022-07-29T11:05:12Z</time>
      </trkpt>
      <trkpt lat="46.39678" lon="5.66204">
        <ele>423.6</ele>
        <time>2022-07-29T11:05:13Z</time>
      </trkpt>
      <trkpt lat="46.39673" lon="5.66189">
        <ele>422.8</ele>
        <time>2022-07-29T11:05:14Z</time>
      </trkpt>
      <trkpt lat="46.3967" lon="5.66171">
        <ele>422</ele>
        <time>2022-07-29T11:05:15Z</time>
      </trkpt>
      <trkpt lat="46.39669" lon="5.66153">
        <ele>421</ele>
        <time>2022-07-29T11:05:16Z</time>
      </trkpt>
      <trkpt lat="46.39669" lon="5.66135">
        <ele>420.2</ele>
        <time>2022-07-29T11:05:17Z</time>
      </trkpt>
      <trkpt lat="46.3967" lon="5.66118">
        <ele>419.2</ele>
        <time>2022-07-29T11:05:18Z</time>
      </trkpt>
      <trkpt lat="46.39669" lon="5.66101">
        <ele>418.6</ele>
        <time>2022-07-29T11:05:19Z</time>
      </trkpt>
      <trkpt lat="46.39666" lon="5.66086">
        <ele>417.8</ele>
        <time>2022-07-29T11:05:20Z</time>
      </trkpt>
      <trkpt lat="46.39662" lon="5.66071">
        <ele>417</ele>
        <time>2022-07-29T11:05:21Z</time>
      </trkpt>
      <trkpt lat="46.39655" lon="5.66058">
        <ele>416.2</ele>
        <time>2022-07-29T11:05:22Z</time>
      </trkpt>
      <trkpt lat="46.39649" lon="5.66045">
        <ele>415.4</ele>
        <time>2022-07-29T11:05:23Z</time>
      </trkpt>
      <trkpt lat="46.3964" lon="5.66033">
        <ele>414.6</ele>
        <time>2022-07-29T11:05:24Z</time>
      </trkpt>
      <trkpt lat="46.39631" lon="5.66021">
        <ele>413.8</ele>
        <time>2022-07-29T11:05:25Z</time>
      </trkpt>
      <trkpt lat="46.39622" lon="5.66009">
        <ele>413</ele>
        <time>2022-07-29T11:05:26Z</time>
      </trkpt>
      <trkpt lat="46.39613" lon="5.65997">
        <ele>412</ele>
        <time>2022-07-29T11:05:27Z</time>
      </trkpt>
      <trkpt lat="46.39605" lon="5.65984">
        <ele>411.2</ele>
        <time>2022-07-29T11:05:28Z</time>
      </trkpt>
      <trkpt lat="46.39596" lon="5.65971">
        <ele>410.4</ele>
        <time>2022-07-29T11:05:29Z</time>
      </trkpt>
      <trkpt lat="46.39587" lon="5.65958">
        <ele>409.6</ele>
        <time>2022-07-29T11:05:30Z</time>
      </trkpt>
      <trkpt lat="46.39578" lon="5.65946">
        <ele>408.8</ele>
        <time>2022-07-29T11:05:31Z</time>
      </trkpt>
      <trkpt lat="46.39569" lon="5.65933">
        <ele>408</ele>
        <time>2022-07-29T11:05:32Z</time>
      </trkpt>
      <trkpt lat="46.3956" lon="5.6592">
        <ele>407.2</ele>
        <time>2022-07-29T11:05:33Z</time>
      </trkpt>
      <trkpt lat="46.39551" lon="5.65908">
        <ele>406.4</ele>
        <time>2022-07-29T11:05:34Z</time>
      </trkpt>
      <trkpt lat="46.39543" lon="5.65894">
        <ele>405.6</ele>
        <time>2022-07-29T11:05:35Z</time>
      </trkpt>
      <trkpt lat="46.39537" lon="5.65879">
        <ele>404.8</ele>
        <time>2022-07-29T11:05:36Z</time>
      </trkpt>
      <trkpt lat="46.39531" lon="5.65864">
        <ele>404</ele>
        <time>2022-07-29T11:05:37Z</time>
      </trkpt>
      <trkpt lat="46.39525" lon="5.65848">
        <ele>403.2</ele>
        <time>2022-07-29T11:05:38Z</time>
      </trkpt>
      <trkpt lat="46.39521" lon="5.65831">
        <ele>402.4</ele>
        <time>2022-07-29T11:05:39Z</time>
      </trkpt>
      <trkpt lat="46.39517" lon="5.65814">
        <ele>402.4</ele>
        <time>2022-07-29T11:05:40Z</time>
      </trkpt>
      <trkpt lat="46.39513" lon="5.65796">
        <ele>401.6</ele>
        <time>2022-07-29T11:05:41Z</time>
      </trkpt>
      <trkpt lat="46.39509" lon="5.65779">
        <ele>400.6</ele>
        <time>2022-07-29T11:05:42Z</time>
      </trkpt>
      <trkpt lat="46.39505" lon="5.65761">
        <ele>399.8</ele>
        <time>2022-07-29T11:05:43Z</time>
      </trkpt>
      <trkpt lat="46.39501" lon="5.65744">
        <ele>399</ele>
        <time>2022-07-29T11:05:44Z</time>
      </trkpt>
      <trkpt lat="46.39497" lon="5.65726">
        <ele>398.2</ele>
        <time>2022-07-29T11:05:45Z</time>
      </trkpt>
      <trkpt lat="46.39495" lon="5.65709">
        <ele>397.4</ele>
        <time>2022-07-29T11:05:46Z</time>
      </trkpt>
      <trkpt lat="46.39494" lon="5.6569">
        <ele>396.4</ele>
        <time>2022-07-29T11:05:47Z</time>
      </trkpt>
      <trkpt lat="46.39494" lon="5.65671">
        <ele>395.6</ele>
        <time>2022-07-29T11:05:48Z</time>
      </trkpt>
      <trkpt lat="46.39496" lon="5.65652">
        <ele>394.8</ele>
        <time>2022-07-29T11:05:49Z</time>
      </trkpt>
      <trkpt lat="46.39497" lon="5.65633">
        <ele>393.8</ele>
        <time>2022-07-29T11:05:50Z</time>
      </trkpt>
      <trkpt lat="46.39499" lon="5.65615">
        <ele>393</ele>
        <time>2022-07-29T11:05:51Z</time>
      </trkpt>
      <trkpt lat="46.395" lon="5.65596">
        <ele>392.4</ele>
        <time>2022-07-29T11:05:52Z</time>
      </trkpt>
      <trkpt lat="46.395" lon="5.65578">
        <ele>391.6</ele>
        <time>2022-07-29T11:05:53Z</time>
      </trkpt>
      <trkpt lat="46.39499" lon="5.65559">
        <ele>390.8</ele>
        <time>2022-07-29T11:05:54Z</time>
      </trkpt>
      <trkpt lat="46.39498" lon="5.65541">
        <ele>390</ele>
        <time>2022-07-29T11:05:55Z</time>
      </trkpt>
      <trkpt lat="46.39496" lon="5.65523">
        <ele>388.2</ele>
        <time>2022-07-29T11:05:56Z</time>
      </trkpt>
      <trkpt lat="46.39493" lon="5.65504">
        <ele>387.4</ele>
        <time>2022-07-29T11:05:57Z</time>
      </trkpt>
      <trkpt lat="46.39491" lon="5.65486">
        <ele>386.6</ele>
        <time>2022-07-29T11:05:58Z</time>
      </trkpt>
      <trkpt lat="46.39489" lon="5.65467">
        <ele>385.8</ele>
        <time>2022-07-29T11:05:59Z</time>
      </trkpt>
      <trkpt lat="46.39487" lon="5.65447">
        <ele>384.8</ele>
        <time>2022-07-29T11:06:00Z</time>
      </trkpt>
      <trkpt lat="46.39485" lon="5.65429">
        <ele>384</ele>
        <time>2022-07-29T11:06:01Z</time>
      </trkpt>
      <trkpt lat="46.39484" lon="5.65411">
        <ele>383</ele>
        <time>2022-07-29T11:06:02Z</time>
      </trkpt>
      <trkpt lat="46.39481" lon="5.65394">
        <ele>382.2</ele>
        <time>2022-07-29T11:06:03Z</time>
      </trkpt>
      <trkpt lat="46.3948" lon="5.65376">
        <ele>381.4</ele>
        <time>2022-07-29T11:06:04Z</time>
      </trkpt>
      <trkpt lat="46.39477" lon="5.65357">
        <ele>380.6</ele>
        <time>2022-07-29T11:06:05Z</time>
      </trkpt>
      <trkpt lat="46.39475" lon="5.65338">
        <ele>379.8</ele>
        <time>2022-07-29T11:06:06Z</time>
      </trkpt>
      <trkpt lat="46.39473" lon="5.6532">
        <ele>379</ele>
        <time>2022-07-29T11:06:07Z</time>
      </trkpt>
      <trkpt lat="46.39471" lon="5.65301">
        <ele>378.2</ele>
        <time>2022-07-29T11:06:08Z</time>
      </trkpt>
      <trkpt lat="46.39469" lon="5.65282">
        <ele>377.4</ele>
        <time>2022-07-29T11:06:09Z</time>
      </trkpt>
      <trkpt lat="46.39466" lon="5.65264">
        <ele>376.6</ele>
        <time>2022-07-29T11:06:10Z</time>
      </trkpt>
      <trkpt lat="46.39463" lon="5.65245">
        <ele>375.6</ele>
        <time>2022-07-29T11:06:11Z</time>
      </trkpt>
      <trkpt lat="46.39459" lon="5.65227">
        <ele>374.8</ele>
        <time>2022-07-29T11:06:12Z</time>
      </trkpt>
      <trkpt lat="46.39455" lon="5.65209">
        <ele>374</ele>
        <time>2022-07-29T11:06:13Z</time>
      </trkpt>
      <trkpt lat="46.3945" lon="5.65191">
        <ele>373.2</ele>
        <time>2022-07-29T11:06:14Z</time>
      </trkpt>
      <trkpt lat="46.39445" lon="5.65174">
        <ele>372.4</ele>
        <time>2022-07-29T11:06:15Z</time>
      </trkpt>
      <trkpt lat="46.39439" lon="5.65156">
        <ele>371.4</ele>
        <time>2022-07-29T11:06:16Z</time>
      </trkpt>
      <trkpt lat="46.39432" lon="5.6514">
        <ele>370.6</ele>
        <time>2022-07-29T11:06:17Z</time>
      </trkpt>
      <trkpt lat="46.39425" lon="5.65123">
        <ele>369.8</ele>
        <time>2022-07-29T11:06:18Z</time>
      </trkpt>
      <trkpt lat="46.39417" lon="5.65107">
        <ele>369</ele>
        <time>2022-07-29T11:06:19Z</time>
      </trkpt>
      <trkpt lat="46.39409" lon="5.65091">
        <ele>368.2</ele>
        <time>2022-07-29T11:06:20Z</time>
      </trkpt>
      <trkpt lat="46.39401" lon="5.65075">
        <ele>367.2</ele>
        <time>2022-07-29T11:06:21Z</time>
      </trkpt>
      <trkpt lat="46.39393" lon="5.65059">
        <ele>366.6</ele>
        <time>2022-07-29T11:06:22Z</time>
      </trkpt>
      <trkpt lat="46.39386" lon="5.65043">
        <ele>365.8</ele>
        <time>2022-07-29T11:06:23Z</time>
      </trkpt>
      <trkpt lat="46.39386" lon="5.65043">
        <ele>365</ele>
        <time>2022-07-29T11:06:24Z</time>
      </trkpt>
      <trkpt lat="46.39377" lon="5.65028">
        <ele>364.4</ele>
        <time>2022-07-29T11:06:25Z</time>
      </trkpt>
      <trkpt lat="46.3937" lon="5.65013">
        <ele>363.8</ele>
        <time>2022-07-29T11:06:26Z</time>
      </trkpt>
      <trkpt lat="46.39362" lon="5.64998">
        <ele>363.4</ele>
        <time>2022-07-29T11:06:27Z</time>
      </trkpt>
      <trkpt lat="46.39355" lon="5.64985">
        <ele>363</ele>
        <time>2022-07-29T11:06:28Z</time>
      </trkpt>
      <trkpt lat="46.39349" lon="5.6497">
        <ele>362.8</ele>
        <time>2022-07-29T11:06:29Z</time>
      </trkpt>
      <trkpt lat="46.39342" lon="5.64957">
        <ele>362.8</ele>
        <time>2022-07-29T11:06:30Z</time>
      </trkpt>
      <trkpt lat="46.39336" lon="5.64944">
        <ele>362.8</ele>
        <time>2022-07-29T11:06:31Z</time>
      </trkpt>
      <trkpt lat="46.3933" lon="5.64931">
        <ele>362.6</ele>
        <time>2022-07-29T11:06:32Z</time>
      </trkpt>
      <trkpt lat="46.39323" lon="5.64919">
        <ele>362.6</ele>
        <time>2022-07-29T11:06:33Z</time>
      </trkpt>
      <trkpt lat="46.39317" lon="5.64906">
        <ele>362.6</ele>
        <time>2022-07-29T11:06:34Z</time>
      </trkpt>
      <trkpt lat="46.39311" lon="5.64895">
        <ele>362.6</ele>
        <time>2022-07-29T11:06:35Z</time>
      </trkpt>
      <trkpt lat="46.39306" lon="5.64884">
        <ele>362.6</ele>
        <time>2022-07-29T11:06:36Z</time>
      </trkpt>
      <trkpt lat="46.393" lon="5.64874">
        <ele>362.6</ele>
        <time>2022-07-29T11:06:37Z</time>
      </trkpt>
      <trkpt lat="46.39295" lon="5.64863">
        <ele>362.6</ele>
        <time>2022-07-29T11:06:38Z</time>
      </trkpt>
      <trkpt lat="46.3929" lon="5.64852">
        <ele>362.6</ele>
        <time>2022-07-29T11:06:39Z</time>
      </trkpt>
      <trkpt lat="46.39286" lon="5.64842">
        <ele>362.6</ele>
        <time>2022-07-29T11:06:40Z</time>
      </trkpt>
      <trkpt lat="46.39281" lon="5.64833">
        <ele>362.8</ele>
        <time>2022-07-29T11:06:41Z</time>
      </trkpt>
      <trkpt lat="46.39277" lon="5.64823">
        <ele>362.8</ele>
        <time>2022-07-29T11:06:42Z</time>
      </trkpt>
      <trkpt lat="46.39272" lon="5.64814">
        <ele>362.8</ele>
        <time>2022-07-29T11:06:43Z</time>
      </trkpt>
      <trkpt lat="46.39267" lon="5.64805">
        <ele>362.8</ele>
        <time>2022-07-29T11:06:44Z</time>
      </trkpt>
      <trkpt lat="46.39263" lon="5.64796">
        <ele>362.8</ele>
        <time>2022-07-29T11:06:45Z</time>
      </trkpt>
      <trkpt lat="46.39259" lon="5.64787">
        <ele>362.8</ele>
        <time>2022-07-29T11:06:46Z</time>
      </trkpt>
      <trkpt lat="46.39255" lon="5.64779">
        <ele>362.8</ele>
        <time>2022-07-29T11:06:47Z</time>
      </trkpt>
      <trkpt lat="46.39251" lon="5.64771">
        <ele>362.8</ele>
        <time>2022-07-29T11:06:48Z</time>
      </trkpt>
      <trkpt lat="46.39248" lon="5.64762">
        <ele>362.8</ele>
        <time>2022-07-29T11:06:49Z</time>
      </trkpt>
      <trkpt lat="46.39244" lon="5.64754">
        <ele>362.8</ele>
        <time>2022-07-29T11:06:50Z</time>
      </trkpt>
      <trkpt lat="46.39239" lon="5.64747">
        <ele>362.8</ele>
        <time>2022-07-29T11:06:51Z</time>
      </trkpt>
      <trkpt lat="46.39234" lon="5.64741">
        <ele>362.8</ele>
        <time>2022-07-29T11:06:52Z</time>
      </trkpt>
      <trkpt lat="46.39228" lon="5.64736">
        <ele>362.4</ele>
        <time>2022-07-29T11:06:53Z</time>
      </trkpt>
      <trkpt lat="46.39222" lon="5.64732">
        <ele>362.2</ele>
        <time>2022-07-29T11:06:54Z</time>
      </trkpt>
      <trkpt lat="46.39215" lon="5.64729">
        <ele>361.8</ele>
        <time>2022-07-29T11:06:55Z</time>
      </trkpt>
      <trkpt lat="46.39207" lon="5.64726">
        <ele>361.8</ele>
        <time>2022-07-29T11:06:56Z</time>
      </trkpt>
      <trkpt lat="46.392" lon="5.64723">
        <ele>361.4</ele>
        <time>2022-07-29T11:06:57Z</time>
      </trkpt>
      <trkpt lat="46.39192" lon="5.64721">
        <ele>361.2</ele>
        <time>2022-07-29T11:06:58Z</time>
      </trkpt>
      <trkpt lat="46.39184" lon="5.6472">
        <ele>360.8</ele>
        <time>2022-07-29T11:06:59Z</time>
      </trkpt>
      <trkpt lat="46.39177" lon="5.64718">
        <ele>360.6</ele>
        <time>2022-07-29T11:07:00Z</time>
      </trkpt>
      <trkpt lat="46.39169" lon="5.64717">
        <ele>360.6</ele>
        <time>2022-07-29T11:07:01Z</time>
      </trkpt>
      <trkpt lat="46.39161" lon="5.64715">
        <ele>360.4</ele>
        <time>2022-07-29T11:07:02Z</time>
      </trkpt>
      <trkpt lat="46.39153" lon="5.64714">
        <ele>360</ele>
        <time>2022-07-29T11:07:03Z</time>
      </trkpt>
      <trkpt lat="46.39145" lon="5.64714">
        <ele>360</ele>
        <time>2022-07-29T11:07:04Z</time>
      </trkpt>
      <trkpt lat="46.39137" lon="5.64712">
        <ele>359.8</ele>
        <time>2022-07-29T11:07:05Z</time>
      </trkpt>
      <trkpt lat="46.39129" lon="5.64711">
        <ele>359.8</ele>
        <time>2022-07-29T11:07:06Z</time>
      </trkpt>
      <trkpt lat="46.39121" lon="5.6471">
        <ele>359.8</ele>
        <time>2022-07-29T11:07:07Z</time>
      </trkpt>
      <trkpt lat="46.39113" lon="5.64709">
        <ele>359.4</ele>
        <time>2022-07-29T11:07:08Z</time>
      </trkpt>
      <trkpt lat="46.39105" lon="5.64708">
        <ele>359.4</ele>
        <time>2022-07-29T11:07:09Z</time>
      </trkpt>
      <trkpt lat="46.39097" lon="5.64707">
        <ele>359.2</ele>
        <time>2022-07-29T11:07:10Z</time>
      </trkpt>
      <trkpt lat="46.39089" lon="5.64706">
        <ele>359.2</ele>
        <time>2022-07-29T11:07:11Z</time>
      </trkpt>
      <trkpt lat="46.39081" lon="5.64706">
        <ele>359</ele>
        <time>2022-07-29T11:07:12Z</time>
      </trkpt>
      <trkpt lat="46.39074" lon="5.64706">
        <ele>359</ele>
        <time>2022-07-29T11:07:13Z</time>
      </trkpt>
      <trkpt lat="46.39066" lon="5.64706">
        <ele>358.6</ele>
        <time>2022-07-29T11:07:14Z</time>
      </trkpt>
      <trkpt lat="46.39058" lon="5.64706">
        <ele>358.6</ele>
        <time>2022-07-29T11:07:15Z</time>
      </trkpt>
      <trkpt lat="46.3905" lon="5.64706">
        <ele>358.4</ele>
        <time>2022-07-29T11:07:16Z</time>
      </trkpt>
      <trkpt lat="46.39042" lon="5.64707">
        <ele>358.2</ele>
        <time>2022-07-29T11:07:17Z</time>
      </trkpt>
      <trkpt lat="46.39035" lon="5.64707">
        <ele>358.2</ele>
        <time>2022-07-29T11:07:18Z</time>
      </trkpt>
      <trkpt lat="46.39027" lon="5.64708">
        <ele>357.8</ele>
        <time>2022-07-29T11:07:19Z</time>
      </trkpt>
      <trkpt lat="46.39019" lon="5.64709">
        <ele>357.6</ele>
        <time>2022-07-29T11:07:20Z</time>
      </trkpt>
      <trkpt lat="46.39012" lon="5.6471">
        <ele>357.4</ele>
        <time>2022-07-29T11:07:21Z</time>
      </trkpt>
      <trkpt lat="46.39004" lon="5.64712">
        <ele>357.4</ele>
        <time>2022-07-29T11:07:22Z</time>
      </trkpt>
      <trkpt lat="46.38997" lon="5.64713">
        <ele>357</ele>
        <time>2022-07-29T11:07:23Z</time>
      </trkpt>
      <trkpt lat="46.38989" lon="5.64714">
        <ele>357</ele>
        <time>2022-07-29T11:07:24Z</time>
      </trkpt>
      <trkpt lat="46.38982" lon="5.64715">
        <ele>356.8</ele>
        <time>2022-07-29T11:07:25Z</time>
      </trkpt>
      <trkpt lat="46.38975" lon="5.64716">
        <ele>356.8</ele>
        <time>2022-07-29T11:07:26Z</time>
      </trkpt>
      <trkpt lat="46.38967" lon="5.64717">
        <ele>356.8</ele>
        <time>2022-07-29T11:07:27Z</time>
      </trkpt>
      <trkpt lat="46.3896" lon="5.64718">
        <ele>356.4</ele>
        <time>2022-07-29T11:07:28Z</time>
      </trkpt>
      <trkpt lat="46.38953" lon="5.6472">
        <ele>356.4</ele>
        <time>2022-07-29T11:07:29Z</time>
      </trkpt>
      <trkpt lat="46.38947" lon="5.64722">
        <ele>356.2</ele>
        <time>2022-07-29T11:07:30Z</time>
      </trkpt>
      <trkpt lat="46.3894" lon="5.64723">
        <ele>356.2</ele>
        <time>2022-07-29T11:07:31Z</time>
      </trkpt>
      <trkpt lat="46.38932" lon="5.64725">
        <ele>355.8</ele>
        <time>2022-07-29T11:07:32Z</time>
      </trkpt>
      <trkpt lat="46.38926" lon="5.64725">
        <ele>355.8</ele>
        <time>2022-07-29T11:07:33Z</time>
      </trkpt>
      <trkpt lat="46.38919" lon="5.64726">
        <ele>355.6</ele>
        <time>2022-07-29T11:07:34Z</time>
      </trkpt>
      <trkpt lat="46.38913" lon="5.64726">
        <ele>355.6</ele>
        <time>2022-07-29T11:07:35Z</time>
      </trkpt>
      <trkpt lat="46.38908" lon="5.64726">
        <ele>355.6</ele>
        <time>2022-07-29T11:07:36Z</time>
      </trkpt>
      <trkpt lat="46.38903" lon="5.64727">
        <ele>355.6</ele>
        <time>2022-07-29T11:07:37Z</time>
      </trkpt>
      <trkpt lat="46.38899" lon="5.64727">
        <ele>355.6</ele>
        <time>2022-07-29T11:07:38Z</time>
      </trkpt>
      <trkpt lat="46.38895" lon="5.64728">
        <ele>355.6</ele>
        <time>2022-07-29T11:07:39Z</time>
      </trkpt>
      <trkpt lat="46.38892" lon="5.64728">
        <ele>355.6</ele>
        <time>2022-07-29T11:07:40Z</time>
      </trkpt>
      <trkpt lat="46.38889" lon="5.64729">
        <ele>355.6</ele>
        <time>2022-07-29T11:07:41Z</time>
      </trkpt>
      <trkpt lat="46.38887" lon="5.64731">
        <ele>355.6</ele>
        <time>2022-07-29T11:07:42Z</time>
      </trkpt>
      <trkpt lat="46.38885" lon="5.64734">
        <ele>355.8</ele>
        <time>2022-07-29T11:07:43Z</time>
      </trkpt>
      <trkpt lat="46.38882" lon="5.64737">
        <ele>355.8</ele>
        <time>2022-07-29T11:07:44Z</time>
      </trkpt>
      <trkpt lat="46.38881" lon="5.64742">
        <ele>355.8</ele>
        <time>2022-07-29T11:07:45Z</time>
      </trkpt>
      <trkpt lat="46.3888" lon="5.64747">
        <ele>355.8</ele>
        <time>2022-07-29T11:07:46Z</time>
      </trkpt>
      <trkpt lat="46.38879" lon="5.64751">
        <ele>355.8</ele>
        <time>2022-07-29T11:07:47Z</time>
      </trkpt>
      <trkpt lat="46.38877" lon="5.64756">
        <ele>356</ele>
        <time>2022-07-29T11:07:48Z</time>
      </trkpt>
      <trkpt lat="46.38875" lon="5.6476">
        <ele>356</ele>
        <time>2022-07-29T11:07:49Z</time>
      </trkpt>
      <trkpt lat="46.38873" lon="5.64765">
        <ele>356</ele>
        <time>2022-07-29T11:07:50Z</time>
      </trkpt>
      <trkpt lat="46.3887" lon="5.64769">
        <ele>356</ele>
        <time>2022-07-29T11:07:51Z</time>
      </trkpt>
      <trkpt lat="46.38868" lon="5.64774">
        <ele>355.8</ele>
        <time>2022-07-29T11:07:52Z</time>
      </trkpt>
      <trkpt lat="46.38865" lon="5.64779">
        <ele>355.8</ele>
        <time>2022-07-29T11:07:53Z</time>
      </trkpt>
      <trkpt lat="46.38862" lon="5.64783">
        <ele>355.8</ele>
        <time>2022-07-29T11:07:54Z</time>
      </trkpt>
      <trkpt lat="46.38858" lon="5.64787">
        <ele>355.4</ele>
        <time>2022-07-29T11:07:55Z</time>
      </trkpt>
      <trkpt lat="46.38855" lon="5.64792">
        <ele>355.2</ele>
        <time>2022-07-29T11:07:56Z</time>
      </trkpt>
      <trkpt lat="46.38852" lon="5.64797">
        <ele>355</ele>
        <time>2022-07-29T11:07:57Z</time>
      </trkpt>
      <trkpt lat="46.38848" lon="5.64804">
        <ele>354.4</ele>
        <time>2022-07-29T11:07:58Z</time>
      </trkpt>
      <trkpt lat="46.38841" lon="5.6482">
        <ele>354</ele>
        <time>2022-07-29T11:07:59Z</time>
      </trkpt>
      <trkpt lat="46.38837" lon="5.64829">
        <ele>353.4</ele>
        <time>2022-07-29T11:08:00Z</time>
      </trkpt>
      <trkpt lat="46.38832" lon="5.64839">
        <ele>352.8</ele>
        <time>2022-07-29T11:08:01Z</time>
      </trkpt>
      <trkpt lat="46.38826" lon="5.64847">
        <ele>352</ele>
        <time>2022-07-29T11:08:02Z</time>
      </trkpt>
      <trkpt lat="46.38819" lon="5.64855">
        <ele>351.2</ele>
        <time>2022-07-29T11:08:03Z</time>
      </trkpt>
      <trkpt lat="46.3881" lon="5.64861">
        <ele>350.4</ele>
        <time>2022-07-29T11:08:04Z</time>
      </trkpt>
      <trkpt lat="46.38799" lon="5.64865">
        <ele>349.6</ele>
        <time>2022-07-29T11:08:05Z</time>
      </trkpt>
      <trkpt lat="46.3879" lon="5.64869">
        <ele>349</ele>
        <time>2022-07-29T11:08:06Z</time>
      </trkpt>
      <trkpt lat="46.38781" lon="5.64875">
        <ele>348.4</ele>
        <time>2022-07-29T11:08:07Z</time>
      </trkpt>
      <trkpt lat="46.38774" lon="5.64884">
        <ele>347.6</ele>
        <time>2022-07-29T11:08:08Z</time>
      </trkpt>
      <trkpt lat="46.38767" lon="5.64895">
        <ele>346.8</ele>
        <time>2022-07-29T11:08:09Z</time>
      </trkpt>
      <trkpt lat="46.3876" lon="5.64909">
        <ele>346</ele>
        <time>2022-07-29T11:08:10Z</time>
      </trkpt>
      <trkpt lat="46.38757" lon="5.64924">
        <ele>345</ele>
        <time>2022-07-29T11:08:11Z</time>
      </trkpt>
      <trkpt lat="46.38755" lon="5.64938">
        <ele>344.4</ele>
        <time>2022-07-29T11:08:12Z</time>
      </trkpt>
      <trkpt lat="46.38754" lon="5.64953">
        <ele>343.6</ele>
        <time>2022-07-29T11:08:13Z</time>
      </trkpt>
      <trkpt lat="46.38752" lon="5.64968">
        <ele>342.8</ele>
        <time>2022-07-29T11:08:14Z</time>
      </trkpt>
      <trkpt lat="46.38752" lon="5.64984">
        <ele>342.2</ele>
        <time>2022-07-29T11:08:15Z</time>
      </trkpt>
      <trkpt lat="46.38753" lon="5.64998">
        <ele>341.6</ele>
        <time>2022-07-29T11:08:16Z</time>
      </trkpt>
      <trkpt lat="46.38755" lon="5.65009">
        <ele>341</ele>
        <time>2022-07-29T11:08:17Z</time>
      </trkpt>
      <trkpt lat="46.38759" lon="5.6502">
        <ele>340.4</ele>
        <time>2022-07-29T11:08:18Z</time>
      </trkpt>
      <trkpt lat="46.38765" lon="5.65029">
        <ele>340</ele>
        <time>2022-07-29T11:08:19Z</time>
      </trkpt>
      <trkpt lat="46.38772" lon="5.65036">
        <ele>339.4</ele>
        <time>2022-07-29T11:08:20Z</time>
      </trkpt>
      <trkpt lat="46.3878" lon="5.65042">
        <ele>338.8</ele>
        <time>2022-07-29T11:08:21Z</time>
      </trkpt>
      <trkpt lat="46.38788" lon="5.65046">
        <ele>338.4</ele>
        <time>2022-07-29T11:08:22Z</time>
      </trkpt>
      <trkpt lat="46.38797" lon="5.6505">
        <ele>337.8</ele>
        <time>2022-07-29T11:08:23Z</time>
      </trkpt>
      <trkpt lat="46.38807" lon="5.65054">
        <ele>337.4</ele>
        <time>2022-07-29T11:08:24Z</time>
      </trkpt>
      <trkpt lat="46.38816" lon="5.65057">
        <ele>336.8</ele>
        <time>2022-07-29T11:08:25Z</time>
      </trkpt>
      <trkpt lat="46.38826" lon="5.65061">
        <ele>336.4</ele>
        <time>2022-07-29T11:08:26Z</time>
      </trkpt>
      <trkpt lat="46.38837" lon="5.65065">
        <ele>336</ele>
        <time>2022-07-29T11:08:27Z</time>
      </trkpt>
      <trkpt lat="46.38845" lon="5.6507">
        <ele>335.6</ele>
        <time>2022-07-29T11:08:28Z</time>
      </trkpt>
      <trkpt lat="46.38855" lon="5.65075">
        <ele>335.2</ele>
        <time>2022-07-29T11:08:29Z</time>
      </trkpt>
      <trkpt lat="46.38863" lon="5.6508">
        <ele>335.2</ele>
        <time>2022-07-29T11:08:30Z</time>
      </trkpt>
      <trkpt lat="46.38871" lon="5.65086">
        <ele>334.8</ele>
        <time>2022-07-29T11:08:31Z</time>
      </trkpt>
      <trkpt lat="46.3888" lon="5.65092">
        <ele>334.6</ele>
        <time>2022-07-29T11:08:32Z</time>
      </trkpt>
      <trkpt lat="46.38886" lon="5.65101">
        <ele>334.4</ele>
        <time>2022-07-29T11:08:33Z</time>
      </trkpt>
      <trkpt lat="46.38891" lon="5.65111">
        <ele>334.2</ele>
        <time>2022-07-29T11:08:34Z</time>
      </trkpt>
      <trkpt lat="46.38895" lon="5.65122">
        <ele>334.2</ele>
        <time>2022-07-29T11:08:35Z</time>
      </trkpt>
      <trkpt lat="46.38899" lon="5.65133">
        <ele>333.8</ele>
        <time>2022-07-29T11:08:36Z</time>
      </trkpt>
      <trkpt lat="46.38903" lon="5.65143">
        <ele>333.8</ele>
        <time>2022-07-29T11:08:37Z</time>
      </trkpt>
      <trkpt lat="46.38907" lon="5.65153">
        <ele>333.8</ele>
        <time>2022-07-29T11:08:38Z</time>
      </trkpt>
      <trkpt lat="46.38912" lon="5.65163">
        <ele>333.8</ele>
        <time>2022-07-29T11:08:39Z</time>
      </trkpt>
      <trkpt lat="46.38916" lon="5.65172">
        <ele>333.8</ele>
        <time>2022-07-29T11:08:40Z</time>
      </trkpt>
      <trkpt lat="46.3892" lon="5.6518">
        <ele>333.8</ele>
        <time>2022-07-29T11:08:41Z</time>
      </trkpt>
      <trkpt lat="46.38924" lon="5.65188">
        <ele>333.8</ele>
        <time>2022-07-29T11:08:42Z</time>
      </trkpt>
      <trkpt lat="46.38928" lon="5.65196">
        <ele>333.8</ele>
        <time>2022-07-29T11:08:43Z</time>
      </trkpt>
      <trkpt lat="46.38932" lon="5.65203">
        <ele>333.8</ele>
        <time>2022-07-29T11:08:44Z</time>
      </trkpt>
      <trkpt lat="46.38936" lon="5.6521">
        <ele>334</ele>
        <time>2022-07-29T11:08:45Z</time>
      </trkpt>
      <trkpt lat="46.38939" lon="5.65216">
        <ele>334.2</ele>
        <time>2022-07-29T11:08:46Z</time>
      </trkpt>
      <trkpt lat="46.38943" lon="5.65221">
        <ele>334.6</ele>
        <time>2022-07-29T11:08:47Z</time>
      </trkpt>
      <trkpt lat="46.38947" lon="5.65226">
        <ele>334.6</ele>
        <time>2022-07-29T11:08:48Z</time>
      </trkpt>
      <trkpt lat="46.38951" lon="5.65231">
        <ele>334.8</ele>
        <time>2022-07-29T11:08:49Z</time>
      </trkpt>
      <trkpt lat="46.38954" lon="5.65237">
        <ele>334.8</ele>
        <time>2022-07-29T11:08:50Z</time>
      </trkpt>
      <trkpt lat="46.38957" lon="5.65242">
        <ele>335</ele>
        <time>2022-07-29T11:08:51Z</time>
      </trkpt>
      <trkpt lat="46.38959" lon="5.65247">
        <ele>335</ele>
        <time>2022-07-29T11:08:52Z</time>
      </trkpt>
      <trkpt lat="46.38961" lon="5.65253">
        <ele>335</ele>
        <time>2022-07-29T11:08:53Z</time>
      </trkpt>
      <trkpt lat="46.38963" lon="5.65258">
        <ele>335</ele>
        <time>2022-07-29T11:08:54Z</time>
      </trkpt>
      <trkpt lat="46.38963" lon="5.65263">
        <ele>335.4</ele>
        <time>2022-07-29T11:08:55Z</time>
      </trkpt>
      <trkpt lat="46.38963" lon="5.65267">
        <ele>335.4</ele>
        <time>2022-07-29T11:08:56Z</time>
      </trkpt>
      <trkpt lat="46.38963" lon="5.65269">
        <ele>335.6</ele>
        <time>2022-07-29T11:08:57Z</time>
      </trkpt>
      <trkpt lat="46.38963" lon="5.65272">
        <ele>335.6</ele>
        <time>2022-07-29T11:08:58Z</time>
      </trkpt>
      <trkpt lat="46.38963" lon="5.65274">
        <ele>335.8</ele>
        <time>2022-07-29T11:08:59Z</time>
      </trkpt>
      <trkpt lat="46.38963" lon="5.65276">
        <ele>335.8</ele>
        <time>2022-07-29T11:09:00Z</time>
      </trkpt>
      <trkpt lat="46.38962" lon="5.65279">
        <ele>335.8</ele>
        <time>2022-07-29T11:09:01Z</time>
      </trkpt>
      <trkpt lat="46.38962" lon="5.65281">
        <ele>335.8</ele>
        <time>2022-07-29T11:09:02Z</time>
      </trkpt>
      <trkpt lat="46.38961" lon="5.65284">
        <ele>335.8</ele>
        <time>2022-07-29T11:09:03Z</time>
      </trkpt>
      <trkpt lat="46.3896" lon="5.65287">
        <ele>335.8</ele>
        <time>2022-07-29T11:09:04Z</time>
      </trkpt>
      <trkpt lat="46.38958" lon="5.6529">
        <ele>336.2</ele>
        <time>2022-07-29T11:09:05Z</time>
      </trkpt>
      <trkpt lat="46.38956" lon="5.65292">
        <ele>336.2</ele>
        <time>2022-07-29T11:09:06Z</time>
      </trkpt>
      <trkpt lat="46.38954" lon="5.65295">
        <ele>336.2</ele>
        <time>2022-07-29T11:09:07Z</time>
      </trkpt>
      <trkpt lat="46.38951" lon="5.65298">
        <ele>336.2</ele>
        <time>2022-07-29T11:09:08Z</time>
      </trkpt>
      <trkpt lat="46.38949" lon="5.653">
        <ele>336.2</ele>
        <time>2022-07-29T11:09:09Z</time>
      </trkpt>
      <trkpt lat="46.38947" lon="5.65303">
        <ele>336.4</ele>
        <time>2022-07-29T11:09:10Z</time>
      </trkpt>
      <trkpt lat="46.38944" lon="5.65306">
        <ele>336.4</ele>
        <time>2022-07-29T11:09:11Z</time>
      </trkpt>
      <trkpt lat="46.38941" lon="5.65309">
        <ele>336.4</ele>
        <time>2022-07-29T11:09:12Z</time>
      </trkpt>
      <trkpt lat="46.38938" lon="5.65313">
        <ele>336.4</ele>
        <time>2022-07-29T11:09:13Z</time>
      </trkpt>
      <trkpt lat="46.38934" lon="5.65316">
        <ele>336.4</ele>
        <time>2022-07-29T11:09:14Z</time>
      </trkpt>
      <trkpt lat="46.38931" lon="5.6532">
        <ele>336.4</ele>
        <time>2022-07-29T11:09:15Z</time>
      </trkpt>
      <trkpt lat="46.38928" lon="5.65324">
        <ele>336.4</ele>
        <time>2022-07-29T11:09:16Z</time>
      </trkpt>
      <trkpt lat="46.38924" lon="5.65328">
        <ele>336.4</ele>
        <time>2022-07-29T11:09:17Z</time>
      </trkpt>
      <trkpt lat="46.38921" lon="5.65332">
        <ele>336.4</ele>
        <time>2022-07-29T11:09:18Z</time>
      </trkpt>
      <trkpt lat="46.38917" lon="5.65336">
        <ele>336.4</ele>
        <time>2022-07-29T11:09:19Z</time>
      </trkpt>
      <trkpt lat="46.38913" lon="5.6534">
        <ele>336.4</ele>
        <time>2022-07-29T11:09:20Z</time>
      </trkpt>
      <trkpt lat="46.38909" lon="5.65344">
        <ele>336.4</ele>
        <time>2022-07-29T11:09:21Z</time>
      </trkpt>
      <trkpt lat="46.38906" lon="5.65349">
        <ele>336.4</ele>
        <time>2022-07-29T11:09:22Z</time>
      </trkpt>
      <trkpt lat="46.38902" lon="5.65354">
        <ele>336.4</ele>
        <time>2022-07-29T11:09:23Z</time>
      </trkpt>
      <trkpt lat="46.38899" lon="5.65359">
        <ele>336.4</ele>
        <time>2022-07-29T11:09:24Z</time>
      </trkpt>
      <trkpt lat="46.38897" lon="5.65364">
        <ele>336.6</ele>
        <time>2022-07-29T11:09:25Z</time>
      </trkpt>
      <trkpt lat="46.38895" lon="5.6537">
        <ele>336.6</ele>
        <time>2022-07-29T11:09:26Z</time>
      </trkpt>
      <trkpt lat="46.38894" lon="5.65375">
        <ele>337</ele>
        <time>2022-07-29T11:09:27Z</time>
      </trkpt>
      <trkpt lat="46.38894" lon="5.65381">
        <ele>337</ele>
        <time>2022-07-29T11:09:28Z</time>
      </trkpt>
      <trkpt lat="46.38895" lon="5.65386">
        <ele>337.2</ele>
        <time>2022-07-29T11:09:29Z</time>
      </trkpt>
      <trkpt lat="46.38896" lon="5.65391">
        <ele>337.2</ele>
        <time>2022-07-29T11:09:30Z</time>
      </trkpt>
      <trkpt lat="46.38897" lon="5.65396">
        <ele>337.4</ele>
        <time>2022-07-29T11:09:31Z</time>
      </trkpt>
      <trkpt lat="46.38899" lon="5.65401">
        <ele>337.4</ele>
        <time>2022-07-29T11:09:32Z</time>
      </trkpt>
      <trkpt lat="46.38901" lon="5.65405">
        <ele>337.8</ele>
        <time>2022-07-29T11:09:33Z</time>
      </trkpt>
      <trkpt lat="46.38903" lon="5.6541">
        <ele>337.8</ele>
        <time>2022-07-29T11:09:34Z</time>
      </trkpt>
      <trkpt lat="46.38905" lon="5.65414">
        <ele>338</ele>
        <time>2022-07-29T11:09:35Z</time>
      </trkpt>
      <trkpt lat="46.38906" lon="5.65418">
        <ele>338.2</ele>
        <time>2022-07-29T11:09:36Z</time>
      </trkpt>
      <trkpt lat="46.38908" lon="5.65423">
        <ele>338.2</ele>
        <time>2022-07-29T11:09:37Z</time>
      </trkpt>
      <trkpt lat="46.38908" lon="5.65423">
        <ele>338.6</ele>
        <time>2022-07-29T11:09:38Z</time>
      </trkpt>
      <trkpt lat="46.38911" lon="5.65431">
        <ele>338.6</ele>
        <time>2022-07-29T11:09:39Z</time>
      </trkpt>
      <trkpt lat="46.38913" lon="5.65435">
        <ele>339</ele>
        <time>2022-07-29T11:09:40Z</time>
      </trkpt>
      <trkpt lat="46.38914" lon="5.6544">
        <ele>339</ele>
        <time>2022-07-29T11:09:41Z</time>
      </trkpt>
      <trkpt lat="46.38915" lon="5.65444">
        <ele>339.2</ele>
        <time>2022-07-29T11:09:42Z</time>
      </trkpt>
      <trkpt lat="46.38916" lon="5.65448">
        <ele>339.2</ele>
        <time>2022-07-29T11:09:43Z</time>
      </trkpt>
      <trkpt lat="46.38917" lon="5.65453">
        <ele>339.6</ele>
        <time>2022-07-29T11:09:44Z</time>
      </trkpt>
      <trkpt lat="46.38918" lon="5.65457">
        <ele>339.6</ele>
        <time>2022-07-29T11:09:45Z</time>
      </trkpt>
      <trkpt lat="46.38919" lon="5.65462">
        <ele>340</ele>
        <time>2022-07-29T11:09:46Z</time>
      </trkpt>
      <trkpt lat="46.3892" lon="5.65466">
        <ele>340.2</ele>
        <time>2022-07-29T11:09:47Z</time>
      </trkpt>
      <trkpt lat="46.38921" lon="5.6547">
        <ele>340.4</ele>
        <time>2022-07-29T11:09:48Z</time>
      </trkpt>
      <trkpt lat="46.38922" lon="5.65474">
        <ele>340.4</ele>
        <time>2022-07-29T11:09:49Z</time>
      </trkpt>
      <trkpt lat="46.38922" lon="5.65478">
        <ele>340.8</ele>
        <time>2022-07-29T11:09:50Z</time>
      </trkpt>
      <trkpt lat="46.38923" lon="5.65483">
        <ele>340.8</ele>
        <time>2022-07-29T11:09:51Z</time>
      </trkpt>
      <trkpt lat="46.38924" lon="5.65487">
        <ele>341.2</ele>
        <time>2022-07-29T11:09:52Z</time>
      </trkpt>
      <trkpt lat="46.38924" lon="5.65492">
        <ele>341.2</ele>
        <time>2022-07-29T11:09:53Z</time>
      </trkpt>
      <trkpt lat="46.38925" lon="5.65496">
        <ele>341.6</ele>
        <time>2022-07-29T11:09:54Z</time>
      </trkpt>
      <trkpt lat="46.38925" lon="5.655">
        <ele>341.8</ele>
        <time>2022-07-29T11:09:55Z</time>
      </trkpt>
      <trkpt lat="46.38926" lon="5.65505">
        <ele>342</ele>
        <time>2022-07-29T11:09:56Z</time>
      </trkpt>
      <trkpt lat="46.38927" lon="5.65509">
        <ele>342.2</ele>
        <time>2022-07-29T11:09:57Z</time>
      </trkpt>
      <trkpt lat="46.38927" lon="5.65514">
        <ele>342.2</ele>
        <time>2022-07-29T11:09:58Z</time>
      </trkpt>
      <trkpt lat="46.38928" lon="5.65518">
        <ele>342.6</ele>
        <time>2022-07-29T11:09:59Z</time>
      </trkpt>
      <trkpt lat="46.38929" lon="5.65523">
        <ele>342.6</ele>
        <time>2022-07-29T11:10:00Z</time>
      </trkpt>
      <trkpt lat="46.3893" lon="5.65527">
        <ele>343</ele>
        <time>2022-07-29T11:10:01Z</time>
      </trkpt>
      <trkpt lat="46.38931" lon="5.65532">
        <ele>343.2</ele>
        <time>2022-07-29T11:10:02Z</time>
      </trkpt>
      <trkpt lat="46.38932" lon="5.65536">
        <ele>343.4</ele>
        <time>2022-07-29T11:10:03Z</time>
      </trkpt>
      <trkpt lat="46.38933" lon="5.6554">
        <ele>343.4</ele>
        <time>2022-07-29T11:10:04Z</time>
      </trkpt>
      <trkpt lat="46.38934" lon="5.65545">
        <ele>343.8</ele>
        <time>2022-07-29T11:10:05Z</time>
      </trkpt>
      <trkpt lat="46.38935" lon="5.65549">
        <ele>343.8</ele>
        <time>2022-07-29T11:10:06Z</time>
      </trkpt>
      <trkpt lat="46.38936" lon="5.65553">
        <ele>344.2</ele>
        <time>2022-07-29T11:10:07Z</time>
      </trkpt>
      <trkpt lat="46.38936" lon="5.65556">
        <ele>344.6</ele>
        <time>2022-07-29T11:10:08Z</time>
      </trkpt>
      <trkpt lat="46.38937" lon="5.6556">
        <ele>344.6</ele>
        <time>2022-07-29T11:10:09Z</time>
      </trkpt>
      <trkpt lat="46.38937" lon="5.65564">
        <ele>345</ele>
        <time>2022-07-29T11:10:10Z</time>
      </trkpt>
      <trkpt lat="46.38938" lon="5.65568">
        <ele>345</ele>
        <time>2022-07-29T11:10:11Z</time>
      </trkpt>
      <trkpt lat="46.38939" lon="5.65571">
        <ele>345.4</ele>
        <time>2022-07-29T11:10:12Z</time>
      </trkpt>
      <trkpt lat="46.3894" lon="5.65574">
        <ele>345.6</ele>
        <time>2022-07-29T11:10:13Z</time>
      </trkpt>
      <trkpt lat="46.38941" lon="5.65578">
        <ele>345.8</ele>
        <time>2022-07-29T11:10:14Z</time>
      </trkpt>
      <trkpt lat="46.38942" lon="5.65581">
        <ele>346</ele>
        <time>2022-07-29T11:10:15Z</time>
      </trkpt>
      <trkpt lat="46.38943" lon="5.65584">
        <ele>346.2</ele>
        <time>2022-07-29T11:10:16Z</time>
      </trkpt>
      <trkpt lat="46.38943" lon="5.65588">
        <ele>346.2</ele>
        <time>2022-07-29T11:10:17Z</time>
      </trkpt>
      <trkpt lat="46.38944" lon="5.65591">
        <ele>346.6</ele>
        <time>2022-07-29T11:10:18Z</time>
      </trkpt>
      <trkpt lat="46.38945" lon="5.65595">
        <ele>346.6</ele>
        <time>2022-07-29T11:10:19Z</time>
      </trkpt>
      <trkpt lat="46.38946" lon="5.65599">
        <ele>347.2</ele>
        <time>2022-07-29T11:10:20Z</time>
      </trkpt>
      <trkpt lat="46.38948" lon="5.65603">
        <ele>347.4</ele>
        <time>2022-07-29T11:10:21Z</time>
      </trkpt>
      <trkpt lat="46.38949" lon="5.65606">
        <ele>347.6</ele>
        <time>2022-07-29T11:10:22Z</time>
      </trkpt>
      <trkpt lat="46.3895" lon="5.65609">
        <ele>348</ele>
        <time>2022-07-29T11:10:23Z</time>
      </trkpt>
      <trkpt lat="46.38951" lon="5.65613">
        <ele>348.2</ele>
        <time>2022-07-29T11:10:24Z</time>
      </trkpt>
      <trkpt lat="46.38953" lon="5.65616">
        <ele>348.4</ele>
        <time>2022-07-29T11:10:25Z</time>
      </trkpt>
      <trkpt lat="46.38954" lon="5.6562">
        <ele>348.6</ele>
        <time>2022-07-29T11:10:26Z</time>
      </trkpt>
      <trkpt lat="46.38954" lon="5.65624">
        <ele>348.8</ele>
        <time>2022-07-29T11:10:27Z</time>
      </trkpt>
      <trkpt lat="46.38956" lon="5.65627">
        <ele>349.2</ele>
        <time>2022-07-29T11:10:28Z</time>
      </trkpt>
      <trkpt lat="46.38956" lon="5.6563">
        <ele>349.2</ele>
        <time>2022-07-29T11:10:29Z</time>
      </trkpt>
      <trkpt lat="46.38957" lon="5.65633">
        <ele>349.6</ele>
        <time>2022-07-29T11:10:30Z</time>
      </trkpt>
      <trkpt lat="46.38958" lon="5.65637">
        <ele>349.8</ele>
        <time>2022-07-29T11:10:31Z</time>
      </trkpt>
      <trkpt lat="46.38959" lon="5.6564">
        <ele>350</ele>
        <time>2022-07-29T11:10:32Z</time>
      </trkpt>
      <trkpt lat="46.3896" lon="5.65644">
        <ele>350.4</ele>
        <time>2022-07-29T11:10:33Z</time>
      </trkpt>
      <trkpt lat="46.38962" lon="5.65647">
        <ele>350.6</ele>
        <time>2022-07-29T11:10:34Z</time>
      </trkpt>
      <trkpt lat="46.38963" lon="5.6565">
        <ele>350.8</ele>
        <time>2022-07-29T11:10:35Z</time>
      </trkpt>
      <trkpt lat="46.38964" lon="5.65654">
        <ele>351</ele>
        <time>2022-07-29T11:10:36Z</time>
      </trkpt>
      <trkpt lat="46.38965" lon="5.65658">
        <ele>351.2</ele>
        <time>2022-07-29T11:10:37Z</time>
      </trkpt>
      <trkpt lat="46.38966" lon="5.65661">
        <ele>351.6</ele>
        <time>2022-07-29T11:10:38Z</time>
      </trkpt>
      <trkpt lat="46.38967" lon="5.65665">
        <ele>351.8</ele>
        <time>2022-07-29T11:10:39Z</time>
      </trkpt>
      <trkpt lat="46.38967" lon="5.65668">
        <ele>352</ele>
        <time>2022-07-29T11:10:40Z</time>
      </trkpt>
      <trkpt lat="46.38968" lon="5.65672">
        <ele>352.4</ele>
        <time>2022-07-29T11:10:41Z</time>
      </trkpt>
      <trkpt lat="46.38969" lon="5.65675">
        <ele>352.6</ele>
        <time>2022-07-29T11:10:42Z</time>
      </trkpt>
      <trkpt lat="46.38969" lon="5.65678">
        <ele>352.8</ele>
        <time>2022-07-29T11:10:43Z</time>
      </trkpt>
      <trkpt lat="46.3897" lon="5.65681">
        <ele>353</ele>
        <time>2022-07-29T11:10:44Z</time>
      </trkpt>
      <trkpt lat="46.38971" lon="5.65685">
        <ele>353.2</ele>
        <time>2022-07-29T11:10:45Z</time>
      </trkpt>
      <trkpt lat="46.38972" lon="5.65688">
        <ele>353.6</ele>
        <time>2022-07-29T11:10:46Z</time>
      </trkpt>
      <trkpt lat="46.38973" lon="5.65692">
        <ele>353.6</ele>
        <time>2022-07-29T11:10:47Z</time>
      </trkpt>
      <trkpt lat="46.38974" lon="5.65695">
        <ele>353.8</ele>
        <time>2022-07-29T11:10:48Z</time>
      </trkpt>
      <trkpt lat="46.38975" lon="5.65698">
        <ele>353.8</ele>
        <time>2022-07-29T11:10:49Z</time>
      </trkpt>
      <trkpt lat="46.38975" lon="5.65702">
        <ele>354.2</ele>
        <time>2022-07-29T11:10:50Z</time>
      </trkpt>
      <trkpt lat="46.38975" lon="5.65705">
        <ele>354.2</ele>
        <time>2022-07-29T11:10:51Z</time>
      </trkpt>
      <trkpt lat="46.38976" lon="5.65709">
        <ele>354.6</ele>
        <time>2022-07-29T11:10:52Z</time>
      </trkpt>
      <trkpt lat="46.38976" lon="5.65713">
        <ele>354.6</ele>
        <time>2022-07-29T11:10:53Z</time>
      </trkpt>
      <trkpt lat="46.38976" lon="5.65717">
        <ele>354.8</ele>
        <time>2022-07-29T11:10:54Z</time>
      </trkpt>
      <trkpt lat="46.38977" lon="5.65721">
        <ele>355</ele>
        <time>2022-07-29T11:10:55Z</time>
      </trkpt>
      <trkpt lat="46.38977" lon="5.65726">
        <ele>355</ele>
        <time>2022-07-29T11:10:56Z</time>
      </trkpt>
      <trkpt lat="46.38977" lon="5.6573">
        <ele>355</ele>
        <time>2022-07-29T11:10:57Z</time>
      </trkpt>
      <trkpt lat="46.38977" lon="5.65734">
        <ele>355.4</ele>
        <time>2022-07-29T11:10:58Z</time>
      </trkpt>
      <trkpt lat="46.38977" lon="5.65739">
        <ele>355.4</ele>
        <time>2022-07-29T11:10:59Z</time>
      </trkpt>
      <trkpt lat="46.38976" lon="5.65743">
        <ele>355.6</ele>
        <time>2022-07-29T11:11:00Z</time>
      </trkpt>
      <trkpt lat="46.38975" lon="5.65747">
        <ele>355.6</ele>
        <time>2022-07-29T11:11:01Z</time>
      </trkpt>
      <trkpt lat="46.38974" lon="5.65752">
        <ele>355.6</ele>
        <time>2022-07-29T11:11:02Z</time>
      </trkpt>
      <trkpt lat="46.38972" lon="5.65756">
        <ele>356</ele>
        <time>2022-07-29T11:11:03Z</time>
      </trkpt>
      <trkpt lat="46.38971" lon="5.6576">
        <ele>356.2</ele>
        <time>2022-07-29T11:11:04Z</time>
      </trkpt>
      <trkpt lat="46.3897" lon="5.65764">
        <ele>356.4</ele>
        <time>2022-07-29T11:11:05Z</time>
      </trkpt>
      <trkpt lat="46.38969" lon="5.65768">
        <ele>356.4</ele>
        <time>2022-07-29T11:11:06Z</time>
      </trkpt>
      <trkpt lat="46.38968" lon="5.65772">
        <ele>356.8</ele>
        <time>2022-07-29T11:11:07Z</time>
      </trkpt>
      <trkpt lat="46.38967" lon="5.65776">
        <ele>357.2</ele>
        <time>2022-07-29T11:11:08Z</time>
      </trkpt>
      <trkpt lat="46.38966" lon="5.65779">
        <ele>357.4</ele>
        <time>2022-07-29T11:11:09Z</time>
      </trkpt>
      <trkpt lat="46.38966" lon="5.65783">
        <ele>357.6</ele>
        <time>2022-07-29T11:11:10Z</time>
      </trkpt>
      <trkpt lat="46.38965" lon="5.65787">
        <ele>357.8</ele>
        <time>2022-07-29T11:11:11Z</time>
      </trkpt>
      <trkpt lat="46.38964" lon="5.65791">
        <ele>357.8</ele>
        <time>2022-07-29T11:11:12Z</time>
      </trkpt>
      <trkpt lat="46.38963" lon="5.65795">
        <ele>358.2</ele>
        <time>2022-07-29T11:11:13Z</time>
      </trkpt>
      <trkpt lat="46.38963" lon="5.65799">
        <ele>358.6</ele>
        <time>2022-07-29T11:11:14Z</time>
      </trkpt>
      <trkpt lat="46.38962" lon="5.65803">
        <ele>358.8</ele>
        <time>2022-07-29T11:11:15Z</time>
      </trkpt>
      <trkpt lat="46.38962" lon="5.65807">
        <ele>359</ele>
        <time>2022-07-29T11:11:16Z</time>
      </trkpt>
      <trkpt lat="46.38961" lon="5.65811">
        <ele>359</ele>
        <time>2022-07-29T11:11:17Z</time>
      </trkpt>
      <trkpt lat="46.38961" lon="5.65815">
        <ele>359.4</ele>
        <time>2022-07-29T11:11:18Z</time>
      </trkpt>
      <trkpt lat="46.38961" lon="5.65819">
        <ele>359.8</ele>
        <time>2022-07-29T11:11:19Z</time>
      </trkpt>
      <trkpt lat="46.38961" lon="5.65823">
        <ele>359.8</ele>
        <time>2022-07-29T11:11:20Z</time>
      </trkpt>
      <trkpt lat="46.38962" lon="5.65826">
        <ele>360</ele>
        <time>2022-07-29T11:11:21Z</time>
      </trkpt>
      <trkpt lat="46.38962" lon="5.6583">
        <ele>360.2</ele>
        <time>2022-07-29T11:11:22Z</time>
      </trkpt>
      <trkpt lat="46.38962" lon="5.65833">
        <ele>360.2</ele>
        <time>2022-07-29T11:11:23Z</time>
      </trkpt>
      <trkpt lat="46.38963" lon="5.65837">
        <ele>360.6</ele>
        <time>2022-07-29T11:11:24Z</time>
      </trkpt>
      <trkpt lat="46.38963" lon="5.65841">
        <ele>360.6</ele>
        <time>2022-07-29T11:11:25Z</time>
      </trkpt>
      <trkpt lat="46.38963" lon="5.65845">
        <ele>361</ele>
        <time>2022-07-29T11:11:26Z</time>
      </trkpt>
      <trkpt lat="46.38963" lon="5.65849">
        <ele>361.4</ele>
        <time>2022-07-29T11:11:27Z</time>
      </trkpt>
      <trkpt lat="46.38963" lon="5.65853">
        <ele>361.6</ele>
        <time>2022-07-29T11:11:28Z</time>
      </trkpt>
      <trkpt lat="46.38964" lon="5.65857">
        <ele>361.6</ele>
        <time>2022-07-29T11:11:29Z</time>
      </trkpt>
      <trkpt lat="46.38965" lon="5.65861">
        <ele>361.8</ele>
        <time>2022-07-29T11:11:30Z</time>
      </trkpt>
      <trkpt lat="46.38966" lon="5.65865">
        <ele>361.8</ele>
        <time>2022-07-29T11:11:31Z</time>
      </trkpt>
      <trkpt lat="46.38967" lon="5.6587">
        <ele>362.2</ele>
        <time>2022-07-29T11:11:32Z</time>
      </trkpt>
      <trkpt lat="46.38967" lon="5.65874">
        <ele>362.2</ele>
        <time>2022-07-29T11:11:33Z</time>
      </trkpt>
      <trkpt lat="46.38968" lon="5.65879">
        <ele>362.4</ele>
        <time>2022-07-29T11:11:34Z</time>
      </trkpt>
      <trkpt lat="46.3897" lon="5.65883">
        <ele>362.4</ele>
        <time>2022-07-29T11:11:35Z</time>
      </trkpt>
      <trkpt lat="46.38971" lon="5.65888">
        <ele>362.4</ele>
        <time>2022-07-29T11:11:36Z</time>
      </trkpt>
      <trkpt lat="46.38972" lon="5.65892">
        <ele>362.6</ele>
        <time>2022-07-29T11:11:37Z</time>
      </trkpt>
      <trkpt lat="46.38973" lon="5.65897">
        <ele>362.6</ele>
        <time>2022-07-29T11:11:38Z</time>
      </trkpt>
      <trkpt lat="46.38975" lon="5.65902">
        <ele>362.6</ele>
        <time>2022-07-29T11:11:39Z</time>
      </trkpt>
      <trkpt lat="46.38976" lon="5.65907">
        <ele>362.6</ele>
        <time>2022-07-29T11:11:40Z</time>
      </trkpt>
      <trkpt lat="46.38978" lon="5.65912">
        <ele>362.6</ele>
        <time>2022-07-29T11:11:41Z</time>
      </trkpt>
      <trkpt lat="46.38979" lon="5.65917">
        <ele>362.8</ele>
        <time>2022-07-29T11:11:42Z</time>
      </trkpt>
      <trkpt lat="46.3898" lon="5.65922">
        <ele>362.8</ele>
        <time>2022-07-29T11:11:43Z</time>
      </trkpt>
      <trkpt lat="46.38981" lon="5.65928">
        <ele>362.8</ele>
        <time>2022-07-29T11:11:44Z</time>
      </trkpt>
      <trkpt lat="46.38982" lon="5.65933">
        <ele>363.2</ele>
        <time>2022-07-29T11:11:45Z</time>
      </trkpt>
      <trkpt lat="46.38983" lon="5.65938">
        <ele>363.2</ele>
        <time>2022-07-29T11:11:46Z</time>
      </trkpt>
      <trkpt lat="46.38983" lon="5.65944">
        <ele>363.2</ele>
        <time>2022-07-29T11:11:47Z</time>
      </trkpt>
      <trkpt lat="46.38983" lon="5.65949">
        <ele>363.6</ele>
        <time>2022-07-29T11:11:48Z</time>
      </trkpt>
      <trkpt lat="46.38983" lon="5.65954">
        <ele>363.6</ele>
        <time>2022-07-29T11:11:49Z</time>
      </trkpt>
      <trkpt lat="46.38983" lon="5.65958">
        <ele>363.8</ele>
        <time>2022-07-29T11:11:50Z</time>
      </trkpt>
      <trkpt lat="46.38983" lon="5.65963">
        <ele>363.8</ele>
        <time>2022-07-29T11:11:51Z</time>
      </trkpt>
      <trkpt lat="46.38982" lon="5.65967">
        <ele>364.2</ele>
        <time>2022-07-29T11:11:52Z</time>
      </trkpt>
      <trkpt lat="46.38982" lon="5.65972">
        <ele>364.2</ele>
        <time>2022-07-29T11:11:53Z</time>
      </trkpt>
      <trkpt lat="46.38982" lon="5.65976">
        <ele>364.4</ele>
        <time>2022-07-29T11:11:54Z</time>
      </trkpt>
      <trkpt lat="46.38981" lon="5.65981">
        <ele>364.4</ele>
        <time>2022-07-29T11:11:55Z</time>
      </trkpt>
      <trkpt lat="46.38981" lon="5.65986">
        <ele>364.6</ele>
        <time>2022-07-29T11:11:56Z</time>
      </trkpt>
      <trkpt lat="46.38981" lon="5.6599">
        <ele>364.6</ele>
        <time>2022-07-29T11:11:57Z</time>
      </trkpt>
      <trkpt lat="46.38981" lon="5.65995">
        <ele>364.8</ele>
        <time>2022-07-29T11:11:58Z</time>
      </trkpt>
      <trkpt lat="46.3898" lon="5.66">
        <ele>364.8</ele>
        <time>2022-07-29T11:11:59Z</time>
      </trkpt>
      <trkpt lat="46.3898" lon="5.66006">
        <ele>365</ele>
        <time>2022-07-29T11:12:00Z</time>
      </trkpt>
      <trkpt lat="46.38979" lon="5.66011">
        <ele>365</ele>
        <time>2022-07-29T11:12:01Z</time>
      </trkpt>
      <trkpt lat="46.38979" lon="5.66016">
        <ele>365</ele>
        <time>2022-07-29T11:12:02Z</time>
      </trkpt>
      <trkpt lat="46.38978" lon="5.66021">
        <ele>365</ele>
        <time>2022-07-29T11:12:03Z</time>
      </trkpt>
      <trkpt lat="46.38977" lon="5.66027">
        <ele>365</ele>
        <time>2022-07-29T11:12:04Z</time>
      </trkpt>
      <trkpt lat="46.38976" lon="5.66032">
        <ele>365.2</ele>
        <time>2022-07-29T11:12:05Z</time>
      </trkpt>
      <trkpt lat="46.38976" lon="5.66038">
        <ele>365.2</ele>
        <time>2022-07-29T11:12:06Z</time>
      </trkpt>
      <trkpt lat="46.38975" lon="5.66043">
        <ele>365.2</ele>
        <time>2022-07-29T11:12:07Z</time>
      </trkpt>
      <trkpt lat="46.38974" lon="5.66049">
        <ele>365.2</ele>
        <time>2022-07-29T11:12:08Z</time>
      </trkpt>
      <trkpt lat="46.38973" lon="5.66055">
        <ele>365.2</ele>
        <time>2022-07-29T11:12:09Z</time>
      </trkpt>
      <trkpt lat="46.38972" lon="5.6606">
        <ele>365.4</ele>
        <time>2022-07-29T11:12:10Z</time>
      </trkpt>
      <trkpt lat="46.38972" lon="5.66066">
        <ele>365.4</ele>
        <time>2022-07-29T11:12:11Z</time>
      </trkpt>
      <trkpt lat="46.38971" lon="5.66071">
        <ele>365.4</ele>
        <time>2022-07-29T11:12:12Z</time>
      </trkpt>
      <trkpt lat="46.38971" lon="5.66076">
        <ele>365.8</ele>
        <time>2022-07-29T11:12:13Z</time>
      </trkpt>
      <trkpt lat="46.38971" lon="5.66081">
        <ele>365.8</ele>
        <time>2022-07-29T11:12:14Z</time>
      </trkpt>
      <trkpt lat="46.38971" lon="5.66087">
        <ele>366</ele>
        <time>2022-07-29T11:12:15Z</time>
      </trkpt>
      <trkpt lat="46.3897" lon="5.66092">
        <ele>366</ele>
        <time>2022-07-29T11:12:16Z</time>
      </trkpt>
      <trkpt lat="46.3897" lon="5.66096">
        <ele>366.4</ele>
        <time>2022-07-29T11:12:17Z</time>
      </trkpt>
      <trkpt lat="46.3897" lon="5.66101">
        <ele>366.4</ele>
        <time>2022-07-29T11:12:18Z</time>
      </trkpt>
      <trkpt lat="46.3897" lon="5.66106">
        <ele>366.8</ele>
        <time>2022-07-29T11:12:19Z</time>
      </trkpt>
      <trkpt lat="46.3897" lon="5.66111">
        <ele>366.8</ele>
        <time>2022-07-29T11:12:20Z</time>
      </trkpt>
      <trkpt lat="46.3897" lon="5.66116">
        <ele>366.8</ele>
        <time>2022-07-29T11:12:21Z</time>
      </trkpt>
      <trkpt lat="46.3897" lon="5.66121">
        <ele>367</ele>
        <time>2022-07-29T11:12:22Z</time>
      </trkpt>
      <trkpt lat="46.38971" lon="5.66125">
        <ele>367</ele>
        <time>2022-07-29T11:12:23Z</time>
      </trkpt>
      <trkpt lat="46.38971" lon="5.66129">
        <ele>367.4</ele>
        <time>2022-07-29T11:12:24Z</time>
      </trkpt>
      <trkpt lat="46.38971" lon="5.66134">
        <ele>367.4</ele>
        <time>2022-07-29T11:12:25Z</time>
      </trkpt>
      <trkpt lat="46.38971" lon="5.66138">
        <ele>367.6</ele>
        <time>2022-07-29T11:12:26Z</time>
      </trkpt>
      <trkpt lat="46.38971" lon="5.66142">
        <ele>367.6</ele>
        <time>2022-07-29T11:12:27Z</time>
      </trkpt>
      <trkpt lat="46.38971" lon="5.66147">
        <ele>367.8</ele>
        <time>2022-07-29T11:12:28Z</time>
      </trkpt>
      <trkpt lat="46.3897" lon="5.66151">
        <ele>367.8</ele>
        <time>2022-07-29T11:12:29Z</time>
      </trkpt>
      <trkpt lat="46.3897" lon="5.66155">
        <ele>368.2</ele>
        <time>2022-07-29T11:12:30Z</time>
      </trkpt>
      <trkpt lat="46.38969" lon="5.66159">
        <ele>368.4</ele>
        <time>2022-07-29T11:12:31Z</time>
      </trkpt>
      <trkpt lat="46.38968" lon="5.66162">
        <ele>368.6</ele>
        <time>2022-07-29T11:12:32Z</time>
      </trkpt>
      <trkpt lat="46.38966" lon="5.66166">
        <ele>368.8</ele>
        <time>2022-07-29T11:12:33Z</time>
      </trkpt>
      <trkpt lat="46.38965" lon="5.66168">
        <ele>368.8</ele>
        <time>2022-07-29T11:12:34Z</time>
      </trkpt>
      <trkpt lat="46.38963" lon="5.66171">
        <ele>369.2</ele>
        <time>2022-07-29T11:12:35Z</time>
      </trkpt>
      <trkpt lat="46.38961" lon="5.66174">
        <ele>369.4</ele>
        <time>2022-07-29T11:12:36Z</time>
      </trkpt>
      <trkpt lat="46.38959" lon="5.66177">
        <ele>369.6</ele>
        <time>2022-07-29T11:12:37Z</time>
      </trkpt>
      <trkpt lat="46.38957" lon="5.6618">
        <ele>369.8</ele>
        <time>2022-07-29T11:12:38Z</time>
      </trkpt>
      <trkpt lat="46.38955" lon="5.66182">
        <ele>370.2</ele>
        <time>2022-07-29T11:12:39Z</time>
      </trkpt>
      <trkpt lat="46.38953" lon="5.66184">
        <ele>370.4</ele>
        <time>2022-07-29T11:12:40Z</time>
      </trkpt>
      <trkpt lat="46.3895" lon="5.66185">
        <ele>370.8</ele>
        <time>2022-07-29T11:12:41Z</time>
      </trkpt>
      <trkpt lat="46.38948" lon="5.66187">
        <ele>371</ele>
        <time>2022-07-29T11:12:42Z</time>
      </trkpt>
      <trkpt lat="46.38945" lon="5.66189">
        <ele>371.2</ele>
        <time>2022-07-29T11:12:43Z</time>
      </trkpt>
      <trkpt lat="46.38943" lon="5.6619">
        <ele>371.4</ele>
        <time>2022-07-29T11:12:44Z</time>
      </trkpt>
      <trkpt lat="46.3894" lon="5.66191">
        <ele>371.8</ele>
        <time>2022-07-29T11:12:45Z</time>
      </trkpt>
      <trkpt lat="46.38938" lon="5.66192">
        <ele>371.8</ele>
        <time>2022-07-29T11:12:46Z</time>
      </trkpt>
      <trkpt lat="46.38936" lon="5.66193">
        <ele>372</ele>
        <time>2022-07-29T11:12:47Z</time>
      </trkpt>
      <trkpt lat="46.38933" lon="5.66195">
        <ele>372.2</ele>
        <time>2022-07-29T11:12:48Z</time>
      </trkpt>
      <trkpt lat="46.38931" lon="5.66197">
        <ele>372.6</ele>
        <time>2022-07-29T11:12:49Z</time>
      </trkpt>
      <trkpt lat="46.38928" lon="5.66199">
        <ele>372.8</ele>
        <time>2022-07-29T11:12:50Z</time>
      </trkpt>
      <trkpt lat="46.38926" lon="5.66201">
        <ele>373</ele>
        <time>2022-07-29T11:12:51Z</time>
      </trkpt>
      <trkpt lat="46.38924" lon="5.66203">
        <ele>373.2</ele>
        <time>2022-07-29T11:12:52Z</time>
      </trkpt>
      <trkpt lat="46.38921" lon="5.66205">
        <ele>373.4</ele>
        <time>2022-07-29T11:12:53Z</time>
      </trkpt>
      <trkpt lat="46.38919" lon="5.66208">
        <ele>373.4</ele>
        <time>2022-07-29T11:12:54Z</time>
      </trkpt>
      <trkpt lat="46.38917" lon="5.6621">
        <ele>373.8</ele>
        <time>2022-07-29T11:12:55Z</time>
      </trkpt>
      <trkpt lat="46.38914" lon="5.66213">
        <ele>373.8</ele>
        <time>2022-07-29T11:12:56Z</time>
      </trkpt>
      <trkpt lat="46.38912" lon="5.66215">
        <ele>374.2</ele>
        <time>2022-07-29T11:12:57Z</time>
      </trkpt>
      <trkpt lat="46.3891" lon="5.66218">
        <ele>374.2</ele>
        <time>2022-07-29T11:12:58Z</time>
      </trkpt>
      <trkpt lat="46.38908" lon="5.66221">
        <ele>374.6</ele>
        <time>2022-07-29T11:12:59Z</time>
      </trkpt>
      <trkpt lat="46.38906" lon="5.66223">
        <ele>374.8</ele>
        <time>2022-07-29T11:13:00Z</time>
      </trkpt>
      <trkpt lat="46.38904" lon="5.66226">
        <ele>375.2</ele>
        <time>2022-07-29T11:13:01Z</time>
      </trkpt>
      <trkpt lat="46.38903" lon="5.66229">
        <ele>375.4</ele>
        <time>2022-07-29T11:13:02Z</time>
      </trkpt>
      <trkpt lat="46.38901" lon="5.66231">
        <ele>375.6</ele>
        <time>2022-07-29T11:13:03Z</time>
      </trkpt>
      <trkpt lat="46.389" lon="5.66235">
        <ele>375.8</ele>
        <time>2022-07-29T11:13:04Z</time>
      </trkpt>
      <trkpt lat="46.38898" lon="5.66238">
        <ele>376.2</ele>
        <time>2022-07-29T11:13:05Z</time>
      </trkpt>
      <trkpt lat="46.38896" lon="5.66241">
        <ele>376.4</ele>
        <time>2022-07-29T11:13:06Z</time>
      </trkpt>
      <trkpt lat="46.38895" lon="5.66244">
        <ele>376.6</ele>
        <time>2022-07-29T11:13:07Z</time>
      </trkpt>
      <trkpt lat="46.38894" lon="5.66247">
        <ele>376.8</ele>
        <time>2022-07-29T11:13:08Z</time>
      </trkpt>
      <trkpt lat="46.38892" lon="5.6625">
        <ele>377.2</ele>
        <time>2022-07-29T11:13:09Z</time>
      </trkpt>
      <trkpt lat="46.38891" lon="5.66253">
        <ele>377.4</ele>
        <time>2022-07-29T11:13:10Z</time>
      </trkpt>
      <trkpt lat="46.3889" lon="5.66256">
        <ele>377.6</ele>
        <time>2022-07-29T11:13:11Z</time>
      </trkpt>
      <trkpt lat="46.38889" lon="5.66259">
        <ele>377.8</ele>
        <time>2022-07-29T11:13:12Z</time>
      </trkpt>
      <trkpt lat="46.38888" lon="5.66262">
        <ele>378</ele>
        <time>2022-07-29T11:13:13Z</time>
      </trkpt>
      <trkpt lat="46.38886" lon="5.66264">
        <ele>378.4</ele>
        <time>2022-07-29T11:13:14Z</time>
      </trkpt>
      <trkpt lat="46.38885" lon="5.66267">
        <ele>378.6</ele>
        <time>2022-07-29T11:13:15Z</time>
      </trkpt>
      <trkpt lat="46.38883" lon="5.6627">
        <ele>378.6</ele>
        <time>2022-07-29T11:13:16Z</time>
      </trkpt>
      <trkpt lat="46.38881" lon="5.66272">
        <ele>378.8</ele>
        <time>2022-07-29T11:13:17Z</time>
      </trkpt>
      <trkpt lat="46.38879" lon="5.66274">
        <ele>378.8</ele>
        <time>2022-07-29T11:13:18Z</time>
      </trkpt>
      <trkpt lat="46.38876" lon="5.66276">
        <ele>379.2</ele>
        <time>2022-07-29T11:13:19Z</time>
      </trkpt>
      <trkpt lat="46.38873" lon="5.66278">
        <ele>379.2</ele>
        <time>2022-07-29T11:13:20Z</time>
      </trkpt>
      <trkpt lat="46.38871" lon="5.6628">
        <ele>379.4</ele>
        <time>2022-07-29T11:13:21Z</time>
      </trkpt>
      <trkpt lat="46.38868" lon="5.66281">
        <ele>379.4</ele>
        <time>2022-07-29T11:13:22Z</time>
      </trkpt>
      <trkpt lat="46.38865" lon="5.66283">
        <ele>379.6</ele>
        <time>2022-07-29T11:13:23Z</time>
      </trkpt>
      <trkpt lat="46.38862" lon="5.66284">
        <ele>379.6</ele>
        <time>2022-07-29T11:13:24Z</time>
      </trkpt>
      <trkpt lat="46.38859" lon="5.66285">
        <ele>380</ele>
        <time>2022-07-29T11:13:25Z</time>
      </trkpt>
      <trkpt lat="46.38857" lon="5.66286">
        <ele>380</ele>
        <time>2022-07-29T11:13:26Z</time>
      </trkpt>
      <trkpt lat="46.38854" lon="5.66287">
        <ele>380.2</ele>
        <time>2022-07-29T11:13:27Z</time>
      </trkpt>
      <trkpt lat="46.38852" lon="5.66288">
        <ele>380.4</ele>
        <time>2022-07-29T11:13:28Z</time>
      </trkpt>
      <trkpt lat="46.38849" lon="5.6629">
        <ele>380.4</ele>
        <time>2022-07-29T11:13:29Z</time>
      </trkpt>
      <trkpt lat="46.38847" lon="5.66292">
        <ele>380.8</ele>
        <time>2022-07-29T11:13:30Z</time>
      </trkpt>
      <trkpt lat="46.38845" lon="5.66294">
        <ele>380.8</ele>
        <time>2022-07-29T11:13:31Z</time>
      </trkpt>
      <trkpt lat="46.38842" lon="5.66296">
        <ele>381.2</ele>
        <time>2022-07-29T11:13:32Z</time>
      </trkpt>
      <trkpt lat="46.38839" lon="5.66298">
        <ele>381.2</ele>
        <time>2022-07-29T11:13:33Z</time>
      </trkpt>
      <trkpt lat="46.38837" lon="5.663">
        <ele>381.4</ele>
        <time>2022-07-29T11:13:34Z</time>
      </trkpt>
      <trkpt lat="46.38834" lon="5.66301">
        <ele>381.4</ele>
        <time>2022-07-29T11:13:35Z</time>
      </trkpt>
      <trkpt lat="46.3883" lon="5.66302">
        <ele>381.4</ele>
        <time>2022-07-29T11:13:36Z</time>
      </trkpt>
      <trkpt lat="46.38827" lon="5.66302">
        <ele>381.4</ele>
        <time>2022-07-29T11:13:37Z</time>
      </trkpt>
      <trkpt lat="46.38823" lon="5.66303">
        <ele>381.6</ele>
        <time>2022-07-29T11:13:38Z</time>
      </trkpt>
      <trkpt lat="46.38819" lon="5.66305">
        <ele>381.6</ele>
        <time>2022-07-29T11:13:39Z</time>
      </trkpt>
      <trkpt lat="46.38816" lon="5.66308">
        <ele>381.6</ele>
        <time>2022-07-29T11:13:40Z</time>
      </trkpt>
      <trkpt lat="46.38813" lon="5.66311">
        <ele>382</ele>
        <time>2022-07-29T11:13:41Z</time>
      </trkpt>
      <trkpt lat="46.38811" lon="5.66314">
        <ele>382</ele>
        <time>2022-07-29T11:13:42Z</time>
      </trkpt>
      <trkpt lat="46.38809" lon="5.66317">
        <ele>382.4</ele>
        <time>2022-07-29T11:13:43Z</time>
      </trkpt>
      <trkpt lat="46.38808" lon="5.6632">
        <ele>382.4</ele>
        <time>2022-07-29T11:13:44Z</time>
      </trkpt>
      <trkpt lat="46.38806" lon="5.66324">
        <ele>382.6</ele>
        <time>2022-07-29T11:13:45Z</time>
      </trkpt>
      <trkpt lat="46.38805" lon="5.66327">
        <ele>383</ele>
        <time>2022-07-29T11:13:46Z</time>
      </trkpt>
      <trkpt lat="46.38804" lon="5.66331">
        <ele>383.2</ele>
        <time>2022-07-29T11:13:47Z</time>
      </trkpt>
      <trkpt lat="46.38802" lon="5.66334">
        <ele>383.2</ele>
        <time>2022-07-29T11:13:48Z</time>
      </trkpt>
      <trkpt lat="46.388" lon="5.66337">
        <ele>383.6</ele>
        <time>2022-07-29T11:13:49Z</time>
      </trkpt>
      <trkpt lat="46.38799" lon="5.66339">
        <ele>383.6</ele>
        <time>2022-07-29T11:13:50Z</time>
      </trkpt>
      <trkpt lat="46.38798" lon="5.66342">
        <ele>383.8</ele>
        <time>2022-07-29T11:13:51Z</time>
      </trkpt>
      <trkpt lat="46.38796" lon="5.66346">
        <ele>383.8</ele>
        <time>2022-07-29T11:13:52Z</time>
      </trkpt>
      <trkpt lat="46.38795" lon="5.66349">
        <ele>384.2</ele>
        <time>2022-07-29T11:13:53Z</time>
      </trkpt>
      <trkpt lat="46.38794" lon="5.66351">
        <ele>384.4</ele>
        <time>2022-07-29T11:13:54Z</time>
      </trkpt>
      <trkpt lat="46.38792" lon="5.66352">
        <ele>384.6</ele>
        <time>2022-07-29T11:13:55Z</time>
      </trkpt>
      <trkpt lat="46.38789" lon="5.66354">
        <ele>384.6</ele>
        <time>2022-07-29T11:13:56Z</time>
      </trkpt>
      <trkpt lat="46.38787" lon="5.66355">
        <ele>385</ele>
        <time>2022-07-29T11:13:57Z</time>
      </trkpt>
      <trkpt lat="46.38784" lon="5.66357">
        <ele>385</ele>
        <time>2022-07-29T11:13:58Z</time>
      </trkpt>
      <trkpt lat="46.38782" lon="5.66359">
        <ele>385.2</ele>
        <time>2022-07-29T11:13:59Z</time>
      </trkpt>
      <trkpt lat="46.38779" lon="5.6636">
        <ele>385.2</ele>
        <time>2022-07-29T11:14:00Z</time>
      </trkpt>
      <trkpt lat="46.38776" lon="5.66362">
        <ele>385.6</ele>
        <time>2022-07-29T11:14:01Z</time>
      </trkpt>
      <trkpt lat="46.38774" lon="5.66364">
        <ele>385.6</ele>
        <time>2022-07-29T11:14:02Z</time>
      </trkpt>
      <trkpt lat="46.38772" lon="5.66366">
        <ele>386</ele>
        <time>2022-07-29T11:14:03Z</time>
      </trkpt>
      <trkpt lat="46.38771" lon="5.66369">
        <ele>386.2</ele>
        <time>2022-07-29T11:14:04Z</time>
      </trkpt>
      <trkpt lat="46.3877" lon="5.66372">
        <ele>386.6</ele>
        <time>2022-07-29T11:14:05Z</time>
      </trkpt>
      <trkpt lat="46.38768" lon="5.66375">
        <ele>386.8</ele>
        <time>2022-07-29T11:14:06Z</time>
      </trkpt>
      <trkpt lat="46.38767" lon="5.66377">
        <ele>386.8</ele>
        <time>2022-07-29T11:14:07Z</time>
      </trkpt>
      <trkpt lat="46.38765" lon="5.6638">
        <ele>387.2</ele>
        <time>2022-07-29T11:14:08Z</time>
      </trkpt>
      <trkpt lat="46.38762" lon="5.66381">
        <ele>387.2</ele>
        <time>2022-07-29T11:14:09Z</time>
      </trkpt>
      <trkpt lat="46.3876" lon="5.66383">
        <ele>387.4</ele>
        <time>2022-07-29T11:14:10Z</time>
      </trkpt>
      <trkpt lat="46.38757" lon="5.66384">
        <ele>387.4</ele>
        <time>2022-07-29T11:14:11Z</time>
      </trkpt>
      <trkpt lat="46.38754" lon="5.66386">
        <ele>387.4</ele>
        <time>2022-07-29T11:14:12Z</time>
      </trkpt>
      <trkpt lat="46.3875" lon="5.66387">
        <ele>387.4</ele>
        <time>2022-07-29T11:14:13Z</time>
      </trkpt>
      <trkpt lat="46.38747" lon="5.66389">
        <ele>387.4</ele>
        <time>2022-07-29T11:14:14Z</time>
      </trkpt>
      <trkpt lat="46.38744" lon="5.66392">
        <ele>387.4</ele>
        <time>2022-07-29T11:14:15Z</time>
      </trkpt>
      <trkpt lat="46.3874" lon="5.66394">
        <ele>387.4</ele>
        <time>2022-07-29T11:14:16Z</time>
      </trkpt>
      <trkpt lat="46.38736" lon="5.66396">
        <ele>387.4</ele>
        <time>2022-07-29T11:14:17Z</time>
      </trkpt>
      <trkpt lat="46.38733" lon="5.664">
        <ele>387.2</ele>
        <time>2022-07-29T11:14:18Z</time>
      </trkpt>
      <trkpt lat="46.38729" lon="5.66403">
        <ele>387.2</ele>
        <time>2022-07-29T11:14:19Z</time>
      </trkpt>
      <trkpt lat="46.38725" lon="5.66406">
        <ele>386.8</ele>
        <time>2022-07-29T11:14:20Z</time>
      </trkpt>
      <trkpt lat="46.3872" lon="5.66409">
        <ele>386.8</ele>
        <time>2022-07-29T11:14:21Z</time>
      </trkpt>
      <trkpt lat="46.38715" lon="5.66412">
        <ele>386.6</ele>
        <time>2022-07-29T11:14:22Z</time>
      </trkpt>
      <trkpt lat="46.38709" lon="5.66416">
        <ele>386.4</ele>
        <time>2022-07-29T11:14:23Z</time>
      </trkpt>
      <trkpt lat="46.38704" lon="5.66419">
        <ele>386</ele>
        <time>2022-07-29T11:14:24Z</time>
      </trkpt>
      <trkpt lat="46.38698" lon="5.66423">
        <ele>386</ele>
        <time>2022-07-29T11:14:25Z</time>
      </trkpt>
      <trkpt lat="46.38692" lon="5.66428">
        <ele>385.6</ele>
        <time>2022-07-29T11:14:26Z</time>
      </trkpt>
      <trkpt lat="46.38687" lon="5.66432">
        <ele>385.6</ele>
        <time>2022-07-29T11:14:27Z</time>
      </trkpt>
      <trkpt lat="46.38682" lon="5.66436">
        <ele>385.2</ele>
        <time>2022-07-29T11:14:28Z</time>
      </trkpt>
      <trkpt lat="46.38676" lon="5.6644">
        <ele>385.2</ele>
        <time>2022-07-29T11:14:29Z</time>
      </trkpt>
      <trkpt lat="46.38671" lon="5.66444">
        <ele>385</ele>
        <time>2022-07-29T11:14:30Z</time>
      </trkpt>
      <trkpt lat="46.38666" lon="5.66448">
        <ele>385</ele>
        <time>2022-07-29T11:14:31Z</time>
      </trkpt>
      <trkpt lat="46.38661" lon="5.66451">
        <ele>385</ele>
        <time>2022-07-29T11:14:32Z</time>
      </trkpt>
      <trkpt lat="46.38656" lon="5.66455">
        <ele>385</ele>
        <time>2022-07-29T11:14:33Z</time>
      </trkpt>
      <trkpt lat="46.38652" lon="5.66458">
        <ele>385</ele>
        <time>2022-07-29T11:14:34Z</time>
      </trkpt>
      <trkpt lat="46.38648" lon="5.6646">
        <ele>385.4</ele>
        <time>2022-07-29T11:14:35Z</time>
      </trkpt>
      <trkpt lat="46.38644" lon="5.66463">
        <ele>385.6</ele>
        <time>2022-07-29T11:14:36Z</time>
      </trkpt>
      <trkpt lat="46.38641" lon="5.66466">
        <ele>385.6</ele>
        <time>2022-07-29T11:14:37Z</time>
      </trkpt>
      <trkpt lat="46.38637" lon="5.66468">
        <ele>386</ele>
        <time>2022-07-29T11:14:38Z</time>
      </trkpt>
      <trkpt lat="46.38634" lon="5.66471">
        <ele>386</ele>
        <time>2022-07-29T11:14:39Z</time>
      </trkpt>
      <trkpt lat="46.38631" lon="5.66473">
        <ele>386.4</ele>
        <time>2022-07-29T11:14:40Z</time>
      </trkpt>
      <trkpt lat="46.38627" lon="5.66474">
        <ele>386.6</ele>
        <time>2022-07-29T11:14:41Z</time>
      </trkpt>
      <trkpt lat="46.38624" lon="5.66476">
        <ele>387</ele>
        <time>2022-07-29T11:14:42Z</time>
      </trkpt>
      <trkpt lat="46.38622" lon="5.66477">
        <ele>387.2</ele>
        <time>2022-07-29T11:14:43Z</time>
      </trkpt>
      <trkpt lat="46.38619" lon="5.66477">
        <ele>387.4</ele>
        <time>2022-07-29T11:14:44Z</time>
      </trkpt>
      <trkpt lat="46.38616" lon="5.66478">
        <ele>387.8</ele>
        <time>2022-07-29T11:14:45Z</time>
      </trkpt>
      <trkpt lat="46.38613" lon="5.66479">
        <ele>388</ele>
        <time>2022-07-29T11:14:46Z</time>
      </trkpt>
      <trkpt lat="46.38611" lon="5.66481">
        <ele>388.4</ele>
        <time>2022-07-29T11:14:47Z</time>
      </trkpt>
      <trkpt lat="46.38608" lon="5.66482">
        <ele>388.6</ele>
        <time>2022-07-29T11:14:48Z</time>
      </trkpt>
      <trkpt lat="46.38606" lon="5.66483">
        <ele>389</ele>
        <time>2022-07-29T11:14:49Z</time>
      </trkpt>
      <trkpt lat="46.38604" lon="5.66484">
        <ele>389.2</ele>
        <time>2022-07-29T11:14:50Z</time>
      </trkpt>
      <trkpt lat="46.38601" lon="5.66485">
        <ele>389.6</ele>
        <time>2022-07-29T11:14:51Z</time>
      </trkpt>
      <trkpt lat="46.38598" lon="5.66486">
        <ele>389.8</ele>
        <time>2022-07-29T11:14:52Z</time>
      </trkpt>
      <trkpt lat="46.38595" lon="5.66486">
        <ele>390.2</ele>
        <time>2022-07-29T11:14:53Z</time>
      </trkpt>
      <trkpt lat="46.38592" lon="5.66487">
        <ele>390.6</ele>
        <time>2022-07-29T11:14:54Z</time>
      </trkpt>
      <trkpt lat="46.3859" lon="5.66487">
        <ele>390.8</ele>
        <time>2022-07-29T11:14:55Z</time>
      </trkpt>
      <trkpt lat="46.38587" lon="5.66488">
        <ele>391.2</ele>
        <time>2022-07-29T11:14:56Z</time>
      </trkpt>
      <trkpt lat="46.38584" lon="5.66489">
        <ele>391.6</ele>
        <time>2022-07-29T11:14:57Z</time>
      </trkpt>
      <trkpt lat="46.38582" lon="5.6649">
        <ele>391.8</ele>
        <time>2022-07-29T11:14:58Z</time>
      </trkpt>
      <trkpt lat="46.38579" lon="5.6649">
        <ele>392.2</ele>
        <time>2022-07-29T11:14:59Z</time>
      </trkpt>
      <trkpt lat="46.38576" lon="5.66491">
        <ele>392.4</ele>
        <time>2022-07-29T11:15:00Z</time>
      </trkpt>
      <trkpt lat="46.38574" lon="5.66492">
        <ele>392.8</ele>
        <time>2022-07-29T11:15:01Z</time>
      </trkpt>
      <trkpt lat="46.38571" lon="5.66493">
        <ele>393</ele>
        <time>2022-07-29T11:15:02Z</time>
      </trkpt>
      <trkpt lat="46.38568" lon="5.66493">
        <ele>393.4</ele>
        <time>2022-07-29T11:15:03Z</time>
      </trkpt>
      <trkpt lat="46.38566" lon="5.66495">
        <ele>393.8</ele>
        <time>2022-07-29T11:15:04Z</time>
      </trkpt>
      <trkpt lat="46.38563" lon="5.66496">
        <ele>394</ele>
        <time>2022-07-29T11:15:05Z</time>
      </trkpt>
      <trkpt lat="46.38559" lon="5.66498">
        <ele>394.4</ele>
        <time>2022-07-29T11:15:06Z</time>
      </trkpt>
      <trkpt lat="46.38556" lon="5.66498">
        <ele>394.6</ele>
        <time>2022-07-29T11:15:07Z</time>
      </trkpt>
      <trkpt lat="46.38554" lon="5.66499">
        <ele>395</ele>
        <time>2022-07-29T11:15:08Z</time>
      </trkpt>
      <trkpt lat="46.38551" lon="5.665">
        <ele>395.2</ele>
        <time>2022-07-29T11:15:09Z</time>
      </trkpt>
      <trkpt lat="46.38548" lon="5.66501">
        <ele>395.6</ele>
        <time>2022-07-29T11:15:10Z</time>
      </trkpt>
      <trkpt lat="46.38545" lon="5.66502">
        <ele>395.8</ele>
        <time>2022-07-29T11:15:11Z</time>
      </trkpt>
      <trkpt lat="46.38543" lon="5.66503">
        <ele>396.2</ele>
        <time>2022-07-29T11:15:12Z</time>
      </trkpt>
      <trkpt lat="46.3854" lon="5.66504">
        <ele>396.4</ele>
        <time>2022-07-29T11:15:13Z</time>
      </trkpt>
      <trkpt lat="46.38538" lon="5.66505">
        <ele>396.8</ele>
        <time>2022-07-29T11:15:14Z</time>
      </trkpt>
      <trkpt lat="46.38535" lon="5.66506">
        <ele>397</ele>
        <time>2022-07-29T11:15:15Z</time>
      </trkpt>
      <trkpt lat="46.38533" lon="5.66507">
        <ele>397.4</ele>
        <time>2022-07-29T11:15:16Z</time>
      </trkpt>
      <trkpt lat="46.38531" lon="5.66508">
        <ele>397.4</ele>
        <time>2022-07-29T11:15:17Z</time>
      </trkpt>
      <trkpt lat="46.38528" lon="5.66509">
        <ele>397.6</ele>
        <time>2022-07-29T11:15:18Z</time>
      </trkpt>
      <trkpt lat="46.38526" lon="5.6651">
        <ele>397.8</ele>
        <time>2022-07-29T11:15:19Z</time>
      </trkpt>
      <trkpt lat="46.38524" lon="5.66511">
        <ele>398.2</ele>
        <time>2022-07-29T11:15:20Z</time>
      </trkpt>
      <trkpt lat="46.38521" lon="5.66512">
        <ele>398.2</ele>
        <time>2022-07-29T11:15:21Z</time>
      </trkpt>
      <trkpt lat="46.38519" lon="5.66513">
        <ele>398.6</ele>
        <time>2022-07-29T11:15:22Z</time>
      </trkpt>
      <trkpt lat="46.38517" lon="5.66515">
        <ele>398.6</ele>
        <time>2022-07-29T11:15:23Z</time>
      </trkpt>
      <trkpt lat="46.38515" lon="5.66516">
        <ele>399</ele>
        <time>2022-07-29T11:15:24Z</time>
      </trkpt>
      <trkpt lat="46.38515" lon="5.66516">
        <ele>399.2</ele>
        <time>2022-07-29T11:15:25Z</time>
      </trkpt>
      <trkpt lat="46.38513" lon="5.66517">
        <ele>399.4</ele>
        <time>2022-07-29T11:15:26Z</time>
      </trkpt>
      <trkpt lat="46.3851" lon="5.66518">
        <ele>399.6</ele>
        <time>2022-07-29T11:15:27Z</time>
      </trkpt>
      <trkpt lat="46.38508" lon="5.66519">
        <ele>399.6</ele>
        <time>2022-07-29T11:15:28Z</time>
      </trkpt>
      <trkpt lat="46.38506" lon="5.66521">
        <ele>400</ele>
        <time>2022-07-29T11:15:29Z</time>
      </trkpt>
      <trkpt lat="46.38504" lon="5.66522">
        <ele>400</ele>
        <time>2022-07-29T11:15:30Z</time>
      </trkpt>
      <trkpt lat="46.38501" lon="5.66523">
        <ele>400.4</ele>
        <time>2022-07-29T11:15:31Z</time>
      </trkpt>
      <trkpt lat="46.38499" lon="5.66525">
        <ele>400.4</ele>
        <time>2022-07-29T11:15:32Z</time>
      </trkpt>
      <trkpt lat="46.38496" lon="5.66526">
        <ele>400.8</ele>
        <time>2022-07-29T11:15:33Z</time>
      </trkpt>
      <trkpt lat="46.38494" lon="5.66527">
        <ele>400.8</ele>
        <time>2022-07-29T11:15:34Z</time>
      </trkpt>
      <trkpt lat="46.38491" lon="5.66528">
        <ele>401.2</ele>
        <time>2022-07-29T11:15:35Z</time>
      </trkpt>
      <trkpt lat="46.38489" lon="5.6653">
        <ele>401.2</ele>
        <time>2022-07-29T11:15:36Z</time>
      </trkpt>
      <trkpt lat="46.38486" lon="5.66531">
        <ele>401.4</ele>
        <time>2022-07-29T11:15:37Z</time>
      </trkpt>
      <trkpt lat="46.38484" lon="5.66533">
        <ele>401.4</ele>
        <time>2022-07-29T11:15:38Z</time>
      </trkpt>
      <trkpt lat="46.38481" lon="5.66534">
        <ele>401.8</ele>
        <time>2022-07-29T11:15:39Z</time>
      </trkpt>
      <trkpt lat="46.38479" lon="5.66535">
        <ele>402</ele>
        <time>2022-07-29T11:15:40Z</time>
      </trkpt>
      <trkpt lat="46.38476" lon="5.66536">
        <ele>402.2</ele>
        <time>2022-07-29T11:15:41Z</time>
      </trkpt>
      <trkpt lat="46.38473" lon="5.66537">
        <ele>402.4</ele>
        <time>2022-07-29T11:15:42Z</time>
      </trkpt>
      <trkpt lat="46.38471" lon="5.66538">
        <ele>402.4</ele>
        <time>2022-07-29T11:15:43Z</time>
      </trkpt>
      <trkpt lat="46.38468" lon="5.66539">
        <ele>402.8</ele>
        <time>2022-07-29T11:15:44Z</time>
      </trkpt>
      <trkpt lat="46.38465" lon="5.6654">
        <ele>402.8</ele>
        <time>2022-07-29T11:15:45Z</time>
      </trkpt>
      <trkpt lat="46.38463" lon="5.66541">
        <ele>403.2</ele>
        <time>2022-07-29T11:15:46Z</time>
      </trkpt>
      <trkpt lat="46.3846" lon="5.66542">
        <ele>403.6</ele>
        <time>2022-07-29T11:15:47Z</time>
      </trkpt>
      <trkpt lat="46.38458" lon="5.66543">
        <ele>403.8</ele>
        <time>2022-07-29T11:15:48Z</time>
      </trkpt>
      <trkpt lat="46.38455" lon="5.66544">
        <ele>404</ele>
        <time>2022-07-29T11:15:49Z</time>
      </trkpt>
      <trkpt lat="46.38453" lon="5.66545">
        <ele>404</ele>
        <time>2022-07-29T11:15:50Z</time>
      </trkpt>
      <trkpt lat="46.38451" lon="5.66546">
        <ele>404.4</ele>
        <time>2022-07-29T11:15:51Z</time>
      </trkpt>
      <trkpt lat="46.38449" lon="5.66547">
        <ele>404.6</ele>
        <time>2022-07-29T11:15:52Z</time>
      </trkpt>
      <trkpt lat="46.38446" lon="5.66548">
        <ele>404.6</ele>
        <time>2022-07-29T11:15:53Z</time>
      </trkpt>
      <trkpt lat="46.38444" lon="5.66549">
        <ele>405</ele>
        <time>2022-07-29T11:15:54Z</time>
      </trkpt>
      <trkpt lat="46.38441" lon="5.66549">
        <ele>405.2</ele>
        <time>2022-07-29T11:15:55Z</time>
      </trkpt>
      <trkpt lat="46.38439" lon="5.6655">
        <ele>405.4</ele>
        <time>2022-07-29T11:15:56Z</time>
      </trkpt>
      <trkpt lat="46.38436" lon="5.66551">
        <ele>405.4</ele>
        <time>2022-07-29T11:15:57Z</time>
      </trkpt>
      <trkpt lat="46.38434" lon="5.66552">
        <ele>405.8</ele>
        <time>2022-07-29T11:15:58Z</time>
      </trkpt>
      <trkpt lat="46.38431" lon="5.66553">
        <ele>406.2</ele>
        <time>2022-07-29T11:15:59Z</time>
      </trkpt>
      <trkpt lat="46.38428" lon="5.66554">
        <ele>406.2</ele>
        <time>2022-07-29T11:16:00Z</time>
      </trkpt>
      <trkpt lat="46.38426" lon="5.66555">
        <ele>406.4</ele>
        <time>2022-07-29T11:16:01Z</time>
      </trkpt>
      <trkpt lat="46.38423" lon="5.66556">
        <ele>406.4</ele>
        <time>2022-07-29T11:16:02Z</time>
      </trkpt>
      <trkpt lat="46.3842" lon="5.66557">
        <ele>406.8</ele>
        <time>2022-07-29T11:16:03Z</time>
      </trkpt>
      <trkpt lat="46.38418" lon="5.66558">
        <ele>406.8</ele>
        <time>2022-07-29T11:16:04Z</time>
      </trkpt>
      <trkpt lat="46.38415" lon="5.66559">
        <ele>407</ele>
        <time>2022-07-29T11:16:05Z</time>
      </trkpt>
      <trkpt lat="46.38412" lon="5.66561">
        <ele>407</ele>
        <time>2022-07-29T11:16:06Z</time>
      </trkpt>
      <trkpt lat="46.38409" lon="5.66562">
        <ele>407.4</ele>
        <time>2022-07-29T11:16:07Z</time>
      </trkpt>
      <trkpt lat="46.38406" lon="5.66562">
        <ele>407.4</ele>
        <time>2022-07-29T11:16:08Z</time>
      </trkpt>
      <trkpt lat="46.38404" lon="5.66564">
        <ele>407.6</ele>
        <time>2022-07-29T11:16:09Z</time>
      </trkpt>
      <trkpt lat="46.38401" lon="5.66565">
        <ele>407.6</ele>
        <time>2022-07-29T11:16:10Z</time>
      </trkpt>
      <trkpt lat="46.38398" lon="5.66566">
        <ele>408</ele>
        <time>2022-07-29T11:16:11Z</time>
      </trkpt>
      <trkpt lat="46.38396" lon="5.66567">
        <ele>408</ele>
        <time>2022-07-29T11:16:12Z</time>
      </trkpt>
      <trkpt lat="46.38393" lon="5.66568">
        <ele>408.2</ele>
        <time>2022-07-29T11:16:13Z</time>
      </trkpt>
      <trkpt lat="46.38391" lon="5.66568">
        <ele>408.2</ele>
        <time>2022-07-29T11:16:14Z</time>
      </trkpt>
      <trkpt lat="46.38388" lon="5.66569">
        <ele>408.6</ele>
        <time>2022-07-29T11:16:15Z</time>
      </trkpt>
      <trkpt lat="46.38385" lon="5.6657">
        <ele>408.6</ele>
        <time>2022-07-29T11:16:16Z</time>
      </trkpt>
      <trkpt lat="46.38383" lon="5.66571">
        <ele>409</ele>
        <time>2022-07-29T11:16:17Z</time>
      </trkpt>
      <trkpt lat="46.38381" lon="5.66573">
        <ele>409</ele>
        <time>2022-07-29T11:16:18Z</time>
      </trkpt>
      <trkpt lat="46.38379" lon="5.66576">
        <ele>409.4</ele>
        <time>2022-07-29T11:16:19Z</time>
      </trkpt>
      <trkpt lat="46.38377" lon="5.66578">
        <ele>409.4</ele>
        <time>2022-07-29T11:16:20Z</time>
      </trkpt>
      <trkpt lat="46.38375" lon="5.6658">
        <ele>409.8</ele>
        <time>2022-07-29T11:16:21Z</time>
      </trkpt>
      <trkpt lat="46.38373" lon="5.66581">
        <ele>410</ele>
        <time>2022-07-29T11:16:22Z</time>
      </trkpt>
      <trkpt lat="46.3837" lon="5.66582">
        <ele>410.2</ele>
        <time>2022-07-29T11:16:23Z</time>
      </trkpt>
      <trkpt lat="46.38367" lon="5.66583">
        <ele>410.4</ele>
        <time>2022-07-29T11:16:24Z</time>
      </trkpt>
      <trkpt lat="46.38364" lon="5.66583">
        <ele>410.6</ele>
        <time>2022-07-29T11:16:25Z</time>
      </trkpt>
      <trkpt lat="46.38361" lon="5.66584">
        <ele>410.6</ele>
        <time>2022-07-29T11:16:26Z</time>
      </trkpt>
      <trkpt lat="46.38358" lon="5.66585">
        <ele>411</ele>
        <time>2022-07-29T11:16:27Z</time>
      </trkpt>
      <trkpt lat="46.38356" lon="5.66587">
        <ele>411.2</ele>
        <time>2022-07-29T11:16:28Z</time>
      </trkpt>
      <trkpt lat="46.38353" lon="5.66589">
        <ele>411.4</ele>
        <time>2022-07-29T11:16:29Z</time>
      </trkpt>
      <trkpt lat="46.38351" lon="5.6659">
        <ele>411.4</ele>
        <time>2022-07-29T11:16:30Z</time>
      </trkpt>
      <trkpt lat="46.38348" lon="5.66591">
        <ele>412</ele>
        <time>2022-07-29T11:16:31Z</time>
      </trkpt>
      <trkpt lat="46.38346" lon="5.66593">
        <ele>412.2</ele>
        <time>2022-07-29T11:16:32Z</time>
      </trkpt>
      <trkpt lat="46.38344" lon="5.66594">
        <ele>412.4</ele>
        <time>2022-07-29T11:16:33Z</time>
      </trkpt>
      <trkpt lat="46.38342" lon="5.66596">
        <ele>412.6</ele>
        <time>2022-07-29T11:16:34Z</time>
      </trkpt>
      <trkpt lat="46.38341" lon="5.66598">
        <ele>412.6</ele>
        <time>2022-07-29T11:16:35Z</time>
      </trkpt>
      <trkpt lat="46.38339" lon="5.666">
        <ele>413</ele>
        <time>2022-07-29T11:16:36Z</time>
      </trkpt>
      <trkpt lat="46.38337" lon="5.66601">
        <ele>413</ele>
        <time>2022-07-29T11:16:37Z</time>
      </trkpt>
      <trkpt lat="46.38335" lon="5.66603">
        <ele>413.4</ele>
        <time>2022-07-29T11:16:38Z</time>
      </trkpt>
      <trkpt lat="46.38332" lon="5.66604">
        <ele>413.4</ele>
        <time>2022-07-29T11:16:39Z</time>
      </trkpt>
      <trkpt lat="46.38329" lon="5.66605">
        <ele>413.8</ele>
        <time>2022-07-29T11:16:40Z</time>
      </trkpt>
      <trkpt lat="46.38327" lon="5.66607">
        <ele>414</ele>
        <time>2022-07-29T11:16:41Z</time>
      </trkpt>
      <trkpt lat="46.38324" lon="5.66608">
        <ele>414</ele>
        <time>2022-07-29T11:16:42Z</time>
      </trkpt>
      <trkpt lat="46.38322" lon="5.6661">
        <ele>414.4</ele>
        <time>2022-07-29T11:16:43Z</time>
      </trkpt>
      <trkpt lat="46.38319" lon="5.66612">
        <ele>414.6</ele>
        <time>2022-07-29T11:16:44Z</time>
      </trkpt>
      <trkpt lat="46.38316" lon="5.66613">
        <ele>414.6</ele>
        <time>2022-07-29T11:16:45Z</time>
      </trkpt>
      <trkpt lat="46.38313" lon="5.66614">
        <ele>415</ele>
        <time>2022-07-29T11:16:46Z</time>
      </trkpt>
      <trkpt lat="46.38311" lon="5.66616">
        <ele>415</ele>
        <time>2022-07-29T11:16:47Z</time>
      </trkpt>
      <trkpt lat="46.38308" lon="5.66618">
        <ele>415.4</ele>
        <time>2022-07-29T11:16:48Z</time>
      </trkpt>
      <trkpt lat="46.38305" lon="5.66619">
        <ele>415.6</ele>
        <time>2022-07-29T11:16:49Z</time>
      </trkpt>
      <trkpt lat="46.38302" lon="5.66621">
        <ele>415.8</ele>
        <time>2022-07-29T11:16:50Z</time>
      </trkpt>
      <trkpt lat="46.38299" lon="5.66622">
        <ele>415.8</ele>
        <time>2022-07-29T11:16:51Z</time>
      </trkpt>
      <trkpt lat="46.38297" lon="5.66624">
        <ele>416.2</ele>
        <time>2022-07-29T11:16:52Z</time>
      </trkpt>
      <trkpt lat="46.38294" lon="5.66625">
        <ele>416.6</ele>
        <time>2022-07-29T11:16:53Z</time>
      </trkpt>
      <trkpt lat="46.38291" lon="5.66627">
        <ele>416.8</ele>
        <time>2022-07-29T11:16:54Z</time>
      </trkpt>
      <trkpt lat="46.38288" lon="5.66629">
        <ele>417.2</ele>
        <time>2022-07-29T11:16:55Z</time>
      </trkpt>
      <trkpt lat="46.38286" lon="5.66631">
        <ele>417.6</ele>
        <time>2022-07-29T11:16:56Z</time>
      </trkpt>
      <trkpt lat="46.38284" lon="5.66632">
        <ele>417.8</ele>
        <time>2022-07-29T11:16:57Z</time>
      </trkpt>
      <trkpt lat="46.38281" lon="5.66634">
        <ele>418</ele>
        <time>2022-07-29T11:16:58Z</time>
      </trkpt>
      <trkpt lat="46.38279" lon="5.66636">
        <ele>418.4</ele>
        <time>2022-07-29T11:16:59Z</time>
      </trkpt>
      <trkpt lat="46.38275" lon="5.66638">
        <ele>418.6</ele>
        <time>2022-07-29T11:17:00Z</time>
      </trkpt>
      <trkpt lat="46.38272" lon="5.66639">
        <ele>418.8</ele>
        <time>2022-07-29T11:17:01Z</time>
      </trkpt>
      <trkpt lat="46.3827" lon="5.66641">
        <ele>419</ele>
        <time>2022-07-29T11:17:02Z</time>
      </trkpt>
      <trkpt lat="46.38268" lon="5.66643">
        <ele>419.2</ele>
        <time>2022-07-29T11:17:03Z</time>
      </trkpt>
      <trkpt lat="46.38266" lon="5.66644">
        <ele>419.6</ele>
        <time>2022-07-29T11:17:04Z</time>
      </trkpt>
      <trkpt lat="46.38263" lon="5.66646">
        <ele>419.8</ele>
        <time>2022-07-29T11:17:05Z</time>
      </trkpt>
      <trkpt lat="46.38261" lon="5.66648">
        <ele>420.2</ele>
        <time>2022-07-29T11:17:06Z</time>
      </trkpt>
      <trkpt lat="46.38259" lon="5.6665">
        <ele>420.2</ele>
        <time>2022-07-29T11:17:07Z</time>
      </trkpt>
      <trkpt lat="46.38257" lon="5.66652">
        <ele>420.6</ele>
        <time>2022-07-29T11:17:08Z</time>
      </trkpt>
      <trkpt lat="46.38255" lon="5.66654">
        <ele>420.8</ele>
        <time>2022-07-29T11:17:09Z</time>
      </trkpt>
      <trkpt lat="46.38253" lon="5.66657">
        <ele>421</ele>
        <time>2022-07-29T11:17:10Z</time>
      </trkpt>
      <trkpt lat="46.38251" lon="5.66659">
        <ele>421</ele>
        <time>2022-07-29T11:17:11Z</time>
      </trkpt>
      <trkpt lat="46.38249" lon="5.66662">
        <ele>421.4</ele>
        <time>2022-07-29T11:17:12Z</time>
      </trkpt>
      <trkpt lat="46.38247" lon="5.66665">
        <ele>421.4</ele>
        <time>2022-07-29T11:17:13Z</time>
      </trkpt>
      <trkpt lat="46.38245" lon="5.66668">
        <ele>421.8</ele>
        <time>2022-07-29T11:17:14Z</time>
      </trkpt>
      <trkpt lat="46.38244" lon="5.6667">
        <ele>421.8</ele>
        <time>2022-07-29T11:17:15Z</time>
      </trkpt>
      <trkpt lat="46.38242" lon="5.66673">
        <ele>422</ele>
        <time>2022-07-29T11:17:16Z</time>
      </trkpt>
      <trkpt lat="46.38241" lon="5.66676">
        <ele>422</ele>
        <time>2022-07-29T11:17:17Z</time>
      </trkpt>
      <trkpt lat="46.38239" lon="5.66679">
        <ele>422.4</ele>
        <time>2022-07-29T11:17:18Z</time>
      </trkpt>
      <trkpt lat="46.38237" lon="5.66681">
        <ele>422.6</ele>
        <time>2022-07-29T11:17:19Z</time>
      </trkpt>
      <trkpt lat="46.38236" lon="5.66684">
        <ele>422.6</ele>
        <time>2022-07-29T11:17:20Z</time>
      </trkpt>
      <trkpt lat="46.38234" lon="5.66687">
        <ele>423</ele>
        <time>2022-07-29T11:17:21Z</time>
      </trkpt>
      <trkpt lat="46.38232" lon="5.66689">
        <ele>423.2</ele>
        <time>2022-07-29T11:17:22Z</time>
      </trkpt>
      <trkpt lat="46.38231" lon="5.66692">
        <ele>423.2</ele>
        <time>2022-07-29T11:17:23Z</time>
      </trkpt>
      <trkpt lat="46.38229" lon="5.66694">
        <ele>423.6</ele>
        <time>2022-07-29T11:17:24Z</time>
      </trkpt>
      <trkpt lat="46.38228" lon="5.66697">
        <ele>423.6</ele>
        <time>2022-07-29T11:17:25Z</time>
      </trkpt>
      <trkpt lat="46.38226" lon="5.66699">
        <ele>423.8</ele>
        <time>2022-07-29T11:17:26Z</time>
      </trkpt>
      <trkpt lat="46.38225" lon="5.66702">
        <ele>423.8</ele>
        <time>2022-07-29T11:17:27Z</time>
      </trkpt>
      <trkpt lat="46.38224" lon="5.66705">
        <ele>424.2</ele>
        <time>2022-07-29T11:17:28Z</time>
      </trkpt>
      <trkpt lat="46.38223" lon="5.66708">
        <ele>424.2</ele>
        <time>2022-07-29T11:17:29Z</time>
      </trkpt>
      <trkpt lat="46.38221" lon="5.6671">
        <ele>424.4</ele>
        <time>2022-07-29T11:17:30Z</time>
      </trkpt>
      <trkpt lat="46.3822" lon="5.66713">
        <ele>424.4</ele>
        <time>2022-07-29T11:17:31Z</time>
      </trkpt>
      <trkpt lat="46.38219" lon="5.66716">
        <ele>424.8</ele>
        <time>2022-07-29T11:17:32Z</time>
      </trkpt>
      <trkpt lat="46.38218" lon="5.66719">
        <ele>424.8</ele>
        <time>2022-07-29T11:17:33Z</time>
      </trkpt>
      <trkpt lat="46.38217" lon="5.66722">
        <ele>425.2</ele>
        <time>2022-07-29T11:17:34Z</time>
      </trkpt>
      <trkpt lat="46.38216" lon="5.66726">
        <ele>425.4</ele>
        <time>2022-07-29T11:17:35Z</time>
      </trkpt>
      <trkpt lat="46.38216" lon="5.66729">
        <ele>425.6</ele>
        <time>2022-07-29T11:17:36Z</time>
      </trkpt>
      <trkpt lat="46.38215" lon="5.66733">
        <ele>425.8</ele>
        <time>2022-07-29T11:17:37Z</time>
      </trkpt>
      <trkpt lat="46.38215" lon="5.66736">
        <ele>425.8</ele>
        <time>2022-07-29T11:17:38Z</time>
      </trkpt>
      <trkpt lat="46.38215" lon="5.6674">
        <ele>426.2</ele>
        <time>2022-07-29T11:17:39Z</time>
      </trkpt>
      <trkpt lat="46.38215" lon="5.66744">
        <ele>426.4</ele>
        <time>2022-07-29T11:17:40Z</time>
      </trkpt>
      <trkpt lat="46.38216" lon="5.66748">
        <ele>426.6</ele>
        <time>2022-07-29T11:17:41Z</time>
      </trkpt>
      <trkpt lat="46.38216" lon="5.66752">
        <ele>427</ele>
        <time>2022-07-29T11:17:42Z</time>
      </trkpt>
      <trkpt lat="46.38217" lon="5.66755">
        <ele>427.2</ele>
        <time>2022-07-29T11:17:43Z</time>
      </trkpt>
      <trkpt lat="46.38217" lon="5.66759">
        <ele>427.4</ele>
        <time>2022-07-29T11:17:44Z</time>
      </trkpt>
      <trkpt lat="46.38218" lon="5.66762">
        <ele>427.6</ele>
        <time>2022-07-29T11:17:45Z</time>
      </trkpt>
      <trkpt lat="46.3822" lon="5.66766">
        <ele>428</ele>
        <time>2022-07-29T11:17:46Z</time>
      </trkpt>
      <trkpt lat="46.3822" lon="5.66769">
        <ele>428.2</ele>
        <time>2022-07-29T11:17:47Z</time>
      </trkpt>
      <trkpt lat="46.38222" lon="5.66772">
        <ele>428.4</ele>
        <time>2022-07-29T11:17:48Z</time>
      </trkpt>
      <trkpt lat="46.38223" lon="5.66775">
        <ele>428.8</ele>
        <time>2022-07-29T11:17:49Z</time>
      </trkpt>
      <trkpt lat="46.38225" lon="5.66777">
        <ele>429</ele>
        <time>2022-07-29T11:17:50Z</time>
      </trkpt>
      <trkpt lat="46.38227" lon="5.6678">
        <ele>429.2</ele>
        <time>2022-07-29T11:17:51Z</time>
      </trkpt>
      <trkpt lat="46.38229" lon="5.66782">
        <ele>429.2</ele>
        <time>2022-07-29T11:17:52Z</time>
      </trkpt>
      <trkpt lat="46.3823" lon="5.66785">
        <ele>429.6</ele>
        <time>2022-07-29T11:17:53Z</time>
      </trkpt>
      <trkpt lat="46.38233" lon="5.66787">
        <ele>429.6</ele>
        <time>2022-07-29T11:17:54Z</time>
      </trkpt>
      <trkpt lat="46.38235" lon="5.66789">
        <ele>430</ele>
        <time>2022-07-29T11:17:55Z</time>
      </trkpt>
      <trkpt lat="46.38237" lon="5.66792">
        <ele>430</ele>
        <time>2022-07-29T11:17:56Z</time>
      </trkpt>
      <trkpt lat="46.38239" lon="5.66794">
        <ele>430.2</ele>
        <time>2022-07-29T11:17:57Z</time>
      </trkpt>
      <trkpt lat="46.38241" lon="5.66796">
        <ele>430.2</ele>
        <time>2022-07-29T11:17:58Z</time>
      </trkpt>
      <trkpt lat="46.38244" lon="5.66798">
        <ele>430.6</ele>
        <time>2022-07-29T11:17:59Z</time>
      </trkpt>
      <trkpt lat="46.38246" lon="5.66799">
        <ele>430.6</ele>
        <time>2022-07-29T11:18:00Z</time>
      </trkpt>
      <trkpt lat="46.38249" lon="5.66801">
        <ele>430.8</ele>
        <time>2022-07-29T11:18:01Z</time>
      </trkpt>
      <trkpt lat="46.38251" lon="5.66803">
        <ele>430.8</ele>
        <time>2022-07-29T11:18:02Z</time>
      </trkpt>
      <trkpt lat="46.38254" lon="5.66805">
        <ele>430.8</ele>
        <time>2022-07-29T11:18:03Z</time>
      </trkpt>
      <trkpt lat="46.38256" lon="5.66806">
        <ele>431</ele>
        <time>2022-07-29T11:18:04Z</time>
      </trkpt>
      <trkpt lat="46.38259" lon="5.66808">
        <ele>431</ele>
        <time>2022-07-29T11:18:05Z</time>
      </trkpt>
      <trkpt lat="46.38261" lon="5.66809">
        <ele>431</ele>
        <time>2022-07-29T11:18:06Z</time>
      </trkpt>
      <trkpt lat="46.38264" lon="5.66811">
        <ele>431.4</ele>
        <time>2022-07-29T11:18:07Z</time>
      </trkpt>
      <trkpt lat="46.38266" lon="5.66813">
        <ele>431.4</ele>
        <time>2022-07-29T11:18:08Z</time>
      </trkpt>
      <trkpt lat="46.38269" lon="5.66815">
        <ele>431.6</ele>
        <time>2022-07-29T11:18:09Z</time>
      </trkpt>
      <trkpt lat="46.38271" lon="5.66817">
        <ele>431.6</ele>
        <time>2022-07-29T11:18:10Z</time>
      </trkpt>
      <trkpt lat="46.38274" lon="5.66818">
        <ele>432</ele>
        <time>2022-07-29T11:18:11Z</time>
      </trkpt>
      <trkpt lat="46.38276" lon="5.6682">
        <ele>432</ele>
        <time>2022-07-29T11:18:12Z</time>
      </trkpt>
      <trkpt lat="46.38279" lon="5.66822">
        <ele>432.2</ele>
        <time>2022-07-29T11:18:13Z</time>
      </trkpt>
      <trkpt lat="46.38282" lon="5.66824">
        <ele>432.2</ele>
        <time>2022-07-29T11:18:14Z</time>
      </trkpt>
      <trkpt lat="46.38284" lon="5.66826">
        <ele>432.4</ele>
        <time>2022-07-29T11:18:15Z</time>
      </trkpt>
      <trkpt lat="46.38287" lon="5.66827">
        <ele>432.4</ele>
        <time>2022-07-29T11:18:16Z</time>
      </trkpt>
      <trkpt lat="46.3829" lon="5.66829">
        <ele>432.6</ele>
        <time>2022-07-29T11:18:17Z</time>
      </trkpt>
      <trkpt lat="46.38292" lon="5.66831">
        <ele>432.6</ele>
        <time>2022-07-29T11:18:18Z</time>
      </trkpt>
      <trkpt lat="46.38295" lon="5.66832">
        <ele>433</ele>
        <time>2022-07-29T11:18:19Z</time>
      </trkpt>
      <trkpt lat="46.38297" lon="5.66834">
        <ele>433.2</ele>
        <time>2022-07-29T11:18:20Z</time>
      </trkpt>
      <trkpt lat="46.383" lon="5.66836">
        <ele>433.2</ele>
        <time>2022-07-29T11:18:21Z</time>
      </trkpt>
      <trkpt lat="46.38302" lon="5.66838">
        <ele>433.6</ele>
        <time>2022-07-29T11:18:22Z</time>
      </trkpt>
      <trkpt lat="46.38304" lon="5.66841">
        <ele>433.6</ele>
        <time>2022-07-29T11:18:23Z</time>
      </trkpt>
      <trkpt lat="46.38306" lon="5.66843">
        <ele>433.8</ele>
        <time>2022-07-29T11:18:24Z</time>
      </trkpt>
      <trkpt lat="46.38308" lon="5.66845">
        <ele>433.8</ele>
        <time>2022-07-29T11:18:25Z</time>
      </trkpt>
      <trkpt lat="46.38309" lon="5.66848">
        <ele>434.2</ele>
        <time>2022-07-29T11:18:26Z</time>
      </trkpt>
      <trkpt lat="46.38311" lon="5.6685">
        <ele>434.4</ele>
        <time>2022-07-29T11:18:27Z</time>
      </trkpt>
      <trkpt lat="46.38313" lon="5.66852">
        <ele>434.6</ele>
        <time>2022-07-29T11:18:28Z</time>
      </trkpt>
      <trkpt lat="46.38315" lon="5.66854">
        <ele>434.6</ele>
        <time>2022-07-29T11:18:29Z</time>
      </trkpt>
      <trkpt lat="46.38316" lon="5.66857">
        <ele>435</ele>
        <time>2022-07-29T11:18:30Z</time>
      </trkpt>
      <trkpt lat="46.38318" lon="5.66859">
        <ele>435.2</ele>
        <time>2022-07-29T11:18:31Z</time>
      </trkpt>
      <trkpt lat="46.38318" lon="5.66862">
        <ele>435.2</ele>
        <time>2022-07-29T11:18:32Z</time>
      </trkpt>
      <trkpt lat="46.38319" lon="5.66866">
        <ele>435.6</ele>
        <time>2022-07-29T11:18:33Z</time>
      </trkpt>
      <trkpt lat="46.38319" lon="5.66869">
        <ele>435.6</ele>
        <time>2022-07-29T11:18:34Z</time>
      </trkpt>
      <trkpt lat="46.38319" lon="5.66873">
        <ele>436</ele>
        <time>2022-07-29T11:18:35Z</time>
      </trkpt>
      <trkpt lat="46.38319" lon="5.66877">
        <ele>436</ele>
        <time>2022-07-29T11:18:36Z</time>
      </trkpt>
      <trkpt lat="46.38319" lon="5.6688">
        <ele>436.2</ele>
        <time>2022-07-29T11:18:37Z</time>
      </trkpt>
      <trkpt lat="46.38318" lon="5.66884">
        <ele>436.2</ele>
        <time>2022-07-29T11:18:38Z</time>
      </trkpt>
      <trkpt lat="46.38317" lon="5.66888">
        <ele>436.4</ele>
        <time>2022-07-29T11:18:39Z</time>
      </trkpt>
      <trkpt lat="46.38316" lon="5.66891">
        <ele>436.4</ele>
        <time>2022-07-29T11:18:40Z</time>
      </trkpt>
      <trkpt lat="46.38316" lon="5.66894">
        <ele>436.8</ele>
        <time>2022-07-29T11:18:41Z</time>
      </trkpt>
      <trkpt lat="46.38314" lon="5.66897">
        <ele>436.8</ele>
        <time>2022-07-29T11:18:42Z</time>
      </trkpt>
      <trkpt lat="46.38313" lon="5.669">
        <ele>437.2</ele>
        <time>2022-07-29T11:18:43Z</time>
      </trkpt>
      <trkpt lat="46.38311" lon="5.66903">
        <ele>437.2</ele>
        <time>2022-07-29T11:18:44Z</time>
      </trkpt>
      <trkpt lat="46.38309" lon="5.66906">
        <ele>437.4</ele>
        <time>2022-07-29T11:18:45Z</time>
      </trkpt>
      <trkpt lat="46.38307" lon="5.66909">
        <ele>437.4</ele>
        <time>2022-07-29T11:18:46Z</time>
      </trkpt>
      <trkpt lat="46.38305" lon="5.66912">
        <ele>437.4</ele>
        <time>2022-07-29T11:18:47Z</time>
      </trkpt>
      <trkpt lat="46.38303" lon="5.66915">
        <ele>437.8</ele>
        <time>2022-07-29T11:18:48Z</time>
      </trkpt>
      <trkpt lat="46.38301" lon="5.66918">
        <ele>437.8</ele>
        <time>2022-07-29T11:18:49Z</time>
      </trkpt>
      <trkpt lat="46.38299" lon="5.66922">
        <ele>438.2</ele>
        <time>2022-07-29T11:18:50Z</time>
      </trkpt>
      <trkpt lat="46.38297" lon="5.66925">
        <ele>438.4</ele>
        <time>2022-07-29T11:18:51Z</time>
      </trkpt>
      <trkpt lat="46.38295" lon="5.66928">
        <ele>438.8</ele>
        <time>2022-07-29T11:18:52Z</time>
      </trkpt>
      <trkpt lat="46.38294" lon="5.66932">
        <ele>439</ele>
        <time>2022-07-29T11:18:53Z</time>
      </trkpt>
      <trkpt lat="46.38292" lon="5.66936">
        <ele>439</ele>
        <time>2022-07-29T11:18:54Z</time>
      </trkpt>
      <trkpt lat="46.38291" lon="5.6694">
        <ele>439.4</ele>
        <time>2022-07-29T11:18:55Z</time>
      </trkpt>
      <trkpt lat="46.38289" lon="5.66944">
        <ele>439.4</ele>
        <time>2022-07-29T11:18:56Z</time>
      </trkpt>
      <trkpt lat="46.38288" lon="5.66948">
        <ele>439.4</ele>
        <time>2022-07-29T11:18:57Z</time>
      </trkpt>
      <trkpt lat="46.38286" lon="5.66952">
        <ele>439.4</ele>
        <time>2022-07-29T11:18:58Z</time>
      </trkpt>
      <trkpt lat="46.38285" lon="5.66955">
        <ele>439.4</ele>
        <time>2022-07-29T11:18:59Z</time>
      </trkpt>
      <trkpt lat="46.38284" lon="5.66959">
        <ele>439.4</ele>
        <time>2022-07-29T11:19:00Z</time>
      </trkpt>
      <trkpt lat="46.38283" lon="5.66963">
        <ele>439.4</ele>
        <time>2022-07-29T11:19:01Z</time>
      </trkpt>
      <trkpt lat="46.38282" lon="5.66968">
        <ele>439.4</ele>
        <time>2022-07-29T11:19:02Z</time>
      </trkpt>
      <trkpt lat="46.38281" lon="5.66972">
        <ele>439.4</ele>
        <time>2022-07-29T11:19:03Z</time>
      </trkpt>
      <trkpt lat="46.3828" lon="5.66977">
        <ele>439.4</ele>
        <time>2022-07-29T11:19:04Z</time>
      </trkpt>
      <trkpt lat="46.38278" lon="5.66982">
        <ele>439.4</ele>
        <time>2022-07-29T11:19:05Z</time>
      </trkpt>
      <trkpt lat="46.38277" lon="5.66987">
        <ele>439.6</ele>
        <time>2022-07-29T11:19:06Z</time>
      </trkpt>
      <trkpt lat="46.38276" lon="5.66992">
        <ele>439.6</ele>
        <time>2022-07-29T11:19:07Z</time>
      </trkpt>
      <trkpt lat="46.38275" lon="5.66997">
        <ele>439.8</ele>
        <time>2022-07-29T11:19:08Z</time>
      </trkpt>
      <trkpt lat="46.38274" lon="5.67002">
        <ele>439.8</ele>
        <time>2022-07-29T11:19:09Z</time>
      </trkpt>
      <trkpt lat="46.38273" lon="5.67007">
        <ele>440</ele>
        <time>2022-07-29T11:19:10Z</time>
      </trkpt>
      <trkpt lat="46.38272" lon="5.67013">
        <ele>440</ele>
        <time>2022-07-29T11:19:11Z</time>
      </trkpt>
      <trkpt lat="46.38271" lon="5.67017">
        <ele>440.4</ele>
        <time>2022-07-29T11:19:12Z</time>
      </trkpt>
      <trkpt lat="46.38271" lon="5.67022">
        <ele>440.4</ele>
        <time>2022-07-29T11:19:13Z</time>
      </trkpt>
      <trkpt lat="46.3827" lon="5.67026">
        <ele>440.6</ele>
        <time>2022-07-29T11:19:14Z</time>
      </trkpt>
      <trkpt lat="46.3827" lon="5.67031">
        <ele>440.8</ele>
        <time>2022-07-29T11:19:15Z</time>
      </trkpt>
      <trkpt lat="46.3827" lon="5.67035">
        <ele>441.2</ele>
        <time>2022-07-29T11:19:16Z</time>
      </trkpt>
      <trkpt lat="46.3827" lon="5.67039">
        <ele>441.4</ele>
        <time>2022-07-29T11:19:17Z</time>
      </trkpt>
      <trkpt lat="46.3827" lon="5.67042">
        <ele>441.6</ele>
        <time>2022-07-29T11:19:18Z</time>
      </trkpt>
      <trkpt lat="46.3827" lon="5.67047">
        <ele>441.6</ele>
        <time>2022-07-29T11:19:19Z</time>
      </trkpt>
      <trkpt lat="46.3827" lon="5.67051">
        <ele>442</ele>
        <time>2022-07-29T11:19:20Z</time>
      </trkpt>
      <trkpt lat="46.38271" lon="5.67055">
        <ele>442.2</ele>
        <time>2022-07-29T11:19:21Z</time>
      </trkpt>
      <trkpt lat="46.38272" lon="5.67059">
        <ele>442.2</ele>
        <time>2022-07-29T11:19:22Z</time>
      </trkpt>
      <trkpt lat="46.38273" lon="5.67064">
        <ele>442.4</ele>
        <time>2022-07-29T11:19:23Z</time>
      </trkpt>
      <trkpt lat="46.38274" lon="5.67068">
        <ele>442.4</ele>
        <time>2022-07-29T11:19:24Z</time>
      </trkpt>
      <trkpt lat="46.38275" lon="5.67072">
        <ele>442.8</ele>
        <time>2022-07-29T11:19:25Z</time>
      </trkpt>
      <trkpt lat="46.38277" lon="5.67075">
        <ele>442.8</ele>
        <time>2022-07-29T11:19:26Z</time>
      </trkpt>
      <trkpt lat="46.38279" lon="5.67079">
        <ele>443.2</ele>
        <time>2022-07-29T11:19:27Z</time>
      </trkpt>
      <trkpt lat="46.38282" lon="5.67083">
        <ele>443.2</ele>
        <time>2022-07-29T11:19:28Z</time>
      </trkpt>
      <trkpt lat="46.38285" lon="5.67087">
        <ele>443.2</ele>
        <time>2022-07-29T11:19:29Z</time>
      </trkpt>
      <trkpt lat="46.38287" lon="5.67092">
        <ele>443.2</ele>
        <time>2022-07-29T11:19:30Z</time>
      </trkpt>
      <trkpt lat="46.3829" lon="5.67097">
        <ele>443.2</ele>
        <time>2022-07-29T11:19:31Z</time>
      </trkpt>
      <trkpt lat="46.38292" lon="5.67103">
        <ele>443.4</ele>
        <time>2022-07-29T11:19:32Z</time>
      </trkpt>
      <trkpt lat="46.38294" lon="5.67109">
        <ele>443.4</ele>
        <time>2022-07-29T11:19:33Z</time>
      </trkpt>
      <trkpt lat="46.38295" lon="5.67116">
        <ele>443.4</ele>
        <time>2022-07-29T11:19:34Z</time>
      </trkpt>
      <trkpt lat="46.38296" lon="5.67122">
        <ele>443.4</ele>
        <time>2022-07-29T11:19:35Z</time>
      </trkpt>
      <trkpt lat="46.38297" lon="5.67128">
        <ele>443.6</ele>
        <time>2022-07-29T11:19:36Z</time>
      </trkpt>
      <trkpt lat="46.38298" lon="5.67135">
        <ele>443.6</ele>
        <time>2022-07-29T11:19:37Z</time>
      </trkpt>
      <trkpt lat="46.38298" lon="5.67141">
        <ele>443.8</ele>
        <time>2022-07-29T11:19:38Z</time>
      </trkpt>
      <trkpt lat="46.38299" lon="5.67148">
        <ele>443.8</ele>
        <time>2022-07-29T11:19:39Z</time>
      </trkpt>
      <trkpt lat="46.383" lon="5.67154">
        <ele>443.8</ele>
        <time>2022-07-29T11:19:40Z</time>
      </trkpt>
      <trkpt lat="46.38301" lon="5.67161">
        <ele>444</ele>
        <time>2022-07-29T11:19:41Z</time>
      </trkpt>
      <trkpt lat="46.38301" lon="5.67168">
        <ele>444</ele>
        <time>2022-07-29T11:19:42Z</time>
      </trkpt>
      <trkpt lat="46.38302" lon="5.67174">
        <ele>444</ele>
        <time>2022-07-29T11:19:43Z</time>
      </trkpt>
      <trkpt lat="46.38303" lon="5.67181">
        <ele>444</ele>
        <time>2022-07-29T11:19:44Z</time>
      </trkpt>
      <trkpt lat="46.38303" lon="5.67187">
        <ele>444</ele>
        <time>2022-07-29T11:19:45Z</time>
      </trkpt>
      <trkpt lat="46.38304" lon="5.67194">
        <ele>444.4</ele>
        <time>2022-07-29T11:19:46Z</time>
      </trkpt>
      <trkpt lat="46.38304" lon="5.67201">
        <ele>444.4</ele>
        <time>2022-07-29T11:19:47Z</time>
      </trkpt>
      <trkpt lat="46.38304" lon="5.67207">
        <ele>444.4</ele>
        <time>2022-07-29T11:19:48Z</time>
      </trkpt>
      <trkpt lat="46.38305" lon="5.67213">
        <ele>444.6</ele>
        <time>2022-07-29T11:19:49Z</time>
      </trkpt>
      <trkpt lat="46.38305" lon="5.67218">
        <ele>444.6</ele>
        <time>2022-07-29T11:19:50Z</time>
      </trkpt>
      <trkpt lat="46.38306" lon="5.67223">
        <ele>445</ele>
        <time>2022-07-29T11:19:51Z</time>
      </trkpt>
      <trkpt lat="46.38306" lon="5.67228">
        <ele>445</ele>
        <time>2022-07-29T11:19:52Z</time>
      </trkpt>
      <trkpt lat="46.38307" lon="5.67233">
        <ele>445.4</ele>
        <time>2022-07-29T11:19:53Z</time>
      </trkpt>
      <trkpt lat="46.38308" lon="5.67238">
        <ele>445.6</ele>
        <time>2022-07-29T11:19:54Z</time>
      </trkpt>
      <trkpt lat="46.38309" lon="5.67243">
        <ele>446</ele>
        <time>2022-07-29T11:19:55Z</time>
      </trkpt>
      <trkpt lat="46.3831" lon="5.67247">
        <ele>446.2</ele>
        <time>2022-07-29T11:19:56Z</time>
      </trkpt>
      <trkpt lat="46.38311" lon="5.67251">
        <ele>446.4</ele>
        <time>2022-07-29T11:19:57Z</time>
      </trkpt>
      <trkpt lat="46.38313" lon="5.67255">
        <ele>446.6</ele>
        <time>2022-07-29T11:19:58Z</time>
      </trkpt>
      <trkpt lat="46.38314" lon="5.67259">
        <ele>446.8</ele>
        <time>2022-07-29T11:19:59Z</time>
      </trkpt>
      <trkpt lat="46.38316" lon="5.67263">
        <ele>446.8</ele>
        <time>2022-07-29T11:20:00Z</time>
      </trkpt>
      <trkpt lat="46.38317" lon="5.67266">
        <ele>447.2</ele>
        <time>2022-07-29T11:20:01Z</time>
      </trkpt>
      <trkpt lat="46.38319" lon="5.6727">
        <ele>447.4</ele>
        <time>2022-07-29T11:20:02Z</time>
      </trkpt>
      <trkpt lat="46.3832" lon="5.67274">
        <ele>447.6</ele>
        <time>2022-07-29T11:20:03Z</time>
      </trkpt>
      <trkpt lat="46.38322" lon="5.67277">
        <ele>447.6</ele>
        <time>2022-07-29T11:20:04Z</time>
      </trkpt>
      <trkpt lat="46.38323" lon="5.67281">
        <ele>448</ele>
        <time>2022-07-29T11:20:05Z</time>
      </trkpt>
      <trkpt lat="46.38325" lon="5.67284">
        <ele>448</ele>
        <time>2022-07-29T11:20:06Z</time>
      </trkpt>
      <trkpt lat="46.38326" lon="5.67287">
        <ele>448.4</ele>
        <time>2022-07-29T11:20:07Z</time>
      </trkpt>
      <trkpt lat="46.38328" lon="5.6729">
        <ele>448.6</ele>
        <time>2022-07-29T11:20:08Z</time>
      </trkpt>
      <trkpt lat="46.38329" lon="5.67293">
        <ele>448.8</ele>
        <time>2022-07-29T11:20:09Z</time>
      </trkpt>
      <trkpt lat="46.38331" lon="5.67296">
        <ele>449.2</ele>
        <time>2022-07-29T11:20:10Z</time>
      </trkpt>
      <trkpt lat="46.38332" lon="5.673">
        <ele>449.6</ele>
        <time>2022-07-29T11:20:11Z</time>
      </trkpt>
      <trkpt lat="46.38333" lon="5.67303">
        <ele>449.8</ele>
        <time>2022-07-29T11:20:12Z</time>
      </trkpt>
      <trkpt lat="46.38335" lon="5.67306">
        <ele>450.2</ele>
        <time>2022-07-29T11:20:13Z</time>
      </trkpt>
      <trkpt lat="46.38336" lon="5.67309">
        <ele>450.4</ele>
        <time>2022-07-29T11:20:14Z</time>
      </trkpt>
      <trkpt lat="46.38337" lon="5.67312">
        <ele>450.8</ele>
        <time>2022-07-29T11:20:15Z</time>
      </trkpt>
      <trkpt lat="46.38339" lon="5.67315">
        <ele>451</ele>
        <time>2022-07-29T11:20:16Z</time>
      </trkpt>
      <trkpt lat="46.3834" lon="5.67318">
        <ele>451.4</ele>
        <time>2022-07-29T11:20:17Z</time>
      </trkpt>
      <trkpt lat="46.38341" lon="5.67321">
        <ele>451.8</ele>
        <time>2022-07-29T11:20:18Z</time>
      </trkpt>
      <trkpt lat="46.38343" lon="5.67325">
        <ele>452</ele>
        <time>2022-07-29T11:20:19Z</time>
      </trkpt>
      <trkpt lat="46.38344" lon="5.67328">
        <ele>452.4</ele>
        <time>2022-07-29T11:20:20Z</time>
      </trkpt>
      <trkpt lat="46.38345" lon="5.67331">
        <ele>452.6</ele>
        <time>2022-07-29T11:20:21Z</time>
      </trkpt>
      <trkpt lat="46.38347" lon="5.67334">
        <ele>453</ele>
        <time>2022-07-29T11:20:22Z</time>
      </trkpt>
      <trkpt lat="46.38349" lon="5.67337">
        <ele>453.2</ele>
        <time>2022-07-29T11:20:23Z</time>
      </trkpt>
      <trkpt lat="46.38351" lon="5.67339">
        <ele>453.6</ele>
        <time>2022-07-29T11:20:24Z</time>
      </trkpt>
      <trkpt lat="46.38353" lon="5.67342">
        <ele>453.8</ele>
        <time>2022-07-29T11:20:25Z</time>
      </trkpt>
      <trkpt lat="46.38354" lon="5.67344">
        <ele>454</ele>
        <time>2022-07-29T11:20:26Z</time>
      </trkpt>
      <trkpt lat="46.38356" lon="5.67347">
        <ele>454.2</ele>
        <time>2022-07-29T11:20:27Z</time>
      </trkpt>
      <trkpt lat="46.38358" lon="5.67349">
        <ele>454.4</ele>
        <time>2022-07-29T11:20:28Z</time>
      </trkpt>
      <trkpt lat="46.38359" lon="5.67351">
        <ele>454.8</ele>
        <time>2022-07-29T11:20:29Z</time>
      </trkpt>
      <trkpt lat="46.38361" lon="5.67353">
        <ele>455</ele>
        <time>2022-07-29T11:20:30Z</time>
      </trkpt>
      <trkpt lat="46.38362" lon="5.67355">
        <ele>455.2</ele>
        <time>2022-07-29T11:20:31Z</time>
      </trkpt>
      <trkpt lat="46.38364" lon="5.67357">
        <ele>455.4</ele>
        <time>2022-07-29T11:20:32Z</time>
      </trkpt>
      <trkpt lat="46.38365" lon="5.67359">
        <ele>455.6</ele>
        <time>2022-07-29T11:20:33Z</time>
      </trkpt>
      <trkpt lat="46.38367" lon="5.67361">
        <ele>455.8</ele>
        <time>2022-07-29T11:20:34Z</time>
      </trkpt>
      <trkpt lat="46.38368" lon="5.67363">
        <ele>455.8</ele>
        <time>2022-07-29T11:20:35Z</time>
      </trkpt>
      <trkpt lat="46.3837" lon="5.67365">
        <ele>456.2</ele>
        <time>2022-07-29T11:20:36Z</time>
      </trkpt>
      <trkpt lat="46.38371" lon="5.67367">
        <ele>456.4</ele>
        <time>2022-07-29T11:20:37Z</time>
      </trkpt>
      <trkpt lat="46.38372" lon="5.67369">
        <ele>456.4</ele>
        <time>2022-07-29T11:20:38Z</time>
      </trkpt>
      <trkpt lat="46.38374" lon="5.67371">
        <ele>456.8</ele>
        <time>2022-07-29T11:20:39Z</time>
      </trkpt>
      <trkpt lat="46.38375" lon="5.67373">
        <ele>456.8</ele>
        <time>2022-07-29T11:20:40Z</time>
      </trkpt>
      <trkpt lat="46.38377" lon="5.67374">
        <ele>457.2</ele>
        <time>2022-07-29T11:20:41Z</time>
      </trkpt>
      <trkpt lat="46.38378" lon="5.67377">
        <ele>457.4</ele>
        <time>2022-07-29T11:20:42Z</time>
      </trkpt>
      <trkpt lat="46.38379" lon="5.67379">
        <ele>457.4</ele>
        <time>2022-07-29T11:20:43Z</time>
      </trkpt>
      <trkpt lat="46.38381" lon="5.67381">
        <ele>457.8</ele>
        <time>2022-07-29T11:20:44Z</time>
      </trkpt>
      <trkpt lat="46.38383" lon="5.67383">
        <ele>458</ele>
        <time>2022-07-29T11:20:45Z</time>
      </trkpt>
      <trkpt lat="46.38384" lon="5.67385">
        <ele>458.2</ele>
        <time>2022-07-29T11:20:46Z</time>
      </trkpt>
      <trkpt lat="46.38386" lon="5.67387">
        <ele>458.2</ele>
        <time>2022-07-29T11:20:47Z</time>
      </trkpt>
      <trkpt lat="46.38387" lon="5.6739">
        <ele>458.6</ele>
        <time>2022-07-29T11:20:48Z</time>
      </trkpt>
      <trkpt lat="46.38389" lon="5.67392">
        <ele>458.8</ele>
        <time>2022-07-29T11:20:49Z</time>
      </trkpt>
      <trkpt lat="46.38391" lon="5.67394">
        <ele>459.2</ele>
        <time>2022-07-29T11:20:50Z</time>
      </trkpt>
      <trkpt lat="46.38394" lon="5.67396">
        <ele>459.4</ele>
        <time>2022-07-29T11:20:51Z</time>
      </trkpt>
      <trkpt lat="46.38396" lon="5.67398">
        <ele>459.6</ele>
        <time>2022-07-29T11:20:52Z</time>
      </trkpt>
      <trkpt lat="46.38398" lon="5.674">
        <ele>459.8</ele>
        <time>2022-07-29T11:20:53Z</time>
      </trkpt>
      <trkpt lat="46.384" lon="5.67403">
        <ele>460.2</ele>
        <time>2022-07-29T11:20:54Z</time>
      </trkpt>
      <trkpt lat="46.38402" lon="5.67405">
        <ele>460.2</ele>
        <time>2022-07-29T11:20:55Z</time>
      </trkpt>
      <trkpt lat="46.38404" lon="5.67407">
        <ele>460.6</ele>
        <time>2022-07-29T11:20:56Z</time>
      </trkpt>
      <trkpt lat="46.38407" lon="5.67409">
        <ele>460.8</ele>
        <time>2022-07-29T11:20:57Z</time>
      </trkpt>
      <trkpt lat="46.38409" lon="5.67411">
        <ele>461</ele>
        <time>2022-07-29T11:20:58Z</time>
      </trkpt>
      <trkpt lat="46.38411" lon="5.67414">
        <ele>461.4</ele>
        <time>2022-07-29T11:20:59Z</time>
      </trkpt>
      <trkpt lat="46.38413" lon="5.67416">
        <ele>461.6</ele>
        <time>2022-07-29T11:21:00Z</time>
      </trkpt>
      <trkpt lat="46.38416" lon="5.67418">
        <ele>461.8</ele>
        <time>2022-07-29T11:21:01Z</time>
      </trkpt>
      <trkpt lat="46.38418" lon="5.67419">
        <ele>462.2</ele>
        <time>2022-07-29T11:21:02Z</time>
      </trkpt>
      <trkpt lat="46.3842" lon="5.67421">
        <ele>462.2</ele>
        <time>2022-07-29T11:21:03Z</time>
      </trkpt>
      <trkpt lat="46.38422" lon="5.67423">
        <ele>462.6</ele>
        <time>2022-07-29T11:21:04Z</time>
      </trkpt>
      <trkpt lat="46.38424" lon="5.67424">
        <ele>462.8</ele>
        <time>2022-07-29T11:21:05Z</time>
      </trkpt>
      <trkpt lat="46.38427" lon="5.67426">
        <ele>463.2</ele>
        <time>2022-07-29T11:21:06Z</time>
      </trkpt>
      <trkpt lat="46.38429" lon="5.67428">
        <ele>463.2</ele>
        <time>2022-07-29T11:21:07Z</time>
      </trkpt>
      <trkpt lat="46.38431" lon="5.67429">
        <ele>463.6</ele>
        <time>2022-07-29T11:21:08Z</time>
      </trkpt>
      <trkpt lat="46.38432" lon="5.67432">
        <ele>463.8</ele>
        <time>2022-07-29T11:21:09Z</time>
      </trkpt>
      <trkpt lat="46.38434" lon="5.67434">
        <ele>464</ele>
        <time>2022-07-29T11:21:10Z</time>
      </trkpt>
      <trkpt lat="46.38435" lon="5.67437">
        <ele>464.2</ele>
        <time>2022-07-29T11:21:11Z</time>
      </trkpt>
      <trkpt lat="46.38437" lon="5.6744">
        <ele>464.4</ele>
        <time>2022-07-29T11:21:12Z</time>
      </trkpt>
      <trkpt lat="46.38439" lon="5.67443">
        <ele>464.6</ele>
        <time>2022-07-29T11:21:13Z</time>
      </trkpt>
      <trkpt lat="46.3844" lon="5.67446">
        <ele>465</ele>
        <time>2022-07-29T11:21:14Z</time>
      </trkpt>
      <trkpt lat="46.38441" lon="5.67449">
        <ele>465.2</ele>
        <time>2022-07-29T11:21:15Z</time>
      </trkpt>
      <trkpt lat="46.38443" lon="5.67452">
        <ele>465.4</ele>
        <time>2022-07-29T11:21:16Z</time>
      </trkpt>
      <trkpt lat="46.38444" lon="5.67455">
        <ele>465.6</ele>
        <time>2022-07-29T11:21:17Z</time>
      </trkpt>
      <trkpt lat="46.38445" lon="5.67457">
        <ele>466</ele>
        <time>2022-07-29T11:21:18Z</time>
      </trkpt>
      <trkpt lat="46.38447" lon="5.6746">
        <ele>466</ele>
        <time>2022-07-29T11:21:19Z</time>
      </trkpt>
      <trkpt lat="46.38448" lon="5.67463">
        <ele>466.4</ele>
        <time>2022-07-29T11:21:20Z</time>
      </trkpt>
      <trkpt lat="46.38449" lon="5.67466">
        <ele>466.4</ele>
        <time>2022-07-29T11:21:21Z</time>
      </trkpt>
      <trkpt lat="46.3845" lon="5.67469">
        <ele>466.8</ele>
        <time>2022-07-29T11:21:22Z</time>
      </trkpt>
      <trkpt lat="46.38451" lon="5.67472">
        <ele>467</ele>
        <time>2022-07-29T11:21:23Z</time>
      </trkpt>
      <trkpt lat="46.38452" lon="5.67475">
        <ele>467</ele>
        <time>2022-07-29T11:21:24Z</time>
      </trkpt>
      <trkpt lat="46.38453" lon="5.67478">
        <ele>467.4</ele>
        <time>2022-07-29T11:21:25Z</time>
      </trkpt>
      <trkpt lat="46.38454" lon="5.67481">
        <ele>467.4</ele>
        <time>2022-07-29T11:21:26Z</time>
      </trkpt>
      <trkpt lat="46.38455" lon="5.67484">
        <ele>467.8</ele>
        <time>2022-07-29T11:21:27Z</time>
      </trkpt>
      <trkpt lat="46.38457" lon="5.67487">
        <ele>467.8</ele>
        <time>2022-07-29T11:21:28Z</time>
      </trkpt>
      <trkpt lat="46.38458" lon="5.6749">
        <ele>468.2</ele>
        <time>2022-07-29T11:21:29Z</time>
      </trkpt>
      <trkpt lat="46.38459" lon="5.67493">
        <ele>468.2</ele>
        <time>2022-07-29T11:21:30Z</time>
      </trkpt>
      <trkpt lat="46.38461" lon="5.67495">
        <ele>468.6</ele>
        <time>2022-07-29T11:21:31Z</time>
      </trkpt>
      <trkpt lat="46.38462" lon="5.67498">
        <ele>468.8</ele>
        <time>2022-07-29T11:21:32Z</time>
      </trkpt>
      <trkpt lat="46.38464" lon="5.67501">
        <ele>468.8</ele>
        <time>2022-07-29T11:21:33Z</time>
      </trkpt>
      <trkpt lat="46.38465" lon="5.67503">
        <ele>469.2</ele>
        <time>2022-07-29T11:21:34Z</time>
      </trkpt>
      <trkpt lat="46.38466" lon="5.67506">
        <ele>469.4</ele>
        <time>2022-07-29T11:21:35Z</time>
      </trkpt>
      <trkpt lat="46.38468" lon="5.67508">
        <ele>469.4</ele>
        <time>2022-07-29T11:21:36Z</time>
      </trkpt>
      <trkpt lat="46.38469" lon="5.67511">
        <ele>469.8</ele>
        <time>2022-07-29T11:21:37Z</time>
      </trkpt>
      <trkpt lat="46.3847" lon="5.67514">
        <ele>470</ele>
        <time>2022-07-29T11:21:38Z</time>
      </trkpt>
      <trkpt lat="46.38472" lon="5.67517">
        <ele>470.2</ele>
        <time>2022-07-29T11:21:39Z</time>
      </trkpt>
      <trkpt lat="46.38473" lon="5.67519">
        <ele>470.2</ele>
        <time>2022-07-29T11:21:40Z</time>
      </trkpt>
      <trkpt lat="46.38475" lon="5.67522">
        <ele>470.6</ele>
        <time>2022-07-29T11:21:41Z</time>
      </trkpt>
      <trkpt lat="46.38477" lon="5.67524">
        <ele>470.8</ele>
        <time>2022-07-29T11:21:42Z</time>
      </trkpt>
      <trkpt lat="46.38478" lon="5.67527">
        <ele>471</ele>
        <time>2022-07-29T11:21:43Z</time>
      </trkpt>
      <trkpt lat="46.38479" lon="5.6753">
        <ele>471.2</ele>
        <time>2022-07-29T11:21:44Z</time>
      </trkpt>
      <trkpt lat="46.3848" lon="5.67533">
        <ele>471.2</ele>
        <time>2022-07-29T11:21:45Z</time>
      </trkpt>
      <trkpt lat="46.38482" lon="5.67536">
        <ele>471.6</ele>
        <time>2022-07-29T11:21:46Z</time>
      </trkpt>
      <trkpt lat="46.38482" lon="5.67539">
        <ele>471.8</ele>
        <time>2022-07-29T11:21:47Z</time>
      </trkpt>
      <trkpt lat="46.38483" lon="5.67542">
        <ele>471.8</ele>
        <time>2022-07-29T11:21:48Z</time>
      </trkpt>
      <trkpt lat="46.38484" lon="5.67545">
        <ele>472</ele>
        <time>2022-07-29T11:21:49Z</time>
      </trkpt>
      <trkpt lat="46.38484" lon="5.67549">
        <ele>472</ele>
        <time>2022-07-29T11:21:50Z</time>
      </trkpt>
      <trkpt lat="46.38484" lon="5.67552">
        <ele>472.4</ele>
        <time>2022-07-29T11:21:51Z</time>
      </trkpt>
      <trkpt lat="46.38485" lon="5.67556">
        <ele>472.4</ele>
        <time>2022-07-29T11:21:52Z</time>
      </trkpt>
      <trkpt lat="46.38485" lon="5.67559">
        <ele>472.6</ele>
        <time>2022-07-29T11:21:53Z</time>
      </trkpt>
      <trkpt lat="46.38485" lon="5.67563">
        <ele>472.6</ele>
        <time>2022-07-29T11:21:54Z</time>
      </trkpt>
      <trkpt lat="46.38485" lon="5.67567">
        <ele>473</ele>
        <time>2022-07-29T11:21:55Z</time>
      </trkpt>
      <trkpt lat="46.38485" lon="5.6757">
        <ele>473</ele>
        <time>2022-07-29T11:21:56Z</time>
      </trkpt>
      <trkpt lat="46.38485" lon="5.67573">
        <ele>473.2</ele>
        <time>2022-07-29T11:21:57Z</time>
      </trkpt>
      <trkpt lat="46.38485" lon="5.67577">
        <ele>473.2</ele>
        <time>2022-07-29T11:21:58Z</time>
      </trkpt>
      <trkpt lat="46.38484" lon="5.6758">
        <ele>473.6</ele>
        <time>2022-07-29T11:21:59Z</time>
      </trkpt>
      <trkpt lat="46.38484" lon="5.67584">
        <ele>473.6</ele>
        <time>2022-07-29T11:22:00Z</time>
      </trkpt>
      <trkpt lat="46.38483" lon="5.67587">
        <ele>473.8</ele>
        <time>2022-07-29T11:22:01Z</time>
      </trkpt>
      <trkpt lat="46.38482" lon="5.67591">
        <ele>473.8</ele>
        <time>2022-07-29T11:22:02Z</time>
      </trkpt>
      <trkpt lat="46.38481" lon="5.67595">
        <ele>474</ele>
        <time>2022-07-29T11:22:03Z</time>
      </trkpt>
      <trkpt lat="46.38481" lon="5.67598">
        <ele>474</ele>
        <time>2022-07-29T11:22:04Z</time>
      </trkpt>
      <trkpt lat="46.38481" lon="5.67602">
        <ele>474.4</ele>
        <time>2022-07-29T11:22:05Z</time>
      </trkpt>
      <trkpt lat="46.38482" lon="5.67606">
        <ele>474.4</ele>
        <time>2022-07-29T11:22:06Z</time>
      </trkpt>
      <trkpt lat="46.38483" lon="5.6761">
        <ele>474.6</ele>
        <time>2022-07-29T11:22:07Z</time>
      </trkpt>
      <trkpt lat="46.38484" lon="5.67613">
        <ele>474.6</ele>
        <time>2022-07-29T11:22:08Z</time>
      </trkpt>
      <trkpt lat="46.38485" lon="5.67616">
        <ele>474.8</ele>
        <time>2022-07-29T11:22:09Z</time>
      </trkpt>
      <trkpt lat="46.38486" lon="5.67619">
        <ele>475</ele>
        <time>2022-07-29T11:22:10Z</time>
      </trkpt>
      <trkpt lat="46.38488" lon="5.67622">
        <ele>475.2</ele>
        <time>2022-07-29T11:22:11Z</time>
      </trkpt>
      <trkpt lat="46.3849" lon="5.67624">
        <ele>475.2</ele>
        <time>2022-07-29T11:22:12Z</time>
      </trkpt>
      <trkpt lat="46.38492" lon="5.67625">
        <ele>475.6</ele>
        <time>2022-07-29T11:22:13Z</time>
      </trkpt>
      <trkpt lat="46.38494" lon="5.67626">
        <ele>475.6</ele>
        <time>2022-07-29T11:22:14Z</time>
      </trkpt>
      <trkpt lat="46.38497" lon="5.67627">
        <ele>476.2</ele>
        <time>2022-07-29T11:22:15Z</time>
      </trkpt>
      <trkpt lat="46.38499" lon="5.67626">
        <ele>476.4</ele>
        <time>2022-07-29T11:22:16Z</time>
      </trkpt>
      <trkpt lat="46.38501" lon="5.67626">
        <ele>476.6</ele>
        <time>2022-07-29T11:22:17Z</time>
      </trkpt>
      <trkpt lat="46.38503" lon="5.67625">
        <ele>476.6</ele>
        <time>2022-07-29T11:22:18Z</time>
      </trkpt>
      <trkpt lat="46.38505" lon="5.67624">
        <ele>477</ele>
        <time>2022-07-29T11:22:19Z</time>
      </trkpt>
      <trkpt lat="46.38507" lon="5.67622">
        <ele>477</ele>
        <time>2022-07-29T11:22:20Z</time>
      </trkpt>
      <trkpt lat="46.38509" lon="5.67621">
        <ele>477.4</ele>
        <time>2022-07-29T11:22:21Z</time>
      </trkpt>
      <trkpt lat="46.38511" lon="5.67619">
        <ele>477.4</ele>
        <time>2022-07-29T11:22:22Z</time>
      </trkpt>
      <trkpt lat="46.38513" lon="5.67618">
        <ele>477.6</ele>
        <time>2022-07-29T11:22:23Z</time>
      </trkpt>
      <trkpt lat="46.38515" lon="5.67616">
        <ele>477.6</ele>
        <time>2022-07-29T11:22:24Z</time>
      </trkpt>
      <trkpt lat="46.38517" lon="5.67614">
        <ele>478</ele>
        <time>2022-07-29T11:22:25Z</time>
      </trkpt>
      <trkpt lat="46.38518" lon="5.67612">
        <ele>478</ele>
        <time>2022-07-29T11:22:26Z</time>
      </trkpt>
      <trkpt lat="46.3852" lon="5.67611">
        <ele>478.4</ele>
        <time>2022-07-29T11:22:27Z</time>
      </trkpt>
      <trkpt lat="46.38522" lon="5.67609">
        <ele>478.4</ele>
        <time>2022-07-29T11:22:28Z</time>
      </trkpt>
      <trkpt lat="46.38523" lon="5.67608">
        <ele>478.6</ele>
        <time>2022-07-29T11:22:29Z</time>
      </trkpt>
      <trkpt lat="46.38525" lon="5.67606">
        <ele>478.6</ele>
        <time>2022-07-29T11:22:30Z</time>
      </trkpt>
      <trkpt lat="46.38528" lon="5.67605">
        <ele>479</ele>
        <time>2022-07-29T11:22:31Z</time>
      </trkpt>
      <trkpt lat="46.3853" lon="5.67603">
        <ele>479</ele>
        <time>2022-07-29T11:22:32Z</time>
      </trkpt>
      <trkpt lat="46.38532" lon="5.67602">
        <ele>479.4</ele>
        <time>2022-07-29T11:22:33Z</time>
      </trkpt>
      <trkpt lat="46.38534" lon="5.67601">
        <ele>479.4</ele>
        <time>2022-07-29T11:22:34Z</time>
      </trkpt>
      <trkpt lat="46.38536" lon="5.676">
        <ele>479.8</ele>
        <time>2022-07-29T11:22:35Z</time>
      </trkpt>
      <trkpt lat="46.38538" lon="5.67599">
        <ele>479.8</ele>
        <time>2022-07-29T11:22:36Z</time>
      </trkpt>
      <trkpt lat="46.3854" lon="5.67598">
        <ele>480</ele>
        <time>2022-07-29T11:22:37Z</time>
      </trkpt>
      <trkpt lat="46.38543" lon="5.67597">
        <ele>480</ele>
        <time>2022-07-29T11:22:38Z</time>
      </trkpt>
      <trkpt lat="46.38545" lon="5.67596">
        <ele>480.4</ele>
        <time>2022-07-29T11:22:39Z</time>
      </trkpt>
      <trkpt lat="46.38547" lon="5.67595">
        <ele>480.6</ele>
        <time>2022-07-29T11:22:40Z</time>
      </trkpt>
      <trkpt lat="46.38549" lon="5.67595">
        <ele>480.6</ele>
        <time>2022-07-29T11:22:41Z</time>
      </trkpt>
      <trkpt lat="46.38552" lon="5.67595">
        <ele>480.8</ele>
        <time>2022-07-29T11:22:42Z</time>
      </trkpt>
      <trkpt lat="46.38554" lon="5.67594">
        <ele>480.8</ele>
        <time>2022-07-29T11:22:43Z</time>
      </trkpt>
      <trkpt lat="46.38556" lon="5.67593">
        <ele>481.2</ele>
        <time>2022-07-29T11:22:44Z</time>
      </trkpt>
      <trkpt lat="46.38558" lon="5.67593">
        <ele>481.6</ele>
        <time>2022-07-29T11:22:45Z</time>
      </trkpt>
      <trkpt lat="46.3856" lon="5.67592">
        <ele>481.6</ele>
        <time>2022-07-29T11:22:46Z</time>
      </trkpt>
      <trkpt lat="46.38563" lon="5.67591">
        <ele>481.8</ele>
        <time>2022-07-29T11:22:47Z</time>
      </trkpt>
      <trkpt lat="46.38565" lon="5.67591">
        <ele>481.8</ele>
        <time>2022-07-29T11:22:48Z</time>
      </trkpt>
      <trkpt lat="46.38567" lon="5.6759">
        <ele>482</ele>
        <time>2022-07-29T11:22:49Z</time>
      </trkpt>
      <trkpt lat="46.38569" lon="5.67589">
        <ele>482</ele>
        <time>2022-07-29T11:22:50Z</time>
      </trkpt>
      <trkpt lat="46.38572" lon="5.67588">
        <ele>482.4</ele>
        <time>2022-07-29T11:22:51Z</time>
      </trkpt>
      <trkpt lat="46.38574" lon="5.67588">
        <ele>482.4</ele>
        <time>2022-07-29T11:22:52Z</time>
      </trkpt>
      <trkpt lat="46.38576" lon="5.67587">
        <ele>482.8</ele>
        <time>2022-07-29T11:22:53Z</time>
      </trkpt>
      <trkpt lat="46.38578" lon="5.67587">
        <ele>482.8</ele>
        <time>2022-07-29T11:22:54Z</time>
      </trkpt>
      <trkpt lat="46.3858" lon="5.67587">
        <ele>483.2</ele>
        <time>2022-07-29T11:22:55Z</time>
      </trkpt>
      <trkpt lat="46.38582" lon="5.67586">
        <ele>483.2</ele>
        <time>2022-07-29T11:22:56Z</time>
      </trkpt>
      <trkpt lat="46.38585" lon="5.67586">
        <ele>483.4</ele>
        <time>2022-07-29T11:22:57Z</time>
      </trkpt>
      <trkpt lat="46.38587" lon="5.67585">
        <ele>483.4</ele>
        <time>2022-07-29T11:22:58Z</time>
      </trkpt>
      <trkpt lat="46.38589" lon="5.67585">
        <ele>483.8</ele>
        <time>2022-07-29T11:22:59Z</time>
      </trkpt>
      <trkpt lat="46.38591" lon="5.67584">
        <ele>483.8</ele>
        <time>2022-07-29T11:23:00Z</time>
      </trkpt>
      <trkpt lat="46.38593" lon="5.67584">
        <ele>484.2</ele>
        <time>2022-07-29T11:23:01Z</time>
      </trkpt>
      <trkpt lat="46.38595" lon="5.67583">
        <ele>484.2</ele>
        <time>2022-07-29T11:23:02Z</time>
      </trkpt>
      <trkpt lat="46.38597" lon="5.67583">
        <ele>484.6</ele>
        <time>2022-07-29T11:23:03Z</time>
      </trkpt>
      <trkpt lat="46.38599" lon="5.67582">
        <ele>484.6</ele>
        <time>2022-07-29T11:23:04Z</time>
      </trkpt>
      <trkpt lat="46.38601" lon="5.67582">
        <ele>485</ele>
        <time>2022-07-29T11:23:05Z</time>
      </trkpt>
      <trkpt lat="46.38603" lon="5.67582">
        <ele>485</ele>
        <time>2022-07-29T11:23:06Z</time>
      </trkpt>
      <trkpt lat="46.38605" lon="5.67581">
        <ele>485.4</ele>
        <time>2022-07-29T11:23:07Z</time>
      </trkpt>
      <trkpt lat="46.38607" lon="5.67581">
        <ele>485.4</ele>
        <time>2022-07-29T11:23:08Z</time>
      </trkpt>
      <trkpt lat="46.38609" lon="5.6758">
        <ele>485.8</ele>
        <time>2022-07-29T11:23:09Z</time>
      </trkpt>
      <trkpt lat="46.38611" lon="5.6758">
        <ele>486</ele>
        <time>2022-07-29T11:23:10Z</time>
      </trkpt>
      <trkpt lat="46.38613" lon="5.67579">
        <ele>486.2</ele>
        <time>2022-07-29T11:23:11Z</time>
      </trkpt>
      <trkpt lat="46.38615" lon="5.67578">
        <ele>486.6</ele>
        <time>2022-07-29T11:23:12Z</time>
      </trkpt>
      <trkpt lat="46.38617" lon="5.67578">
        <ele>486.8</ele>
        <time>2022-07-29T11:23:13Z</time>
      </trkpt>
      <trkpt lat="46.38619" lon="5.67578">
        <ele>486.8</ele>
        <time>2022-07-29T11:23:14Z</time>
      </trkpt>
      <trkpt lat="46.38622" lon="5.67578">
        <ele>487.2</ele>
        <time>2022-07-29T11:23:15Z</time>
      </trkpt>
      <trkpt lat="46.38624" lon="5.67578">
        <ele>487.4</ele>
        <time>2022-07-29T11:23:16Z</time>
      </trkpt>
      <trkpt lat="46.38626" lon="5.67578">
        <ele>487.4</ele>
        <time>2022-07-29T11:23:17Z</time>
      </trkpt>
      <trkpt lat="46.38628" lon="5.67578">
        <ele>487.8</ele>
        <time>2022-07-29T11:23:18Z</time>
      </trkpt>
      <trkpt lat="46.3863" lon="5.67578">
        <ele>488</ele>
        <time>2022-07-29T11:23:19Z</time>
      </trkpt>
      <trkpt lat="46.38632" lon="5.67578">
        <ele>488</ele>
        <time>2022-07-29T11:23:20Z</time>
      </trkpt>
      <trkpt lat="46.38634" lon="5.67578">
        <ele>488.2</ele>
        <time>2022-07-29T11:23:21Z</time>
      </trkpt>
      <trkpt lat="46.38636" lon="5.67578">
        <ele>488.2</ele>
        <time>2022-07-29T11:23:22Z</time>
      </trkpt>
      <trkpt lat="46.38638" lon="5.67579">
        <ele>488.8</ele>
        <time>2022-07-29T11:23:23Z</time>
      </trkpt>
      <trkpt lat="46.3864" lon="5.67579">
        <ele>489</ele>
        <time>2022-07-29T11:23:24Z</time>
      </trkpt>
      <trkpt lat="46.38642" lon="5.67579">
        <ele>489.4</ele>
        <time>2022-07-29T11:23:25Z</time>
      </trkpt>
      <trkpt lat="46.38644" lon="5.67579">
        <ele>489.6</ele>
        <time>2022-07-29T11:23:26Z</time>
      </trkpt>
      <trkpt lat="46.38646" lon="5.67578">
        <ele>489.6</ele>
        <time>2022-07-29T11:23:27Z</time>
      </trkpt>
      <trkpt lat="46.38648" lon="5.67578">
        <ele>490</ele>
        <time>2022-07-29T11:23:28Z</time>
      </trkpt>
      <trkpt lat="46.3865" lon="5.67577">
        <ele>490.2</ele>
        <time>2022-07-29T11:23:29Z</time>
      </trkpt>
      <trkpt lat="46.38652" lon="5.67577">
        <ele>490.4</ele>
        <time>2022-07-29T11:23:30Z</time>
      </trkpt>
      <trkpt lat="46.38654" lon="5.67577">
        <ele>490.4</ele>
        <time>2022-07-29T11:23:31Z</time>
      </trkpt>
      <trkpt lat="46.38656" lon="5.67576">
        <ele>490.8</ele>
        <time>2022-07-29T11:23:32Z</time>
      </trkpt>
      <trkpt lat="46.38658" lon="5.67575">
        <ele>490.8</ele>
        <time>2022-07-29T11:23:33Z</time>
      </trkpt>
      <trkpt lat="46.3866" lon="5.67574">
        <ele>491.2</ele>
        <time>2022-07-29T11:23:34Z</time>
      </trkpt>
      <trkpt lat="46.38663" lon="5.67574">
        <ele>491.2</ele>
        <time>2022-07-29T11:23:35Z</time>
      </trkpt>
      <trkpt lat="46.38665" lon="5.67573">
        <ele>491.6</ele>
        <time>2022-07-29T11:23:36Z</time>
      </trkpt>
      <trkpt lat="46.38667" lon="5.67572">
        <ele>491.6</ele>
        <time>2022-07-29T11:23:37Z</time>
      </trkpt>
      <trkpt lat="46.38669" lon="5.67571">
        <ele>492</ele>
        <time>2022-07-29T11:23:38Z</time>
      </trkpt>
      <trkpt lat="46.38671" lon="5.6757">
        <ele>492</ele>
        <time>2022-07-29T11:23:39Z</time>
      </trkpt>
      <trkpt lat="46.38673" lon="5.67569">
        <ele>492.4</ele>
        <time>2022-07-29T11:23:40Z</time>
      </trkpt>
      <trkpt lat="46.38675" lon="5.67568">
        <ele>492.4</ele>
        <time>2022-07-29T11:23:41Z</time>
      </trkpt>
      <trkpt lat="46.38677" lon="5.67567">
        <ele>492.8</ele>
        <time>2022-07-29T11:23:42Z</time>
      </trkpt>
      <trkpt lat="46.38679" lon="5.67566">
        <ele>493</ele>
        <time>2022-07-29T11:23:43Z</time>
      </trkpt>
      <trkpt lat="46.38681" lon="5.67565">
        <ele>493.2</ele>
        <time>2022-07-29T11:23:44Z</time>
      </trkpt>
      <trkpt lat="46.38683" lon="5.67564">
        <ele>493.4</ele>
        <time>2022-07-29T11:23:45Z</time>
      </trkpt>
      <trkpt lat="46.38685" lon="5.67563">
        <ele>493.6</ele>
        <time>2022-07-29T11:23:46Z</time>
      </trkpt>
      <trkpt lat="46.38687" lon="5.67562">
        <ele>494</ele>
        <time>2022-07-29T11:23:47Z</time>
      </trkpt>
      <trkpt lat="46.38689" lon="5.67561">
        <ele>494</ele>
        <time>2022-07-29T11:23:48Z</time>
      </trkpt>
      <trkpt lat="46.38691" lon="5.6756">
        <ele>494.2</ele>
        <time>2022-07-29T11:23:49Z</time>
      </trkpt>
      <trkpt lat="46.38693" lon="5.67559">
        <ele>494.2</ele>
        <time>2022-07-29T11:23:50Z</time>
      </trkpt>
      <trkpt lat="46.38695" lon="5.67559">
        <ele>494.6</ele>
        <time>2022-07-29T11:23:51Z</time>
      </trkpt>
      <trkpt lat="46.38697" lon="5.67559">
        <ele>494.6</ele>
        <time>2022-07-29T11:23:52Z</time>
      </trkpt>
      <trkpt lat="46.387" lon="5.67559">
        <ele>495</ele>
        <time>2022-07-29T11:23:53Z</time>
      </trkpt>
      <trkpt lat="46.38702" lon="5.67559">
        <ele>495</ele>
        <time>2022-07-29T11:23:54Z</time>
      </trkpt>
      <trkpt lat="46.38704" lon="5.67559">
        <ele>495.4</ele>
        <time>2022-07-29T11:23:55Z</time>
      </trkpt>
      <trkpt lat="46.38706" lon="5.67559">
        <ele>495.6</ele>
        <time>2022-07-29T11:23:56Z</time>
      </trkpt>
      <trkpt lat="46.38709" lon="5.67559">
        <ele>495.8</ele>
        <time>2022-07-29T11:23:57Z</time>
      </trkpt>
      <trkpt lat="46.38711" lon="5.67559">
        <ele>496</ele>
        <time>2022-07-29T11:23:58Z</time>
      </trkpt>
      <trkpt lat="46.38713" lon="5.67559">
        <ele>496.2</ele>
        <time>2022-07-29T11:23:59Z</time>
      </trkpt>
      <trkpt lat="46.38715" lon="5.67558">
        <ele>496.6</ele>
        <time>2022-07-29T11:24:00Z</time>
      </trkpt>
      <trkpt lat="46.38717" lon="5.67559">
        <ele>496.8</ele>
        <time>2022-07-29T11:24:01Z</time>
      </trkpt>
      <trkpt lat="46.38719" lon="5.67559">
        <ele>497</ele>
        <time>2022-07-29T11:24:02Z</time>
      </trkpt>
      <trkpt lat="46.38722" lon="5.6756">
        <ele>497</ele>
        <time>2022-07-29T11:24:03Z</time>
      </trkpt>
      <trkpt lat="46.38724" lon="5.67559">
        <ele>497.4</ele>
        <time>2022-07-29T11:24:04Z</time>
      </trkpt>
      <trkpt lat="46.38726" lon="5.67559">
        <ele>497.6</ele>
        <time>2022-07-29T11:24:05Z</time>
      </trkpt>
      <trkpt lat="46.38728" lon="5.67559">
        <ele>498</ele>
        <time>2022-07-29T11:24:06Z</time>
      </trkpt>
      <trkpt lat="46.3873" lon="5.67559">
        <ele>498.2</ele>
        <time>2022-07-29T11:24:07Z</time>
      </trkpt>
      <trkpt lat="46.38732" lon="5.67559">
        <ele>498.6</ele>
        <time>2022-07-29T11:24:08Z</time>
      </trkpt>
      <trkpt lat="46.38734" lon="5.67559">
        <ele>498.8</ele>
        <time>2022-07-29T11:24:09Z</time>
      </trkpt>
      <trkpt lat="46.38736" lon="5.67559">
        <ele>498.8</ele>
        <time>2022-07-29T11:24:10Z</time>
      </trkpt>
      <trkpt lat="46.38738" lon="5.67559">
        <ele>499.2</ele>
        <time>2022-07-29T11:24:11Z</time>
      </trkpt>
      <trkpt lat="46.38741" lon="5.67558">
        <ele>499.2</ele>
        <time>2022-07-29T11:24:12Z</time>
      </trkpt>
      <trkpt lat="46.38743" lon="5.67558">
        <ele>499.4</ele>
        <time>2022-07-29T11:24:13Z</time>
      </trkpt>
      <trkpt lat="46.38745" lon="5.67558">
        <ele>499.4</ele>
        <time>2022-07-29T11:24:14Z</time>
      </trkpt>
      <trkpt lat="46.38747" lon="5.67558">
        <ele>499.8</ele>
        <time>2022-07-29T11:24:15Z</time>
      </trkpt>
      <trkpt lat="46.38749" lon="5.67557">
        <ele>499.8</ele>
        <time>2022-07-29T11:24:16Z</time>
      </trkpt>
      <trkpt lat="46.38751" lon="5.67557">
        <ele>500.2</ele>
        <time>2022-07-29T11:24:17Z</time>
      </trkpt>
      <trkpt lat="46.38754" lon="5.67557">
        <ele>500.2</ele>
        <time>2022-07-29T11:24:18Z</time>
      </trkpt>
      <trkpt lat="46.38756" lon="5.67557">
        <ele>500.6</ele>
        <time>2022-07-29T11:24:19Z</time>
      </trkpt>
      <trkpt lat="46.38758" lon="5.67557">
        <ele>500.8</ele>
        <time>2022-07-29T11:24:20Z</time>
      </trkpt>
      <trkpt lat="46.38758" lon="5.67557">
        <ele>501</ele>
        <time>2022-07-29T11:24:21Z</time>
      </trkpt>
      <trkpt lat="46.38763" lon="5.67558">
        <ele>501.4</ele>
        <time>2022-07-29T11:24:22Z</time>
      </trkpt>
      <trkpt lat="46.38764" lon="5.67558">
        <ele>501.6</ele>
        <time>2022-07-29T11:24:23Z</time>
      </trkpt>
      <trkpt lat="46.38766" lon="5.67558">
        <ele>501.8</ele>
        <time>2022-07-29T11:24:24Z</time>
      </trkpt>
      <trkpt lat="46.38768" lon="5.67559">
        <ele>501.8</ele>
        <time>2022-07-29T11:24:25Z</time>
      </trkpt>
      <trkpt lat="46.3877" lon="5.6756">
        <ele>502.4</ele>
        <time>2022-07-29T11:24:26Z</time>
      </trkpt>
      <trkpt lat="46.38772" lon="5.67561">
        <ele>502.6</ele>
        <time>2022-07-29T11:24:27Z</time>
      </trkpt>
      <trkpt lat="46.38773" lon="5.67562">
        <ele>502.8</ele>
        <time>2022-07-29T11:24:28Z</time>
      </trkpt>
      <trkpt lat="46.38776" lon="5.67563">
        <ele>503</ele>
        <time>2022-07-29T11:24:29Z</time>
      </trkpt>
      <trkpt lat="46.38778" lon="5.67564">
        <ele>503</ele>
        <time>2022-07-29T11:24:30Z</time>
      </trkpt>
      <trkpt lat="46.38779" lon="5.67565">
        <ele>503.4</ele>
        <time>2022-07-29T11:24:31Z</time>
      </trkpt>
      <trkpt lat="46.38782" lon="5.67566">
        <ele>503.6</ele>
        <time>2022-07-29T11:24:32Z</time>
      </trkpt>
      <trkpt lat="46.38784" lon="5.67566">
        <ele>503.8</ele>
        <time>2022-07-29T11:24:33Z</time>
      </trkpt>
      <trkpt lat="46.38786" lon="5.67567">
        <ele>504.2</ele>
        <time>2022-07-29T11:24:34Z</time>
      </trkpt>
      <trkpt lat="46.38788" lon="5.67569">
        <ele>504.4</ele>
        <time>2022-07-29T11:24:35Z</time>
      </trkpt>
      <trkpt lat="46.38789" lon="5.67571">
        <ele>504.8</ele>
        <time>2022-07-29T11:24:36Z</time>
      </trkpt>
      <trkpt lat="46.38791" lon="5.67573">
        <ele>505</ele>
        <time>2022-07-29T11:24:37Z</time>
      </trkpt>
      <trkpt lat="46.38793" lon="5.67575">
        <ele>505.2</ele>
        <time>2022-07-29T11:24:38Z</time>
      </trkpt>
      <trkpt lat="46.38794" lon="5.67577">
        <ele>505.2</ele>
        <time>2022-07-29T11:24:39Z</time>
      </trkpt>
      <trkpt lat="46.38796" lon="5.67579">
        <ele>505.6</ele>
        <time>2022-07-29T11:24:40Z</time>
      </trkpt>
      <trkpt lat="46.38798" lon="5.67581">
        <ele>505.8</ele>
        <time>2022-07-29T11:24:41Z</time>
      </trkpt>
      <trkpt lat="46.388" lon="5.67582">
        <ele>506</ele>
        <time>2022-07-29T11:24:42Z</time>
      </trkpt>
      <trkpt lat="46.38802" lon="5.67583">
        <ele>506</ele>
        <time>2022-07-29T11:24:43Z</time>
      </trkpt>
      <trkpt lat="46.38804" lon="5.67585">
        <ele>506.4</ele>
        <time>2022-07-29T11:24:44Z</time>
      </trkpt>
      <trkpt lat="46.38805" lon="5.67587">
        <ele>506.4</ele>
        <time>2022-07-29T11:24:45Z</time>
      </trkpt>
      <trkpt lat="46.38807" lon="5.67589">
        <ele>506.6</ele>
        <time>2022-07-29T11:24:46Z</time>
      </trkpt>
      <trkpt lat="46.38808" lon="5.67592">
        <ele>507</ele>
        <time>2022-07-29T11:24:47Z</time>
      </trkpt>
      <trkpt lat="46.3881" lon="5.67594">
        <ele>507</ele>
        <time>2022-07-29T11:24:48Z</time>
      </trkpt>
      <trkpt lat="46.38812" lon="5.67595">
        <ele>507.2</ele>
        <time>2022-07-29T11:24:49Z</time>
      </trkpt>
      <trkpt lat="46.38814" lon="5.67597">
        <ele>507.6</ele>
        <time>2022-07-29T11:24:50Z</time>
      </trkpt>
      <trkpt lat="46.38816" lon="5.67599">
        <ele>507.6</ele>
        <time>2022-07-29T11:24:51Z</time>
      </trkpt>
      <trkpt lat="46.38818" lon="5.676">
        <ele>507.8</ele>
        <time>2022-07-29T11:24:52Z</time>
      </trkpt>
      <trkpt lat="46.3882" lon="5.676">
        <ele>508</ele>
        <time>2022-07-29T11:24:53Z</time>
      </trkpt>
      <trkpt lat="46.38822" lon="5.676">
        <ele>508.4</ele>
        <time>2022-07-29T11:24:54Z</time>
      </trkpt>
      <trkpt lat="46.38825" lon="5.676">
        <ele>508.6</ele>
        <time>2022-07-29T11:24:55Z</time>
      </trkpt>
      <trkpt lat="46.38827" lon="5.67599">
        <ele>508.8</ele>
        <time>2022-07-29T11:24:56Z</time>
      </trkpt>
      <trkpt lat="46.38829" lon="5.67597">
        <ele>508.8</ele>
        <time>2022-07-29T11:24:57Z</time>
      </trkpt>
      <trkpt lat="46.38831" lon="5.67594">
        <ele>509.2</ele>
        <time>2022-07-29T11:24:58Z</time>
      </trkpt>
      <trkpt lat="46.38833" lon="5.67592">
        <ele>509.4</ele>
        <time>2022-07-29T11:24:59Z</time>
      </trkpt>
      <trkpt lat="46.38835" lon="5.67589">
        <ele>509.4</ele>
        <time>2022-07-29T11:25:00Z</time>
      </trkpt>
      <trkpt lat="46.38836" lon="5.67586">
        <ele>509.8</ele>
        <time>2022-07-29T11:25:01Z</time>
      </trkpt>
      <trkpt lat="46.38839" lon="5.67584">
        <ele>509.8</ele>
        <time>2022-07-29T11:25:02Z</time>
      </trkpt>
      <trkpt lat="46.38841" lon="5.67582">
        <ele>510</ele>
        <time>2022-07-29T11:25:03Z</time>
      </trkpt>
      <trkpt lat="46.38843" lon="5.6758">
        <ele>510.2</ele>
        <time>2022-07-29T11:25:04Z</time>
      </trkpt>
      <trkpt lat="46.38845" lon="5.67579">
        <ele>510.2</ele>
        <time>2022-07-29T11:25:05Z</time>
      </trkpt>
      <trkpt lat="46.38847" lon="5.67577">
        <ele>510.6</ele>
        <time>2022-07-29T11:25:06Z</time>
      </trkpt>
      <trkpt lat="46.38849" lon="5.67575">
        <ele>510.6</ele>
        <time>2022-07-29T11:25:07Z</time>
      </trkpt>
      <trkpt lat="46.38852" lon="5.67574">
        <ele>510.8</ele>
        <time>2022-07-29T11:25:08Z</time>
      </trkpt>
      <trkpt lat="46.38854" lon="5.67573">
        <ele>510.8</ele>
        <time>2022-07-29T11:25:09Z</time>
      </trkpt>
      <trkpt lat="46.38856" lon="5.67573">
        <ele>511</ele>
        <time>2022-07-29T11:25:10Z</time>
      </trkpt>
      <trkpt lat="46.38859" lon="5.67571">
        <ele>511</ele>
        <time>2022-07-29T11:25:11Z</time>
      </trkpt>
      <trkpt lat="46.38861" lon="5.67569">
        <ele>511.4</ele>
        <time>2022-07-29T11:25:12Z</time>
      </trkpt>
      <trkpt lat="46.38863" lon="5.67567">
        <ele>511.4</ele>
        <time>2022-07-29T11:25:13Z</time>
      </trkpt>
      <trkpt lat="46.38865" lon="5.67565">
        <ele>511.6</ele>
        <time>2022-07-29T11:25:14Z</time>
      </trkpt>
      <trkpt lat="46.38868" lon="5.67564">
        <ele>511.8</ele>
        <time>2022-07-29T11:25:15Z</time>
      </trkpt>
      <trkpt lat="46.3887" lon="5.67562">
        <ele>511.8</ele>
        <time>2022-07-29T11:25:16Z</time>
      </trkpt>
      <trkpt lat="46.38872" lon="5.6756">
        <ele>512.2</ele>
        <time>2022-07-29T11:25:17Z</time>
      </trkpt>
      <trkpt lat="46.38874" lon="5.67558">
        <ele>512.2</ele>
        <time>2022-07-29T11:25:18Z</time>
      </trkpt>
      <trkpt lat="46.38875" lon="5.67556">
        <ele>512.4</ele>
        <time>2022-07-29T11:25:19Z</time>
      </trkpt>
      <trkpt lat="46.38877" lon="5.67554">
        <ele>512.4</ele>
        <time>2022-07-29T11:25:20Z</time>
      </trkpt>
      <trkpt lat="46.38879" lon="5.67553">
        <ele>512.8</ele>
        <time>2022-07-29T11:25:21Z</time>
      </trkpt>
      <trkpt lat="46.38881" lon="5.67551">
        <ele>512.8</ele>
        <time>2022-07-29T11:25:22Z</time>
      </trkpt>
      <trkpt lat="46.38883" lon="5.67549">
        <ele>513.2</ele>
        <time>2022-07-29T11:25:23Z</time>
      </trkpt>
      <trkpt lat="46.38885" lon="5.67548">
        <ele>513.2</ele>
        <time>2022-07-29T11:25:24Z</time>
      </trkpt>
      <trkpt lat="46.38887" lon="5.67546">
        <ele>513.4</ele>
        <time>2022-07-29T11:25:25Z</time>
      </trkpt>
      <trkpt lat="46.38889" lon="5.67546">
        <ele>513.4</ele>
        <time>2022-07-29T11:25:26Z</time>
      </trkpt>
      <trkpt lat="46.38891" lon="5.67546">
        <ele>513.8</ele>
        <time>2022-07-29T11:25:27Z</time>
      </trkpt>
      <trkpt lat="46.38893" lon="5.67547">
        <ele>514.2</ele>
        <time>2022-07-29T11:25:28Z</time>
      </trkpt>
      <trkpt lat="46.38895" lon="5.67547">
        <ele>514.4</ele>
        <time>2022-07-29T11:25:29Z</time>
      </trkpt>
      <trkpt lat="46.38897" lon="5.67546">
        <ele>514.6</ele>
        <time>2022-07-29T11:25:30Z</time>
      </trkpt>
      <trkpt lat="46.389" lon="5.67544">
        <ele>514.8</ele>
        <time>2022-07-29T11:25:31Z</time>
      </trkpt>
      <trkpt lat="46.38901" lon="5.67541">
        <ele>515.2</ele>
        <time>2022-07-29T11:25:32Z</time>
      </trkpt>
      <trkpt lat="46.38902" lon="5.67539">
        <ele>515.2</ele>
        <time>2022-07-29T11:25:33Z</time>
      </trkpt>
      <trkpt lat="46.38903" lon="5.67537">
        <ele>515.4</ele>
        <time>2022-07-29T11:25:34Z</time>
      </trkpt>
      <trkpt lat="46.38902" lon="5.67535">
        <ele>515.4</ele>
        <time>2022-07-29T11:25:35Z</time>
      </trkpt>
      <trkpt lat="46.389" lon="5.67536">
        <ele>515.4</ele>
        <time>2022-07-29T11:25:36Z</time>
      </trkpt>
      <trkpt lat="46.38899" lon="5.67537">
        <ele>515.4</ele>
        <time>2022-07-29T11:25:37Z</time>
      </trkpt>
      <trkpt lat="46.38897" lon="5.67539">
        <ele>515.4</ele>
        <time>2022-07-29T11:25:38Z</time>
      </trkpt>
      <trkpt lat="46.38895" lon="5.67542">
        <ele>515.4</ele>
        <time>2022-07-29T11:25:39Z</time>
      </trkpt>
      <trkpt lat="46.38892" lon="5.67544">
        <ele>515.2</ele>
        <time>2022-07-29T11:25:40Z</time>
      </trkpt>
      <trkpt lat="46.3889" lon="5.67545">
        <ele>515.2</ele>
        <time>2022-07-29T11:25:41Z</time>
      </trkpt>
      <trkpt lat="46.38887" lon="5.67546">
        <ele>514.8</ele>
        <time>2022-07-29T11:25:42Z</time>
      </trkpt>
      <trkpt lat="46.38885" lon="5.67546">
        <ele>514.6</ele>
        <time>2022-07-29T11:25:43Z</time>
      </trkpt>
      <trkpt lat="46.38884" lon="5.67547">
        <ele>514.6</ele>
        <time>2022-07-29T11:25:44Z</time>
      </trkpt>
      <trkpt lat="46.38882" lon="5.67547">
        <ele>514.2</ele>
        <time>2022-07-29T11:25:45Z</time>
      </trkpt>
      <trkpt lat="46.38882" lon="5.67548">
        <ele>514.2</ele>
        <time>2022-07-29T11:25:46Z</time>
      </trkpt>
      <trkpt lat="46.38881" lon="5.67548">
        <ele>514</ele>
        <time>2022-07-29T11:25:47Z</time>
      </trkpt>
      <trkpt lat="46.38881" lon="5.67548">
        <ele>514</ele>
        <time>2022-07-29T11:25:48Z</time>
      </trkpt>
      <trkpt lat="46.38881" lon="5.67548">
        <ele>513.6</ele>
        <time>2022-07-29T11:25:49Z</time>
      </trkpt>
      <trkpt lat="46.38881" lon="5.67548">
        <ele>513.4</ele>
        <time>2022-07-29T11:25:54Z</time>
      </trkpt>
      <trkpt lat="46.38881" lon="5.67548">
        <ele>513.4</ele>
        <time>2022-07-29T11:25:55Z</time>
      </trkpt>
      <trkpt lat="46.38881" lon="5.67548">
        <ele>513.4</ele>
        <time>2022-07-29T11:25:56Z</time>
      </trkpt>
      <trkpt lat="46.38881" lon="5.67548">
        <ele>513.4</ele>
        <time>2022-07-29T11:25:57Z</time>
      </trkpt>
      <trkpt lat="46.38881" lon="5.67548">
        <ele>513.4</ele>
        <time>2022-07-29T11:26:01Z</time>
      </trkpt>
      <trkpt lat="46.38881" lon="5.67548">
        <ele>513.4</ele>
        <time>2022-07-29T11:26:02Z</time>
      </trkpt>
      <trkpt lat="46.38881" lon="5.67548">
        <ele>513.4</ele>
        <time>2022-07-29T11:26:08Z</time>
      </trkpt>
      <trkpt lat="46.38881" lon="5.67548">
        <ele>513.4</ele>
        <time>2022-07-29T11:26:09Z</time>
      </trkpt>
      <trkpt lat="46.38881" lon="5.67548">
        <ele>513.4</ele>
        <time>2022-07-29T11:32:19Z</time>
      </trkpt>
      <trkpt lat="46.38881" lon="5.67548">
        <ele>513.4</ele>
        <time>2022-07-29T11:32:20Z</time>
      </trkpt>
      <trkpt lat="46.38881" lon="5.67548">
        <ele>513.4</ele>
        <time>2022-07-29T11:32:21Z</time>
      </trkpt>
      <trkpt lat="46.38881" lon="5.67548">
        <ele>513.4</ele>
        <time>2022-07-29T11:32:22Z</time>
      </trkpt>
      <trkpt lat="46.38881" lon="5.67548">
        <ele>513.6</ele>
        <time>2022-07-29T11:32:23Z</time>
      </trkpt>
      <trkpt lat="46.38881" lon="5.67548">
        <ele>513.6</ele>
        <time>2022-07-29T11:32:24Z</time>
      </trkpt>
      <trkpt lat="46.38881" lon="5.67548">
        <ele>514</ele>
        <time>2022-07-29T11:32:25Z</time>
      </trkpt>
      <trkpt lat="46.38885" lon="5.67546">
        <ele>514</ele>
        <time>2022-07-29T11:32:26Z</time>
      </trkpt>
      <trkpt lat="46.38886" lon="5.67546">
        <ele>514</ele>
        <time>2022-07-29T11:32:27Z</time>
      </trkpt>
      <trkpt lat="46.38887" lon="5.67545">
        <ele>514.2</ele>
        <time>2022-07-29T11:32:28Z</time>
      </trkpt>
      <trkpt lat="46.38888" lon="5.67545">
        <ele>514.2</ele>
        <time>2022-07-29T11:32:29Z</time>
      </trkpt>
      <trkpt lat="46.38889" lon="5.67544">
        <ele>514.4</ele>
        <time>2022-07-29T11:32:30Z</time>
      </trkpt>
      <trkpt lat="46.38889" lon="5.67543">
        <ele>514.4</ele>
        <time>2022-07-29T11:32:31Z</time>
      </trkpt>
      <trkpt lat="46.38891" lon="5.67542">
        <ele>514.6</ele>
        <time>2022-07-29T11:32:32Z</time>
      </trkpt>
      <trkpt lat="46.38892" lon="5.67542">
        <ele>514.6</ele>
        <time>2022-07-29T11:32:33Z</time>
      </trkpt>
      <trkpt lat="46.38893" lon="5.67542">
        <ele>515</ele>
        <time>2022-07-29T11:32:34Z</time>
      </trkpt>
      <trkpt lat="46.38894" lon="5.67542">
        <ele>515</ele>
        <time>2022-07-29T11:32:35Z</time>
      </trkpt>
      <trkpt lat="46.38896" lon="5.67542">
        <ele>515</ele>
        <time>2022-07-29T11:32:36Z</time>
      </trkpt>
      <trkpt lat="46.38897" lon="5.67542">
        <ele>515.2</ele>
        <time>2022-07-29T11:32:37Z</time>
      </trkpt>
      <trkpt lat="46.38898" lon="5.67543">
        <ele>515.2</ele>
        <time>2022-07-29T11:32:38Z</time>
      </trkpt>
      <trkpt lat="46.389" lon="5.67543">
        <ele>515.4</ele>
        <time>2022-07-29T11:32:39Z</time>
      </trkpt>
      <trkpt lat="46.38901" lon="5.67543">
        <ele>515.4</ele>
        <time>2022-07-29T11:32:40Z</time>
      </trkpt>
      <trkpt lat="46.38902" lon="5.67544">
        <ele>515.4</ele>
        <time>2022-07-29T11:32:41Z</time>
      </trkpt>
      <trkpt lat="46.38903" lon="5.67545">
        <ele>515.8</ele>
        <time>2022-07-29T11:32:42Z</time>
      </trkpt>
      <trkpt lat="46.38904" lon="5.67546">
        <ele>515.8</ele>
        <time>2022-07-29T11:32:43Z</time>
      </trkpt>
      <trkpt lat="46.38905" lon="5.67547">
        <ele>515.8</ele>
        <time>2022-07-29T11:32:44Z</time>
      </trkpt>
      <trkpt lat="46.38906" lon="5.67549">
        <ele>516</ele>
        <time>2022-07-29T11:32:45Z</time>
      </trkpt>
      <trkpt lat="46.38907" lon="5.6755">
        <ele>516</ele>
        <time>2022-07-29T11:32:46Z</time>
      </trkpt>
      <trkpt lat="46.38908" lon="5.67551">
        <ele>516</ele>
        <time>2022-07-29T11:32:47Z</time>
      </trkpt>
      <trkpt lat="46.38909" lon="5.67552">
        <ele>516.2</ele>
        <time>2022-07-29T11:32:48Z</time>
      </trkpt>
      <trkpt lat="46.3891" lon="5.67553">
        <ele>516.2</ele>
        <time>2022-07-29T11:32:49Z</time>
      </trkpt>
      <trkpt lat="46.38911" lon="5.67553">
        <ele>516.2</ele>
        <time>2022-07-29T11:32:50Z</time>
      </trkpt>
      <trkpt lat="46.38912" lon="5.67553">
        <ele>516.6</ele>
        <time>2022-07-29T11:32:51Z</time>
      </trkpt>
      <trkpt lat="46.38913" lon="5.67553">
        <ele>516.6</ele>
        <time>2022-07-29T11:32:52Z</time>
      </trkpt>
      <trkpt lat="46.38914" lon="5.67553">
        <ele>516.6</ele>
        <time>2022-07-29T11:32:53Z</time>
      </trkpt>
      <trkpt lat="46.38914" lon="5.67553">
        <ele>516.8</ele>
        <time>2022-07-29T11:32:54Z</time>
      </trkpt>
      <trkpt lat="46.38914" lon="5.67553">
        <ele>516.8</ele>
        <time>2022-07-29T11:32:55Z</time>
      </trkpt>
      <trkpt lat="46.38914" lon="5.67553">
        <ele>516.8</ele>
        <time>2022-07-29T11:32:57Z</time>
      </trkpt>
      <trkpt lat="46.38914" lon="5.67553">
        <ele>517</ele>
        <time>2022-07-29T11:32:58Z</time>
      </trkpt>
      <trkpt lat="46.38914" lon="5.67553">
        <ele>517</ele>
        <time>2022-07-29T11:32:59Z</time>
      </trkpt>
      <trkpt lat="46.38914" lon="5.67553">
        <ele>517</ele>
        <time>2022-07-29T11:33:00Z</time>
      </trkpt>
      <trkpt lat="46.38914" lon="5.67553">
        <ele>517</ele>
        <time>2022-07-29T11:33:01Z</time>
      </trkpt>
      <trkpt lat="46.38914" lon="5.67553">
        <ele>517</ele>
        <time>2022-07-29T11:33:03Z</time>
      </trkpt>
      <trkpt lat="46.38914" lon="5.67553">
        <ele>517</ele>
        <time>2022-07-29T11:33:04Z</time>
      </trkpt>
      <trkpt lat="46.38914" lon="5.67553">
        <ele>517</ele>
        <time>2022-07-29T11:33:07Z</time>
      </trkpt>
      <trkpt lat="46.38914" lon="5.67553">
        <ele>517</ele>
        <time>2022-07-29T11:33:08Z</time>
      </trkpt>
      <trkpt lat="46.38914" lon="5.67553">
        <ele>517</ele>
        <time>2022-07-29T11:33:09Z</time>
      </trkpt>
      <trkpt lat="46.38914" lon="5.67553">
        <ele>517</ele>
        <time>2022-07-29T11:33:10Z</time>
      </trkpt>
      <trkpt lat="46.38914" lon="5.67553">
        <ele>517</ele>
        <time>2022-07-29T11:33:13Z</time>
      </trkpt>
      <trkpt lat="46.38914" lon="5.67553">
        <ele>517</ele>
        <time>2022-07-29T11:33:14Z</time>
      </trkpt>
      <trkpt lat="46.38914" lon="5.67553">
        <ele>516.8</ele>
        <time>2022-07-29T11:33:15Z</time>
      </trkpt>
      <trkpt lat="46.38914" lon="5.67553">
        <ele>516.8</ele>
        <time>2022-07-29T11:33:20Z</time>
      </trkpt>
      <trkpt lat="46.38914" lon="5.67553">
        <ele>516.8</ele>
        <time>2022-07-29T11:33:21Z</time>
      </trkpt>
      <trkpt lat="46.38914" lon="5.67553">
        <ele>516.8</ele>
        <time>2022-07-29T11:33:22Z</time>
      </trkpt>
      <trkpt lat="46.38914" lon="5.67553">
        <ele>516.8</ele>
        <time>2022-07-29T11:33:23Z</time>
      </trkpt>
      <trkpt lat="46.38914" lon="5.67553">
        <ele>516.8</ele>
        <time>2022-07-29T11:33:24Z</time>
      </trkpt>
      <trkpt lat="46.38914" lon="5.67553">
        <ele>516.8</ele>
        <time>2022-07-29T11:33:25Z</time>
      </trkpt>
      <trkpt lat="46.38914" lon="5.67553">
        <ele>516.8</ele>
        <time>2022-07-29T11:33:26Z</time>
      </trkpt>
      <trkpt lat="46.38914" lon="5.67553">
        <ele>516.8</ele>
        <time>2022-07-29T11:33:27Z</time>
      </trkpt>
      <trkpt lat="46.38914" lon="5.67553">
        <ele>516.8</ele>
        <time>2022-07-29T11:33:28Z</time>
      </trkpt>
      <trkpt lat="46.38914" lon="5.67553">
        <ele>516.8</ele>
        <time>2022-07-29T11:33:29Z</time>
      </trkpt>
      <trkpt lat="46.38914" lon="5.67553">
        <ele>516.8</ele>
        <time>2022-07-29T11:33:30Z</time>
      </trkpt>
      <trkpt lat="46.38914" lon="5.67553">
        <ele>516.8</ele>
        <time>2022-07-29T11:33:31Z</time>
      </trkpt>
      <trkpt lat="46.38914" lon="5.67553">
        <ele>516.8</ele>
        <time>2022-07-29T11:33:32Z</time>
      </trkpt>
      <trkpt lat="46.38914" lon="5.67553">
        <ele>516.6</ele>
        <time>2022-07-29T11:35:02Z</time>
      </trkpt>
      <trkpt lat="46.38914" lon="5.67553">
        <ele>516.6</ele>
        <time>2022-07-29T11:35:03Z</time>
      </trkpt>
      <trkpt lat="46.38914" lon="5.67553">
        <ele>516.6</ele>
        <time>2022-07-29T11:35:04Z</time>
      </trkpt>
      <trkpt lat="46.38914" lon="5.67553">
        <ele>515.8</ele>
        <time>2022-07-29T11:55:45Z</time>
      </trkpt>
      <trkpt lat="46.38914" lon="5.67553">
        <ele>515.8</ele>
        <time>2022-07-29T11:55:46Z</time>
      </trkpt>
      <trkpt lat="46.38914" lon="5.67553">
        <ele>515.8</ele>
        <time>2022-07-29T11:55:47Z</time>
      </trkpt>
      <trkpt lat="46.38914" lon="5.67553">
        <ele>515.8</ele>
        <time>2022-07-29T11:55:48Z</time>
      </trkpt>
      <trkpt lat="46.38914" lon="5.67553">
        <ele>515.6</ele>
        <time>2022-07-29T12:01:44Z</time>
      </trkpt>
      <trkpt lat="46.38914" lon="5.67553">
        <ele>515.6</ele>
        <time>2022-07-29T12:01:45Z</time>
      </trkpt>
      <trkpt lat="46.38914" lon="5.67553">
        <ele>515.6</ele>
        <time>2022-07-29T12:01:46Z</time>
      </trkpt>
      <trkpt lat="46.38914" lon="5.67553">
        <ele>515.6</ele>
        <time>2022-07-29T12:01:47Z</time>
      </trkpt>
      <trkpt lat="46.38914" lon="5.67553">
        <ele>515.4</ele>
        <time>2022-07-29T12:02:20Z</time>
      </trkpt>
      <trkpt lat="46.38914" lon="5.67553">
        <ele>515.4</ele>
        <time>2022-07-29T12:02:21Z</time>
      </trkpt>
      <trkpt lat="46.38914" lon="5.67553">
        <ele>515.4</ele>
        <time>2022-07-29T12:02:24Z</time>
      </trkpt>
      <trkpt lat="46.38914" lon="5.67553">
        <ele>515.4</ele>
        <time>2022-07-29T12:02:25Z</time>
      </trkpt>
      <trkpt lat="46.38914" lon="5.67553">
        <ele>515.2</ele>
        <time>2022-07-29T12:03:43Z</time>
      </trkpt>
      <trkpt lat="46.38914" lon="5.67567">
        <ele>515.2</ele>
        <time>2022-07-29T12:03:44Z</time>
      </trkpt>
      <trkpt lat="46.38914" lon="5.67568">
        <ele>515.2</ele>
        <time>2022-07-29T12:03:45Z</time>
      </trkpt>
      <trkpt lat="46.38914" lon="5.67568">
        <ele>515.2</ele>
        <time>2022-07-29T12:03:46Z</time>
      </trkpt>
      <trkpt lat="46.38914" lon="5.67568">
        <ele>515.2</ele>
        <time>2022-07-29T12:03:47Z</time>
      </trkpt>
      <trkpt lat="46.38914" lon="5.67568">
        <ele>515.2</ele>
        <time>2022-07-29T12:03:49Z</time>
      </trkpt>
      <trkpt lat="46.38914" lon="5.67568">
        <ele>515.2</ele>
        <time>2022-07-29T12:03:50Z</time>
      </trkpt>
      <trkpt lat="46.38914" lon="5.67568">
        <ele>515.2</ele>
        <time>2022-07-29T12:03:51Z</time>
      </trkpt>
      <trkpt lat="46.38914" lon="5.67568">
        <ele>515.2</ele>
        <time>2022-07-29T12:03:52Z</time>
      </trkpt>
      <trkpt lat="46.38914" lon="5.67568">
        <ele>515.2</ele>
        <time>2022-07-29T12:03:53Z</time>
      </trkpt>
      <trkpt lat="46.38914" lon="5.67568">
        <ele>515.2</ele>
        <time>2022-07-29T12:03:54Z</time>
      </trkpt>
      <trkpt lat="46.38914" lon="5.67568">
        <ele>515.2</ele>
        <time>2022-07-29T12:03:55Z</time>
      </trkpt>
      <trkpt lat="46.38914" lon="5.67568">
        <ele>515.2</ele>
        <time>2022-07-29T12:03:56Z</time>
      </trkpt>
      <trkpt lat="46.38914" lon="5.67568">
        <ele>515.2</ele>
        <time>2022-07-29T12:03:57Z</time>
      </trkpt>
      <trkpt lat="46.38914" lon="5.67572">
        <ele>515.2</ele>
        <time>2022-07-29T12:03:58Z</time>
      </trkpt>
      <trkpt lat="46.38915" lon="5.67574">
        <ele>515.2</ele>
        <time>2022-07-29T12:03:59Z</time>
      </trkpt>
      <trkpt lat="46.38916" lon="5.67575">
        <ele>515.4</ele>
        <time>2022-07-29T12:04:00Z</time>
      </trkpt>
      <trkpt lat="46.38916" lon="5.67576">
        <ele>515.4</ele>
        <time>2022-07-29T12:04:01Z</time>
      </trkpt>
      <trkpt lat="46.38917" lon="5.67577">
        <ele>515.8</ele>
        <time>2022-07-29T12:04:02Z</time>
      </trkpt>
      <trkpt lat="46.38918" lon="5.67578">
        <ele>515.8</ele>
        <time>2022-07-29T12:04:03Z</time>
      </trkpt>
      <trkpt lat="46.38919" lon="5.67579">
        <ele>516</ele>
        <time>2022-07-29T12:04:04Z</time>
      </trkpt>
      <trkpt lat="46.3892" lon="5.6758">
        <ele>516</ele>
        <time>2022-07-29T12:04:05Z</time>
      </trkpt>
      <trkpt lat="46.38921" lon="5.67582">
        <ele>516.2</ele>
        <time>2022-07-29T12:04:06Z</time>
      </trkpt>
      <trkpt lat="46.38922" lon="5.67583">
        <ele>516.2</ele>
        <time>2022-07-29T12:04:07Z</time>
      </trkpt>
      <trkpt lat="46.38924" lon="5.67585">
        <ele>516.6</ele>
        <time>2022-07-29T12:04:08Z</time>
      </trkpt>
      <trkpt lat="46.38925" lon="5.67586">
        <ele>516.6</ele>
        <time>2022-07-29T12:04:09Z</time>
      </trkpt>
      <trkpt lat="46.38926" lon="5.67588">
        <ele>516.6</ele>
        <time>2022-07-29T12:04:10Z</time>
      </trkpt>
      <trkpt lat="46.38927" lon="5.6759">
        <ele>516.8</ele>
        <time>2022-07-29T12:04:11Z</time>
      </trkpt>
      <trkpt lat="46.38929" lon="5.67592">
        <ele>516.8</ele>
        <time>2022-07-29T12:04:12Z</time>
      </trkpt>
      <trkpt lat="46.3893" lon="5.67594">
        <ele>517.2</ele>
        <time>2022-07-29T12:04:13Z</time>
      </trkpt>
      <trkpt lat="46.38931" lon="5.67596">
        <ele>517.2</ele>
        <time>2022-07-29T12:04:14Z</time>
      </trkpt>
      <trkpt lat="46.38932" lon="5.67598">
        <ele>517.4</ele>
        <time>2022-07-29T12:04:15Z</time>
      </trkpt>
      <trkpt lat="46.38933" lon="5.676">
        <ele>517.4</ele>
        <time>2022-07-29T12:04:16Z</time>
      </trkpt>
      <trkpt lat="46.38934" lon="5.67602">
        <ele>517.8</ele>
        <time>2022-07-29T12:04:17Z</time>
      </trkpt>
      <trkpt lat="46.38936" lon="5.67604">
        <ele>517.8</ele>
        <time>2022-07-29T12:04:18Z</time>
      </trkpt>
      <trkpt lat="46.38937" lon="5.67606">
        <ele>518.2</ele>
        <time>2022-07-29T12:04:19Z</time>
      </trkpt>
      <trkpt lat="46.38938" lon="5.67608">
        <ele>518.2</ele>
        <time>2022-07-29T12:04:20Z</time>
      </trkpt>
      <trkpt lat="46.38939" lon="5.67611">
        <ele>518.4</ele>
        <time>2022-07-29T12:04:21Z</time>
      </trkpt>
      <trkpt lat="46.38939" lon="5.67613">
        <ele>518.8</ele>
        <time>2022-07-29T12:04:22Z</time>
      </trkpt>
      <trkpt lat="46.3894" lon="5.67615">
        <ele>518.8</ele>
        <time>2022-07-29T12:04:23Z</time>
      </trkpt>
      <trkpt lat="46.38941" lon="5.67616">
        <ele>519.2</ele>
        <time>2022-07-29T12:04:24Z</time>
      </trkpt>
      <trkpt lat="46.38942" lon="5.67618">
        <ele>519.2</ele>
        <time>2022-07-29T12:04:25Z</time>
      </trkpt>
      <trkpt lat="46.38943" lon="5.6762">
        <ele>519.4</ele>
        <time>2022-07-29T12:04:26Z</time>
      </trkpt>
      <trkpt lat="46.38944" lon="5.67622">
        <ele>519.4</ele>
        <time>2022-07-29T12:04:27Z</time>
      </trkpt>
      <trkpt lat="46.38945" lon="5.67623">
        <ele>519.6</ele>
        <time>2022-07-29T12:04:28Z</time>
      </trkpt>
      <trkpt lat="46.38946" lon="5.67625">
        <ele>519.8</ele>
        <time>2022-07-29T12:04:29Z</time>
      </trkpt>
      <trkpt lat="46.38948" lon="5.67626">
        <ele>520</ele>
        <time>2022-07-29T12:04:30Z</time>
      </trkpt>
      <trkpt lat="46.38949" lon="5.67628">
        <ele>520</ele>
        <time>2022-07-29T12:04:31Z</time>
      </trkpt>
      <trkpt lat="46.38951" lon="5.67629">
        <ele>520.4</ele>
        <time>2022-07-29T12:04:32Z</time>
      </trkpt>
      <trkpt lat="46.38952" lon="5.6763">
        <ele>520.4</ele>
        <time>2022-07-29T12:04:33Z</time>
      </trkpt>
      <trkpt lat="46.38954" lon="5.67631">
        <ele>520.6</ele>
        <time>2022-07-29T12:04:34Z</time>
      </trkpt>
      <trkpt lat="46.38955" lon="5.67633">
        <ele>520.6</ele>
        <time>2022-07-29T12:04:35Z</time>
      </trkpt>
      <trkpt lat="46.38957" lon="5.67635">
        <ele>520.8</ele>
        <time>2022-07-29T12:04:36Z</time>
      </trkpt>
      <trkpt lat="46.38958" lon="5.67637">
        <ele>520.8</ele>
        <time>2022-07-29T12:04:37Z</time>
      </trkpt>
      <trkpt lat="46.3896" lon="5.67639">
        <ele>521.2</ele>
        <time>2022-07-29T12:04:38Z</time>
      </trkpt>
      <trkpt lat="46.38961" lon="5.67641">
        <ele>521.2</ele>
        <time>2022-07-29T12:04:39Z</time>
      </trkpt>
      <trkpt lat="46.38963" lon="5.67643">
        <ele>521.4</ele>
        <time>2022-07-29T12:04:40Z</time>
      </trkpt>
      <trkpt lat="46.38965" lon="5.67645">
        <ele>521.4</ele>
        <time>2022-07-29T12:04:41Z</time>
      </trkpt>
      <trkpt lat="46.38966" lon="5.67647">
        <ele>521.6</ele>
        <time>2022-07-29T12:04:42Z</time>
      </trkpt>
      <trkpt lat="46.38968" lon="5.67649">
        <ele>521.6</ele>
        <time>2022-07-29T12:04:43Z</time>
      </trkpt>
      <trkpt lat="46.3897" lon="5.67651">
        <ele>522</ele>
        <time>2022-07-29T12:04:44Z</time>
      </trkpt>
      <trkpt lat="46.38972" lon="5.67652">
        <ele>522</ele>
        <time>2022-07-29T12:04:45Z</time>
      </trkpt>
      <trkpt lat="46.38974" lon="5.67653">
        <ele>522</ele>
        <time>2022-07-29T12:04:46Z</time>
      </trkpt>
      <trkpt lat="46.38976" lon="5.67654">
        <ele>522.2</ele>
        <time>2022-07-29T12:04:47Z</time>
      </trkpt>
      <trkpt lat="46.38978" lon="5.67656">
        <ele>522.2</ele>
        <time>2022-07-29T12:04:48Z</time>
      </trkpt>
      <trkpt lat="46.3898" lon="5.67657">
        <ele>522.2</ele>
        <time>2022-07-29T12:04:49Z</time>
      </trkpt>
      <trkpt lat="46.38982" lon="5.67658">
        <ele>522.6</ele>
        <time>2022-07-29T12:04:50Z</time>
      </trkpt>
      <trkpt lat="46.38984" lon="5.6766">
        <ele>522.6</ele>
        <time>2022-07-29T12:04:51Z</time>
      </trkpt>
      <trkpt lat="46.38986" lon="5.67661">
        <ele>522.6</ele>
        <time>2022-07-29T12:04:52Z</time>
      </trkpt>
      <trkpt lat="46.38989" lon="5.67662">
        <ele>522.8</ele>
        <time>2022-07-29T12:04:53Z</time>
      </trkpt>
      <trkpt lat="46.38991" lon="5.67663">
        <ele>522.8</ele>
        <time>2022-07-29T12:04:54Z</time>
      </trkpt>
      <trkpt lat="46.38993" lon="5.67665">
        <ele>522.8</ele>
        <time>2022-07-29T12:04:55Z</time>
      </trkpt>
      <trkpt lat="46.38996" lon="5.67666">
        <ele>523</ele>
        <time>2022-07-29T12:04:56Z</time>
      </trkpt>
      <trkpt lat="46.38999" lon="5.67666">
        <ele>523</ele>
        <time>2022-07-29T12:04:57Z</time>
      </trkpt>
      <trkpt lat="46.39001" lon="5.67667">
        <ele>523.2</ele>
        <time>2022-07-29T12:04:58Z</time>
      </trkpt>
      <trkpt lat="46.39004" lon="5.67669">
        <ele>523.2</ele>
        <time>2022-07-29T12:04:59Z</time>
      </trkpt>
      <trkpt lat="46.39006" lon="5.6767">
        <ele>523.2</ele>
        <time>2022-07-29T12:05:00Z</time>
      </trkpt>
      <trkpt lat="46.39009" lon="5.67671">
        <ele>523.4</ele>
        <time>2022-07-29T12:05:01Z</time>
      </trkpt>
      <trkpt lat="46.39011" lon="5.67673">
        <ele>523.4</ele>
        <time>2022-07-29T12:05:02Z</time>
      </trkpt>
      <trkpt lat="46.39014" lon="5.67674">
        <ele>523.4</ele>
        <time>2022-07-29T12:05:03Z</time>
      </trkpt>
      <trkpt lat="46.39016" lon="5.67675">
        <ele>523.6</ele>
        <time>2022-07-29T12:05:04Z</time>
      </trkpt>
      <trkpt lat="46.39018" lon="5.67676">
        <ele>523.6</ele>
        <time>2022-07-29T12:05:05Z</time>
      </trkpt>
      <trkpt lat="46.39021" lon="5.67677">
        <ele>523.8</ele>
        <time>2022-07-29T12:05:06Z</time>
      </trkpt>
      <trkpt lat="46.39024" lon="5.67679">
        <ele>523.8</ele>
        <time>2022-07-29T12:05:07Z</time>
      </trkpt>
      <trkpt lat="46.39026" lon="5.6768">
        <ele>524.2</ele>
        <time>2022-07-29T12:05:08Z</time>
      </trkpt>
      <trkpt lat="46.39029" lon="5.67681">
        <ele>524.2</ele>
        <time>2022-07-29T12:05:09Z</time>
      </trkpt>
      <trkpt lat="46.39032" lon="5.67681">
        <ele>524.6</ele>
        <time>2022-07-29T12:05:10Z</time>
      </trkpt>
      <trkpt lat="46.39034" lon="5.67682">
        <ele>524.8</ele>
        <time>2022-07-29T12:05:11Z</time>
      </trkpt>
      <trkpt lat="46.39036" lon="5.67683">
        <ele>525</ele>
        <time>2022-07-29T12:05:12Z</time>
      </trkpt>
      <trkpt lat="46.39039" lon="5.67683">
        <ele>525</ele>
        <time>2022-07-29T12:05:13Z</time>
      </trkpt>
      <trkpt lat="46.39041" lon="5.67684">
        <ele>525.4</ele>
        <time>2022-07-29T12:05:14Z</time>
      </trkpt>
      <trkpt lat="46.39043" lon="5.67685">
        <ele>525.8</ele>
        <time>2022-07-29T12:05:15Z</time>
      </trkpt>
      <trkpt lat="46.39043" lon="5.67685">
        <ele>526</ele>
        <time>2022-07-29T12:05:16Z</time>
      </trkpt>
      <trkpt lat="46.39045" lon="5.67686">
        <ele>526</ele>
        <time>2022-07-29T12:05:17Z</time>
      </trkpt>
      <trkpt lat="46.39046" lon="5.67688">
        <ele>526.2</ele>
        <time>2022-07-29T12:05:18Z</time>
      </trkpt>
      <trkpt lat="46.39048" lon="5.67689">
        <ele>526.2</ele>
        <time>2022-07-29T12:05:19Z</time>
      </trkpt>
      <trkpt lat="46.39049" lon="5.67691">
        <ele>526.6</ele>
        <time>2022-07-29T12:05:20Z</time>
      </trkpt>
      <trkpt lat="46.39051" lon="5.67692">
        <ele>526.8</ele>
        <time>2022-07-29T12:05:21Z</time>
      </trkpt>
      <trkpt lat="46.39053" lon="5.67693">
        <ele>526.8</ele>
        <time>2022-07-29T12:05:22Z</time>
      </trkpt>
      <trkpt lat="46.39055" lon="5.67694">
        <ele>527.2</ele>
        <time>2022-07-29T12:05:23Z</time>
      </trkpt>
      <trkpt lat="46.39057" lon="5.67696">
        <ele>527.4</ele>
        <time>2022-07-29T12:05:24Z</time>
      </trkpt>
      <trkpt lat="46.39059" lon="5.67697">
        <ele>527.6</ele>
        <time>2022-07-29T12:05:25Z</time>
      </trkpt>
      <trkpt lat="46.39061" lon="5.67698">
        <ele>527.6</ele>
        <time>2022-07-29T12:05:26Z</time>
      </trkpt>
      <trkpt lat="46.39063" lon="5.67698">
        <ele>528</ele>
        <time>2022-07-29T12:05:27Z</time>
      </trkpt>
      <trkpt lat="46.39065" lon="5.677">
        <ele>528</ele>
        <time>2022-07-29T12:05:28Z</time>
      </trkpt>
      <trkpt lat="46.39067" lon="5.67701">
        <ele>528.4</ele>
        <time>2022-07-29T12:05:29Z</time>
      </trkpt>
      <trkpt lat="46.3907" lon="5.67703">
        <ele>528.6</ele>
        <time>2022-07-29T12:05:30Z</time>
      </trkpt>
      <trkpt lat="46.39072" lon="5.67704">
        <ele>528.8</ele>
        <time>2022-07-29T12:05:31Z</time>
      </trkpt>
      <trkpt lat="46.39074" lon="5.67706">
        <ele>529.2</ele>
        <time>2022-07-29T12:05:32Z</time>
      </trkpt>
      <trkpt lat="46.39077" lon="5.67707">
        <ele>529.4</ele>
        <time>2022-07-29T12:05:33Z</time>
      </trkpt>
      <trkpt lat="46.39079" lon="5.67709">
        <ele>529.6</ele>
        <time>2022-07-29T12:05:34Z</time>
      </trkpt>
      <trkpt lat="46.39081" lon="5.67711">
        <ele>529.8</ele>
        <time>2022-07-29T12:05:35Z</time>
      </trkpt>
      <trkpt lat="46.39084" lon="5.67713">
        <ele>529.8</ele>
        <time>2022-07-29T12:05:36Z</time>
      </trkpt>
      <trkpt lat="46.39086" lon="5.67714">
        <ele>530.2</ele>
        <time>2022-07-29T12:05:37Z</time>
      </trkpt>
      <trkpt lat="46.39088" lon="5.67716">
        <ele>530.4</ele>
        <time>2022-07-29T12:05:38Z</time>
      </trkpt>
      <trkpt lat="46.3909" lon="5.67718">
        <ele>530.8</ele>
        <time>2022-07-29T12:05:39Z</time>
      </trkpt>
      <trkpt lat="46.39092" lon="5.6772">
        <ele>530.8</ele>
        <time>2022-07-29T12:05:40Z</time>
      </trkpt>
      <trkpt lat="46.39095" lon="5.67721">
        <ele>531</ele>
        <time>2022-07-29T12:05:41Z</time>
      </trkpt>
      <trkpt lat="46.39097" lon="5.67723">
        <ele>531</ele>
        <time>2022-07-29T12:05:42Z</time>
      </trkpt>
      <trkpt lat="46.39098" lon="5.67725">
        <ele>531.4</ele>
        <time>2022-07-29T12:05:43Z</time>
      </trkpt>
      <trkpt lat="46.391" lon="5.67727">
        <ele>531.6</ele>
        <time>2022-07-29T12:05:44Z</time>
      </trkpt>
      <trkpt lat="46.39102" lon="5.67729">
        <ele>531.6</ele>
        <time>2022-07-29T12:05:45Z</time>
      </trkpt>
      <trkpt lat="46.39104" lon="5.6773">
        <ele>532</ele>
        <time>2022-07-29T12:05:46Z</time>
      </trkpt>
      <trkpt lat="46.39107" lon="5.67732">
        <ele>532</ele>
        <time>2022-07-29T12:05:47Z</time>
      </trkpt>
      <trkpt lat="46.39109" lon="5.67734">
        <ele>532.4</ele>
        <time>2022-07-29T12:05:48Z</time>
      </trkpt>
      <trkpt lat="46.39111" lon="5.67736">
        <ele>532.4</ele>
        <time>2022-07-29T12:05:49Z</time>
      </trkpt>
      <trkpt lat="46.39113" lon="5.67738">
        <ele>532.6</ele>
        <time>2022-07-29T12:05:50Z</time>
      </trkpt>
      <trkpt lat="46.39116" lon="5.6774">
        <ele>532.6</ele>
        <time>2022-07-29T12:05:51Z</time>
      </trkpt>
      <trkpt lat="46.39118" lon="5.67742">
        <ele>532.8</ele>
        <time>2022-07-29T12:05:52Z</time>
      </trkpt>
      <trkpt lat="46.39121" lon="5.67744">
        <ele>532.8</ele>
        <time>2022-07-29T12:05:53Z</time>
      </trkpt>
      <trkpt lat="46.39123" lon="5.67745">
        <ele>533.2</ele>
        <time>2022-07-29T12:05:54Z</time>
      </trkpt>
      <trkpt lat="46.39126" lon="5.67747">
        <ele>533.2</ele>
        <time>2022-07-29T12:05:55Z</time>
      </trkpt>
      <trkpt lat="46.39128" lon="5.67748">
        <ele>533.6</ele>
        <time>2022-07-29T12:05:56Z</time>
      </trkpt>
      <trkpt lat="46.39131" lon="5.6775">
        <ele>533.6</ele>
        <time>2022-07-29T12:05:57Z</time>
      </trkpt>
      <trkpt lat="46.39133" lon="5.67751">
        <ele>533.8</ele>
        <time>2022-07-29T12:05:58Z</time>
      </trkpt>
      <trkpt lat="46.39136" lon="5.67753">
        <ele>533.8</ele>
        <time>2022-07-29T12:05:59Z</time>
      </trkpt>
      <trkpt lat="46.39138" lon="5.67754">
        <ele>534</ele>
        <time>2022-07-29T12:06:00Z</time>
      </trkpt>
      <trkpt lat="46.39141" lon="5.67755">
        <ele>534</ele>
        <time>2022-07-29T12:06:01Z</time>
      </trkpt>
      <trkpt lat="46.39144" lon="5.67757">
        <ele>534.4</ele>
        <time>2022-07-29T12:06:02Z</time>
      </trkpt>
      <trkpt lat="46.39147" lon="5.67758">
        <ele>534.4</ele>
        <time>2022-07-29T12:06:03Z</time>
      </trkpt>
      <trkpt lat="46.39149" lon="5.6776">
        <ele>534.6</ele>
        <time>2022-07-29T12:06:04Z</time>
      </trkpt>
      <trkpt lat="46.39152" lon="5.67762">
        <ele>534.6</ele>
        <time>2022-07-29T12:06:05Z</time>
      </trkpt>
      <trkpt lat="46.39154" lon="5.67763">
        <ele>535</ele>
        <time>2022-07-29T12:06:06Z</time>
      </trkpt>
      <trkpt lat="46.39157" lon="5.67765">
        <ele>535</ele>
        <time>2022-07-29T12:06:07Z</time>
      </trkpt>
      <trkpt lat="46.3916" lon="5.67766">
        <ele>535.2</ele>
        <time>2022-07-29T12:06:08Z</time>
      </trkpt>
      <trkpt lat="46.39163" lon="5.67767">
        <ele>535.2</ele>
        <time>2022-07-29T12:06:09Z</time>
      </trkpt>
      <trkpt lat="46.39165" lon="5.67768">
        <ele>535.4</ele>
        <time>2022-07-29T12:06:10Z</time>
      </trkpt>
      <trkpt lat="46.39168" lon="5.6777">
        <ele>535.4</ele>
        <time>2022-07-29T12:06:11Z</time>
      </trkpt>
      <trkpt lat="46.39171" lon="5.6777">
        <ele>535.8</ele>
        <time>2022-07-29T12:06:12Z</time>
      </trkpt>
      <trkpt lat="46.39174" lon="5.67772">
        <ele>535.8</ele>
        <time>2022-07-29T12:06:13Z</time>
      </trkpt>
      <trkpt lat="46.39177" lon="5.67773">
        <ele>536</ele>
        <time>2022-07-29T12:06:14Z</time>
      </trkpt>
      <trkpt lat="46.39179" lon="5.67775">
        <ele>536</ele>
        <time>2022-07-29T12:06:15Z</time>
      </trkpt>
      <trkpt lat="46.39182" lon="5.67777">
        <ele>536.2</ele>
        <time>2022-07-29T12:06:16Z</time>
      </trkpt>
      <trkpt lat="46.39185" lon="5.67779">
        <ele>536.6</ele>
        <time>2022-07-29T12:06:17Z</time>
      </trkpt>
      <trkpt lat="46.39188" lon="5.6778">
        <ele>536.8</ele>
        <time>2022-07-29T12:06:18Z</time>
      </trkpt>
      <trkpt lat="46.39191" lon="5.67782">
        <ele>536.8</ele>
        <time>2022-07-29T12:06:19Z</time>
      </trkpt>
      <trkpt lat="46.39194" lon="5.67783">
        <ele>537</ele>
        <time>2022-07-29T12:06:20Z</time>
      </trkpt>
      <trkpt lat="46.39196" lon="5.67784">
        <ele>537.2</ele>
        <time>2022-07-29T12:06:21Z</time>
      </trkpt>
      <trkpt lat="46.39199" lon="5.67785">
        <ele>537.2</ele>
        <time>2022-07-29T12:06:22Z</time>
      </trkpt>
      <trkpt lat="46.39202" lon="5.67786">
        <ele>537.6</ele>
        <time>2022-07-29T12:06:23Z</time>
      </trkpt>
      <trkpt lat="46.39204" lon="5.67787">
        <ele>537.6</ele>
        <time>2022-07-29T12:06:24Z</time>
      </trkpt>
      <trkpt lat="46.39207" lon="5.67789">
        <ele>538</ele>
        <time>2022-07-29T12:06:25Z</time>
      </trkpt>
      <trkpt lat="46.39209" lon="5.6779">
        <ele>538.2</ele>
        <time>2022-07-29T12:06:26Z</time>
      </trkpt>
      <trkpt lat="46.39212" lon="5.67791">
        <ele>538.4</ele>
        <time>2022-07-29T12:06:27Z</time>
      </trkpt>
      <trkpt lat="46.39215" lon="5.67792">
        <ele>538.4</ele>
        <time>2022-07-29T12:06:28Z</time>
      </trkpt>
      <trkpt lat="46.39217" lon="5.67793">
        <ele>538.8</ele>
        <time>2022-07-29T12:06:29Z</time>
      </trkpt>
      <trkpt lat="46.3922" lon="5.67795">
        <ele>538.8</ele>
        <time>2022-07-29T12:06:30Z</time>
      </trkpt>
      <trkpt lat="46.39222" lon="5.67796">
        <ele>539.2</ele>
        <time>2022-07-29T12:06:31Z</time>
      </trkpt>
      <trkpt lat="46.39224" lon="5.67797">
        <ele>539.4</ele>
        <time>2022-07-29T12:06:32Z</time>
      </trkpt>
      <trkpt lat="46.39227" lon="5.67798">
        <ele>539.4</ele>
        <time>2022-07-29T12:06:33Z</time>
      </trkpt>
      <trkpt lat="46.39229" lon="5.67799">
        <ele>539.8</ele>
        <time>2022-07-29T12:06:34Z</time>
      </trkpt>
      <trkpt lat="46.39232" lon="5.678">
        <ele>539.8</ele>
        <time>2022-07-29T12:06:35Z</time>
      </trkpt>
      <trkpt lat="46.39234" lon="5.678">
        <ele>540</ele>
        <time>2022-07-29T12:06:36Z</time>
      </trkpt>
      <trkpt lat="46.39237" lon="5.67802">
        <ele>540</ele>
        <time>2022-07-29T12:06:37Z</time>
      </trkpt>
      <trkpt lat="46.39239" lon="5.67803">
        <ele>540.4</ele>
        <time>2022-07-29T12:06:38Z</time>
      </trkpt>
      <trkpt lat="46.39241" lon="5.67804">
        <ele>540.4</ele>
        <time>2022-07-29T12:06:39Z</time>
      </trkpt>
      <trkpt lat="46.39244" lon="5.67805">
        <ele>540.8</ele>
        <time>2022-07-29T12:06:40Z</time>
      </trkpt>
      <trkpt lat="46.39246" lon="5.67806">
        <ele>540.8</ele>
        <time>2022-07-29T12:06:41Z</time>
      </trkpt>
      <trkpt lat="46.39249" lon="5.67807">
        <ele>541.2</ele>
        <time>2022-07-29T12:06:42Z</time>
      </trkpt>
      <trkpt lat="46.39251" lon="5.67807">
        <ele>541.4</ele>
        <time>2022-07-29T12:06:43Z</time>
      </trkpt>
      <trkpt lat="46.39253" lon="5.67808">
        <ele>541.4</ele>
        <time>2022-07-29T12:06:44Z</time>
      </trkpt>
      <trkpt lat="46.39258" lon="5.6781">
        <ele>541.8</ele>
        <time>2022-07-29T12:06:45Z</time>
      </trkpt>
      <trkpt lat="46.39261" lon="5.67811">
        <ele>541.8</ele>
        <time>2022-07-29T12:06:46Z</time>
      </trkpt>
      <trkpt lat="46.39263" lon="5.67812">
        <ele>542.2</ele>
        <time>2022-07-29T12:06:47Z</time>
      </trkpt>
      <trkpt lat="46.39266" lon="5.67812">
        <ele>542.4</ele>
        <time>2022-07-29T12:06:48Z</time>
      </trkpt>
      <trkpt lat="46.39269" lon="5.67813">
        <ele>542.4</ele>
        <time>2022-07-29T12:06:49Z</time>
      </trkpt>
      <trkpt lat="46.39271" lon="5.67813">
        <ele>542.6</ele>
        <time>2022-07-29T12:06:50Z</time>
      </trkpt>
      <trkpt lat="46.39274" lon="5.67813">
        <ele>542.6</ele>
        <time>2022-07-29T12:06:51Z</time>
      </trkpt>
      <trkpt lat="46.39277" lon="5.67813">
        <ele>543</ele>
        <time>2022-07-29T12:06:52Z</time>
      </trkpt>
      <trkpt lat="46.3928" lon="5.67813">
        <ele>543</ele>
        <time>2022-07-29T12:06:53Z</time>
      </trkpt>
      <trkpt lat="46.39283" lon="5.67813">
        <ele>543.2</ele>
        <time>2022-07-29T12:06:54Z</time>
      </trkpt>
      <trkpt lat="46.39286" lon="5.67813">
        <ele>543.2</ele>
        <time>2022-07-29T12:06:55Z</time>
      </trkpt>
      <trkpt lat="46.39288" lon="5.67813">
        <ele>543.6</ele>
        <time>2022-07-29T12:06:56Z</time>
      </trkpt>
      <trkpt lat="46.39291" lon="5.67813">
        <ele>543.6</ele>
        <time>2022-07-29T12:06:57Z</time>
      </trkpt>
      <trkpt lat="46.39294" lon="5.67813">
        <ele>544</ele>
        <time>2022-07-29T12:06:58Z</time>
      </trkpt>
      <trkpt lat="46.39297" lon="5.67813">
        <ele>544</ele>
        <time>2022-07-29T12:06:59Z</time>
      </trkpt>
      <trkpt lat="46.393" lon="5.67813">
        <ele>544.2</ele>
        <time>2022-07-29T12:07:00Z</time>
      </trkpt>
      <trkpt lat="46.39303" lon="5.67813">
        <ele>544.2</ele>
        <time>2022-07-29T12:07:01Z</time>
      </trkpt>
      <trkpt lat="46.39305" lon="5.67813">
        <ele>544.8</ele>
        <time>2022-07-29T12:07:02Z</time>
      </trkpt>
      <trkpt lat="46.39308" lon="5.67812">
        <ele>545</ele>
        <time>2022-07-29T12:07:03Z</time>
      </trkpt>
      <trkpt lat="46.39311" lon="5.67812">
        <ele>545.2</ele>
        <time>2022-07-29T12:07:04Z</time>
      </trkpt>
      <trkpt lat="46.39314" lon="5.67812">
        <ele>545.4</ele>
        <time>2022-07-29T12:07:05Z</time>
      </trkpt>
      <trkpt lat="46.39316" lon="5.67812">
        <ele>545.6</ele>
        <time>2022-07-29T12:07:06Z</time>
      </trkpt>
      <trkpt lat="46.39319" lon="5.67813">
        <ele>545.8</ele>
        <time>2022-07-29T12:07:07Z</time>
      </trkpt>
      <trkpt lat="46.39322" lon="5.67814">
        <ele>546</ele>
        <time>2022-07-29T12:07:08Z</time>
      </trkpt>
      <trkpt lat="46.39324" lon="5.67814">
        <ele>546.4</ele>
        <time>2022-07-29T12:07:09Z</time>
      </trkpt>
      <trkpt lat="46.39327" lon="5.67815">
        <ele>546.6</ele>
        <time>2022-07-29T12:07:10Z</time>
      </trkpt>
      <trkpt lat="46.39329" lon="5.67816">
        <ele>546.8</ele>
        <time>2022-07-29T12:07:11Z</time>
      </trkpt>
      <trkpt lat="46.39331" lon="5.67818">
        <ele>547</ele>
        <time>2022-07-29T12:07:12Z</time>
      </trkpt>
      <trkpt lat="46.39334" lon="5.67819">
        <ele>547.2</ele>
        <time>2022-07-29T12:07:13Z</time>
      </trkpt>
      <trkpt lat="46.39336" lon="5.6782">
        <ele>547.4</ele>
        <time>2022-07-29T12:07:14Z</time>
      </trkpt>
      <trkpt lat="46.39338" lon="5.67821">
        <ele>547.8</ele>
        <time>2022-07-29T12:07:15Z</time>
      </trkpt>
      <trkpt lat="46.3934" lon="5.67822">
        <ele>548</ele>
        <time>2022-07-29T12:07:16Z</time>
      </trkpt>
      <trkpt lat="46.39342" lon="5.67824">
        <ele>548.2</ele>
        <time>2022-07-29T12:07:17Z</time>
      </trkpt>
      <trkpt lat="46.39344" lon="5.67826">
        <ele>548.4</ele>
        <time>2022-07-29T12:07:18Z</time>
      </trkpt>
      <trkpt lat="46.39347" lon="5.67828">
        <ele>548.4</ele>
        <time>2022-07-29T12:07:19Z</time>
      </trkpt>
      <trkpt lat="46.39349" lon="5.67831">
        <ele>548.8</ele>
        <time>2022-07-29T12:07:20Z</time>
      </trkpt>
      <trkpt lat="46.39351" lon="5.67834">
        <ele>548.8</ele>
        <time>2022-07-29T12:07:21Z</time>
      </trkpt>
      <trkpt lat="46.39353" lon="5.67837">
        <ele>549.2</ele>
        <time>2022-07-29T12:07:22Z</time>
      </trkpt>
      <trkpt lat="46.39355" lon="5.6784">
        <ele>549.2</ele>
        <time>2022-07-29T12:07:23Z</time>
      </trkpt>
      <trkpt lat="46.39356" lon="5.67843">
        <ele>549.6</ele>
        <time>2022-07-29T12:07:24Z</time>
      </trkpt>
      <trkpt lat="46.39358" lon="5.67847">
        <ele>549.6</ele>
        <time>2022-07-29T12:07:25Z</time>
      </trkpt>
      <trkpt lat="46.3936" lon="5.6785">
        <ele>550</ele>
        <time>2022-07-29T12:07:26Z</time>
      </trkpt>
      <trkpt lat="46.39361" lon="5.67854">
        <ele>550</ele>
        <time>2022-07-29T12:07:27Z</time>
      </trkpt>
      <trkpt lat="46.39363" lon="5.67857">
        <ele>550.2</ele>
        <time>2022-07-29T12:07:28Z</time>
      </trkpt>
      <trkpt lat="46.39365" lon="5.67861">
        <ele>550.2</ele>
        <time>2022-07-29T12:07:29Z</time>
      </trkpt>
      <trkpt lat="46.39366" lon="5.67864">
        <ele>550.4</ele>
        <time>2022-07-29T12:07:30Z</time>
      </trkpt>
      <trkpt lat="46.39368" lon="5.67868">
        <ele>550.6</ele>
        <time>2022-07-29T12:07:31Z</time>
      </trkpt>
      <trkpt lat="46.39369" lon="5.67871">
        <ele>550.6</ele>
        <time>2022-07-29T12:07:32Z</time>
      </trkpt>
      <trkpt lat="46.39371" lon="5.67874">
        <ele>551</ele>
        <time>2022-07-29T12:07:33Z</time>
      </trkpt>
      <trkpt lat="46.39372" lon="5.67878">
        <ele>551.2</ele>
        <time>2022-07-29T12:07:34Z</time>
      </trkpt>
      <trkpt lat="46.39374" lon="5.67881">
        <ele>551.4</ele>
        <time>2022-07-29T12:07:35Z</time>
      </trkpt>
      <trkpt lat="46.39375" lon="5.67884">
        <ele>551.4</ele>
        <time>2022-07-29T12:07:36Z</time>
      </trkpt>
      <trkpt lat="46.39377" lon="5.67887">
        <ele>551.8</ele>
        <time>2022-07-29T12:07:37Z</time>
      </trkpt>
      <trkpt lat="46.39378" lon="5.6789">
        <ele>552</ele>
        <time>2022-07-29T12:07:38Z</time>
      </trkpt>
      <trkpt lat="46.39379" lon="5.67893">
        <ele>552.2</ele>
        <time>2022-07-29T12:07:39Z</time>
      </trkpt>
      <trkpt lat="46.3938" lon="5.67896">
        <ele>552.2</ele>
        <time>2022-07-29T12:07:40Z</time>
      </trkpt>
      <trkpt lat="46.39382" lon="5.679">
        <ele>552.6</ele>
        <time>2022-07-29T12:07:41Z</time>
      </trkpt>
      <trkpt lat="46.39383" lon="5.67903">
        <ele>552.8</ele>
        <time>2022-07-29T12:07:42Z</time>
      </trkpt>
      <trkpt lat="46.39384" lon="5.67906">
        <ele>553</ele>
        <time>2022-07-29T12:07:43Z</time>
      </trkpt>
      <trkpt lat="46.39385" lon="5.6791">
        <ele>553</ele>
        <time>2022-07-29T12:07:44Z</time>
      </trkpt>
      <trkpt lat="46.39386" lon="5.67913">
        <ele>553.4</ele>
        <time>2022-07-29T12:07:45Z</time>
      </trkpt>
      <trkpt lat="46.39388" lon="5.67916">
        <ele>553.4</ele>
        <time>2022-07-29T12:07:46Z</time>
      </trkpt>
      <trkpt lat="46.39389" lon="5.6792">
        <ele>553.8</ele>
        <time>2022-07-29T12:07:47Z</time>
      </trkpt>
      <trkpt lat="46.39391" lon="5.67923">
        <ele>554</ele>
        <time>2022-07-29T12:07:48Z</time>
      </trkpt>
      <trkpt lat="46.39392" lon="5.67926">
        <ele>554.2</ele>
        <time>2022-07-29T12:07:49Z</time>
      </trkpt>
      <trkpt lat="46.39393" lon="5.6793">
        <ele>554.6</ele>
        <time>2022-07-29T12:07:50Z</time>
      </trkpt>
      <trkpt lat="46.39395" lon="5.67933">
        <ele>554.8</ele>
        <time>2022-07-29T12:07:51Z</time>
      </trkpt>
      <trkpt lat="46.39397" lon="5.67937">
        <ele>555</ele>
        <time>2022-07-29T12:07:52Z</time>
      </trkpt>
      <trkpt lat="46.39398" lon="5.6794">
        <ele>555.4</ele>
        <time>2022-07-29T12:07:53Z</time>
      </trkpt>
      <trkpt lat="46.39399" lon="5.67943">
        <ele>555.6</ele>
        <time>2022-07-29T12:07:54Z</time>
      </trkpt>
      <trkpt lat="46.39401" lon="5.67946">
        <ele>555.8</ele>
        <time>2022-07-29T12:07:55Z</time>
      </trkpt>
      <trkpt lat="46.39402" lon="5.67948">
        <ele>556</ele>
        <time>2022-07-29T12:07:56Z</time>
      </trkpt>
      <trkpt lat="46.39404" lon="5.67951">
        <ele>556</ele>
        <time>2022-07-29T12:07:57Z</time>
      </trkpt>
      <trkpt lat="46.39406" lon="5.67954">
        <ele>556.4</ele>
        <time>2022-07-29T12:07:58Z</time>
      </trkpt>
      <trkpt lat="46.39407" lon="5.67956">
        <ele>556.6</ele>
        <time>2022-07-29T12:07:59Z</time>
      </trkpt>
      <trkpt lat="46.39409" lon="5.67959">
        <ele>557</ele>
        <time>2022-07-29T12:08:00Z</time>
      </trkpt>
      <trkpt lat="46.3941" lon="5.67961">
        <ele>557.2</ele>
        <time>2022-07-29T12:08:01Z</time>
      </trkpt>
      <trkpt lat="46.39412" lon="5.67964">
        <ele>557.4</ele>
        <time>2022-07-29T12:08:02Z</time>
      </trkpt>
      <trkpt lat="46.39413" lon="5.67966">
        <ele>557.4</ele>
        <time>2022-07-29T12:08:03Z</time>
      </trkpt>
      <trkpt lat="46.39415" lon="5.67968">
        <ele>557.8</ele>
        <time>2022-07-29T12:08:04Z</time>
      </trkpt>
      <trkpt lat="46.39417" lon="5.6797">
        <ele>557.8</ele>
        <time>2022-07-29T12:08:05Z</time>
      </trkpt>
      <trkpt lat="46.39419" lon="5.67973">
        <ele>558.2</ele>
        <time>2022-07-29T12:08:06Z</time>
      </trkpt>
      <trkpt lat="46.3942" lon="5.67975">
        <ele>558.2</ele>
        <time>2022-07-29T12:08:07Z</time>
      </trkpt>
      <trkpt lat="46.39422" lon="5.67977">
        <ele>558.4</ele>
        <time>2022-07-29T12:08:08Z</time>
      </trkpt>
      <trkpt lat="46.39424" lon="5.6798">
        <ele>558.4</ele>
        <time>2022-07-29T12:08:09Z</time>
      </trkpt>
      <trkpt lat="46.39427" lon="5.67982">
        <ele>558.4</ele>
        <time>2022-07-29T12:08:10Z</time>
      </trkpt>
      <trkpt lat="46.39429" lon="5.67985">
        <ele>558.6</ele>
        <time>2022-07-29T12:08:11Z</time>
      </trkpt>
      <trkpt lat="46.39432" lon="5.67987">
        <ele>558.6</ele>
        <time>2022-07-29T12:08:12Z</time>
      </trkpt>
      <trkpt lat="46.39434" lon="5.6799">
        <ele>558.8</ele>
        <time>2022-07-29T12:08:13Z</time>
      </trkpt>
      <trkpt lat="46.39437" lon="5.67993">
        <ele>558.8</ele>
        <time>2022-07-29T12:08:14Z</time>
      </trkpt>
      <trkpt lat="46.39439" lon="5.67995">
        <ele>558.8</ele>
        <time>2022-07-29T12:08:15Z</time>
      </trkpt>
      <trkpt lat="46.39442" lon="5.67998">
        <ele>558.8</ele>
        <time>2022-07-29T12:08:16Z</time>
      </trkpt>
      <trkpt lat="46.39444" lon="5.68">
        <ele>559.2</ele>
        <time>2022-07-29T12:08:17Z</time>
      </trkpt>
      <trkpt lat="46.39446" lon="5.68003">
        <ele>559.2</ele>
        <time>2022-07-29T12:08:18Z</time>
      </trkpt>
      <trkpt lat="46.39448" lon="5.68005">
        <ele>559.2</ele>
        <time>2022-07-29T12:08:19Z</time>
      </trkpt>
      <trkpt lat="46.3945" lon="5.68007">
        <ele>559.2</ele>
        <time>2022-07-29T12:08:20Z</time>
      </trkpt>
      <trkpt lat="46.39452" lon="5.68009">
        <ele>559.2</ele>
        <time>2022-07-29T12:08:21Z</time>
      </trkpt>
      <trkpt lat="46.39454" lon="5.68012">
        <ele>559.4</ele>
        <time>2022-07-29T12:08:22Z</time>
      </trkpt>
      <trkpt lat="46.39456" lon="5.68014">
        <ele>559.4</ele>
        <time>2022-07-29T12:08:23Z</time>
      </trkpt>
      <trkpt lat="46.39458" lon="5.68017">
        <ele>559.4</ele>
        <time>2022-07-29T12:08:24Z</time>
      </trkpt>
      <trkpt lat="46.3946" lon="5.6802">
        <ele>559.4</ele>
        <time>2022-07-29T12:08:25Z</time>
      </trkpt>
      <trkpt lat="46.39462" lon="5.68022">
        <ele>559.6</ele>
        <time>2022-07-29T12:08:26Z</time>
      </trkpt>
      <trkpt lat="46.39464" lon="5.68025">
        <ele>559.6</ele>
        <time>2022-07-29T12:08:27Z</time>
      </trkpt>
      <trkpt lat="46.39466" lon="5.68027">
        <ele>559.6</ele>
        <time>2022-07-29T12:08:28Z</time>
      </trkpt>
      <trkpt lat="46.39468" lon="5.6803">
        <ele>559.6</ele>
        <time>2022-07-29T12:08:29Z</time>
      </trkpt>
      <trkpt lat="46.3947" lon="5.68032">
        <ele>559.8</ele>
        <time>2022-07-29T12:08:30Z</time>
      </trkpt>
      <trkpt lat="46.39472" lon="5.68035">
        <ele>559.8</ele>
        <time>2022-07-29T12:08:31Z</time>
      </trkpt>
      <trkpt lat="46.39474" lon="5.68038">
        <ele>559.8</ele>
        <time>2022-07-29T12:08:32Z</time>
      </trkpt>
      <trkpt lat="46.39476" lon="5.6804">
        <ele>560.2</ele>
        <time>2022-07-29T12:08:33Z</time>
      </trkpt>
      <trkpt lat="46.39478" lon="5.68043">
        <ele>560.2</ele>
        <time>2022-07-29T12:08:34Z</time>
      </trkpt>
      <trkpt lat="46.3948" lon="5.68045">
        <ele>560.4</ele>
        <time>2022-07-29T12:08:35Z</time>
      </trkpt>
      <trkpt lat="46.39482" lon="5.68048">
        <ele>560.4</ele>
        <time>2022-07-29T12:08:36Z</time>
      </trkpt>
      <trkpt lat="46.39484" lon="5.6805">
        <ele>560.4</ele>
        <time>2022-07-29T12:08:37Z</time>
      </trkpt>
      <trkpt lat="46.39486" lon="5.68053">
        <ele>560.6</ele>
        <time>2022-07-29T12:08:38Z</time>
      </trkpt>
      <trkpt lat="46.39488" lon="5.68056">
        <ele>560.6</ele>
        <time>2022-07-29T12:08:39Z</time>
      </trkpt>
      <trkpt lat="46.3949" lon="5.6806">
        <ele>560.6</ele>
        <time>2022-07-29T12:08:40Z</time>
      </trkpt>
      <trkpt lat="46.39492" lon="5.68063">
        <ele>560.6</ele>
        <time>2022-07-29T12:08:41Z</time>
      </trkpt>
      <trkpt lat="46.39494" lon="5.68066">
        <ele>560.6</ele>
        <time>2022-07-29T12:08:42Z</time>
      </trkpt>
      <trkpt lat="46.39496" lon="5.6807">
        <ele>560.8</ele>
        <time>2022-07-29T12:08:43Z</time>
      </trkpt>
      <trkpt lat="46.39499" lon="5.68073">
        <ele>560.8</ele>
        <time>2022-07-29T12:08:44Z</time>
      </trkpt>
      <trkpt lat="46.39501" lon="5.68077">
        <ele>560.8</ele>
        <time>2022-07-29T12:08:45Z</time>
      </trkpt>
      <trkpt lat="46.39503" lon="5.6808">
        <ele>560.8</ele>
        <time>2022-07-29T12:08:46Z</time>
      </trkpt>
      <trkpt lat="46.39506" lon="5.68082">
        <ele>560.8</ele>
        <time>2022-07-29T12:08:47Z</time>
      </trkpt>
      <trkpt lat="46.39508" lon="5.68085">
        <ele>561</ele>
        <time>2022-07-29T12:08:48Z</time>
      </trkpt>
      <trkpt lat="46.3951" lon="5.68087">
        <ele>561</ele>
        <time>2022-07-29T12:08:49Z</time>
      </trkpt>
      <trkpt lat="46.39513" lon="5.6809">
        <ele>561</ele>
        <time>2022-07-29T12:08:50Z</time>
      </trkpt>
      <trkpt lat="46.39515" lon="5.68093">
        <ele>561</ele>
        <time>2022-07-29T12:08:51Z</time>
      </trkpt>
      <trkpt lat="46.39518" lon="5.68096">
        <ele>561.2</ele>
        <time>2022-07-29T12:08:52Z</time>
      </trkpt>
      <trkpt lat="46.39521" lon="5.68099">
        <ele>561.2</ele>
        <time>2022-07-29T12:08:53Z</time>
      </trkpt>
      <trkpt lat="46.39524" lon="5.68101">
        <ele>561.2</ele>
        <time>2022-07-29T12:08:54Z</time>
      </trkpt>
      <trkpt lat="46.39527" lon="5.68104">
        <ele>561.2</ele>
        <time>2022-07-29T12:08:55Z</time>
      </trkpt>
      <trkpt lat="46.39529" lon="5.68106">
        <ele>561.2</ele>
        <time>2022-07-29T12:08:56Z</time>
      </trkpt>
      <trkpt lat="46.39532" lon="5.68109">
        <ele>561.2</ele>
        <time>2022-07-29T12:08:57Z</time>
      </trkpt>
      <trkpt lat="46.39534" lon="5.68111">
        <ele>561.2</ele>
        <time>2022-07-29T12:08:58Z</time>
      </trkpt>
      <trkpt lat="46.39537" lon="5.68114">
        <ele>561.6</ele>
        <time>2022-07-29T12:08:59Z</time>
      </trkpt>
      <trkpt lat="46.3954" lon="5.68117">
        <ele>561.6</ele>
        <time>2022-07-29T12:09:00Z</time>
      </trkpt>
      <trkpt lat="46.39543" lon="5.68119">
        <ele>561.6</ele>
        <time>2022-07-29T12:09:01Z</time>
      </trkpt>
      <trkpt lat="46.39545" lon="5.68121">
        <ele>561.8</ele>
        <time>2022-07-29T12:09:02Z</time>
      </trkpt>
      <trkpt lat="46.39548" lon="5.68123">
        <ele>561.8</ele>
        <time>2022-07-29T12:09:03Z</time>
      </trkpt>
      <trkpt lat="46.39551" lon="5.68125">
        <ele>562</ele>
        <time>2022-07-29T12:09:04Z</time>
      </trkpt>
      <trkpt lat="46.39554" lon="5.68128">
        <ele>562</ele>
        <time>2022-07-29T12:09:05Z</time>
      </trkpt>
      <trkpt lat="46.39557" lon="5.6813">
        <ele>562.4</ele>
        <time>2022-07-29T12:09:06Z</time>
      </trkpt>
      <trkpt lat="46.39559" lon="5.68132">
        <ele>562.4</ele>
        <time>2022-07-29T12:09:07Z</time>
      </trkpt>
      <trkpt lat="46.39561" lon="5.68135">
        <ele>562.6</ele>
        <time>2022-07-29T12:09:08Z</time>
      </trkpt>
      <trkpt lat="46.39564" lon="5.68137">
        <ele>562.6</ele>
        <time>2022-07-29T12:09:09Z</time>
      </trkpt>
      <trkpt lat="46.39567" lon="5.68139">
        <ele>563</ele>
        <time>2022-07-29T12:09:10Z</time>
      </trkpt>
      <trkpt lat="46.39569" lon="5.68142">
        <ele>563</ele>
        <time>2022-07-29T12:09:11Z</time>
      </trkpt>
      <trkpt lat="46.39571" lon="5.68145">
        <ele>563.2</ele>
        <time>2022-07-29T12:09:12Z</time>
      </trkpt>
      <trkpt lat="46.39574" lon="5.68148">
        <ele>563.4</ele>
        <time>2022-07-29T12:09:13Z</time>
      </trkpt>
      <trkpt lat="46.39577" lon="5.6815">
        <ele>563.4</ele>
        <time>2022-07-29T12:09:14Z</time>
      </trkpt>
      <trkpt lat="46.39579" lon="5.68152">
        <ele>563.8</ele>
        <time>2022-07-29T12:09:15Z</time>
      </trkpt>
      <trkpt lat="46.39582" lon="5.68154">
        <ele>564</ele>
        <time>2022-07-29T12:09:16Z</time>
      </trkpt>
      <trkpt lat="46.39584" lon="5.68156">
        <ele>564.2</ele>
        <time>2022-07-29T12:09:17Z</time>
      </trkpt>
      <trkpt lat="46.39586" lon="5.68159">
        <ele>564.2</ele>
        <time>2022-07-29T12:09:18Z</time>
      </trkpt>
      <trkpt lat="46.39589" lon="5.68161">
        <ele>564.6</ele>
        <time>2022-07-29T12:09:19Z</time>
      </trkpt>
      <trkpt lat="46.39591" lon="5.68164">
        <ele>564.6</ele>
        <time>2022-07-29T12:09:20Z</time>
      </trkpt>
      <trkpt lat="46.39594" lon="5.68166">
        <ele>565</ele>
        <time>2022-07-29T12:09:21Z</time>
      </trkpt>
      <trkpt lat="46.39596" lon="5.68169">
        <ele>565.2</ele>
        <time>2022-07-29T12:09:22Z</time>
      </trkpt>
      <trkpt lat="46.39598" lon="5.68172">
        <ele>565.4</ele>
        <time>2022-07-29T12:09:23Z</time>
      </trkpt>
      <trkpt lat="46.396" lon="5.68175">
        <ele>565.4</ele>
        <time>2022-07-29T12:09:24Z</time>
      </trkpt>
      <trkpt lat="46.39602" lon="5.68178">
        <ele>565.8</ele>
        <time>2022-07-29T12:09:25Z</time>
      </trkpt>
      <trkpt lat="46.39604" lon="5.68181">
        <ele>565.8</ele>
        <time>2022-07-29T12:09:26Z</time>
      </trkpt>
      <trkpt lat="46.39606" lon="5.68184">
        <ele>566.2</ele>
        <time>2022-07-29T12:09:27Z</time>
      </trkpt>
      <trkpt lat="46.39608" lon="5.68187">
        <ele>566.2</ele>
        <time>2022-07-29T12:09:28Z</time>
      </trkpt>
      <trkpt lat="46.39609" lon="5.6819">
        <ele>566.6</ele>
        <time>2022-07-29T12:09:29Z</time>
      </trkpt>
      <trkpt lat="46.39611" lon="5.68193">
        <ele>566.8</ele>
        <time>2022-07-29T12:09:30Z</time>
      </trkpt>
      <trkpt lat="46.39613" lon="5.68196">
        <ele>567</ele>
        <time>2022-07-29T12:09:31Z</time>
      </trkpt>
      <trkpt lat="46.39615" lon="5.68198">
        <ele>567.2</ele>
        <time>2022-07-29T12:09:32Z</time>
      </trkpt>
      <trkpt lat="46.39617" lon="5.68201">
        <ele>567.2</ele>
        <time>2022-07-29T12:09:33Z</time>
      </trkpt>
      <trkpt lat="46.39618" lon="5.68204">
        <ele>567.6</ele>
        <time>2022-07-29T12:09:34Z</time>
      </trkpt>
      <trkpt lat="46.39619" lon="5.68207">
        <ele>568</ele>
        <time>2022-07-29T12:09:35Z</time>
      </trkpt>
      <trkpt lat="46.3962" lon="5.6821">
        <ele>568.2</ele>
        <time>2022-07-29T12:09:36Z</time>
      </trkpt>
      <trkpt lat="46.39621" lon="5.68213">
        <ele>568.4</ele>
        <time>2022-07-29T12:09:37Z</time>
      </trkpt>
      <trkpt lat="46.39622" lon="5.68216">
        <ele>568.8</ele>
        <time>2022-07-29T12:09:38Z</time>
      </trkpt>
      <trkpt lat="46.39623" lon="5.68219">
        <ele>568.8</ele>
        <time>2022-07-29T12:09:39Z</time>
      </trkpt>
      <trkpt lat="46.39624" lon="5.68222">
        <ele>569.2</ele>
        <time>2022-07-29T12:09:40Z</time>
      </trkpt>
      <trkpt lat="46.39626" lon="5.68225">
        <ele>569.4</ele>
        <time>2022-07-29T12:09:41Z</time>
      </trkpt>
      <trkpt lat="46.39627" lon="5.68228">
        <ele>569.6</ele>
        <time>2022-07-29T12:09:42Z</time>
      </trkpt>
      <trkpt lat="46.39628" lon="5.68232">
        <ele>569.6</ele>
        <time>2022-07-29T12:09:43Z</time>
      </trkpt>
      <trkpt lat="46.3963" lon="5.68235">
        <ele>570</ele>
        <time>2022-07-29T12:09:44Z</time>
      </trkpt>
      <trkpt lat="46.39631" lon="5.68238">
        <ele>570.4</ele>
        <time>2022-07-29T12:09:45Z</time>
      </trkpt>
      <trkpt lat="46.39633" lon="5.68241">
        <ele>570.6</ele>
        <time>2022-07-29T12:09:46Z</time>
      </trkpt>
      <trkpt lat="46.39634" lon="5.68244">
        <ele>570.8</ele>
        <time>2022-07-29T12:09:47Z</time>
      </trkpt>
      <trkpt lat="46.39635" lon="5.68247">
        <ele>571</ele>
        <time>2022-07-29T12:09:48Z</time>
      </trkpt>
      <trkpt lat="46.39636" lon="5.6825">
        <ele>571</ele>
        <time>2022-07-29T12:09:49Z</time>
      </trkpt>
      <trkpt lat="46.39638" lon="5.68253">
        <ele>571.4</ele>
        <time>2022-07-29T12:09:50Z</time>
      </trkpt>
      <trkpt lat="46.39639" lon="5.68255">
        <ele>571.4</ele>
        <time>2022-07-29T12:09:51Z</time>
      </trkpt>
      <trkpt lat="46.39641" lon="5.68257">
        <ele>571.6</ele>
        <time>2022-07-29T12:09:52Z</time>
      </trkpt>
      <trkpt lat="46.39643" lon="5.6826">
        <ele>571.6</ele>
        <time>2022-07-29T12:09:53Z</time>
      </trkpt>
      <trkpt lat="46.39644" lon="5.68262">
        <ele>572</ele>
        <time>2022-07-29T12:09:54Z</time>
      </trkpt>
      <trkpt lat="46.39646" lon="5.68264">
        <ele>572</ele>
        <time>2022-07-29T12:09:55Z</time>
      </trkpt>
      <trkpt lat="46.39647" lon="5.68266">
        <ele>572.4</ele>
        <time>2022-07-29T12:09:56Z</time>
      </trkpt>
      <trkpt lat="46.39649" lon="5.68268">
        <ele>572.4</ele>
        <time>2022-07-29T12:09:57Z</time>
      </trkpt>
      <trkpt lat="46.39651" lon="5.68271">
        <ele>572.6</ele>
        <time>2022-07-29T12:09:58Z</time>
      </trkpt>
      <trkpt lat="46.39653" lon="5.68273">
        <ele>573</ele>
        <time>2022-07-29T12:09:59Z</time>
      </trkpt>
      <trkpt lat="46.39654" lon="5.68275">
        <ele>573</ele>
        <time>2022-07-29T12:10:00Z</time>
      </trkpt>
      <trkpt lat="46.39656" lon="5.68278">
        <ele>573.4</ele>
        <time>2022-07-29T12:10:01Z</time>
      </trkpt>
      <trkpt lat="46.39658" lon="5.68279">
        <ele>573.4</ele>
        <time>2022-07-29T12:10:02Z</time>
      </trkpt>
      <trkpt lat="46.3966" lon="5.68281">
        <ele>573.6</ele>
        <time>2022-07-29T12:10:03Z</time>
      </trkpt>
      <trkpt lat="46.39662" lon="5.68282">
        <ele>573.6</ele>
        <time>2022-07-29T12:10:04Z</time>
      </trkpt>
      <trkpt lat="46.39665" lon="5.68283">
        <ele>574</ele>
        <time>2022-07-29T12:10:05Z</time>
      </trkpt>
      <trkpt lat="46.39667" lon="5.68284">
        <ele>574</ele>
        <time>2022-07-29T12:10:06Z</time>
      </trkpt>
      <trkpt lat="46.39669" lon="5.68285">
        <ele>574.4</ele>
        <time>2022-07-29T12:10:07Z</time>
      </trkpt>
      <trkpt lat="46.39671" lon="5.68286">
        <ele>574.4</ele>
        <time>2022-07-29T12:10:08Z</time>
      </trkpt>
      <trkpt lat="46.39674" lon="5.68287">
        <ele>574.6</ele>
        <time>2022-07-29T12:10:09Z</time>
      </trkpt>
      <trkpt lat="46.39676" lon="5.68288">
        <ele>574.6</ele>
        <time>2022-07-29T12:10:10Z</time>
      </trkpt>
      <trkpt lat="46.39678" lon="5.6829">
        <ele>574.8</ele>
        <time>2022-07-29T12:10:11Z</time>
      </trkpt>
      <trkpt lat="46.39681" lon="5.68291">
        <ele>574.8</ele>
        <time>2022-07-29T12:10:12Z</time>
      </trkpt>
      <trkpt lat="46.39683" lon="5.68292">
        <ele>575.2</ele>
        <time>2022-07-29T12:10:13Z</time>
      </trkpt>
      <trkpt lat="46.39686" lon="5.68292">
        <ele>575.2</ele>
        <time>2022-07-29T12:10:14Z</time>
      </trkpt>
      <trkpt lat="46.39688" lon="5.68293">
        <ele>575.4</ele>
        <time>2022-07-29T12:10:15Z</time>
      </trkpt>
      <trkpt lat="46.39691" lon="5.68293">
        <ele>575.4</ele>
        <time>2022-07-29T12:10:16Z</time>
      </trkpt>
      <trkpt lat="46.39693" lon="5.68294">
        <ele>575.8</ele>
        <time>2022-07-29T12:10:17Z</time>
      </trkpt>
      <trkpt lat="46.39695" lon="5.68294">
        <ele>575.8</ele>
        <time>2022-07-29T12:10:18Z</time>
      </trkpt>
      <trkpt lat="46.39697" lon="5.68295">
        <ele>576.2</ele>
        <time>2022-07-29T12:10:19Z</time>
      </trkpt>
      <trkpt lat="46.397" lon="5.68295">
        <ele>576.2</ele>
        <time>2022-07-29T12:10:20Z</time>
      </trkpt>
      <trkpt lat="46.39702" lon="5.68296">
        <ele>576.6</ele>
        <time>2022-07-29T12:10:21Z</time>
      </trkpt>
      <trkpt lat="46.39704" lon="5.68297">
        <ele>576.6</ele>
        <time>2022-07-29T12:10:22Z</time>
      </trkpt>
      <trkpt lat="46.39707" lon="5.68298">
        <ele>576.8</ele>
        <time>2022-07-29T12:10:23Z</time>
      </trkpt>
      <trkpt lat="46.39709" lon="5.68298">
        <ele>576.8</ele>
        <time>2022-07-29T12:10:24Z</time>
      </trkpt>
      <trkpt lat="46.39711" lon="5.68299">
        <ele>577</ele>
        <time>2022-07-29T12:10:25Z</time>
      </trkpt>
      <trkpt lat="46.39714" lon="5.68299">
        <ele>577</ele>
        <time>2022-07-29T12:10:26Z</time>
      </trkpt>
      <trkpt lat="46.39716" lon="5.683">
        <ele>577.4</ele>
        <time>2022-07-29T12:10:27Z</time>
      </trkpt>
      <trkpt lat="46.39718" lon="5.68301">
        <ele>577.4</ele>
        <time>2022-07-29T12:10:28Z</time>
      </trkpt>
      <trkpt lat="46.39721" lon="5.68302">
        <ele>577.8</ele>
        <time>2022-07-29T12:10:29Z</time>
      </trkpt>
      <trkpt lat="46.39723" lon="5.68303">
        <ele>577.8</ele>
        <time>2022-07-29T12:10:30Z</time>
      </trkpt>
      <trkpt lat="46.39726" lon="5.68304">
        <ele>578</ele>
        <time>2022-07-29T12:10:31Z</time>
      </trkpt>
      <trkpt lat="46.39728" lon="5.68305">
        <ele>578</ele>
        <time>2022-07-29T12:10:32Z</time>
      </trkpt>
      <trkpt lat="46.3973" lon="5.68306">
        <ele>578.4</ele>
        <time>2022-07-29T12:10:33Z</time>
      </trkpt>
      <trkpt lat="46.39733" lon="5.68306">
        <ele>578.4</ele>
        <time>2022-07-29T12:10:34Z</time>
      </trkpt>
      <trkpt lat="46.39735" lon="5.68307">
        <ele>578.8</ele>
        <time>2022-07-29T12:10:35Z</time>
      </trkpt>
      <trkpt lat="46.39737" lon="5.68308">
        <ele>578.8</ele>
        <time>2022-07-29T12:10:36Z</time>
      </trkpt>
      <trkpt lat="46.3974" lon="5.68308">
        <ele>579</ele>
        <time>2022-07-29T12:10:37Z</time>
      </trkpt>
      <trkpt lat="46.39742" lon="5.68309">
        <ele>579</ele>
        <time>2022-07-29T12:10:38Z</time>
      </trkpt>
      <trkpt lat="46.39744" lon="5.6831">
        <ele>579.4</ele>
        <time>2022-07-29T12:10:39Z</time>
      </trkpt>
      <trkpt lat="46.39746" lon="5.6831">
        <ele>579.4</ele>
        <time>2022-07-29T12:10:40Z</time>
      </trkpt>
      <trkpt lat="46.39749" lon="5.6831">
        <ele>579.6</ele>
        <time>2022-07-29T12:10:41Z</time>
      </trkpt>
      <trkpt lat="46.39751" lon="5.6831">
        <ele>579.6</ele>
        <time>2022-07-29T12:10:42Z</time>
      </trkpt>
      <trkpt lat="46.39754" lon="5.6831">
        <ele>580</ele>
        <time>2022-07-29T12:10:43Z</time>
      </trkpt>
      <trkpt lat="46.39756" lon="5.68311">
        <ele>580</ele>
        <time>2022-07-29T12:10:44Z</time>
      </trkpt>
      <trkpt lat="46.39759" lon="5.68311">
        <ele>580.2</ele>
        <time>2022-07-29T12:10:45Z</time>
      </trkpt>
      <trkpt lat="46.39761" lon="5.68312">
        <ele>580.4</ele>
        <time>2022-07-29T12:10:46Z</time>
      </trkpt>
      <trkpt lat="46.39764" lon="5.68312">
        <ele>580.4</ele>
        <time>2022-07-29T12:10:47Z</time>
      </trkpt>
      <trkpt lat="46.39766" lon="5.68312">
        <ele>580.8</ele>
        <time>2022-07-29T12:10:48Z</time>
      </trkpt>
      <trkpt lat="46.39769" lon="5.68313">
        <ele>580.8</ele>
        <time>2022-07-29T12:10:49Z</time>
      </trkpt>
      <trkpt lat="46.39772" lon="5.68313">
        <ele>581.2</ele>
        <time>2022-07-29T12:10:50Z</time>
      </trkpt>
      <trkpt lat="46.39775" lon="5.68314">
        <ele>581.2</ele>
        <time>2022-07-29T12:10:51Z</time>
      </trkpt>
      <trkpt lat="46.39777" lon="5.68315">
        <ele>581.4</ele>
        <time>2022-07-29T12:10:52Z</time>
      </trkpt>
      <trkpt lat="46.3978" lon="5.68316">
        <ele>581.4</ele>
        <time>2022-07-29T12:10:53Z</time>
      </trkpt>
      <trkpt lat="46.39783" lon="5.68317">
        <ele>581.8</ele>
        <time>2022-07-29T12:10:54Z</time>
      </trkpt>
      <trkpt lat="46.39785" lon="5.68317">
        <ele>581.8</ele>
        <time>2022-07-29T12:10:55Z</time>
      </trkpt>
      <trkpt lat="46.39788" lon="5.68318">
        <ele>582</ele>
        <time>2022-07-29T12:10:56Z</time>
      </trkpt>
      <trkpt lat="46.39791" lon="5.68319">
        <ele>582</ele>
        <time>2022-07-29T12:10:57Z</time>
      </trkpt>
      <trkpt lat="46.39794" lon="5.6832">
        <ele>582.2</ele>
        <time>2022-07-29T12:10:58Z</time>
      </trkpt>
      <trkpt lat="46.39797" lon="5.68321">
        <ele>582.2</ele>
        <time>2022-07-29T12:10:59Z</time>
      </trkpt>
      <trkpt lat="46.398" lon="5.68322">
        <ele>582.4</ele>
        <time>2022-07-29T12:11:00Z</time>
      </trkpt>
      <trkpt lat="46.39803" lon="5.68323">
        <ele>582.4</ele>
        <time>2022-07-29T12:11:01Z</time>
      </trkpt>
      <trkpt lat="46.39806" lon="5.68324">
        <ele>582.8</ele>
        <time>2022-07-29T12:11:02Z</time>
      </trkpt>
      <trkpt lat="46.39809" lon="5.68325">
        <ele>582.8</ele>
        <time>2022-07-29T12:11:03Z</time>
      </trkpt>
      <trkpt lat="46.39813" lon="5.68325">
        <ele>583</ele>
        <time>2022-07-29T12:11:04Z</time>
      </trkpt>
      <trkpt lat="46.39816" lon="5.68326">
        <ele>583</ele>
        <time>2022-07-29T12:11:05Z</time>
      </trkpt>
      <trkpt lat="46.39819" lon="5.68327">
        <ele>583.2</ele>
        <time>2022-07-29T12:11:06Z</time>
      </trkpt>
      <trkpt lat="46.39822" lon="5.68328">
        <ele>583.4</ele>
        <time>2022-07-29T12:11:07Z</time>
      </trkpt>
      <trkpt lat="46.39826" lon="5.68328">
        <ele>583.4</ele>
        <time>2022-07-29T12:11:08Z</time>
      </trkpt>
      <trkpt lat="46.39829" lon="5.68329">
        <ele>583.8</ele>
        <time>2022-07-29T12:11:09Z</time>
      </trkpt>
      <trkpt lat="46.39832" lon="5.6833">
        <ele>583.8</ele>
        <time>2022-07-29T12:11:10Z</time>
      </trkpt>
      <trkpt lat="46.39836" lon="5.6833">
        <ele>584</ele>
        <time>2022-07-29T12:11:11Z</time>
      </trkpt>
      <trkpt lat="46.39839" lon="5.68331">
        <ele>584</ele>
        <time>2022-07-29T12:11:12Z</time>
      </trkpt>
      <trkpt lat="46.39842" lon="5.68331">
        <ele>584.4</ele>
        <time>2022-07-29T12:11:13Z</time>
      </trkpt>
      <trkpt lat="46.39845" lon="5.68331">
        <ele>584.6</ele>
        <time>2022-07-29T12:11:14Z</time>
      </trkpt>
      <trkpt lat="46.39848" lon="5.68332">
        <ele>584.8</ele>
        <time>2022-07-29T12:11:15Z</time>
      </trkpt>
      <trkpt lat="46.39851" lon="5.68332">
        <ele>584.8</ele>
        <time>2022-07-29T12:11:16Z</time>
      </trkpt>
      <trkpt lat="46.39853" lon="5.68332">
        <ele>585.2</ele>
        <time>2022-07-29T12:11:17Z</time>
      </trkpt>
      <trkpt lat="46.39856" lon="5.68332">
        <ele>585.6</ele>
        <time>2022-07-29T12:11:18Z</time>
      </trkpt>
      <trkpt lat="46.39858" lon="5.68332">
        <ele>585.8</ele>
        <time>2022-07-29T12:11:19Z</time>
      </trkpt>
      <trkpt lat="46.39861" lon="5.68332">
        <ele>586</ele>
        <time>2022-07-29T12:11:20Z</time>
      </trkpt>
      <trkpt lat="46.39864" lon="5.68333">
        <ele>586.4</ele>
        <time>2022-07-29T12:11:21Z</time>
      </trkpt>
      <trkpt lat="46.39866" lon="5.68333">
        <ele>586.8</ele>
        <time>2022-07-29T12:11:22Z</time>
      </trkpt>
      <trkpt lat="46.39869" lon="5.68332">
        <ele>587</ele>
        <time>2022-07-29T12:11:23Z</time>
      </trkpt>
      <trkpt lat="46.39872" lon="5.68333">
        <ele>587.2</ele>
        <time>2022-07-29T12:11:24Z</time>
      </trkpt>
      <trkpt lat="46.39875" lon="5.68333">
        <ele>587.4</ele>
        <time>2022-07-29T12:11:25Z</time>
      </trkpt>
      <trkpt lat="46.39877" lon="5.68334">
        <ele>587.6</ele>
        <time>2022-07-29T12:11:26Z</time>
      </trkpt>
      <trkpt lat="46.3988" lon="5.68336">
        <ele>588</ele>
        <time>2022-07-29T12:11:27Z</time>
      </trkpt>
      <trkpt lat="46.39883" lon="5.68336">
        <ele>588.2</ele>
        <time>2022-07-29T12:11:28Z</time>
      </trkpt>
      <trkpt lat="46.39886" lon="5.68337">
        <ele>588.4</ele>
        <time>2022-07-29T12:11:29Z</time>
      </trkpt>
      <trkpt lat="46.39889" lon="5.68338">
        <ele>588.8</ele>
        <time>2022-07-29T12:11:30Z</time>
      </trkpt>
      <trkpt lat="46.39892" lon="5.68339">
        <ele>589</ele>
        <time>2022-07-29T12:11:31Z</time>
      </trkpt>
      <trkpt lat="46.39894" lon="5.68339">
        <ele>589</ele>
        <time>2022-07-29T12:11:32Z</time>
      </trkpt>
      <trkpt lat="46.39897" lon="5.6834">
        <ele>589.4</ele>
        <time>2022-07-29T12:11:33Z</time>
      </trkpt>
      <trkpt lat="46.399" lon="5.6834">
        <ele>589.6</ele>
        <time>2022-07-29T12:11:34Z</time>
      </trkpt>
      <trkpt lat="46.39902" lon="5.6834">
        <ele>589.8</ele>
        <time>2022-07-29T12:11:35Z</time>
      </trkpt>
      <trkpt lat="46.39904" lon="5.68341">
        <ele>590</ele>
        <time>2022-07-29T12:11:36Z</time>
      </trkpt>
      <trkpt lat="46.39907" lon="5.68342">
        <ele>590.4</ele>
        <time>2022-07-29T12:11:37Z</time>
      </trkpt>
      <trkpt lat="46.3991" lon="5.68342">
        <ele>590.4</ele>
        <time>2022-07-29T12:11:38Z</time>
      </trkpt>
      <trkpt lat="46.39912" lon="5.68342">
        <ele>590.6</ele>
        <time>2022-07-29T12:11:39Z</time>
      </trkpt>
      <trkpt lat="46.39915" lon="5.68342">
        <ele>590.8</ele>
        <time>2022-07-29T12:11:40Z</time>
      </trkpt>
      <trkpt lat="46.39917" lon="5.68343">
        <ele>591</ele>
        <time>2022-07-29T12:11:41Z</time>
      </trkpt>
      <trkpt lat="46.3992" lon="5.68343">
        <ele>591.2</ele>
        <time>2022-07-29T12:11:42Z</time>
      </trkpt>
      <trkpt lat="46.39923" lon="5.68344">
        <ele>591.4</ele>
        <time>2022-07-29T12:11:43Z</time>
      </trkpt>
      <trkpt lat="46.39925" lon="5.68345">
        <ele>591.4</ele>
        <time>2022-07-29T12:11:44Z</time>
      </trkpt>
      <trkpt lat="46.39928" lon="5.68346">
        <ele>591.8</ele>
        <time>2022-07-29T12:11:45Z</time>
      </trkpt>
      <trkpt lat="46.39931" lon="5.68346">
        <ele>591.8</ele>
        <time>2022-07-29T12:11:46Z</time>
      </trkpt>
      <trkpt lat="46.39934" lon="5.68347">
        <ele>592</ele>
        <time>2022-07-29T12:11:47Z</time>
      </trkpt>
      <trkpt lat="46.39936" lon="5.68349">
        <ele>592</ele>
        <time>2022-07-29T12:11:48Z</time>
      </trkpt>
      <trkpt lat="46.39939" lon="5.6835">
        <ele>592.4</ele>
        <time>2022-07-29T12:11:49Z</time>
      </trkpt>
      <trkpt lat="46.39942" lon="5.68352">
        <ele>592.4</ele>
        <time>2022-07-29T12:11:50Z</time>
      </trkpt>
      <trkpt lat="46.39945" lon="5.68354">
        <ele>592.6</ele>
        <time>2022-07-29T12:11:51Z</time>
      </trkpt>
      <trkpt lat="46.39947" lon="5.68356">
        <ele>592.6</ele>
        <time>2022-07-29T12:11:52Z</time>
      </trkpt>
      <trkpt lat="46.3995" lon="5.68357">
        <ele>593</ele>
        <time>2022-07-29T12:11:53Z</time>
      </trkpt>
      <trkpt lat="46.39953" lon="5.68359">
        <ele>593</ele>
        <time>2022-07-29T12:11:54Z</time>
      </trkpt>
      <trkpt lat="46.39955" lon="5.6836">
        <ele>593.4</ele>
        <time>2022-07-29T12:11:55Z</time>
      </trkpt>
      <trkpt lat="46.39957" lon="5.68362">
        <ele>593.6</ele>
        <time>2022-07-29T12:11:56Z</time>
      </trkpt>
      <trkpt lat="46.3996" lon="5.68363">
        <ele>593.6</ele>
        <time>2022-07-29T12:11:57Z</time>
      </trkpt>
      <trkpt lat="46.39962" lon="5.68364">
        <ele>594</ele>
        <time>2022-07-29T12:11:58Z</time>
      </trkpt>
      <trkpt lat="46.39964" lon="5.68365">
        <ele>594</ele>
        <time>2022-07-29T12:11:59Z</time>
      </trkpt>
      <trkpt lat="46.39967" lon="5.68365">
        <ele>594.4</ele>
        <time>2022-07-29T12:12:00Z</time>
      </trkpt>
      <trkpt lat="46.39968" lon="5.68366">
        <ele>594.6</ele>
        <time>2022-07-29T12:12:01Z</time>
      </trkpt>
      <trkpt lat="46.39971" lon="5.68368">
        <ele>594.8</ele>
        <time>2022-07-29T12:12:02Z</time>
      </trkpt>
      <trkpt lat="46.39973" lon="5.68369">
        <ele>595</ele>
        <time>2022-07-29T12:12:03Z</time>
      </trkpt>
      <trkpt lat="46.39976" lon="5.6837">
        <ele>595.2</ele>
        <time>2022-07-29T12:12:04Z</time>
      </trkpt>
      <trkpt lat="46.39978" lon="5.68371">
        <ele>595.2</ele>
        <time>2022-07-29T12:12:05Z</time>
      </trkpt>
      <trkpt lat="46.39981" lon="5.68373">
        <ele>595.6</ele>
        <time>2022-07-29T12:12:06Z</time>
      </trkpt>
      <trkpt lat="46.39983" lon="5.68374">
        <ele>596</ele>
        <time>2022-07-29T12:12:07Z</time>
      </trkpt>
      <trkpt lat="46.39985" lon="5.68376">
        <ele>596</ele>
        <time>2022-07-29T12:12:08Z</time>
      </trkpt>
      <trkpt lat="46.39987" lon="5.68377">
        <ele>596.4</ele>
        <time>2022-07-29T12:12:09Z</time>
      </trkpt>
      <trkpt lat="46.39989" lon="5.68378">
        <ele>596.6</ele>
        <time>2022-07-29T12:12:10Z</time>
      </trkpt>
      <trkpt lat="46.39991" lon="5.68379">
        <ele>596.8</ele>
        <time>2022-07-29T12:12:11Z</time>
      </trkpt>
      <trkpt lat="46.39993" lon="5.68381">
        <ele>596.8</ele>
        <time>2022-07-29T12:12:12Z</time>
      </trkpt>
      <trkpt lat="46.39995" lon="5.68382">
        <ele>597.2</ele>
        <time>2022-07-29T12:12:13Z</time>
      </trkpt>
      <trkpt lat="46.39997" lon="5.68384">
        <ele>597.2</ele>
        <time>2022-07-29T12:12:14Z</time>
      </trkpt>
      <trkpt lat="46.39999" lon="5.68386">
        <ele>597.4</ele>
        <time>2022-07-29T12:12:15Z</time>
      </trkpt>
      <trkpt lat="46.40001" lon="5.68387">
        <ele>597.4</ele>
        <time>2022-07-29T12:12:16Z</time>
      </trkpt>
      <trkpt lat="46.40003" lon="5.68389">
        <ele>597.8</ele>
        <time>2022-07-29T12:12:17Z</time>
      </trkpt>
      <trkpt lat="46.40005" lon="5.68391">
        <ele>598</ele>
        <time>2022-07-29T12:12:18Z</time>
      </trkpt>
      <trkpt lat="46.40007" lon="5.68392">
        <ele>598</ele>
        <time>2022-07-29T12:12:19Z</time>
      </trkpt>
      <trkpt lat="46.4001" lon="5.68394">
        <ele>598.4</ele>
        <time>2022-07-29T12:12:20Z</time>
      </trkpt>
      <trkpt lat="46.40012" lon="5.68396">
        <ele>598.4</ele>
        <time>2022-07-29T12:12:21Z</time>
      </trkpt>
      <trkpt lat="46.40015" lon="5.68397">
        <ele>598.8</ele>
        <time>2022-07-29T12:12:22Z</time>
      </trkpt>
      <trkpt lat="46.40017" lon="5.68399">
        <ele>598.8</ele>
        <time>2022-07-29T12:12:23Z</time>
      </trkpt>
      <trkpt lat="46.4002" lon="5.684">
        <ele>599.2</ele>
        <time>2022-07-29T12:12:24Z</time>
      </trkpt>
      <trkpt lat="46.40022" lon="5.68401">
        <ele>599.4</ele>
        <time>2022-07-29T12:12:25Z</time>
      </trkpt>
      <trkpt lat="46.40024" lon="5.68403">
        <ele>599.6</ele>
        <time>2022-07-29T12:12:26Z</time>
      </trkpt>
      <trkpt lat="46.40026" lon="5.68404">
        <ele>599.8</ele>
        <time>2022-07-29T12:12:27Z</time>
      </trkpt>
      <trkpt lat="46.40028" lon="5.68405">
        <ele>599.8</ele>
        <time>2022-07-29T12:12:28Z</time>
      </trkpt>
      <trkpt lat="46.40031" lon="5.68406">
        <ele>600.4</ele>
        <time>2022-07-29T12:12:29Z</time>
      </trkpt>
      <trkpt lat="46.40033" lon="5.68407">
        <ele>600.6</ele>
        <time>2022-07-29T12:12:30Z</time>
      </trkpt>
      <trkpt lat="46.40035" lon="5.68409">
        <ele>600.6</ele>
        <time>2022-07-29T12:12:31Z</time>
      </trkpt>
      <trkpt lat="46.40037" lon="5.6841">
        <ele>601</ele>
        <time>2022-07-29T12:12:32Z</time>
      </trkpt>
      <trkpt lat="46.4004" lon="5.68412">
        <ele>601.2</ele>
        <time>2022-07-29T12:12:33Z</time>
      </trkpt>
      <trkpt lat="46.40042" lon="5.68414">
        <ele>601.6</ele>
        <time>2022-07-29T12:12:34Z</time>
      </trkpt>
      <trkpt lat="46.40044" lon="5.68416">
        <ele>601.8</ele>
        <time>2022-07-29T12:12:35Z</time>
      </trkpt>
      <trkpt lat="46.40046" lon="5.68417">
        <ele>601.8</ele>
        <time>2022-07-29T12:12:36Z</time>
      </trkpt>
      <trkpt lat="46.40049" lon="5.68418">
        <ele>602.2</ele>
        <time>2022-07-29T12:12:37Z</time>
      </trkpt>
      <trkpt lat="46.40051" lon="5.6842">
        <ele>602.6</ele>
        <time>2022-07-29T12:12:38Z</time>
      </trkpt>
      <trkpt lat="46.40053" lon="5.68421">
        <ele>602.8</ele>
        <time>2022-07-29T12:12:39Z</time>
      </trkpt>
      <trkpt lat="46.40055" lon="5.68423">
        <ele>603</ele>
        <time>2022-07-29T12:12:40Z</time>
      </trkpt>
      <trkpt lat="46.40057" lon="5.68425">
        <ele>603.4</ele>
        <time>2022-07-29T12:12:41Z</time>
      </trkpt>
      <trkpt lat="46.40059" lon="5.68427">
        <ele>603.6</ele>
        <time>2022-07-29T12:12:42Z</time>
      </trkpt>
      <trkpt lat="46.40061" lon="5.68429">
        <ele>603.8</ele>
        <time>2022-07-29T12:12:43Z</time>
      </trkpt>
      <trkpt lat="46.40062" lon="5.6843">
        <ele>604</ele>
        <time>2022-07-29T12:12:44Z</time>
      </trkpt>
      <trkpt lat="46.40064" lon="5.68432">
        <ele>604.4</ele>
        <time>2022-07-29T12:12:45Z</time>
      </trkpt>
      <trkpt lat="46.40065" lon="5.68434">
        <ele>604.6</ele>
        <time>2022-07-29T12:12:46Z</time>
      </trkpt>
      <trkpt lat="46.40066" lon="5.68435">
        <ele>605</ele>
        <time>2022-07-29T12:12:47Z</time>
      </trkpt>
      <trkpt lat="46.40068" lon="5.68437">
        <ele>605.2</ele>
        <time>2022-07-29T12:12:48Z</time>
      </trkpt>
      <trkpt lat="46.40069" lon="5.68438">
        <ele>605.4</ele>
        <time>2022-07-29T12:12:49Z</time>
      </trkpt>
      <trkpt lat="46.40071" lon="5.68439">
        <ele>605.4</ele>
        <time>2022-07-29T12:12:50Z</time>
      </trkpt>
      <trkpt lat="46.40073" lon="5.6844">
        <ele>605.8</ele>
        <time>2022-07-29T12:12:51Z</time>
      </trkpt>
      <trkpt lat="46.40074" lon="5.68442">
        <ele>605.8</ele>
        <time>2022-07-29T12:12:52Z</time>
      </trkpt>
      <trkpt lat="46.40075" lon="5.68444">
        <ele>606.2</ele>
        <time>2022-07-29T12:12:53Z</time>
      </trkpt>
      <trkpt lat="46.40076" lon="5.68446">
        <ele>606.2</ele>
        <time>2022-07-29T12:12:54Z</time>
      </trkpt>
      <trkpt lat="46.40078" lon="5.68448">
        <ele>606.4</ele>
        <time>2022-07-29T12:12:55Z</time>
      </trkpt>
      <trkpt lat="46.40079" lon="5.6845">
        <ele>606.4</ele>
        <time>2022-07-29T12:12:56Z</time>
      </trkpt>
      <trkpt lat="46.40081" lon="5.68452">
        <ele>606.6</ele>
        <time>2022-07-29T12:12:57Z</time>
      </trkpt>
      <trkpt lat="46.40082" lon="5.68454">
        <ele>606.6</ele>
        <time>2022-07-29T12:12:58Z</time>
      </trkpt>
      <trkpt lat="46.40083" lon="5.68457">
        <ele>607</ele>
        <time>2022-07-29T12:12:59Z</time>
      </trkpt>
      <trkpt lat="46.40085" lon="5.68459">
        <ele>607</ele>
        <time>2022-07-29T12:13:00Z</time>
      </trkpt>
      <trkpt lat="46.40087" lon="5.68462">
        <ele>607.2</ele>
        <time>2022-07-29T12:13:01Z</time>
      </trkpt>
      <trkpt lat="46.40088" lon="5.68464">
        <ele>607.2</ele>
        <time>2022-07-29T12:13:02Z</time>
      </trkpt>
      <trkpt lat="46.4009" lon="5.68467">
        <ele>607.4</ele>
        <time>2022-07-29T12:13:03Z</time>
      </trkpt>
      <trkpt lat="46.40092" lon="5.68469">
        <ele>607.4</ele>
        <time>2022-07-29T12:13:04Z</time>
      </trkpt>
      <trkpt lat="46.40093" lon="5.68472">
        <ele>607.6</ele>
        <time>2022-07-29T12:13:05Z</time>
      </trkpt>
      <trkpt lat="46.40095" lon="5.68474">
        <ele>607.6</ele>
        <time>2022-07-29T12:13:06Z</time>
      </trkpt>
      <trkpt lat="46.40097" lon="5.68476">
        <ele>608</ele>
        <time>2022-07-29T12:13:07Z</time>
      </trkpt>
      <trkpt lat="46.40098" lon="5.68478">
        <ele>608</ele>
        <time>2022-07-29T12:13:08Z</time>
      </trkpt>
      <trkpt lat="46.40098" lon="5.68478">
        <ele>608.4</ele>
        <time>2022-07-29T12:13:09Z</time>
      </trkpt>
      <trkpt lat="46.401" lon="5.6848">
        <ele>608.4</ele>
        <time>2022-07-29T12:13:10Z</time>
      </trkpt>
      <trkpt lat="46.40102" lon="5.68482">
        <ele>608.6</ele>
        <time>2022-07-29T12:13:11Z</time>
      </trkpt>
      <trkpt lat="46.40104" lon="5.68484">
        <ele>608.6</ele>
        <time>2022-07-29T12:13:12Z</time>
      </trkpt>
      <trkpt lat="46.40106" lon="5.68486">
        <ele>609</ele>
        <time>2022-07-29T12:13:13Z</time>
      </trkpt>
      <trkpt lat="46.40108" lon="5.68488">
        <ele>609</ele>
        <time>2022-07-29T12:13:14Z</time>
      </trkpt>
      <trkpt lat="46.4011" lon="5.6849">
        <ele>609.4</ele>
        <time>2022-07-29T12:13:15Z</time>
      </trkpt>
      <trkpt lat="46.40112" lon="5.68492">
        <ele>609.4</ele>
        <time>2022-07-29T12:13:16Z</time>
      </trkpt>
      <trkpt lat="46.40115" lon="5.68494">
        <ele>609.6</ele>
        <time>2022-07-29T12:13:17Z</time>
      </trkpt>
      <trkpt lat="46.40117" lon="5.68495">
        <ele>609.6</ele>
        <time>2022-07-29T12:13:18Z</time>
      </trkpt>
      <trkpt lat="46.40119" lon="5.68497">
        <ele>610</ele>
        <time>2022-07-29T12:13:19Z</time>
      </trkpt>
      <trkpt lat="46.40122" lon="5.68499">
        <ele>610</ele>
        <time>2022-07-29T12:13:20Z</time>
      </trkpt>
      <trkpt lat="46.40124" lon="5.68501">
        <ele>610.2</ele>
        <time>2022-07-29T12:13:21Z</time>
      </trkpt>
      <trkpt lat="46.40127" lon="5.68503">
        <ele>610.2</ele>
        <time>2022-07-29T12:13:22Z</time>
      </trkpt>
      <trkpt lat="46.40129" lon="5.68505">
        <ele>610.4</ele>
        <time>2022-07-29T12:13:23Z</time>
      </trkpt>
      <trkpt lat="46.40132" lon="5.68507">
        <ele>610.4</ele>
        <time>2022-07-29T12:13:24Z</time>
      </trkpt>
      <trkpt lat="46.40134" lon="5.6851">
        <ele>610.8</ele>
        <time>2022-07-29T12:13:25Z</time>
      </trkpt>
      <trkpt lat="46.40136" lon="5.68512">
        <ele>610.8</ele>
        <time>2022-07-29T12:13:26Z</time>
      </trkpt>
      <trkpt lat="46.40138" lon="5.68515">
        <ele>611</ele>
        <time>2022-07-29T12:13:27Z</time>
      </trkpt>
      <trkpt lat="46.4014" lon="5.68518">
        <ele>611</ele>
        <time>2022-07-29T12:13:28Z</time>
      </trkpt>
      <trkpt lat="46.40142" lon="5.68522">
        <ele>611.4</ele>
        <time>2022-07-29T12:13:29Z</time>
      </trkpt>
      <trkpt lat="46.40144" lon="5.68526">
        <ele>611.4</ele>
        <time>2022-07-29T12:13:30Z</time>
      </trkpt>
      <trkpt lat="46.40145" lon="5.68529">
        <ele>611.8</ele>
        <time>2022-07-29T12:13:31Z</time>
      </trkpt>
      <trkpt lat="46.40146" lon="5.68533">
        <ele>611.8</ele>
        <time>2022-07-29T12:13:32Z</time>
      </trkpt>
      <trkpt lat="46.40147" lon="5.68537">
        <ele>612.2</ele>
        <time>2022-07-29T12:13:33Z</time>
      </trkpt>
      <trkpt lat="46.40149" lon="5.6854">
        <ele>612.4</ele>
        <time>2022-07-29T12:13:34Z</time>
      </trkpt>
      <trkpt lat="46.4015" lon="5.68544">
        <ele>612.6</ele>
        <time>2022-07-29T12:13:35Z</time>
      </trkpt>
      <trkpt lat="46.40151" lon="5.68548">
        <ele>612.6</ele>
        <time>2022-07-29T12:13:36Z</time>
      </trkpt>
      <trkpt lat="46.40152" lon="5.68551">
        <ele>612.8</ele>
        <time>2022-07-29T12:13:37Z</time>
      </trkpt>
      <trkpt lat="46.40153" lon="5.68555">
        <ele>612.8</ele>
        <time>2022-07-29T12:13:38Z</time>
      </trkpt>
      <trkpt lat="46.40154" lon="5.6856">
        <ele>613</ele>
        <time>2022-07-29T12:13:39Z</time>
      </trkpt>
      <trkpt lat="46.40155" lon="5.68564">
        <ele>613</ele>
        <time>2022-07-29T12:13:40Z</time>
      </trkpt>
      <trkpt lat="46.40155" lon="5.68569">
        <ele>613</ele>
        <time>2022-07-29T12:13:41Z</time>
      </trkpt>
      <trkpt lat="46.40157" lon="5.68574">
        <ele>613</ele>
        <time>2022-07-29T12:13:42Z</time>
      </trkpt>
      <trkpt lat="46.40158" lon="5.68579">
        <ele>613</ele>
        <time>2022-07-29T12:13:43Z</time>
      </trkpt>
      <trkpt lat="46.4016" lon="5.68584">
        <ele>613</ele>
        <time>2022-07-29T12:13:44Z</time>
      </trkpt>
      <trkpt lat="46.40162" lon="5.68588">
        <ele>613.4</ele>
        <time>2022-07-29T12:13:45Z</time>
      </trkpt>
      <trkpt lat="46.40164" lon="5.68592">
        <ele>613.4</ele>
        <time>2022-07-29T12:13:46Z</time>
      </trkpt>
      <trkpt lat="46.40167" lon="5.68596">
        <ele>613.6</ele>
        <time>2022-07-29T12:13:47Z</time>
      </trkpt>
      <trkpt lat="46.4017" lon="5.68599">
        <ele>613.6</ele>
        <time>2022-07-29T12:13:48Z</time>
      </trkpt>
      <trkpt lat="46.40173" lon="5.68603">
        <ele>613.8</ele>
        <time>2022-07-29T12:13:49Z</time>
      </trkpt>
      <trkpt lat="46.40176" lon="5.68606">
        <ele>613.8</ele>
        <time>2022-07-29T12:13:50Z</time>
      </trkpt>
      <trkpt lat="46.40179" lon="5.68609">
        <ele>614</ele>
        <time>2022-07-29T12:13:51Z</time>
      </trkpt>
      <trkpt lat="46.40182" lon="5.68611">
        <ele>614</ele>
        <time>2022-07-29T12:13:52Z</time>
      </trkpt>
      <trkpt lat="46.40185" lon="5.68613">
        <ele>614.4</ele>
        <time>2022-07-29T12:13:53Z</time>
      </trkpt>
      <trkpt lat="46.40189" lon="5.68615">
        <ele>614.4</ele>
        <time>2022-07-29T12:13:54Z</time>
      </trkpt>
      <trkpt lat="46.40192" lon="5.68616">
        <ele>614.4</ele>
        <time>2022-07-29T12:13:55Z</time>
      </trkpt>
      <trkpt lat="46.40195" lon="5.68617">
        <ele>614.8</ele>
        <time>2022-07-29T12:13:56Z</time>
      </trkpt>
      <trkpt lat="46.40199" lon="5.68618">
        <ele>614.8</ele>
        <time>2022-07-29T12:13:57Z</time>
      </trkpt>
      <trkpt lat="46.40202" lon="5.68619">
        <ele>614.8</ele>
        <time>2022-07-29T12:13:58Z</time>
      </trkpt>
      <trkpt lat="46.40206" lon="5.6862">
        <ele>615</ele>
        <time>2022-07-29T12:13:59Z</time>
      </trkpt>
      <trkpt lat="46.4021" lon="5.68621">
        <ele>615</ele>
        <time>2022-07-29T12:14:00Z</time>
      </trkpt>
      <trkpt lat="46.40213" lon="5.68622">
        <ele>615</ele>
        <time>2022-07-29T12:14:01Z</time>
      </trkpt>
      <trkpt lat="46.40217" lon="5.68624">
        <ele>615.2</ele>
        <time>2022-07-29T12:14:02Z</time>
      </trkpt>
      <trkpt lat="46.4022" lon="5.68626">
        <ele>615.2</ele>
        <time>2022-07-29T12:14:03Z</time>
      </trkpt>
      <trkpt lat="46.40223" lon="5.68628">
        <ele>615.4</ele>
        <time>2022-07-29T12:14:04Z</time>
      </trkpt>
      <trkpt lat="46.40226" lon="5.6863">
        <ele>615.4</ele>
        <time>2022-07-29T12:14:05Z</time>
      </trkpt>
      <trkpt lat="46.4023" lon="5.68632">
        <ele>615.8</ele>
        <time>2022-07-29T12:14:06Z</time>
      </trkpt>
      <trkpt lat="46.40233" lon="5.68634">
        <ele>615.8</ele>
        <time>2022-07-29T12:14:07Z</time>
      </trkpt>
      <trkpt lat="46.40236" lon="5.68636">
        <ele>615.8</ele>
        <time>2022-07-29T12:14:08Z</time>
      </trkpt>
      <trkpt lat="46.40239" lon="5.68637">
        <ele>615.8</ele>
        <time>2022-07-29T12:14:09Z</time>
      </trkpt>
      <trkpt lat="46.40242" lon="5.68639">
        <ele>616</ele>
        <time>2022-07-29T12:14:10Z</time>
      </trkpt>
      <trkpt lat="46.40245" lon="5.68642">
        <ele>616</ele>
        <time>2022-07-29T12:14:11Z</time>
      </trkpt>
      <trkpt lat="46.40248" lon="5.68645">
        <ele>616.2</ele>
        <time>2022-07-29T12:14:12Z</time>
      </trkpt>
      <trkpt lat="46.4025" lon="5.68648">
        <ele>616.2</ele>
        <time>2022-07-29T12:14:13Z</time>
      </trkpt>
      <trkpt lat="46.40253" lon="5.6865">
        <ele>616.6</ele>
        <time>2022-07-29T12:14:14Z</time>
      </trkpt>
      <trkpt lat="46.40257" lon="5.68652">
        <ele>616.6</ele>
        <time>2022-07-29T12:14:15Z</time>
      </trkpt>
      <trkpt lat="46.4026" lon="5.68654">
        <ele>617</ele>
        <time>2022-07-29T12:14:16Z</time>
      </trkpt>
      <trkpt lat="46.40263" lon="5.68656">
        <ele>617.2</ele>
        <time>2022-07-29T12:14:17Z</time>
      </trkpt>
      <trkpt lat="46.40266" lon="5.68659">
        <ele>617.4</ele>
        <time>2022-07-29T12:14:18Z</time>
      </trkpt>
      <trkpt lat="46.40269" lon="5.68661">
        <ele>617.4</ele>
        <time>2022-07-29T12:14:19Z</time>
      </trkpt>
      <trkpt lat="46.40271" lon="5.68664">
        <ele>617.8</ele>
        <time>2022-07-29T12:14:20Z</time>
      </trkpt>
      <trkpt lat="46.40274" lon="5.68666">
        <ele>618.2</ele>
        <time>2022-07-29T12:14:21Z</time>
      </trkpt>
      <trkpt lat="46.40277" lon="5.68668">
        <ele>618.4</ele>
        <time>2022-07-29T12:14:22Z</time>
      </trkpt>
      <trkpt lat="46.40279" lon="5.6867">
        <ele>618.6</ele>
        <time>2022-07-29T12:14:23Z</time>
      </trkpt>
      <trkpt lat="46.40282" lon="5.68673">
        <ele>619</ele>
        <time>2022-07-29T12:14:24Z</time>
      </trkpt>
      <trkpt lat="46.40284" lon="5.68675">
        <ele>619.2</ele>
        <time>2022-07-29T12:14:25Z</time>
      </trkpt>
      <trkpt lat="46.40287" lon="5.68677">
        <ele>619.4</ele>
        <time>2022-07-29T12:14:26Z</time>
      </trkpt>
      <trkpt lat="46.40289" lon="5.68679">
        <ele>619.8</ele>
        <time>2022-07-29T12:14:27Z</time>
      </trkpt>
      <trkpt lat="46.40291" lon="5.68681">
        <ele>620</ele>
        <time>2022-07-29T12:14:28Z</time>
      </trkpt>
      <trkpt lat="46.40294" lon="5.68683">
        <ele>620.4</ele>
        <time>2022-07-29T12:14:29Z</time>
      </trkpt>
      <trkpt lat="46.40296" lon="5.68685">
        <ele>620.6</ele>
        <time>2022-07-29T12:14:30Z</time>
      </trkpt>
      <trkpt lat="46.40299" lon="5.68687">
        <ele>620.8</ele>
        <time>2022-07-29T12:14:31Z</time>
      </trkpt>
      <trkpt lat="46.40301" lon="5.68689">
        <ele>621</ele>
        <time>2022-07-29T12:14:32Z</time>
      </trkpt>
      <trkpt lat="46.40303" lon="5.68691">
        <ele>621.2</ele>
        <time>2022-07-29T12:14:33Z</time>
      </trkpt>
      <trkpt lat="46.40305" lon="5.68694">
        <ele>621.2</ele>
        <time>2022-07-29T12:14:34Z</time>
      </trkpt>
      <trkpt lat="46.40308" lon="5.68697">
        <ele>621.6</ele>
        <time>2022-07-29T12:14:35Z</time>
      </trkpt>
      <trkpt lat="46.40311" lon="5.68699">
        <ele>621.6</ele>
        <time>2022-07-29T12:14:36Z</time>
      </trkpt>
      <trkpt lat="46.40313" lon="5.68701">
        <ele>621.8</ele>
        <time>2022-07-29T12:14:37Z</time>
      </trkpt>
      <trkpt lat="46.40316" lon="5.68704">
        <ele>621.8</ele>
        <time>2022-07-29T12:14:38Z</time>
      </trkpt>
      <trkpt lat="46.40319" lon="5.68707">
        <ele>622.2</ele>
        <time>2022-07-29T12:14:39Z</time>
      </trkpt>
      <trkpt lat="46.40321" lon="5.68709">
        <ele>622.2</ele>
        <time>2022-07-29T12:14:40Z</time>
      </trkpt>
      <trkpt lat="46.40324" lon="5.68712">
        <ele>622.4</ele>
        <time>2022-07-29T12:14:41Z</time>
      </trkpt>
      <trkpt lat="46.40329" lon="5.68718">
        <ele>622.4</ele>
        <time>2022-07-29T12:14:42Z</time>
      </trkpt>
      <trkpt lat="46.40332" lon="5.68721">
        <ele>622.8</ele>
        <time>2022-07-29T12:14:43Z</time>
      </trkpt>
      <trkpt lat="46.40335" lon="5.68723">
        <ele>622.8</ele>
        <time>2022-07-29T12:14:44Z</time>
      </trkpt>
      <trkpt lat="46.40337" lon="5.68726">
        <ele>623</ele>
        <time>2022-07-29T12:14:45Z</time>
      </trkpt>
      <trkpt lat="46.4034" lon="5.68729">
        <ele>623</ele>
        <time>2022-07-29T12:14:46Z</time>
      </trkpt>
      <trkpt lat="46.40343" lon="5.68732">
        <ele>623.4</ele>
        <time>2022-07-29T12:14:47Z</time>
      </trkpt>
      <trkpt lat="46.40345" lon="5.68734">
        <ele>623.4</ele>
        <time>2022-07-29T12:14:48Z</time>
      </trkpt>
      <trkpt lat="46.40348" lon="5.68737">
        <ele>623.6</ele>
        <time>2022-07-29T12:14:49Z</time>
      </trkpt>
      <trkpt lat="46.4035" lon="5.68739">
        <ele>623.6</ele>
        <time>2022-07-29T12:14:50Z</time>
      </trkpt>
      <trkpt lat="46.40353" lon="5.68742">
        <ele>623.6</ele>
        <time>2022-07-29T12:14:51Z</time>
      </trkpt>
      <trkpt lat="46.40356" lon="5.68744">
        <ele>624</ele>
        <time>2022-07-29T12:14:52Z</time>
      </trkpt>
      <trkpt lat="46.40358" lon="5.68747">
        <ele>624</ele>
        <time>2022-07-29T12:14:53Z</time>
      </trkpt>
      <trkpt lat="46.40361" lon="5.68749">
        <ele>624</ele>
        <time>2022-07-29T12:14:54Z</time>
      </trkpt>
      <trkpt lat="46.40364" lon="5.68752">
        <ele>624.2</ele>
        <time>2022-07-29T12:14:55Z</time>
      </trkpt>
      <trkpt lat="46.40367" lon="5.68755">
        <ele>624.2</ele>
        <time>2022-07-29T12:14:56Z</time>
      </trkpt>
      <trkpt lat="46.4037" lon="5.68758">
        <ele>624.2</ele>
        <time>2022-07-29T12:14:57Z</time>
      </trkpt>
      <trkpt lat="46.40373" lon="5.6876">
        <ele>624.2</ele>
        <time>2022-07-29T12:14:58Z</time>
      </trkpt>
      <trkpt lat="46.40376" lon="5.68764">
        <ele>624.4</ele>
        <time>2022-07-29T12:14:59Z</time>
      </trkpt>
      <trkpt lat="46.40379" lon="5.68767">
        <ele>624.4</ele>
        <time>2022-07-29T12:15:00Z</time>
      </trkpt>
      <trkpt lat="46.40382" lon="5.68771">
        <ele>624.4</ele>
        <time>2022-07-29T12:15:01Z</time>
      </trkpt>
      <trkpt lat="46.40384" lon="5.68774">
        <ele>624.4</ele>
        <time>2022-07-29T12:15:02Z</time>
      </trkpt>
      <trkpt lat="46.40387" lon="5.68778">
        <ele>624.8</ele>
        <time>2022-07-29T12:15:03Z</time>
      </trkpt>
      <trkpt lat="46.4039" lon="5.68782">
        <ele>624.8</ele>
        <time>2022-07-29T12:15:04Z</time>
      </trkpt>
      <trkpt lat="46.40393" lon="5.68785">
        <ele>625</ele>
        <time>2022-07-29T12:15:05Z</time>
      </trkpt>
      <trkpt lat="46.40395" lon="5.68789">
        <ele>625</ele>
        <time>2022-07-29T12:15:06Z</time>
      </trkpt>
      <trkpt lat="46.40398" lon="5.68792">
        <ele>625.2</ele>
        <time>2022-07-29T12:15:07Z</time>
      </trkpt>
      <trkpt lat="46.40401" lon="5.68795">
        <ele>625.2</ele>
        <time>2022-07-29T12:15:08Z</time>
      </trkpt>
      <trkpt lat="46.40403" lon="5.68798">
        <ele>625.4</ele>
        <time>2022-07-29T12:15:09Z</time>
      </trkpt>
      <trkpt lat="46.40406" lon="5.68801">
        <ele>625.4</ele>
        <time>2022-07-29T12:15:10Z</time>
      </trkpt>
      <trkpt lat="46.40409" lon="5.68803">
        <ele>625.6</ele>
        <time>2022-07-29T12:15:11Z</time>
      </trkpt>
      <trkpt lat="46.40412" lon="5.68805">
        <ele>626</ele>
        <time>2022-07-29T12:15:12Z</time>
      </trkpt>
      <trkpt lat="46.40414" lon="5.68808">
        <ele>626.2</ele>
        <time>2022-07-29T12:15:13Z</time>
      </trkpt>
      <trkpt lat="46.40417" lon="5.6881">
        <ele>626.2</ele>
        <time>2022-07-29T12:15:14Z</time>
      </trkpt>
      <trkpt lat="46.4042" lon="5.68813">
        <ele>626.4</ele>
        <time>2022-07-29T12:15:15Z</time>
      </trkpt>
      <trkpt lat="46.40423" lon="5.68815">
        <ele>626.4</ele>
        <time>2022-07-29T12:15:16Z</time>
      </trkpt>
      <trkpt lat="46.40426" lon="5.68817">
        <ele>626.6</ele>
        <time>2022-07-29T12:15:17Z</time>
      </trkpt>
      <trkpt lat="46.40429" lon="5.68819">
        <ele>626.6</ele>
        <time>2022-07-29T12:15:18Z</time>
      </trkpt>
      <trkpt lat="46.40432" lon="5.68821">
        <ele>627</ele>
        <time>2022-07-29T12:15:19Z</time>
      </trkpt>
      <trkpt lat="46.40435" lon="5.68823">
        <ele>627</ele>
        <time>2022-07-29T12:15:20Z</time>
      </trkpt>
      <trkpt lat="46.40438" lon="5.68824">
        <ele>627.4</ele>
        <time>2022-07-29T12:15:21Z</time>
      </trkpt>
      <trkpt lat="46.40441" lon="5.68826">
        <ele>627.6</ele>
        <time>2022-07-29T12:15:22Z</time>
      </trkpt>
      <trkpt lat="46.40444" lon="5.68827">
        <ele>627.8</ele>
        <time>2022-07-29T12:15:23Z</time>
      </trkpt>
      <trkpt lat="46.40447" lon="5.68828">
        <ele>628</ele>
        <time>2022-07-29T12:15:24Z</time>
      </trkpt>
      <trkpt lat="46.4045" lon="5.68829">
        <ele>628</ele>
        <time>2022-07-29T12:15:25Z</time>
      </trkpt>
      <trkpt lat="46.40453" lon="5.6883">
        <ele>628.4</ele>
        <time>2022-07-29T12:15:26Z</time>
      </trkpt>
      <trkpt lat="46.40456" lon="5.68831">
        <ele>628.6</ele>
        <time>2022-07-29T12:15:27Z</time>
      </trkpt>
      <trkpt lat="46.40459" lon="5.68832">
        <ele>628.8</ele>
        <time>2022-07-29T12:15:28Z</time>
      </trkpt>
      <trkpt lat="46.40462" lon="5.68833">
        <ele>628.8</ele>
        <time>2022-07-29T12:15:29Z</time>
      </trkpt>
      <trkpt lat="46.40465" lon="5.68833">
        <ele>629.2</ele>
        <time>2022-07-29T12:15:30Z</time>
      </trkpt>
      <trkpt lat="46.40469" lon="5.68833">
        <ele>629.2</ele>
        <time>2022-07-29T12:15:31Z</time>
      </trkpt>
      <trkpt lat="46.40472" lon="5.68833">
        <ele>629.4</ele>
        <time>2022-07-29T12:15:32Z</time>
      </trkpt>
      <trkpt lat="46.40475" lon="5.68834">
        <ele>629.4</ele>
        <time>2022-07-29T12:15:33Z</time>
      </trkpt>
      <trkpt lat="46.40479" lon="5.68834">
        <ele>629.8</ele>
        <time>2022-07-29T12:15:34Z</time>
      </trkpt>
      <trkpt lat="46.40483" lon="5.68835">
        <ele>629.8</ele>
        <time>2022-07-29T12:15:35Z</time>
      </trkpt>
      <trkpt lat="46.40483" lon="5.68835">
        <ele>630.2</ele>
        <time>2022-07-29T12:15:36Z</time>
      </trkpt>
      <trkpt lat="46.40486" lon="5.68835">
        <ele>630.4</ele>
        <time>2022-07-29T12:15:37Z</time>
      </trkpt>
      <trkpt lat="46.4049" lon="5.68836">
        <ele>630.4</ele>
        <time>2022-07-29T12:15:38Z</time>
      </trkpt>
      <trkpt lat="46.40493" lon="5.68837">
        <ele>630.8</ele>
        <time>2022-07-29T12:15:39Z</time>
      </trkpt>
      <trkpt lat="46.40497" lon="5.68838">
        <ele>630.8</ele>
        <time>2022-07-29T12:15:40Z</time>
      </trkpt>
      <trkpt lat="46.40504" lon="5.68839">
        <ele>631</ele>
        <time>2022-07-29T12:15:41Z</time>
      </trkpt>
      <trkpt lat="46.40507" lon="5.6884">
        <ele>631</ele>
        <time>2022-07-29T12:15:42Z</time>
      </trkpt>
      <trkpt lat="46.4051" lon="5.68841">
        <ele>631.4</ele>
        <time>2022-07-29T12:15:43Z</time>
      </trkpt>
      <trkpt lat="46.40514" lon="5.68842">
        <ele>631.6</ele>
        <time>2022-07-29T12:15:44Z</time>
      </trkpt>
      <trkpt lat="46.40517" lon="5.68843">
        <ele>631.6</ele>
        <time>2022-07-29T12:15:45Z</time>
      </trkpt>
      <trkpt lat="46.4052" lon="5.68845">
        <ele>632</ele>
        <time>2022-07-29T12:15:46Z</time>
      </trkpt>
      <trkpt lat="46.40524" lon="5.68846">
        <ele>632</ele>
        <time>2022-07-29T12:15:47Z</time>
      </trkpt>
      <trkpt lat="46.40527" lon="5.68848">
        <ele>632.4</ele>
        <time>2022-07-29T12:15:48Z</time>
      </trkpt>
      <trkpt lat="46.4053" lon="5.68849">
        <ele>632.6</ele>
        <time>2022-07-29T12:15:49Z</time>
      </trkpt>
      <trkpt lat="46.40533" lon="5.6885">
        <ele>632.8</ele>
        <time>2022-07-29T12:15:50Z</time>
      </trkpt>
      <trkpt lat="46.40537" lon="5.68851">
        <ele>632.8</ele>
        <time>2022-07-29T12:15:51Z</time>
      </trkpt>
      <trkpt lat="46.4054" lon="5.68852">
        <ele>633</ele>
        <time>2022-07-29T12:15:52Z</time>
      </trkpt>
      <trkpt lat="46.40543" lon="5.68853">
        <ele>633.4</ele>
        <time>2022-07-29T12:15:53Z</time>
      </trkpt>
      <trkpt lat="46.40545" lon="5.68855">
        <ele>633.6</ele>
        <time>2022-07-29T12:15:54Z</time>
      </trkpt>
      <trkpt lat="46.40548" lon="5.68856">
        <ele>633.6</ele>
        <time>2022-07-29T12:15:55Z</time>
      </trkpt>
      <trkpt lat="46.40551" lon="5.68858">
        <ele>634</ele>
        <time>2022-07-29T12:15:56Z</time>
      </trkpt>
      <trkpt lat="46.40554" lon="5.68859">
        <ele>634</ele>
        <time>2022-07-29T12:15:57Z</time>
      </trkpt>
      <trkpt lat="46.40556" lon="5.68861">
        <ele>634.4</ele>
        <time>2022-07-29T12:15:58Z</time>
      </trkpt>
      <trkpt lat="46.40559" lon="5.68864">
        <ele>634.6</ele>
        <time>2022-07-29T12:15:59Z</time>
      </trkpt>
      <trkpt lat="46.40561" lon="5.68866">
        <ele>634.8</ele>
        <time>2022-07-29T12:16:00Z</time>
      </trkpt>
      <trkpt lat="46.40563" lon="5.68869">
        <ele>634.8</ele>
        <time>2022-07-29T12:16:01Z</time>
      </trkpt>
      <trkpt lat="46.40565" lon="5.68872">
        <ele>635.2</ele>
        <time>2022-07-29T12:16:02Z</time>
      </trkpt>
      <trkpt lat="46.40567" lon="5.68875">
        <ele>635.2</ele>
        <time>2022-07-29T12:16:03Z</time>
      </trkpt>
      <trkpt lat="46.40569" lon="5.68879">
        <ele>635.6</ele>
        <time>2022-07-29T12:16:04Z</time>
      </trkpt>
      <trkpt lat="46.40571" lon="5.68882">
        <ele>635.6</ele>
        <time>2022-07-29T12:16:05Z</time>
      </trkpt>
      <trkpt lat="46.40572" lon="5.68886">
        <ele>636</ele>
        <time>2022-07-29T12:16:06Z</time>
      </trkpt>
      <trkpt lat="46.40574" lon="5.68889">
        <ele>636</ele>
        <time>2022-07-29T12:16:07Z</time>
      </trkpt>
      <trkpt lat="46.40576" lon="5.68892">
        <ele>636.4</ele>
        <time>2022-07-29T12:16:08Z</time>
      </trkpt>
      <trkpt lat="46.40578" lon="5.68895">
        <ele>636.4</ele>
        <time>2022-07-29T12:16:09Z</time>
      </trkpt>
      <trkpt lat="46.4058" lon="5.68899">
        <ele>636.8</ele>
        <time>2022-07-29T12:16:10Z</time>
      </trkpt>
      <trkpt lat="46.40582" lon="5.68902">
        <ele>636.8</ele>
        <time>2022-07-29T12:16:11Z</time>
      </trkpt>
      <trkpt lat="46.40584" lon="5.68906">
        <ele>637</ele>
        <time>2022-07-29T12:16:12Z</time>
      </trkpt>
      <trkpt lat="46.40585" lon="5.6891">
        <ele>637</ele>
        <time>2022-07-29T12:16:13Z</time>
      </trkpt>
      <trkpt lat="46.40587" lon="5.68914">
        <ele>637.4</ele>
        <time>2022-07-29T12:16:14Z</time>
      </trkpt>
      <trkpt lat="46.40589" lon="5.68918">
        <ele>637.4</ele>
        <time>2022-07-29T12:16:15Z</time>
      </trkpt>
      <trkpt lat="46.40591" lon="5.68921">
        <ele>637.6</ele>
        <time>2022-07-29T12:16:16Z</time>
      </trkpt>
      <trkpt lat="46.40593" lon="5.68925">
        <ele>637.6</ele>
        <time>2022-07-29T12:16:17Z</time>
      </trkpt>
      <trkpt lat="46.40595" lon="5.68929">
        <ele>638</ele>
        <time>2022-07-29T12:16:18Z</time>
      </trkpt>
      <trkpt lat="46.40597" lon="5.68932">
        <ele>638</ele>
        <time>2022-07-29T12:16:19Z</time>
      </trkpt>
      <trkpt lat="46.40599" lon="5.68936">
        <ele>638.4</ele>
        <time>2022-07-29T12:16:20Z</time>
      </trkpt>
      <trkpt lat="46.40601" lon="5.68939">
        <ele>638.6</ele>
        <time>2022-07-29T12:16:21Z</time>
      </trkpt>
      <trkpt lat="46.40603" lon="5.68943">
        <ele>638.6</ele>
        <time>2022-07-29T12:16:22Z</time>
      </trkpt>
      <trkpt lat="46.40605" lon="5.68946">
        <ele>639</ele>
        <time>2022-07-29T12:16:23Z</time>
      </trkpt>
      <trkpt lat="46.40607" lon="5.68949">
        <ele>639.2</ele>
        <time>2022-07-29T12:16:24Z</time>
      </trkpt>
      <trkpt lat="46.40609" lon="5.68953">
        <ele>639.2</ele>
        <time>2022-07-29T12:16:25Z</time>
      </trkpt>
      <trkpt lat="46.40611" lon="5.68956">
        <ele>639.6</ele>
        <time>2022-07-29T12:16:26Z</time>
      </trkpt>
      <trkpt lat="46.40613" lon="5.6896">
        <ele>639.8</ele>
        <time>2022-07-29T12:16:27Z</time>
      </trkpt>
      <trkpt lat="46.40615" lon="5.68963">
        <ele>639.8</ele>
        <time>2022-07-29T12:16:28Z</time>
      </trkpt>
      <trkpt lat="46.40617" lon="5.68967">
        <ele>640.2</ele>
        <time>2022-07-29T12:16:29Z</time>
      </trkpt>
      <trkpt lat="46.40619" lon="5.6897">
        <ele>640.2</ele>
        <time>2022-07-29T12:16:30Z</time>
      </trkpt>
      <trkpt lat="46.40621" lon="5.68973">
        <ele>640.6</ele>
        <time>2022-07-29T12:16:31Z</time>
      </trkpt>
      <trkpt lat="46.40623" lon="5.68976">
        <ele>640.8</ele>
        <time>2022-07-29T12:16:32Z</time>
      </trkpt>
      <trkpt lat="46.40625" lon="5.68979">
        <ele>640.8</ele>
        <time>2022-07-29T12:16:33Z</time>
      </trkpt>
      <trkpt lat="46.40628" lon="5.68982">
        <ele>641.2</ele>
        <time>2022-07-29T12:16:34Z</time>
      </trkpt>
      <trkpt lat="46.4063" lon="5.68985">
        <ele>641.4</ele>
        <time>2022-07-29T12:16:35Z</time>
      </trkpt>
      <trkpt lat="46.40632" lon="5.68988">
        <ele>641.4</ele>
        <time>2022-07-29T12:16:36Z</time>
      </trkpt>
      <trkpt lat="46.40635" lon="5.68991">
        <ele>641.8</ele>
        <time>2022-07-29T12:16:37Z</time>
      </trkpt>
      <trkpt lat="46.40637" lon="5.68993">
        <ele>641.8</ele>
        <time>2022-07-29T12:16:38Z</time>
      </trkpt>
      <trkpt lat="46.4064" lon="5.68996">
        <ele>642</ele>
        <time>2022-07-29T12:16:39Z</time>
      </trkpt>
      <trkpt lat="46.40643" lon="5.68999">
        <ele>642</ele>
        <time>2022-07-29T12:16:40Z</time>
      </trkpt>
      <trkpt lat="46.40646" lon="5.69001">
        <ele>642.2</ele>
        <time>2022-07-29T12:16:41Z</time>
      </trkpt>
      <trkpt lat="46.40649" lon="5.69003">
        <ele>642.2</ele>
        <time>2022-07-29T12:16:42Z</time>
      </trkpt>
      <trkpt lat="46.40651" lon="5.69005">
        <ele>642.6</ele>
        <time>2022-07-29T12:16:43Z</time>
      </trkpt>
      <trkpt lat="46.40655" lon="5.69007">
        <ele>642.6</ele>
        <time>2022-07-29T12:16:44Z</time>
      </trkpt>
      <trkpt lat="46.40658" lon="5.69008">
        <ele>643</ele>
        <time>2022-07-29T12:16:45Z</time>
      </trkpt>
      <trkpt lat="46.40661" lon="5.69008">
        <ele>643</ele>
        <time>2022-07-29T12:16:46Z</time>
      </trkpt>
      <trkpt lat="46.40664" lon="5.69008">
        <ele>643.2</ele>
        <time>2022-07-29T12:16:47Z</time>
      </trkpt>
      <trkpt lat="46.40667" lon="5.69008">
        <ele>643.4</ele>
        <time>2022-07-29T12:16:48Z</time>
      </trkpt>
      <trkpt lat="46.4067" lon="5.69008">
        <ele>643.8</ele>
        <time>2022-07-29T12:16:49Z</time>
      </trkpt>
      <trkpt lat="46.40674" lon="5.69009">
        <ele>644</ele>
        <time>2022-07-29T12:16:50Z</time>
      </trkpt>
      <trkpt lat="46.40676" lon="5.69009">
        <ele>644.2</ele>
        <time>2022-07-29T12:16:51Z</time>
      </trkpt>
      <trkpt lat="46.40679" lon="5.69009">
        <ele>644.4</ele>
        <time>2022-07-29T12:16:52Z</time>
      </trkpt>
      <trkpt lat="46.40682" lon="5.69009">
        <ele>644.4</ele>
        <time>2022-07-29T12:16:53Z</time>
      </trkpt>
      <trkpt lat="46.40685" lon="5.69009">
        <ele>644.8</ele>
        <time>2022-07-29T12:16:54Z</time>
      </trkpt>
      <trkpt lat="46.40689" lon="5.69008">
        <ele>644.8</ele>
        <time>2022-07-29T12:16:55Z</time>
      </trkpt>
      <trkpt lat="46.40692" lon="5.69008">
        <ele>645.2</ele>
        <time>2022-07-29T12:16:56Z</time>
      </trkpt>
      <trkpt lat="46.40695" lon="5.69007">
        <ele>645.4</ele>
        <time>2022-07-29T12:16:57Z</time>
      </trkpt>
      <trkpt lat="46.40698" lon="5.69007">
        <ele>645.4</ele>
        <time>2022-07-29T12:16:58Z</time>
      </trkpt>
      <trkpt lat="46.40702" lon="5.69007">
        <ele>645.8</ele>
        <time>2022-07-29T12:16:59Z</time>
      </trkpt>
      <trkpt lat="46.40705" lon="5.69008">
        <ele>646</ele>
        <time>2022-07-29T12:17:00Z</time>
      </trkpt>
      <trkpt lat="46.40708" lon="5.69008">
        <ele>646.2</ele>
        <time>2022-07-29T12:17:01Z</time>
      </trkpt>
      <trkpt lat="46.40711" lon="5.69009">
        <ele>646.2</ele>
        <time>2022-07-29T12:17:02Z</time>
      </trkpt>
      <trkpt lat="46.40714" lon="5.6901">
        <ele>646.6</ele>
        <time>2022-07-29T12:17:03Z</time>
      </trkpt>
      <trkpt lat="46.40717" lon="5.6901">
        <ele>646.6</ele>
        <time>2022-07-29T12:17:04Z</time>
      </trkpt>
      <trkpt lat="46.4072" lon="5.69011">
        <ele>647</ele>
        <time>2022-07-29T12:17:05Z</time>
      </trkpt>
      <trkpt lat="46.40723" lon="5.69013">
        <ele>647.4</ele>
        <time>2022-07-29T12:17:06Z</time>
      </trkpt>
      <trkpt lat="46.40726" lon="5.69013">
        <ele>647.6</ele>
        <time>2022-07-29T12:17:07Z</time>
      </trkpt>
      <trkpt lat="46.40729" lon="5.69014">
        <ele>647.6</ele>
        <time>2022-07-29T12:17:08Z</time>
      </trkpt>
      <trkpt lat="46.40731" lon="5.69015">
        <ele>648</ele>
        <time>2022-07-29T12:17:09Z</time>
      </trkpt>
      <trkpt lat="46.40734" lon="5.69017">
        <ele>648.2</ele>
        <time>2022-07-29T12:17:10Z</time>
      </trkpt>
      <trkpt lat="46.40737" lon="5.69018">
        <ele>648.4</ele>
        <time>2022-07-29T12:17:11Z</time>
      </trkpt>
      <trkpt lat="46.40739" lon="5.69019">
        <ele>648.6</ele>
        <time>2022-07-29T12:17:12Z</time>
      </trkpt>
      <trkpt lat="46.40742" lon="5.6902">
        <ele>648.8</ele>
        <time>2022-07-29T12:17:13Z</time>
      </trkpt>
      <trkpt lat="46.40745" lon="5.69021">
        <ele>649</ele>
        <time>2022-07-29T12:17:14Z</time>
      </trkpt>
      <trkpt lat="46.40745" lon="5.69021">
        <ele>649</ele>
        <time>2022-07-29T12:17:15Z</time>
      </trkpt>
      <trkpt lat="46.40747" lon="5.69022">
        <ele>649.4</ele>
        <time>2022-07-29T12:17:16Z</time>
      </trkpt>
      <trkpt lat="46.4075" lon="5.69023">
        <ele>649.4</ele>
        <time>2022-07-29T12:17:17Z</time>
      </trkpt>
      <trkpt lat="46.40752" lon="5.69023">
        <ele>649.8</ele>
        <time>2022-07-29T12:17:18Z</time>
      </trkpt>
      <trkpt lat="46.40755" lon="5.69024">
        <ele>650</ele>
        <time>2022-07-29T12:17:19Z</time>
      </trkpt>
      <trkpt lat="46.40758" lon="5.69024">
        <ele>650</ele>
        <time>2022-07-29T12:17:20Z</time>
      </trkpt>
      <trkpt lat="46.4076" lon="5.69024">
        <ele>650.4</ele>
        <time>2022-07-29T12:17:21Z</time>
      </trkpt>
      <trkpt lat="46.40763" lon="5.69024">
        <ele>650.6</ele>
        <time>2022-07-29T12:17:22Z</time>
      </trkpt>
      <trkpt lat="46.40765" lon="5.69024">
        <ele>650.6</ele>
        <time>2022-07-29T12:17:23Z</time>
      </trkpt>
      <trkpt lat="46.40768" lon="5.69023">
        <ele>651</ele>
        <time>2022-07-29T12:17:24Z</time>
      </trkpt>
      <trkpt lat="46.40771" lon="5.69023">
        <ele>651.2</ele>
        <time>2022-07-29T12:17:25Z</time>
      </trkpt>
      <trkpt lat="46.40773" lon="5.69022">
        <ele>651.4</ele>
        <time>2022-07-29T12:17:26Z</time>
      </trkpt>
      <trkpt lat="46.40776" lon="5.69022">
        <ele>651.6</ele>
        <time>2022-07-29T12:17:27Z</time>
      </trkpt>
      <trkpt lat="46.40778" lon="5.69021">
        <ele>651.6</ele>
        <time>2022-07-29T12:17:28Z</time>
      </trkpt>
      <trkpt lat="46.40781" lon="5.69021">
        <ele>652</ele>
        <time>2022-07-29T12:17:29Z</time>
      </trkpt>
      <trkpt lat="46.40784" lon="5.69021">
        <ele>652.2</ele>
        <time>2022-07-29T12:17:30Z</time>
      </trkpt>
      <trkpt lat="46.40786" lon="5.6902">
        <ele>652.4</ele>
        <time>2022-07-29T12:17:31Z</time>
      </trkpt>
      <trkpt lat="46.40789" lon="5.69019">
        <ele>652.6</ele>
        <time>2022-07-29T12:17:32Z</time>
      </trkpt>
      <trkpt lat="46.40792" lon="5.69017">
        <ele>652.6</ele>
        <time>2022-07-29T12:17:33Z</time>
      </trkpt>
      <trkpt lat="46.40795" lon="5.69016">
        <ele>653</ele>
        <time>2022-07-29T12:17:34Z</time>
      </trkpt>
      <trkpt lat="46.40797" lon="5.69015">
        <ele>653.2</ele>
        <time>2022-07-29T12:17:35Z</time>
      </trkpt>
      <trkpt lat="46.408" lon="5.69015">
        <ele>653.4</ele>
        <time>2022-07-29T12:17:36Z</time>
      </trkpt>
      <trkpt lat="46.40802" lon="5.69015">
        <ele>653.4</ele>
        <time>2022-07-29T12:17:37Z</time>
      </trkpt>
      <trkpt lat="46.40805" lon="5.69015">
        <ele>653.8</ele>
        <time>2022-07-29T12:17:38Z</time>
      </trkpt>
      <trkpt lat="46.40808" lon="5.69015">
        <ele>653.8</ele>
        <time>2022-07-29T12:17:39Z</time>
      </trkpt>
      <trkpt lat="46.4081" lon="5.69015">
        <ele>654.2</ele>
        <time>2022-07-29T12:17:40Z</time>
      </trkpt>
      <trkpt lat="46.40813" lon="5.69016">
        <ele>654.4</ele>
        <time>2022-07-29T12:17:41Z</time>
      </trkpt>
      <trkpt lat="46.40815" lon="5.69016">
        <ele>654.4</ele>
        <time>2022-07-29T12:17:42Z</time>
      </trkpt>
      <trkpt lat="46.40818" lon="5.69018">
        <ele>654.8</ele>
        <time>2022-07-29T12:17:43Z</time>
      </trkpt>
      <trkpt lat="46.40821" lon="5.69019">
        <ele>654.8</ele>
        <time>2022-07-29T12:17:44Z</time>
      </trkpt>
      <trkpt lat="46.40824" lon="5.69021">
        <ele>655</ele>
        <time>2022-07-29T12:17:45Z</time>
      </trkpt>
      <trkpt lat="46.40826" lon="5.69023">
        <ele>655</ele>
        <time>2022-07-29T12:17:46Z</time>
      </trkpt>
      <trkpt lat="46.40829" lon="5.69024">
        <ele>655.4</ele>
        <time>2022-07-29T12:17:47Z</time>
      </trkpt>
      <trkpt lat="46.40832" lon="5.69026">
        <ele>655.6</ele>
        <time>2022-07-29T12:17:48Z</time>
      </trkpt>
      <trkpt lat="46.40834" lon="5.69028">
        <ele>655.6</ele>
        <time>2022-07-29T12:17:49Z</time>
      </trkpt>
      <trkpt lat="46.40837" lon="5.69031">
        <ele>655.8</ele>
        <time>2022-07-29T12:17:50Z</time>
      </trkpt>
      <trkpt lat="46.40839" lon="5.69034">
        <ele>655.8</ele>
        <time>2022-07-29T12:17:51Z</time>
      </trkpt>
      <trkpt lat="46.40841" lon="5.69037">
        <ele>656</ele>
        <time>2022-07-29T12:17:52Z</time>
      </trkpt>
      <trkpt lat="46.40843" lon="5.6904">
        <ele>656.4</ele>
        <time>2022-07-29T12:17:53Z</time>
      </trkpt>
      <trkpt lat="46.40845" lon="5.69044">
        <ele>656.4</ele>
        <time>2022-07-29T12:17:54Z</time>
      </trkpt>
      <trkpt lat="46.40847" lon="5.69047">
        <ele>656.8</ele>
        <time>2022-07-29T12:17:55Z</time>
      </trkpt>
      <trkpt lat="46.40849" lon="5.69049">
        <ele>656.8</ele>
        <time>2022-07-29T12:17:56Z</time>
      </trkpt>
      <trkpt lat="46.40851" lon="5.69052">
        <ele>657</ele>
        <time>2022-07-29T12:17:57Z</time>
      </trkpt>
      <trkpt lat="46.40853" lon="5.69055">
        <ele>657.2</ele>
        <time>2022-07-29T12:17:58Z</time>
      </trkpt>
      <trkpt lat="46.40855" lon="5.69057">
        <ele>657.2</ele>
        <time>2022-07-29T12:17:59Z</time>
      </trkpt>
      <trkpt lat="46.40857" lon="5.6906">
        <ele>657.6</ele>
        <time>2022-07-29T12:18:00Z</time>
      </trkpt>
      <trkpt lat="46.40859" lon="5.69064">
        <ele>657.6</ele>
        <time>2022-07-29T12:18:01Z</time>
      </trkpt>
      <trkpt lat="46.40861" lon="5.69067">
        <ele>657.8</ele>
        <time>2022-07-29T12:18:02Z</time>
      </trkpt>
      <trkpt lat="46.40863" lon="5.69069">
        <ele>658</ele>
        <time>2022-07-29T12:18:03Z</time>
      </trkpt>
      <trkpt lat="46.40865" lon="5.69073">
        <ele>658.4</ele>
        <time>2022-07-29T12:18:04Z</time>
      </trkpt>
      <trkpt lat="46.40867" lon="5.69075">
        <ele>658.6</ele>
        <time>2022-07-29T12:18:05Z</time>
      </trkpt>
      <trkpt lat="46.40869" lon="5.69078">
        <ele>658.6</ele>
        <time>2022-07-29T12:18:06Z</time>
      </trkpt>
      <trkpt lat="46.4087" lon="5.69081">
        <ele>659</ele>
        <time>2022-07-29T12:18:07Z</time>
      </trkpt>
      <trkpt lat="46.40871" lon="5.69085">
        <ele>659</ele>
        <time>2022-07-29T12:18:08Z</time>
      </trkpt>
      <trkpt lat="46.40873" lon="5.69088">
        <ele>659.2</ele>
        <time>2022-07-29T12:18:09Z</time>
      </trkpt>
      <trkpt lat="46.40874" lon="5.69092">
        <ele>659.2</ele>
        <time>2022-07-29T12:18:10Z</time>
      </trkpt>
      <trkpt lat="46.40875" lon="5.69096">
        <ele>659.6</ele>
        <time>2022-07-29T12:18:11Z</time>
      </trkpt>
      <trkpt lat="46.40876" lon="5.691">
        <ele>659.6</ele>
        <time>2022-07-29T12:18:12Z</time>
      </trkpt>
      <trkpt lat="46.40877" lon="5.69104">
        <ele>660</ele>
        <time>2022-07-29T12:18:13Z</time>
      </trkpt>
      <trkpt lat="46.40877" lon="5.69108">
        <ele>660</ele>
        <time>2022-07-29T12:18:14Z</time>
      </trkpt>
      <trkpt lat="46.40878" lon="5.69111">
        <ele>660.4</ele>
        <time>2022-07-29T12:18:15Z</time>
      </trkpt>
      <trkpt lat="46.40878" lon="5.69115">
        <ele>660.4</ele>
        <time>2022-07-29T12:18:16Z</time>
      </trkpt>
      <trkpt lat="46.40878" lon="5.69119">
        <ele>660.6</ele>
        <time>2022-07-29T12:18:17Z</time>
      </trkpt>
      <trkpt lat="46.40878" lon="5.69123">
        <ele>660.6</ele>
        <time>2022-07-29T12:18:18Z</time>
      </trkpt>
      <trkpt lat="46.40878" lon="5.69128">
        <ele>661</ele>
        <time>2022-07-29T12:18:19Z</time>
      </trkpt>
      <trkpt lat="46.40878" lon="5.69132">
        <ele>661</ele>
        <time>2022-07-29T12:18:20Z</time>
      </trkpt>
      <trkpt lat="46.40879" lon="5.69136">
        <ele>661.2</ele>
        <time>2022-07-29T12:18:21Z</time>
      </trkpt>
      <trkpt lat="46.40879" lon="5.69141">
        <ele>661.2</ele>
        <time>2022-07-29T12:18:22Z</time>
      </trkpt>
      <trkpt lat="46.40879" lon="5.69145">
        <ele>661.6</ele>
        <time>2022-07-29T12:18:23Z</time>
      </trkpt>
      <trkpt lat="46.4088" lon="5.69149">
        <ele>661.6</ele>
        <time>2022-07-29T12:18:24Z</time>
      </trkpt>
      <trkpt lat="46.4088" lon="5.69153">
        <ele>662</ele>
        <time>2022-07-29T12:18:25Z</time>
      </trkpt>
      <trkpt lat="46.4088" lon="5.69157">
        <ele>662.2</ele>
        <time>2022-07-29T12:18:26Z</time>
      </trkpt>
      <trkpt lat="46.40881" lon="5.69161">
        <ele>662.2</ele>
        <time>2022-07-29T12:18:27Z</time>
      </trkpt>
      <trkpt lat="46.40881" lon="5.69165">
        <ele>662.2</ele>
        <time>2022-07-29T12:18:28Z</time>
      </trkpt>
      <trkpt lat="46.40881" lon="5.69169">
        <ele>662.4</ele>
        <time>2022-07-29T12:18:29Z</time>
      </trkpt>
      <trkpt lat="46.40881" lon="5.69174">
        <ele>662.4</ele>
        <time>2022-07-29T12:18:30Z</time>
      </trkpt>
      <trkpt lat="46.40882" lon="5.69178">
        <ele>662.6</ele>
        <time>2022-07-29T12:18:31Z</time>
      </trkpt>
      <trkpt lat="46.40882" lon="5.69182">
        <ele>662.6</ele>
        <time>2022-07-29T12:18:32Z</time>
      </trkpt>
      <trkpt lat="46.40882" lon="5.69187">
        <ele>663</ele>
        <time>2022-07-29T12:18:33Z</time>
      </trkpt>
      <trkpt lat="46.40882" lon="5.69192">
        <ele>663</ele>
        <time>2022-07-29T12:18:34Z</time>
      </trkpt>
      <trkpt lat="46.40881" lon="5.69197">
        <ele>663</ele>
        <time>2022-07-29T12:18:35Z</time>
      </trkpt>
      <trkpt lat="46.40881" lon="5.69202">
        <ele>663.2</ele>
        <time>2022-07-29T12:18:36Z</time>
      </trkpt>
      <trkpt lat="46.40881" lon="5.69207">
        <ele>663.2</ele>
        <time>2022-07-29T12:18:37Z</time>
      </trkpt>
      <trkpt lat="46.4088" lon="5.69212">
        <ele>663.2</ele>
        <time>2022-07-29T12:18:38Z</time>
      </trkpt>
      <trkpt lat="46.4088" lon="5.69217">
        <ele>663.6</ele>
        <time>2022-07-29T12:18:39Z</time>
      </trkpt>
      <trkpt lat="46.40879" lon="5.69221">
        <ele>663.8</ele>
        <time>2022-07-29T12:18:40Z</time>
      </trkpt>
      <trkpt lat="46.40878" lon="5.69226">
        <ele>663.8</ele>
        <time>2022-07-29T12:18:41Z</time>
      </trkpt>
      <trkpt lat="46.40877" lon="5.6923">
        <ele>664</ele>
        <time>2022-07-29T12:18:42Z</time>
      </trkpt>
      <trkpt lat="46.40876" lon="5.69235">
        <ele>664</ele>
        <time>2022-07-29T12:18:43Z</time>
      </trkpt>
      <trkpt lat="46.40875" lon="5.69239">
        <ele>664.2</ele>
        <time>2022-07-29T12:18:44Z</time>
      </trkpt>
      <trkpt lat="46.40874" lon="5.69244">
        <ele>664.2</ele>
        <time>2022-07-29T12:18:45Z</time>
      </trkpt>
      <trkpt lat="46.40873" lon="5.69248">
        <ele>664.4</ele>
        <time>2022-07-29T12:18:46Z</time>
      </trkpt>
      <trkpt lat="46.40872" lon="5.69253">
        <ele>664.4</ele>
        <time>2022-07-29T12:18:47Z</time>
      </trkpt>
      <trkpt lat="46.40871" lon="5.69257">
        <ele>664.8</ele>
        <time>2022-07-29T12:18:48Z</time>
      </trkpt>
      <trkpt lat="46.4087" lon="5.69261">
        <ele>664.8</ele>
        <time>2022-07-29T12:18:49Z</time>
      </trkpt>
      <trkpt lat="46.40869" lon="5.69265">
        <ele>664.8</ele>
        <time>2022-07-29T12:18:50Z</time>
      </trkpt>
      <trkpt lat="46.40867" lon="5.69269">
        <ele>665.2</ele>
        <time>2022-07-29T12:18:51Z</time>
      </trkpt>
      <trkpt lat="46.40867" lon="5.69274">
        <ele>665.2</ele>
        <time>2022-07-29T12:18:52Z</time>
      </trkpt>
      <trkpt lat="46.40866" lon="5.69278">
        <ele>665.4</ele>
        <time>2022-07-29T12:18:53Z</time>
      </trkpt>
      <trkpt lat="46.40865" lon="5.69282">
        <ele>665.4</ele>
        <time>2022-07-29T12:18:54Z</time>
      </trkpt>
      <trkpt lat="46.40865" lon="5.69286">
        <ele>665.6</ele>
        <time>2022-07-29T12:18:55Z</time>
      </trkpt>
      <trkpt lat="46.40865" lon="5.69289">
        <ele>665.6</ele>
        <time>2022-07-29T12:18:56Z</time>
      </trkpt>
      <trkpt lat="46.40865" lon="5.69293">
        <ele>666</ele>
        <time>2022-07-29T12:18:57Z</time>
      </trkpt>
      <trkpt lat="46.40864" lon="5.69297">
        <ele>666</ele>
        <time>2022-07-29T12:18:58Z</time>
      </trkpt>
      <trkpt lat="46.40864" lon="5.69302">
        <ele>666.2</ele>
        <time>2022-07-29T12:18:59Z</time>
      </trkpt>
      <trkpt lat="46.40863" lon="5.69306">
        <ele>666.2</ele>
        <time>2022-07-29T12:19:00Z</time>
      </trkpt>
      <trkpt lat="46.40862" lon="5.69311">
        <ele>666.2</ele>
        <time>2022-07-29T12:19:01Z</time>
      </trkpt>
      <trkpt lat="46.40861" lon="5.69316">
        <ele>666.6</ele>
        <time>2022-07-29T12:19:02Z</time>
      </trkpt>
      <trkpt lat="46.40861" lon="5.69321">
        <ele>666.6</ele>
        <time>2022-07-29T12:19:03Z</time>
      </trkpt>
      <trkpt lat="46.4086" lon="5.69326">
        <ele>667</ele>
        <time>2022-07-29T12:19:04Z</time>
      </trkpt>
      <trkpt lat="46.4086" lon="5.69331">
        <ele>667</ele>
        <time>2022-07-29T12:19:05Z</time>
      </trkpt>
      <trkpt lat="46.40859" lon="5.69342">
        <ele>667.2</ele>
        <time>2022-07-29T12:19:06Z</time>
      </trkpt>
      <trkpt lat="46.40859" lon="5.69347">
        <ele>667.6</ele>
        <time>2022-07-29T12:19:07Z</time>
      </trkpt>
      <trkpt lat="46.40859" lon="5.69352">
        <ele>667.6</ele>
        <time>2022-07-29T12:19:08Z</time>
      </trkpt>
      <trkpt lat="46.40859" lon="5.69357">
        <ele>667.8</ele>
        <time>2022-07-29T12:19:09Z</time>
      </trkpt>
      <trkpt lat="46.40859" lon="5.69362">
        <ele>667.8</ele>
        <time>2022-07-29T12:19:10Z</time>
      </trkpt>
      <trkpt lat="46.40859" lon="5.69368">
        <ele>668</ele>
        <time>2022-07-29T12:19:11Z</time>
      </trkpt>
      <trkpt lat="46.40861" lon="5.69373">
        <ele>668</ele>
        <time>2022-07-29T12:19:12Z</time>
      </trkpt>
      <trkpt lat="46.40862" lon="5.69378">
        <ele>668.4</ele>
        <time>2022-07-29T12:19:13Z</time>
      </trkpt>
      <trkpt lat="46.40864" lon="5.69383">
        <ele>668.4</ele>
        <time>2022-07-29T12:19:14Z</time>
      </trkpt>
      <trkpt lat="46.40866" lon="5.69387">
        <ele>668.6</ele>
        <time>2022-07-29T12:19:15Z</time>
      </trkpt>
      <trkpt lat="46.40868" lon="5.69391">
        <ele>668.6</ele>
        <time>2022-07-29T12:19:16Z</time>
      </trkpt>
      <trkpt lat="46.40871" lon="5.69394">
        <ele>669</ele>
        <time>2022-07-29T12:19:17Z</time>
      </trkpt>
      <trkpt lat="46.40873" lon="5.69396">
        <ele>669</ele>
        <time>2022-07-29T12:19:18Z</time>
      </trkpt>
      <trkpt lat="46.40875" lon="5.69399">
        <ele>669.6</ele>
        <time>2022-07-29T12:19:19Z</time>
      </trkpt>
      <trkpt lat="46.40878" lon="5.69402">
        <ele>669.6</ele>
        <time>2022-07-29T12:19:20Z</time>
      </trkpt>
      <trkpt lat="46.4088" lon="5.69405">
        <ele>670</ele>
        <time>2022-07-29T12:19:21Z</time>
      </trkpt>
      <trkpt lat="46.40883" lon="5.69408">
        <ele>670</ele>
        <time>2022-07-29T12:19:22Z</time>
      </trkpt>
      <trkpt lat="46.40885" lon="5.69411">
        <ele>670.2</ele>
        <time>2022-07-29T12:19:23Z</time>
      </trkpt>
      <trkpt lat="46.40888" lon="5.69414">
        <ele>670.2</ele>
        <time>2022-07-29T12:19:24Z</time>
      </trkpt>
      <trkpt lat="46.4089" lon="5.69417">
        <ele>670.2</ele>
        <time>2022-07-29T12:19:25Z</time>
      </trkpt>
      <trkpt lat="46.40892" lon="5.69421">
        <ele>670.6</ele>
        <time>2022-07-29T12:19:26Z</time>
      </trkpt>
      <trkpt lat="46.40895" lon="5.69425">
        <ele>670.6</ele>
        <time>2022-07-29T12:19:27Z</time>
      </trkpt>
      <trkpt lat="46.40897" lon="5.69428">
        <ele>670.8</ele>
        <time>2022-07-29T12:19:28Z</time>
      </trkpt>
      <trkpt lat="46.40899" lon="5.69433">
        <ele>670.8</ele>
        <time>2022-07-29T12:19:29Z</time>
      </trkpt>
      <trkpt lat="46.409" lon="5.69437">
        <ele>671</ele>
        <time>2022-07-29T12:19:30Z</time>
      </trkpt>
      <trkpt lat="46.40902" lon="5.69441">
        <ele>671</ele>
        <time>2022-07-29T12:19:31Z</time>
      </trkpt>
      <trkpt lat="46.40903" lon="5.69445">
        <ele>671.4</ele>
        <time>2022-07-29T12:19:32Z</time>
      </trkpt>
      <trkpt lat="46.40904" lon="5.6945">
        <ele>671.4</ele>
        <time>2022-07-29T12:19:33Z</time>
      </trkpt>
      <trkpt lat="46.40904" lon="5.69454">
        <ele>671.8</ele>
        <time>2022-07-29T12:19:34Z</time>
      </trkpt>
      <trkpt lat="46.40904" lon="5.69458">
        <ele>671.8</ele>
        <time>2022-07-29T12:19:35Z</time>
      </trkpt>
      <trkpt lat="46.40904" lon="5.69462">
        <ele>672.2</ele>
        <time>2022-07-29T12:19:36Z</time>
      </trkpt>
      <trkpt lat="46.40904" lon="5.69466">
        <ele>672.2</ele>
        <time>2022-07-29T12:19:37Z</time>
      </trkpt>
      <trkpt lat="46.40904" lon="5.6947">
        <ele>672.4</ele>
        <time>2022-07-29T12:19:38Z</time>
      </trkpt>
      <trkpt lat="46.40904" lon="5.69474">
        <ele>672.4</ele>
        <time>2022-07-29T12:19:39Z</time>
      </trkpt>
      <trkpt lat="46.40904" lon="5.69478">
        <ele>672.8</ele>
        <time>2022-07-29T12:19:40Z</time>
      </trkpt>
      <trkpt lat="46.40904" lon="5.69482">
        <ele>672.8</ele>
        <time>2022-07-29T12:19:41Z</time>
      </trkpt>
      <trkpt lat="46.40904" lon="5.69486">
        <ele>673</ele>
        <time>2022-07-29T12:19:42Z</time>
      </trkpt>
      <trkpt lat="46.40904" lon="5.6949">
        <ele>673</ele>
        <time>2022-07-29T12:19:43Z</time>
      </trkpt>
      <trkpt lat="46.40904" lon="5.69495">
        <ele>673.4</ele>
        <time>2022-07-29T12:19:44Z</time>
      </trkpt>
      <trkpt lat="46.40904" lon="5.695">
        <ele>673.4</ele>
        <time>2022-07-29T12:19:45Z</time>
      </trkpt>
      <trkpt lat="46.40903" lon="5.69504">
        <ele>673.6</ele>
        <time>2022-07-29T12:19:46Z</time>
      </trkpt>
      <trkpt lat="46.40903" lon="5.69509">
        <ele>673.6</ele>
        <time>2022-07-29T12:19:47Z</time>
      </trkpt>
      <trkpt lat="46.40903" lon="5.69513">
        <ele>674</ele>
        <time>2022-07-29T12:19:48Z</time>
      </trkpt>
      <trkpt lat="46.40904" lon="5.69518">
        <ele>674</ele>
        <time>2022-07-29T12:19:49Z</time>
      </trkpt>
      <trkpt lat="46.40904" lon="5.69522">
        <ele>674</ele>
        <time>2022-07-29T12:19:50Z</time>
      </trkpt>
      <trkpt lat="46.40904" lon="5.69527">
        <ele>674.4</ele>
        <time>2022-07-29T12:19:51Z</time>
      </trkpt>
      <trkpt lat="46.40905" lon="5.69532">
        <ele>674.4</ele>
        <time>2022-07-29T12:19:52Z</time>
      </trkpt>
      <trkpt lat="46.40905" lon="5.69537">
        <ele>674.8</ele>
        <time>2022-07-29T12:19:53Z</time>
      </trkpt>
      <trkpt lat="46.40905" lon="5.69542">
        <ele>674.8</ele>
        <time>2022-07-29T12:19:54Z</time>
      </trkpt>
      <trkpt lat="46.40905" lon="5.69547">
        <ele>675.2</ele>
        <time>2022-07-29T12:19:55Z</time>
      </trkpt>
      <trkpt lat="46.40906" lon="5.69553">
        <ele>675.2</ele>
        <time>2022-07-29T12:19:56Z</time>
      </trkpt>
      <trkpt lat="46.40908" lon="5.69558">
        <ele>675.4</ele>
        <time>2022-07-29T12:19:57Z</time>
      </trkpt>
      <trkpt lat="46.40909" lon="5.69563">
        <ele>675.4</ele>
        <time>2022-07-29T12:19:58Z</time>
      </trkpt>
      <trkpt lat="46.40912" lon="5.69567">
        <ele>675.8</ele>
        <time>2022-07-29T12:19:59Z</time>
      </trkpt>
      <trkpt lat="46.40913" lon="5.69572">
        <ele>675.8</ele>
        <time>2022-07-29T12:20:00Z</time>
      </trkpt>
      <trkpt lat="46.40915" lon="5.69576">
        <ele>676</ele>
        <time>2022-07-29T12:20:01Z</time>
      </trkpt>
      <trkpt lat="46.40917" lon="5.6958">
        <ele>676</ele>
        <time>2022-07-29T12:20:02Z</time>
      </trkpt>
      <trkpt lat="46.40918" lon="5.69585">
        <ele>676.4</ele>
        <time>2022-07-29T12:20:03Z</time>
      </trkpt>
      <trkpt lat="46.4092" lon="5.6959">
        <ele>676.4</ele>
        <time>2022-07-29T12:20:04Z</time>
      </trkpt>
      <trkpt lat="46.40922" lon="5.69594">
        <ele>676.6</ele>
        <time>2022-07-29T12:20:05Z</time>
      </trkpt>
      <trkpt lat="46.40923" lon="5.69598">
        <ele>676.6</ele>
        <time>2022-07-29T12:20:06Z</time>
      </trkpt>
      <trkpt lat="46.40925" lon="5.69603">
        <ele>677</ele>
        <time>2022-07-29T12:20:07Z</time>
      </trkpt>
      <trkpt lat="46.40926" lon="5.69608">
        <ele>677</ele>
        <time>2022-07-29T12:20:08Z</time>
      </trkpt>
      <trkpt lat="46.40927" lon="5.69613">
        <ele>677.4</ele>
        <time>2022-07-29T12:20:09Z</time>
      </trkpt>
      <trkpt lat="46.40928" lon="5.69617">
        <ele>677.4</ele>
        <time>2022-07-29T12:20:10Z</time>
      </trkpt>
      <trkpt lat="46.40929" lon="5.69622">
        <ele>677.6</ele>
        <time>2022-07-29T12:20:11Z</time>
      </trkpt>
      <trkpt lat="46.4093" lon="5.69627">
        <ele>677.6</ele>
        <time>2022-07-29T12:20:12Z</time>
      </trkpt>
      <trkpt lat="46.40931" lon="5.69632">
        <ele>677.8</ele>
        <time>2022-07-29T12:20:13Z</time>
      </trkpt>
      <trkpt lat="46.40932" lon="5.69636">
        <ele>677.8</ele>
        <time>2022-07-29T12:20:14Z</time>
      </trkpt>
      <trkpt lat="46.40932" lon="5.69641">
        <ele>678</ele>
        <time>2022-07-29T12:20:15Z</time>
      </trkpt>
      <trkpt lat="46.40933" lon="5.69646">
        <ele>678.4</ele>
        <time>2022-07-29T12:20:16Z</time>
      </trkpt>
      <trkpt lat="46.40935" lon="5.6965">
        <ele>678.6</ele>
        <time>2022-07-29T12:20:17Z</time>
      </trkpt>
      <trkpt lat="46.40936" lon="5.69654">
        <ele>678.6</ele>
        <time>2022-07-29T12:20:18Z</time>
      </trkpt>
      <trkpt lat="46.40937" lon="5.69658">
        <ele>679</ele>
        <time>2022-07-29T12:20:19Z</time>
      </trkpt>
      <trkpt lat="46.40939" lon="5.69662">
        <ele>679</ele>
        <time>2022-07-29T12:20:20Z</time>
      </trkpt>
      <trkpt lat="46.40941" lon="5.69665">
        <ele>679.2</ele>
        <time>2022-07-29T12:20:21Z</time>
      </trkpt>
      <trkpt lat="46.40943" lon="5.69669">
        <ele>679.2</ele>
        <time>2022-07-29T12:20:22Z</time>
      </trkpt>
      <trkpt lat="46.40945" lon="5.69672">
        <ele>679.6</ele>
        <time>2022-07-29T12:20:23Z</time>
      </trkpt>
      <trkpt lat="46.40947" lon="5.69676">
        <ele>679.6</ele>
        <time>2022-07-29T12:20:24Z</time>
      </trkpt>
      <trkpt lat="46.4095" lon="5.69679">
        <ele>679.8</ele>
        <time>2022-07-29T12:20:25Z</time>
      </trkpt>
      <trkpt lat="46.40952" lon="5.69683">
        <ele>679.8</ele>
        <time>2022-07-29T12:20:26Z</time>
      </trkpt>
      <trkpt lat="46.40955" lon="5.69686">
        <ele>680</ele>
        <time>2022-07-29T12:20:27Z</time>
      </trkpt>
      <trkpt lat="46.40958" lon="5.69689">
        <ele>680</ele>
        <time>2022-07-29T12:20:28Z</time>
      </trkpt>
      <trkpt lat="46.40961" lon="5.69692">
        <ele>680.4</ele>
        <time>2022-07-29T12:20:29Z</time>
      </trkpt>
      <trkpt lat="46.40964" lon="5.69695">
        <ele>680.4</ele>
        <time>2022-07-29T12:20:30Z</time>
      </trkpt>
      <trkpt lat="46.40967" lon="5.69698">
        <ele>680.6</ele>
        <time>2022-07-29T12:20:31Z</time>
      </trkpt>
      <trkpt lat="46.4097" lon="5.69701">
        <ele>680.6</ele>
        <time>2022-07-29T12:20:32Z</time>
      </trkpt>
      <trkpt lat="46.40973" lon="5.69704">
        <ele>681</ele>
        <time>2022-07-29T12:20:33Z</time>
      </trkpt>
      <trkpt lat="46.40975" lon="5.69708">
        <ele>681.2</ele>
        <time>2022-07-29T12:20:34Z</time>
      </trkpt>
      <trkpt lat="46.40978" lon="5.69712">
        <ele>681.2</ele>
        <time>2022-07-29T12:20:35Z</time>
      </trkpt>
      <trkpt lat="46.4098" lon="5.69716">
        <ele>681.4</ele>
        <time>2022-07-29T12:20:36Z</time>
      </trkpt>
      <trkpt lat="46.40981" lon="5.69721">
        <ele>681.4</ele>
        <time>2022-07-29T12:20:37Z</time>
      </trkpt>
      <trkpt lat="46.40983" lon="5.69725">
        <ele>681.8</ele>
        <time>2022-07-29T12:20:38Z</time>
      </trkpt>
      <trkpt lat="46.40985" lon="5.69729">
        <ele>682</ele>
        <time>2022-07-29T12:20:39Z</time>
      </trkpt>
      <trkpt lat="46.40987" lon="5.69733">
        <ele>682</ele>
        <time>2022-07-29T12:20:40Z</time>
      </trkpt>
      <trkpt lat="46.40989" lon="5.69737">
        <ele>682.4</ele>
        <time>2022-07-29T12:20:41Z</time>
      </trkpt>
      <trkpt lat="46.40991" lon="5.69742">
        <ele>682.4</ele>
        <time>2022-07-29T12:20:42Z</time>
      </trkpt>
      <trkpt lat="46.40992" lon="5.69747">
        <ele>682.8</ele>
        <time>2022-07-29T12:20:43Z</time>
      </trkpt>
      <trkpt lat="46.40994" lon="5.69752">
        <ele>683</ele>
        <time>2022-07-29T12:20:44Z</time>
      </trkpt>
      <trkpt lat="46.40995" lon="5.69756">
        <ele>683.2</ele>
        <time>2022-07-29T12:20:45Z</time>
      </trkpt>
      <trkpt lat="46.40997" lon="5.6976">
        <ele>683.2</ele>
        <time>2022-07-29T12:20:46Z</time>
      </trkpt>
      <trkpt lat="46.40999" lon="5.69764">
        <ele>683.6</ele>
        <time>2022-07-29T12:20:47Z</time>
      </trkpt>
      <trkpt lat="46.41001" lon="5.69768">
        <ele>683.6</ele>
        <time>2022-07-29T12:20:48Z</time>
      </trkpt>
      <trkpt lat="46.41002" lon="5.69771">
        <ele>684</ele>
        <time>2022-07-29T12:20:49Z</time>
      </trkpt>
      <trkpt lat="46.41004" lon="5.69775">
        <ele>684</ele>
        <time>2022-07-29T12:20:50Z</time>
      </trkpt>
      <trkpt lat="46.41005" lon="5.69779">
        <ele>684.4</ele>
        <time>2022-07-29T12:20:51Z</time>
      </trkpt>
      <trkpt lat="46.41007" lon="5.69783">
        <ele>684.6</ele>
        <time>2022-07-29T12:20:52Z</time>
      </trkpt>
      <trkpt lat="46.41008" lon="5.69786">
        <ele>684.8</ele>
        <time>2022-07-29T12:20:53Z</time>
      </trkpt>
      <trkpt lat="46.4101" lon="5.69789">
        <ele>684.8</ele>
        <time>2022-07-29T12:20:54Z</time>
      </trkpt>
      <trkpt lat="46.41012" lon="5.69793">
        <ele>685.2</ele>
        <time>2022-07-29T12:20:55Z</time>
      </trkpt>
      <trkpt lat="46.41013" lon="5.69797">
        <ele>685.2</ele>
        <time>2022-07-29T12:20:56Z</time>
      </trkpt>
      <trkpt lat="46.41015" lon="5.69801">
        <ele>685.6</ele>
        <time>2022-07-29T12:20:57Z</time>
      </trkpt>
      <trkpt lat="46.41016" lon="5.69805">
        <ele>685.8</ele>
        <time>2022-07-29T12:20:58Z</time>
      </trkpt>
      <trkpt lat="46.41017" lon="5.69809">
        <ele>685.8</ele>
        <time>2022-07-29T12:20:59Z</time>
      </trkpt>
      <trkpt lat="46.41019" lon="5.69813">
        <ele>686</ele>
        <time>2022-07-29T12:21:00Z</time>
      </trkpt>
      <trkpt lat="46.41021" lon="5.69817">
        <ele>686.4</ele>
        <time>2022-07-29T12:21:01Z</time>
      </trkpt>
      <trkpt lat="46.41023" lon="5.69821">
        <ele>686.4</ele>
        <time>2022-07-29T12:21:02Z</time>
      </trkpt>
      <trkpt lat="46.41024" lon="5.69825">
        <ele>686.6</ele>
        <time>2022-07-29T12:21:03Z</time>
      </trkpt>
      <trkpt lat="46.41026" lon="5.69828">
        <ele>686.6</ele>
        <time>2022-07-29T12:21:04Z</time>
      </trkpt>
      <trkpt lat="46.41026" lon="5.69828">
        <ele>686.8</ele>
        <time>2022-07-29T12:21:05Z</time>
      </trkpt>
      <trkpt lat="46.41028" lon="5.69832">
        <ele>687</ele>
        <time>2022-07-29T12:21:06Z</time>
      </trkpt>
      <trkpt lat="46.4103" lon="5.69836">
        <ele>687</ele>
        <time>2022-07-29T12:21:07Z</time>
      </trkpt>
      <trkpt lat="46.41032" lon="5.69839">
        <ele>687.4</ele>
        <time>2022-07-29T12:21:08Z</time>
      </trkpt>
      <trkpt lat="46.41035" lon="5.69842">
        <ele>687.6</ele>
        <time>2022-07-29T12:21:09Z</time>
      </trkpt>
      <trkpt lat="46.41037" lon="5.69846">
        <ele>687.6</ele>
        <time>2022-07-29T12:21:10Z</time>
      </trkpt>
      <trkpt lat="46.41039" lon="5.69849">
        <ele>688</ele>
        <time>2022-07-29T12:21:11Z</time>
      </trkpt>
      <trkpt lat="46.41042" lon="5.69852">
        <ele>688</ele>
        <time>2022-07-29T12:21:12Z</time>
      </trkpt>
      <trkpt lat="46.41044" lon="5.69855">
        <ele>688.4</ele>
        <time>2022-07-29T12:21:13Z</time>
      </trkpt>
      <trkpt lat="46.41046" lon="5.69858">
        <ele>688.4</ele>
        <time>2022-07-29T12:21:14Z</time>
      </trkpt>
      <trkpt lat="46.41049" lon="5.6986">
        <ele>688.6</ele>
        <time>2022-07-29T12:21:15Z</time>
      </trkpt>
      <trkpt lat="46.41051" lon="5.69862">
        <ele>688.6</ele>
        <time>2022-07-29T12:21:16Z</time>
      </trkpt>
      <trkpt lat="46.41054" lon="5.69864">
        <ele>688.8</ele>
        <time>2022-07-29T12:21:17Z</time>
      </trkpt>
      <trkpt lat="46.41057" lon="5.69866">
        <ele>688.8</ele>
        <time>2022-07-29T12:21:18Z</time>
      </trkpt>
      <trkpt lat="46.41061" lon="5.69867">
        <ele>689.2</ele>
        <time>2022-07-29T12:21:19Z</time>
      </trkpt>
      <trkpt lat="46.41064" lon="5.69867">
        <ele>689.2</ele>
        <time>2022-07-29T12:21:20Z</time>
      </trkpt>
      <trkpt lat="46.41067" lon="5.69868">
        <ele>689.6</ele>
        <time>2022-07-29T12:21:21Z</time>
      </trkpt>
      <trkpt lat="46.41069" lon="5.69869">
        <ele>689.8</ele>
        <time>2022-07-29T12:21:22Z</time>
      </trkpt>
      <trkpt lat="46.41073" lon="5.69869">
        <ele>689.8</ele>
        <time>2022-07-29T12:21:23Z</time>
      </trkpt>
      <trkpt lat="46.41076" lon="5.69869">
        <ele>690.2</ele>
        <time>2022-07-29T12:21:24Z</time>
      </trkpt>
      <trkpt lat="46.4108" lon="5.69869">
        <ele>690.2</ele>
        <time>2022-07-29T12:21:25Z</time>
      </trkpt>
      <trkpt lat="46.41083" lon="5.69869">
        <ele>690.4</ele>
        <time>2022-07-29T12:21:26Z</time>
      </trkpt>
      <trkpt lat="46.41086" lon="5.69869">
        <ele>690.4</ele>
        <time>2022-07-29T12:21:27Z</time>
      </trkpt>
      <trkpt lat="46.4109" lon="5.69869">
        <ele>690.8</ele>
        <time>2022-07-29T12:21:28Z</time>
      </trkpt>
      <trkpt lat="46.41094" lon="5.69869">
        <ele>690.8</ele>
        <time>2022-07-29T12:21:29Z</time>
      </trkpt>
      <trkpt lat="46.41098" lon="5.6987">
        <ele>691</ele>
        <time>2022-07-29T12:21:30Z</time>
      </trkpt>
      <trkpt lat="46.41101" lon="5.6987">
        <ele>691</ele>
        <time>2022-07-29T12:21:31Z</time>
      </trkpt>
      <trkpt lat="46.41105" lon="5.69871">
        <ele>691.2</ele>
        <time>2022-07-29T12:21:32Z</time>
      </trkpt>
      <trkpt lat="46.41108" lon="5.69873">
        <ele>691.2</ele>
        <time>2022-07-29T12:21:33Z</time>
      </trkpt>
      <trkpt lat="46.41112" lon="5.69877">
        <ele>691.6</ele>
        <time>2022-07-29T12:21:34Z</time>
      </trkpt>
      <trkpt lat="46.41115" lon="5.6988">
        <ele>691.6</ele>
        <time>2022-07-29T12:21:35Z</time>
      </trkpt>
      <trkpt lat="46.41118" lon="5.69884">
        <ele>691.8</ele>
        <time>2022-07-29T12:21:36Z</time>
      </trkpt>
      <trkpt lat="46.4112" lon="5.69889">
        <ele>692</ele>
        <time>2022-07-29T12:21:37Z</time>
      </trkpt>
      <trkpt lat="46.41122" lon="5.69893">
        <ele>692.4</ele>
        <time>2022-07-29T12:21:38Z</time>
      </trkpt>
      <trkpt lat="46.41123" lon="5.69898">
        <ele>692.6</ele>
        <time>2022-07-29T12:21:39Z</time>
      </trkpt>
      <trkpt lat="46.41123" lon="5.69903">
        <ele>692.8</ele>
        <time>2022-07-29T12:21:40Z</time>
      </trkpt>
      <trkpt lat="46.41124" lon="5.69908">
        <ele>693.2</ele>
        <time>2022-07-29T12:21:41Z</time>
      </trkpt>
      <trkpt lat="46.41125" lon="5.69911">
        <ele>693.4</ele>
        <time>2022-07-29T12:21:42Z</time>
      </trkpt>
      <trkpt lat="46.41125" lon="5.69914">
        <ele>693.6</ele>
        <time>2022-07-29T12:21:43Z</time>
      </trkpt>
      <trkpt lat="46.41125" lon="5.69917">
        <ele>693.8</ele>
        <time>2022-07-29T12:21:44Z</time>
      </trkpt>
      <trkpt lat="46.41126" lon="5.6992">
        <ele>693.8</ele>
        <time>2022-07-29T12:21:45Z</time>
      </trkpt>
      <trkpt lat="46.41126" lon="5.69923">
        <ele>694.2</ele>
        <time>2022-07-29T12:21:46Z</time>
      </trkpt>
      <trkpt lat="46.41126" lon="5.69927">
        <ele>694.2</ele>
        <time>2022-07-29T12:21:47Z</time>
      </trkpt>
      <trkpt lat="46.41126" lon="5.69932">
        <ele>694.6</ele>
        <time>2022-07-29T12:21:48Z</time>
      </trkpt>
      <trkpt lat="46.41126" lon="5.69936">
        <ele>694.6</ele>
        <time>2022-07-29T12:21:49Z</time>
      </trkpt>
      <trkpt lat="46.41126" lon="5.6994">
        <ele>694.8</ele>
        <time>2022-07-29T12:21:50Z</time>
      </trkpt>
      <trkpt lat="46.41125" lon="5.69944">
        <ele>695</ele>
        <time>2022-07-29T12:21:51Z</time>
      </trkpt>
      <trkpt lat="46.41125" lon="5.69948">
        <ele>695</ele>
        <time>2022-07-29T12:21:52Z</time>
      </trkpt>
      <trkpt lat="46.41125" lon="5.69953">
        <ele>695.4</ele>
        <time>2022-07-29T12:21:53Z</time>
      </trkpt>
      <trkpt lat="46.41126" lon="5.69956">
        <ele>695.4</ele>
        <time>2022-07-29T12:21:54Z</time>
      </trkpt>
      <trkpt lat="46.41126" lon="5.6996">
        <ele>695.6</ele>
        <time>2022-07-29T12:21:55Z</time>
      </trkpt>
      <trkpt lat="46.41126" lon="5.69963">
        <ele>695.6</ele>
        <time>2022-07-29T12:21:56Z</time>
      </trkpt>
      <trkpt lat="46.41125" lon="5.69966">
        <ele>696</ele>
        <time>2022-07-29T12:21:57Z</time>
      </trkpt>
      <trkpt lat="46.41125" lon="5.6997">
        <ele>696</ele>
        <time>2022-07-29T12:21:58Z</time>
      </trkpt>
      <trkpt lat="46.41125" lon="5.69973">
        <ele>696.4</ele>
        <time>2022-07-29T12:21:59Z</time>
      </trkpt>
      <trkpt lat="46.41126" lon="5.69976">
        <ele>696.4</ele>
        <time>2022-07-29T12:22:00Z</time>
      </trkpt>
      <trkpt lat="46.41126" lon="5.6998">
        <ele>696.6</ele>
        <time>2022-07-29T12:22:01Z</time>
      </trkpt>
      <trkpt lat="46.41126" lon="5.69984">
        <ele>696.6</ele>
        <time>2022-07-29T12:22:02Z</time>
      </trkpt>
      <trkpt lat="46.41126" lon="5.69988">
        <ele>696.6</ele>
        <time>2022-07-29T12:22:03Z</time>
      </trkpt>
      <trkpt lat="46.41126" lon="5.69992">
        <ele>696.8</ele>
        <time>2022-07-29T12:22:04Z</time>
      </trkpt>
      <trkpt lat="46.41127" lon="5.69996">
        <ele>696.8</ele>
        <time>2022-07-29T12:22:05Z</time>
      </trkpt>
      <trkpt lat="46.41128" lon="5.7">
        <ele>696.8</ele>
        <time>2022-07-29T12:22:06Z</time>
      </trkpt>
      <trkpt lat="46.41129" lon="5.70004">
        <ele>696.8</ele>
        <time>2022-07-29T12:22:07Z</time>
      </trkpt>
      <trkpt lat="46.41129" lon="5.70009">
        <ele>696.8</ele>
        <time>2022-07-29T12:22:08Z</time>
      </trkpt>
      <trkpt lat="46.4113" lon="5.70014">
        <ele>696.6</ele>
        <time>2022-07-29T12:22:09Z</time>
      </trkpt>
      <trkpt lat="46.4113" lon="5.7002">
        <ele>696.6</ele>
        <time>2022-07-29T12:22:10Z</time>
      </trkpt>
      <trkpt lat="46.41131" lon="5.70026">
        <ele>696</ele>
        <time>2022-07-29T12:22:11Z</time>
      </trkpt>
      <trkpt lat="46.41132" lon="5.70033">
        <ele>695.8</ele>
        <time>2022-07-29T12:22:12Z</time>
      </trkpt>
      <trkpt lat="46.41133" lon="5.70041">
        <ele>695.4</ele>
        <time>2022-07-29T12:22:13Z</time>
      </trkpt>
      <trkpt lat="46.41133" lon="5.70049">
        <ele>695</ele>
        <time>2022-07-29T12:22:14Z</time>
      </trkpt>
      <trkpt lat="46.41134" lon="5.70058">
        <ele>694.8</ele>
        <time>2022-07-29T12:22:15Z</time>
      </trkpt>
      <trkpt lat="46.41136" lon="5.70068">
        <ele>694.4</ele>
        <time>2022-07-29T12:22:16Z</time>
      </trkpt>
      <trkpt lat="46.41137" lon="5.70078">
        <ele>694</ele>
        <time>2022-07-29T12:22:17Z</time>
      </trkpt>
      <trkpt lat="46.41138" lon="5.70088">
        <ele>694</ele>
        <time>2022-07-29T12:22:18Z</time>
      </trkpt>
      <trkpt lat="46.4114" lon="5.70097">
        <ele>693.8</ele>
        <time>2022-07-29T12:22:19Z</time>
      </trkpt>
      <trkpt lat="46.41141" lon="5.70105">
        <ele>693.8</ele>
        <time>2022-07-29T12:22:20Z</time>
      </trkpt>
      <trkpt lat="46.41142" lon="5.70114">
        <ele>693.8</ele>
        <time>2022-07-29T12:22:21Z</time>
      </trkpt>
      <trkpt lat="46.41143" lon="5.70122">
        <ele>693.8</ele>
        <time>2022-07-29T12:22:22Z</time>
      </trkpt>
      <trkpt lat="46.41144" lon="5.7013">
        <ele>693.8</ele>
        <time>2022-07-29T12:22:23Z</time>
      </trkpt>
      <trkpt lat="46.41144" lon="5.70138">
        <ele>694.2</ele>
        <time>2022-07-29T12:22:24Z</time>
      </trkpt>
      <trkpt lat="46.41145" lon="5.70146">
        <ele>694.2</ele>
        <time>2022-07-29T12:22:25Z</time>
      </trkpt>
      <trkpt lat="46.41145" lon="5.70152">
        <ele>694.2</ele>
        <time>2022-07-29T12:22:26Z</time>
      </trkpt>
      <trkpt lat="46.41144" lon="5.70159">
        <ele>694.2</ele>
        <time>2022-07-29T12:22:27Z</time>
      </trkpt>
      <trkpt lat="46.41145" lon="5.70167">
        <ele>694.2</ele>
        <time>2022-07-29T12:22:28Z</time>
      </trkpt>
      <trkpt lat="46.41144" lon="5.70175">
        <ele>693.8</ele>
        <time>2022-07-29T12:22:29Z</time>
      </trkpt>
      <trkpt lat="46.41144" lon="5.70184">
        <ele>693.8</ele>
        <time>2022-07-29T12:22:30Z</time>
      </trkpt>
      <trkpt lat="46.41144" lon="5.70193">
        <ele>693.8</ele>
        <time>2022-07-29T12:22:31Z</time>
      </trkpt>
      <trkpt lat="46.41145" lon="5.70202">
        <ele>693.8</ele>
        <time>2022-07-29T12:22:32Z</time>
      </trkpt>
      <trkpt lat="46.41145" lon="5.70211">
        <ele>693.8</ele>
        <time>2022-07-29T12:22:33Z</time>
      </trkpt>
      <trkpt lat="46.41147" lon="5.7022">
        <ele>693.8</ele>
        <time>2022-07-29T12:22:34Z</time>
      </trkpt>
      <trkpt lat="46.41148" lon="5.70229">
        <ele>693.8</ele>
        <time>2022-07-29T12:22:35Z</time>
      </trkpt>
      <trkpt lat="46.41151" lon="5.70237">
        <ele>693.8</ele>
        <time>2022-07-29T12:22:36Z</time>
      </trkpt>
      <trkpt lat="46.41154" lon="5.70244">
        <ele>694.2</ele>
        <time>2022-07-29T12:22:37Z</time>
      </trkpt>
      <trkpt lat="46.41158" lon="5.70251">
        <ele>694.2</ele>
        <time>2022-07-29T12:22:38Z</time>
      </trkpt>
      <trkpt lat="46.41163" lon="5.70257">
        <ele>694.2</ele>
        <time>2022-07-29T12:22:39Z</time>
      </trkpt>
      <trkpt lat="46.41167" lon="5.70262">
        <ele>694.2</ele>
        <time>2022-07-29T12:22:40Z</time>
      </trkpt>
      <trkpt lat="46.41171" lon="5.70269">
        <ele>693.8</ele>
        <time>2022-07-29T12:22:41Z</time>
      </trkpt>
      <trkpt lat="46.41176" lon="5.70276">
        <ele>693.6</ele>
        <time>2022-07-29T12:22:42Z</time>
      </trkpt>
      <trkpt lat="46.4118" lon="5.70284">
        <ele>693.2</ele>
        <time>2022-07-29T12:22:43Z</time>
      </trkpt>
      <trkpt lat="46.41183" lon="5.70293">
        <ele>693.2</ele>
        <time>2022-07-29T12:22:44Z</time>
      </trkpt>
      <trkpt lat="46.41186" lon="5.70302">
        <ele>693.2</ele>
        <time>2022-07-29T12:22:45Z</time>
      </trkpt>
      <trkpt lat="46.41188" lon="5.70312">
        <ele>692.8</ele>
        <time>2022-07-29T12:22:46Z</time>
      </trkpt>
      <trkpt lat="46.4119" lon="5.70322">
        <ele>692.8</ele>
        <time>2022-07-29T12:22:47Z</time>
      </trkpt>
      <trkpt lat="46.41191" lon="5.70332">
        <ele>692.6</ele>
        <time>2022-07-29T12:22:48Z</time>
      </trkpt>
      <trkpt lat="46.41193" lon="5.70343">
        <ele>692.6</ele>
        <time>2022-07-29T12:22:49Z</time>
      </trkpt>
      <trkpt lat="46.41195" lon="5.70353">
        <ele>692.4</ele>
        <time>2022-07-29T12:22:50Z</time>
      </trkpt>
      <trkpt lat="46.41197" lon="5.70363">
        <ele>692.4</ele>
        <time>2022-07-29T12:22:51Z</time>
      </trkpt>
      <trkpt lat="46.41199" lon="5.70373">
        <ele>692.4</ele>
        <time>2022-07-29T12:22:52Z</time>
      </trkpt>
      <trkpt lat="46.41201" lon="5.70382">
        <ele>692.4</ele>
        <time>2022-07-29T12:22:53Z</time>
      </trkpt>
      <trkpt lat="46.41203" lon="5.70391">
        <ele>692.4</ele>
        <time>2022-07-29T12:22:54Z</time>
      </trkpt>
      <trkpt lat="46.41205" lon="5.704">
        <ele>692.6</ele>
        <time>2022-07-29T12:22:55Z</time>
      </trkpt>
      <trkpt lat="46.41207" lon="5.70408">
        <ele>692.6</ele>
        <time>2022-07-29T12:22:56Z</time>
      </trkpt>
      <trkpt lat="46.41209" lon="5.70415">
        <ele>693</ele>
        <time>2022-07-29T12:22:57Z</time>
      </trkpt>
      <trkpt lat="46.41211" lon="5.70423">
        <ele>693.4</ele>
        <time>2022-07-29T12:22:58Z</time>
      </trkpt>
      <trkpt lat="46.41213" lon="5.7043">
        <ele>693.6</ele>
        <time>2022-07-29T12:22:59Z</time>
      </trkpt>
      <trkpt lat="46.41215" lon="5.70436">
        <ele>694</ele>
        <time>2022-07-29T12:23:00Z</time>
      </trkpt>
      <trkpt lat="46.41217" lon="5.70443">
        <ele>694.2</ele>
        <time>2022-07-29T12:23:01Z</time>
      </trkpt>
      <trkpt lat="46.41218" lon="5.70449">
        <ele>694.4</ele>
        <time>2022-07-29T12:23:02Z</time>
      </trkpt>
      <trkpt lat="46.41219" lon="5.70456">
        <ele>694.6</ele>
        <time>2022-07-29T12:23:03Z</time>
      </trkpt>
      <trkpt lat="46.4122" lon="5.70462">
        <ele>694.8</ele>
        <time>2022-07-29T12:23:04Z</time>
      </trkpt>
      <trkpt lat="46.41221" lon="5.70469">
        <ele>694.8</ele>
        <time>2022-07-29T12:23:05Z</time>
      </trkpt>
      <trkpt lat="46.41222" lon="5.70475">
        <ele>695.2</ele>
        <time>2022-07-29T12:23:06Z</time>
      </trkpt>
      <trkpt lat="46.41222" lon="5.70481">
        <ele>695.4</ele>
        <time>2022-07-29T12:23:07Z</time>
      </trkpt>
      <trkpt lat="46.41223" lon="5.70487">
        <ele>695.4</ele>
        <time>2022-07-29T12:23:08Z</time>
      </trkpt>
      <trkpt lat="46.41223" lon="5.70493">
        <ele>695.8</ele>
        <time>2022-07-29T12:23:09Z</time>
      </trkpt>
      <trkpt lat="46.41223" lon="5.70498">
        <ele>695.8</ele>
        <time>2022-07-29T12:23:10Z</time>
      </trkpt>
      <trkpt lat="46.41223" lon="5.70503">
        <ele>696.2</ele>
        <time>2022-07-29T12:23:11Z</time>
      </trkpt>
      <trkpt lat="46.41224" lon="5.70508">
        <ele>696.2</ele>
        <time>2022-07-29T12:23:12Z</time>
      </trkpt>
      <trkpt lat="46.41224" lon="5.70513">
        <ele>696.2</ele>
        <time>2022-07-29T12:23:13Z</time>
      </trkpt>
      <trkpt lat="46.41223" lon="5.70518">
        <ele>696.6</ele>
        <time>2022-07-29T12:23:14Z</time>
      </trkpt>
      <trkpt lat="46.41223" lon="5.70523">
        <ele>696.6</ele>
        <time>2022-07-29T12:23:15Z</time>
      </trkpt>
      <trkpt lat="46.41223" lon="5.7053">
        <ele>696.6</ele>
        <time>2022-07-29T12:23:16Z</time>
      </trkpt>
      <trkpt lat="46.41223" lon="5.70537">
        <ele>696.2</ele>
        <time>2022-07-29T12:23:17Z</time>
      </trkpt>
      <trkpt lat="46.41223" lon="5.70545">
        <ele>696</ele>
        <time>2022-07-29T12:23:18Z</time>
      </trkpt>
      <trkpt lat="46.41223" lon="5.70554">
        <ele>695.8</ele>
        <time>2022-07-29T12:23:19Z</time>
      </trkpt>
      <trkpt lat="46.41222" lon="5.70563">
        <ele>695.4</ele>
        <time>2022-07-29T12:23:20Z</time>
      </trkpt>
      <trkpt lat="46.41221" lon="5.70573">
        <ele>695.4</ele>
        <time>2022-07-29T12:23:21Z</time>
      </trkpt>
      <trkpt lat="46.41221" lon="5.70583">
        <ele>695.2</ele>
        <time>2022-07-29T12:23:22Z</time>
      </trkpt>
      <trkpt lat="46.41221" lon="5.70593">
        <ele>695.2</ele>
        <time>2022-07-29T12:23:23Z</time>
      </trkpt>
      <trkpt lat="46.41221" lon="5.70602">
        <ele>695.2</ele>
        <time>2022-07-29T12:23:24Z</time>
      </trkpt>
      <trkpt lat="46.41221" lon="5.70613">
        <ele>695</ele>
        <time>2022-07-29T12:23:25Z</time>
      </trkpt>
      <trkpt lat="46.4122" lon="5.70622">
        <ele>695</ele>
        <time>2022-07-29T12:23:26Z</time>
      </trkpt>
      <trkpt lat="46.4122" lon="5.70631">
        <ele>695</ele>
        <time>2022-07-29T12:23:27Z</time>
      </trkpt>
      <trkpt lat="46.41219" lon="5.7064">
        <ele>695</ele>
        <time>2022-07-29T12:23:28Z</time>
      </trkpt>
      <trkpt lat="46.41219" lon="5.70649">
        <ele>695</ele>
        <time>2022-07-29T12:23:29Z</time>
      </trkpt>
      <trkpt lat="46.41218" lon="5.70657">
        <ele>695</ele>
        <time>2022-07-29T12:23:30Z</time>
      </trkpt>
      <trkpt lat="46.41217" lon="5.70665">
        <ele>695</ele>
        <time>2022-07-29T12:23:31Z</time>
      </trkpt>
      <trkpt lat="46.41215" lon="5.70673">
        <ele>695</ele>
        <time>2022-07-29T12:23:32Z</time>
      </trkpt>
      <trkpt lat="46.41214" lon="5.70681">
        <ele>694.6</ele>
        <time>2022-07-29T12:23:33Z</time>
      </trkpt>
      <trkpt lat="46.41212" lon="5.7069">
        <ele>694.4</ele>
        <time>2022-07-29T12:23:34Z</time>
      </trkpt>
      <trkpt lat="46.4121" lon="5.707">
        <ele>694</ele>
        <time>2022-07-29T12:23:35Z</time>
      </trkpt>
      <trkpt lat="46.41208" lon="5.70709">
        <ele>693.8</ele>
        <time>2022-07-29T12:23:36Z</time>
      </trkpt>
      <trkpt lat="46.41204" lon="5.70718">
        <ele>693.8</ele>
        <time>2022-07-29T12:23:37Z</time>
      </trkpt>
      <trkpt lat="46.41201" lon="5.70727">
        <ele>693.4</ele>
        <time>2022-07-29T12:23:38Z</time>
      </trkpt>
      <trkpt lat="46.41197" lon="5.70736">
        <ele>693.4</ele>
        <time>2022-07-29T12:23:39Z</time>
      </trkpt>
      <trkpt lat="46.41194" lon="5.70744">
        <ele>693.4</ele>
        <time>2022-07-29T12:23:40Z</time>
      </trkpt>
      <trkpt lat="46.41191" lon="5.70751">
        <ele>693.4</ele>
        <time>2022-07-29T12:23:41Z</time>
      </trkpt>
      <trkpt lat="46.41187" lon="5.70758">
        <ele>693.4</ele>
        <time>2022-07-29T12:23:42Z</time>
      </trkpt>
      <trkpt lat="46.41184" lon="5.70765">
        <ele>693.4</ele>
        <time>2022-07-29T12:23:43Z</time>
      </trkpt>
      <trkpt lat="46.41181" lon="5.70771">
        <ele>693.4</ele>
        <time>2022-07-29T12:23:44Z</time>
      </trkpt>
      <trkpt lat="46.41178" lon="5.70777">
        <ele>693.4</ele>
        <time>2022-07-29T12:23:45Z</time>
      </trkpt>
      <trkpt lat="46.41175" lon="5.70782">
        <ele>693.4</ele>
        <time>2022-07-29T12:23:46Z</time>
      </trkpt>
      <trkpt lat="46.41172" lon="5.70787">
        <ele>693.6</ele>
        <time>2022-07-29T12:23:47Z</time>
      </trkpt>
      <trkpt lat="46.4117" lon="5.70792">
        <ele>693.6</ele>
        <time>2022-07-29T12:23:48Z</time>
      </trkpt>
      <trkpt lat="46.41167" lon="5.70797">
        <ele>694</ele>
        <time>2022-07-29T12:23:49Z</time>
      </trkpt>
      <trkpt lat="46.41166" lon="5.70802">
        <ele>694</ele>
        <time>2022-07-29T12:23:50Z</time>
      </trkpt>
      <trkpt lat="46.41164" lon="5.70807">
        <ele>694.2</ele>
        <time>2022-07-29T12:23:51Z</time>
      </trkpt>
      <trkpt lat="46.41162" lon="5.70812">
        <ele>694.2</ele>
        <time>2022-07-29T12:23:52Z</time>
      </trkpt>
      <trkpt lat="46.4116" lon="5.70816">
        <ele>694.4</ele>
        <time>2022-07-29T12:23:53Z</time>
      </trkpt>
      <trkpt lat="46.41159" lon="5.70821">
        <ele>694.6</ele>
        <time>2022-07-29T12:23:54Z</time>
      </trkpt>
      <trkpt lat="46.41157" lon="5.70825">
        <ele>694.6</ele>
        <time>2022-07-29T12:23:55Z</time>
      </trkpt>
      <trkpt lat="46.41156" lon="5.7083">
        <ele>695</ele>
        <time>2022-07-29T12:23:56Z</time>
      </trkpt>
      <trkpt lat="46.41155" lon="5.70835">
        <ele>695</ele>
        <time>2022-07-29T12:23:57Z</time>
      </trkpt>
      <trkpt lat="46.41153" lon="5.7084">
        <ele>695</ele>
        <time>2022-07-29T12:23:58Z</time>
      </trkpt>
      <trkpt lat="46.41152" lon="5.70846">
        <ele>695</ele>
        <time>2022-07-29T12:23:59Z</time>
      </trkpt>
      <trkpt lat="46.41151" lon="5.70852">
        <ele>695</ele>
        <time>2022-07-29T12:24:00Z</time>
      </trkpt>
      <trkpt lat="46.4115" lon="5.70859">
        <ele>695</ele>
        <time>2022-07-29T12:24:01Z</time>
      </trkpt>
      <trkpt lat="46.41149" lon="5.70866">
        <ele>695</ele>
        <time>2022-07-29T12:24:02Z</time>
      </trkpt>
      <trkpt lat="46.41147" lon="5.70873">
        <ele>695</ele>
        <time>2022-07-29T12:24:03Z</time>
      </trkpt>
      <trkpt lat="46.41145" lon="5.7088">
        <ele>695</ele>
        <time>2022-07-29T12:24:04Z</time>
      </trkpt>
      <trkpt lat="46.41143" lon="5.70887">
        <ele>695</ele>
        <time>2022-07-29T12:24:05Z</time>
      </trkpt>
      <trkpt lat="46.41141" lon="5.70894">
        <ele>695</ele>
        <time>2022-07-29T12:24:06Z</time>
      </trkpt>
      <trkpt lat="46.41139" lon="5.709">
        <ele>695.2</ele>
        <time>2022-07-29T12:24:07Z</time>
      </trkpt>
      <trkpt lat="46.41137" lon="5.70906">
        <ele>695.2</ele>
        <time>2022-07-29T12:24:08Z</time>
      </trkpt>
      <trkpt lat="46.41135" lon="5.70912">
        <ele>695.6</ele>
        <time>2022-07-29T12:24:09Z</time>
      </trkpt>
      <trkpt lat="46.41133" lon="5.70917">
        <ele>695.8</ele>
        <time>2022-07-29T12:24:10Z</time>
      </trkpt>
      <trkpt lat="46.41131" lon="5.70922">
        <ele>695.8</ele>
        <time>2022-07-29T12:24:11Z</time>
      </trkpt>
      <trkpt lat="46.41128" lon="5.70926">
        <ele>696.2</ele>
        <time>2022-07-29T12:24:12Z</time>
      </trkpt>
      <trkpt lat="46.41127" lon="5.7093">
        <ele>696.4</ele>
        <time>2022-07-29T12:24:13Z</time>
      </trkpt>
      <trkpt lat="46.41125" lon="5.70934">
        <ele>696.4</ele>
        <time>2022-07-29T12:24:14Z</time>
      </trkpt>
      <trkpt lat="46.41123" lon="5.70938">
        <ele>696.8</ele>
        <time>2022-07-29T12:24:15Z</time>
      </trkpt>
      <trkpt lat="46.41121" lon="5.70943">
        <ele>696.8</ele>
        <time>2022-07-29T12:24:16Z</time>
      </trkpt>
      <trkpt lat="46.41119" lon="5.70947">
        <ele>697.2</ele>
        <time>2022-07-29T12:24:17Z</time>
      </trkpt>
      <trkpt lat="46.41117" lon="5.70951">
        <ele>697.2</ele>
        <time>2022-07-29T12:24:18Z</time>
      </trkpt>
      <trkpt lat="46.41115" lon="5.70956">
        <ele>697.4</ele>
        <time>2022-07-29T12:24:19Z</time>
      </trkpt>
      <trkpt lat="46.41114" lon="5.70962">
        <ele>697.4</ele>
        <time>2022-07-29T12:24:20Z</time>
      </trkpt>
      <trkpt lat="46.41112" lon="5.70967">
        <ele>697.4</ele>
        <time>2022-07-29T12:24:21Z</time>
      </trkpt>
      <trkpt lat="46.4111" lon="5.70973">
        <ele>697.4</ele>
        <time>2022-07-29T12:24:22Z</time>
      </trkpt>
      <trkpt lat="46.41108" lon="5.70979">
        <ele>697.4</ele>
        <time>2022-07-29T12:24:23Z</time>
      </trkpt>
      <trkpt lat="46.41106" lon="5.70984">
        <ele>697.4</ele>
        <time>2022-07-29T12:24:24Z</time>
      </trkpt>
      <trkpt lat="46.41104" lon="5.7099">
        <ele>697.4</ele>
        <time>2022-07-29T12:24:25Z</time>
      </trkpt>
      <trkpt lat="46.41102" lon="5.70996">
        <ele>697.6</ele>
        <time>2022-07-29T12:24:26Z</time>
      </trkpt>
      <trkpt lat="46.411" lon="5.71002">
        <ele>697.6</ele>
        <time>2022-07-29T12:24:27Z</time>
      </trkpt>
      <trkpt lat="46.41098" lon="5.71008">
        <ele>697.6</ele>
        <time>2022-07-29T12:24:28Z</time>
      </trkpt>
      <trkpt lat="46.41095" lon="5.71013">
        <ele>698</ele>
        <time>2022-07-29T12:24:29Z</time>
      </trkpt>
      <trkpt lat="46.41094" lon="5.71019">
        <ele>698</ele>
        <time>2022-07-29T12:24:30Z</time>
      </trkpt>
      <trkpt lat="46.41091" lon="5.71024">
        <ele>698.2</ele>
        <time>2022-07-29T12:24:31Z</time>
      </trkpt>
      <trkpt lat="46.41089" lon="5.7103">
        <ele>698.2</ele>
        <time>2022-07-29T12:24:32Z</time>
      </trkpt>
      <trkpt lat="46.41087" lon="5.71036">
        <ele>698.2</ele>
        <time>2022-07-29T12:24:33Z</time>
      </trkpt>
      <trkpt lat="46.41085" lon="5.71042">
        <ele>698.2</ele>
        <time>2022-07-29T12:24:34Z</time>
      </trkpt>
      <trkpt lat="46.41083" lon="5.71049">
        <ele>698.2</ele>
        <time>2022-07-29T12:24:35Z</time>
      </trkpt>
      <trkpt lat="46.41081" lon="5.71055">
        <ele>698.2</ele>
        <time>2022-07-29T12:24:36Z</time>
      </trkpt>
      <trkpt lat="46.41079" lon="5.71062">
        <ele>698.2</ele>
        <time>2022-07-29T12:24:37Z</time>
      </trkpt>
      <trkpt lat="46.41078" lon="5.71069">
        <ele>698.2</ele>
        <time>2022-07-29T12:24:38Z</time>
      </trkpt>
      <trkpt lat="46.41076" lon="5.71077">
        <ele>697.8</ele>
        <time>2022-07-29T12:24:39Z</time>
      </trkpt>
      <trkpt lat="46.41074" lon="5.71085">
        <ele>697.2</ele>
        <time>2022-07-29T12:24:40Z</time>
      </trkpt>
      <trkpt lat="46.41072" lon="5.71095">
        <ele>697</ele>
        <time>2022-07-29T12:24:41Z</time>
      </trkpt>
      <trkpt lat="46.41069" lon="5.71104">
        <ele>696.6</ele>
        <time>2022-07-29T12:24:42Z</time>
      </trkpt>
      <trkpt lat="46.41066" lon="5.71115">
        <ele>696.2</ele>
        <time>2022-07-29T12:24:43Z</time>
      </trkpt>
      <trkpt lat="46.41062" lon="5.71127">
        <ele>695.6</ele>
        <time>2022-07-29T12:24:44Z</time>
      </trkpt>
      <trkpt lat="46.41057" lon="5.71139">
        <ele>695.2</ele>
        <time>2022-07-29T12:24:45Z</time>
      </trkpt>
      <trkpt lat="46.41052" lon="5.7115">
        <ele>694.4</ele>
        <time>2022-07-29T12:24:46Z</time>
      </trkpt>
      <trkpt lat="46.41045" lon="5.71162">
        <ele>693.8</ele>
        <time>2022-07-29T12:24:47Z</time>
      </trkpt>
      <trkpt lat="46.41037" lon="5.71175">
        <ele>693</ele>
        <time>2022-07-29T12:24:48Z</time>
      </trkpt>
      <trkpt lat="46.41029" lon="5.71186">
        <ele>692.2</ele>
        <time>2022-07-29T12:24:49Z</time>
      </trkpt>
      <trkpt lat="46.41021" lon="5.71196">
        <ele>691.6</ele>
        <time>2022-07-29T12:24:50Z</time>
      </trkpt>
      <trkpt lat="46.41013" lon="5.71208">
        <ele>690.6</ele>
        <time>2022-07-29T12:24:51Z</time>
      </trkpt>
      <trkpt lat="46.41005" lon="5.71218">
        <ele>690</ele>
        <time>2022-07-29T12:24:52Z</time>
      </trkpt>
      <trkpt lat="46.40997" lon="5.71229">
        <ele>689</ele>
        <time>2022-07-29T12:24:53Z</time>
      </trkpt>
      <trkpt lat="46.40987" lon="5.71237">
        <ele>688.2</ele>
        <time>2022-07-29T12:24:54Z</time>
      </trkpt>
      <trkpt lat="46.40976" lon="5.71244">
        <ele>687.4</ele>
        <time>2022-07-29T12:24:55Z</time>
      </trkpt>
      <trkpt lat="46.40965" lon="5.7125">
        <ele>686.6</ele>
        <time>2022-07-29T12:24:56Z</time>
      </trkpt>
      <trkpt lat="46.40955" lon="5.71257">
        <ele>685.8</ele>
        <time>2022-07-29T12:24:57Z</time>
      </trkpt>
      <trkpt lat="46.40944" lon="5.71261">
        <ele>684.8</ele>
        <time>2022-07-29T12:24:58Z</time>
      </trkpt>
      <trkpt lat="46.40931" lon="5.71262">
        <ele>683.8</ele>
        <time>2022-07-29T12:24:59Z</time>
      </trkpt>
      <trkpt lat="46.40919" lon="5.7126">
        <ele>683</ele>
        <time>2022-07-29T12:25:00Z</time>
      </trkpt>
      <trkpt lat="46.40906" lon="5.71256">
        <ele>682.2</ele>
        <time>2022-07-29T12:25:01Z</time>
      </trkpt>
      <trkpt lat="46.40896" lon="5.71253">
        <ele>681.4</ele>
        <time>2022-07-29T12:25:02Z</time>
      </trkpt>
      <trkpt lat="46.40886" lon="5.7125">
        <ele>680.6</ele>
        <time>2022-07-29T12:25:03Z</time>
      </trkpt>
      <trkpt lat="46.40876" lon="5.71251">
        <ele>679.8</ele>
        <time>2022-07-29T12:25:04Z</time>
      </trkpt>
      <trkpt lat="46.40866" lon="5.71256">
        <ele>679.4</ele>
        <time>2022-07-29T12:25:05Z</time>
      </trkpt>
      <trkpt lat="46.40857" lon="5.71262">
        <ele>678.8</ele>
        <time>2022-07-29T12:25:06Z</time>
      </trkpt>
      <trkpt lat="46.40848" lon="5.71266">
        <ele>678.4</ele>
        <time>2022-07-29T12:25:07Z</time>
      </trkpt>
      <trkpt lat="46.40839" lon="5.71267">
        <ele>678.4</ele>
        <time>2022-07-29T12:25:08Z</time>
      </trkpt>
      <trkpt lat="46.40831" lon="5.71266">
        <ele>678</ele>
        <time>2022-07-29T12:25:09Z</time>
      </trkpt>
      <trkpt lat="46.40823" lon="5.71266">
        <ele>678</ele>
        <time>2022-07-29T12:25:10Z</time>
      </trkpt>
      <trkpt lat="46.40815" lon="5.71266">
        <ele>678.2</ele>
        <time>2022-07-29T12:25:11Z</time>
      </trkpt>
      <trkpt lat="46.40808" lon="5.71267">
        <ele>678.4</ele>
        <time>2022-07-29T12:25:12Z</time>
      </trkpt>
      <trkpt lat="46.40802" lon="5.7127">
        <ele>679</ele>
        <time>2022-07-29T12:25:13Z</time>
      </trkpt>
      <trkpt lat="46.40796" lon="5.71272">
        <ele>679.2</ele>
        <time>2022-07-29T12:25:14Z</time>
      </trkpt>
      <trkpt lat="46.40791" lon="5.71274">
        <ele>679.4</ele>
        <time>2022-07-29T12:25:15Z</time>
      </trkpt>
      <trkpt lat="46.40786" lon="5.71277">
        <ele>679.8</ele>
        <time>2022-07-29T12:25:16Z</time>
      </trkpt>
      <trkpt lat="46.40781" lon="5.71279">
        <ele>679.8</ele>
        <time>2022-07-29T12:25:17Z</time>
      </trkpt>
      <trkpt lat="46.40776" lon="5.71282">
        <ele>680</ele>
        <time>2022-07-29T12:25:18Z</time>
      </trkpt>
      <trkpt lat="46.40772" lon="5.71285">
        <ele>680</ele>
        <time>2022-07-29T12:25:19Z</time>
      </trkpt>
      <trkpt lat="46.40767" lon="5.71288">
        <ele>680.4</ele>
        <time>2022-07-29T12:25:20Z</time>
      </trkpt>
      <trkpt lat="46.40758" lon="5.71292">
        <ele>680.6</ele>
        <time>2022-07-29T12:25:21Z</time>
      </trkpt>
      <trkpt lat="46.40753" lon="5.71294">
        <ele>680.8</ele>
        <time>2022-07-29T12:25:22Z</time>
      </trkpt>
      <trkpt lat="46.40749" lon="5.71294">
        <ele>680.8</ele>
        <time>2022-07-29T12:25:23Z</time>
      </trkpt>
      <trkpt lat="46.40744" lon="5.71295">
        <ele>681.2</ele>
        <time>2022-07-29T12:25:24Z</time>
      </trkpt>
      <trkpt lat="46.40739" lon="5.71296">
        <ele>681.4</ele>
        <time>2022-07-29T12:25:25Z</time>
      </trkpt>
      <trkpt lat="46.40735" lon="5.71297">
        <ele>681.8</ele>
        <time>2022-07-29T12:25:26Z</time>
      </trkpt>
      <trkpt lat="46.4073" lon="5.71297">
        <ele>682</ele>
        <time>2022-07-29T12:25:27Z</time>
      </trkpt>
      <trkpt lat="46.40725" lon="5.71297">
        <ele>682</ele>
        <time>2022-07-29T12:25:28Z</time>
      </trkpt>
      <trkpt lat="46.4072" lon="5.71297">
        <ele>682.4</ele>
        <time>2022-07-29T12:25:29Z</time>
      </trkpt>
      <trkpt lat="46.40715" lon="5.71297">
        <ele>682.4</ele>
        <time>2022-07-29T12:25:30Z</time>
      </trkpt>
      <trkpt lat="46.4071" lon="5.71297">
        <ele>682.6</ele>
        <time>2022-07-29T12:25:31Z</time>
      </trkpt>
      <trkpt lat="46.40706" lon="5.71296">
        <ele>682.6</ele>
        <time>2022-07-29T12:25:32Z</time>
      </trkpt>
      <trkpt lat="46.40701" lon="5.71296">
        <ele>683</ele>
        <time>2022-07-29T12:25:33Z</time>
      </trkpt>
      <trkpt lat="46.40696" lon="5.71296">
        <ele>683</ele>
        <time>2022-07-29T12:25:34Z</time>
      </trkpt>
      <trkpt lat="46.40691" lon="5.71295">
        <ele>683.2</ele>
        <time>2022-07-29T12:25:35Z</time>
      </trkpt>
      <trkpt lat="46.40686" lon="5.71293">
        <ele>683.2</ele>
        <time>2022-07-29T12:25:36Z</time>
      </trkpt>
      <trkpt lat="46.40681" lon="5.71292">
        <ele>683.2</ele>
        <time>2022-07-29T12:25:37Z</time>
      </trkpt>
      <trkpt lat="46.40676" lon="5.7129">
        <ele>683.2</ele>
        <time>2022-07-29T12:25:38Z</time>
      </trkpt>
      <trkpt lat="46.40671" lon="5.71287">
        <ele>683.2</ele>
        <time>2022-07-29T12:25:39Z</time>
      </trkpt>
      <trkpt lat="46.40671" lon="5.71287">
        <ele>683.2</ele>
        <time>2022-07-29T12:25:40Z</time>
      </trkpt>
      <trkpt lat="46.40666" lon="5.71284">
        <ele>683.2</ele>
        <time>2022-07-29T12:25:41Z</time>
      </trkpt>
      <trkpt lat="46.4066" lon="5.71282">
        <ele>683.2</ele>
        <time>2022-07-29T12:25:42Z</time>
      </trkpt>
      <trkpt lat="46.40655" lon="5.71278">
        <ele>683.2</ele>
        <time>2022-07-29T12:25:43Z</time>
      </trkpt>
      <trkpt lat="46.4065" lon="5.71273">
        <ele>683.2</ele>
        <time>2022-07-29T12:25:44Z</time>
      </trkpt>
      <trkpt lat="46.4064" lon="5.71264">
        <ele>683</ele>
        <time>2022-07-29T12:25:45Z</time>
      </trkpt>
      <trkpt lat="46.40635" lon="5.71259">
        <ele>683</ele>
        <time>2022-07-29T12:25:46Z</time>
      </trkpt>
      <trkpt lat="46.40629" lon="5.71253">
        <ele>682.6</ele>
        <time>2022-07-29T12:25:47Z</time>
      </trkpt>
      <trkpt lat="46.40623" lon="5.71248">
        <ele>682.4</ele>
        <time>2022-07-29T12:25:48Z</time>
      </trkpt>
      <trkpt lat="46.40617" lon="5.71242">
        <ele>682.2</ele>
        <time>2022-07-29T12:25:49Z</time>
      </trkpt>
      <trkpt lat="46.40611" lon="5.71236">
        <ele>682</ele>
        <time>2022-07-29T12:25:50Z</time>
      </trkpt>
      <trkpt lat="46.40605" lon="5.71229">
        <ele>682</ele>
        <time>2022-07-29T12:25:51Z</time>
      </trkpt>
      <trkpt lat="46.406" lon="5.71222">
        <ele>681.6</ele>
        <time>2022-07-29T12:25:52Z</time>
      </trkpt>
      <trkpt lat="46.40594" lon="5.71215">
        <ele>681.6</ele>
        <time>2022-07-29T12:25:53Z</time>
      </trkpt>
      <trkpt lat="46.40588" lon="5.71208">
        <ele>681.4</ele>
        <time>2022-07-29T12:25:54Z</time>
      </trkpt>
      <trkpt lat="46.40582" lon="5.71201">
        <ele>681.4</ele>
        <time>2022-07-29T12:25:55Z</time>
      </trkpt>
      <trkpt lat="46.40576" lon="5.71195">
        <ele>681.2</ele>
        <time>2022-07-29T12:25:56Z</time>
      </trkpt>
      <trkpt lat="46.4057" lon="5.71188">
        <ele>680.8</ele>
        <time>2022-07-29T12:25:57Z</time>
      </trkpt>
      <trkpt lat="46.40564" lon="5.71182">
        <ele>680.8</ele>
        <time>2022-07-29T12:25:58Z</time>
      </trkpt>
      <trkpt lat="46.40558" lon="5.71175">
        <ele>680.4</ele>
        <time>2022-07-29T12:25:59Z</time>
      </trkpt>
      <trkpt lat="46.40551" lon="5.71169">
        <ele>680.4</ele>
        <time>2022-07-29T12:26:00Z</time>
      </trkpt>
      <trkpt lat="46.40545" lon="5.71162">
        <ele>680.2</ele>
        <time>2022-07-29T12:26:01Z</time>
      </trkpt>
      <trkpt lat="46.40539" lon="5.71156">
        <ele>680.2</ele>
        <time>2022-07-29T12:26:02Z</time>
      </trkpt>
      <trkpt lat="46.40533" lon="5.7115">
        <ele>680.2</ele>
        <time>2022-07-29T12:26:03Z</time>
      </trkpt>
      <trkpt lat="46.40527" lon="5.71144">
        <ele>680.2</ele>
        <time>2022-07-29T12:26:04Z</time>
      </trkpt>
      <trkpt lat="46.40521" lon="5.71138">
        <ele>680.2</ele>
        <time>2022-07-29T12:26:05Z</time>
      </trkpt>
      <trkpt lat="46.40516" lon="5.71133">
        <ele>680.2</ele>
        <time>2022-07-29T12:26:06Z</time>
      </trkpt>
      <trkpt lat="46.4051" lon="5.71128">
        <ele>680.2</ele>
        <time>2022-07-29T12:26:07Z</time>
      </trkpt>
      <trkpt lat="46.40505" lon="5.71122">
        <ele>680.2</ele>
        <time>2022-07-29T12:26:08Z</time>
      </trkpt>
      <trkpt lat="46.405" lon="5.71118">
        <ele>680.2</ele>
        <time>2022-07-29T12:26:09Z</time>
      </trkpt>
      <trkpt lat="46.40495" lon="5.71113">
        <ele>680.2</ele>
        <time>2022-07-29T12:26:10Z</time>
      </trkpt>
      <trkpt lat="46.4049" lon="5.71108">
        <ele>680.4</ele>
        <time>2022-07-29T12:26:11Z</time>
      </trkpt>
      <trkpt lat="46.40486" lon="5.71104">
        <ele>680.4</ele>
        <time>2022-07-29T12:26:12Z</time>
      </trkpt>
      <trkpt lat="46.40481" lon="5.711">
        <ele>680.8</ele>
        <time>2022-07-29T12:26:13Z</time>
      </trkpt>
      <trkpt lat="46.40477" lon="5.71096">
        <ele>681</ele>
        <time>2022-07-29T12:26:14Z</time>
      </trkpt>
      <trkpt lat="46.40473" lon="5.71092">
        <ele>681.4</ele>
        <time>2022-07-29T12:26:15Z</time>
      </trkpt>
      <trkpt lat="46.40469" lon="5.71088">
        <ele>681.6</ele>
        <time>2022-07-29T12:26:16Z</time>
      </trkpt>
      <trkpt lat="46.40465" lon="5.71085">
        <ele>681.8</ele>
        <time>2022-07-29T12:26:17Z</time>
      </trkpt>
      <trkpt lat="46.40461" lon="5.71082">
        <ele>682</ele>
        <time>2022-07-29T12:26:18Z</time>
      </trkpt>
      <trkpt lat="46.40458" lon="5.71078">
        <ele>682.2</ele>
        <time>2022-07-29T12:26:19Z</time>
      </trkpt>
      <trkpt lat="46.40454" lon="5.71075">
        <ele>682.2</ele>
        <time>2022-07-29T12:26:20Z</time>
      </trkpt>
      <trkpt lat="46.40451" lon="5.71071">
        <ele>682.6</ele>
        <time>2022-07-29T12:26:21Z</time>
      </trkpt>
      <trkpt lat="46.40448" lon="5.71067">
        <ele>682.6</ele>
        <time>2022-07-29T12:26:22Z</time>
      </trkpt>
      <trkpt lat="46.40444" lon="5.71063">
        <ele>682.8</ele>
        <time>2022-07-29T12:26:23Z</time>
      </trkpt>
      <trkpt lat="46.40441" lon="5.71059">
        <ele>682.8</ele>
        <time>2022-07-29T12:26:24Z</time>
      </trkpt>
      <trkpt lat="46.40438" lon="5.71055">
        <ele>683</ele>
        <time>2022-07-29T12:26:25Z</time>
      </trkpt>
      <trkpt lat="46.40435" lon="5.71051">
        <ele>683</ele>
        <time>2022-07-29T12:26:26Z</time>
      </trkpt>
      <trkpt lat="46.40432" lon="5.71048">
        <ele>683.4</ele>
        <time>2022-07-29T12:26:27Z</time>
      </trkpt>
      <trkpt lat="46.40429" lon="5.71044">
        <ele>683.6</ele>
        <time>2022-07-29T12:26:28Z</time>
      </trkpt>
      <trkpt lat="46.40426" lon="5.71041">
        <ele>683.6</ele>
        <time>2022-07-29T12:26:29Z</time>
      </trkpt>
      <trkpt lat="46.40423" lon="5.71038">
        <ele>684</ele>
        <time>2022-07-29T12:26:30Z</time>
      </trkpt>
      <trkpt lat="46.40421" lon="5.71035">
        <ele>684</ele>
        <time>2022-07-29T12:26:31Z</time>
      </trkpt>
      <trkpt lat="46.40418" lon="5.71032">
        <ele>684.2</ele>
        <time>2022-07-29T12:26:32Z</time>
      </trkpt>
      <trkpt lat="46.40414" lon="5.71029">
        <ele>684.2</ele>
        <time>2022-07-29T12:26:33Z</time>
      </trkpt>
      <trkpt lat="46.40411" lon="5.71026">
        <ele>684.2</ele>
        <time>2022-07-29T12:26:34Z</time>
      </trkpt>
      <trkpt lat="46.40406" lon="5.71023">
        <ele>683.8</ele>
        <time>2022-07-29T12:26:35Z</time>
      </trkpt>
      <trkpt lat="46.40401" lon="5.71019">
        <ele>683.4</ele>
        <time>2022-07-29T12:26:36Z</time>
      </trkpt>
      <trkpt lat="46.40395" lon="5.71015">
        <ele>683.2</ele>
        <time>2022-07-29T12:26:37Z</time>
      </trkpt>
      <trkpt lat="46.40389" lon="5.71011">
        <ele>682.8</ele>
        <time>2022-07-29T12:26:38Z</time>
      </trkpt>
      <trkpt lat="46.40383" lon="5.71007">
        <ele>682.6</ele>
        <time>2022-07-29T12:26:39Z</time>
      </trkpt>
      <trkpt lat="46.40376" lon="5.71003">
        <ele>682.2</ele>
        <time>2022-07-29T12:26:40Z</time>
      </trkpt>
      <trkpt lat="46.40369" lon="5.70998">
        <ele>681.8</ele>
        <time>2022-07-29T12:26:41Z</time>
      </trkpt>
      <trkpt lat="46.40361" lon="5.70994">
        <ele>681.4</ele>
        <time>2022-07-29T12:26:42Z</time>
      </trkpt>
      <trkpt lat="46.40353" lon="5.70989">
        <ele>681</ele>
        <time>2022-07-29T12:26:43Z</time>
      </trkpt>
      <trkpt lat="46.40345" lon="5.70985">
        <ele>680.6</ele>
        <time>2022-07-29T12:26:44Z</time>
      </trkpt>
      <trkpt lat="46.40337" lon="5.7098">
        <ele>680</ele>
        <time>2022-07-29T12:26:45Z</time>
      </trkpt>
      <trkpt lat="46.40328" lon="5.70976">
        <ele>679.6</ele>
        <time>2022-07-29T12:26:46Z</time>
      </trkpt>
      <trkpt lat="46.40319" lon="5.7097">
        <ele>679.2</ele>
        <time>2022-07-29T12:26:47Z</time>
      </trkpt>
      <trkpt lat="46.40309" lon="5.70964">
        <ele>678.4</ele>
        <time>2022-07-29T12:26:48Z</time>
      </trkpt>
      <trkpt lat="46.40299" lon="5.70957">
        <ele>677.6</ele>
        <time>2022-07-29T12:26:49Z</time>
      </trkpt>
      <trkpt lat="46.4029" lon="5.70949">
        <ele>677</ele>
        <time>2022-07-29T12:26:50Z</time>
      </trkpt>
      <trkpt lat="46.40281" lon="5.70941">
        <ele>676.4</ele>
        <time>2022-07-29T12:26:51Z</time>
      </trkpt>
      <trkpt lat="46.40273" lon="5.70933">
        <ele>676</ele>
        <time>2022-07-29T12:26:52Z</time>
      </trkpt>
      <trkpt lat="46.40265" lon="5.70924">
        <ele>675.6</ele>
        <time>2022-07-29T12:26:53Z</time>
      </trkpt>
      <trkpt lat="46.40257" lon="5.70916">
        <ele>675</ele>
        <time>2022-07-29T12:26:54Z</time>
      </trkpt>
      <trkpt lat="46.40249" lon="5.70907">
        <ele>674.4</ele>
        <time>2022-07-29T12:26:55Z</time>
      </trkpt>
      <trkpt lat="46.40241" lon="5.70897">
        <ele>673.6</ele>
        <time>2022-07-29T12:26:56Z</time>
      </trkpt>
      <trkpt lat="46.40232" lon="5.70888">
        <ele>673</ele>
        <time>2022-07-29T12:26:57Z</time>
      </trkpt>
      <trkpt lat="46.40224" lon="5.70876">
        <ele>672.2</ele>
        <time>2022-07-29T12:26:58Z</time>
      </trkpt>
      <trkpt lat="46.40217" lon="5.70864">
        <ele>671.2</ele>
        <time>2022-07-29T12:26:59Z</time>
      </trkpt>
      <trkpt lat="46.4021" lon="5.70851">
        <ele>670</ele>
        <time>2022-07-29T12:27:00Z</time>
      </trkpt>
      <trkpt lat="46.40203" lon="5.70837">
        <ele>669.2</ele>
        <time>2022-07-29T12:27:01Z</time>
      </trkpt>
      <trkpt lat="46.40196" lon="5.70822">
        <ele>668.4</ele>
        <time>2022-07-29T12:27:02Z</time>
      </trkpt>
      <trkpt lat="46.40188" lon="5.70808">
        <ele>667.6</ele>
        <time>2022-07-29T12:27:03Z</time>
      </trkpt>
      <trkpt lat="46.40181" lon="5.70795">
        <ele>667</ele>
        <time>2022-07-29T12:27:04Z</time>
      </trkpt>
      <trkpt lat="46.40174" lon="5.70782">
        <ele>666.2</ele>
        <time>2022-07-29T12:27:05Z</time>
      </trkpt>
      <trkpt lat="46.40166" lon="5.70771">
        <ele>665.8</ele>
        <time>2022-07-29T12:27:06Z</time>
      </trkpt>
      <trkpt lat="46.40158" lon="5.70759">
        <ele>665.4</ele>
        <time>2022-07-29T12:27:07Z</time>
      </trkpt>
      <trkpt lat="46.4015" lon="5.7075">
        <ele>665.2</ele>
        <time>2022-07-29T12:27:08Z</time>
      </trkpt>
      <trkpt lat="46.40141" lon="5.70743">
        <ele>665.2</ele>
        <time>2022-07-29T12:27:09Z</time>
      </trkpt>
      <trkpt lat="46.40133" lon="5.70735">
        <ele>665.2</ele>
        <time>2022-07-29T12:27:10Z</time>
      </trkpt>
      <trkpt lat="46.40126" lon="5.70728">
        <ele>665.2</ele>
        <time>2022-07-29T12:27:11Z</time>
      </trkpt>
      <trkpt lat="46.40117" lon="5.70721">
        <ele>665.2</ele>
        <time>2022-07-29T12:27:12Z</time>
      </trkpt>
      <trkpt lat="46.40109" lon="5.70715">
        <ele>665.2</ele>
        <time>2022-07-29T12:27:13Z</time>
      </trkpt>
      <trkpt lat="46.40102" lon="5.70708">
        <ele>665.2</ele>
        <time>2022-07-29T12:27:14Z</time>
      </trkpt>
      <trkpt lat="46.40094" lon="5.70703">
        <ele>665.2</ele>
        <time>2022-07-29T12:27:15Z</time>
      </trkpt>
      <trkpt lat="46.40087" lon="5.70697">
        <ele>665.2</ele>
        <time>2022-07-29T12:27:16Z</time>
      </trkpt>
      <trkpt lat="46.4008" lon="5.70692">
        <ele>665.2</ele>
        <time>2022-07-29T12:27:17Z</time>
      </trkpt>
      <trkpt lat="46.40073" lon="5.70688">
        <ele>665.2</ele>
        <time>2022-07-29T12:27:18Z</time>
      </trkpt>
      <trkpt lat="46.40066" lon="5.70685">
        <ele>665.2</ele>
        <time>2022-07-29T12:27:19Z</time>
      </trkpt>
      <trkpt lat="46.40059" lon="5.70681">
        <ele>665.4</ele>
        <time>2022-07-29T12:27:20Z</time>
      </trkpt>
      <trkpt lat="46.40053" lon="5.70678">
        <ele>665.6</ele>
        <time>2022-07-29T12:27:21Z</time>
      </trkpt>
      <trkpt lat="46.40047" lon="5.70675">
        <ele>665.6</ele>
        <time>2022-07-29T12:27:22Z</time>
      </trkpt>
      <trkpt lat="46.40041" lon="5.70672">
        <ele>666</ele>
        <time>2022-07-29T12:27:23Z</time>
      </trkpt>
      <trkpt lat="46.40035" lon="5.70669">
        <ele>666</ele>
        <time>2022-07-29T12:27:24Z</time>
      </trkpt>
      <trkpt lat="46.40029" lon="5.70666">
        <ele>666</ele>
        <time>2022-07-29T12:27:25Z</time>
      </trkpt>
      <trkpt lat="46.40023" lon="5.70663">
        <ele>666</ele>
        <time>2022-07-29T12:27:26Z</time>
      </trkpt>
      <trkpt lat="46.40017" lon="5.70659">
        <ele>666</ele>
        <time>2022-07-29T12:27:27Z</time>
      </trkpt>
      <trkpt lat="46.4001" lon="5.70655">
        <ele>665.6</ele>
        <time>2022-07-29T12:27:28Z</time>
      </trkpt>
      <trkpt lat="46.40003" lon="5.70652">
        <ele>665.6</ele>
        <time>2022-07-29T12:27:29Z</time>
      </trkpt>
      <trkpt lat="46.39996" lon="5.70648">
        <ele>665.4</ele>
        <time>2022-07-29T12:27:30Z</time>
      </trkpt>
      <trkpt lat="46.39989" lon="5.70645">
        <ele>665</ele>
        <time>2022-07-29T12:27:31Z</time>
      </trkpt>
      <trkpt lat="46.39982" lon="5.70641">
        <ele>665</ele>
        <time>2022-07-29T12:27:32Z</time>
      </trkpt>
      <trkpt lat="46.39975" lon="5.70638">
        <ele>664.6</ele>
        <time>2022-07-29T12:27:33Z</time>
      </trkpt>
      <trkpt lat="46.39968" lon="5.70634">
        <ele>664.4</ele>
        <time>2022-07-29T12:27:34Z</time>
      </trkpt>
      <trkpt lat="46.39961" lon="5.7063">
        <ele>664</ele>
        <time>2022-07-29T12:27:35Z</time>
      </trkpt>
      <trkpt lat="46.39953" lon="5.70626">
        <ele>663.8</ele>
        <time>2022-07-29T12:27:36Z</time>
      </trkpt>
      <trkpt lat="46.39946" lon="5.70622">
        <ele>663.4</ele>
        <time>2022-07-29T12:27:37Z</time>
      </trkpt>
      <trkpt lat="46.39938" lon="5.70618">
        <ele>663.2</ele>
        <time>2022-07-29T12:27:38Z</time>
      </trkpt>
      <trkpt lat="46.39931" lon="5.70615">
        <ele>663</ele>
        <time>2022-07-29T12:27:39Z</time>
      </trkpt>
      <trkpt lat="46.39923" lon="5.70611">
        <ele>662.6</ele>
        <time>2022-07-29T12:27:40Z</time>
      </trkpt>
      <trkpt lat="46.39916" lon="5.70607">
        <ele>662.4</ele>
        <time>2022-07-29T12:27:41Z</time>
      </trkpt>
      <trkpt lat="46.39908" lon="5.70604">
        <ele>662.2</ele>
        <time>2022-07-29T12:27:42Z</time>
      </trkpt>
      <trkpt lat="46.39901" lon="5.70601">
        <ele>662</ele>
        <time>2022-07-29T12:27:43Z</time>
      </trkpt>
      <trkpt lat="46.39893" lon="5.70598">
        <ele>662</ele>
        <time>2022-07-29T12:27:44Z</time>
      </trkpt>
      <trkpt lat="46.39886" lon="5.70596">
        <ele>661.8</ele>
        <time>2022-07-29T12:27:45Z</time>
      </trkpt>
      <trkpt lat="46.39879" lon="5.70594">
        <ele>661.8</ele>
        <time>2022-07-29T12:27:46Z</time>
      </trkpt>
      <trkpt lat="46.39871" lon="5.70593">
        <ele>661.4</ele>
        <time>2022-07-29T12:27:47Z</time>
      </trkpt>
      <trkpt lat="46.39864" lon="5.70593">
        <ele>661.4</ele>
        <time>2022-07-29T12:27:48Z</time>
      </trkpt>
      <trkpt lat="46.39857" lon="5.70593">
        <ele>661.4</ele>
        <time>2022-07-29T12:27:49Z</time>
      </trkpt>
      <trkpt lat="46.3985" lon="5.70593">
        <ele>661.2</ele>
        <time>2022-07-29T12:27:50Z</time>
      </trkpt>
      <trkpt lat="46.39843" lon="5.70593">
        <ele>661.2</ele>
        <time>2022-07-29T12:27:51Z</time>
      </trkpt>
      <trkpt lat="46.39836" lon="5.70593">
        <ele>661.2</ele>
        <time>2022-07-29T12:27:52Z</time>
      </trkpt>
      <trkpt lat="46.3983" lon="5.70593">
        <ele>661.2</ele>
        <time>2022-07-29T12:27:53Z</time>
      </trkpt>
      <trkpt lat="46.39823" lon="5.70594">
        <ele>661.2</ele>
        <time>2022-07-29T12:27:54Z</time>
      </trkpt>
      <trkpt lat="46.39817" lon="5.70595">
        <ele>661.2</ele>
        <time>2022-07-29T12:27:55Z</time>
      </trkpt>
      <trkpt lat="46.39811" lon="5.70595">
        <ele>660.8</ele>
        <time>2022-07-29T12:27:56Z</time>
      </trkpt>
      <trkpt lat="46.39805" lon="5.70596">
        <ele>660.8</ele>
        <time>2022-07-29T12:27:57Z</time>
      </trkpt>
      <trkpt lat="46.39798" lon="5.70597">
        <ele>660.6</ele>
        <time>2022-07-29T12:27:58Z</time>
      </trkpt>
      <trkpt lat="46.39792" lon="5.70599">
        <ele>660.6</ele>
        <time>2022-07-29T12:27:59Z</time>
      </trkpt>
      <trkpt lat="46.39786" lon="5.70601">
        <ele>660.6</ele>
        <time>2022-07-29T12:28:00Z</time>
      </trkpt>
      <trkpt lat="46.3978" lon="5.70603">
        <ele>660.6</ele>
        <time>2022-07-29T12:28:01Z</time>
      </trkpt>
      <trkpt lat="46.39774" lon="5.70605">
        <ele>660.8</ele>
        <time>2022-07-29T12:28:02Z</time>
      </trkpt>
      <trkpt lat="46.39768" lon="5.70607">
        <ele>661</ele>
        <time>2022-07-29T12:28:03Z</time>
      </trkpt>
      <trkpt lat="46.39763" lon="5.70609">
        <ele>661</ele>
        <time>2022-07-29T12:28:04Z</time>
      </trkpt>
      <trkpt lat="46.39758" lon="5.70611">
        <ele>661.2</ele>
        <time>2022-07-29T12:28:05Z</time>
      </trkpt>
      <trkpt lat="46.39753" lon="5.70612">
        <ele>661.2</ele>
        <time>2022-07-29T12:28:06Z</time>
      </trkpt>
      <trkpt lat="46.39748" lon="5.70612">
        <ele>661.2</ele>
        <time>2022-07-29T12:28:07Z</time>
      </trkpt>
      <trkpt lat="46.39743" lon="5.70611">
        <ele>661.2</ele>
        <time>2022-07-29T12:28:08Z</time>
      </trkpt>
      <trkpt lat="46.39737" lon="5.70609">
        <ele>661.2</ele>
        <time>2022-07-29T12:28:09Z</time>
      </trkpt>
      <trkpt lat="46.39732" lon="5.70606">
        <ele>661.2</ele>
        <time>2022-07-29T12:28:10Z</time>
      </trkpt>
      <trkpt lat="46.39726" lon="5.70602">
        <ele>661.2</ele>
        <time>2022-07-29T12:28:11Z</time>
      </trkpt>
      <trkpt lat="46.39719" lon="5.70599">
        <ele>661.2</ele>
        <time>2022-07-29T12:28:12Z</time>
      </trkpt>
      <trkpt lat="46.39713" lon="5.70595">
        <ele>661.2</ele>
        <time>2022-07-29T12:28:13Z</time>
      </trkpt>
      <trkpt lat="46.39707" lon="5.7059">
        <ele>661</ele>
        <time>2022-07-29T12:28:14Z</time>
      </trkpt>
      <trkpt lat="46.397" lon="5.70586">
        <ele>661</ele>
        <time>2022-07-29T12:28:15Z</time>
      </trkpt>
      <trkpt lat="46.39694" lon="5.70582">
        <ele>661</ele>
        <time>2022-07-29T12:28:16Z</time>
      </trkpt>
      <trkpt lat="46.39688" lon="5.70578">
        <ele>661</ele>
        <time>2022-07-29T12:28:17Z</time>
      </trkpt>
      <trkpt lat="46.39681" lon="5.70574">
        <ele>661</ele>
        <time>2022-07-29T12:28:18Z</time>
      </trkpt>
      <trkpt lat="46.39675" lon="5.70571">
        <ele>661.4</ele>
        <time>2022-07-29T12:28:19Z</time>
      </trkpt>
      <trkpt lat="46.3967" lon="5.70568">
        <ele>661.4</ele>
        <time>2022-07-29T12:28:20Z</time>
      </trkpt>
      <trkpt lat="46.39664" lon="5.70564">
        <ele>661.4</ele>
        <time>2022-07-29T12:28:21Z</time>
      </trkpt>
      <trkpt lat="46.39659" lon="5.70561">
        <ele>661.8</ele>
        <time>2022-07-29T12:28:22Z</time>
      </trkpt>
      <trkpt lat="46.39654" lon="5.70559">
        <ele>661.8</ele>
        <time>2022-07-29T12:28:23Z</time>
      </trkpt>
      <trkpt lat="46.39649" lon="5.70556">
        <ele>662</ele>
        <time>2022-07-29T12:28:24Z</time>
      </trkpt>
      <trkpt lat="46.39645" lon="5.70554">
        <ele>662</ele>
        <time>2022-07-29T12:28:25Z</time>
      </trkpt>
      <trkpt lat="46.3964" lon="5.70551">
        <ele>662</ele>
        <time>2022-07-29T12:28:26Z</time>
      </trkpt>
      <trkpt lat="46.39637" lon="5.70548">
        <ele>662.6</ele>
        <time>2022-07-29T12:28:27Z</time>
      </trkpt>
      <trkpt lat="46.39633" lon="5.70547">
        <ele>662.8</ele>
        <time>2022-07-29T12:28:28Z</time>
      </trkpt>
      <trkpt lat="46.39628" lon="5.70545">
        <ele>663.2</ele>
        <time>2022-07-29T12:28:29Z</time>
      </trkpt>
      <trkpt lat="46.39625" lon="5.70543">
        <ele>663.4</ele>
        <time>2022-07-29T12:28:30Z</time>
      </trkpt>
      <trkpt lat="46.39621" lon="5.70541">
        <ele>663.4</ele>
        <time>2022-07-29T12:28:31Z</time>
      </trkpt>
      <trkpt lat="46.39617" lon="5.70539">
        <ele>663.8</ele>
        <time>2022-07-29T12:28:32Z</time>
      </trkpt>
      <trkpt lat="46.39614" lon="5.70536">
        <ele>664.2</ele>
        <time>2022-07-29T12:28:33Z</time>
      </trkpt>
      <trkpt lat="46.39611" lon="5.70534">
        <ele>664.2</ele>
        <time>2022-07-29T12:28:34Z</time>
      </trkpt>
      <trkpt lat="46.39608" lon="5.70531">
        <ele>664.6</ele>
        <time>2022-07-29T12:28:35Z</time>
      </trkpt>
      <trkpt lat="46.39605" lon="5.70529">
        <ele>664.6</ele>
        <time>2022-07-29T12:28:36Z</time>
      </trkpt>
      <trkpt lat="46.39602" lon="5.70526">
        <ele>664.6</ele>
        <time>2022-07-29T12:28:37Z</time>
      </trkpt>
      <trkpt lat="46.39599" lon="5.70523">
        <ele>664.6</ele>
        <time>2022-07-29T12:28:38Z</time>
      </trkpt>
      <trkpt lat="46.39595" lon="5.7052">
        <ele>664.6</ele>
        <time>2022-07-29T12:28:39Z</time>
      </trkpt>
      <trkpt lat="46.39591" lon="5.70516">
        <ele>664.6</ele>
        <time>2022-07-29T12:28:40Z</time>
      </trkpt>
      <trkpt lat="46.39587" lon="5.70513">
        <ele>664.6</ele>
        <time>2022-07-29T12:28:41Z</time>
      </trkpt>
      <trkpt lat="46.39583" lon="5.70509">
        <ele>664.6</ele>
        <time>2022-07-29T12:28:42Z</time>
      </trkpt>
      <trkpt lat="46.39578" lon="5.70504">
        <ele>664.2</ele>
        <time>2022-07-29T12:28:43Z</time>
      </trkpt>
      <trkpt lat="46.39573" lon="5.705">
        <ele>664</ele>
        <time>2022-07-29T12:28:44Z</time>
      </trkpt>
      <trkpt lat="46.39568" lon="5.70495">
        <ele>663.6</ele>
        <time>2022-07-29T12:28:45Z</time>
      </trkpt>
      <trkpt lat="46.39563" lon="5.7049">
        <ele>663.2</ele>
        <time>2022-07-29T12:28:46Z</time>
      </trkpt>
      <trkpt lat="46.39557" lon="5.70483">
        <ele>662.8</ele>
        <time>2022-07-29T12:28:47Z</time>
      </trkpt>
      <trkpt lat="46.39551" lon="5.70476">
        <ele>662.2</ele>
        <time>2022-07-29T12:28:48Z</time>
      </trkpt>
      <trkpt lat="46.39545" lon="5.70468">
        <ele>661.6</ele>
        <time>2022-07-29T12:28:49Z</time>
      </trkpt>
      <trkpt lat="46.39539" lon="5.7046">
        <ele>661.2</ele>
        <time>2022-07-29T12:28:50Z</time>
      </trkpt>
      <trkpt lat="46.39532" lon="5.70451">
        <ele>660.6</ele>
        <time>2022-07-29T12:28:51Z</time>
      </trkpt>
      <trkpt lat="46.39526" lon="5.70443">
        <ele>660.4</ele>
        <time>2022-07-29T12:28:52Z</time>
      </trkpt>
      <trkpt lat="46.39519" lon="5.70435">
        <ele>660</ele>
        <time>2022-07-29T12:28:53Z</time>
      </trkpt>
      <trkpt lat="46.39512" lon="5.70428">
        <ele>659.8</ele>
        <time>2022-07-29T12:28:54Z</time>
      </trkpt>
      <trkpt lat="46.39505" lon="5.70422">
        <ele>659.8</ele>
        <time>2022-07-29T12:28:55Z</time>
      </trkpt>
      <trkpt lat="46.39499" lon="5.70417">
        <ele>659.8</ele>
        <time>2022-07-29T12:28:56Z</time>
      </trkpt>
      <trkpt lat="46.39492" lon="5.70412">
        <ele>659.8</ele>
        <time>2022-07-29T12:28:57Z</time>
      </trkpt>
      <trkpt lat="46.39485" lon="5.70408">
        <ele>659.8</ele>
        <time>2022-07-29T12:28:58Z</time>
      </trkpt>
      <trkpt lat="46.39479" lon="5.70405">
        <ele>659.8</ele>
        <time>2022-07-29T12:28:59Z</time>
      </trkpt>
      <trkpt lat="46.39472" lon="5.70402">
        <ele>659.8</ele>
        <time>2022-07-29T12:29:00Z</time>
      </trkpt>
      <trkpt lat="46.39465" lon="5.70399">
        <ele>659.8</ele>
        <time>2022-07-29T12:29:01Z</time>
      </trkpt>
      <trkpt lat="46.39458" lon="5.70396">
        <ele>659.8</ele>
        <time>2022-07-29T12:29:02Z</time>
      </trkpt>
      <trkpt lat="46.39452" lon="5.70393">
        <ele>659.8</ele>
        <time>2022-07-29T12:29:03Z</time>
      </trkpt>
      <trkpt lat="46.39446" lon="5.7039">
        <ele>659.8</ele>
        <time>2022-07-29T12:29:04Z</time>
      </trkpt>
      <trkpt lat="46.3944" lon="5.70388">
        <ele>660</ele>
        <time>2022-07-29T12:29:05Z</time>
      </trkpt>
      <trkpt lat="46.39434" lon="5.70385">
        <ele>660</ele>
        <time>2022-07-29T12:29:06Z</time>
      </trkpt>
      <trkpt lat="46.39428" lon="5.70383">
        <ele>660.4</ele>
        <time>2022-07-29T12:29:07Z</time>
      </trkpt>
      <trkpt lat="46.39423" lon="5.70381">
        <ele>660.4</ele>
        <time>2022-07-29T12:29:08Z</time>
      </trkpt>
      <trkpt lat="46.39417" lon="5.70379">
        <ele>660.6</ele>
        <time>2022-07-29T12:29:09Z</time>
      </trkpt>
      <trkpt lat="46.39412" lon="5.70378">
        <ele>660.6</ele>
        <time>2022-07-29T12:29:10Z</time>
      </trkpt>
      <trkpt lat="46.39406" lon="5.70377">
        <ele>660.6</ele>
        <time>2022-07-29T12:29:11Z</time>
      </trkpt>
      <trkpt lat="46.39401" lon="5.70376">
        <ele>660.6</ele>
        <time>2022-07-29T12:29:12Z</time>
      </trkpt>
      <trkpt lat="46.39395" lon="5.70375">
        <ele>660.8</ele>
        <time>2022-07-29T12:29:13Z</time>
      </trkpt>
      <trkpt lat="46.39389" lon="5.70374">
        <ele>660.8</ele>
        <time>2022-07-29T12:29:14Z</time>
      </trkpt>
      <trkpt lat="46.39384" lon="5.70374">
        <ele>661</ele>
        <time>2022-07-29T12:29:15Z</time>
      </trkpt>
      <trkpt lat="46.39378" lon="5.70373">
        <ele>661</ele>
        <time>2022-07-29T12:29:16Z</time>
      </trkpt>
      <trkpt lat="46.39373" lon="5.70372">
        <ele>661.2</ele>
        <time>2022-07-29T12:29:17Z</time>
      </trkpt>
      <trkpt lat="46.39368" lon="5.70372">
        <ele>661.2</ele>
        <time>2022-07-29T12:29:18Z</time>
      </trkpt>
      <trkpt lat="46.39362" lon="5.70371">
        <ele>661.4</ele>
        <time>2022-07-29T12:29:19Z</time>
      </trkpt>
      <trkpt lat="46.39357" lon="5.70371">
        <ele>661.4</ele>
        <time>2022-07-29T12:29:20Z</time>
      </trkpt>
      <trkpt lat="46.39352" lon="5.70371">
        <ele>661.8</ele>
        <time>2022-07-29T12:29:21Z</time>
      </trkpt>
      <trkpt lat="46.39347" lon="5.70371">
        <ele>661.8</ele>
        <time>2022-07-29T12:29:22Z</time>
      </trkpt>
      <trkpt lat="46.39342" lon="5.7037">
        <ele>662</ele>
        <time>2022-07-29T12:29:23Z</time>
      </trkpt>
      <trkpt lat="46.39337" lon="5.70369">
        <ele>662</ele>
        <time>2022-07-29T12:29:24Z</time>
      </trkpt>
      <trkpt lat="46.39333" lon="5.70368">
        <ele>662.4</ele>
        <time>2022-07-29T12:29:25Z</time>
      </trkpt>
      <trkpt lat="46.39328" lon="5.70367">
        <ele>662.6</ele>
        <time>2022-07-29T12:29:26Z</time>
      </trkpt>
      <trkpt lat="46.39324" lon="5.70366">
        <ele>662.6</ele>
        <time>2022-07-29T12:29:27Z</time>
      </trkpt>
      <trkpt lat="46.3932" lon="5.70365">
        <ele>663</ele>
        <time>2022-07-29T12:29:28Z</time>
      </trkpt>
      <trkpt lat="46.39316" lon="5.70364">
        <ele>663</ele>
        <time>2022-07-29T12:29:29Z</time>
      </trkpt>
      <trkpt lat="46.39312" lon="5.70363">
        <ele>663.2</ele>
        <time>2022-07-29T12:29:30Z</time>
      </trkpt>
      <trkpt lat="46.39308" lon="5.70363">
        <ele>663.6</ele>
        <time>2022-07-29T12:29:31Z</time>
      </trkpt>
      <trkpt lat="46.39304" lon="5.70362">
        <ele>663.8</ele>
        <time>2022-07-29T12:29:32Z</time>
      </trkpt>
      <trkpt lat="46.393" lon="5.70361">
        <ele>664.2</ele>
        <time>2022-07-29T12:29:33Z</time>
      </trkpt>
      <trkpt lat="46.39297" lon="5.70359">
        <ele>664.4</ele>
        <time>2022-07-29T12:29:34Z</time>
      </trkpt>
      <trkpt lat="46.39293" lon="5.70358">
        <ele>664.8</ele>
        <time>2022-07-29T12:29:36Z</time>
      </trkpt>
      <trkpt lat="46.39289" lon="5.70356">
        <ele>664.8</ele>
        <time>2022-07-29T12:29:37Z</time>
      </trkpt>
      <trkpt lat="46.39286" lon="5.70355">
        <ele>664.8</ele>
        <time>2022-07-29T12:29:38Z</time>
      </trkpt>
      <trkpt lat="46.39282" lon="5.70353">
        <ele>665</ele>
        <time>2022-07-29T12:29:39Z</time>
      </trkpt>
      <trkpt lat="46.39279" lon="5.7035">
        <ele>665</ele>
        <time>2022-07-29T12:29:40Z</time>
      </trkpt>
      <trkpt lat="46.39275" lon="5.70348">
        <ele>665</ele>
        <time>2022-07-29T12:29:41Z</time>
      </trkpt>
      <trkpt lat="46.39271" lon="5.70345">
        <ele>665</ele>
        <time>2022-07-29T12:29:42Z</time>
      </trkpt>
      <trkpt lat="46.39268" lon="5.70342">
        <ele>665</ele>
        <time>2022-07-29T12:29:43Z</time>
      </trkpt>
      <trkpt lat="46.39264" lon="5.70339">
        <ele>664.8</ele>
        <time>2022-07-29T12:29:44Z</time>
      </trkpt>
      <trkpt lat="46.3926" lon="5.70334">
        <ele>664.8</ele>
        <time>2022-07-29T12:29:45Z</time>
      </trkpt>
      <trkpt lat="46.39255" lon="5.7033">
        <ele>664.8</ele>
        <time>2022-07-29T12:29:46Z</time>
      </trkpt>
      <trkpt lat="46.39251" lon="5.70325">
        <ele>664.4</ele>
        <time>2022-07-29T12:29:47Z</time>
      </trkpt>
      <trkpt lat="46.39247" lon="5.7032">
        <ele>664.4</ele>
        <time>2022-07-29T12:29:48Z</time>
      </trkpt>
      <trkpt lat="46.39243" lon="5.70314">
        <ele>664</ele>
        <time>2022-07-29T12:29:49Z</time>
      </trkpt>
      <trkpt lat="46.39238" lon="5.70308">
        <ele>663.8</ele>
        <time>2022-07-29T12:29:50Z</time>
      </trkpt>
      <trkpt lat="46.39234" lon="5.70302">
        <ele>663.6</ele>
        <time>2022-07-29T12:29:51Z</time>
      </trkpt>
      <trkpt lat="46.3923" lon="5.70295">
        <ele>663.2</ele>
        <time>2022-07-29T12:29:52Z</time>
      </trkpt>
      <trkpt lat="46.39226" lon="5.70287">
        <ele>663</ele>
        <time>2022-07-29T12:29:53Z</time>
      </trkpt>
      <trkpt lat="46.39221" lon="5.70279">
        <ele>662.6</ele>
        <time>2022-07-29T12:29:54Z</time>
      </trkpt>
      <trkpt lat="46.39216" lon="5.70271">
        <ele>662</ele>
        <time>2022-07-29T12:29:55Z</time>
      </trkpt>
      <trkpt lat="46.39211" lon="5.70262">
        <ele>661.6</ele>
        <time>2022-07-29T12:29:56Z</time>
      </trkpt>
      <trkpt lat="46.39206" lon="5.70252">
        <ele>661</ele>
        <time>2022-07-29T12:29:57Z</time>
      </trkpt>
      <trkpt lat="46.39201" lon="5.70243">
        <ele>660.4</ele>
        <time>2022-07-29T12:29:58Z</time>
      </trkpt>
      <trkpt lat="46.39195" lon="5.70233">
        <ele>659.8</ele>
        <time>2022-07-29T12:29:59Z</time>
      </trkpt>
      <trkpt lat="46.39188" lon="5.70222">
        <ele>659.2</ele>
        <time>2022-07-29T12:30:00Z</time>
      </trkpt>
      <trkpt lat="46.39183" lon="5.7021">
        <ele>658.4</ele>
        <time>2022-07-29T12:30:01Z</time>
      </trkpt>
      <trkpt lat="46.39176" lon="5.70198">
        <ele>657.8</ele>
        <time>2022-07-29T12:30:02Z</time>
      </trkpt>
      <trkpt lat="46.3917" lon="5.70186">
        <ele>657.2</ele>
        <time>2022-07-29T12:30:03Z</time>
      </trkpt>
      <trkpt lat="46.39164" lon="5.70174">
        <ele>656.6</ele>
        <time>2022-07-29T12:30:04Z</time>
      </trkpt>
      <trkpt lat="46.39159" lon="5.70163">
        <ele>656</ele>
        <time>2022-07-29T12:30:05Z</time>
      </trkpt>
      <trkpt lat="46.39153" lon="5.70152">
        <ele>655.6</ele>
        <time>2022-07-29T12:30:06Z</time>
      </trkpt>
      <trkpt lat="46.39147" lon="5.7014">
        <ele>655</ele>
        <time>2022-07-29T12:30:07Z</time>
      </trkpt>
      <trkpt lat="46.39141" lon="5.70129">
        <ele>654.6</ele>
        <time>2022-07-29T12:30:08Z</time>
      </trkpt>
      <trkpt lat="46.39135" lon="5.70117">
        <ele>654.6</ele>
        <time>2022-07-29T12:30:09Z</time>
      </trkpt>
      <trkpt lat="46.3913" lon="5.70105">
        <ele>654.2</ele>
        <time>2022-07-29T12:30:10Z</time>
      </trkpt>
      <trkpt lat="46.39124" lon="5.70094">
        <ele>654</ele>
        <time>2022-07-29T12:30:11Z</time>
      </trkpt>
      <trkpt lat="46.39119" lon="5.70082">
        <ele>653.8</ele>
        <time>2022-07-29T12:30:12Z</time>
      </trkpt>
      <trkpt lat="46.39115" lon="5.70069">
        <ele>653.8</ele>
        <time>2022-07-29T12:30:13Z</time>
      </trkpt>
      <trkpt lat="46.39112" lon="5.70057">
        <ele>653.4</ele>
        <time>2022-07-29T12:30:14Z</time>
      </trkpt>
      <trkpt lat="46.39108" lon="5.70047">
        <ele>653.4</ele>
        <time>2022-07-29T12:30:15Z</time>
      </trkpt>
      <trkpt lat="46.39104" lon="5.70037">
        <ele>653.2</ele>
        <time>2022-07-29T12:30:16Z</time>
      </trkpt>
      <trkpt lat="46.39101" lon="5.70028">
        <ele>653.2</ele>
        <time>2022-07-29T12:30:17Z</time>
      </trkpt>
      <trkpt lat="46.39097" lon="5.70019">
        <ele>653.2</ele>
        <time>2022-07-29T12:30:18Z</time>
      </trkpt>
      <trkpt lat="46.39092" lon="5.70011">
        <ele>653</ele>
        <time>2022-07-29T12:30:19Z</time>
      </trkpt>
      <trkpt lat="46.39088" lon="5.70003">
        <ele>653</ele>
        <time>2022-07-29T12:30:20Z</time>
      </trkpt>
      <trkpt lat="46.39083" lon="5.69995">
        <ele>652.6</ele>
        <time>2022-07-29T12:30:21Z</time>
      </trkpt>
      <trkpt lat="46.39078" lon="5.69986">
        <ele>652.4</ele>
        <time>2022-07-29T12:30:22Z</time>
      </trkpt>
      <trkpt lat="46.39073" lon="5.69978">
        <ele>652.2</ele>
        <time>2022-07-29T12:30:23Z</time>
      </trkpt>
      <trkpt lat="46.39068" lon="5.6997">
        <ele>651.8</ele>
        <time>2022-07-29T12:30:24Z</time>
      </trkpt>
      <trkpt lat="46.39062" lon="5.69962">
        <ele>651.6</ele>
        <time>2022-07-29T12:30:25Z</time>
      </trkpt>
      <trkpt lat="46.39056" lon="5.69954">
        <ele>651.2</ele>
        <time>2022-07-29T12:30:26Z</time>
      </trkpt>
      <trkpt lat="46.3905" lon="5.69947">
        <ele>651</ele>
        <time>2022-07-29T12:30:27Z</time>
      </trkpt>
      <trkpt lat="46.39043" lon="5.6994">
        <ele>650.8</ele>
        <time>2022-07-29T12:30:28Z</time>
      </trkpt>
      <trkpt lat="46.39036" lon="5.69934">
        <ele>650.8</ele>
        <time>2022-07-29T12:30:29Z</time>
      </trkpt>
      <trkpt lat="46.39029" lon="5.69929">
        <ele>650.4</ele>
        <time>2022-07-29T12:30:30Z</time>
      </trkpt>
      <trkpt lat="46.39022" lon="5.69924">
        <ele>650.4</ele>
        <time>2022-07-29T12:30:31Z</time>
      </trkpt>
      <trkpt lat="46.39015" lon="5.69919">
        <ele>650</ele>
        <time>2022-07-29T12:30:32Z</time>
      </trkpt>
      <trkpt lat="46.39008" lon="5.69915">
        <ele>649.8</ele>
        <time>2022-07-29T12:30:33Z</time>
      </trkpt>
      <trkpt lat="46.39" lon="5.69912">
        <ele>649.4</ele>
        <time>2022-07-29T12:30:34Z</time>
      </trkpt>
      <trkpt lat="46.38993" lon="5.6991">
        <ele>649.2</ele>
        <time>2022-07-29T12:30:35Z</time>
      </trkpt>
      <trkpt lat="46.38985" lon="5.69909">
        <ele>649.2</ele>
        <time>2022-07-29T12:30:36Z</time>
      </trkpt>
      <trkpt lat="46.38977" lon="5.69908">
        <ele>649</ele>
        <time>2022-07-29T12:30:37Z</time>
      </trkpt>
      <trkpt lat="46.38969" lon="5.69907">
        <ele>648.6</ele>
        <time>2022-07-29T12:30:38Z</time>
      </trkpt>
      <trkpt lat="46.38962" lon="5.69907">
        <ele>648.4</ele>
        <time>2022-07-29T12:30:39Z</time>
      </trkpt>
      <trkpt lat="46.38954" lon="5.69908">
        <ele>648.4</ele>
        <time>2022-07-29T12:30:40Z</time>
      </trkpt>
      <trkpt lat="46.38946" lon="5.69909">
        <ele>648</ele>
        <time>2022-07-29T12:30:41Z</time>
      </trkpt>
      <trkpt lat="46.38939" lon="5.6991">
        <ele>648</ele>
        <time>2022-07-29T12:30:42Z</time>
      </trkpt>
      <trkpt lat="46.38932" lon="5.69912">
        <ele>647.6</ele>
        <time>2022-07-29T12:30:43Z</time>
      </trkpt>
      <trkpt lat="46.38924" lon="5.69914">
        <ele>647.4</ele>
        <time>2022-07-29T12:30:44Z</time>
      </trkpt>
      <trkpt lat="46.38917" lon="5.69915">
        <ele>647.4</ele>
        <time>2022-07-29T12:30:45Z</time>
      </trkpt>
      <trkpt lat="46.3891" lon="5.69916">
        <ele>647.2</ele>
        <time>2022-07-29T12:30:46Z</time>
      </trkpt>
      <trkpt lat="46.38902" lon="5.69917">
        <ele>646.8</ele>
        <time>2022-07-29T12:30:47Z</time>
      </trkpt>
      <trkpt lat="46.38895" lon="5.69918">
        <ele>646.8</ele>
        <time>2022-07-29T12:30:48Z</time>
      </trkpt>
      <trkpt lat="46.38887" lon="5.69918">
        <ele>646.6</ele>
        <time>2022-07-29T12:30:49Z</time>
      </trkpt>
      <trkpt lat="46.38879" lon="5.69919">
        <ele>646.6</ele>
        <time>2022-07-29T12:30:50Z</time>
      </trkpt>
      <trkpt lat="46.38871" lon="5.69921">
        <ele>646.2</ele>
        <time>2022-07-29T12:30:51Z</time>
      </trkpt>
      <trkpt lat="46.38864" lon="5.69922">
        <ele>646.2</ele>
        <time>2022-07-29T12:30:52Z</time>
      </trkpt>
      <trkpt lat="46.38856" lon="5.69923">
        <ele>646</ele>
        <time>2022-07-29T12:30:53Z</time>
      </trkpt>
      <trkpt lat="46.38849" lon="5.69925">
        <ele>646</ele>
        <time>2022-07-29T12:30:54Z</time>
      </trkpt>
      <trkpt lat="46.38842" lon="5.69926">
        <ele>645.6</ele>
        <time>2022-07-29T12:30:55Z</time>
      </trkpt>
      <trkpt lat="46.38835" lon="5.69926">
        <ele>645.2</ele>
        <time>2022-07-29T12:30:56Z</time>
      </trkpt>
      <trkpt lat="46.38828" lon="5.69924">
        <ele>645.2</ele>
        <time>2022-07-29T12:30:57Z</time>
      </trkpt>
      <trkpt lat="46.38821" lon="5.69919">
        <ele>645</ele>
        <time>2022-07-29T12:30:58Z</time>
      </trkpt>
      <trkpt lat="46.38815" lon="5.69914">
        <ele>644.8</ele>
        <time>2022-07-29T12:30:59Z</time>
      </trkpt>
      <trkpt lat="46.38809" lon="5.69909">
        <ele>644.8</ele>
        <time>2022-07-29T12:31:00Z</time>
      </trkpt>
      <trkpt lat="46.38803" lon="5.69903">
        <ele>644.4</ele>
        <time>2022-07-29T12:31:01Z</time>
      </trkpt>
      <trkpt lat="46.38796" lon="5.69898">
        <ele>644.4</ele>
        <time>2022-07-29T12:31:02Z</time>
      </trkpt>
      <trkpt lat="46.3879" lon="5.69893">
        <ele>644.2</ele>
        <time>2022-07-29T12:31:03Z</time>
      </trkpt>
      <trkpt lat="46.38783" lon="5.69889">
        <ele>643.8</ele>
        <time>2022-07-29T12:31:04Z</time>
      </trkpt>
      <trkpt lat="46.38777" lon="5.69884">
        <ele>643.4</ele>
        <time>2022-07-29T12:31:05Z</time>
      </trkpt>
      <trkpt lat="46.3877" lon="5.69879">
        <ele>643</ele>
        <time>2022-07-29T12:31:06Z</time>
      </trkpt>
      <trkpt lat="46.38763" lon="5.69873">
        <ele>642.8</ele>
        <time>2022-07-29T12:31:07Z</time>
      </trkpt>
      <trkpt lat="46.38756" lon="5.69868">
        <ele>642.4</ele>
        <time>2022-07-29T12:31:08Z</time>
      </trkpt>
      <trkpt lat="46.38748" lon="5.69863">
        <ele>642</ele>
        <time>2022-07-29T12:31:09Z</time>
      </trkpt>
      <trkpt lat="46.3874" lon="5.69857">
        <ele>641.4</ele>
        <time>2022-07-29T12:31:10Z</time>
      </trkpt>
      <trkpt lat="46.38732" lon="5.69851">
        <ele>640.8</ele>
        <time>2022-07-29T12:31:11Z</time>
      </trkpt>
      <trkpt lat="46.38724" lon="5.69843">
        <ele>640.2</ele>
        <time>2022-07-29T12:31:12Z</time>
      </trkpt>
      <trkpt lat="46.38716" lon="5.69834">
        <ele>639.4</ele>
        <time>2022-07-29T12:31:13Z</time>
      </trkpt>
      <trkpt lat="46.38708" lon="5.69824">
        <ele>638.6</ele>
        <time>2022-07-29T12:31:14Z</time>
      </trkpt>
      <trkpt lat="46.387" lon="5.69815">
        <ele>637.8</ele>
        <time>2022-07-29T12:31:15Z</time>
      </trkpt>
      <trkpt lat="46.3869" lon="5.69807">
        <ele>637</ele>
        <time>2022-07-29T12:31:16Z</time>
      </trkpt>
      <trkpt lat="46.3868" lon="5.698">
        <ele>636</ele>
        <time>2022-07-29T12:31:17Z</time>
      </trkpt>
      <trkpt lat="46.3867" lon="5.69795">
        <ele>635</ele>
        <time>2022-07-29T12:31:18Z</time>
      </trkpt>
      <trkpt lat="46.38659" lon="5.69791">
        <ele>634.2</ele>
        <time>2022-07-29T12:31:19Z</time>
      </trkpt>
      <trkpt lat="46.38648" lon="5.69788">
        <ele>633.4</ele>
        <time>2022-07-29T12:31:20Z</time>
      </trkpt>
      <trkpt lat="46.38637" lon="5.69786">
        <ele>632.6</ele>
        <time>2022-07-29T12:31:21Z</time>
      </trkpt>
      <trkpt lat="46.38626" lon="5.69785">
        <ele>631.8</ele>
        <time>2022-07-29T12:31:22Z</time>
      </trkpt>
      <trkpt lat="46.38614" lon="5.69785">
        <ele>631.2</ele>
        <time>2022-07-29T12:31:23Z</time>
      </trkpt>
      <trkpt lat="46.38603" lon="5.69785">
        <ele>630.4</ele>
        <time>2022-07-29T12:31:24Z</time>
      </trkpt>
      <trkpt lat="46.38591" lon="5.69786">
        <ele>629.8</ele>
        <time>2022-07-29T12:31:25Z</time>
      </trkpt>
      <trkpt lat="46.38579" lon="5.69788">
        <ele>629.2</ele>
        <time>2022-07-29T12:31:26Z</time>
      </trkpt>
      <trkpt lat="46.38567" lon="5.69791">
        <ele>628.6</ele>
        <time>2022-07-29T12:31:27Z</time>
      </trkpt>
      <trkpt lat="46.38556" lon="5.69791">
        <ele>628</ele>
        <time>2022-07-29T12:31:28Z</time>
      </trkpt>
      <trkpt lat="46.38545" lon="5.6979">
        <ele>627.4</ele>
        <time>2022-07-29T12:31:29Z</time>
      </trkpt>
      <trkpt lat="46.38521" lon="5.6978">
        <ele>626</ele>
        <time>2022-07-29T12:31:30Z</time>
      </trkpt>
      <trkpt lat="46.38511" lon="5.69771">
        <ele>625.2</ele>
        <time>2022-07-29T12:31:31Z</time>
      </trkpt>
      <trkpt lat="46.385" lon="5.69762">
        <ele>624.4</ele>
        <time>2022-07-29T12:31:32Z</time>
      </trkpt>
      <trkpt lat="46.3849" lon="5.69753">
        <ele>623.4</ele>
        <time>2022-07-29T12:31:33Z</time>
      </trkpt>
      <trkpt lat="46.38479" lon="5.69741">
        <ele>622.2</ele>
        <time>2022-07-29T12:31:34Z</time>
      </trkpt>
      <trkpt lat="46.38469" lon="5.69733">
        <ele>621.2</ele>
        <time>2022-07-29T12:31:35Z</time>
      </trkpt>
      <trkpt lat="46.38458" lon="5.69724">
        <ele>620.2</ele>
        <time>2022-07-29T12:31:36Z</time>
      </trkpt>
      <trkpt lat="46.38447" lon="5.69714">
        <ele>619.2</ele>
        <time>2022-07-29T12:31:37Z</time>
      </trkpt>
      <trkpt lat="46.38436" lon="5.69704">
        <ele>618.2</ele>
        <time>2022-07-29T12:31:38Z</time>
      </trkpt>
      <trkpt lat="46.38425" lon="5.69693">
        <ele>617.2</ele>
        <time>2022-07-29T12:31:39Z</time>
      </trkpt>
      <trkpt lat="46.38414" lon="5.69681">
        <ele>616.2</ele>
        <time>2022-07-29T12:31:40Z</time>
      </trkpt>
      <trkpt lat="46.38403" lon="5.6967">
        <ele>615</ele>
        <time>2022-07-29T12:31:41Z</time>
      </trkpt>
      <trkpt lat="46.38392" lon="5.69656">
        <ele>613.8</ele>
        <time>2022-07-29T12:31:42Z</time>
      </trkpt>
      <trkpt lat="46.38383" lon="5.69641">
        <ele>612.8</ele>
        <time>2022-07-29T12:31:43Z</time>
      </trkpt>
      <trkpt lat="46.38375" lon="5.69626">
        <ele>611.6</ele>
        <time>2022-07-29T12:31:44Z</time>
      </trkpt>
      <trkpt lat="46.38367" lon="5.69609">
        <ele>610.2</ele>
        <time>2022-07-29T12:31:45Z</time>
      </trkpt>
      <trkpt lat="46.38361" lon="5.69591">
        <ele>609</ele>
        <time>2022-07-29T12:31:46Z</time>
      </trkpt>
      <trkpt lat="46.38355" lon="5.69573">
        <ele>607.8</ele>
        <time>2022-07-29T12:31:47Z</time>
      </trkpt>
      <trkpt lat="46.3835" lon="5.69555">
        <ele>606.4</ele>
        <time>2022-07-29T12:31:48Z</time>
      </trkpt>
      <trkpt lat="46.38344" lon="5.69537">
        <ele>605.4</ele>
        <time>2022-07-29T12:31:49Z</time>
      </trkpt>
      <trkpt lat="46.38336" lon="5.69519">
        <ele>604.2</ele>
        <time>2022-07-29T12:31:50Z</time>
      </trkpt>
      <trkpt lat="46.38328" lon="5.69503">
        <ele>603</ele>
        <time>2022-07-29T12:31:51Z</time>
      </trkpt>
      <trkpt lat="46.38319" lon="5.69488">
        <ele>601.8</ele>
        <time>2022-07-29T12:31:52Z</time>
      </trkpt>
      <trkpt lat="46.38308" lon="5.69476">
        <ele>600.6</ele>
        <time>2022-07-29T12:31:53Z</time>
      </trkpt>
      <trkpt lat="46.38296" lon="5.69466">
        <ele>599.4</ele>
        <time>2022-07-29T12:31:54Z</time>
      </trkpt>
      <trkpt lat="46.38283" lon="5.69457">
        <ele>598</ele>
        <time>2022-07-29T12:31:55Z</time>
      </trkpt>
      <trkpt lat="46.38283" lon="5.69457">
        <ele>598</ele>
        <time>2022-07-29T12:31:56Z</time>
      </trkpt>
      <trkpt lat="46.3827" lon="5.6945">
        <ele>596.6</ele>
        <time>2022-07-29T12:31:57Z</time>
      </trkpt>
      <trkpt lat="46.38257" lon="5.69445">
        <ele>595.2</ele>
        <time>2022-07-29T12:31:58Z</time>
      </trkpt>
      <trkpt lat="46.38245" lon="5.69444">
        <ele>593.8</ele>
        <time>2022-07-29T12:31:59Z</time>
      </trkpt>
      <trkpt lat="46.38233" lon="5.69446">
        <ele>592.6</ele>
        <time>2022-07-29T12:32:00Z</time>
      </trkpt>
      <trkpt lat="46.38222" lon="5.69454">
        <ele>591.4</ele>
        <time>2022-07-29T12:32:01Z</time>
      </trkpt>
      <trkpt lat="46.38212" lon="5.69466">
        <ele>590.2</ele>
        <time>2022-07-29T12:32:02Z</time>
      </trkpt>
      <trkpt lat="46.38203" lon="5.69479">
        <ele>589.2</ele>
        <time>2022-07-29T12:32:03Z</time>
      </trkpt>
      <trkpt lat="46.38193" lon="5.69492">
        <ele>588.2</ele>
        <time>2022-07-29T12:32:04Z</time>
      </trkpt>
      <trkpt lat="46.38181" lon="5.69501">
        <ele>587.4</ele>
        <time>2022-07-29T12:32:05Z</time>
      </trkpt>
      <trkpt lat="46.38169" lon="5.69505">
        <ele>586.6</ele>
        <time>2022-07-29T12:32:06Z</time>
      </trkpt>
      <trkpt lat="46.38157" lon="5.69507">
        <ele>586</ele>
        <time>2022-07-29T12:32:07Z</time>
      </trkpt>
      <trkpt lat="46.38145" lon="5.69504">
        <ele>585.6</ele>
        <time>2022-07-29T12:32:08Z</time>
      </trkpt>
      <trkpt lat="46.38134" lon="5.69503">
        <ele>585</ele>
        <time>2022-07-29T12:32:09Z</time>
      </trkpt>
      <trkpt lat="46.38122" lon="5.69502">
        <ele>584.6</ele>
        <time>2022-07-29T12:32:10Z</time>
      </trkpt>
      <trkpt lat="46.38111" lon="5.69502">
        <ele>584.4</ele>
        <time>2022-07-29T12:32:11Z</time>
      </trkpt>
      <trkpt lat="46.381" lon="5.69502">
        <ele>584</ele>
        <time>2022-07-29T12:32:12Z</time>
      </trkpt>
      <trkpt lat="46.38089" lon="5.69504">
        <ele>583.8</ele>
        <time>2022-07-29T12:32:13Z</time>
      </trkpt>
      <trkpt lat="46.38079" lon="5.69508">
        <ele>583.6</ele>
        <time>2022-07-29T12:32:14Z</time>
      </trkpt>
      <trkpt lat="46.38068" lon="5.69514">
        <ele>583.6</ele>
        <time>2022-07-29T12:32:15Z</time>
      </trkpt>
      <trkpt lat="46.3806" lon="5.69521">
        <ele>583.6</ele>
        <time>2022-07-29T12:32:16Z</time>
      </trkpt>
      <trkpt lat="46.38053" lon="5.69529">
        <ele>583.6</ele>
        <time>2022-07-29T12:32:17Z</time>
      </trkpt>
      <trkpt lat="46.38047" lon="5.69537">
        <ele>583.8</ele>
        <time>2022-07-29T12:32:18Z</time>
      </trkpt>
      <trkpt lat="46.38042" lon="5.69546">
        <ele>584.2</ele>
        <time>2022-07-29T12:32:19Z</time>
      </trkpt>
      <trkpt lat="46.38039" lon="5.69553">
        <ele>584.6</ele>
        <time>2022-07-29T12:32:20Z</time>
      </trkpt>
      <trkpt lat="46.38035" lon="5.69561">
        <ele>585.2</ele>
        <time>2022-07-29T12:32:21Z</time>
      </trkpt>
      <trkpt lat="46.38031" lon="5.69568">
        <ele>585.8</ele>
        <time>2022-07-29T12:32:22Z</time>
      </trkpt>
      <trkpt lat="46.38028" lon="5.69574">
        <ele>586.4</ele>
        <time>2022-07-29T12:32:23Z</time>
      </trkpt>
      <trkpt lat="46.38025" lon="5.6958">
        <ele>587</ele>
        <time>2022-07-29T12:32:24Z</time>
      </trkpt>
      <trkpt lat="46.38022" lon="5.69585">
        <ele>587.4</ele>
        <time>2022-07-29T12:32:25Z</time>
      </trkpt>
      <trkpt lat="46.38019" lon="5.6959">
        <ele>588</ele>
        <time>2022-07-29T12:32:26Z</time>
      </trkpt>
      <trkpt lat="46.38016" lon="5.69594">
        <ele>588.6</ele>
        <time>2022-07-29T12:32:27Z</time>
      </trkpt>
      <trkpt lat="46.38014" lon="5.69598">
        <ele>589.2</ele>
        <time>2022-07-29T12:32:28Z</time>
      </trkpt>
      <trkpt lat="46.38011" lon="5.69601">
        <ele>589.6</ele>
        <time>2022-07-29T12:32:29Z</time>
      </trkpt>
      <trkpt lat="46.38009" lon="5.69604">
        <ele>590</ele>
        <time>2022-07-29T12:32:30Z</time>
      </trkpt>
      <trkpt lat="46.38007" lon="5.69607">
        <ele>590.2</ele>
        <time>2022-07-29T12:32:31Z</time>
      </trkpt>
      <trkpt lat="46.38005" lon="5.69609">
        <ele>590.4</ele>
        <time>2022-07-29T12:32:32Z</time>
      </trkpt>
      <trkpt lat="46.38003" lon="5.69611">
        <ele>590.8</ele>
        <time>2022-07-29T12:32:33Z</time>
      </trkpt>
      <trkpt lat="46.38001" lon="5.69612">
        <ele>591</ele>
        <time>2022-07-29T12:32:34Z</time>
      </trkpt>
      <trkpt lat="46.37998" lon="5.69614">
        <ele>591</ele>
        <time>2022-07-29T12:32:35Z</time>
      </trkpt>
      <trkpt lat="46.37996" lon="5.69615">
        <ele>591.4</ele>
        <time>2022-07-29T12:32:36Z</time>
      </trkpt>
      <trkpt lat="46.37994" lon="5.69618">
        <ele>591.6</ele>
        <time>2022-07-29T12:32:37Z</time>
      </trkpt>
      <trkpt lat="46.37992" lon="5.6962">
        <ele>591.8</ele>
        <time>2022-07-29T12:32:38Z</time>
      </trkpt>
      <trkpt lat="46.3799" lon="5.69622">
        <ele>592</ele>
        <time>2022-07-29T12:32:39Z</time>
      </trkpt>
      <trkpt lat="46.37988" lon="5.69625">
        <ele>592.2</ele>
        <time>2022-07-29T12:32:40Z</time>
      </trkpt>
      <trkpt lat="46.37985" lon="5.69626">
        <ele>592.2</ele>
        <time>2022-07-29T12:32:41Z</time>
      </trkpt>
      <trkpt lat="46.37983" lon="5.69628">
        <ele>592.6</ele>
        <time>2022-07-29T12:32:42Z</time>
      </trkpt>
      <trkpt lat="46.37981" lon="5.6963">
        <ele>592.6</ele>
        <time>2022-07-29T12:32:43Z</time>
      </trkpt>
      <trkpt lat="46.37979" lon="5.69632">
        <ele>593</ele>
        <time>2022-07-29T12:32:44Z</time>
      </trkpt>
      <trkpt lat="46.37976" lon="5.69634">
        <ele>593</ele>
        <time>2022-07-29T12:32:45Z</time>
      </trkpt>
      <trkpt lat="46.37974" lon="5.69636">
        <ele>593.2</ele>
        <time>2022-07-29T12:32:46Z</time>
      </trkpt>
      <trkpt lat="46.37971" lon="5.69638">
        <ele>593.4</ele>
        <time>2022-07-29T12:32:47Z</time>
      </trkpt>
      <trkpt lat="46.37969" lon="5.69639">
        <ele>593.6</ele>
        <time>2022-07-29T12:32:48Z</time>
      </trkpt>
      <trkpt lat="46.37966" lon="5.69641">
        <ele>594</ele>
        <time>2022-07-29T12:32:49Z</time>
      </trkpt>
      <trkpt lat="46.37963" lon="5.69643">
        <ele>594</ele>
        <time>2022-07-29T12:32:50Z</time>
      </trkpt>
      <trkpt lat="46.37961" lon="5.69646">
        <ele>594.4</ele>
        <time>2022-07-29T12:32:51Z</time>
      </trkpt>
      <trkpt lat="46.37958" lon="5.69648">
        <ele>594.6</ele>
        <time>2022-07-29T12:32:52Z</time>
      </trkpt>
      <trkpt lat="46.37955" lon="5.69648">
        <ele>595</ele>
        <time>2022-07-29T12:32:53Z</time>
      </trkpt>
      <trkpt lat="46.37953" lon="5.69649">
        <ele>595.2</ele>
        <time>2022-07-29T12:32:54Z</time>
      </trkpt>
      <trkpt lat="46.3795" lon="5.6965">
        <ele>595.2</ele>
        <time>2022-07-29T12:32:55Z</time>
      </trkpt>
      <trkpt lat="46.37947" lon="5.6965">
        <ele>595.4</ele>
        <time>2022-07-29T12:32:56Z</time>
      </trkpt>
      <trkpt lat="46.37945" lon="5.6965">
        <ele>595.8</ele>
        <time>2022-07-29T12:32:57Z</time>
      </trkpt>
      <trkpt lat="46.37942" lon="5.69651">
        <ele>596</ele>
        <time>2022-07-29T12:32:58Z</time>
      </trkpt>
      <trkpt lat="46.3794" lon="5.69652">
        <ele>596</ele>
        <time>2022-07-29T12:32:59Z</time>
      </trkpt>
      <trkpt lat="46.37937" lon="5.69652">
        <ele>596.4</ele>
        <time>2022-07-29T12:33:00Z</time>
      </trkpt>
      <trkpt lat="46.37934" lon="5.69652">
        <ele>596.4</ele>
        <time>2022-07-29T12:33:01Z</time>
      </trkpt>
      <trkpt lat="46.37931" lon="5.69653">
        <ele>596.4</ele>
        <time>2022-07-29T12:33:02Z</time>
      </trkpt>
      <trkpt lat="46.37929" lon="5.69653">
        <ele>596.8</ele>
        <time>2022-07-29T12:33:03Z</time>
      </trkpt>
      <trkpt lat="46.37925" lon="5.69653">
        <ele>596.8</ele>
        <time>2022-07-29T12:33:04Z</time>
      </trkpt>
      <trkpt lat="46.37922" lon="5.69654">
        <ele>596.8</ele>
        <time>2022-07-29T12:33:05Z</time>
      </trkpt>
      <trkpt lat="46.37919" lon="5.69654">
        <ele>596.8</ele>
        <time>2022-07-29T12:33:06Z</time>
      </trkpt>
      <trkpt lat="46.37915" lon="5.69655">
        <ele>596.8</ele>
        <time>2022-07-29T12:33:07Z</time>
      </trkpt>
      <trkpt lat="46.37912" lon="5.69656">
        <ele>596.8</ele>
        <time>2022-07-29T12:33:08Z</time>
      </trkpt>
      <trkpt lat="46.37908" lon="5.69657">
        <ele>596.8</ele>
        <time>2022-07-29T12:33:09Z</time>
      </trkpt>
      <trkpt lat="46.37904" lon="5.69658">
        <ele>597</ele>
        <time>2022-07-29T12:33:10Z</time>
      </trkpt>
      <trkpt lat="46.379" lon="5.69659">
        <ele>597</ele>
        <time>2022-07-29T12:33:11Z</time>
      </trkpt>
      <trkpt lat="46.37896" lon="5.6966">
        <ele>597</ele>
        <time>2022-07-29T12:33:12Z</time>
      </trkpt>
      <trkpt lat="46.37892" lon="5.69662">
        <ele>597</ele>
        <time>2022-07-29T12:33:13Z</time>
      </trkpt>
      <trkpt lat="46.37888" lon="5.69663">
        <ele>597</ele>
        <time>2022-07-29T12:33:14Z</time>
      </trkpt>
      <trkpt lat="46.37884" lon="5.69664">
        <ele>597</ele>
        <time>2022-07-29T12:33:15Z</time>
      </trkpt>
      <trkpt lat="46.3788" lon="5.69665">
        <ele>597</ele>
        <time>2022-07-29T12:33:16Z</time>
      </trkpt>
      <trkpt lat="46.37876" lon="5.69666">
        <ele>597</ele>
        <time>2022-07-29T12:33:17Z</time>
      </trkpt>
      <trkpt lat="46.37872" lon="5.69667">
        <ele>597</ele>
        <time>2022-07-29T12:33:18Z</time>
      </trkpt>
      <trkpt lat="46.37867" lon="5.69667">
        <ele>597</ele>
        <time>2022-07-29T12:33:19Z</time>
      </trkpt>
      <trkpt lat="46.37863" lon="5.69667">
        <ele>596.8</ele>
        <time>2022-07-29T12:33:20Z</time>
      </trkpt>
      <trkpt lat="46.37858" lon="5.69667">
        <ele>596.8</ele>
        <time>2022-07-29T12:33:21Z</time>
      </trkpt>
      <trkpt lat="46.37854" lon="5.69665">
        <ele>596.8</ele>
        <time>2022-07-29T12:33:22Z</time>
      </trkpt>
      <trkpt lat="46.37849" lon="5.69664">
        <ele>596.6</ele>
        <time>2022-07-29T12:33:23Z</time>
      </trkpt>
      <trkpt lat="46.37844" lon="5.69662">
        <ele>596.6</ele>
        <time>2022-07-29T12:33:24Z</time>
      </trkpt>
      <trkpt lat="46.37839" lon="5.6966">
        <ele>596.2</ele>
        <time>2022-07-29T12:33:25Z</time>
      </trkpt>
      <trkpt lat="46.37833" lon="5.69657">
        <ele>596.2</ele>
        <time>2022-07-29T12:33:26Z</time>
      </trkpt>
      <trkpt lat="46.37828" lon="5.69653">
        <ele>595.8</ele>
        <time>2022-07-29T12:33:27Z</time>
      </trkpt>
      <trkpt lat="46.37822" lon="5.6965">
        <ele>595.8</ele>
        <time>2022-07-29T12:33:28Z</time>
      </trkpt>
      <trkpt lat="46.37817" lon="5.69646">
        <ele>595.6</ele>
        <time>2022-07-29T12:33:29Z</time>
      </trkpt>
      <trkpt lat="46.37811" lon="5.69643">
        <ele>595.6</ele>
        <time>2022-07-29T12:33:30Z</time>
      </trkpt>
      <trkpt lat="46.37805" lon="5.6964">
        <ele>595.6</ele>
        <time>2022-07-29T12:33:31Z</time>
      </trkpt>
      <trkpt lat="46.37799" lon="5.69638">
        <ele>595.6</ele>
        <time>2022-07-29T12:33:32Z</time>
      </trkpt>
      <trkpt lat="46.37793" lon="5.69636">
        <ele>595.6</ele>
        <time>2022-07-29T12:33:33Z</time>
      </trkpt>
      <trkpt lat="46.37787" lon="5.69634">
        <ele>595.6</ele>
        <time>2022-07-29T12:33:34Z</time>
      </trkpt>
      <trkpt lat="46.37782" lon="5.69632">
        <ele>595.4</ele>
        <time>2022-07-29T12:33:35Z</time>
      </trkpt>
      <trkpt lat="46.37776" lon="5.6963">
        <ele>595.4</ele>
        <time>2022-07-29T12:33:36Z</time>
      </trkpt>
      <trkpt lat="46.37771" lon="5.69629">
        <ele>595.8</ele>
        <time>2022-07-29T12:33:37Z</time>
      </trkpt>
      <trkpt lat="46.37767" lon="5.69628">
        <ele>595.8</ele>
        <time>2022-07-29T12:33:38Z</time>
      </trkpt>
      <trkpt lat="46.37762" lon="5.69626">
        <ele>596</ele>
        <time>2022-07-29T12:33:39Z</time>
      </trkpt>
      <trkpt lat="46.37759" lon="5.69625">
        <ele>596.4</ele>
        <time>2022-07-29T12:33:40Z</time>
      </trkpt>
      <trkpt lat="46.37755" lon="5.69623">
        <ele>596.6</ele>
        <time>2022-07-29T12:33:41Z</time>
      </trkpt>
      <trkpt lat="46.37751" lon="5.69622">
        <ele>596.8</ele>
        <time>2022-07-29T12:33:42Z</time>
      </trkpt>
      <trkpt lat="46.37748" lon="5.6962">
        <ele>596.8</ele>
        <time>2022-07-29T12:33:43Z</time>
      </trkpt>
      <trkpt lat="46.37745" lon="5.69619">
        <ele>597</ele>
        <time>2022-07-29T12:33:44Z</time>
      </trkpt>
      <trkpt lat="46.37742" lon="5.69617">
        <ele>597</ele>
        <time>2022-07-29T12:33:45Z</time>
      </trkpt>
      <trkpt lat="46.37739" lon="5.69615">
        <ele>597.2</ele>
        <time>2022-07-29T12:33:46Z</time>
      </trkpt>
      <trkpt lat="46.37735" lon="5.69613">
        <ele>597.2</ele>
        <time>2022-07-29T12:33:47Z</time>
      </trkpt>
      <trkpt lat="46.37732" lon="5.69611">
        <ele>597.2</ele>
        <time>2022-07-29T12:33:48Z</time>
      </trkpt>
      <trkpt lat="46.37728" lon="5.69608">
        <ele>597.4</ele>
        <time>2022-07-29T12:33:49Z</time>
      </trkpt>
      <trkpt lat="46.37723" lon="5.69605">
        <ele>597.4</ele>
        <time>2022-07-29T12:33:50Z</time>
      </trkpt>
      <trkpt lat="46.37719" lon="5.69602">
        <ele>597.4</ele>
        <time>2022-07-29T12:33:51Z</time>
      </trkpt>
      <trkpt lat="46.37714" lon="5.69599">
        <ele>597.4</ele>
        <time>2022-07-29T12:33:52Z</time>
      </trkpt>
      <trkpt lat="46.37709" lon="5.69595">
        <ele>597.2</ele>
        <time>2022-07-29T12:33:53Z</time>
      </trkpt>
      <trkpt lat="46.37704" lon="5.69591">
        <ele>597.2</ele>
        <time>2022-07-29T12:33:54Z</time>
      </trkpt>
      <trkpt lat="46.37699" lon="5.69587">
        <ele>597.2</ele>
        <time>2022-07-29T12:33:55Z</time>
      </trkpt>
      <trkpt lat="46.37693" lon="5.69584">
        <ele>597.2</ele>
        <time>2022-07-29T12:33:56Z</time>
      </trkpt>
      <trkpt lat="46.37688" lon="5.6958">
        <ele>597.2</ele>
        <time>2022-07-29T12:33:57Z</time>
      </trkpt>
      <trkpt lat="46.37683" lon="5.69577">
        <ele>597.2</ele>
        <time>2022-07-29T12:33:58Z</time>
      </trkpt>
      <trkpt lat="46.37679" lon="5.69573">
        <ele>597.4</ele>
        <time>2022-07-29T12:33:59Z</time>
      </trkpt>
      <trkpt lat="46.37675" lon="5.6957">
        <ele>597.4</ele>
        <time>2022-07-29T12:34:00Z</time>
      </trkpt>
      <trkpt lat="46.37671" lon="5.69567">
        <ele>597.8</ele>
        <time>2022-07-29T12:34:01Z</time>
      </trkpt>
      <trkpt lat="46.37667" lon="5.69564">
        <ele>598</ele>
        <time>2022-07-29T12:34:02Z</time>
      </trkpt>
      <trkpt lat="46.37664" lon="5.69561">
        <ele>598</ele>
        <time>2022-07-29T12:34:03Z</time>
      </trkpt>
      <trkpt lat="46.37661" lon="5.69558">
        <ele>598.6</ele>
        <time>2022-07-29T12:34:04Z</time>
      </trkpt>
      <trkpt lat="46.37658" lon="5.69555">
        <ele>598.8</ele>
        <time>2022-07-29T12:34:05Z</time>
      </trkpt>
      <trkpt lat="46.37655" lon="5.69552">
        <ele>599</ele>
        <time>2022-07-29T12:34:06Z</time>
      </trkpt>
      <trkpt lat="46.37653" lon="5.6955">
        <ele>599.2</ele>
        <time>2022-07-29T12:34:07Z</time>
      </trkpt>
      <trkpt lat="46.3765" lon="5.69547">
        <ele>599.2</ele>
        <time>2022-07-29T12:34:08Z</time>
      </trkpt>
      <trkpt lat="46.37647" lon="5.69545">
        <ele>599.6</ele>
        <time>2022-07-29T12:34:09Z</time>
      </trkpt>
      <trkpt lat="46.37645" lon="5.69542">
        <ele>599.8</ele>
        <time>2022-07-29T12:34:10Z</time>
      </trkpt>
      <trkpt lat="46.37643" lon="5.69539">
        <ele>600</ele>
        <time>2022-07-29T12:34:11Z</time>
      </trkpt>
      <trkpt lat="46.37641" lon="5.69536">
        <ele>600</ele>
        <time>2022-07-29T12:34:12Z</time>
      </trkpt>
      <trkpt lat="46.37639" lon="5.69533">
        <ele>600.4</ele>
        <time>2022-07-29T12:34:13Z</time>
      </trkpt>
      <trkpt lat="46.37637" lon="5.6953">
        <ele>600.4</ele>
        <time>2022-07-29T12:34:14Z</time>
      </trkpt>
      <trkpt lat="46.37636" lon="5.69526">
        <ele>600.6</ele>
        <time>2022-07-29T12:34:15Z</time>
      </trkpt>
      <trkpt lat="46.37634" lon="5.69523">
        <ele>600.6</ele>
        <time>2022-07-29T12:34:16Z</time>
      </trkpt>
      <trkpt lat="46.37632" lon="5.69519">
        <ele>601</ele>
        <time>2022-07-29T12:34:17Z</time>
      </trkpt>
      <trkpt lat="46.3763" lon="5.69515">
        <ele>601</ele>
        <time>2022-07-29T12:34:18Z</time>
      </trkpt>
      <trkpt lat="46.37629" lon="5.69512">
        <ele>601.2</ele>
        <time>2022-07-29T12:34:19Z</time>
      </trkpt>
      <trkpt lat="46.37627" lon="5.69508">
        <ele>601.2</ele>
        <time>2022-07-29T12:34:20Z</time>
      </trkpt>
      <trkpt lat="46.37626" lon="5.69504">
        <ele>601.2</ele>
        <time>2022-07-29T12:34:21Z</time>
      </trkpt>
      <trkpt lat="46.37624" lon="5.695">
        <ele>601.4</ele>
        <time>2022-07-29T12:34:22Z</time>
      </trkpt>
      <trkpt lat="46.37622" lon="5.69495">
        <ele>601.4</ele>
        <time>2022-07-29T12:34:23Z</time>
      </trkpt>
      <trkpt lat="46.37621" lon="5.69491">
        <ele>601.8</ele>
        <time>2022-07-29T12:34:24Z</time>
      </trkpt>
      <trkpt lat="46.37619" lon="5.69487">
        <ele>601.8</ele>
        <time>2022-07-29T12:34:25Z</time>
      </trkpt>
      <trkpt lat="46.37618" lon="5.69482">
        <ele>602.2</ele>
        <time>2022-07-29T12:34:26Z</time>
      </trkpt>
      <trkpt lat="46.37616" lon="5.69478">
        <ele>602.2</ele>
        <time>2022-07-29T12:34:27Z</time>
      </trkpt>
      <trkpt lat="46.37614" lon="5.69473">
        <ele>602.4</ele>
        <time>2022-07-29T12:34:28Z</time>
      </trkpt>
      <trkpt lat="46.37613" lon="5.69469">
        <ele>602.4</ele>
        <time>2022-07-29T12:34:29Z</time>
      </trkpt>
      <trkpt lat="46.37611" lon="5.69465">
        <ele>602.8</ele>
        <time>2022-07-29T12:34:30Z</time>
      </trkpt>
      <trkpt lat="46.37609" lon="5.69461">
        <ele>602.8</ele>
        <time>2022-07-29T12:34:31Z</time>
      </trkpt>
      <trkpt lat="46.37607" lon="5.69457">
        <ele>603.2</ele>
        <time>2022-07-29T12:34:32Z</time>
      </trkpt>
      <trkpt lat="46.37606" lon="5.69452">
        <ele>603.2</ele>
        <time>2022-07-29T12:34:33Z</time>
      </trkpt>
      <trkpt lat="46.37605" lon="5.69448">
        <ele>603.4</ele>
        <time>2022-07-29T12:34:34Z</time>
      </trkpt>
      <trkpt lat="46.37604" lon="5.69443">
        <ele>603.4</ele>
        <time>2022-07-29T12:34:35Z</time>
      </trkpt>
      <trkpt lat="46.37603" lon="5.69438">
        <ele>603.4</ele>
        <time>2022-07-29T12:34:36Z</time>
      </trkpt>
      <trkpt lat="46.37602" lon="5.69434">
        <ele>603.4</ele>
        <time>2022-07-29T12:34:37Z</time>
      </trkpt>
      <trkpt lat="46.376" lon="5.69429">
        <ele>603.6</ele>
        <time>2022-07-29T12:34:38Z</time>
      </trkpt>
      <trkpt lat="46.37599" lon="5.69424">
        <ele>603.6</ele>
        <time>2022-07-29T12:34:39Z</time>
      </trkpt>
      <trkpt lat="46.37598" lon="5.69419">
        <ele>603.8</ele>
        <time>2022-07-29T12:34:40Z</time>
      </trkpt>
      <trkpt lat="46.37597" lon="5.69415">
        <ele>603.8</ele>
        <time>2022-07-29T12:34:41Z</time>
      </trkpt>
      <trkpt lat="46.37596" lon="5.6941">
        <ele>604.2</ele>
        <time>2022-07-29T12:34:42Z</time>
      </trkpt>
      <trkpt lat="46.37595" lon="5.69405">
        <ele>604.2</ele>
        <time>2022-07-29T12:34:43Z</time>
      </trkpt>
      <trkpt lat="46.37594" lon="5.694">
        <ele>604.2</ele>
        <time>2022-07-29T12:34:44Z</time>
      </trkpt>
      <trkpt lat="46.37594" lon="5.69395">
        <ele>604.4</ele>
        <time>2022-07-29T12:34:45Z</time>
      </trkpt>
      <trkpt lat="46.37593" lon="5.6939">
        <ele>604.4</ele>
        <time>2022-07-29T12:34:46Z</time>
      </trkpt>
      <trkpt lat="46.37592" lon="5.69385">
        <ele>604.4</ele>
        <time>2022-07-29T12:34:47Z</time>
      </trkpt>
      <trkpt lat="46.37591" lon="5.69381">
        <ele>604.6</ele>
        <time>2022-07-29T12:34:48Z</time>
      </trkpt>
      <trkpt lat="46.3759" lon="5.69376">
        <ele>604.6</ele>
        <time>2022-07-29T12:34:49Z</time>
      </trkpt>
      <trkpt lat="46.37589" lon="5.69371">
        <ele>604.8</ele>
        <time>2022-07-29T12:34:50Z</time>
      </trkpt>
      <trkpt lat="46.37588" lon="5.69366">
        <ele>604.8</ele>
        <time>2022-07-29T12:34:51Z</time>
      </trkpt>
      <trkpt lat="46.37587" lon="5.6936">
        <ele>604.8</ele>
        <time>2022-07-29T12:34:52Z</time>
      </trkpt>
      <trkpt lat="46.37586" lon="5.69355">
        <ele>605.2</ele>
        <time>2022-07-29T12:34:53Z</time>
      </trkpt>
      <trkpt lat="46.37585" lon="5.6935">
        <ele>605.2</ele>
        <time>2022-07-29T12:34:54Z</time>
      </trkpt>
      <trkpt lat="46.37584" lon="5.69345">
        <ele>605.4</ele>
        <time>2022-07-29T12:34:55Z</time>
      </trkpt>
      <trkpt lat="46.37583" lon="5.6934">
        <ele>605.4</ele>
        <time>2022-07-29T12:34:56Z</time>
      </trkpt>
      <trkpt lat="46.37582" lon="5.69334">
        <ele>605.4</ele>
        <time>2022-07-29T12:34:57Z</time>
      </trkpt>
      <trkpt lat="46.37581" lon="5.6933">
        <ele>605.6</ele>
        <time>2022-07-29T12:34:58Z</time>
      </trkpt>
      <trkpt lat="46.37581" lon="5.69325">
        <ele>605.6</ele>
        <time>2022-07-29T12:34:59Z</time>
      </trkpt>
      <trkpt lat="46.3758" lon="5.6932">
        <ele>605.8</ele>
        <time>2022-07-29T12:35:00Z</time>
      </trkpt>
      <trkpt lat="46.3758" lon="5.69315">
        <ele>605.8</ele>
        <time>2022-07-29T12:35:01Z</time>
      </trkpt>
      <trkpt lat="46.3758" lon="5.69309">
        <ele>606</ele>
        <time>2022-07-29T12:35:02Z</time>
      </trkpt>
      <trkpt lat="46.3758" lon="5.69304">
        <ele>606</ele>
        <time>2022-07-29T12:35:03Z</time>
      </trkpt>
      <trkpt lat="46.37579" lon="5.693">
        <ele>606.4</ele>
        <time>2022-07-29T12:35:04Z</time>
      </trkpt>
      <trkpt lat="46.37578" lon="5.69295">
        <ele>606.4</ele>
        <time>2022-07-29T12:35:05Z</time>
      </trkpt>
      <trkpt lat="46.37578" lon="5.6929">
        <ele>606.6</ele>
        <time>2022-07-29T12:35:06Z</time>
      </trkpt>
      <trkpt lat="46.37578" lon="5.69282">
        <ele>606.6</ele>
        <time>2022-07-29T12:35:07Z</time>
      </trkpt>
      <trkpt lat="46.37577" lon="5.69277">
        <ele>607</ele>
        <time>2022-07-29T12:35:08Z</time>
      </trkpt>
      <trkpt lat="46.37577" lon="5.69273">
        <ele>607.2</ele>
        <time>2022-07-29T12:35:09Z</time>
      </trkpt>
      <trkpt lat="46.37576" lon="5.69269">
        <ele>607.8</ele>
        <time>2022-07-29T12:35:10Z</time>
      </trkpt>
      <trkpt lat="46.37576" lon="5.69265">
        <ele>607.8</ele>
        <time>2022-07-29T12:35:11Z</time>
      </trkpt>
      <trkpt lat="46.37576" lon="5.69261">
        <ele>608</ele>
        <time>2022-07-29T12:35:12Z</time>
      </trkpt>
      <trkpt lat="46.37575" lon="5.69257">
        <ele>608</ele>
        <time>2022-07-29T12:35:13Z</time>
      </trkpt>
      <trkpt lat="46.37574" lon="5.69254">
        <ele>608</ele>
        <time>2022-07-29T12:35:14Z</time>
      </trkpt>
      <trkpt lat="46.37573" lon="5.6925">
        <ele>608.4</ele>
        <time>2022-07-29T12:35:15Z</time>
      </trkpt>
      <trkpt lat="46.37572" lon="5.69246">
        <ele>608.4</ele>
        <time>2022-07-29T12:35:16Z</time>
      </trkpt>
      <trkpt lat="46.37571" lon="5.69242">
        <ele>608.6</ele>
        <time>2022-07-29T12:35:17Z</time>
      </trkpt>
      <trkpt lat="46.3757" lon="5.69238">
        <ele>608.8</ele>
        <time>2022-07-29T12:35:18Z</time>
      </trkpt>
      <trkpt lat="46.37569" lon="5.69234">
        <ele>609.2</ele>
        <time>2022-07-29T12:35:19Z</time>
      </trkpt>
      <trkpt lat="46.37568" lon="5.6923">
        <ele>609.4</ele>
        <time>2022-07-29T12:35:20Z</time>
      </trkpt>
      <trkpt lat="46.37568" lon="5.69226">
        <ele>609.4</ele>
        <time>2022-07-29T12:35:21Z</time>
      </trkpt>
      <trkpt lat="46.37567" lon="5.69222">
        <ele>609.6</ele>
        <time>2022-07-29T12:35:22Z</time>
      </trkpt>
      <trkpt lat="46.37567" lon="5.69218">
        <ele>609.8</ele>
        <time>2022-07-29T12:35:23Z</time>
      </trkpt>
      <trkpt lat="46.37566" lon="5.69214">
        <ele>610.2</ele>
        <time>2022-07-29T12:35:24Z</time>
      </trkpt>
      <trkpt lat="46.37566" lon="5.6921">
        <ele>610.4</ele>
        <time>2022-07-29T12:35:25Z</time>
      </trkpt>
      <trkpt lat="46.37565" lon="5.69206">
        <ele>610.4</ele>
        <time>2022-07-29T12:35:26Z</time>
      </trkpt>
      <trkpt lat="46.37564" lon="5.69202">
        <ele>610.8</ele>
        <time>2022-07-29T12:35:27Z</time>
      </trkpt>
      <trkpt lat="46.37563" lon="5.69198">
        <ele>610.8</ele>
        <time>2022-07-29T12:35:28Z</time>
      </trkpt>
      <trkpt lat="46.37562" lon="5.69193">
        <ele>611.2</ele>
        <time>2022-07-29T12:35:29Z</time>
      </trkpt>
      <trkpt lat="46.37562" lon="5.69189">
        <ele>611.2</ele>
        <time>2022-07-29T12:35:30Z</time>
      </trkpt>
      <trkpt lat="46.37561" lon="5.69185">
        <ele>611.6</ele>
        <time>2022-07-29T12:35:31Z</time>
      </trkpt>
      <trkpt lat="46.3756" lon="5.69181">
        <ele>611.6</ele>
        <time>2022-07-29T12:35:32Z</time>
      </trkpt>
      <trkpt lat="46.3756" lon="5.69177">
        <ele>611.8</ele>
        <time>2022-07-29T12:35:33Z</time>
      </trkpt>
      <trkpt lat="46.37559" lon="5.69173">
        <ele>611.8</ele>
        <time>2022-07-29T12:35:34Z</time>
      </trkpt>
      <trkpt lat="46.37559" lon="5.69168">
        <ele>612.2</ele>
        <time>2022-07-29T12:35:35Z</time>
      </trkpt>
      <trkpt lat="46.37559" lon="5.69164">
        <ele>612.2</ele>
        <time>2022-07-29T12:35:36Z</time>
      </trkpt>
      <trkpt lat="46.37559" lon="5.6916">
        <ele>612.6</ele>
        <time>2022-07-29T12:35:37Z</time>
      </trkpt>
      <trkpt lat="46.37558" lon="5.69156">
        <ele>612.8</ele>
        <time>2022-07-29T12:35:38Z</time>
      </trkpt>
      <trkpt lat="46.37558" lon="5.69153">
        <ele>613</ele>
        <time>2022-07-29T12:35:39Z</time>
      </trkpt>
      <trkpt lat="46.37557" lon="5.69149">
        <ele>613.4</ele>
        <time>2022-07-29T12:35:40Z</time>
      </trkpt>
      <trkpt lat="46.37556" lon="5.69145">
        <ele>613.4</ele>
        <time>2022-07-29T12:35:41Z</time>
      </trkpt>
      <trkpt lat="46.37555" lon="5.69141">
        <ele>613.8</ele>
        <time>2022-07-29T12:35:42Z</time>
      </trkpt>
      <trkpt lat="46.37555" lon="5.69137">
        <ele>613.8</ele>
        <time>2022-07-29T12:35:43Z</time>
      </trkpt>
      <trkpt lat="46.37555" lon="5.69132">
        <ele>614.2</ele>
        <time>2022-07-29T12:35:44Z</time>
      </trkpt>
      <trkpt lat="46.37555" lon="5.69128">
        <ele>614.2</ele>
        <time>2022-07-29T12:35:45Z</time>
      </trkpt>
      <trkpt lat="46.37554" lon="5.69123">
        <ele>614.6</ele>
        <time>2022-07-29T12:35:46Z</time>
      </trkpt>
      <trkpt lat="46.37554" lon="5.69119">
        <ele>614.8</ele>
        <time>2022-07-29T12:35:47Z</time>
      </trkpt>
      <trkpt lat="46.37554" lon="5.69114">
        <ele>614.8</ele>
        <time>2022-07-29T12:35:48Z</time>
      </trkpt>
      <trkpt lat="46.37554" lon="5.6911">
        <ele>615.4</ele>
        <time>2022-07-29T12:35:49Z</time>
      </trkpt>
      <trkpt lat="46.37553" lon="5.69105">
        <ele>615.6</ele>
        <time>2022-07-29T12:35:50Z</time>
      </trkpt>
      <trkpt lat="46.37553" lon="5.69101">
        <ele>615.8</ele>
        <time>2022-07-29T12:35:51Z</time>
      </trkpt>
      <trkpt lat="46.37553" lon="5.69097">
        <ele>615.8</ele>
        <time>2022-07-29T12:35:52Z</time>
      </trkpt>
      <trkpt lat="46.37552" lon="5.69093">
        <ele>616</ele>
        <time>2022-07-29T12:35:53Z</time>
      </trkpt>
      <trkpt lat="46.37551" lon="5.69089">
        <ele>616.4</ele>
        <time>2022-07-29T12:35:54Z</time>
      </trkpt>
      <trkpt lat="46.3755" lon="5.69085">
        <ele>616.6</ele>
        <time>2022-07-29T12:35:55Z</time>
      </trkpt>
      <trkpt lat="46.37549" lon="5.6908">
        <ele>616.6</ele>
        <time>2022-07-29T12:35:56Z</time>
      </trkpt>
      <trkpt lat="46.37547" lon="5.69076">
        <ele>617</ele>
        <time>2022-07-29T12:35:57Z</time>
      </trkpt>
      <trkpt lat="46.37546" lon="5.69072">
        <ele>617</ele>
        <time>2022-07-29T12:35:58Z</time>
      </trkpt>
      <trkpt lat="46.37543" lon="5.69068">
        <ele>617.2</ele>
        <time>2022-07-29T12:35:59Z</time>
      </trkpt>
      <trkpt lat="46.37541" lon="5.69064">
        <ele>617.2</ele>
        <time>2022-07-29T12:36:00Z</time>
      </trkpt>
      <trkpt lat="46.37538" lon="5.69061">
        <ele>617.4</ele>
        <time>2022-07-29T12:36:01Z</time>
      </trkpt>
      <trkpt lat="46.37535" lon="5.69057">
        <ele>617.4</ele>
        <time>2022-07-29T12:36:02Z</time>
      </trkpt>
      <trkpt lat="46.37531" lon="5.69053">
        <ele>617.4</ele>
        <time>2022-07-29T12:36:03Z</time>
      </trkpt>
      <trkpt lat="46.37528" lon="5.6905">
        <ele>617.8</ele>
        <time>2022-07-29T12:36:04Z</time>
      </trkpt>
      <trkpt lat="46.37525" lon="5.69047">
        <ele>617.8</ele>
        <time>2022-07-29T12:36:05Z</time>
      </trkpt>
      <trkpt lat="46.37521" lon="5.69045">
        <ele>618.2</ele>
        <time>2022-07-29T12:36:06Z</time>
      </trkpt>
      <trkpt lat="46.37517" lon="5.69042">
        <ele>618.4</ele>
        <time>2022-07-29T12:36:07Z</time>
      </trkpt>
      <trkpt lat="46.37514" lon="5.6904">
        <ele>618.6</ele>
        <time>2022-07-29T12:36:08Z</time>
      </trkpt>
      <trkpt lat="46.3751" lon="5.69038">
        <ele>618.6</ele>
        <time>2022-07-29T12:36:09Z</time>
      </trkpt>
      <trkpt lat="46.37507" lon="5.69036">
        <ele>618.8</ele>
        <time>2022-07-29T12:36:10Z</time>
      </trkpt>
      <trkpt lat="46.37503" lon="5.69033">
        <ele>618.8</ele>
        <time>2022-07-29T12:36:11Z</time>
      </trkpt>
      <trkpt lat="46.375" lon="5.69031">
        <ele>619.2</ele>
        <time>2022-07-29T12:36:12Z</time>
      </trkpt>
      <trkpt lat="46.37497" lon="5.69029">
        <ele>619.4</ele>
        <time>2022-07-29T12:36:13Z</time>
      </trkpt>
      <trkpt lat="46.37493" lon="5.69028">
        <ele>619.8</ele>
        <time>2022-07-29T12:36:14Z</time>
      </trkpt>
      <trkpt lat="46.3749" lon="5.69026">
        <ele>620</ele>
        <time>2022-07-29T12:36:15Z</time>
      </trkpt>
      <trkpt lat="46.37487" lon="5.69024">
        <ele>620.2</ele>
        <time>2022-07-29T12:36:16Z</time>
      </trkpt>
      <trkpt lat="46.37484" lon="5.69022">
        <ele>620.2</ele>
        <time>2022-07-29T12:36:17Z</time>
      </trkpt>
      <trkpt lat="46.37481" lon="5.69019">
        <ele>620.6</ele>
        <time>2022-07-29T12:36:18Z</time>
      </trkpt>
      <trkpt lat="46.37478" lon="5.69017">
        <ele>620.8</ele>
        <time>2022-07-29T12:36:19Z</time>
      </trkpt>
      <trkpt lat="46.37475" lon="5.69015">
        <ele>621</ele>
        <time>2022-07-29T12:36:20Z</time>
      </trkpt>
      <trkpt lat="46.37471" lon="5.69013">
        <ele>621.2</ele>
        <time>2022-07-29T12:36:21Z</time>
      </trkpt>
      <trkpt lat="46.37468" lon="5.69011">
        <ele>621.6</ele>
        <time>2022-07-29T12:36:22Z</time>
      </trkpt>
      <trkpt lat="46.37465" lon="5.69009">
        <ele>621.6</ele>
        <time>2022-07-29T12:36:23Z</time>
      </trkpt>
      <trkpt lat="46.37462" lon="5.69007">
        <ele>622</ele>
        <time>2022-07-29T12:36:24Z</time>
      </trkpt>
      <trkpt lat="46.37458" lon="5.69006">
        <ele>622.2</ele>
        <time>2022-07-29T12:36:25Z</time>
      </trkpt>
      <trkpt lat="46.37455" lon="5.69004">
        <ele>622.2</ele>
        <time>2022-07-29T12:36:26Z</time>
      </trkpt>
      <trkpt lat="46.37452" lon="5.69003">
        <ele>622.6</ele>
        <time>2022-07-29T12:36:27Z</time>
      </trkpt>
      <trkpt lat="46.37449" lon="5.69001">
        <ele>622.8</ele>
        <time>2022-07-29T12:36:28Z</time>
      </trkpt>
      <trkpt lat="46.37446" lon="5.68999">
        <ele>622.8</ele>
        <time>2022-07-29T12:36:29Z</time>
      </trkpt>
      <trkpt lat="46.37442" lon="5.68998">
        <ele>623</ele>
        <time>2022-07-29T12:36:30Z</time>
      </trkpt>
      <trkpt lat="46.37439" lon="5.68997">
        <ele>623</ele>
        <time>2022-07-29T12:36:31Z</time>
      </trkpt>
      <trkpt lat="46.37435" lon="5.68996">
        <ele>623.4</ele>
        <time>2022-07-29T12:36:32Z</time>
      </trkpt>
      <trkpt lat="46.37432" lon="5.68994">
        <ele>623.4</ele>
        <time>2022-07-29T12:36:33Z</time>
      </trkpt>
      <trkpt lat="46.37429" lon="5.68993">
        <ele>623.8</ele>
        <time>2022-07-29T12:36:34Z</time>
      </trkpt>
      <trkpt lat="46.37425" lon="5.68992">
        <ele>624</ele>
        <time>2022-07-29T12:36:35Z</time>
      </trkpt>
      <trkpt lat="46.37422" lon="5.68991">
        <ele>624</ele>
        <time>2022-07-29T12:36:36Z</time>
      </trkpt>
      <trkpt lat="46.37419" lon="5.68989">
        <ele>624.2</ele>
        <time>2022-07-29T12:36:37Z</time>
      </trkpt>
      <trkpt lat="46.37415" lon="5.68988">
        <ele>624.4</ele>
        <time>2022-07-29T12:36:38Z</time>
      </trkpt>
      <trkpt lat="46.37412" lon="5.68986">
        <ele>624.8</ele>
        <time>2022-07-29T12:36:39Z</time>
      </trkpt>
      <trkpt lat="46.37409" lon="5.68985">
        <ele>624.8</ele>
        <time>2022-07-29T12:36:40Z</time>
      </trkpt>
      <trkpt lat="46.37405" lon="5.68984">
        <ele>625.2</ele>
        <time>2022-07-29T12:36:41Z</time>
      </trkpt>
      <trkpt lat="46.37402" lon="5.68983">
        <ele>625.2</ele>
        <time>2022-07-29T12:36:42Z</time>
      </trkpt>
      <trkpt lat="46.37399" lon="5.68981">
        <ele>625.6</ele>
        <time>2022-07-29T12:36:43Z</time>
      </trkpt>
      <trkpt lat="46.37395" lon="5.6898">
        <ele>625.6</ele>
        <time>2022-07-29T12:36:44Z</time>
      </trkpt>
      <trkpt lat="46.37392" lon="5.68979">
        <ele>626</ele>
        <time>2022-07-29T12:36:45Z</time>
      </trkpt>
      <trkpt lat="46.37388" lon="5.68977">
        <ele>626</ele>
        <time>2022-07-29T12:36:46Z</time>
      </trkpt>
      <trkpt lat="46.37385" lon="5.68976">
        <ele>626.4</ele>
        <time>2022-07-29T12:36:47Z</time>
      </trkpt>
      <trkpt lat="46.37382" lon="5.68975">
        <ele>626.4</ele>
        <time>2022-07-29T12:36:48Z</time>
      </trkpt>
      <trkpt lat="46.37378" lon="5.68974">
        <ele>626.6</ele>
        <time>2022-07-29T12:36:49Z</time>
      </trkpt>
      <trkpt lat="46.37375" lon="5.68972">
        <ele>626.6</ele>
        <time>2022-07-29T12:36:50Z</time>
      </trkpt>
      <trkpt lat="46.37371" lon="5.68971">
        <ele>626.8</ele>
        <time>2022-07-29T12:36:51Z</time>
      </trkpt>
      <trkpt lat="46.37368" lon="5.6897">
        <ele>626.8</ele>
        <time>2022-07-29T12:36:52Z</time>
      </trkpt>
      <trkpt lat="46.37364" lon="5.6897">
        <ele>627.2</ele>
        <time>2022-07-29T12:36:53Z</time>
      </trkpt>
      <trkpt lat="46.37361" lon="5.68969">
        <ele>627.2</ele>
        <time>2022-07-29T12:36:54Z</time>
      </trkpt>
      <trkpt lat="46.37358" lon="5.68968">
        <ele>627.4</ele>
        <time>2022-07-29T12:36:55Z</time>
      </trkpt>
      <trkpt lat="46.37355" lon="5.68968">
        <ele>627.4</ele>
        <time>2022-07-29T12:36:56Z</time>
      </trkpt>
      <trkpt lat="46.37351" lon="5.68967">
        <ele>627.8</ele>
        <time>2022-07-29T12:36:57Z</time>
      </trkpt>
      <trkpt lat="46.37348" lon="5.68966">
        <ele>627.8</ele>
        <time>2022-07-29T12:36:58Z</time>
      </trkpt>
      <trkpt lat="46.37345" lon="5.68965">
        <ele>628</ele>
        <time>2022-07-29T12:36:59Z</time>
      </trkpt>
      <trkpt lat="46.37342" lon="5.68965">
        <ele>628</ele>
        <time>2022-07-29T12:37:00Z</time>
      </trkpt>
      <trkpt lat="46.37339" lon="5.68965">
        <ele>628.4</ele>
        <time>2022-07-29T12:37:01Z</time>
      </trkpt>
      <trkpt lat="46.37335" lon="5.68965">
        <ele>628.4</ele>
        <time>2022-07-29T12:37:02Z</time>
      </trkpt>
      <trkpt lat="46.37332" lon="5.68964">
        <ele>628.6</ele>
        <time>2022-07-29T12:37:03Z</time>
      </trkpt>
      <trkpt lat="46.37329" lon="5.68964">
        <ele>628.6</ele>
        <time>2022-07-29T12:37:04Z</time>
      </trkpt>
      <trkpt lat="46.37325" lon="5.68965">
        <ele>629</ele>
        <time>2022-07-29T12:37:05Z</time>
      </trkpt>
      <trkpt lat="46.37322" lon="5.68965">
        <ele>629.2</ele>
        <time>2022-07-29T12:37:06Z</time>
      </trkpt>
      <trkpt lat="46.37319" lon="5.68964">
        <ele>629.2</ele>
        <time>2022-07-29T12:37:07Z</time>
      </trkpt>
      <trkpt lat="46.37316" lon="5.68964">
        <ele>629.6</ele>
        <time>2022-07-29T12:37:08Z</time>
      </trkpt>
      <trkpt lat="46.37312" lon="5.68964">
        <ele>629.6</ele>
        <time>2022-07-29T12:37:09Z</time>
      </trkpt>
      <trkpt lat="46.37309" lon="5.68964">
        <ele>630</ele>
        <time>2022-07-29T12:37:10Z</time>
      </trkpt>
      <trkpt lat="46.37306" lon="5.68963">
        <ele>630.2</ele>
        <time>2022-07-29T12:37:11Z</time>
      </trkpt>
      <trkpt lat="46.37303" lon="5.68963">
        <ele>630.2</ele>
        <time>2022-07-29T12:37:12Z</time>
      </trkpt>
      <trkpt lat="46.373" lon="5.68962">
        <ele>630.6</ele>
        <time>2022-07-29T12:37:13Z</time>
      </trkpt>
      <trkpt lat="46.37298" lon="5.68961">
        <ele>630.8</ele>
        <time>2022-07-29T12:37:14Z</time>
      </trkpt>
      <trkpt lat="46.37295" lon="5.68961">
        <ele>630.8</ele>
        <time>2022-07-29T12:37:15Z</time>
      </trkpt>
      <trkpt lat="46.37292" lon="5.6896">
        <ele>631.2</ele>
        <time>2022-07-29T12:37:16Z</time>
      </trkpt>
      <trkpt lat="46.3729" lon="5.68958">
        <ele>631.2</ele>
        <time>2022-07-29T12:37:17Z</time>
      </trkpt>
      <trkpt lat="46.37287" lon="5.68957">
        <ele>631.6</ele>
        <time>2022-07-29T12:37:18Z</time>
      </trkpt>
      <trkpt lat="46.37285" lon="5.68955">
        <ele>631.6</ele>
        <time>2022-07-29T12:37:19Z</time>
      </trkpt>
      <trkpt lat="46.37282" lon="5.68953">
        <ele>632</ele>
        <time>2022-07-29T12:37:20Z</time>
      </trkpt>
      <trkpt lat="46.3728" lon="5.68952">
        <ele>632.2</ele>
        <time>2022-07-29T12:37:21Z</time>
      </trkpt>
      <trkpt lat="46.37277" lon="5.6895">
        <ele>632.2</ele>
        <time>2022-07-29T12:37:22Z</time>
      </trkpt>
      <trkpt lat="46.37274" lon="5.68949">
        <ele>632.4</ele>
        <time>2022-07-29T12:37:23Z</time>
      </trkpt>
      <trkpt lat="46.37272" lon="5.68947">
        <ele>632.4</ele>
        <time>2022-07-29T12:37:24Z</time>
      </trkpt>
      <trkpt lat="46.37269" lon="5.68946">
        <ele>632.6</ele>
        <time>2022-07-29T12:37:25Z</time>
      </trkpt>
      <trkpt lat="46.37266" lon="5.68945">
        <ele>632.6</ele>
        <time>2022-07-29T12:37:26Z</time>
      </trkpt>
      <trkpt lat="46.37263" lon="5.68943">
        <ele>633</ele>
        <time>2022-07-29T12:37:27Z</time>
      </trkpt>
      <trkpt lat="46.3726" lon="5.68941">
        <ele>633</ele>
        <time>2022-07-29T12:37:28Z</time>
      </trkpt>
      <trkpt lat="46.37257" lon="5.6894">
        <ele>633.4</ele>
        <time>2022-07-29T12:37:29Z</time>
      </trkpt>
      <trkpt lat="46.37255" lon="5.68938">
        <ele>633.4</ele>
        <time>2022-07-29T12:37:30Z</time>
      </trkpt>
      <trkpt lat="46.37252" lon="5.68936">
        <ele>633.8</ele>
        <time>2022-07-29T12:37:31Z</time>
      </trkpt>
      <trkpt lat="46.37249" lon="5.68934">
        <ele>634</ele>
        <time>2022-07-29T12:37:32Z</time>
      </trkpt>
      <trkpt lat="46.37246" lon="5.68932">
        <ele>634.2</ele>
        <time>2022-07-29T12:37:33Z</time>
      </trkpt>
      <trkpt lat="46.37244" lon="5.6893">
        <ele>634.4</ele>
        <time>2022-07-29T12:37:34Z</time>
      </trkpt>
      <trkpt lat="46.37241" lon="5.68928">
        <ele>634.6</ele>
        <time>2022-07-29T12:37:35Z</time>
      </trkpt>
      <trkpt lat="46.37238" lon="5.68927">
        <ele>634.6</ele>
        <time>2022-07-29T12:37:36Z</time>
      </trkpt>
      <trkpt lat="46.37236" lon="5.68925">
        <ele>635</ele>
        <time>2022-07-29T12:37:37Z</time>
      </trkpt>
      <trkpt lat="46.37233" lon="5.68923">
        <ele>635</ele>
        <time>2022-07-29T12:37:38Z</time>
      </trkpt>
      <trkpt lat="46.3723" lon="5.68922">
        <ele>635.4</ele>
        <time>2022-07-29T12:37:39Z</time>
      </trkpt>
      <trkpt lat="46.37227" lon="5.68921">
        <ele>635.6</ele>
        <time>2022-07-29T12:37:40Z</time>
      </trkpt>
      <trkpt lat="46.37225" lon="5.6892">
        <ele>635.6</ele>
        <time>2022-07-29T12:37:41Z</time>
      </trkpt>
      <trkpt lat="46.37222" lon="5.68919">
        <ele>636</ele>
        <time>2022-07-29T12:37:42Z</time>
      </trkpt>
      <trkpt lat="46.3722" lon="5.68917">
        <ele>636</ele>
        <time>2022-07-29T12:37:43Z</time>
      </trkpt>
      <trkpt lat="46.37217" lon="5.68915">
        <ele>636.4</ele>
        <time>2022-07-29T12:37:44Z</time>
      </trkpt>
      <trkpt lat="46.37215" lon="5.68913">
        <ele>636.4</ele>
        <time>2022-07-29T12:37:45Z</time>
      </trkpt>
      <trkpt lat="46.37212" lon="5.68912">
        <ele>636.8</ele>
        <time>2022-07-29T12:37:46Z</time>
      </trkpt>
      <trkpt lat="46.37209" lon="5.68911">
        <ele>636.8</ele>
        <time>2022-07-29T12:37:47Z</time>
      </trkpt>
      <trkpt lat="46.37207" lon="5.68909">
        <ele>637.2</ele>
        <time>2022-07-29T12:37:48Z</time>
      </trkpt>
      <trkpt lat="46.37204" lon="5.68907">
        <ele>637.6</ele>
        <time>2022-07-29T12:37:49Z</time>
      </trkpt>
      <trkpt lat="46.37202" lon="5.68906">
        <ele>637.8</ele>
        <time>2022-07-29T12:37:50Z</time>
      </trkpt>
      <trkpt lat="46.372" lon="5.68903">
        <ele>637.8</ele>
        <time>2022-07-29T12:37:51Z</time>
      </trkpt>
      <trkpt lat="46.37198" lon="5.68901">
        <ele>638</ele>
        <time>2022-07-29T12:37:52Z</time>
      </trkpt>
      <trkpt lat="46.37195" lon="5.68899">
        <ele>638.4</ele>
        <time>2022-07-29T12:37:53Z</time>
      </trkpt>
      <trkpt lat="46.37193" lon="5.68897">
        <ele>638.4</ele>
        <time>2022-07-29T12:37:54Z</time>
      </trkpt>
      <trkpt lat="46.37191" lon="5.68895">
        <ele>638.6</ele>
        <time>2022-07-29T12:37:55Z</time>
      </trkpt>
      <trkpt lat="46.37188" lon="5.68893">
        <ele>638.6</ele>
        <time>2022-07-29T12:37:56Z</time>
      </trkpt>
      <trkpt lat="46.37186" lon="5.6889">
        <ele>638.6</ele>
        <time>2022-07-29T12:37:57Z</time>
      </trkpt>
      <trkpt lat="46.37184" lon="5.68888">
        <ele>639</ele>
        <time>2022-07-29T12:37:58Z</time>
      </trkpt>
      <trkpt lat="46.37182" lon="5.68886">
        <ele>639</ele>
        <time>2022-07-29T12:37:59Z</time>
      </trkpt>
      <trkpt lat="46.3718" lon="5.68883">
        <ele>639.2</ele>
        <time>2022-07-29T12:38:00Z</time>
      </trkpt>
      <trkpt lat="46.37178" lon="5.68881">
        <ele>639.2</ele>
        <time>2022-07-29T12:38:01Z</time>
      </trkpt>
      <trkpt lat="46.37176" lon="5.68878">
        <ele>639.6</ele>
        <time>2022-07-29T12:38:02Z</time>
      </trkpt>
      <trkpt lat="46.37174" lon="5.68876">
        <ele>639.6</ele>
        <time>2022-07-29T12:38:03Z</time>
      </trkpt>
      <trkpt lat="46.37172" lon="5.68873">
        <ele>640</ele>
        <time>2022-07-29T12:38:04Z</time>
      </trkpt>
      <trkpt lat="46.3717" lon="5.68871">
        <ele>640</ele>
        <time>2022-07-29T12:38:05Z</time>
      </trkpt>
      <trkpt lat="46.37168" lon="5.68869">
        <ele>640.4</ele>
        <time>2022-07-29T12:38:06Z</time>
      </trkpt>
      <trkpt lat="46.37166" lon="5.68866">
        <ele>640.4</ele>
        <time>2022-07-29T12:38:07Z</time>
      </trkpt>
      <trkpt lat="46.37164" lon="5.68864">
        <ele>640.6</ele>
        <time>2022-07-29T12:38:08Z</time>
      </trkpt>
      <trkpt lat="46.37162" lon="5.68862">
        <ele>640.6</ele>
        <time>2022-07-29T12:38:09Z</time>
      </trkpt>
      <trkpt lat="46.3716" lon="5.6886">
        <ele>641</ele>
        <time>2022-07-29T12:38:10Z</time>
      </trkpt>
      <trkpt lat="46.37159" lon="5.68857">
        <ele>641</ele>
        <time>2022-07-29T12:38:11Z</time>
      </trkpt>
      <trkpt lat="46.37157" lon="5.68854">
        <ele>641.4</ele>
        <time>2022-07-29T12:38:12Z</time>
      </trkpt>
      <trkpt lat="46.37155" lon="5.68852">
        <ele>641.4</ele>
        <time>2022-07-29T12:38:13Z</time>
      </trkpt>
      <trkpt lat="46.37154" lon="5.6885">
        <ele>641.8</ele>
        <time>2022-07-29T12:38:14Z</time>
      </trkpt>
      <trkpt lat="46.37152" lon="5.68848">
        <ele>642</ele>
        <time>2022-07-29T12:38:15Z</time>
      </trkpt>
      <trkpt lat="46.3715" lon="5.68846">
        <ele>642</ele>
        <time>2022-07-29T12:38:16Z</time>
      </trkpt>
      <trkpt lat="46.37148" lon="5.68844">
        <ele>642.4</ele>
        <time>2022-07-29T12:38:17Z</time>
      </trkpt>
      <trkpt lat="46.37145" lon="5.68838">
        <ele>643</ele>
        <time>2022-07-29T12:38:18Z</time>
      </trkpt>
      <trkpt lat="46.37143" lon="5.68836">
        <ele>643.2</ele>
        <time>2022-07-29T12:38:20Z</time>
      </trkpt>
      <trkpt lat="46.37141" lon="5.68834">
        <ele>643.2</ele>
        <time>2022-07-29T12:38:21Z</time>
      </trkpt>
      <trkpt lat="46.3714" lon="5.68831">
        <ele>643.6</ele>
        <time>2022-07-29T12:38:22Z</time>
      </trkpt>
      <trkpt lat="46.37138" lon="5.68829">
        <ele>643.6</ele>
        <time>2022-07-29T12:38:23Z</time>
      </trkpt>
      <trkpt lat="46.37136" lon="5.68827">
        <ele>644</ele>
        <time>2022-07-29T12:38:24Z</time>
      </trkpt>
      <trkpt lat="46.37134" lon="5.68825">
        <ele>644.2</ele>
        <time>2022-07-29T12:38:25Z</time>
      </trkpt>
      <trkpt lat="46.37132" lon="5.68823">
        <ele>644.2</ele>
        <time>2022-07-29T12:38:26Z</time>
      </trkpt>
      <trkpt lat="46.3713" lon="5.68821">
        <ele>644.4</ele>
        <time>2022-07-29T12:38:27Z</time>
      </trkpt>
      <trkpt lat="46.37129" lon="5.68819">
        <ele>644.4</ele>
        <time>2022-07-29T12:38:28Z</time>
      </trkpt>
      <trkpt lat="46.37127" lon="5.68817">
        <ele>644.8</ele>
        <time>2022-07-29T12:38:29Z</time>
      </trkpt>
      <trkpt lat="46.37125" lon="5.68815">
        <ele>644.8</ele>
        <time>2022-07-29T12:38:30Z</time>
      </trkpt>
      <trkpt lat="46.37124" lon="5.68812">
        <ele>645.2</ele>
        <time>2022-07-29T12:38:31Z</time>
      </trkpt>
      <trkpt lat="46.37122" lon="5.6881">
        <ele>645.4</ele>
        <time>2022-07-29T12:38:32Z</time>
      </trkpt>
      <trkpt lat="46.37121" lon="5.68807">
        <ele>645.8</ele>
        <time>2022-07-29T12:38:33Z</time>
      </trkpt>
      <trkpt lat="46.37119" lon="5.68805">
        <ele>646</ele>
        <time>2022-07-29T12:38:34Z</time>
      </trkpt>
      <trkpt lat="46.37117" lon="5.68803">
        <ele>646.2</ele>
        <time>2022-07-29T12:38:35Z</time>
      </trkpt>
      <trkpt lat="46.37116" lon="5.688">
        <ele>646.6</ele>
        <time>2022-07-29T12:38:36Z</time>
      </trkpt>
      <trkpt lat="46.37114" lon="5.68799">
        <ele>646.8</ele>
        <time>2022-07-29T12:38:37Z</time>
      </trkpt>
      <trkpt lat="46.37112" lon="5.68797">
        <ele>647</ele>
        <time>2022-07-29T12:38:38Z</time>
      </trkpt>
      <trkpt lat="46.3711" lon="5.68794">
        <ele>647.4</ele>
        <time>2022-07-29T12:38:39Z</time>
      </trkpt>
      <trkpt lat="46.37108" lon="5.68793">
        <ele>647.6</ele>
        <time>2022-07-29T12:38:40Z</time>
      </trkpt>
      <trkpt lat="46.37105" lon="5.68791">
        <ele>647.8</ele>
        <time>2022-07-29T12:38:41Z</time>
      </trkpt>
      <trkpt lat="46.37103" lon="5.68789">
        <ele>648.2</ele>
        <time>2022-07-29T12:38:42Z</time>
      </trkpt>
      <trkpt lat="46.37101" lon="5.68787">
        <ele>648.4</ele>
        <time>2022-07-29T12:38:43Z</time>
      </trkpt>
      <trkpt lat="46.37099" lon="5.68786">
        <ele>648.6</ele>
        <time>2022-07-29T12:38:44Z</time>
      </trkpt>
      <trkpt lat="46.37098" lon="5.68784">
        <ele>648.8</ele>
        <time>2022-07-29T12:38:45Z</time>
      </trkpt>
      <trkpt lat="46.37096" lon="5.68783">
        <ele>649</ele>
        <time>2022-07-29T12:38:46Z</time>
      </trkpt>
      <trkpt lat="46.37094" lon="5.68781">
        <ele>649.4</ele>
        <time>2022-07-29T12:38:47Z</time>
      </trkpt>
      <trkpt lat="46.37093" lon="5.68779">
        <ele>649.6</ele>
        <time>2022-07-29T12:38:48Z</time>
      </trkpt>
      <trkpt lat="46.37091" lon="5.68778">
        <ele>649.8</ele>
        <time>2022-07-29T12:38:49Z</time>
      </trkpt>
      <trkpt lat="46.37089" lon="5.68777">
        <ele>649.8</ele>
        <time>2022-07-29T12:38:50Z</time>
      </trkpt>
      <trkpt lat="46.37087" lon="5.68776">
        <ele>650.2</ele>
        <time>2022-07-29T12:38:51Z</time>
      </trkpt>
      <trkpt lat="46.37085" lon="5.68774">
        <ele>650.4</ele>
        <time>2022-07-29T12:38:52Z</time>
      </trkpt>
      <trkpt lat="46.37083" lon="5.68773">
        <ele>650.6</ele>
        <time>2022-07-29T12:38:53Z</time>
      </trkpt>
      <trkpt lat="46.37082" lon="5.68772">
        <ele>650.6</ele>
        <time>2022-07-29T12:38:54Z</time>
      </trkpt>
      <trkpt lat="46.3708" lon="5.6877">
        <ele>651</ele>
        <time>2022-07-29T12:38:55Z</time>
      </trkpt>
      <trkpt lat="46.37078" lon="5.68769">
        <ele>651.2</ele>
        <time>2022-07-29T12:38:56Z</time>
      </trkpt>
      <trkpt lat="46.37076" lon="5.68767">
        <ele>651.4</ele>
        <time>2022-07-29T12:38:57Z</time>
      </trkpt>
      <trkpt lat="46.37075" lon="5.68765">
        <ele>651.8</ele>
        <time>2022-07-29T12:38:58Z</time>
      </trkpt>
      <trkpt lat="46.37073" lon="5.68763">
        <ele>652</ele>
        <time>2022-07-29T12:38:59Z</time>
      </trkpt>
      <trkpt lat="46.37072" lon="5.68761">
        <ele>652.2</ele>
        <time>2022-07-29T12:39:00Z</time>
      </trkpt>
      <trkpt lat="46.37071" lon="5.68759">
        <ele>652.2</ele>
        <time>2022-07-29T12:39:01Z</time>
      </trkpt>
      <trkpt lat="46.37069" lon="5.68757">
        <ele>652.6</ele>
        <time>2022-07-29T12:39:02Z</time>
      </trkpt>
      <trkpt lat="46.37068" lon="5.68755">
        <ele>652.6</ele>
        <time>2022-07-29T12:39:03Z</time>
      </trkpt>
      <trkpt lat="46.37066" lon="5.68754">
        <ele>653</ele>
        <time>2022-07-29T12:39:04Z</time>
      </trkpt>
      <trkpt lat="46.37064" lon="5.68752">
        <ele>653</ele>
        <time>2022-07-29T12:39:05Z</time>
      </trkpt>
      <trkpt lat="46.37062" lon="5.68751">
        <ele>653.4</ele>
        <time>2022-07-29T12:39:06Z</time>
      </trkpt>
      <trkpt lat="46.3706" lon="5.68749">
        <ele>653.4</ele>
        <time>2022-07-29T12:39:07Z</time>
      </trkpt>
      <trkpt lat="46.37058" lon="5.68748">
        <ele>653.6</ele>
        <time>2022-07-29T12:39:08Z</time>
      </trkpt>
      <trkpt lat="46.37057" lon="5.68746">
        <ele>653.6</ele>
        <time>2022-07-29T12:39:09Z</time>
      </trkpt>
      <trkpt lat="46.37055" lon="5.68744">
        <ele>654</ele>
        <time>2022-07-29T12:39:10Z</time>
      </trkpt>
      <trkpt lat="46.37053" lon="5.68742">
        <ele>654</ele>
        <time>2022-07-29T12:39:11Z</time>
      </trkpt>
      <trkpt lat="46.37051" lon="5.68741">
        <ele>654.4</ele>
        <time>2022-07-29T12:39:12Z</time>
      </trkpt>
      <trkpt lat="46.37049" lon="5.68739">
        <ele>654.6</ele>
        <time>2022-07-29T12:39:13Z</time>
      </trkpt>
      <trkpt lat="46.37047" lon="5.68738">
        <ele>654.6</ele>
        <time>2022-07-29T12:39:14Z</time>
      </trkpt>
      <trkpt lat="46.37046" lon="5.68736">
        <ele>655</ele>
        <time>2022-07-29T12:39:15Z</time>
      </trkpt>
      <trkpt lat="46.37044" lon="5.68734">
        <ele>655.2</ele>
        <time>2022-07-29T12:39:16Z</time>
      </trkpt>
      <trkpt lat="46.37042" lon="5.68732">
        <ele>655.4</ele>
        <time>2022-07-29T12:39:17Z</time>
      </trkpt>
      <trkpt lat="46.37041" lon="5.68731">
        <ele>655.4</ele>
        <time>2022-07-29T12:39:18Z</time>
      </trkpt>
      <trkpt lat="46.37039" lon="5.68729">
        <ele>655.8</ele>
        <time>2022-07-29T12:39:19Z</time>
      </trkpt>
      <trkpt lat="46.37037" lon="5.68728">
        <ele>656</ele>
        <time>2022-07-29T12:39:20Z</time>
      </trkpt>
      <trkpt lat="46.37035" lon="5.68727">
        <ele>656.2</ele>
        <time>2022-07-29T12:39:21Z</time>
      </trkpt>
      <trkpt lat="46.37034" lon="5.68726">
        <ele>656.6</ele>
        <time>2022-07-29T12:39:22Z</time>
      </trkpt>
      <trkpt lat="46.37032" lon="5.68724">
        <ele>656.8</ele>
        <time>2022-07-29T12:39:23Z</time>
      </trkpt>
      <trkpt lat="46.37032" lon="5.68724">
        <ele>656.8</ele>
        <time>2022-07-29T12:39:24Z</time>
      </trkpt>
      <trkpt lat="46.3703" lon="5.68723">
        <ele>657</ele>
        <time>2022-07-29T12:39:25Z</time>
      </trkpt>
      <trkpt lat="46.37029" lon="5.68721">
        <ele>657</ele>
        <time>2022-07-29T12:39:26Z</time>
      </trkpt>
      <trkpt lat="46.37028" lon="5.68719">
        <ele>657.4</ele>
        <time>2022-07-29T12:39:27Z</time>
      </trkpt>
      <trkpt lat="46.37026" lon="5.68717">
        <ele>657.4</ele>
        <time>2022-07-29T12:39:28Z</time>
      </trkpt>
      <trkpt lat="46.37024" lon="5.68715">
        <ele>657.6</ele>
        <time>2022-07-29T12:39:29Z</time>
      </trkpt>
      <trkpt lat="46.37023" lon="5.68713">
        <ele>657.6</ele>
        <time>2022-07-29T12:39:30Z</time>
      </trkpt>
      <trkpt lat="46.37021" lon="5.68711">
        <ele>658</ele>
        <time>2022-07-29T12:39:31Z</time>
      </trkpt>
      <trkpt lat="46.37019" lon="5.6871">
        <ele>658</ele>
        <time>2022-07-29T12:39:32Z</time>
      </trkpt>
      <trkpt lat="46.37017" lon="5.68709">
        <ele>658.2</ele>
        <time>2022-07-29T12:39:33Z</time>
      </trkpt>
      <trkpt lat="46.37015" lon="5.68708">
        <ele>658.6</ele>
        <time>2022-07-29T12:39:34Z</time>
      </trkpt>
      <trkpt lat="46.37013" lon="5.68706">
        <ele>658.6</ele>
        <time>2022-07-29T12:39:35Z</time>
      </trkpt>
      <trkpt lat="46.37012" lon="5.68704">
        <ele>658.8</ele>
        <time>2022-07-29T12:39:36Z</time>
      </trkpt>
      <trkpt lat="46.37011" lon="5.68702">
        <ele>658.8</ele>
        <time>2022-07-29T12:39:37Z</time>
      </trkpt>
      <trkpt lat="46.37009" lon="5.68699">
        <ele>659.2</ele>
        <time>2022-07-29T12:39:38Z</time>
      </trkpt>
      <trkpt lat="46.37008" lon="5.68697">
        <ele>659.2</ele>
        <time>2022-07-29T12:39:39Z</time>
      </trkpt>
      <trkpt lat="46.37007" lon="5.68694">
        <ele>659.4</ele>
        <time>2022-07-29T12:39:40Z</time>
      </trkpt>
      <trkpt lat="46.37007" lon="5.68691">
        <ele>659.4</ele>
        <time>2022-07-29T12:39:41Z</time>
      </trkpt>
      <trkpt lat="46.37006" lon="5.68688">
        <ele>659.8</ele>
        <time>2022-07-29T12:39:42Z</time>
      </trkpt>
      <trkpt lat="46.37006" lon="5.68684">
        <ele>660</ele>
        <time>2022-07-29T12:39:43Z</time>
      </trkpt>
      <trkpt lat="46.37005" lon="5.68681">
        <ele>660</ele>
        <time>2022-07-29T12:39:44Z</time>
      </trkpt>
      <trkpt lat="46.37005" lon="5.68678">
        <ele>660.4</ele>
        <time>2022-07-29T12:39:45Z</time>
      </trkpt>
      <trkpt lat="46.37004" lon="5.68675">
        <ele>660.4</ele>
        <time>2022-07-29T12:39:46Z</time>
      </trkpt>
      <trkpt lat="46.37004" lon="5.68672">
        <ele>660.8</ele>
        <time>2022-07-29T12:39:47Z</time>
      </trkpt>
      <trkpt lat="46.37003" lon="5.68669">
        <ele>660.8</ele>
        <time>2022-07-29T12:39:48Z</time>
      </trkpt>
      <trkpt lat="46.37003" lon="5.68666">
        <ele>661.2</ele>
        <time>2022-07-29T12:39:49Z</time>
      </trkpt>
      <trkpt lat="46.37002" lon="5.68663">
        <ele>661.2</ele>
        <time>2022-07-29T12:39:50Z</time>
      </trkpt>
      <trkpt lat="46.37002" lon="5.68659">
        <ele>661.4</ele>
        <time>2022-07-29T12:39:51Z</time>
      </trkpt>
      <trkpt lat="46.37001" lon="5.68656">
        <ele>661.4</ele>
        <time>2022-07-29T12:39:52Z</time>
      </trkpt>
      <trkpt lat="46.37001" lon="5.68652">
        <ele>661.4</ele>
        <time>2022-07-29T12:39:53Z</time>
      </trkpt>
      <trkpt lat="46.37001" lon="5.68649">
        <ele>661.6</ele>
        <time>2022-07-29T12:39:54Z</time>
      </trkpt>
      <trkpt lat="46.37" lon="5.68645">
        <ele>661.6</ele>
        <time>2022-07-29T12:39:55Z</time>
      </trkpt>
      <trkpt lat="46.37" lon="5.68641">
        <ele>662</ele>
        <time>2022-07-29T12:39:56Z</time>
      </trkpt>
      <trkpt lat="46.37" lon="5.68637">
        <ele>662</ele>
        <time>2022-07-29T12:39:57Z</time>
      </trkpt>
      <trkpt lat="46.37" lon="5.68634">
        <ele>662.2</ele>
        <time>2022-07-29T12:39:58Z</time>
      </trkpt>
      <trkpt lat="46.36999" lon="5.6863">
        <ele>662.2</ele>
        <time>2022-07-29T12:39:59Z</time>
      </trkpt>
      <trkpt lat="46.36999" lon="5.68627">
        <ele>662.6</ele>
        <time>2022-07-29T12:40:00Z</time>
      </trkpt>
      <trkpt lat="46.36999" lon="5.68623">
        <ele>662.6</ele>
        <time>2022-07-29T12:40:01Z</time>
      </trkpt>
      <trkpt lat="46.36999" lon="5.6862">
        <ele>662.6</ele>
        <time>2022-07-29T12:40:02Z</time>
      </trkpt>
      <trkpt lat="46.36999" lon="5.68616">
        <ele>662.8</ele>
        <time>2022-07-29T12:40:03Z</time>
      </trkpt>
      <trkpt lat="46.36998" lon="5.68612">
        <ele>662.8</ele>
        <time>2022-07-29T12:40:04Z</time>
      </trkpt>
      <trkpt lat="46.36998" lon="5.68609">
        <ele>662.8</ele>
        <time>2022-07-29T12:40:05Z</time>
      </trkpt>
      <trkpt lat="46.36998" lon="5.68605">
        <ele>662.8</ele>
        <time>2022-07-29T12:40:06Z</time>
      </trkpt>
      <trkpt lat="46.36997" lon="5.686">
        <ele>662.8</ele>
        <time>2022-07-29T12:40:07Z</time>
      </trkpt>
      <trkpt lat="46.36996" lon="5.68596">
        <ele>662.8</ele>
        <time>2022-07-29T12:40:08Z</time>
      </trkpt>
      <trkpt lat="46.36995" lon="5.68592">
        <ele>662.8</ele>
        <time>2022-07-29T12:40:09Z</time>
      </trkpt>
      <trkpt lat="46.36994" lon="5.68587">
        <ele>662.8</ele>
        <time>2022-07-29T12:40:10Z</time>
      </trkpt>
      <trkpt lat="46.36993" lon="5.68582">
        <ele>662.8</ele>
        <time>2022-07-29T12:40:11Z</time>
      </trkpt>
      <trkpt lat="46.36992" lon="5.68577">
        <ele>662.6</ele>
        <time>2022-07-29T12:40:12Z</time>
      </trkpt>
      <trkpt lat="46.3699" lon="5.68573">
        <ele>662.6</ele>
        <time>2022-07-29T12:40:13Z</time>
      </trkpt>
      <trkpt lat="46.36988" lon="5.68567">
        <ele>662.2</ele>
        <time>2022-07-29T12:40:14Z</time>
      </trkpt>
      <trkpt lat="46.36986" lon="5.68562">
        <ele>662.2</ele>
        <time>2022-07-29T12:40:15Z</time>
      </trkpt>
      <trkpt lat="46.36983" lon="5.68556">
        <ele>661.8</ele>
        <time>2022-07-29T12:40:16Z</time>
      </trkpt>
      <trkpt lat="46.3698" lon="5.6855">
        <ele>661.6</ele>
        <time>2022-07-29T12:40:17Z</time>
      </trkpt>
      <trkpt lat="46.36976" lon="5.68544">
        <ele>661.2</ele>
        <time>2022-07-29T12:40:18Z</time>
      </trkpt>
      <trkpt lat="46.36972" lon="5.68539">
        <ele>661</ele>
        <time>2022-07-29T12:40:19Z</time>
      </trkpt>
      <trkpt lat="46.36967" lon="5.68533">
        <ele>660.6</ele>
        <time>2022-07-29T12:40:20Z</time>
      </trkpt>
      <trkpt lat="46.36961" lon="5.68528">
        <ele>660.2</ele>
        <time>2022-07-29T12:40:21Z</time>
      </trkpt>
      <trkpt lat="46.36955" lon="5.68522">
        <ele>659.8</ele>
        <time>2022-07-29T12:40:22Z</time>
      </trkpt>
      <trkpt lat="46.36949" lon="5.68516">
        <ele>659.4</ele>
        <time>2022-07-29T12:40:23Z</time>
      </trkpt>
      <trkpt lat="46.36943" lon="5.68511">
        <ele>659</ele>
        <time>2022-07-29T12:40:24Z</time>
      </trkpt>
      <trkpt lat="46.36936" lon="5.68505">
        <ele>658.8</ele>
        <time>2022-07-29T12:40:25Z</time>
      </trkpt>
      <trkpt lat="46.3693" lon="5.685">
        <ele>658.4</ele>
        <time>2022-07-29T12:40:26Z</time>
      </trkpt>
      <trkpt lat="46.36923" lon="5.68495">
        <ele>658.4</ele>
        <time>2022-07-29T12:40:27Z</time>
      </trkpt>
      <trkpt lat="46.36916" lon="5.68491">
        <ele>658.2</ele>
        <time>2022-07-29T12:40:28Z</time>
      </trkpt>
      <trkpt lat="46.3691" lon="5.68486">
        <ele>658.2</ele>
        <time>2022-07-29T12:40:29Z</time>
      </trkpt>
      <trkpt lat="46.36904" lon="5.68482">
        <ele>658.2</ele>
        <time>2022-07-29T12:40:30Z</time>
      </trkpt>
      <trkpt lat="46.36898" lon="5.68477">
        <ele>657.8</ele>
        <time>2022-07-29T12:40:31Z</time>
      </trkpt>
      <trkpt lat="46.36893" lon="5.68473">
        <ele>657.8</ele>
        <time>2022-07-29T12:40:32Z</time>
      </trkpt>
      <trkpt lat="46.36887" lon="5.68469">
        <ele>657.8</ele>
        <time>2022-07-29T12:40:33Z</time>
      </trkpt>
      <trkpt lat="46.36881" lon="5.68465">
        <ele>657.6</ele>
        <time>2022-07-29T12:40:34Z</time>
      </trkpt>
      <trkpt lat="46.36875" lon="5.68462">
        <ele>657.6</ele>
        <time>2022-07-29T12:40:35Z</time>
      </trkpt>
      <trkpt lat="46.36869" lon="5.68457">
        <ele>657.6</ele>
        <time>2022-07-29T12:40:36Z</time>
      </trkpt>
      <trkpt lat="46.36863" lon="5.68453">
        <ele>657.6</ele>
        <time>2022-07-29T12:40:37Z</time>
      </trkpt>
      <trkpt lat="46.36858" lon="5.68447">
        <ele>657.6</ele>
        <time>2022-07-29T12:40:38Z</time>
      </trkpt>
      <trkpt lat="46.36853" lon="5.68441">
        <ele>657.6</ele>
        <time>2022-07-29T12:40:39Z</time>
      </trkpt>
      <trkpt lat="46.36849" lon="5.68435">
        <ele>657.2</ele>
        <time>2022-07-29T12:40:40Z</time>
      </trkpt>
      <trkpt lat="46.36845" lon="5.68429">
        <ele>657</ele>
        <time>2022-07-29T12:40:41Z</time>
      </trkpt>
      <trkpt lat="46.36841" lon="5.68422">
        <ele>656.6</ele>
        <time>2022-07-29T12:40:42Z</time>
      </trkpt>
      <trkpt lat="46.36837" lon="5.68414">
        <ele>656.4</ele>
        <time>2022-07-29T12:40:43Z</time>
      </trkpt>
      <trkpt lat="46.36832" lon="5.68407">
        <ele>656.2</ele>
        <time>2022-07-29T12:40:44Z</time>
      </trkpt>
      <trkpt lat="46.36828" lon="5.68399">
        <ele>656.2</ele>
        <time>2022-07-29T12:40:45Z</time>
      </trkpt>
      <trkpt lat="46.36824" lon="5.68391">
        <ele>655.6</ele>
        <time>2022-07-29T12:40:46Z</time>
      </trkpt>
      <trkpt lat="46.36819" lon="5.68384">
        <ele>655.4</ele>
        <time>2022-07-29T12:40:47Z</time>
      </trkpt>
      <trkpt lat="46.36815" lon="5.68376">
        <ele>655.4</ele>
        <time>2022-07-29T12:40:48Z</time>
      </trkpt>
      <trkpt lat="46.3681" lon="5.68369">
        <ele>655</ele>
        <time>2022-07-29T12:40:49Z</time>
      </trkpt>
      <trkpt lat="46.36805" lon="5.68361">
        <ele>655</ele>
        <time>2022-07-29T12:40:50Z</time>
      </trkpt>
      <trkpt lat="46.36801" lon="5.68354">
        <ele>655</ele>
        <time>2022-07-29T12:40:51Z</time>
      </trkpt>
      <trkpt lat="46.36796" lon="5.68346">
        <ele>654.6</ele>
        <time>2022-07-29T12:40:52Z</time>
      </trkpt>
      <trkpt lat="46.36793" lon="5.68337">
        <ele>654.6</ele>
        <time>2022-07-29T12:40:53Z</time>
      </trkpt>
      <trkpt lat="46.3679" lon="5.68327">
        <ele>654.2</ele>
        <time>2022-07-29T12:40:54Z</time>
      </trkpt>
      <trkpt lat="46.36786" lon="5.68318">
        <ele>654</ele>
        <time>2022-07-29T12:40:55Z</time>
      </trkpt>
      <trkpt lat="46.36781" lon="5.68308">
        <ele>653.6</ele>
        <time>2022-07-29T12:40:56Z</time>
      </trkpt>
      <trkpt lat="46.36776" lon="5.683">
        <ele>653.4</ele>
        <time>2022-07-29T12:40:57Z</time>
      </trkpt>
      <trkpt lat="46.3677" lon="5.68291">
        <ele>653</ele>
        <time>2022-07-29T12:40:58Z</time>
      </trkpt>
      <trkpt lat="46.36763" lon="5.68284">
        <ele>652.8</ele>
        <time>2022-07-29T12:40:59Z</time>
      </trkpt>
      <trkpt lat="46.36756" lon="5.68279">
        <ele>652.6</ele>
        <time>2022-07-29T12:41:00Z</time>
      </trkpt>
      <trkpt lat="46.36748" lon="5.68274">
        <ele>652.6</ele>
        <time>2022-07-29T12:41:01Z</time>
      </trkpt>
      <trkpt lat="46.36741" lon="5.6827">
        <ele>652.2</ele>
        <time>2022-07-29T12:41:02Z</time>
      </trkpt>
      <trkpt lat="46.36733" lon="5.68266">
        <ele>652.2</ele>
        <time>2022-07-29T12:41:03Z</time>
      </trkpt>
      <trkpt lat="46.36725" lon="5.68262">
        <ele>652.2</ele>
        <time>2022-07-29T12:41:04Z</time>
      </trkpt>
      <trkpt lat="46.36718" lon="5.68258">
        <ele>652</ele>
        <time>2022-07-29T12:41:05Z</time>
      </trkpt>
      <trkpt lat="46.3671" lon="5.68256">
        <ele>652</ele>
        <time>2022-07-29T12:41:06Z</time>
      </trkpt>
      <trkpt lat="46.36704" lon="5.68252">
        <ele>652</ele>
        <time>2022-07-29T12:41:07Z</time>
      </trkpt>
      <trkpt lat="46.36697" lon="5.68249">
        <ele>652</ele>
        <time>2022-07-29T12:41:08Z</time>
      </trkpt>
      <trkpt lat="46.36691" lon="5.68246">
        <ele>652</ele>
        <time>2022-07-29T12:41:09Z</time>
      </trkpt>
      <trkpt lat="46.36684" lon="5.68244">
        <ele>652</ele>
        <time>2022-07-29T12:41:10Z</time>
      </trkpt>
      <trkpt lat="46.36678" lon="5.68242">
        <ele>652</ele>
        <time>2022-07-29T12:41:11Z</time>
      </trkpt>
      <trkpt lat="46.36672" lon="5.6824">
        <ele>652.2</ele>
        <time>2022-07-29T12:41:12Z</time>
      </trkpt>
      <trkpt lat="46.36666" lon="5.68238">
        <ele>652.2</ele>
        <time>2022-07-29T12:41:13Z</time>
      </trkpt>
      <trkpt lat="46.36661" lon="5.68236">
        <ele>652.6</ele>
        <time>2022-07-29T12:41:14Z</time>
      </trkpt>
      <trkpt lat="46.36656" lon="5.68234">
        <ele>652.8</ele>
        <time>2022-07-29T12:41:15Z</time>
      </trkpt>
      <trkpt lat="46.36651" lon="5.68232">
        <ele>653</ele>
        <time>2022-07-29T12:41:16Z</time>
      </trkpt>
      <trkpt lat="46.36647" lon="5.68229">
        <ele>653</ele>
        <time>2022-07-29T12:41:17Z</time>
      </trkpt>
      <trkpt lat="46.36643" lon="5.68227">
        <ele>653.4</ele>
        <time>2022-07-29T12:41:18Z</time>
      </trkpt>
      <trkpt lat="46.36639" lon="5.68223">
        <ele>653.8</ele>
        <time>2022-07-29T12:41:19Z</time>
      </trkpt>
      <trkpt lat="46.36635" lon="5.6822">
        <ele>653.8</ele>
        <time>2022-07-29T12:41:20Z</time>
      </trkpt>
      <trkpt lat="46.36631" lon="5.68217">
        <ele>654</ele>
        <time>2022-07-29T12:41:21Z</time>
      </trkpt>
      <trkpt lat="46.36627" lon="5.68213">
        <ele>654</ele>
        <time>2022-07-29T12:41:22Z</time>
      </trkpt>
      <trkpt lat="46.36623" lon="5.6821">
        <ele>654.2</ele>
        <time>2022-07-29T12:41:23Z</time>
      </trkpt>
      <trkpt lat="46.3662" lon="5.68207">
        <ele>654.2</ele>
        <time>2022-07-29T12:41:24Z</time>
      </trkpt>
      <trkpt lat="46.36616" lon="5.68205">
        <ele>654.6</ele>
        <time>2022-07-29T12:41:25Z</time>
      </trkpt>
      <trkpt lat="46.36613" lon="5.68202">
        <ele>654.8</ele>
        <time>2022-07-29T12:41:26Z</time>
      </trkpt>
      <trkpt lat="46.3661" lon="5.682">
        <ele>655</ele>
        <time>2022-07-29T12:41:27Z</time>
      </trkpt>
      <trkpt lat="46.36607" lon="5.68197">
        <ele>655.4</ele>
        <time>2022-07-29T12:41:28Z</time>
      </trkpt>
      <trkpt lat="46.36605" lon="5.68194">
        <ele>655.4</ele>
        <time>2022-07-29T12:41:29Z</time>
      </trkpt>
      <trkpt lat="46.36602" lon="5.68192">
        <ele>655.6</ele>
        <time>2022-07-29T12:41:30Z</time>
      </trkpt>
      <trkpt lat="46.366" lon="5.68189">
        <ele>655.6</ele>
        <time>2022-07-29T12:41:31Z</time>
      </trkpt>
      <trkpt lat="46.36597" lon="5.68187">
        <ele>656</ele>
        <time>2022-07-29T12:41:32Z</time>
      </trkpt>
      <trkpt lat="46.36593" lon="5.68184">
        <ele>656</ele>
        <time>2022-07-29T12:41:33Z</time>
      </trkpt>
      <trkpt lat="46.3659" lon="5.68182">
        <ele>656.2</ele>
        <time>2022-07-29T12:41:34Z</time>
      </trkpt>
      <trkpt lat="46.36587" lon="5.68179">
        <ele>656.2</ele>
        <time>2022-07-29T12:41:35Z</time>
      </trkpt>
      <trkpt lat="46.36584" lon="5.68176">
        <ele>656.6</ele>
        <time>2022-07-29T12:41:36Z</time>
      </trkpt>
      <trkpt lat="46.36581" lon="5.68174">
        <ele>656.8</ele>
        <time>2022-07-29T12:41:37Z</time>
      </trkpt>
      <trkpt lat="46.36577" lon="5.68171">
        <ele>656.8</ele>
        <time>2022-07-29T12:41:38Z</time>
      </trkpt>
      <trkpt lat="46.36574" lon="5.68169">
        <ele>657</ele>
        <time>2022-07-29T12:41:39Z</time>
      </trkpt>
      <trkpt lat="46.36571" lon="5.68166">
        <ele>657</ele>
        <time>2022-07-29T12:41:40Z</time>
      </trkpt>
      <trkpt lat="46.36567" lon="5.68164">
        <ele>657.4</ele>
        <time>2022-07-29T12:41:41Z</time>
      </trkpt>
      <trkpt lat="46.36564" lon="5.68162">
        <ele>657.6</ele>
        <time>2022-07-29T12:41:42Z</time>
      </trkpt>
      <trkpt lat="46.36561" lon="5.6816">
        <ele>657.8</ele>
        <time>2022-07-29T12:41:43Z</time>
      </trkpt>
      <trkpt lat="46.36558" lon="5.68159">
        <ele>658.2</ele>
        <time>2022-07-29T12:41:44Z</time>
      </trkpt>
      <trkpt lat="46.36554" lon="5.68157">
        <ele>658.4</ele>
        <time>2022-07-29T12:41:45Z</time>
      </trkpt>
      <trkpt lat="46.3655" lon="5.68156">
        <ele>658.6</ele>
        <time>2022-07-29T12:41:46Z</time>
      </trkpt>
      <trkpt lat="46.36547" lon="5.68154">
        <ele>658.8</ele>
        <time>2022-07-29T12:41:47Z</time>
      </trkpt>
      <trkpt lat="46.36544" lon="5.68152">
        <ele>659.2</ele>
        <time>2022-07-29T12:41:48Z</time>
      </trkpt>
      <trkpt lat="46.36541" lon="5.6815">
        <ele>659.2</ele>
        <time>2022-07-29T12:41:49Z</time>
      </trkpt>
      <trkpt lat="46.36538" lon="5.68149">
        <ele>659.6</ele>
        <time>2022-07-29T12:41:50Z</time>
      </trkpt>
      <trkpt lat="46.36535" lon="5.68147">
        <ele>659.6</ele>
        <time>2022-07-29T12:41:51Z</time>
      </trkpt>
      <trkpt lat="46.36532" lon="5.68146">
        <ele>659.8</ele>
        <time>2022-07-29T12:41:52Z</time>
      </trkpt>
      <trkpt lat="46.36529" lon="5.68145">
        <ele>659.8</ele>
        <time>2022-07-29T12:41:53Z</time>
      </trkpt>
      <trkpt lat="46.36526" lon="5.68144">
        <ele>660</ele>
        <time>2022-07-29T12:41:54Z</time>
      </trkpt>
      <trkpt lat="46.36523" lon="5.68142">
        <ele>660</ele>
        <time>2022-07-29T12:41:55Z</time>
      </trkpt>
      <trkpt lat="46.36521" lon="5.6814">
        <ele>660.4</ele>
        <time>2022-07-29T12:41:56Z</time>
      </trkpt>
      <trkpt lat="46.36518" lon="5.68138">
        <ele>660.4</ele>
        <time>2022-07-29T12:41:57Z</time>
      </trkpt>
      <trkpt lat="46.36515" lon="5.68137">
        <ele>660.6</ele>
        <time>2022-07-29T12:41:58Z</time>
      </trkpt>
      <trkpt lat="46.36512" lon="5.68136">
        <ele>660.6</ele>
        <time>2022-07-29T12:41:59Z</time>
      </trkpt>
      <trkpt lat="46.36509" lon="5.68135">
        <ele>660.6</ele>
        <time>2022-07-29T12:42:00Z</time>
      </trkpt>
      <trkpt lat="46.36506" lon="5.68134">
        <ele>660.6</ele>
        <time>2022-07-29T12:42:01Z</time>
      </trkpt>
      <trkpt lat="46.36503" lon="5.68133">
        <ele>660.6</ele>
        <time>2022-07-29T12:42:02Z</time>
      </trkpt>
      <trkpt lat="46.36499" lon="5.68132">
        <ele>660.6</ele>
        <time>2022-07-29T12:42:03Z</time>
      </trkpt>
      <trkpt lat="46.36495" lon="5.6813">
        <ele>660.6</ele>
        <time>2022-07-29T12:42:04Z</time>
      </trkpt>
      <trkpt lat="46.36492" lon="5.68129">
        <ele>660.6</ele>
        <time>2022-07-29T12:42:05Z</time>
      </trkpt>
      <trkpt lat="46.36487" lon="5.68127">
        <ele>660.6</ele>
        <time>2022-07-29T12:42:06Z</time>
      </trkpt>
      <trkpt lat="46.36483" lon="5.68125">
        <ele>660.6</ele>
        <time>2022-07-29T12:42:07Z</time>
      </trkpt>
      <trkpt lat="46.36479" lon="5.68123">
        <ele>660.6</ele>
        <time>2022-07-29T12:42:08Z</time>
      </trkpt>
      <trkpt lat="46.36474" lon="5.68121">
        <ele>660.6</ele>
        <time>2022-07-29T12:42:09Z</time>
      </trkpt>
      <trkpt lat="46.36469" lon="5.68118">
        <ele>660.6</ele>
        <time>2022-07-29T12:42:10Z</time>
      </trkpt>
      <trkpt lat="46.36465" lon="5.68115">
        <ele>660.6</ele>
        <time>2022-07-29T12:42:11Z</time>
      </trkpt>
      <trkpt lat="46.3646" lon="5.68112">
        <ele>660.4</ele>
        <time>2022-07-29T12:42:12Z</time>
      </trkpt>
      <trkpt lat="46.36455" lon="5.68109">
        <ele>660.4</ele>
        <time>2022-07-29T12:42:13Z</time>
      </trkpt>
      <trkpt lat="46.3645" lon="5.68105">
        <ele>660.4</ele>
        <time>2022-07-29T12:42:14Z</time>
      </trkpt>
      <trkpt lat="46.36445" lon="5.681">
        <ele>660</ele>
        <time>2022-07-29T12:42:15Z</time>
      </trkpt>
      <trkpt lat="46.36441" lon="5.68096">
        <ele>660</ele>
        <time>2022-07-29T12:42:16Z</time>
      </trkpt>
      <trkpt lat="46.36436" lon="5.68091">
        <ele>659.6</ele>
        <time>2022-07-29T12:42:17Z</time>
      </trkpt>
      <trkpt lat="46.36431" lon="5.68086">
        <ele>659.6</ele>
        <time>2022-07-29T12:42:18Z</time>
      </trkpt>
      <trkpt lat="46.36426" lon="5.6808">
        <ele>659.2</ele>
        <time>2022-07-29T12:42:19Z</time>
      </trkpt>
      <trkpt lat="46.36421" lon="5.68074">
        <ele>659</ele>
        <time>2022-07-29T12:42:20Z</time>
      </trkpt>
      <trkpt lat="46.36416" lon="5.68068">
        <ele>658.6</ele>
        <time>2022-07-29T12:42:21Z</time>
      </trkpt>
      <trkpt lat="46.3641" lon="5.6806">
        <ele>658.2</ele>
        <time>2022-07-29T12:42:22Z</time>
      </trkpt>
      <trkpt lat="46.36406" lon="5.68051">
        <ele>657.8</ele>
        <time>2022-07-29T12:42:23Z</time>
      </trkpt>
      <trkpt lat="46.36401" lon="5.68041">
        <ele>657.4</ele>
        <time>2022-07-29T12:42:24Z</time>
      </trkpt>
      <trkpt lat="46.36396" lon="5.68031">
        <ele>657</ele>
        <time>2022-07-29T12:42:25Z</time>
      </trkpt>
      <trkpt lat="46.36391" lon="5.68021">
        <ele>656.4</ele>
        <time>2022-07-29T12:42:26Z</time>
      </trkpt>
      <trkpt lat="46.36386" lon="5.6801">
        <ele>656</ele>
        <time>2022-07-29T12:42:27Z</time>
      </trkpt>
      <trkpt lat="46.3638" lon="5.67998">
        <ele>655.2</ele>
        <time>2022-07-29T12:42:28Z</time>
      </trkpt>
      <trkpt lat="46.36374" lon="5.67987">
        <ele>654.6</ele>
        <time>2022-07-29T12:42:29Z</time>
      </trkpt>
      <trkpt lat="46.36367" lon="5.67977">
        <ele>653.8</ele>
        <time>2022-07-29T12:42:30Z</time>
      </trkpt>
      <trkpt lat="46.36361" lon="5.67966">
        <ele>653</ele>
        <time>2022-07-29T12:42:31Z</time>
      </trkpt>
      <trkpt lat="46.36354" lon="5.67955">
        <ele>652.2</ele>
        <time>2022-07-29T12:42:32Z</time>
      </trkpt>
      <trkpt lat="46.36346" lon="5.67945">
        <ele>651.4</ele>
        <time>2022-07-29T12:42:33Z</time>
      </trkpt>
      <trkpt lat="46.36339" lon="5.67933">
        <ele>650.8</ele>
        <time>2022-07-29T12:42:34Z</time>
      </trkpt>
      <trkpt lat="46.36334" lon="5.67921">
        <ele>650.2</ele>
        <time>2022-07-29T12:42:35Z</time>
      </trkpt>
      <trkpt lat="46.36328" lon="5.67907">
        <ele>649.6</ele>
        <time>2022-07-29T12:42:36Z</time>
      </trkpt>
      <trkpt lat="46.36324" lon="5.67893">
        <ele>648.8</ele>
        <time>2022-07-29T12:42:37Z</time>
      </trkpt>
      <trkpt lat="46.36319" lon="5.67879">
        <ele>648.2</ele>
        <time>2022-07-29T12:42:38Z</time>
      </trkpt>
      <trkpt lat="46.36314" lon="5.67865">
        <ele>647.4</ele>
        <time>2022-07-29T12:42:39Z</time>
      </trkpt>
      <trkpt lat="46.36309" lon="5.6785">
        <ele>646.4</ele>
        <time>2022-07-29T12:42:40Z</time>
      </trkpt>
      <trkpt lat="46.36303" lon="5.67836">
        <ele>645.8</ele>
        <time>2022-07-29T12:42:41Z</time>
      </trkpt>
      <trkpt lat="46.36297" lon="5.67821">
        <ele>644.8</ele>
        <time>2022-07-29T12:42:42Z</time>
      </trkpt>
      <trkpt lat="46.36291" lon="5.67806">
        <ele>644</ele>
        <time>2022-07-29T12:42:43Z</time>
      </trkpt>
      <trkpt lat="46.36285" lon="5.6779">
        <ele>643.2</ele>
        <time>2022-07-29T12:42:44Z</time>
      </trkpt>
      <trkpt lat="46.36278" lon="5.67775">
        <ele>642.4</ele>
        <time>2022-07-29T12:42:45Z</time>
      </trkpt>
      <trkpt lat="46.36272" lon="5.6776">
        <ele>641.6</ele>
        <time>2022-07-29T12:42:46Z</time>
      </trkpt>
      <trkpt lat="46.36264" lon="5.67746">
        <ele>640.8</ele>
        <time>2022-07-29T12:42:47Z</time>
      </trkpt>
      <trkpt lat="46.36256" lon="5.67731">
        <ele>640.2</ele>
        <time>2022-07-29T12:42:48Z</time>
      </trkpt>
      <trkpt lat="46.36249" lon="5.67716">
        <ele>639.8</ele>
        <time>2022-07-29T12:42:49Z</time>
      </trkpt>
      <trkpt lat="46.36242" lon="5.67702">
        <ele>639.2</ele>
        <time>2022-07-29T12:42:50Z</time>
      </trkpt>
      <trkpt lat="46.36234" lon="5.67689">
        <ele>639</ele>
        <time>2022-07-29T12:42:51Z</time>
      </trkpt>
      <trkpt lat="46.36227" lon="5.67677">
        <ele>638.6</ele>
        <time>2022-07-29T12:42:52Z</time>
      </trkpt>
      <trkpt lat="46.36219" lon="5.67666">
        <ele>638.4</ele>
        <time>2022-07-29T12:42:53Z</time>
      </trkpt>
      <trkpt lat="46.36212" lon="5.67658">
        <ele>638.4</ele>
        <time>2022-07-29T12:42:54Z</time>
      </trkpt>
      <trkpt lat="46.36204" lon="5.6765">
        <ele>638</ele>
        <time>2022-07-29T12:42:55Z</time>
      </trkpt>
      <trkpt lat="46.36195" lon="5.67642">
        <ele>638</ele>
        <time>2022-07-29T12:42:56Z</time>
      </trkpt>
      <trkpt lat="46.36187" lon="5.67635">
        <ele>637.8</ele>
        <time>2022-07-29T12:42:57Z</time>
      </trkpt>
      <trkpt lat="46.36179" lon="5.67627">
        <ele>637.8</ele>
        <time>2022-07-29T12:42:58Z</time>
      </trkpt>
      <trkpt lat="46.36172" lon="5.6762">
        <ele>637.6</ele>
        <time>2022-07-29T12:42:59Z</time>
      </trkpt>
      <trkpt lat="46.36165" lon="5.67613">
        <ele>637.6</ele>
        <time>2022-07-29T12:43:00Z</time>
      </trkpt>
      <trkpt lat="46.36159" lon="5.67606">
        <ele>637.6</ele>
        <time>2022-07-29T12:43:01Z</time>
      </trkpt>
      <trkpt lat="46.36153" lon="5.67599">
        <ele>637.6</ele>
        <time>2022-07-29T12:43:02Z</time>
      </trkpt>
      <trkpt lat="46.36147" lon="5.67592">
        <ele>637.6</ele>
        <time>2022-07-29T12:43:03Z</time>
      </trkpt>
      <trkpt lat="46.36141" lon="5.67586">
        <ele>637.6</ele>
        <time>2022-07-29T12:43:04Z</time>
      </trkpt>
      <trkpt lat="46.36135" lon="5.6758">
        <ele>637.6</ele>
        <time>2022-07-29T12:43:05Z</time>
      </trkpt>
      <trkpt lat="46.36129" lon="5.67574">
        <ele>637.6</ele>
        <time>2022-07-29T12:43:06Z</time>
      </trkpt>
      <trkpt lat="46.36124" lon="5.67567">
        <ele>637.6</ele>
        <time>2022-07-29T12:43:07Z</time>
      </trkpt>
      <trkpt lat="46.3612" lon="5.6756">
        <ele>637.8</ele>
        <time>2022-07-29T12:43:08Z</time>
      </trkpt>
      <trkpt lat="46.36116" lon="5.67552">
        <ele>637.8</ele>
        <time>2022-07-29T12:43:09Z</time>
      </trkpt>
      <trkpt lat="46.36112" lon="5.67545">
        <ele>638</ele>
        <time>2022-07-29T12:43:10Z</time>
      </trkpt>
      <trkpt lat="46.36108" lon="5.67538">
        <ele>638.2</ele>
        <time>2022-07-29T12:43:11Z</time>
      </trkpt>
      <trkpt lat="46.36105" lon="5.6753">
        <ele>638.6</ele>
        <time>2022-07-29T12:43:12Z</time>
      </trkpt>
      <trkpt lat="46.36103" lon="5.67523">
        <ele>638.8</ele>
        <time>2022-07-29T12:43:13Z</time>
      </trkpt>
      <trkpt lat="46.36101" lon="5.67516">
        <ele>639</ele>
        <time>2022-07-29T12:43:14Z</time>
      </trkpt>
      <trkpt lat="46.36099" lon="5.67509">
        <ele>639.2</ele>
        <time>2022-07-29T12:43:15Z</time>
      </trkpt>
      <trkpt lat="46.36097" lon="5.67503">
        <ele>639.4</ele>
        <time>2022-07-29T12:43:16Z</time>
      </trkpt>
      <trkpt lat="46.36095" lon="5.67497">
        <ele>639.6</ele>
        <time>2022-07-29T12:43:17Z</time>
      </trkpt>
      <trkpt lat="46.36093" lon="5.67491">
        <ele>639.8</ele>
        <time>2022-07-29T12:43:18Z</time>
      </trkpt>
      <trkpt lat="46.36091" lon="5.67485">
        <ele>639.8</ele>
        <time>2022-07-29T12:43:19Z</time>
      </trkpt>
      <trkpt lat="46.36089" lon="5.67479">
        <ele>640.2</ele>
        <time>2022-07-29T12:43:20Z</time>
      </trkpt>
      <trkpt lat="46.36086" lon="5.67473">
        <ele>640.2</ele>
        <time>2022-07-29T12:43:21Z</time>
      </trkpt>
      <trkpt lat="46.36085" lon="5.67467">
        <ele>640.6</ele>
        <time>2022-07-29T12:43:22Z</time>
      </trkpt>
      <trkpt lat="46.36083" lon="5.67461">
        <ele>640.6</ele>
        <time>2022-07-29T12:43:23Z</time>
      </trkpt>
      <trkpt lat="46.36081" lon="5.67456">
        <ele>640.8</ele>
        <time>2022-07-29T12:43:24Z</time>
      </trkpt>
      <trkpt lat="46.36079" lon="5.6745">
        <ele>640.8</ele>
        <time>2022-07-29T12:43:25Z</time>
      </trkpt>
      <trkpt lat="46.36078" lon="5.67444">
        <ele>641.2</ele>
        <time>2022-07-29T12:43:26Z</time>
      </trkpt>
      <trkpt lat="46.36076" lon="5.67438">
        <ele>641.2</ele>
        <time>2022-07-29T12:43:27Z</time>
      </trkpt>
      <trkpt lat="46.36074" lon="5.67433">
        <ele>641.6</ele>
        <time>2022-07-29T12:43:28Z</time>
      </trkpt>
      <trkpt lat="46.36072" lon="5.67428">
        <ele>641.6</ele>
        <time>2022-07-29T12:43:29Z</time>
      </trkpt>
      <trkpt lat="46.3607" lon="5.67422">
        <ele>641.8</ele>
        <time>2022-07-29T12:43:30Z</time>
      </trkpt>
      <trkpt lat="46.36068" lon="5.67417">
        <ele>641.8</ele>
        <time>2022-07-29T12:43:31Z</time>
      </trkpt>
      <trkpt lat="46.36067" lon="5.67412">
        <ele>642</ele>
        <time>2022-07-29T12:43:32Z</time>
      </trkpt>
      <trkpt lat="46.36065" lon="5.67406">
        <ele>642</ele>
        <time>2022-07-29T12:43:33Z</time>
      </trkpt>
      <trkpt lat="46.36063" lon="5.67402">
        <ele>642.2</ele>
        <time>2022-07-29T12:43:34Z</time>
      </trkpt>
      <trkpt lat="46.3606" lon="5.67397">
        <ele>642.2</ele>
        <time>2022-07-29T12:43:35Z</time>
      </trkpt>
      <trkpt lat="46.36058" lon="5.67392">
        <ele>642.6</ele>
        <time>2022-07-29T12:43:36Z</time>
      </trkpt>
      <trkpt lat="46.36056" lon="5.67387">
        <ele>642.6</ele>
        <time>2022-07-29T12:43:37Z</time>
      </trkpt>
      <trkpt lat="46.36054" lon="5.67381">
        <ele>642.8</ele>
        <time>2022-07-29T12:43:38Z</time>
      </trkpt>
      <trkpt lat="46.36052" lon="5.67376">
        <ele>642.8</ele>
        <time>2022-07-29T12:43:39Z</time>
      </trkpt>
      <trkpt lat="46.3605" lon="5.67371">
        <ele>642.8</ele>
        <time>2022-07-29T12:43:40Z</time>
      </trkpt>
      <trkpt lat="46.36047" lon="5.67366">
        <ele>642.8</ele>
        <time>2022-07-29T12:43:41Z</time>
      </trkpt>
      <trkpt lat="46.36045" lon="5.6736">
        <ele>642.8</ele>
        <time>2022-07-29T12:43:42Z</time>
      </trkpt>
      <trkpt lat="46.36042" lon="5.67354">
        <ele>642.8</ele>
        <time>2022-07-29T12:43:43Z</time>
      </trkpt>
      <trkpt lat="46.3604" lon="5.67348">
        <ele>642.8</ele>
        <time>2022-07-29T12:43:44Z</time>
      </trkpt>
      <trkpt lat="46.36037" lon="5.67341">
        <ele>642.8</ele>
        <time>2022-07-29T12:43:45Z</time>
      </trkpt>
      <trkpt lat="46.36034" lon="5.67335">
        <ele>642.8</ele>
        <time>2022-07-29T12:43:46Z</time>
      </trkpt>
      <trkpt lat="46.36031" lon="5.67329">
        <ele>642.8</ele>
        <time>2022-07-29T12:43:47Z</time>
      </trkpt>
      <trkpt lat="46.36029" lon="5.67322">
        <ele>643</ele>
        <time>2022-07-29T12:43:48Z</time>
      </trkpt>
      <trkpt lat="46.36027" lon="5.67316">
        <ele>643.4</ele>
        <time>2022-07-29T12:43:49Z</time>
      </trkpt>
      <trkpt lat="46.36025" lon="5.67309">
        <ele>643.4</ele>
        <time>2022-07-29T12:43:50Z</time>
      </trkpt>
      <trkpt lat="46.36022" lon="5.67304">
        <ele>643.8</ele>
        <time>2022-07-29T12:43:51Z</time>
      </trkpt>
      <trkpt lat="46.3602" lon="5.67298">
        <ele>644</ele>
        <time>2022-07-29T12:43:52Z</time>
      </trkpt>
      <trkpt lat="46.36019" lon="5.67293">
        <ele>644.2</ele>
        <time>2022-07-29T12:43:53Z</time>
      </trkpt>
      <trkpt lat="46.36016" lon="5.67289">
        <ele>644.6</ele>
        <time>2022-07-29T12:43:54Z</time>
      </trkpt>
      <trkpt lat="46.36014" lon="5.67284">
        <ele>644.8</ele>
        <time>2022-07-29T12:43:55Z</time>
      </trkpt>
      <trkpt lat="46.36012" lon="5.67278">
        <ele>645</ele>
        <time>2022-07-29T12:43:56Z</time>
      </trkpt>
      <trkpt lat="46.3601" lon="5.67273">
        <ele>645.2</ele>
        <time>2022-07-29T12:43:57Z</time>
      </trkpt>
      <trkpt lat="46.36008" lon="5.67268">
        <ele>645.6</ele>
        <time>2022-07-29T12:43:58Z</time>
      </trkpt>
      <trkpt lat="46.36005" lon="5.67263">
        <ele>645.8</ele>
        <time>2022-07-29T12:43:59Z</time>
      </trkpt>
      <trkpt lat="46.36003" lon="5.67259">
        <ele>646</ele>
        <time>2022-07-29T12:44:00Z</time>
      </trkpt>
      <trkpt lat="46.36001" lon="5.67254">
        <ele>646.2</ele>
        <time>2022-07-29T12:44:01Z</time>
      </trkpt>
      <trkpt lat="46.35998" lon="5.6725">
        <ele>646.4</ele>
        <time>2022-07-29T12:44:02Z</time>
      </trkpt>
      <trkpt lat="46.35995" lon="5.67245">
        <ele>646.8</ele>
        <time>2022-07-29T12:44:03Z</time>
      </trkpt>
      <trkpt lat="46.35993" lon="5.67242">
        <ele>647</ele>
        <time>2022-07-29T12:44:04Z</time>
      </trkpt>
      <trkpt lat="46.3599" lon="5.67238">
        <ele>647</ele>
        <time>2022-07-29T12:44:05Z</time>
      </trkpt>
      <trkpt lat="46.35988" lon="5.67234">
        <ele>647.4</ele>
        <time>2022-07-29T12:44:06Z</time>
      </trkpt>
      <trkpt lat="46.35986" lon="5.67231">
        <ele>647.4</ele>
        <time>2022-07-29T12:44:07Z</time>
      </trkpt>
      <trkpt lat="46.35985" lon="5.67227">
        <ele>647.8</ele>
        <time>2022-07-29T12:44:08Z</time>
      </trkpt>
      <trkpt lat="46.35983" lon="5.67223">
        <ele>648</ele>
        <time>2022-07-29T12:44:09Z</time>
      </trkpt>
      <trkpt lat="46.35981" lon="5.6722">
        <ele>648.2</ele>
        <time>2022-07-29T12:44:10Z</time>
      </trkpt>
      <trkpt lat="46.3598" lon="5.67217">
        <ele>648.2</ele>
        <time>2022-07-29T12:44:11Z</time>
      </trkpt>
      <trkpt lat="46.35979" lon="5.67214">
        <ele>648.6</ele>
        <time>2022-07-29T12:44:12Z</time>
      </trkpt>
      <trkpt lat="46.35978" lon="5.6721">
        <ele>648.6</ele>
        <time>2022-07-29T12:44:13Z</time>
      </trkpt>
      <trkpt lat="46.35977" lon="5.67206">
        <ele>649</ele>
        <time>2022-07-29T12:44:14Z</time>
      </trkpt>
      <trkpt lat="46.35976" lon="5.67202">
        <ele>649</ele>
        <time>2022-07-29T12:44:15Z</time>
      </trkpt>
      <trkpt lat="46.35975" lon="5.67198">
        <ele>649.2</ele>
        <time>2022-07-29T12:44:16Z</time>
      </trkpt>
      <trkpt lat="46.35974" lon="5.67194">
        <ele>649.2</ele>
        <time>2022-07-29T12:44:17Z</time>
      </trkpt>
      <trkpt lat="46.35972" lon="5.6719">
        <ele>649.2</ele>
        <time>2022-07-29T12:44:18Z</time>
      </trkpt>
      <trkpt lat="46.35971" lon="5.67186">
        <ele>649.2</ele>
        <time>2022-07-29T12:44:19Z</time>
      </trkpt>
      <trkpt lat="46.3597" lon="5.67181">
        <ele>649.6</ele>
        <time>2022-07-29T12:44:20Z</time>
      </trkpt>
      <trkpt lat="46.35969" lon="5.67176">
        <ele>649.6</ele>
        <time>2022-07-29T12:44:21Z</time>
      </trkpt>
      <trkpt lat="46.35968" lon="5.67171">
        <ele>649.6</ele>
        <time>2022-07-29T12:44:22Z</time>
      </trkpt>
      <trkpt lat="46.35968" lon="5.67166">
        <ele>649.6</ele>
        <time>2022-07-29T12:44:23Z</time>
      </trkpt>
      <trkpt lat="46.35967" lon="5.6716">
        <ele>649.8</ele>
        <time>2022-07-29T12:44:24Z</time>
      </trkpt>
      <trkpt lat="46.35965" lon="5.67155">
        <ele>649.8</ele>
        <time>2022-07-29T12:44:25Z</time>
      </trkpt>
      <trkpt lat="46.35964" lon="5.67149">
        <ele>650</ele>
        <time>2022-07-29T12:44:26Z</time>
      </trkpt>
      <trkpt lat="46.35963" lon="5.67144">
        <ele>650</ele>
        <time>2022-07-29T12:44:27Z</time>
      </trkpt>
      <trkpt lat="46.35962" lon="5.67139">
        <ele>650</ele>
        <time>2022-07-29T12:44:28Z</time>
      </trkpt>
      <trkpt lat="46.35961" lon="5.67133">
        <ele>650</ele>
        <time>2022-07-29T12:44:29Z</time>
      </trkpt>
      <trkpt lat="46.35958" lon="5.67122">
        <ele>650</ele>
        <time>2022-07-29T12:44:30Z</time>
      </trkpt>
      <trkpt lat="46.35957" lon="5.67116">
        <ele>650.2</ele>
        <time>2022-07-29T12:44:31Z</time>
      </trkpt>
      <trkpt lat="46.35956" lon="5.67111">
        <ele>650.2</ele>
        <time>2022-07-29T12:44:32Z</time>
      </trkpt>
      <trkpt lat="46.35955" lon="5.67105">
        <ele>650.2</ele>
        <time>2022-07-29T12:44:33Z</time>
      </trkpt>
      <trkpt lat="46.35954" lon="5.67099">
        <ele>650.2</ele>
        <time>2022-07-29T12:44:34Z</time>
      </trkpt>
      <trkpt lat="46.35953" lon="5.67093">
        <ele>650.2</ele>
        <time>2022-07-29T12:44:35Z</time>
      </trkpt>
      <trkpt lat="46.35952" lon="5.67087">
        <ele>650.2</ele>
        <time>2022-07-29T12:44:36Z</time>
      </trkpt>
      <trkpt lat="46.35951" lon="5.67081">
        <ele>650.4</ele>
        <time>2022-07-29T12:44:37Z</time>
      </trkpt>
      <trkpt lat="46.3595" lon="5.67075">
        <ele>650.4</ele>
        <time>2022-07-29T12:44:38Z</time>
      </trkpt>
      <trkpt lat="46.35949" lon="5.67069">
        <ele>650.4</ele>
        <time>2022-07-29T12:44:39Z</time>
      </trkpt>
      <trkpt lat="46.35948" lon="5.67063">
        <ele>650.6</ele>
        <time>2022-07-29T12:44:40Z</time>
      </trkpt>
      <trkpt lat="46.35947" lon="5.67057">
        <ele>650.6</ele>
        <time>2022-07-29T12:44:41Z</time>
      </trkpt>
      <trkpt lat="46.35945" lon="5.6705">
        <ele>650.6</ele>
        <time>2022-07-29T12:44:42Z</time>
      </trkpt>
      <trkpt lat="46.35944" lon="5.67044">
        <ele>651</ele>
        <time>2022-07-29T12:44:43Z</time>
      </trkpt>
      <trkpt lat="46.35942" lon="5.67038">
        <ele>651</ele>
        <time>2022-07-29T12:44:44Z</time>
      </trkpt>
      <trkpt lat="46.3594" lon="5.67033">
        <ele>651</ele>
        <time>2022-07-29T12:44:45Z</time>
      </trkpt>
      <trkpt lat="46.35938" lon="5.67027">
        <ele>651.2</ele>
        <time>2022-07-29T12:44:46Z</time>
      </trkpt>
      <trkpt lat="46.35936" lon="5.67022">
        <ele>651.2</ele>
        <time>2022-07-29T12:44:47Z</time>
      </trkpt>
      <trkpt lat="46.35934" lon="5.67016">
        <ele>651.2</ele>
        <time>2022-07-29T12:44:48Z</time>
      </trkpt>
      <trkpt lat="46.35931" lon="5.67011">
        <ele>651.4</ele>
        <time>2022-07-29T12:44:49Z</time>
      </trkpt>
      <trkpt lat="46.35929" lon="5.67005">
        <ele>651.4</ele>
        <time>2022-07-29T12:44:50Z</time>
      </trkpt>
      <trkpt lat="46.35926" lon="5.67">
        <ele>651.4</ele>
        <time>2022-07-29T12:44:51Z</time>
      </trkpt>
      <trkpt lat="46.35922" lon="5.66995">
        <ele>651.4</ele>
        <time>2022-07-29T12:44:52Z</time>
      </trkpt>
      <trkpt lat="46.35919" lon="5.6699">
        <ele>651.4</ele>
        <time>2022-07-29T12:44:53Z</time>
      </trkpt>
      <trkpt lat="46.35916" lon="5.66984">
        <ele>651.6</ele>
        <time>2022-07-29T12:44:54Z</time>
      </trkpt>
      <trkpt lat="46.35913" lon="5.66979">
        <ele>651.6</ele>
        <time>2022-07-29T12:44:55Z</time>
      </trkpt>
      <trkpt lat="46.3591" lon="5.66973">
        <ele>652</ele>
        <time>2022-07-29T12:44:56Z</time>
      </trkpt>
      <trkpt lat="46.35907" lon="5.66969">
        <ele>652</ele>
        <time>2022-07-29T12:44:57Z</time>
      </trkpt>
      <trkpt lat="46.35904" lon="5.66964">
        <ele>652.4</ele>
        <time>2022-07-29T12:44:58Z</time>
      </trkpt>
      <trkpt lat="46.35901" lon="5.66959">
        <ele>652.4</ele>
        <time>2022-07-29T12:44:59Z</time>
      </trkpt>
      <trkpt lat="46.35899" lon="5.66954">
        <ele>652.6</ele>
        <time>2022-07-29T12:45:00Z</time>
      </trkpt>
      <trkpt lat="46.35898" lon="5.66949">
        <ele>652.6</ele>
        <time>2022-07-29T12:45:01Z</time>
      </trkpt>
      <trkpt lat="46.35896" lon="5.66944">
        <ele>653</ele>
        <time>2022-07-29T12:45:02Z</time>
      </trkpt>
      <trkpt lat="46.35895" lon="5.66938">
        <ele>653.2</ele>
        <time>2022-07-29T12:45:03Z</time>
      </trkpt>
      <trkpt lat="46.35894" lon="5.66933">
        <ele>653.4</ele>
        <time>2022-07-29T12:45:04Z</time>
      </trkpt>
      <trkpt lat="46.35894" lon="5.66928">
        <ele>653.6</ele>
        <time>2022-07-29T12:45:05Z</time>
      </trkpt>
      <trkpt lat="46.35894" lon="5.66922">
        <ele>653.6</ele>
        <time>2022-07-29T12:45:06Z</time>
      </trkpt>
      <trkpt lat="46.35894" lon="5.66916">
        <ele>653.6</ele>
        <time>2022-07-29T12:45:07Z</time>
      </trkpt>
      <trkpt lat="46.35894" lon="5.66911">
        <ele>654</ele>
        <time>2022-07-29T12:45:08Z</time>
      </trkpt>
      <trkpt lat="46.35894" lon="5.66905">
        <ele>654</ele>
        <time>2022-07-29T12:45:09Z</time>
      </trkpt>
      <trkpt lat="46.35895" lon="5.66899">
        <ele>654.2</ele>
        <time>2022-07-29T12:45:10Z</time>
      </trkpt>
      <trkpt lat="46.35895" lon="5.66893">
        <ele>654.2</ele>
        <time>2022-07-29T12:45:11Z</time>
      </trkpt>
      <trkpt lat="46.35895" lon="5.66887">
        <ele>654.2</ele>
        <time>2022-07-29T12:45:12Z</time>
      </trkpt>
      <trkpt lat="46.35895" lon="5.66881">
        <ele>654.6</ele>
        <time>2022-07-29T12:45:13Z</time>
      </trkpt>
      <trkpt lat="46.35895" lon="5.66875">
        <ele>654.6</ele>
        <time>2022-07-29T12:45:14Z</time>
      </trkpt>
      <trkpt lat="46.35896" lon="5.66868">
        <ele>654.8</ele>
        <time>2022-07-29T12:45:15Z</time>
      </trkpt>
      <trkpt lat="46.35897" lon="5.66862">
        <ele>654.8</ele>
        <time>2022-07-29T12:45:16Z</time>
      </trkpt>
      <trkpt lat="46.35897" lon="5.66856">
        <ele>655.2</ele>
        <time>2022-07-29T12:45:17Z</time>
      </trkpt>
      <trkpt lat="46.35898" lon="5.6685">
        <ele>655.4</ele>
        <time>2022-07-29T12:45:18Z</time>
      </trkpt>
      <trkpt lat="46.35899" lon="5.66845">
        <ele>655.8</ele>
        <time>2022-07-29T12:45:19Z</time>
      </trkpt>
      <trkpt lat="46.35901" lon="5.66841">
        <ele>656</ele>
        <time>2022-07-29T12:45:20Z</time>
      </trkpt>
      <trkpt lat="46.35902" lon="5.66836">
        <ele>656.4</ele>
        <time>2022-07-29T12:45:21Z</time>
      </trkpt>
      <trkpt lat="46.35903" lon="5.66831">
        <ele>656.8</ele>
        <time>2022-07-29T12:45:22Z</time>
      </trkpt>
      <trkpt lat="46.35903" lon="5.66826">
        <ele>657</ele>
        <time>2022-07-29T12:45:23Z</time>
      </trkpt>
      <trkpt lat="46.35904" lon="5.66822">
        <ele>657.4</ele>
        <time>2022-07-29T12:45:24Z</time>
      </trkpt>
      <trkpt lat="46.35905" lon="5.66818">
        <ele>657.8</ele>
        <time>2022-07-29T12:45:25Z</time>
      </trkpt>
      <trkpt lat="46.35906" lon="5.66814">
        <ele>658</ele>
        <time>2022-07-29T12:45:26Z</time>
      </trkpt>
      <trkpt lat="46.35906" lon="5.6681">
        <ele>658.4</ele>
        <time>2022-07-29T12:45:27Z</time>
      </trkpt>
      <trkpt lat="46.35907" lon="5.66807">
        <ele>658.6</ele>
        <time>2022-07-29T12:45:28Z</time>
      </trkpt>
      <trkpt lat="46.35908" lon="5.66804">
        <ele>658.8</ele>
        <time>2022-07-29T12:45:29Z</time>
      </trkpt>
      <trkpt lat="46.35909" lon="5.668">
        <ele>659.2</ele>
        <time>2022-07-29T12:45:30Z</time>
      </trkpt>
      <trkpt lat="46.35908" lon="5.66797">
        <ele>659.4</ele>
        <time>2022-07-29T12:45:31Z</time>
      </trkpt>
      <trkpt lat="46.35908" lon="5.66793">
        <ele>659.6</ele>
        <time>2022-07-29T12:45:32Z</time>
      </trkpt>
      <trkpt lat="46.35907" lon="5.66789">
        <ele>659.6</ele>
        <time>2022-07-29T12:45:33Z</time>
      </trkpt>
      <trkpt lat="46.35907" lon="5.66785">
        <ele>660</ele>
        <time>2022-07-29T12:45:34Z</time>
      </trkpt>
      <trkpt lat="46.35907" lon="5.6678">
        <ele>660</ele>
        <time>2022-07-29T12:45:35Z</time>
      </trkpt>
      <trkpt lat="46.35907" lon="5.66776">
        <ele>660.2</ele>
        <time>2022-07-29T12:45:36Z</time>
      </trkpt>
      <trkpt lat="46.35907" lon="5.66771">
        <ele>660.2</ele>
        <time>2022-07-29T12:45:37Z</time>
      </trkpt>
      <trkpt lat="46.35908" lon="5.66766">
        <ele>660.2</ele>
        <time>2022-07-29T12:45:38Z</time>
      </trkpt>
      <trkpt lat="46.35908" lon="5.66761">
        <ele>660.2</ele>
        <time>2022-07-29T12:45:39Z</time>
      </trkpt>
      <trkpt lat="46.35908" lon="5.66756">
        <ele>660.4</ele>
        <time>2022-07-29T12:45:40Z</time>
      </trkpt>
      <trkpt lat="46.35908" lon="5.6675">
        <ele>660.4</ele>
        <time>2022-07-29T12:45:41Z</time>
      </trkpt>
      <trkpt lat="46.35907" lon="5.66745">
        <ele>660.8</ele>
        <time>2022-07-29T12:45:42Z</time>
      </trkpt>
      <trkpt lat="46.35907" lon="5.6674">
        <ele>661</ele>
        <time>2022-07-29T12:45:43Z</time>
      </trkpt>
      <trkpt lat="46.35907" lon="5.66736">
        <ele>661.2</ele>
        <time>2022-07-29T12:45:44Z</time>
      </trkpt>
      <trkpt lat="46.35907" lon="5.66732">
        <ele>661.4</ele>
        <time>2022-07-29T12:45:45Z</time>
      </trkpt>
      <trkpt lat="46.35906" lon="5.66728">
        <ele>661.4</ele>
        <time>2022-07-29T12:45:46Z</time>
      </trkpt>
      <trkpt lat="46.35906" lon="5.66725">
        <ele>661.8</ele>
        <time>2022-07-29T12:45:47Z</time>
      </trkpt>
      <trkpt lat="46.35906" lon="5.66721">
        <ele>662</ele>
        <time>2022-07-29T12:45:48Z</time>
      </trkpt>
      <trkpt lat="46.35905" lon="5.66717">
        <ele>662</ele>
        <time>2022-07-29T12:45:49Z</time>
      </trkpt>
      <trkpt lat="46.35905" lon="5.66714">
        <ele>662.4</ele>
        <time>2022-07-29T12:45:50Z</time>
      </trkpt>
      <trkpt lat="46.35904" lon="5.6671">
        <ele>662.4</ele>
        <time>2022-07-29T12:45:51Z</time>
      </trkpt>
      <trkpt lat="46.35903" lon="5.66707">
        <ele>662.4</ele>
        <time>2022-07-29T12:45:52Z</time>
      </trkpt>
      <trkpt lat="46.35902" lon="5.66702">
        <ele>662.6</ele>
        <time>2022-07-29T12:45:53Z</time>
      </trkpt>
      <trkpt lat="46.359" lon="5.66698">
        <ele>662.6</ele>
        <time>2022-07-29T12:45:54Z</time>
      </trkpt>
      <trkpt lat="46.35897" lon="5.66694">
        <ele>662.6</ele>
        <time>2022-07-29T12:45:55Z</time>
      </trkpt>
      <trkpt lat="46.35895" lon="5.6669">
        <ele>662.6</ele>
        <time>2022-07-29T12:45:56Z</time>
      </trkpt>
      <trkpt lat="46.35892" lon="5.66685">
        <ele>662.6</ele>
        <time>2022-07-29T12:45:57Z</time>
      </trkpt>
      <trkpt lat="46.35888" lon="5.66681">
        <ele>662.6</ele>
        <time>2022-07-29T12:45:58Z</time>
      </trkpt>
      <trkpt lat="46.35884" lon="5.66677">
        <ele>662.6</ele>
        <time>2022-07-29T12:45:59Z</time>
      </trkpt>
      <trkpt lat="46.3588" lon="5.66674">
        <ele>662.6</ele>
        <time>2022-07-29T12:46:00Z</time>
      </trkpt>
      <trkpt lat="46.35875" lon="5.66671">
        <ele>662.6</ele>
        <time>2022-07-29T12:46:01Z</time>
      </trkpt>
      <trkpt lat="46.3587" lon="5.66668">
        <ele>662.6</ele>
        <time>2022-07-29T12:46:02Z</time>
      </trkpt>
      <trkpt lat="46.35866" lon="5.66665">
        <ele>662.6</ele>
        <time>2022-07-29T12:46:03Z</time>
      </trkpt>
      <trkpt lat="46.35861" lon="5.66662">
        <ele>662.6</ele>
        <time>2022-07-29T12:46:04Z</time>
      </trkpt>
      <trkpt lat="46.35857" lon="5.66659">
        <ele>662.4</ele>
        <time>2022-07-29T12:46:05Z</time>
      </trkpt>
      <trkpt lat="46.35852" lon="5.66657">
        <ele>662.4</ele>
        <time>2022-07-29T12:46:06Z</time>
      </trkpt>
      <trkpt lat="46.35847" lon="5.66655">
        <ele>662.4</ele>
        <time>2022-07-29T12:46:07Z</time>
      </trkpt>
      <trkpt lat="46.35843" lon="5.66652">
        <ele>662.4</ele>
        <time>2022-07-29T12:46:08Z</time>
      </trkpt>
      <trkpt lat="46.35839" lon="5.6665">
        <ele>662</ele>
        <time>2022-07-29T12:46:09Z</time>
      </trkpt>
      <trkpt lat="46.35834" lon="5.66648">
        <ele>662</ele>
        <time>2022-07-29T12:46:10Z</time>
      </trkpt>
      <trkpt lat="46.3583" lon="5.66646">
        <ele>662</ele>
        <time>2022-07-29T12:46:11Z</time>
      </trkpt>
      <trkpt lat="46.35827" lon="5.66643">
        <ele>662</ele>
        <time>2022-07-29T12:46:12Z</time>
      </trkpt>
      <trkpt lat="46.35824" lon="5.6664">
        <ele>661.8</ele>
        <time>2022-07-29T12:46:13Z</time>
      </trkpt>
      <trkpt lat="46.35822" lon="5.66635">
        <ele>661.8</ele>
        <time>2022-07-29T12:46:14Z</time>
      </trkpt>
      <trkpt lat="46.35821" lon="5.6663">
        <ele>661.6</ele>
        <time>2022-07-29T12:46:15Z</time>
      </trkpt>
      <trkpt lat="46.35822" lon="5.66626">
        <ele>661.6</ele>
        <time>2022-07-29T12:46:16Z</time>
      </trkpt>
      <trkpt lat="46.35823" lon="5.66623">
        <ele>661.8</ele>
        <time>2022-07-29T12:46:17Z</time>
      </trkpt>
      <trkpt lat="46.35824" lon="5.66621">
        <ele>662</ele>
        <time>2022-07-29T12:46:18Z</time>
      </trkpt>
      <trkpt lat="46.35827" lon="5.6662">
        <ele>662.2</ele>
        <time>2022-07-29T12:46:19Z</time>
      </trkpt>
      <trkpt lat="46.3583" lon="5.66619">
        <ele>662.2</ele>
        <time>2022-07-29T12:46:20Z</time>
      </trkpt>
      <trkpt lat="46.35833" lon="5.66618">
        <ele>662.6</ele>
        <time>2022-07-29T12:46:21Z</time>
      </trkpt>
      <trkpt lat="46.35836" lon="5.66617">
        <ele>662.6</ele>
        <time>2022-07-29T12:46:22Z</time>
      </trkpt>
      <trkpt lat="46.35839" lon="5.66616">
        <ele>663</ele>
        <time>2022-07-29T12:46:23Z</time>
      </trkpt>
      <trkpt lat="46.35842" lon="5.66615">
        <ele>663</ele>
        <time>2022-07-29T12:46:24Z</time>
      </trkpt>
      <trkpt lat="46.35845" lon="5.66612">
        <ele>663.2</ele>
        <time>2022-07-29T12:46:25Z</time>
      </trkpt>
      <trkpt lat="46.35848" lon="5.6661">
        <ele>663.2</ele>
        <time>2022-07-29T12:46:26Z</time>
      </trkpt>
      <trkpt lat="46.35852" lon="5.66608">
        <ele>663.6</ele>
        <time>2022-07-29T12:46:27Z</time>
      </trkpt>
      <trkpt lat="46.35855" lon="5.66605">
        <ele>663.6</ele>
        <time>2022-07-29T12:46:28Z</time>
      </trkpt>
      <trkpt lat="46.35857" lon="5.66603">
        <ele>664</ele>
        <time>2022-07-29T12:46:29Z</time>
      </trkpt>
      <trkpt lat="46.3586" lon="5.66601">
        <ele>664</ele>
        <time>2022-07-29T12:46:30Z</time>
      </trkpt>
      <trkpt lat="46.35862" lon="5.666">
        <ele>664.4</ele>
        <time>2022-07-29T12:46:31Z</time>
      </trkpt>
      <trkpt lat="46.35865" lon="5.66599">
        <ele>664.4</ele>
        <time>2022-07-29T12:46:32Z</time>
      </trkpt>
      <trkpt lat="46.35867" lon="5.66597">
        <ele>664.8</ele>
        <time>2022-07-29T12:46:33Z</time>
      </trkpt>
      <trkpt lat="46.3587" lon="5.66595">
        <ele>665</ele>
        <time>2022-07-29T12:46:34Z</time>
      </trkpt>
      <trkpt lat="46.35872" lon="5.66594">
        <ele>665.2</ele>
        <time>2022-07-29T12:46:35Z</time>
      </trkpt>
      <trkpt lat="46.35875" lon="5.66592">
        <ele>665.4</ele>
        <time>2022-07-29T12:46:36Z</time>
      </trkpt>
      <trkpt lat="46.35877" lon="5.66591">
        <ele>665.6</ele>
        <time>2022-07-29T12:46:37Z</time>
      </trkpt>
      <trkpt lat="46.3588" lon="5.66589">
        <ele>665.6</ele>
        <time>2022-07-29T12:46:38Z</time>
      </trkpt>
      <trkpt lat="46.35882" lon="5.66587">
        <ele>666</ele>
        <time>2022-07-29T12:46:39Z</time>
      </trkpt>
      <trkpt lat="46.35885" lon="5.66585">
        <ele>666</ele>
        <time>2022-07-29T12:46:40Z</time>
      </trkpt>
      <trkpt lat="46.35887" lon="5.66583">
        <ele>666.4</ele>
        <time>2022-07-29T12:46:41Z</time>
      </trkpt>
      <trkpt lat="46.35889" lon="5.6658">
        <ele>666.4</ele>
        <time>2022-07-29T12:46:42Z</time>
      </trkpt>
      <trkpt lat="46.35891" lon="5.66577">
        <ele>666.8</ele>
        <time>2022-07-29T12:46:43Z</time>
      </trkpt>
      <trkpt lat="46.35892" lon="5.66574">
        <ele>667</ele>
        <time>2022-07-29T12:46:44Z</time>
      </trkpt>
      <trkpt lat="46.35893" lon="5.66571">
        <ele>667.2</ele>
        <time>2022-07-29T12:46:45Z</time>
      </trkpt>
      <trkpt lat="46.35894" lon="5.66567">
        <ele>667.4</ele>
        <time>2022-07-29T12:46:46Z</time>
      </trkpt>
      <trkpt lat="46.35895" lon="5.66564">
        <ele>667.4</ele>
        <time>2022-07-29T12:46:47Z</time>
      </trkpt>
      <trkpt lat="46.35896" lon="5.6656">
        <ele>667.8</ele>
        <time>2022-07-29T12:46:48Z</time>
      </trkpt>
      <trkpt lat="46.35897" lon="5.66556">
        <ele>667.8</ele>
        <time>2022-07-29T12:46:49Z</time>
      </trkpt>
      <trkpt lat="46.35898" lon="5.66551">
        <ele>668</ele>
        <time>2022-07-29T12:46:50Z</time>
      </trkpt>
      <trkpt lat="46.359" lon="5.66547">
        <ele>668</ele>
        <time>2022-07-29T12:46:51Z</time>
      </trkpt>
      <trkpt lat="46.35901" lon="5.66543">
        <ele>668.2</ele>
        <time>2022-07-29T12:46:52Z</time>
      </trkpt>
      <trkpt lat="46.35903" lon="5.66539">
        <ele>668.2</ele>
        <time>2022-07-29T12:46:53Z</time>
      </trkpt>
      <trkpt lat="46.35905" lon="5.66535">
        <ele>668.2</ele>
        <time>2022-07-29T12:46:54Z</time>
      </trkpt>
      <trkpt lat="46.35907" lon="5.66531">
        <ele>668.2</ele>
        <time>2022-07-29T12:46:55Z</time>
      </trkpt>
      <trkpt lat="46.35909" lon="5.66527">
        <ele>668.4</ele>
        <time>2022-07-29T12:46:56Z</time>
      </trkpt>
      <trkpt lat="46.35912" lon="5.66523">
        <ele>668.4</ele>
        <time>2022-07-29T12:46:57Z</time>
      </trkpt>
      <trkpt lat="46.35915" lon="5.6652">
        <ele>668.4</ele>
        <time>2022-07-29T12:46:58Z</time>
      </trkpt>
      <trkpt lat="46.35918" lon="5.66518">
        <ele>668.4</ele>
        <time>2022-07-29T12:46:59Z</time>
      </trkpt>
      <trkpt lat="46.35921" lon="5.66515">
        <ele>668.4</ele>
        <time>2022-07-29T12:47:00Z</time>
      </trkpt>
      <trkpt lat="46.35925" lon="5.66513">
        <ele>668.4</ele>
        <time>2022-07-29T12:47:01Z</time>
      </trkpt>
      <trkpt lat="46.35928" lon="5.66512">
        <ele>668.4</ele>
        <time>2022-07-29T12:47:02Z</time>
      </trkpt>
      <trkpt lat="46.35932" lon="5.6651">
        <ele>668.6</ele>
        <time>2022-07-29T12:47:03Z</time>
      </trkpt>
      <trkpt lat="46.35935" lon="5.66509">
        <ele>668.6</ele>
        <time>2022-07-29T12:47:04Z</time>
      </trkpt>
      <trkpt lat="46.35939" lon="5.66508">
        <ele>668.6</ele>
        <time>2022-07-29T12:47:05Z</time>
      </trkpt>
      <trkpt lat="46.35942" lon="5.66508">
        <ele>668.6</ele>
        <time>2022-07-29T12:47:06Z</time>
      </trkpt>
      <trkpt lat="46.35946" lon="5.66508">
        <ele>668.6</ele>
        <time>2022-07-29T12:47:07Z</time>
      </trkpt>
      <trkpt lat="46.3595" lon="5.66508">
        <ele>668.6</ele>
        <time>2022-07-29T12:47:08Z</time>
      </trkpt>
      <trkpt lat="46.35954" lon="5.66507">
        <ele>668.6</ele>
        <time>2022-07-29T12:47:09Z</time>
      </trkpt>
      <trkpt lat="46.35958" lon="5.66507">
        <ele>668.6</ele>
        <time>2022-07-29T12:47:10Z</time>
      </trkpt>
      <trkpt lat="46.35963" lon="5.66506">
        <ele>668.6</ele>
        <time>2022-07-29T12:47:11Z</time>
      </trkpt>
      <trkpt lat="46.35967" lon="5.66504">
        <ele>668.6</ele>
        <time>2022-07-29T12:47:12Z</time>
      </trkpt>
      <trkpt lat="46.35971" lon="5.66502">
        <ele>668.6</ele>
        <time>2022-07-29T12:47:13Z</time>
      </trkpt>
      <trkpt lat="46.35974" lon="5.665">
        <ele>669</ele>
        <time>2022-07-29T12:47:14Z</time>
      </trkpt>
      <trkpt lat="46.35978" lon="5.66497">
        <ele>669</ele>
        <time>2022-07-29T12:47:15Z</time>
      </trkpt>
      <trkpt lat="46.35981" lon="5.66494">
        <ele>669</ele>
        <time>2022-07-29T12:47:16Z</time>
      </trkpt>
      <trkpt lat="46.35983" lon="5.6649">
        <ele>669</ele>
        <time>2022-07-29T12:47:17Z</time>
      </trkpt>
      <trkpt lat="46.35985" lon="5.66486">
        <ele>669.2</ele>
        <time>2022-07-29T12:47:18Z</time>
      </trkpt>
      <trkpt lat="46.35987" lon="5.66481">
        <ele>669.2</ele>
        <time>2022-07-29T12:47:19Z</time>
      </trkpt>
      <trkpt lat="46.35988" lon="5.66477">
        <ele>669.2</ele>
        <time>2022-07-29T12:47:20Z</time>
      </trkpt>
      <trkpt lat="46.3599" lon="5.66472">
        <ele>669.4</ele>
        <time>2022-07-29T12:47:21Z</time>
      </trkpt>
      <trkpt lat="46.35991" lon="5.66467">
        <ele>669.4</ele>
        <time>2022-07-29T12:47:22Z</time>
      </trkpt>
      <trkpt lat="46.35992" lon="5.66461">
        <ele>669.4</ele>
        <time>2022-07-29T12:47:23Z</time>
      </trkpt>
      <trkpt lat="46.35993" lon="5.66455">
        <ele>669.4</ele>
        <time>2022-07-29T12:47:24Z</time>
      </trkpt>
      <trkpt lat="46.35995" lon="5.66449">
        <ele>669.4</ele>
        <time>2022-07-29T12:47:25Z</time>
      </trkpt>
      <trkpt lat="46.35996" lon="5.66442">
        <ele>669.4</ele>
        <time>2022-07-29T12:47:26Z</time>
      </trkpt>
      <trkpt lat="46.35997" lon="5.66435">
        <ele>669.4</ele>
        <time>2022-07-29T12:47:27Z</time>
      </trkpt>
      <trkpt lat="46.35997" lon="5.66428">
        <ele>669.4</ele>
        <time>2022-07-29T12:47:28Z</time>
      </trkpt>
      <trkpt lat="46.35997" lon="5.6642">
        <ele>669.4</ele>
        <time>2022-07-29T12:47:29Z</time>
      </trkpt>
      <trkpt lat="46.35996" lon="5.66412">
        <ele>669.2</ele>
        <time>2022-07-29T12:47:30Z</time>
      </trkpt>
      <trkpt lat="46.35994" lon="5.66405">
        <ele>669.2</ele>
        <time>2022-07-29T12:47:31Z</time>
      </trkpt>
      <trkpt lat="46.35992" lon="5.66398">
        <ele>669.2</ele>
        <time>2022-07-29T12:47:32Z</time>
      </trkpt>
      <trkpt lat="46.3599" lon="5.66391">
        <ele>669.2</ele>
        <time>2022-07-29T12:47:33Z</time>
      </trkpt>
      <trkpt lat="46.35988" lon="5.66385">
        <ele>669.2</ele>
        <time>2022-07-29T12:47:34Z</time>
      </trkpt>
      <trkpt lat="46.35986" lon="5.66378">
        <ele>669.2</ele>
        <time>2022-07-29T12:47:35Z</time>
      </trkpt>
      <trkpt lat="46.35984" lon="5.66371">
        <ele>669.2</ele>
        <time>2022-07-29T12:47:36Z</time>
      </trkpt>
      <trkpt lat="46.35981" lon="5.66364">
        <ele>669.2</ele>
        <time>2022-07-29T12:47:37Z</time>
      </trkpt>
      <trkpt lat="46.35979" lon="5.66358">
        <ele>669.4</ele>
        <time>2022-07-29T12:47:38Z</time>
      </trkpt>
      <trkpt lat="46.35977" lon="5.66351">
        <ele>669.4</ele>
        <time>2022-07-29T12:47:39Z</time>
      </trkpt>
      <trkpt lat="46.35975" lon="5.66345">
        <ele>669.4</ele>
        <time>2022-07-29T12:47:40Z</time>
      </trkpt>
      <trkpt lat="46.35973" lon="5.66339">
        <ele>669.8</ele>
        <time>2022-07-29T12:47:41Z</time>
      </trkpt>
      <trkpt lat="46.35971" lon="5.66333">
        <ele>669.8</ele>
        <time>2022-07-29T12:47:42Z</time>
      </trkpt>
      <trkpt lat="46.3597" lon="5.66327">
        <ele>670</ele>
        <time>2022-07-29T12:47:43Z</time>
      </trkpt>
      <trkpt lat="46.3597" lon="5.66321">
        <ele>670</ele>
        <time>2022-07-29T12:47:44Z</time>
      </trkpt>
      <trkpt lat="46.3597" lon="5.66315">
        <ele>670.4</ele>
        <time>2022-07-29T12:47:45Z</time>
      </trkpt>
      <trkpt lat="46.3597" lon="5.66309">
        <ele>670.4</ele>
        <time>2022-07-29T12:47:46Z</time>
      </trkpt>
      <trkpt lat="46.3597" lon="5.66303">
        <ele>670.8</ele>
        <time>2022-07-29T12:47:47Z</time>
      </trkpt>
      <trkpt lat="46.3597" lon="5.66298">
        <ele>670.8</ele>
        <time>2022-07-29T12:47:48Z</time>
      </trkpt>
      <trkpt lat="46.35971" lon="5.66293">
        <ele>671</ele>
        <time>2022-07-29T12:47:49Z</time>
      </trkpt>
      <trkpt lat="46.35973" lon="5.66288">
        <ele>671.2</ele>
        <time>2022-07-29T12:47:50Z</time>
      </trkpt>
      <trkpt lat="46.35974" lon="5.66284">
        <ele>671.4</ele>
        <time>2022-07-29T12:47:51Z</time>
      </trkpt>
      <trkpt lat="46.35975" lon="5.66279">
        <ele>671.8</ele>
        <time>2022-07-29T12:47:52Z</time>
      </trkpt>
      <trkpt lat="46.35976" lon="5.66274">
        <ele>671.8</ele>
        <time>2022-07-29T12:47:53Z</time>
      </trkpt>
      <trkpt lat="46.35976" lon="5.6627">
        <ele>672</ele>
        <time>2022-07-29T12:47:54Z</time>
      </trkpt>
      <trkpt lat="46.35976" lon="5.66265">
        <ele>672</ele>
        <time>2022-07-29T12:47:55Z</time>
      </trkpt>
      <trkpt lat="46.35976" lon="5.6626">
        <ele>672.4</ele>
        <time>2022-07-29T12:47:56Z</time>
      </trkpt>
      <trkpt lat="46.35976" lon="5.66254">
        <ele>672.4</ele>
        <time>2022-07-29T12:47:57Z</time>
      </trkpt>
      <trkpt lat="46.35975" lon="5.66249">
        <ele>672.6</ele>
        <time>2022-07-29T12:47:58Z</time>
      </trkpt>
      <trkpt lat="46.35974" lon="5.66245">
        <ele>672.6</ele>
        <time>2022-07-29T12:47:59Z</time>
      </trkpt>
      <trkpt lat="46.35972" lon="5.6624">
        <ele>673</ele>
        <time>2022-07-29T12:48:00Z</time>
      </trkpt>
      <trkpt lat="46.35971" lon="5.66236">
        <ele>673.2</ele>
        <time>2022-07-29T12:48:01Z</time>
      </trkpt>
      <trkpt lat="46.3597" lon="5.66232">
        <ele>673.4</ele>
        <time>2022-07-29T12:48:02Z</time>
      </trkpt>
      <trkpt lat="46.35968" lon="5.66228">
        <ele>673.8</ele>
        <time>2022-07-29T12:48:03Z</time>
      </trkpt>
      <trkpt lat="46.35967" lon="5.66223">
        <ele>673.8</ele>
        <time>2022-07-29T12:48:04Z</time>
      </trkpt>
      <trkpt lat="46.35966" lon="5.66219">
        <ele>674.2</ele>
        <time>2022-07-29T12:48:05Z</time>
      </trkpt>
      <trkpt lat="46.35965" lon="5.66215">
        <ele>674.4</ele>
        <time>2022-07-29T12:48:06Z</time>
      </trkpt>
      <trkpt lat="46.35964" lon="5.66211">
        <ele>674.6</ele>
        <time>2022-07-29T12:48:07Z</time>
      </trkpt>
      <trkpt lat="46.35963" lon="5.66207">
        <ele>675</ele>
        <time>2022-07-29T12:48:08Z</time>
      </trkpt>
      <trkpt lat="46.35962" lon="5.66203">
        <ele>675.2</ele>
        <time>2022-07-29T12:48:09Z</time>
      </trkpt>
      <trkpt lat="46.35961" lon="5.66199">
        <ele>675.2</ele>
        <time>2022-07-29T12:48:10Z</time>
      </trkpt>
      <trkpt lat="46.3596" lon="5.66196">
        <ele>675.6</ele>
        <time>2022-07-29T12:48:11Z</time>
      </trkpt>
      <trkpt lat="46.35959" lon="5.66193">
        <ele>675.8</ele>
        <time>2022-07-29T12:48:12Z</time>
      </trkpt>
      <trkpt lat="46.35959" lon="5.6619">
        <ele>676</ele>
        <time>2022-07-29T12:48:13Z</time>
      </trkpt>
      <trkpt lat="46.35959" lon="5.6619">
        <ele>676.2</ele>
        <time>2022-07-29T12:48:14Z</time>
      </trkpt>
      <trkpt lat="46.35958" lon="5.66187">
        <ele>676.4</ele>
        <time>2022-07-29T12:48:15Z</time>
      </trkpt>
      <trkpt lat="46.35957" lon="5.66183">
        <ele>676.4</ele>
        <time>2022-07-29T12:48:16Z</time>
      </trkpt>
      <trkpt lat="46.35956" lon="5.6618">
        <ele>676.8</ele>
        <time>2022-07-29T12:48:17Z</time>
      </trkpt>
      <trkpt lat="46.35955" lon="5.66176">
        <ele>676.8</ele>
        <time>2022-07-29T12:48:18Z</time>
      </trkpt>
      <trkpt lat="46.35955" lon="5.66173">
        <ele>677</ele>
        <time>2022-07-29T12:48:19Z</time>
      </trkpt>
      <trkpt lat="46.35954" lon="5.66169">
        <ele>677</ele>
        <time>2022-07-29T12:48:20Z</time>
      </trkpt>
      <trkpt lat="46.35953" lon="5.66166">
        <ele>677.4</ele>
        <time>2022-07-29T12:48:21Z</time>
      </trkpt>
      <trkpt lat="46.35953" lon="5.66162">
        <ele>677.6</ele>
        <time>2022-07-29T12:48:22Z</time>
      </trkpt>
      <trkpt lat="46.35952" lon="5.66159">
        <ele>677.6</ele>
        <time>2022-07-29T12:48:23Z</time>
      </trkpt>
      <trkpt lat="46.35951" lon="5.66155">
        <ele>678</ele>
        <time>2022-07-29T12:48:24Z</time>
      </trkpt>
      <trkpt lat="46.35951" lon="5.66152">
        <ele>678</ele>
        <time>2022-07-29T12:48:25Z</time>
      </trkpt>
      <trkpt lat="46.3595" lon="5.66148">
        <ele>678.2</ele>
        <time>2022-07-29T12:48:26Z</time>
      </trkpt>
      <trkpt lat="46.35949" lon="5.66144">
        <ele>678.2</ele>
        <time>2022-07-29T12:48:27Z</time>
      </trkpt>
      <trkpt lat="46.35949" lon="5.6614">
        <ele>678.6</ele>
        <time>2022-07-29T12:48:28Z</time>
      </trkpt>
      <trkpt lat="46.35949" lon="5.66135">
        <ele>678.8</ele>
        <time>2022-07-29T12:48:29Z</time>
      </trkpt>
      <trkpt lat="46.35949" lon="5.66131">
        <ele>678.8</ele>
        <time>2022-07-29T12:48:30Z</time>
      </trkpt>
      <trkpt lat="46.35949" lon="5.66128">
        <ele>679</ele>
        <time>2022-07-29T12:48:31Z</time>
      </trkpt>
      <trkpt lat="46.35949" lon="5.66124">
        <ele>679</ele>
        <time>2022-07-29T12:48:32Z</time>
      </trkpt>
      <trkpt lat="46.3595" lon="5.66121">
        <ele>679.4</ele>
        <time>2022-07-29T12:48:33Z</time>
      </trkpt>
      <trkpt lat="46.3595" lon="5.66117">
        <ele>679.8</ele>
        <time>2022-07-29T12:48:34Z</time>
      </trkpt>
      <trkpt lat="46.35951" lon="5.66114">
        <ele>680</ele>
        <time>2022-07-29T12:48:35Z</time>
      </trkpt>
      <trkpt lat="46.35952" lon="5.66111">
        <ele>680.2</ele>
        <time>2022-07-29T12:48:36Z</time>
      </trkpt>
      <trkpt lat="46.35953" lon="5.66108">
        <ele>680.6</ele>
        <time>2022-07-29T12:48:37Z</time>
      </trkpt>
      <trkpt lat="46.35955" lon="5.66105">
        <ele>680.8</ele>
        <time>2022-07-29T12:48:38Z</time>
      </trkpt>
      <trkpt lat="46.35956" lon="5.66102">
        <ele>681</ele>
        <time>2022-07-29T12:48:39Z</time>
      </trkpt>
      <trkpt lat="46.35957" lon="5.66099">
        <ele>681.2</ele>
        <time>2022-07-29T12:48:40Z</time>
      </trkpt>
      <trkpt lat="46.35959" lon="5.66097">
        <ele>681.6</ele>
        <time>2022-07-29T12:48:41Z</time>
      </trkpt>
      <trkpt lat="46.3596" lon="5.66094">
        <ele>681.8</ele>
        <time>2022-07-29T12:48:42Z</time>
      </trkpt>
      <trkpt lat="46.35962" lon="5.66091">
        <ele>682</ele>
        <time>2022-07-29T12:48:43Z</time>
      </trkpt>
      <trkpt lat="46.35964" lon="5.66089">
        <ele>682.4</ele>
        <time>2022-07-29T12:48:44Z</time>
      </trkpt>
      <trkpt lat="46.35965" lon="5.66085">
        <ele>682.6</ele>
        <time>2022-07-29T12:48:45Z</time>
      </trkpt>
      <trkpt lat="46.35966" lon="5.66082">
        <ele>682.8</ele>
        <time>2022-07-29T12:48:46Z</time>
      </trkpt>
      <trkpt lat="46.35967" lon="5.66078">
        <ele>683.2</ele>
        <time>2022-07-29T12:48:47Z</time>
      </trkpt>
      <trkpt lat="46.35967" lon="5.66075">
        <ele>683.4</ele>
        <time>2022-07-29T12:48:48Z</time>
      </trkpt>
      <trkpt lat="46.35969" lon="5.66072">
        <ele>683.8</ele>
        <time>2022-07-29T12:48:49Z</time>
      </trkpt>
      <trkpt lat="46.3597" lon="5.66069">
        <ele>684</ele>
        <time>2022-07-29T12:48:50Z</time>
      </trkpt>
      <trkpt lat="46.35972" lon="5.66066">
        <ele>684.4</ele>
        <time>2022-07-29T12:48:51Z</time>
      </trkpt>
      <trkpt lat="46.35973" lon="5.66064">
        <ele>684.6</ele>
        <time>2022-07-29T12:48:52Z</time>
      </trkpt>
      <trkpt lat="46.35974" lon="5.66061">
        <ele>684.8</ele>
        <time>2022-07-29T12:48:53Z</time>
      </trkpt>
      <trkpt lat="46.35975" lon="5.66057">
        <ele>685</ele>
        <time>2022-07-29T12:48:54Z</time>
      </trkpt>
      <trkpt lat="46.35975" lon="5.66054">
        <ele>685</ele>
        <time>2022-07-29T12:48:55Z</time>
      </trkpt>
      <trkpt lat="46.35976" lon="5.66051">
        <ele>685.6</ele>
        <time>2022-07-29T12:48:56Z</time>
      </trkpt>
      <trkpt lat="46.35976" lon="5.66048">
        <ele>685.8</ele>
        <time>2022-07-29T12:48:57Z</time>
      </trkpt>
      <trkpt lat="46.35977" lon="5.66045">
        <ele>685.8</ele>
        <time>2022-07-29T12:48:58Z</time>
      </trkpt>
      <trkpt lat="46.35977" lon="5.66042">
        <ele>686.2</ele>
        <time>2022-07-29T12:48:59Z</time>
      </trkpt>
      <trkpt lat="46.35977" lon="5.66039">
        <ele>686.4</ele>
        <time>2022-07-29T12:49:00Z</time>
      </trkpt>
      <trkpt lat="46.35978" lon="5.66036">
        <ele>686.4</ele>
        <time>2022-07-29T12:49:01Z</time>
      </trkpt>
      <trkpt lat="46.35978" lon="5.66033">
        <ele>686.6</ele>
        <time>2022-07-29T12:49:02Z</time>
      </trkpt>
      <trkpt lat="46.35977" lon="5.66029">
        <ele>686.6</ele>
        <time>2022-07-29T12:49:03Z</time>
      </trkpt>
      <trkpt lat="46.35977" lon="5.66025">
        <ele>686.8</ele>
        <time>2022-07-29T12:49:04Z</time>
      </trkpt>
      <trkpt lat="46.35978" lon="5.66022">
        <ele>686.8</ele>
        <time>2022-07-29T12:49:05Z</time>
      </trkpt>
      <trkpt lat="46.35978" lon="5.66018">
        <ele>687.2</ele>
        <time>2022-07-29T12:49:06Z</time>
      </trkpt>
      <trkpt lat="46.35978" lon="5.66015">
        <ele>687.4</ele>
        <time>2022-07-29T12:49:07Z</time>
      </trkpt>
      <trkpt lat="46.35978" lon="5.66012">
        <ele>687.8</ele>
        <time>2022-07-29T12:49:08Z</time>
      </trkpt>
      <trkpt lat="46.35978" lon="5.66009">
        <ele>688</ele>
        <time>2022-07-29T12:49:09Z</time>
      </trkpt>
      <trkpt lat="46.35978" lon="5.66006">
        <ele>688</ele>
        <time>2022-07-29T12:49:10Z</time>
      </trkpt>
      <trkpt lat="46.35977" lon="5.66003">
        <ele>688.4</ele>
        <time>2022-07-29T12:49:11Z</time>
      </trkpt>
      <trkpt lat="46.35977" lon="5.66">
        <ele>688.4</ele>
        <time>2022-07-29T12:49:12Z</time>
      </trkpt>
      <trkpt lat="46.35976" lon="5.65996">
        <ele>688.6</ele>
        <time>2022-07-29T12:49:13Z</time>
      </trkpt>
      <trkpt lat="46.35976" lon="5.65993">
        <ele>688.6</ele>
        <time>2022-07-29T12:49:14Z</time>
      </trkpt>
      <trkpt lat="46.35977" lon="5.6599">
        <ele>689</ele>
        <time>2022-07-29T12:49:15Z</time>
      </trkpt>
      <trkpt lat="46.35977" lon="5.65987">
        <ele>689</ele>
        <time>2022-07-29T12:49:16Z</time>
      </trkpt>
      <trkpt lat="46.35976" lon="5.65983">
        <ele>689.2</ele>
        <time>2022-07-29T12:49:17Z</time>
      </trkpt>
      <trkpt lat="46.35976" lon="5.65979">
        <ele>689.2</ele>
        <time>2022-07-29T12:49:18Z</time>
      </trkpt>
      <trkpt lat="46.35975" lon="5.65976">
        <ele>689.6</ele>
        <time>2022-07-29T12:49:19Z</time>
      </trkpt>
      <trkpt lat="46.35975" lon="5.65973">
        <ele>689.6</ele>
        <time>2022-07-29T12:49:20Z</time>
      </trkpt>
      <trkpt lat="46.35975" lon="5.65969">
        <ele>689.8</ele>
        <time>2022-07-29T12:49:21Z</time>
      </trkpt>
      <trkpt lat="46.35975" lon="5.65966">
        <ele>689.8</ele>
        <time>2022-07-29T12:49:22Z</time>
      </trkpt>
      <trkpt lat="46.35974" lon="5.65963">
        <ele>690.2</ele>
        <time>2022-07-29T12:49:23Z</time>
      </trkpt>
      <trkpt lat="46.35974" lon="5.6596">
        <ele>690.2</ele>
        <time>2022-07-29T12:49:24Z</time>
      </trkpt>
      <trkpt lat="46.35973" lon="5.65957">
        <ele>690.6</ele>
        <time>2022-07-29T12:49:25Z</time>
      </trkpt>
      <trkpt lat="46.35973" lon="5.65953">
        <ele>690.6</ele>
        <time>2022-07-29T12:49:26Z</time>
      </trkpt>
      <trkpt lat="46.35973" lon="5.6595">
        <ele>691</ele>
        <time>2022-07-29T12:49:27Z</time>
      </trkpt>
      <trkpt lat="46.35973" lon="5.65947">
        <ele>691</ele>
        <time>2022-07-29T12:49:28Z</time>
      </trkpt>
      <trkpt lat="46.35972" lon="5.65944">
        <ele>691.2</ele>
        <time>2022-07-29T12:49:29Z</time>
      </trkpt>
      <trkpt lat="46.35972" lon="5.65941">
        <ele>691.2</ele>
        <time>2022-07-29T12:49:30Z</time>
      </trkpt>
      <trkpt lat="46.35971" lon="5.65938">
        <ele>691.6</ele>
        <time>2022-07-29T12:49:31Z</time>
      </trkpt>
      <trkpt lat="46.3597" lon="5.65935">
        <ele>691.6</ele>
        <time>2022-07-29T12:49:32Z</time>
      </trkpt>
      <trkpt lat="46.3597" lon="5.65931">
        <ele>691.8</ele>
        <time>2022-07-29T12:49:33Z</time>
      </trkpt>
      <trkpt lat="46.35969" lon="5.65928">
        <ele>691.8</ele>
        <time>2022-07-29T12:49:34Z</time>
      </trkpt>
      <trkpt lat="46.35968" lon="5.65925">
        <ele>692.2</ele>
        <time>2022-07-29T12:49:35Z</time>
      </trkpt>
      <trkpt lat="46.35967" lon="5.65921">
        <ele>692.2</ele>
        <time>2022-07-29T12:49:36Z</time>
      </trkpt>
      <trkpt lat="46.35966" lon="5.65918">
        <ele>692.6</ele>
        <time>2022-07-29T12:49:37Z</time>
      </trkpt>
      <trkpt lat="46.35966" lon="5.65914">
        <ele>692.8</ele>
        <time>2022-07-29T12:49:38Z</time>
      </trkpt>
      <trkpt lat="46.35966" lon="5.6591">
        <ele>692.8</ele>
        <time>2022-07-29T12:49:39Z</time>
      </trkpt>
      <trkpt lat="46.35965" lon="5.65907">
        <ele>693.2</ele>
        <time>2022-07-29T12:49:40Z</time>
      </trkpt>
      <trkpt lat="46.35964" lon="5.65904">
        <ele>693.2</ele>
        <time>2022-07-29T12:49:41Z</time>
      </trkpt>
      <trkpt lat="46.35963" lon="5.659">
        <ele>693.6</ele>
        <time>2022-07-29T12:49:42Z</time>
      </trkpt>
      <trkpt lat="46.35962" lon="5.65897">
        <ele>693.6</ele>
        <time>2022-07-29T12:49:43Z</time>
      </trkpt>
      <trkpt lat="46.35962" lon="5.65894">
        <ele>694</ele>
        <time>2022-07-29T12:49:44Z</time>
      </trkpt>
      <trkpt lat="46.35961" lon="5.65891">
        <ele>694.2</ele>
        <time>2022-07-29T12:49:45Z</time>
      </trkpt>
      <trkpt lat="46.3596" lon="5.65887">
        <ele>694.4</ele>
        <time>2022-07-29T12:49:46Z</time>
      </trkpt>
      <trkpt lat="46.35959" lon="5.65884">
        <ele>694.6</ele>
        <time>2022-07-29T12:49:47Z</time>
      </trkpt>
      <trkpt lat="46.35958" lon="5.6588">
        <ele>694.8</ele>
        <time>2022-07-29T12:49:48Z</time>
      </trkpt>
      <trkpt lat="46.35957" lon="5.65877">
        <ele>695</ele>
        <time>2022-07-29T12:49:49Z</time>
      </trkpt>
      <trkpt lat="46.35956" lon="5.65873">
        <ele>695.4</ele>
        <time>2022-07-29T12:49:50Z</time>
      </trkpt>
      <trkpt lat="46.35955" lon="5.6587">
        <ele>695.6</ele>
        <time>2022-07-29T12:49:51Z</time>
      </trkpt>
      <trkpt lat="46.35953" lon="5.65868">
        <ele>695.8</ele>
        <time>2022-07-29T12:49:52Z</time>
      </trkpt>
      <trkpt lat="46.35952" lon="5.65865">
        <ele>696</ele>
        <time>2022-07-29T12:49:53Z</time>
      </trkpt>
      <trkpt lat="46.3595" lon="5.65863">
        <ele>696.2</ele>
        <time>2022-07-29T12:49:54Z</time>
      </trkpt>
      <trkpt lat="46.35948" lon="5.65861">
        <ele>696.6</ele>
        <time>2022-07-29T12:49:55Z</time>
      </trkpt>
      <trkpt lat="46.35946" lon="5.65859">
        <ele>696.8</ele>
        <time>2022-07-29T12:49:56Z</time>
      </trkpt>
      <trkpt lat="46.35945" lon="5.65857">
        <ele>697</ele>
        <time>2022-07-29T12:49:57Z</time>
      </trkpt>
      <trkpt lat="46.35944" lon="5.65854">
        <ele>697.4</ele>
        <time>2022-07-29T12:49:58Z</time>
      </trkpt>
      <trkpt lat="46.35942" lon="5.65852">
        <ele>697.6</ele>
        <time>2022-07-29T12:49:59Z</time>
      </trkpt>
      <trkpt lat="46.3594" lon="5.6585">
        <ele>697.8</ele>
        <time>2022-07-29T12:50:00Z</time>
      </trkpt>
      <trkpt lat="46.35938" lon="5.65848">
        <ele>698</ele>
        <time>2022-07-29T12:50:01Z</time>
      </trkpt>
      <trkpt lat="46.35937" lon="5.65846">
        <ele>698.2</ele>
        <time>2022-07-29T12:50:02Z</time>
      </trkpt>
      <trkpt lat="46.35935" lon="5.65844">
        <ele>698.2</ele>
        <time>2022-07-29T12:50:03Z</time>
      </trkpt>
      <trkpt lat="46.35934" lon="5.65841">
        <ele>698.6</ele>
        <time>2022-07-29T12:50:04Z</time>
      </trkpt>
      <trkpt lat="46.35932" lon="5.65838">
        <ele>698.6</ele>
        <time>2022-07-29T12:50:05Z</time>
      </trkpt>
      <trkpt lat="46.35931" lon="5.65835">
        <ele>699</ele>
        <time>2022-07-29T12:50:06Z</time>
      </trkpt>
      <trkpt lat="46.3593" lon="5.65832">
        <ele>699.2</ele>
        <time>2022-07-29T12:50:07Z</time>
      </trkpt>
      <trkpt lat="46.35929" lon="5.65829">
        <ele>699.2</ele>
        <time>2022-07-29T12:50:08Z</time>
      </trkpt>
      <trkpt lat="46.35928" lon="5.65827">
        <ele>699.6</ele>
        <time>2022-07-29T12:50:09Z</time>
      </trkpt>
      <trkpt lat="46.35927" lon="5.65824">
        <ele>699.8</ele>
        <time>2022-07-29T12:50:10Z</time>
      </trkpt>
      <trkpt lat="46.35926" lon="5.6582">
        <ele>700</ele>
        <time>2022-07-29T12:50:11Z</time>
      </trkpt>
      <trkpt lat="46.35925" lon="5.65817">
        <ele>700.2</ele>
        <time>2022-07-29T12:50:12Z</time>
      </trkpt>
      <trkpt lat="46.35924" lon="5.65813">
        <ele>700.2</ele>
        <time>2022-07-29T12:50:13Z</time>
      </trkpt>
      <trkpt lat="46.35924" lon="5.6581">
        <ele>700.6</ele>
        <time>2022-07-29T12:50:14Z</time>
      </trkpt>
      <trkpt lat="46.35923" lon="5.65807">
        <ele>700.6</ele>
        <time>2022-07-29T12:50:15Z</time>
      </trkpt>
      <trkpt lat="46.35922" lon="5.65804">
        <ele>701</ele>
        <time>2022-07-29T12:50:16Z</time>
      </trkpt>
      <trkpt lat="46.35921" lon="5.658">
        <ele>701.2</ele>
        <time>2022-07-29T12:50:17Z</time>
      </trkpt>
      <trkpt lat="46.35921" lon="5.65797">
        <ele>701.4</ele>
        <time>2022-07-29T12:50:18Z</time>
      </trkpt>
      <trkpt lat="46.3592" lon="5.65794">
        <ele>701.4</ele>
        <time>2022-07-29T12:50:19Z</time>
      </trkpt>
      <trkpt lat="46.35919" lon="5.65791">
        <ele>701.8</ele>
        <time>2022-07-29T12:50:20Z</time>
      </trkpt>
      <trkpt lat="46.35919" lon="5.65788">
        <ele>701.8</ele>
        <time>2022-07-29T12:50:21Z</time>
      </trkpt>
      <trkpt lat="46.35918" lon="5.65785">
        <ele>702.2</ele>
        <time>2022-07-29T12:50:22Z</time>
      </trkpt>
      <trkpt lat="46.35918" lon="5.65782">
        <ele>702.2</ele>
        <time>2022-07-29T12:50:23Z</time>
      </trkpt>
      <trkpt lat="46.35917" lon="5.6578">
        <ele>702.6</ele>
        <time>2022-07-29T12:50:24Z</time>
      </trkpt>
      <trkpt lat="46.35917" lon="5.65777">
        <ele>702.6</ele>
        <time>2022-07-29T12:50:25Z</time>
      </trkpt>
      <trkpt lat="46.35917" lon="5.65774">
        <ele>703</ele>
        <time>2022-07-29T12:50:26Z</time>
      </trkpt>
      <trkpt lat="46.35916" lon="5.65772">
        <ele>703</ele>
        <time>2022-07-29T12:50:27Z</time>
      </trkpt>
      <trkpt lat="46.35915" lon="5.65769">
        <ele>703.4</ele>
        <time>2022-07-29T12:50:28Z</time>
      </trkpt>
      <trkpt lat="46.35915" lon="5.65766">
        <ele>703.6</ele>
        <time>2022-07-29T12:50:29Z</time>
      </trkpt>
      <trkpt lat="46.35914" lon="5.65762">
        <ele>703.8</ele>
        <time>2022-07-29T12:50:30Z</time>
      </trkpt>
      <trkpt lat="46.35913" lon="5.65759">
        <ele>704</ele>
        <time>2022-07-29T12:50:31Z</time>
      </trkpt>
      <trkpt lat="46.35912" lon="5.65756">
        <ele>704.2</ele>
        <time>2022-07-29T12:50:32Z</time>
      </trkpt>
      <trkpt lat="46.35911" lon="5.65753">
        <ele>704.4</ele>
        <time>2022-07-29T12:50:33Z</time>
      </trkpt>
      <trkpt lat="46.35911" lon="5.65749">
        <ele>704.4</ele>
        <time>2022-07-29T12:50:34Z</time>
      </trkpt>
      <trkpt lat="46.35911" lon="5.65746">
        <ele>704.8</ele>
        <time>2022-07-29T12:50:35Z</time>
      </trkpt>
      <trkpt lat="46.3591" lon="5.65743">
        <ele>705</ele>
        <time>2022-07-29T12:50:36Z</time>
      </trkpt>
      <trkpt lat="46.3591" lon="5.6574">
        <ele>705.4</ele>
        <time>2022-07-29T12:50:37Z</time>
      </trkpt>
      <trkpt lat="46.35909" lon="5.65738">
        <ele>705.4</ele>
        <time>2022-07-29T12:50:38Z</time>
      </trkpt>
      <trkpt lat="46.35909" lon="5.65735">
        <ele>705.8</ele>
        <time>2022-07-29T12:50:39Z</time>
      </trkpt>
      <trkpt lat="46.35908" lon="5.65732">
        <ele>706</ele>
        <time>2022-07-29T12:50:40Z</time>
      </trkpt>
      <trkpt lat="46.35908" lon="5.6573">
        <ele>706</ele>
        <time>2022-07-29T12:50:41Z</time>
      </trkpt>
      <trkpt lat="46.35907" lon="5.65727">
        <ele>706.4</ele>
        <time>2022-07-29T12:50:42Z</time>
      </trkpt>
      <trkpt lat="46.35907" lon="5.65725">
        <ele>706.6</ele>
        <time>2022-07-29T12:50:43Z</time>
      </trkpt>
      <trkpt lat="46.35906" lon="5.65723">
        <ele>706.8</ele>
        <time>2022-07-29T12:50:44Z</time>
      </trkpt>
      <trkpt lat="46.35906" lon="5.6572">
        <ele>706.8</ele>
        <time>2022-07-29T12:50:45Z</time>
      </trkpt>
      <trkpt lat="46.35905" lon="5.65718">
        <ele>707.4</ele>
        <time>2022-07-29T12:50:46Z</time>
      </trkpt>
      <trkpt lat="46.35905" lon="5.65715">
        <ele>707.6</ele>
        <time>2022-07-29T12:50:47Z</time>
      </trkpt>
      <trkpt lat="46.35904" lon="5.65713">
        <ele>707.8</ele>
        <time>2022-07-29T12:50:48Z</time>
      </trkpt>
      <trkpt lat="46.35904" lon="5.6571">
        <ele>707.8</ele>
        <time>2022-07-29T12:50:49Z</time>
      </trkpt>
      <trkpt lat="46.35903" lon="5.65708">
        <ele>708.2</ele>
        <time>2022-07-29T12:50:50Z</time>
      </trkpt>
      <trkpt lat="46.35903" lon="5.65705">
        <ele>708.2</ele>
        <time>2022-07-29T12:50:51Z</time>
      </trkpt>
      <trkpt lat="46.35903" lon="5.65703">
        <ele>708.6</ele>
        <time>2022-07-29T12:50:52Z</time>
      </trkpt>
      <trkpt lat="46.35902" lon="5.657">
        <ele>708.8</ele>
        <time>2022-07-29T12:50:53Z</time>
      </trkpt>
      <trkpt lat="46.35901" lon="5.65698">
        <ele>709</ele>
        <time>2022-07-29T12:50:54Z</time>
      </trkpt>
      <trkpt lat="46.35901" lon="5.65695">
        <ele>709</ele>
        <time>2022-07-29T12:50:55Z</time>
      </trkpt>
      <trkpt lat="46.359" lon="5.65693">
        <ele>709.4</ele>
        <time>2022-07-29T12:50:56Z</time>
      </trkpt>
      <trkpt lat="46.35899" lon="5.65691">
        <ele>709.4</ele>
        <time>2022-07-29T12:50:57Z</time>
      </trkpt>
      <trkpt lat="46.35898" lon="5.65688">
        <ele>709.8</ele>
        <time>2022-07-29T12:50:58Z</time>
      </trkpt>
      <trkpt lat="46.35898" lon="5.65686">
        <ele>710</ele>
        <time>2022-07-29T12:50:59Z</time>
      </trkpt>
      <trkpt lat="46.35897" lon="5.65683">
        <ele>710</ele>
        <time>2022-07-29T12:51:00Z</time>
      </trkpt>
      <trkpt lat="46.35897" lon="5.6568">
        <ele>710.2</ele>
        <time>2022-07-29T12:51:01Z</time>
      </trkpt>
      <trkpt lat="46.35896" lon="5.65677">
        <ele>710.2</ele>
        <time>2022-07-29T12:51:02Z</time>
      </trkpt>
      <trkpt lat="46.35895" lon="5.65675">
        <ele>710.6</ele>
        <time>2022-07-29T12:51:03Z</time>
      </trkpt>
      <trkpt lat="46.35894" lon="5.65672">
        <ele>710.6</ele>
        <time>2022-07-29T12:51:04Z</time>
      </trkpt>
      <trkpt lat="46.35893" lon="5.6567">
        <ele>710.8</ele>
        <time>2022-07-29T12:51:05Z</time>
      </trkpt>
      <trkpt lat="46.35891" lon="5.65668">
        <ele>710.8</ele>
        <time>2022-07-29T12:51:06Z</time>
      </trkpt>
      <trkpt lat="46.3589" lon="5.65665">
        <ele>710.8</ele>
        <time>2022-07-29T12:51:07Z</time>
      </trkpt>
      <trkpt lat="46.35889" lon="5.65662">
        <ele>711</ele>
        <time>2022-07-29T12:51:08Z</time>
      </trkpt>
      <trkpt lat="46.35887" lon="5.65659">
        <ele>711</ele>
        <time>2022-07-29T12:51:09Z</time>
      </trkpt>
      <trkpt lat="46.35886" lon="5.65655">
        <ele>711</ele>
        <time>2022-07-29T12:51:10Z</time>
      </trkpt>
      <trkpt lat="46.35884" lon="5.65651">
        <ele>711</ele>
        <time>2022-07-29T12:51:11Z</time>
      </trkpt>
      <trkpt lat="46.35883" lon="5.65647">
        <ele>711</ele>
        <time>2022-07-29T12:51:12Z</time>
      </trkpt>
      <trkpt lat="46.35881" lon="5.65642">
        <ele>711</ele>
        <time>2022-07-29T12:51:13Z</time>
      </trkpt>
      <trkpt lat="46.3588" lon="5.65636">
        <ele>711</ele>
        <time>2022-07-29T12:51:14Z</time>
      </trkpt>
      <trkpt lat="46.35879" lon="5.65631">
        <ele>711</ele>
        <time>2022-07-29T12:51:15Z</time>
      </trkpt>
      <trkpt lat="46.35878" lon="5.65626">
        <ele>711.4</ele>
        <time>2022-07-29T12:51:16Z</time>
      </trkpt>
      <trkpt lat="46.35877" lon="5.65621">
        <ele>711.4</ele>
        <time>2022-07-29T12:51:17Z</time>
      </trkpt>
      <trkpt lat="46.35877" lon="5.65617">
        <ele>711.6</ele>
        <time>2022-07-29T12:51:18Z</time>
      </trkpt>
      <trkpt lat="46.35877" lon="5.65613">
        <ele>711.6</ele>
        <time>2022-07-29T12:51:19Z</time>
      </trkpt>
      <trkpt lat="46.35876" lon="5.65609">
        <ele>711.6</ele>
        <time>2022-07-29T12:51:20Z</time>
      </trkpt>
      <trkpt lat="46.35876" lon="5.65604">
        <ele>711.6</ele>
        <time>2022-07-29T12:51:21Z</time>
      </trkpt>
      <trkpt lat="46.35875" lon="5.656">
        <ele>711.6</ele>
        <time>2022-07-29T12:51:22Z</time>
      </trkpt>
      <trkpt lat="46.35876" lon="5.65596">
        <ele>711.6</ele>
        <time>2022-07-29T12:51:23Z</time>
      </trkpt>
      <trkpt lat="46.35876" lon="5.65592">
        <ele>711.6</ele>
        <time>2022-07-29T12:51:24Z</time>
      </trkpt>
      <trkpt lat="46.35877" lon="5.65589">
        <ele>711.2</ele>
        <time>2022-07-29T12:51:25Z</time>
      </trkpt>
      <trkpt lat="46.35878" lon="5.65585">
        <ele>711</ele>
        <time>2022-07-29T12:51:26Z</time>
      </trkpt>
      <trkpt lat="46.35882" lon="5.65581">
        <ele>710.6</ele>
        <time>2022-07-29T12:51:27Z</time>
      </trkpt>
      <trkpt lat="46.35886" lon="5.65577">
        <ele>710.4</ele>
        <time>2022-07-29T12:51:28Z</time>
      </trkpt>
      <trkpt lat="46.3589" lon="5.65574">
        <ele>710</ele>
        <time>2022-07-29T12:51:29Z</time>
      </trkpt>
      <trkpt lat="46.35896" lon="5.65572">
        <ele>709.4</ele>
        <time>2022-07-29T12:51:30Z</time>
      </trkpt>
      <trkpt lat="46.35901" lon="5.65571">
        <ele>709</ele>
        <time>2022-07-29T12:51:31Z</time>
      </trkpt>
      <trkpt lat="46.35907" lon="5.65571">
        <ele>708.4</ele>
        <time>2022-07-29T12:51:32Z</time>
      </trkpt>
      <trkpt lat="46.35912" lon="5.65572">
        <ele>708</ele>
        <time>2022-07-29T12:51:33Z</time>
      </trkpt>
      <trkpt lat="46.35917" lon="5.65574">
        <ele>707.4</ele>
        <time>2022-07-29T12:51:34Z</time>
      </trkpt>
      <trkpt lat="46.35922" lon="5.65577">
        <ele>706.8</ele>
        <time>2022-07-29T12:51:35Z</time>
      </trkpt>
      <trkpt lat="46.35927" lon="5.65582">
        <ele>706.2</ele>
        <time>2022-07-29T12:51:36Z</time>
      </trkpt>
      <trkpt lat="46.35932" lon="5.65588">
        <ele>705.6</ele>
        <time>2022-07-29T12:51:37Z</time>
      </trkpt>
      <trkpt lat="46.35938" lon="5.65595">
        <ele>704.8</ele>
        <time>2022-07-29T12:51:38Z</time>
      </trkpt>
      <trkpt lat="46.35944" lon="5.65602">
        <ele>704</ele>
        <time>2022-07-29T12:51:39Z</time>
      </trkpt>
      <trkpt lat="46.35949" lon="5.65609">
        <ele>703.4</ele>
        <time>2022-07-29T12:51:40Z</time>
      </trkpt>
      <trkpt lat="46.35956" lon="5.65616">
        <ele>702.6</ele>
        <time>2022-07-29T12:51:41Z</time>
      </trkpt>
      <trkpt lat="46.35963" lon="5.65623">
        <ele>701.6</ele>
        <time>2022-07-29T12:51:42Z</time>
      </trkpt>
      <trkpt lat="46.35971" lon="5.65629">
        <ele>700.6</ele>
        <time>2022-07-29T12:51:43Z</time>
      </trkpt>
      <trkpt lat="46.35979" lon="5.65634">
        <ele>699.6</ele>
        <time>2022-07-29T12:51:44Z</time>
      </trkpt>
      <trkpt lat="46.35989" lon="5.65637">
        <ele>698.6</ele>
        <time>2022-07-29T12:51:45Z</time>
      </trkpt>
      <trkpt lat="46.35998" lon="5.65641">
        <ele>697.8</ele>
        <time>2022-07-29T12:51:46Z</time>
      </trkpt>
      <trkpt lat="46.36008" lon="5.65645">
        <ele>696.6</ele>
        <time>2022-07-29T12:51:47Z</time>
      </trkpt>
      <trkpt lat="46.36018" lon="5.65649">
        <ele>695.6</ele>
        <time>2022-07-29T12:51:48Z</time>
      </trkpt>
      <trkpt lat="46.36028" lon="5.65654">
        <ele>694.4</ele>
        <time>2022-07-29T12:51:49Z</time>
      </trkpt>
      <trkpt lat="46.36037" lon="5.65657">
        <ele>693.2</ele>
        <time>2022-07-29T12:51:50Z</time>
      </trkpt>
      <trkpt lat="46.36047" lon="5.65658">
        <ele>692.2</ele>
        <time>2022-07-29T12:51:51Z</time>
      </trkpt>
      <trkpt lat="46.36058" lon="5.6566">
        <ele>691</ele>
        <time>2022-07-29T12:51:52Z</time>
      </trkpt>
      <trkpt lat="46.36068" lon="5.65663">
        <ele>690</ele>
        <time>2022-07-29T12:51:53Z</time>
      </trkpt>
      <trkpt lat="46.36078" lon="5.65666">
        <ele>688.8</ele>
        <time>2022-07-29T12:51:54Z</time>
      </trkpt>
      <trkpt lat="46.36088" lon="5.65669">
        <ele>687.6</ele>
        <time>2022-07-29T12:51:55Z</time>
      </trkpt>
      <trkpt lat="46.36098" lon="5.65671">
        <ele>686.6</ele>
        <time>2022-07-29T12:51:56Z</time>
      </trkpt>
      <trkpt lat="46.36108" lon="5.65675">
        <ele>685.4</ele>
        <time>2022-07-29T12:51:57Z</time>
      </trkpt>
      <trkpt lat="46.36116" lon="5.65679">
        <ele>684.2</ele>
        <time>2022-07-29T12:51:58Z</time>
      </trkpt>
      <trkpt lat="46.36124" lon="5.65682">
        <ele>683.2</ele>
        <time>2022-07-29T12:51:59Z</time>
      </trkpt>
      <trkpt lat="46.36132" lon="5.65684">
        <ele>682</ele>
        <time>2022-07-29T12:52:00Z</time>
      </trkpt>
      <trkpt lat="46.36139" lon="5.65684">
        <ele>681</ele>
        <time>2022-07-29T12:52:01Z</time>
      </trkpt>
      <trkpt lat="46.36145" lon="5.65682">
        <ele>680.2</ele>
        <time>2022-07-29T12:52:02Z</time>
      </trkpt>
      <trkpt lat="46.36151" lon="5.65678">
        <ele>679.2</ele>
        <time>2022-07-29T12:52:03Z</time>
      </trkpt>
      <trkpt lat="46.36157" lon="5.65673">
        <ele>678.4</ele>
        <time>2022-07-29T12:52:04Z</time>
      </trkpt>
      <trkpt lat="46.36162" lon="5.65667">
        <ele>677.4</ele>
        <time>2022-07-29T12:52:05Z</time>
      </trkpt>
      <trkpt lat="46.36168" lon="5.65662">
        <ele>676.6</ele>
        <time>2022-07-29T12:52:06Z</time>
      </trkpt>
      <trkpt lat="46.36173" lon="5.65658">
        <ele>675.8</ele>
        <time>2022-07-29T12:52:07Z</time>
      </trkpt>
      <trkpt lat="46.36179" lon="5.65655">
        <ele>674.8</ele>
        <time>2022-07-29T12:52:08Z</time>
      </trkpt>
      <trkpt lat="46.36186" lon="5.65655">
        <ele>674</ele>
        <time>2022-07-29T12:52:09Z</time>
      </trkpt>
      <trkpt lat="46.36193" lon="5.65658">
        <ele>673</ele>
        <time>2022-07-29T12:52:10Z</time>
      </trkpt>
      <trkpt lat="46.36201" lon="5.65661">
        <ele>672</ele>
        <time>2022-07-29T12:52:11Z</time>
      </trkpt>
      <trkpt lat="46.3621" lon="5.65665">
        <ele>671</ele>
        <time>2022-07-29T12:52:12Z</time>
      </trkpt>
      <trkpt lat="46.36218" lon="5.65668">
        <ele>670</ele>
        <time>2022-07-29T12:52:13Z</time>
      </trkpt>
      <trkpt lat="46.36227" lon="5.6567">
        <ele>669</ele>
        <time>2022-07-29T12:52:14Z</time>
      </trkpt>
      <trkpt lat="46.36235" lon="5.65672">
        <ele>668</ele>
        <time>2022-07-29T12:52:15Z</time>
      </trkpt>
      <trkpt lat="46.36243" lon="5.65675">
        <ele>667</ele>
        <time>2022-07-29T12:52:16Z</time>
      </trkpt>
      <trkpt lat="46.3625" lon="5.65679">
        <ele>666.2</ele>
        <time>2022-07-29T12:52:17Z</time>
      </trkpt>
      <trkpt lat="46.36257" lon="5.65683">
        <ele>665.2</ele>
        <time>2022-07-29T12:52:18Z</time>
      </trkpt>
      <trkpt lat="46.36263" lon="5.65688">
        <ele>664.4</ele>
        <time>2022-07-29T12:52:19Z</time>
      </trkpt>
      <trkpt lat="46.3627" lon="5.65692">
        <ele>663.4</ele>
        <time>2022-07-29T12:52:20Z</time>
      </trkpt>
      <trkpt lat="46.36275" lon="5.65696">
        <ele>662.8</ele>
        <time>2022-07-29T12:52:21Z</time>
      </trkpt>
      <trkpt lat="46.36281" lon="5.657">
        <ele>662</ele>
        <time>2022-07-29T12:52:22Z</time>
      </trkpt>
      <trkpt lat="46.36287" lon="5.65704">
        <ele>661.4</ele>
        <time>2022-07-29T12:52:23Z</time>
      </trkpt>
      <trkpt lat="46.36291" lon="5.65707">
        <ele>660.6</ele>
        <time>2022-07-29T12:52:24Z</time>
      </trkpt>
      <trkpt lat="46.36295" lon="5.65709">
        <ele>660.2</ele>
        <time>2022-07-29T12:52:25Z</time>
      </trkpt>
      <trkpt lat="46.36298" lon="5.65711">
        <ele>659.6</ele>
        <time>2022-07-29T12:52:26Z</time>
      </trkpt>
      <trkpt lat="46.363" lon="5.65712">
        <ele>659.2</ele>
        <time>2022-07-29T12:52:27Z</time>
      </trkpt>
      <trkpt lat="46.36301" lon="5.65713">
        <ele>658.8</ele>
        <time>2022-07-29T12:52:28Z</time>
      </trkpt>
      <trkpt lat="46.36302" lon="5.65714">
        <ele>658.6</ele>
        <time>2022-07-29T12:52:29Z</time>
      </trkpt>
      <trkpt lat="46.36303" lon="5.65713">
        <ele>658.4</ele>
        <time>2022-07-29T12:52:30Z</time>
      </trkpt>
      <trkpt lat="46.36302" lon="5.65712">
        <ele>658.4</ele>
        <time>2022-07-29T12:52:31Z</time>
      </trkpt>
      <trkpt lat="46.36297" lon="5.6571">
        <ele>658.4</ele>
        <time>2022-07-29T12:52:38Z</time>
      </trkpt>
      <trkpt lat="46.36296" lon="5.6571">
        <ele>658.4</ele>
        <time>2022-07-29T12:52:39Z</time>
      </trkpt>
      <trkpt lat="46.36294" lon="5.65708">
        <ele>658.6</ele>
        <time>2022-07-29T12:52:40Z</time>
      </trkpt>
      <trkpt lat="46.36293" lon="5.65707">
        <ele>658.6</ele>
        <time>2022-07-29T12:52:41Z</time>
      </trkpt>
      <trkpt lat="46.36291" lon="5.65706">
        <ele>659</ele>
        <time>2022-07-29T12:52:42Z</time>
      </trkpt>
      <trkpt lat="46.36289" lon="5.65706">
        <ele>659</ele>
        <time>2022-07-29T12:52:43Z</time>
      </trkpt>
      <trkpt lat="46.36287" lon="5.65704">
        <ele>659.4</ele>
        <time>2022-07-29T12:52:44Z</time>
      </trkpt>
      <trkpt lat="46.36286" lon="5.65703">
        <ele>659.4</ele>
        <time>2022-07-29T12:52:45Z</time>
      </trkpt>
      <trkpt lat="46.36284" lon="5.65702">
        <ele>659.8</ele>
        <time>2022-07-29T12:52:46Z</time>
      </trkpt>
      <trkpt lat="46.36282" lon="5.65701">
        <ele>660</ele>
        <time>2022-07-29T12:52:47Z</time>
      </trkpt>
      <trkpt lat="46.3628" lon="5.657">
        <ele>660</ele>
        <time>2022-07-29T12:52:48Z</time>
      </trkpt>
      <trkpt lat="46.36278" lon="5.65699">
        <ele>660.4</ele>
        <time>2022-07-29T12:52:49Z</time>
      </trkpt>
      <trkpt lat="46.36276" lon="5.65698">
        <ele>660.6</ele>
        <time>2022-07-29T12:52:50Z</time>
      </trkpt>
      <trkpt lat="46.36274" lon="5.65697">
        <ele>660.6</ele>
        <time>2022-07-29T12:52:51Z</time>
      </trkpt>
      <trkpt lat="46.36273" lon="5.65696">
        <ele>660.8</ele>
        <time>2022-07-29T12:52:52Z</time>
      </trkpt>
      <trkpt lat="46.36271" lon="5.65694">
        <ele>660.8</ele>
        <time>2022-07-29T12:52:53Z</time>
      </trkpt>
      <trkpt lat="46.3627" lon="5.65692">
        <ele>661.2</ele>
        <time>2022-07-29T12:52:54Z</time>
      </trkpt>
      <trkpt lat="46.36268" lon="5.65691">
        <ele>661.6</ele>
        <time>2022-07-29T12:52:55Z</time>
      </trkpt>
      <trkpt lat="46.36266" lon="5.6569">
        <ele>661.6</ele>
        <time>2022-07-29T12:52:56Z</time>
      </trkpt>
      <trkpt lat="46.36264" lon="5.65688">
        <ele>661.8</ele>
        <time>2022-07-29T12:52:57Z</time>
      </trkpt>
      <trkpt lat="46.36262" lon="5.65686">
        <ele>662</ele>
        <time>2022-07-29T12:52:58Z</time>
      </trkpt>
      <trkpt lat="46.3626" lon="5.65685">
        <ele>662</ele>
        <time>2022-07-29T12:52:59Z</time>
      </trkpt>
      <trkpt lat="46.36258" lon="5.65683">
        <ele>662.4</ele>
        <time>2022-07-29T12:53:00Z</time>
      </trkpt>
      <trkpt lat="46.36256" lon="5.65682">
        <ele>662.6</ele>
        <time>2022-07-29T12:53:01Z</time>
      </trkpt>
      <trkpt lat="46.36254" lon="5.65681">
        <ele>662.8</ele>
        <time>2022-07-29T12:53:02Z</time>
      </trkpt>
      <trkpt lat="46.36252" lon="5.6568">
        <ele>663.2</ele>
        <time>2022-07-29T12:53:03Z</time>
      </trkpt>
      <trkpt lat="46.3625" lon="5.65679">
        <ele>663.4</ele>
        <time>2022-07-29T12:53:04Z</time>
      </trkpt>
      <trkpt lat="46.36248" lon="5.65679">
        <ele>663.6</ele>
        <time>2022-07-29T12:53:05Z</time>
      </trkpt>
      <trkpt lat="46.36246" lon="5.65678">
        <ele>663.6</ele>
        <time>2022-07-29T12:53:06Z</time>
      </trkpt>
      <trkpt lat="46.36244" lon="5.65677">
        <ele>664</ele>
        <time>2022-07-29T12:53:07Z</time>
      </trkpt>
      <trkpt lat="46.36242" lon="5.65676">
        <ele>664</ele>
        <time>2022-07-29T12:53:08Z</time>
      </trkpt>
      <trkpt lat="46.3624" lon="5.65675">
        <ele>664.4</ele>
        <time>2022-07-29T12:53:09Z</time>
      </trkpt>
      <trkpt lat="46.36238" lon="5.65674">
        <ele>664.6</ele>
        <time>2022-07-29T12:53:10Z</time>
      </trkpt>
      <trkpt lat="46.36236" lon="5.65673">
        <ele>664.8</ele>
        <time>2022-07-29T12:53:11Z</time>
      </trkpt>
      <trkpt lat="46.36234" lon="5.65672">
        <ele>665</ele>
        <time>2022-07-29T12:53:12Z</time>
      </trkpt>
      <trkpt lat="46.36232" lon="5.65671">
        <ele>665.2</ele>
        <time>2022-07-29T12:53:13Z</time>
      </trkpt>
      <trkpt lat="46.36231" lon="5.65671">
        <ele>665.4</ele>
        <time>2022-07-29T12:53:14Z</time>
      </trkpt>
      <trkpt lat="46.36229" lon="5.65671">
        <ele>665.6</ele>
        <time>2022-07-29T12:53:15Z</time>
      </trkpt>
      <trkpt lat="46.36227" lon="5.65671">
        <ele>666</ele>
        <time>2022-07-29T12:53:16Z</time>
      </trkpt>
      <trkpt lat="46.36225" lon="5.6567">
        <ele>666.2</ele>
        <time>2022-07-29T12:53:17Z</time>
      </trkpt>
      <trkpt lat="46.36222" lon="5.6567">
        <ele>666.6</ele>
        <time>2022-07-29T12:53:18Z</time>
      </trkpt>
      <trkpt lat="46.3622" lon="5.6567">
        <ele>666.8</ele>
        <time>2022-07-29T12:53:19Z</time>
      </trkpt>
      <trkpt lat="46.36218" lon="5.65669">
        <ele>667</ele>
        <time>2022-07-29T12:53:20Z</time>
      </trkpt>
      <trkpt lat="46.36217" lon="5.65669">
        <ele>667.2</ele>
        <time>2022-07-29T12:53:21Z</time>
      </trkpt>
      <trkpt lat="46.36215" lon="5.65668">
        <ele>667.4</ele>
        <time>2022-07-29T12:53:22Z</time>
      </trkpt>
      <trkpt lat="46.36213" lon="5.65668">
        <ele>667.8</ele>
        <time>2022-07-29T12:53:23Z</time>
      </trkpt>
      <trkpt lat="46.36211" lon="5.65668">
        <ele>668.2</ele>
        <time>2022-07-29T12:53:24Z</time>
      </trkpt>
      <trkpt lat="46.36209" lon="5.65668">
        <ele>668.4</ele>
        <time>2022-07-29T12:53:25Z</time>
      </trkpt>
      <trkpt lat="46.36207" lon="5.65668">
        <ele>668.6</ele>
        <time>2022-07-29T12:53:26Z</time>
      </trkpt>
      <trkpt lat="46.36205" lon="5.65668">
        <ele>668.8</ele>
        <time>2022-07-29T12:53:27Z</time>
      </trkpt>
      <trkpt lat="46.36203" lon="5.65667">
        <ele>669.2</ele>
        <time>2022-07-29T12:53:28Z</time>
      </trkpt>
      <trkpt lat="46.36201" lon="5.65666">
        <ele>669.2</ele>
        <time>2022-07-29T12:53:29Z</time>
      </trkpt>
      <trkpt lat="46.362" lon="5.65665">
        <ele>669.6</ele>
        <time>2022-07-29T12:53:30Z</time>
      </trkpt>
      <trkpt lat="46.36198" lon="5.65664">
        <ele>669.8</ele>
        <time>2022-07-29T12:53:31Z</time>
      </trkpt>
      <trkpt lat="46.36196" lon="5.65662">
        <ele>670</ele>
        <time>2022-07-29T12:53:32Z</time>
      </trkpt>
      <trkpt lat="46.36194" lon="5.65661">
        <ele>670.2</ele>
        <time>2022-07-29T12:53:33Z</time>
      </trkpt>
      <trkpt lat="46.36193" lon="5.6566">
        <ele>670.4</ele>
        <time>2022-07-29T12:53:34Z</time>
      </trkpt>
      <trkpt lat="46.36191" lon="5.65659">
        <ele>670.4</ele>
        <time>2022-07-29T12:53:35Z</time>
      </trkpt>
      <trkpt lat="46.36189" lon="5.65658">
        <ele>670.8</ele>
        <time>2022-07-29T12:53:36Z</time>
      </trkpt>
      <trkpt lat="46.36188" lon="5.65658">
        <ele>670.8</ele>
        <time>2022-07-29T12:53:37Z</time>
      </trkpt>
      <trkpt lat="46.36186" lon="5.65657">
        <ele>671.2</ele>
        <time>2022-07-29T12:53:38Z</time>
      </trkpt>
      <trkpt lat="46.36184" lon="5.65656">
        <ele>671.6</ele>
        <time>2022-07-29T12:53:39Z</time>
      </trkpt>
      <trkpt lat="46.36182" lon="5.65656">
        <ele>671.8</ele>
        <time>2022-07-29T12:53:40Z</time>
      </trkpt>
      <trkpt lat="46.3618" lon="5.65655">
        <ele>672</ele>
        <time>2022-07-29T12:53:41Z</time>
      </trkpt>
      <trkpt lat="46.36177" lon="5.65655">
        <ele>672.2</ele>
        <time>2022-07-29T12:53:42Z</time>
      </trkpt>
      <trkpt lat="46.36175" lon="5.65655">
        <ele>672.6</ele>
        <time>2022-07-29T12:53:43Z</time>
      </trkpt>
      <trkpt lat="46.36173" lon="5.65655">
        <ele>672.8</ele>
        <time>2022-07-29T12:53:44Z</time>
      </trkpt>
      <trkpt lat="46.36171" lon="5.65656">
        <ele>673.2</ele>
        <time>2022-07-29T12:53:45Z</time>
      </trkpt>
      <trkpt lat="46.3617" lon="5.65657">
        <ele>673.4</ele>
        <time>2022-07-29T12:53:46Z</time>
      </trkpt>
      <trkpt lat="46.36168" lon="5.65659">
        <ele>673.6</ele>
        <time>2022-07-29T12:53:47Z</time>
      </trkpt>
      <trkpt lat="46.36167" lon="5.6566">
        <ele>673.8</ele>
        <time>2022-07-29T12:53:48Z</time>
      </trkpt>
      <trkpt lat="46.36166" lon="5.65662">
        <ele>674.2</ele>
        <time>2022-07-29T12:53:49Z</time>
      </trkpt>
      <trkpt lat="46.36165" lon="5.65664">
        <ele>674.4</ele>
        <time>2022-07-29T12:53:50Z</time>
      </trkpt>
      <trkpt lat="46.36163" lon="5.65666">
        <ele>674.6</ele>
        <time>2022-07-29T12:53:51Z</time>
      </trkpt>
      <trkpt lat="46.36162" lon="5.65668">
        <ele>674.6</ele>
        <time>2022-07-29T12:53:52Z</time>
      </trkpt>
      <trkpt lat="46.36161" lon="5.6567">
        <ele>675</ele>
        <time>2022-07-29T12:53:53Z</time>
      </trkpt>
      <trkpt lat="46.3616" lon="5.65672">
        <ele>675.2</ele>
        <time>2022-07-29T12:53:54Z</time>
      </trkpt>
      <trkpt lat="46.36159" lon="5.65674">
        <ele>675.4</ele>
        <time>2022-07-29T12:53:55Z</time>
      </trkpt>
      <trkpt lat="46.36158" lon="5.65676">
        <ele>675.6</ele>
        <time>2022-07-29T12:53:56Z</time>
      </trkpt>
      <trkpt lat="46.36157" lon="5.65677">
        <ele>675.6</ele>
        <time>2022-07-29T12:53:57Z</time>
      </trkpt>
      <trkpt lat="46.36155" lon="5.65678">
        <ele>676</ele>
        <time>2022-07-29T12:53:58Z</time>
      </trkpt>
      <trkpt lat="46.36153" lon="5.65679">
        <ele>676.4</ele>
        <time>2022-07-29T12:53:59Z</time>
      </trkpt>
      <trkpt lat="46.36151" lon="5.65679">
        <ele>676.6</ele>
        <time>2022-07-29T12:54:00Z</time>
      </trkpt>
      <trkpt lat="46.36149" lon="5.6568">
        <ele>676.8</ele>
        <time>2022-07-29T12:54:01Z</time>
      </trkpt>
      <trkpt lat="46.36147" lon="5.65681">
        <ele>677.2</ele>
        <time>2022-07-29T12:54:02Z</time>
      </trkpt>
      <trkpt lat="46.36145" lon="5.65682">
        <ele>677.4</ele>
        <time>2022-07-29T12:54:03Z</time>
      </trkpt>
      <trkpt lat="46.36144" lon="5.65683">
        <ele>677.6</ele>
        <time>2022-07-29T12:54:04Z</time>
      </trkpt>
      <trkpt lat="46.36142" lon="5.65683">
        <ele>677.6</ele>
        <time>2022-07-29T12:54:05Z</time>
      </trkpt>
      <trkpt lat="46.3614" lon="5.65683">
        <ele>678</ele>
        <time>2022-07-29T12:54:06Z</time>
      </trkpt>
      <trkpt lat="46.36138" lon="5.65683">
        <ele>678.2</ele>
        <time>2022-07-29T12:54:07Z</time>
      </trkpt>
      <trkpt lat="46.36136" lon="5.65683">
        <ele>678.4</ele>
        <time>2022-07-29T12:54:08Z</time>
      </trkpt>
      <trkpt lat="46.36134" lon="5.65683">
        <ele>678.4</ele>
        <time>2022-07-29T12:54:09Z</time>
      </trkpt>
      <trkpt lat="46.36132" lon="5.65683">
        <ele>678.8</ele>
        <time>2022-07-29T12:54:10Z</time>
      </trkpt>
      <trkpt lat="46.3613" lon="5.65683">
        <ele>679</ele>
        <time>2022-07-29T12:54:11Z</time>
      </trkpt>
      <trkpt lat="46.36128" lon="5.65682">
        <ele>679.4</ele>
        <time>2022-07-29T12:54:12Z</time>
      </trkpt>
      <trkpt lat="46.36126" lon="5.65681">
        <ele>679.6</ele>
        <time>2022-07-29T12:54:13Z</time>
      </trkpt>
      <trkpt lat="46.36124" lon="5.65681">
        <ele>679.8</ele>
        <time>2022-07-29T12:54:14Z</time>
      </trkpt>
      <trkpt lat="46.36122" lon="5.6568">
        <ele>680</ele>
        <time>2022-07-29T12:54:15Z</time>
      </trkpt>
      <trkpt lat="46.36119" lon="5.65679">
        <ele>680.2</ele>
        <time>2022-07-29T12:54:16Z</time>
      </trkpt>
      <trkpt lat="46.36117" lon="5.65678">
        <ele>680.6</ele>
        <time>2022-07-29T12:54:17Z</time>
      </trkpt>
      <trkpt lat="46.36114" lon="5.65677">
        <ele>680.8</ele>
        <time>2022-07-29T12:54:18Z</time>
      </trkpt>
      <trkpt lat="46.36112" lon="5.65676">
        <ele>681.2</ele>
        <time>2022-07-29T12:54:19Z</time>
      </trkpt>
      <trkpt lat="46.3611" lon="5.65675">
        <ele>681.4</ele>
        <time>2022-07-29T12:54:20Z</time>
      </trkpt>
      <trkpt lat="46.36108" lon="5.65674">
        <ele>681.8</ele>
        <time>2022-07-29T12:54:21Z</time>
      </trkpt>
      <trkpt lat="46.36107" lon="5.65673">
        <ele>681.8</ele>
        <time>2022-07-29T12:54:22Z</time>
      </trkpt>
      <trkpt lat="46.36105" lon="5.65671">
        <ele>682.2</ele>
        <time>2022-07-29T12:54:23Z</time>
      </trkpt>
      <trkpt lat="46.36103" lon="5.6567">
        <ele>682.4</ele>
        <time>2022-07-29T12:54:24Z</time>
      </trkpt>
      <trkpt lat="46.36102" lon="5.6567">
        <ele>682.4</ele>
        <time>2022-07-29T12:54:25Z</time>
      </trkpt>
      <trkpt lat="46.361" lon="5.65669">
        <ele>682.8</ele>
        <time>2022-07-29T12:54:26Z</time>
      </trkpt>
      <trkpt lat="46.36098" lon="5.65669">
        <ele>683.2</ele>
        <time>2022-07-29T12:54:27Z</time>
      </trkpt>
      <trkpt lat="46.36096" lon="5.65668">
        <ele>683.4</ele>
        <time>2022-07-29T12:54:28Z</time>
      </trkpt>
      <trkpt lat="46.36094" lon="5.65667">
        <ele>683.6</ele>
        <time>2022-07-29T12:54:29Z</time>
      </trkpt>
      <trkpt lat="46.36092" lon="5.65667">
        <ele>683.8</ele>
        <time>2022-07-29T12:54:30Z</time>
      </trkpt>
      <trkpt lat="46.36089" lon="5.65666">
        <ele>684</ele>
        <time>2022-07-29T12:54:31Z</time>
      </trkpt>
      <trkpt lat="46.36087" lon="5.65666">
        <ele>684.2</ele>
        <time>2022-07-29T12:54:32Z</time>
      </trkpt>
      <trkpt lat="46.36085" lon="5.65665">
        <ele>684.4</ele>
        <time>2022-07-29T12:54:33Z</time>
      </trkpt>
      <trkpt lat="46.36082" lon="5.65664">
        <ele>684.4</ele>
        <time>2022-07-29T12:54:34Z</time>
      </trkpt>
      <trkpt lat="46.3608" lon="5.65664">
        <ele>685</ele>
        <time>2022-07-29T12:54:35Z</time>
      </trkpt>
      <trkpt lat="46.36078" lon="5.65663">
        <ele>685.2</ele>
        <time>2022-07-29T12:54:36Z</time>
      </trkpt>
      <trkpt lat="46.36075" lon="5.65663">
        <ele>685.4</ele>
        <time>2022-07-29T12:54:37Z</time>
      </trkpt>
      <trkpt lat="46.36073" lon="5.65662">
        <ele>685.6</ele>
        <time>2022-07-29T12:54:38Z</time>
      </trkpt>
      <trkpt lat="46.36071" lon="5.65662">
        <ele>685.8</ele>
        <time>2022-07-29T12:54:39Z</time>
      </trkpt>
      <trkpt lat="46.36069" lon="5.65662">
        <ele>686</ele>
        <time>2022-07-29T12:54:40Z</time>
      </trkpt>
      <trkpt lat="46.36068" lon="5.65662">
        <ele>686.2</ele>
        <time>2022-07-29T12:54:41Z</time>
      </trkpt>
      <trkpt lat="46.36065" lon="5.65661">
        <ele>686.6</ele>
        <time>2022-07-29T12:54:42Z</time>
      </trkpt>
      <trkpt lat="46.36063" lon="5.65661">
        <ele>686.8</ele>
        <time>2022-07-29T12:54:43Z</time>
      </trkpt>
      <trkpt lat="46.36061" lon="5.6566">
        <ele>687</ele>
        <time>2022-07-29T12:54:44Z</time>
      </trkpt>
      <trkpt lat="46.36059" lon="5.6566">
        <ele>687.4</ele>
        <time>2022-07-29T12:54:45Z</time>
      </trkpt>
      <trkpt lat="46.36057" lon="5.65659">
        <ele>687.6</ele>
        <time>2022-07-29T12:54:46Z</time>
      </trkpt>
      <trkpt lat="46.36055" lon="5.65659">
        <ele>687.8</ele>
        <time>2022-07-29T12:54:47Z</time>
      </trkpt>
      <trkpt lat="46.36053" lon="5.65658">
        <ele>688</ele>
        <time>2022-07-29T12:54:48Z</time>
      </trkpt>
      <trkpt lat="46.36051" lon="5.65658">
        <ele>688.4</ele>
        <time>2022-07-29T12:54:49Z</time>
      </trkpt>
      <trkpt lat="46.36049" lon="5.65657">
        <ele>688.6</ele>
        <time>2022-07-29T12:54:50Z</time>
      </trkpt>
      <trkpt lat="46.36047" lon="5.65657">
        <ele>688.8</ele>
        <time>2022-07-29T12:54:51Z</time>
      </trkpt>
      <trkpt lat="46.36045" lon="5.65657">
        <ele>689</ele>
        <time>2022-07-29T12:54:52Z</time>
      </trkpt>
      <trkpt lat="46.36043" lon="5.65657">
        <ele>689.2</ele>
        <time>2022-07-29T12:54:53Z</time>
      </trkpt>
      <trkpt lat="46.36041" lon="5.65657">
        <ele>689.4</ele>
        <time>2022-07-29T12:54:54Z</time>
      </trkpt>
      <trkpt lat="46.36039" lon="5.65657">
        <ele>689.8</ele>
        <time>2022-07-29T12:54:55Z</time>
      </trkpt>
      <trkpt lat="46.36037" lon="5.65657">
        <ele>690</ele>
        <time>2022-07-29T12:54:56Z</time>
      </trkpt>
      <trkpt lat="46.36035" lon="5.65657">
        <ele>690.2</ele>
        <time>2022-07-29T12:54:57Z</time>
      </trkpt>
      <trkpt lat="46.36034" lon="5.65657">
        <ele>690.4</ele>
        <time>2022-07-29T12:54:58Z</time>
      </trkpt>
      <trkpt lat="46.36032" lon="5.65657">
        <ele>690.6</ele>
        <time>2022-07-29T12:54:59Z</time>
      </trkpt>
      <trkpt lat="46.3603" lon="5.65656">
        <ele>691</ele>
        <time>2022-07-29T12:55:00Z</time>
      </trkpt>
      <trkpt lat="46.36028" lon="5.65655">
        <ele>691.2</ele>
        <time>2022-07-29T12:55:01Z</time>
      </trkpt>
      <trkpt lat="46.36026" lon="5.65654">
        <ele>691.4</ele>
        <time>2022-07-29T12:55:02Z</time>
      </trkpt>
      <trkpt lat="46.36025" lon="5.65653">
        <ele>691.6</ele>
        <time>2022-07-29T12:55:03Z</time>
      </trkpt>
      <trkpt lat="46.36023" lon="5.65652">
        <ele>691.8</ele>
        <time>2022-07-29T12:55:04Z</time>
      </trkpt>
      <trkpt lat="46.36021" lon="5.65651">
        <ele>692</ele>
        <time>2022-07-29T12:55:05Z</time>
      </trkpt>
      <trkpt lat="46.36019" lon="5.6565">
        <ele>692.2</ele>
        <time>2022-07-29T12:55:06Z</time>
      </trkpt>
      <trkpt lat="46.36017" lon="5.65649">
        <ele>692.4</ele>
        <time>2022-07-29T12:55:07Z</time>
      </trkpt>
      <trkpt lat="46.36016" lon="5.65648">
        <ele>692.6</ele>
        <time>2022-07-29T12:55:08Z</time>
      </trkpt>
      <trkpt lat="46.36014" lon="5.65647">
        <ele>693</ele>
        <time>2022-07-29T12:55:09Z</time>
      </trkpt>
      <trkpt lat="46.36012" lon="5.65646">
        <ele>693.2</ele>
        <time>2022-07-29T12:55:10Z</time>
      </trkpt>
      <trkpt lat="46.36011" lon="5.65645">
        <ele>693.4</ele>
        <time>2022-07-29T12:55:11Z</time>
      </trkpt>
      <trkpt lat="46.36009" lon="5.65644">
        <ele>693.6</ele>
        <time>2022-07-29T12:55:12Z</time>
      </trkpt>
      <trkpt lat="46.36007" lon="5.65644">
        <ele>694</ele>
        <time>2022-07-29T12:55:13Z</time>
      </trkpt>
      <trkpt lat="46.36005" lon="5.65644">
        <ele>694.2</ele>
        <time>2022-07-29T12:55:14Z</time>
      </trkpt>
      <trkpt lat="46.36003" lon="5.65644">
        <ele>694.2</ele>
        <time>2022-07-29T12:55:15Z</time>
      </trkpt>
      <trkpt lat="46.36002" lon="5.65643">
        <ele>694.6</ele>
        <time>2022-07-29T12:55:16Z</time>
      </trkpt>
      <trkpt lat="46.36" lon="5.65642">
        <ele>694.8</ele>
        <time>2022-07-29T12:55:17Z</time>
      </trkpt>
      <trkpt lat="46.35998" lon="5.65641">
        <ele>694.8</ele>
        <time>2022-07-29T12:55:18Z</time>
      </trkpt>
      <trkpt lat="46.35997" lon="5.6564">
        <ele>695.2</ele>
        <time>2022-07-29T12:55:19Z</time>
      </trkpt>
      <trkpt lat="46.35995" lon="5.6564">
        <ele>695.2</ele>
        <time>2022-07-29T12:55:20Z</time>
      </trkpt>
      <trkpt lat="46.35993" lon="5.65639">
        <ele>695.6</ele>
        <time>2022-07-29T12:55:21Z</time>
      </trkpt>
      <trkpt lat="46.35992" lon="5.65638">
        <ele>695.8</ele>
        <time>2022-07-29T12:55:22Z</time>
      </trkpt>
      <trkpt lat="46.3599" lon="5.65638">
        <ele>695.8</ele>
        <time>2022-07-29T12:55:23Z</time>
      </trkpt>
      <trkpt lat="46.35988" lon="5.65637">
        <ele>696</ele>
        <time>2022-07-29T12:55:24Z</time>
      </trkpt>
      <trkpt lat="46.35986" lon="5.65636">
        <ele>696.2</ele>
        <time>2022-07-29T12:55:25Z</time>
      </trkpt>
      <trkpt lat="46.35985" lon="5.65635">
        <ele>696.2</ele>
        <time>2022-07-29T12:55:26Z</time>
      </trkpt>
      <trkpt lat="46.35983" lon="5.65634">
        <ele>696.6</ele>
        <time>2022-07-29T12:55:27Z</time>
      </trkpt>
      <trkpt lat="46.35981" lon="5.65633">
        <ele>696.6</ele>
        <time>2022-07-29T12:55:28Z</time>
      </trkpt>
      <trkpt lat="46.35979" lon="5.65632">
        <ele>697</ele>
        <time>2022-07-29T12:55:29Z</time>
      </trkpt>
      <trkpt lat="46.35978" lon="5.65631">
        <ele>697.2</ele>
        <time>2022-07-29T12:55:30Z</time>
      </trkpt>
      <trkpt lat="46.35976" lon="5.65631">
        <ele>697.4</ele>
        <time>2022-07-29T12:55:31Z</time>
      </trkpt>
      <trkpt lat="46.35974" lon="5.6563">
        <ele>697.4</ele>
        <time>2022-07-29T12:55:32Z</time>
      </trkpt>
      <trkpt lat="46.35972" lon="5.6563">
        <ele>697.6</ele>
        <time>2022-07-29T12:55:33Z</time>
      </trkpt>
      <trkpt lat="46.35971" lon="5.65629">
        <ele>697.6</ele>
        <time>2022-07-29T12:55:34Z</time>
      </trkpt>
      <trkpt lat="46.35969" lon="5.65629">
        <ele>698</ele>
        <time>2022-07-29T12:55:35Z</time>
      </trkpt>
      <trkpt lat="46.35967" lon="5.65628">
        <ele>698.2</ele>
        <time>2022-07-29T12:55:36Z</time>
      </trkpt>
      <trkpt lat="46.35966" lon="5.65627">
        <ele>698.4</ele>
        <time>2022-07-29T12:55:37Z</time>
      </trkpt>
      <trkpt lat="46.35964" lon="5.65625">
        <ele>698.4</ele>
        <time>2022-07-29T12:55:38Z</time>
      </trkpt>
      <trkpt lat="46.35963" lon="5.65623">
        <ele>698.8</ele>
        <time>2022-07-29T12:55:39Z</time>
      </trkpt>
      <trkpt lat="46.35962" lon="5.65622">
        <ele>699.2</ele>
        <time>2022-07-29T12:55:40Z</time>
      </trkpt>
      <trkpt lat="46.3596" lon="5.6562">
        <ele>699.4</ele>
        <time>2022-07-29T12:55:41Z</time>
      </trkpt>
      <trkpt lat="46.35959" lon="5.65619">
        <ele>699.4</ele>
        <time>2022-07-29T12:55:42Z</time>
      </trkpt>
      <trkpt lat="46.35957" lon="5.65617">
        <ele>699.8</ele>
        <time>2022-07-29T12:55:43Z</time>
      </trkpt>
      <trkpt lat="46.35956" lon="5.65616">
        <ele>700</ele>
        <time>2022-07-29T12:55:44Z</time>
      </trkpt>
      <trkpt lat="46.35954" lon="5.65614">
        <ele>700.2</ele>
        <time>2022-07-29T12:55:45Z</time>
      </trkpt>
      <trkpt lat="46.35953" lon="5.65613">
        <ele>700.2</ele>
        <time>2022-07-29T12:55:46Z</time>
      </trkpt>
      <trkpt lat="46.35951" lon="5.65611">
        <ele>700.6</ele>
        <time>2022-07-29T12:55:47Z</time>
      </trkpt>
      <trkpt lat="46.3595" lon="5.65609">
        <ele>700.6</ele>
        <time>2022-07-29T12:55:48Z</time>
      </trkpt>
      <trkpt lat="46.35948" lon="5.65608">
        <ele>701.2</ele>
        <time>2022-07-29T12:55:49Z</time>
      </trkpt>
      <trkpt lat="46.35946" lon="5.65607">
        <ele>701.4</ele>
        <time>2022-07-29T12:55:50Z</time>
      </trkpt>
      <trkpt lat="46.35945" lon="5.65605">
        <ele>701.6</ele>
        <time>2022-07-29T12:55:51Z</time>
      </trkpt>
      <trkpt lat="46.35943" lon="5.65603">
        <ele>701.6</ele>
        <time>2022-07-29T12:55:52Z</time>
      </trkpt>
      <trkpt lat="46.35942" lon="5.65601">
        <ele>702</ele>
        <time>2022-07-29T12:55:53Z</time>
      </trkpt>
      <trkpt lat="46.3594" lon="5.65599">
        <ele>702.2</ele>
        <time>2022-07-29T12:55:54Z</time>
      </trkpt>
      <trkpt lat="46.35939" lon="5.65597">
        <ele>702.4</ele>
        <time>2022-07-29T12:55:55Z</time>
      </trkpt>
      <trkpt lat="46.35937" lon="5.65596">
        <ele>702.8</ele>
        <time>2022-07-29T12:55:56Z</time>
      </trkpt>
      <trkpt lat="46.35936" lon="5.65594">
        <ele>703</ele>
        <time>2022-07-29T12:55:57Z</time>
      </trkpt>
      <trkpt lat="46.35934" lon="5.65592">
        <ele>703.4</ele>
        <time>2022-07-29T12:55:58Z</time>
      </trkpt>
      <trkpt lat="46.35933" lon="5.65591">
        <ele>703.6</ele>
        <time>2022-07-29T12:55:59Z</time>
      </trkpt>
      <trkpt lat="46.35931" lon="5.65589">
        <ele>704</ele>
        <time>2022-07-29T12:56:00Z</time>
      </trkpt>
      <trkpt lat="46.3593" lon="5.65587">
        <ele>704.2</ele>
        <time>2022-07-29T12:56:01Z</time>
      </trkpt>
      <trkpt lat="46.35928" lon="5.65585">
        <ele>704.4</ele>
        <time>2022-07-29T12:56:02Z</time>
      </trkpt>
      <trkpt lat="46.35927" lon="5.65583">
        <ele>704.6</ele>
        <time>2022-07-29T12:56:03Z</time>
      </trkpt>
      <trkpt lat="46.35926" lon="5.65581">
        <ele>704.8</ele>
        <time>2022-07-29T12:56:04Z</time>
      </trkpt>
      <trkpt lat="46.35924" lon="5.65579">
        <ele>704.8</ele>
        <time>2022-07-29T12:56:05Z</time>
      </trkpt>
      <trkpt lat="46.35923" lon="5.65577">
        <ele>705.2</ele>
        <time>2022-07-29T12:56:06Z</time>
      </trkpt>
      <trkpt lat="46.35921" lon="5.65575">
        <ele>705.4</ele>
        <time>2022-07-29T12:56:07Z</time>
      </trkpt>
      <trkpt lat="46.3592" lon="5.65574">
        <ele>705.4</ele>
        <time>2022-07-29T12:56:08Z</time>
      </trkpt>
      <trkpt lat="46.35918" lon="5.65573">
        <ele>705.8</ele>
        <time>2022-07-29T12:56:09Z</time>
      </trkpt>
      <trkpt lat="46.35917" lon="5.65572">
        <ele>705.8</ele>
        <time>2022-07-29T12:56:10Z</time>
      </trkpt>
      <trkpt lat="46.35915" lon="5.6557">
        <ele>705.8</ele>
        <time>2022-07-29T12:56:11Z</time>
      </trkpt>
      <trkpt lat="46.35913" lon="5.65569">
        <ele>706.2</ele>
        <time>2022-07-29T12:56:12Z</time>
      </trkpt>
      <trkpt lat="46.35911" lon="5.65568">
        <ele>706.4</ele>
        <time>2022-07-29T12:56:13Z</time>
      </trkpt>
      <trkpt lat="46.3591" lon="5.65567">
        <ele>706.6</ele>
        <time>2022-07-29T12:56:14Z</time>
      </trkpt>
      <trkpt lat="46.35908" lon="5.65567">
        <ele>707</ele>
        <time>2022-07-29T12:56:15Z</time>
      </trkpt>
      <trkpt lat="46.35906" lon="5.65566">
        <ele>707.2</ele>
        <time>2022-07-29T12:56:16Z</time>
      </trkpt>
      <trkpt lat="46.35904" lon="5.65566">
        <ele>707.2</ele>
        <time>2022-07-29T12:56:17Z</time>
      </trkpt>
      <trkpt lat="46.35902" lon="5.65567">
        <ele>707.6</ele>
        <time>2022-07-29T12:56:18Z</time>
      </trkpt>
      <trkpt lat="46.359" lon="5.65567">
        <ele>707.6</ele>
        <time>2022-07-29T12:56:19Z</time>
      </trkpt>
      <trkpt lat="46.35898" lon="5.65567">
        <ele>708</ele>
        <time>2022-07-29T12:56:20Z</time>
      </trkpt>
      <trkpt lat="46.35896" lon="5.65568">
        <ele>708</ele>
        <time>2022-07-29T12:56:21Z</time>
      </trkpt>
      <trkpt lat="46.35895" lon="5.65568">
        <ele>708.4</ele>
        <time>2022-07-29T12:56:22Z</time>
      </trkpt>
      <trkpt lat="46.35894" lon="5.65568">
        <ele>708.4</ele>
        <time>2022-07-29T12:56:23Z</time>
      </trkpt>
      <trkpt lat="46.35894" lon="5.65568">
        <ele>708.8</ele>
        <time>2022-07-29T12:56:24Z</time>
      </trkpt>
      <trkpt lat="46.35894" lon="5.65568">
        <ele>708.8</ele>
        <time>2022-07-29T12:56:25Z</time>
      </trkpt>
      <trkpt lat="46.35894" lon="5.65568">
        <ele>709</ele>
        <time>2022-07-29T12:56:26Z</time>
      </trkpt>
      <trkpt lat="46.35894" lon="5.65568">
        <ele>709</ele>
        <time>2022-07-29T12:56:28Z</time>
      </trkpt>
      <trkpt lat="46.35894" lon="5.65568">
        <ele>709</ele>
        <time>2022-07-29T12:56:29Z</time>
      </trkpt>
      <trkpt lat="46.35894" lon="5.65568">
        <ele>709.2</ele>
        <time>2022-07-29T12:56:30Z</time>
      </trkpt>
      <trkpt lat="46.35894" lon="5.65568">
        <ele>709.2</ele>
        <time>2022-07-29T12:56:31Z</time>
      </trkpt>
      <trkpt lat="46.35894" lon="5.65568">
        <ele>709.2</ele>
        <time>2022-07-29T12:56:32Z</time>
      </trkpt>
      <trkpt lat="46.35894" lon="5.65568">
        <ele>709.2</ele>
        <time>2022-07-29T12:56:33Z</time>
      </trkpt>
      <trkpt lat="46.35894" lon="5.65568">
        <ele>709.4</ele>
        <time>2022-07-29T12:56:34Z</time>
      </trkpt>
      <trkpt lat="46.35894" lon="5.65568">
        <ele>709.4</ele>
        <time>2022-07-29T12:56:35Z</time>
      </trkpt>
      <trkpt lat="46.35894" lon="5.65568">
        <ele>709.4</ele>
        <time>2022-07-29T12:56:36Z</time>
      </trkpt>
      <trkpt lat="46.35894" lon="5.65568">
        <ele>709.4</ele>
        <time>2022-07-29T12:56:37Z</time>
      </trkpt>
      <trkpt lat="46.35894" lon="5.65568">
        <ele>709.4</ele>
        <time>2022-07-29T12:56:38Z</time>
      </trkpt>
      <trkpt lat="46.35894" lon="5.65568">
        <ele>709.2</ele>
        <time>2022-07-29T12:58:06Z</time>
      </trkpt>
      <trkpt lat="46.35894" lon="5.65568">
        <ele>709.2</ele>
        <time>2022-07-29T12:58:07Z</time>
      </trkpt>
      <trkpt lat="46.35894" lon="5.65568">
        <ele>709.2</ele>
        <time>2022-07-29T12:58:08Z</time>
      </trkpt>
      <trkpt lat="46.35894" lon="5.65568">
        <ele>709.2</ele>
        <time>2022-07-29T12:58:10Z</time>
      </trkpt>
      <trkpt lat="46.35894" lon="5.65568">
        <ele>709.2</ele>
        <time>2022-07-29T12:58:11Z</time>
      </trkpt>
      <trkpt lat="46.35894" lon="5.65568">
        <ele>709.2</ele>
        <time>2022-07-29T12:58:13Z</time>
      </trkpt>
      <trkpt lat="46.35894" lon="5.65568">
        <ele>709.2</ele>
        <time>2022-07-29T12:58:14Z</time>
      </trkpt>
      <trkpt lat="46.35894" lon="5.65568">
        <ele>709.2</ele>
        <time>2022-07-29T12:58:15Z</time>
      </trkpt>
      <trkpt lat="46.35894" lon="5.65568">
        <ele>709.6</ele>
        <time>2022-07-29T12:58:16Z</time>
      </trkpt>
      <trkpt lat="46.35894" lon="5.65568">
        <ele>709.6</ele>
        <time>2022-07-29T12:58:17Z</time>
      </trkpt>
      <trkpt lat="46.35894" lon="5.65568">
        <ele>709.6</ele>
        <time>2022-07-29T12:58:18Z</time>
      </trkpt>
      <trkpt lat="46.35894" lon="5.65568">
        <ele>709.6</ele>
        <time>2022-07-29T12:58:19Z</time>
      </trkpt>
      <trkpt lat="46.35894" lon="5.65568">
        <ele>709.6</ele>
        <time>2022-07-29T12:58:20Z</time>
      </trkpt>
      <trkpt lat="46.35894" lon="5.65568">
        <ele>709.6</ele>
        <time>2022-07-29T12:58:21Z</time>
      </trkpt>
      <trkpt lat="46.35888" lon="5.6557">
        <ele>709.6</ele>
        <time>2022-07-29T12:58:22Z</time>
      </trkpt>
      <trkpt lat="46.35887" lon="5.65571">
        <ele>709.8</ele>
        <time>2022-07-29T12:58:23Z</time>
      </trkpt>
      <trkpt lat="46.35886" lon="5.65572">
        <ele>709.8</ele>
        <time>2022-07-29T12:58:24Z</time>
      </trkpt>
      <trkpt lat="46.35884" lon="5.65573">
        <ele>710</ele>
        <time>2022-07-29T12:58:25Z</time>
      </trkpt>
      <trkpt lat="46.35883" lon="5.65574">
        <ele>710</ele>
        <time>2022-07-29T12:58:26Z</time>
      </trkpt>
      <trkpt lat="46.35881" lon="5.65576">
        <ele>710</ele>
        <time>2022-07-29T12:58:27Z</time>
      </trkpt>
      <trkpt lat="46.3588" lon="5.65576">
        <ele>710.4</ele>
        <time>2022-07-29T12:58:28Z</time>
      </trkpt>
      <trkpt lat="46.35878" lon="5.65578">
        <ele>710.4</ele>
        <time>2022-07-29T12:58:29Z</time>
      </trkpt>
      <trkpt lat="46.35877" lon="5.65579">
        <ele>710.6</ele>
        <time>2022-07-29T12:58:30Z</time>
      </trkpt>
      <trkpt lat="46.35876" lon="5.65581">
        <ele>710.6</ele>
        <time>2022-07-29T12:58:31Z</time>
      </trkpt>
      <trkpt lat="46.35875" lon="5.65583">
        <ele>711</ele>
        <time>2022-07-29T12:58:32Z</time>
      </trkpt>
      <trkpt lat="46.35875" lon="5.65586">
        <ele>711</ele>
        <time>2022-07-29T12:58:33Z</time>
      </trkpt>
      <trkpt lat="46.35874" lon="5.65588">
        <ele>711.4</ele>
        <time>2022-07-29T12:58:34Z</time>
      </trkpt>
      <trkpt lat="46.35874" lon="5.6559">
        <ele>711.4</ele>
        <time>2022-07-29T12:58:35Z</time>
      </trkpt>
      <trkpt lat="46.35873" lon="5.65592">
        <ele>711.8</ele>
        <time>2022-07-29T12:58:36Z</time>
      </trkpt>
      <trkpt lat="46.35873" lon="5.65595">
        <ele>711.8</ele>
        <time>2022-07-29T12:58:37Z</time>
      </trkpt>
      <trkpt lat="46.35872" lon="5.65597">
        <ele>711.8</ele>
        <time>2022-07-29T12:58:38Z</time>
      </trkpt>
      <trkpt lat="46.35872" lon="5.65599">
        <ele>712</ele>
        <time>2022-07-29T12:58:39Z</time>
      </trkpt>
      <trkpt lat="46.35872" lon="5.65602">
        <ele>712</ele>
        <time>2022-07-29T12:58:40Z</time>
      </trkpt>
      <trkpt lat="46.35872" lon="5.65606">
        <ele>712.2</ele>
        <time>2022-07-29T12:58:41Z</time>
      </trkpt>
      <trkpt lat="46.35872" lon="5.65609">
        <ele>712.2</ele>
        <time>2022-07-29T12:58:42Z</time>
      </trkpt>
      <trkpt lat="46.35872" lon="5.65613">
        <ele>712.2</ele>
        <time>2022-07-29T12:58:43Z</time>
      </trkpt>
      <trkpt lat="46.35873" lon="5.65617">
        <ele>712.4</ele>
        <time>2022-07-29T12:58:44Z</time>
      </trkpt>
      <trkpt lat="46.35873" lon="5.6562">
        <ele>712.4</ele>
        <time>2022-07-29T12:58:45Z</time>
      </trkpt>
      <trkpt lat="46.35873" lon="5.65624">
        <ele>712.4</ele>
        <time>2022-07-29T12:58:46Z</time>
      </trkpt>
      <trkpt lat="46.35874" lon="5.65628">
        <ele>712.4</ele>
        <time>2022-07-29T12:58:47Z</time>
      </trkpt>
      <trkpt lat="46.35875" lon="5.65632">
        <ele>712.4</ele>
        <time>2022-07-29T12:58:48Z</time>
      </trkpt>
      <trkpt lat="46.35876" lon="5.65637">
        <ele>712.4</ele>
        <time>2022-07-29T12:58:49Z</time>
      </trkpt>
      <trkpt lat="46.35877" lon="5.65642">
        <ele>712.2</ele>
        <time>2022-07-29T12:58:50Z</time>
      </trkpt>
      <trkpt lat="46.35878" lon="5.65646">
        <ele>712.2</ele>
        <time>2022-07-29T12:58:51Z</time>
      </trkpt>
      <trkpt lat="46.3588" lon="5.6565">
        <ele>712.2</ele>
        <time>2022-07-29T12:58:52Z</time>
      </trkpt>
      <trkpt lat="46.35881" lon="5.65654">
        <ele>712.2</ele>
        <time>2022-07-29T12:58:53Z</time>
      </trkpt>
      <trkpt lat="46.35883" lon="5.65658">
        <ele>712.2</ele>
        <time>2022-07-29T12:58:54Z</time>
      </trkpt>
      <trkpt lat="46.35885" lon="5.65662">
        <ele>712.2</ele>
        <time>2022-07-29T12:58:55Z</time>
      </trkpt>
      <trkpt lat="46.35886" lon="5.65666">
        <ele>712.2</ele>
        <time>2022-07-29T12:58:56Z</time>
      </trkpt>
      <trkpt lat="46.35888" lon="5.65669">
        <ele>712.2</ele>
        <time>2022-07-29T12:58:57Z</time>
      </trkpt>
      <trkpt lat="46.35889" lon="5.65673">
        <ele>712</ele>
        <time>2022-07-29T12:58:58Z</time>
      </trkpt>
      <trkpt lat="46.35889" lon="5.65673">
        <ele>712</ele>
        <time>2022-07-29T12:58:59Z</time>
      </trkpt>
      <trkpt lat="46.35892" lon="5.65682">
        <ele>712</ele>
        <time>2022-07-29T12:59:00Z</time>
      </trkpt>
      <trkpt lat="46.35894" lon="5.65689">
        <ele>711.6</ele>
        <time>2022-07-29T12:59:01Z</time>
      </trkpt>
      <trkpt lat="46.35896" lon="5.65696">
        <ele>711.4</ele>
        <time>2022-07-29T12:59:02Z</time>
      </trkpt>
      <trkpt lat="46.35898" lon="5.65704">
        <ele>711.2</ele>
        <time>2022-07-29T12:59:03Z</time>
      </trkpt>
      <trkpt lat="46.359" lon="5.65713">
        <ele>710.8</ele>
        <time>2022-07-29T12:59:04Z</time>
      </trkpt>
      <trkpt lat="46.35902" lon="5.65723">
        <ele>710.2</ele>
        <time>2022-07-29T12:59:05Z</time>
      </trkpt>
      <trkpt lat="46.35905" lon="5.65734">
        <ele>709.8</ele>
        <time>2022-07-29T12:59:06Z</time>
      </trkpt>
      <trkpt lat="46.35907" lon="5.65746">
        <ele>709.2</ele>
        <time>2022-07-29T12:59:07Z</time>
      </trkpt>
      <trkpt lat="46.35909" lon="5.65759">
        <ele>708.4</ele>
        <time>2022-07-29T12:59:08Z</time>
      </trkpt>
      <trkpt lat="46.35912" lon="5.65772">
        <ele>707.8</ele>
        <time>2022-07-29T12:59:09Z</time>
      </trkpt>
      <trkpt lat="46.35914" lon="5.65785">
        <ele>707</ele>
        <time>2022-07-29T12:59:10Z</time>
      </trkpt>
      <trkpt lat="46.35917" lon="5.65798">
        <ele>706.2</ele>
        <time>2022-07-29T12:59:11Z</time>
      </trkpt>
      <trkpt lat="46.3592" lon="5.65811">
        <ele>705.4</ele>
        <time>2022-07-29T12:59:12Z</time>
      </trkpt>
      <trkpt lat="46.35924" lon="5.65825">
        <ele>704.6</ele>
        <time>2022-07-29T12:59:13Z</time>
      </trkpt>
      <trkpt lat="46.3593" lon="5.65837">
        <ele>703.8</ele>
        <time>2022-07-29T12:59:14Z</time>
      </trkpt>
      <trkpt lat="46.35937" lon="5.65848">
        <ele>703</ele>
        <time>2022-07-29T12:59:15Z</time>
      </trkpt>
      <trkpt lat="46.35944" lon="5.65858">
        <ele>702.2</ele>
        <time>2022-07-29T12:59:16Z</time>
      </trkpt>
      <trkpt lat="46.35951" lon="5.65868">
        <ele>701.4</ele>
        <time>2022-07-29T12:59:17Z</time>
      </trkpt>
      <trkpt lat="46.35957" lon="5.6588">
        <ele>700.6</ele>
        <time>2022-07-29T12:59:18Z</time>
      </trkpt>
      <trkpt lat="46.35961" lon="5.65892">
        <ele>699.8</ele>
        <time>2022-07-29T12:59:19Z</time>
      </trkpt>
      <trkpt lat="46.35965" lon="5.65906">
        <ele>699</ele>
        <time>2022-07-29T12:59:20Z</time>
      </trkpt>
      <trkpt lat="46.35967" lon="5.65921">
        <ele>698.2</ele>
        <time>2022-07-29T12:59:21Z</time>
      </trkpt>
      <trkpt lat="46.3597" lon="5.65935">
        <ele>697.2</ele>
        <time>2022-07-29T12:59:22Z</time>
      </trkpt>
      <trkpt lat="46.35973" lon="5.65951">
        <ele>696.2</ele>
        <time>2022-07-29T12:59:23Z</time>
      </trkpt>
      <trkpt lat="46.35974" lon="5.65966">
        <ele>695.4</ele>
        <time>2022-07-29T12:59:24Z</time>
      </trkpt>
      <trkpt lat="46.35975" lon="5.65982">
        <ele>694.4</ele>
        <time>2022-07-29T12:59:25Z</time>
      </trkpt>
      <trkpt lat="46.35975" lon="5.65998">
        <ele>693.6</ele>
        <time>2022-07-29T12:59:26Z</time>
      </trkpt>
      <trkpt lat="46.35975" lon="5.66013">
        <ele>692.8</ele>
        <time>2022-07-29T12:59:27Z</time>
      </trkpt>
      <trkpt lat="46.35975" lon="5.66027">
        <ele>692</ele>
        <time>2022-07-29T12:59:28Z</time>
      </trkpt>
      <trkpt lat="46.35973" lon="5.66038">
        <ele>691.2</ele>
        <time>2022-07-29T12:59:29Z</time>
      </trkpt>
      <trkpt lat="46.35972" lon="5.66049">
        <ele>690.4</ele>
        <time>2022-07-29T12:59:30Z</time>
      </trkpt>
      <trkpt lat="46.35969" lon="5.66061">
        <ele>689.6</ele>
        <time>2022-07-29T12:59:31Z</time>
      </trkpt>
      <trkpt lat="46.35965" lon="5.66072">
        <ele>688.8</ele>
        <time>2022-07-29T12:59:32Z</time>
      </trkpt>
      <trkpt lat="46.3596" lon="5.66083">
        <ele>688</ele>
        <time>2022-07-29T12:59:33Z</time>
      </trkpt>
      <trkpt lat="46.3596" lon="5.66083">
        <ele>687</ele>
        <time>2022-07-29T12:59:34Z</time>
      </trkpt>
      <trkpt lat="46.35955" lon="5.66095">
        <ele>686.2</ele>
        <time>2022-07-29T12:59:35Z</time>
      </trkpt>
      <trkpt lat="46.3595" lon="5.66106">
        <ele>685.2</ele>
        <time>2022-07-29T12:59:36Z</time>
      </trkpt>
      <trkpt lat="46.35947" lon="5.66118">
        <ele>684.2</ele>
        <time>2022-07-29T12:59:37Z</time>
      </trkpt>
      <trkpt lat="46.35945" lon="5.6613">
        <ele>683.4</ele>
        <time>2022-07-29T12:59:38Z</time>
      </trkpt>
      <trkpt lat="46.35945" lon="5.66143">
        <ele>682.6</ele>
        <time>2022-07-29T12:59:39Z</time>
      </trkpt>
      <trkpt lat="46.35946" lon="5.66157">
        <ele>681.8</ele>
        <time>2022-07-29T12:59:40Z</time>
      </trkpt>
      <trkpt lat="46.35947" lon="5.66172">
        <ele>681</ele>
        <time>2022-07-29T12:59:41Z</time>
      </trkpt>
      <trkpt lat="46.35951" lon="5.66186">
        <ele>680.2</ele>
        <time>2022-07-29T12:59:42Z</time>
      </trkpt>
      <trkpt lat="46.35955" lon="5.66201">
        <ele>679.6</ele>
        <time>2022-07-29T12:59:43Z</time>
      </trkpt>
      <trkpt lat="46.3596" lon="5.66214">
        <ele>678.8</ele>
        <time>2022-07-29T12:59:44Z</time>
      </trkpt>
      <trkpt lat="46.35964" lon="5.66229">
        <ele>678</ele>
        <time>2022-07-29T12:59:45Z</time>
      </trkpt>
      <trkpt lat="46.35968" lon="5.66243">
        <ele>677.2</ele>
        <time>2022-07-29T12:59:46Z</time>
      </trkpt>
      <trkpt lat="46.35971" lon="5.66259">
        <ele>676.4</ele>
        <time>2022-07-29T12:59:47Z</time>
      </trkpt>
      <trkpt lat="46.35972" lon="5.66275">
        <ele>676</ele>
        <time>2022-07-29T12:59:48Z</time>
      </trkpt>
      <trkpt lat="46.35971" lon="5.66291">
        <ele>675.4</ele>
        <time>2022-07-29T12:59:49Z</time>
      </trkpt>
      <trkpt lat="46.3597" lon="5.66305">
        <ele>674.6</ele>
        <time>2022-07-29T12:59:50Z</time>
      </trkpt>
      <trkpt lat="46.35969" lon="5.66319">
        <ele>673.8</ele>
        <time>2022-07-29T12:59:51Z</time>
      </trkpt>
      <trkpt lat="46.35969" lon="5.66333">
        <ele>673.2</ele>
        <time>2022-07-29T12:59:52Z</time>
      </trkpt>
      <trkpt lat="46.35971" lon="5.66346">
        <ele>672.6</ele>
        <time>2022-07-29T12:59:53Z</time>
      </trkpt>
      <trkpt lat="46.35974" lon="5.66358">
        <ele>672.2</ele>
        <time>2022-07-29T12:59:54Z</time>
      </trkpt>
      <trkpt lat="46.3598" lon="5.66369">
        <ele>671.6</ele>
        <time>2022-07-29T12:59:55Z</time>
      </trkpt>
      <trkpt lat="46.35986" lon="5.6638">
        <ele>671.4</ele>
        <time>2022-07-29T12:59:56Z</time>
      </trkpt>
      <trkpt lat="46.35991" lon="5.66392">
        <ele>671</ele>
        <time>2022-07-29T12:59:57Z</time>
      </trkpt>
      <trkpt lat="46.35994" lon="5.66403">
        <ele>670.8</ele>
        <time>2022-07-29T12:59:58Z</time>
      </trkpt>
      <trkpt lat="46.35997" lon="5.66416">
        <ele>670.6</ele>
        <time>2022-07-29T12:59:59Z</time>
      </trkpt>
      <trkpt lat="46.35998" lon="5.66428">
        <ele>670.6</ele>
        <time>2022-07-29T13:00:00Z</time>
      </trkpt>
      <trkpt lat="46.35998" lon="5.66441">
        <ele>670.2</ele>
        <time>2022-07-29T13:00:01Z</time>
      </trkpt>
      <trkpt lat="46.35996" lon="5.66452">
        <ele>670.2</ele>
        <time>2022-07-29T13:00:02Z</time>
      </trkpt>
      <trkpt lat="46.35995" lon="5.66463">
        <ele>670.2</ele>
        <time>2022-07-29T13:00:03Z</time>
      </trkpt>
      <trkpt lat="46.35992" lon="5.66474">
        <ele>670.2</ele>
        <time>2022-07-29T13:00:04Z</time>
      </trkpt>
      <trkpt lat="46.35989" lon="5.66483">
        <ele>670.2</ele>
        <time>2022-07-29T13:00:05Z</time>
      </trkpt>
      <trkpt lat="46.35985" lon="5.66492">
        <ele>670.2</ele>
        <time>2022-07-29T13:00:06Z</time>
      </trkpt>
      <trkpt lat="46.35979" lon="5.66499">
        <ele>670.2</ele>
        <time>2022-07-29T13:00:07Z</time>
      </trkpt>
      <trkpt lat="46.35973" lon="5.66504">
        <ele>670.2</ele>
        <time>2022-07-29T13:00:08Z</time>
      </trkpt>
      <trkpt lat="46.35967" lon="5.66508">
        <ele>670</ele>
        <time>2022-07-29T13:00:09Z</time>
      </trkpt>
      <trkpt lat="46.3596" lon="5.66509">
        <ele>670</ele>
        <time>2022-07-29T13:00:10Z</time>
      </trkpt>
      <trkpt lat="46.35954" lon="5.6651">
        <ele>670</ele>
        <time>2022-07-29T13:00:11Z</time>
      </trkpt>
      <trkpt lat="46.35949" lon="5.6651">
        <ele>669.8</ele>
        <time>2022-07-29T13:00:12Z</time>
      </trkpt>
      <trkpt lat="46.35943" lon="5.66511">
        <ele>669.8</ele>
        <time>2022-07-29T13:00:13Z</time>
      </trkpt>
      <trkpt lat="46.35938" lon="5.66511">
        <ele>669.8</ele>
        <time>2022-07-29T13:00:14Z</time>
      </trkpt>
      <trkpt lat="46.35933" lon="5.66512">
        <ele>669.6</ele>
        <time>2022-07-29T13:00:15Z</time>
      </trkpt>
      <trkpt lat="46.35929" lon="5.66513">
        <ele>669.6</ele>
        <time>2022-07-29T13:00:16Z</time>
      </trkpt>
      <trkpt lat="46.35924" lon="5.66515">
        <ele>669.6</ele>
        <time>2022-07-29T13:00:17Z</time>
      </trkpt>
      <trkpt lat="46.3592" lon="5.66518">
        <ele>669.6</ele>
        <time>2022-07-29T13:00:18Z</time>
      </trkpt>
      <trkpt lat="46.35917" lon="5.66521">
        <ele>669.6</ele>
        <time>2022-07-29T13:00:19Z</time>
      </trkpt>
      <trkpt lat="46.35913" lon="5.66524">
        <ele>669.6</ele>
        <time>2022-07-29T13:00:20Z</time>
      </trkpt>
      <trkpt lat="46.3591" lon="5.66528">
        <ele>669.6</ele>
        <time>2022-07-29T13:00:21Z</time>
      </trkpt>
      <trkpt lat="46.35906" lon="5.66533">
        <ele>669.6</ele>
        <time>2022-07-29T13:00:22Z</time>
      </trkpt>
      <trkpt lat="46.35903" lon="5.66539">
        <ele>669.6</ele>
        <time>2022-07-29T13:00:23Z</time>
      </trkpt>
      <trkpt lat="46.35901" lon="5.66545">
        <ele>669.6</ele>
        <time>2022-07-29T13:00:24Z</time>
      </trkpt>
      <trkpt lat="46.35899" lon="5.66552">
        <ele>669.2</ele>
        <time>2022-07-29T13:00:25Z</time>
      </trkpt>
      <trkpt lat="46.35898" lon="5.6656">
        <ele>669.2</ele>
        <time>2022-07-29T13:00:26Z</time>
      </trkpt>
      <trkpt lat="46.35896" lon="5.66568">
        <ele>668.8</ele>
        <time>2022-07-29T13:00:27Z</time>
      </trkpt>
      <trkpt lat="46.35893" lon="5.66575">
        <ele>668.6</ele>
        <time>2022-07-29T13:00:28Z</time>
      </trkpt>
      <trkpt lat="46.35889" lon="5.66582">
        <ele>668.2</ele>
        <time>2022-07-29T13:00:29Z</time>
      </trkpt>
      <trkpt lat="46.35883" lon="5.66587">
        <ele>668</ele>
        <time>2022-07-29T13:00:30Z</time>
      </trkpt>
      <trkpt lat="46.35877" lon="5.66591">
        <ele>667.6</ele>
        <time>2022-07-29T13:00:31Z</time>
      </trkpt>
      <trkpt lat="46.3587" lon="5.66594">
        <ele>667</ele>
        <time>2022-07-29T13:00:32Z</time>
      </trkpt>
      <trkpt lat="46.35863" lon="5.66598">
        <ele>666.6</ele>
        <time>2022-07-29T13:00:33Z</time>
      </trkpt>
      <trkpt lat="46.35855" lon="5.66602">
        <ele>666</ele>
        <time>2022-07-29T13:00:34Z</time>
      </trkpt>
      <trkpt lat="46.35847" lon="5.66606">
        <ele>665.6</ele>
        <time>2022-07-29T13:00:35Z</time>
      </trkpt>
      <trkpt lat="46.35839" lon="5.66611">
        <ele>665.2</ele>
        <time>2022-07-29T13:00:36Z</time>
      </trkpt>
      <trkpt lat="46.35831" lon="5.66615">
        <ele>664.8</ele>
        <time>2022-07-29T13:00:37Z</time>
      </trkpt>
      <trkpt lat="46.35825" lon="5.6662">
        <ele>664.4</ele>
        <time>2022-07-29T13:00:38Z</time>
      </trkpt>
      <trkpt lat="46.35819" lon="5.66624">
        <ele>663.8</ele>
        <time>2022-07-29T13:00:39Z</time>
      </trkpt>
      <trkpt lat="46.35812" lon="5.66627">
        <ele>663.4</ele>
        <time>2022-07-29T13:00:40Z</time>
      </trkpt>
      <trkpt lat="46.35805" lon="5.66628">
        <ele>663</ele>
        <time>2022-07-29T13:00:41Z</time>
      </trkpt>
      <trkpt lat="46.35798" lon="5.66627">
        <ele>662.6</ele>
        <time>2022-07-29T13:00:42Z</time>
      </trkpt>
      <trkpt lat="46.35791" lon="5.66624">
        <ele>662.2</ele>
        <time>2022-07-29T13:00:43Z</time>
      </trkpt>
      <trkpt lat="46.35784" lon="5.66621">
        <ele>661.8</ele>
        <time>2022-07-29T13:00:44Z</time>
      </trkpt>
      <trkpt lat="46.35776" lon="5.66617">
        <ele>661.4</ele>
        <time>2022-07-29T13:00:45Z</time>
      </trkpt>
      <trkpt lat="46.35768" lon="5.66614">
        <ele>661</ele>
        <time>2022-07-29T13:00:46Z</time>
      </trkpt>
      <trkpt lat="46.35759" lon="5.66611">
        <ele>660.6</ele>
        <time>2022-07-29T13:00:47Z</time>
      </trkpt>
      <trkpt lat="46.3575" lon="5.66608">
        <ele>660</ele>
        <time>2022-07-29T13:00:48Z</time>
      </trkpt>
      <trkpt lat="46.35742" lon="5.66603">
        <ele>659.4</ele>
        <time>2022-07-29T13:00:49Z</time>
      </trkpt>
      <trkpt lat="46.35732" lon="5.66597">
        <ele>658.8</ele>
        <time>2022-07-29T13:00:50Z</time>
      </trkpt>
      <trkpt lat="46.35724" lon="5.66588">
        <ele>658</ele>
        <time>2022-07-29T13:00:51Z</time>
      </trkpt>
      <trkpt lat="46.35716" lon="5.66578">
        <ele>657</ele>
        <time>2022-07-29T13:00:52Z</time>
      </trkpt>
      <trkpt lat="46.35707" lon="5.66567">
        <ele>655.8</ele>
        <time>2022-07-29T13:00:53Z</time>
      </trkpt>
      <trkpt lat="46.35699" lon="5.66556">
        <ele>654.8</ele>
        <time>2022-07-29T13:00:54Z</time>
      </trkpt>
      <trkpt lat="46.3569" lon="5.66543">
        <ele>653.6</ele>
        <time>2022-07-29T13:00:55Z</time>
      </trkpt>
      <trkpt lat="46.35682" lon="5.6653">
        <ele>652.6</ele>
        <time>2022-07-29T13:00:56Z</time>
      </trkpt>
      <trkpt lat="46.35676" lon="5.66514">
        <ele>651.6</ele>
        <time>2022-07-29T13:00:57Z</time>
      </trkpt>
      <trkpt lat="46.35671" lon="5.66498">
        <ele>650.4</ele>
        <time>2022-07-29T13:00:58Z</time>
      </trkpt>
      <trkpt lat="46.35666" lon="5.66482">
        <ele>649.4</ele>
        <time>2022-07-29T13:00:59Z</time>
      </trkpt>
      <trkpt lat="46.3566" lon="5.66465">
        <ele>648.6</ele>
        <time>2022-07-29T13:01:00Z</time>
      </trkpt>
      <trkpt lat="46.35655" lon="5.66448">
        <ele>648</ele>
        <time>2022-07-29T13:01:01Z</time>
      </trkpt>
      <trkpt lat="46.35648" lon="5.66433">
        <ele>647.2</ele>
        <time>2022-07-29T13:01:02Z</time>
      </trkpt>
      <trkpt lat="46.35641" lon="5.66418">
        <ele>646.6</ele>
        <time>2022-07-29T13:01:03Z</time>
      </trkpt>
      <trkpt lat="46.35634" lon="5.66404">
        <ele>646.2</ele>
        <time>2022-07-29T13:01:04Z</time>
      </trkpt>
      <trkpt lat="46.35627" lon="5.66392">
        <ele>645.8</ele>
        <time>2022-07-29T13:01:05Z</time>
      </trkpt>
      <trkpt lat="46.3562" lon="5.66381">
        <ele>645.4</ele>
        <time>2022-07-29T13:01:06Z</time>
      </trkpt>
      <trkpt lat="46.35615" lon="5.66367">
        <ele>644.8</ele>
        <time>2022-07-29T13:01:07Z</time>
      </trkpt>
      <trkpt lat="46.35609" lon="5.66353">
        <ele>644.2</ele>
        <time>2022-07-29T13:01:08Z</time>
      </trkpt>
      <trkpt lat="46.35603" lon="5.66339">
        <ele>643.2</ele>
        <time>2022-07-29T13:01:09Z</time>
      </trkpt>
      <trkpt lat="46.35596" lon="5.66324">
        <ele>642.2</ele>
        <time>2022-07-29T13:01:10Z</time>
      </trkpt>
      <trkpt lat="46.35587" lon="5.6631">
        <ele>640.8</ele>
        <time>2022-07-29T13:01:11Z</time>
      </trkpt>
      <trkpt lat="46.35576" lon="5.66295">
        <ele>639.4</ele>
        <time>2022-07-29T13:01:12Z</time>
      </trkpt>
      <trkpt lat="46.35565" lon="5.66282">
        <ele>638</ele>
        <time>2022-07-29T13:01:13Z</time>
      </trkpt>
      <trkpt lat="46.35552" lon="5.6627">
        <ele>636.6</ele>
        <time>2022-07-29T13:01:14Z</time>
      </trkpt>
      <trkpt lat="46.35538" lon="5.66258">
        <ele>635.2</ele>
        <time>2022-07-29T13:01:15Z</time>
      </trkpt>
      <trkpt lat="46.35524" lon="5.66245">
        <ele>634</ele>
        <time>2022-07-29T13:01:16Z</time>
      </trkpt>
      <trkpt lat="46.35511" lon="5.66232">
        <ele>632.6</ele>
        <time>2022-07-29T13:01:17Z</time>
      </trkpt>
      <trkpt lat="46.35498" lon="5.66219">
        <ele>631.2</ele>
        <time>2022-07-29T13:01:18Z</time>
      </trkpt>
      <trkpt lat="46.35486" lon="5.66204">
        <ele>629.8</ele>
        <time>2022-07-29T13:01:19Z</time>
      </trkpt>
      <trkpt lat="46.35473" lon="5.66189">
        <ele>628.4</ele>
        <time>2022-07-29T13:01:20Z</time>
      </trkpt>
      <trkpt lat="46.35461" lon="5.66175">
        <ele>627</ele>
        <time>2022-07-29T13:01:21Z</time>
      </trkpt>
      <trkpt lat="46.35449" lon="5.6616">
        <ele>625.6</ele>
        <time>2022-07-29T13:01:22Z</time>
      </trkpt>
      <trkpt lat="46.35437" lon="5.66145">
        <ele>624.2</ele>
        <time>2022-07-29T13:01:23Z</time>
      </trkpt>
      <trkpt lat="46.35424" lon="5.6613">
        <ele>622.8</ele>
        <time>2022-07-29T13:01:24Z</time>
      </trkpt>
      <trkpt lat="46.35411" lon="5.66116">
        <ele>621.4</ele>
        <time>2022-07-29T13:01:25Z</time>
      </trkpt>
      <trkpt lat="46.35398" lon="5.66105">
        <ele>620.2</ele>
        <time>2022-07-29T13:01:26Z</time>
      </trkpt>
      <trkpt lat="46.35385" lon="5.66095">
        <ele>619.2</ele>
        <time>2022-07-29T13:01:27Z</time>
      </trkpt>
      <trkpt lat="46.35372" lon="5.66085">
        <ele>618</ele>
        <time>2022-07-29T13:01:28Z</time>
      </trkpt>
      <trkpt lat="46.35359" lon="5.66073">
        <ele>616.8</ele>
        <time>2022-07-29T13:01:29Z</time>
      </trkpt>
      <trkpt lat="46.35347" lon="5.66062">
        <ele>615.8</ele>
        <time>2022-07-29T13:01:30Z</time>
      </trkpt>
      <trkpt lat="46.35335" lon="5.66052">
        <ele>614.8</ele>
        <time>2022-07-29T13:01:31Z</time>
      </trkpt>
      <trkpt lat="46.35324" lon="5.66042">
        <ele>613.8</ele>
        <time>2022-07-29T13:01:32Z</time>
      </trkpt>
      <trkpt lat="46.35314" lon="5.66032">
        <ele>612.6</ele>
        <time>2022-07-29T13:01:33Z</time>
      </trkpt>
      <trkpt lat="46.35305" lon="5.66022">
        <ele>611.6</ele>
        <time>2022-07-29T13:01:34Z</time>
      </trkpt>
      <trkpt lat="46.35296" lon="5.66013">
        <ele>610.6</ele>
        <time>2022-07-29T13:01:35Z</time>
      </trkpt>
      <trkpt lat="46.35287" lon="5.66005">
        <ele>609.8</ele>
        <time>2022-07-29T13:01:36Z</time>
      </trkpt>
      <trkpt lat="46.3528" lon="5.65996">
        <ele>609</ele>
        <time>2022-07-29T13:01:37Z</time>
      </trkpt>
      <trkpt lat="46.35272" lon="5.65987">
        <ele>608.2</ele>
        <time>2022-07-29T13:01:38Z</time>
      </trkpt>
      <trkpt lat="46.35264" lon="5.65976">
        <ele>607.4</ele>
        <time>2022-07-29T13:01:39Z</time>
      </trkpt>
      <trkpt lat="46.35258" lon="5.65964">
        <ele>606.4</ele>
        <time>2022-07-29T13:01:40Z</time>
      </trkpt>
      <trkpt lat="46.35251" lon="5.65951">
        <ele>605.6</ele>
        <time>2022-07-29T13:01:41Z</time>
      </trkpt>
      <trkpt lat="46.35242" lon="5.65939">
        <ele>605</ele>
        <time>2022-07-29T13:01:42Z</time>
      </trkpt>
      <trkpt lat="46.35236" lon="5.65926">
        <ele>604.4</ele>
        <time>2022-07-29T13:01:43Z</time>
      </trkpt>
      <trkpt lat="46.35228" lon="5.65915">
        <ele>604</ele>
        <time>2022-07-29T13:01:44Z</time>
      </trkpt>
      <trkpt lat="46.35219" lon="5.65905">
        <ele>603.4</ele>
        <time>2022-07-29T13:01:45Z</time>
      </trkpt>
      <trkpt lat="46.35209" lon="5.65895">
        <ele>603</ele>
        <time>2022-07-29T13:01:46Z</time>
      </trkpt>
      <trkpt lat="46.35201" lon="5.65885">
        <ele>602.8</ele>
        <time>2022-07-29T13:01:47Z</time>
      </trkpt>
      <trkpt lat="46.35193" lon="5.65875">
        <ele>602.8</ele>
        <time>2022-07-29T13:01:48Z</time>
      </trkpt>
      <trkpt lat="46.35184" lon="5.65866">
        <ele>602.8</ele>
        <time>2022-07-29T13:01:49Z</time>
      </trkpt>
      <trkpt lat="46.35175" lon="5.65859">
        <ele>602.8</ele>
        <time>2022-07-29T13:01:50Z</time>
      </trkpt>
      <trkpt lat="46.35167" lon="5.65855">
        <ele>602.6</ele>
        <time>2022-07-29T13:01:51Z</time>
      </trkpt>
      <trkpt lat="46.35159" lon="5.6585">
        <ele>602.6</ele>
        <time>2022-07-29T13:01:52Z</time>
      </trkpt>
      <trkpt lat="46.35152" lon="5.65847">
        <ele>602.6</ele>
        <time>2022-07-29T13:01:53Z</time>
      </trkpt>
      <trkpt lat="46.35144" lon="5.65843">
        <ele>603</ele>
        <time>2022-07-29T13:01:54Z</time>
      </trkpt>
      <trkpt lat="46.35137" lon="5.6584">
        <ele>603.4</ele>
        <time>2022-07-29T13:01:55Z</time>
      </trkpt>
      <trkpt lat="46.35131" lon="5.65839">
        <ele>603.8</ele>
        <time>2022-07-29T13:01:56Z</time>
      </trkpt>
      <trkpt lat="46.35126" lon="5.65838">
        <ele>604.4</ele>
        <time>2022-07-29T13:01:57Z</time>
      </trkpt>
      <trkpt lat="46.35121" lon="5.65837">
        <ele>604.8</ele>
        <time>2022-07-29T13:01:58Z</time>
      </trkpt>
      <trkpt lat="46.35117" lon="5.65836">
        <ele>605.2</ele>
        <time>2022-07-29T13:01:59Z</time>
      </trkpt>
      <trkpt lat="46.35113" lon="5.65834">
        <ele>605.4</ele>
        <time>2022-07-29T13:02:00Z</time>
      </trkpt>
      <trkpt lat="46.35109" lon="5.65832">
        <ele>605.4</ele>
        <time>2022-07-29T13:02:01Z</time>
      </trkpt>
      <trkpt lat="46.35105" lon="5.6583">
        <ele>605.4</ele>
        <time>2022-07-29T13:02:02Z</time>
      </trkpt>
      <trkpt lat="46.35101" lon="5.65827">
        <ele>605.4</ele>
        <time>2022-07-29T13:02:03Z</time>
      </trkpt>
      <trkpt lat="46.35097" lon="5.65824">
        <ele>605.4</ele>
        <time>2022-07-29T13:02:04Z</time>
      </trkpt>
      <trkpt lat="46.35092" lon="5.65822">
        <ele>605</ele>
        <time>2022-07-29T13:02:05Z</time>
      </trkpt>
      <trkpt lat="46.35087" lon="5.65821">
        <ele>604.8</ele>
        <time>2022-07-29T13:02:06Z</time>
      </trkpt>
      <trkpt lat="46.35083" lon="5.65822">
        <ele>604.6</ele>
        <time>2022-07-29T13:02:07Z</time>
      </trkpt>
      <trkpt lat="46.35078" lon="5.65826">
        <ele>604.2</ele>
        <time>2022-07-29T13:02:08Z</time>
      </trkpt>
      <trkpt lat="46.35074" lon="5.65832">
        <ele>604</ele>
        <time>2022-07-29T13:02:09Z</time>
      </trkpt>
      <trkpt lat="46.35069" lon="5.65838">
        <ele>603.6</ele>
        <time>2022-07-29T13:02:10Z</time>
      </trkpt>
      <trkpt lat="46.35065" lon="5.65845">
        <ele>603.4</ele>
        <time>2022-07-29T13:02:11Z</time>
      </trkpt>
      <trkpt lat="46.3506" lon="5.65851">
        <ele>603</ele>
        <time>2022-07-29T13:02:12Z</time>
      </trkpt>
      <trkpt lat="46.35055" lon="5.65858">
        <ele>602.6</ele>
        <time>2022-07-29T13:02:13Z</time>
      </trkpt>
      <trkpt lat="46.35049" lon="5.65864">
        <ele>602.2</ele>
        <time>2022-07-29T13:02:14Z</time>
      </trkpt>
      <trkpt lat="46.35043" lon="5.65868">
        <ele>601.8</ele>
        <time>2022-07-29T13:02:15Z</time>
      </trkpt>
      <trkpt lat="46.35036" lon="5.65871">
        <ele>601.4</ele>
        <time>2022-07-29T13:02:16Z</time>
      </trkpt>
      <trkpt lat="46.35029" lon="5.65872">
        <ele>601</ele>
        <time>2022-07-29T13:02:17Z</time>
      </trkpt>
      <trkpt lat="46.35021" lon="5.6587">
        <ele>600.4</ele>
        <time>2022-07-29T13:02:18Z</time>
      </trkpt>
      <trkpt lat="46.35014" lon="5.65866">
        <ele>600.2</ele>
        <time>2022-07-29T13:02:19Z</time>
      </trkpt>
      <trkpt lat="46.35007" lon="5.65861">
        <ele>599.6</ele>
        <time>2022-07-29T13:02:20Z</time>
      </trkpt>
      <trkpt lat="46.35" lon="5.65855">
        <ele>599.2</ele>
        <time>2022-07-29T13:02:21Z</time>
      </trkpt>
      <trkpt lat="46.34993" lon="5.65848">
        <ele>598.8</ele>
        <time>2022-07-29T13:02:22Z</time>
      </trkpt>
      <trkpt lat="46.34986" lon="5.65843">
        <ele>598.4</ele>
        <time>2022-07-29T13:02:23Z</time>
      </trkpt>
      <trkpt lat="46.34978" lon="5.6584">
        <ele>598</ele>
        <time>2022-07-29T13:02:24Z</time>
      </trkpt>
      <trkpt lat="46.3497" lon="5.6584">
        <ele>597.4</ele>
        <time>2022-07-29T13:02:25Z</time>
      </trkpt>
      <trkpt lat="46.34961" lon="5.65841">
        <ele>597</ele>
        <time>2022-07-29T13:02:26Z</time>
      </trkpt>
      <trkpt lat="46.34953" lon="5.65843">
        <ele>596.4</ele>
        <time>2022-07-29T13:02:27Z</time>
      </trkpt>
      <trkpt lat="46.34942" lon="5.65844">
        <ele>595.8</ele>
        <time>2022-07-29T13:02:28Z</time>
      </trkpt>
      <trkpt lat="46.34932" lon="5.65842">
        <ele>595.2</ele>
        <time>2022-07-29T13:02:29Z</time>
      </trkpt>
      <trkpt lat="46.34923" lon="5.65837">
        <ele>594.4</ele>
        <time>2022-07-29T13:02:30Z</time>
      </trkpt>
      <trkpt lat="46.34914" lon="5.65828">
        <ele>593.8</ele>
        <time>2022-07-29T13:02:31Z</time>
      </trkpt>
      <trkpt lat="46.34908" lon="5.65817">
        <ele>593.2</ele>
        <time>2022-07-29T13:02:32Z</time>
      </trkpt>
      <trkpt lat="46.34902" lon="5.65804">
        <ele>592.4</ele>
        <time>2022-07-29T13:02:33Z</time>
      </trkpt>
      <trkpt lat="46.34896" lon="5.65791">
        <ele>591.8</ele>
        <time>2022-07-29T13:02:34Z</time>
      </trkpt>
      <trkpt lat="46.3489" lon="5.65779">
        <ele>591.2</ele>
        <time>2022-07-29T13:02:35Z</time>
      </trkpt>
      <trkpt lat="46.34883" lon="5.65767">
        <ele>590.4</ele>
        <time>2022-07-29T13:02:36Z</time>
      </trkpt>
      <trkpt lat="46.34876" lon="5.65756">
        <ele>589.6</ele>
        <time>2022-07-29T13:02:37Z</time>
      </trkpt>
      <trkpt lat="46.34869" lon="5.65746">
        <ele>589</ele>
        <time>2022-07-29T13:02:38Z</time>
      </trkpt>
      <trkpt lat="46.34862" lon="5.65736">
        <ele>588.2</ele>
        <time>2022-07-29T13:02:39Z</time>
      </trkpt>
      <trkpt lat="46.34855" lon="5.6573">
        <ele>587.6</ele>
        <time>2022-07-29T13:02:40Z</time>
      </trkpt>
      <trkpt lat="46.34847" lon="5.65726">
        <ele>587.2</ele>
        <time>2022-07-29T13:02:41Z</time>
      </trkpt>
      <trkpt lat="46.34837" lon="5.65726">
        <ele>586.6</ele>
        <time>2022-07-29T13:02:42Z</time>
      </trkpt>
      <trkpt lat="46.34825" lon="5.65727">
        <ele>585.8</ele>
        <time>2022-07-29T13:02:43Z</time>
      </trkpt>
      <trkpt lat="46.34814" lon="5.65726">
        <ele>585.2</ele>
        <time>2022-07-29T13:02:44Z</time>
      </trkpt>
      <trkpt lat="46.34805" lon="5.6572">
        <ele>584.6</ele>
        <time>2022-07-29T13:02:45Z</time>
      </trkpt>
      <trkpt lat="46.34796" lon="5.65711">
        <ele>583.8</ele>
        <time>2022-07-29T13:02:46Z</time>
      </trkpt>
      <trkpt lat="46.34788" lon="5.65701">
        <ele>583.2</ele>
        <time>2022-07-29T13:02:47Z</time>
      </trkpt>
      <trkpt lat="46.34781" lon="5.65689">
        <ele>582.4</ele>
        <time>2022-07-29T13:02:48Z</time>
      </trkpt>
      <trkpt lat="46.34773" lon="5.65677">
        <ele>581.6</ele>
        <time>2022-07-29T13:02:49Z</time>
      </trkpt>
      <trkpt lat="46.34766" lon="5.65666">
        <ele>581</ele>
        <time>2022-07-29T13:02:50Z</time>
      </trkpt>
      <trkpt lat="46.3476" lon="5.65654">
        <ele>580.2</ele>
        <time>2022-07-29T13:02:51Z</time>
      </trkpt>
      <trkpt lat="46.34759" lon="5.6564">
        <ele>579.4</ele>
        <time>2022-07-29T13:02:52Z</time>
      </trkpt>
      <trkpt lat="46.34759" lon="5.65627">
        <ele>578.8</ele>
        <time>2022-07-29T13:02:53Z</time>
      </trkpt>
      <trkpt lat="46.34764" lon="5.65613">
        <ele>578</ele>
        <time>2022-07-29T13:02:54Z</time>
      </trkpt>
      <trkpt lat="46.3477" lon="5.65601">
        <ele>577.2</ele>
        <time>2022-07-29T13:02:55Z</time>
      </trkpt>
      <trkpt lat="46.34774" lon="5.65589">
        <ele>576.6</ele>
        <time>2022-07-29T13:02:56Z</time>
      </trkpt>
      <trkpt lat="46.34775" lon="5.65578">
        <ele>575.8</ele>
        <time>2022-07-29T13:02:57Z</time>
      </trkpt>
      <trkpt lat="46.34773" lon="5.65568">
        <ele>575.2</ele>
        <time>2022-07-29T13:02:58Z</time>
      </trkpt>
      <trkpt lat="46.34769" lon="5.65557">
        <ele>574.4</ele>
        <time>2022-07-29T13:02:59Z</time>
      </trkpt>
      <trkpt lat="46.34763" lon="5.65547">
        <ele>573.6</ele>
        <time>2022-07-29T13:03:00Z</time>
      </trkpt>
      <trkpt lat="46.34755" lon="5.65539">
        <ele>572.6</ele>
        <time>2022-07-29T13:03:01Z</time>
      </trkpt>
      <trkpt lat="46.34746" lon="5.65532">
        <ele>571.8</ele>
        <time>2022-07-29T13:03:02Z</time>
      </trkpt>
      <trkpt lat="46.34734" lon="5.65528">
        <ele>570.8</ele>
        <time>2022-07-29T13:03:03Z</time>
      </trkpt>
      <trkpt lat="46.34722" lon="5.65525">
        <ele>569.6</ele>
        <time>2022-07-29T13:03:04Z</time>
      </trkpt>
      <trkpt lat="46.34711" lon="5.65518">
        <ele>568.4</ele>
        <time>2022-07-29T13:03:05Z</time>
      </trkpt>
      <trkpt lat="46.347" lon="5.65511">
        <ele>567.2</ele>
        <time>2022-07-29T13:03:06Z</time>
      </trkpt>
      <trkpt lat="46.34688" lon="5.65507">
        <ele>566</ele>
        <time>2022-07-29T13:03:07Z</time>
      </trkpt>
      <trkpt lat="46.34675" lon="5.65503">
        <ele>564.6</ele>
        <time>2022-07-29T13:03:08Z</time>
      </trkpt>
      <trkpt lat="46.34662" lon="5.65498">
        <ele>563.2</ele>
        <time>2022-07-29T13:03:09Z</time>
      </trkpt>
      <trkpt lat="46.34649" lon="5.65492">
        <ele>561.8</ele>
        <time>2022-07-29T13:03:10Z</time>
      </trkpt>
      <trkpt lat="46.34637" lon="5.65487">
        <ele>560.4</ele>
        <time>2022-07-29T13:03:11Z</time>
      </trkpt>
      <trkpt lat="46.34625" lon="5.65482">
        <ele>558.8</ele>
        <time>2022-07-29T13:03:12Z</time>
      </trkpt>
      <trkpt lat="46.34613" lon="5.65474">
        <ele>557.2</ele>
        <time>2022-07-29T13:03:13Z</time>
      </trkpt>
      <trkpt lat="46.34605" lon="5.65462">
        <ele>555.6</ele>
        <time>2022-07-29T13:03:14Z</time>
      </trkpt>
      <trkpt lat="46.34596" lon="5.65449">
        <ele>554.2</ele>
        <time>2022-07-29T13:03:15Z</time>
      </trkpt>
      <trkpt lat="46.34588" lon="5.65436">
        <ele>552.8</ele>
        <time>2022-07-29T13:03:16Z</time>
      </trkpt>
      <trkpt lat="46.3458" lon="5.65423">
        <ele>551.4</ele>
        <time>2022-07-29T13:03:17Z</time>
      </trkpt>
      <trkpt lat="46.34574" lon="5.65408">
        <ele>550</ele>
        <time>2022-07-29T13:03:18Z</time>
      </trkpt>
      <trkpt lat="46.34569" lon="5.65393">
        <ele>548.6</ele>
        <time>2022-07-29T13:03:19Z</time>
      </trkpt>
      <trkpt lat="46.34563" lon="5.65379">
        <ele>547.2</ele>
        <time>2022-07-29T13:03:20Z</time>
      </trkpt>
      <trkpt lat="46.34557" lon="5.65364">
        <ele>545.8</ele>
        <time>2022-07-29T13:03:21Z</time>
      </trkpt>
      <trkpt lat="46.34551" lon="5.65352">
        <ele>544.4</ele>
        <time>2022-07-29T13:03:22Z</time>
      </trkpt>
      <trkpt lat="46.34544" lon="5.65341">
        <ele>543</ele>
        <time>2022-07-29T13:03:23Z</time>
      </trkpt>
      <trkpt lat="46.34536" lon="5.6533">
        <ele>541.8</ele>
        <time>2022-07-29T13:03:24Z</time>
      </trkpt>
      <trkpt lat="46.34527" lon="5.65319">
        <ele>540.4</ele>
        <time>2022-07-29T13:03:25Z</time>
      </trkpt>
      <trkpt lat="46.34519" lon="5.6531">
        <ele>539</ele>
        <time>2022-07-29T13:03:26Z</time>
      </trkpt>
      <trkpt lat="46.3451" lon="5.65302">
        <ele>537.8</ele>
        <time>2022-07-29T13:03:27Z</time>
      </trkpt>
      <trkpt lat="46.34503" lon="5.65294">
        <ele>536.8</ele>
        <time>2022-07-29T13:03:28Z</time>
      </trkpt>
      <trkpt lat="46.34496" lon="5.65287">
        <ele>535.6</ele>
        <time>2022-07-29T13:03:29Z</time>
      </trkpt>
      <trkpt lat="46.34491" lon="5.65281">
        <ele>534.6</ele>
        <time>2022-07-29T13:03:30Z</time>
      </trkpt>
      <trkpt lat="46.34487" lon="5.65274">
        <ele>533.8</ele>
        <time>2022-07-29T13:03:31Z</time>
      </trkpt>
      <trkpt lat="46.34483" lon="5.65269">
        <ele>533</ele>
        <time>2022-07-29T13:03:32Z</time>
      </trkpt>
      <trkpt lat="46.3448" lon="5.65265">
        <ele>532.2</ele>
        <time>2022-07-29T13:03:33Z</time>
      </trkpt>
      <trkpt lat="46.34477" lon="5.65263">
        <ele>531.6</ele>
        <time>2022-07-29T13:03:34Z</time>
      </trkpt>
      <trkpt lat="46.34475" lon="5.65261">
        <ele>531.2</ele>
        <time>2022-07-29T13:03:35Z</time>
      </trkpt>
      <trkpt lat="46.34473" lon="5.6526">
        <ele>530.8</ele>
        <time>2022-07-29T13:03:36Z</time>
      </trkpt>
      <trkpt lat="46.34473" lon="5.65259">
        <ele>530.4</ele>
        <time>2022-07-29T13:03:37Z</time>
      </trkpt>
      <trkpt lat="46.34472" lon="5.65258">
        <ele>530.2</ele>
        <time>2022-07-29T13:03:38Z</time>
      </trkpt>
      <trkpt lat="46.34472" lon="5.65256">
        <ele>530.2</ele>
        <time>2022-07-29T13:03:39Z</time>
      </trkpt>
      <trkpt lat="46.34471" lon="5.65254">
        <ele>530</ele>
        <time>2022-07-29T13:03:40Z</time>
      </trkpt>
      <trkpt lat="46.34471" lon="5.65253">
        <ele>529.8</ele>
        <time>2022-07-29T13:03:41Z</time>
      </trkpt>
      <trkpt lat="46.3447" lon="5.65253">
        <ele>529.8</ele>
        <time>2022-07-29T13:03:42Z</time>
      </trkpt>
      <trkpt lat="46.3447" lon="5.65253">
        <ele>529.8</ele>
        <time>2022-07-29T13:03:43Z</time>
      </trkpt>
      <trkpt lat="46.3447" lon="5.65253">
        <ele>529.4</ele>
        <time>2022-07-29T13:03:44Z</time>
      </trkpt>
      <trkpt lat="46.3447" lon="5.65253">
        <ele>529.4</ele>
        <time>2022-07-29T13:03:48Z</time>
      </trkpt>
      <trkpt lat="46.3447" lon="5.65253">
        <ele>529.4</ele>
        <time>2022-07-29T13:03:49Z</time>
      </trkpt>
      <trkpt lat="46.3447" lon="5.65253">
        <ele>529.4</ele>
        <time>2022-07-29T13:03:50Z</time>
      </trkpt>
      <trkpt lat="46.3447" lon="5.65253">
        <ele>529.4</ele>
        <time>2022-07-29T13:03:51Z</time>
      </trkpt>
      <trkpt lat="46.3447" lon="5.65253">
        <ele>529.4</ele>
        <time>2022-07-29T13:03:52Z</time>
      </trkpt>
      <trkpt lat="46.3447" lon="5.65253">
        <ele>529.4</ele>
        <time>2022-07-29T13:03:53Z</time>
      </trkpt>
      <trkpt lat="46.3447" lon="5.65253">
        <ele>529.4</ele>
        <time>2022-07-29T13:03:54Z</time>
      </trkpt>
      <trkpt lat="46.3447" lon="5.65253">
        <ele>529.2</ele>
        <time>2022-07-29T13:04:43Z</time>
      </trkpt>
      <trkpt lat="46.3447" lon="5.65253">
        <ele>529.2</ele>
        <time>2022-07-29T13:04:44Z</time>
      </trkpt>
      <trkpt lat="46.3447" lon="5.65253">
        <ele>529.2</ele>
        <time>2022-07-29T13:04:45Z</time>
      </trkpt>
      <trkpt lat="46.3447" lon="5.65253">
        <ele>529.2</ele>
        <time>2022-07-29T13:04:46Z</time>
      </trkpt>
      <trkpt lat="46.3447" lon="5.65253">
        <ele>529.2</ele>
        <time>2022-07-29T13:04:47Z</time>
      </trkpt>
      <trkpt lat="46.3447" lon="5.65253">
        <ele>529.2</ele>
        <time>2022-07-29T13:04:49Z</time>
      </trkpt>
      <trkpt lat="46.3447" lon="5.65253">
        <ele>529.2</ele>
        <time>2022-07-29T13:04:50Z</time>
      </trkpt>
      <trkpt lat="46.3447" lon="5.65253">
        <ele>529.6</ele>
        <time>2022-07-29T13:04:52Z</time>
      </trkpt>
      <trkpt lat="46.3447" lon="5.65253">
        <ele>529.6</ele>
        <time>2022-07-29T13:04:53Z</time>
      </trkpt>
      <trkpt lat="46.3447" lon="5.65253">
        <ele>529.6</ele>
        <time>2022-07-29T13:04:54Z</time>
      </trkpt>
      <trkpt lat="46.3447" lon="5.65253">
        <ele>529.6</ele>
        <time>2022-07-29T13:04:58Z</time>
      </trkpt>
      <trkpt lat="46.3447" lon="5.65253">
        <ele>529.6</ele>
        <time>2022-07-29T13:04:59Z</time>
      </trkpt>
      <trkpt lat="46.3447" lon="5.65253">
        <ele>529.6</ele>
        <time>2022-07-29T13:05:00Z</time>
      </trkpt>
      <trkpt lat="46.34467" lon="5.6526">
        <ele>529.6</ele>
        <time>2022-07-29T13:05:01Z</time>
      </trkpt>
      <trkpt lat="46.34464" lon="5.65262">
        <ele>529.6</ele>
        <time>2022-07-29T13:05:02Z</time>
      </trkpt>
      <trkpt lat="46.34461" lon="5.65264">
        <ele>529.6</ele>
        <time>2022-07-29T13:05:03Z</time>
      </trkpt>
      <trkpt lat="46.34457" lon="5.65266">
        <ele>529.2</ele>
        <time>2022-07-29T13:05:04Z</time>
      </trkpt>
      <trkpt lat="46.34452" lon="5.65269">
        <ele>529</ele>
        <time>2022-07-29T13:05:05Z</time>
      </trkpt>
      <trkpt lat="46.34447" lon="5.65272">
        <ele>528.6</ele>
        <time>2022-07-29T13:05:06Z</time>
      </trkpt>
      <trkpt lat="46.34443" lon="5.65276">
        <ele>527.8</ele>
        <time>2022-07-29T13:05:07Z</time>
      </trkpt>
      <trkpt lat="46.34438" lon="5.6528">
        <ele>527.4</ele>
        <time>2022-07-29T13:05:08Z</time>
      </trkpt>
      <trkpt lat="46.34432" lon="5.65284">
        <ele>526.8</ele>
        <time>2022-07-29T13:05:09Z</time>
      </trkpt>
      <trkpt lat="46.34426" lon="5.65288">
        <ele>526.2</ele>
        <time>2022-07-29T13:05:10Z</time>
      </trkpt>
      <trkpt lat="46.34419" lon="5.65292">
        <ele>525.4</ele>
        <time>2022-07-29T13:05:11Z</time>
      </trkpt>
      <trkpt lat="46.34412" lon="5.65296">
        <ele>524.8</ele>
        <time>2022-07-29T13:05:12Z</time>
      </trkpt>
      <trkpt lat="46.34404" lon="5.65301">
        <ele>524</ele>
        <time>2022-07-29T13:05:13Z</time>
      </trkpt>
      <trkpt lat="46.34395" lon="5.65306">
        <ele>523.4</ele>
        <time>2022-07-29T13:05:14Z</time>
      </trkpt>
      <trkpt lat="46.34387" lon="5.65312">
        <ele>522.4</ele>
        <time>2022-07-29T13:05:15Z</time>
      </trkpt>
      <trkpt lat="46.34377" lon="5.65319">
        <ele>521.6</ele>
        <time>2022-07-29T13:05:16Z</time>
      </trkpt>
      <trkpt lat="46.34368" lon="5.65327">
        <ele>520.6</ele>
        <time>2022-07-29T13:05:17Z</time>
      </trkpt>
      <trkpt lat="46.34358" lon="5.65335">
        <ele>519.6</ele>
        <time>2022-07-29T13:05:18Z</time>
      </trkpt>
      <trkpt lat="46.34348" lon="5.65344">
        <ele>518.6</ele>
        <time>2022-07-29T13:05:19Z</time>
      </trkpt>
      <trkpt lat="46.34339" lon="5.65353">
        <ele>517.6</ele>
        <time>2022-07-29T13:05:20Z</time>
      </trkpt>
      <trkpt lat="46.3433" lon="5.65363">
        <ele>516.6</ele>
        <time>2022-07-29T13:05:21Z</time>
      </trkpt>
      <trkpt lat="46.34322" lon="5.65372">
        <ele>515.6</ele>
        <time>2022-07-29T13:05:22Z</time>
      </trkpt>
      <trkpt lat="46.34315" lon="5.65381">
        <ele>514.6</ele>
        <time>2022-07-29T13:05:23Z</time>
      </trkpt>
      <trkpt lat="46.34307" lon="5.65391">
        <ele>513.6</ele>
        <time>2022-07-29T13:05:24Z</time>
      </trkpt>
      <trkpt lat="46.34298" lon="5.65399">
        <ele>512.6</ele>
        <time>2022-07-29T13:05:25Z</time>
      </trkpt>
      <trkpt lat="46.34289" lon="5.65405">
        <ele>511.6</ele>
        <time>2022-07-29T13:05:26Z</time>
      </trkpt>
      <trkpt lat="46.34279" lon="5.65407">
        <ele>510.4</ele>
        <time>2022-07-29T13:05:27Z</time>
      </trkpt>
      <trkpt lat="46.34268" lon="5.65408">
        <ele>509.4</ele>
        <time>2022-07-29T13:05:28Z</time>
      </trkpt>
      <trkpt lat="46.34257" lon="5.65409">
        <ele>508.2</ele>
        <time>2022-07-29T13:05:29Z</time>
      </trkpt>
      <trkpt lat="46.34246" lon="5.65409">
        <ele>507.2</ele>
        <time>2022-07-29T13:05:30Z</time>
      </trkpt>
      <trkpt lat="46.34236" lon="5.65409">
        <ele>506</ele>
        <time>2022-07-29T13:05:31Z</time>
      </trkpt>
      <trkpt lat="46.34226" lon="5.65407">
        <ele>504.8</ele>
        <time>2022-07-29T13:05:32Z</time>
      </trkpt>
      <trkpt lat="46.34217" lon="5.65403">
        <ele>503.6</ele>
        <time>2022-07-29T13:05:33Z</time>
      </trkpt>
      <trkpt lat="46.34209" lon="5.65401">
        <ele>502.6</ele>
        <time>2022-07-29T13:05:34Z</time>
      </trkpt>
      <trkpt lat="46.34202" lon="5.65401">
        <ele>501.6</ele>
        <time>2022-07-29T13:05:35Z</time>
      </trkpt>
      <trkpt lat="46.34194" lon="5.65403">
        <ele>500.6</ele>
        <time>2022-07-29T13:05:36Z</time>
      </trkpt>
      <trkpt lat="46.34187" lon="5.65409">
        <ele>499.6</ele>
        <time>2022-07-29T13:05:37Z</time>
      </trkpt>
      <trkpt lat="46.34179" lon="5.65417">
        <ele>498.8</ele>
        <time>2022-07-29T13:05:38Z</time>
      </trkpt>
      <trkpt lat="46.34172" lon="5.65426">
        <ele>497.8</ele>
        <time>2022-07-29T13:05:39Z</time>
      </trkpt>
      <trkpt lat="46.34162" lon="5.65435">
        <ele>497</ele>
        <time>2022-07-29T13:05:40Z</time>
      </trkpt>
      <trkpt lat="46.34154" lon="5.65442">
        <ele>496.2</ele>
        <time>2022-07-29T13:05:41Z</time>
      </trkpt>
      <trkpt lat="46.34149" lon="5.65449">
        <ele>495.4</ele>
        <time>2022-07-29T13:05:42Z</time>
      </trkpt>
      <trkpt lat="46.34143" lon="5.65457">
        <ele>494.8</ele>
        <time>2022-07-29T13:05:43Z</time>
      </trkpt>
      <trkpt lat="46.34138" lon="5.65465">
        <ele>494.4</ele>
        <time>2022-07-29T13:05:44Z</time>
      </trkpt>
      <trkpt lat="46.34133" lon="5.65474">
        <ele>493.8</ele>
        <time>2022-07-29T13:05:45Z</time>
      </trkpt>
      <trkpt lat="46.34126" lon="5.65482">
        <ele>493</ele>
        <time>2022-07-29T13:05:46Z</time>
      </trkpt>
      <trkpt lat="46.34119" lon="5.65489">
        <ele>492.4</ele>
        <time>2022-07-29T13:05:47Z</time>
      </trkpt>
      <trkpt lat="46.34111" lon="5.65498">
        <ele>491.4</ele>
        <time>2022-07-29T13:05:48Z</time>
      </trkpt>
      <trkpt lat="46.34101" lon="5.65504">
        <ele>490.4</ele>
        <time>2022-07-29T13:05:49Z</time>
      </trkpt>
      <trkpt lat="46.34089" lon="5.65507">
        <ele>489.4</ele>
        <time>2022-07-29T13:05:50Z</time>
      </trkpt>
      <trkpt lat="46.34077" lon="5.65511">
        <ele>488</ele>
        <time>2022-07-29T13:05:51Z</time>
      </trkpt>
      <trkpt lat="46.34064" lon="5.65515">
        <ele>486.8</ele>
        <time>2022-07-29T13:05:52Z</time>
      </trkpt>
      <trkpt lat="46.34052" lon="5.65519">
        <ele>485.6</ele>
        <time>2022-07-29T13:05:53Z</time>
      </trkpt>
      <trkpt lat="46.34039" lon="5.65524">
        <ele>484.2</ele>
        <time>2022-07-29T13:05:54Z</time>
      </trkpt>
      <trkpt lat="46.34025" lon="5.6553">
        <ele>483</ele>
        <time>2022-07-29T13:05:55Z</time>
      </trkpt>
      <trkpt lat="46.34011" lon="5.65536">
        <ele>481.8</ele>
        <time>2022-07-29T13:05:56Z</time>
      </trkpt>
      <trkpt lat="46.33997" lon="5.6554">
        <ele>480.4</ele>
        <time>2022-07-29T13:05:57Z</time>
      </trkpt>
      <trkpt lat="46.33982" lon="5.65544">
        <ele>479</ele>
        <time>2022-07-29T13:05:58Z</time>
      </trkpt>
      <trkpt lat="46.33967" lon="5.65548">
        <ele>477.6</ele>
        <time>2022-07-29T13:05:59Z</time>
      </trkpt>
      <trkpt lat="46.33952" lon="5.65551">
        <ele>476</ele>
        <time>2022-07-29T13:06:00Z</time>
      </trkpt>
      <trkpt lat="46.33938" lon="5.65554">
        <ele>474.6</ele>
        <time>2022-07-29T13:06:01Z</time>
      </trkpt>
      <trkpt lat="46.33924" lon="5.65556">
        <ele>473.2</ele>
        <time>2022-07-29T13:06:02Z</time>
      </trkpt>
      <trkpt lat="46.3391" lon="5.65556">
        <ele>471.6</ele>
        <time>2022-07-29T13:06:03Z</time>
      </trkpt>
      <trkpt lat="46.33895" lon="5.65556">
        <ele>470</ele>
        <time>2022-07-29T13:06:04Z</time>
      </trkpt>
      <trkpt lat="46.33881" lon="5.65556">
        <ele>468.6</ele>
        <time>2022-07-29T13:06:05Z</time>
      </trkpt>
      <trkpt lat="46.33868" lon="5.65557">
        <ele>467</ele>
        <time>2022-07-29T13:06:06Z</time>
      </trkpt>
      <trkpt lat="46.33856" lon="5.65559">
        <ele>465.6</ele>
        <time>2022-07-29T13:06:07Z</time>
      </trkpt>
      <trkpt lat="46.33844" lon="5.65561">
        <ele>464.2</ele>
        <time>2022-07-29T13:06:08Z</time>
      </trkpt>
      <trkpt lat="46.33833" lon="5.65564">
        <ele>462.8</ele>
        <time>2022-07-29T13:06:09Z</time>
      </trkpt>
      <trkpt lat="46.33821" lon="5.65568">
        <ele>461.4</ele>
        <time>2022-07-29T13:06:10Z</time>
      </trkpt>
      <trkpt lat="46.3381" lon="5.6557">
        <ele>460.2</ele>
        <time>2022-07-29T13:06:11Z</time>
      </trkpt>
      <trkpt lat="46.33801" lon="5.65574">
        <ele>458.8</ele>
        <time>2022-07-29T13:06:12Z</time>
      </trkpt>
      <trkpt lat="46.33792" lon="5.65574">
        <ele>457.6</ele>
        <time>2022-07-29T13:06:13Z</time>
      </trkpt>
      <trkpt lat="46.33785" lon="5.65573">
        <ele>456.6</ele>
        <time>2022-07-29T13:06:14Z</time>
      </trkpt>
      <trkpt lat="46.33778" lon="5.65573">
        <ele>455.8</ele>
        <time>2022-07-29T13:06:15Z</time>
      </trkpt>
      <trkpt lat="46.33773" lon="5.65572">
        <ele>455</ele>
        <time>2022-07-29T13:06:16Z</time>
      </trkpt>
      <trkpt lat="46.33771" lon="5.65568">
        <ele>454.2</ele>
        <time>2022-07-29T13:06:17Z</time>
      </trkpt>
      <trkpt lat="46.33772" lon="5.65562">
        <ele>453.6</ele>
        <time>2022-07-29T13:06:18Z</time>
      </trkpt>
      <trkpt lat="46.33776" lon="5.65557">
        <ele>452.8</ele>
        <time>2022-07-29T13:06:19Z</time>
      </trkpt>
      <trkpt lat="46.33782" lon="5.65554">
        <ele>452</ele>
        <time>2022-07-29T13:06:20Z</time>
      </trkpt>
      <trkpt lat="46.3379" lon="5.65553">
        <ele>451.2</ele>
        <time>2022-07-29T13:06:21Z</time>
      </trkpt>
      <trkpt lat="46.33798" lon="5.65554">
        <ele>450.4</ele>
        <time>2022-07-29T13:06:22Z</time>
      </trkpt>
      <trkpt lat="46.33806" lon="5.65553">
        <ele>449.4</ele>
        <time>2022-07-29T13:06:23Z</time>
      </trkpt>
      <trkpt lat="46.33816" lon="5.6555">
        <ele>448.4</ele>
        <time>2022-07-29T13:06:24Z</time>
      </trkpt>
      <trkpt lat="46.33825" lon="5.65544">
        <ele>447.4</ele>
        <time>2022-07-29T13:06:25Z</time>
      </trkpt>
      <trkpt lat="46.33835" lon="5.65537">
        <ele>446.6</ele>
        <time>2022-07-29T13:06:26Z</time>
      </trkpt>
      <trkpt lat="46.33845" lon="5.65528">
        <ele>445.4</ele>
        <time>2022-07-29T13:06:27Z</time>
      </trkpt>
      <trkpt lat="46.33855" lon="5.6552">
        <ele>444.4</ele>
        <time>2022-07-29T13:06:28Z</time>
      </trkpt>
      <trkpt lat="46.33867" lon="5.65514">
        <ele>443.4</ele>
        <time>2022-07-29T13:06:29Z</time>
      </trkpt>
      <trkpt lat="46.33879" lon="5.65507">
        <ele>442.2</ele>
        <time>2022-07-29T13:06:30Z</time>
      </trkpt>
      <trkpt lat="46.33891" lon="5.655">
        <ele>441</ele>
        <time>2022-07-29T13:06:31Z</time>
      </trkpt>
      <trkpt lat="46.33903" lon="5.65493">
        <ele>439.8</ele>
        <time>2022-07-29T13:06:32Z</time>
      </trkpt>
      <trkpt lat="46.33916" lon="5.65485">
        <ele>438.4</ele>
        <time>2022-07-29T13:06:33Z</time>
      </trkpt>
      <trkpt lat="46.33929" lon="5.65478">
        <ele>437.2</ele>
        <time>2022-07-29T13:06:34Z</time>
      </trkpt>
      <trkpt lat="46.33943" lon="5.6547">
        <ele>435.8</ele>
        <time>2022-07-29T13:06:35Z</time>
      </trkpt>
      <trkpt lat="46.33956" lon="5.65461">
        <ele>434.4</ele>
        <time>2022-07-29T13:06:36Z</time>
      </trkpt>
      <trkpt lat="46.33969" lon="5.65452">
        <ele>433</ele>
        <time>2022-07-29T13:06:37Z</time>
      </trkpt>
      <trkpt lat="46.33982" lon="5.65442">
        <ele>431.4</ele>
        <time>2022-07-29T13:06:38Z</time>
      </trkpt>
      <trkpt lat="46.33995" lon="5.65432">
        <ele>430</ele>
        <time>2022-07-29T13:06:39Z</time>
      </trkpt>
      <trkpt lat="46.34008" lon="5.65422">
        <ele>428.6</ele>
        <time>2022-07-29T13:06:40Z</time>
      </trkpt>
      <trkpt lat="46.34021" lon="5.65411">
        <ele>427.2</ele>
        <time>2022-07-29T13:06:41Z</time>
      </trkpt>
      <trkpt lat="46.34033" lon="5.65401">
        <ele>425.8</ele>
        <time>2022-07-29T13:06:42Z</time>
      </trkpt>
      <trkpt lat="46.34046" lon="5.65389">
        <ele>424.4</ele>
        <time>2022-07-29T13:06:43Z</time>
      </trkpt>
      <trkpt lat="46.34059" lon="5.65378">
        <ele>422.8</ele>
        <time>2022-07-29T13:06:44Z</time>
      </trkpt>
      <trkpt lat="46.34072" lon="5.65367">
        <ele>421.2</ele>
        <time>2022-07-29T13:06:45Z</time>
      </trkpt>
      <trkpt lat="46.34085" lon="5.65354">
        <ele>419.4</ele>
        <time>2022-07-29T13:06:46Z</time>
      </trkpt>
      <trkpt lat="46.34097" lon="5.6534">
        <ele>417.8</ele>
        <time>2022-07-29T13:06:47Z</time>
      </trkpt>
      <trkpt lat="46.3411" lon="5.65325">
        <ele>416</ele>
        <time>2022-07-29T13:06:48Z</time>
      </trkpt>
      <trkpt lat="46.34123" lon="5.65311">
        <ele>414.4</ele>
        <time>2022-07-29T13:06:49Z</time>
      </trkpt>
      <trkpt lat="46.34135" lon="5.65298">
        <ele>412.6</ele>
        <time>2022-07-29T13:06:50Z</time>
      </trkpt>
      <trkpt lat="46.34148" lon="5.65287">
        <ele>411</ele>
        <time>2022-07-29T13:06:51Z</time>
      </trkpt>
      <trkpt lat="46.34159" lon="5.65276">
        <ele>409.6</ele>
        <time>2022-07-29T13:06:52Z</time>
      </trkpt>
      <trkpt lat="46.34171" lon="5.65265">
        <ele>409.6</ele>
        <time>2022-07-29T13:06:53Z</time>
      </trkpt>
      <trkpt lat="46.34184" lon="5.65253">
        <ele>408</ele>
        <time>2022-07-29T13:06:54Z</time>
      </trkpt>
      <trkpt lat="46.34197" lon="5.65243">
        <ele>406.4</ele>
        <time>2022-07-29T13:06:55Z</time>
      </trkpt>
      <trkpt lat="46.3421" lon="5.65233">
        <ele>404.8</ele>
        <time>2022-07-29T13:06:56Z</time>
      </trkpt>
      <trkpt lat="46.34223" lon="5.65224">
        <ele>403.2</ele>
        <time>2022-07-29T13:06:57Z</time>
      </trkpt>
      <trkpt lat="46.34235" lon="5.65214">
        <ele>401.6</ele>
        <time>2022-07-29T13:06:58Z</time>
      </trkpt>
      <trkpt lat="46.34247" lon="5.65205">
        <ele>400</ele>
        <time>2022-07-29T13:06:59Z</time>
      </trkpt>
      <trkpt lat="46.34258" lon="5.65196">
        <ele>398.4</ele>
        <time>2022-07-29T13:07:00Z</time>
      </trkpt>
      <trkpt lat="46.3427" lon="5.65187">
        <ele>397</ele>
        <time>2022-07-29T13:07:01Z</time>
      </trkpt>
      <trkpt lat="46.34282" lon="5.65179">
        <ele>395.4</ele>
        <time>2022-07-29T13:07:02Z</time>
      </trkpt>
      <trkpt lat="46.34294" lon="5.65174">
        <ele>393.8</ele>
        <time>2022-07-29T13:07:03Z</time>
      </trkpt>
      <trkpt lat="46.34307" lon="5.65171">
        <ele>392.4</ele>
        <time>2022-07-29T13:07:04Z</time>
      </trkpt>
      <trkpt lat="46.34319" lon="5.6517">
        <ele>391</ele>
        <time>2022-07-29T13:07:05Z</time>
      </trkpt>
      <trkpt lat="46.3433" lon="5.65166">
        <ele>389.6</ele>
        <time>2022-07-29T13:07:06Z</time>
      </trkpt>
      <trkpt lat="46.34341" lon="5.65161">
        <ele>388.4</ele>
        <time>2022-07-29T13:07:07Z</time>
      </trkpt>
      <trkpt lat="46.3435" lon="5.65155">
        <ele>387</ele>
        <time>2022-07-29T13:07:08Z</time>
      </trkpt>
      <trkpt lat="46.34359" lon="5.65151">
        <ele>385.6</ele>
        <time>2022-07-29T13:07:09Z</time>
      </trkpt>
      <trkpt lat="46.34366" lon="5.65144">
        <ele>384.2</ele>
        <time>2022-07-29T13:07:10Z</time>
      </trkpt>
      <trkpt lat="46.3437" lon="5.65133">
        <ele>382.8</ele>
        <time>2022-07-29T13:07:11Z</time>
      </trkpt>
      <trkpt lat="46.34371" lon="5.65121">
        <ele>381.6</ele>
        <time>2022-07-29T13:07:12Z</time>
      </trkpt>
      <trkpt lat="46.34371" lon="5.65108">
        <ele>380.6</ele>
        <time>2022-07-29T13:07:13Z</time>
      </trkpt>
      <trkpt lat="46.34372" lon="5.65094">
        <ele>379.6</ele>
        <time>2022-07-29T13:07:14Z</time>
      </trkpt>
      <trkpt lat="46.34374" lon="5.6508">
        <ele>378.6</ele>
        <time>2022-07-29T13:07:15Z</time>
      </trkpt>
      <trkpt lat="46.34376" lon="5.65064">
        <ele>377.6</ele>
        <time>2022-07-29T13:07:16Z</time>
      </trkpt>
      <trkpt lat="46.34378" lon="5.65048">
        <ele>376.4</ele>
        <time>2022-07-29T13:07:17Z</time>
      </trkpt>
      <trkpt lat="46.34381" lon="5.65034">
        <ele>375.2</ele>
        <time>2022-07-29T13:07:18Z</time>
      </trkpt>
      <trkpt lat="46.34383" lon="5.65021">
        <ele>374</ele>
        <time>2022-07-29T13:07:19Z</time>
      </trkpt>
      <trkpt lat="46.34383" lon="5.65021">
        <ele>372.8</ele>
        <time>2022-07-29T13:07:20Z</time>
      </trkpt>
      <trkpt lat="46.34386" lon="5.6501">
        <ele>371.8</ele>
        <time>2022-07-29T13:07:21Z</time>
      </trkpt>
      <trkpt lat="46.34389" lon="5.64998">
        <ele>370.8</ele>
        <time>2022-07-29T13:07:22Z</time>
      </trkpt>
      <trkpt lat="46.34392" lon="5.64987">
        <ele>369.8</ele>
        <time>2022-07-29T13:07:23Z</time>
      </trkpt>
      <trkpt lat="46.34394" lon="5.64975">
        <ele>369</ele>
        <time>2022-07-29T13:07:24Z</time>
      </trkpt>
      <trkpt lat="46.34398" lon="5.64963">
        <ele>368</ele>
        <time>2022-07-29T13:07:25Z</time>
      </trkpt>
      <trkpt lat="46.34404" lon="5.64951">
        <ele>367</ele>
        <time>2022-07-29T13:07:26Z</time>
      </trkpt>
      <trkpt lat="46.34409" lon="5.64938">
        <ele>366</ele>
        <time>2022-07-29T13:07:27Z</time>
      </trkpt>
      <trkpt lat="46.34415" lon="5.64925">
        <ele>364.6</ele>
        <time>2022-07-29T13:07:28Z</time>
      </trkpt>
      <trkpt lat="46.3442" lon="5.6491">
        <ele>363.2</ele>
        <time>2022-07-29T13:07:29Z</time>
      </trkpt>
      <trkpt lat="46.34425" lon="5.64894">
        <ele>361.8</ele>
        <time>2022-07-29T13:07:30Z</time>
      </trkpt>
      <trkpt lat="46.34429" lon="5.64879">
        <ele>360.2</ele>
        <time>2022-07-29T13:07:31Z</time>
      </trkpt>
      <trkpt lat="46.34434" lon="5.64863">
        <ele>358.6</ele>
        <time>2022-07-29T13:07:32Z</time>
      </trkpt>
      <trkpt lat="46.34439" lon="5.64848">
        <ele>357</ele>
        <time>2022-07-29T13:07:33Z</time>
      </trkpt>
      <trkpt lat="46.34444" lon="5.64834">
        <ele>355.4</ele>
        <time>2022-07-29T13:07:34Z</time>
      </trkpt>
      <trkpt lat="46.34449" lon="5.6482">
        <ele>353.6</ele>
        <time>2022-07-29T13:07:35Z</time>
      </trkpt>
      <trkpt lat="46.34454" lon="5.64806">
        <ele>352.2</ele>
        <time>2022-07-29T13:07:36Z</time>
      </trkpt>
      <trkpt lat="46.34459" lon="5.64793">
        <ele>350.4</ele>
        <time>2022-07-29T13:07:37Z</time>
      </trkpt>
      <trkpt lat="46.34465" lon="5.64779">
        <ele>348.8</ele>
        <time>2022-07-29T13:07:38Z</time>
      </trkpt>
      <trkpt lat="46.3447" lon="5.64764">
        <ele>347.4</ele>
        <time>2022-07-29T13:07:39Z</time>
      </trkpt>
      <trkpt lat="46.34475" lon="5.64751">
        <ele>345.8</ele>
        <time>2022-07-29T13:07:40Z</time>
      </trkpt>
      <trkpt lat="46.3448" lon="5.64737">
        <ele>344.4</ele>
        <time>2022-07-29T13:07:41Z</time>
      </trkpt>
      <trkpt lat="46.34486" lon="5.64724">
        <ele>342.8</ele>
        <time>2022-07-29T13:07:42Z</time>
      </trkpt>
      <trkpt lat="46.34491" lon="5.6471">
        <ele>341.2</ele>
        <time>2022-07-29T13:07:43Z</time>
      </trkpt>
      <trkpt lat="46.34496" lon="5.64697">
        <ele>340</ele>
        <time>2022-07-29T13:07:44Z</time>
      </trkpt>
      <trkpt lat="46.34502" lon="5.64684">
        <ele>338.6</ele>
        <time>2022-07-29T13:07:45Z</time>
      </trkpt>
      <trkpt lat="46.34507" lon="5.64672">
        <ele>337.4</ele>
        <time>2022-07-29T13:07:46Z</time>
      </trkpt>
      <trkpt lat="46.34512" lon="5.64662">
        <ele>336.2</ele>
        <time>2022-07-29T13:07:47Z</time>
      </trkpt>
      <trkpt lat="46.34517" lon="5.64652">
        <ele>335.4</ele>
        <time>2022-07-29T13:07:48Z</time>
      </trkpt>
      <trkpt lat="46.34522" lon="5.64641">
        <ele>334.6</ele>
        <time>2022-07-29T13:07:49Z</time>
      </trkpt>
      <trkpt lat="46.34527" lon="5.64631">
        <ele>334</ele>
        <time>2022-07-29T13:07:50Z</time>
      </trkpt>
      <trkpt lat="46.34532" lon="5.6462">
        <ele>333.4</ele>
        <time>2022-07-29T13:07:51Z</time>
      </trkpt>
      <trkpt lat="46.34537" lon="5.6461">
        <ele>332.8</ele>
        <time>2022-07-29T13:07:52Z</time>
      </trkpt>
      <trkpt lat="46.34541" lon="5.64601">
        <ele>332.4</ele>
        <time>2022-07-29T13:07:53Z</time>
      </trkpt>
      <trkpt lat="46.34546" lon="5.64592">
        <ele>332</ele>
        <time>2022-07-29T13:07:54Z</time>
      </trkpt>
      <trkpt lat="46.34549" lon="5.64585">
        <ele>331.6</ele>
        <time>2022-07-29T13:07:55Z</time>
      </trkpt>
      <trkpt lat="46.34552" lon="5.64578">
        <ele>331.2</ele>
        <time>2022-07-29T13:07:56Z</time>
      </trkpt>
      <trkpt lat="46.34554" lon="5.64571">
        <ele>331</ele>
        <time>2022-07-29T13:07:57Z</time>
      </trkpt>
      <trkpt lat="46.34556" lon="5.64565">
        <ele>330.6</ele>
        <time>2022-07-29T13:07:58Z</time>
      </trkpt>
      <trkpt lat="46.34557" lon="5.6456">
        <ele>330.4</ele>
        <time>2022-07-29T13:07:59Z</time>
      </trkpt>
      <trkpt lat="46.34557" lon="5.64554">
        <ele>330</ele>
        <time>2022-07-29T13:08:00Z</time>
      </trkpt>
      <trkpt lat="46.34557" lon="5.64549">
        <ele>329.8</ele>
        <time>2022-07-29T13:08:01Z</time>
      </trkpt>
      <trkpt lat="46.34557" lon="5.64543">
        <ele>329.4</ele>
        <time>2022-07-29T13:08:02Z</time>
      </trkpt>
      <trkpt lat="46.34556" lon="5.64537">
        <ele>329.2</ele>
        <time>2022-07-29T13:08:03Z</time>
      </trkpt>
      <trkpt lat="46.34553" lon="5.64532">
        <ele>328.8</ele>
        <time>2022-07-29T13:08:04Z</time>
      </trkpt>
      <trkpt lat="46.34551" lon="5.64528">
        <ele>328.4</ele>
        <time>2022-07-29T13:08:05Z</time>
      </trkpt>
      <trkpt lat="46.34548" lon="5.64523">
        <ele>328</ele>
        <time>2022-07-29T13:08:06Z</time>
      </trkpt>
      <trkpt lat="46.34545" lon="5.64516">
        <ele>327.6</ele>
        <time>2022-07-29T13:08:07Z</time>
      </trkpt>
      <trkpt lat="46.34543" lon="5.64509">
        <ele>327</ele>
        <time>2022-07-29T13:08:08Z</time>
      </trkpt>
      <trkpt lat="46.34543" lon="5.64501">
        <ele>326.6</ele>
        <time>2022-07-29T13:08:09Z</time>
      </trkpt>
      <trkpt lat="46.34542" lon="5.64494">
        <ele>326</ele>
        <time>2022-07-29T13:08:10Z</time>
      </trkpt>
      <trkpt lat="46.34543" lon="5.64487">
        <ele>325.6</ele>
        <time>2022-07-29T13:08:11Z</time>
      </trkpt>
      <trkpt lat="46.34544" lon="5.64481">
        <ele>325.2</ele>
        <time>2022-07-29T13:08:12Z</time>
      </trkpt>
      <trkpt lat="46.34544" lon="5.64476">
        <ele>324.8</ele>
        <time>2022-07-29T13:08:13Z</time>
      </trkpt>
      <trkpt lat="46.34544" lon="5.64473">
        <ele>324.4</ele>
        <time>2022-07-29T13:08:14Z</time>
      </trkpt>
      <trkpt lat="46.34543" lon="5.64471">
        <ele>324.4</ele>
        <time>2022-07-29T13:08:15Z</time>
      </trkpt>
      <trkpt lat="46.34542" lon="5.6447">
        <ele>324.2</ele>
        <time>2022-07-29T13:08:16Z</time>
      </trkpt>
      <trkpt lat="46.3454" lon="5.6447">
        <ele>324.2</ele>
        <time>2022-07-29T13:08:17Z</time>
      </trkpt>
      <trkpt lat="46.34537" lon="5.64471">
        <ele>324.2</ele>
        <time>2022-07-29T13:08:18Z</time>
      </trkpt>
      <trkpt lat="46.34535" lon="5.64474">
        <ele>324</ele>
        <time>2022-07-29T13:08:19Z</time>
      </trkpt>
      <trkpt lat="46.34532" lon="5.64478">
        <ele>323.8</ele>
        <time>2022-07-29T13:08:20Z</time>
      </trkpt>
      <trkpt lat="46.3453" lon="5.64483">
        <ele>323.8</ele>
        <time>2022-07-29T13:08:21Z</time>
      </trkpt>
      <trkpt lat="46.34529" lon="5.64491">
        <ele>323.4</ele>
        <time>2022-07-29T13:08:22Z</time>
      </trkpt>
      <trkpt lat="46.34528" lon="5.64499">
        <ele>323.2</ele>
        <time>2022-07-29T13:08:23Z</time>
      </trkpt>
      <trkpt lat="46.34528" lon="5.64507">
        <ele>323.2</ele>
        <time>2022-07-29T13:08:24Z</time>
      </trkpt>
      <trkpt lat="46.34527" lon="5.64516">
        <ele>322.6</ele>
        <time>2022-07-29T13:08:25Z</time>
      </trkpt>
      <trkpt lat="46.34525" lon="5.64524">
        <ele>322.2</ele>
        <time>2022-07-29T13:08:26Z</time>
      </trkpt>
      <trkpt lat="46.34524" lon="5.64533">
        <ele>322</ele>
        <time>2022-07-29T13:08:27Z</time>
      </trkpt>
      <trkpt lat="46.34522" lon="5.64542">
        <ele>321.8</ele>
        <time>2022-07-29T13:08:28Z</time>
      </trkpt>
      <trkpt lat="46.3452" lon="5.64551">
        <ele>321.4</ele>
        <time>2022-07-29T13:08:29Z</time>
      </trkpt>
      <trkpt lat="46.34518" lon="5.6456">
        <ele>321.2</ele>
        <time>2022-07-29T13:08:30Z</time>
      </trkpt>
      <trkpt lat="46.34515" lon="5.64569">
        <ele>320.8</ele>
        <time>2022-07-29T13:08:31Z</time>
      </trkpt>
      <trkpt lat="46.34512" lon="5.64578">
        <ele>320.6</ele>
        <time>2022-07-29T13:08:32Z</time>
      </trkpt>
      <trkpt lat="46.34508" lon="5.64588">
        <ele>320.2</ele>
        <time>2022-07-29T13:08:33Z</time>
      </trkpt>
      <trkpt lat="46.34503" lon="5.64597">
        <ele>319.8</ele>
        <time>2022-07-29T13:08:34Z</time>
      </trkpt>
      <trkpt lat="46.34498" lon="5.64605">
        <ele>319.4</ele>
        <time>2022-07-29T13:08:35Z</time>
      </trkpt>
      <trkpt lat="46.34492" lon="5.64614">
        <ele>319</ele>
        <time>2022-07-29T13:08:36Z</time>
      </trkpt>
      <trkpt lat="46.34486" lon="5.64623">
        <ele>318.6</ele>
        <time>2022-07-29T13:08:37Z</time>
      </trkpt>
      <trkpt lat="46.3448" lon="5.64632">
        <ele>318.2</ele>
        <time>2022-07-29T13:08:38Z</time>
      </trkpt>
      <trkpt lat="46.34475" lon="5.64642">
        <ele>317.8</ele>
        <time>2022-07-29T13:08:39Z</time>
      </trkpt>
      <trkpt lat="46.34468" lon="5.64651">
        <ele>317.2</ele>
        <time>2022-07-29T13:08:40Z</time>
      </trkpt>
      <trkpt lat="46.34462" lon="5.6466">
        <ele>316.8</ele>
        <time>2022-07-29T13:08:41Z</time>
      </trkpt>
      <trkpt lat="46.34455" lon="5.64669">
        <ele>316.4</ele>
        <time>2022-07-29T13:08:42Z</time>
      </trkpt>
      <trkpt lat="46.34449" lon="5.64679">
        <ele>316</ele>
        <time>2022-07-29T13:08:43Z</time>
      </trkpt>
      <trkpt lat="46.34443" lon="5.64689">
        <ele>315.4</ele>
        <time>2022-07-29T13:08:44Z</time>
      </trkpt>
      <trkpt lat="46.34437" lon="5.64698">
        <ele>315</ele>
        <time>2022-07-29T13:08:45Z</time>
      </trkpt>
      <trkpt lat="46.3443" lon="5.64705">
        <ele>314.6</ele>
        <time>2022-07-29T13:08:46Z</time>
      </trkpt>
      <trkpt lat="46.34423" lon="5.64711">
        <ele>314.2</ele>
        <time>2022-07-29T13:08:47Z</time>
      </trkpt>
      <trkpt lat="46.34415" lon="5.64714">
        <ele>313.8</ele>
        <time>2022-07-29T13:08:48Z</time>
      </trkpt>
      <trkpt lat="46.34406" lon="5.64716">
        <ele>313.2</ele>
        <time>2022-07-29T13:08:49Z</time>
      </trkpt>
      <trkpt lat="46.34396" lon="5.64715">
        <ele>312.6</ele>
        <time>2022-07-29T13:08:50Z</time>
      </trkpt>
      <trkpt lat="46.34387" lon="5.64712">
        <ele>312</ele>
        <time>2022-07-29T13:08:51Z</time>
      </trkpt>
      <trkpt lat="46.34377" lon="5.64707">
        <ele>311.6</ele>
        <time>2022-07-29T13:08:52Z</time>
      </trkpt>
      <trkpt lat="46.34369" lon="5.647">
        <ele>311</ele>
        <time>2022-07-29T13:08:53Z</time>
      </trkpt>
      <trkpt lat="46.3436" lon="5.64692">
        <ele>310.4</ele>
        <time>2022-07-29T13:08:54Z</time>
      </trkpt>
      <trkpt lat="46.34353" lon="5.64684">
        <ele>310</ele>
        <time>2022-07-29T13:08:55Z</time>
      </trkpt>
      <trkpt lat="46.34345" lon="5.64674">
        <ele>309.8</ele>
        <time>2022-07-29T13:08:56Z</time>
      </trkpt>
      <trkpt lat="46.34339" lon="5.64665">
        <ele>309.4</ele>
        <time>2022-07-29T13:08:57Z</time>
      </trkpt>
      <trkpt lat="46.34333" lon="5.64657">
        <ele>309.2</ele>
        <time>2022-07-29T13:08:58Z</time>
      </trkpt>
      <trkpt lat="46.34327" lon="5.64648">
        <ele>309.2</ele>
        <time>2022-07-29T13:08:59Z</time>
      </trkpt>
      <trkpt lat="46.34321" lon="5.6464">
        <ele>308.8</ele>
        <time>2022-07-29T13:09:00Z</time>
      </trkpt>
      <trkpt lat="46.34315" lon="5.64633">
        <ele>308.8</ele>
        <time>2022-07-29T13:09:01Z</time>
      </trkpt>
      <trkpt lat="46.3431" lon="5.64625">
        <ele>308.8</ele>
        <time>2022-07-29T13:09:02Z</time>
      </trkpt>
      <trkpt lat="46.34305" lon="5.64617">
        <ele>308.8</ele>
        <time>2022-07-29T13:09:03Z</time>
      </trkpt>
      <trkpt lat="46.343" lon="5.64609">
        <ele>308.8</ele>
        <time>2022-07-29T13:09:04Z</time>
      </trkpt>
      <trkpt lat="46.34295" lon="5.64602">
        <ele>308.8</ele>
        <time>2022-07-29T13:09:05Z</time>
      </trkpt>
      <trkpt lat="46.3429" lon="5.64595">
        <ele>309.2</ele>
        <time>2022-07-29T13:09:06Z</time>
      </trkpt>
      <trkpt lat="46.34286" lon="5.64588">
        <ele>309.2</ele>
        <time>2022-07-29T13:09:07Z</time>
      </trkpt>
      <trkpt lat="46.34281" lon="5.64582">
        <ele>309.6</ele>
        <time>2022-07-29T13:09:08Z</time>
      </trkpt>
      <trkpt lat="46.34277" lon="5.64577">
        <ele>309.8</ele>
        <time>2022-07-29T13:09:09Z</time>
      </trkpt>
      <trkpt lat="46.34273" lon="5.64572">
        <ele>310</ele>
        <time>2022-07-29T13:09:10Z</time>
      </trkpt>
      <trkpt lat="46.3427" lon="5.64568">
        <ele>310</ele>
        <time>2022-07-29T13:09:11Z</time>
      </trkpt>
      <trkpt lat="46.34266" lon="5.64563">
        <ele>310.6</ele>
        <time>2022-07-29T13:09:12Z</time>
      </trkpt>
      <trkpt lat="46.34263" lon="5.64559">
        <ele>310.6</ele>
        <time>2022-07-29T13:09:13Z</time>
      </trkpt>
      <trkpt lat="46.3426" lon="5.64554">
        <ele>310.8</ele>
        <time>2022-07-29T13:09:14Z</time>
      </trkpt>
      <trkpt lat="46.34257" lon="5.64549">
        <ele>310.8</ele>
        <time>2022-07-29T13:09:15Z</time>
      </trkpt>
      <trkpt lat="46.34254" lon="5.64545">
        <ele>311.2</ele>
        <time>2022-07-29T13:09:16Z</time>
      </trkpt>
      <trkpt lat="46.3425" lon="5.64541">
        <ele>311.4</ele>
        <time>2022-07-29T13:09:17Z</time>
      </trkpt>
      <trkpt lat="46.34246" lon="5.64537">
        <ele>311.6</ele>
        <time>2022-07-29T13:09:18Z</time>
      </trkpt>
      <trkpt lat="46.34243" lon="5.64533">
        <ele>311.8</ele>
        <time>2022-07-29T13:09:19Z</time>
      </trkpt>
      <trkpt lat="46.34239" lon="5.6453">
        <ele>312.2</ele>
        <time>2022-07-29T13:09:20Z</time>
      </trkpt>
      <trkpt lat="46.34235" lon="5.64528">
        <ele>312.2</ele>
        <time>2022-07-29T13:09:21Z</time>
      </trkpt>
      <trkpt lat="46.34231" lon="5.64526">
        <ele>312.4</ele>
        <time>2022-07-29T13:09:22Z</time>
      </trkpt>
      <trkpt lat="46.34227" lon="5.64524">
        <ele>312.4</ele>
        <time>2022-07-29T13:09:23Z</time>
      </trkpt>
      <trkpt lat="46.34222" lon="5.64523">
        <ele>312.8</ele>
        <time>2022-07-29T13:09:24Z</time>
      </trkpt>
      <trkpt lat="46.34218" lon="5.64522">
        <ele>312.8</ele>
        <time>2022-07-29T13:09:25Z</time>
      </trkpt>
      <trkpt lat="46.34213" lon="5.64522">
        <ele>312.8</ele>
        <time>2022-07-29T13:09:26Z</time>
      </trkpt>
      <trkpt lat="46.34209" lon="5.64522">
        <ele>312.8</ele>
        <time>2022-07-29T13:09:27Z</time>
      </trkpt>
      <trkpt lat="46.34204" lon="5.64522">
        <ele>313</ele>
        <time>2022-07-29T13:09:28Z</time>
      </trkpt>
      <trkpt lat="46.342" lon="5.64523">
        <ele>313</ele>
        <time>2022-07-29T13:09:29Z</time>
      </trkpt>
      <trkpt lat="46.34195" lon="5.64524">
        <ele>313</ele>
        <time>2022-07-29T13:09:30Z</time>
      </trkpt>
      <trkpt lat="46.3419" lon="5.64525">
        <ele>313</ele>
        <time>2022-07-29T13:09:31Z</time>
      </trkpt>
      <trkpt lat="46.34186" lon="5.64526">
        <ele>313.2</ele>
        <time>2022-07-29T13:09:32Z</time>
      </trkpt>
      <trkpt lat="46.34181" lon="5.64528">
        <ele>313.2</ele>
        <time>2022-07-29T13:09:33Z</time>
      </trkpt>
      <trkpt lat="46.34176" lon="5.6453">
        <ele>313.2</ele>
        <time>2022-07-29T13:09:34Z</time>
      </trkpt>
      <trkpt lat="46.34172" lon="5.64533">
        <ele>313.2</ele>
        <time>2022-07-29T13:09:35Z</time>
      </trkpt>
      <trkpt lat="46.34168" lon="5.64536">
        <ele>313.2</ele>
        <time>2022-07-29T13:09:36Z</time>
      </trkpt>
      <trkpt lat="46.34164" lon="5.64539">
        <ele>313.2</ele>
        <time>2022-07-29T13:09:37Z</time>
      </trkpt>
      <trkpt lat="46.3416" lon="5.64542">
        <ele>313.2</ele>
        <time>2022-07-29T13:09:38Z</time>
      </trkpt>
      <trkpt lat="46.34156" lon="5.64546">
        <ele>313.2</ele>
        <time>2022-07-29T13:09:39Z</time>
      </trkpt>
      <trkpt lat="46.34152" lon="5.64549">
        <ele>313.2</ele>
        <time>2022-07-29T13:09:40Z</time>
      </trkpt>
      <trkpt lat="46.34148" lon="5.64554">
        <ele>313.2</ele>
        <time>2022-07-29T13:09:41Z</time>
      </trkpt>
      <trkpt lat="46.34145" lon="5.64558">
        <ele>313.4</ele>
        <time>2022-07-29T13:09:42Z</time>
      </trkpt>
      <trkpt lat="46.34141" lon="5.64563">
        <ele>313.4</ele>
        <time>2022-07-29T13:09:43Z</time>
      </trkpt>
      <trkpt lat="46.34137" lon="5.64567">
        <ele>313.4</ele>
        <time>2022-07-29T13:09:44Z</time>
      </trkpt>
      <trkpt lat="46.34134" lon="5.64571">
        <ele>313.4</ele>
        <time>2022-07-29T13:09:45Z</time>
      </trkpt>
      <trkpt lat="46.3413" lon="5.64575">
        <ele>313.4</ele>
        <time>2022-07-29T13:09:46Z</time>
      </trkpt>
      <trkpt lat="46.34126" lon="5.64579">
        <ele>313.8</ele>
        <time>2022-07-29T13:09:47Z</time>
      </trkpt>
      <trkpt lat="46.34123" lon="5.64584">
        <ele>313.8</ele>
        <time>2022-07-29T13:09:48Z</time>
      </trkpt>
      <trkpt lat="46.34119" lon="5.64588">
        <ele>314</ele>
        <time>2022-07-29T13:09:49Z</time>
      </trkpt>
      <trkpt lat="46.34115" lon="5.64593">
        <ele>314</ele>
        <time>2022-07-29T13:09:50Z</time>
      </trkpt>
      <trkpt lat="46.34112" lon="5.64598">
        <ele>314</ele>
        <time>2022-07-29T13:09:51Z</time>
      </trkpt>
      <trkpt lat="46.34108" lon="5.64603">
        <ele>314</ele>
        <time>2022-07-29T13:09:52Z</time>
      </trkpt>
      <trkpt lat="46.34104" lon="5.64607">
        <ele>314</ele>
        <time>2022-07-29T13:09:53Z</time>
      </trkpt>
      <trkpt lat="46.341" lon="5.64612">
        <ele>314.2</ele>
        <time>2022-07-29T13:09:54Z</time>
      </trkpt>
      <trkpt lat="46.34097" lon="5.64617">
        <ele>314.2</ele>
        <time>2022-07-29T13:09:55Z</time>
      </trkpt>
      <trkpt lat="46.34093" lon="5.64621">
        <ele>314.4</ele>
        <time>2022-07-29T13:09:56Z</time>
      </trkpt>
      <trkpt lat="46.34089" lon="5.64626">
        <ele>314.4</ele>
        <time>2022-07-29T13:09:57Z</time>
      </trkpt>
      <trkpt lat="46.34086" lon="5.6463">
        <ele>314.4</ele>
        <time>2022-07-29T13:09:58Z</time>
      </trkpt>
      <trkpt lat="46.34082" lon="5.64635">
        <ele>314.8</ele>
        <time>2022-07-29T13:09:59Z</time>
      </trkpt>
      <trkpt lat="46.34078" lon="5.64639">
        <ele>314.8</ele>
        <time>2022-07-29T13:10:00Z</time>
      </trkpt>
      <trkpt lat="46.34074" lon="5.64643">
        <ele>315</ele>
        <time>2022-07-29T13:10:01Z</time>
      </trkpt>
      <trkpt lat="46.3407" lon="5.64647">
        <ele>315</ele>
        <time>2022-07-29T13:10:02Z</time>
      </trkpt>
      <trkpt lat="46.34066" lon="5.64651">
        <ele>315.2</ele>
        <time>2022-07-29T13:10:03Z</time>
      </trkpt>
      <trkpt lat="46.34063" lon="5.64655">
        <ele>315.2</ele>
        <time>2022-07-29T13:10:04Z</time>
      </trkpt>
      <trkpt lat="46.34059" lon="5.64658">
        <ele>315.6</ele>
        <time>2022-07-29T13:10:05Z</time>
      </trkpt>
      <trkpt lat="46.34055" lon="5.64661">
        <ele>315.6</ele>
        <time>2022-07-29T13:10:06Z</time>
      </trkpt>
      <trkpt lat="46.34051" lon="5.64664">
        <ele>315.8</ele>
        <time>2022-07-29T13:10:07Z</time>
      </trkpt>
      <trkpt lat="46.34048" lon="5.64667">
        <ele>315.8</ele>
        <time>2022-07-29T13:10:08Z</time>
      </trkpt>
      <trkpt lat="46.34045" lon="5.64669">
        <ele>316.2</ele>
        <time>2022-07-29T13:10:09Z</time>
      </trkpt>
      <trkpt lat="46.34042" lon="5.64671">
        <ele>316.2</ele>
        <time>2022-07-29T13:10:10Z</time>
      </trkpt>
      <trkpt lat="46.34038" lon="5.64671">
        <ele>316.6</ele>
        <time>2022-07-29T13:10:11Z</time>
      </trkpt>
      <trkpt lat="46.34034" lon="5.64672">
        <ele>316.6</ele>
        <time>2022-07-29T13:10:12Z</time>
      </trkpt>
      <trkpt lat="46.3403" lon="5.64672">
        <ele>317</ele>
        <time>2022-07-29T13:10:13Z</time>
      </trkpt>
      <trkpt lat="46.34027" lon="5.64673">
        <ele>317.2</ele>
        <time>2022-07-29T13:10:14Z</time>
      </trkpt>
      <trkpt lat="46.34023" lon="5.64674">
        <ele>317.4</ele>
        <time>2022-07-29T13:10:15Z</time>
      </trkpt>
      <trkpt lat="46.34019" lon="5.64674">
        <ele>317.4</ele>
        <time>2022-07-29T13:10:16Z</time>
      </trkpt>
      <trkpt lat="46.34016" lon="5.64675">
        <ele>318</ele>
        <time>2022-07-29T13:10:17Z</time>
      </trkpt>
      <trkpt lat="46.34012" lon="5.64674">
        <ele>318</ele>
        <time>2022-07-29T13:10:18Z</time>
      </trkpt>
      <trkpt lat="46.34009" lon="5.64674">
        <ele>318.2</ele>
        <time>2022-07-29T13:10:19Z</time>
      </trkpt>
      <trkpt lat="46.34005" lon="5.64674">
        <ele>318.2</ele>
        <time>2022-07-29T13:10:20Z</time>
      </trkpt>
      <trkpt lat="46.34001" lon="5.64674">
        <ele>318.4</ele>
        <time>2022-07-29T13:10:21Z</time>
      </trkpt>
      <trkpt lat="46.33998" lon="5.64675">
        <ele>318.4</ele>
        <time>2022-07-29T13:10:22Z</time>
      </trkpt>
      <trkpt lat="46.33994" lon="5.64675">
        <ele>318.8</ele>
        <time>2022-07-29T13:10:23Z</time>
      </trkpt>
      <trkpt lat="46.33991" lon="5.64676">
        <ele>318.8</ele>
        <time>2022-07-29T13:10:24Z</time>
      </trkpt>
      <trkpt lat="46.33987" lon="5.64676">
        <ele>319</ele>
        <time>2022-07-29T13:10:25Z</time>
      </trkpt>
      <trkpt lat="46.33984" lon="5.64676">
        <ele>319</ele>
        <time>2022-07-29T13:10:26Z</time>
      </trkpt>
      <trkpt lat="46.3398" lon="5.64677">
        <ele>319.4</ele>
        <time>2022-07-29T13:10:27Z</time>
      </trkpt>
      <trkpt lat="46.33977" lon="5.64679">
        <ele>319.4</ele>
        <time>2022-07-29T13:10:28Z</time>
      </trkpt>
      <trkpt lat="46.33973" lon="5.6468">
        <ele>319.6</ele>
        <time>2022-07-29T13:10:29Z</time>
      </trkpt>
      <trkpt lat="46.3397" lon="5.64682">
        <ele>319.6</ele>
        <time>2022-07-29T13:10:30Z</time>
      </trkpt>
      <trkpt lat="46.33966" lon="5.64684">
        <ele>319.6</ele>
        <time>2022-07-29T13:10:31Z</time>
      </trkpt>
      <trkpt lat="46.33963" lon="5.64687">
        <ele>319.8</ele>
        <time>2022-07-29T13:10:32Z</time>
      </trkpt>
      <trkpt lat="46.33959" lon="5.64691">
        <ele>319.8</ele>
        <time>2022-07-29T13:10:33Z</time>
      </trkpt>
      <trkpt lat="46.33955" lon="5.64694">
        <ele>319.8</ele>
        <time>2022-07-29T13:10:34Z</time>
      </trkpt>
      <trkpt lat="46.33952" lon="5.64697">
        <ele>320</ele>
        <time>2022-07-29T13:10:35Z</time>
      </trkpt>
      <trkpt lat="46.33948" lon="5.64699">
        <ele>320</ele>
        <time>2022-07-29T13:10:36Z</time>
      </trkpt>
      <trkpt lat="46.33944" lon="5.64702">
        <ele>320</ele>
        <time>2022-07-29T13:10:37Z</time>
      </trkpt>
      <trkpt lat="46.33941" lon="5.64705">
        <ele>320.4</ele>
        <time>2022-07-29T13:10:38Z</time>
      </trkpt>
      <trkpt lat="46.33937" lon="5.64708">
        <ele>320.4</ele>
        <time>2022-07-29T13:10:39Z</time>
      </trkpt>
      <trkpt lat="46.33933" lon="5.6471">
        <ele>320.6</ele>
        <time>2022-07-29T13:10:40Z</time>
      </trkpt>
      <trkpt lat="46.33929" lon="5.64713">
        <ele>320.6</ele>
        <time>2022-07-29T13:10:41Z</time>
      </trkpt>
      <trkpt lat="46.33925" lon="5.64716">
        <ele>320.6</ele>
        <time>2022-07-29T13:10:42Z</time>
      </trkpt>
      <trkpt lat="46.33921" lon="5.64718">
        <ele>320.8</ele>
        <time>2022-07-29T13:10:43Z</time>
      </trkpt>
      <trkpt lat="46.33917" lon="5.64721">
        <ele>320.8</ele>
        <time>2022-07-29T13:10:44Z</time>
      </trkpt>
      <trkpt lat="46.33912" lon="5.64722">
        <ele>320.8</ele>
        <time>2022-07-29T13:10:45Z</time>
      </trkpt>
      <trkpt lat="46.33908" lon="5.64724">
        <ele>320.8</ele>
        <time>2022-07-29T13:10:46Z</time>
      </trkpt>
      <trkpt lat="46.33903" lon="5.64726">
        <ele>320.8</ele>
        <time>2022-07-29T13:10:47Z</time>
      </trkpt>
      <trkpt lat="46.33899" lon="5.64728">
        <ele>320.8</ele>
        <time>2022-07-29T13:10:48Z</time>
      </trkpt>
      <trkpt lat="46.33894" lon="5.64729">
        <ele>320.8</ele>
        <time>2022-07-29T13:10:49Z</time>
      </trkpt>
      <trkpt lat="46.33889" lon="5.64731">
        <ele>320.8</ele>
        <time>2022-07-29T13:10:50Z</time>
      </trkpt>
      <trkpt lat="46.33884" lon="5.64732">
        <ele>320.8</ele>
        <time>2022-07-29T13:10:51Z</time>
      </trkpt>
      <trkpt lat="46.33879" lon="5.64733">
        <ele>320.8</ele>
        <time>2022-07-29T13:10:52Z</time>
      </trkpt>
      <trkpt lat="46.33874" lon="5.64734">
        <ele>320.8</ele>
        <time>2022-07-29T13:10:53Z</time>
      </trkpt>
      <trkpt lat="46.33869" lon="5.64736">
        <ele>320.8</ele>
        <time>2022-07-29T13:10:54Z</time>
      </trkpt>
      <trkpt lat="46.33865" lon="5.64737">
        <ele>321</ele>
        <time>2022-07-29T13:10:55Z</time>
      </trkpt>
      <trkpt lat="46.3386" lon="5.64738">
        <ele>321</ele>
        <time>2022-07-29T13:10:56Z</time>
      </trkpt>
      <trkpt lat="46.33855" lon="5.64739">
        <ele>321</ele>
        <time>2022-07-29T13:10:57Z</time>
      </trkpt>
      <trkpt lat="46.3385" lon="5.6474">
        <ele>321</ele>
        <time>2022-07-29T13:10:58Z</time>
      </trkpt>
      <trkpt lat="46.33845" lon="5.64741">
        <ele>321.2</ele>
        <time>2022-07-29T13:10:59Z</time>
      </trkpt>
      <trkpt lat="46.33841" lon="5.64742">
        <ele>321.2</ele>
        <time>2022-07-29T13:11:00Z</time>
      </trkpt>
      <trkpt lat="46.33836" lon="5.64743">
        <ele>321.2</ele>
        <time>2022-07-29T13:11:01Z</time>
      </trkpt>
      <trkpt lat="46.33831" lon="5.64743">
        <ele>321.2</ele>
        <time>2022-07-29T13:11:02Z</time>
      </trkpt>
      <trkpt lat="46.33826" lon="5.64745">
        <ele>321.6</ele>
        <time>2022-07-29T13:11:03Z</time>
      </trkpt>
      <trkpt lat="46.33821" lon="5.64746">
        <ele>321.6</ele>
        <time>2022-07-29T13:11:04Z</time>
      </trkpt>
      <trkpt lat="46.33816" lon="5.64746">
        <ele>321.8</ele>
        <time>2022-07-29T13:11:05Z</time>
      </trkpt>
      <trkpt lat="46.33812" lon="5.64747">
        <ele>321.8</ele>
        <time>2022-07-29T13:11:06Z</time>
      </trkpt>
      <trkpt lat="46.33807" lon="5.64747">
        <ele>321.8</ele>
        <time>2022-07-29T13:11:07Z</time>
      </trkpt>
      <trkpt lat="46.33802" lon="5.64748">
        <ele>322</ele>
        <time>2022-07-29T13:11:08Z</time>
      </trkpt>
      <trkpt lat="46.33797" lon="5.64748">
        <ele>322</ele>
        <time>2022-07-29T13:11:09Z</time>
      </trkpt>
      <trkpt lat="46.33792" lon="5.64749">
        <ele>322</ele>
        <time>2022-07-29T13:11:10Z</time>
      </trkpt>
      <trkpt lat="46.33787" lon="5.6475">
        <ele>322</ele>
        <time>2022-07-29T13:11:11Z</time>
      </trkpt>
      <trkpt lat="46.33782" lon="5.64751">
        <ele>322.2</ele>
        <time>2022-07-29T13:11:12Z</time>
      </trkpt>
      <trkpt lat="46.33777" lon="5.64751">
        <ele>322.2</ele>
        <time>2022-07-29T13:11:13Z</time>
      </trkpt>
      <trkpt lat="46.33772" lon="5.64752">
        <ele>322.2</ele>
        <time>2022-07-29T13:11:14Z</time>
      </trkpt>
      <trkpt lat="46.33767" lon="5.64752">
        <ele>322.2</ele>
        <time>2022-07-29T13:11:15Z</time>
      </trkpt>
      <trkpt lat="46.33762" lon="5.64753">
        <ele>322.2</ele>
        <time>2022-07-29T13:11:16Z</time>
      </trkpt>
      <trkpt lat="46.33757" lon="5.64754">
        <ele>322.2</ele>
        <time>2022-07-29T13:11:17Z</time>
      </trkpt>
      <trkpt lat="46.33752" lon="5.64755">
        <ele>322.4</ele>
        <time>2022-07-29T13:11:18Z</time>
      </trkpt>
      <trkpt lat="46.33747" lon="5.64755">
        <ele>322.4</ele>
        <time>2022-07-29T13:11:19Z</time>
      </trkpt>
      <trkpt lat="46.33742" lon="5.64756">
        <ele>322.4</ele>
        <time>2022-07-29T13:11:20Z</time>
      </trkpt>
      <trkpt lat="46.33736" lon="5.64756">
        <ele>322.4</ele>
        <time>2022-07-29T13:11:21Z</time>
      </trkpt>
      <trkpt lat="46.33731" lon="5.64757">
        <ele>322.4</ele>
        <time>2022-07-29T13:11:22Z</time>
      </trkpt>
      <trkpt lat="46.33725" lon="5.64758">
        <ele>322.4</ele>
        <time>2022-07-29T13:11:23Z</time>
      </trkpt>
      <trkpt lat="46.33719" lon="5.64758">
        <ele>322.4</ele>
        <time>2022-07-29T13:11:24Z</time>
      </trkpt>
      <trkpt lat="46.33714" lon="5.64759">
        <ele>322.4</ele>
        <time>2022-07-29T13:11:25Z</time>
      </trkpt>
      <trkpt lat="46.33708" lon="5.6476">
        <ele>322.2</ele>
        <time>2022-07-29T13:11:26Z</time>
      </trkpt>
      <trkpt lat="46.33701" lon="5.64761">
        <ele>322.2</ele>
        <time>2022-07-29T13:11:27Z</time>
      </trkpt>
      <trkpt lat="46.33695" lon="5.64762">
        <ele>322.2</ele>
        <time>2022-07-29T13:11:28Z</time>
      </trkpt>
      <trkpt lat="46.33689" lon="5.64763">
        <ele>322</ele>
        <time>2022-07-29T13:11:29Z</time>
      </trkpt>
      <trkpt lat="46.33682" lon="5.64764">
        <ele>322</ele>
        <time>2022-07-29T13:11:30Z</time>
      </trkpt>
      <trkpt lat="46.33676" lon="5.64766">
        <ele>321.8</ele>
        <time>2022-07-29T13:11:31Z</time>
      </trkpt>
      <trkpt lat="46.3367" lon="5.64768">
        <ele>321.8</ele>
        <time>2022-07-29T13:11:32Z</time>
      </trkpt>
      <trkpt lat="46.33664" lon="5.64769">
        <ele>321.8</ele>
        <time>2022-07-29T13:11:33Z</time>
      </trkpt>
      <trkpt lat="46.33658" lon="5.6477">
        <ele>321.4</ele>
        <time>2022-07-29T13:11:34Z</time>
      </trkpt>
      <trkpt lat="46.33653" lon="5.64772">
        <ele>321.4</ele>
        <time>2022-07-29T13:11:35Z</time>
      </trkpt>
      <trkpt lat="46.33647" lon="5.64773">
        <ele>321.4</ele>
        <time>2022-07-29T13:11:36Z</time>
      </trkpt>
      <trkpt lat="46.33642" lon="5.64774">
        <ele>321.2</ele>
        <time>2022-07-29T13:11:37Z</time>
      </trkpt>
      <trkpt lat="46.33636" lon="5.64775">
        <ele>321.2</ele>
        <time>2022-07-29T13:11:38Z</time>
      </trkpt>
      <trkpt lat="46.33631" lon="5.64776">
        <ele>321.2</ele>
        <time>2022-07-29T13:11:39Z</time>
      </trkpt>
      <trkpt lat="46.33626" lon="5.64777">
        <ele>321.2</ele>
        <time>2022-07-29T13:11:40Z</time>
      </trkpt>
      <trkpt lat="46.33621" lon="5.64778">
        <ele>321</ele>
        <time>2022-07-29T13:11:41Z</time>
      </trkpt>
      <trkpt lat="46.33615" lon="5.64779">
        <ele>321</ele>
        <time>2022-07-29T13:11:42Z</time>
      </trkpt>
      <trkpt lat="46.3361" lon="5.6478">
        <ele>321</ele>
        <time>2022-07-29T13:11:43Z</time>
      </trkpt>
      <trkpt lat="46.33604" lon="5.64781">
        <ele>321</ele>
        <time>2022-07-29T13:11:44Z</time>
      </trkpt>
      <trkpt lat="46.33599" lon="5.64782">
        <ele>321</ele>
        <time>2022-07-29T13:11:45Z</time>
      </trkpt>
      <trkpt lat="46.33593" lon="5.64783">
        <ele>321</ele>
        <time>2022-07-29T13:11:46Z</time>
      </trkpt>
      <trkpt lat="46.33587" lon="5.64785">
        <ele>320.8</ele>
        <time>2022-07-29T13:11:47Z</time>
      </trkpt>
      <trkpt lat="46.33581" lon="5.64786">
        <ele>320.8</ele>
        <time>2022-07-29T13:11:48Z</time>
      </trkpt>
      <trkpt lat="46.33575" lon="5.64787">
        <ele>320.8</ele>
        <time>2022-07-29T13:11:49Z</time>
      </trkpt>
      <trkpt lat="46.3357" lon="5.64788">
        <ele>320.8</ele>
        <time>2022-07-29T13:11:50Z</time>
      </trkpt>
      <trkpt lat="46.33564" lon="5.64789">
        <ele>320.8</ele>
        <time>2022-07-29T13:11:51Z</time>
      </trkpt>
      <trkpt lat="46.33558" lon="5.64791">
        <ele>320.8</ele>
        <time>2022-07-29T13:11:52Z</time>
      </trkpt>
      <trkpt lat="46.33552" lon="5.64792">
        <ele>320.8</ele>
        <time>2022-07-29T13:11:53Z</time>
      </trkpt>
      <trkpt lat="46.33546" lon="5.64794">
        <ele>320.8</ele>
        <time>2022-07-29T13:11:54Z</time>
      </trkpt>
      <trkpt lat="46.3354" lon="5.64795">
        <ele>320.6</ele>
        <time>2022-07-29T13:11:55Z</time>
      </trkpt>
      <trkpt lat="46.33534" lon="5.64796">
        <ele>320.6</ele>
        <time>2022-07-29T13:11:56Z</time>
      </trkpt>
      <trkpt lat="46.33527" lon="5.64797">
        <ele>320.6</ele>
        <time>2022-07-29T13:11:57Z</time>
      </trkpt>
      <trkpt lat="46.33521" lon="5.64798">
        <ele>320.6</ele>
        <time>2022-07-29T13:11:58Z</time>
      </trkpt>
      <trkpt lat="46.33515" lon="5.64799">
        <ele>320.4</ele>
        <time>2022-07-29T13:11:59Z</time>
      </trkpt>
      <trkpt lat="46.33509" lon="5.648">
        <ele>320.4</ele>
        <time>2022-07-29T13:12:00Z</time>
      </trkpt>
      <trkpt lat="46.33503" lon="5.64801">
        <ele>320.4</ele>
        <time>2022-07-29T13:12:01Z</time>
      </trkpt>
      <trkpt lat="46.33497" lon="5.64802">
        <ele>320.4</ele>
        <time>2022-07-29T13:12:02Z</time>
      </trkpt>
      <trkpt lat="46.3349" lon="5.64801">
        <ele>320.4</ele>
        <time>2022-07-29T13:12:03Z</time>
      </trkpt>
      <trkpt lat="46.33484" lon="5.64801">
        <ele>320.4</ele>
        <time>2022-07-29T13:12:04Z</time>
      </trkpt>
      <trkpt lat="46.33478" lon="5.64801">
        <ele>320.4</ele>
        <time>2022-07-29T13:12:05Z</time>
      </trkpt>
      <trkpt lat="46.33472" lon="5.648">
        <ele>320.4</ele>
        <time>2022-07-29T13:12:06Z</time>
      </trkpt>
      <trkpt lat="46.33466" lon="5.648">
        <ele>320.4</ele>
        <time>2022-07-29T13:12:07Z</time>
      </trkpt>
      <trkpt lat="46.3346" lon="5.64799">
        <ele>320.4</ele>
        <time>2022-07-29T13:12:08Z</time>
      </trkpt>
      <trkpt lat="46.33454" lon="5.64798">
        <ele>320.4</ele>
        <time>2022-07-29T13:12:09Z</time>
      </trkpt>
      <trkpt lat="46.33448" lon="5.64797">
        <ele>320.4</ele>
        <time>2022-07-29T13:12:10Z</time>
      </trkpt>
      <trkpt lat="46.33442" lon="5.64796">
        <ele>320.4</ele>
        <time>2022-07-29T13:12:11Z</time>
      </trkpt>
      <trkpt lat="46.33436" lon="5.64794">
        <ele>320.4</ele>
        <time>2022-07-29T13:12:12Z</time>
      </trkpt>
      <trkpt lat="46.3343" lon="5.64792">
        <ele>320.4</ele>
        <time>2022-07-29T13:12:13Z</time>
      </trkpt>
      <trkpt lat="46.33425" lon="5.6479">
        <ele>320.2</ele>
        <time>2022-07-29T13:12:14Z</time>
      </trkpt>
      <trkpt lat="46.3342" lon="5.64788">
        <ele>320.2</ele>
        <time>2022-07-29T13:12:15Z</time>
      </trkpt>
      <trkpt lat="46.33415" lon="5.64787">
        <ele>320.2</ele>
        <time>2022-07-29T13:12:16Z</time>
      </trkpt>
      <trkpt lat="46.3341" lon="5.64785">
        <ele>320.2</ele>
        <time>2022-07-29T13:12:17Z</time>
      </trkpt>
      <trkpt lat="46.33405" lon="5.64783">
        <ele>320.2</ele>
        <time>2022-07-29T13:12:18Z</time>
      </trkpt>
      <trkpt lat="46.33401" lon="5.64781">
        <ele>320.2</ele>
        <time>2022-07-29T13:12:19Z</time>
      </trkpt>
      <trkpt lat="46.33396" lon="5.64779">
        <ele>320.4</ele>
        <time>2022-07-29T13:12:20Z</time>
      </trkpt>
      <trkpt lat="46.33392" lon="5.64777">
        <ele>320.4</ele>
        <time>2022-07-29T13:12:21Z</time>
      </trkpt>
      <trkpt lat="46.33387" lon="5.64775">
        <ele>320.4</ele>
        <time>2022-07-29T13:12:22Z</time>
      </trkpt>
      <trkpt lat="46.33383" lon="5.64773">
        <ele>320.4</ele>
        <time>2022-07-29T13:12:23Z</time>
      </trkpt>
      <trkpt lat="46.33379" lon="5.64771">
        <ele>320.4</ele>
        <time>2022-07-29T13:12:24Z</time>
      </trkpt>
      <trkpt lat="46.33374" lon="5.6477">
        <ele>320.4</ele>
        <time>2022-07-29T13:12:25Z</time>
      </trkpt>
      <trkpt lat="46.3337" lon="5.64768">
        <ele>320.4</ele>
        <time>2022-07-29T13:12:26Z</time>
      </trkpt>
      <trkpt lat="46.33365" lon="5.64766">
        <ele>320.4</ele>
        <time>2022-07-29T13:12:27Z</time>
      </trkpt>
      <trkpt lat="46.33361" lon="5.64765">
        <ele>320.4</ele>
        <time>2022-07-29T13:12:28Z</time>
      </trkpt>
      <trkpt lat="46.33357" lon="5.64763">
        <ele>320.4</ele>
        <time>2022-07-29T13:12:29Z</time>
      </trkpt>
      <trkpt lat="46.33353" lon="5.64762">
        <ele>320.4</ele>
        <time>2022-07-29T13:12:30Z</time>
      </trkpt>
      <trkpt lat="46.33349" lon="5.6476">
        <ele>320.4</ele>
        <time>2022-07-29T13:12:31Z</time>
      </trkpt>
      <trkpt lat="46.33345" lon="5.64759">
        <ele>320.4</ele>
        <time>2022-07-29T13:12:32Z</time>
      </trkpt>
      <trkpt lat="46.33341" lon="5.64757">
        <ele>320.4</ele>
        <time>2022-07-29T13:12:33Z</time>
      </trkpt>
      <trkpt lat="46.33337" lon="5.64755">
        <ele>320.4</ele>
        <time>2022-07-29T13:12:34Z</time>
      </trkpt>
      <trkpt lat="46.33333" lon="5.64754">
        <ele>320.4</ele>
        <time>2022-07-29T13:12:35Z</time>
      </trkpt>
      <trkpt lat="46.33329" lon="5.64752">
        <ele>320.4</ele>
        <time>2022-07-29T13:12:36Z</time>
      </trkpt>
      <trkpt lat="46.33325" lon="5.64751">
        <ele>320.4</ele>
        <time>2022-07-29T13:12:37Z</time>
      </trkpt>
      <trkpt lat="46.33321" lon="5.64749">
        <ele>320.4</ele>
        <time>2022-07-29T13:12:38Z</time>
      </trkpt>
      <trkpt lat="46.33317" lon="5.64748">
        <ele>320.4</ele>
        <time>2022-07-29T13:12:39Z</time>
      </trkpt>
      <trkpt lat="46.33314" lon="5.64747">
        <ele>320.4</ele>
        <time>2022-07-29T13:12:40Z</time>
      </trkpt>
      <trkpt lat="46.3331" lon="5.64745">
        <ele>320.6</ele>
        <time>2022-07-29T13:12:41Z</time>
      </trkpt>
      <trkpt lat="46.33307" lon="5.64743">
        <ele>320.6</ele>
        <time>2022-07-29T13:12:42Z</time>
      </trkpt>
      <trkpt lat="46.33303" lon="5.64742">
        <ele>320.6</ele>
        <time>2022-07-29T13:12:43Z</time>
      </trkpt>
      <trkpt lat="46.33299" lon="5.6474">
        <ele>320.6</ele>
        <time>2022-07-29T13:12:44Z</time>
      </trkpt>
      <trkpt lat="46.33296" lon="5.64739">
        <ele>320.6</ele>
        <time>2022-07-29T13:12:45Z</time>
      </trkpt>
      <trkpt lat="46.33292" lon="5.64738">
        <ele>320.6</ele>
        <time>2022-07-29T13:12:46Z</time>
      </trkpt>
      <trkpt lat="46.33288" lon="5.64736">
        <ele>320.6</ele>
        <time>2022-07-29T13:12:47Z</time>
      </trkpt>
      <trkpt lat="46.33285" lon="5.64735">
        <ele>320.6</ele>
        <time>2022-07-29T13:12:48Z</time>
      </trkpt>
      <trkpt lat="46.33281" lon="5.64734">
        <ele>320.6</ele>
        <time>2022-07-29T13:12:49Z</time>
      </trkpt>
      <trkpt lat="46.33278" lon="5.64733">
        <ele>320.6</ele>
        <time>2022-07-29T13:12:50Z</time>
      </trkpt>
      <trkpt lat="46.33275" lon="5.64732">
        <ele>320.2</ele>
        <time>2022-07-29T13:12:51Z</time>
      </trkpt>
      <trkpt lat="46.33271" lon="5.64732">
        <ele>320.2</ele>
        <time>2022-07-29T13:12:52Z</time>
      </trkpt>
      <trkpt lat="46.33268" lon="5.64731">
        <ele>320</ele>
        <time>2022-07-29T13:12:53Z</time>
      </trkpt>
      <trkpt lat="46.33264" lon="5.64731">
        <ele>320</ele>
        <time>2022-07-29T13:12:54Z</time>
      </trkpt>
      <trkpt lat="46.33261" lon="5.6473">
        <ele>320</ele>
        <time>2022-07-29T13:12:55Z</time>
      </trkpt>
      <trkpt lat="46.33257" lon="5.6473">
        <ele>320</ele>
        <time>2022-07-29T13:12:56Z</time>
      </trkpt>
      <trkpt lat="46.33253" lon="5.64729">
        <ele>320</ele>
        <time>2022-07-29T13:12:57Z</time>
      </trkpt>
      <trkpt lat="46.33249" lon="5.64729">
        <ele>319.8</ele>
        <time>2022-07-29T13:12:58Z</time>
      </trkpt>
      <trkpt lat="46.33245" lon="5.64728">
        <ele>319.8</ele>
        <time>2022-07-29T13:12:59Z</time>
      </trkpt>
      <trkpt lat="46.33241" lon="5.64727">
        <ele>319.6</ele>
        <time>2022-07-29T13:13:00Z</time>
      </trkpt>
      <trkpt lat="46.33237" lon="5.64726">
        <ele>319.6</ele>
        <time>2022-07-29T13:13:01Z</time>
      </trkpt>
      <trkpt lat="46.33233" lon="5.64725">
        <ele>319.4</ele>
        <time>2022-07-29T13:13:02Z</time>
      </trkpt>
      <trkpt lat="46.33229" lon="5.64725">
        <ele>319.4</ele>
        <time>2022-07-29T13:13:03Z</time>
      </trkpt>
      <trkpt lat="46.33225" lon="5.64724">
        <ele>319.4</ele>
        <time>2022-07-29T13:13:04Z</time>
      </trkpt>
      <trkpt lat="46.33221" lon="5.64724">
        <ele>319.4</ele>
        <time>2022-07-29T13:13:05Z</time>
      </trkpt>
      <trkpt lat="46.33217" lon="5.64723">
        <ele>319</ele>
        <time>2022-07-29T13:13:06Z</time>
      </trkpt>
      <trkpt lat="46.33213" lon="5.64723">
        <ele>318.8</ele>
        <time>2022-07-29T13:13:07Z</time>
      </trkpt>
      <trkpt lat="46.33209" lon="5.64723">
        <ele>318.8</ele>
        <time>2022-07-29T13:13:08Z</time>
      </trkpt>
      <trkpt lat="46.33205" lon="5.64722">
        <ele>318.6</ele>
        <time>2022-07-29T13:13:09Z</time>
      </trkpt>
      <trkpt lat="46.33201" lon="5.64722">
        <ele>318.6</ele>
        <time>2022-07-29T13:13:10Z</time>
      </trkpt>
      <trkpt lat="46.33197" lon="5.64721">
        <ele>318.6</ele>
        <time>2022-07-29T13:13:11Z</time>
      </trkpt>
      <trkpt lat="46.33193" lon="5.64721">
        <ele>318.6</ele>
        <time>2022-07-29T13:13:12Z</time>
      </trkpt>
      <trkpt lat="46.33188" lon="5.6472">
        <ele>318.6</ele>
        <time>2022-07-29T13:13:13Z</time>
      </trkpt>
      <trkpt lat="46.33184" lon="5.64719">
        <ele>318.2</ele>
        <time>2022-07-29T13:13:14Z</time>
      </trkpt>
      <trkpt lat="46.3318" lon="5.64718">
        <ele>318.2</ele>
        <time>2022-07-29T13:13:15Z</time>
      </trkpt>
      <trkpt lat="46.33176" lon="5.64717">
        <ele>318.2</ele>
        <time>2022-07-29T13:13:16Z</time>
      </trkpt>
      <trkpt lat="46.33171" lon="5.64717">
        <ele>318</ele>
        <time>2022-07-29T13:13:17Z</time>
      </trkpt>
      <trkpt lat="46.33167" lon="5.64717">
        <ele>318</ele>
        <time>2022-07-29T13:13:18Z</time>
      </trkpt>
      <trkpt lat="46.33162" lon="5.64716">
        <ele>318</ele>
        <time>2022-07-29T13:13:19Z</time>
      </trkpt>
      <trkpt lat="46.33157" lon="5.64715">
        <ele>317.8</ele>
        <time>2022-07-29T13:13:20Z</time>
      </trkpt>
      <trkpt lat="46.33152" lon="5.64714">
        <ele>317.8</ele>
        <time>2022-07-29T13:13:21Z</time>
      </trkpt>
      <trkpt lat="46.33147" lon="5.64713">
        <ele>317.6</ele>
        <time>2022-07-29T13:13:22Z</time>
      </trkpt>
      <trkpt lat="46.33141" lon="5.64711">
        <ele>317.6</ele>
        <time>2022-07-29T13:13:23Z</time>
      </trkpt>
      <trkpt lat="46.33135" lon="5.64709">
        <ele>317.2</ele>
        <time>2022-07-29T13:13:24Z</time>
      </trkpt>
      <trkpt lat="46.33129" lon="5.64706">
        <ele>317.2</ele>
        <time>2022-07-29T13:13:25Z</time>
      </trkpt>
      <trkpt lat="46.33123" lon="5.64705">
        <ele>317.2</ele>
        <time>2022-07-29T13:13:26Z</time>
      </trkpt>
      <trkpt lat="46.33117" lon="5.64703">
        <ele>317</ele>
        <time>2022-07-29T13:13:27Z</time>
      </trkpt>
      <trkpt lat="46.33111" lon="5.64701">
        <ele>317</ele>
        <time>2022-07-29T13:13:28Z</time>
      </trkpt>
      <trkpt lat="46.33105" lon="5.64699">
        <ele>316.8</ele>
        <time>2022-07-29T13:13:29Z</time>
      </trkpt>
      <trkpt lat="46.33098" lon="5.64697">
        <ele>316.8</ele>
        <time>2022-07-29T13:13:30Z</time>
      </trkpt>
      <trkpt lat="46.33092" lon="5.64694">
        <ele>316.4</ele>
        <time>2022-07-29T13:13:31Z</time>
      </trkpt>
      <trkpt lat="46.33086" lon="5.64691">
        <ele>316.4</ele>
        <time>2022-07-29T13:13:32Z</time>
      </trkpt>
      <trkpt lat="46.3308" lon="5.64689">
        <ele>316.2</ele>
        <time>2022-07-29T13:13:33Z</time>
      </trkpt>
      <trkpt lat="46.33074" lon="5.64687">
        <ele>316.2</ele>
        <time>2022-07-29T13:13:34Z</time>
      </trkpt>
      <trkpt lat="46.33068" lon="5.64684">
        <ele>315.8</ele>
        <time>2022-07-29T13:13:35Z</time>
      </trkpt>
      <trkpt lat="46.33062" lon="5.64682">
        <ele>315.8</ele>
        <time>2022-07-29T13:13:36Z</time>
      </trkpt>
      <trkpt lat="46.33056" lon="5.6468">
        <ele>315.6</ele>
        <time>2022-07-29T13:13:37Z</time>
      </trkpt>
      <trkpt lat="46.33051" lon="5.64677">
        <ele>315.6</ele>
        <time>2022-07-29T13:13:38Z</time>
      </trkpt>
      <trkpt lat="46.33045" lon="5.64673">
        <ele>315.4</ele>
        <time>2022-07-29T13:13:39Z</time>
      </trkpt>
      <trkpt lat="46.3304" lon="5.6467">
        <ele>315.4</ele>
        <time>2022-07-29T13:13:40Z</time>
      </trkpt>
      <trkpt lat="46.33035" lon="5.64667">
        <ele>315.4</ele>
        <time>2022-07-29T13:13:41Z</time>
      </trkpt>
      <trkpt lat="46.33029" lon="5.64664">
        <ele>315.4</ele>
        <time>2022-07-29T13:13:42Z</time>
      </trkpt>
      <trkpt lat="46.33024" lon="5.6466">
        <ele>315.4</ele>
        <time>2022-07-29T13:13:43Z</time>
      </trkpt>
      <trkpt lat="46.33019" lon="5.64657">
        <ele>315.4</ele>
        <time>2022-07-29T13:13:44Z</time>
      </trkpt>
      <trkpt lat="46.33013" lon="5.64653">
        <ele>315.2</ele>
        <time>2022-07-29T13:13:45Z</time>
      </trkpt>
      <trkpt lat="46.33008" lon="5.6465">
        <ele>315.2</ele>
        <time>2022-07-29T13:13:46Z</time>
      </trkpt>
      <trkpt lat="46.33002" lon="5.64646">
        <ele>315.2</ele>
        <time>2022-07-29T13:13:47Z</time>
      </trkpt>
      <trkpt lat="46.32997" lon="5.64642">
        <ele>315.2</ele>
        <time>2022-07-29T13:13:48Z</time>
      </trkpt>
      <trkpt lat="46.32991" lon="5.64638">
        <ele>315</ele>
        <time>2022-07-29T13:13:49Z</time>
      </trkpt>
      <trkpt lat="46.32986" lon="5.64634">
        <ele>315</ele>
        <time>2022-07-29T13:13:50Z</time>
      </trkpt>
      <trkpt lat="46.3298" lon="5.6463">
        <ele>315</ele>
        <time>2022-07-29T13:13:51Z</time>
      </trkpt>
      <trkpt lat="46.32974" lon="5.64626">
        <ele>314.6</ele>
        <time>2022-07-29T13:13:52Z</time>
      </trkpt>
      <trkpt lat="46.32968" lon="5.64621">
        <ele>314.6</ele>
        <time>2022-07-29T13:13:53Z</time>
      </trkpt>
      <trkpt lat="46.32963" lon="5.64617">
        <ele>314.6</ele>
        <time>2022-07-29T13:13:54Z</time>
      </trkpt>
      <trkpt lat="46.32957" lon="5.64612">
        <ele>314.6</ele>
        <time>2022-07-29T13:13:55Z</time>
      </trkpt>
      <trkpt lat="46.32951" lon="5.64608">
        <ele>314.4</ele>
        <time>2022-07-29T13:13:56Z</time>
      </trkpt>
      <trkpt lat="46.32945" lon="5.64603">
        <ele>314.4</ele>
        <time>2022-07-29T13:13:57Z</time>
      </trkpt>
      <trkpt lat="46.32938" lon="5.64598">
        <ele>314.4</ele>
        <time>2022-07-29T13:13:58Z</time>
      </trkpt>
      <trkpt lat="46.32933" lon="5.64592">
        <ele>314.4</ele>
        <time>2022-07-29T13:13:59Z</time>
      </trkpt>
      <trkpt lat="46.32927" lon="5.64587">
        <ele>314.2</ele>
        <time>2022-07-29T13:14:00Z</time>
      </trkpt>
      <trkpt lat="46.32921" lon="5.64581">
        <ele>314.2</ele>
        <time>2022-07-29T13:14:01Z</time>
      </trkpt>
      <trkpt lat="46.32916" lon="5.64575">
        <ele>314.2</ele>
        <time>2022-07-29T13:14:02Z</time>
      </trkpt>
      <trkpt lat="46.3291" lon="5.64569">
        <ele>314.2</ele>
        <time>2022-07-29T13:14:03Z</time>
      </trkpt>
      <trkpt lat="46.32905" lon="5.64564">
        <ele>314.2</ele>
        <time>2022-07-29T13:14:04Z</time>
      </trkpt>
      <trkpt lat="46.329" lon="5.64558">
        <ele>314.2</ele>
        <time>2022-07-29T13:14:05Z</time>
      </trkpt>
      <trkpt lat="46.32895" lon="5.64553">
        <ele>314.2</ele>
        <time>2022-07-29T13:14:06Z</time>
      </trkpt>
      <trkpt lat="46.32889" lon="5.64548">
        <ele>314.2</ele>
        <time>2022-07-29T13:14:07Z</time>
      </trkpt>
      <trkpt lat="46.32884" lon="5.64542">
        <ele>314.2</ele>
        <time>2022-07-29T13:14:08Z</time>
      </trkpt>
      <trkpt lat="46.32879" lon="5.64537">
        <ele>314.2</ele>
        <time>2022-07-29T13:14:09Z</time>
      </trkpt>
      <trkpt lat="46.32874" lon="5.64532">
        <ele>314.2</ele>
        <time>2022-07-29T13:14:10Z</time>
      </trkpt>
      <trkpt lat="46.32869" lon="5.64527">
        <ele>314.2</ele>
        <time>2022-07-29T13:14:11Z</time>
      </trkpt>
      <trkpt lat="46.32865" lon="5.64521">
        <ele>314.2</ele>
        <time>2022-07-29T13:14:12Z</time>
      </trkpt>
      <trkpt lat="46.3286" lon="5.64516">
        <ele>314.2</ele>
        <time>2022-07-29T13:14:13Z</time>
      </trkpt>
      <trkpt lat="46.32855" lon="5.64512">
        <ele>314.2</ele>
        <time>2022-07-29T13:14:14Z</time>
      </trkpt>
      <trkpt lat="46.3285" lon="5.64507">
        <ele>314.2</ele>
        <time>2022-07-29T13:14:15Z</time>
      </trkpt>
      <trkpt lat="46.32845" lon="5.64502">
        <ele>314.4</ele>
        <time>2022-07-29T13:14:16Z</time>
      </trkpt>
      <trkpt lat="46.3284" lon="5.64498">
        <ele>314.4</ele>
        <time>2022-07-29T13:14:17Z</time>
      </trkpt>
      <trkpt lat="46.32836" lon="5.64494">
        <ele>314.4</ele>
        <time>2022-07-29T13:14:18Z</time>
      </trkpt>
      <trkpt lat="46.32831" lon="5.6449">
        <ele>314.4</ele>
        <time>2022-07-29T13:14:19Z</time>
      </trkpt>
      <trkpt lat="46.32826" lon="5.64485">
        <ele>314.6</ele>
        <time>2022-07-29T13:14:20Z</time>
      </trkpt>
      <trkpt lat="46.32821" lon="5.64481">
        <ele>314.6</ele>
        <time>2022-07-29T13:14:21Z</time>
      </trkpt>
      <trkpt lat="46.32816" lon="5.64477">
        <ele>314.6</ele>
        <time>2022-07-29T13:14:22Z</time>
      </trkpt>
      <trkpt lat="46.32811" lon="5.64472">
        <ele>314.6</ele>
        <time>2022-07-29T13:14:23Z</time>
      </trkpt>
      <trkpt lat="46.32806" lon="5.64468">
        <ele>314.6</ele>
        <time>2022-07-29T13:14:24Z</time>
      </trkpt>
      <trkpt lat="46.32801" lon="5.64463">
        <ele>314.6</ele>
        <time>2022-07-29T13:14:25Z</time>
      </trkpt>
      <trkpt lat="46.32796" lon="5.64458">
        <ele>314.2</ele>
        <time>2022-07-29T13:14:26Z</time>
      </trkpt>
      <trkpt lat="46.32791" lon="5.64452">
        <ele>314.2</ele>
        <time>2022-07-29T13:14:27Z</time>
      </trkpt>
      <trkpt lat="46.32786" lon="5.64447">
        <ele>314</ele>
        <time>2022-07-29T13:14:28Z</time>
      </trkpt>
      <trkpt lat="46.3278" lon="5.64442">
        <ele>314</ele>
        <time>2022-07-29T13:14:29Z</time>
      </trkpt>
      <trkpt lat="46.32775" lon="5.64436">
        <ele>313.6</ele>
        <time>2022-07-29T13:14:30Z</time>
      </trkpt>
      <trkpt lat="46.32769" lon="5.6443">
        <ele>313.6</ele>
        <time>2022-07-29T13:14:31Z</time>
      </trkpt>
      <trkpt lat="46.32763" lon="5.64425">
        <ele>313.2</ele>
        <time>2022-07-29T13:14:32Z</time>
      </trkpt>
      <trkpt lat="46.32757" lon="5.64419">
        <ele>313.2</ele>
        <time>2022-07-29T13:14:33Z</time>
      </trkpt>
      <trkpt lat="46.32751" lon="5.64414">
        <ele>313</ele>
        <time>2022-07-29T13:14:34Z</time>
      </trkpt>
      <trkpt lat="46.32744" lon="5.64409">
        <ele>313</ele>
        <time>2022-07-29T13:14:35Z</time>
      </trkpt>
      <trkpt lat="46.32738" lon="5.64405">
        <ele>312.8</ele>
        <time>2022-07-29T13:14:36Z</time>
      </trkpt>
      <trkpt lat="46.32731" lon="5.64401">
        <ele>312.8</ele>
        <time>2022-07-29T13:14:37Z</time>
      </trkpt>
      <trkpt lat="46.32725" lon="5.64397">
        <ele>312.8</ele>
        <time>2022-07-29T13:14:38Z</time>
      </trkpt>
      <trkpt lat="46.32718" lon="5.64393">
        <ele>312.8</ele>
        <time>2022-07-29T13:14:39Z</time>
      </trkpt>
      <trkpt lat="46.32712" lon="5.64389">
        <ele>312.8</ele>
        <time>2022-07-29T13:14:40Z</time>
      </trkpt>
      <trkpt lat="46.32705" lon="5.64387">
        <ele>312.8</ele>
        <time>2022-07-29T13:14:41Z</time>
      </trkpt>
      <trkpt lat="46.32692" lon="5.64383">
        <ele>312.8</ele>
        <time>2022-07-29T13:14:42Z</time>
      </trkpt>
      <trkpt lat="46.32686" lon="5.64381">
        <ele>312.8</ele>
        <time>2022-07-29T13:14:43Z</time>
      </trkpt>
      <trkpt lat="46.3268" lon="5.64379">
        <ele>312.8</ele>
        <time>2022-07-29T13:14:44Z</time>
      </trkpt>
      <trkpt lat="46.32673" lon="5.64377">
        <ele>312.8</ele>
        <time>2022-07-29T13:14:45Z</time>
      </trkpt>
      <trkpt lat="46.32667" lon="5.64376">
        <ele>312.8</ele>
        <time>2022-07-29T13:14:46Z</time>
      </trkpt>
      <trkpt lat="46.32661" lon="5.64374">
        <ele>312.8</ele>
        <time>2022-07-29T13:14:47Z</time>
      </trkpt>
      <trkpt lat="46.32655" lon="5.64374">
        <ele>312.8</ele>
        <time>2022-07-29T13:14:48Z</time>
      </trkpt>
      <trkpt lat="46.32649" lon="5.64373">
        <ele>312.8</ele>
        <time>2022-07-29T13:14:49Z</time>
      </trkpt>
      <trkpt lat="46.32643" lon="5.64372">
        <ele>312.8</ele>
        <time>2022-07-29T13:14:50Z</time>
      </trkpt>
      <trkpt lat="46.32637" lon="5.64372">
        <ele>312.8</ele>
        <time>2022-07-29T13:14:51Z</time>
      </trkpt>
      <trkpt lat="46.32631" lon="5.64371">
        <ele>312.8</ele>
        <time>2022-07-29T13:14:52Z</time>
      </trkpt>
      <trkpt lat="46.32625" lon="5.6437">
        <ele>312.8</ele>
        <time>2022-07-29T13:14:53Z</time>
      </trkpt>
      <trkpt lat="46.32619" lon="5.6437">
        <ele>312.8</ele>
        <time>2022-07-29T13:14:54Z</time>
      </trkpt>
      <trkpt lat="46.32613" lon="5.6437">
        <ele>312.8</ele>
        <time>2022-07-29T13:14:55Z</time>
      </trkpt>
      <trkpt lat="46.32607" lon="5.6437">
        <ele>312.8</ele>
        <time>2022-07-29T13:14:56Z</time>
      </trkpt>
      <trkpt lat="46.32601" lon="5.6437">
        <ele>313</ele>
        <time>2022-07-29T13:14:57Z</time>
      </trkpt>
      <trkpt lat="46.32595" lon="5.64371">
        <ele>313</ele>
        <time>2022-07-29T13:14:58Z</time>
      </trkpt>
      <trkpt lat="46.32589" lon="5.64371">
        <ele>313</ele>
        <time>2022-07-29T13:14:59Z</time>
      </trkpt>
      <trkpt lat="46.32583" lon="5.64371">
        <ele>313</ele>
        <time>2022-07-29T13:15:00Z</time>
      </trkpt>
      <trkpt lat="46.32577" lon="5.64372">
        <ele>313</ele>
        <time>2022-07-29T13:15:01Z</time>
      </trkpt>
      <trkpt lat="46.32571" lon="5.64372">
        <ele>313</ele>
        <time>2022-07-29T13:15:02Z</time>
      </trkpt>
      <trkpt lat="46.32565" lon="5.64372">
        <ele>313</ele>
        <time>2022-07-29T13:15:03Z</time>
      </trkpt>
      <trkpt lat="46.32558" lon="5.64372">
        <ele>313</ele>
        <time>2022-07-29T13:15:04Z</time>
      </trkpt>
      <trkpt lat="46.32552" lon="5.64372">
        <ele>312.8</ele>
        <time>2022-07-29T13:15:05Z</time>
      </trkpt>
      <trkpt lat="46.32545" lon="5.64372">
        <ele>312.8</ele>
        <time>2022-07-29T13:15:06Z</time>
      </trkpt>
      <trkpt lat="46.32539" lon="5.64372">
        <ele>312.8</ele>
        <time>2022-07-29T13:15:07Z</time>
      </trkpt>
      <trkpt lat="46.32532" lon="5.64371">
        <ele>312.4</ele>
        <time>2022-07-29T13:15:08Z</time>
      </trkpt>
      <trkpt lat="46.32525" lon="5.64372">
        <ele>312.4</ele>
        <time>2022-07-29T13:15:09Z</time>
      </trkpt>
      <trkpt lat="46.32518" lon="5.64372">
        <ele>312</ele>
        <time>2022-07-29T13:15:10Z</time>
      </trkpt>
      <trkpt lat="46.32511" lon="5.64373">
        <ele>311.8</ele>
        <time>2022-07-29T13:15:11Z</time>
      </trkpt>
      <trkpt lat="46.32503" lon="5.64375">
        <ele>311.6</ele>
        <time>2022-07-29T13:15:12Z</time>
      </trkpt>
      <trkpt lat="46.32496" lon="5.64377">
        <ele>311.6</ele>
        <time>2022-07-29T13:15:13Z</time>
      </trkpt>
      <trkpt lat="46.32488" lon="5.6438">
        <ele>311.2</ele>
        <time>2022-07-29T13:15:14Z</time>
      </trkpt>
      <trkpt lat="46.32481" lon="5.64383">
        <ele>311.2</ele>
        <time>2022-07-29T13:15:15Z</time>
      </trkpt>
      <trkpt lat="46.32474" lon="5.64387">
        <ele>310.8</ele>
        <time>2022-07-29T13:15:16Z</time>
      </trkpt>
      <trkpt lat="46.32467" lon="5.64392">
        <ele>310.8</ele>
        <time>2022-07-29T13:15:17Z</time>
      </trkpt>
      <trkpt lat="46.3246" lon="5.64397">
        <ele>310.6</ele>
        <time>2022-07-29T13:15:18Z</time>
      </trkpt>
      <trkpt lat="46.32454" lon="5.64403">
        <ele>310.6</ele>
        <time>2022-07-29T13:15:19Z</time>
      </trkpt>
      <trkpt lat="46.32448" lon="5.64409">
        <ele>310.4</ele>
        <time>2022-07-29T13:15:20Z</time>
      </trkpt>
      <trkpt lat="46.32442" lon="5.64415">
        <ele>310.4</ele>
        <time>2022-07-29T13:15:21Z</time>
      </trkpt>
      <trkpt lat="46.32436" lon="5.64421">
        <ele>310.4</ele>
        <time>2022-07-29T13:15:22Z</time>
      </trkpt>
      <trkpt lat="46.3243" lon="5.64428">
        <ele>310</ele>
        <time>2022-07-29T13:15:23Z</time>
      </trkpt>
      <trkpt lat="46.32425" lon="5.64434">
        <ele>310</ele>
        <time>2022-07-29T13:15:24Z</time>
      </trkpt>
      <trkpt lat="46.32419" lon="5.6444">
        <ele>310</ele>
        <time>2022-07-29T13:15:25Z</time>
      </trkpt>
      <trkpt lat="46.32413" lon="5.64446">
        <ele>310</ele>
        <time>2022-07-29T13:15:26Z</time>
      </trkpt>
      <trkpt lat="46.32407" lon="5.64453">
        <ele>310</ele>
        <time>2022-07-29T13:15:27Z</time>
      </trkpt>
      <trkpt lat="46.32402" lon="5.64459">
        <ele>310</ele>
        <time>2022-07-29T13:15:28Z</time>
      </trkpt>
      <trkpt lat="46.32396" lon="5.64465">
        <ele>309.8</ele>
        <time>2022-07-29T13:15:29Z</time>
      </trkpt>
      <trkpt lat="46.3239" lon="5.64471">
        <ele>309.8</ele>
        <time>2022-07-29T13:15:30Z</time>
      </trkpt>
      <trkpt lat="46.32384" lon="5.64477">
        <ele>309.8</ele>
        <time>2022-07-29T13:15:31Z</time>
      </trkpt>
      <trkpt lat="46.32379" lon="5.64484">
        <ele>309.8</ele>
        <time>2022-07-29T13:15:32Z</time>
      </trkpt>
      <trkpt lat="46.32373" lon="5.6449">
        <ele>309.8</ele>
        <time>2022-07-29T13:15:33Z</time>
      </trkpt>
      <trkpt lat="46.32367" lon="5.64497">
        <ele>309.8</ele>
        <time>2022-07-29T13:15:34Z</time>
      </trkpt>
      <trkpt lat="46.32361" lon="5.64503">
        <ele>309.8</ele>
        <time>2022-07-29T13:15:35Z</time>
      </trkpt>
      <trkpt lat="46.32356" lon="5.6451">
        <ele>309.6</ele>
        <time>2022-07-29T13:15:36Z</time>
      </trkpt>
      <trkpt lat="46.3235" lon="5.64517">
        <ele>309.6</ele>
        <time>2022-07-29T13:15:37Z</time>
      </trkpt>
      <trkpt lat="46.32344" lon="5.64524">
        <ele>309.6</ele>
        <time>2022-07-29T13:15:38Z</time>
      </trkpt>
      <trkpt lat="46.32339" lon="5.64531">
        <ele>309.6</ele>
        <time>2022-07-29T13:15:39Z</time>
      </trkpt>
      <trkpt lat="46.32335" lon="5.64539">
        <ele>309.2</ele>
        <time>2022-07-29T13:15:40Z</time>
      </trkpt>
      <trkpt lat="46.3233" lon="5.64547">
        <ele>309.2</ele>
        <time>2022-07-29T13:15:41Z</time>
      </trkpt>
      <trkpt lat="46.32326" lon="5.64555">
        <ele>309.2</ele>
        <time>2022-07-29T13:15:42Z</time>
      </trkpt>
      <trkpt lat="46.32322" lon="5.64564">
        <ele>309</ele>
        <time>2022-07-29T13:15:43Z</time>
      </trkpt>
      <trkpt lat="46.32319" lon="5.64572">
        <ele>309</ele>
        <time>2022-07-29T13:15:44Z</time>
      </trkpt>
      <trkpt lat="46.32315" lon="5.64581">
        <ele>309</ele>
        <time>2022-07-29T13:15:45Z</time>
      </trkpt>
      <trkpt lat="46.32312" lon="5.6459">
        <ele>309</ele>
        <time>2022-07-29T13:15:46Z</time>
      </trkpt>
      <trkpt lat="46.32309" lon="5.64599">
        <ele>309</ele>
        <time>2022-07-29T13:15:47Z</time>
      </trkpt>
      <trkpt lat="46.32307" lon="5.64608">
        <ele>309</ele>
        <time>2022-07-29T13:15:48Z</time>
      </trkpt>
      <trkpt lat="46.32304" lon="5.64617">
        <ele>309</ele>
        <time>2022-07-29T13:15:49Z</time>
      </trkpt>
      <trkpt lat="46.32302" lon="5.64625">
        <ele>309</ele>
        <time>2022-07-29T13:15:50Z</time>
      </trkpt>
      <trkpt lat="46.32299" lon="5.64634">
        <ele>309</ele>
        <time>2022-07-29T13:15:51Z</time>
      </trkpt>
      <trkpt lat="46.32297" lon="5.64643">
        <ele>309</ele>
        <time>2022-07-29T13:15:52Z</time>
      </trkpt>
      <trkpt lat="46.32295" lon="5.64652">
        <ele>309</ele>
        <time>2022-07-29T13:15:53Z</time>
      </trkpt>
      <trkpt lat="46.32294" lon="5.64661">
        <ele>309</ele>
        <time>2022-07-29T13:15:54Z</time>
      </trkpt>
      <trkpt lat="46.32293" lon="5.6467">
        <ele>309</ele>
        <time>2022-07-29T13:15:55Z</time>
      </trkpt>
      <trkpt lat="46.32291" lon="5.6468">
        <ele>309</ele>
        <time>2022-07-29T13:15:56Z</time>
      </trkpt>
      <trkpt lat="46.3229" lon="5.64689">
        <ele>308.8</ele>
        <time>2022-07-29T13:15:57Z</time>
      </trkpt>
      <trkpt lat="46.3229" lon="5.64699">
        <ele>308.8</ele>
        <time>2022-07-29T13:15:58Z</time>
      </trkpt>
      <trkpt lat="46.3229" lon="5.64709">
        <ele>308.8</ele>
        <time>2022-07-29T13:15:59Z</time>
      </trkpt>
      <trkpt lat="46.32289" lon="5.64719">
        <ele>308.6</ele>
        <time>2022-07-29T13:16:00Z</time>
      </trkpt>
      <trkpt lat="46.32289" lon="5.64728">
        <ele>308.6</ele>
        <time>2022-07-29T13:16:01Z</time>
      </trkpt>
      <trkpt lat="46.3229" lon="5.64738">
        <ele>308.6</ele>
        <time>2022-07-29T13:16:02Z</time>
      </trkpt>
      <trkpt lat="46.3229" lon="5.64747">
        <ele>308.6</ele>
        <time>2022-07-29T13:16:03Z</time>
      </trkpt>
      <trkpt lat="46.32291" lon="5.64756">
        <ele>308.6</ele>
        <time>2022-07-29T13:16:04Z</time>
      </trkpt>
      <trkpt lat="46.32291" lon="5.64765">
        <ele>308.6</ele>
        <time>2022-07-29T13:16:05Z</time>
      </trkpt>
      <trkpt lat="46.32292" lon="5.64774">
        <ele>308.6</ele>
        <time>2022-07-29T13:16:06Z</time>
      </trkpt>
      <trkpt lat="46.32292" lon="5.64784">
        <ele>308.6</ele>
        <time>2022-07-29T13:16:07Z</time>
      </trkpt>
      <trkpt lat="46.32293" lon="5.64793">
        <ele>308.6</ele>
        <time>2022-07-29T13:16:08Z</time>
      </trkpt>
      <trkpt lat="46.32293" lon="5.64803">
        <ele>308.6</ele>
        <time>2022-07-29T13:16:09Z</time>
      </trkpt>
      <trkpt lat="46.32294" lon="5.64812">
        <ele>308.6</ele>
        <time>2022-07-29T13:16:10Z</time>
      </trkpt>
      <trkpt lat="46.32294" lon="5.64822">
        <ele>308.6</ele>
        <time>2022-07-29T13:16:11Z</time>
      </trkpt>
      <trkpt lat="46.32294" lon="5.64831">
        <ele>308.6</ele>
        <time>2022-07-29T13:16:12Z</time>
      </trkpt>
      <trkpt lat="46.32294" lon="5.6484">
        <ele>308.6</ele>
        <time>2022-07-29T13:16:13Z</time>
      </trkpt>
      <trkpt lat="46.32294" lon="5.64849">
        <ele>308.6</ele>
        <time>2022-07-29T13:16:14Z</time>
      </trkpt>
      <trkpt lat="46.32295" lon="5.64859">
        <ele>308.8</ele>
        <time>2022-07-29T13:16:15Z</time>
      </trkpt>
      <trkpt lat="46.32295" lon="5.64868">
        <ele>308.8</ele>
        <time>2022-07-29T13:16:16Z</time>
      </trkpt>
      <trkpt lat="46.32295" lon="5.64877">
        <ele>308.8</ele>
        <time>2022-07-29T13:16:17Z</time>
      </trkpt>
      <trkpt lat="46.32295" lon="5.64886">
        <ele>308.8</ele>
        <time>2022-07-29T13:16:18Z</time>
      </trkpt>
      <trkpt lat="46.32295" lon="5.64895">
        <ele>308.8</ele>
        <time>2022-07-29T13:16:19Z</time>
      </trkpt>
      <trkpt lat="46.32295" lon="5.64903">
        <ele>308.8</ele>
        <time>2022-07-29T13:16:20Z</time>
      </trkpt>
      <trkpt lat="46.32296" lon="5.64912">
        <ele>308.8</ele>
        <time>2022-07-29T13:16:21Z</time>
      </trkpt>
      <trkpt lat="46.32296" lon="5.6492">
        <ele>308.8</ele>
        <time>2022-07-29T13:16:22Z</time>
      </trkpt>
      <trkpt lat="46.32296" lon="5.64929">
        <ele>309</ele>
        <time>2022-07-29T13:16:23Z</time>
      </trkpt>
      <trkpt lat="46.32295" lon="5.64937">
        <ele>309</ele>
        <time>2022-07-29T13:16:24Z</time>
      </trkpt>
      <trkpt lat="46.32295" lon="5.64945">
        <ele>309.2</ele>
        <time>2022-07-29T13:16:25Z</time>
      </trkpt>
      <trkpt lat="46.32294" lon="5.64954">
        <ele>309.2</ele>
        <time>2022-07-29T13:16:26Z</time>
      </trkpt>
      <trkpt lat="46.32294" lon="5.64961">
        <ele>309.2</ele>
        <time>2022-07-29T13:16:27Z</time>
      </trkpt>
      <trkpt lat="46.32293" lon="5.64969">
        <ele>309.4</ele>
        <time>2022-07-29T13:16:28Z</time>
      </trkpt>
      <trkpt lat="46.32292" lon="5.64976">
        <ele>309.4</ele>
        <time>2022-07-29T13:16:29Z</time>
      </trkpt>
      <trkpt lat="46.3229" lon="5.64984">
        <ele>309.8</ele>
        <time>2022-07-29T13:16:30Z</time>
      </trkpt>
      <trkpt lat="46.32289" lon="5.64991">
        <ele>309.8</ele>
        <time>2022-07-29T13:16:31Z</time>
      </trkpt>
      <trkpt lat="46.32287" lon="5.64998">
        <ele>310</ele>
        <time>2022-07-29T13:16:32Z</time>
      </trkpt>
      <trkpt lat="46.32285" lon="5.65004">
        <ele>310</ele>
        <time>2022-07-29T13:16:33Z</time>
      </trkpt>
      <trkpt lat="46.32284" lon="5.65012">
        <ele>310</ele>
        <time>2022-07-29T13:16:34Z</time>
      </trkpt>
      <trkpt lat="46.32282" lon="5.6502">
        <ele>310.2</ele>
        <time>2022-07-29T13:16:35Z</time>
      </trkpt>
      <trkpt lat="46.32281" lon="5.65027">
        <ele>310.2</ele>
        <time>2022-07-29T13:16:36Z</time>
      </trkpt>
      <trkpt lat="46.32279" lon="5.65034">
        <ele>310.2</ele>
        <time>2022-07-29T13:16:37Z</time>
      </trkpt>
      <trkpt lat="46.32277" lon="5.65041">
        <ele>310.4</ele>
        <time>2022-07-29T13:16:38Z</time>
      </trkpt>
      <trkpt lat="46.32276" lon="5.65049">
        <ele>310.4</ele>
        <time>2022-07-29T13:16:39Z</time>
      </trkpt>
      <trkpt lat="46.32274" lon="5.65056">
        <ele>310.6</ele>
        <time>2022-07-29T13:16:40Z</time>
      </trkpt>
      <trkpt lat="46.32272" lon="5.65063">
        <ele>310.6</ele>
        <time>2022-07-29T13:16:41Z</time>
      </trkpt>
      <trkpt lat="46.3227" lon="5.65069">
        <ele>311</ele>
        <time>2022-07-29T13:16:42Z</time>
      </trkpt>
      <trkpt lat="46.32268" lon="5.65076">
        <ele>311</ele>
        <time>2022-07-29T13:16:43Z</time>
      </trkpt>
      <trkpt lat="46.32267" lon="5.65082">
        <ele>311.2</ele>
        <time>2022-07-29T13:16:44Z</time>
      </trkpt>
      <trkpt lat="46.32265" lon="5.65089">
        <ele>311.2</ele>
        <time>2022-07-29T13:16:45Z</time>
      </trkpt>
      <trkpt lat="46.32263" lon="5.65095">
        <ele>311.6</ele>
        <time>2022-07-29T13:16:46Z</time>
      </trkpt>
      <trkpt lat="46.32262" lon="5.65102">
        <ele>311.8</ele>
        <time>2022-07-29T13:16:47Z</time>
      </trkpt>
      <trkpt lat="46.3226" lon="5.65109">
        <ele>312</ele>
        <time>2022-07-29T13:16:48Z</time>
      </trkpt>
      <trkpt lat="46.32259" lon="5.65116">
        <ele>312.4</ele>
        <time>2022-07-29T13:16:49Z</time>
      </trkpt>
      <trkpt lat="46.32258" lon="5.65123">
        <ele>312.4</ele>
        <time>2022-07-29T13:16:50Z</time>
      </trkpt>
      <trkpt lat="46.32257" lon="5.6513">
        <ele>312.6</ele>
        <time>2022-07-29T13:16:51Z</time>
      </trkpt>
      <trkpt lat="46.32256" lon="5.65136">
        <ele>312.6</ele>
        <time>2022-07-29T13:16:52Z</time>
      </trkpt>
      <trkpt lat="46.32255" lon="5.65143">
        <ele>313</ele>
        <time>2022-07-29T13:16:53Z</time>
      </trkpt>
      <trkpt lat="46.32254" lon="5.6515">
        <ele>313</ele>
        <time>2022-07-29T13:16:54Z</time>
      </trkpt>
      <trkpt lat="46.32253" lon="5.65157">
        <ele>313.4</ele>
        <time>2022-07-29T13:16:55Z</time>
      </trkpt>
      <trkpt lat="46.32253" lon="5.65164">
        <ele>313.4</ele>
        <time>2022-07-29T13:16:56Z</time>
      </trkpt>
      <trkpt lat="46.32253" lon="5.65171">
        <ele>313.4</ele>
        <time>2022-07-29T13:16:57Z</time>
      </trkpt>
      <trkpt lat="46.32254" lon="5.65179">
        <ele>313.4</ele>
        <time>2022-07-29T13:16:58Z</time>
      </trkpt>
      <trkpt lat="46.32255" lon="5.65187">
        <ele>313.4</ele>
        <time>2022-07-29T13:16:59Z</time>
      </trkpt>
      <trkpt lat="46.32255" lon="5.65195">
        <ele>313.4</ele>
        <time>2022-07-29T13:17:00Z</time>
      </trkpt>
      <trkpt lat="46.32256" lon="5.65204">
        <ele>313.2</ele>
        <time>2022-07-29T13:17:01Z</time>
      </trkpt>
      <trkpt lat="46.32257" lon="5.65213">
        <ele>313</ele>
        <time>2022-07-29T13:17:02Z</time>
      </trkpt>
      <trkpt lat="46.32259" lon="5.65222">
        <ele>313</ele>
        <time>2022-07-29T13:17:03Z</time>
      </trkpt>
      <trkpt lat="46.3226" lon="5.65233">
        <ele>312.4</ele>
        <time>2022-07-29T13:17:04Z</time>
      </trkpt>
      <trkpt lat="46.32262" lon="5.65244">
        <ele>312.2</ele>
        <time>2022-07-29T13:17:05Z</time>
      </trkpt>
      <trkpt lat="46.32263" lon="5.65255">
        <ele>311.8</ele>
        <time>2022-07-29T13:17:06Z</time>
      </trkpt>
      <trkpt lat="46.32263" lon="5.65267">
        <ele>311.6</ele>
        <time>2022-07-29T13:17:07Z</time>
      </trkpt>
      <trkpt lat="46.32264" lon="5.65278">
        <ele>311.2</ele>
        <time>2022-07-29T13:17:08Z</time>
      </trkpt>
      <trkpt lat="46.32263" lon="5.65291">
        <ele>310.8</ele>
        <time>2022-07-29T13:17:09Z</time>
      </trkpt>
      <trkpt lat="46.32264" lon="5.65303">
        <ele>310.4</ele>
        <time>2022-07-29T13:17:10Z</time>
      </trkpt>
      <trkpt lat="46.32264" lon="5.65316">
        <ele>310</ele>
        <time>2022-07-29T13:17:11Z</time>
      </trkpt>
      <trkpt lat="46.32264" lon="5.65329">
        <ele>309.6</ele>
        <time>2022-07-29T13:17:12Z</time>
      </trkpt>
      <trkpt lat="46.32263" lon="5.65342">
        <ele>309.2</ele>
        <time>2022-07-29T13:17:13Z</time>
      </trkpt>
      <trkpt lat="46.32263" lon="5.65354">
        <ele>309</ele>
        <time>2022-07-29T13:17:14Z</time>
      </trkpt>
      <trkpt lat="46.32262" lon="5.65367">
        <ele>308.8</ele>
        <time>2022-07-29T13:17:15Z</time>
      </trkpt>
      <trkpt lat="46.32262" lon="5.65379">
        <ele>308.6</ele>
        <time>2022-07-29T13:17:16Z</time>
      </trkpt>
      <trkpt lat="46.32261" lon="5.65391">
        <ele>308.6</ele>
        <time>2022-07-29T13:17:17Z</time>
      </trkpt>
      <trkpt lat="46.32259" lon="5.65403">
        <ele>308.2</ele>
        <time>2022-07-29T13:17:18Z</time>
      </trkpt>
      <trkpt lat="46.32257" lon="5.65414">
        <ele>308.2</ele>
        <time>2022-07-29T13:17:19Z</time>
      </trkpt>
      <trkpt lat="46.32254" lon="5.65425">
        <ele>308.2</ele>
        <time>2022-07-29T13:17:20Z</time>
      </trkpt>
      <trkpt lat="46.32251" lon="5.65435">
        <ele>308.2</ele>
        <time>2022-07-29T13:17:21Z</time>
      </trkpt>
      <trkpt lat="46.32248" lon="5.65445">
        <ele>308.2</ele>
        <time>2022-07-29T13:17:22Z</time>
      </trkpt>
      <trkpt lat="46.32244" lon="5.65455">
        <ele>308.2</ele>
        <time>2022-07-29T13:17:23Z</time>
      </trkpt>
      <trkpt lat="46.32241" lon="5.65464">
        <ele>308.2</ele>
        <time>2022-07-29T13:17:24Z</time>
      </trkpt>
      <trkpt lat="46.32237" lon="5.65473">
        <ele>308.2</ele>
        <time>2022-07-29T13:17:25Z</time>
      </trkpt>
      <trkpt lat="46.32233" lon="5.65482">
        <ele>308.2</ele>
        <time>2022-07-29T13:17:26Z</time>
      </trkpt>
      <trkpt lat="46.3223" lon="5.65491">
        <ele>308.2</ele>
        <time>2022-07-29T13:17:27Z</time>
      </trkpt>
      <trkpt lat="46.32226" lon="5.655">
        <ele>308.2</ele>
        <time>2022-07-29T13:17:28Z</time>
      </trkpt>
      <trkpt lat="46.32223" lon="5.65508">
        <ele>308</ele>
        <time>2022-07-29T13:17:29Z</time>
      </trkpt>
      <trkpt lat="46.32219" lon="5.65517">
        <ele>308.4</ele>
        <time>2022-07-29T13:17:30Z</time>
      </trkpt>
      <trkpt lat="46.32216" lon="5.65525">
        <ele>308.4</ele>
        <time>2022-07-29T13:17:31Z</time>
      </trkpt>
      <trkpt lat="46.32213" lon="5.65532">
        <ele>308.4</ele>
        <time>2022-07-29T13:17:32Z</time>
      </trkpt>
      <trkpt lat="46.32209" lon="5.6554">
        <ele>308.6</ele>
        <time>2022-07-29T13:17:33Z</time>
      </trkpt>
      <trkpt lat="46.32205" lon="5.65547">
        <ele>308.6</ele>
        <time>2022-07-29T13:17:34Z</time>
      </trkpt>
      <trkpt lat="46.32201" lon="5.65554">
        <ele>308.6</ele>
        <time>2022-07-29T13:17:35Z</time>
      </trkpt>
      <trkpt lat="46.32197" lon="5.65561">
        <ele>308.6</ele>
        <time>2022-07-29T13:17:36Z</time>
      </trkpt>
      <trkpt lat="46.32194" lon="5.65568">
        <ele>308.6</ele>
        <time>2022-07-29T13:17:37Z</time>
      </trkpt>
      <trkpt lat="46.32189" lon="5.65574">
        <ele>308.6</ele>
        <time>2022-07-29T13:17:38Z</time>
      </trkpt>
      <trkpt lat="46.32185" lon="5.65581">
        <ele>308.6</ele>
        <time>2022-07-29T13:17:39Z</time>
      </trkpt>
      <trkpt lat="46.32181" lon="5.65587">
        <ele>308.6</ele>
        <time>2022-07-29T13:17:40Z</time>
      </trkpt>
      <trkpt lat="46.32176" lon="5.65592">
        <ele>308.6</ele>
        <time>2022-07-29T13:17:41Z</time>
      </trkpt>
      <trkpt lat="46.32171" lon="5.65598">
        <ele>308.6</ele>
        <time>2022-07-29T13:17:42Z</time>
      </trkpt>
      <trkpt lat="46.32166" lon="5.65603">
        <ele>308.6</ele>
        <time>2022-07-29T13:17:43Z</time>
      </trkpt>
      <trkpt lat="46.32162" lon="5.65609">
        <ele>308.6</ele>
        <time>2022-07-29T13:17:44Z</time>
      </trkpt>
      <trkpt lat="46.32157" lon="5.65614">
        <ele>308.6</ele>
        <time>2022-07-29T13:17:45Z</time>
      </trkpt>
      <trkpt lat="46.32152" lon="5.65619">
        <ele>308.6</ele>
        <time>2022-07-29T13:17:46Z</time>
      </trkpt>
      <trkpt lat="46.32148" lon="5.65624">
        <ele>308.6</ele>
        <time>2022-07-29T13:17:47Z</time>
      </trkpt>
      <trkpt lat="46.32143" lon="5.6563">
        <ele>308.6</ele>
        <time>2022-07-29T13:17:48Z</time>
      </trkpt>
      <trkpt lat="46.32138" lon="5.65635">
        <ele>308.6</ele>
        <time>2022-07-29T13:17:49Z</time>
      </trkpt>
      <trkpt lat="46.32133" lon="5.6564">
        <ele>308.8</ele>
        <time>2022-07-29T13:17:50Z</time>
      </trkpt>
      <trkpt lat="46.32129" lon="5.65645">
        <ele>308.8</ele>
        <time>2022-07-29T13:17:51Z</time>
      </trkpt>
      <trkpt lat="46.32124" lon="5.65651">
        <ele>308.8</ele>
        <time>2022-07-29T13:17:52Z</time>
      </trkpt>
      <trkpt lat="46.32119" lon="5.65656">
        <ele>308.8</ele>
        <time>2022-07-29T13:17:53Z</time>
      </trkpt>
      <trkpt lat="46.32114" lon="5.65661">
        <ele>308.8</ele>
        <time>2022-07-29T13:17:54Z</time>
      </trkpt>
      <trkpt lat="46.32109" lon="5.65666">
        <ele>308.8</ele>
        <time>2022-07-29T13:17:55Z</time>
      </trkpt>
      <trkpt lat="46.32105" lon="5.65671">
        <ele>309</ele>
        <time>2022-07-29T13:17:56Z</time>
      </trkpt>
      <trkpt lat="46.321" lon="5.65677">
        <ele>309</ele>
        <time>2022-07-29T13:17:57Z</time>
      </trkpt>
      <trkpt lat="46.32095" lon="5.65681">
        <ele>309.4</ele>
        <time>2022-07-29T13:17:58Z</time>
      </trkpt>
      <trkpt lat="46.32091" lon="5.65686">
        <ele>309.4</ele>
        <time>2022-07-29T13:17:59Z</time>
      </trkpt>
      <trkpt lat="46.32086" lon="5.6569">
        <ele>309.6</ele>
        <time>2022-07-29T13:18:00Z</time>
      </trkpt>
      <trkpt lat="46.32082" lon="5.65695">
        <ele>309.6</ele>
        <time>2022-07-29T13:18:01Z</time>
      </trkpt>
      <trkpt lat="46.32078" lon="5.65699">
        <ele>309.8</ele>
        <time>2022-07-29T13:18:02Z</time>
      </trkpt>
      <trkpt lat="46.32075" lon="5.65703">
        <ele>309.8</ele>
        <time>2022-07-29T13:18:03Z</time>
      </trkpt>
      <trkpt lat="46.32071" lon="5.65707">
        <ele>310.2</ele>
        <time>2022-07-29T13:18:04Z</time>
      </trkpt>
      <trkpt lat="46.32067" lon="5.65711">
        <ele>310.2</ele>
        <time>2022-07-29T13:18:05Z</time>
      </trkpt>
      <trkpt lat="46.32064" lon="5.65715">
        <ele>310.6</ele>
        <time>2022-07-29T13:18:06Z</time>
      </trkpt>
      <trkpt lat="46.32061" lon="5.65718">
        <ele>310.6</ele>
        <time>2022-07-29T13:18:07Z</time>
      </trkpt>
      <trkpt lat="46.32058" lon="5.65722">
        <ele>311</ele>
        <time>2022-07-29T13:18:08Z</time>
      </trkpt>
      <trkpt lat="46.32055" lon="5.65725">
        <ele>311</ele>
        <time>2022-07-29T13:18:09Z</time>
      </trkpt>
      <trkpt lat="46.32052" lon="5.65729">
        <ele>311.2</ele>
        <time>2022-07-29T13:18:10Z</time>
      </trkpt>
      <trkpt lat="46.32049" lon="5.65732">
        <ele>311.2</ele>
        <time>2022-07-29T13:18:11Z</time>
      </trkpt>
      <trkpt lat="46.32046" lon="5.65735">
        <ele>311.6</ele>
        <time>2022-07-29T13:18:12Z</time>
      </trkpt>
      <trkpt lat="46.32043" lon="5.65738">
        <ele>311.6</ele>
        <time>2022-07-29T13:18:13Z</time>
      </trkpt>
      <trkpt lat="46.32041" lon="5.65741">
        <ele>312</ele>
        <time>2022-07-29T13:18:14Z</time>
      </trkpt>
      <trkpt lat="46.32038" lon="5.65744">
        <ele>312</ele>
        <time>2022-07-29T13:18:15Z</time>
      </trkpt>
      <trkpt lat="46.32035" lon="5.65746">
        <ele>312.4</ele>
        <time>2022-07-29T13:18:16Z</time>
      </trkpt>
      <trkpt lat="46.32032" lon="5.65749">
        <ele>312.4</ele>
        <time>2022-07-29T13:18:17Z</time>
      </trkpt>
      <trkpt lat="46.3203" lon="5.65752">
        <ele>312.8</ele>
        <time>2022-07-29T13:18:18Z</time>
      </trkpt>
      <trkpt lat="46.32027" lon="5.65755">
        <ele>312.8</ele>
        <time>2022-07-29T13:18:19Z</time>
      </trkpt>
      <trkpt lat="46.32025" lon="5.65758">
        <ele>313.2</ele>
        <time>2022-07-29T13:18:20Z</time>
      </trkpt>
      <trkpt lat="46.32022" lon="5.65761">
        <ele>313.2</ele>
        <time>2022-07-29T13:18:21Z</time>
      </trkpt>
      <trkpt lat="46.3202" lon="5.65764">
        <ele>313.6</ele>
        <time>2022-07-29T13:18:22Z</time>
      </trkpt>
      <trkpt lat="46.32017" lon="5.65768">
        <ele>314</ele>
        <time>2022-07-29T13:18:23Z</time>
      </trkpt>
      <trkpt lat="46.32015" lon="5.65771">
        <ele>314</ele>
        <time>2022-07-29T13:18:24Z</time>
      </trkpt>
      <trkpt lat="46.32013" lon="5.65775">
        <ele>314.2</ele>
        <time>2022-07-29T13:18:25Z</time>
      </trkpt>
      <trkpt lat="46.32011" lon="5.65778">
        <ele>314.2</ele>
        <time>2022-07-29T13:18:26Z</time>
      </trkpt>
      <trkpt lat="46.32009" lon="5.65782">
        <ele>314.6</ele>
        <time>2022-07-29T13:18:27Z</time>
      </trkpt>
      <trkpt lat="46.32008" lon="5.65786">
        <ele>315</ele>
        <time>2022-07-29T13:18:28Z</time>
      </trkpt>
      <trkpt lat="46.32006" lon="5.6579">
        <ele>315.2</ele>
        <time>2022-07-29T13:18:29Z</time>
      </trkpt>
      <trkpt lat="46.32004" lon="5.65794">
        <ele>315.6</ele>
        <time>2022-07-29T13:18:30Z</time>
      </trkpt>
      <trkpt lat="46.32002" lon="5.65797">
        <ele>315.8</ele>
        <time>2022-07-29T13:18:31Z</time>
      </trkpt>
      <trkpt lat="46.32" lon="5.658">
        <ele>316.2</ele>
        <time>2022-07-29T13:18:32Z</time>
      </trkpt>
      <trkpt lat="46.31998" lon="5.65803">
        <ele>316.4</ele>
        <time>2022-07-29T13:18:33Z</time>
      </trkpt>
      <trkpt lat="46.31996" lon="5.65806">
        <ele>316.6</ele>
        <time>2022-07-29T13:18:34Z</time>
      </trkpt>
      <trkpt lat="46.31995" lon="5.6581">
        <ele>316.8</ele>
        <time>2022-07-29T13:18:35Z</time>
      </trkpt>
      <trkpt lat="46.31993" lon="5.65813">
        <ele>317.2</ele>
        <time>2022-07-29T13:18:36Z</time>
      </trkpt>
      <trkpt lat="46.31992" lon="5.65816">
        <ele>317.4</ele>
        <time>2022-07-29T13:18:37Z</time>
      </trkpt>
      <trkpt lat="46.3199" lon="5.65819">
        <ele>317.6</ele>
        <time>2022-07-29T13:18:38Z</time>
      </trkpt>
      <trkpt lat="46.31989" lon="5.65822">
        <ele>317.8</ele>
        <time>2022-07-29T13:18:39Z</time>
      </trkpt>
      <trkpt lat="46.31987" lon="5.65825">
        <ele>318</ele>
        <time>2022-07-29T13:18:40Z</time>
      </trkpt>
      <trkpt lat="46.31985" lon="5.65829">
        <ele>318.4</ele>
        <time>2022-07-29T13:18:41Z</time>
      </trkpt>
      <trkpt lat="46.31984" lon="5.65832">
        <ele>318.6</ele>
        <time>2022-07-29T13:18:42Z</time>
      </trkpt>
      <trkpt lat="46.31982" lon="5.65836">
        <ele>318.8</ele>
        <time>2022-07-29T13:18:43Z</time>
      </trkpt>
      <trkpt lat="46.31981" lon="5.65839">
        <ele>319</ele>
        <time>2022-07-29T13:18:44Z</time>
      </trkpt>
      <trkpt lat="46.31979" lon="5.65843">
        <ele>319.2</ele>
        <time>2022-07-29T13:18:45Z</time>
      </trkpt>
      <trkpt lat="46.31977" lon="5.65847">
        <ele>319.4</ele>
        <time>2022-07-29T13:18:46Z</time>
      </trkpt>
      <trkpt lat="46.31976" lon="5.6585">
        <ele>319.8</ele>
        <time>2022-07-29T13:18:47Z</time>
      </trkpt>
      <trkpt lat="46.31975" lon="5.65854">
        <ele>320</ele>
        <time>2022-07-29T13:18:48Z</time>
      </trkpt>
      <trkpt lat="46.31973" lon="5.65857">
        <ele>320.2</ele>
        <time>2022-07-29T13:18:49Z</time>
      </trkpt>
      <trkpt lat="46.31972" lon="5.6586">
        <ele>320.4</ele>
        <time>2022-07-29T13:18:50Z</time>
      </trkpt>
      <trkpt lat="46.31971" lon="5.65863">
        <ele>320.8</ele>
        <time>2022-07-29T13:18:51Z</time>
      </trkpt>
      <trkpt lat="46.3197" lon="5.65866">
        <ele>321</ele>
        <time>2022-07-29T13:18:52Z</time>
      </trkpt>
      <trkpt lat="46.31968" lon="5.65869">
        <ele>321</ele>
        <time>2022-07-29T13:18:53Z</time>
      </trkpt>
      <trkpt lat="46.31967" lon="5.65872">
        <ele>321.4</ele>
        <time>2022-07-29T13:18:54Z</time>
      </trkpt>
      <trkpt lat="46.31966" lon="5.65874">
        <ele>321.6</ele>
        <time>2022-07-29T13:18:55Z</time>
      </trkpt>
      <trkpt lat="46.31964" lon="5.65877">
        <ele>321.8</ele>
        <time>2022-07-29T13:18:56Z</time>
      </trkpt>
      <trkpt lat="46.31963" lon="5.6588">
        <ele>321.8</ele>
        <time>2022-07-29T13:18:57Z</time>
      </trkpt>
      <trkpt lat="46.31961" lon="5.65883">
        <ele>322.4</ele>
        <time>2022-07-29T13:18:58Z</time>
      </trkpt>
      <trkpt lat="46.3196" lon="5.65886">
        <ele>322.6</ele>
        <time>2022-07-29T13:18:59Z</time>
      </trkpt>
      <trkpt lat="46.31958" lon="5.65889">
        <ele>322.8</ele>
        <time>2022-07-29T13:19:00Z</time>
      </trkpt>
      <trkpt lat="46.31957" lon="5.65892">
        <ele>323.2</ele>
        <time>2022-07-29T13:19:01Z</time>
      </trkpt>
      <trkpt lat="46.31955" lon="5.65894">
        <ele>323.4</ele>
        <time>2022-07-29T13:19:02Z</time>
      </trkpt>
      <trkpt lat="46.31953" lon="5.65896">
        <ele>323.6</ele>
        <time>2022-07-29T13:19:03Z</time>
      </trkpt>
      <trkpt lat="46.31951" lon="5.65898">
        <ele>323.8</ele>
        <time>2022-07-29T13:19:04Z</time>
      </trkpt>
      <trkpt lat="46.31949" lon="5.65901">
        <ele>323.8</ele>
        <time>2022-07-29T13:19:05Z</time>
      </trkpt>
      <trkpt lat="46.31947" lon="5.65904">
        <ele>324.2</ele>
        <time>2022-07-29T13:19:06Z</time>
      </trkpt>
      <trkpt lat="46.31946" lon="5.65908">
        <ele>324.4</ele>
        <time>2022-07-29T13:19:07Z</time>
      </trkpt>
      <trkpt lat="46.31945" lon="5.6591">
        <ele>324.8</ele>
        <time>2022-07-29T13:19:08Z</time>
      </trkpt>
      <trkpt lat="46.31943" lon="5.65913">
        <ele>325</ele>
        <time>2022-07-29T13:19:09Z</time>
      </trkpt>
      <trkpt lat="46.31942" lon="5.65915">
        <ele>325.2</ele>
        <time>2022-07-29T13:19:10Z</time>
      </trkpt>
      <trkpt lat="46.31941" lon="5.65918">
        <ele>325.2</ele>
        <time>2022-07-29T13:19:11Z</time>
      </trkpt>
      <trkpt lat="46.31939" lon="5.65921">
        <ele>325.4</ele>
        <time>2022-07-29T13:19:12Z</time>
      </trkpt>
      <trkpt lat="46.31938" lon="5.65923">
        <ele>325.8</ele>
        <time>2022-07-29T13:19:13Z</time>
      </trkpt>
      <trkpt lat="46.31936" lon="5.65926">
        <ele>325.8</ele>
        <time>2022-07-29T13:19:14Z</time>
      </trkpt>
      <trkpt lat="46.31935" lon="5.65929">
        <ele>326.2</ele>
        <time>2022-07-29T13:19:15Z</time>
      </trkpt>
      <trkpt lat="46.31934" lon="5.65932">
        <ele>326.2</ele>
        <time>2022-07-29T13:19:16Z</time>
      </trkpt>
      <trkpt lat="46.31932" lon="5.65935">
        <ele>326.4</ele>
        <time>2022-07-29T13:19:17Z</time>
      </trkpt>
      <trkpt lat="46.31931" lon="5.65939">
        <ele>326.6</ele>
        <time>2022-07-29T13:19:18Z</time>
      </trkpt>
      <trkpt lat="46.31931" lon="5.65939">
        <ele>326.6</ele>
        <time>2022-07-29T13:19:19Z</time>
      </trkpt>
      <trkpt lat="46.3193" lon="5.65942">
        <ele>327</ele>
        <time>2022-07-29T13:19:20Z</time>
      </trkpt>
      <trkpt lat="46.31928" lon="5.65945">
        <ele>327</ele>
        <time>2022-07-29T13:19:21Z</time>
      </trkpt>
      <trkpt lat="46.31927" lon="5.65948">
        <ele>327.2</ele>
        <time>2022-07-29T13:19:22Z</time>
      </trkpt>
      <trkpt lat="46.31925" lon="5.65951">
        <ele>327.2</ele>
        <time>2022-07-29T13:19:23Z</time>
      </trkpt>
      <trkpt lat="46.31923" lon="5.65953">
        <ele>327.6</ele>
        <time>2022-07-29T13:19:24Z</time>
      </trkpt>
      <trkpt lat="46.31922" lon="5.65956">
        <ele>327.6</ele>
        <time>2022-07-29T13:19:25Z</time>
      </trkpt>
      <trkpt lat="46.3192" lon="5.65959">
        <ele>327.8</ele>
        <time>2022-07-29T13:19:26Z</time>
      </trkpt>
      <trkpt lat="46.31918" lon="5.65962">
        <ele>327.8</ele>
        <time>2022-07-29T13:19:27Z</time>
      </trkpt>
      <trkpt lat="46.31916" lon="5.65965">
        <ele>328.2</ele>
        <time>2022-07-29T13:19:28Z</time>
      </trkpt>
      <trkpt lat="46.31914" lon="5.65968">
        <ele>328.2</ele>
        <time>2022-07-29T13:19:29Z</time>
      </trkpt>
      <trkpt lat="46.31913" lon="5.65972">
        <ele>328.4</ele>
        <time>2022-07-29T13:19:30Z</time>
      </trkpt>
      <trkpt lat="46.31911" lon="5.65975">
        <ele>328.4</ele>
        <time>2022-07-29T13:19:31Z</time>
      </trkpt>
      <trkpt lat="46.31909" lon="5.65978">
        <ele>328.8</ele>
        <time>2022-07-29T13:19:32Z</time>
      </trkpt>
      <trkpt lat="46.31907" lon="5.65981">
        <ele>328.8</ele>
        <time>2022-07-29T13:19:33Z</time>
      </trkpt>
      <trkpt lat="46.31906" lon="5.65984">
        <ele>329</ele>
        <time>2022-07-29T13:19:34Z</time>
      </trkpt>
      <trkpt lat="46.31904" lon="5.65987">
        <ele>329</ele>
        <time>2022-07-29T13:19:35Z</time>
      </trkpt>
      <trkpt lat="46.31902" lon="5.6599">
        <ele>329.2</ele>
        <time>2022-07-29T13:19:36Z</time>
      </trkpt>
      <trkpt lat="46.319" lon="5.65991">
        <ele>329.2</ele>
        <time>2022-07-29T13:19:37Z</time>
      </trkpt>
      <trkpt lat="46.31898" lon="5.65992">
        <ele>329.2</ele>
        <time>2022-07-29T13:19:38Z</time>
      </trkpt>
      <trkpt lat="46.31896" lon="5.65993">
        <ele>329.2</ele>
        <time>2022-07-29T13:19:39Z</time>
      </trkpt>
      <trkpt lat="46.31894" lon="5.65993">
        <ele>329.2</ele>
        <time>2022-07-29T13:19:40Z</time>
      </trkpt>
      <trkpt lat="46.31891" lon="5.65992">
        <ele>329.4</ele>
        <time>2022-07-29T13:19:41Z</time>
      </trkpt>
      <trkpt lat="46.31888" lon="5.65991">
        <ele>329.4</ele>
        <time>2022-07-29T13:19:42Z</time>
      </trkpt>
      <trkpt lat="46.31885" lon="5.65989">
        <ele>329.4</ele>
        <time>2022-07-29T13:19:43Z</time>
      </trkpt>
      <trkpt lat="46.31882" lon="5.65987">
        <ele>329.8</ele>
        <time>2022-07-29T13:19:44Z</time>
      </trkpt>
      <trkpt lat="46.31879" lon="5.65984">
        <ele>329.8</ele>
        <time>2022-07-29T13:19:45Z</time>
      </trkpt>
      <trkpt lat="46.31877" lon="5.65981">
        <ele>329.8</ele>
        <time>2022-07-29T13:19:46Z</time>
      </trkpt>
      <trkpt lat="46.31874" lon="5.65978">
        <ele>330</ele>
        <time>2022-07-29T13:19:47Z</time>
      </trkpt>
      <trkpt lat="46.31871" lon="5.65974">
        <ele>330</ele>
        <time>2022-07-29T13:19:48Z</time>
      </trkpt>
      <trkpt lat="46.31868" lon="5.65971">
        <ele>330</ele>
        <time>2022-07-29T13:19:49Z</time>
      </trkpt>
      <trkpt lat="46.31865" lon="5.65968">
        <ele>330</ele>
        <time>2022-07-29T13:19:50Z</time>
      </trkpt>
      <trkpt lat="46.31862" lon="5.65966">
        <ele>330</ele>
        <time>2022-07-29T13:19:51Z</time>
      </trkpt>
      <trkpt lat="46.31859" lon="5.65963">
        <ele>330.2</ele>
        <time>2022-07-29T13:19:52Z</time>
      </trkpt>
      <trkpt lat="46.31855" lon="5.65961">
        <ele>330.2</ele>
        <time>2022-07-29T13:19:53Z</time>
      </trkpt>
      <trkpt lat="46.31852" lon="5.65959">
        <ele>330.2</ele>
        <time>2022-07-29T13:19:54Z</time>
      </trkpt>
      <trkpt lat="46.31849" lon="5.65957">
        <ele>330.2</ele>
        <time>2022-07-29T13:19:55Z</time>
      </trkpt>
      <trkpt lat="46.31846" lon="5.65956">
        <ele>330.4</ele>
        <time>2022-07-29T13:19:56Z</time>
      </trkpt>
      <trkpt lat="46.31844" lon="5.65955">
        <ele>330.4</ele>
        <time>2022-07-29T13:19:57Z</time>
      </trkpt>
      <trkpt lat="46.31842" lon="5.65954">
        <ele>330.4</ele>
        <time>2022-07-29T13:19:58Z</time>
      </trkpt>
      <trkpt lat="46.3184" lon="5.65955">
        <ele>330.4</ele>
        <time>2022-07-29T13:19:59Z</time>
      </trkpt>
      <trkpt lat="46.31839" lon="5.65956">
        <ele>330.4</ele>
        <time>2022-07-29T13:20:00Z</time>
      </trkpt>
      <trkpt lat="46.31838" lon="5.65957">
        <ele>330.4</ele>
        <time>2022-07-29T13:20:01Z</time>
      </trkpt>
      <trkpt lat="46.31838" lon="5.65957">
        <ele>330.4</ele>
        <time>2022-07-29T13:20:02Z</time>
      </trkpt>
      <trkpt lat="46.31838" lon="5.65957">
        <ele>330.4</ele>
        <time>2022-07-29T13:20:03Z</time>
      </trkpt>
      <trkpt lat="46.31838" lon="5.65957">
        <ele>330.4</ele>
        <time>2022-07-29T13:20:04Z</time>
      </trkpt>
      <trkpt lat="46.31838" lon="5.65957">
        <ele>330.6</ele>
        <time>2022-07-29T13:20:13Z</time>
      </trkpt>
      <trkpt lat="46.31838" lon="5.65957">
        <ele>330.6</ele>
        <time>2022-07-29T13:20:14Z</time>
      </trkpt>
      <trkpt lat="46.31838" lon="5.65957">
        <ele>330.6</ele>
        <time>2022-07-29T13:20:15Z</time>
      </trkpt>
      <trkpt lat="46.31838" lon="5.65957">
        <ele>330.8</ele>
        <time>2022-07-29T13:20:43Z</time>
      </trkpt>
      <trkpt lat="46.31838" lon="5.65957">
        <ele>330.8</ele>
        <time>2022-07-29T13:20:44Z</time>
      </trkpt>
      <trkpt lat="46.31838" lon="5.65957">
        <ele>330.8</ele>
        <time>2022-07-29T13:20:45Z</time>
      </trkpt>
      <trkpt lat="46.31838" lon="5.65957">
        <ele>330.8</ele>
        <time>2022-07-29T13:20:46Z</time>
      </trkpt>
      <trkpt lat="46.31838" lon="5.65957">
        <ele>330.8</ele>
        <time>2022-07-29T13:20:47Z</time>
      </trkpt>
      <trkpt lat="46.31838" lon="5.65957">
        <ele>330.8</ele>
        <time>2022-07-29T13:20:48Z</time>
      </trkpt>
      <trkpt lat="46.31838" lon="5.65957">
        <ele>330.8</ele>
        <time>2022-07-29T13:20:49Z</time>
      </trkpt>
      <trkpt lat="46.31838" lon="5.65957">
        <ele>330.8</ele>
        <time>2022-07-29T13:20:50Z</time>
      </trkpt>
      <trkpt lat="46.31838" lon="5.65957">
        <ele>330.8</ele>
        <time>2022-07-29T13:20:51Z</time>
      </trkpt>
      <trkpt lat="46.31838" lon="5.65957">
        <ele>330.8</ele>
        <time>2022-07-29T13:20:53Z</time>
      </trkpt>
      <trkpt lat="46.31838" lon="5.65957">
        <ele>330.8</ele>
        <time>2022-07-29T13:20:54Z</time>
      </trkpt>
      <trkpt lat="46.31838" lon="5.65957">
        <ele>330.8</ele>
        <time>2022-07-29T13:20:57Z</time>
      </trkpt>
      <trkpt lat="46.31838" lon="5.65957">
        <ele>330.8</ele>
        <time>2022-07-29T13:20:58Z</time>
      </trkpt>
      <trkpt lat="46.31838" lon="5.65957">
        <ele>330.8</ele>
        <time>2022-07-29T13:20:59Z</time>
      </trkpt>
      <trkpt lat="46.31838" lon="5.65957">
        <ele>330.8</ele>
        <time>2022-07-29T13:21:02Z</time>
      </trkpt>
      <trkpt lat="46.31838" lon="5.65957">
        <ele>330.8</ele>
        <time>2022-07-29T13:21:03Z</time>
      </trkpt>
      <trkpt lat="46.31838" lon="5.65957">
        <ele>330.8</ele>
        <time>2022-07-29T13:21:04Z</time>
      </trkpt>
      <trkpt lat="46.31831" lon="5.65953">
        <ele>330.8</ele>
        <time>2022-07-29T13:21:05Z</time>
      </trkpt>
      <trkpt lat="46.31829" lon="5.65952">
        <ele>330.8</ele>
        <time>2022-07-29T13:21:06Z</time>
      </trkpt>
      <trkpt lat="46.31827" lon="5.6595">
        <ele>330.8</ele>
        <time>2022-07-29T13:21:07Z</time>
      </trkpt>
      <trkpt lat="46.31825" lon="5.65947">
        <ele>330.8</ele>
        <time>2022-07-29T13:21:08Z</time>
      </trkpt>
      <trkpt lat="46.31823" lon="5.65945">
        <ele>331.2</ele>
        <time>2022-07-29T13:21:09Z</time>
      </trkpt>
      <trkpt lat="46.31821" lon="5.65943">
        <ele>331.2</ele>
        <time>2022-07-29T13:21:10Z</time>
      </trkpt>
      <trkpt lat="46.31819" lon="5.6594">
        <ele>331.2</ele>
        <time>2022-07-29T13:21:11Z</time>
      </trkpt>
      <trkpt lat="46.31817" lon="5.65938">
        <ele>331.4</ele>
        <time>2022-07-29T13:21:12Z</time>
      </trkpt>
      <trkpt lat="46.31814" lon="5.65936">
        <ele>331.4</ele>
        <time>2022-07-29T13:21:13Z</time>
      </trkpt>
      <trkpt lat="46.31812" lon="5.65933">
        <ele>331.6</ele>
        <time>2022-07-29T13:21:14Z</time>
      </trkpt>
      <trkpt lat="46.3181" lon="5.65931">
        <ele>331.6</ele>
        <time>2022-07-29T13:21:15Z</time>
      </trkpt>
      <trkpt lat="46.31807" lon="5.65929">
        <ele>331.6</ele>
        <time>2022-07-29T13:21:16Z</time>
      </trkpt>
      <trkpt lat="46.31805" lon="5.65926">
        <ele>332</ele>
        <time>2022-07-29T13:21:17Z</time>
      </trkpt>
      <trkpt lat="46.31803" lon="5.65924">
        <ele>332</ele>
        <time>2022-07-29T13:21:18Z</time>
      </trkpt>
      <trkpt lat="46.31801" lon="5.65922">
        <ele>332.4</ele>
        <time>2022-07-29T13:21:19Z</time>
      </trkpt>
      <trkpt lat="46.31799" lon="5.65921">
        <ele>332.6</ele>
        <time>2022-07-29T13:21:20Z</time>
      </trkpt>
      <trkpt lat="46.31797" lon="5.65919">
        <ele>332.6</ele>
        <time>2022-07-29T13:21:21Z</time>
      </trkpt>
      <trkpt lat="46.31795" lon="5.65917">
        <ele>333</ele>
        <time>2022-07-29T13:21:22Z</time>
      </trkpt>
      <trkpt lat="46.31793" lon="5.65916">
        <ele>333</ele>
        <time>2022-07-29T13:21:23Z</time>
      </trkpt>
      <trkpt lat="46.31791" lon="5.65914">
        <ele>333.4</ele>
        <time>2022-07-29T13:21:24Z</time>
      </trkpt>
      <trkpt lat="46.31789" lon="5.65912">
        <ele>333.4</ele>
        <time>2022-07-29T13:21:25Z</time>
      </trkpt>
      <trkpt lat="46.31787" lon="5.65911">
        <ele>333.6</ele>
        <time>2022-07-29T13:21:26Z</time>
      </trkpt>
      <trkpt lat="46.31785" lon="5.65909">
        <ele>333.6</ele>
        <time>2022-07-29T13:21:27Z</time>
      </trkpt>
      <trkpt lat="46.31783" lon="5.65907">
        <ele>334</ele>
        <time>2022-07-29T13:21:28Z</time>
      </trkpt>
      <trkpt lat="46.3178" lon="5.65906">
        <ele>334</ele>
        <time>2022-07-29T13:21:29Z</time>
      </trkpt>
      <trkpt lat="46.31778" lon="5.65904">
        <ele>334.4</ele>
        <time>2022-07-29T13:21:30Z</time>
      </trkpt>
      <trkpt lat="46.31776" lon="5.65902">
        <ele>334.4</ele>
        <time>2022-07-29T13:21:31Z</time>
      </trkpt>
      <trkpt lat="46.31774" lon="5.65901">
        <ele>334.6</ele>
        <time>2022-07-29T13:21:32Z</time>
      </trkpt>
      <trkpt lat="46.31772" lon="5.659">
        <ele>334.6</ele>
        <time>2022-07-29T13:21:33Z</time>
      </trkpt>
      <trkpt lat="46.31769" lon="5.65898">
        <ele>334.6</ele>
        <time>2022-07-29T13:21:34Z</time>
      </trkpt>
      <trkpt lat="46.31767" lon="5.65897">
        <ele>335</ele>
        <time>2022-07-29T13:21:35Z</time>
      </trkpt>
      <trkpt lat="46.31765" lon="5.65895">
        <ele>335</ele>
        <time>2022-07-29T13:21:36Z</time>
      </trkpt>
      <trkpt lat="46.31763" lon="5.65894">
        <ele>335</ele>
        <time>2022-07-29T13:21:37Z</time>
      </trkpt>
      <trkpt lat="46.31761" lon="5.65893">
        <ele>335.2</ele>
        <time>2022-07-29T13:21:38Z</time>
      </trkpt>
      <trkpt lat="46.31758" lon="5.65892">
        <ele>335.2</ele>
        <time>2022-07-29T13:21:39Z</time>
      </trkpt>
      <trkpt lat="46.31756" lon="5.6589">
        <ele>335.2</ele>
        <time>2022-07-29T13:21:40Z</time>
      </trkpt>
      <trkpt lat="46.31753" lon="5.65889">
        <ele>335.2</ele>
        <time>2022-07-29T13:21:41Z</time>
      </trkpt>
      <trkpt lat="46.31751" lon="5.65887">
        <ele>335.6</ele>
        <time>2022-07-29T13:21:42Z</time>
      </trkpt>
      <trkpt lat="46.31749" lon="5.65885">
        <ele>335.6</ele>
        <time>2022-07-29T13:21:43Z</time>
      </trkpt>
      <trkpt lat="46.31746" lon="5.65884">
        <ele>335.8</ele>
        <time>2022-07-29T13:21:44Z</time>
      </trkpt>
      <trkpt lat="46.31744" lon="5.65883">
        <ele>335.8</ele>
        <time>2022-07-29T13:21:45Z</time>
      </trkpt>
      <trkpt lat="46.31742" lon="5.65882">
        <ele>336</ele>
        <time>2022-07-29T13:21:46Z</time>
      </trkpt>
      <trkpt lat="46.3174" lon="5.65881">
        <ele>336</ele>
        <time>2022-07-29T13:21:47Z</time>
      </trkpt>
      <trkpt lat="46.31738" lon="5.65881">
        <ele>336.2</ele>
        <time>2022-07-29T13:21:48Z</time>
      </trkpt>
      <trkpt lat="46.31737" lon="5.6588">
        <ele>336.2</ele>
        <time>2022-07-29T13:21:49Z</time>
      </trkpt>
      <trkpt lat="46.31736" lon="5.6588">
        <ele>336.2</ele>
        <time>2022-07-29T13:21:50Z</time>
      </trkpt>
      <trkpt lat="46.31735" lon="5.65879">
        <ele>336.2</ele>
        <time>2022-07-29T13:21:51Z</time>
      </trkpt>
      <trkpt lat="46.31735" lon="5.65879">
        <ele>336.2</ele>
        <time>2022-07-29T13:21:52Z</time>
      </trkpt>
      <trkpt lat="46.31735" lon="5.65879">
        <ele>336.2</ele>
        <time>2022-07-29T13:21:53Z</time>
      </trkpt>
      <trkpt lat="46.31732" lon="5.65873">
        <ele>336.4</ele>
        <time>2022-07-29T13:22:00Z</time>
      </trkpt>
      <trkpt lat="46.31732" lon="5.65872">
        <ele>336.4</ele>
        <time>2022-07-29T13:22:01Z</time>
      </trkpt>
      <trkpt lat="46.3173" lon="5.6587">
        <ele>336.8</ele>
        <time>2022-07-29T13:22:02Z</time>
      </trkpt>
      <trkpt lat="46.3173" lon="5.6587">
        <ele>336.8</ele>
        <time>2022-07-29T13:22:03Z</time>
      </trkpt>
      <trkpt lat="46.3173" lon="5.6587">
        <ele>336.8</ele>
        <time>2022-07-29T13:22:04Z</time>
      </trkpt>
      <trkpt lat="46.31729" lon="5.65863">
        <ele>336.8</ele>
        <time>2022-07-29T13:22:09Z</time>
      </trkpt>
      <trkpt lat="46.31728" lon="5.65861">
        <ele>336.8</ele>
        <time>2022-07-29T13:22:10Z</time>
      </trkpt>
      <trkpt lat="46.31727" lon="5.65859">
        <ele>336.8</ele>
        <time>2022-07-29T13:22:11Z</time>
      </trkpt>
      <trkpt lat="46.31724" lon="5.65858">
        <ele>337</ele>
        <time>2022-07-29T13:22:12Z</time>
      </trkpt>
      <trkpt lat="46.31721" lon="5.65857">
        <ele>337</ele>
        <time>2022-07-29T13:22:13Z</time>
      </trkpt>
      <trkpt lat="46.31719" lon="5.65856">
        <ele>337</ele>
        <time>2022-07-29T13:22:14Z</time>
      </trkpt>
      <trkpt lat="46.31715" lon="5.65854">
        <ele>337.2</ele>
        <time>2022-07-29T13:22:15Z</time>
      </trkpt>
      <trkpt lat="46.31713" lon="5.65853">
        <ele>337.2</ele>
        <time>2022-07-29T13:22:16Z</time>
      </trkpt>
      <trkpt lat="46.3171" lon="5.65852">
        <ele>337.4</ele>
        <time>2022-07-29T13:22:17Z</time>
      </trkpt>
      <trkpt lat="46.31706" lon="5.65851">
        <ele>337.4</ele>
        <time>2022-07-29T13:22:18Z</time>
      </trkpt>
      <trkpt lat="46.31703" lon="5.65849">
        <ele>337.6</ele>
        <time>2022-07-29T13:22:19Z</time>
      </trkpt>
      <trkpt lat="46.317" lon="5.65848">
        <ele>337.6</ele>
        <time>2022-07-29T13:22:20Z</time>
      </trkpt>
      <trkpt lat="46.31698" lon="5.65848">
        <ele>338</ele>
        <time>2022-07-29T13:22:21Z</time>
      </trkpt>
      <trkpt lat="46.31695" lon="5.65847">
        <ele>338</ele>
        <time>2022-07-29T13:22:22Z</time>
      </trkpt>
      <trkpt lat="46.31693" lon="5.65846">
        <ele>338.2</ele>
        <time>2022-07-29T13:22:23Z</time>
      </trkpt>
      <trkpt lat="46.3169" lon="5.65845">
        <ele>338.2</ele>
        <time>2022-07-29T13:22:24Z</time>
      </trkpt>
      <trkpt lat="46.31688" lon="5.65843">
        <ele>338.4</ele>
        <time>2022-07-29T13:22:25Z</time>
      </trkpt>
      <trkpt lat="46.31686" lon="5.65842">
        <ele>338.4</ele>
        <time>2022-07-29T13:22:26Z</time>
      </trkpt>
      <trkpt lat="46.31684" lon="5.65842">
        <ele>338.8</ele>
        <time>2022-07-29T13:22:27Z</time>
      </trkpt>
      <trkpt lat="46.31682" lon="5.65841">
        <ele>338.8</ele>
        <time>2022-07-29T13:22:28Z</time>
      </trkpt>
      <trkpt lat="46.3168" lon="5.65841">
        <ele>339</ele>
        <time>2022-07-29T13:22:29Z</time>
      </trkpt>
      <trkpt lat="46.31677" lon="5.6584">
        <ele>339</ele>
        <time>2022-07-29T13:22:30Z</time>
      </trkpt>
      <trkpt lat="46.31675" lon="5.65839">
        <ele>339.4</ele>
        <time>2022-07-29T13:22:31Z</time>
      </trkpt>
      <trkpt lat="46.31673" lon="5.65839">
        <ele>339.4</ele>
        <time>2022-07-29T13:22:32Z</time>
      </trkpt>
      <trkpt lat="46.31671" lon="5.65837">
        <ele>339.6</ele>
        <time>2022-07-29T13:22:33Z</time>
      </trkpt>
      <trkpt lat="46.31668" lon="5.65837">
        <ele>339.6</ele>
        <time>2022-07-29T13:22:34Z</time>
      </trkpt>
      <trkpt lat="46.31665" lon="5.65836">
        <ele>340</ele>
        <time>2022-07-29T13:22:35Z</time>
      </trkpt>
      <trkpt lat="46.31663" lon="5.65835">
        <ele>340</ele>
        <time>2022-07-29T13:22:36Z</time>
      </trkpt>
      <trkpt lat="46.3166" lon="5.65835">
        <ele>340.2</ele>
        <time>2022-07-29T13:22:37Z</time>
      </trkpt>
      <trkpt lat="46.31658" lon="5.65835">
        <ele>340.2</ele>
        <time>2022-07-29T13:22:38Z</time>
      </trkpt>
      <trkpt lat="46.31655" lon="5.65835">
        <ele>340.6</ele>
        <time>2022-07-29T13:22:39Z</time>
      </trkpt>
      <trkpt lat="46.31652" lon="5.65835">
        <ele>340.6</ele>
        <time>2022-07-29T13:22:40Z</time>
      </trkpt>
      <trkpt lat="46.3165" lon="5.65835">
        <ele>341</ele>
        <time>2022-07-29T13:22:41Z</time>
      </trkpt>
      <trkpt lat="46.31647" lon="5.65835">
        <ele>341</ele>
        <time>2022-07-29T13:22:42Z</time>
      </trkpt>
      <trkpt lat="46.31644" lon="5.65835">
        <ele>341.4</ele>
        <time>2022-07-29T13:22:43Z</time>
      </trkpt>
      <trkpt lat="46.31642" lon="5.65835">
        <ele>341.6</ele>
        <time>2022-07-29T13:22:44Z</time>
      </trkpt>
      <trkpt lat="46.31639" lon="5.65834">
        <ele>341.6</ele>
        <time>2022-07-29T13:22:45Z</time>
      </trkpt>
      <trkpt lat="46.31636" lon="5.65833">
        <ele>342</ele>
        <time>2022-07-29T13:22:46Z</time>
      </trkpt>
      <trkpt lat="46.31633" lon="5.65833">
        <ele>342</ele>
        <time>2022-07-29T13:22:47Z</time>
      </trkpt>
      <trkpt lat="46.3163" lon="5.65833">
        <ele>342.4</ele>
        <time>2022-07-29T13:22:48Z</time>
      </trkpt>
      <trkpt lat="46.31628" lon="5.65834">
        <ele>342.4</ele>
        <time>2022-07-29T13:22:49Z</time>
      </trkpt>
      <trkpt lat="46.31625" lon="5.65834">
        <ele>342.8</ele>
        <time>2022-07-29T13:22:50Z</time>
      </trkpt>
      <trkpt lat="46.31623" lon="5.65835">
        <ele>342.8</ele>
        <time>2022-07-29T13:22:51Z</time>
      </trkpt>
      <trkpt lat="46.3162" lon="5.65835">
        <ele>343.2</ele>
        <time>2022-07-29T13:22:52Z</time>
      </trkpt>
      <trkpt lat="46.31617" lon="5.65835">
        <ele>343.2</ele>
        <time>2022-07-29T13:22:53Z</time>
      </trkpt>
      <trkpt lat="46.31615" lon="5.65836">
        <ele>343.6</ele>
        <time>2022-07-29T13:22:54Z</time>
      </trkpt>
      <trkpt lat="46.31612" lon="5.65835">
        <ele>343.8</ele>
        <time>2022-07-29T13:22:55Z</time>
      </trkpt>
      <trkpt lat="46.3161" lon="5.65835">
        <ele>344</ele>
        <time>2022-07-29T13:22:56Z</time>
      </trkpt>
      <trkpt lat="46.31607" lon="5.65835">
        <ele>344</ele>
        <time>2022-07-29T13:22:57Z</time>
      </trkpt>
      <trkpt lat="46.31604" lon="5.65834">
        <ele>344.4</ele>
        <time>2022-07-29T13:22:58Z</time>
      </trkpt>
      <trkpt lat="46.31601" lon="5.65834">
        <ele>344.4</ele>
        <time>2022-07-29T13:22:59Z</time>
      </trkpt>
      <trkpt lat="46.31599" lon="5.65834">
        <ele>344.8</ele>
        <time>2022-07-29T13:23:00Z</time>
      </trkpt>
      <trkpt lat="46.31596" lon="5.65834">
        <ele>345</ele>
        <time>2022-07-29T13:23:01Z</time>
      </trkpt>
      <trkpt lat="46.31593" lon="5.65834">
        <ele>345.2</ele>
        <time>2022-07-29T13:23:02Z</time>
      </trkpt>
      <trkpt lat="46.3159" lon="5.65835">
        <ele>345.4</ele>
        <time>2022-07-29T13:23:03Z</time>
      </trkpt>
      <trkpt lat="46.31587" lon="5.65835">
        <ele>345.6</ele>
        <time>2022-07-29T13:23:04Z</time>
      </trkpt>
      <trkpt lat="46.31585" lon="5.65836">
        <ele>345.8</ele>
        <time>2022-07-29T13:23:05Z</time>
      </trkpt>
      <trkpt lat="46.31582" lon="5.65837">
        <ele>345.8</ele>
        <time>2022-07-29T13:23:06Z</time>
      </trkpt>
      <trkpt lat="46.31579" lon="5.65838">
        <ele>346.2</ele>
        <time>2022-07-29T13:23:07Z</time>
      </trkpt>
      <trkpt lat="46.31577" lon="5.65839">
        <ele>346.4</ele>
        <time>2022-07-29T13:23:08Z</time>
      </trkpt>
      <trkpt lat="46.31574" lon="5.65839">
        <ele>346.8</ele>
        <time>2022-07-29T13:23:09Z</time>
      </trkpt>
      <trkpt lat="46.31572" lon="5.6584">
        <ele>346.8</ele>
        <time>2022-07-29T13:23:10Z</time>
      </trkpt>
      <trkpt lat="46.31569" lon="5.6584">
        <ele>347.2</ele>
        <time>2022-07-29T13:23:11Z</time>
      </trkpt>
      <trkpt lat="46.31567" lon="5.65841">
        <ele>347.2</ele>
        <time>2022-07-29T13:23:12Z</time>
      </trkpt>
      <trkpt lat="46.31564" lon="5.65842">
        <ele>347.6</ele>
        <time>2022-07-29T13:23:13Z</time>
      </trkpt>
      <trkpt lat="46.31562" lon="5.65842">
        <ele>347.6</ele>
        <time>2022-07-29T13:23:14Z</time>
      </trkpt>
      <trkpt lat="46.31559" lon="5.65843">
        <ele>347.8</ele>
        <time>2022-07-29T13:23:15Z</time>
      </trkpt>
      <trkpt lat="46.31557" lon="5.65844">
        <ele>348</ele>
        <time>2022-07-29T13:23:16Z</time>
      </trkpt>
      <trkpt lat="46.31554" lon="5.65844">
        <ele>348.4</ele>
        <time>2022-07-29T13:23:17Z</time>
      </trkpt>
      <trkpt lat="46.31551" lon="5.65845">
        <ele>348.6</ele>
        <time>2022-07-29T13:23:18Z</time>
      </trkpt>
      <trkpt lat="46.31549" lon="5.65845">
        <ele>348.6</ele>
        <time>2022-07-29T13:23:19Z</time>
      </trkpt>
      <trkpt lat="46.31546" lon="5.65846">
        <ele>349</ele>
        <time>2022-07-29T13:23:20Z</time>
      </trkpt>
      <trkpt lat="46.31543" lon="5.65847">
        <ele>349</ele>
        <time>2022-07-29T13:23:21Z</time>
      </trkpt>
      <trkpt lat="46.31541" lon="5.65848">
        <ele>349.4</ele>
        <time>2022-07-29T13:23:22Z</time>
      </trkpt>
      <trkpt lat="46.31538" lon="5.65848">
        <ele>349.6</ele>
        <time>2022-07-29T13:23:23Z</time>
      </trkpt>
      <trkpt lat="46.31536" lon="5.65849">
        <ele>350</ele>
        <time>2022-07-29T13:23:24Z</time>
      </trkpt>
      <trkpt lat="46.31533" lon="5.6585">
        <ele>350.2</ele>
        <time>2022-07-29T13:23:25Z</time>
      </trkpt>
      <trkpt lat="46.31531" lon="5.65851">
        <ele>350.2</ele>
        <time>2022-07-29T13:23:26Z</time>
      </trkpt>
      <trkpt lat="46.31528" lon="5.65853">
        <ele>350.6</ele>
        <time>2022-07-29T13:23:27Z</time>
      </trkpt>
      <trkpt lat="46.31526" lon="5.65854">
        <ele>350.6</ele>
        <time>2022-07-29T13:23:28Z</time>
      </trkpt>
      <trkpt lat="46.31523" lon="5.65855">
        <ele>351</ele>
        <time>2022-07-29T13:23:29Z</time>
      </trkpt>
      <trkpt lat="46.31521" lon="5.65856">
        <ele>351</ele>
        <time>2022-07-29T13:23:30Z</time>
      </trkpt>
      <trkpt lat="46.31518" lon="5.65858">
        <ele>351.2</ele>
        <time>2022-07-29T13:23:31Z</time>
      </trkpt>
      <trkpt lat="46.31515" lon="5.65859">
        <ele>351.4</ele>
        <time>2022-07-29T13:23:32Z</time>
      </trkpt>
      <trkpt lat="46.31512" lon="5.6586">
        <ele>351.4</ele>
        <time>2022-07-29T13:23:33Z</time>
      </trkpt>
      <trkpt lat="46.3151" lon="5.6586">
        <ele>351.8</ele>
        <time>2022-07-29T13:23:34Z</time>
      </trkpt>
      <trkpt lat="46.31507" lon="5.65861">
        <ele>351.8</ele>
        <time>2022-07-29T13:23:35Z</time>
      </trkpt>
      <trkpt lat="46.31504" lon="5.65862">
        <ele>352.2</ele>
        <time>2022-07-29T13:23:36Z</time>
      </trkpt>
      <trkpt lat="46.31501" lon="5.65863">
        <ele>352.4</ele>
        <time>2022-07-29T13:23:37Z</time>
      </trkpt>
      <trkpt lat="46.31498" lon="5.65865">
        <ele>352.4</ele>
        <time>2022-07-29T13:23:38Z</time>
      </trkpt>
      <trkpt lat="46.31496" lon="5.65866">
        <ele>352.8</ele>
        <time>2022-07-29T13:23:39Z</time>
      </trkpt>
      <trkpt lat="46.31493" lon="5.65866">
        <ele>352.8</ele>
        <time>2022-07-29T13:23:40Z</time>
      </trkpt>
      <trkpt lat="46.3149" lon="5.65866">
        <ele>353.2</ele>
        <time>2022-07-29T13:23:41Z</time>
      </trkpt>
      <trkpt lat="46.31488" lon="5.65866">
        <ele>353.4</ele>
        <time>2022-07-29T13:23:42Z</time>
      </trkpt>
      <trkpt lat="46.31486" lon="5.65867">
        <ele>353.4</ele>
        <time>2022-07-29T13:23:43Z</time>
      </trkpt>
      <trkpt lat="46.31483" lon="5.65868">
        <ele>353.6</ele>
        <time>2022-07-29T13:23:44Z</time>
      </trkpt>
      <trkpt lat="46.31481" lon="5.65869">
        <ele>353.6</ele>
        <time>2022-07-29T13:23:45Z</time>
      </trkpt>
      <trkpt lat="46.31479" lon="5.6587">
        <ele>354.2</ele>
        <time>2022-07-29T13:23:46Z</time>
      </trkpt>
      <trkpt lat="46.31477" lon="5.65871">
        <ele>354.2</ele>
        <time>2022-07-29T13:23:47Z</time>
      </trkpt>
      <trkpt lat="46.31474" lon="5.65872">
        <ele>354.4</ele>
        <time>2022-07-29T13:23:48Z</time>
      </trkpt>
      <trkpt lat="46.31472" lon="5.65873">
        <ele>354.4</ele>
        <time>2022-07-29T13:23:49Z</time>
      </trkpt>
      <trkpt lat="46.3147" lon="5.65874">
        <ele>354.8</ele>
        <time>2022-07-29T13:23:50Z</time>
      </trkpt>
      <trkpt lat="46.31468" lon="5.65874">
        <ele>354.8</ele>
        <time>2022-07-29T13:23:51Z</time>
      </trkpt>
      <trkpt lat="46.31465" lon="5.65875">
        <ele>355.2</ele>
        <time>2022-07-29T13:23:52Z</time>
      </trkpt>
      <trkpt lat="46.31463" lon="5.65876">
        <ele>355.2</ele>
        <time>2022-07-29T13:23:53Z</time>
      </trkpt>
      <trkpt lat="46.31462" lon="5.65875">
        <ele>355.4</ele>
        <time>2022-07-29T13:23:54Z</time>
      </trkpt>
      <trkpt lat="46.3146" lon="5.65875">
        <ele>355.4</ele>
        <time>2022-07-29T13:23:55Z</time>
      </trkpt>
      <trkpt lat="46.31458" lon="5.65875">
        <ele>355.8</ele>
        <time>2022-07-29T13:23:56Z</time>
      </trkpt>
      <trkpt lat="46.31455" lon="5.65874">
        <ele>355.8</ele>
        <time>2022-07-29T13:23:57Z</time>
      </trkpt>
      <trkpt lat="46.31452" lon="5.65875">
        <ele>356</ele>
        <time>2022-07-29T13:23:58Z</time>
      </trkpt>
      <trkpt lat="46.3145" lon="5.65875">
        <ele>356</ele>
        <time>2022-07-29T13:23:59Z</time>
      </trkpt>
      <trkpt lat="46.31448" lon="5.65876">
        <ele>356.2</ele>
        <time>2022-07-29T13:24:00Z</time>
      </trkpt>
      <trkpt lat="46.31447" lon="5.65878">
        <ele>356.2</ele>
        <time>2022-07-29T13:24:01Z</time>
      </trkpt>
      <trkpt lat="46.31446" lon="5.6588">
        <ele>356.2</ele>
        <time>2022-07-29T13:24:02Z</time>
      </trkpt>
      <trkpt lat="46.31445" lon="5.65882">
        <ele>356.6</ele>
        <time>2022-07-29T13:24:03Z</time>
      </trkpt>
      <trkpt lat="46.31445" lon="5.65882">
        <ele>356.6</ele>
        <time>2022-07-29T13:24:04Z</time>
      </trkpt>
      <trkpt lat="46.31444" lon="5.65883">
        <ele>356.6</ele>
        <time>2022-07-29T13:24:05Z</time>
      </trkpt>
      <trkpt lat="46.31444" lon="5.65883">
        <ele>356.6</ele>
        <time>2022-07-29T13:24:06Z</time>
      </trkpt>
      <trkpt lat="46.31444" lon="5.65883">
        <ele>356.8</ele>
        <time>2022-07-29T13:24:12Z</time>
      </trkpt>
      <trkpt lat="46.31444" lon="5.65883">
        <ele>356.8</ele>
        <time>2022-07-29T13:24:13Z</time>
      </trkpt>
      <trkpt lat="46.31444" lon="5.65883">
        <ele>357</ele>
        <time>2022-07-29T13:24:14Z</time>
      </trkpt>
      <trkpt lat="46.31444" lon="5.65883">
        <ele>357</ele>
        <time>2022-07-29T13:24:23Z</time>
      </trkpt>
      <trkpt lat="46.31444" lon="5.65883">
        <ele>357</ele>
        <time>2022-07-29T13:24:24Z</time>
      </trkpt>
      <trkpt lat="46.31444" lon="5.65883">
        <ele>357</ele>
        <time>2022-07-29T13:24:25Z</time>
      </trkpt>
      <trkpt lat="46.31444" lon="5.65883">
        <ele>357</ele>
        <time>2022-07-29T13:24:26Z</time>
      </trkpt>
      <trkpt lat="46.31444" lon="5.65883">
        <ele>357</ele>
        <time>2022-07-29T13:24:27Z</time>
      </trkpt>
      <trkpt lat="46.31444" lon="5.65883">
        <ele>357</ele>
        <time>2022-07-29T13:24:28Z</time>
      </trkpt>
      <trkpt lat="46.31438" lon="5.65888">
        <ele>357.2</ele>
        <time>2022-07-29T13:24:29Z</time>
      </trkpt>
      <trkpt lat="46.31436" lon="5.65889">
        <ele>357.2</ele>
        <time>2022-07-29T13:24:30Z</time>
      </trkpt>
      <trkpt lat="46.31433" lon="5.6589">
        <ele>357.6</ele>
        <time>2022-07-29T13:24:31Z</time>
      </trkpt>
      <trkpt lat="46.31431" lon="5.65891">
        <ele>357.6</ele>
        <time>2022-07-29T13:24:32Z</time>
      </trkpt>
      <trkpt lat="46.31428" lon="5.65892">
        <ele>357.8</ele>
        <time>2022-07-29T13:24:33Z</time>
      </trkpt>
      <trkpt lat="46.31426" lon="5.65893">
        <ele>357.8</ele>
        <time>2022-07-29T13:24:34Z</time>
      </trkpt>
      <trkpt lat="46.31423" lon="5.65893">
        <ele>358.2</ele>
        <time>2022-07-29T13:24:35Z</time>
      </trkpt>
      <trkpt lat="46.31421" lon="5.65894">
        <ele>358.2</ele>
        <time>2022-07-29T13:24:36Z</time>
      </trkpt>
      <trkpt lat="46.31418" lon="5.65895">
        <ele>358.6</ele>
        <time>2022-07-29T13:24:37Z</time>
      </trkpt>
      <trkpt lat="46.31416" lon="5.65896">
        <ele>358.8</ele>
        <time>2022-07-29T13:24:38Z</time>
      </trkpt>
      <trkpt lat="46.31414" lon="5.65897">
        <ele>359</ele>
        <time>2022-07-29T13:24:39Z</time>
      </trkpt>
      <trkpt lat="46.31411" lon="5.65898">
        <ele>359.4</ele>
        <time>2022-07-29T13:24:40Z</time>
      </trkpt>
      <trkpt lat="46.31409" lon="5.65899">
        <ele>359.6</ele>
        <time>2022-07-29T13:24:41Z</time>
      </trkpt>
      <trkpt lat="46.31407" lon="5.65901">
        <ele>359.6</ele>
        <time>2022-07-29T13:24:42Z</time>
      </trkpt>
      <trkpt lat="46.31404" lon="5.65902">
        <ele>360</ele>
        <time>2022-07-29T13:24:43Z</time>
      </trkpt>
      <trkpt lat="46.31402" lon="5.65903">
        <ele>360.2</ele>
        <time>2022-07-29T13:24:44Z</time>
      </trkpt>
      <trkpt lat="46.31399" lon="5.65904">
        <ele>360.2</ele>
        <time>2022-07-29T13:24:45Z</time>
      </trkpt>
      <trkpt lat="46.31397" lon="5.65906">
        <ele>360.4</ele>
        <time>2022-07-29T13:24:46Z</time>
      </trkpt>
      <trkpt lat="46.31394" lon="5.65907">
        <ele>360.4</ele>
        <time>2022-07-29T13:24:47Z</time>
      </trkpt>
      <trkpt lat="46.31392" lon="5.65908">
        <ele>360.8</ele>
        <time>2022-07-29T13:24:48Z</time>
      </trkpt>
      <trkpt lat="46.3139" lon="5.6591">
        <ele>360.8</ele>
        <time>2022-07-29T13:24:49Z</time>
      </trkpt>
      <trkpt lat="46.31388" lon="5.65911">
        <ele>361.2</ele>
        <time>2022-07-29T13:24:50Z</time>
      </trkpt>
      <trkpt lat="46.31385" lon="5.65912">
        <ele>361.2</ele>
        <time>2022-07-29T13:24:51Z</time>
      </trkpt>
      <trkpt lat="46.31383" lon="5.65913">
        <ele>361.6</ele>
        <time>2022-07-29T13:24:52Z</time>
      </trkpt>
      <trkpt lat="46.31381" lon="5.65914">
        <ele>362</ele>
        <time>2022-07-29T13:24:53Z</time>
      </trkpt>
      <trkpt lat="46.31378" lon="5.65915">
        <ele>362.2</ele>
        <time>2022-07-29T13:24:54Z</time>
      </trkpt>
      <trkpt lat="46.31376" lon="5.65916">
        <ele>362.4</ele>
        <time>2022-07-29T13:24:55Z</time>
      </trkpt>
      <trkpt lat="46.31375" lon="5.65917">
        <ele>362.4</ele>
        <time>2022-07-29T13:24:56Z</time>
      </trkpt>
      <trkpt lat="46.31373" lon="5.65918">
        <ele>362.6</ele>
        <time>2022-07-29T13:24:57Z</time>
      </trkpt>
      <trkpt lat="46.31371" lon="5.65919">
        <ele>362.6</ele>
        <time>2022-07-29T13:24:58Z</time>
      </trkpt>
      <trkpt lat="46.31368" lon="5.6592">
        <ele>363</ele>
        <time>2022-07-29T13:24:59Z</time>
      </trkpt>
      <trkpt lat="46.31366" lon="5.65922">
        <ele>363</ele>
        <time>2022-07-29T13:25:00Z</time>
      </trkpt>
      <trkpt lat="46.31364" lon="5.65923">
        <ele>363.4</ele>
        <time>2022-07-29T13:25:01Z</time>
      </trkpt>
      <trkpt lat="46.31361" lon="5.65924">
        <ele>363.4</ele>
        <time>2022-07-29T13:25:02Z</time>
      </trkpt>
      <trkpt lat="46.31359" lon="5.65925">
        <ele>363.8</ele>
        <time>2022-07-29T13:25:03Z</time>
      </trkpt>
      <trkpt lat="46.31357" lon="5.65926">
        <ele>363.8</ele>
        <time>2022-07-29T13:25:04Z</time>
      </trkpt>
      <trkpt lat="46.31354" lon="5.65927">
        <ele>364.2</ele>
        <time>2022-07-29T13:25:05Z</time>
      </trkpt>
      <trkpt lat="46.31352" lon="5.65928">
        <ele>364.4</ele>
        <time>2022-07-29T13:25:06Z</time>
      </trkpt>
      <trkpt lat="46.3135" lon="5.65929">
        <ele>364.4</ele>
        <time>2022-07-29T13:25:07Z</time>
      </trkpt>
      <trkpt lat="46.31348" lon="5.6593">
        <ele>364.6</ele>
        <time>2022-07-29T13:25:08Z</time>
      </trkpt>
      <trkpt lat="46.31345" lon="5.65931">
        <ele>364.6</ele>
        <time>2022-07-29T13:25:09Z</time>
      </trkpt>
      <trkpt lat="46.31343" lon="5.65932">
        <ele>365</ele>
        <time>2022-07-29T13:25:10Z</time>
      </trkpt>
      <trkpt lat="46.31341" lon="5.65933">
        <ele>365</ele>
        <time>2022-07-29T13:25:11Z</time>
      </trkpt>
      <trkpt lat="46.31339" lon="5.65934">
        <ele>365.2</ele>
        <time>2022-07-29T13:25:12Z</time>
      </trkpt>
      <trkpt lat="46.31337" lon="5.65935">
        <ele>365.2</ele>
        <time>2022-07-29T13:25:13Z</time>
      </trkpt>
      <trkpt lat="46.31335" lon="5.65937">
        <ele>365.6</ele>
        <time>2022-07-29T13:25:14Z</time>
      </trkpt>
      <trkpt lat="46.31333" lon="5.65937">
        <ele>365.8</ele>
        <time>2022-07-29T13:25:15Z</time>
      </trkpt>
      <trkpt lat="46.3133" lon="5.65939">
        <ele>365.8</ele>
        <time>2022-07-29T13:25:16Z</time>
      </trkpt>
      <trkpt lat="46.31328" lon="5.6594">
        <ele>366.2</ele>
        <time>2022-07-29T13:25:17Z</time>
      </trkpt>
      <trkpt lat="46.31326" lon="5.65941">
        <ele>366.2</ele>
        <time>2022-07-29T13:25:18Z</time>
      </trkpt>
      <trkpt lat="46.31324" lon="5.65942">
        <ele>366.4</ele>
        <time>2022-07-29T13:25:19Z</time>
      </trkpt>
      <trkpt lat="46.31322" lon="5.65943">
        <ele>366.4</ele>
        <time>2022-07-29T13:25:20Z</time>
      </trkpt>
      <trkpt lat="46.31319" lon="5.65944">
        <ele>366.8</ele>
        <time>2022-07-29T13:25:21Z</time>
      </trkpt>
      <trkpt lat="46.31317" lon="5.65945">
        <ele>366.8</ele>
        <time>2022-07-29T13:25:22Z</time>
      </trkpt>
      <trkpt lat="46.31315" lon="5.65946">
        <ele>367.2</ele>
        <time>2022-07-29T13:25:23Z</time>
      </trkpt>
      <trkpt lat="46.31312" lon="5.65947">
        <ele>367.2</ele>
        <time>2022-07-29T13:25:24Z</time>
      </trkpt>
      <trkpt lat="46.3131" lon="5.65948">
        <ele>367.6</ele>
        <time>2022-07-29T13:25:25Z</time>
      </trkpt>
      <trkpt lat="46.31308" lon="5.65949">
        <ele>367.8</ele>
        <time>2022-07-29T13:25:26Z</time>
      </trkpt>
      <trkpt lat="46.31305" lon="5.6595">
        <ele>367.8</ele>
        <time>2022-07-29T13:25:27Z</time>
      </trkpt>
      <trkpt lat="46.31303" lon="5.65951">
        <ele>368.2</ele>
        <time>2022-07-29T13:25:28Z</time>
      </trkpt>
      <trkpt lat="46.31301" lon="5.65952">
        <ele>368.2</ele>
        <time>2022-07-29T13:25:29Z</time>
      </trkpt>
      <trkpt lat="46.31299" lon="5.65954">
        <ele>368.6</ele>
        <time>2022-07-29T13:25:30Z</time>
      </trkpt>
      <trkpt lat="46.31296" lon="5.65955">
        <ele>368.6</ele>
        <time>2022-07-29T13:25:31Z</time>
      </trkpt>
      <trkpt lat="46.31294" lon="5.65957">
        <ele>369</ele>
        <time>2022-07-29T13:25:32Z</time>
      </trkpt>
      <trkpt lat="46.31291" lon="5.65958">
        <ele>369.2</ele>
        <time>2022-07-29T13:25:33Z</time>
      </trkpt>
      <trkpt lat="46.31288" lon="5.65959">
        <ele>369.4</ele>
        <time>2022-07-29T13:25:34Z</time>
      </trkpt>
      <trkpt lat="46.31286" lon="5.65961">
        <ele>369.6</ele>
        <time>2022-07-29T13:25:35Z</time>
      </trkpt>
      <trkpt lat="46.31284" lon="5.65962">
        <ele>370</ele>
        <time>2022-07-29T13:25:36Z</time>
      </trkpt>
      <trkpt lat="46.31281" lon="5.65963">
        <ele>370</ele>
        <time>2022-07-29T13:25:37Z</time>
      </trkpt>
      <trkpt lat="46.31279" lon="5.65964">
        <ele>370.4</ele>
        <time>2022-07-29T13:25:38Z</time>
      </trkpt>
      <trkpt lat="46.31276" lon="5.65965">
        <ele>370.6</ele>
        <time>2022-07-29T13:25:39Z</time>
      </trkpt>
      <trkpt lat="46.31274" lon="5.65966">
        <ele>370.6</ele>
        <time>2022-07-29T13:25:40Z</time>
      </trkpt>
      <trkpt lat="46.31272" lon="5.65967">
        <ele>371</ele>
        <time>2022-07-29T13:25:41Z</time>
      </trkpt>
      <trkpt lat="46.31269" lon="5.65968">
        <ele>371</ele>
        <time>2022-07-29T13:25:42Z</time>
      </trkpt>
      <trkpt lat="46.31267" lon="5.6597">
        <ele>371.4</ele>
        <time>2022-07-29T13:25:43Z</time>
      </trkpt>
      <trkpt lat="46.31265" lon="5.6597">
        <ele>371.6</ele>
        <time>2022-07-29T13:25:44Z</time>
      </trkpt>
      <trkpt lat="46.31263" lon="5.65971">
        <ele>371.8</ele>
        <time>2022-07-29T13:25:45Z</time>
      </trkpt>
      <trkpt lat="46.31261" lon="5.65972">
        <ele>371.8</ele>
        <time>2022-07-29T13:25:46Z</time>
      </trkpt>
      <trkpt lat="46.31258" lon="5.65974">
        <ele>372.2</ele>
        <time>2022-07-29T13:25:47Z</time>
      </trkpt>
      <trkpt lat="46.31257" lon="5.65975">
        <ele>372.2</ele>
        <time>2022-07-29T13:25:48Z</time>
      </trkpt>
      <trkpt lat="46.31254" lon="5.65976">
        <ele>372.6</ele>
        <time>2022-07-29T13:25:49Z</time>
      </trkpt>
      <trkpt lat="46.31252" lon="5.65977">
        <ele>372.8</ele>
        <time>2022-07-29T13:25:50Z</time>
      </trkpt>
      <trkpt lat="46.3125" lon="5.65977">
        <ele>372.8</ele>
        <time>2022-07-29T13:25:51Z</time>
      </trkpt>
      <trkpt lat="46.31248" lon="5.65978">
        <ele>373</ele>
        <time>2022-07-29T13:25:52Z</time>
      </trkpt>
      <trkpt lat="46.31245" lon="5.65978">
        <ele>373</ele>
        <time>2022-07-29T13:25:53Z</time>
      </trkpt>
      <trkpt lat="46.31243" lon="5.65979">
        <ele>373.4</ele>
        <time>2022-07-29T13:25:54Z</time>
      </trkpt>
      <trkpt lat="46.31241" lon="5.6598">
        <ele>373.4</ele>
        <time>2022-07-29T13:25:55Z</time>
      </trkpt>
      <trkpt lat="46.31239" lon="5.65981">
        <ele>373.8</ele>
        <time>2022-07-29T13:25:56Z</time>
      </trkpt>
      <trkpt lat="46.31236" lon="5.65982">
        <ele>374</ele>
        <time>2022-07-29T13:25:57Z</time>
      </trkpt>
      <trkpt lat="46.31234" lon="5.65983">
        <ele>374.2</ele>
        <time>2022-07-29T13:25:58Z</time>
      </trkpt>
      <trkpt lat="46.31232" lon="5.65984">
        <ele>374.2</ele>
        <time>2022-07-29T13:25:59Z</time>
      </trkpt>
      <trkpt lat="46.31229" lon="5.65985">
        <ele>374.6</ele>
        <time>2022-07-29T13:26:00Z</time>
      </trkpt>
      <trkpt lat="46.31227" lon="5.65986">
        <ele>374.6</ele>
        <time>2022-07-29T13:26:01Z</time>
      </trkpt>
      <trkpt lat="46.31225" lon="5.65987">
        <ele>374.8</ele>
        <time>2022-07-29T13:26:02Z</time>
      </trkpt>
      <trkpt lat="46.31223" lon="5.65987">
        <ele>375</ele>
        <time>2022-07-29T13:26:03Z</time>
      </trkpt>
      <trkpt lat="46.31221" lon="5.65988">
        <ele>375</ele>
        <time>2022-07-29T13:26:04Z</time>
      </trkpt>
      <trkpt lat="46.31218" lon="5.65988">
        <ele>375.2</ele>
        <time>2022-07-29T13:26:05Z</time>
      </trkpt>
      <trkpt lat="46.31216" lon="5.65988">
        <ele>375.2</ele>
        <time>2022-07-29T13:26:06Z</time>
      </trkpt>
      <trkpt lat="46.31214" lon="5.65989">
        <ele>375.6</ele>
        <time>2022-07-29T13:26:07Z</time>
      </trkpt>
      <trkpt lat="46.31212" lon="5.6599">
        <ele>375.6</ele>
        <time>2022-07-29T13:26:08Z</time>
      </trkpt>
      <trkpt lat="46.3121" lon="5.6599">
        <ele>376</ele>
        <time>2022-07-29T13:26:09Z</time>
      </trkpt>
      <trkpt lat="46.31208" lon="5.65991">
        <ele>376</ele>
        <time>2022-07-29T13:26:10Z</time>
      </trkpt>
      <trkpt lat="46.31206" lon="5.65992">
        <ele>376.2</ele>
        <time>2022-07-29T13:26:11Z</time>
      </trkpt>
      <trkpt lat="46.31203" lon="5.65993">
        <ele>376.2</ele>
        <time>2022-07-29T13:26:12Z</time>
      </trkpt>
      <trkpt lat="46.31201" lon="5.65994">
        <ele>376.6</ele>
        <time>2022-07-29T13:26:13Z</time>
      </trkpt>
      <trkpt lat="46.31199" lon="5.65994">
        <ele>376.6</ele>
        <time>2022-07-29T13:26:14Z</time>
      </trkpt>
      <trkpt lat="46.31196" lon="5.65994">
        <ele>376.8</ele>
        <time>2022-07-29T13:26:15Z</time>
      </trkpt>
      <trkpt lat="46.31194" lon="5.65994">
        <ele>376.8</ele>
        <time>2022-07-29T13:26:16Z</time>
      </trkpt>
      <trkpt lat="46.31192" lon="5.65995">
        <ele>377.2</ele>
        <time>2022-07-29T13:26:17Z</time>
      </trkpt>
      <trkpt lat="46.31189" lon="5.65995">
        <ele>377.2</ele>
        <time>2022-07-29T13:26:18Z</time>
      </trkpt>
      <trkpt lat="46.31187" lon="5.65996">
        <ele>377.4</ele>
        <time>2022-07-29T13:26:19Z</time>
      </trkpt>
      <trkpt lat="46.31184" lon="5.65997">
        <ele>377.4</ele>
        <time>2022-07-29T13:26:20Z</time>
      </trkpt>
      <trkpt lat="46.31182" lon="5.65998">
        <ele>377.8</ele>
        <time>2022-07-29T13:26:21Z</time>
      </trkpt>
      <trkpt lat="46.31179" lon="5.65998">
        <ele>377.8</ele>
        <time>2022-07-29T13:26:22Z</time>
      </trkpt>
      <trkpt lat="46.31177" lon="5.65999">
        <ele>378</ele>
        <time>2022-07-29T13:26:23Z</time>
      </trkpt>
      <trkpt lat="46.31174" lon="5.65999">
        <ele>378.4</ele>
        <time>2022-07-29T13:26:24Z</time>
      </trkpt>
      <trkpt lat="46.31172" lon="5.66">
        <ele>378.4</ele>
        <time>2022-07-29T13:26:25Z</time>
      </trkpt>
      <trkpt lat="46.3117" lon="5.66001">
        <ele>378.8</ele>
        <time>2022-07-29T13:26:26Z</time>
      </trkpt>
      <trkpt lat="46.31167" lon="5.66002">
        <ele>378.8</ele>
        <time>2022-07-29T13:26:27Z</time>
      </trkpt>
      <trkpt lat="46.31165" lon="5.66002">
        <ele>379</ele>
        <time>2022-07-29T13:26:28Z</time>
      </trkpt>
      <trkpt lat="46.31162" lon="5.66002">
        <ele>379</ele>
        <time>2022-07-29T13:26:29Z</time>
      </trkpt>
      <trkpt lat="46.31159" lon="5.66003">
        <ele>379</ele>
        <time>2022-07-29T13:26:30Z</time>
      </trkpt>
      <trkpt lat="46.31156" lon="5.66003">
        <ele>379.4</ele>
        <time>2022-07-29T13:26:31Z</time>
      </trkpt>
      <trkpt lat="46.31154" lon="5.66003">
        <ele>379.4</ele>
        <time>2022-07-29T13:26:32Z</time>
      </trkpt>
      <trkpt lat="46.31151" lon="5.66004">
        <ele>379.4</ele>
        <time>2022-07-29T13:26:33Z</time>
      </trkpt>
      <trkpt lat="46.31148" lon="5.66003">
        <ele>379.6</ele>
        <time>2022-07-29T13:26:34Z</time>
      </trkpt>
      <trkpt lat="46.31145" lon="5.66003">
        <ele>379.6</ele>
        <time>2022-07-29T13:26:35Z</time>
      </trkpt>
      <trkpt lat="46.31142" lon="5.66003">
        <ele>379.6</ele>
        <time>2022-07-29T13:26:36Z</time>
      </trkpt>
      <trkpt lat="46.3114" lon="5.66003">
        <ele>380</ele>
        <time>2022-07-29T13:26:37Z</time>
      </trkpt>
      <trkpt lat="46.31137" lon="5.66003">
        <ele>380</ele>
        <time>2022-07-29T13:26:38Z</time>
      </trkpt>
      <trkpt lat="46.31133" lon="5.66003">
        <ele>380.2</ele>
        <time>2022-07-29T13:26:39Z</time>
      </trkpt>
      <trkpt lat="46.3113" lon="5.66003">
        <ele>380.2</ele>
        <time>2022-07-29T13:26:40Z</time>
      </trkpt>
      <trkpt lat="46.31127" lon="5.66003">
        <ele>380.4</ele>
        <time>2022-07-29T13:26:41Z</time>
      </trkpt>
      <trkpt lat="46.31124" lon="5.66004">
        <ele>380.4</ele>
        <time>2022-07-29T13:26:42Z</time>
      </trkpt>
      <trkpt lat="46.31121" lon="5.66004">
        <ele>380.6</ele>
        <time>2022-07-29T13:26:43Z</time>
      </trkpt>
      <trkpt lat="46.31118" lon="5.66004">
        <ele>380.6</ele>
        <time>2022-07-29T13:26:44Z</time>
      </trkpt>
      <trkpt lat="46.31115" lon="5.66005">
        <ele>381</ele>
        <time>2022-07-29T13:26:45Z</time>
      </trkpt>
      <trkpt lat="46.31112" lon="5.66006">
        <ele>381</ele>
        <time>2022-07-29T13:26:46Z</time>
      </trkpt>
      <trkpt lat="46.31108" lon="5.66007">
        <ele>381.2</ele>
        <time>2022-07-29T13:26:47Z</time>
      </trkpt>
      <trkpt lat="46.31104" lon="5.66008">
        <ele>381.2</ele>
        <time>2022-07-29T13:26:48Z</time>
      </trkpt>
      <trkpt lat="46.31101" lon="5.66009">
        <ele>381.2</ele>
        <time>2022-07-29T13:26:49Z</time>
      </trkpt>
      <trkpt lat="46.31097" lon="5.66009">
        <ele>381.4</ele>
        <time>2022-07-29T13:26:50Z</time>
      </trkpt>
      <trkpt lat="46.31094" lon="5.6601">
        <ele>381.4</ele>
        <time>2022-07-29T13:26:51Z</time>
      </trkpt>
      <trkpt lat="46.3109" lon="5.66011">
        <ele>381.4</ele>
        <time>2022-07-29T13:26:52Z</time>
      </trkpt>
      <trkpt lat="46.31086" lon="5.66011">
        <ele>381.8</ele>
        <time>2022-07-29T13:26:53Z</time>
      </trkpt>
      <trkpt lat="46.31083" lon="5.66012">
        <ele>381.8</ele>
        <time>2022-07-29T13:26:54Z</time>
      </trkpt>
      <trkpt lat="46.31079" lon="5.66013">
        <ele>381.8</ele>
        <time>2022-07-29T13:26:55Z</time>
      </trkpt>
      <trkpt lat="46.31075" lon="5.66014">
        <ele>382</ele>
        <time>2022-07-29T13:26:56Z</time>
      </trkpt>
      <trkpt lat="46.31071" lon="5.66014">
        <ele>382</ele>
        <time>2022-07-29T13:26:57Z</time>
      </trkpt>
      <trkpt lat="46.31067" lon="5.66014">
        <ele>382.2</ele>
        <time>2022-07-29T13:26:58Z</time>
      </trkpt>
      <trkpt lat="46.31063" lon="5.66014">
        <ele>382.2</ele>
        <time>2022-07-29T13:26:59Z</time>
      </trkpt>
      <trkpt lat="46.31059" lon="5.66014">
        <ele>382.2</ele>
        <time>2022-07-29T13:27:00Z</time>
      </trkpt>
      <trkpt lat="46.31054" lon="5.66015">
        <ele>382.2</ele>
        <time>2022-07-29T13:27:01Z</time>
      </trkpt>
      <trkpt lat="46.3105" lon="5.66014">
        <ele>382.2</ele>
        <time>2022-07-29T13:27:02Z</time>
      </trkpt>
      <trkpt lat="46.31045" lon="5.66014">
        <ele>382.2</ele>
        <time>2022-07-29T13:27:03Z</time>
      </trkpt>
      <trkpt lat="46.31041" lon="5.66013">
        <ele>382.2</ele>
        <time>2022-07-29T13:27:04Z</time>
      </trkpt>
      <trkpt lat="46.31036" lon="5.66014">
        <ele>382.2</ele>
        <time>2022-07-29T13:27:05Z</time>
      </trkpt>
      <trkpt lat="46.31031" lon="5.66014">
        <ele>382.2</ele>
        <time>2022-07-29T13:27:06Z</time>
      </trkpt>
      <trkpt lat="46.31026" lon="5.66016">
        <ele>382.2</ele>
        <time>2022-07-29T13:27:07Z</time>
      </trkpt>
      <trkpt lat="46.31021" lon="5.66016">
        <ele>382.2</ele>
        <time>2022-07-29T13:27:08Z</time>
      </trkpt>
      <trkpt lat="46.31016" lon="5.66017">
        <ele>382.2</ele>
        <time>2022-07-29T13:27:09Z</time>
      </trkpt>
      <trkpt lat="46.31011" lon="5.66017">
        <ele>382.2</ele>
        <time>2022-07-29T13:27:10Z</time>
      </trkpt>
      <trkpt lat="46.31006" lon="5.66018">
        <ele>382.2</ele>
        <time>2022-07-29T13:27:11Z</time>
      </trkpt>
      <trkpt lat="46.31001" lon="5.66019">
        <ele>382.2</ele>
        <time>2022-07-29T13:27:12Z</time>
      </trkpt>
      <trkpt lat="46.30995" lon="5.6602">
        <ele>382.2</ele>
        <time>2022-07-29T13:27:13Z</time>
      </trkpt>
      <trkpt lat="46.30989" lon="5.66021">
        <ele>382.2</ele>
        <time>2022-07-29T13:27:14Z</time>
      </trkpt>
      <trkpt lat="46.30984" lon="5.66024">
        <ele>382.2</ele>
        <time>2022-07-29T13:27:15Z</time>
      </trkpt>
      <trkpt lat="46.30978" lon="5.66026">
        <ele>382.2</ele>
        <time>2022-07-29T13:27:16Z</time>
      </trkpt>
      <trkpt lat="46.30972" lon="5.66028">
        <ele>382.2</ele>
        <time>2022-07-29T13:27:17Z</time>
      </trkpt>
      <trkpt lat="46.30967" lon="5.6603">
        <ele>382.2</ele>
        <time>2022-07-29T13:27:18Z</time>
      </trkpt>
      <trkpt lat="46.30961" lon="5.66033">
        <ele>382.2</ele>
        <time>2022-07-29T13:27:19Z</time>
      </trkpt>
      <trkpt lat="46.30956" lon="5.66036">
        <ele>382</ele>
        <time>2022-07-29T13:27:20Z</time>
      </trkpt>
      <trkpt lat="46.3095" lon="5.66038">
        <ele>382</ele>
        <time>2022-07-29T13:27:21Z</time>
      </trkpt>
      <trkpt lat="46.30944" lon="5.66041">
        <ele>382</ele>
        <time>2022-07-29T13:27:22Z</time>
      </trkpt>
      <trkpt lat="46.30939" lon="5.66043">
        <ele>382</ele>
        <time>2022-07-29T13:27:23Z</time>
      </trkpt>
      <trkpt lat="46.30933" lon="5.66046">
        <ele>382</ele>
        <time>2022-07-29T13:27:24Z</time>
      </trkpt>
      <trkpt lat="46.30927" lon="5.66048">
        <ele>382</ele>
        <time>2022-07-29T13:27:25Z</time>
      </trkpt>
      <trkpt lat="46.30922" lon="5.6605">
        <ele>382</ele>
        <time>2022-07-29T13:27:26Z</time>
      </trkpt>
      <trkpt lat="46.30916" lon="5.66052">
        <ele>382.2</ele>
        <time>2022-07-29T13:27:27Z</time>
      </trkpt>
      <trkpt lat="46.30911" lon="5.66054">
        <ele>382.2</ele>
        <time>2022-07-29T13:27:28Z</time>
      </trkpt>
      <trkpt lat="46.30905" lon="5.66055">
        <ele>382.2</ele>
        <time>2022-07-29T13:27:29Z</time>
      </trkpt>
      <trkpt lat="46.309" lon="5.66057">
        <ele>382.2</ele>
        <time>2022-07-29T13:27:30Z</time>
      </trkpt>
      <trkpt lat="46.30895" lon="5.66059">
        <ele>382.2</ele>
        <time>2022-07-29T13:27:31Z</time>
      </trkpt>
      <trkpt lat="46.3089" lon="5.6606">
        <ele>382.4</ele>
        <time>2022-07-29T13:27:32Z</time>
      </trkpt>
      <trkpt lat="46.30885" lon="5.66062">
        <ele>382.4</ele>
        <time>2022-07-29T13:27:33Z</time>
      </trkpt>
      <trkpt lat="46.30881" lon="5.66064">
        <ele>382.6</ele>
        <time>2022-07-29T13:27:34Z</time>
      </trkpt>
      <trkpt lat="46.30876" lon="5.66067">
        <ele>382.6</ele>
        <time>2022-07-29T13:27:35Z</time>
      </trkpt>
      <trkpt lat="46.30871" lon="5.66069">
        <ele>382.8</ele>
        <time>2022-07-29T13:27:36Z</time>
      </trkpt>
      <trkpt lat="46.30867" lon="5.66071">
        <ele>382.8</ele>
        <time>2022-07-29T13:27:37Z</time>
      </trkpt>
      <trkpt lat="46.30862" lon="5.66073">
        <ele>383.2</ele>
        <time>2022-07-29T13:27:38Z</time>
      </trkpt>
      <trkpt lat="46.30858" lon="5.66075">
        <ele>383.2</ele>
        <time>2022-07-29T13:27:39Z</time>
      </trkpt>
      <trkpt lat="46.30854" lon="5.66076">
        <ele>383.4</ele>
        <time>2022-07-29T13:27:40Z</time>
      </trkpt>
      <trkpt lat="46.3085" lon="5.66078">
        <ele>383.4</ele>
        <time>2022-07-29T13:27:41Z</time>
      </trkpt>
      <trkpt lat="46.30845" lon="5.6608">
        <ele>383.6</ele>
        <time>2022-07-29T13:27:42Z</time>
      </trkpt>
      <trkpt lat="46.30841" lon="5.66082">
        <ele>383.6</ele>
        <time>2022-07-29T13:27:43Z</time>
      </trkpt>
      <trkpt lat="46.30836" lon="5.66085">
        <ele>383.8</ele>
        <time>2022-07-29T13:27:44Z</time>
      </trkpt>
      <trkpt lat="46.30831" lon="5.66087">
        <ele>383.8</ele>
        <time>2022-07-29T13:27:45Z</time>
      </trkpt>
      <trkpt lat="46.30827" lon="5.6609">
        <ele>383.8</ele>
        <time>2022-07-29T13:27:46Z</time>
      </trkpt>
      <trkpt lat="46.30822" lon="5.66092">
        <ele>383.8</ele>
        <time>2022-07-29T13:27:47Z</time>
      </trkpt>
      <trkpt lat="46.30817" lon="5.66095">
        <ele>384</ele>
        <time>2022-07-29T13:27:48Z</time>
      </trkpt>
      <trkpt lat="46.30812" lon="5.66098">
        <ele>384</ele>
        <time>2022-07-29T13:27:49Z</time>
      </trkpt>
      <trkpt lat="46.30806" lon="5.66101">
        <ele>384</ele>
        <time>2022-07-29T13:27:50Z</time>
      </trkpt>
      <trkpt lat="46.30801" lon="5.66104">
        <ele>384</ele>
        <time>2022-07-29T13:27:51Z</time>
      </trkpt>
      <trkpt lat="46.30796" lon="5.66108">
        <ele>384.4</ele>
        <time>2022-07-29T13:27:52Z</time>
      </trkpt>
      <trkpt lat="46.30791" lon="5.66112">
        <ele>384.4</ele>
        <time>2022-07-29T13:27:53Z</time>
      </trkpt>
      <trkpt lat="46.30786" lon="5.66115">
        <ele>384.6</ele>
        <time>2022-07-29T13:27:54Z</time>
      </trkpt>
      <trkpt lat="46.30781" lon="5.66118">
        <ele>384.6</ele>
        <time>2022-07-29T13:27:55Z</time>
      </trkpt>
      <trkpt lat="46.30777" lon="5.66121">
        <ele>384.8</ele>
        <time>2022-07-29T13:27:56Z</time>
      </trkpt>
      <trkpt lat="46.30772" lon="5.66125">
        <ele>385</ele>
        <time>2022-07-29T13:27:57Z</time>
      </trkpt>
      <trkpt lat="46.30767" lon="5.66131">
        <ele>385</ele>
        <time>2022-07-29T13:27:58Z</time>
      </trkpt>
      <trkpt lat="46.30763" lon="5.66135">
        <ele>385.6</ele>
        <time>2022-07-29T13:27:59Z</time>
      </trkpt>
      <trkpt lat="46.30759" lon="5.66138">
        <ele>385.6</ele>
        <time>2022-07-29T13:28:00Z</time>
      </trkpt>
      <trkpt lat="46.30755" lon="5.66141">
        <ele>386</ele>
        <time>2022-07-29T13:28:01Z</time>
      </trkpt>
      <trkpt lat="46.30751" lon="5.66144">
        <ele>386</ele>
        <time>2022-07-29T13:28:02Z</time>
      </trkpt>
      <trkpt lat="46.30748" lon="5.66145">
        <ele>386.4</ele>
        <time>2022-07-29T13:28:03Z</time>
      </trkpt>
      <trkpt lat="46.30744" lon="5.66147">
        <ele>386.4</ele>
        <time>2022-07-29T13:28:04Z</time>
      </trkpt>
      <trkpt lat="46.30741" lon="5.66148">
        <ele>386.8</ele>
        <time>2022-07-29T13:28:05Z</time>
      </trkpt>
      <trkpt lat="46.30738" lon="5.6615">
        <ele>387</ele>
        <time>2022-07-29T13:28:06Z</time>
      </trkpt>
      <trkpt lat="46.30734" lon="5.66151">
        <ele>387.2</ele>
        <time>2022-07-29T13:28:07Z</time>
      </trkpt>
      <trkpt lat="46.30731" lon="5.66152">
        <ele>387.4</ele>
        <time>2022-07-29T13:28:08Z</time>
      </trkpt>
      <trkpt lat="46.30728" lon="5.66154">
        <ele>387.4</ele>
        <time>2022-07-29T13:28:09Z</time>
      </trkpt>
      <trkpt lat="46.30725" lon="5.66154">
        <ele>387.8</ele>
        <time>2022-07-29T13:28:10Z</time>
      </trkpt>
      <trkpt lat="46.30723" lon="5.66155">
        <ele>388</ele>
        <time>2022-07-29T13:28:11Z</time>
      </trkpt>
      <trkpt lat="46.3072" lon="5.66156">
        <ele>388</ele>
        <time>2022-07-29T13:28:12Z</time>
      </trkpt>
      <trkpt lat="46.30717" lon="5.66157">
        <ele>388.4</ele>
        <time>2022-07-29T13:28:13Z</time>
      </trkpt>
      <trkpt lat="46.30715" lon="5.66158">
        <ele>388.6</ele>
        <time>2022-07-29T13:28:14Z</time>
      </trkpt>
      <trkpt lat="46.30712" lon="5.66159">
        <ele>388.6</ele>
        <time>2022-07-29T13:28:15Z</time>
      </trkpt>
      <trkpt lat="46.30709" lon="5.6616">
        <ele>389</ele>
        <time>2022-07-29T13:28:16Z</time>
      </trkpt>
      <trkpt lat="46.30706" lon="5.66161">
        <ele>389</ele>
        <time>2022-07-29T13:28:17Z</time>
      </trkpt>
      <trkpt lat="46.30704" lon="5.66161">
        <ele>389.4</ele>
        <time>2022-07-29T13:28:18Z</time>
      </trkpt>
      <trkpt lat="46.30701" lon="5.66162">
        <ele>389.4</ele>
        <time>2022-07-29T13:28:19Z</time>
      </trkpt>
      <trkpt lat="46.30698" lon="5.66163">
        <ele>389.8</ele>
        <time>2022-07-29T13:28:20Z</time>
      </trkpt>
      <trkpt lat="46.30695" lon="5.66163">
        <ele>390</ele>
        <time>2022-07-29T13:28:21Z</time>
      </trkpt>
      <trkpt lat="46.30692" lon="5.66164">
        <ele>390</ele>
        <time>2022-07-29T13:28:22Z</time>
      </trkpt>
      <trkpt lat="46.30689" lon="5.66164">
        <ele>390.2</ele>
        <time>2022-07-29T13:28:23Z</time>
      </trkpt>
      <trkpt lat="46.30686" lon="5.66165">
        <ele>390.2</ele>
        <time>2022-07-29T13:28:24Z</time>
      </trkpt>
      <trkpt lat="46.30683" lon="5.66166">
        <ele>390.6</ele>
        <time>2022-07-29T13:28:25Z</time>
      </trkpt>
      <trkpt lat="46.3068" lon="5.66167">
        <ele>390.6</ele>
        <time>2022-07-29T13:28:26Z</time>
      </trkpt>
      <trkpt lat="46.30678" lon="5.66168">
        <ele>390.8</ele>
        <time>2022-07-29T13:28:27Z</time>
      </trkpt>
      <trkpt lat="46.30675" lon="5.66169">
        <ele>390.8</ele>
        <time>2022-07-29T13:28:28Z</time>
      </trkpt>
      <trkpt lat="46.30672" lon="5.6617">
        <ele>391.2</ele>
        <time>2022-07-29T13:28:29Z</time>
      </trkpt>
      <trkpt lat="46.30669" lon="5.66171">
        <ele>391.4</ele>
        <time>2022-07-29T13:28:30Z</time>
      </trkpt>
      <trkpt lat="46.30666" lon="5.66172">
        <ele>391.4</ele>
        <time>2022-07-29T13:28:31Z</time>
      </trkpt>
      <trkpt lat="46.30663" lon="5.66173">
        <ele>391.8</ele>
        <time>2022-07-29T13:28:32Z</time>
      </trkpt>
      <trkpt lat="46.3066" lon="5.66174">
        <ele>391.8</ele>
        <time>2022-07-29T13:28:33Z</time>
      </trkpt>
      <trkpt lat="46.30657" lon="5.66174">
        <ele>392</ele>
        <time>2022-07-29T13:28:34Z</time>
      </trkpt>
      <trkpt lat="46.30655" lon="5.66175">
        <ele>392</ele>
        <time>2022-07-29T13:28:35Z</time>
      </trkpt>
      <trkpt lat="46.30651" lon="5.66176">
        <ele>392.4</ele>
        <time>2022-07-29T13:28:36Z</time>
      </trkpt>
      <trkpt lat="46.30648" lon="5.66176">
        <ele>392.4</ele>
        <time>2022-07-29T13:28:37Z</time>
      </trkpt>
      <trkpt lat="46.30645" lon="5.66177">
        <ele>392.6</ele>
        <time>2022-07-29T13:28:38Z</time>
      </trkpt>
      <trkpt lat="46.30642" lon="5.66177">
        <ele>392.6</ele>
        <time>2022-07-29T13:28:39Z</time>
      </trkpt>
      <trkpt lat="46.30638" lon="5.66178">
        <ele>392.8</ele>
        <time>2022-07-29T13:28:40Z</time>
      </trkpt>
      <trkpt lat="46.30634" lon="5.66177">
        <ele>392.8</ele>
        <time>2022-07-29T13:28:41Z</time>
      </trkpt>
      <trkpt lat="46.3063" lon="5.66176">
        <ele>393.2</ele>
        <time>2022-07-29T13:28:42Z</time>
      </trkpt>
      <trkpt lat="46.30627" lon="5.66174">
        <ele>393.2</ele>
        <time>2022-07-29T13:28:43Z</time>
      </trkpt>
      <trkpt lat="46.30623" lon="5.6617">
        <ele>393.4</ele>
        <time>2022-07-29T13:28:44Z</time>
      </trkpt>
      <trkpt lat="46.3062" lon="5.66167">
        <ele>393.4</ele>
        <time>2022-07-29T13:28:45Z</time>
      </trkpt>
      <trkpt lat="46.30615" lon="5.66165">
        <ele>393.4</ele>
        <time>2022-07-29T13:28:46Z</time>
      </trkpt>
      <trkpt lat="46.30611" lon="5.66163">
        <ele>393.4</ele>
        <time>2022-07-29T13:28:47Z</time>
      </trkpt>
      <trkpt lat="46.30606" lon="5.66164">
        <ele>393.4</ele>
        <time>2022-07-29T13:28:48Z</time>
      </trkpt>
      <trkpt lat="46.30602" lon="5.66166">
        <ele>393.4</ele>
        <time>2022-07-29T13:28:49Z</time>
      </trkpt>
      <trkpt lat="46.30602" lon="5.66166">
        <ele>393.4</ele>
        <time>2022-07-29T13:28:50Z</time>
      </trkpt>
      <trkpt lat="46.30598" lon="5.6617">
        <ele>393.4</ele>
        <time>2022-07-29T13:28:51Z</time>
      </trkpt>
      <trkpt lat="46.30595" lon="5.66175">
        <ele>393.4</ele>
        <time>2022-07-29T13:28:52Z</time>
      </trkpt>
      <trkpt lat="46.30592" lon="5.66181">
        <ele>393.2</ele>
        <time>2022-07-29T13:28:53Z</time>
      </trkpt>
      <trkpt lat="46.3059" lon="5.66187">
        <ele>393.2</ele>
        <time>2022-07-29T13:28:54Z</time>
      </trkpt>
      <trkpt lat="46.30589" lon="5.66195">
        <ele>393</ele>
        <time>2022-07-29T13:28:55Z</time>
      </trkpt>
      <trkpt lat="46.30587" lon="5.66202">
        <ele>393</ele>
        <time>2022-07-29T13:28:56Z</time>
      </trkpt>
      <trkpt lat="46.30584" lon="5.66209">
        <ele>392.6</ele>
        <time>2022-07-29T13:28:57Z</time>
      </trkpt>
      <trkpt lat="46.30579" lon="5.66213">
        <ele>392.6</ele>
        <time>2022-07-29T13:28:58Z</time>
      </trkpt>
      <trkpt lat="46.30573" lon="5.66215">
        <ele>392.4</ele>
        <time>2022-07-29T13:28:59Z</time>
      </trkpt>
      <trkpt lat="46.30567" lon="5.66215">
        <ele>392.4</ele>
        <time>2022-07-29T13:29:00Z</time>
      </trkpt>
      <trkpt lat="46.30561" lon="5.66213">
        <ele>392.2</ele>
        <time>2022-07-29T13:29:01Z</time>
      </trkpt>
      <trkpt lat="46.30556" lon="5.6621">
        <ele>392</ele>
        <time>2022-07-29T13:29:02Z</time>
      </trkpt>
      <trkpt lat="46.3055" lon="5.66206">
        <ele>392</ele>
        <time>2022-07-29T13:29:03Z</time>
      </trkpt>
      <trkpt lat="46.30545" lon="5.66202">
        <ele>392</ele>
        <time>2022-07-29T13:29:04Z</time>
      </trkpt>
      <trkpt lat="46.3054" lon="5.66198">
        <ele>392</ele>
        <time>2022-07-29T13:29:05Z</time>
      </trkpt>
      <trkpt lat="46.30535" lon="5.66194">
        <ele>391.6</ele>
        <time>2022-07-29T13:29:06Z</time>
      </trkpt>
      <trkpt lat="46.3053" lon="5.6619">
        <ele>391.6</ele>
        <time>2022-07-29T13:29:07Z</time>
      </trkpt>
      <trkpt lat="46.30525" lon="5.66187">
        <ele>391.6</ele>
        <time>2022-07-29T13:29:08Z</time>
      </trkpt>
      <trkpt lat="46.3052" lon="5.66183">
        <ele>391.6</ele>
        <time>2022-07-29T13:29:09Z</time>
      </trkpt>
      <trkpt lat="46.30515" lon="5.6618">
        <ele>391.6</ele>
        <time>2022-07-29T13:29:10Z</time>
      </trkpt>
      <trkpt lat="46.3051" lon="5.66176">
        <ele>391.6</ele>
        <time>2022-07-29T13:29:11Z</time>
      </trkpt>
      <trkpt lat="46.30505" lon="5.66173">
        <ele>391.6</ele>
        <time>2022-07-29T13:29:12Z</time>
      </trkpt>
      <trkpt lat="46.30501" lon="5.6617">
        <ele>391.6</ele>
        <time>2022-07-29T13:29:13Z</time>
      </trkpt>
      <trkpt lat="46.30496" lon="5.66167">
        <ele>392</ele>
        <time>2022-07-29T13:29:14Z</time>
      </trkpt>
      <trkpt lat="46.30492" lon="5.66164">
        <ele>392</ele>
        <time>2022-07-29T13:29:15Z</time>
      </trkpt>
      <trkpt lat="46.30488" lon="5.66161">
        <ele>392</ele>
        <time>2022-07-29T13:29:16Z</time>
      </trkpt>
      <trkpt lat="46.30483" lon="5.66157">
        <ele>392</ele>
        <time>2022-07-29T13:29:17Z</time>
      </trkpt>
      <trkpt lat="46.30479" lon="5.66153">
        <ele>392</ele>
        <time>2022-07-29T13:29:18Z</time>
      </trkpt>
      <trkpt lat="46.30475" lon="5.66149">
        <ele>392</ele>
        <time>2022-07-29T13:29:19Z</time>
      </trkpt>
      <trkpt lat="46.30471" lon="5.66145">
        <ele>392</ele>
        <time>2022-07-29T13:29:20Z</time>
      </trkpt>
      <trkpt lat="46.30467" lon="5.6614">
        <ele>392</ele>
        <time>2022-07-29T13:29:21Z</time>
      </trkpt>
      <trkpt lat="46.30463" lon="5.66136">
        <ele>392</ele>
        <time>2022-07-29T13:29:22Z</time>
      </trkpt>
      <trkpt lat="46.30459" lon="5.66132">
        <ele>392</ele>
        <time>2022-07-29T13:29:23Z</time>
      </trkpt>
      <trkpt lat="46.30455" lon="5.66128">
        <ele>392</ele>
        <time>2022-07-29T13:29:24Z</time>
      </trkpt>
      <trkpt lat="46.30451" lon="5.66123">
        <ele>392</ele>
        <time>2022-07-29T13:29:25Z</time>
      </trkpt>
      <trkpt lat="46.30447" lon="5.66119">
        <ele>392</ele>
        <time>2022-07-29T13:29:26Z</time>
      </trkpt>
      <trkpt lat="46.30442" lon="5.66114">
        <ele>392</ele>
        <time>2022-07-29T13:29:27Z</time>
      </trkpt>
      <trkpt lat="46.30438" lon="5.66109">
        <ele>392</ele>
        <time>2022-07-29T13:29:28Z</time>
      </trkpt>
      <trkpt lat="46.30434" lon="5.66105">
        <ele>392</ele>
        <time>2022-07-29T13:29:29Z</time>
      </trkpt>
      <trkpt lat="46.3043" lon="5.66101">
        <ele>392</ele>
        <time>2022-07-29T13:29:30Z</time>
      </trkpt>
      <trkpt lat="46.30426" lon="5.66097">
        <ele>392</ele>
        <time>2022-07-29T13:29:31Z</time>
      </trkpt>
      <trkpt lat="46.30421" lon="5.66092">
        <ele>391.6</ele>
        <time>2022-07-29T13:29:32Z</time>
      </trkpt>
      <trkpt lat="46.30417" lon="5.66088">
        <ele>391.6</ele>
        <time>2022-07-29T13:29:33Z</time>
      </trkpt>
      <trkpt lat="46.30412" lon="5.66083">
        <ele>391.6</ele>
        <time>2022-07-29T13:29:34Z</time>
      </trkpt>
      <trkpt lat="46.30408" lon="5.66078">
        <ele>391.4</ele>
        <time>2022-07-29T13:29:35Z</time>
      </trkpt>
      <trkpt lat="46.30403" lon="5.66073">
        <ele>391.4</ele>
        <time>2022-07-29T13:29:36Z</time>
      </trkpt>
      <trkpt lat="46.30398" lon="5.66068">
        <ele>391.4</ele>
        <time>2022-07-29T13:29:37Z</time>
      </trkpt>
      <trkpt lat="46.30393" lon="5.66063">
        <ele>391.2</ele>
        <time>2022-07-29T13:29:38Z</time>
      </trkpt>
      <trkpt lat="46.30389" lon="5.66058">
        <ele>391.2</ele>
        <time>2022-07-29T13:29:39Z</time>
      </trkpt>
      <trkpt lat="46.30384" lon="5.66054">
        <ele>391.2</ele>
        <time>2022-07-29T13:29:40Z</time>
      </trkpt>
      <trkpt lat="46.30379" lon="5.6605">
        <ele>391.2</ele>
        <time>2022-07-29T13:29:41Z</time>
      </trkpt>
      <trkpt lat="46.30375" lon="5.66045">
        <ele>391.2</ele>
        <time>2022-07-29T13:29:42Z</time>
      </trkpt>
      <trkpt lat="46.30371" lon="5.66041">
        <ele>391.2</ele>
        <time>2022-07-29T13:29:43Z</time>
      </trkpt>
      <trkpt lat="46.30367" lon="5.66037">
        <ele>391.2</ele>
        <time>2022-07-29T13:29:44Z</time>
      </trkpt>
      <trkpt lat="46.30363" lon="5.66033">
        <ele>391.2</ele>
        <time>2022-07-29T13:29:45Z</time>
      </trkpt>
      <trkpt lat="46.30359" lon="5.66029">
        <ele>391.4</ele>
        <time>2022-07-29T13:29:46Z</time>
      </trkpt>
      <trkpt lat="46.30355" lon="5.66025">
        <ele>391.4</ele>
        <time>2022-07-29T13:29:47Z</time>
      </trkpt>
      <trkpt lat="46.30351" lon="5.66021">
        <ele>391.4</ele>
        <time>2022-07-29T13:29:48Z</time>
      </trkpt>
      <trkpt lat="46.30346" lon="5.66017">
        <ele>391.6</ele>
        <time>2022-07-29T13:29:49Z</time>
      </trkpt>
      <trkpt lat="46.30343" lon="5.66013">
        <ele>391.6</ele>
        <time>2022-07-29T13:29:50Z</time>
      </trkpt>
      <trkpt lat="46.30339" lon="5.6601">
        <ele>391.6</ele>
        <time>2022-07-29T13:29:51Z</time>
      </trkpt>
      <trkpt lat="46.30335" lon="5.66006">
        <ele>392</ele>
        <time>2022-07-29T13:29:52Z</time>
      </trkpt>
      <trkpt lat="46.30331" lon="5.66003">
        <ele>392</ele>
        <time>2022-07-29T13:29:53Z</time>
      </trkpt>
      <trkpt lat="46.30328" lon="5.66">
        <ele>392.2</ele>
        <time>2022-07-29T13:29:54Z</time>
      </trkpt>
      <trkpt lat="46.30324" lon="5.65997">
        <ele>392.2</ele>
        <time>2022-07-29T13:29:55Z</time>
      </trkpt>
      <trkpt lat="46.30321" lon="5.65994">
        <ele>392.4</ele>
        <time>2022-07-29T13:29:56Z</time>
      </trkpt>
      <trkpt lat="46.30317" lon="5.65991">
        <ele>392.4</ele>
        <time>2022-07-29T13:29:57Z</time>
      </trkpt>
      <trkpt lat="46.30314" lon="5.65988">
        <ele>392.8</ele>
        <time>2022-07-29T13:29:58Z</time>
      </trkpt>
      <trkpt lat="46.30311" lon="5.65985">
        <ele>392.8</ele>
        <time>2022-07-29T13:29:59Z</time>
      </trkpt>
      <trkpt lat="46.30307" lon="5.65982">
        <ele>393.2</ele>
        <time>2022-07-29T13:30:00Z</time>
      </trkpt>
      <trkpt lat="46.30304" lon="5.65979">
        <ele>393.2</ele>
        <time>2022-07-29T13:30:01Z</time>
      </trkpt>
      <trkpt lat="46.30301" lon="5.65976">
        <ele>393.6</ele>
        <time>2022-07-29T13:30:02Z</time>
      </trkpt>
      <trkpt lat="46.30297" lon="5.65974">
        <ele>393.6</ele>
        <time>2022-07-29T13:30:03Z</time>
      </trkpt>
      <trkpt lat="46.30294" lon="5.6597">
        <ele>394</ele>
        <time>2022-07-29T13:30:04Z</time>
      </trkpt>
      <trkpt lat="46.30291" lon="5.65967">
        <ele>394.2</ele>
        <time>2022-07-29T13:30:05Z</time>
      </trkpt>
      <trkpt lat="46.30288" lon="5.65964">
        <ele>394.4</ele>
        <time>2022-07-29T13:30:06Z</time>
      </trkpt>
      <trkpt lat="46.30285" lon="5.65962">
        <ele>394.4</ele>
        <time>2022-07-29T13:30:07Z</time>
      </trkpt>
      <trkpt lat="46.30282" lon="5.65959">
        <ele>394.8</ele>
        <time>2022-07-29T13:30:08Z</time>
      </trkpt>
      <trkpt lat="46.30279" lon="5.65956">
        <ele>395</ele>
        <time>2022-07-29T13:30:09Z</time>
      </trkpt>
      <trkpt lat="46.30276" lon="5.65953">
        <ele>395.2</ele>
        <time>2022-07-29T13:30:10Z</time>
      </trkpt>
      <trkpt lat="46.30273" lon="5.6595">
        <ele>395.6</ele>
        <time>2022-07-29T13:30:11Z</time>
      </trkpt>
      <trkpt lat="46.3027" lon="5.65947">
        <ele>395.8</ele>
        <time>2022-07-29T13:30:12Z</time>
      </trkpt>
      <trkpt lat="46.30267" lon="5.65944">
        <ele>396</ele>
        <time>2022-07-29T13:30:13Z</time>
      </trkpt>
      <trkpt lat="46.30264" lon="5.65942">
        <ele>396.2</ele>
        <time>2022-07-29T13:30:14Z</time>
      </trkpt>
      <trkpt lat="46.30261" lon="5.65939">
        <ele>396.4</ele>
        <time>2022-07-29T13:30:15Z</time>
      </trkpt>
      <trkpt lat="46.30259" lon="5.65937">
        <ele>396.6</ele>
        <time>2022-07-29T13:30:16Z</time>
      </trkpt>
      <trkpt lat="46.30256" lon="5.65935">
        <ele>396.6</ele>
        <time>2022-07-29T13:30:17Z</time>
      </trkpt>
      <trkpt lat="46.30254" lon="5.65932">
        <ele>397.2</ele>
        <time>2022-07-29T13:30:18Z</time>
      </trkpt>
      <trkpt lat="46.30252" lon="5.6593">
        <ele>397.2</ele>
        <time>2022-07-29T13:30:19Z</time>
      </trkpt>
      <trkpt lat="46.3025" lon="5.65927">
        <ele>397.6</ele>
        <time>2022-07-29T13:30:20Z</time>
      </trkpt>
      <trkpt lat="46.30247" lon="5.65924">
        <ele>397.8</ele>
        <time>2022-07-29T13:30:21Z</time>
      </trkpt>
      <trkpt lat="46.30245" lon="5.65922">
        <ele>397.8</ele>
        <time>2022-07-29T13:30:22Z</time>
      </trkpt>
      <trkpt lat="46.30243" lon="5.6592">
        <ele>398.2</ele>
        <time>2022-07-29T13:30:23Z</time>
      </trkpt>
      <trkpt lat="46.30241" lon="5.65918">
        <ele>398.4</ele>
        <time>2022-07-29T13:30:24Z</time>
      </trkpt>
      <trkpt lat="46.30239" lon="5.65916">
        <ele>398.4</ele>
        <time>2022-07-29T13:30:25Z</time>
      </trkpt>
      <trkpt lat="46.30237" lon="5.65914">
        <ele>398.8</ele>
        <time>2022-07-29T13:30:26Z</time>
      </trkpt>
      <trkpt lat="46.30235" lon="5.65911">
        <ele>398.8</ele>
        <time>2022-07-29T13:30:27Z</time>
      </trkpt>
      <trkpt lat="46.30233" lon="5.6591">
        <ele>399</ele>
        <time>2022-07-29T13:30:28Z</time>
      </trkpt>
      <trkpt lat="46.3023" lon="5.65907">
        <ele>399</ele>
        <time>2022-07-29T13:30:29Z</time>
      </trkpt>
      <trkpt lat="46.30228" lon="5.65905">
        <ele>399.4</ele>
        <time>2022-07-29T13:30:30Z</time>
      </trkpt>
      <trkpt lat="46.30226" lon="5.65903">
        <ele>399.4</ele>
        <time>2022-07-29T13:30:31Z</time>
      </trkpt>
      <trkpt lat="46.30224" lon="5.65901">
        <ele>399.6</ele>
        <time>2022-07-29T13:30:32Z</time>
      </trkpt>
      <trkpt lat="46.30221" lon="5.65899">
        <ele>399.6</ele>
        <time>2022-07-29T13:30:33Z</time>
      </trkpt>
      <trkpt lat="46.30219" lon="5.65897">
        <ele>400</ele>
        <time>2022-07-29T13:30:34Z</time>
      </trkpt>
      <trkpt lat="46.30217" lon="5.65895">
        <ele>400</ele>
        <time>2022-07-29T13:30:35Z</time>
      </trkpt>
      <trkpt lat="46.30215" lon="5.65893">
        <ele>400.2</ele>
        <time>2022-07-29T13:30:36Z</time>
      </trkpt>
      <trkpt lat="46.30212" lon="5.65891">
        <ele>400.2</ele>
        <time>2022-07-29T13:30:37Z</time>
      </trkpt>
      <trkpt lat="46.3021" lon="5.65889">
        <ele>400.6</ele>
        <time>2022-07-29T13:30:38Z</time>
      </trkpt>
      <trkpt lat="46.30208" lon="5.65888">
        <ele>400.6</ele>
        <time>2022-07-29T13:30:39Z</time>
      </trkpt>
      <trkpt lat="46.30206" lon="5.65886">
        <ele>401</ele>
        <time>2022-07-29T13:30:40Z</time>
      </trkpt>
      <trkpt lat="46.30204" lon="5.65884">
        <ele>401</ele>
        <time>2022-07-29T13:30:41Z</time>
      </trkpt>
      <trkpt lat="46.30202" lon="5.65881">
        <ele>401.2</ele>
        <time>2022-07-29T13:30:42Z</time>
      </trkpt>
      <trkpt lat="46.302" lon="5.65879">
        <ele>401.2</ele>
        <time>2022-07-29T13:30:43Z</time>
      </trkpt>
      <trkpt lat="46.30197" lon="5.65877">
        <ele>401.6</ele>
        <time>2022-07-29T13:30:44Z</time>
      </trkpt>
      <trkpt lat="46.30195" lon="5.65875">
        <ele>401.6</ele>
        <time>2022-07-29T13:30:45Z</time>
      </trkpt>
      <trkpt lat="46.30193" lon="5.65873">
        <ele>402</ele>
        <time>2022-07-29T13:30:46Z</time>
      </trkpt>
      <trkpt lat="46.30191" lon="5.65871">
        <ele>402.2</ele>
        <time>2022-07-29T13:30:47Z</time>
      </trkpt>
      <trkpt lat="46.30189" lon="5.65869">
        <ele>402.2</ele>
        <time>2022-07-29T13:30:48Z</time>
      </trkpt>
      <trkpt lat="46.30187" lon="5.65866">
        <ele>402.4</ele>
        <time>2022-07-29T13:30:49Z</time>
      </trkpt>
      <trkpt lat="46.30184" lon="5.65864">
        <ele>402.4</ele>
        <time>2022-07-29T13:30:50Z</time>
      </trkpt>
      <trkpt lat="46.30182" lon="5.65862">
        <ele>402.8</ele>
        <time>2022-07-29T13:30:51Z</time>
      </trkpt>
      <trkpt lat="46.3018" lon="5.6586">
        <ele>402.8</ele>
        <time>2022-07-29T13:30:52Z</time>
      </trkpt>
      <trkpt lat="46.30177" lon="5.65857">
        <ele>403.2</ele>
        <time>2022-07-29T13:30:53Z</time>
      </trkpt>
      <trkpt lat="46.30175" lon="5.65855">
        <ele>403.4</ele>
        <time>2022-07-29T13:30:54Z</time>
      </trkpt>
      <trkpt lat="46.30172" lon="5.65853">
        <ele>403.4</ele>
        <time>2022-07-29T13:30:55Z</time>
      </trkpt>
      <trkpt lat="46.3017" lon="5.65851">
        <ele>403.8</ele>
        <time>2022-07-29T13:30:56Z</time>
      </trkpt>
      <trkpt lat="46.30167" lon="5.65849">
        <ele>403.8</ele>
        <time>2022-07-29T13:30:57Z</time>
      </trkpt>
      <trkpt lat="46.30165" lon="5.65846">
        <ele>404</ele>
        <time>2022-07-29T13:30:58Z</time>
      </trkpt>
      <trkpt lat="46.30163" lon="5.65844">
        <ele>404</ele>
        <time>2022-07-29T13:30:59Z</time>
      </trkpt>
      <trkpt lat="46.3016" lon="5.65841">
        <ele>404.4</ele>
        <time>2022-07-29T13:31:00Z</time>
      </trkpt>
      <trkpt lat="46.30158" lon="5.65839">
        <ele>404.4</ele>
        <time>2022-07-29T13:31:01Z</time>
      </trkpt>
      <trkpt lat="46.30155" lon="5.65836">
        <ele>404.8</ele>
        <time>2022-07-29T13:31:02Z</time>
      </trkpt>
      <trkpt lat="46.30153" lon="5.65834">
        <ele>404.8</ele>
        <time>2022-07-29T13:31:03Z</time>
      </trkpt>
      <trkpt lat="46.3015" lon="5.65832">
        <ele>405.2</ele>
        <time>2022-07-29T13:31:04Z</time>
      </trkpt>
      <trkpt lat="46.30148" lon="5.6583">
        <ele>405.2</ele>
        <time>2022-07-29T13:31:05Z</time>
      </trkpt>
      <trkpt lat="46.30145" lon="5.65827">
        <ele>405.4</ele>
        <time>2022-07-29T13:31:06Z</time>
      </trkpt>
      <trkpt lat="46.30143" lon="5.65825">
        <ele>405.4</ele>
        <time>2022-07-29T13:31:07Z</time>
      </trkpt>
      <trkpt lat="46.3014" lon="5.65822">
        <ele>405.8</ele>
        <time>2022-07-29T13:31:08Z</time>
      </trkpt>
      <trkpt lat="46.30138" lon="5.6582">
        <ele>405.8</ele>
        <time>2022-07-29T13:31:09Z</time>
      </trkpt>
      <trkpt lat="46.30135" lon="5.65816">
        <ele>406</ele>
        <time>2022-07-29T13:31:10Z</time>
      </trkpt>
      <trkpt lat="46.30133" lon="5.65813">
        <ele>406</ele>
        <time>2022-07-29T13:31:11Z</time>
      </trkpt>
      <trkpt lat="46.3013" lon="5.6581">
        <ele>406.4</ele>
        <time>2022-07-29T13:31:12Z</time>
      </trkpt>
      <trkpt lat="46.30128" lon="5.65808">
        <ele>406.4</ele>
        <time>2022-07-29T13:31:13Z</time>
      </trkpt>
      <trkpt lat="46.30125" lon="5.65805">
        <ele>406.6</ele>
        <time>2022-07-29T13:31:14Z</time>
      </trkpt>
      <trkpt lat="46.30122" lon="5.65803">
        <ele>406.6</ele>
        <time>2022-07-29T13:31:15Z</time>
      </trkpt>
      <trkpt lat="46.3012" lon="5.658">
        <ele>407</ele>
        <time>2022-07-29T13:31:16Z</time>
      </trkpt>
      <trkpt lat="46.30117" lon="5.65798">
        <ele>407</ele>
        <time>2022-07-29T13:31:17Z</time>
      </trkpt>
      <trkpt lat="46.30115" lon="5.65795">
        <ele>407.4</ele>
        <time>2022-07-29T13:31:18Z</time>
      </trkpt>
      <trkpt lat="46.30112" lon="5.65792">
        <ele>407.4</ele>
        <time>2022-07-29T13:31:19Z</time>
      </trkpt>
      <trkpt lat="46.3011" lon="5.6579">
        <ele>407.6</ele>
        <time>2022-07-29T13:31:20Z</time>
      </trkpt>
      <trkpt lat="46.30107" lon="5.65788">
        <ele>407.6</ele>
        <time>2022-07-29T13:31:21Z</time>
      </trkpt>
      <trkpt lat="46.30104" lon="5.65785">
        <ele>407.8</ele>
        <time>2022-07-29T13:31:22Z</time>
      </trkpt>
      <trkpt lat="46.30102" lon="5.65783">
        <ele>407.8</ele>
        <time>2022-07-29T13:31:23Z</time>
      </trkpt>
      <trkpt lat="46.30099" lon="5.65781">
        <ele>407.8</ele>
        <time>2022-07-29T13:31:24Z</time>
      </trkpt>
      <trkpt lat="46.30096" lon="5.65778">
        <ele>408</ele>
        <time>2022-07-29T13:31:25Z</time>
      </trkpt>
      <trkpt lat="46.30094" lon="5.65776">
        <ele>408</ele>
        <time>2022-07-29T13:31:26Z</time>
      </trkpt>
      <trkpt lat="46.30091" lon="5.65773">
        <ele>408.4</ele>
        <time>2022-07-29T13:31:27Z</time>
      </trkpt>
      <trkpt lat="46.30089" lon="5.6577">
        <ele>408.4</ele>
        <time>2022-07-29T13:31:28Z</time>
      </trkpt>
      <trkpt lat="46.30086" lon="5.65767">
        <ele>408.6</ele>
        <time>2022-07-29T13:31:29Z</time>
      </trkpt>
      <trkpt lat="46.30084" lon="5.65764">
        <ele>408.6</ele>
        <time>2022-07-29T13:31:30Z</time>
      </trkpt>
      <trkpt lat="46.30081" lon="5.65761">
        <ele>409</ele>
        <time>2022-07-29T13:31:31Z</time>
      </trkpt>
      <trkpt lat="46.30078" lon="5.65758">
        <ele>409</ele>
        <time>2022-07-29T13:31:32Z</time>
      </trkpt>
      <trkpt lat="46.30075" lon="5.65756">
        <ele>409.2</ele>
        <time>2022-07-29T13:31:33Z</time>
      </trkpt>
      <trkpt lat="46.30072" lon="5.65753">
        <ele>409.2</ele>
        <time>2022-07-29T13:31:34Z</time>
      </trkpt>
      <trkpt lat="46.3007" lon="5.6575">
        <ele>409.4</ele>
        <time>2022-07-29T13:31:35Z</time>
      </trkpt>
      <trkpt lat="46.30067" lon="5.65747">
        <ele>409.6</ele>
        <time>2022-07-29T13:31:36Z</time>
      </trkpt>
      <trkpt lat="46.30064" lon="5.65745">
        <ele>409.6</ele>
        <time>2022-07-29T13:31:37Z</time>
      </trkpt>
      <trkpt lat="46.30061" lon="5.65742">
        <ele>410</ele>
        <time>2022-07-29T13:31:38Z</time>
      </trkpt>
      <trkpt lat="46.30058" lon="5.65739">
        <ele>410</ele>
        <time>2022-07-29T13:31:39Z</time>
      </trkpt>
      <trkpt lat="46.30056" lon="5.65737">
        <ele>410.2</ele>
        <time>2022-07-29T13:31:40Z</time>
      </trkpt>
      <trkpt lat="46.30053" lon="5.65734">
        <ele>410.2</ele>
        <time>2022-07-29T13:31:41Z</time>
      </trkpt>
      <trkpt lat="46.3005" lon="5.65731">
        <ele>410.6</ele>
        <time>2022-07-29T13:31:42Z</time>
      </trkpt>
      <trkpt lat="46.30048" lon="5.65729">
        <ele>410.6</ele>
        <time>2022-07-29T13:31:43Z</time>
      </trkpt>
      <trkpt lat="46.30045" lon="5.65726">
        <ele>410.8</ele>
        <time>2022-07-29T13:31:44Z</time>
      </trkpt>
      <trkpt lat="46.30042" lon="5.65723">
        <ele>410.8</ele>
        <time>2022-07-29T13:31:45Z</time>
      </trkpt>
      <trkpt lat="46.30039" lon="5.6572">
        <ele>411.2</ele>
        <time>2022-07-29T13:31:46Z</time>
      </trkpt>
      <trkpt lat="46.30036" lon="5.65717">
        <ele>411.2</ele>
        <time>2022-07-29T13:31:47Z</time>
      </trkpt>
      <trkpt lat="46.30033" lon="5.65714">
        <ele>411.6</ele>
        <time>2022-07-29T13:31:48Z</time>
      </trkpt>
      <trkpt lat="46.30031" lon="5.65711">
        <ele>411.6</ele>
        <time>2022-07-29T13:31:49Z</time>
      </trkpt>
      <trkpt lat="46.30028" lon="5.65708">
        <ele>411.8</ele>
        <time>2022-07-29T13:31:50Z</time>
      </trkpt>
      <trkpt lat="46.30025" lon="5.65705">
        <ele>411.8</ele>
        <time>2022-07-29T13:31:51Z</time>
      </trkpt>
      <trkpt lat="46.30022" lon="5.65702">
        <ele>412</ele>
        <time>2022-07-29T13:31:52Z</time>
      </trkpt>
      <trkpt lat="46.30019" lon="5.657">
        <ele>412</ele>
        <time>2022-07-29T13:31:53Z</time>
      </trkpt>
      <trkpt lat="46.30016" lon="5.65697">
        <ele>412.4</ele>
        <time>2022-07-29T13:31:54Z</time>
      </trkpt>
      <trkpt lat="46.30013" lon="5.65695">
        <ele>412.4</ele>
        <time>2022-07-29T13:31:55Z</time>
      </trkpt>
      <trkpt lat="46.3001" lon="5.65692">
        <ele>412.6</ele>
        <time>2022-07-29T13:31:56Z</time>
      </trkpt>
      <trkpt lat="46.30008" lon="5.65689">
        <ele>412.6</ele>
        <time>2022-07-29T13:31:57Z</time>
      </trkpt>
      <trkpt lat="46.30005" lon="5.65687">
        <ele>413</ele>
        <time>2022-07-29T13:31:58Z</time>
      </trkpt>
      <trkpt lat="46.30002" lon="5.65684">
        <ele>413</ele>
        <time>2022-07-29T13:31:59Z</time>
      </trkpt>
      <trkpt lat="46.3" lon="5.65681">
        <ele>413.2</ele>
        <time>2022-07-29T13:32:00Z</time>
      </trkpt>
      <trkpt lat="46.29997" lon="5.65678">
        <ele>413.2</ele>
        <time>2022-07-29T13:32:01Z</time>
      </trkpt>
      <trkpt lat="46.29994" lon="5.65676">
        <ele>413.6</ele>
        <time>2022-07-29T13:32:02Z</time>
      </trkpt>
      <trkpt lat="46.29992" lon="5.65673">
        <ele>413.6</ele>
        <time>2022-07-29T13:32:03Z</time>
      </trkpt>
      <trkpt lat="46.29989" lon="5.65671">
        <ele>413.8</ele>
        <time>2022-07-29T13:32:04Z</time>
      </trkpt>
      <trkpt lat="46.29986" lon="5.65668">
        <ele>413.8</ele>
        <time>2022-07-29T13:32:05Z</time>
      </trkpt>
      <trkpt lat="46.29984" lon="5.65665">
        <ele>414</ele>
        <time>2022-07-29T13:32:06Z</time>
      </trkpt>
      <trkpt lat="46.29981" lon="5.65663">
        <ele>414</ele>
        <time>2022-07-29T13:32:07Z</time>
      </trkpt>
      <trkpt lat="46.29978" lon="5.6566">
        <ele>414.2</ele>
        <time>2022-07-29T13:32:08Z</time>
      </trkpt>
      <trkpt lat="46.29975" lon="5.65658">
        <ele>414.2</ele>
        <time>2022-07-29T13:32:09Z</time>
      </trkpt>
      <trkpt lat="46.29973" lon="5.65655">
        <ele>414.6</ele>
        <time>2022-07-29T13:32:10Z</time>
      </trkpt>
      <trkpt lat="46.2997" lon="5.65652">
        <ele>414.6</ele>
        <time>2022-07-29T13:32:11Z</time>
      </trkpt>
      <trkpt lat="46.29967" lon="5.6565">
        <ele>414.6</ele>
        <time>2022-07-29T13:32:12Z</time>
      </trkpt>
      <trkpt lat="46.29965" lon="5.65647">
        <ele>415</ele>
        <time>2022-07-29T13:32:13Z</time>
      </trkpt>
      <trkpt lat="46.29962" lon="5.65645">
        <ele>415</ele>
        <time>2022-07-29T13:32:14Z</time>
      </trkpt>
      <trkpt lat="46.29959" lon="5.65642">
        <ele>415.2</ele>
        <time>2022-07-29T13:32:15Z</time>
      </trkpt>
      <trkpt lat="46.29957" lon="5.6564">
        <ele>415.2</ele>
        <time>2022-07-29T13:32:16Z</time>
      </trkpt>
      <trkpt lat="46.29954" lon="5.65637">
        <ele>415.2</ele>
        <time>2022-07-29T13:32:17Z</time>
      </trkpt>
      <trkpt lat="46.29952" lon="5.65635">
        <ele>415.4</ele>
        <time>2022-07-29T13:32:18Z</time>
      </trkpt>
      <trkpt lat="46.29949" lon="5.65632">
        <ele>415.4</ele>
        <time>2022-07-29T13:32:19Z</time>
      </trkpt>
      <trkpt lat="46.29947" lon="5.6563">
        <ele>415.8</ele>
        <time>2022-07-29T13:32:20Z</time>
      </trkpt>
      <trkpt lat="46.29944" lon="5.65627">
        <ele>415.8</ele>
        <time>2022-07-29T13:32:21Z</time>
      </trkpt>
      <trkpt lat="46.29942" lon="5.65625">
        <ele>415.8</ele>
        <time>2022-07-29T13:32:22Z</time>
      </trkpt>
      <trkpt lat="46.29939" lon="5.65622">
        <ele>416.2</ele>
        <time>2022-07-29T13:32:23Z</time>
      </trkpt>
      <trkpt lat="46.29937" lon="5.6562">
        <ele>416.2</ele>
        <time>2022-07-29T13:32:24Z</time>
      </trkpt>
      <trkpt lat="46.29934" lon="5.65617">
        <ele>416.4</ele>
        <time>2022-07-29T13:32:25Z</time>
      </trkpt>
      <trkpt lat="46.29932" lon="5.65614">
        <ele>416.4</ele>
        <time>2022-07-29T13:32:26Z</time>
      </trkpt>
      <trkpt lat="46.29929" lon="5.65612">
        <ele>416.6</ele>
        <time>2022-07-29T13:32:27Z</time>
      </trkpt>
      <trkpt lat="46.29926" lon="5.65609">
        <ele>416.6</ele>
        <time>2022-07-29T13:32:28Z</time>
      </trkpt>
      <trkpt lat="46.29924" lon="5.65606">
        <ele>416.8</ele>
        <time>2022-07-29T13:32:29Z</time>
      </trkpt>
      <trkpt lat="46.29921" lon="5.65604">
        <ele>416.8</ele>
        <time>2022-07-29T13:32:30Z</time>
      </trkpt>
      <trkpt lat="46.29918" lon="5.65601">
        <ele>417</ele>
        <time>2022-07-29T13:32:31Z</time>
      </trkpt>
      <trkpt lat="46.29915" lon="5.65598">
        <ele>417</ele>
        <time>2022-07-29T13:32:32Z</time>
      </trkpt>
      <trkpt lat="46.29912" lon="5.65596">
        <ele>417.4</ele>
        <time>2022-07-29T13:32:33Z</time>
      </trkpt>
      <trkpt lat="46.2991" lon="5.65593">
        <ele>417.4</ele>
        <time>2022-07-29T13:32:34Z</time>
      </trkpt>
      <trkpt lat="46.29907" lon="5.6559">
        <ele>417.6</ele>
        <time>2022-07-29T13:32:35Z</time>
      </trkpt>
      <trkpt lat="46.29904" lon="5.65587">
        <ele>417.6</ele>
        <time>2022-07-29T13:32:36Z</time>
      </trkpt>
      <trkpt lat="46.29901" lon="5.65584">
        <ele>417.8</ele>
        <time>2022-07-29T13:32:37Z</time>
      </trkpt>
      <trkpt lat="46.29898" lon="5.65581">
        <ele>417.8</ele>
        <time>2022-07-29T13:32:38Z</time>
      </trkpt>
      <trkpt lat="46.29895" lon="5.65579">
        <ele>418</ele>
        <time>2022-07-29T13:32:39Z</time>
      </trkpt>
      <trkpt lat="46.29892" lon="5.65576">
        <ele>418</ele>
        <time>2022-07-29T13:32:40Z</time>
      </trkpt>
      <trkpt lat="46.29889" lon="5.65573">
        <ele>418</ele>
        <time>2022-07-29T13:32:41Z</time>
      </trkpt>
      <trkpt lat="46.29886" lon="5.6557">
        <ele>418.2</ele>
        <time>2022-07-29T13:32:42Z</time>
      </trkpt>
      <trkpt lat="46.29883" lon="5.65567">
        <ele>418.2</ele>
        <time>2022-07-29T13:32:43Z</time>
      </trkpt>
      <trkpt lat="46.2988" lon="5.65563">
        <ele>418.2</ele>
        <time>2022-07-29T13:32:44Z</time>
      </trkpt>
      <trkpt lat="46.29877" lon="5.6556">
        <ele>418.6</ele>
        <time>2022-07-29T13:32:45Z</time>
      </trkpt>
      <trkpt lat="46.29874" lon="5.65557">
        <ele>418.6</ele>
        <time>2022-07-29T13:32:46Z</time>
      </trkpt>
      <trkpt lat="46.2987" lon="5.65554">
        <ele>418.8</ele>
        <time>2022-07-29T13:32:47Z</time>
      </trkpt>
      <trkpt lat="46.29867" lon="5.65551">
        <ele>418.8</ele>
        <time>2022-07-29T13:32:48Z</time>
      </trkpt>
      <trkpt lat="46.29864" lon="5.65548">
        <ele>418.8</ele>
        <time>2022-07-29T13:32:49Z</time>
      </trkpt>
      <trkpt lat="46.29861" lon="5.65545">
        <ele>419.2</ele>
        <time>2022-07-29T13:32:50Z</time>
      </trkpt>
      <trkpt lat="46.29858" lon="5.65542">
        <ele>419.2</ele>
        <time>2022-07-29T13:32:51Z</time>
      </trkpt>
      <trkpt lat="46.29855" lon="5.65539">
        <ele>419.2</ele>
        <time>2022-07-29T13:32:52Z</time>
      </trkpt>
      <trkpt lat="46.29852" lon="5.65536">
        <ele>419.2</ele>
        <time>2022-07-29T13:32:53Z</time>
      </trkpt>
      <trkpt lat="46.29848" lon="5.65532">
        <ele>419.2</ele>
        <time>2022-07-29T13:32:54Z</time>
      </trkpt>
      <trkpt lat="46.29845" lon="5.65529">
        <ele>419.4</ele>
        <time>2022-07-29T13:32:55Z</time>
      </trkpt>
      <trkpt lat="46.29842" lon="5.65526">
        <ele>419.4</ele>
        <time>2022-07-29T13:32:56Z</time>
      </trkpt>
      <trkpt lat="46.29839" lon="5.65523">
        <ele>419.4</ele>
        <time>2022-07-29T13:32:57Z</time>
      </trkpt>
      <trkpt lat="46.29836" lon="5.65519">
        <ele>419.4</ele>
        <time>2022-07-29T13:32:58Z</time>
      </trkpt>
      <trkpt lat="46.29833" lon="5.65516">
        <ele>419.4</ele>
        <time>2022-07-29T13:32:59Z</time>
      </trkpt>
      <trkpt lat="46.29829" lon="5.65512">
        <ele>419.6</ele>
        <time>2022-07-29T13:33:00Z</time>
      </trkpt>
      <trkpt lat="46.29826" lon="5.65509">
        <ele>419.6</ele>
        <time>2022-07-29T13:33:01Z</time>
      </trkpt>
      <trkpt lat="46.29823" lon="5.65505">
        <ele>419.8</ele>
        <time>2022-07-29T13:33:02Z</time>
      </trkpt>
      <trkpt lat="46.2982" lon="5.65501">
        <ele>419.8</ele>
        <time>2022-07-29T13:33:03Z</time>
      </trkpt>
      <trkpt lat="46.29817" lon="5.65498">
        <ele>419.8</ele>
        <time>2022-07-29T13:33:04Z</time>
      </trkpt>
      <trkpt lat="46.29814" lon="5.65494">
        <ele>419.8</ele>
        <time>2022-07-29T13:33:05Z</time>
      </trkpt>
      <trkpt lat="46.2981" lon="5.65491">
        <ele>420</ele>
        <time>2022-07-29T13:33:06Z</time>
      </trkpt>
      <trkpt lat="46.29807" lon="5.65487">
        <ele>420</ele>
        <time>2022-07-29T13:33:07Z</time>
      </trkpt>
      <trkpt lat="46.29804" lon="5.65484">
        <ele>420</ele>
        <time>2022-07-29T13:33:08Z</time>
      </trkpt>
      <trkpt lat="46.29801" lon="5.6548">
        <ele>420.4</ele>
        <time>2022-07-29T13:33:09Z</time>
      </trkpt>
      <trkpt lat="46.29798" lon="5.65476">
        <ele>420.4</ele>
        <time>2022-07-29T13:33:10Z</time>
      </trkpt>
      <trkpt lat="46.29795" lon="5.65472">
        <ele>420.6</ele>
        <time>2022-07-29T13:33:11Z</time>
      </trkpt>
      <trkpt lat="46.29792" lon="5.65469">
        <ele>420.6</ele>
        <time>2022-07-29T13:33:12Z</time>
      </trkpt>
      <trkpt lat="46.29789" lon="5.65465">
        <ele>420.8</ele>
        <time>2022-07-29T13:33:13Z</time>
      </trkpt>
      <trkpt lat="46.29786" lon="5.65462">
        <ele>420.8</ele>
        <time>2022-07-29T13:33:14Z</time>
      </trkpt>
      <trkpt lat="46.29783" lon="5.65458">
        <ele>421</ele>
        <time>2022-07-29T13:33:15Z</time>
      </trkpt>
      <trkpt lat="46.2978" lon="5.65454">
        <ele>421</ele>
        <time>2022-07-29T13:33:16Z</time>
      </trkpt>
      <trkpt lat="46.29777" lon="5.6545">
        <ele>421.2</ele>
        <time>2022-07-29T13:33:17Z</time>
      </trkpt>
      <trkpt lat="46.29775" lon="5.65446">
        <ele>421.2</ele>
        <time>2022-07-29T13:33:18Z</time>
      </trkpt>
      <trkpt lat="46.29772" lon="5.65442">
        <ele>421.2</ele>
        <time>2022-07-29T13:33:19Z</time>
      </trkpt>
      <trkpt lat="46.29769" lon="5.65438">
        <ele>421.6</ele>
        <time>2022-07-29T13:33:20Z</time>
      </trkpt>
      <trkpt lat="46.29766" lon="5.65434">
        <ele>421.6</ele>
        <time>2022-07-29T13:33:21Z</time>
      </trkpt>
      <trkpt lat="46.29764" lon="5.6543">
        <ele>421.6</ele>
        <time>2022-07-29T13:33:22Z</time>
      </trkpt>
      <trkpt lat="46.29761" lon="5.65426">
        <ele>421.8</ele>
        <time>2022-07-29T13:33:23Z</time>
      </trkpt>
      <trkpt lat="46.29758" lon="5.65422">
        <ele>421.8</ele>
        <time>2022-07-29T13:33:24Z</time>
      </trkpt>
      <trkpt lat="46.29756" lon="5.65417">
        <ele>421.8</ele>
        <time>2022-07-29T13:33:25Z</time>
      </trkpt>
      <trkpt lat="46.29753" lon="5.65413">
        <ele>422</ele>
        <time>2022-07-29T13:33:26Z</time>
      </trkpt>
      <trkpt lat="46.2975" lon="5.65408">
        <ele>422</ele>
        <time>2022-07-29T13:33:27Z</time>
      </trkpt>
      <trkpt lat="46.29748" lon="5.65403">
        <ele>422</ele>
        <time>2022-07-29T13:33:28Z</time>
      </trkpt>
      <trkpt lat="46.29745" lon="5.65398">
        <ele>422.2</ele>
        <time>2022-07-29T13:33:29Z</time>
      </trkpt>
      <trkpt lat="46.29743" lon="5.65394">
        <ele>422.2</ele>
        <time>2022-07-29T13:33:30Z</time>
      </trkpt>
      <trkpt lat="46.2974" lon="5.6539">
        <ele>422.4</ele>
        <time>2022-07-29T13:33:31Z</time>
      </trkpt>
      <trkpt lat="46.29737" lon="5.65385">
        <ele>422.4</ele>
        <time>2022-07-29T13:33:32Z</time>
      </trkpt>
      <trkpt lat="46.29735" lon="5.65381">
        <ele>422.8</ele>
        <time>2022-07-29T13:33:33Z</time>
      </trkpt>
      <trkpt lat="46.29733" lon="5.65376">
        <ele>422.8</ele>
        <time>2022-07-29T13:33:34Z</time>
      </trkpt>
      <trkpt lat="46.29731" lon="5.65371">
        <ele>423</ele>
        <time>2022-07-29T13:33:35Z</time>
      </trkpt>
      <trkpt lat="46.29728" lon="5.65367">
        <ele>423</ele>
        <time>2022-07-29T13:33:36Z</time>
      </trkpt>
      <trkpt lat="46.29726" lon="5.65362">
        <ele>423.4</ele>
        <time>2022-07-29T13:33:37Z</time>
      </trkpt>
      <trkpt lat="46.29724" lon="5.65357">
        <ele>423.4</ele>
        <time>2022-07-29T13:33:38Z</time>
      </trkpt>
      <trkpt lat="46.29721" lon="5.65353">
        <ele>423.6</ele>
        <time>2022-07-29T13:33:39Z</time>
      </trkpt>
      <trkpt lat="46.29719" lon="5.65349">
        <ele>423.6</ele>
        <time>2022-07-29T13:33:40Z</time>
      </trkpt>
      <trkpt lat="46.29717" lon="5.65344">
        <ele>423.8</ele>
        <time>2022-07-29T13:33:41Z</time>
      </trkpt>
      <trkpt lat="46.29715" lon="5.65339">
        <ele>423.8</ele>
        <time>2022-07-29T13:33:42Z</time>
      </trkpt>
      <trkpt lat="46.29713" lon="5.65334">
        <ele>424.2</ele>
        <time>2022-07-29T13:33:43Z</time>
      </trkpt>
      <trkpt lat="46.29711" lon="5.6533">
        <ele>424.2</ele>
        <time>2022-07-29T13:33:44Z</time>
      </trkpt>
      <trkpt lat="46.29709" lon="5.65326">
        <ele>424.4</ele>
        <time>2022-07-29T13:33:45Z</time>
      </trkpt>
      <trkpt lat="46.29706" lon="5.65322">
        <ele>424.4</ele>
        <time>2022-07-29T13:33:46Z</time>
      </trkpt>
      <trkpt lat="46.29704" lon="5.65318">
        <ele>424.8</ele>
        <time>2022-07-29T13:33:47Z</time>
      </trkpt>
      <trkpt lat="46.29702" lon="5.65314">
        <ele>424.8</ele>
        <time>2022-07-29T13:33:48Z</time>
      </trkpt>
      <trkpt lat="46.297" lon="5.6531">
        <ele>425.2</ele>
        <time>2022-07-29T13:33:49Z</time>
      </trkpt>
      <trkpt lat="46.29698" lon="5.65306">
        <ele>425.4</ele>
        <time>2022-07-29T13:33:50Z</time>
      </trkpt>
      <trkpt lat="46.29696" lon="5.65302">
        <ele>425.6</ele>
        <time>2022-07-29T13:33:51Z</time>
      </trkpt>
      <trkpt lat="46.29694" lon="5.65298">
        <ele>425.6</ele>
        <time>2022-07-29T13:33:52Z</time>
      </trkpt>
      <trkpt lat="46.29692" lon="5.65294">
        <ele>426</ele>
        <time>2022-07-29T13:33:53Z</time>
      </trkpt>
      <trkpt lat="46.29689" lon="5.65291">
        <ele>426</ele>
        <time>2022-07-29T13:33:54Z</time>
      </trkpt>
      <trkpt lat="46.29687" lon="5.65288">
        <ele>426.2</ele>
        <time>2022-07-29T13:33:55Z</time>
      </trkpt>
      <trkpt lat="46.29685" lon="5.65285">
        <ele>426.4</ele>
        <time>2022-07-29T13:33:56Z</time>
      </trkpt>
      <trkpt lat="46.29682" lon="5.65281">
        <ele>426.4</ele>
        <time>2022-07-29T13:33:57Z</time>
      </trkpt>
      <trkpt lat="46.2968" lon="5.65278">
        <ele>426.8</ele>
        <time>2022-07-29T13:33:58Z</time>
      </trkpt>
      <trkpt lat="46.29677" lon="5.65275">
        <ele>426.8</ele>
        <time>2022-07-29T13:33:59Z</time>
      </trkpt>
      <trkpt lat="46.29674" lon="5.65272">
        <ele>427.2</ele>
        <time>2022-07-29T13:34:00Z</time>
      </trkpt>
      <trkpt lat="46.29671" lon="5.6527">
        <ele>427.2</ele>
        <time>2022-07-29T13:34:01Z</time>
      </trkpt>
      <trkpt lat="46.29669" lon="5.65267">
        <ele>427.6</ele>
        <time>2022-07-29T13:34:02Z</time>
      </trkpt>
      <trkpt lat="46.29666" lon="5.65265">
        <ele>427.8</ele>
        <time>2022-07-29T13:34:03Z</time>
      </trkpt>
      <trkpt lat="46.29663" lon="5.65263">
        <ele>427.8</ele>
        <time>2022-07-29T13:34:04Z</time>
      </trkpt>
      <trkpt lat="46.2966" lon="5.65261">
        <ele>428.2</ele>
        <time>2022-07-29T13:34:05Z</time>
      </trkpt>
      <trkpt lat="46.29657" lon="5.6526">
        <ele>428.2</ele>
        <time>2022-07-29T13:34:06Z</time>
      </trkpt>
      <trkpt lat="46.29654" lon="5.65259">
        <ele>428.4</ele>
        <time>2022-07-29T13:34:07Z</time>
      </trkpt>
      <trkpt lat="46.29651" lon="5.65258">
        <ele>428.6</ele>
        <time>2022-07-29T13:34:08Z</time>
      </trkpt>
      <trkpt lat="46.29647" lon="5.65257">
        <ele>429</ele>
        <time>2022-07-29T13:34:09Z</time>
      </trkpt>
      <trkpt lat="46.29644" lon="5.65257">
        <ele>429.2</ele>
        <time>2022-07-29T13:34:10Z</time>
      </trkpt>
      <trkpt lat="46.29641" lon="5.65257">
        <ele>429.2</ele>
        <time>2022-07-29T13:34:11Z</time>
      </trkpt>
      <trkpt lat="46.29638" lon="5.65258">
        <ele>429.6</ele>
        <time>2022-07-29T13:34:12Z</time>
      </trkpt>
      <trkpt lat="46.29635" lon="5.65258">
        <ele>429.8</ele>
        <time>2022-07-29T13:34:13Z</time>
      </trkpt>
      <trkpt lat="46.29632" lon="5.65259">
        <ele>429.8</ele>
        <time>2022-07-29T13:34:14Z</time>
      </trkpt>
      <trkpt lat="46.29629" lon="5.65261">
        <ele>430.2</ele>
        <time>2022-07-29T13:34:15Z</time>
      </trkpt>
      <trkpt lat="46.29623" lon="5.65264">
        <ele>430.2</ele>
        <time>2022-07-29T13:34:16Z</time>
      </trkpt>
      <trkpt lat="46.2962" lon="5.65265">
        <ele>430.6</ele>
        <time>2022-07-29T13:34:17Z</time>
      </trkpt>
      <trkpt lat="46.29618" lon="5.65267">
        <ele>430.8</ele>
        <time>2022-07-29T13:34:18Z</time>
      </trkpt>
      <trkpt lat="46.29615" lon="5.6527">
        <ele>430.8</ele>
        <time>2022-07-29T13:34:19Z</time>
      </trkpt>
      <trkpt lat="46.29612" lon="5.65272">
        <ele>431</ele>
        <time>2022-07-29T13:34:20Z</time>
      </trkpt>
      <trkpt lat="46.2961" lon="5.65274">
        <ele>431.4</ele>
        <time>2022-07-29T13:34:21Z</time>
      </trkpt>
      <trkpt lat="46.29608" lon="5.65277">
        <ele>431.4</ele>
        <time>2022-07-29T13:34:22Z</time>
      </trkpt>
      <trkpt lat="46.29605" lon="5.65281">
        <ele>431.8</ele>
        <time>2022-07-29T13:34:23Z</time>
      </trkpt>
      <trkpt lat="46.29603" lon="5.65284">
        <ele>432</ele>
        <time>2022-07-29T13:34:24Z</time>
      </trkpt>
      <trkpt lat="46.29602" lon="5.65289">
        <ele>432.2</ele>
        <time>2022-07-29T13:34:25Z</time>
      </trkpt>
      <trkpt lat="46.296" lon="5.65292">
        <ele>432.4</ele>
        <time>2022-07-29T13:34:26Z</time>
      </trkpt>
      <trkpt lat="46.29598" lon="5.65296">
        <ele>432.6</ele>
        <time>2022-07-29T13:34:27Z</time>
      </trkpt>
      <trkpt lat="46.29597" lon="5.65301">
        <ele>432.8</ele>
        <time>2022-07-29T13:34:28Z</time>
      </trkpt>
      <trkpt lat="46.29595" lon="5.65305">
        <ele>432.8</ele>
        <time>2022-07-29T13:34:29Z</time>
      </trkpt>
      <trkpt lat="46.29594" lon="5.65309">
        <ele>433.2</ele>
        <time>2022-07-29T13:34:30Z</time>
      </trkpt>
      <trkpt lat="46.29593" lon="5.65313">
        <ele>433.2</ele>
        <time>2022-07-29T13:34:31Z</time>
      </trkpt>
      <trkpt lat="46.29592" lon="5.65317">
        <ele>433.6</ele>
        <time>2022-07-29T13:34:32Z</time>
      </trkpt>
      <trkpt lat="46.29591" lon="5.65321">
        <ele>433.6</ele>
        <time>2022-07-29T13:34:33Z</time>
      </trkpt>
      <trkpt lat="46.29591" lon="5.65325">
        <ele>434</ele>
        <time>2022-07-29T13:34:34Z</time>
      </trkpt>
      <trkpt lat="46.2959" lon="5.6533">
        <ele>434</ele>
        <time>2022-07-29T13:34:35Z</time>
      </trkpt>
      <trkpt lat="46.2959" lon="5.65334">
        <ele>434.2</ele>
        <time>2022-07-29T13:34:36Z</time>
      </trkpt>
      <trkpt lat="46.29589" lon="5.65338">
        <ele>434.2</ele>
        <time>2022-07-29T13:34:37Z</time>
      </trkpt>
      <trkpt lat="46.29589" lon="5.65343">
        <ele>434.6</ele>
        <time>2022-07-29T13:34:38Z</time>
      </trkpt>
      <trkpt lat="46.29588" lon="5.65347">
        <ele>434.6</ele>
        <time>2022-07-29T13:34:39Z</time>
      </trkpt>
      <trkpt lat="46.29588" lon="5.65351">
        <ele>435</ele>
        <time>2022-07-29T13:34:40Z</time>
      </trkpt>
      <trkpt lat="46.29587" lon="5.65355">
        <ele>435.2</ele>
        <time>2022-07-29T13:34:41Z</time>
      </trkpt>
      <trkpt lat="46.29587" lon="5.65359">
        <ele>435.4</ele>
        <time>2022-07-29T13:34:42Z</time>
      </trkpt>
      <trkpt lat="46.29586" lon="5.65363">
        <ele>435.4</ele>
        <time>2022-07-29T13:34:43Z</time>
      </trkpt>
      <trkpt lat="46.29585" lon="5.65367">
        <ele>435.8</ele>
        <time>2022-07-29T13:34:44Z</time>
      </trkpt>
      <trkpt lat="46.29584" lon="5.65371">
        <ele>435.8</ele>
        <time>2022-07-29T13:34:45Z</time>
      </trkpt>
      <trkpt lat="46.29583" lon="5.65375">
        <ele>436.2</ele>
        <time>2022-07-29T13:34:46Z</time>
      </trkpt>
      <trkpt lat="46.29583" lon="5.65379">
        <ele>436.6</ele>
        <time>2022-07-29T13:34:47Z</time>
      </trkpt>
      <trkpt lat="46.29582" lon="5.65383">
        <ele>436.8</ele>
        <time>2022-07-29T13:34:48Z</time>
      </trkpt>
      <trkpt lat="46.29581" lon="5.65387">
        <ele>437</ele>
        <time>2022-07-29T13:34:49Z</time>
      </trkpt>
      <trkpt lat="46.2958" lon="5.65391">
        <ele>437.2</ele>
        <time>2022-07-29T13:34:50Z</time>
      </trkpt>
      <trkpt lat="46.29579" lon="5.65394">
        <ele>437.2</ele>
        <time>2022-07-29T13:34:51Z</time>
      </trkpt>
      <trkpt lat="46.29577" lon="5.65398">
        <ele>437.6</ele>
        <time>2022-07-29T13:34:52Z</time>
      </trkpt>
      <trkpt lat="46.29576" lon="5.65401">
        <ele>437.8</ele>
        <time>2022-07-29T13:34:53Z</time>
      </trkpt>
      <trkpt lat="46.29573" lon="5.65404">
        <ele>437.8</ele>
        <time>2022-07-29T13:34:54Z</time>
      </trkpt>
      <trkpt lat="46.29571" lon="5.65406">
        <ele>438.2</ele>
        <time>2022-07-29T13:34:55Z</time>
      </trkpt>
      <trkpt lat="46.29568" lon="5.65408">
        <ele>438.2</ele>
        <time>2022-07-29T13:34:56Z</time>
      </trkpt>
      <trkpt lat="46.29566" lon="5.6541">
        <ele>438.6</ele>
        <time>2022-07-29T13:34:57Z</time>
      </trkpt>
      <trkpt lat="46.29563" lon="5.65413">
        <ele>438.6</ele>
        <time>2022-07-29T13:34:58Z</time>
      </trkpt>
      <trkpt lat="46.29562" lon="5.65415">
        <ele>438.8</ele>
        <time>2022-07-29T13:34:59Z</time>
      </trkpt>
      <trkpt lat="46.29559" lon="5.65418">
        <ele>438.8</ele>
        <time>2022-07-29T13:35:00Z</time>
      </trkpt>
      <trkpt lat="46.29557" lon="5.6542">
        <ele>439.2</ele>
        <time>2022-07-29T13:35:01Z</time>
      </trkpt>
      <trkpt lat="46.29554" lon="5.65422">
        <ele>439.2</ele>
        <time>2022-07-29T13:35:02Z</time>
      </trkpt>
      <trkpt lat="46.29552" lon="5.65424">
        <ele>439.6</ele>
        <time>2022-07-29T13:35:03Z</time>
      </trkpt>
      <trkpt lat="46.29549" lon="5.65425">
        <ele>439.8</ele>
        <time>2022-07-29T13:35:04Z</time>
      </trkpt>
      <trkpt lat="46.29547" lon="5.65427">
        <ele>440</ele>
        <time>2022-07-29T13:35:05Z</time>
      </trkpt>
      <trkpt lat="46.29544" lon="5.65428">
        <ele>440</ele>
        <time>2022-07-29T13:35:06Z</time>
      </trkpt>
      <trkpt lat="46.29541" lon="5.65428">
        <ele>440.4</ele>
        <time>2022-07-29T13:35:07Z</time>
      </trkpt>
      <trkpt lat="46.29538" lon="5.65429">
        <ele>440.4</ele>
        <time>2022-07-29T13:35:08Z</time>
      </trkpt>
      <trkpt lat="46.29534" lon="5.6543">
        <ele>440.8</ele>
        <time>2022-07-29T13:35:09Z</time>
      </trkpt>
      <trkpt lat="46.29531" lon="5.6543">
        <ele>440.8</ele>
        <time>2022-07-29T13:35:10Z</time>
      </trkpt>
      <trkpt lat="46.29528" lon="5.65431">
        <ele>441.2</ele>
        <time>2022-07-29T13:35:11Z</time>
      </trkpt>
      <trkpt lat="46.29525" lon="5.65432">
        <ele>441.2</ele>
        <time>2022-07-29T13:35:12Z</time>
      </trkpt>
      <trkpt lat="46.29522" lon="5.65433">
        <ele>441.4</ele>
        <time>2022-07-29T13:35:13Z</time>
      </trkpt>
      <trkpt lat="46.2952" lon="5.65434">
        <ele>441.8</ele>
        <time>2022-07-29T13:35:14Z</time>
      </trkpt>
      <trkpt lat="46.29517" lon="5.65434">
        <ele>441.8</ele>
        <time>2022-07-29T13:35:15Z</time>
      </trkpt>
      <trkpt lat="46.29515" lon="5.65435">
        <ele>442</ele>
        <time>2022-07-29T13:35:16Z</time>
      </trkpt>
      <trkpt lat="46.29512" lon="5.65435">
        <ele>442.4</ele>
        <time>2022-07-29T13:35:17Z</time>
      </trkpt>
      <trkpt lat="46.29509" lon="5.65435">
        <ele>442.4</ele>
        <time>2022-07-29T13:35:18Z</time>
      </trkpt>
      <trkpt lat="46.29507" lon="5.65436">
        <ele>442.6</ele>
        <time>2022-07-29T13:35:19Z</time>
      </trkpt>
      <trkpt lat="46.29504" lon="5.65437">
        <ele>442.6</ele>
        <time>2022-07-29T13:35:20Z</time>
      </trkpt>
      <trkpt lat="46.29502" lon="5.65437">
        <ele>443</ele>
        <time>2022-07-29T13:35:21Z</time>
      </trkpt>
      <trkpt lat="46.295" lon="5.65438">
        <ele>443.2</ele>
        <time>2022-07-29T13:35:22Z</time>
      </trkpt>
      <trkpt lat="46.29497" lon="5.65438">
        <ele>443.2</ele>
        <time>2022-07-29T13:35:23Z</time>
      </trkpt>
      <trkpt lat="46.29495" lon="5.65439">
        <ele>443.4</ele>
        <time>2022-07-29T13:35:24Z</time>
      </trkpt>
      <trkpt lat="46.29492" lon="5.6544">
        <ele>443.4</ele>
        <time>2022-07-29T13:35:25Z</time>
      </trkpt>
      <trkpt lat="46.2949" lon="5.65441">
        <ele>443.8</ele>
        <time>2022-07-29T13:35:26Z</time>
      </trkpt>
      <trkpt lat="46.29487" lon="5.65442">
        <ele>443.8</ele>
        <time>2022-07-29T13:35:27Z</time>
      </trkpt>
      <trkpt lat="46.29485" lon="5.65443">
        <ele>444</ele>
        <time>2022-07-29T13:35:28Z</time>
      </trkpt>
      <trkpt lat="46.29483" lon="5.65444">
        <ele>444</ele>
        <time>2022-07-29T13:35:29Z</time>
      </trkpt>
      <trkpt lat="46.2948" lon="5.65445">
        <ele>444.4</ele>
        <time>2022-07-29T13:35:30Z</time>
      </trkpt>
      <trkpt lat="46.29478" lon="5.65445">
        <ele>444.4</ele>
        <time>2022-07-29T13:35:31Z</time>
      </trkpt>
      <trkpt lat="46.29475" lon="5.65445">
        <ele>444.6</ele>
        <time>2022-07-29T13:35:32Z</time>
      </trkpt>
      <trkpt lat="46.29473" lon="5.65445">
        <ele>444.6</ele>
        <time>2022-07-29T13:35:33Z</time>
      </trkpt>
      <trkpt lat="46.2947" lon="5.65445">
        <ele>444.8</ele>
        <time>2022-07-29T13:35:34Z</time>
      </trkpt>
      <trkpt lat="46.29467" lon="5.65445">
        <ele>445</ele>
        <time>2022-07-29T13:35:35Z</time>
      </trkpt>
      <trkpt lat="46.29465" lon="5.65444">
        <ele>445.4</ele>
        <time>2022-07-29T13:35:36Z</time>
      </trkpt>
      <trkpt lat="46.29462" lon="5.65443">
        <ele>445.4</ele>
        <time>2022-07-29T13:35:37Z</time>
      </trkpt>
      <trkpt lat="46.2946" lon="5.65442">
        <ele>445.6</ele>
        <time>2022-07-29T13:35:38Z</time>
      </trkpt>
      <trkpt lat="46.29458" lon="5.65441">
        <ele>445.6</ele>
        <time>2022-07-29T13:35:39Z</time>
      </trkpt>
      <trkpt lat="46.29456" lon="5.65439">
        <ele>446</ele>
        <time>2022-07-29T13:35:40Z</time>
      </trkpt>
      <trkpt lat="46.29454" lon="5.65437">
        <ele>446.2</ele>
        <time>2022-07-29T13:35:41Z</time>
      </trkpt>
      <trkpt lat="46.29454" lon="5.65434">
        <ele>446.4</ele>
        <time>2022-07-29T13:35:42Z</time>
      </trkpt>
      <trkpt lat="46.29453" lon="5.6543">
        <ele>446.6</ele>
        <time>2022-07-29T13:35:43Z</time>
      </trkpt>
      <trkpt lat="46.29452" lon="5.65427">
        <ele>446.8</ele>
        <time>2022-07-29T13:35:44Z</time>
      </trkpt>
      <trkpt lat="46.29452" lon="5.65424">
        <ele>447.2</ele>
        <time>2022-07-29T13:35:45Z</time>
      </trkpt>
      <trkpt lat="46.29453" lon="5.6542">
        <ele>447.2</ele>
        <time>2022-07-29T13:35:46Z</time>
      </trkpt>
      <trkpt lat="46.29454" lon="5.65417">
        <ele>447.4</ele>
        <time>2022-07-29T13:35:47Z</time>
      </trkpt>
      <trkpt lat="46.29456" lon="5.65413">
        <ele>447.4</ele>
        <time>2022-07-29T13:35:48Z</time>
      </trkpt>
      <trkpt lat="46.29457" lon="5.65409">
        <ele>447.8</ele>
        <time>2022-07-29T13:35:49Z</time>
      </trkpt>
      <trkpt lat="46.29458" lon="5.65406">
        <ele>447.8</ele>
        <time>2022-07-29T13:35:50Z</time>
      </trkpt>
      <trkpt lat="46.29459" lon="5.65402">
        <ele>448</ele>
        <time>2022-07-29T13:35:51Z</time>
      </trkpt>
      <trkpt lat="46.29461" lon="5.65399">
        <ele>448</ele>
        <time>2022-07-29T13:35:52Z</time>
      </trkpt>
      <trkpt lat="46.29462" lon="5.65395">
        <ele>448.4</ele>
        <time>2022-07-29T13:35:53Z</time>
      </trkpt>
      <trkpt lat="46.29463" lon="5.65391">
        <ele>448.4</ele>
        <time>2022-07-29T13:35:54Z</time>
      </trkpt>
      <trkpt lat="46.29464" lon="5.65388">
        <ele>448.8</ele>
        <time>2022-07-29T13:35:55Z</time>
      </trkpt>
      <trkpt lat="46.29465" lon="5.65385">
        <ele>448.8</ele>
        <time>2022-07-29T13:35:56Z</time>
      </trkpt>
      <trkpt lat="46.29466" lon="5.65381">
        <ele>449</ele>
        <time>2022-07-29T13:35:57Z</time>
      </trkpt>
      <trkpt lat="46.29467" lon="5.65378">
        <ele>449</ele>
        <time>2022-07-29T13:35:58Z</time>
      </trkpt>
      <trkpt lat="46.29468" lon="5.65374">
        <ele>449.4</ele>
        <time>2022-07-29T13:35:59Z</time>
      </trkpt>
      <trkpt lat="46.29469" lon="5.65371">
        <ele>449.4</ele>
        <time>2022-07-29T13:36:00Z</time>
      </trkpt>
      <trkpt lat="46.29469" lon="5.65367">
        <ele>449.6</ele>
        <time>2022-07-29T13:36:01Z</time>
      </trkpt>
      <trkpt lat="46.2947" lon="5.65363">
        <ele>449.6</ele>
        <time>2022-07-29T13:36:02Z</time>
      </trkpt>
      <trkpt lat="46.29471" lon="5.65359">
        <ele>450</ele>
        <time>2022-07-29T13:36:03Z</time>
      </trkpt>
      <trkpt lat="46.29471" lon="5.65355">
        <ele>450</ele>
        <time>2022-07-29T13:36:04Z</time>
      </trkpt>
      <trkpt lat="46.29472" lon="5.65351">
        <ele>450</ele>
        <time>2022-07-29T13:36:05Z</time>
      </trkpt>
      <trkpt lat="46.29472" lon="5.65347">
        <ele>450.2</ele>
        <time>2022-07-29T13:36:06Z</time>
      </trkpt>
      <trkpt lat="46.29472" lon="5.65342">
        <ele>450.2</ele>
        <time>2022-07-29T13:36:07Z</time>
      </trkpt>
      <trkpt lat="46.29472" lon="5.65337">
        <ele>450.2</ele>
        <time>2022-07-29T13:36:08Z</time>
      </trkpt>
      <trkpt lat="46.29473" lon="5.65332">
        <ele>450.6</ele>
        <time>2022-07-29T13:36:09Z</time>
      </trkpt>
      <trkpt lat="46.29473" lon="5.65327">
        <ele>450.6</ele>
        <time>2022-07-29T13:36:10Z</time>
      </trkpt>
      <trkpt lat="46.29473" lon="5.65322">
        <ele>450.6</ele>
        <time>2022-07-29T13:36:11Z</time>
      </trkpt>
      <trkpt lat="46.29474" lon="5.65317">
        <ele>450.8</ele>
        <time>2022-07-29T13:36:12Z</time>
      </trkpt>
      <trkpt lat="46.29474" lon="5.65312">
        <ele>450.8</ele>
        <time>2022-07-29T13:36:13Z</time>
      </trkpt>
      <trkpt lat="46.29475" lon="5.65307">
        <ele>450.8</ele>
        <time>2022-07-29T13:36:14Z</time>
      </trkpt>
      <trkpt lat="46.29475" lon="5.65302">
        <ele>451</ele>
        <time>2022-07-29T13:36:15Z</time>
      </trkpt>
      <trkpt lat="46.29476" lon="5.65296">
        <ele>451</ele>
        <time>2022-07-29T13:36:16Z</time>
      </trkpt>
      <trkpt lat="46.29476" lon="5.65291">
        <ele>451.2</ele>
        <time>2022-07-29T13:36:17Z</time>
      </trkpt>
      <trkpt lat="46.29476" lon="5.65286">
        <ele>451.2</ele>
        <time>2022-07-29T13:36:18Z</time>
      </trkpt>
      <trkpt lat="46.29477" lon="5.65281">
        <ele>451.2</ele>
        <time>2022-07-29T13:36:19Z</time>
      </trkpt>
      <trkpt lat="46.29477" lon="5.65275">
        <ele>451.4</ele>
        <time>2022-07-29T13:36:20Z</time>
      </trkpt>
      <trkpt lat="46.29478" lon="5.6527">
        <ele>451.4</ele>
        <time>2022-07-29T13:36:21Z</time>
      </trkpt>
      <trkpt lat="46.29478" lon="5.65264">
        <ele>451.6</ele>
        <time>2022-07-29T13:36:22Z</time>
      </trkpt>
      <trkpt lat="46.29479" lon="5.65258">
        <ele>451.6</ele>
        <time>2022-07-29T13:36:23Z</time>
      </trkpt>
      <trkpt lat="46.29479" lon="5.65253">
        <ele>452</ele>
        <time>2022-07-29T13:36:24Z</time>
      </trkpt>
      <trkpt lat="46.29479" lon="5.65247">
        <ele>452</ele>
        <time>2022-07-29T13:36:25Z</time>
      </trkpt>
      <trkpt lat="46.2948" lon="5.65241">
        <ele>452</ele>
        <time>2022-07-29T13:36:26Z</time>
      </trkpt>
      <trkpt lat="46.2948" lon="5.65235">
        <ele>452</ele>
        <time>2022-07-29T13:36:27Z</time>
      </trkpt>
      <trkpt lat="46.29481" lon="5.65228">
        <ele>452.2</ele>
        <time>2022-07-29T13:36:28Z</time>
      </trkpt>
      <trkpt lat="46.29481" lon="5.65222">
        <ele>452.2</ele>
        <time>2022-07-29T13:36:29Z</time>
      </trkpt>
      <trkpt lat="46.29481" lon="5.65216">
        <ele>452.2</ele>
        <time>2022-07-29T13:36:30Z</time>
      </trkpt>
      <trkpt lat="46.29482" lon="5.6521">
        <ele>452.2</ele>
        <time>2022-07-29T13:36:31Z</time>
      </trkpt>
      <trkpt lat="46.29482" lon="5.65203">
        <ele>452.2</ele>
        <time>2022-07-29T13:36:32Z</time>
      </trkpt>
      <trkpt lat="46.29483" lon="5.65197">
        <ele>452.2</ele>
        <time>2022-07-29T13:36:33Z</time>
      </trkpt>
      <trkpt lat="46.29483" lon="5.6519">
        <ele>452.2</ele>
        <time>2022-07-29T13:36:34Z</time>
      </trkpt>
      <trkpt lat="46.29483" lon="5.65183">
        <ele>452.2</ele>
        <time>2022-07-29T13:36:35Z</time>
      </trkpt>
      <trkpt lat="46.29484" lon="5.65177">
        <ele>452.6</ele>
        <time>2022-07-29T13:36:36Z</time>
      </trkpt>
      <trkpt lat="46.29485" lon="5.6517">
        <ele>452.6</ele>
        <time>2022-07-29T13:36:37Z</time>
      </trkpt>
      <trkpt lat="46.29486" lon="5.65163">
        <ele>452.6</ele>
        <time>2022-07-29T13:36:38Z</time>
      </trkpt>
      <trkpt lat="46.29487" lon="5.65157">
        <ele>452.6</ele>
        <time>2022-07-29T13:36:39Z</time>
      </trkpt>
      <trkpt lat="46.29489" lon="5.6515">
        <ele>452.6</ele>
        <time>2022-07-29T13:36:40Z</time>
      </trkpt>
      <trkpt lat="46.29489" lon="5.65144">
        <ele>452.6</ele>
        <time>2022-07-29T13:36:41Z</time>
      </trkpt>
      <trkpt lat="46.29489" lon="5.65138">
        <ele>452.6</ele>
        <time>2022-07-29T13:36:42Z</time>
      </trkpt>
      <trkpt lat="46.29489" lon="5.65131">
        <ele>452.6</ele>
        <time>2022-07-29T13:36:43Z</time>
      </trkpt>
      <trkpt lat="46.2949" lon="5.65126">
        <ele>452.6</ele>
        <time>2022-07-29T13:36:44Z</time>
      </trkpt>
      <trkpt lat="46.2949" lon="5.65119">
        <ele>452.8</ele>
        <time>2022-07-29T13:36:45Z</time>
      </trkpt>
      <trkpt lat="46.2949" lon="5.65112">
        <ele>452.8</ele>
        <time>2022-07-29T13:36:46Z</time>
      </trkpt>
      <trkpt lat="46.2949" lon="5.65106">
        <ele>452.8</ele>
        <time>2022-07-29T13:36:47Z</time>
      </trkpt>
      <trkpt lat="46.29491" lon="5.65099">
        <ele>453</ele>
        <time>2022-07-29T13:36:48Z</time>
      </trkpt>
      <trkpt lat="46.29491" lon="5.65092">
        <ele>453</ele>
        <time>2022-07-29T13:36:49Z</time>
      </trkpt>
      <trkpt lat="46.2949" lon="5.65086">
        <ele>453</ele>
        <time>2022-07-29T13:36:50Z</time>
      </trkpt>
      <trkpt lat="46.2949" lon="5.6508">
        <ele>453.2</ele>
        <time>2022-07-29T13:36:51Z</time>
      </trkpt>
      <trkpt lat="46.2949" lon="5.65075">
        <ele>453.2</ele>
        <time>2022-07-29T13:36:52Z</time>
      </trkpt>
      <trkpt lat="46.2949" lon="5.65069">
        <ele>453.2</ele>
        <time>2022-07-29T13:36:53Z</time>
      </trkpt>
      <trkpt lat="46.2949" lon="5.65064">
        <ele>453.6</ele>
        <time>2022-07-29T13:36:54Z</time>
      </trkpt>
      <trkpt lat="46.2949" lon="5.65059">
        <ele>454</ele>
        <time>2022-07-29T13:36:55Z</time>
      </trkpt>
      <trkpt lat="46.2949" lon="5.65054">
        <ele>454</ele>
        <time>2022-07-29T13:36:56Z</time>
      </trkpt>
      <trkpt lat="46.29489" lon="5.6505">
        <ele>454.4</ele>
        <time>2022-07-29T13:36:57Z</time>
      </trkpt>
      <trkpt lat="46.29489" lon="5.65045">
        <ele>454.6</ele>
        <time>2022-07-29T13:36:58Z</time>
      </trkpt>
      <trkpt lat="46.29488" lon="5.6504">
        <ele>454.6</ele>
        <time>2022-07-29T13:36:59Z</time>
      </trkpt>
      <trkpt lat="46.29488" lon="5.65035">
        <ele>454.8</ele>
        <time>2022-07-29T13:37:00Z</time>
      </trkpt>
      <trkpt lat="46.29487" lon="5.6503">
        <ele>454.8</ele>
        <time>2022-07-29T13:37:01Z</time>
      </trkpt>
      <trkpt lat="46.29487" lon="5.65026">
        <ele>455.4</ele>
        <time>2022-07-29T13:37:02Z</time>
      </trkpt>
      <trkpt lat="46.29487" lon="5.65021">
        <ele>455.6</ele>
        <time>2022-07-29T13:37:03Z</time>
      </trkpt>
      <trkpt lat="46.29486" lon="5.65016">
        <ele>455.8</ele>
        <time>2022-07-29T13:37:04Z</time>
      </trkpt>
      <trkpt lat="46.29486" lon="5.65012">
        <ele>456</ele>
        <time>2022-07-29T13:37:05Z</time>
      </trkpt>
      <trkpt lat="46.29485" lon="5.65007">
        <ele>456</ele>
        <time>2022-07-29T13:37:06Z</time>
      </trkpt>
      <trkpt lat="46.29485" lon="5.65003">
        <ele>456.4</ele>
        <time>2022-07-29T13:37:07Z</time>
      </trkpt>
      <trkpt lat="46.29484" lon="5.64998">
        <ele>456.4</ele>
        <time>2022-07-29T13:37:08Z</time>
      </trkpt>
      <trkpt lat="46.29484" lon="5.64994">
        <ele>456.8</ele>
        <time>2022-07-29T13:37:09Z</time>
      </trkpt>
      <trkpt lat="46.29484" lon="5.6499">
        <ele>456.8</ele>
        <time>2022-07-29T13:37:10Z</time>
      </trkpt>
      <trkpt lat="46.29483" lon="5.64986">
        <ele>457.2</ele>
        <time>2022-07-29T13:37:11Z</time>
      </trkpt>
      <trkpt lat="46.29483" lon="5.64981">
        <ele>457.2</ele>
        <time>2022-07-29T13:37:12Z</time>
      </trkpt>
      <trkpt lat="46.29482" lon="5.64977">
        <ele>457.4</ele>
        <time>2022-07-29T13:37:13Z</time>
      </trkpt>
      <trkpt lat="46.29482" lon="5.64973">
        <ele>457.4</ele>
        <time>2022-07-29T13:37:14Z</time>
      </trkpt>
      <trkpt lat="46.29482" lon="5.64969">
        <ele>457.8</ele>
        <time>2022-07-29T13:37:15Z</time>
      </trkpt>
      <trkpt lat="46.29481" lon="5.64964">
        <ele>457.8</ele>
        <time>2022-07-29T13:37:16Z</time>
      </trkpt>
      <trkpt lat="46.29481" lon="5.6496">
        <ele>458.2</ele>
        <time>2022-07-29T13:37:17Z</time>
      </trkpt>
      <trkpt lat="46.29481" lon="5.64955">
        <ele>458.2</ele>
        <time>2022-07-29T13:37:18Z</time>
      </trkpt>
      <trkpt lat="46.2948" lon="5.64951">
        <ele>458.4</ele>
        <time>2022-07-29T13:37:19Z</time>
      </trkpt>
      <trkpt lat="46.29479" lon="5.64946">
        <ele>458.4</ele>
        <time>2022-07-29T13:37:20Z</time>
      </trkpt>
      <trkpt lat="46.29479" lon="5.64942">
        <ele>458.6</ele>
        <time>2022-07-29T13:37:21Z</time>
      </trkpt>
      <trkpt lat="46.29478" lon="5.64937">
        <ele>458.6</ele>
        <time>2022-07-29T13:37:22Z</time>
      </trkpt>
      <trkpt lat="46.29478" lon="5.64933">
        <ele>458.8</ele>
        <time>2022-07-29T13:37:23Z</time>
      </trkpt>
      <trkpt lat="46.29478" lon="5.64928">
        <ele>458.8</ele>
        <time>2022-07-29T13:37:24Z</time>
      </trkpt>
      <trkpt lat="46.29477" lon="5.64923">
        <ele>459.2</ele>
        <time>2022-07-29T13:37:25Z</time>
      </trkpt>
      <trkpt lat="46.29477" lon="5.64919">
        <ele>459.2</ele>
        <time>2022-07-29T13:37:26Z</time>
      </trkpt>
      <trkpt lat="46.29476" lon="5.64914">
        <ele>459.2</ele>
        <time>2022-07-29T13:37:27Z</time>
      </trkpt>
      <trkpt lat="46.29476" lon="5.64909">
        <ele>459.4</ele>
        <time>2022-07-29T13:37:28Z</time>
      </trkpt>
      <trkpt lat="46.29475" lon="5.64904">
        <ele>459.4</ele>
        <time>2022-07-29T13:37:29Z</time>
      </trkpt>
      <trkpt lat="46.29475" lon="5.64899">
        <ele>459.4</ele>
        <time>2022-07-29T13:37:30Z</time>
      </trkpt>
      <trkpt lat="46.29475" lon="5.64893">
        <ele>459.4</ele>
        <time>2022-07-29T13:37:31Z</time>
      </trkpt>
      <trkpt lat="46.29474" lon="5.64888">
        <ele>459.8</ele>
        <time>2022-07-29T13:37:32Z</time>
      </trkpt>
      <trkpt lat="46.29474" lon="5.64882">
        <ele>459.8</ele>
        <time>2022-07-29T13:37:33Z</time>
      </trkpt>
      <trkpt lat="46.29473" lon="5.64877">
        <ele>459.8</ele>
        <time>2022-07-29T13:37:34Z</time>
      </trkpt>
      <trkpt lat="46.29472" lon="5.64871">
        <ele>459.8</ele>
        <time>2022-07-29T13:37:35Z</time>
      </trkpt>
      <trkpt lat="46.29472" lon="5.64866">
        <ele>460</ele>
        <time>2022-07-29T13:37:36Z</time>
      </trkpt>
      <trkpt lat="46.29471" lon="5.6486">
        <ele>460</ele>
        <time>2022-07-29T13:37:37Z</time>
      </trkpt>
      <trkpt lat="46.2947" lon="5.64855">
        <ele>460</ele>
        <time>2022-07-29T13:37:38Z</time>
      </trkpt>
      <trkpt lat="46.29469" lon="5.64849">
        <ele>460.2</ele>
        <time>2022-07-29T13:37:39Z</time>
      </trkpt>
      <trkpt lat="46.29468" lon="5.64844">
        <ele>460.2</ele>
        <time>2022-07-29T13:37:40Z</time>
      </trkpt>
      <trkpt lat="46.29468" lon="5.64838">
        <ele>460.2</ele>
        <time>2022-07-29T13:37:41Z</time>
      </trkpt>
      <trkpt lat="46.29467" lon="5.64832">
        <ele>460.2</ele>
        <time>2022-07-29T13:37:42Z</time>
      </trkpt>
      <trkpt lat="46.29466" lon="5.64827">
        <ele>460.6</ele>
        <time>2022-07-29T13:37:43Z</time>
      </trkpt>
      <trkpt lat="46.29466" lon="5.64821">
        <ele>460.6</ele>
        <time>2022-07-29T13:37:44Z</time>
      </trkpt>
      <trkpt lat="46.29465" lon="5.64816">
        <ele>460.6</ele>
        <time>2022-07-29T13:37:45Z</time>
      </trkpt>
      <trkpt lat="46.29464" lon="5.6481">
        <ele>460.8</ele>
        <time>2022-07-29T13:37:46Z</time>
      </trkpt>
      <trkpt lat="46.29463" lon="5.64805">
        <ele>460.8</ele>
        <time>2022-07-29T13:37:47Z</time>
      </trkpt>
      <trkpt lat="46.29462" lon="5.64799">
        <ele>461</ele>
        <time>2022-07-29T13:37:48Z</time>
      </trkpt>
      <trkpt lat="46.29461" lon="5.64794">
        <ele>461</ele>
        <time>2022-07-29T13:37:49Z</time>
      </trkpt>
      <trkpt lat="46.29461" lon="5.64789">
        <ele>461.4</ele>
        <time>2022-07-29T13:37:50Z</time>
      </trkpt>
      <trkpt lat="46.2946" lon="5.64784">
        <ele>461.4</ele>
        <time>2022-07-29T13:37:51Z</time>
      </trkpt>
      <trkpt lat="46.29459" lon="5.64779">
        <ele>461.6</ele>
        <time>2022-07-29T13:37:52Z</time>
      </trkpt>
      <trkpt lat="46.29457" lon="5.64774">
        <ele>461.6</ele>
        <time>2022-07-29T13:37:53Z</time>
      </trkpt>
      <trkpt lat="46.29456" lon="5.64769">
        <ele>462</ele>
        <time>2022-07-29T13:37:54Z</time>
      </trkpt>
      <trkpt lat="46.29455" lon="5.64765">
        <ele>462</ele>
        <time>2022-07-29T13:37:55Z</time>
      </trkpt>
      <trkpt lat="46.29454" lon="5.64761">
        <ele>462.2</ele>
        <time>2022-07-29T13:37:56Z</time>
      </trkpt>
      <trkpt lat="46.29453" lon="5.64756">
        <ele>462.2</ele>
        <time>2022-07-29T13:37:57Z</time>
      </trkpt>
      <trkpt lat="46.29452" lon="5.64753">
        <ele>462.6</ele>
        <time>2022-07-29T13:37:58Z</time>
      </trkpt>
      <trkpt lat="46.29451" lon="5.64749">
        <ele>462.8</ele>
        <time>2022-07-29T13:37:59Z</time>
      </trkpt>
      <trkpt lat="46.2945" lon="5.64746">
        <ele>463</ele>
        <time>2022-07-29T13:38:00Z</time>
      </trkpt>
      <trkpt lat="46.29448" lon="5.64742">
        <ele>463</ele>
        <time>2022-07-29T13:38:01Z</time>
      </trkpt>
      <trkpt lat="46.29447" lon="5.64739">
        <ele>463.4</ele>
        <time>2022-07-29T13:38:02Z</time>
      </trkpt>
      <trkpt lat="46.29445" lon="5.64735">
        <ele>463.4</ele>
        <time>2022-07-29T13:38:03Z</time>
      </trkpt>
      <trkpt lat="46.29444" lon="5.64732">
        <ele>463.6</ele>
        <time>2022-07-29T13:38:04Z</time>
      </trkpt>
      <trkpt lat="46.29443" lon="5.64729">
        <ele>464</ele>
        <time>2022-07-29T13:38:05Z</time>
      </trkpt>
      <trkpt lat="46.29441" lon="5.64725">
        <ele>464.2</ele>
        <time>2022-07-29T13:38:06Z</time>
      </trkpt>
      <trkpt lat="46.29439" lon="5.64721">
        <ele>464.4</ele>
        <time>2022-07-29T13:38:07Z</time>
      </trkpt>
      <trkpt lat="46.29438" lon="5.64717">
        <ele>464.6</ele>
        <time>2022-07-29T13:38:08Z</time>
      </trkpt>
      <trkpt lat="46.29436" lon="5.64713">
        <ele>464.8</ele>
        <time>2022-07-29T13:38:09Z</time>
      </trkpt>
      <trkpt lat="46.29434" lon="5.64709">
        <ele>465.2</ele>
        <time>2022-07-29T13:38:10Z</time>
      </trkpt>
      <trkpt lat="46.29433" lon="5.64705">
        <ele>465.4</ele>
        <time>2022-07-29T13:38:11Z</time>
      </trkpt>
      <trkpt lat="46.29431" lon="5.64702">
        <ele>465.6</ele>
        <time>2022-07-29T13:38:12Z</time>
      </trkpt>
      <trkpt lat="46.29429" lon="5.64698">
        <ele>465.8</ele>
        <time>2022-07-29T13:38:13Z</time>
      </trkpt>
      <trkpt lat="46.29428" lon="5.64695">
        <ele>466.2</ele>
        <time>2022-07-29T13:38:14Z</time>
      </trkpt>
      <trkpt lat="46.29426" lon="5.64692">
        <ele>466.2</ele>
        <time>2022-07-29T13:38:15Z</time>
      </trkpt>
      <trkpt lat="46.29425" lon="5.64688">
        <ele>466.6</ele>
        <time>2022-07-29T13:38:16Z</time>
      </trkpt>
      <trkpt lat="46.29424" lon="5.64684">
        <ele>466.8</ele>
        <time>2022-07-29T13:38:17Z</time>
      </trkpt>
      <trkpt lat="46.29423" lon="5.64681">
        <ele>467</ele>
        <time>2022-07-29T13:38:18Z</time>
      </trkpt>
      <trkpt lat="46.29422" lon="5.64677">
        <ele>467</ele>
        <time>2022-07-29T13:38:19Z</time>
      </trkpt>
      <trkpt lat="46.29421" lon="5.64674">
        <ele>467.4</ele>
        <time>2022-07-29T13:38:20Z</time>
      </trkpt>
      <trkpt lat="46.2942" lon="5.64671">
        <ele>467.8</ele>
        <time>2022-07-29T13:38:21Z</time>
      </trkpt>
      <trkpt lat="46.29419" lon="5.64668">
        <ele>468</ele>
        <time>2022-07-29T13:38:22Z</time>
      </trkpt>
      <trkpt lat="46.29418" lon="5.64665">
        <ele>468.2</ele>
        <time>2022-07-29T13:38:23Z</time>
      </trkpt>
      <trkpt lat="46.29417" lon="5.64662">
        <ele>468.4</ele>
        <time>2022-07-29T13:38:24Z</time>
      </trkpt>
      <trkpt lat="46.29416" lon="5.64659">
        <ele>468.4</ele>
        <time>2022-07-29T13:38:25Z</time>
      </trkpt>
      <trkpt lat="46.29416" lon="5.64656">
        <ele>468.8</ele>
        <time>2022-07-29T13:38:26Z</time>
      </trkpt>
      <trkpt lat="46.29415" lon="5.64653">
        <ele>469</ele>
        <time>2022-07-29T13:38:27Z</time>
      </trkpt>
      <trkpt lat="46.29414" lon="5.64649">
        <ele>469.2</ele>
        <time>2022-07-29T13:38:28Z</time>
      </trkpt>
      <trkpt lat="46.29413" lon="5.64646">
        <ele>469.4</ele>
        <time>2022-07-29T13:38:29Z</time>
      </trkpt>
      <trkpt lat="46.29412" lon="5.64643">
        <ele>469.4</ele>
        <time>2022-07-29T13:38:30Z</time>
      </trkpt>
      <trkpt lat="46.29411" lon="5.64641">
        <ele>469.8</ele>
        <time>2022-07-29T13:38:31Z</time>
      </trkpt>
      <trkpt lat="46.2941" lon="5.64638">
        <ele>470.2</ele>
        <time>2022-07-29T13:38:32Z</time>
      </trkpt>
      <trkpt lat="46.29409" lon="5.64635">
        <ele>470.4</ele>
        <time>2022-07-29T13:38:33Z</time>
      </trkpt>
      <trkpt lat="46.29408" lon="5.64632">
        <ele>470.4</ele>
        <time>2022-07-29T13:38:34Z</time>
      </trkpt>
      <trkpt lat="46.29407" lon="5.64629">
        <ele>470.8</ele>
        <time>2022-07-29T13:38:35Z</time>
      </trkpt>
      <trkpt lat="46.29406" lon="5.64626">
        <ele>470.8</ele>
        <time>2022-07-29T13:38:36Z</time>
      </trkpt>
      <trkpt lat="46.29405" lon="5.64624">
        <ele>471.2</ele>
        <time>2022-07-29T13:38:37Z</time>
      </trkpt>
      <trkpt lat="46.29405" lon="5.64624">
        <ele>471.2</ele>
        <time>2022-07-29T13:38:38Z</time>
      </trkpt>
      <trkpt lat="46.29404" lon="5.64621">
        <ele>471.4</ele>
        <time>2022-07-29T13:38:39Z</time>
      </trkpt>
      <trkpt lat="46.29403" lon="5.64618">
        <ele>471.4</ele>
        <time>2022-07-29T13:38:40Z</time>
      </trkpt>
      <trkpt lat="46.29403" lon="5.64615">
        <ele>471.6</ele>
        <time>2022-07-29T13:38:41Z</time>
      </trkpt>
      <trkpt lat="46.29402" lon="5.64612">
        <ele>471.6</ele>
        <time>2022-07-29T13:38:42Z</time>
      </trkpt>
      <trkpt lat="46.29402" lon="5.6461">
        <ele>472</ele>
        <time>2022-07-29T13:38:43Z</time>
      </trkpt>
      <trkpt lat="46.29401" lon="5.64607">
        <ele>472</ele>
        <time>2022-07-29T13:38:44Z</time>
      </trkpt>
      <trkpt lat="46.294" lon="5.64605">
        <ele>472.4</ele>
        <time>2022-07-29T13:38:45Z</time>
      </trkpt>
      <trkpt lat="46.29399" lon="5.64602">
        <ele>472.4</ele>
        <time>2022-07-29T13:38:46Z</time>
      </trkpt>
      <trkpt lat="46.29397" lon="5.64599">
        <ele>472.6</ele>
        <time>2022-07-29T13:38:47Z</time>
      </trkpt>
      <trkpt lat="46.29396" lon="5.64596">
        <ele>472.8</ele>
        <time>2022-07-29T13:38:48Z</time>
      </trkpt>
      <trkpt lat="46.29395" lon="5.64593">
        <ele>472.8</ele>
        <time>2022-07-29T13:38:49Z</time>
      </trkpt>
      <trkpt lat="46.29394" lon="5.6459">
        <ele>473</ele>
        <time>2022-07-29T13:38:50Z</time>
      </trkpt>
      <trkpt lat="46.29392" lon="5.64587">
        <ele>473</ele>
        <time>2022-07-29T13:38:51Z</time>
      </trkpt>
      <trkpt lat="46.2939" lon="5.64583">
        <ele>473.4</ele>
        <time>2022-07-29T13:38:52Z</time>
      </trkpt>
      <trkpt lat="46.29389" lon="5.6458">
        <ele>473.4</ele>
        <time>2022-07-29T13:38:53Z</time>
      </trkpt>
      <trkpt lat="46.29388" lon="5.64577">
        <ele>473.6</ele>
        <time>2022-07-29T13:38:54Z</time>
      </trkpt>
      <trkpt lat="46.29386" lon="5.64573">
        <ele>474</ele>
        <time>2022-07-29T13:38:55Z</time>
      </trkpt>
      <trkpt lat="46.29385" lon="5.6457">
        <ele>474</ele>
        <time>2022-07-29T13:38:56Z</time>
      </trkpt>
      <trkpt lat="46.29383" lon="5.64566">
        <ele>474.2</ele>
        <time>2022-07-29T13:38:57Z</time>
      </trkpt>
      <trkpt lat="46.29381" lon="5.64563">
        <ele>474.2</ele>
        <time>2022-07-29T13:38:58Z</time>
      </trkpt>
      <trkpt lat="46.2938" lon="5.6456">
        <ele>474.6</ele>
        <time>2022-07-29T13:38:59Z</time>
      </trkpt>
      <trkpt lat="46.29379" lon="5.64557">
        <ele>474.6</ele>
        <time>2022-07-29T13:39:00Z</time>
      </trkpt>
      <trkpt lat="46.29377" lon="5.64553">
        <ele>475.2</ele>
        <time>2022-07-29T13:39:01Z</time>
      </trkpt>
      <trkpt lat="46.29375" lon="5.64551">
        <ele>475.2</ele>
        <time>2022-07-29T13:39:02Z</time>
      </trkpt>
      <trkpt lat="46.29374" lon="5.64548">
        <ele>475.4</ele>
        <time>2022-07-29T13:39:03Z</time>
      </trkpt>
      <trkpt lat="46.29372" lon="5.64544">
        <ele>475.6</ele>
        <time>2022-07-29T13:39:04Z</time>
      </trkpt>
      <trkpt lat="46.2937" lon="5.64541">
        <ele>476</ele>
        <time>2022-07-29T13:39:05Z</time>
      </trkpt>
      <trkpt lat="46.29368" lon="5.64537">
        <ele>476.2</ele>
        <time>2022-07-29T13:39:06Z</time>
      </trkpt>
      <trkpt lat="46.29367" lon="5.64534">
        <ele>476.2</ele>
        <time>2022-07-29T13:39:07Z</time>
      </trkpt>
      <trkpt lat="46.29366" lon="5.64531">
        <ele>476.6</ele>
        <time>2022-07-29T13:39:08Z</time>
      </trkpt>
      <trkpt lat="46.29364" lon="5.64527">
        <ele>476.8</ele>
        <time>2022-07-29T13:39:09Z</time>
      </trkpt>
      <trkpt lat="46.29364" lon="5.64524">
        <ele>476.8</ele>
        <time>2022-07-29T13:39:10Z</time>
      </trkpt>
      <trkpt lat="46.29362" lon="5.64521">
        <ele>477.2</ele>
        <time>2022-07-29T13:39:11Z</time>
      </trkpt>
      <trkpt lat="46.29361" lon="5.64518">
        <ele>477.2</ele>
        <time>2022-07-29T13:39:12Z</time>
      </trkpt>
      <trkpt lat="46.2936" lon="5.64514">
        <ele>477.6</ele>
        <time>2022-07-29T13:39:13Z</time>
      </trkpt>
      <trkpt lat="46.29358" lon="5.6451">
        <ele>477.6</ele>
        <time>2022-07-29T13:39:14Z</time>
      </trkpt>
      <trkpt lat="46.29356" lon="5.64507">
        <ele>477.8</ele>
        <time>2022-07-29T13:39:15Z</time>
      </trkpt>
      <trkpt lat="46.29355" lon="5.64504">
        <ele>477.8</ele>
        <time>2022-07-29T13:39:16Z</time>
      </trkpt>
      <trkpt lat="46.29354" lon="5.64502">
        <ele>478.2</ele>
        <time>2022-07-29T13:39:17Z</time>
      </trkpt>
      <trkpt lat="46.29352" lon="5.64499">
        <ele>478.4</ele>
        <time>2022-07-29T13:39:18Z</time>
      </trkpt>
      <trkpt lat="46.29351" lon="5.64496">
        <ele>478.6</ele>
        <time>2022-07-29T13:39:19Z</time>
      </trkpt>
      <trkpt lat="46.29349" lon="5.64493">
        <ele>478.6</ele>
        <time>2022-07-29T13:39:20Z</time>
      </trkpt>
      <trkpt lat="46.29348" lon="5.64489">
        <ele>479</ele>
        <time>2022-07-29T13:39:21Z</time>
      </trkpt>
      <trkpt lat="46.29346" lon="5.64486">
        <ele>479.2</ele>
        <time>2022-07-29T13:39:22Z</time>
      </trkpt>
      <trkpt lat="46.29343" lon="5.64483">
        <ele>479.2</ele>
        <time>2022-07-29T13:39:23Z</time>
      </trkpt>
      <trkpt lat="46.29341" lon="5.6448">
        <ele>479.6</ele>
        <time>2022-07-29T13:39:24Z</time>
      </trkpt>
      <trkpt lat="46.29339" lon="5.64477">
        <ele>479.8</ele>
        <time>2022-07-29T13:39:25Z</time>
      </trkpt>
      <trkpt lat="46.29337" lon="5.64473">
        <ele>479.8</ele>
        <time>2022-07-29T13:39:26Z</time>
      </trkpt>
      <trkpt lat="46.29335" lon="5.64469">
        <ele>480.2</ele>
        <time>2022-07-29T13:39:27Z</time>
      </trkpt>
      <trkpt lat="46.29333" lon="5.64466">
        <ele>480.2</ele>
        <time>2022-07-29T13:39:28Z</time>
      </trkpt>
      <trkpt lat="46.29331" lon="5.64462">
        <ele>480.6</ele>
        <time>2022-07-29T13:39:29Z</time>
      </trkpt>
      <trkpt lat="46.2933" lon="5.64459">
        <ele>480.6</ele>
        <time>2022-07-29T13:39:30Z</time>
      </trkpt>
      <trkpt lat="46.29328" lon="5.64456">
        <ele>480.8</ele>
        <time>2022-07-29T13:39:31Z</time>
      </trkpt>
      <trkpt lat="46.29326" lon="5.64452">
        <ele>480.8</ele>
        <time>2022-07-29T13:39:32Z</time>
      </trkpt>
      <trkpt lat="46.29324" lon="5.64449">
        <ele>481.2</ele>
        <time>2022-07-29T13:39:33Z</time>
      </trkpt>
      <trkpt lat="46.29321" lon="5.64446">
        <ele>481.2</ele>
        <time>2022-07-29T13:39:34Z</time>
      </trkpt>
      <trkpt lat="46.29319" lon="5.64442">
        <ele>481.4</ele>
        <time>2022-07-29T13:39:35Z</time>
      </trkpt>
      <trkpt lat="46.29317" lon="5.64439">
        <ele>481.4</ele>
        <time>2022-07-29T13:39:36Z</time>
      </trkpt>
      <trkpt lat="46.29316" lon="5.64436">
        <ele>481.8</ele>
        <time>2022-07-29T13:39:37Z</time>
      </trkpt>
      <trkpt lat="46.29314" lon="5.64433">
        <ele>481.8</ele>
        <time>2022-07-29T13:39:38Z</time>
      </trkpt>
      <trkpt lat="46.29312" lon="5.6443">
        <ele>482.2</ele>
        <time>2022-07-29T13:39:39Z</time>
      </trkpt>
      <trkpt lat="46.2931" lon="5.64426">
        <ele>482.2</ele>
        <time>2022-07-29T13:39:40Z</time>
      </trkpt>
      <trkpt lat="46.29308" lon="5.64423">
        <ele>482.6</ele>
        <time>2022-07-29T13:39:41Z</time>
      </trkpt>
      <trkpt lat="46.29306" lon="5.6442">
        <ele>482.6</ele>
        <time>2022-07-29T13:39:42Z</time>
      </trkpt>
      <trkpt lat="46.29304" lon="5.64417">
        <ele>483</ele>
        <time>2022-07-29T13:39:43Z</time>
      </trkpt>
      <trkpt lat="46.29302" lon="5.64414">
        <ele>483</ele>
        <time>2022-07-29T13:39:44Z</time>
      </trkpt>
      <trkpt lat="46.29301" lon="5.6441">
        <ele>483.2</ele>
        <time>2022-07-29T13:39:45Z</time>
      </trkpt>
      <trkpt lat="46.29299" lon="5.64407">
        <ele>483.2</ele>
        <time>2022-07-29T13:39:46Z</time>
      </trkpt>
      <trkpt lat="46.29297" lon="5.64404">
        <ele>483.6</ele>
        <time>2022-07-29T13:39:47Z</time>
      </trkpt>
      <trkpt lat="46.29295" lon="5.644">
        <ele>483.6</ele>
        <time>2022-07-29T13:39:48Z</time>
      </trkpt>
      <trkpt lat="46.29293" lon="5.64397">
        <ele>484</ele>
        <time>2022-07-29T13:39:49Z</time>
      </trkpt>
      <trkpt lat="46.29291" lon="5.64394">
        <ele>484</ele>
        <time>2022-07-29T13:39:50Z</time>
      </trkpt>
      <trkpt lat="46.2929" lon="5.64391">
        <ele>484.2</ele>
        <time>2022-07-29T13:39:51Z</time>
      </trkpt>
      <trkpt lat="46.29288" lon="5.64388">
        <ele>484.2</ele>
        <time>2022-07-29T13:39:52Z</time>
      </trkpt>
      <trkpt lat="46.29286" lon="5.64385">
        <ele>484.6</ele>
        <time>2022-07-29T13:39:53Z</time>
      </trkpt>
      <trkpt lat="46.29284" lon="5.64382">
        <ele>484.6</ele>
        <time>2022-07-29T13:39:54Z</time>
      </trkpt>
      <trkpt lat="46.29283" lon="5.64379">
        <ele>485</ele>
        <time>2022-07-29T13:39:55Z</time>
      </trkpt>
      <trkpt lat="46.29281" lon="5.64375">
        <ele>485</ele>
        <time>2022-07-29T13:39:56Z</time>
      </trkpt>
      <trkpt lat="46.29279" lon="5.64372">
        <ele>485.2</ele>
        <time>2022-07-29T13:39:57Z</time>
      </trkpt>
      <trkpt lat="46.29277" lon="5.64369">
        <ele>485.2</ele>
        <time>2022-07-29T13:39:58Z</time>
      </trkpt>
      <trkpt lat="46.29276" lon="5.64366">
        <ele>485.6</ele>
        <time>2022-07-29T13:39:59Z</time>
      </trkpt>
      <trkpt lat="46.29274" lon="5.64364">
        <ele>485.6</ele>
        <time>2022-07-29T13:40:00Z</time>
      </trkpt>
      <trkpt lat="46.29272" lon="5.64361">
        <ele>485.8</ele>
        <time>2022-07-29T13:40:01Z</time>
      </trkpt>
      <trkpt lat="46.2927" lon="5.64358">
        <ele>485.8</ele>
        <time>2022-07-29T13:40:02Z</time>
      </trkpt>
      <trkpt lat="46.29268" lon="5.64355">
        <ele>486.2</ele>
        <time>2022-07-29T13:40:03Z</time>
      </trkpt>
      <trkpt lat="46.29267" lon="5.64352">
        <ele>486.2</ele>
        <time>2022-07-29T13:40:04Z</time>
      </trkpt>
      <trkpt lat="46.29265" lon="5.64349">
        <ele>486.4</ele>
        <time>2022-07-29T13:40:05Z</time>
      </trkpt>
      <trkpt lat="46.29263" lon="5.64346">
        <ele>486.4</ele>
        <time>2022-07-29T13:40:06Z</time>
      </trkpt>
      <trkpt lat="46.29261" lon="5.64343">
        <ele>486.8</ele>
        <time>2022-07-29T13:40:07Z</time>
      </trkpt>
      <trkpt lat="46.2926" lon="5.64341">
        <ele>486.8</ele>
        <time>2022-07-29T13:40:08Z</time>
      </trkpt>
      <trkpt lat="46.29258" lon="5.64338">
        <ele>487</ele>
        <time>2022-07-29T13:40:09Z</time>
      </trkpt>
      <trkpt lat="46.29256" lon="5.64336">
        <ele>487</ele>
        <time>2022-07-29T13:40:10Z</time>
      </trkpt>
      <trkpt lat="46.29254" lon="5.64333">
        <ele>487.4</ele>
        <time>2022-07-29T13:40:11Z</time>
      </trkpt>
      <trkpt lat="46.29253" lon="5.6433">
        <ele>487.4</ele>
        <time>2022-07-29T13:40:12Z</time>
      </trkpt>
      <trkpt lat="46.29251" lon="5.64327">
        <ele>487.4</ele>
        <time>2022-07-29T13:40:13Z</time>
      </trkpt>
      <trkpt lat="46.29249" lon="5.64324">
        <ele>487.8</ele>
        <time>2022-07-29T13:40:14Z</time>
      </trkpt>
      <trkpt lat="46.29247" lon="5.64322">
        <ele>487.8</ele>
        <time>2022-07-29T13:40:15Z</time>
      </trkpt>
      <trkpt lat="46.29246" lon="5.64319">
        <ele>488</ele>
        <time>2022-07-29T13:40:16Z</time>
      </trkpt>
      <trkpt lat="46.29244" lon="5.64316">
        <ele>488</ele>
        <time>2022-07-29T13:40:17Z</time>
      </trkpt>
      <trkpt lat="46.29242" lon="5.64314">
        <ele>488.4</ele>
        <time>2022-07-29T13:40:18Z</time>
      </trkpt>
      <trkpt lat="46.29241" lon="5.64311">
        <ele>488.4</ele>
        <time>2022-07-29T13:40:19Z</time>
      </trkpt>
      <trkpt lat="46.29239" lon="5.64308">
        <ele>488.6</ele>
        <time>2022-07-29T13:40:20Z</time>
      </trkpt>
      <trkpt lat="46.29237" lon="5.64305">
        <ele>488.6</ele>
        <time>2022-07-29T13:40:21Z</time>
      </trkpt>
      <trkpt lat="46.29236" lon="5.64302">
        <ele>488.8</ele>
        <time>2022-07-29T13:40:22Z</time>
      </trkpt>
      <trkpt lat="46.29234" lon="5.643">
        <ele>488.8</ele>
        <time>2022-07-29T13:40:23Z</time>
      </trkpt>
      <trkpt lat="46.29232" lon="5.64297">
        <ele>489.2</ele>
        <time>2022-07-29T13:40:24Z</time>
      </trkpt>
      <trkpt lat="46.29231" lon="5.64295">
        <ele>489.4</ele>
        <time>2022-07-29T13:40:25Z</time>
      </trkpt>
      <trkpt lat="46.29229" lon="5.64293">
        <ele>489.4</ele>
        <time>2022-07-29T13:40:26Z</time>
      </trkpt>
      <trkpt lat="46.29227" lon="5.6429">
        <ele>489.8</ele>
        <time>2022-07-29T13:40:27Z</time>
      </trkpt>
      <trkpt lat="46.29225" lon="5.64287">
        <ele>490</ele>
        <time>2022-07-29T13:40:28Z</time>
      </trkpt>
      <trkpt lat="46.29223" lon="5.64284">
        <ele>490.2</ele>
        <time>2022-07-29T13:40:29Z</time>
      </trkpt>
      <trkpt lat="46.29222" lon="5.64281">
        <ele>490.2</ele>
        <time>2022-07-29T13:40:30Z</time>
      </trkpt>
      <trkpt lat="46.29221" lon="5.64278">
        <ele>490.6</ele>
        <time>2022-07-29T13:40:31Z</time>
      </trkpt>
      <trkpt lat="46.29219" lon="5.64274">
        <ele>490.6</ele>
        <time>2022-07-29T13:40:32Z</time>
      </trkpt>
      <trkpt lat="46.29218" lon="5.64272">
        <ele>491</ele>
        <time>2022-07-29T13:40:33Z</time>
      </trkpt>
      <trkpt lat="46.29216" lon="5.64269">
        <ele>491.2</ele>
        <time>2022-07-29T13:40:34Z</time>
      </trkpt>
      <trkpt lat="46.29214" lon="5.64267">
        <ele>491.4</ele>
        <time>2022-07-29T13:40:35Z</time>
      </trkpt>
      <trkpt lat="46.29212" lon="5.64264">
        <ele>491.6</ele>
        <time>2022-07-29T13:40:36Z</time>
      </trkpt>
      <trkpt lat="46.29211" lon="5.64262">
        <ele>491.8</ele>
        <time>2022-07-29T13:40:37Z</time>
      </trkpt>
      <trkpt lat="46.29209" lon="5.64259">
        <ele>492</ele>
        <time>2022-07-29T13:40:38Z</time>
      </trkpt>
      <trkpt lat="46.29207" lon="5.64257">
        <ele>492.2</ele>
        <time>2022-07-29T13:40:39Z</time>
      </trkpt>
      <trkpt lat="46.29206" lon="5.64254">
        <ele>492.4</ele>
        <time>2022-07-29T13:40:40Z</time>
      </trkpt>
      <trkpt lat="46.29205" lon="5.64251">
        <ele>492.4</ele>
        <time>2022-07-29T13:40:41Z</time>
      </trkpt>
      <trkpt lat="46.29203" lon="5.64248">
        <ele>492.8</ele>
        <time>2022-07-29T13:40:42Z</time>
      </trkpt>
      <trkpt lat="46.29202" lon="5.64245">
        <ele>492.8</ele>
        <time>2022-07-29T13:40:43Z</time>
      </trkpt>
      <trkpt lat="46.292" lon="5.64243">
        <ele>493.2</ele>
        <time>2022-07-29T13:40:44Z</time>
      </trkpt>
      <trkpt lat="46.29198" lon="5.6424">
        <ele>493.2</ele>
        <time>2022-07-29T13:40:45Z</time>
      </trkpt>
      <trkpt lat="46.29197" lon="5.64237">
        <ele>493.4</ele>
        <time>2022-07-29T13:40:46Z</time>
      </trkpt>
      <trkpt lat="46.29195" lon="5.64234">
        <ele>493.4</ele>
        <time>2022-07-29T13:40:47Z</time>
      </trkpt>
      <trkpt lat="46.29193" lon="5.64231">
        <ele>493.6</ele>
        <time>2022-07-29T13:40:48Z</time>
      </trkpt>
      <trkpt lat="46.29191" lon="5.64228">
        <ele>493.6</ele>
        <time>2022-07-29T13:40:49Z</time>
      </trkpt>
      <trkpt lat="46.2919" lon="5.64225">
        <ele>493.8</ele>
        <time>2022-07-29T13:40:50Z</time>
      </trkpt>
      <trkpt lat="46.29188" lon="5.64222">
        <ele>493.8</ele>
        <time>2022-07-29T13:40:51Z</time>
      </trkpt>
      <trkpt lat="46.29187" lon="5.6422">
        <ele>494</ele>
        <time>2022-07-29T13:40:52Z</time>
      </trkpt>
      <trkpt lat="46.29185" lon="5.64217">
        <ele>494</ele>
        <time>2022-07-29T13:40:53Z</time>
      </trkpt>
      <trkpt lat="46.29183" lon="5.64214">
        <ele>494.4</ele>
        <time>2022-07-29T13:40:54Z</time>
      </trkpt>
      <trkpt lat="46.29181" lon="5.64211">
        <ele>494.4</ele>
        <time>2022-07-29T13:40:55Z</time>
      </trkpt>
      <trkpt lat="46.29179" lon="5.64208">
        <ele>494.6</ele>
        <time>2022-07-29T13:40:56Z</time>
      </trkpt>
      <trkpt lat="46.29178" lon="5.64205">
        <ele>494.6</ele>
        <time>2022-07-29T13:40:57Z</time>
      </trkpt>
      <trkpt lat="46.29176" lon="5.64202">
        <ele>494.6</ele>
        <time>2022-07-29T13:40:58Z</time>
      </trkpt>
      <trkpt lat="46.29174" lon="5.64199">
        <ele>495</ele>
        <time>2022-07-29T13:40:59Z</time>
      </trkpt>
      <trkpt lat="46.29173" lon="5.64196">
        <ele>495</ele>
        <time>2022-07-29T13:41:00Z</time>
      </trkpt>
      <trkpt lat="46.29171" lon="5.64193">
        <ele>495</ele>
        <time>2022-07-29T13:41:01Z</time>
      </trkpt>
      <trkpt lat="46.29169" lon="5.64189">
        <ele>495.2</ele>
        <time>2022-07-29T13:41:02Z</time>
      </trkpt>
      <trkpt lat="46.29168" lon="5.64186">
        <ele>495.4</ele>
        <time>2022-07-29T13:41:03Z</time>
      </trkpt>
      <trkpt lat="46.29166" lon="5.64183">
        <ele>495.4</ele>
        <time>2022-07-29T13:41:04Z</time>
      </trkpt>
      <trkpt lat="46.29164" lon="5.64179">
        <ele>495.8</ele>
        <time>2022-07-29T13:41:05Z</time>
      </trkpt>
      <trkpt lat="46.29163" lon="5.64175">
        <ele>496</ele>
        <time>2022-07-29T13:41:06Z</time>
      </trkpt>
      <trkpt lat="46.29161" lon="5.64172">
        <ele>496</ele>
        <time>2022-07-29T13:41:07Z</time>
      </trkpt>
      <trkpt lat="46.29159" lon="5.64168">
        <ele>496.4</ele>
        <time>2022-07-29T13:41:08Z</time>
      </trkpt>
      <trkpt lat="46.29157" lon="5.64165">
        <ele>496.4</ele>
        <time>2022-07-29T13:41:09Z</time>
      </trkpt>
      <trkpt lat="46.29155" lon="5.64162">
        <ele>496.8</ele>
        <time>2022-07-29T13:41:10Z</time>
      </trkpt>
      <trkpt lat="46.29153" lon="5.64159">
        <ele>496.8</ele>
        <time>2022-07-29T13:41:11Z</time>
      </trkpt>
      <trkpt lat="46.29152" lon="5.64155">
        <ele>497</ele>
        <time>2022-07-29T13:41:12Z</time>
      </trkpt>
      <trkpt lat="46.2915" lon="5.64151">
        <ele>497</ele>
        <time>2022-07-29T13:41:13Z</time>
      </trkpt>
      <trkpt lat="46.29149" lon="5.64148">
        <ele>497.2</ele>
        <time>2022-07-29T13:41:14Z</time>
      </trkpt>
      <trkpt lat="46.29147" lon="5.64144">
        <ele>497.2</ele>
        <time>2022-07-29T13:41:15Z</time>
      </trkpt>
      <trkpt lat="46.29145" lon="5.6414">
        <ele>497.6</ele>
        <time>2022-07-29T13:41:16Z</time>
      </trkpt>
      <trkpt lat="46.29144" lon="5.64137">
        <ele>497.6</ele>
        <time>2022-07-29T13:41:17Z</time>
      </trkpt>
      <trkpt lat="46.29142" lon="5.64133">
        <ele>497.8</ele>
        <time>2022-07-29T13:41:18Z</time>
      </trkpt>
      <trkpt lat="46.29141" lon="5.64129">
        <ele>497.8</ele>
        <time>2022-07-29T13:41:19Z</time>
      </trkpt>
      <trkpt lat="46.29139" lon="5.64125">
        <ele>498</ele>
        <time>2022-07-29T13:41:20Z</time>
      </trkpt>
      <trkpt lat="46.29138" lon="5.64122">
        <ele>498</ele>
        <time>2022-07-29T13:41:21Z</time>
      </trkpt>
      <trkpt lat="46.29136" lon="5.64118">
        <ele>498.4</ele>
        <time>2022-07-29T13:41:22Z</time>
      </trkpt>
      <trkpt lat="46.29135" lon="5.64114">
        <ele>498.4</ele>
        <time>2022-07-29T13:41:23Z</time>
      </trkpt>
      <trkpt lat="46.29133" lon="5.64111">
        <ele>498.6</ele>
        <time>2022-07-29T13:41:24Z</time>
      </trkpt>
      <trkpt lat="46.29132" lon="5.64107">
        <ele>498.6</ele>
        <time>2022-07-29T13:41:25Z</time>
      </trkpt>
      <trkpt lat="46.2913" lon="5.64103">
        <ele>498.8</ele>
        <time>2022-07-29T13:41:26Z</time>
      </trkpt>
      <trkpt lat="46.29129" lon="5.64099">
        <ele>498.8</ele>
        <time>2022-07-29T13:41:27Z</time>
      </trkpt>
      <trkpt lat="46.29128" lon="5.64095">
        <ele>499.2</ele>
        <time>2022-07-29T13:41:28Z</time>
      </trkpt>
      <trkpt lat="46.29127" lon="5.64091">
        <ele>499.2</ele>
        <time>2022-07-29T13:41:29Z</time>
      </trkpt>
      <trkpt lat="46.29125" lon="5.64087">
        <ele>499.6</ele>
        <time>2022-07-29T13:41:30Z</time>
      </trkpt>
      <trkpt lat="46.29124" lon="5.64083">
        <ele>499.6</ele>
        <time>2022-07-29T13:41:31Z</time>
      </trkpt>
      <trkpt lat="46.29123" lon="5.64079">
        <ele>499.8</ele>
        <time>2022-07-29T13:41:32Z</time>
      </trkpt>
      <trkpt lat="46.29121" lon="5.64076">
        <ele>499.8</ele>
        <time>2022-07-29T13:41:33Z</time>
      </trkpt>
      <trkpt lat="46.2912" lon="5.64071">
        <ele>500.2</ele>
        <time>2022-07-29T13:41:34Z</time>
      </trkpt>
      <trkpt lat="46.29118" lon="5.64067">
        <ele>500.2</ele>
        <time>2022-07-29T13:41:35Z</time>
      </trkpt>
      <trkpt lat="46.29117" lon="5.64063">
        <ele>500.6</ele>
        <time>2022-07-29T13:41:36Z</time>
      </trkpt>
      <trkpt lat="46.29116" lon="5.64059">
        <ele>500.6</ele>
        <time>2022-07-29T13:41:37Z</time>
      </trkpt>
      <trkpt lat="46.29114" lon="5.64055">
        <ele>500.8</ele>
        <time>2022-07-29T13:41:38Z</time>
      </trkpt>
      <trkpt lat="46.29113" lon="5.64051">
        <ele>500.8</ele>
        <time>2022-07-29T13:41:39Z</time>
      </trkpt>
      <trkpt lat="46.29112" lon="5.64047">
        <ele>501.2</ele>
        <time>2022-07-29T13:41:40Z</time>
      </trkpt>
      <trkpt lat="46.29111" lon="5.64043">
        <ele>501.2</ele>
        <time>2022-07-29T13:41:41Z</time>
      </trkpt>
      <trkpt lat="46.29109" lon="5.64039">
        <ele>501.4</ele>
        <time>2022-07-29T13:41:42Z</time>
      </trkpt>
      <trkpt lat="46.29108" lon="5.64035">
        <ele>501.4</ele>
        <time>2022-07-29T13:41:43Z</time>
      </trkpt>
      <trkpt lat="46.29107" lon="5.64031">
        <ele>501.8</ele>
        <time>2022-07-29T13:41:44Z</time>
      </trkpt>
      <trkpt lat="46.29106" lon="5.64027">
        <ele>501.8</ele>
        <time>2022-07-29T13:41:45Z</time>
      </trkpt>
      <trkpt lat="46.29105" lon="5.64023">
        <ele>502</ele>
        <time>2022-07-29T13:41:46Z</time>
      </trkpt>
      <trkpt lat="46.29104" lon="5.64019">
        <ele>502.2</ele>
        <time>2022-07-29T13:41:47Z</time>
      </trkpt>
      <trkpt lat="46.29103" lon="5.64014">
        <ele>502.6</ele>
        <time>2022-07-29T13:41:48Z</time>
      </trkpt>
      <trkpt lat="46.29102" lon="5.64011">
        <ele>502.8</ele>
        <time>2022-07-29T13:41:49Z</time>
      </trkpt>
      <trkpt lat="46.29101" lon="5.64007">
        <ele>502.8</ele>
        <time>2022-07-29T13:41:50Z</time>
      </trkpt>
      <trkpt lat="46.291" lon="5.64003">
        <ele>503</ele>
        <time>2022-07-29T13:41:51Z</time>
      </trkpt>
      <trkpt lat="46.29098" lon="5.64">
        <ele>503.2</ele>
        <time>2022-07-29T13:41:52Z</time>
      </trkpt>
      <trkpt lat="46.29097" lon="5.63996">
        <ele>503.2</ele>
        <time>2022-07-29T13:41:53Z</time>
      </trkpt>
      <trkpt lat="46.29096" lon="5.63993">
        <ele>503.6</ele>
        <time>2022-07-29T13:41:54Z</time>
      </trkpt>
      <trkpt lat="46.29095" lon="5.6399">
        <ele>504</ele>
        <time>2022-07-29T13:41:55Z</time>
      </trkpt>
      <trkpt lat="46.29094" lon="5.63986">
        <ele>504</ele>
        <time>2022-07-29T13:41:56Z</time>
      </trkpt>
      <trkpt lat="46.29093" lon="5.63983">
        <ele>504.2</ele>
        <time>2022-07-29T13:41:57Z</time>
      </trkpt>
      <trkpt lat="46.29091" lon="5.63979">
        <ele>504.2</ele>
        <time>2022-07-29T13:41:58Z</time>
      </trkpt>
      <trkpt lat="46.2909" lon="5.63976">
        <ele>504.6</ele>
        <time>2022-07-29T13:41:59Z</time>
      </trkpt>
      <trkpt lat="46.29089" lon="5.63972">
        <ele>504.6</ele>
        <time>2022-07-29T13:42:00Z</time>
      </trkpt>
      <trkpt lat="46.29087" lon="5.63969">
        <ele>504.8</ele>
        <time>2022-07-29T13:42:01Z</time>
      </trkpt>
      <trkpt lat="46.29086" lon="5.63965">
        <ele>504.8</ele>
        <time>2022-07-29T13:42:02Z</time>
      </trkpt>
      <trkpt lat="46.29085" lon="5.63962">
        <ele>505.2</ele>
        <time>2022-07-29T13:42:03Z</time>
      </trkpt>
      <trkpt lat="46.29084" lon="5.63958">
        <ele>505.2</ele>
        <time>2022-07-29T13:42:04Z</time>
      </trkpt>
      <trkpt lat="46.29082" lon="5.63954">
        <ele>505.6</ele>
        <time>2022-07-29T13:42:05Z</time>
      </trkpt>
      <trkpt lat="46.29081" lon="5.63951">
        <ele>505.6</ele>
        <time>2022-07-29T13:42:06Z</time>
      </trkpt>
      <trkpt lat="46.2908" lon="5.63947">
        <ele>506</ele>
        <time>2022-07-29T13:42:07Z</time>
      </trkpt>
      <trkpt lat="46.29079" lon="5.63943">
        <ele>506</ele>
        <time>2022-07-29T13:42:08Z</time>
      </trkpt>
      <trkpt lat="46.29078" lon="5.6394">
        <ele>506.2</ele>
        <time>2022-07-29T13:42:09Z</time>
      </trkpt>
      <trkpt lat="46.29077" lon="5.63936">
        <ele>506.2</ele>
        <time>2022-07-29T13:42:10Z</time>
      </trkpt>
      <trkpt lat="46.29075" lon="5.63932">
        <ele>506.6</ele>
        <time>2022-07-29T13:42:11Z</time>
      </trkpt>
      <trkpt lat="46.29074" lon="5.63929">
        <ele>506.6</ele>
        <time>2022-07-29T13:42:12Z</time>
      </trkpt>
      <trkpt lat="46.29073" lon="5.63925">
        <ele>506.8</ele>
        <time>2022-07-29T13:42:13Z</time>
      </trkpt>
      <trkpt lat="46.29072" lon="5.63922">
        <ele>506.8</ele>
        <time>2022-07-29T13:42:14Z</time>
      </trkpt>
      <trkpt lat="46.2907" lon="5.63919">
        <ele>507.2</ele>
        <time>2022-07-29T13:42:15Z</time>
      </trkpt>
      <trkpt lat="46.29068" lon="5.63917">
        <ele>507.2</ele>
        <time>2022-07-29T13:42:16Z</time>
      </trkpt>
      <trkpt lat="46.29066" lon="5.63915">
        <ele>507.6</ele>
        <time>2022-07-29T13:42:17Z</time>
      </trkpt>
      <trkpt lat="46.29064" lon="5.63914">
        <ele>507.8</ele>
        <time>2022-07-29T13:42:18Z</time>
      </trkpt>
      <trkpt lat="46.29061" lon="5.63913">
        <ele>508</ele>
        <time>2022-07-29T13:42:19Z</time>
      </trkpt>
      <trkpt lat="46.29059" lon="5.63912">
        <ele>508</ele>
        <time>2022-07-29T13:42:20Z</time>
      </trkpt>
      <trkpt lat="46.29056" lon="5.63912">
        <ele>508.2</ele>
        <time>2022-07-29T13:42:21Z</time>
      </trkpt>
      <trkpt lat="46.29053" lon="5.63912">
        <ele>508.2</ele>
        <time>2022-07-29T13:42:22Z</time>
      </trkpt>
      <trkpt lat="46.2905" lon="5.63913">
        <ele>508.2</ele>
        <time>2022-07-29T13:42:23Z</time>
      </trkpt>
      <trkpt lat="46.29046" lon="5.63914">
        <ele>508.4</ele>
        <time>2022-07-29T13:42:24Z</time>
      </trkpt>
      <trkpt lat="46.29043" lon="5.63915">
        <ele>508.4</ele>
        <time>2022-07-29T13:42:25Z</time>
      </trkpt>
      <trkpt lat="46.2904" lon="5.63917">
        <ele>508.4</ele>
        <time>2022-07-29T13:42:26Z</time>
      </trkpt>
      <trkpt lat="46.29037" lon="5.63919">
        <ele>508.4</ele>
        <time>2022-07-29T13:42:27Z</time>
      </trkpt>
      <trkpt lat="46.29033" lon="5.6392">
        <ele>508.4</ele>
        <time>2022-07-29T13:42:28Z</time>
      </trkpt>
      <trkpt lat="46.2903" lon="5.63922">
        <ele>508.6</ele>
        <time>2022-07-29T13:42:29Z</time>
      </trkpt>
      <trkpt lat="46.29026" lon="5.63924">
        <ele>508.6</ele>
        <time>2022-07-29T13:42:30Z</time>
      </trkpt>
      <trkpt lat="46.29023" lon="5.63925">
        <ele>508.6</ele>
        <time>2022-07-29T13:42:31Z</time>
      </trkpt>
      <trkpt lat="46.29019" lon="5.63926">
        <ele>508.6</ele>
        <time>2022-07-29T13:42:32Z</time>
      </trkpt>
      <trkpt lat="46.29015" lon="5.63927">
        <ele>509</ele>
        <time>2022-07-29T13:42:33Z</time>
      </trkpt>
      <trkpt lat="46.29012" lon="5.63928">
        <ele>509</ele>
        <time>2022-07-29T13:42:34Z</time>
      </trkpt>
      <trkpt lat="46.29008" lon="5.63928">
        <ele>509.2</ele>
        <time>2022-07-29T13:42:35Z</time>
      </trkpt>
      <trkpt lat="46.29005" lon="5.63929">
        <ele>509.4</ele>
        <time>2022-07-29T13:42:36Z</time>
      </trkpt>
      <trkpt lat="46.29002" lon="5.63929">
        <ele>509.4</ele>
        <time>2022-07-29T13:42:37Z</time>
      </trkpt>
      <trkpt lat="46.28999" lon="5.6393">
        <ele>509.8</ele>
        <time>2022-07-29T13:42:38Z</time>
      </trkpt>
      <trkpt lat="46.28996" lon="5.6393">
        <ele>510</ele>
        <time>2022-07-29T13:42:39Z</time>
      </trkpt>
      <trkpt lat="46.28993" lon="5.63931">
        <ele>510</ele>
        <time>2022-07-29T13:42:40Z</time>
      </trkpt>
      <trkpt lat="46.2899" lon="5.63931">
        <ele>510.4</ele>
        <time>2022-07-29T13:42:41Z</time>
      </trkpt>
      <trkpt lat="46.28988" lon="5.63932">
        <ele>510.6</ele>
        <time>2022-07-29T13:42:42Z</time>
      </trkpt>
      <trkpt lat="46.28985" lon="5.63932">
        <ele>510.8</ele>
        <time>2022-07-29T13:42:43Z</time>
      </trkpt>
      <trkpt lat="46.28983" lon="5.63932">
        <ele>511.2</ele>
        <time>2022-07-29T13:42:44Z</time>
      </trkpt>
      <trkpt lat="46.28981" lon="5.63932">
        <ele>511.2</ele>
        <time>2022-07-29T13:42:45Z</time>
      </trkpt>
      <trkpt lat="46.28978" lon="5.63932">
        <ele>511.6</ele>
        <time>2022-07-29T13:42:46Z</time>
      </trkpt>
      <trkpt lat="46.28976" lon="5.63932">
        <ele>511.8</ele>
        <time>2022-07-29T13:42:47Z</time>
      </trkpt>
      <trkpt lat="46.28973" lon="5.63933">
        <ele>512.2</ele>
        <time>2022-07-29T13:42:48Z</time>
      </trkpt>
      <trkpt lat="46.28971" lon="5.63933">
        <ele>512.4</ele>
        <time>2022-07-29T13:42:49Z</time>
      </trkpt>
      <trkpt lat="46.28968" lon="5.63933">
        <ele>512.6</ele>
        <time>2022-07-29T13:42:50Z</time>
      </trkpt>
      <trkpt lat="46.28966" lon="5.63934">
        <ele>512.8</ele>
        <time>2022-07-29T13:42:51Z</time>
      </trkpt>
      <trkpt lat="46.28963" lon="5.63934">
        <ele>513.2</ele>
        <time>2022-07-29T13:42:52Z</time>
      </trkpt>
      <trkpt lat="46.28961" lon="5.63935">
        <ele>513.4</ele>
        <time>2022-07-29T13:42:53Z</time>
      </trkpt>
      <trkpt lat="46.28959" lon="5.63936">
        <ele>513.6</ele>
        <time>2022-07-29T13:42:54Z</time>
      </trkpt>
      <trkpt lat="46.28957" lon="5.63936">
        <ele>513.8</ele>
        <time>2022-07-29T13:42:55Z</time>
      </trkpt>
      <trkpt lat="46.28954" lon="5.63937">
        <ele>514.2</ele>
        <time>2022-07-29T13:42:56Z</time>
      </trkpt>
      <trkpt lat="46.28952" lon="5.63937">
        <ele>514.4</ele>
        <time>2022-07-29T13:42:57Z</time>
      </trkpt>
      <trkpt lat="46.2895" lon="5.63937">
        <ele>514.6</ele>
        <time>2022-07-29T13:42:58Z</time>
      </trkpt>
      <trkpt lat="46.28948" lon="5.63937">
        <ele>514.8</ele>
        <time>2022-07-29T13:42:59Z</time>
      </trkpt>
      <trkpt lat="46.28946" lon="5.63938">
        <ele>515.2</ele>
        <time>2022-07-29T13:43:00Z</time>
      </trkpt>
      <trkpt lat="46.28944" lon="5.63939">
        <ele>515.4</ele>
        <time>2022-07-29T13:43:01Z</time>
      </trkpt>
      <trkpt lat="46.28942" lon="5.63939">
        <ele>515.6</ele>
        <time>2022-07-29T13:43:02Z</time>
      </trkpt>
      <trkpt lat="46.28941" lon="5.6394">
        <ele>516</ele>
        <time>2022-07-29T13:43:03Z</time>
      </trkpt>
      <trkpt lat="46.28939" lon="5.63941">
        <ele>516.2</ele>
        <time>2022-07-29T13:43:04Z</time>
      </trkpt>
      <trkpt lat="46.28937" lon="5.63942">
        <ele>516.4</ele>
        <time>2022-07-29T13:43:05Z</time>
      </trkpt>
      <trkpt lat="46.28935" lon="5.63943">
        <ele>516.6</ele>
        <time>2022-07-29T13:43:06Z</time>
      </trkpt>
      <trkpt lat="46.28933" lon="5.63944">
        <ele>516.6</ele>
        <time>2022-07-29T13:43:07Z</time>
      </trkpt>
      <trkpt lat="46.28931" lon="5.63945">
        <ele>517</ele>
        <time>2022-07-29T13:43:08Z</time>
      </trkpt>
      <trkpt lat="46.28929" lon="5.63946">
        <ele>517.2</ele>
        <time>2022-07-29T13:43:09Z</time>
      </trkpt>
      <trkpt lat="46.28928" lon="5.63947">
        <ele>517.6</ele>
        <time>2022-07-29T13:43:10Z</time>
      </trkpt>
      <trkpt lat="46.28926" lon="5.63949">
        <ele>517.8</ele>
        <time>2022-07-29T13:43:11Z</time>
      </trkpt>
      <trkpt lat="46.28924" lon="5.6395">
        <ele>518</ele>
        <time>2022-07-29T13:43:12Z</time>
      </trkpt>
      <trkpt lat="46.28922" lon="5.63951">
        <ele>518.2</ele>
        <time>2022-07-29T13:43:13Z</time>
      </trkpt>
      <trkpt lat="46.2892" lon="5.63953">
        <ele>518.6</ele>
        <time>2022-07-29T13:43:14Z</time>
      </trkpt>
      <trkpt lat="46.28919" lon="5.63955">
        <ele>518.8</ele>
        <time>2022-07-29T13:43:15Z</time>
      </trkpt>
      <trkpt lat="46.28917" lon="5.63957">
        <ele>519.2</ele>
        <time>2022-07-29T13:43:16Z</time>
      </trkpt>
      <trkpt lat="46.28915" lon="5.63959">
        <ele>519.4</ele>
        <time>2022-07-29T13:43:17Z</time>
      </trkpt>
      <trkpt lat="46.28914" lon="5.63961">
        <ele>519.8</ele>
        <time>2022-07-29T13:43:18Z</time>
      </trkpt>
      <trkpt lat="46.28912" lon="5.63962">
        <ele>520</ele>
        <time>2022-07-29T13:43:19Z</time>
      </trkpt>
      <trkpt lat="46.2891" lon="5.63964">
        <ele>520.4</ele>
        <time>2022-07-29T13:43:20Z</time>
      </trkpt>
      <trkpt lat="46.28909" lon="5.63966">
        <ele>520.6</ele>
        <time>2022-07-29T13:43:21Z</time>
      </trkpt>
      <trkpt lat="46.28907" lon="5.63968">
        <ele>520.8</ele>
        <time>2022-07-29T13:43:22Z</time>
      </trkpt>
      <trkpt lat="46.28906" lon="5.63971">
        <ele>521</ele>
        <time>2022-07-29T13:43:23Z</time>
      </trkpt>
      <trkpt lat="46.28905" lon="5.63973">
        <ele>521.4</ele>
        <time>2022-07-29T13:43:24Z</time>
      </trkpt>
      <trkpt lat="46.28904" lon="5.63976">
        <ele>521.6</ele>
        <time>2022-07-29T13:43:25Z</time>
      </trkpt>
      <trkpt lat="46.28903" lon="5.63979">
        <ele>521.6</ele>
        <time>2022-07-29T13:43:26Z</time>
      </trkpt>
      <trkpt lat="46.28902" lon="5.63981">
        <ele>522</ele>
        <time>2022-07-29T13:43:27Z</time>
      </trkpt>
      <trkpt lat="46.28901" lon="5.63984">
        <ele>522.4</ele>
        <time>2022-07-29T13:43:28Z</time>
      </trkpt>
      <trkpt lat="46.289" lon="5.63986">
        <ele>522.6</ele>
        <time>2022-07-29T13:43:29Z</time>
      </trkpt>
      <trkpt lat="46.28899" lon="5.63988">
        <ele>523</ele>
        <time>2022-07-29T13:43:30Z</time>
      </trkpt>
      <trkpt lat="46.28898" lon="5.6399">
        <ele>523.2</ele>
        <time>2022-07-29T13:43:31Z</time>
      </trkpt>
      <trkpt lat="46.28896" lon="5.63992">
        <ele>523.6</ele>
        <time>2022-07-29T13:43:32Z</time>
      </trkpt>
      <trkpt lat="46.28895" lon="5.63993">
        <ele>523.8</ele>
        <time>2022-07-29T13:43:33Z</time>
      </trkpt>
      <trkpt lat="46.28893" lon="5.63994">
        <ele>524</ele>
        <time>2022-07-29T13:43:34Z</time>
      </trkpt>
      <trkpt lat="46.28892" lon="5.63995">
        <ele>524.2</ele>
        <time>2022-07-29T13:43:35Z</time>
      </trkpt>
      <trkpt lat="46.2889" lon="5.63997">
        <ele>524.6</ele>
        <time>2022-07-29T13:43:36Z</time>
      </trkpt>
      <trkpt lat="46.28888" lon="5.63998">
        <ele>524.8</ele>
        <time>2022-07-29T13:43:37Z</time>
      </trkpt>
      <trkpt lat="46.28887" lon="5.64">
        <ele>525</ele>
        <time>2022-07-29T13:43:38Z</time>
      </trkpt>
      <trkpt lat="46.28885" lon="5.64001">
        <ele>525.2</ele>
        <time>2022-07-29T13:43:39Z</time>
      </trkpt>
      <trkpt lat="46.28884" lon="5.64002">
        <ele>525.2</ele>
        <time>2022-07-29T13:43:40Z</time>
      </trkpt>
      <trkpt lat="46.28882" lon="5.64003">
        <ele>525.6</ele>
        <time>2022-07-29T13:43:41Z</time>
      </trkpt>
      <trkpt lat="46.28881" lon="5.64004">
        <ele>525.6</ele>
        <time>2022-07-29T13:43:42Z</time>
      </trkpt>
      <trkpt lat="46.28879" lon="5.64004">
        <ele>526</ele>
        <time>2022-07-29T13:43:43Z</time>
      </trkpt>
      <trkpt lat="46.28878" lon="5.64005">
        <ele>526.2</ele>
        <time>2022-07-29T13:43:44Z</time>
      </trkpt>
      <trkpt lat="46.28876" lon="5.64004">
        <ele>526.2</ele>
        <time>2022-07-29T13:43:45Z</time>
      </trkpt>
      <trkpt lat="46.28874" lon="5.64004">
        <ele>526.6</ele>
        <time>2022-07-29T13:43:46Z</time>
      </trkpt>
      <trkpt lat="46.28873" lon="5.64003">
        <ele>526.6</ele>
        <time>2022-07-29T13:43:47Z</time>
      </trkpt>
      <trkpt lat="46.28871" lon="5.64002">
        <ele>526.8</ele>
        <time>2022-07-29T13:43:48Z</time>
      </trkpt>
      <trkpt lat="46.2887" lon="5.64002">
        <ele>526.8</ele>
        <time>2022-07-29T13:43:49Z</time>
      </trkpt>
      <trkpt lat="46.28868" lon="5.64002">
        <ele>527.2</ele>
        <time>2022-07-29T13:43:50Z</time>
      </trkpt>
      <trkpt lat="46.28866" lon="5.64002">
        <ele>527.2</ele>
        <time>2022-07-29T13:43:51Z</time>
      </trkpt>
      <trkpt lat="46.28863" lon="5.64002">
        <ele>527.6</ele>
        <time>2022-07-29T13:43:52Z</time>
      </trkpt>
      <trkpt lat="46.28861" lon="5.64002">
        <ele>527.8</ele>
        <time>2022-07-29T13:43:53Z</time>
      </trkpt>
      <trkpt lat="46.28859" lon="5.64002">
        <ele>527.8</ele>
        <time>2022-07-29T13:43:54Z</time>
      </trkpt>
      <trkpt lat="46.28858" lon="5.64002">
        <ele>528.2</ele>
        <time>2022-07-29T13:43:55Z</time>
      </trkpt>
      <trkpt lat="46.28856" lon="5.64001">
        <ele>528.2</ele>
        <time>2022-07-29T13:43:56Z</time>
      </trkpt>
      <trkpt lat="46.28854" lon="5.64">
        <ele>528.4</ele>
        <time>2022-07-29T13:43:57Z</time>
      </trkpt>
      <trkpt lat="46.28853" lon="5.64">
        <ele>528.4</ele>
        <time>2022-07-29T13:43:58Z</time>
      </trkpt>
      <trkpt lat="46.28851" lon="5.63999">
        <ele>528.8</ele>
        <time>2022-07-29T13:43:59Z</time>
      </trkpt>
      <trkpt lat="46.28849" lon="5.63998">
        <ele>528.8</ele>
        <time>2022-07-29T13:44:00Z</time>
      </trkpt>
      <trkpt lat="46.28847" lon="5.63997">
        <ele>529</ele>
        <time>2022-07-29T13:44:01Z</time>
      </trkpt>
      <trkpt lat="46.28846" lon="5.63996">
        <ele>529</ele>
        <time>2022-07-29T13:44:02Z</time>
      </trkpt>
      <trkpt lat="46.28844" lon="5.63995">
        <ele>529.4</ele>
        <time>2022-07-29T13:44:03Z</time>
      </trkpt>
      <trkpt lat="46.28842" lon="5.63995">
        <ele>529.4</ele>
        <time>2022-07-29T13:44:04Z</time>
      </trkpt>
      <trkpt lat="46.28841" lon="5.63995">
        <ele>529.8</ele>
        <time>2022-07-29T13:44:05Z</time>
      </trkpt>
      <trkpt lat="46.28839" lon="5.63995">
        <ele>530</ele>
        <time>2022-07-29T13:44:06Z</time>
      </trkpt>
      <trkpt lat="46.28837" lon="5.63995">
        <ele>530</ele>
        <time>2022-07-29T13:44:07Z</time>
      </trkpt>
      <trkpt lat="46.28835" lon="5.63995">
        <ele>530.2</ele>
        <time>2022-07-29T13:44:08Z</time>
      </trkpt>
      <trkpt lat="46.28833" lon="5.63994">
        <ele>530.4</ele>
        <time>2022-07-29T13:44:09Z</time>
      </trkpt>
      <trkpt lat="46.28832" lon="5.63993">
        <ele>530.8</ele>
        <time>2022-07-29T13:44:10Z</time>
      </trkpt>
      <trkpt lat="46.2883" lon="5.63991">
        <ele>530.8</ele>
        <time>2022-07-29T13:44:11Z</time>
      </trkpt>
      <trkpt lat="46.28828" lon="5.6399">
        <ele>531</ele>
        <time>2022-07-29T13:44:12Z</time>
      </trkpt>
      <trkpt lat="46.28826" lon="5.63989">
        <ele>531</ele>
        <time>2022-07-29T13:44:13Z</time>
      </trkpt>
      <trkpt lat="46.28824" lon="5.63988">
        <ele>531.4</ele>
        <time>2022-07-29T13:44:14Z</time>
      </trkpt>
      <trkpt lat="46.28822" lon="5.63987">
        <ele>531.4</ele>
        <time>2022-07-29T13:44:15Z</time>
      </trkpt>
      <trkpt lat="46.2882" lon="5.63986">
        <ele>531.8</ele>
        <time>2022-07-29T13:44:16Z</time>
      </trkpt>
      <trkpt lat="46.28819" lon="5.63985">
        <ele>532</ele>
        <time>2022-07-29T13:44:17Z</time>
      </trkpt>
      <trkpt lat="46.28817" lon="5.63985">
        <ele>532</ele>
        <time>2022-07-29T13:44:18Z</time>
      </trkpt>
      <trkpt lat="46.28815" lon="5.63985">
        <ele>532.2</ele>
        <time>2022-07-29T13:44:19Z</time>
      </trkpt>
      <trkpt lat="46.28813" lon="5.63984">
        <ele>532.2</ele>
        <time>2022-07-29T13:44:20Z</time>
      </trkpt>
      <trkpt lat="46.28811" lon="5.63984">
        <ele>532.4</ele>
        <time>2022-07-29T13:44:21Z</time>
      </trkpt>
      <trkpt lat="46.28809" lon="5.63984">
        <ele>532.4</ele>
        <time>2022-07-29T13:44:22Z</time>
      </trkpt>
      <trkpt lat="46.28807" lon="5.63983">
        <ele>532.8</ele>
        <time>2022-07-29T13:44:23Z</time>
      </trkpt>
      <trkpt lat="46.28804" lon="5.63982">
        <ele>533</ele>
        <time>2022-07-29T13:44:24Z</time>
      </trkpt>
      <trkpt lat="46.28802" lon="5.63982">
        <ele>533.2</ele>
        <time>2022-07-29T13:44:25Z</time>
      </trkpt>
      <trkpt lat="46.288" lon="5.63981">
        <ele>533.2</ele>
        <time>2022-07-29T13:44:26Z</time>
      </trkpt>
      <trkpt lat="46.28798" lon="5.63981">
        <ele>533.6</ele>
        <time>2022-07-29T13:44:27Z</time>
      </trkpt>
      <trkpt lat="46.28796" lon="5.6398">
        <ele>533.8</ele>
        <time>2022-07-29T13:44:28Z</time>
      </trkpt>
      <trkpt lat="46.28794" lon="5.6398">
        <ele>534.2</ele>
        <time>2022-07-29T13:44:29Z</time>
      </trkpt>
      <trkpt lat="46.28791" lon="5.63979">
        <ele>534.4</ele>
        <time>2022-07-29T13:44:30Z</time>
      </trkpt>
      <trkpt lat="46.28789" lon="5.63978">
        <ele>534.6</ele>
        <time>2022-07-29T13:44:31Z</time>
      </trkpt>
      <trkpt lat="46.28787" lon="5.63978">
        <ele>534.6</ele>
        <time>2022-07-29T13:44:32Z</time>
      </trkpt>
      <trkpt lat="46.28785" lon="5.63977">
        <ele>535</ele>
        <time>2022-07-29T13:44:33Z</time>
      </trkpt>
      <trkpt lat="46.28783" lon="5.63977">
        <ele>535.2</ele>
        <time>2022-07-29T13:44:34Z</time>
      </trkpt>
      <trkpt lat="46.28781" lon="5.63977">
        <ele>535.4</ele>
        <time>2022-07-29T13:44:35Z</time>
      </trkpt>
      <trkpt lat="46.28779" lon="5.63977">
        <ele>535.8</ele>
        <time>2022-07-29T13:44:36Z</time>
      </trkpt>
      <trkpt lat="46.28778" lon="5.63976">
        <ele>536</ele>
        <time>2022-07-29T13:44:37Z</time>
      </trkpt>
      <trkpt lat="46.28776" lon="5.63975">
        <ele>536.2</ele>
        <time>2022-07-29T13:44:38Z</time>
      </trkpt>
      <trkpt lat="46.28773" lon="5.63975">
        <ele>536.4</ele>
        <time>2022-07-29T13:44:39Z</time>
      </trkpt>
      <trkpt lat="46.28771" lon="5.63975">
        <ele>536.8</ele>
        <time>2022-07-29T13:44:40Z</time>
      </trkpt>
      <trkpt lat="46.28769" lon="5.63974">
        <ele>537</ele>
        <time>2022-07-29T13:44:41Z</time>
      </trkpt>
      <trkpt lat="46.28767" lon="5.63974">
        <ele>537.2</ele>
        <time>2022-07-29T13:44:42Z</time>
      </trkpt>
      <trkpt lat="46.28765" lon="5.63974">
        <ele>537.6</ele>
        <time>2022-07-29T13:44:43Z</time>
      </trkpt>
      <trkpt lat="46.28763" lon="5.63974">
        <ele>537.8</ele>
        <time>2022-07-29T13:44:44Z</time>
      </trkpt>
      <trkpt lat="46.28762" lon="5.63974">
        <ele>538</ele>
        <time>2022-07-29T13:44:45Z</time>
      </trkpt>
      <trkpt lat="46.2876" lon="5.63975">
        <ele>538.4</ele>
        <time>2022-07-29T13:44:46Z</time>
      </trkpt>
      <trkpt lat="46.28759" lon="5.63976">
        <ele>538.6</ele>
        <time>2022-07-29T13:44:47Z</time>
      </trkpt>
      <trkpt lat="46.28758" lon="5.63977">
        <ele>538.6</ele>
        <time>2022-07-29T13:44:48Z</time>
      </trkpt>
      <trkpt lat="46.28758" lon="5.63979">
        <ele>538.8</ele>
        <time>2022-07-29T13:44:49Z</time>
      </trkpt>
      <trkpt lat="46.28758" lon="5.63982">
        <ele>539.2</ele>
        <time>2022-07-29T13:44:50Z</time>
      </trkpt>
      <trkpt lat="46.28758" lon="5.63984">
        <ele>539.2</ele>
        <time>2022-07-29T13:44:51Z</time>
      </trkpt>
      <trkpt lat="46.28759" lon="5.63987">
        <ele>539.4</ele>
        <time>2022-07-29T13:44:52Z</time>
      </trkpt>
      <trkpt lat="46.28761" lon="5.6399">
        <ele>539.4</ele>
        <time>2022-07-29T13:44:53Z</time>
      </trkpt>
      <trkpt lat="46.28762" lon="5.63994">
        <ele>539.4</ele>
        <time>2022-07-29T13:44:54Z</time>
      </trkpt>
      <trkpt lat="46.28764" lon="5.63998">
        <ele>539.4</ele>
        <time>2022-07-29T13:44:55Z</time>
      </trkpt>
      <trkpt lat="46.28766" lon="5.64002">
        <ele>539.6</ele>
        <time>2022-07-29T13:44:56Z</time>
      </trkpt>
      <trkpt lat="46.28767" lon="5.64007">
        <ele>539.6</ele>
        <time>2022-07-29T13:44:57Z</time>
      </trkpt>
      <trkpt lat="46.28768" lon="5.64012">
        <ele>539.6</ele>
        <time>2022-07-29T13:44:58Z</time>
      </trkpt>
      <trkpt lat="46.28769" lon="5.64018">
        <ele>539.6</ele>
        <time>2022-07-29T13:44:59Z</time>
      </trkpt>
      <trkpt lat="46.2877" lon="5.64025">
        <ele>539.6</ele>
        <time>2022-07-29T13:45:00Z</time>
      </trkpt>
      <trkpt lat="46.2877" lon="5.64031">
        <ele>539.6</ele>
        <time>2022-07-29T13:45:01Z</time>
      </trkpt>
      <trkpt lat="46.28771" lon="5.64036">
        <ele>539.6</ele>
        <time>2022-07-29T13:45:02Z</time>
      </trkpt>
      <trkpt lat="46.28773" lon="5.64041">
        <ele>539.6</ele>
        <time>2022-07-29T13:45:03Z</time>
      </trkpt>
      <trkpt lat="46.28774" lon="5.64046">
        <ele>539.6</ele>
        <time>2022-07-29T13:45:04Z</time>
      </trkpt>
      <trkpt lat="46.28775" lon="5.64051">
        <ele>539.6</ele>
        <time>2022-07-29T13:45:05Z</time>
      </trkpt>
      <trkpt lat="46.28775" lon="5.64056">
        <ele>539.6</ele>
        <time>2022-07-29T13:45:06Z</time>
      </trkpt>
      <trkpt lat="46.28776" lon="5.64061">
        <ele>539.8</ele>
        <time>2022-07-29T13:45:07Z</time>
      </trkpt>
      <trkpt lat="46.28777" lon="5.64066">
        <ele>539.8</ele>
        <time>2022-07-29T13:45:08Z</time>
      </trkpt>
      <trkpt lat="46.28778" lon="5.64071">
        <ele>539.8</ele>
        <time>2022-07-29T13:45:09Z</time>
      </trkpt>
      <trkpt lat="46.28779" lon="5.64075">
        <ele>540.2</ele>
        <time>2022-07-29T13:45:10Z</time>
      </trkpt>
      <trkpt lat="46.28781" lon="5.6408">
        <ele>540.2</ele>
        <time>2022-07-29T13:45:11Z</time>
      </trkpt>
      <trkpt lat="46.28782" lon="5.64085">
        <ele>540.2</ele>
        <time>2022-07-29T13:45:12Z</time>
      </trkpt>
      <trkpt lat="46.28783" lon="5.6409">
        <ele>540.4</ele>
        <time>2022-07-29T13:45:13Z</time>
      </trkpt>
      <trkpt lat="46.28784" lon="5.64095">
        <ele>540.4</ele>
        <time>2022-07-29T13:45:14Z</time>
      </trkpt>
      <trkpt lat="46.28785" lon="5.641">
        <ele>540.4</ele>
        <time>2022-07-29T13:45:15Z</time>
      </trkpt>
      <trkpt lat="46.28786" lon="5.64105">
        <ele>540.8</ele>
        <time>2022-07-29T13:45:16Z</time>
      </trkpt>
      <trkpt lat="46.28786" lon="5.6411">
        <ele>540.8</ele>
        <time>2022-07-29T13:45:17Z</time>
      </trkpt>
      <trkpt lat="46.28787" lon="5.64116">
        <ele>540.8</ele>
        <time>2022-07-29T13:45:18Z</time>
      </trkpt>
      <trkpt lat="46.28788" lon="5.64121">
        <ele>540.8</ele>
        <time>2022-07-29T13:45:19Z</time>
      </trkpt>
      <trkpt lat="46.28789" lon="5.64126">
        <ele>540.8</ele>
        <time>2022-07-29T13:45:20Z</time>
      </trkpt>
      <trkpt lat="46.2879" lon="5.64131">
        <ele>540.8</ele>
        <time>2022-07-29T13:45:21Z</time>
      </trkpt>
      <trkpt lat="46.28791" lon="5.64136">
        <ele>541</ele>
        <time>2022-07-29T13:45:22Z</time>
      </trkpt>
      <trkpt lat="46.28792" lon="5.64141">
        <ele>541</ele>
        <time>2022-07-29T13:45:23Z</time>
      </trkpt>
      <trkpt lat="46.28793" lon="5.64146">
        <ele>541.2</ele>
        <time>2022-07-29T13:45:24Z</time>
      </trkpt>
      <trkpt lat="46.28794" lon="5.64151">
        <ele>541.2</ele>
        <time>2022-07-29T13:45:25Z</time>
      </trkpt>
      <trkpt lat="46.28795" lon="5.64156">
        <ele>541.6</ele>
        <time>2022-07-29T13:45:26Z</time>
      </trkpt>
      <trkpt lat="46.28796" lon="5.6416">
        <ele>541.6</ele>
        <time>2022-07-29T13:45:27Z</time>
      </trkpt>
      <trkpt lat="46.28797" lon="5.64165">
        <ele>541.6</ele>
        <time>2022-07-29T13:45:28Z</time>
      </trkpt>
      <trkpt lat="46.28799" lon="5.64169">
        <ele>541.8</ele>
        <time>2022-07-29T13:45:29Z</time>
      </trkpt>
      <trkpt lat="46.28799" lon="5.64174">
        <ele>541.8</ele>
        <time>2022-07-29T13:45:30Z</time>
      </trkpt>
      <trkpt lat="46.288" lon="5.64178">
        <ele>542</ele>
        <time>2022-07-29T13:45:31Z</time>
      </trkpt>
      <trkpt lat="46.288" lon="5.64183">
        <ele>542</ele>
        <time>2022-07-29T13:45:32Z</time>
      </trkpt>
      <trkpt lat="46.28801" lon="5.64188">
        <ele>542.4</ele>
        <time>2022-07-29T13:45:33Z</time>
      </trkpt>
      <trkpt lat="46.28802" lon="5.64193">
        <ele>542.4</ele>
        <time>2022-07-29T13:45:34Z</time>
      </trkpt>
      <trkpt lat="46.28802" lon="5.64198">
        <ele>542.6</ele>
        <time>2022-07-29T13:45:35Z</time>
      </trkpt>
      <trkpt lat="46.28802" lon="5.64203">
        <ele>542.6</ele>
        <time>2022-07-29T13:45:36Z</time>
      </trkpt>
      <trkpt lat="46.28802" lon="5.64208">
        <ele>542.8</ele>
        <time>2022-07-29T13:45:37Z</time>
      </trkpt>
      <trkpt lat="46.28802" lon="5.64212">
        <ele>542.8</ele>
        <time>2022-07-29T13:45:38Z</time>
      </trkpt>
      <trkpt lat="46.28803" lon="5.64217">
        <ele>543</ele>
        <time>2022-07-29T13:45:39Z</time>
      </trkpt>
      <trkpt lat="46.28803" lon="5.64221">
        <ele>543</ele>
        <time>2022-07-29T13:45:40Z</time>
      </trkpt>
      <trkpt lat="46.28803" lon="5.64225">
        <ele>543.4</ele>
        <time>2022-07-29T13:45:41Z</time>
      </trkpt>
      <trkpt lat="46.28804" lon="5.6423">
        <ele>543.4</ele>
        <time>2022-07-29T13:45:42Z</time>
      </trkpt>
      <trkpt lat="46.28805" lon="5.64234">
        <ele>543.4</ele>
        <time>2022-07-29T13:45:43Z</time>
      </trkpt>
      <trkpt lat="46.28805" lon="5.64239">
        <ele>543.8</ele>
        <time>2022-07-29T13:45:44Z</time>
      </trkpt>
      <trkpt lat="46.28805" lon="5.64244">
        <ele>543.8</ele>
        <time>2022-07-29T13:45:45Z</time>
      </trkpt>
      <trkpt lat="46.28806" lon="5.64249">
        <ele>543.8</ele>
        <time>2022-07-29T13:45:46Z</time>
      </trkpt>
      <trkpt lat="46.28806" lon="5.64255">
        <ele>544</ele>
        <time>2022-07-29T13:45:47Z</time>
      </trkpt>
      <trkpt lat="46.28806" lon="5.6426">
        <ele>544</ele>
        <time>2022-07-29T13:45:48Z</time>
      </trkpt>
      <trkpt lat="46.28806" lon="5.64265">
        <ele>544.2</ele>
        <time>2022-07-29T13:45:49Z</time>
      </trkpt>
      <trkpt lat="46.28806" lon="5.6427">
        <ele>544.2</ele>
        <time>2022-07-29T13:45:50Z</time>
      </trkpt>
      <trkpt lat="46.28806" lon="5.64275">
        <ele>544.2</ele>
        <time>2022-07-29T13:45:51Z</time>
      </trkpt>
      <trkpt lat="46.28806" lon="5.64279">
        <ele>544.4</ele>
        <time>2022-07-29T13:45:52Z</time>
      </trkpt>
      <trkpt lat="46.28807" lon="5.64284">
        <ele>544.4</ele>
        <time>2022-07-29T13:45:53Z</time>
      </trkpt>
      <trkpt lat="46.28807" lon="5.64289">
        <ele>544.4</ele>
        <time>2022-07-29T13:45:54Z</time>
      </trkpt>
      <trkpt lat="46.28807" lon="5.64295">
        <ele>544.6</ele>
        <time>2022-07-29T13:45:55Z</time>
      </trkpt>
      <trkpt lat="46.28808" lon="5.64301">
        <ele>544.6</ele>
        <time>2022-07-29T13:45:56Z</time>
      </trkpt>
      <trkpt lat="46.28809" lon="5.64307">
        <ele>544.6</ele>
        <time>2022-07-29T13:45:57Z</time>
      </trkpt>
      <trkpt lat="46.28809" lon="5.64313">
        <ele>544.6</ele>
        <time>2022-07-29T13:45:58Z</time>
      </trkpt>
      <trkpt lat="46.2881" lon="5.64318">
        <ele>544.6</ele>
        <time>2022-07-29T13:45:59Z</time>
      </trkpt>
      <trkpt lat="46.28811" lon="5.64324">
        <ele>544.6</ele>
        <time>2022-07-29T13:46:00Z</time>
      </trkpt>
      <trkpt lat="46.28812" lon="5.6433">
        <ele>544.6</ele>
        <time>2022-07-29T13:46:01Z</time>
      </trkpt>
      <trkpt lat="46.28812" lon="5.64336">
        <ele>544.6</ele>
        <time>2022-07-29T13:46:02Z</time>
      </trkpt>
      <trkpt lat="46.28813" lon="5.64343">
        <ele>544.6</ele>
        <time>2022-07-29T13:46:03Z</time>
      </trkpt>
      <trkpt lat="46.28813" lon="5.6435">
        <ele>544.6</ele>
        <time>2022-07-29T13:46:04Z</time>
      </trkpt>
      <trkpt lat="46.28814" lon="5.64357">
        <ele>544.6</ele>
        <time>2022-07-29T13:46:05Z</time>
      </trkpt>
      <trkpt lat="46.28814" lon="5.64363">
        <ele>544.6</ele>
        <time>2022-07-29T13:46:06Z</time>
      </trkpt>
      <trkpt lat="46.28814" lon="5.6437">
        <ele>544.6</ele>
        <time>2022-07-29T13:46:07Z</time>
      </trkpt>
      <trkpt lat="46.28814" lon="5.64378">
        <ele>544.6</ele>
        <time>2022-07-29T13:46:08Z</time>
      </trkpt>
      <trkpt lat="46.28815" lon="5.64385">
        <ele>544.4</ele>
        <time>2022-07-29T13:46:09Z</time>
      </trkpt>
      <trkpt lat="46.28815" lon="5.64393">
        <ele>544.4</ele>
        <time>2022-07-29T13:46:10Z</time>
      </trkpt>
      <trkpt lat="46.28815" lon="5.644">
        <ele>544</ele>
        <time>2022-07-29T13:46:11Z</time>
      </trkpt>
      <trkpt lat="46.28814" lon="5.64408">
        <ele>544</ele>
        <time>2022-07-29T13:46:12Z</time>
      </trkpt>
      <trkpt lat="46.28813" lon="5.64416">
        <ele>543.8</ele>
        <time>2022-07-29T13:46:13Z</time>
      </trkpt>
      <trkpt lat="46.28811" lon="5.64423">
        <ele>543.8</ele>
        <time>2022-07-29T13:46:14Z</time>
      </trkpt>
      <trkpt lat="46.28809" lon="5.64431">
        <ele>543.6</ele>
        <time>2022-07-29T13:46:15Z</time>
      </trkpt>
      <trkpt lat="46.28808" lon="5.64439">
        <ele>543.6</ele>
        <time>2022-07-29T13:46:16Z</time>
      </trkpt>
      <trkpt lat="46.28806" lon="5.64447">
        <ele>543.2</ele>
        <time>2022-07-29T13:46:17Z</time>
      </trkpt>
      <trkpt lat="46.28804" lon="5.64455">
        <ele>543.2</ele>
        <time>2022-07-29T13:46:18Z</time>
      </trkpt>
      <trkpt lat="46.28803" lon="5.64464">
        <ele>543</ele>
        <time>2022-07-29T13:46:19Z</time>
      </trkpt>
      <trkpt lat="46.28802" lon="5.64472">
        <ele>543</ele>
        <time>2022-07-29T13:46:20Z</time>
      </trkpt>
      <trkpt lat="46.28803" lon="5.64481">
        <ele>542.6</ele>
        <time>2022-07-29T13:46:21Z</time>
      </trkpt>
      <trkpt lat="46.28805" lon="5.64489">
        <ele>542.6</ele>
        <time>2022-07-29T13:46:22Z</time>
      </trkpt>
      <trkpt lat="46.28808" lon="5.64497">
        <ele>542.2</ele>
        <time>2022-07-29T13:46:23Z</time>
      </trkpt>
      <trkpt lat="46.28813" lon="5.64504">
        <ele>542</ele>
        <time>2022-07-29T13:46:24Z</time>
      </trkpt>
      <trkpt lat="46.28819" lon="5.6451">
        <ele>541.6</ele>
        <time>2022-07-29T13:46:25Z</time>
      </trkpt>
      <trkpt lat="46.28826" lon="5.64516">
        <ele>541.2</ele>
        <time>2022-07-29T13:46:26Z</time>
      </trkpt>
      <trkpt lat="46.28833" lon="5.64521">
        <ele>540.8</ele>
        <time>2022-07-29T13:46:27Z</time>
      </trkpt>
      <trkpt lat="46.2884" lon="5.64526">
        <ele>540.6</ele>
        <time>2022-07-29T13:46:28Z</time>
      </trkpt>
      <trkpt lat="46.28848" lon="5.64531">
        <ele>540.2</ele>
        <time>2022-07-29T13:46:29Z</time>
      </trkpt>
      <trkpt lat="46.28855" lon="5.64535">
        <ele>539.8</ele>
        <time>2022-07-29T13:46:30Z</time>
      </trkpt>
      <trkpt lat="46.28862" lon="5.64539">
        <ele>539.6</ele>
        <time>2022-07-29T13:46:31Z</time>
      </trkpt>
      <trkpt lat="46.28869" lon="5.64543">
        <ele>539.6</ele>
        <time>2022-07-29T13:46:32Z</time>
      </trkpt>
      <trkpt lat="46.28874" lon="5.64549">
        <ele>539.4</ele>
        <time>2022-07-29T13:46:33Z</time>
      </trkpt>
      <trkpt lat="46.28879" lon="5.64558">
        <ele>539.4</ele>
        <time>2022-07-29T13:46:34Z</time>
      </trkpt>
      <trkpt lat="46.28881" lon="5.64567">
        <ele>539.2</ele>
        <time>2022-07-29T13:46:35Z</time>
      </trkpt>
      <trkpt lat="46.28882" lon="5.64577">
        <ele>539.2</ele>
        <time>2022-07-29T13:46:36Z</time>
      </trkpt>
      <trkpt lat="46.2888" lon="5.64586">
        <ele>539</ele>
        <time>2022-07-29T13:46:37Z</time>
      </trkpt>
      <trkpt lat="46.28877" lon="5.64594">
        <ele>539</ele>
        <time>2022-07-29T13:46:38Z</time>
      </trkpt>
      <trkpt lat="46.28875" lon="5.64603">
        <ele>538.6</ele>
        <time>2022-07-29T13:46:39Z</time>
      </trkpt>
      <trkpt lat="46.28872" lon="5.6461">
        <ele>538.6</ele>
        <time>2022-07-29T13:46:40Z</time>
      </trkpt>
      <trkpt lat="46.2887" lon="5.64618">
        <ele>538.6</ele>
        <time>2022-07-29T13:46:41Z</time>
      </trkpt>
      <trkpt lat="46.28867" lon="5.64626">
        <ele>538.6</ele>
        <time>2022-07-29T13:46:42Z</time>
      </trkpt>
      <trkpt lat="46.28865" lon="5.64634">
        <ele>538.6</ele>
        <time>2022-07-29T13:46:43Z</time>
      </trkpt>
      <trkpt lat="46.28863" lon="5.64641">
        <ele>538.6</ele>
        <time>2022-07-29T13:46:44Z</time>
      </trkpt>
      <trkpt lat="46.28861" lon="5.64649">
        <ele>538.6</ele>
        <time>2022-07-29T13:46:45Z</time>
      </trkpt>
      <trkpt lat="46.28858" lon="5.64657">
        <ele>538.6</ele>
        <time>2022-07-29T13:46:46Z</time>
      </trkpt>
      <trkpt lat="46.28855" lon="5.64665">
        <ele>538.4</ele>
        <time>2022-07-29T13:46:47Z</time>
      </trkpt>
      <trkpt lat="46.28853" lon="5.64673">
        <ele>538.4</ele>
        <time>2022-07-29T13:46:48Z</time>
      </trkpt>
      <trkpt lat="46.2885" lon="5.64681">
        <ele>538.4</ele>
        <time>2022-07-29T13:46:49Z</time>
      </trkpt>
      <trkpt lat="46.28848" lon="5.64689">
        <ele>538.4</ele>
        <time>2022-07-29T13:46:50Z</time>
      </trkpt>
      <trkpt lat="46.28845" lon="5.64697">
        <ele>538.4</ele>
        <time>2022-07-29T13:46:51Z</time>
      </trkpt>
      <trkpt lat="46.28842" lon="5.64705">
        <ele>538.4</ele>
        <time>2022-07-29T13:46:52Z</time>
      </trkpt>
      <trkpt lat="46.2884" lon="5.64713">
        <ele>538.2</ele>
        <time>2022-07-29T13:46:53Z</time>
      </trkpt>
      <trkpt lat="46.28837" lon="5.64721">
        <ele>538.2</ele>
        <time>2022-07-29T13:46:54Z</time>
      </trkpt>
      <trkpt lat="46.28834" lon="5.64729">
        <ele>537.8</ele>
        <time>2022-07-29T13:46:55Z</time>
      </trkpt>
      <trkpt lat="46.28831" lon="5.64737">
        <ele>537.8</ele>
        <time>2022-07-29T13:46:56Z</time>
      </trkpt>
      <trkpt lat="46.28828" lon="5.64745">
        <ele>537.6</ele>
        <time>2022-07-29T13:46:57Z</time>
      </trkpt>
      <trkpt lat="46.28825" lon="5.64753">
        <ele>537.6</ele>
        <time>2022-07-29T13:46:58Z</time>
      </trkpt>
      <trkpt lat="46.28822" lon="5.64761">
        <ele>537.4</ele>
        <time>2022-07-29T13:46:59Z</time>
      </trkpt>
      <trkpt lat="46.2882" lon="5.6477">
        <ele>537.4</ele>
        <time>2022-07-29T13:47:00Z</time>
      </trkpt>
      <trkpt lat="46.28817" lon="5.64778">
        <ele>537.4</ele>
        <time>2022-07-29T13:47:01Z</time>
      </trkpt>
      <trkpt lat="46.28815" lon="5.64787">
        <ele>537.4</ele>
        <time>2022-07-29T13:47:02Z</time>
      </trkpt>
      <trkpt lat="46.28812" lon="5.64795">
        <ele>537.2</ele>
        <time>2022-07-29T13:47:03Z</time>
      </trkpt>
      <trkpt lat="46.2881" lon="5.64804">
        <ele>537.2</ele>
        <time>2022-07-29T13:47:04Z</time>
      </trkpt>
      <trkpt lat="46.28807" lon="5.64812">
        <ele>537.2</ele>
        <time>2022-07-29T13:47:05Z</time>
      </trkpt>
      <trkpt lat="46.28805" lon="5.64819">
        <ele>537.2</ele>
        <time>2022-07-29T13:47:06Z</time>
      </trkpt>
      <trkpt lat="46.28804" lon="5.64827">
        <ele>537.4</ele>
        <time>2022-07-29T13:47:07Z</time>
      </trkpt>
      <trkpt lat="46.28802" lon="5.64835">
        <ele>537.4</ele>
        <time>2022-07-29T13:47:08Z</time>
      </trkpt>
      <trkpt lat="46.288" lon="5.64842">
        <ele>537.8</ele>
        <time>2022-07-29T13:47:09Z</time>
      </trkpt>
      <trkpt lat="46.28798" lon="5.64849">
        <ele>537.8</ele>
        <time>2022-07-29T13:47:10Z</time>
      </trkpt>
      <trkpt lat="46.28796" lon="5.64856">
        <ele>537.8</ele>
        <time>2022-07-29T13:47:11Z</time>
      </trkpt>
      <trkpt lat="46.28794" lon="5.64861">
        <ele>538</ele>
        <time>2022-07-29T13:47:12Z</time>
      </trkpt>
      <trkpt lat="46.28791" lon="5.64868">
        <ele>538</ele>
        <time>2022-07-29T13:47:13Z</time>
      </trkpt>
      <trkpt lat="46.28789" lon="5.64874">
        <ele>538</ele>
        <time>2022-07-29T13:47:14Z</time>
      </trkpt>
      <trkpt lat="46.28787" lon="5.64881">
        <ele>538.2</ele>
        <time>2022-07-29T13:47:15Z</time>
      </trkpt>
      <trkpt lat="46.28786" lon="5.64887">
        <ele>538.2</ele>
        <time>2022-07-29T13:47:16Z</time>
      </trkpt>
      <trkpt lat="46.28784" lon="5.64893">
        <ele>538.4</ele>
        <time>2022-07-29T13:47:17Z</time>
      </trkpt>
      <trkpt lat="46.28783" lon="5.64899">
        <ele>538.4</ele>
        <time>2022-07-29T13:47:18Z</time>
      </trkpt>
      <trkpt lat="46.28781" lon="5.64905">
        <ele>538.4</ele>
        <time>2022-07-29T13:47:19Z</time>
      </trkpt>
      <trkpt lat="46.28779" lon="5.6491">
        <ele>538.4</ele>
        <time>2022-07-29T13:47:20Z</time>
      </trkpt>
      <trkpt lat="46.28777" lon="5.64917">
        <ele>538.4</ele>
        <time>2022-07-29T13:47:21Z</time>
      </trkpt>
      <trkpt lat="46.28774" lon="5.64923">
        <ele>538.4</ele>
        <time>2022-07-29T13:47:22Z</time>
      </trkpt>
      <trkpt lat="46.28772" lon="5.6493">
        <ele>538.2</ele>
        <time>2022-07-29T13:47:23Z</time>
      </trkpt>
      <trkpt lat="46.28769" lon="5.64938">
        <ele>538</ele>
        <time>2022-07-29T13:47:24Z</time>
      </trkpt>
      <trkpt lat="46.28766" lon="5.64945">
        <ele>537.8</ele>
        <time>2022-07-29T13:47:25Z</time>
      </trkpt>
      <trkpt lat="46.28763" lon="5.64954">
        <ele>537.4</ele>
        <time>2022-07-29T13:47:26Z</time>
      </trkpt>
      <trkpt lat="46.28759" lon="5.64964">
        <ele>537</ele>
        <time>2022-07-29T13:47:27Z</time>
      </trkpt>
      <trkpt lat="46.28756" lon="5.64974">
        <ele>536.6</ele>
        <time>2022-07-29T13:47:28Z</time>
      </trkpt>
      <trkpt lat="46.28754" lon="5.64985">
        <ele>536.2</ele>
        <time>2022-07-29T13:47:29Z</time>
      </trkpt>
      <trkpt lat="46.28751" lon="5.64996">
        <ele>535.8</ele>
        <time>2022-07-29T13:47:30Z</time>
      </trkpt>
      <trkpt lat="46.2875" lon="5.65008">
        <ele>535.2</ele>
        <time>2022-07-29T13:47:31Z</time>
      </trkpt>
      <trkpt lat="46.28748" lon="5.6502">
        <ele>534.8</ele>
        <time>2022-07-29T13:47:32Z</time>
      </trkpt>
      <trkpt lat="46.28747" lon="5.65033">
        <ele>534.2</ele>
        <time>2022-07-29T13:47:33Z</time>
      </trkpt>
      <trkpt lat="46.28746" lon="5.65046">
        <ele>533.6</ele>
        <time>2022-07-29T13:47:34Z</time>
      </trkpt>
      <trkpt lat="46.28744" lon="5.65059">
        <ele>533.2</ele>
        <time>2022-07-29T13:47:35Z</time>
      </trkpt>
      <trkpt lat="46.28743" lon="5.65071">
        <ele>532.8</ele>
        <time>2022-07-29T13:47:36Z</time>
      </trkpt>
      <trkpt lat="46.28742" lon="5.65083">
        <ele>532.6</ele>
        <time>2022-07-29T13:47:37Z</time>
      </trkpt>
      <trkpt lat="46.28743" lon="5.65095">
        <ele>532.2</ele>
        <time>2022-07-29T13:47:38Z</time>
      </trkpt>
      <trkpt lat="46.28746" lon="5.65106">
        <ele>532.2</ele>
        <time>2022-07-29T13:47:39Z</time>
      </trkpt>
      <trkpt lat="46.2875" lon="5.65115">
        <ele>532.2</ele>
        <time>2022-07-29T13:47:40Z</time>
      </trkpt>
      <trkpt lat="46.28754" lon="5.65123">
        <ele>532</ele>
        <time>2022-07-29T13:47:41Z</time>
      </trkpt>
      <trkpt lat="46.28759" lon="5.65129">
        <ele>532</ele>
        <time>2022-07-29T13:47:42Z</time>
      </trkpt>
      <trkpt lat="46.28764" lon="5.65135">
        <ele>532</ele>
        <time>2022-07-29T13:47:43Z</time>
      </trkpt>
      <trkpt lat="46.28769" lon="5.65141">
        <ele>532</ele>
        <time>2022-07-29T13:47:44Z</time>
      </trkpt>
      <trkpt lat="46.28774" lon="5.65147">
        <ele>532</ele>
        <time>2022-07-29T13:47:45Z</time>
      </trkpt>
      <trkpt lat="46.28778" lon="5.65153">
        <ele>532</ele>
        <time>2022-07-29T13:47:46Z</time>
      </trkpt>
      <trkpt lat="46.28783" lon="5.65158">
        <ele>532</ele>
        <time>2022-07-29T13:47:47Z</time>
      </trkpt>
      <trkpt lat="46.28788" lon="5.65163">
        <ele>531.8</ele>
        <time>2022-07-29T13:47:48Z</time>
      </trkpt>
      <trkpt lat="46.28793" lon="5.65169">
        <ele>531.8</ele>
        <time>2022-07-29T13:47:49Z</time>
      </trkpt>
      <trkpt lat="46.28798" lon="5.65175">
        <ele>531.8</ele>
        <time>2022-07-29T13:47:50Z</time>
      </trkpt>
      <trkpt lat="46.28802" lon="5.65182">
        <ele>531.6</ele>
        <time>2022-07-29T13:47:51Z</time>
      </trkpt>
      <trkpt lat="46.28806" lon="5.65189">
        <ele>531.6</ele>
        <time>2022-07-29T13:47:52Z</time>
      </trkpt>
      <trkpt lat="46.2881" lon="5.65197">
        <ele>531.4</ele>
        <time>2022-07-29T13:47:53Z</time>
      </trkpt>
      <trkpt lat="46.28814" lon="5.65205">
        <ele>531.2</ele>
        <time>2022-07-29T13:47:54Z</time>
      </trkpt>
      <trkpt lat="46.28817" lon="5.65215">
        <ele>530.8</ele>
        <time>2022-07-29T13:47:55Z</time>
      </trkpt>
      <trkpt lat="46.28819" lon="5.65225">
        <ele>530.4</ele>
        <time>2022-07-29T13:47:56Z</time>
      </trkpt>
      <trkpt lat="46.28821" lon="5.65236">
        <ele>530.2</ele>
        <time>2022-07-29T13:47:57Z</time>
      </trkpt>
      <trkpt lat="46.28821" lon="5.65236">
        <ele>530</ele>
        <time>2022-07-29T13:47:58Z</time>
      </trkpt>
      <trkpt lat="46.28824" lon="5.65246">
        <ele>529.8</ele>
        <time>2022-07-29T13:47:59Z</time>
      </trkpt>
      <trkpt lat="46.28825" lon="5.65257">
        <ele>529.8</ele>
        <time>2022-07-29T13:48:00Z</time>
      </trkpt>
      <trkpt lat="46.28826" lon="5.65268">
        <ele>529.6</ele>
        <time>2022-07-29T13:48:01Z</time>
      </trkpt>
      <trkpt lat="46.28827" lon="5.65278">
        <ele>529.6</ele>
        <time>2022-07-29T13:48:02Z</time>
      </trkpt>
      <trkpt lat="46.28828" lon="5.65288">
        <ele>529.6</ele>
        <time>2022-07-29T13:48:03Z</time>
      </trkpt>
      <trkpt lat="46.28829" lon="5.65297">
        <ele>529.6</ele>
        <time>2022-07-29T13:48:04Z</time>
      </trkpt>
      <trkpt lat="46.2883" lon="5.65306">
        <ele>529.6</ele>
        <time>2022-07-29T13:48:05Z</time>
      </trkpt>
      <trkpt lat="46.28831" lon="5.65314">
        <ele>529.8</ele>
        <time>2022-07-29T13:48:06Z</time>
      </trkpt>
      <trkpt lat="46.28832" lon="5.65322">
        <ele>529.8</ele>
        <time>2022-07-29T13:48:07Z</time>
      </trkpt>
      <trkpt lat="46.28834" lon="5.65329">
        <ele>530.2</ele>
        <time>2022-07-29T13:48:08Z</time>
      </trkpt>
      <trkpt lat="46.28835" lon="5.65337">
        <ele>530.2</ele>
        <time>2022-07-29T13:48:09Z</time>
      </trkpt>
      <trkpt lat="46.28837" lon="5.65344">
        <ele>530.6</ele>
        <time>2022-07-29T13:48:10Z</time>
      </trkpt>
      <trkpt lat="46.28839" lon="5.65351">
        <ele>530.6</ele>
        <time>2022-07-29T13:48:11Z</time>
      </trkpt>
      <trkpt lat="46.28841" lon="5.65357">
        <ele>530.8</ele>
        <time>2022-07-29T13:48:12Z</time>
      </trkpt>
      <trkpt lat="46.28843" lon="5.65364">
        <ele>530.8</ele>
        <time>2022-07-29T13:48:13Z</time>
      </trkpt>
      <trkpt lat="46.28845" lon="5.6537">
        <ele>531.2</ele>
        <time>2022-07-29T13:48:14Z</time>
      </trkpt>
      <trkpt lat="46.28847" lon="5.65377">
        <ele>531.2</ele>
        <time>2022-07-29T13:48:15Z</time>
      </trkpt>
      <trkpt lat="46.28849" lon="5.65383">
        <ele>531.2</ele>
        <time>2022-07-29T13:48:16Z</time>
      </trkpt>
      <trkpt lat="46.28851" lon="5.6539">
        <ele>531.2</ele>
        <time>2022-07-29T13:48:17Z</time>
      </trkpt>
      <trkpt lat="46.28853" lon="5.65397">
        <ele>531.2</ele>
        <time>2022-07-29T13:48:18Z</time>
      </trkpt>
      <trkpt lat="46.28855" lon="5.65404">
        <ele>531.2</ele>
        <time>2022-07-29T13:48:19Z</time>
      </trkpt>
      <trkpt lat="46.28857" lon="5.65411">
        <ele>531.2</ele>
        <time>2022-07-29T13:48:20Z</time>
      </trkpt>
      <trkpt lat="46.28859" lon="5.65419">
        <ele>531.2</ele>
        <time>2022-07-29T13:48:21Z</time>
      </trkpt>
      <trkpt lat="46.28861" lon="5.65426">
        <ele>531.2</ele>
        <time>2022-07-29T13:48:22Z</time>
      </trkpt>
      <trkpt lat="46.28863" lon="5.65433">
        <ele>531.2</ele>
        <time>2022-07-29T13:48:23Z</time>
      </trkpt>
      <trkpt lat="46.28865" lon="5.65441">
        <ele>531.2</ele>
        <time>2022-07-29T13:48:24Z</time>
      </trkpt>
      <trkpt lat="46.28867" lon="5.65448">
        <ele>531.2</ele>
        <time>2022-07-29T13:48:25Z</time>
      </trkpt>
      <trkpt lat="46.28869" lon="5.65456">
        <ele>531.2</ele>
        <time>2022-07-29T13:48:26Z</time>
      </trkpt>
      <trkpt lat="46.28871" lon="5.65463">
        <ele>531.2</ele>
        <time>2022-07-29T13:48:27Z</time>
      </trkpt>
      <trkpt lat="46.28873" lon="5.65471">
        <ele>531.2</ele>
        <time>2022-07-29T13:48:28Z</time>
      </trkpt>
      <trkpt lat="46.28874" lon="5.65478">
        <ele>531.2</ele>
        <time>2022-07-29T13:48:29Z</time>
      </trkpt>
      <trkpt lat="46.28875" lon="5.65486">
        <ele>531.2</ele>
        <time>2022-07-29T13:48:30Z</time>
      </trkpt>
      <trkpt lat="46.28877" lon="5.65493">
        <ele>531.2</ele>
        <time>2022-07-29T13:48:31Z</time>
      </trkpt>
      <trkpt lat="46.28879" lon="5.65501">
        <ele>531.2</ele>
        <time>2022-07-29T13:48:32Z</time>
      </trkpt>
      <trkpt lat="46.2888" lon="5.65508">
        <ele>531.2</ele>
        <time>2022-07-29T13:48:33Z</time>
      </trkpt>
      <trkpt lat="46.28882" lon="5.65516">
        <ele>531.2</ele>
        <time>2022-07-29T13:48:34Z</time>
      </trkpt>
      <trkpt lat="46.28883" lon="5.65524">
        <ele>531.2</ele>
        <time>2022-07-29T13:48:35Z</time>
      </trkpt>
      <trkpt lat="46.28885" lon="5.65532">
        <ele>531.2</ele>
        <time>2022-07-29T13:48:36Z</time>
      </trkpt>
      <trkpt lat="46.28886" lon="5.6554">
        <ele>531.2</ele>
        <time>2022-07-29T13:48:37Z</time>
      </trkpt>
      <trkpt lat="46.28888" lon="5.65547">
        <ele>531.2</ele>
        <time>2022-07-29T13:48:38Z</time>
      </trkpt>
      <trkpt lat="46.28889" lon="5.65555">
        <ele>531.2</ele>
        <time>2022-07-29T13:48:39Z</time>
      </trkpt>
      <trkpt lat="46.28891" lon="5.65564">
        <ele>531.2</ele>
        <time>2022-07-29T13:48:40Z</time>
      </trkpt>
      <trkpt lat="46.28893" lon="5.65571">
        <ele>531.2</ele>
        <time>2022-07-29T13:48:41Z</time>
      </trkpt>
      <trkpt lat="46.28896" lon="5.65579">
        <ele>531.2</ele>
        <time>2022-07-29T13:48:42Z</time>
      </trkpt>
      <trkpt lat="46.28899" lon="5.65587">
        <ele>531.2</ele>
        <time>2022-07-29T13:48:43Z</time>
      </trkpt>
      <trkpt lat="46.28902" lon="5.65595">
        <ele>531.4</ele>
        <time>2022-07-29T13:48:44Z</time>
      </trkpt>
      <trkpt lat="46.28906" lon="5.65602">
        <ele>531.4</ele>
        <time>2022-07-29T13:48:45Z</time>
      </trkpt>
      <trkpt lat="46.2891" lon="5.65609">
        <ele>531.4</ele>
        <time>2022-07-29T13:48:46Z</time>
      </trkpt>
      <trkpt lat="46.28913" lon="5.65616">
        <ele>531.4</ele>
        <time>2022-07-29T13:48:47Z</time>
      </trkpt>
      <trkpt lat="46.28917" lon="5.65622">
        <ele>531.4</ele>
        <time>2022-07-29T13:48:48Z</time>
      </trkpt>
      <trkpt lat="46.28921" lon="5.65629">
        <ele>531.4</ele>
        <time>2022-07-29T13:48:49Z</time>
      </trkpt>
      <trkpt lat="46.28924" lon="5.65636">
        <ele>531.4</ele>
        <time>2022-07-29T13:48:50Z</time>
      </trkpt>
      <trkpt lat="46.28927" lon="5.65643">
        <ele>531.4</ele>
        <time>2022-07-29T13:48:51Z</time>
      </trkpt>
      <trkpt lat="46.2893" lon="5.6565">
        <ele>531.4</ele>
        <time>2022-07-29T13:48:52Z</time>
      </trkpt>
      <trkpt lat="46.28932" lon="5.65658">
        <ele>531.4</ele>
        <time>2022-07-29T13:48:53Z</time>
      </trkpt>
      <trkpt lat="46.28933" lon="5.65667">
        <ele>531.4</ele>
        <time>2022-07-29T13:48:54Z</time>
      </trkpt>
      <trkpt lat="46.28934" lon="5.65675">
        <ele>531.4</ele>
        <time>2022-07-29T13:48:55Z</time>
      </trkpt>
      <trkpt lat="46.28935" lon="5.65684">
        <ele>531.4</ele>
        <time>2022-07-29T13:48:56Z</time>
      </trkpt>
      <trkpt lat="46.28935" lon="5.65692">
        <ele>531.4</ele>
        <time>2022-07-29T13:48:57Z</time>
      </trkpt>
      <trkpt lat="46.28935" lon="5.65701">
        <ele>531.2</ele>
        <time>2022-07-29T13:48:58Z</time>
      </trkpt>
      <trkpt lat="46.28934" lon="5.65709">
        <ele>531.2</ele>
        <time>2022-07-29T13:48:59Z</time>
      </trkpt>
      <trkpt lat="46.28934" lon="5.65718">
        <ele>531.2</ele>
        <time>2022-07-29T13:49:00Z</time>
      </trkpt>
      <trkpt lat="46.28933" lon="5.65727">
        <ele>531</ele>
        <time>2022-07-29T13:49:01Z</time>
      </trkpt>
      <trkpt lat="46.28931" lon="5.65736">
        <ele>531</ele>
        <time>2022-07-29T13:49:02Z</time>
      </trkpt>
      <trkpt lat="46.2893" lon="5.65745">
        <ele>531</ele>
        <time>2022-07-29T13:49:03Z</time>
      </trkpt>
      <trkpt lat="46.28929" lon="5.65754">
        <ele>531</ele>
        <time>2022-07-29T13:49:04Z</time>
      </trkpt>
      <trkpt lat="46.28927" lon="5.65762">
        <ele>530.6</ele>
        <time>2022-07-29T13:49:05Z</time>
      </trkpt>
      <trkpt lat="46.28925" lon="5.6577">
        <ele>530.6</ele>
        <time>2022-07-29T13:49:06Z</time>
      </trkpt>
      <trkpt lat="46.28921" lon="5.65778">
        <ele>530.6</ele>
        <time>2022-07-29T13:49:07Z</time>
      </trkpt>
      <trkpt lat="46.28917" lon="5.65785">
        <ele>530.6</ele>
        <time>2022-07-29T13:49:08Z</time>
      </trkpt>
      <trkpt lat="46.28913" lon="5.65792">
        <ele>530.6</ele>
        <time>2022-07-29T13:49:09Z</time>
      </trkpt>
      <trkpt lat="46.28909" lon="5.65799">
        <ele>530.6</ele>
        <time>2022-07-29T13:49:10Z</time>
      </trkpt>
      <trkpt lat="46.28904" lon="5.65805">
        <ele>530.6</ele>
        <time>2022-07-29T13:49:11Z</time>
      </trkpt>
      <trkpt lat="46.28899" lon="5.6581">
        <ele>530.6</ele>
        <time>2022-07-29T13:49:12Z</time>
      </trkpt>
      <trkpt lat="46.28893" lon="5.65814">
        <ele>530.6</ele>
        <time>2022-07-29T13:49:13Z</time>
      </trkpt>
      <trkpt lat="46.28888" lon="5.65819">
        <ele>530.6</ele>
        <time>2022-07-29T13:49:14Z</time>
      </trkpt>
      <trkpt lat="46.28883" lon="5.65823">
        <ele>530.6</ele>
        <time>2022-07-29T13:49:15Z</time>
      </trkpt>
      <trkpt lat="46.28877" lon="5.65828">
        <ele>530.6</ele>
        <time>2022-07-29T13:49:16Z</time>
      </trkpt>
      <trkpt lat="46.28872" lon="5.65832">
        <ele>530.6</ele>
        <time>2022-07-29T13:49:17Z</time>
      </trkpt>
      <trkpt lat="46.28867" lon="5.65837">
        <ele>530.6</ele>
        <time>2022-07-29T13:49:18Z</time>
      </trkpt>
      <trkpt lat="46.28862" lon="5.65842">
        <ele>530.4</ele>
        <time>2022-07-29T13:49:19Z</time>
      </trkpt>
      <trkpt lat="46.28856" lon="5.65847">
        <ele>530.4</ele>
        <time>2022-07-29T13:49:20Z</time>
      </trkpt>
      <trkpt lat="46.28852" lon="5.65853">
        <ele>530</ele>
        <time>2022-07-29T13:49:21Z</time>
      </trkpt>
      <trkpt lat="46.28847" lon="5.6586">
        <ele>529.6</ele>
        <time>2022-07-29T13:49:22Z</time>
      </trkpt>
      <trkpt lat="46.28842" lon="5.65868">
        <ele>529.4</ele>
        <time>2022-07-29T13:49:23Z</time>
      </trkpt>
      <trkpt lat="46.28836" lon="5.65876">
        <ele>529</ele>
        <time>2022-07-29T13:49:24Z</time>
      </trkpt>
      <trkpt lat="46.2883" lon="5.65884">
        <ele>528.8</ele>
        <time>2022-07-29T13:49:25Z</time>
      </trkpt>
      <trkpt lat="46.28824" lon="5.65891">
        <ele>528.6</ele>
        <time>2022-07-29T13:49:26Z</time>
      </trkpt>
      <trkpt lat="46.28817" lon="5.65898">
        <ele>528.2</ele>
        <time>2022-07-29T13:49:27Z</time>
      </trkpt>
      <trkpt lat="46.2881" lon="5.65904">
        <ele>527.8</ele>
        <time>2022-07-29T13:49:28Z</time>
      </trkpt>
      <trkpt lat="46.28803" lon="5.6591">
        <ele>527.6</ele>
        <time>2022-07-29T13:49:29Z</time>
      </trkpt>
      <trkpt lat="46.28796" lon="5.65917">
        <ele>527.6</ele>
        <time>2022-07-29T13:49:30Z</time>
      </trkpt>
      <trkpt lat="46.2879" lon="5.65923">
        <ele>527.4</ele>
        <time>2022-07-29T13:49:31Z</time>
      </trkpt>
      <trkpt lat="46.28783" lon="5.6593">
        <ele>527.4</ele>
        <time>2022-07-29T13:49:32Z</time>
      </trkpt>
      <trkpt lat="46.28777" lon="5.65935">
        <ele>527</ele>
        <time>2022-07-29T13:49:33Z</time>
      </trkpt>
      <trkpt lat="46.2877" lon="5.65941">
        <ele>526.8</ele>
        <time>2022-07-29T13:49:34Z</time>
      </trkpt>
      <trkpt lat="46.28763" lon="5.65947">
        <ele>526.4</ele>
        <time>2022-07-29T13:49:35Z</time>
      </trkpt>
      <trkpt lat="46.28757" lon="5.65953">
        <ele>526.2</ele>
        <time>2022-07-29T13:49:36Z</time>
      </trkpt>
      <trkpt lat="46.28751" lon="5.6596">
        <ele>525.8</ele>
        <time>2022-07-29T13:49:37Z</time>
      </trkpt>
      <trkpt lat="46.28744" lon="5.65967">
        <ele>525.6</ele>
        <time>2022-07-29T13:49:38Z</time>
      </trkpt>
      <trkpt lat="46.28738" lon="5.65975">
        <ele>525.2</ele>
        <time>2022-07-29T13:49:39Z</time>
      </trkpt>
      <trkpt lat="46.28731" lon="5.65982">
        <ele>525.2</ele>
        <time>2022-07-29T13:49:40Z</time>
      </trkpt>
      <trkpt lat="46.28725" lon="5.6599">
        <ele>525</ele>
        <time>2022-07-29T13:49:41Z</time>
      </trkpt>
      <trkpt lat="46.2872" lon="5.65997">
        <ele>525</ele>
        <time>2022-07-29T13:49:42Z</time>
      </trkpt>
      <trkpt lat="46.28714" lon="5.66005">
        <ele>525</ele>
        <time>2022-07-29T13:49:43Z</time>
      </trkpt>
      <trkpt lat="46.28709" lon="5.66012">
        <ele>525</ele>
        <time>2022-07-29T13:49:44Z</time>
      </trkpt>
      <trkpt lat="46.28704" lon="5.66019">
        <ele>525</ele>
        <time>2022-07-29T13:49:45Z</time>
      </trkpt>
      <trkpt lat="46.287" lon="5.66026">
        <ele>525</ele>
        <time>2022-07-29T13:49:46Z</time>
      </trkpt>
      <trkpt lat="46.28696" lon="5.66033">
        <ele>525.4</ele>
        <time>2022-07-29T13:49:47Z</time>
      </trkpt>
      <trkpt lat="46.28692" lon="5.66039">
        <ele>525.6</ele>
        <time>2022-07-29T13:49:48Z</time>
      </trkpt>
      <trkpt lat="46.28688" lon="5.66044">
        <ele>525.8</ele>
        <time>2022-07-29T13:49:49Z</time>
      </trkpt>
      <trkpt lat="46.28684" lon="5.6605">
        <ele>526</ele>
        <time>2022-07-29T13:49:50Z</time>
      </trkpt>
      <trkpt lat="46.28681" lon="5.66055">
        <ele>526.2</ele>
        <time>2022-07-29T13:49:51Z</time>
      </trkpt>
      <trkpt lat="46.28679" lon="5.6606">
        <ele>526.2</ele>
        <time>2022-07-29T13:49:52Z</time>
      </trkpt>
      <trkpt lat="46.28676" lon="5.66065">
        <ele>526.6</ele>
        <time>2022-07-29T13:49:53Z</time>
      </trkpt>
      <trkpt lat="46.28673" lon="5.6607">
        <ele>526.6</ele>
        <time>2022-07-29T13:49:54Z</time>
      </trkpt>
      <trkpt lat="46.2867" lon="5.66074">
        <ele>527</ele>
        <time>2022-07-29T13:49:55Z</time>
      </trkpt>
      <trkpt lat="46.28668" lon="5.66078">
        <ele>527</ele>
        <time>2022-07-29T13:49:56Z</time>
      </trkpt>
      <trkpt lat="46.28665" lon="5.66083">
        <ele>527.2</ele>
        <time>2022-07-29T13:49:57Z</time>
      </trkpt>
      <trkpt lat="46.28662" lon="5.66087">
        <ele>527.2</ele>
        <time>2022-07-29T13:49:58Z</time>
      </trkpt>
      <trkpt lat="46.28659" lon="5.66091">
        <ele>527.2</ele>
        <time>2022-07-29T13:49:59Z</time>
      </trkpt>
      <trkpt lat="46.28656" lon="5.66096">
        <ele>527.2</ele>
        <time>2022-07-29T13:50:00Z</time>
      </trkpt>
      <trkpt lat="46.28653" lon="5.66101">
        <ele>527.2</ele>
        <time>2022-07-29T13:50:01Z</time>
      </trkpt>
      <trkpt lat="46.2865" lon="5.66105">
        <ele>527.2</ele>
        <time>2022-07-29T13:50:02Z</time>
      </trkpt>
      <trkpt lat="46.28647" lon="5.6611">
        <ele>527.2</ele>
        <time>2022-07-29T13:50:03Z</time>
      </trkpt>
      <trkpt lat="46.28644" lon="5.66116">
        <ele>527.2</ele>
        <time>2022-07-29T13:50:04Z</time>
      </trkpt>
      <trkpt lat="46.2864" lon="5.66122">
        <ele>527.2</ele>
        <time>2022-07-29T13:50:05Z</time>
      </trkpt>
      <trkpt lat="46.28637" lon="5.66127">
        <ele>527.2</ele>
        <time>2022-07-29T13:50:06Z</time>
      </trkpt>
      <trkpt lat="46.28633" lon="5.66132">
        <ele>527.2</ele>
        <time>2022-07-29T13:50:07Z</time>
      </trkpt>
      <trkpt lat="46.28628" lon="5.66137">
        <ele>527.2</ele>
        <time>2022-07-29T13:50:08Z</time>
      </trkpt>
      <trkpt lat="46.28624" lon="5.66142">
        <ele>527.2</ele>
        <time>2022-07-29T13:50:09Z</time>
      </trkpt>
      <trkpt lat="46.28619" lon="5.66147">
        <ele>527.2</ele>
        <time>2022-07-29T13:50:10Z</time>
      </trkpt>
      <trkpt lat="46.28615" lon="5.66152">
        <ele>527.2</ele>
        <time>2022-07-29T13:50:11Z</time>
      </trkpt>
      <trkpt lat="46.2861" lon="5.66156">
        <ele>527.2</ele>
        <time>2022-07-29T13:50:12Z</time>
      </trkpt>
      <trkpt lat="46.28605" lon="5.66159">
        <ele>527.2</ele>
        <time>2022-07-29T13:50:13Z</time>
      </trkpt>
      <trkpt lat="46.286" lon="5.66162">
        <ele>527.2</ele>
        <time>2022-07-29T13:50:14Z</time>
      </trkpt>
      <trkpt lat="46.28595" lon="5.66164">
        <ele>527.2</ele>
        <time>2022-07-29T13:50:15Z</time>
      </trkpt>
      <trkpt lat="46.28589" lon="5.66166">
        <ele>527.2</ele>
        <time>2022-07-29T13:50:16Z</time>
      </trkpt>
      <trkpt lat="46.28584" lon="5.66167">
        <ele>527.2</ele>
        <time>2022-07-29T13:50:17Z</time>
      </trkpt>
      <trkpt lat="46.28579" lon="5.66168">
        <ele>527.2</ele>
        <time>2022-07-29T13:50:18Z</time>
      </trkpt>
      <trkpt lat="46.28574" lon="5.66168">
        <ele>527.2</ele>
        <time>2022-07-29T13:50:19Z</time>
      </trkpt>
      <trkpt lat="46.28569" lon="5.66168">
        <ele>527.2</ele>
        <time>2022-07-29T13:50:20Z</time>
      </trkpt>
      <trkpt lat="46.28564" lon="5.66167">
        <ele>527.2</ele>
        <time>2022-07-29T13:50:21Z</time>
      </trkpt>
      <trkpt lat="46.28559" lon="5.66166">
        <ele>527.2</ele>
        <time>2022-07-29T13:50:22Z</time>
      </trkpt>
      <trkpt lat="46.28555" lon="5.66165">
        <ele>527.2</ele>
        <time>2022-07-29T13:50:23Z</time>
      </trkpt>
      <trkpt lat="46.28551" lon="5.66164">
        <ele>527.2</ele>
        <time>2022-07-29T13:50:24Z</time>
      </trkpt>
      <trkpt lat="46.28547" lon="5.66163">
        <ele>527.2</ele>
        <time>2022-07-29T13:50:25Z</time>
      </trkpt>
      <trkpt lat="46.28543" lon="5.66162">
        <ele>527.2</ele>
        <time>2022-07-29T13:50:26Z</time>
      </trkpt>
      <trkpt lat="46.28539" lon="5.66161">
        <ele>527.2</ele>
        <time>2022-07-29T13:50:27Z</time>
      </trkpt>
      <trkpt lat="46.28536" lon="5.6616">
        <ele>527.2</ele>
        <time>2022-07-29T13:50:28Z</time>
      </trkpt>
      <trkpt lat="46.28533" lon="5.66158">
        <ele>527.2</ele>
        <time>2022-07-29T13:50:29Z</time>
      </trkpt>
      <trkpt lat="46.28529" lon="5.66157">
        <ele>527.4</ele>
        <time>2022-07-29T13:50:30Z</time>
      </trkpt>
      <trkpt lat="46.28526" lon="5.66156">
        <ele>527.4</ele>
        <time>2022-07-29T13:50:31Z</time>
      </trkpt>
      <trkpt lat="46.28523" lon="5.66157">
        <ele>527.4</ele>
        <time>2022-07-29T13:50:32Z</time>
      </trkpt>
      <trkpt lat="46.2852" lon="5.66159">
        <ele>527.4</ele>
        <time>2022-07-29T13:50:33Z</time>
      </trkpt>
      <trkpt lat="46.28519" lon="5.66161">
        <ele>527.4</ele>
        <time>2022-07-29T13:50:34Z</time>
      </trkpt>
      <trkpt lat="46.28518" lon="5.66164">
        <ele>527.4</ele>
        <time>2022-07-29T13:50:35Z</time>
      </trkpt>
      <trkpt lat="46.28517" lon="5.66166">
        <ele>527.4</ele>
        <time>2022-07-29T13:50:36Z</time>
      </trkpt>
      <trkpt lat="46.28516" lon="5.66167">
        <ele>527.4</ele>
        <time>2022-07-29T13:50:37Z</time>
      </trkpt>
      <trkpt lat="46.28515" lon="5.66169">
        <ele>527.4</ele>
        <time>2022-07-29T13:50:38Z</time>
      </trkpt>
      <trkpt lat="46.28512" lon="5.66169">
        <ele>527.4</ele>
        <time>2022-07-29T13:50:39Z</time>
      </trkpt>
      <trkpt lat="46.2851" lon="5.66169">
        <ele>527.4</ele>
        <time>2022-07-29T13:50:40Z</time>
      </trkpt>
      <trkpt lat="46.28507" lon="5.6617">
        <ele>527.2</ele>
        <time>2022-07-29T13:50:41Z</time>
      </trkpt>
      <trkpt lat="46.28504" lon="5.66171">
        <ele>527.2</ele>
        <time>2022-07-29T13:50:42Z</time>
      </trkpt>
      <trkpt lat="46.285" lon="5.66173">
        <ele>527.2</ele>
        <time>2022-07-29T13:50:43Z</time>
      </trkpt>
      <trkpt lat="46.28497" lon="5.66175">
        <ele>527.2</ele>
        <time>2022-07-29T13:50:44Z</time>
      </trkpt>
      <trkpt lat="46.28493" lon="5.66178">
        <ele>527.6</ele>
        <time>2022-07-29T13:50:45Z</time>
      </trkpt>
      <trkpt lat="46.28489" lon="5.66181">
        <ele>527.6</ele>
        <time>2022-07-29T13:50:46Z</time>
      </trkpt>
      <trkpt lat="46.28486" lon="5.66185">
        <ele>527.8</ele>
        <time>2022-07-29T13:50:47Z</time>
      </trkpt>
      <trkpt lat="46.28483" lon="5.6619">
        <ele>527.8</ele>
        <time>2022-07-29T13:50:48Z</time>
      </trkpt>
      <trkpt lat="46.28481" lon="5.66196">
        <ele>528</ele>
        <time>2022-07-29T13:50:49Z</time>
      </trkpt>
      <trkpt lat="46.28479" lon="5.66202">
        <ele>528</ele>
        <time>2022-07-29T13:50:50Z</time>
      </trkpt>
      <trkpt lat="46.28478" lon="5.66208">
        <ele>528</ele>
        <time>2022-07-29T13:50:51Z</time>
      </trkpt>
      <trkpt lat="46.28477" lon="5.66214">
        <ele>528.2</ele>
        <time>2022-07-29T13:50:52Z</time>
      </trkpt>
      <trkpt lat="46.28476" lon="5.66221">
        <ele>528.2</ele>
        <time>2022-07-29T13:50:53Z</time>
      </trkpt>
      <trkpt lat="46.28476" lon="5.66228">
        <ele>528.2</ele>
        <time>2022-07-29T13:50:54Z</time>
      </trkpt>
      <trkpt lat="46.28478" lon="5.66235">
        <ele>528.2</ele>
        <time>2022-07-29T13:50:55Z</time>
      </trkpt>
      <trkpt lat="46.28481" lon="5.66241">
        <ele>528.4</ele>
        <time>2022-07-29T13:50:56Z</time>
      </trkpt>
      <trkpt lat="46.28484" lon="5.66247">
        <ele>528.4</ele>
        <time>2022-07-29T13:50:57Z</time>
      </trkpt>
      <trkpt lat="46.28487" lon="5.66253">
        <ele>528.4</ele>
        <time>2022-07-29T13:50:58Z</time>
      </trkpt>
      <trkpt lat="46.28491" lon="5.66258">
        <ele>528.4</ele>
        <time>2022-07-29T13:50:59Z</time>
      </trkpt>
      <trkpt lat="46.28496" lon="5.66262">
        <ele>528.4</ele>
        <time>2022-07-29T13:51:00Z</time>
      </trkpt>
      <trkpt lat="46.28501" lon="5.66265">
        <ele>528.4</ele>
        <time>2022-07-29T13:51:01Z</time>
      </trkpt>
      <trkpt lat="46.28506" lon="5.66268">
        <ele>528.4</ele>
        <time>2022-07-29T13:51:02Z</time>
      </trkpt>
      <trkpt lat="46.28511" lon="5.66271">
        <ele>528.4</ele>
        <time>2022-07-29T13:51:03Z</time>
      </trkpt>
      <trkpt lat="46.28516" lon="5.66275">
        <ele>528.2</ele>
        <time>2022-07-29T13:51:04Z</time>
      </trkpt>
      <trkpt lat="46.2852" lon="5.6628">
        <ele>528.2</ele>
        <time>2022-07-29T13:51:05Z</time>
      </trkpt>
      <trkpt lat="46.28524" lon="5.66287">
        <ele>528</ele>
        <time>2022-07-29T13:51:06Z</time>
      </trkpt>
      <trkpt lat="46.28526" lon="5.66295">
        <ele>528</ele>
        <time>2022-07-29T13:51:07Z</time>
      </trkpt>
      <trkpt lat="46.28528" lon="5.66303">
        <ele>528</ele>
        <time>2022-07-29T13:51:08Z</time>
      </trkpt>
      <trkpt lat="46.28529" lon="5.66311">
        <ele>527.6</ele>
        <time>2022-07-29T13:51:09Z</time>
      </trkpt>
      <trkpt lat="46.2853" lon="5.66319">
        <ele>527.6</ele>
        <time>2022-07-29T13:51:10Z</time>
      </trkpt>
      <trkpt lat="46.28529" lon="5.66328">
        <ele>527.6</ele>
        <time>2022-07-29T13:51:11Z</time>
      </trkpt>
      <trkpt lat="46.28528" lon="5.66336">
        <ele>527.6</ele>
        <time>2022-07-29T13:51:12Z</time>
      </trkpt>
      <trkpt lat="46.28525" lon="5.66344">
        <ele>527.4</ele>
        <time>2022-07-29T13:51:13Z</time>
      </trkpt>
      <trkpt lat="46.28523" lon="5.66352">
        <ele>527.4</ele>
        <time>2022-07-29T13:51:14Z</time>
      </trkpt>
      <trkpt lat="46.28519" lon="5.66359">
        <ele>527.4</ele>
        <time>2022-07-29T13:51:15Z</time>
      </trkpt>
      <trkpt lat="46.28515" lon="5.66365">
        <ele>527.4</ele>
        <time>2022-07-29T13:51:16Z</time>
      </trkpt>
      <trkpt lat="46.2851" lon="5.6637">
        <ele>527.4</ele>
        <time>2022-07-29T13:51:17Z</time>
      </trkpt>
      <trkpt lat="46.28505" lon="5.66375">
        <ele>527.4</ele>
        <time>2022-07-29T13:51:18Z</time>
      </trkpt>
      <trkpt lat="46.285" lon="5.66378">
        <ele>527.2</ele>
        <time>2022-07-29T13:51:19Z</time>
      </trkpt>
      <trkpt lat="46.28494" lon="5.6638">
        <ele>527.2</ele>
        <time>2022-07-29T13:51:20Z</time>
      </trkpt>
      <trkpt lat="46.28489" lon="5.66382">
        <ele>527.2</ele>
        <time>2022-07-29T13:51:21Z</time>
      </trkpt>
      <trkpt lat="46.28483" lon="5.66384">
        <ele>527.2</ele>
        <time>2022-07-29T13:51:22Z</time>
      </trkpt>
      <trkpt lat="46.28478" lon="5.66385">
        <ele>527.2</ele>
        <time>2022-07-29T13:51:23Z</time>
      </trkpt>
      <trkpt lat="46.28473" lon="5.66387">
        <ele>527</ele>
        <time>2022-07-29T13:51:24Z</time>
      </trkpt>
      <trkpt lat="46.28468" lon="5.66388">
        <ele>527</ele>
        <time>2022-07-29T13:51:25Z</time>
      </trkpt>
      <trkpt lat="46.28462" lon="5.66388">
        <ele>527</ele>
        <time>2022-07-29T13:51:26Z</time>
      </trkpt>
      <trkpt lat="46.28457" lon="5.66388">
        <ele>527</ele>
        <time>2022-07-29T13:51:27Z</time>
      </trkpt>
      <trkpt lat="46.28451" lon="5.66387">
        <ele>527</ele>
        <time>2022-07-29T13:51:28Z</time>
      </trkpt>
      <trkpt lat="46.28446" lon="5.66384">
        <ele>527</ele>
        <time>2022-07-29T13:51:29Z</time>
      </trkpt>
      <trkpt lat="46.28441" lon="5.66381">
        <ele>526.8</ele>
        <time>2022-07-29T13:51:30Z</time>
      </trkpt>
      <trkpt lat="46.28435" lon="5.66378">
        <ele>526.8</ele>
        <time>2022-07-29T13:51:31Z</time>
      </trkpt>
      <trkpt lat="46.2843" lon="5.66374">
        <ele>526.8</ele>
        <time>2022-07-29T13:51:32Z</time>
      </trkpt>
      <trkpt lat="46.28425" lon="5.66369">
        <ele>526.4</ele>
        <time>2022-07-29T13:51:33Z</time>
      </trkpt>
      <trkpt lat="46.28421" lon="5.66363">
        <ele>526.4</ele>
        <time>2022-07-29T13:51:34Z</time>
      </trkpt>
      <trkpt lat="46.28417" lon="5.66356">
        <ele>526.4</ele>
        <time>2022-07-29T13:51:35Z</time>
      </trkpt>
      <trkpt lat="46.28414" lon="5.66349">
        <ele>526.4</ele>
        <time>2022-07-29T13:51:36Z</time>
      </trkpt>
      <trkpt lat="46.28411" lon="5.66342">
        <ele>526.4</ele>
        <time>2022-07-29T13:51:37Z</time>
      </trkpt>
      <trkpt lat="46.28408" lon="5.66334">
        <ele>526.4</ele>
        <time>2022-07-29T13:51:38Z</time>
      </trkpt>
      <trkpt lat="46.28406" lon="5.66326">
        <ele>526.4</ele>
        <time>2022-07-29T13:51:39Z</time>
      </trkpt>
      <trkpt lat="46.28405" lon="5.66318">
        <ele>526.4</ele>
        <time>2022-07-29T13:51:40Z</time>
      </trkpt>
      <trkpt lat="46.28405" lon="5.6631">
        <ele>526.4</ele>
        <time>2022-07-29T13:51:41Z</time>
      </trkpt>
      <trkpt lat="46.28405" lon="5.66302">
        <ele>526.4</ele>
        <time>2022-07-29T13:51:42Z</time>
      </trkpt>
      <trkpt lat="46.28405" lon="5.66294">
        <ele>526.4</ele>
        <time>2022-07-29T13:51:43Z</time>
      </trkpt>
      <trkpt lat="46.28405" lon="5.66286">
        <ele>526.4</ele>
        <time>2022-07-29T13:51:44Z</time>
      </trkpt>
      <trkpt lat="46.28405" lon="5.66278">
        <ele>526.4</ele>
        <time>2022-07-29T13:51:45Z</time>
      </trkpt>
      <trkpt lat="46.28404" lon="5.6627">
        <ele>526.4</ele>
        <time>2022-07-29T13:51:46Z</time>
      </trkpt>
      <trkpt lat="46.28404" lon="5.66262">
        <ele>526.4</ele>
        <time>2022-07-29T13:51:47Z</time>
      </trkpt>
      <trkpt lat="46.28403" lon="5.66255">
        <ele>526.4</ele>
        <time>2022-07-29T13:51:48Z</time>
      </trkpt>
      <trkpt lat="46.28401" lon="5.66248">
        <ele>526.4</ele>
        <time>2022-07-29T13:51:49Z</time>
      </trkpt>
      <trkpt lat="46.28399" lon="5.66241">
        <ele>526.4</ele>
        <time>2022-07-29T13:51:50Z</time>
      </trkpt>
      <trkpt lat="46.28396" lon="5.66236">
        <ele>526.4</ele>
        <time>2022-07-29T13:51:51Z</time>
      </trkpt>
      <trkpt lat="46.28393" lon="5.6623">
        <ele>526.4</ele>
        <time>2022-07-29T13:51:52Z</time>
      </trkpt>
      <trkpt lat="46.28389" lon="5.66226">
        <ele>526.4</ele>
        <time>2022-07-29T13:51:53Z</time>
      </trkpt>
      <trkpt lat="46.28385" lon="5.66221">
        <ele>526.4</ele>
        <time>2022-07-29T13:51:54Z</time>
      </trkpt>
      <trkpt lat="46.28381" lon="5.66215">
        <ele>526.2</ele>
        <time>2022-07-29T13:51:55Z</time>
      </trkpt>
      <trkpt lat="46.28378" lon="5.6621">
        <ele>526.2</ele>
        <time>2022-07-29T13:51:56Z</time>
      </trkpt>
      <trkpt lat="46.28373" lon="5.66205">
        <ele>526.2</ele>
        <time>2022-07-29T13:51:57Z</time>
      </trkpt>
      <trkpt lat="46.28369" lon="5.662">
        <ele>526.2</ele>
        <time>2022-07-29T13:51:58Z</time>
      </trkpt>
      <trkpt lat="46.28365" lon="5.66195">
        <ele>526.2</ele>
        <time>2022-07-29T13:51:59Z</time>
      </trkpt>
      <trkpt lat="46.2836" lon="5.66191">
        <ele>526.2</ele>
        <time>2022-07-29T13:52:00Z</time>
      </trkpt>
      <trkpt lat="46.28356" lon="5.66186">
        <ele>526.2</ele>
        <time>2022-07-29T13:52:01Z</time>
      </trkpt>
      <trkpt lat="46.28352" lon="5.66182">
        <ele>526.2</ele>
        <time>2022-07-29T13:52:02Z</time>
      </trkpt>
      <trkpt lat="46.28347" lon="5.66178">
        <ele>526.2</ele>
        <time>2022-07-29T13:52:03Z</time>
      </trkpt>
      <trkpt lat="46.28342" lon="5.66175">
        <ele>526.2</ele>
        <time>2022-07-29T13:52:04Z</time>
      </trkpt>
      <trkpt lat="46.28337" lon="5.66171">
        <ele>526.2</ele>
        <time>2022-07-29T13:52:05Z</time>
      </trkpt>
      <trkpt lat="46.28332" lon="5.66168">
        <ele>526.2</ele>
        <time>2022-07-29T13:52:06Z</time>
      </trkpt>
      <trkpt lat="46.28328" lon="5.66165">
        <ele>526.2</ele>
        <time>2022-07-29T13:52:07Z</time>
      </trkpt>
      <trkpt lat="46.28323" lon="5.66164">
        <ele>526.2</ele>
        <time>2022-07-29T13:52:08Z</time>
      </trkpt>
      <trkpt lat="46.28318" lon="5.66165">
        <ele>526.2</ele>
        <time>2022-07-29T13:52:09Z</time>
      </trkpt>
      <trkpt lat="46.28313" lon="5.66166">
        <ele>526.2</ele>
        <time>2022-07-29T13:52:10Z</time>
      </trkpt>
      <trkpt lat="46.28308" lon="5.66167">
        <ele>526.2</ele>
        <time>2022-07-29T13:52:11Z</time>
      </trkpt>
      <trkpt lat="46.28303" lon="5.66169">
        <ele>526</ele>
        <time>2022-07-29T13:52:12Z</time>
      </trkpt>
      <trkpt lat="46.28298" lon="5.6617">
        <ele>526</ele>
        <time>2022-07-29T13:52:13Z</time>
      </trkpt>
      <trkpt lat="46.28293" lon="5.66172">
        <ele>526</ele>
        <time>2022-07-29T13:52:14Z</time>
      </trkpt>
      <trkpt lat="46.28289" lon="5.66175">
        <ele>526</ele>
        <time>2022-07-29T13:52:15Z</time>
      </trkpt>
      <trkpt lat="46.28285" lon="5.66178">
        <ele>526</ele>
        <time>2022-07-29T13:52:16Z</time>
      </trkpt>
      <trkpt lat="46.28282" lon="5.66182">
        <ele>526</ele>
        <time>2022-07-29T13:52:17Z</time>
      </trkpt>
      <trkpt lat="46.2828" lon="5.66186">
        <ele>526</ele>
        <time>2022-07-29T13:52:18Z</time>
      </trkpt>
      <trkpt lat="46.28278" lon="5.6619">
        <ele>526</ele>
        <time>2022-07-29T13:52:19Z</time>
      </trkpt>
      <trkpt lat="46.28276" lon="5.66195">
        <ele>525.8</ele>
        <time>2022-07-29T13:52:20Z</time>
      </trkpt>
      <trkpt lat="46.28275" lon="5.66199">
        <ele>525.8</ele>
        <time>2022-07-29T13:52:21Z</time>
      </trkpt>
      <trkpt lat="46.28273" lon="5.66202">
        <ele>525.8</ele>
        <time>2022-07-29T13:52:22Z</time>
      </trkpt>
      <trkpt lat="46.28271" lon="5.66205">
        <ele>525.8</ele>
        <time>2022-07-29T13:52:23Z</time>
      </trkpt>
      <trkpt lat="46.2827" lon="5.66208">
        <ele>525.6</ele>
        <time>2022-07-29T13:52:24Z</time>
      </trkpt>
      <trkpt lat="46.28268" lon="5.66211">
        <ele>525.6</ele>
        <time>2022-07-29T13:52:25Z</time>
      </trkpt>
      <trkpt lat="46.28266" lon="5.66214">
        <ele>525.6</ele>
        <time>2022-07-29T13:52:26Z</time>
      </trkpt>
      <trkpt lat="46.28265" lon="5.66216">
        <ele>525.6</ele>
        <time>2022-07-29T13:52:27Z</time>
      </trkpt>
      <trkpt lat="46.28263" lon="5.66218">
        <ele>525.6</ele>
        <time>2022-07-29T13:52:28Z</time>
      </trkpt>
      <trkpt lat="46.28262" lon="5.6622">
        <ele>525.4</ele>
        <time>2022-07-29T13:52:29Z</time>
      </trkpt>
      <trkpt lat="46.28262" lon="5.66221">
        <ele>525.4</ele>
        <time>2022-07-29T13:52:30Z</time>
      </trkpt>
      <trkpt lat="46.28262" lon="5.66221">
        <ele>525.4</ele>
        <time>2022-07-29T13:52:31Z</time>
      </trkpt>
      <trkpt lat="46.28262" lon="5.66221">
        <ele>525.4</ele>
        <time>2022-07-29T13:52:32Z</time>
      </trkpt>
      <trkpt lat="46.28262" lon="5.66221">
        <ele>525.4</ele>
        <time>2022-07-29T13:52:33Z</time>
      </trkpt>
      <trkpt lat="46.28262" lon="5.66221">
        <ele>525.4</ele>
        <time>2022-07-29T13:52:34Z</time>
      </trkpt>
      <trkpt lat="46.28262" lon="5.66221">
        <ele>525.4</ele>
        <time>2022-07-29T13:52:35Z</time>
      </trkpt>
      <trkpt lat="46.28262" lon="5.66221">
        <ele>525.4</ele>
        <time>2022-07-29T13:52:36Z</time>
      </trkpt>
      <trkpt lat="46.28262" lon="5.66221">
        <ele>525.4</ele>
        <time>2022-07-29T13:52:38Z</time>
      </trkpt>
      <trkpt lat="46.28262" lon="5.66221">
        <ele>525.4</ele>
        <time>2022-07-29T13:52:39Z</time>
      </trkpt>
      <trkpt lat="46.28262" lon="5.66221">
        <ele>525.4</ele>
        <time>2022-07-29T13:52:40Z</time>
      </trkpt>
      <trkpt lat="46.28262" lon="5.66221">
        <ele>525.4</ele>
        <time>2022-07-29T13:52:41Z</time>
      </trkpt>
      <trkpt lat="46.28262" lon="5.66221">
        <ele>525.4</ele>
        <time>2022-07-29T13:52:42Z</time>
      </trkpt>
      <trkpt lat="46.28262" lon="5.66221">
        <ele>525.4</ele>
        <time>2022-07-29T13:52:43Z</time>
      </trkpt>
      <trkpt lat="46.28262" lon="5.66221">
        <ele>525.4</ele>
        <time>2022-07-29T13:52:54Z</time>
      </trkpt>
      <trkpt lat="46.28262" lon="5.66221">
        <ele>525.4</ele>
        <time>2022-07-29T13:52:55Z</time>
      </trkpt>
      <trkpt lat="46.28262" lon="5.66221">
        <ele>525.4</ele>
        <time>2022-07-29T13:52:56Z</time>
      </trkpt>
      <trkpt lat="46.28262" lon="5.66221">
        <ele>525.4</ele>
        <time>2022-07-29T13:52:57Z</time>
      </trkpt>
      <trkpt lat="46.28262" lon="5.66221">
        <ele>525.4</ele>
        <time>2022-07-29T13:52:58Z</time>
      </trkpt>
      <trkpt lat="46.28262" lon="5.66221">
        <ele>525.4</ele>
        <time>2022-07-29T13:53:00Z</time>
      </trkpt>
      <trkpt lat="46.28262" lon="5.66221">
        <ele>525.4</ele>
        <time>2022-07-29T13:53:01Z</time>
      </trkpt>
      <trkpt lat="46.28262" lon="5.66221">
        <ele>525.4</ele>
        <time>2022-07-29T13:53:02Z</time>
      </trkpt>
      <trkpt lat="46.28262" lon="5.66221">
        <ele>525.4</ele>
        <time>2022-07-29T13:53:03Z</time>
      </trkpt>
      <trkpt lat="46.28267" lon="5.66225">
        <ele>525.4</ele>
        <time>2022-07-29T13:53:05Z</time>
      </trkpt>
      <trkpt lat="46.28268" lon="5.66226">
        <ele>525.4</ele>
        <time>2022-07-29T13:53:06Z</time>
      </trkpt>
      <trkpt lat="46.28269" lon="5.66227">
        <ele>525.4</ele>
        <time>2022-07-29T13:53:07Z</time>
      </trkpt>
      <trkpt lat="46.2827" lon="5.66228">
        <ele>525.4</ele>
        <time>2022-07-29T13:53:08Z</time>
      </trkpt>
      <trkpt lat="46.28271" lon="5.66229">
        <ele>525.4</ele>
        <time>2022-07-29T13:53:09Z</time>
      </trkpt>
      <trkpt lat="46.28272" lon="5.6623">
        <ele>525.4</ele>
        <time>2022-07-29T13:53:10Z</time>
      </trkpt>
      <trkpt lat="46.28273" lon="5.66231">
        <ele>525.4</ele>
        <time>2022-07-29T13:53:11Z</time>
      </trkpt>
      <trkpt lat="46.28274" lon="5.66232">
        <ele>525.4</ele>
        <time>2022-07-29T13:53:12Z</time>
      </trkpt>
      <trkpt lat="46.28275" lon="5.66233">
        <ele>525.4</ele>
        <time>2022-07-29T13:53:13Z</time>
      </trkpt>
      <trkpt lat="46.28276" lon="5.66234">
        <ele>525.4</ele>
        <time>2022-07-29T13:53:14Z</time>
      </trkpt>
      <trkpt lat="46.28277" lon="5.66235">
        <ele>525.4</ele>
        <time>2022-07-29T13:53:15Z</time>
      </trkpt>
      <trkpt lat="46.28278" lon="5.66236">
        <ele>525.4</ele>
        <time>2022-07-29T13:53:16Z</time>
      </trkpt>
      <trkpt lat="46.28278" lon="5.66238">
        <ele>525.4</ele>
        <time>2022-07-29T13:53:17Z</time>
      </trkpt>
      <trkpt lat="46.28279" lon="5.66239">
        <ele>525.4</ele>
        <time>2022-07-29T13:53:18Z</time>
      </trkpt>
      <trkpt lat="46.28279" lon="5.66241">
        <ele>525.4</ele>
        <time>2022-07-29T13:53:19Z</time>
      </trkpt>
      <trkpt lat="46.28279" lon="5.66243">
        <ele>525.4</ele>
        <time>2022-07-29T13:53:20Z</time>
      </trkpt>
      <trkpt lat="46.28279" lon="5.66244">
        <ele>525.4</ele>
        <time>2022-07-29T13:53:21Z</time>
      </trkpt>
      <trkpt lat="46.2828" lon="5.66244">
        <ele>525.4</ele>
        <time>2022-07-29T13:53:22Z</time>
      </trkpt>
      <trkpt lat="46.2828" lon="5.66244">
        <ele>525.2</ele>
        <time>2022-07-29T13:53:23Z</time>
      </trkpt>
      <trkpt lat="46.2828" lon="5.66244">
        <ele>525.2</ele>
        <time>2022-07-29T13:53:25Z</time>
      </trkpt>
      <trkpt lat="46.2828" lon="5.66244">
        <ele>525.2</ele>
        <time>2022-07-29T13:53:26Z</time>
      </trkpt>
      <trkpt lat="46.2828" lon="5.6625">
        <ele>525.2</ele>
        <time>2022-07-29T13:53:27Z</time>
      </trkpt>
      <trkpt lat="46.2828" lon="5.66252">
        <ele>525.2</ele>
        <time>2022-07-29T13:53:28Z</time>
      </trkpt>
      <trkpt lat="46.2828" lon="5.66253">
        <ele>525.2</ele>
        <time>2022-07-29T13:53:29Z</time>
      </trkpt>
      <trkpt lat="46.2828" lon="5.66254">
        <ele>525.2</ele>
        <time>2022-07-29T13:53:30Z</time>
      </trkpt>
      <trkpt lat="46.2828" lon="5.66254">
        <ele>525.2</ele>
        <time>2022-07-29T13:53:31Z</time>
      </trkpt>
      <trkpt lat="46.28282" lon="5.66263">
        <ele>525.4</ele>
        <time>2022-07-29T13:53:37Z</time>
      </trkpt>
      <trkpt lat="46.28283" lon="5.66264">
        <ele>525.4</ele>
        <time>2022-07-29T13:53:38Z</time>
      </trkpt>
      <trkpt lat="46.28283" lon="5.66266">
        <ele>525.4</ele>
        <time>2022-07-29T13:53:39Z</time>
      </trkpt>
      <trkpt lat="46.28284" lon="5.66267">
        <ele>525.4</ele>
        <time>2022-07-29T13:53:40Z</time>
      </trkpt>
      <trkpt lat="46.28284" lon="5.66268">
        <ele>525.4</ele>
        <time>2022-07-29T13:53:41Z</time>
      </trkpt>
      <trkpt lat="46.28285" lon="5.66269">
        <ele>525.4</ele>
        <time>2022-07-29T13:53:42Z</time>
      </trkpt>
      <trkpt lat="46.28285" lon="5.66269">
        <ele>525.4</ele>
        <time>2022-07-29T13:53:43Z</time>
      </trkpt>
      <trkpt lat="46.28285" lon="5.66269">
        <ele>525.4</ele>
        <time>2022-07-29T13:53:44Z</time>
      </trkpt>
      <trkpt lat="46.28285" lon="5.66269">
        <ele>525.4</ele>
        <time>2022-07-29T13:53:45Z</time>
      </trkpt>
      <trkpt lat="46.28285" lon="5.66269">
        <ele>525.4</ele>
        <time>2022-07-29T13:53:47Z</time>
      </trkpt>
      <trkpt lat="46.28285" lon="5.66269">
        <ele>525.4</ele>
        <time>2022-07-29T13:53:48Z</time>
      </trkpt>
      <trkpt lat="46.28285" lon="5.66269">
        <ele>525.4</ele>
        <time>2022-07-29T13:53:49Z</time>
      </trkpt>
      <trkpt lat="46.28285" lon="5.66269">
        <ele>525.4</ele>
        <time>2022-07-29T13:53:55Z</time>
      </trkpt>
      <trkpt lat="46.28285" lon="5.66269">
        <ele>525.4</ele>
        <time>2022-07-29T13:53:56Z</time>
      </trkpt>
      <trkpt lat="46.28285" lon="5.66269">
        <ele>525.4</ele>
        <time>2022-07-29T13:53:58Z</time>
      </trkpt>
      <trkpt lat="46.28285" lon="5.66269">
        <ele>525.4</ele>
        <time>2022-07-29T13:53:59Z</time>
      </trkpt>
      <trkpt lat="46.28285" lon="5.66269">
        <ele>525.6</ele>
        <time>2022-07-29T13:54:15Z</time>
      </trkpt>
      <trkpt lat="46.28285" lon="5.66269">
        <ele>525.6</ele>
        <time>2022-07-29T13:54:16Z</time>
      </trkpt>
      <trkpt lat="46.28285" lon="5.66269">
        <ele>525.6</ele>
        <time>2022-07-29T13:54:18Z</time>
      </trkpt>
      <trkpt lat="46.28285" lon="5.66269">
        <ele>525.6</ele>
        <time>2022-07-29T13:54:19Z</time>
      </trkpt>
      <trkpt lat="46.28285" lon="5.66269">
        <ele>525.6</ele>
        <time>2022-07-29T13:54:37Z</time>
      </trkpt>
      <trkpt lat="46.28285" lon="5.66269">
        <ele>525.6</ele>
        <time>2022-07-29T13:54:38Z</time>
      </trkpt>
      <trkpt lat="46.28285" lon="5.66269">
        <ele>525.6</ele>
        <time>2022-07-29T13:54:39Z</time>
      </trkpt>
      <trkpt lat="46.28285" lon="5.66269">
        <ele>525.6</ele>
        <time>2022-07-29T13:54:40Z</time>
      </trkpt>
      <trkpt lat="46.28285" lon="5.66269">
        <ele>525.6</ele>
        <time>2022-07-29T13:54:41Z</time>
      </trkpt>
      <trkpt lat="46.28285" lon="5.66269">
        <ele>525.6</ele>
        <time>2022-07-29T13:54:42Z</time>
      </trkpt>
      <trkpt lat="46.28285" lon="5.66269">
        <ele>525.6</ele>
        <time>2022-07-29T13:54:43Z</time>
      </trkpt>
      <trkpt lat="46.28285" lon="5.66269">
        <ele>525.6</ele>
        <time>2022-07-29T13:54:54Z</time>
      </trkpt>
      <trkpt lat="46.28285" lon="5.66269">
        <ele>525.8</ele>
        <time>2022-07-29T13:54:55Z</time>
      </trkpt>
      <trkpt lat="46.28285" lon="5.66269">
        <ele>526</ele>
        <time>2022-07-29T13:55:05Z</time>
      </trkpt>
      <trkpt lat="46.28285" lon="5.66269">
        <ele>526</ele>
        <time>2022-07-29T13:55:06Z</time>
      </trkpt>
      <trkpt lat="46.28285" lon="5.66269">
        <ele>526</ele>
        <time>2022-07-29T13:55:09Z</time>
      </trkpt>
      <trkpt lat="46.28285" lon="5.66269">
        <ele>526</ele>
        <time>2022-07-29T13:55:10Z</time>
      </trkpt>
      <trkpt lat="46.28285" lon="5.66269">
        <ele>526</ele>
        <time>2022-07-29T13:55:13Z</time>
      </trkpt>
      <trkpt lat="46.28285" lon="5.66269">
        <ele>526</ele>
        <time>2022-07-29T13:55:14Z</time>
      </trkpt>
      <trkpt lat="46.28285" lon="5.66269">
        <ele>526</ele>
        <time>2022-07-29T13:55:16Z</time>
      </trkpt>
      <trkpt lat="46.28285" lon="5.66269">
        <ele>526</ele>
        <time>2022-07-29T13:55:17Z</time>
      </trkpt>
      <trkpt lat="46.28285" lon="5.66269">
        <ele>526</ele>
        <time>2022-07-29T13:55:22Z</time>
      </trkpt>
      <trkpt lat="46.28285" lon="5.66269">
        <ele>526</ele>
        <time>2022-07-29T13:55:23Z</time>
      </trkpt>
      <trkpt lat="46.28285" lon="5.66269">
        <ele>526</ele>
        <time>2022-07-29T13:55:26Z</time>
      </trkpt>
      <trkpt lat="46.28285" lon="5.66269">
        <ele>526</ele>
        <time>2022-07-29T13:55:27Z</time>
      </trkpt>
      <trkpt lat="46.28285" lon="5.66269">
        <ele>526.8</ele>
        <time>2022-07-29T13:57:33Z</time>
      </trkpt>
      <trkpt lat="46.28285" lon="5.66269">
        <ele>526.8</ele>
        <time>2022-07-29T13:57:34Z</time>
      </trkpt>
      <trkpt lat="46.28285" lon="5.66269">
        <ele>526.8</ele>
        <time>2022-07-29T13:57:37Z</time>
      </trkpt>
      <trkpt lat="46.28285" lon="5.66269">
        <ele>526.8</ele>
        <time>2022-07-29T13:57:38Z</time>
      </trkpt>
      <trkpt lat="46.28285" lon="5.66269">
        <ele>526.8</ele>
        <time>2022-07-29T13:57:40Z</time>
      </trkpt>
      <trkpt lat="46.28285" lon="5.66269">
        <ele>526.8</ele>
        <time>2022-07-29T13:57:41Z</time>
      </trkpt>
      <trkpt lat="46.28285" lon="5.66269">
        <ele>526.8</ele>
        <time>2022-07-29T13:57:42Z</time>
      </trkpt>
      <trkpt lat="46.28285" lon="5.66269">
        <ele>526.8</ele>
        <time>2022-07-29T13:57:43Z</time>
      </trkpt>
      <trkpt lat="46.28285" lon="5.66269">
        <ele>526.8</ele>
        <time>2022-07-29T13:57:44Z</time>
      </trkpt>
      <trkpt lat="46.28285" lon="5.66269">
        <ele>526.8</ele>
        <time>2022-07-29T13:57:45Z</time>
      </trkpt>
      <trkpt lat="46.28285" lon="5.66269">
        <ele>527</ele>
        <time>2022-07-29T13:57:48Z</time>
      </trkpt>
      <trkpt lat="46.28285" lon="5.66269">
        <ele>527</ele>
        <time>2022-07-29T13:57:49Z</time>
      </trkpt>
      <trkpt lat="46.28285" lon="5.66269">
        <ele>527</ele>
        <time>2022-07-29T13:57:50Z</time>
      </trkpt>
      <trkpt lat="46.28285" lon="5.66269">
        <ele>527</ele>
        <time>2022-07-29T13:57:51Z</time>
      </trkpt>
      <trkpt lat="46.28285" lon="5.66269">
        <ele>526.6</ele>
        <time>2022-07-29T13:57:52Z</time>
      </trkpt>
      <trkpt lat="46.28285" lon="5.66269">
        <ele>526.6</ele>
        <time>2022-07-29T13:57:53Z</time>
      </trkpt>
      <trkpt lat="46.28285" lon="5.66269">
        <ele>526.4</ele>
        <time>2022-07-29T13:57:54Z</time>
      </trkpt>
      <trkpt lat="46.28285" lon="5.66269">
        <ele>526.4</ele>
        <time>2022-07-29T13:57:55Z</time>
      </trkpt>
      <trkpt lat="46.28285" lon="5.66269">
        <ele>526.4</ele>
        <time>2022-07-29T13:57:56Z</time>
      </trkpt>
      <trkpt lat="46.28285" lon="5.66269">
        <ele>526.4</ele>
        <time>2022-07-29T13:57:57Z</time>
      </trkpt>
      <trkpt lat="46.28285" lon="5.66269">
        <ele>526.4</ele>
        <time>2022-07-29T13:57:58Z</time>
      </trkpt>
      <trkpt lat="46.28285" lon="5.66269">
        <ele>526.2</ele>
        <time>2022-07-29T13:57:59Z</time>
      </trkpt>
      <trkpt lat="46.28285" lon="5.66269">
        <ele>526.2</ele>
        <time>2022-07-29T13:58:00Z</time>
      </trkpt>
      <trkpt lat="46.28285" lon="5.66269">
        <ele>526.2</ele>
        <time>2022-07-29T13:58:01Z</time>
      </trkpt>
      <trkpt lat="46.28285" lon="5.66269">
        <ele>526.2</ele>
        <time>2022-07-29T13:58:02Z</time>
      </trkpt>
      <trkpt lat="46.28285" lon="5.66269">
        <ele>526.2</ele>
        <time>2022-07-29T13:58:05Z</time>
      </trkpt>
      <trkpt lat="46.28285" lon="5.66269">
        <ele>526.2</ele>
        <time>2022-07-29T13:58:06Z</time>
      </trkpt>
      <trkpt lat="46.28285" lon="5.66269">
        <ele>526.2</ele>
        <time>2022-07-29T13:58:07Z</time>
      </trkpt>
      <trkpt lat="46.28285" lon="5.66269">
        <ele>526.2</ele>
        <time>2022-07-29T13:58:08Z</time>
      </trkpt>
      <trkpt lat="46.28285" lon="5.66269">
        <ele>526.2</ele>
        <time>2022-07-29T13:58:09Z</time>
      </trkpt>
      <trkpt lat="46.28285" lon="5.66269">
        <ele>526.2</ele>
        <time>2022-07-29T13:58:10Z</time>
      </trkpt>
      <trkpt lat="46.28285" lon="5.66269">
        <ele>526.2</ele>
        <time>2022-07-29T13:58:11Z</time>
      </trkpt>
      <trkpt lat="46.28285" lon="5.66269">
        <ele>526.2</ele>
        <time>2022-07-29T13:58:12Z</time>
      </trkpt>
      <trkpt lat="46.28285" lon="5.66269">
        <ele>526.2</ele>
        <time>2022-07-29T13:58:13Z</time>
      </trkpt>
      <trkpt lat="46.28285" lon="5.66269">
        <ele>526.2</ele>
        <time>2022-07-29T13:58:14Z</time>
      </trkpt>
      <trkpt lat="46.28285" lon="5.66269">
        <ele>526.2</ele>
        <time>2022-07-29T13:58:15Z</time>
      </trkpt>
      <trkpt lat="46.28285" lon="5.66269">
        <ele>526.2</ele>
        <time>2022-07-29T13:58:24Z</time>
      </trkpt>
      <trkpt lat="46.28285" lon="5.66269">
        <ele>526.2</ele>
        <time>2022-07-29T13:58:25Z</time>
      </trkpt>
      <trkpt lat="46.28285" lon="5.66269">
        <ele>526.4</ele>
        <time>2022-07-29T13:58:26Z</time>
      </trkpt>
      <trkpt lat="46.28285" lon="5.66269">
        <ele>526.6</ele>
        <time>2022-07-29T13:58:27Z</time>
      </trkpt>
      <trkpt lat="46.28285" lon="5.66269">
        <ele>526.6</ele>
        <time>2022-07-29T13:58:28Z</time>
      </trkpt>
      <trkpt lat="46.28285" lon="5.66269">
        <ele>526.8</ele>
        <time>2022-07-29T13:58:29Z</time>
      </trkpt>
      <trkpt lat="46.28289" lon="5.66271">
        <ele>526.8</ele>
        <time>2022-07-29T13:58:30Z</time>
      </trkpt>
      <trkpt lat="46.2829" lon="5.66272">
        <ele>526.8</ele>
        <time>2022-07-29T13:58:31Z</time>
      </trkpt>
      <trkpt lat="46.2829" lon="5.66273">
        <ele>526.8</ele>
        <time>2022-07-29T13:58:32Z</time>
      </trkpt>
      <trkpt lat="46.28291" lon="5.66274">
        <ele>526.8</ele>
        <time>2022-07-29T13:58:33Z</time>
      </trkpt>
      <trkpt lat="46.28292" lon="5.66275">
        <ele>527</ele>
        <time>2022-07-29T13:58:34Z</time>
      </trkpt>
      <trkpt lat="46.28292" lon="5.66276">
        <ele>527</ele>
        <time>2022-07-29T13:58:35Z</time>
      </trkpt>
      <trkpt lat="46.28293" lon="5.66277">
        <ele>527</ele>
        <time>2022-07-29T13:58:36Z</time>
      </trkpt>
      <trkpt lat="46.28293" lon="5.66277">
        <ele>527</ele>
        <time>2022-07-29T13:58:37Z</time>
      </trkpt>
      <trkpt lat="46.28293" lon="5.66277">
        <ele>527</ele>
        <time>2022-07-29T13:58:38Z</time>
      </trkpt>
      <trkpt lat="46.28293" lon="5.66277">
        <ele>527</ele>
        <time>2022-07-29T13:58:39Z</time>
      </trkpt>
      <trkpt lat="46.28293" lon="5.66277">
        <ele>527</ele>
        <time>2022-07-29T13:58:40Z</time>
      </trkpt>
      <trkpt lat="46.28293" lon="5.66277">
        <ele>527</ele>
        <time>2022-07-29T13:58:41Z</time>
      </trkpt>
      <trkpt lat="46.28293" lon="5.66277">
        <ele>527</ele>
        <time>2022-07-29T13:58:42Z</time>
      </trkpt>
      <trkpt lat="46.28293" lon="5.66277">
        <ele>527</ele>
        <time>2022-07-29T13:58:43Z</time>
      </trkpt>
      <trkpt lat="46.28293" lon="5.66277">
        <ele>527</ele>
        <time>2022-07-29T13:58:44Z</time>
      </trkpt>
      <trkpt lat="46.28293" lon="5.66277">
        <ele>527</ele>
        <time>2022-07-29T13:58:45Z</time>
      </trkpt>
      <trkpt lat="46.28293" lon="5.66277">
        <ele>527</ele>
        <time>2022-07-29T13:58:46Z</time>
      </trkpt>
      <trkpt lat="46.28293" lon="5.66277">
        <ele>527</ele>
        <time>2022-07-29T13:58:47Z</time>
      </trkpt>
      <trkpt lat="46.28293" lon="5.66277">
        <ele>527</ele>
        <time>2022-07-29T13:58:48Z</time>
      </trkpt>
      <trkpt lat="46.28293" lon="5.66277">
        <ele>527</ele>
        <time>2022-07-29T13:58:49Z</time>
      </trkpt>
      <trkpt lat="46.28293" lon="5.66277">
        <ele>527</ele>
        <time>2022-07-29T13:58:50Z</time>
      </trkpt>
      <trkpt lat="46.28293" lon="5.66277">
        <ele>527</ele>
        <time>2022-07-29T13:58:51Z</time>
      </trkpt>
      <trkpt lat="46.28293" lon="5.66277">
        <ele>527</ele>
        <time>2022-07-29T13:58:52Z</time>
      </trkpt>
      <trkpt lat="46.28293" lon="5.66277">
        <ele>527</ele>
        <time>2022-07-29T13:58:53Z</time>
      </trkpt>
      <trkpt lat="46.28293" lon="5.66277">
        <ele>527</ele>
        <time>2022-07-29T13:58:54Z</time>
      </trkpt>
      <trkpt lat="46.28293" lon="5.66277">
        <ele>527</ele>
        <time>2022-07-29T13:58:55Z</time>
      </trkpt>
      <trkpt lat="46.28293" lon="5.66277">
        <ele>527</ele>
        <time>2022-07-29T13:58:56Z</time>
      </trkpt>
      <trkpt lat="46.28293" lon="5.66277">
        <ele>527</ele>
        <time>2022-07-29T13:58:57Z</time>
      </trkpt>
      <trkpt lat="46.28293" lon="5.66277">
        <ele>527</ele>
        <time>2022-07-29T13:58:58Z</time>
      </trkpt>
      <trkpt lat="46.28293" lon="5.66277">
        <ele>527</ele>
        <time>2022-07-29T13:58:59Z</time>
      </trkpt>
      <trkpt lat="46.28293" lon="5.66277">
        <ele>527</ele>
        <time>2022-07-29T13:59:00Z</time>
      </trkpt>
      <trkpt lat="46.28293" lon="5.66277">
        <ele>527</ele>
        <time>2022-07-29T13:59:01Z</time>
      </trkpt>
      <trkpt lat="46.28293" lon="5.66277">
        <ele>527</ele>
        <time>2022-07-29T13:59:02Z</time>
      </trkpt>
      <trkpt lat="46.28293" lon="5.66277">
        <ele>527</ele>
        <time>2022-07-29T13:59:03Z</time>
      </trkpt>
      <trkpt lat="46.28293" lon="5.66277">
        <ele>527</ele>
        <time>2022-07-29T13:59:04Z</time>
      </trkpt>
      <trkpt lat="46.28293" lon="5.66277">
        <ele>527</ele>
        <time>2022-07-29T13:59:05Z</time>
      </trkpt>
      <trkpt lat="46.28293" lon="5.66277">
        <ele>527</ele>
        <time>2022-07-29T13:59:06Z</time>
      </trkpt>
      <trkpt lat="46.28293" lon="5.66277">
        <ele>527</ele>
        <time>2022-07-29T13:59:07Z</time>
      </trkpt>
      <trkpt lat="46.28293" lon="5.66277">
        <ele>527</ele>
        <time>2022-07-29T13:59:08Z</time>
      </trkpt>
      <trkpt lat="46.28293" lon="5.66277">
        <ele>527</ele>
        <time>2022-07-29T13:59:09Z</time>
      </trkpt>
      <trkpt lat="46.28293" lon="5.66277">
        <ele>527</ele>
        <time>2022-07-29T13:59:10Z</time>
      </trkpt>
      <trkpt lat="46.28293" lon="5.66277">
        <ele>527</ele>
        <time>2022-07-29T13:59:11Z</time>
      </trkpt>
      <trkpt lat="46.28295" lon="5.6629">
        <ele>527</ele>
        <time>2022-07-29T13:59:12Z</time>
      </trkpt>
      <trkpt lat="46.28295" lon="5.6629">
        <ele>527</ele>
        <time>2022-07-29T13:59:13Z</time>
      </trkpt>
      <trkpt lat="46.28296" lon="5.66291">
        <ele>527</ele>
        <time>2022-07-29T13:59:14Z</time>
      </trkpt>
      <trkpt lat="46.28296" lon="5.66291">
        <ele>527</ele>
        <time>2022-07-29T13:59:15Z</time>
      </trkpt>
      <trkpt lat="46.28296" lon="5.66291">
        <ele>527</ele>
        <time>2022-07-29T13:59:16Z</time>
      </trkpt>
      <trkpt lat="46.28296" lon="5.66291">
        <ele>527</ele>
        <time>2022-07-29T13:59:17Z</time>
      </trkpt>
      <trkpt lat="46.28296" lon="5.66291">
        <ele>527</ele>
        <time>2022-07-29T13:59:18Z</time>
      </trkpt>
      <trkpt lat="46.28296" lon="5.66291">
        <ele>527</ele>
        <time>2022-07-29T13:59:19Z</time>
      </trkpt>
      <trkpt lat="46.28296" lon="5.66291">
        <ele>527</ele>
        <time>2022-07-29T13:59:20Z</time>
      </trkpt>
      <trkpt lat="46.28296" lon="5.66291">
        <ele>527</ele>
        <time>2022-07-29T13:59:21Z</time>
      </trkpt>
      <trkpt lat="46.28296" lon="5.66291">
        <ele>527</ele>
        <time>2022-07-29T13:59:22Z</time>
      </trkpt>
      <trkpt lat="46.28296" lon="5.66291">
        <ele>527</ele>
        <time>2022-07-29T13:59:23Z</time>
      </trkpt>
      <trkpt lat="46.28296" lon="5.66291">
        <ele>527</ele>
        <time>2022-07-29T13:59:24Z</time>
      </trkpt>
      <trkpt lat="46.28306" lon="5.66299">
        <ele>527</ele>
        <time>2022-07-29T13:59:26Z</time>
      </trkpt>
      <trkpt lat="46.2831" lon="5.66305">
        <ele>527</ele>
        <time>2022-07-29T13:59:27Z</time>
      </trkpt>
      <trkpt lat="46.28309" lon="5.66306">
        <ele>527</ele>
        <time>2022-07-29T13:59:28Z</time>
      </trkpt>
      <trkpt lat="46.28307" lon="5.66307">
        <ele>527</ele>
        <time>2022-07-29T13:59:29Z</time>
      </trkpt>
      <trkpt lat="46.28307" lon="5.66307">
        <ele>527</ele>
        <time>2022-07-29T13:59:30Z</time>
      </trkpt>
      <trkpt lat="46.28307" lon="5.66307">
        <ele>527</ele>
        <time>2022-07-29T13:59:31Z</time>
      </trkpt>
      <trkpt lat="46.28307" lon="5.66307">
        <ele>527</ele>
        <time>2022-07-29T13:59:32Z</time>
      </trkpt>
      <trkpt lat="46.28307" lon="5.66307">
        <ele>527</ele>
        <time>2022-07-29T13:59:33Z</time>
      </trkpt>
      <trkpt lat="46.28307" lon="5.66307">
        <ele>527</ele>
        <time>2022-07-29T13:59:34Z</time>
      </trkpt>
      <trkpt lat="46.28308" lon="5.66321">
        <ele>527</ele>
        <time>2022-07-29T13:59:35Z</time>
      </trkpt>
      <trkpt lat="46.28308" lon="5.66321">
        <ele>527</ele>
        <time>2022-07-29T13:59:36Z</time>
      </trkpt>
      <trkpt lat="46.28308" lon="5.66321">
        <ele>527</ele>
        <time>2022-07-29T13:59:37Z</time>
      </trkpt>
      <trkpt lat="46.28309" lon="5.66321">
        <ele>527</ele>
        <time>2022-07-29T13:59:38Z</time>
      </trkpt>
      <trkpt lat="46.28309" lon="5.66321">
        <ele>527</ele>
        <time>2022-07-29T13:59:39Z</time>
      </trkpt>
      <trkpt lat="46.28309" lon="5.66321">
        <ele>527</ele>
        <time>2022-07-29T13:59:40Z</time>
      </trkpt>
      <trkpt lat="46.28309" lon="5.66321">
        <ele>527</ele>
        <time>2022-07-29T13:59:41Z</time>
      </trkpt>
      <trkpt lat="46.28309" lon="5.66321">
        <ele>527</ele>
        <time>2022-07-29T13:59:42Z</time>
      </trkpt>
      <trkpt lat="46.28309" lon="5.66321">
        <ele>527</ele>
        <time>2022-07-29T13:59:43Z</time>
      </trkpt>
      <trkpt lat="46.28309" lon="5.66321">
        <ele>527</ele>
        <time>2022-07-29T13:59:44Z</time>
      </trkpt>
      <trkpt lat="46.28309" lon="5.66321">
        <ele>527</ele>
        <time>2022-07-29T13:59:45Z</time>
      </trkpt>
      <trkpt lat="46.28309" lon="5.66321">
        <ele>527</ele>
        <time>2022-07-29T13:59:46Z</time>
      </trkpt>
      <trkpt lat="46.28309" lon="5.66321">
        <ele>527</ele>
        <time>2022-07-29T13:59:47Z</time>
      </trkpt>
      <trkpt lat="46.28309" lon="5.66321">
        <ele>527.4</ele>
        <time>2022-07-29T13:59:48Z</time>
      </trkpt>
      <trkpt lat="46.28309" lon="5.66321">
        <ele>527.4</ele>
        <time>2022-07-29T13:59:49Z</time>
      </trkpt>
      <trkpt lat="46.28309" lon="5.66321">
        <ele>527.4</ele>
        <time>2022-07-29T13:59:50Z</time>
      </trkpt>
      <trkpt lat="46.28309" lon="5.66321">
        <ele>527.4</ele>
        <time>2022-07-29T13:59:51Z</time>
      </trkpt>
      <trkpt lat="46.28309" lon="5.66321">
        <ele>527.4</ele>
        <time>2022-07-29T13:59:52Z</time>
      </trkpt>
      <trkpt lat="46.28309" lon="5.66321">
        <ele>527.4</ele>
        <time>2022-07-29T13:59:53Z</time>
      </trkpt>
      <trkpt lat="46.28309" lon="5.66321">
        <ele>527.4</ele>
        <time>2022-07-29T13:59:54Z</time>
      </trkpt>
      <trkpt lat="46.28309" lon="5.66321">
        <ele>527.4</ele>
        <time>2022-07-29T13:59:55Z</time>
      </trkpt>
      <trkpt lat="46.28309" lon="5.66321">
        <ele>527.4</ele>
        <time>2022-07-29T13:59:56Z</time>
      </trkpt>
      <trkpt lat="46.28309" lon="5.66321">
        <ele>527.4</ele>
        <time>2022-07-29T13:59:57Z</time>
      </trkpt>
      <trkpt lat="46.28309" lon="5.66321">
        <ele>527.4</ele>
        <time>2022-07-29T13:59:58Z</time>
      </trkpt>
      <trkpt lat="46.28319" lon="5.66321">
        <ele>527.4</ele>
        <time>2022-07-29T13:59:59Z</time>
      </trkpt>
      <trkpt lat="46.28321" lon="5.66323">
        <ele>527.4</ele>
        <time>2022-07-29T14:00:00Z</time>
      </trkpt>
      <trkpt lat="46.28325" lon="5.6633">
        <ele>527.4</ele>
        <time>2022-07-29T14:00:01Z</time>
      </trkpt>
      <trkpt lat="46.28326" lon="5.66333">
        <ele>527.4</ele>
        <time>2022-07-29T14:00:02Z</time>
      </trkpt>
      <trkpt lat="46.28326" lon="5.66333">
        <ele>527.4</ele>
        <time>2022-07-29T14:00:03Z</time>
      </trkpt>
      <trkpt lat="46.28326" lon="5.66333">
        <ele>527.4</ele>
        <time>2022-07-29T14:00:04Z</time>
      </trkpt>
      <trkpt lat="46.28326" lon="5.66333">
        <ele>527.4</ele>
        <time>2022-07-29T14:00:05Z</time>
      </trkpt>
      <trkpt lat="46.28326" lon="5.66333">
        <ele>527.4</ele>
        <time>2022-07-29T14:00:06Z</time>
      </trkpt>
      <trkpt lat="46.28326" lon="5.66333">
        <ele>527.4</ele>
        <time>2022-07-29T14:00:07Z</time>
      </trkpt>
      <trkpt lat="46.28333" lon="5.66343">
        <ele>527.4</ele>
        <time>2022-07-29T14:00:08Z</time>
      </trkpt>
      <trkpt lat="46.28334" lon="5.66344">
        <ele>527.4</ele>
        <time>2022-07-29T14:00:09Z</time>
      </trkpt>
      <trkpt lat="46.28335" lon="5.66346">
        <ele>527.4</ele>
        <time>2022-07-29T14:00:10Z</time>
      </trkpt>
      <trkpt lat="46.28335" lon="5.66348">
        <ele>527.4</ele>
        <time>2022-07-29T14:00:11Z</time>
      </trkpt>
      <trkpt lat="46.28335" lon="5.66348">
        <ele>527.4</ele>
        <time>2022-07-29T14:00:12Z</time>
      </trkpt>
      <trkpt lat="46.28335" lon="5.66348">
        <ele>527.4</ele>
        <time>2022-07-29T14:00:13Z</time>
      </trkpt>
      <trkpt lat="46.28335" lon="5.66348">
        <ele>527.4</ele>
        <time>2022-07-29T14:00:14Z</time>
      </trkpt>
      <trkpt lat="46.2834" lon="5.66355">
        <ele>527.4</ele>
        <time>2022-07-29T14:00:15Z</time>
      </trkpt>
      <trkpt lat="46.28342" lon="5.66358">
        <ele>527.4</ele>
        <time>2022-07-29T14:00:16Z</time>
      </trkpt>
      <trkpt lat="46.28343" lon="5.66359">
        <ele>527.4</ele>
        <time>2022-07-29T14:00:17Z</time>
      </trkpt>
      <trkpt lat="46.28344" lon="5.66361">
        <ele>527.4</ele>
        <time>2022-07-29T14:00:18Z</time>
      </trkpt>
      <trkpt lat="46.28345" lon="5.66363">
        <ele>527.4</ele>
        <time>2022-07-29T14:00:19Z</time>
      </trkpt>
      <trkpt lat="46.28346" lon="5.66365">
        <ele>527.4</ele>
        <time>2022-07-29T14:00:20Z</time>
      </trkpt>
      <trkpt lat="46.28346" lon="5.66367">
        <ele>527.4</ele>
        <time>2022-07-29T14:00:21Z</time>
      </trkpt>
      <trkpt lat="46.28347" lon="5.66369">
        <ele>527.4</ele>
        <time>2022-07-29T14:00:22Z</time>
      </trkpt>
      <trkpt lat="46.28347" lon="5.66371">
        <ele>527.4</ele>
        <time>2022-07-29T14:00:23Z</time>
      </trkpt>
      <trkpt lat="46.28347" lon="5.66373">
        <ele>527.4</ele>
        <time>2022-07-29T14:00:24Z</time>
      </trkpt>
      <trkpt lat="46.28348" lon="5.66374">
        <ele>527.4</ele>
        <time>2022-07-29T14:00:25Z</time>
      </trkpt>
      <trkpt lat="46.28349" lon="5.66376">
        <ele>527.4</ele>
        <time>2022-07-29T14:00:26Z</time>
      </trkpt>
      <trkpt lat="46.2835" lon="5.66377">
        <ele>527.4</ele>
        <time>2022-07-29T14:00:27Z</time>
      </trkpt>
      <trkpt lat="46.2835" lon="5.66378">
        <ele>527.4</ele>
        <time>2022-07-29T14:00:28Z</time>
      </trkpt>
      <trkpt lat="46.28351" lon="5.6638">
        <ele>527.4</ele>
        <time>2022-07-29T14:00:29Z</time>
      </trkpt>
      <trkpt lat="46.28351" lon="5.66382">
        <ele>527.4</ele>
        <time>2022-07-29T14:00:30Z</time>
      </trkpt>
      <trkpt lat="46.28352" lon="5.66383">
        <ele>527.4</ele>
        <time>2022-07-29T14:00:31Z</time>
      </trkpt>
      <trkpt lat="46.28352" lon="5.66385">
        <ele>527.4</ele>
        <time>2022-07-29T14:00:32Z</time>
      </trkpt>
      <trkpt lat="46.28352" lon="5.66386">
        <ele>527.4</ele>
        <time>2022-07-29T14:00:33Z</time>
      </trkpt>
      <trkpt lat="46.28353" lon="5.66387">
        <ele>527.4</ele>
        <time>2022-07-29T14:00:34Z</time>
      </trkpt>
      <trkpt lat="46.28354" lon="5.66388">
        <ele>527.4</ele>
        <time>2022-07-29T14:00:35Z</time>
      </trkpt>
      <trkpt lat="46.28354" lon="5.6639">
        <ele>527.4</ele>
        <time>2022-07-29T14:00:36Z</time>
      </trkpt>
      <trkpt lat="46.28354" lon="5.66391">
        <ele>527.4</ele>
        <time>2022-07-29T14:00:37Z</time>
      </trkpt>
      <trkpt lat="46.28355" lon="5.66391">
        <ele>527.4</ele>
        <time>2022-07-29T14:00:38Z</time>
      </trkpt>
      <trkpt lat="46.28355" lon="5.66391">
        <ele>527.4</ele>
        <time>2022-07-29T14:00:39Z</time>
      </trkpt>
      <trkpt lat="46.28356" lon="5.66389">
        <ele>527.4</ele>
        <time>2022-07-29T14:00:40Z</time>
      </trkpt>
      <trkpt lat="46.28358" lon="5.66388">
        <ele>527.4</ele>
        <time>2022-07-29T14:00:41Z</time>
      </trkpt>
      <trkpt lat="46.28359" lon="5.66386">
        <ele>527.4</ele>
        <time>2022-07-29T14:00:42Z</time>
      </trkpt>
      <trkpt lat="46.2836" lon="5.66384">
        <ele>527.4</ele>
        <time>2022-07-29T14:00:43Z</time>
      </trkpt>
      <trkpt lat="46.28361" lon="5.66382">
        <ele>527.4</ele>
        <time>2022-07-29T14:00:44Z</time>
      </trkpt>
      <trkpt lat="46.28362" lon="5.6638">
        <ele>527.4</ele>
        <time>2022-07-29T14:00:45Z</time>
      </trkpt>
      <trkpt lat="46.28362" lon="5.6638">
        <ele>527.4</ele>
        <time>2022-07-29T14:00:46Z</time>
      </trkpt>
      <trkpt lat="46.28362" lon="5.6638">
        <ele>527.4</ele>
        <time>2022-07-29T14:00:47Z</time>
      </trkpt>
      <trkpt lat="46.28362" lon="5.6638">
        <ele>527.4</ele>
        <time>2022-07-29T14:00:48Z</time>
      </trkpt>
      <trkpt lat="46.28362" lon="5.6638">
        <ele>527.4</ele>
        <time>2022-07-29T14:00:49Z</time>
      </trkpt>
      <trkpt lat="46.28362" lon="5.6638">
        <ele>527.4</ele>
        <time>2022-07-29T14:00:50Z</time>
      </trkpt>
      <trkpt lat="46.28365" lon="5.66368">
        <ele>527.4</ele>
        <time>2022-07-29T14:00:51Z</time>
      </trkpt>
      <trkpt lat="46.28366" lon="5.66366">
        <ele>527.4</ele>
        <time>2022-07-29T14:00:52Z</time>
      </trkpt>
      <trkpt lat="46.28366" lon="5.66362">
        <ele>527.4</ele>
        <time>2022-07-29T14:00:53Z</time>
      </trkpt>
      <trkpt lat="46.28366" lon="5.66362">
        <ele>527.4</ele>
        <time>2022-07-29T14:00:54Z</time>
      </trkpt>
      <trkpt lat="46.28337" lon="5.66349">
        <ele>527.2</ele>
        <time>2022-07-29T14:02:45Z</time>
      </trkpt>
      <trkpt lat="46.28345" lon="5.66347">
        <ele>527.2</ele>
        <time>2022-07-29T14:02:46Z</time>
      </trkpt>
      <trkpt lat="46.28346" lon="5.66345">
        <ele>527.2</ele>
        <time>2022-07-29T14:02:47Z</time>
      </trkpt>
      <trkpt lat="46.28347" lon="5.66346">
        <ele>527.2</ele>
        <time>2022-07-29T14:02:48Z</time>
      </trkpt>
      <trkpt lat="46.28347" lon="5.66346">
        <ele>527.2</ele>
        <time>2022-07-29T14:02:49Z</time>
      </trkpt>
      <trkpt lat="46.28347" lon="5.66346">
        <ele>527.2</ele>
        <time>2022-07-29T14:02:50Z</time>
      </trkpt>
      <trkpt lat="46.28347" lon="5.66346">
        <ele>527.2</ele>
        <time>2022-07-29T14:02:51Z</time>
      </trkpt>
      <trkpt lat="46.28347" lon="5.66346">
        <ele>527.2</ele>
        <time>2022-07-29T14:02:52Z</time>
      </trkpt>
      <trkpt lat="46.28347" lon="5.66346">
        <ele>527.2</ele>
        <time>2022-07-29T14:02:53Z</time>
      </trkpt>
      <trkpt lat="46.28347" lon="5.66346">
        <ele>527.2</ele>
        <time>2022-07-29T14:02:55Z</time>
      </trkpt>
      <trkpt lat="46.28347" lon="5.66346">
        <ele>527.2</ele>
        <time>2022-07-29T14:02:56Z</time>
      </trkpt>
      <trkpt lat="46.28347" lon="5.66346">
        <ele>527.2</ele>
        <time>2022-07-29T14:02:59Z</time>
      </trkpt>
      <trkpt lat="46.28347" lon="5.66346">
        <ele>527.2</ele>
        <time>2022-07-29T14:03:00Z</time>
      </trkpt>
      <trkpt lat="46.28347" lon="5.66346">
        <ele>527.2</ele>
        <time>2022-07-29T14:03:02Z</time>
      </trkpt>
      <trkpt lat="46.28347" lon="5.66346">
        <ele>527.2</ele>
        <time>2022-07-29T14:03:03Z</time>
      </trkpt>
      <trkpt lat="46.28347" lon="5.66346">
        <ele>527.2</ele>
        <time>2022-07-29T14:03:04Z</time>
      </trkpt>
      <trkpt lat="46.28347" lon="5.66346">
        <ele>527.2</ele>
        <time>2022-07-29T14:03:05Z</time>
      </trkpt>
      <trkpt lat="46.28347" lon="5.66346">
        <ele>527.2</ele>
        <time>2022-07-29T14:03:06Z</time>
      </trkpt>
      <trkpt lat="46.28347" lon="5.66346">
        <ele>527.2</ele>
        <time>2022-07-29T14:03:07Z</time>
      </trkpt>
      <trkpt lat="46.28347" lon="5.66346">
        <ele>527.2</ele>
        <time>2022-07-29T14:03:08Z</time>
      </trkpt>
      <trkpt lat="46.28347" lon="5.66346">
        <ele>527.2</ele>
        <time>2022-07-29T14:03:11Z</time>
      </trkpt>
      <trkpt lat="46.28347" lon="5.66346">
        <ele>527.2</ele>
        <time>2022-07-29T14:03:12Z</time>
      </trkpt>
      <trkpt lat="46.28347" lon="5.66346">
        <ele>527.2</ele>
        <time>2022-07-29T14:03:14Z</time>
      </trkpt>
      <trkpt lat="46.28347" lon="5.66346">
        <ele>527.2</ele>
        <time>2022-07-29T14:03:15Z</time>
      </trkpt>
      <trkpt lat="46.28347" lon="5.66346">
        <ele>527.2</ele>
        <time>2022-07-29T14:03:16Z</time>
      </trkpt>
      <trkpt lat="46.2834" lon="5.66354">
        <ele>527.2</ele>
        <time>2022-07-29T14:03:17Z</time>
      </trkpt>
      <trkpt lat="46.28338" lon="5.66353">
        <ele>527.2</ele>
        <time>2022-07-29T14:03:18Z</time>
      </trkpt>
      <trkpt lat="46.28336" lon="5.66352">
        <ele>527.2</ele>
        <time>2022-07-29T14:03:19Z</time>
      </trkpt>
      <trkpt lat="46.28336" lon="5.66351">
        <ele>527.2</ele>
        <time>2022-07-29T14:03:20Z</time>
      </trkpt>
      <trkpt lat="46.28336" lon="5.66351">
        <ele>527.2</ele>
        <time>2022-07-29T14:03:21Z</time>
      </trkpt>
      <trkpt lat="46.28336" lon="5.66351">
        <ele>527.2</ele>
        <time>2022-07-29T14:03:24Z</time>
      </trkpt>
      <trkpt lat="46.28336" lon="5.66351">
        <ele>527.2</ele>
        <time>2022-07-29T14:03:25Z</time>
      </trkpt>
      <trkpt lat="46.28336" lon="5.66351">
        <ele>527.2</ele>
        <time>2022-07-29T14:03:26Z</time>
      </trkpt>
      <trkpt lat="46.28336" lon="5.66351">
        <ele>527.2</ele>
        <time>2022-07-29T14:03:27Z</time>
      </trkpt>
      <trkpt lat="46.28336" lon="5.66351">
        <ele>527.2</ele>
        <time>2022-07-29T14:03:28Z</time>
      </trkpt>
      <trkpt lat="46.28336" lon="5.66351">
        <ele>527.2</ele>
        <time>2022-07-29T14:03:29Z</time>
      </trkpt>
      <trkpt lat="46.28336" lon="5.66351">
        <ele>527.2</ele>
        <time>2022-07-29T14:03:30Z</time>
      </trkpt>
      <trkpt lat="46.28336" lon="5.66351">
        <ele>527.2</ele>
        <time>2022-07-29T14:03:31Z</time>
      </trkpt>
      <trkpt lat="46.28336" lon="5.66351">
        <ele>527.2</ele>
        <time>2022-07-29T14:03:32Z</time>
      </trkpt>
      <trkpt lat="46.28336" lon="5.66351">
        <ele>527.2</ele>
        <time>2022-07-29T14:03:33Z</time>
      </trkpt>
      <trkpt lat="46.28336" lon="5.66351">
        <ele>527.2</ele>
        <time>2022-07-29T14:03:34Z</time>
      </trkpt>
      <trkpt lat="46.28336" lon="5.66351">
        <ele>527.2</ele>
        <time>2022-07-29T14:03:35Z</time>
      </trkpt>
      <trkpt lat="46.28336" lon="5.66351">
        <ele>527.2</ele>
        <time>2022-07-29T14:03:36Z</time>
      </trkpt>
      <trkpt lat="46.28336" lon="5.66351">
        <ele>527.2</ele>
        <time>2022-07-29T14:03:37Z</time>
      </trkpt>
      <trkpt lat="46.28336" lon="5.66351">
        <ele>527.2</ele>
        <time>2022-07-29T14:03:38Z</time>
      </trkpt>
      <trkpt lat="46.28327" lon="5.66345">
        <ele>527.2</ele>
        <time>2022-07-29T14:03:39Z</time>
      </trkpt>
      <trkpt lat="46.28325" lon="5.66343">
        <ele>527.2</ele>
        <time>2022-07-29T14:03:40Z</time>
      </trkpt>
      <trkpt lat="46.28322" lon="5.66342">
        <ele>527.2</ele>
        <time>2022-07-29T14:03:41Z</time>
      </trkpt>
      <trkpt lat="46.28321" lon="5.66341">
        <ele>527.2</ele>
        <time>2022-07-29T14:03:42Z</time>
      </trkpt>
      <trkpt lat="46.28321" lon="5.66341">
        <ele>527.2</ele>
        <time>2022-07-29T14:03:43Z</time>
      </trkpt>
      <trkpt lat="46.28314" lon="5.66331">
        <ele>527.2</ele>
        <time>2022-07-29T14:03:44Z</time>
      </trkpt>
      <trkpt lat="46.2831" lon="5.66328">
        <ele>527.2</ele>
        <time>2022-07-29T14:03:45Z</time>
      </trkpt>
      <trkpt lat="46.28307" lon="5.66325">
        <ele>527.2</ele>
        <time>2022-07-29T14:03:46Z</time>
      </trkpt>
      <trkpt lat="46.28306" lon="5.66322">
        <ele>527.2</ele>
        <time>2022-07-29T14:03:47Z</time>
      </trkpt>
      <trkpt lat="46.28306" lon="5.66322">
        <ele>527.2</ele>
        <time>2022-07-29T14:03:48Z</time>
      </trkpt>
      <trkpt lat="46.28306" lon="5.66322">
        <ele>527.2</ele>
        <time>2022-07-29T14:03:49Z</time>
      </trkpt>
      <trkpt lat="46.28306" lon="5.66322">
        <ele>527.2</ele>
        <time>2022-07-29T14:03:50Z</time>
      </trkpt>
      <trkpt lat="46.28301" lon="5.66309">
        <ele>527.2</ele>
        <time>2022-07-29T14:03:51Z</time>
      </trkpt>
      <trkpt lat="46.28299" lon="5.66308">
        <ele>527.2</ele>
        <time>2022-07-29T14:03:52Z</time>
      </trkpt>
      <trkpt lat="46.28298" lon="5.66307">
        <ele>527.2</ele>
        <time>2022-07-29T14:03:53Z</time>
      </trkpt>
      <trkpt lat="46.28298" lon="5.66306">
        <ele>527.2</ele>
        <time>2022-07-29T14:03:54Z</time>
      </trkpt>
      <trkpt lat="46.28298" lon="5.66306">
        <ele>527.2</ele>
        <time>2022-07-29T14:03:55Z</time>
      </trkpt>
      <trkpt lat="46.28298" lon="5.66306">
        <ele>527.2</ele>
        <time>2022-07-29T14:03:56Z</time>
      </trkpt>
      <trkpt lat="46.28298" lon="5.66306">
        <ele>527.2</ele>
        <time>2022-07-29T14:03:57Z</time>
      </trkpt>
      <trkpt lat="46.28298" lon="5.66306">
        <ele>527.2</ele>
        <time>2022-07-29T14:03:58Z</time>
      </trkpt>
      <trkpt lat="46.28298" lon="5.66306">
        <ele>527.2</ele>
        <time>2022-07-29T14:04:02Z</time>
      </trkpt>
      <trkpt lat="46.28298" lon="5.66306">
        <ele>527.2</ele>
        <time>2022-07-29T14:04:03Z</time>
      </trkpt>
      <trkpt lat="46.28298" lon="5.66306">
        <ele>527.2</ele>
        <time>2022-07-29T14:04:04Z</time>
      </trkpt>
      <trkpt lat="46.28298" lon="5.66306">
        <ele>527.2</ele>
        <time>2022-07-29T14:04:05Z</time>
      </trkpt>
      <trkpt lat="46.28296" lon="5.66291">
        <ele>527.2</ele>
        <time>2022-07-29T14:04:06Z</time>
      </trkpt>
      <trkpt lat="46.28294" lon="5.66288">
        <ele>527.2</ele>
        <time>2022-07-29T14:04:07Z</time>
      </trkpt>
      <trkpt lat="46.28293" lon="5.66286">
        <ele>527.2</ele>
        <time>2022-07-29T14:04:08Z</time>
      </trkpt>
      <trkpt lat="46.28292" lon="5.66285">
        <ele>527.2</ele>
        <time>2022-07-29T14:04:09Z</time>
      </trkpt>
      <trkpt lat="46.28291" lon="5.66283">
        <ele>527.2</ele>
        <time>2022-07-29T14:04:10Z</time>
      </trkpt>
      <trkpt lat="46.2829" lon="5.66282">
        <ele>527.2</ele>
        <time>2022-07-29T14:04:11Z</time>
      </trkpt>
      <trkpt lat="46.28289" lon="5.66281">
        <ele>527.2</ele>
        <time>2022-07-29T14:04:12Z</time>
      </trkpt>
      <trkpt lat="46.28289" lon="5.6628">
        <ele>527.2</ele>
        <time>2022-07-29T14:04:13Z</time>
      </trkpt>
      <trkpt lat="46.28288" lon="5.66278">
        <ele>527.2</ele>
        <time>2022-07-29T14:04:14Z</time>
      </trkpt>
      <trkpt lat="46.28287" lon="5.66277">
        <ele>527.2</ele>
        <time>2022-07-29T14:04:15Z</time>
      </trkpt>
      <trkpt lat="46.28287" lon="5.66275">
        <ele>527.2</ele>
        <time>2022-07-29T14:04:16Z</time>
      </trkpt>
      <trkpt lat="46.28286" lon="5.66274">
        <ele>527.2</ele>
        <time>2022-07-29T14:04:17Z</time>
      </trkpt>
      <trkpt lat="46.28286" lon="5.66274">
        <ele>527.2</ele>
        <time>2022-07-29T14:04:18Z</time>
      </trkpt>
      <trkpt lat="46.28286" lon="5.66274">
        <ele>527.2</ele>
        <time>2022-07-29T14:04:20Z</time>
      </trkpt>
      <trkpt lat="46.28286" lon="5.66274">
        <ele>527.2</ele>
        <time>2022-07-29T14:04:21Z</time>
      </trkpt>
      <trkpt lat="46.28286" lon="5.66274">
        <ele>527.2</ele>
        <time>2022-07-29T14:04:22Z</time>
      </trkpt>
      <trkpt lat="46.28286" lon="5.66274">
        <ele>527.2</ele>
        <time>2022-07-29T14:04:23Z</time>
      </trkpt>
      <trkpt lat="46.28286" lon="5.66274">
        <ele>527.2</ele>
        <time>2022-07-29T14:04:24Z</time>
      </trkpt>
      <trkpt lat="46.28281" lon="5.66263">
        <ele>527.2</ele>
        <time>2022-07-29T14:04:26Z</time>
      </trkpt>
      <trkpt lat="46.28281" lon="5.66262">
        <ele>527.2</ele>
        <time>2022-07-29T14:04:27Z</time>
      </trkpt>
      <trkpt lat="46.28281" lon="5.66261">
        <ele>527.2</ele>
        <time>2022-07-29T14:04:28Z</time>
      </trkpt>
      <trkpt lat="46.28282" lon="5.6626">
        <ele>527.2</ele>
        <time>2022-07-29T14:04:29Z</time>
      </trkpt>
      <trkpt lat="46.28282" lon="5.6626">
        <ele>527.2</ele>
        <time>2022-07-29T14:04:30Z</time>
      </trkpt>
      <trkpt lat="46.28282" lon="5.6626">
        <ele>527.2</ele>
        <time>2022-07-29T14:04:31Z</time>
      </trkpt>
      <trkpt lat="46.28282" lon="5.6626">
        <ele>527.2</ele>
        <time>2022-07-29T14:04:32Z</time>
      </trkpt>
      <trkpt lat="46.28284" lon="5.66253">
        <ele>527.2</ele>
        <time>2022-07-29T14:04:36Z</time>
      </trkpt>
      <trkpt lat="46.28283" lon="5.66251">
        <ele>527.2</ele>
        <time>2022-07-29T14:04:37Z</time>
      </trkpt>
      <trkpt lat="46.28281" lon="5.66249">
        <ele>527.2</ele>
        <time>2022-07-29T14:04:38Z</time>
      </trkpt>
      <trkpt lat="46.2828" lon="5.66248">
        <ele>527.2</ele>
        <time>2022-07-29T14:04:39Z</time>
      </trkpt>
      <trkpt lat="46.28279" lon="5.66246">
        <ele>527.2</ele>
        <time>2022-07-29T14:04:40Z</time>
      </trkpt>
      <trkpt lat="46.28278" lon="5.66244">
        <ele>527.2</ele>
        <time>2022-07-29T14:04:41Z</time>
      </trkpt>
      <trkpt lat="46.28278" lon="5.66243">
        <ele>527.2</ele>
        <time>2022-07-29T14:04:42Z</time>
      </trkpt>
      <trkpt lat="46.28276" lon="5.66242">
        <ele>527</ele>
        <time>2022-07-29T14:04:43Z</time>
      </trkpt>
      <trkpt lat="46.28275" lon="5.6624">
        <ele>527</ele>
        <time>2022-07-29T14:04:44Z</time>
      </trkpt>
      <trkpt lat="46.28275" lon="5.66239">
        <ele>527</ele>
        <time>2022-07-29T14:04:45Z</time>
      </trkpt>
      <trkpt lat="46.28274" lon="5.66238">
        <ele>527</ele>
        <time>2022-07-29T14:04:46Z</time>
      </trkpt>
      <trkpt lat="46.28273" lon="5.66237">
        <ele>527</ele>
        <time>2022-07-29T14:04:47Z</time>
      </trkpt>
      <trkpt lat="46.28272" lon="5.66235">
        <ele>527</ele>
        <time>2022-07-29T14:04:48Z</time>
      </trkpt>
      <trkpt lat="46.28271" lon="5.66234">
        <ele>527</ele>
        <time>2022-07-29T14:04:49Z</time>
      </trkpt>
      <trkpt lat="46.2827" lon="5.66233">
        <ele>527</ele>
        <time>2022-07-29T14:04:50Z</time>
      </trkpt>
      <trkpt lat="46.28269" lon="5.66231">
        <ele>527</ele>
        <time>2022-07-29T14:04:51Z</time>
      </trkpt>
      <trkpt lat="46.28269" lon="5.6623">
        <ele>527</ele>
        <time>2022-07-29T14:04:52Z</time>
      </trkpt>
      <trkpt lat="46.28268" lon="5.66229">
        <ele>527</ele>
        <time>2022-07-29T14:04:53Z</time>
      </trkpt>
      <trkpt lat="46.28268" lon="5.66228">
        <ele>527</ele>
        <time>2022-07-29T14:04:54Z</time>
      </trkpt>
      <trkpt lat="46.28268" lon="5.66228">
        <ele>527</ele>
        <time>2022-07-29T14:04:55Z</time>
      </trkpt>
      <trkpt lat="46.28268" lon="5.66228">
        <ele>527</ele>
        <time>2022-07-29T14:04:56Z</time>
      </trkpt>
      <trkpt lat="46.28268" lon="5.66228">
        <ele>527</ele>
        <time>2022-07-29T14:04:57Z</time>
      </trkpt>
      <trkpt lat="46.28268" lon="5.66228">
        <ele>527</ele>
        <time>2022-07-29T14:04:58Z</time>
      </trkpt>
      <trkpt lat="46.28268" lon="5.66228">
        <ele>527</ele>
        <time>2022-07-29T14:04:59Z</time>
      </trkpt>
      <trkpt lat="46.28268" lon="5.66228">
        <ele>527</ele>
        <time>2022-07-29T14:05:00Z</time>
      </trkpt>
      <trkpt lat="46.28268" lon="5.66228">
        <ele>527</ele>
        <time>2022-07-29T14:05:01Z</time>
      </trkpt>
      <trkpt lat="46.28268" lon="5.66228">
        <ele>527</ele>
        <time>2022-07-29T14:05:02Z</time>
      </trkpt>
      <trkpt lat="46.28268" lon="5.66228">
        <ele>527</ele>
        <time>2022-07-29T14:05:03Z</time>
      </trkpt>
      <trkpt lat="46.28268" lon="5.66228">
        <ele>527</ele>
        <time>2022-07-29T14:05:04Z</time>
      </trkpt>
      <trkpt lat="46.28268" lon="5.66228">
        <ele>527</ele>
        <time>2022-07-29T14:05:05Z</time>
      </trkpt>
      <trkpt lat="46.28268" lon="5.66228">
        <ele>527</ele>
        <time>2022-07-29T14:05:06Z</time>
      </trkpt>
      <trkpt lat="46.28268" lon="5.66228">
        <ele>527</ele>
        <time>2022-07-29T14:05:07Z</time>
      </trkpt>
      <trkpt lat="46.28268" lon="5.66228">
        <ele>527</ele>
        <time>2022-07-29T14:05:08Z</time>
      </trkpt>
      <trkpt lat="46.28268" lon="5.66228">
        <ele>527</ele>
        <time>2022-07-29T14:05:09Z</time>
      </trkpt>
      <trkpt lat="46.28268" lon="5.66228">
        <ele>527.2</ele>
        <time>2022-07-29T14:05:10Z</time>
      </trkpt>
      <trkpt lat="46.28268" lon="5.66228">
        <ele>527.2</ele>
        <time>2022-07-29T14:05:11Z</time>
      </trkpt>
      <trkpt lat="46.28268" lon="5.66228">
        <ele>527.2</ele>
        <time>2022-07-29T14:05:12Z</time>
      </trkpt>
      <trkpt lat="46.28268" lon="5.66228">
        <ele>527.2</ele>
        <time>2022-07-29T14:05:13Z</time>
      </trkpt>
      <trkpt lat="46.28268" lon="5.66228">
        <ele>527.2</ele>
        <time>2022-07-29T14:05:14Z</time>
      </trkpt>
      <trkpt lat="46.28268" lon="5.66228">
        <ele>527.2</ele>
        <time>2022-07-29T14:05:15Z</time>
      </trkpt>
      <trkpt lat="46.28268" lon="5.66228">
        <ele>527.2</ele>
        <time>2022-07-29T14:05:16Z</time>
      </trkpt>
      <trkpt lat="46.28268" lon="5.66228">
        <ele>527.2</ele>
        <time>2022-07-29T14:05:17Z</time>
      </trkpt>
      <trkpt lat="46.28268" lon="5.66228">
        <ele>527.2</ele>
        <time>2022-07-29T14:05:18Z</time>
      </trkpt>
      <trkpt lat="46.28268" lon="5.66228">
        <ele>527.2</ele>
        <time>2022-07-29T14:05:19Z</time>
      </trkpt>
      <trkpt lat="46.28268" lon="5.66228">
        <ele>527.2</ele>
        <time>2022-07-29T14:05:20Z</time>
      </trkpt>
      <trkpt lat="46.28268" lon="5.66228">
        <ele>527.2</ele>
        <time>2022-07-29T14:05:21Z</time>
      </trkpt>
      <trkpt lat="46.28268" lon="5.66228">
        <ele>527.2</ele>
        <time>2022-07-29T14:05:22Z</time>
      </trkpt>
      <trkpt lat="46.28268" lon="5.66228">
        <ele>527.2</ele>
        <time>2022-07-29T14:05:23Z</time>
      </trkpt>
      <trkpt lat="46.28268" lon="5.66228">
        <ele>527.2</ele>
        <time>2022-07-29T14:05:31Z</time>
      </trkpt>
      <trkpt lat="46.28268" lon="5.66228">
        <ele>527.2</ele>
        <time>2022-07-29T14:05:32Z</time>
      </trkpt>
      <trkpt lat="46.28268" lon="5.66228">
        <ele>527.2</ele>
        <time>2022-07-29T14:05:33Z</time>
      </trkpt>
      <trkpt lat="46.28268" lon="5.66228">
        <ele>527.2</ele>
        <time>2022-07-29T14:05:34Z</time>
      </trkpt>
      <trkpt lat="46.28272" lon="5.6624">
        <ele>527.2</ele>
        <time>2022-07-29T14:05:35Z</time>
      </trkpt>
      <trkpt lat="46.28272" lon="5.66241">
        <ele>527.2</ele>
        <time>2022-07-29T14:05:36Z</time>
      </trkpt>
      <trkpt lat="46.28273" lon="5.66241">
        <ele>527.2</ele>
        <time>2022-07-29T14:05:37Z</time>
      </trkpt>
      <trkpt lat="46.28273" lon="5.66242">
        <ele>527.2</ele>
        <time>2022-07-29T14:05:38Z</time>
      </trkpt>
      <trkpt lat="46.28273" lon="5.66242">
        <ele>527.2</ele>
        <time>2022-07-29T14:05:39Z</time>
      </trkpt>
      <trkpt lat="46.28273" lon="5.66242">
        <ele>527.2</ele>
        <time>2022-07-29T14:05:40Z</time>
      </trkpt>
      <trkpt lat="46.28273" lon="5.66242">
        <ele>527.2</ele>
        <time>2022-07-29T14:05:41Z</time>
      </trkpt>
      <trkpt lat="46.28273" lon="5.66242">
        <ele>527.2</ele>
        <time>2022-07-29T14:05:42Z</time>
      </trkpt>
      <trkpt lat="46.28273" lon="5.66242">
        <ele>527.2</ele>
        <time>2022-07-29T14:05:43Z</time>
      </trkpt>
      <trkpt lat="46.28273" lon="5.66242">
        <ele>527.2</ele>
        <time>2022-07-29T14:05:44Z</time>
      </trkpt>
      <trkpt lat="46.28273" lon="5.66242">
        <ele>527.2</ele>
        <time>2022-07-29T14:05:45Z</time>
      </trkpt>
      <trkpt lat="46.28273" lon="5.66242">
        <ele>527.2</ele>
        <time>2022-07-29T14:05:46Z</time>
      </trkpt>
      <trkpt lat="46.28273" lon="5.66242">
        <ele>527.2</ele>
        <time>2022-07-29T14:05:47Z</time>
      </trkpt>
      <trkpt lat="46.28273" lon="5.66242">
        <ele>527.2</ele>
        <time>2022-07-29T14:05:48Z</time>
      </trkpt>
      <trkpt lat="46.28273" lon="5.66242">
        <ele>527.2</ele>
        <time>2022-07-29T14:05:49Z</time>
      </trkpt>
      <trkpt lat="46.28273" lon="5.66242">
        <ele>527.2</ele>
        <time>2022-07-29T14:05:50Z</time>
      </trkpt>
      <trkpt lat="46.28273" lon="5.66242">
        <ele>527.2</ele>
        <time>2022-07-29T14:05:51Z</time>
      </trkpt>
      <trkpt lat="46.28273" lon="5.66242">
        <ele>527.2</ele>
        <time>2022-07-29T14:05:52Z</time>
      </trkpt>
      <trkpt lat="46.28273" lon="5.66242">
        <ele>527.2</ele>
        <time>2022-07-29T14:05:53Z</time>
      </trkpt>
      <trkpt lat="46.28273" lon="5.66242">
        <ele>527.2</ele>
        <time>2022-07-29T14:05:54Z</time>
      </trkpt>
      <trkpt lat="46.28273" lon="5.66242">
        <ele>527.2</ele>
        <time>2022-07-29T14:05:55Z</time>
      </trkpt>
      <trkpt lat="46.28273" lon="5.66242">
        <ele>527.2</ele>
        <time>2022-07-29T14:05:56Z</time>
      </trkpt>
      <trkpt lat="46.28273" lon="5.66242">
        <ele>527.2</ele>
        <time>2022-07-29T14:05:57Z</time>
      </trkpt>
      <trkpt lat="46.28273" lon="5.66242">
        <ele>527.2</ele>
        <time>2022-07-29T14:05:58Z</time>
      </trkpt>
      <trkpt lat="46.28273" lon="5.66242">
        <ele>527.2</ele>
        <time>2022-07-29T14:05:59Z</time>
      </trkpt>
      <trkpt lat="46.28273" lon="5.66242">
        <ele>527.2</ele>
        <time>2022-07-29T14:06:02Z</time>
      </trkpt>
      <trkpt lat="46.28273" lon="5.66242">
        <ele>527.2</ele>
        <time>2022-07-29T14:06:03Z</time>
      </trkpt>
      <trkpt lat="46.28273" lon="5.66242">
        <ele>527.2</ele>
        <time>2022-07-29T14:06:05Z</time>
      </trkpt>
      <trkpt lat="46.28273" lon="5.66242">
        <ele>527.2</ele>
        <time>2022-07-29T14:06:06Z</time>
      </trkpt>
      <trkpt lat="46.28264" lon="5.66248">
        <ele>527.2</ele>
        <time>2022-07-29T14:06:07Z</time>
      </trkpt>
      <trkpt lat="46.28265" lon="5.66249">
        <ele>527.2</ele>
        <time>2022-07-29T14:06:08Z</time>
      </trkpt>
      <trkpt lat="46.28265" lon="5.6625">
        <ele>527.2</ele>
        <time>2022-07-29T14:06:09Z</time>
      </trkpt>
      <trkpt lat="46.28264" lon="5.66249">
        <ele>527.2</ele>
        <time>2022-07-29T14:06:10Z</time>
      </trkpt>
      <trkpt lat="46.28264" lon="5.66249">
        <ele>527.2</ele>
        <time>2022-07-29T14:06:11Z</time>
      </trkpt>
      <trkpt lat="46.28264" lon="5.66249">
        <ele>527.2</ele>
        <time>2022-07-29T14:06:12Z</time>
      </trkpt>
      <trkpt lat="46.28264" lon="5.66249">
        <ele>527.2</ele>
        <time>2022-07-29T14:06:13Z</time>
      </trkpt>
      <trkpt lat="46.28264" lon="5.66249">
        <ele>527.2</ele>
        <time>2022-07-29T14:06:15Z</time>
      </trkpt>
      <trkpt lat="46.28264" lon="5.66249">
        <ele>527.2</ele>
        <time>2022-07-29T14:06:16Z</time>
      </trkpt>
      <trkpt lat="46.28264" lon="5.66249">
        <ele>527.2</ele>
        <time>2022-07-29T14:06:17Z</time>
      </trkpt>
      <trkpt lat="46.28264" lon="5.66249">
        <ele>527.2</ele>
        <time>2022-07-29T14:06:18Z</time>
      </trkpt>
      <trkpt lat="46.28264" lon="5.66249">
        <ele>527.2</ele>
        <time>2022-07-29T14:06:20Z</time>
      </trkpt>
      <trkpt lat="46.28255" lon="5.66247">
        <ele>527.2</ele>
        <time>2022-07-29T14:06:21Z</time>
      </trkpt>
      <trkpt lat="46.28254" lon="5.66248">
        <ele>527.2</ele>
        <time>2022-07-29T14:06:22Z</time>
      </trkpt>
      <trkpt lat="46.28254" lon="5.66248">
        <ele>527.2</ele>
        <time>2022-07-29T14:06:23Z</time>
      </trkpt>
      <trkpt lat="46.28254" lon="5.66248">
        <ele>527</ele>
        <time>2022-07-29T14:06:24Z</time>
      </trkpt>
      <trkpt lat="46.28254" lon="5.66248">
        <ele>527</ele>
        <time>2022-07-29T14:06:25Z</time>
      </trkpt>
      <trkpt lat="46.28254" lon="5.66248">
        <ele>527</ele>
        <time>2022-07-29T14:06:26Z</time>
      </trkpt>
      <trkpt lat="46.28254" lon="5.66248">
        <ele>527</ele>
        <time>2022-07-29T14:06:27Z</time>
      </trkpt>
      <trkpt lat="46.28254" lon="5.66248">
        <ele>527</ele>
        <time>2022-07-29T14:06:28Z</time>
      </trkpt>
      <trkpt lat="46.28254" lon="5.66248">
        <ele>527</ele>
        <time>2022-07-29T14:06:33Z</time>
      </trkpt>
      <trkpt lat="46.28254" lon="5.66248">
        <ele>527</ele>
        <time>2022-07-29T14:06:34Z</time>
      </trkpt>
      <trkpt lat="46.28254" lon="5.66248">
        <ele>527</ele>
        <time>2022-07-29T14:06:38Z</time>
      </trkpt>
      <trkpt lat="46.28254" lon="5.66248">
        <ele>527</ele>
        <time>2022-07-29T14:06:39Z</time>
      </trkpt>
      <trkpt lat="46.28254" lon="5.66248">
        <ele>527</ele>
        <time>2022-07-29T14:06:40Z</time>
      </trkpt>
      <trkpt lat="46.28254" lon="5.66248">
        <ele>527</ele>
        <time>2022-07-29T14:06:41Z</time>
      </trkpt>
      <trkpt lat="46.28254" lon="5.66248">
        <ele>527.2</ele>
        <time>2022-07-29T14:06:42Z</time>
      </trkpt>
      <trkpt lat="46.28254" lon="5.66248">
        <ele>527.2</ele>
        <time>2022-07-29T14:06:43Z</time>
      </trkpt>
      <trkpt lat="46.28254" lon="5.66248">
        <ele>527.2</ele>
        <time>2022-07-29T14:06:44Z</time>
      </trkpt>
      <trkpt lat="46.28254" lon="5.66248">
        <ele>527.2</ele>
        <time>2022-07-29T14:06:45Z</time>
      </trkpt>
      <trkpt lat="46.28254" lon="5.66248">
        <ele>527.2</ele>
        <time>2022-07-29T14:06:46Z</time>
      </trkpt>
      <trkpt lat="46.28254" lon="5.66248">
        <ele>527.2</ele>
        <time>2022-07-29T14:06:47Z</time>
      </trkpt>
      <trkpt lat="46.28247" lon="5.66255">
        <ele>527.2</ele>
        <time>2022-07-29T14:06:48Z</time>
      </trkpt>
      <trkpt lat="46.28246" lon="5.66256">
        <ele>527.2</ele>
        <time>2022-07-29T14:06:49Z</time>
      </trkpt>
      <trkpt lat="46.28246" lon="5.66256">
        <ele>527.2</ele>
        <time>2022-07-29T14:06:50Z</time>
      </trkpt>
      <trkpt lat="46.28246" lon="5.66257">
        <ele>527.2</ele>
        <time>2022-07-29T14:06:51Z</time>
      </trkpt>
      <trkpt lat="46.28246" lon="5.66257">
        <ele>527.2</ele>
        <time>2022-07-29T14:06:52Z</time>
      </trkpt>
      <trkpt lat="46.28246" lon="5.66257">
        <ele>527.2</ele>
        <time>2022-07-29T14:06:54Z</time>
      </trkpt>
      <trkpt lat="46.28246" lon="5.66257">
        <ele>527.2</ele>
        <time>2022-07-29T14:06:55Z</time>
      </trkpt>
      <trkpt lat="46.28246" lon="5.66257">
        <ele>527.2</ele>
        <time>2022-07-29T14:06:56Z</time>
      </trkpt>
      <trkpt lat="46.28246" lon="5.66257">
        <ele>527.2</ele>
        <time>2022-07-29T14:06:57Z</time>
      </trkpt>
      <trkpt lat="46.28246" lon="5.66257">
        <ele>527.2</ele>
        <time>2022-07-29T14:06:58Z</time>
      </trkpt>
      <trkpt lat="46.28246" lon="5.66257">
        <ele>527.2</ele>
        <time>2022-07-29T14:06:59Z</time>
      </trkpt>
      <trkpt lat="46.28239" lon="5.66247">
        <ele>527.2</ele>
        <time>2022-07-29T14:07:00Z</time>
      </trkpt>
      <trkpt lat="46.28238" lon="5.66244">
        <ele>527.2</ele>
        <time>2022-07-29T14:07:01Z</time>
      </trkpt>
      <trkpt lat="46.28237" lon="5.66241">
        <ele>527.2</ele>
        <time>2022-07-29T14:07:02Z</time>
      </trkpt>
      <trkpt lat="46.28236" lon="5.66238">
        <ele>527.2</ele>
        <time>2022-07-29T14:07:03Z</time>
      </trkpt>
      <trkpt lat="46.28234" lon="5.66235">
        <ele>526.8</ele>
        <time>2022-07-29T14:07:04Z</time>
      </trkpt>
      <trkpt lat="46.28234" lon="5.66235">
        <ele>526.8</ele>
        <time>2022-07-29T14:07:05Z</time>
      </trkpt>
      <trkpt lat="46.28233" lon="5.66234">
        <ele>526.6</ele>
        <time>2022-07-29T14:07:06Z</time>
      </trkpt>
      <trkpt lat="46.28232" lon="5.66233">
        <ele>526.6</ele>
        <time>2022-07-29T14:07:07Z</time>
      </trkpt>
      <trkpt lat="46.28231" lon="5.66233">
        <ele>526.6</ele>
        <time>2022-07-29T14:07:08Z</time>
      </trkpt>
      <trkpt lat="46.28229" lon="5.66232">
        <ele>526.6</ele>
        <time>2022-07-29T14:07:09Z</time>
      </trkpt>
      <trkpt lat="46.28229" lon="5.66232">
        <ele>526.6</ele>
        <time>2022-07-29T14:07:10Z</time>
      </trkpt>
      <trkpt lat="46.28258" lon="5.66281">
        <ele>527.4</ele>
        <time>2022-07-29T14:12:03Z</time>
      </trkpt>
      <trkpt lat="46.28257" lon="5.66279">
        <ele>527.4</ele>
        <time>2022-07-29T14:12:04Z</time>
      </trkpt>
      <trkpt lat="46.28255" lon="5.66275">
        <ele>527.4</ele>
        <time>2022-07-29T14:12:05Z</time>
      </trkpt>
      <trkpt lat="46.28253" lon="5.66273">
        <ele>527.4</ele>
        <time>2022-07-29T14:12:06Z</time>
      </trkpt>
      <trkpt lat="46.28253" lon="5.66273">
        <ele>527.4</ele>
        <time>2022-07-29T14:12:07Z</time>
      </trkpt>
      <trkpt lat="46.28245" lon="5.66255">
        <ele>527.4</ele>
        <time>2022-07-29T14:12:08Z</time>
      </trkpt>
      <trkpt lat="46.2824" lon="5.66247">
        <ele>527.4</ele>
        <time>2022-07-29T14:12:09Z</time>
      </trkpt>
      <trkpt lat="46.28237" lon="5.66242">
        <ele>527.2</ele>
        <time>2022-07-29T14:12:10Z</time>
      </trkpt>
      <trkpt lat="46.28235" lon="5.66239">
        <ele>527.2</ele>
        <time>2022-07-29T14:12:11Z</time>
      </trkpt>
      <trkpt lat="46.28235" lon="5.66239">
        <ele>527.2</ele>
        <time>2022-07-29T14:12:12Z</time>
      </trkpt>
      <trkpt lat="46.28232" lon="5.66236">
        <ele>527.2</ele>
        <time>2022-07-29T14:12:13Z</time>
      </trkpt>
      <trkpt lat="46.28232" lon="5.66235">
        <ele>527.2</ele>
        <time>2022-07-29T14:12:14Z</time>
      </trkpt>
      <trkpt lat="46.28231" lon="5.66234">
        <ele>527.2</ele>
        <time>2022-07-29T14:12:15Z</time>
      </trkpt>
      <trkpt lat="46.2823" lon="5.66233">
        <ele>527.2</ele>
        <time>2022-07-29T14:12:16Z</time>
      </trkpt>
      <trkpt lat="46.2823" lon="5.66232">
        <ele>527.2</ele>
        <time>2022-07-29T14:12:17Z</time>
      </trkpt>
      <trkpt lat="46.2823" lon="5.66232">
        <ele>527.2</ele>
        <time>2022-07-29T14:12:18Z</time>
      </trkpt>
      <trkpt lat="46.28229" lon="5.66231">
        <ele>527.2</ele>
        <time>2022-07-29T14:12:21Z</time>
      </trkpt>
      <trkpt lat="46.28229" lon="5.66231">
        <ele>527.2</ele>
        <time>2022-07-29T14:12:22Z</time>
      </trkpt>
      <trkpt lat="46.28229" lon="5.66229">
        <ele>527.2</ele>
        <time>2022-07-29T14:12:24Z</time>
      </trkpt>
      <trkpt lat="46.28229" lon="5.66229">
        <ele>527.2</ele>
        <time>2022-07-29T14:12:25Z</time>
      </trkpt>
      <trkpt lat="46.28229" lon="5.66229">
        <ele>527.2</ele>
        <time>2022-07-29T14:12:26Z</time>
      </trkpt>
      <trkpt lat="46.28229" lon="5.6623">
        <ele>527.2</ele>
        <time>2022-07-29T14:12:27Z</time>
      </trkpt>
      <trkpt lat="46.28229" lon="5.66228">
        <ele>527.2</ele>
        <time>2022-07-29T14:12:28Z</time>
      </trkpt>
      <trkpt lat="46.28231" lon="5.66229">
        <ele>527.2</ele>
        <time>2022-07-29T14:12:29Z</time>
      </trkpt>
      <trkpt lat="46.28234" lon="5.66231">
        <ele>527.2</ele>
        <time>2022-07-29T14:12:30Z</time>
      </trkpt>
      <trkpt lat="46.28242" lon="5.66239">
        <ele>527.2</ele>
        <time>2022-07-29T14:12:31Z</time>
      </trkpt>
      <trkpt lat="46.28242" lon="5.66239">
        <ele>527.4</ele>
        <time>2022-07-29T14:12:32Z</time>
      </trkpt>
      <trkpt lat="46.28242" lon="5.66239">
        <ele>527.4</ele>
        <time>2022-07-29T14:12:33Z</time>
      </trkpt>
      <trkpt lat="46.28242" lon="5.66239">
        <ele>527.4</ele>
        <time>2022-07-29T14:12:34Z</time>
      </trkpt>
      <trkpt lat="46.28242" lon="5.66239">
        <ele>527.4</ele>
        <time>2022-07-29T14:12:35Z</time>
      </trkpt>
      <trkpt lat="46.28242" lon="5.66239">
        <ele>527.4</ele>
        <time>2022-07-29T14:12:36Z</time>
      </trkpt>
      <trkpt lat="46.28234" lon="5.66231">
        <ele>527.4</ele>
        <time>2022-07-29T14:12:37Z</time>
      </trkpt>
      <trkpt lat="46.2823" lon="5.66229">
        <ele>527.4</ele>
        <time>2022-07-29T14:12:38Z</time>
      </trkpt>
      <trkpt lat="46.28229" lon="5.66228">
        <ele>527.4</ele>
        <time>2022-07-29T14:12:39Z</time>
      </trkpt>
      <trkpt lat="46.28228" lon="5.66227">
        <ele>527.4</ele>
        <time>2022-07-29T14:12:40Z</time>
      </trkpt>
      <trkpt lat="46.28228" lon="5.66227">
        <ele>527.4</ele>
        <time>2022-07-29T14:12:41Z</time>
      </trkpt>
      <trkpt lat="46.28228" lon="5.66227">
        <ele>527.4</ele>
        <time>2022-07-29T14:12:42Z</time>
      </trkpt>
      <trkpt lat="46.28228" lon="5.66227">
        <ele>527.4</ele>
        <time>2022-07-29T14:12:43Z</time>
      </trkpt>
      <trkpt lat="46.28228" lon="5.66227">
        <ele>527.4</ele>
        <time>2022-07-29T14:12:44Z</time>
      </trkpt>
      <trkpt lat="46.28228" lon="5.66227">
        <ele>527.4</ele>
        <time>2022-07-29T14:12:45Z</time>
      </trkpt>
      <trkpt lat="46.28228" lon="5.66227">
        <ele>527.4</ele>
        <time>2022-07-29T14:12:46Z</time>
      </trkpt>
      <trkpt lat="46.28228" lon="5.66227">
        <ele>527.4</ele>
        <time>2022-07-29T14:12:47Z</time>
      </trkpt>
      <trkpt lat="46.28228" lon="5.66227">
        <ele>527.4</ele>
        <time>2022-07-29T14:12:48Z</time>
      </trkpt>
      <trkpt lat="46.28228" lon="5.66227">
        <ele>527.4</ele>
        <time>2022-07-29T14:12:49Z</time>
      </trkpt>
      <trkpt lat="46.28228" lon="5.66227">
        <ele>527.4</ele>
        <time>2022-07-29T14:12:50Z</time>
      </trkpt>
      <trkpt lat="46.28228" lon="5.66227">
        <ele>527.4</ele>
        <time>2022-07-29T14:12:51Z</time>
      </trkpt>
      <trkpt lat="46.28228" lon="5.66227">
        <ele>527.4</ele>
        <time>2022-07-29T14:12:52Z</time>
      </trkpt>
      <trkpt lat="46.28228" lon="5.66227">
        <ele>527.4</ele>
        <time>2022-07-29T14:12:53Z</time>
      </trkpt>
      <trkpt lat="46.28228" lon="5.66227">
        <ele>527.4</ele>
        <time>2022-07-29T14:12:54Z</time>
      </trkpt>
      <trkpt lat="46.28228" lon="5.66227">
        <ele>527.4</ele>
        <time>2022-07-29T14:12:55Z</time>
      </trkpt>
      <trkpt lat="46.28228" lon="5.66227">
        <ele>527.4</ele>
        <time>2022-07-29T14:12:56Z</time>
      </trkpt>
      <trkpt lat="46.28228" lon="5.66227">
        <ele>527.4</ele>
        <time>2022-07-29T14:12:57Z</time>
      </trkpt>
      <trkpt lat="46.28228" lon="5.66227">
        <ele>527.4</ele>
        <time>2022-07-29T14:12:58Z</time>
      </trkpt>
      <trkpt lat="46.28228" lon="5.66227">
        <ele>527.4</ele>
        <time>2022-07-29T14:12:59Z</time>
      </trkpt>
      <trkpt lat="46.28228" lon="5.66227">
        <ele>527.4</ele>
        <time>2022-07-29T14:13:00Z</time>
      </trkpt>
      <trkpt lat="46.28228" lon="5.66227">
        <ele>527.4</ele>
        <time>2022-07-29T14:13:01Z</time>
      </trkpt>
      <trkpt lat="46.28228" lon="5.66227">
        <ele>527.4</ele>
        <time>2022-07-29T14:13:02Z</time>
      </trkpt>
      <trkpt lat="46.28228" lon="5.66227">
        <ele>527.4</ele>
        <time>2022-07-29T14:13:03Z</time>
      </trkpt>
      <trkpt lat="46.28228" lon="5.66227">
        <ele>527.4</ele>
        <time>2022-07-29T14:13:04Z</time>
      </trkpt>
      <trkpt lat="46.28228" lon="5.66227">
        <ele>527.4</ele>
        <time>2022-07-29T14:13:05Z</time>
      </trkpt>
      <trkpt lat="46.28228" lon="5.66227">
        <ele>527.4</ele>
        <time>2022-07-29T14:13:06Z</time>
      </trkpt>
      <trkpt lat="46.28228" lon="5.66227">
        <ele>527.4</ele>
        <time>2022-07-29T14:13:07Z</time>
      </trkpt>
      <trkpt lat="46.28228" lon="5.66227">
        <ele>527.4</ele>
        <time>2022-07-29T14:13:10Z</time>
      </trkpt>
      <trkpt lat="46.28228" lon="5.66227">
        <ele>527.4</ele>
        <time>2022-07-29T14:13:11Z</time>
      </trkpt>
      <trkpt lat="46.28228" lon="5.66227">
        <ele>527.4</ele>
        <time>2022-07-29T14:13:12Z</time>
      </trkpt>
      <trkpt lat="46.28228" lon="5.66227">
        <ele>527.4</ele>
        <time>2022-07-29T14:13:13Z</time>
      </trkpt>
      <trkpt lat="46.28228" lon="5.66227">
        <ele>527.4</ele>
        <time>2022-07-29T14:13:14Z</time>
      </trkpt>
      <trkpt lat="46.28228" lon="5.66227">
        <ele>527.4</ele>
        <time>2022-07-29T14:13:15Z</time>
      </trkpt>
      <trkpt lat="46.28228" lon="5.66227">
        <ele>527.4</ele>
        <time>2022-07-29T14:13:16Z</time>
      </trkpt>
      <trkpt lat="46.28228" lon="5.66227">
        <ele>527.4</ele>
        <time>2022-07-29T14:13:17Z</time>
      </trkpt>
      <trkpt lat="46.28228" lon="5.66227">
        <ele>527.4</ele>
        <time>2022-07-29T14:13:18Z</time>
      </trkpt>
      <trkpt lat="46.28228" lon="5.66227">
        <ele>527.4</ele>
        <time>2022-07-29T14:13:19Z</time>
      </trkpt>
      <trkpt lat="46.28228" lon="5.66227">
        <ele>527.4</ele>
        <time>2022-07-29T14:13:20Z</time>
      </trkpt>
      <trkpt lat="46.28228" lon="5.66227">
        <ele>527.4</ele>
        <time>2022-07-29T14:13:21Z</time>
      </trkpt>
      <trkpt lat="46.28228" lon="5.66227">
        <ele>527.4</ele>
        <time>2022-07-29T14:13:22Z</time>
      </trkpt>
      <trkpt lat="46.28228" lon="5.66227">
        <ele>527.4</ele>
        <time>2022-07-29T14:13:23Z</time>
      </trkpt>
      <trkpt lat="46.28228" lon="5.66227">
        <ele>527.4</ele>
        <time>2022-07-29T14:13:24Z</time>
      </trkpt>
      <trkpt lat="46.28228" lon="5.66227">
        <ele>527.2</ele>
        <time>2022-07-29T14:13:25Z</time>
      </trkpt>
      <trkpt lat="46.28228" lon="5.66227">
        <ele>527.2</ele>
        <time>2022-07-29T14:13:26Z</time>
      </trkpt>
      <trkpt lat="46.28228" lon="5.66227">
        <ele>527.2</ele>
        <time>2022-07-29T14:13:27Z</time>
      </trkpt>
      <trkpt lat="46.28228" lon="5.66227">
        <ele>527.2</ele>
        <time>2022-07-29T14:13:28Z</time>
      </trkpt>
      <trkpt lat="46.28228" lon="5.66227">
        <ele>527.2</ele>
        <time>2022-07-29T14:13:29Z</time>
      </trkpt>
      <trkpt lat="46.28228" lon="5.66227">
        <ele>527.2</ele>
        <time>2022-07-29T14:13:30Z</time>
      </trkpt>
      <trkpt lat="46.28228" lon="5.66227">
        <ele>527.2</ele>
        <time>2022-07-29T14:13:31Z</time>
      </trkpt>
      <trkpt lat="46.28228" lon="5.66227">
        <ele>527.2</ele>
        <time>2022-07-29T14:13:32Z</time>
      </trkpt>
      <trkpt lat="46.28228" lon="5.66227">
        <ele>527.2</ele>
        <time>2022-07-29T14:13:33Z</time>
      </trkpt>
      <trkpt lat="46.28228" lon="5.66227">
        <ele>527.2</ele>
        <time>2022-07-29T14:13:36Z</time>
      </trkpt>
      <trkpt lat="46.28228" lon="5.66227">
        <ele>527.2</ele>
        <time>2022-07-29T14:13:37Z</time>
      </trkpt>
      <trkpt lat="46.28228" lon="5.66227">
        <ele>527.2</ele>
        <time>2022-07-29T14:13:38Z</time>
      </trkpt>
      <trkpt lat="46.28228" lon="5.66227">
        <ele>527.2</ele>
        <time>2022-07-29T14:13:39Z</time>
      </trkpt>
      <trkpt lat="46.28228" lon="5.66227">
        <ele>527.2</ele>
        <time>2022-07-29T14:13:40Z</time>
      </trkpt>
      <trkpt lat="46.28228" lon="5.66227">
        <ele>527.2</ele>
        <time>2022-07-29T14:13:41Z</time>
      </trkpt>
      <trkpt lat="46.28228" lon="5.66227">
        <ele>527.2</ele>
        <time>2022-07-29T14:13:42Z</time>
      </trkpt>
      <trkpt lat="46.28228" lon="5.66227">
        <ele>527.2</ele>
        <time>2022-07-29T14:13:43Z</time>
      </trkpt>
      <trkpt lat="46.28228" lon="5.66227">
        <ele>527.2</ele>
        <time>2022-07-29T14:13:44Z</time>
      </trkpt>
      <trkpt lat="46.28236" lon="5.66218">
        <ele>527.2</ele>
        <time>2022-07-29T14:13:45Z</time>
      </trkpt>
      <trkpt lat="46.28236" lon="5.66216">
        <ele>527.2</ele>
        <time>2022-07-29T14:13:46Z</time>
      </trkpt>
      <trkpt lat="46.28235" lon="5.66214">
        <ele>527.2</ele>
        <time>2022-07-29T14:13:47Z</time>
      </trkpt>
      <trkpt lat="46.28235" lon="5.66213">
        <ele>527.2</ele>
        <time>2022-07-29T14:13:48Z</time>
      </trkpt>
      <trkpt lat="46.28235" lon="5.66213">
        <ele>527.2</ele>
        <time>2022-07-29T14:13:49Z</time>
      </trkpt>
      <trkpt lat="46.28235" lon="5.66211">
        <ele>527.2</ele>
        <time>2022-07-29T14:13:50Z</time>
      </trkpt>
      <trkpt lat="46.28235" lon="5.66211">
        <ele>527.2</ele>
        <time>2022-07-29T14:13:51Z</time>
      </trkpt>
      <trkpt lat="46.28235" lon="5.66211">
        <ele>527.2</ele>
        <time>2022-07-29T14:13:52Z</time>
      </trkpt>
      <trkpt lat="46.28271" lon="5.66196">
        <ele>527</ele>
        <time>2022-07-29T14:16:33Z</time>
      </trkpt>
      <trkpt lat="46.28267" lon="5.66164">
        <ele>527</ele>
        <time>2022-07-29T14:16:34Z</time>
      </trkpt>
      <trkpt lat="46.28267" lon="5.66164">
        <ele>527</ele>
        <time>2022-07-29T14:16:35Z</time>
      </trkpt>
      <trkpt lat="46.28264" lon="5.66211">
        <ele>527</ele>
        <time>2022-07-29T14:16:36Z</time>
      </trkpt>
      <trkpt lat="46.28265" lon="5.66212">
        <ele>527</ele>
        <time>2022-07-29T14:16:37Z</time>
      </trkpt>
      <trkpt lat="46.28265" lon="5.66217">
        <ele>527</ele>
        <time>2022-07-29T14:16:38Z</time>
      </trkpt>
      <trkpt lat="46.28266" lon="5.66218">
        <ele>527</ele>
        <time>2022-07-29T14:16:39Z</time>
      </trkpt>
      <trkpt lat="46.28268" lon="5.6622">
        <ele>527</ele>
        <time>2022-07-29T14:16:40Z</time>
      </trkpt>
      <trkpt lat="46.28269" lon="5.66221">
        <ele>527</ele>
        <time>2022-07-29T14:16:41Z</time>
      </trkpt>
      <trkpt lat="46.2827" lon="5.66221">
        <ele>527</ele>
        <time>2022-07-29T14:16:42Z</time>
      </trkpt>
      <trkpt lat="46.28271" lon="5.66222">
        <ele>526.8</ele>
        <time>2022-07-29T14:16:43Z</time>
      </trkpt>
      <trkpt lat="46.28271" lon="5.66222">
        <ele>526.8</ele>
        <time>2022-07-29T14:16:44Z</time>
      </trkpt>
      <trkpt lat="46.28271" lon="5.66222">
        <ele>526.8</ele>
        <time>2022-07-29T14:16:45Z</time>
      </trkpt>
      <trkpt lat="46.28273" lon="5.66228">
        <ele>526.8</ele>
        <time>2022-07-29T14:16:46Z</time>
      </trkpt>
      <trkpt lat="46.28274" lon="5.6623">
        <ele>526.8</ele>
        <time>2022-07-29T14:16:47Z</time>
      </trkpt>
      <trkpt lat="46.28275" lon="5.66233">
        <ele>526.8</ele>
        <time>2022-07-29T14:16:48Z</time>
      </trkpt>
      <trkpt lat="46.28275" lon="5.66235">
        <ele>526.8</ele>
        <time>2022-07-29T14:16:49Z</time>
      </trkpt>
      <trkpt lat="46.28276" lon="5.66237">
        <ele>526.8</ele>
        <time>2022-07-29T14:16:50Z</time>
      </trkpt>
      <trkpt lat="46.28277" lon="5.6624">
        <ele>526.8</ele>
        <time>2022-07-29T14:16:51Z</time>
      </trkpt>
      <trkpt lat="46.28277" lon="5.66242">
        <ele>526.8</ele>
        <time>2022-07-29T14:16:52Z</time>
      </trkpt>
      <trkpt lat="46.28278" lon="5.66244">
        <ele>526.8</ele>
        <time>2022-07-29T14:16:53Z</time>
      </trkpt>
      <trkpt lat="46.28278" lon="5.66245">
        <ele>526.8</ele>
        <time>2022-07-29T14:16:54Z</time>
      </trkpt>
      <trkpt lat="46.28279" lon="5.66246">
        <ele>526.8</ele>
        <time>2022-07-29T14:16:55Z</time>
      </trkpt>
      <trkpt lat="46.28279" lon="5.66247">
        <ele>526.8</ele>
        <time>2022-07-29T14:16:56Z</time>
      </trkpt>
      <trkpt lat="46.28279" lon="5.66247">
        <ele>526.8</ele>
        <time>2022-07-29T14:16:57Z</time>
      </trkpt>
      <trkpt lat="46.28279" lon="5.66247">
        <ele>527</ele>
        <time>2022-07-29T14:17:04Z</time>
      </trkpt>
      <trkpt lat="46.28279" lon="5.66247">
        <ele>527</ele>
        <time>2022-07-29T14:17:05Z</time>
      </trkpt>
      <trkpt lat="46.28283" lon="5.66259">
        <ele>527</ele>
        <time>2022-07-29T14:17:08Z</time>
      </trkpt>
      <trkpt lat="46.28283" lon="5.66259">
        <ele>527</ele>
        <time>2022-07-29T14:17:09Z</time>
      </trkpt>
      <trkpt lat="46.28285" lon="5.66259">
        <ele>527</ele>
        <time>2022-07-29T14:17:10Z</time>
      </trkpt>
      <trkpt lat="46.28286" lon="5.6626">
        <ele>527</ele>
        <time>2022-07-29T14:17:11Z</time>
      </trkpt>
      <trkpt lat="46.28286" lon="5.66261">
        <ele>527</ele>
        <time>2022-07-29T14:17:12Z</time>
      </trkpt>
      <trkpt lat="46.28287" lon="5.66262">
        <ele>527</ele>
        <time>2022-07-29T14:17:13Z</time>
      </trkpt>
      <trkpt lat="46.28287" lon="5.66262">
        <ele>527</ele>
        <time>2022-07-29T14:17:14Z</time>
      </trkpt>
      <trkpt lat="46.28287" lon="5.66262">
        <ele>526.8</ele>
        <time>2022-07-29T14:17:15Z</time>
      </trkpt>
      <trkpt lat="46.28287" lon="5.66262">
        <ele>526.8</ele>
        <time>2022-07-29T14:17:16Z</time>
      </trkpt>
      <trkpt lat="46.28287" lon="5.66262">
        <ele>526.8</ele>
        <time>2022-07-29T14:17:17Z</time>
      </trkpt>
      <trkpt lat="46.28287" lon="5.66262">
        <ele>526.8</ele>
        <time>2022-07-29T14:17:18Z</time>
      </trkpt>
      <trkpt lat="46.28287" lon="5.66262">
        <ele>526.8</ele>
        <time>2022-07-29T14:17:19Z</time>
      </trkpt>
      <trkpt lat="46.28287" lon="5.66262">
        <ele>526.6</ele>
        <time>2022-07-29T14:17:20Z</time>
      </trkpt>
      <trkpt lat="46.28287" lon="5.66262">
        <ele>526.6</ele>
        <time>2022-07-29T14:17:21Z</time>
      </trkpt>
      <trkpt lat="46.28287" lon="5.66262">
        <ele>526.6</ele>
        <time>2022-07-29T14:17:22Z</time>
      </trkpt>
      <trkpt lat="46.28287" lon="5.66262">
        <ele>526.6</ele>
        <time>2022-07-29T14:17:23Z</time>
      </trkpt>
      <trkpt lat="46.28287" lon="5.66262">
        <ele>526.6</ele>
        <time>2022-07-29T14:17:24Z</time>
      </trkpt>
      <trkpt lat="46.28287" lon="5.66262">
        <ele>526.6</ele>
        <time>2022-07-29T14:17:25Z</time>
      </trkpt>
      <trkpt lat="46.28287" lon="5.66262">
        <ele>526.6</ele>
        <time>2022-07-29T14:17:26Z</time>
      </trkpt>
      <trkpt lat="46.28287" lon="5.66262">
        <ele>526.6</ele>
        <time>2022-07-29T14:17:27Z</time>
      </trkpt>
      <trkpt lat="46.28287" lon="5.66262">
        <ele>526.6</ele>
        <time>2022-07-29T14:17:28Z</time>
      </trkpt>
      <trkpt lat="46.28287" lon="5.66262">
        <ele>526.6</ele>
        <time>2022-07-29T14:17:29Z</time>
      </trkpt>
      <trkpt lat="46.28287" lon="5.66262">
        <ele>526.6</ele>
        <time>2022-07-29T14:17:30Z</time>
      </trkpt>
      <trkpt lat="46.28287" lon="5.66262">
        <ele>526.6</ele>
        <time>2022-07-29T14:17:31Z</time>
      </trkpt>
      <trkpt lat="46.28287" lon="5.66262">
        <ele>526.6</ele>
        <time>2022-07-29T14:17:32Z</time>
      </trkpt>
      <trkpt lat="46.28287" lon="5.66262">
        <ele>526.6</ele>
        <time>2022-07-29T14:17:33Z</time>
      </trkpt>
      <trkpt lat="46.28287" lon="5.66262">
        <ele>526.6</ele>
        <time>2022-07-29T14:17:34Z</time>
      </trkpt>
      <trkpt lat="46.28287" lon="5.66262">
        <ele>526.6</ele>
        <time>2022-07-29T14:17:35Z</time>
      </trkpt>
      <trkpt lat="46.28287" lon="5.66262">
        <ele>526.6</ele>
        <time>2022-07-29T14:17:36Z</time>
      </trkpt>
      <trkpt lat="46.28287" lon="5.66262">
        <ele>526.6</ele>
        <time>2022-07-29T14:17:43Z</time>
      </trkpt>
      <trkpt lat="46.28287" lon="5.66262">
        <ele>526.6</ele>
        <time>2022-07-29T14:17:44Z</time>
      </trkpt>
      <trkpt lat="46.28287" lon="5.66262">
        <ele>526.6</ele>
        <time>2022-07-29T14:17:45Z</time>
      </trkpt>
      <trkpt lat="46.28287" lon="5.66262">
        <ele>526.6</ele>
        <time>2022-07-29T14:17:53Z</time>
      </trkpt>
      <trkpt lat="46.28287" lon="5.66262">
        <ele>526.6</ele>
        <time>2022-07-29T14:17:54Z</time>
      </trkpt>
      <trkpt lat="46.28287" lon="5.66262">
        <ele>526.6</ele>
        <time>2022-07-29T14:17:55Z</time>
      </trkpt>
      <trkpt lat="46.28287" lon="5.66262">
        <ele>526.6</ele>
        <time>2022-07-29T14:17:56Z</time>
      </trkpt>
      <trkpt lat="46.28287" lon="5.66262">
        <ele>526.6</ele>
        <time>2022-07-29T14:17:57Z</time>
      </trkpt>
      <trkpt lat="46.28287" lon="5.66262">
        <ele>526.8</ele>
        <time>2022-07-29T14:17:58Z</time>
      </trkpt>
      <trkpt lat="46.28287" lon="5.66262">
        <ele>526.8</ele>
        <time>2022-07-29T14:17:59Z</time>
      </trkpt>
      <trkpt lat="46.28287" lon="5.66262">
        <ele>526.8</ele>
        <time>2022-07-29T14:18:00Z</time>
      </trkpt>
      <trkpt lat="46.28287" lon="5.66262">
        <ele>526.8</ele>
        <time>2022-07-29T14:18:01Z</time>
      </trkpt>
      <trkpt lat="46.28287" lon="5.66262">
        <ele>526.8</ele>
        <time>2022-07-29T14:18:02Z</time>
      </trkpt>
      <trkpt lat="46.28287" lon="5.66262">
        <ele>526.8</ele>
        <time>2022-07-29T14:18:03Z</time>
      </trkpt>
      <trkpt lat="46.28287" lon="5.66262">
        <ele>526.8</ele>
        <time>2022-07-29T14:18:04Z</time>
      </trkpt>
      <trkpt lat="46.28287" lon="5.66262">
        <ele>526.8</ele>
        <time>2022-07-29T14:18:05Z</time>
      </trkpt>
      <trkpt lat="46.28287" lon="5.66262">
        <ele>526.8</ele>
        <time>2022-07-29T14:18:06Z</time>
      </trkpt>
      <trkpt lat="46.28287" lon="5.66262">
        <ele>526.8</ele>
        <time>2022-07-29T14:18:07Z</time>
      </trkpt>
      <trkpt lat="46.28287" lon="5.66262">
        <ele>526.8</ele>
        <time>2022-07-29T14:18:08Z</time>
      </trkpt>
      <trkpt lat="46.28287" lon="5.66262">
        <ele>526.8</ele>
        <time>2022-07-29T14:18:09Z</time>
      </trkpt>
      <trkpt lat="46.28287" lon="5.66262">
        <ele>526.8</ele>
        <time>2022-07-29T14:18:10Z</time>
      </trkpt>
      <trkpt lat="46.28287" lon="5.66262">
        <ele>526.8</ele>
        <time>2022-07-29T14:18:11Z</time>
      </trkpt>
      <trkpt lat="46.28287" lon="5.66262">
        <ele>526.8</ele>
        <time>2022-07-29T14:18:12Z</time>
      </trkpt>
      <trkpt lat="46.28287" lon="5.66262">
        <ele>526.8</ele>
        <time>2022-07-29T14:18:13Z</time>
      </trkpt>
      <trkpt lat="46.28287" lon="5.66262">
        <ele>526.8</ele>
        <time>2022-07-29T14:18:14Z</time>
      </trkpt>
      <trkpt lat="46.28287" lon="5.66262">
        <ele>526.8</ele>
        <time>2022-07-29T14:18:15Z</time>
      </trkpt>
      <trkpt lat="46.28287" lon="5.66262">
        <ele>526.8</ele>
        <time>2022-07-29T14:18:20Z</time>
      </trkpt>
      <trkpt lat="46.28287" lon="5.66262">
        <ele>526.8</ele>
        <time>2022-07-29T14:18:21Z</time>
      </trkpt>
      <trkpt lat="46.28287" lon="5.66262">
        <ele>526.8</ele>
        <time>2022-07-29T14:18:22Z</time>
      </trkpt>
      <trkpt lat="46.28287" lon="5.66262">
        <ele>526.8</ele>
        <time>2022-07-29T14:18:23Z</time>
      </trkpt>
      <trkpt lat="46.28287" lon="5.66262">
        <ele>526.8</ele>
        <time>2022-07-29T14:18:24Z</time>
      </trkpt>
      <trkpt lat="46.28287" lon="5.66262">
        <ele>526.8</ele>
        <time>2022-07-29T14:18:25Z</time>
      </trkpt>
      <trkpt lat="46.28287" lon="5.66262">
        <ele>526.8</ele>
        <time>2022-07-29T14:18:26Z</time>
      </trkpt>
      <trkpt lat="46.28287" lon="5.66262">
        <ele>526.8</ele>
        <time>2022-07-29T14:18:28Z</time>
      </trkpt>
      <trkpt lat="46.28287" lon="5.66262">
        <ele>526.8</ele>
        <time>2022-07-29T14:18:29Z</time>
      </trkpt>
      <trkpt lat="46.28287" lon="5.66262">
        <ele>526.8</ele>
        <time>2022-07-29T14:18:30Z</time>
      </trkpt>
      <trkpt lat="46.28287" lon="5.66262">
        <ele>526.8</ele>
        <time>2022-07-29T14:18:31Z</time>
      </trkpt>
      <trkpt lat="46.28287" lon="5.66262">
        <ele>526.8</ele>
        <time>2022-07-29T14:18:32Z</time>
      </trkpt>
      <trkpt lat="46.28287" lon="5.66262">
        <ele>526.8</ele>
        <time>2022-07-29T14:18:33Z</time>
      </trkpt>
      <trkpt lat="46.28287" lon="5.66262">
        <ele>526.8</ele>
        <time>2022-07-29T14:18:34Z</time>
      </trkpt>
      <trkpt lat="46.28287" lon="5.66262">
        <ele>526.8</ele>
        <time>2022-07-29T14:18:35Z</time>
      </trkpt>
      <trkpt lat="46.28287" lon="5.66262">
        <ele>526.8</ele>
        <time>2022-07-29T14:18:36Z</time>
      </trkpt>
      <trkpt lat="46.28287" lon="5.66262">
        <ele>526.8</ele>
        <time>2022-07-29T14:18:37Z</time>
      </trkpt>
      <trkpt lat="46.28287" lon="5.66262">
        <ele>526.8</ele>
        <time>2022-07-29T14:18:38Z</time>
      </trkpt>
      <trkpt lat="46.28287" lon="5.66262">
        <ele>526.8</ele>
        <time>2022-07-29T14:18:41Z</time>
      </trkpt>
      <trkpt lat="46.28287" lon="5.66262">
        <ele>526.8</ele>
        <time>2022-07-29T14:18:42Z</time>
      </trkpt>
      <trkpt lat="46.28287" lon="5.66262">
        <ele>526.8</ele>
        <time>2022-07-29T14:18:43Z</time>
      </trkpt>
      <trkpt lat="46.28287" lon="5.66262">
        <ele>526.8</ele>
        <time>2022-07-29T14:18:44Z</time>
      </trkpt>
      <trkpt lat="46.28287" lon="5.66262">
        <ele>527</ele>
        <time>2022-07-29T14:18:45Z</time>
      </trkpt>
      <trkpt lat="46.28287" lon="5.66262">
        <ele>527</ele>
        <time>2022-07-29T14:18:46Z</time>
      </trkpt>
      <trkpt lat="46.28287" lon="5.66262">
        <ele>527</ele>
        <time>2022-07-29T14:18:47Z</time>
      </trkpt>
      <trkpt lat="46.28287" lon="5.66262">
        <ele>527</ele>
        <time>2022-07-29T14:18:48Z</time>
      </trkpt>
      <trkpt lat="46.28287" lon="5.66262">
        <ele>527</ele>
        <time>2022-07-29T14:18:49Z</time>
      </trkpt>
      <trkpt lat="46.28287" lon="5.66262">
        <ele>527</ele>
        <time>2022-07-29T14:18:50Z</time>
      </trkpt>
      <trkpt lat="46.28287" lon="5.66262">
        <ele>527</ele>
        <time>2022-07-29T14:18:51Z</time>
      </trkpt>
      <trkpt lat="46.28287" lon="5.66262">
        <ele>527</ele>
        <time>2022-07-29T14:18:57Z</time>
      </trkpt>
      <trkpt lat="46.28287" lon="5.66262">
        <ele>527</ele>
        <time>2022-07-29T14:18:58Z</time>
      </trkpt>
      <trkpt lat="46.28287" lon="5.66262">
        <ele>527</ele>
        <time>2022-07-29T14:18:59Z</time>
      </trkpt>
      <trkpt lat="46.28287" lon="5.66262">
        <ele>527</ele>
        <time>2022-07-29T14:19:00Z</time>
      </trkpt>
      <trkpt lat="46.28287" lon="5.66262">
        <ele>527</ele>
        <time>2022-07-29T14:19:01Z</time>
      </trkpt>
      <trkpt lat="46.28287" lon="5.66262">
        <ele>527</ele>
        <time>2022-07-29T14:19:02Z</time>
      </trkpt>
      <trkpt lat="46.28287" lon="5.66262">
        <ele>527</ele>
        <time>2022-07-29T14:19:03Z</time>
      </trkpt>
      <trkpt lat="46.28287" lon="5.66262">
        <ele>527.2</ele>
        <time>2022-07-29T14:19:17Z</time>
      </trkpt>
      <trkpt lat="46.28287" lon="5.66262">
        <ele>527.2</ele>
        <time>2022-07-29T14:19:18Z</time>
      </trkpt>
      <trkpt lat="46.28287" lon="5.66262">
        <ele>527.2</ele>
        <time>2022-07-29T14:19:19Z</time>
      </trkpt>
      <trkpt lat="46.28287" lon="5.66262">
        <ele>527.2</ele>
        <time>2022-07-29T14:19:20Z</time>
      </trkpt>
      <trkpt lat="46.28287" lon="5.66262">
        <ele>527.2</ele>
        <time>2022-07-29T14:20:50Z</time>
      </trkpt>
      <trkpt lat="46.28287" lon="5.66262">
        <ele>527.2</ele>
        <time>2022-07-29T14:20:51Z</time>
      </trkpt>
      <trkpt lat="46.28287" lon="5.66262">
        <ele>527.2</ele>
        <time>2022-07-29T14:20:52Z</time>
      </trkpt>
      <trkpt lat="46.28287" lon="5.66262">
        <ele>527.2</ele>
        <time>2022-07-29T14:20:53Z</time>
      </trkpt>
      <trkpt lat="46.28287" lon="5.66262">
        <ele>527.2</ele>
        <time>2022-07-29T14:20:54Z</time>
      </trkpt>
      <trkpt lat="46.28287" lon="5.66262">
        <ele>527.2</ele>
        <time>2022-07-29T14:20:55Z</time>
      </trkpt>
      <trkpt lat="46.28287" lon="5.66262">
        <ele>527.2</ele>
        <time>2022-07-29T14:20:56Z</time>
      </trkpt>
      <trkpt lat="46.28287" lon="5.66262">
        <ele>527.2</ele>
        <time>2022-07-29T14:21:03Z</time>
      </trkpt>
      <trkpt lat="46.28287" lon="5.66262">
        <ele>527.2</ele>
        <time>2022-07-29T14:21:04Z</time>
      </trkpt>
      <trkpt lat="46.28287" lon="5.66262">
        <ele>527.2</ele>
        <time>2022-07-29T14:21:05Z</time>
      </trkpt>
      <trkpt lat="46.28287" lon="5.66262">
        <ele>527.4</ele>
        <time>2022-07-29T14:21:24Z</time>
      </trkpt>
      <trkpt lat="46.28287" lon="5.66262">
        <ele>527.4</ele>
        <time>2022-07-29T14:21:25Z</time>
      </trkpt>
      <trkpt lat="46.28287" lon="5.66262">
        <ele>527.4</ele>
        <time>2022-07-29T14:21:26Z</time>
      </trkpt>
      <trkpt lat="46.28287" lon="5.66262">
        <ele>527.4</ele>
        <time>2022-07-29T14:21:27Z</time>
      </trkpt>
      <trkpt lat="46.28287" lon="5.66262">
        <ele>527.4</ele>
        <time>2022-07-29T14:21:28Z</time>
      </trkpt>
      <trkpt lat="46.28287" lon="5.66262">
        <ele>527.4</ele>
        <time>2022-07-29T14:21:29Z</time>
      </trkpt>
      <trkpt lat="46.28287" lon="5.66262">
        <ele>527.4</ele>
        <time>2022-07-29T14:21:30Z</time>
      </trkpt>
      <trkpt lat="46.28287" lon="5.66262">
        <ele>527.4</ele>
        <time>2022-07-29T14:21:40Z</time>
      </trkpt>
      <trkpt lat="46.28287" lon="5.66262">
        <ele>527.4</ele>
        <time>2022-07-29T14:21:41Z</time>
      </trkpt>
      <trkpt lat="46.28287" lon="5.66262">
        <ele>527.4</ele>
        <time>2022-07-29T14:21:43Z</time>
      </trkpt>
      <trkpt lat="46.28287" lon="5.66262">
        <ele>527.4</ele>
        <time>2022-07-29T14:21:44Z</time>
      </trkpt>
      <trkpt lat="46.28287" lon="5.66262">
        <ele>527.4</ele>
        <time>2022-07-29T14:21:48Z</time>
      </trkpt>
      <trkpt lat="46.28287" lon="5.66262">
        <ele>527.4</ele>
        <time>2022-07-29T14:21:49Z</time>
      </trkpt>
      <trkpt lat="46.28287" lon="5.66262">
        <ele>527.4</ele>
        <time>2022-07-29T14:21:50Z</time>
      </trkpt>
      <trkpt lat="46.28287" lon="5.66262">
        <ele>527.4</ele>
        <time>2022-07-29T14:21:55Z</time>
      </trkpt>
      <trkpt lat="46.28287" lon="5.66262">
        <ele>527.4</ele>
        <time>2022-07-29T14:21:56Z</time>
      </trkpt>
      <trkpt lat="46.28287" lon="5.66262">
        <ele>527.4</ele>
        <time>2022-07-29T14:21:57Z</time>
      </trkpt>
      <trkpt lat="46.28287" lon="5.66262">
        <ele>527.4</ele>
        <time>2022-07-29T14:21:58Z</time>
      </trkpt>
      <trkpt lat="46.28287" lon="5.66262">
        <ele>527.4</ele>
        <time>2022-07-29T14:21:59Z</time>
      </trkpt>
      <trkpt lat="46.28287" lon="5.66262">
        <ele>527.4</ele>
        <time>2022-07-29T14:22:00Z</time>
      </trkpt>
      <trkpt lat="46.28287" lon="5.66262">
        <ele>527.4</ele>
        <time>2022-07-29T14:22:01Z</time>
      </trkpt>
      <trkpt lat="46.28287" lon="5.66262">
        <ele>527.4</ele>
        <time>2022-07-29T14:22:02Z</time>
      </trkpt>
      <trkpt lat="46.28287" lon="5.66262">
        <ele>527.4</ele>
        <time>2022-07-29T14:22:03Z</time>
      </trkpt>
      <trkpt lat="46.28287" lon="5.66262">
        <ele>527.4</ele>
        <time>2022-07-29T14:22:04Z</time>
      </trkpt>
      <trkpt lat="46.28287" lon="5.66262">
        <ele>527.4</ele>
        <time>2022-07-29T14:22:05Z</time>
      </trkpt>
      <trkpt lat="46.28287" lon="5.66262">
        <ele>527.4</ele>
        <time>2022-07-29T14:22:06Z</time>
      </trkpt>
      <trkpt lat="46.28287" lon="5.66262">
        <ele>527.4</ele>
        <time>2022-07-29T14:22:07Z</time>
      </trkpt>
      <trkpt lat="46.28287" lon="5.66262">
        <ele>527.4</ele>
        <time>2022-07-29T14:22:08Z</time>
      </trkpt>
      <trkpt lat="46.28287" lon="5.66262">
        <ele>527.4</ele>
        <time>2022-07-29T14:22:12Z</time>
      </trkpt>
      <trkpt lat="46.28287" lon="5.66262">
        <ele>527.4</ele>
        <time>2022-07-29T14:22:13Z</time>
      </trkpt>
      <trkpt lat="46.28287" lon="5.66262">
        <ele>527.4</ele>
        <time>2022-07-29T14:22:14Z</time>
      </trkpt>
      <trkpt lat="46.28287" lon="5.66262">
        <ele>527.4</ele>
        <time>2022-07-29T14:22:15Z</time>
      </trkpt>
      <trkpt lat="46.28287" lon="5.66262">
        <ele>527.4</ele>
        <time>2022-07-29T14:22:16Z</time>
      </trkpt>
      <trkpt lat="46.28287" lon="5.66262">
        <ele>527.4</ele>
        <time>2022-07-29T14:22:17Z</time>
      </trkpt>
      <trkpt lat="46.28287" lon="5.66262">
        <ele>527.4</ele>
        <time>2022-07-29T14:22:18Z</time>
      </trkpt>
      <trkpt lat="46.28287" lon="5.66262">
        <ele>527.4</ele>
        <time>2022-07-29T14:22:19Z</time>
      </trkpt>
      <trkpt lat="46.28287" lon="5.66262">
        <ele>527.4</ele>
        <time>2022-07-29T14:22:20Z</time>
      </trkpt>
      <trkpt lat="46.28287" lon="5.66262">
        <ele>527.4</ele>
        <time>2022-07-29T14:22:21Z</time>
      </trkpt>
      <trkpt lat="46.28287" lon="5.66262">
        <ele>527.4</ele>
        <time>2022-07-29T14:22:22Z</time>
      </trkpt>
      <trkpt lat="46.28287" lon="5.66262">
        <ele>527.4</ele>
        <time>2022-07-29T14:22:23Z</time>
      </trkpt>
      <trkpt lat="46.28287" lon="5.66262">
        <ele>527.4</ele>
        <time>2022-07-29T14:22:24Z</time>
      </trkpt>
      <trkpt lat="46.28287" lon="5.66262">
        <ele>527.4</ele>
        <time>2022-07-29T14:22:25Z</time>
      </trkpt>
      <trkpt lat="46.28287" lon="5.66262">
        <ele>527.4</ele>
        <time>2022-07-29T14:22:26Z</time>
      </trkpt>
      <trkpt lat="46.28287" lon="5.66262">
        <ele>527.4</ele>
        <time>2022-07-29T14:22:27Z</time>
      </trkpt>
      <trkpt lat="46.28287" lon="5.66262">
        <ele>527.4</ele>
        <time>2022-07-29T14:22:28Z</time>
      </trkpt>
      <trkpt lat="46.28287" lon="5.66262">
        <ele>527.4</ele>
        <time>2022-07-29T14:22:29Z</time>
      </trkpt>
      <trkpt lat="46.28287" lon="5.66262">
        <ele>527.4</ele>
        <time>2022-07-29T14:22:30Z</time>
      </trkpt>
      <trkpt lat="46.28287" lon="5.66262">
        <ele>527.2</ele>
        <time>2022-07-29T14:22:31Z</time>
      </trkpt>
      <trkpt lat="46.28287" lon="5.66262">
        <ele>527.2</ele>
        <time>2022-07-29T14:22:32Z</time>
      </trkpt>
      <trkpt lat="46.28287" lon="5.66262">
        <ele>527.2</ele>
        <time>2022-07-29T14:22:33Z</time>
      </trkpt>
      <trkpt lat="46.28287" lon="5.66262">
        <ele>527.2</ele>
        <time>2022-07-29T14:22:34Z</time>
      </trkpt>
      <trkpt lat="46.28287" lon="5.66262">
        <ele>527.2</ele>
        <time>2022-07-29T14:22:35Z</time>
      </trkpt>
      <trkpt lat="46.28287" lon="5.66262">
        <ele>527.2</ele>
        <time>2022-07-29T14:22:36Z</time>
      </trkpt>
      <trkpt lat="46.28287" lon="5.66262">
        <ele>527.2</ele>
        <time>2022-07-29T14:22:37Z</time>
      </trkpt>
      <trkpt lat="46.28287" lon="5.66262">
        <ele>527.2</ele>
        <time>2022-07-29T14:22:38Z</time>
      </trkpt>
      <trkpt lat="46.28287" lon="5.66262">
        <ele>527.2</ele>
        <time>2022-07-29T14:22:39Z</time>
      </trkpt>
      <trkpt lat="46.28287" lon="5.66262">
        <ele>527.2</ele>
        <time>2022-07-29T14:22:40Z</time>
      </trkpt>
      <trkpt lat="46.28287" lon="5.66262">
        <ele>527.2</ele>
        <time>2022-07-29T14:22:41Z</time>
      </trkpt>
      <trkpt lat="46.28287" lon="5.66262">
        <ele>527.2</ele>
        <time>2022-07-29T14:22:44Z</time>
      </trkpt>
      <trkpt lat="46.28287" lon="5.66262">
        <ele>527.2</ele>
        <time>2022-07-29T14:22:45Z</time>
      </trkpt>
      <trkpt lat="46.28287" lon="5.66262">
        <ele>527.2</ele>
        <time>2022-07-29T14:22:46Z</time>
      </trkpt>
      <trkpt lat="46.28287" lon="5.66262">
        <ele>527.2</ele>
        <time>2022-07-29T14:22:47Z</time>
      </trkpt>
      <trkpt lat="46.28287" lon="5.66262">
        <ele>527.2</ele>
        <time>2022-07-29T14:22:48Z</time>
      </trkpt>
      <trkpt lat="46.28287" lon="5.66262">
        <ele>527.2</ele>
        <time>2022-07-29T14:22:49Z</time>
      </trkpt>
      <trkpt lat="46.28287" lon="5.66262">
        <ele>527.2</ele>
        <time>2022-07-29T14:22:50Z</time>
      </trkpt>
      <trkpt lat="46.28287" lon="5.66262">
        <ele>527.2</ele>
        <time>2022-07-29T14:22:51Z</time>
      </trkpt>
      <trkpt lat="46.28287" lon="5.66262">
        <ele>527.2</ele>
        <time>2022-07-29T14:22:52Z</time>
      </trkpt>
      <trkpt lat="46.28287" lon="5.66262">
        <ele>527.2</ele>
        <time>2022-07-29T14:22:53Z</time>
      </trkpt>
      <trkpt lat="46.28287" lon="5.66262">
        <ele>527.2</ele>
        <time>2022-07-29T14:22:58Z</time>
      </trkpt>
      <trkpt lat="46.28287" lon="5.66262">
        <ele>527.2</ele>
        <time>2022-07-29T14:22:59Z</time>
      </trkpt>
      <trkpt lat="46.28287" lon="5.66262">
        <ele>527.2</ele>
        <time>2022-07-29T14:23:02Z</time>
      </trkpt>
      <trkpt lat="46.28287" lon="5.66262">
        <ele>527.2</ele>
        <time>2022-07-29T14:23:03Z</time>
      </trkpt>
      <trkpt lat="46.28287" lon="5.66262">
        <ele>527.2</ele>
        <time>2022-07-29T14:23:04Z</time>
      </trkpt>
      <trkpt lat="46.28287" lon="5.66262">
        <ele>527.2</ele>
        <time>2022-07-29T14:23:05Z</time>
      </trkpt>
      <trkpt lat="46.28287" lon="5.66262">
        <ele>527.2</ele>
        <time>2022-07-29T14:23:06Z</time>
      </trkpt>
      <trkpt lat="46.28287" lon="5.66262">
        <ele>527.2</ele>
        <time>2022-07-29T14:23:07Z</time>
      </trkpt>
      <trkpt lat="46.28287" lon="5.66262">
        <ele>527.2</ele>
        <time>2022-07-29T14:23:08Z</time>
      </trkpt>
      <trkpt lat="46.28287" lon="5.66262">
        <ele>527.2</ele>
        <time>2022-07-29T14:23:09Z</time>
      </trkpt>
      <trkpt lat="46.28287" lon="5.66262">
        <ele>527.2</ele>
        <time>2022-07-29T14:23:10Z</time>
      </trkpt>
      <trkpt lat="46.28287" lon="5.66262">
        <ele>527.2</ele>
        <time>2022-07-29T14:23:11Z</time>
      </trkpt>
      <trkpt lat="46.28287" lon="5.66262">
        <ele>527.2</ele>
        <time>2022-07-29T14:23:12Z</time>
      </trkpt>
      <trkpt lat="46.28287" lon="5.66262">
        <ele>527</ele>
        <time>2022-07-29T14:23:13Z</time>
      </trkpt>
      <trkpt lat="46.28287" lon="5.66262">
        <ele>527</ele>
        <time>2022-07-29T14:23:14Z</time>
      </trkpt>
      <trkpt lat="46.28287" lon="5.66262">
        <ele>527</ele>
        <time>2022-07-29T14:23:15Z</time>
      </trkpt>
      <trkpt lat="46.28287" lon="5.66262">
        <ele>527</ele>
        <time>2022-07-29T14:23:16Z</time>
      </trkpt>
      <trkpt lat="46.28287" lon="5.66262">
        <ele>527</ele>
        <time>2022-07-29T14:23:17Z</time>
      </trkpt>
      <trkpt lat="46.28287" lon="5.66262">
        <ele>527</ele>
        <time>2022-07-29T14:23:18Z</time>
      </trkpt>
      <trkpt lat="46.28287" lon="5.66262">
        <ele>527</ele>
        <time>2022-07-29T14:23:19Z</time>
      </trkpt>
      <trkpt lat="46.28287" lon="5.66262">
        <ele>526.8</ele>
        <time>2022-07-29T14:23:20Z</time>
      </trkpt>
      <trkpt lat="46.28287" lon="5.66262">
        <ele>526.8</ele>
        <time>2022-07-29T14:23:21Z</time>
      </trkpt>
      <trkpt lat="46.28287" lon="5.66262">
        <ele>526.8</ele>
        <time>2022-07-29T14:23:22Z</time>
      </trkpt>
      <trkpt lat="46.28287" lon="5.66262">
        <ele>526.8</ele>
        <time>2022-07-29T14:23:23Z</time>
      </trkpt>
      <trkpt lat="46.28287" lon="5.66262">
        <ele>526.8</ele>
        <time>2022-07-29T14:23:25Z</time>
      </trkpt>
      <trkpt lat="46.28287" lon="5.66262">
        <ele>526.8</ele>
        <time>2022-07-29T14:23:26Z</time>
      </trkpt>
      <trkpt lat="46.28287" lon="5.66262">
        <ele>526.8</ele>
        <time>2022-07-29T14:23:27Z</time>
      </trkpt>
      <trkpt lat="46.28287" lon="5.66262">
        <ele>526.8</ele>
        <time>2022-07-29T14:23:35Z</time>
      </trkpt>
      <trkpt lat="46.28287" lon="5.66262">
        <ele>526.8</ele>
        <time>2022-07-29T14:23:36Z</time>
      </trkpt>
      <trkpt lat="46.28287" lon="5.66262">
        <ele>526.8</ele>
        <time>2022-07-29T14:23:39Z</time>
      </trkpt>
      <trkpt lat="46.28287" lon="5.66262">
        <ele>526.8</ele>
        <time>2022-07-29T14:23:40Z</time>
      </trkpt>
      <trkpt lat="46.28287" lon="5.66262">
        <ele>526.8</ele>
        <time>2022-07-29T14:23:54Z</time>
      </trkpt>
      <trkpt lat="46.28285" lon="5.66275">
        <ele>526.8</ele>
        <time>2022-07-29T14:23:55Z</time>
      </trkpt>
      <trkpt lat="46.28285" lon="5.66275">
        <ele>526.8</ele>
        <time>2022-07-29T14:23:56Z</time>
      </trkpt>
      <trkpt lat="46.28285" lon="5.66275">
        <ele>526.8</ele>
        <time>2022-07-29T14:23:57Z</time>
      </trkpt>
      <trkpt lat="46.28285" lon="5.66275">
        <ele>526.8</ele>
        <time>2022-07-29T14:23:58Z</time>
      </trkpt>
      <trkpt lat="46.28285" lon="5.66275">
        <ele>526.8</ele>
        <time>2022-07-29T14:23:59Z</time>
      </trkpt>
      <trkpt lat="46.28285" lon="5.66275">
        <ele>526.8</ele>
        <time>2022-07-29T14:24:00Z</time>
      </trkpt>
      <trkpt lat="46.28285" lon="5.66275">
        <ele>526.8</ele>
        <time>2022-07-29T14:24:01Z</time>
      </trkpt>
      <trkpt lat="46.28285" lon="5.66275">
        <ele>526.8</ele>
        <time>2022-07-29T14:24:02Z</time>
      </trkpt>
      <trkpt lat="46.28285" lon="5.66275">
        <ele>526.8</ele>
        <time>2022-07-29T14:24:03Z</time>
      </trkpt>
      <trkpt lat="46.28285" lon="5.66275">
        <ele>527</ele>
        <time>2022-07-29T14:24:04Z</time>
      </trkpt>
      <trkpt lat="46.28285" lon="5.66275">
        <ele>527</ele>
        <time>2022-07-29T14:24:05Z</time>
      </trkpt>
      <trkpt lat="46.28285" lon="5.66275">
        <ele>527</ele>
        <time>2022-07-29T14:24:06Z</time>
      </trkpt>
      <trkpt lat="46.28285" lon="5.66275">
        <ele>527</ele>
        <time>2022-07-29T14:24:07Z</time>
      </trkpt>
      <trkpt lat="46.28285" lon="5.66275">
        <ele>527</ele>
        <time>2022-07-29T14:24:08Z</time>
      </trkpt>
      <trkpt lat="46.28285" lon="5.66275">
        <ele>527</ele>
        <time>2022-07-29T14:24:09Z</time>
      </trkpt>
      <trkpt lat="46.28285" lon="5.66275">
        <ele>527</ele>
        <time>2022-07-29T14:24:10Z</time>
      </trkpt>
      <trkpt lat="46.28285" lon="5.66275">
        <ele>527.2</ele>
        <time>2022-07-29T14:24:11Z</time>
      </trkpt>
      <trkpt lat="46.28285" lon="5.66275">
        <ele>527.2</ele>
        <time>2022-07-29T14:24:12Z</time>
      </trkpt>
      <trkpt lat="46.28285" lon="5.66275">
        <ele>527.2</ele>
        <time>2022-07-29T14:24:13Z</time>
      </trkpt>
      <trkpt lat="46.28285" lon="5.66275">
        <ele>527.2</ele>
        <time>2022-07-29T14:24:14Z</time>
      </trkpt>
      <trkpt lat="46.28285" lon="5.66275">
        <ele>527.4</ele>
        <time>2022-07-29T14:24:16Z</time>
      </trkpt>
      <trkpt lat="46.28285" lon="5.66275">
        <ele>527.4</ele>
        <time>2022-07-29T14:24:17Z</time>
      </trkpt>
      <trkpt lat="46.28285" lon="5.66275">
        <ele>527.4</ele>
        <time>2022-07-29T14:24:18Z</time>
      </trkpt>
      <trkpt lat="46.28285" lon="5.66275">
        <ele>527.4</ele>
        <time>2022-07-29T14:24:19Z</time>
      </trkpt>
      <trkpt lat="46.28285" lon="5.66275">
        <ele>527.4</ele>
        <time>2022-07-29T14:24:20Z</time>
      </trkpt>
      <trkpt lat="46.28285" lon="5.66275">
        <ele>527.4</ele>
        <time>2022-07-29T14:24:21Z</time>
      </trkpt>
      <trkpt lat="46.28285" lon="5.66275">
        <ele>527.4</ele>
        <time>2022-07-29T14:24:22Z</time>
      </trkpt>
      <trkpt lat="46.28285" lon="5.66275">
        <ele>527.4</ele>
        <time>2022-07-29T14:24:23Z</time>
      </trkpt>
      <trkpt lat="46.28285" lon="5.66275">
        <ele>527.4</ele>
        <time>2022-07-29T14:24:24Z</time>
      </trkpt>
      <trkpt lat="46.28285" lon="5.66275">
        <ele>527.4</ele>
        <time>2022-07-29T14:24:25Z</time>
      </trkpt>
      <trkpt lat="46.28285" lon="5.66275">
        <ele>527.4</ele>
        <time>2022-07-29T14:24:26Z</time>
      </trkpt>
      <trkpt lat="46.28285" lon="5.66275">
        <ele>527.4</ele>
        <time>2022-07-29T14:24:27Z</time>
      </trkpt>
      <trkpt lat="46.28285" lon="5.66275">
        <ele>527.4</ele>
        <time>2022-07-29T14:24:28Z</time>
      </trkpt>
      <trkpt lat="46.28285" lon="5.66275">
        <ele>527.4</ele>
        <time>2022-07-29T14:24:29Z</time>
      </trkpt>
      <trkpt lat="46.28285" lon="5.66275">
        <ele>527.4</ele>
        <time>2022-07-29T14:24:30Z</time>
      </trkpt>
      <trkpt lat="46.28285" lon="5.66275">
        <ele>527.4</ele>
        <time>2022-07-29T14:24:31Z</time>
      </trkpt>
      <trkpt lat="46.28285" lon="5.66275">
        <ele>527.4</ele>
        <time>2022-07-29T14:24:32Z</time>
      </trkpt>
      <trkpt lat="46.28285" lon="5.66275">
        <ele>527.4</ele>
        <time>2022-07-29T14:24:33Z</time>
      </trkpt>
      <trkpt lat="46.28285" lon="5.66275">
        <ele>527.4</ele>
        <time>2022-07-29T14:24:34Z</time>
      </trkpt>
      <trkpt lat="46.28285" lon="5.66275">
        <ele>527.4</ele>
        <time>2022-07-29T14:24:35Z</time>
      </trkpt>
      <trkpt lat="46.28285" lon="5.66275">
        <ele>527.4</ele>
        <time>2022-07-29T14:24:36Z</time>
      </trkpt>
      <trkpt lat="46.28285" lon="5.66275">
        <ele>527.4</ele>
        <time>2022-07-29T14:24:37Z</time>
      </trkpt>
      <trkpt lat="46.28285" lon="5.66275">
        <ele>527.4</ele>
        <time>2022-07-29T14:24:38Z</time>
      </trkpt>
      <trkpt lat="46.28285" lon="5.66275">
        <ele>527.4</ele>
        <time>2022-07-29T14:24:39Z</time>
      </trkpt>
      <trkpt lat="46.28285" lon="5.66275">
        <ele>527.4</ele>
        <time>2022-07-29T14:24:40Z</time>
      </trkpt>
      <trkpt lat="46.28285" lon="5.66275">
        <ele>527.4</ele>
        <time>2022-07-29T14:24:41Z</time>
      </trkpt>
      <trkpt lat="46.28285" lon="5.66275">
        <ele>527.4</ele>
        <time>2022-07-29T14:24:42Z</time>
      </trkpt>
      <trkpt lat="46.28285" lon="5.66275">
        <ele>527.4</ele>
        <time>2022-07-29T14:24:43Z</time>
      </trkpt>
      <trkpt lat="46.28285" lon="5.66275">
        <ele>527.4</ele>
        <time>2022-07-29T14:24:44Z</time>
      </trkpt>
      <trkpt lat="46.28285" lon="5.66275">
        <ele>527.4</ele>
        <time>2022-07-29T14:24:45Z</time>
      </trkpt>
      <trkpt lat="46.28285" lon="5.66275">
        <ele>527.4</ele>
        <time>2022-07-29T14:24:46Z</time>
      </trkpt>
      <trkpt lat="46.28285" lon="5.66275">
        <ele>527.4</ele>
        <time>2022-07-29T14:24:47Z</time>
      </trkpt>
      <trkpt lat="46.28285" lon="5.66275">
        <ele>527.4</ele>
        <time>2022-07-29T14:24:48Z</time>
      </trkpt>
      <trkpt lat="46.28285" lon="5.66275">
        <ele>527.6</ele>
        <time>2022-07-29T14:24:49Z</time>
      </trkpt>
      <trkpt lat="46.28285" lon="5.66275">
        <ele>527.6</ele>
        <time>2022-07-29T14:24:50Z</time>
      </trkpt>
      <trkpt lat="46.28285" lon="5.66275">
        <ele>527.6</ele>
        <time>2022-07-29T14:24:51Z</time>
      </trkpt>
      <trkpt lat="46.28285" lon="5.66275">
        <ele>527.6</ele>
        <time>2022-07-29T14:24:52Z</time>
      </trkpt>
      <trkpt lat="46.28285" lon="5.66275">
        <ele>527.6</ele>
        <time>2022-07-29T14:24:53Z</time>
      </trkpt>
      <trkpt lat="46.28285" lon="5.66275">
        <ele>527.6</ele>
        <time>2022-07-29T14:24:54Z</time>
      </trkpt>
      <trkpt lat="46.28285" lon="5.66275">
        <ele>527.6</ele>
        <time>2022-07-29T14:24:55Z</time>
      </trkpt>
      <trkpt lat="46.28285" lon="5.66275">
        <ele>527.6</ele>
        <time>2022-07-29T14:24:56Z</time>
      </trkpt>
      <trkpt lat="46.28285" lon="5.66275">
        <ele>527.6</ele>
        <time>2022-07-29T14:24:57Z</time>
      </trkpt>
      <trkpt lat="46.28285" lon="5.66275">
        <ele>527.6</ele>
        <time>2022-07-29T14:24:58Z</time>
      </trkpt>
      <trkpt lat="46.28285" lon="5.66275">
        <ele>527.6</ele>
        <time>2022-07-29T14:24:59Z</time>
      </trkpt>
      <trkpt lat="46.28285" lon="5.66275">
        <ele>527.6</ele>
        <time>2022-07-29T14:25:01Z</time>
      </trkpt>
      <trkpt lat="46.28285" lon="5.66275">
        <ele>527.6</ele>
        <time>2022-07-29T14:25:02Z</time>
      </trkpt>
      <trkpt lat="46.28285" lon="5.66275">
        <ele>527.6</ele>
        <time>2022-07-29T14:25:03Z</time>
      </trkpt>
      <trkpt lat="46.28285" lon="5.66275">
        <ele>527.6</ele>
        <time>2022-07-29T14:25:04Z</time>
      </trkpt>
      <trkpt lat="46.28285" lon="5.66275">
        <ele>527.6</ele>
        <time>2022-07-29T14:25:05Z</time>
      </trkpt>
      <trkpt lat="46.28285" lon="5.66275">
        <ele>527.6</ele>
        <time>2022-07-29T14:25:06Z</time>
      </trkpt>
      <trkpt lat="46.28285" lon="5.66275">
        <ele>527.6</ele>
        <time>2022-07-29T14:25:07Z</time>
      </trkpt>
      <trkpt lat="46.28285" lon="5.66275">
        <ele>527.6</ele>
        <time>2022-07-29T14:25:08Z</time>
      </trkpt>
      <trkpt lat="46.28285" lon="5.66275">
        <ele>527.6</ele>
        <time>2022-07-29T14:25:09Z</time>
      </trkpt>
      <trkpt lat="46.28285" lon="5.66275">
        <ele>527.6</ele>
        <time>2022-07-29T14:25:10Z</time>
      </trkpt>
      <trkpt lat="46.28285" lon="5.66275">
        <ele>527.6</ele>
        <time>2022-07-29T14:25:11Z</time>
      </trkpt>
      <trkpt lat="46.28285" lon="5.66275">
        <ele>527.6</ele>
        <time>2022-07-29T14:25:12Z</time>
      </trkpt>
      <trkpt lat="46.28285" lon="5.66275">
        <ele>527.6</ele>
        <time>2022-07-29T14:25:13Z</time>
      </trkpt>
      <trkpt lat="46.28285" lon="5.66275">
        <ele>527.6</ele>
        <time>2022-07-29T14:25:15Z</time>
      </trkpt>
      <trkpt lat="46.28285" lon="5.66275">
        <ele>527.6</ele>
        <time>2022-07-29T14:25:16Z</time>
      </trkpt>
      <trkpt lat="46.28285" lon="5.66275">
        <ele>527.6</ele>
        <time>2022-07-29T14:25:17Z</time>
      </trkpt>
      <trkpt lat="46.28285" lon="5.66275">
        <ele>527.6</ele>
        <time>2022-07-29T14:25:18Z</time>
      </trkpt>
      <trkpt lat="46.28285" lon="5.66275">
        <ele>527.6</ele>
        <time>2022-07-29T14:25:19Z</time>
      </trkpt>
      <trkpt lat="46.28285" lon="5.66275">
        <ele>527.6</ele>
        <time>2022-07-29T14:25:20Z</time>
      </trkpt>
      <trkpt lat="46.28285" lon="5.66275">
        <ele>527.6</ele>
        <time>2022-07-29T14:25:21Z</time>
      </trkpt>
      <trkpt lat="46.28285" lon="5.66275">
        <ele>527.6</ele>
        <time>2022-07-29T14:25:22Z</time>
      </trkpt>
      <trkpt lat="46.28285" lon="5.66275">
        <ele>527.6</ele>
        <time>2022-07-29T14:25:23Z</time>
      </trkpt>
      <trkpt lat="46.28285" lon="5.66275">
        <ele>527.6</ele>
        <time>2022-07-29T14:25:24Z</time>
      </trkpt>
      <trkpt lat="46.28285" lon="5.66275">
        <ele>527.6</ele>
        <time>2022-07-29T14:25:25Z</time>
      </trkpt>
      <trkpt lat="46.28285" lon="5.66275">
        <ele>527.6</ele>
        <time>2022-07-29T14:25:26Z</time>
      </trkpt>
      <trkpt lat="46.28285" lon="5.66275">
        <ele>527.6</ele>
        <time>2022-07-29T14:25:27Z</time>
      </trkpt>
      <trkpt lat="46.28285" lon="5.66275">
        <ele>527.6</ele>
        <time>2022-07-29T14:25:28Z</time>
      </trkpt>
      <trkpt lat="46.28285" lon="5.66275">
        <ele>527.6</ele>
        <time>2022-07-29T14:25:29Z</time>
      </trkpt>
      <trkpt lat="46.28285" lon="5.66275">
        <ele>527.6</ele>
        <time>2022-07-29T14:25:30Z</time>
      </trkpt>
      <trkpt lat="46.28285" lon="5.66275">
        <ele>527.6</ele>
        <time>2022-07-29T14:25:31Z</time>
      </trkpt>
      <trkpt lat="46.28285" lon="5.66275">
        <ele>527.6</ele>
        <time>2022-07-29T14:25:32Z</time>
      </trkpt>
      <trkpt lat="46.28285" lon="5.66275">
        <ele>527.6</ele>
        <time>2022-07-29T14:25:33Z</time>
      </trkpt>
      <trkpt lat="46.28285" lon="5.66275">
        <ele>527.6</ele>
        <time>2022-07-29T14:25:34Z</time>
      </trkpt>
      <trkpt lat="46.28285" lon="5.66275">
        <ele>527.6</ele>
        <time>2022-07-29T14:25:35Z</time>
      </trkpt>
      <trkpt lat="46.28285" lon="5.66275">
        <ele>527.6</ele>
        <time>2022-07-29T14:25:36Z</time>
      </trkpt>
      <trkpt lat="46.28285" lon="5.66275">
        <ele>527.6</ele>
        <time>2022-07-29T14:25:37Z</time>
      </trkpt>
      <trkpt lat="46.28285" lon="5.66275">
        <ele>527.6</ele>
        <time>2022-07-29T14:25:38Z</time>
      </trkpt>
      <trkpt lat="46.28285" lon="5.66275">
        <ele>527.6</ele>
        <time>2022-07-29T14:25:39Z</time>
      </trkpt>
      <trkpt lat="46.28285" lon="5.66275">
        <ele>527.6</ele>
        <time>2022-07-29T14:25:40Z</time>
      </trkpt>
      <trkpt lat="46.28285" lon="5.66275">
        <ele>527.6</ele>
        <time>2022-07-29T14:25:43Z</time>
      </trkpt>
      <trkpt lat="46.28285" lon="5.66275">
        <ele>527.6</ele>
        <time>2022-07-29T14:25:44Z</time>
      </trkpt>
      <trkpt lat="46.28285" lon="5.66275">
        <ele>527.6</ele>
        <time>2022-07-29T14:25:45Z</time>
      </trkpt>
      <trkpt lat="46.28285" lon="5.66275">
        <ele>527.6</ele>
        <time>2022-07-29T14:25:46Z</time>
      </trkpt>
      <trkpt lat="46.28285" lon="5.66275">
        <ele>527.6</ele>
        <time>2022-07-29T14:25:48Z</time>
      </trkpt>
      <trkpt lat="46.28285" lon="5.66275">
        <ele>527.6</ele>
        <time>2022-07-29T14:25:49Z</time>
      </trkpt>
      <trkpt lat="46.28285" lon="5.66275">
        <ele>527.6</ele>
        <time>2022-07-29T14:25:50Z</time>
      </trkpt>
      <trkpt lat="46.28285" lon="5.66275">
        <ele>527.6</ele>
        <time>2022-07-29T14:25:52Z</time>
      </trkpt>
      <trkpt lat="46.28285" lon="5.66275">
        <ele>527.6</ele>
        <time>2022-07-29T14:25:53Z</time>
      </trkpt>
      <trkpt lat="46.28285" lon="5.66275">
        <ele>527.6</ele>
        <time>2022-07-29T14:25:56Z</time>
      </trkpt>
      <trkpt lat="46.28285" lon="5.66275">
        <ele>527.6</ele>
        <time>2022-07-29T14:25:57Z</time>
      </trkpt>
      <trkpt lat="46.28285" lon="5.66275">
        <ele>527.6</ele>
        <time>2022-07-29T14:25:59Z</time>
      </trkpt>
      <trkpt lat="46.28285" lon="5.66275">
        <ele>527.6</ele>
        <time>2022-07-29T14:26:00Z</time>
      </trkpt>
      <trkpt lat="46.28285" lon="5.66275">
        <ele>527.6</ele>
        <time>2022-07-29T14:26:05Z</time>
      </trkpt>
      <trkpt lat="46.28285" lon="5.66275">
        <ele>527.6</ele>
        <time>2022-07-29T14:26:06Z</time>
      </trkpt>
      <trkpt lat="46.28285" lon="5.66275">
        <ele>527.8</ele>
        <time>2022-07-29T14:29:59Z</time>
      </trkpt>
      <trkpt lat="46.28285" lon="5.66275">
        <ele>527.8</ele>
        <time>2022-07-29T14:30:00Z</time>
      </trkpt>
      <trkpt lat="46.28285" lon="5.66275">
        <ele>527.8</ele>
        <time>2022-07-29T14:30:01Z</time>
      </trkpt>
      <trkpt lat="46.28285" lon="5.66275">
        <ele>527.8</ele>
        <time>2022-07-29T14:30:02Z</time>
      </trkpt>
      <trkpt lat="46.28285" lon="5.66275">
        <ele>528</ele>
        <time>2022-07-29T14:30:09Z</time>
      </trkpt>
      <trkpt lat="46.28285" lon="5.66275">
        <ele>528</ele>
        <time>2022-07-29T14:30:10Z</time>
      </trkpt>
      <trkpt lat="46.28285" lon="5.66275">
        <ele>528</ele>
        <time>2022-07-29T14:30:11Z</time>
      </trkpt>
      <trkpt lat="46.28285" lon="5.66275">
        <ele>528</ele>
        <time>2022-07-29T14:30:12Z</time>
      </trkpt>
      <trkpt lat="46.28285" lon="5.66275">
        <ele>528</ele>
        <time>2022-07-29T14:30:13Z</time>
      </trkpt>
      <trkpt lat="46.28285" lon="5.66275">
        <ele>528</ele>
        <time>2022-07-29T14:30:14Z</time>
      </trkpt>
      <trkpt lat="46.28285" lon="5.66275">
        <ele>528</ele>
        <time>2022-07-29T14:30:15Z</time>
      </trkpt>
      <trkpt lat="46.28285" lon="5.66275">
        <ele>528</ele>
        <time>2022-07-29T14:30:16Z</time>
      </trkpt>
      <trkpt lat="46.28291" lon="5.66276">
        <ele>528</ele>
        <time>2022-07-29T14:30:17Z</time>
      </trkpt>
      <trkpt lat="46.28293" lon="5.66277">
        <ele>528</ele>
        <time>2022-07-29T14:30:18Z</time>
      </trkpt>
      <trkpt lat="46.28295" lon="5.66278">
        <ele>528</ele>
        <time>2022-07-29T14:30:19Z</time>
      </trkpt>
      <trkpt lat="46.28297" lon="5.6628">
        <ele>528</ele>
        <time>2022-07-29T14:30:20Z</time>
      </trkpt>
      <trkpt lat="46.283" lon="5.66282">
        <ele>528</ele>
        <time>2022-07-29T14:30:21Z</time>
      </trkpt>
      <trkpt lat="46.28302" lon="5.66284">
        <ele>528</ele>
        <time>2022-07-29T14:30:22Z</time>
      </trkpt>
      <trkpt lat="46.28304" lon="5.66287">
        <ele>528</ele>
        <time>2022-07-29T14:30:23Z</time>
      </trkpt>
      <trkpt lat="46.28306" lon="5.6629">
        <ele>528</ele>
        <time>2022-07-29T14:30:24Z</time>
      </trkpt>
      <trkpt lat="46.28308" lon="5.66293">
        <ele>528</ele>
        <time>2022-07-29T14:30:25Z</time>
      </trkpt>
      <trkpt lat="46.2831" lon="5.66296">
        <ele>528</ele>
        <time>2022-07-29T14:30:26Z</time>
      </trkpt>
      <trkpt lat="46.28312" lon="5.66299">
        <ele>528</ele>
        <time>2022-07-29T14:30:27Z</time>
      </trkpt>
      <trkpt lat="46.28314" lon="5.66302">
        <ele>528</ele>
        <time>2022-07-29T14:30:28Z</time>
      </trkpt>
      <trkpt lat="46.28316" lon="5.66304">
        <ele>528</ele>
        <time>2022-07-29T14:30:29Z</time>
      </trkpt>
      <trkpt lat="46.28318" lon="5.66307">
        <ele>528</ele>
        <time>2022-07-29T14:30:30Z</time>
      </trkpt>
      <trkpt lat="46.28321" lon="5.66309">
        <ele>528</ele>
        <time>2022-07-29T14:30:31Z</time>
      </trkpt>
      <trkpt lat="46.28324" lon="5.66312">
        <ele>528</ele>
        <time>2022-07-29T14:30:32Z</time>
      </trkpt>
      <trkpt lat="46.28326" lon="5.66314">
        <ele>528</ele>
        <time>2022-07-29T14:30:33Z</time>
      </trkpt>
      <trkpt lat="46.28329" lon="5.66317">
        <ele>528</ele>
        <time>2022-07-29T14:30:34Z</time>
      </trkpt>
      <trkpt lat="46.28329" lon="5.66317">
        <ele>528</ele>
        <time>2022-07-29T14:30:35Z</time>
      </trkpt>
      <trkpt lat="46.28332" lon="5.66319">
        <ele>528</ele>
        <time>2022-07-29T14:30:36Z</time>
      </trkpt>
      <trkpt lat="46.28335" lon="5.6632">
        <ele>528</ele>
        <time>2022-07-29T14:30:37Z</time>
      </trkpt>
      <trkpt lat="46.28337" lon="5.66323">
        <ele>528</ele>
        <time>2022-07-29T14:30:38Z</time>
      </trkpt>
      <trkpt lat="46.2834" lon="5.66325">
        <ele>528</ele>
        <time>2022-07-29T14:30:39Z</time>
      </trkpt>
      <trkpt lat="46.28342" lon="5.66327">
        <ele>527.8</ele>
        <time>2022-07-29T14:30:40Z</time>
      </trkpt>
      <trkpt lat="46.28345" lon="5.6633">
        <ele>527.8</ele>
        <time>2022-07-29T14:30:41Z</time>
      </trkpt>
      <trkpt lat="46.28348" lon="5.66332">
        <ele>527.8</ele>
        <time>2022-07-29T14:30:42Z</time>
      </trkpt>
      <trkpt lat="46.28351" lon="5.66335">
        <ele>527.8</ele>
        <time>2022-07-29T14:30:43Z</time>
      </trkpt>
      <trkpt lat="46.28355" lon="5.66337">
        <ele>527.8</ele>
        <time>2022-07-29T14:30:44Z</time>
      </trkpt>
      <trkpt lat="46.28358" lon="5.66339">
        <ele>527.8</ele>
        <time>2022-07-29T14:30:45Z</time>
      </trkpt>
      <trkpt lat="46.28362" lon="5.6634">
        <ele>527.8</ele>
        <time>2022-07-29T14:30:46Z</time>
      </trkpt>
      <trkpt lat="46.28366" lon="5.66339">
        <ele>527.8</ele>
        <time>2022-07-29T14:30:47Z</time>
      </trkpt>
      <trkpt lat="46.2837" lon="5.66338">
        <ele>527.8</ele>
        <time>2022-07-29T14:30:48Z</time>
      </trkpt>
      <trkpt lat="46.28374" lon="5.66337">
        <ele>527.8</ele>
        <time>2022-07-29T14:30:49Z</time>
      </trkpt>
      <trkpt lat="46.28379" lon="5.66336">
        <ele>527.8</ele>
        <time>2022-07-29T14:30:50Z</time>
      </trkpt>
      <trkpt lat="46.28383" lon="5.66334">
        <ele>527.8</ele>
        <time>2022-07-29T14:30:51Z</time>
      </trkpt>
      <trkpt lat="46.28387" lon="5.66334">
        <ele>527.8</ele>
        <time>2022-07-29T14:30:52Z</time>
      </trkpt>
      <trkpt lat="46.28391" lon="5.66334">
        <ele>527.8</ele>
        <time>2022-07-29T14:30:53Z</time>
      </trkpt>
      <trkpt lat="46.28395" lon="5.66336">
        <ele>527.8</ele>
        <time>2022-07-29T14:30:54Z</time>
      </trkpt>
      <trkpt lat="46.28399" lon="5.66338">
        <ele>527.8</ele>
        <time>2022-07-29T14:30:55Z</time>
      </trkpt>
      <trkpt lat="46.28402" lon="5.66341">
        <ele>527.8</ele>
        <time>2022-07-29T14:30:56Z</time>
      </trkpt>
      <trkpt lat="46.28404" lon="5.66344">
        <ele>527.8</ele>
        <time>2022-07-29T14:30:57Z</time>
      </trkpt>
      <trkpt lat="46.28407" lon="5.66347">
        <ele>528.2</ele>
        <time>2022-07-29T14:30:58Z</time>
      </trkpt>
      <trkpt lat="46.2841" lon="5.6635">
        <ele>528.2</ele>
        <time>2022-07-29T14:30:59Z</time>
      </trkpt>
      <trkpt lat="46.28412" lon="5.66354">
        <ele>528.2</ele>
        <time>2022-07-29T14:31:00Z</time>
      </trkpt>
      <trkpt lat="46.28414" lon="5.66359">
        <ele>528.2</ele>
        <time>2022-07-29T14:31:01Z</time>
      </trkpt>
      <trkpt lat="46.28416" lon="5.66364">
        <ele>528.2</ele>
        <time>2022-07-29T14:31:02Z</time>
      </trkpt>
      <trkpt lat="46.28417" lon="5.66369">
        <ele>528.2</ele>
        <time>2022-07-29T14:31:03Z</time>
      </trkpt>
      <trkpt lat="46.28419" lon="5.66375">
        <ele>528.2</ele>
        <time>2022-07-29T14:31:04Z</time>
      </trkpt>
      <trkpt lat="46.28419" lon="5.66381">
        <ele>528.2</ele>
        <time>2022-07-29T14:31:05Z</time>
      </trkpt>
      <trkpt lat="46.28419" lon="5.66389">
        <ele>528.4</ele>
        <time>2022-07-29T14:31:06Z</time>
      </trkpt>
      <trkpt lat="46.28419" lon="5.66397">
        <ele>528.4</ele>
        <time>2022-07-29T14:31:07Z</time>
      </trkpt>
      <trkpt lat="46.28421" lon="5.66404">
        <ele>528.4</ele>
        <time>2022-07-29T14:31:08Z</time>
      </trkpt>
      <trkpt lat="46.28424" lon="5.6641">
        <ele>528.4</ele>
        <time>2022-07-29T14:31:09Z</time>
      </trkpt>
      <trkpt lat="46.28428" lon="5.66414">
        <ele>528.6</ele>
        <time>2022-07-29T14:31:10Z</time>
      </trkpt>
      <trkpt lat="46.28432" lon="5.66416">
        <ele>528.8</ele>
        <time>2022-07-29T14:31:11Z</time>
      </trkpt>
      <trkpt lat="46.28437" lon="5.66416">
        <ele>528.8</ele>
        <time>2022-07-29T14:31:12Z</time>
      </trkpt>
      <trkpt lat="46.28441" lon="5.66414">
        <ele>529.2</ele>
        <time>2022-07-29T14:31:13Z</time>
      </trkpt>
      <trkpt lat="46.28446" lon="5.66411">
        <ele>529.2</ele>
        <time>2022-07-29T14:31:14Z</time>
      </trkpt>
      <trkpt lat="46.2845" lon="5.66407">
        <ele>529.4</ele>
        <time>2022-07-29T14:31:15Z</time>
      </trkpt>
      <trkpt lat="46.28454" lon="5.66403">
        <ele>529.4</ele>
        <time>2022-07-29T14:31:16Z</time>
      </trkpt>
      <trkpt lat="46.28459" lon="5.66399">
        <ele>529.4</ele>
        <time>2022-07-29T14:31:17Z</time>
      </trkpt>
      <trkpt lat="46.28465" lon="5.66396">
        <ele>529.4</ele>
        <time>2022-07-29T14:31:18Z</time>
      </trkpt>
      <trkpt lat="46.2847" lon="5.66394">
        <ele>529.4</ele>
        <time>2022-07-29T14:31:19Z</time>
      </trkpt>
      <trkpt lat="46.28476" lon="5.66392">
        <ele>529.4</ele>
        <time>2022-07-29T14:31:20Z</time>
      </trkpt>
      <trkpt lat="46.28481" lon="5.6639">
        <ele>529.4</ele>
        <time>2022-07-29T14:31:21Z</time>
      </trkpt>
      <trkpt lat="46.28487" lon="5.66388">
        <ele>529.4</ele>
        <time>2022-07-29T14:31:22Z</time>
      </trkpt>
      <trkpt lat="46.28492" lon="5.66386">
        <ele>529.4</ele>
        <time>2022-07-29T14:31:23Z</time>
      </trkpt>
      <trkpt lat="46.28497" lon="5.66384">
        <ele>529.4</ele>
        <time>2022-07-29T14:31:24Z</time>
      </trkpt>
      <trkpt lat="46.28502" lon="5.66382">
        <ele>529.4</ele>
        <time>2022-07-29T14:31:25Z</time>
      </trkpt>
      <trkpt lat="46.28507" lon="5.6638">
        <ele>529.4</ele>
        <time>2022-07-29T14:31:26Z</time>
      </trkpt>
      <trkpt lat="46.28512" lon="5.66377">
        <ele>529.6</ele>
        <time>2022-07-29T14:31:27Z</time>
      </trkpt>
      <trkpt lat="46.28516" lon="5.66373">
        <ele>529.6</ele>
        <time>2022-07-29T14:31:28Z</time>
      </trkpt>
      <trkpt lat="46.2852" lon="5.66368">
        <ele>529.6</ele>
        <time>2022-07-29T14:31:29Z</time>
      </trkpt>
      <trkpt lat="46.28524" lon="5.66363">
        <ele>529.6</ele>
        <time>2022-07-29T14:31:30Z</time>
      </trkpt>
      <trkpt lat="46.28527" lon="5.66358">
        <ele>529.8</ele>
        <time>2022-07-29T14:31:31Z</time>
      </trkpt>
      <trkpt lat="46.2853" lon="5.66352">
        <ele>529.8</ele>
        <time>2022-07-29T14:31:32Z</time>
      </trkpt>
      <trkpt lat="46.28533" lon="5.66345">
        <ele>529.8</ele>
        <time>2022-07-29T14:31:33Z</time>
      </trkpt>
      <trkpt lat="46.28535" lon="5.66339">
        <ele>529.8</ele>
        <time>2022-07-29T14:31:34Z</time>
      </trkpt>
      <trkpt lat="46.28537" lon="5.66332">
        <ele>530</ele>
        <time>2022-07-29T14:31:35Z</time>
      </trkpt>
      <trkpt lat="46.28538" lon="5.66326">
        <ele>530</ele>
        <time>2022-07-29T14:31:36Z</time>
      </trkpt>
      <trkpt lat="46.28539" lon="5.66319">
        <ele>530.2</ele>
        <time>2022-07-29T14:31:37Z</time>
      </trkpt>
      <trkpt lat="46.28539" lon="5.66312">
        <ele>530.2</ele>
        <time>2022-07-29T14:31:38Z</time>
      </trkpt>
      <trkpt lat="46.28539" lon="5.66305">
        <ele>530.2</ele>
        <time>2022-07-29T14:31:39Z</time>
      </trkpt>
      <trkpt lat="46.28538" lon="5.66298">
        <ele>530.2</ele>
        <time>2022-07-29T14:31:40Z</time>
      </trkpt>
      <trkpt lat="46.28537" lon="5.66291">
        <ele>530.4</ele>
        <time>2022-07-29T14:31:41Z</time>
      </trkpt>
      <trkpt lat="46.28536" lon="5.66284">
        <ele>530.4</ele>
        <time>2022-07-29T14:31:42Z</time>
      </trkpt>
      <trkpt lat="46.28536" lon="5.66278">
        <ele>530.4</ele>
        <time>2022-07-29T14:31:43Z</time>
      </trkpt>
      <trkpt lat="46.28534" lon="5.66266">
        <ele>530.4</ele>
        <time>2022-07-29T14:31:44Z</time>
      </trkpt>
      <trkpt lat="46.28534" lon="5.6626">
        <ele>530.4</ele>
        <time>2022-07-29T14:31:45Z</time>
      </trkpt>
      <trkpt lat="46.28536" lon="5.66254">
        <ele>530.4</ele>
        <time>2022-07-29T14:31:46Z</time>
      </trkpt>
      <trkpt lat="46.28538" lon="5.66247">
        <ele>530.4</ele>
        <time>2022-07-29T14:31:47Z</time>
      </trkpt>
      <trkpt lat="46.28541" lon="5.66239">
        <ele>530.2</ele>
        <time>2022-07-29T14:31:48Z</time>
      </trkpt>
      <trkpt lat="46.28543" lon="5.66231">
        <ele>530.2</ele>
        <time>2022-07-29T14:31:49Z</time>
      </trkpt>
      <trkpt lat="46.28545" lon="5.66222">
        <ele>530.2</ele>
        <time>2022-07-29T14:31:50Z</time>
      </trkpt>
      <trkpt lat="46.28545" lon="5.66213">
        <ele>530</ele>
        <time>2022-07-29T14:31:51Z</time>
      </trkpt>
      <trkpt lat="46.28543" lon="5.66205">
        <ele>530</ele>
        <time>2022-07-29T14:31:52Z</time>
      </trkpt>
      <trkpt lat="46.28541" lon="5.66197">
        <ele>530</ele>
        <time>2022-07-29T14:31:53Z</time>
      </trkpt>
      <trkpt lat="46.28537" lon="5.6619">
        <ele>529.8</ele>
        <time>2022-07-29T14:31:54Z</time>
      </trkpt>
      <trkpt lat="46.28533" lon="5.66184">
        <ele>529.8</ele>
        <time>2022-07-29T14:31:55Z</time>
      </trkpt>
      <trkpt lat="46.2853" lon="5.66177">
        <ele>529.8</ele>
        <time>2022-07-29T14:31:56Z</time>
      </trkpt>
      <trkpt lat="46.28529" lon="5.6617">
        <ele>529.8</ele>
        <time>2022-07-29T14:31:57Z</time>
      </trkpt>
      <trkpt lat="46.2853" lon="5.66164">
        <ele>529.8</ele>
        <time>2022-07-29T14:31:58Z</time>
      </trkpt>
      <trkpt lat="46.28533" lon="5.6616">
        <ele>529.8</ele>
        <time>2022-07-29T14:31:59Z</time>
      </trkpt>
      <trkpt lat="46.28536" lon="5.66159">
        <ele>529.8</ele>
        <time>2022-07-29T14:32:00Z</time>
      </trkpt>
      <trkpt lat="46.28541" lon="5.66159">
        <ele>529.8</ele>
        <time>2022-07-29T14:32:01Z</time>
      </trkpt>
      <trkpt lat="46.28545" lon="5.6616">
        <ele>530</ele>
        <time>2022-07-29T14:32:02Z</time>
      </trkpt>
      <trkpt lat="46.28549" lon="5.66162">
        <ele>530</ele>
        <time>2022-07-29T14:32:03Z</time>
      </trkpt>
      <trkpt lat="46.28554" lon="5.66164">
        <ele>530</ele>
        <time>2022-07-29T14:32:04Z</time>
      </trkpt>
      <trkpt lat="46.28558" lon="5.66165">
        <ele>530</ele>
        <time>2022-07-29T14:32:05Z</time>
      </trkpt>
      <trkpt lat="46.28563" lon="5.66166">
        <ele>530</ele>
        <time>2022-07-29T14:32:06Z</time>
      </trkpt>
      <trkpt lat="46.28568" lon="5.66167">
        <ele>529.8</ele>
        <time>2022-07-29T14:32:07Z</time>
      </trkpt>
      <trkpt lat="46.28573" lon="5.66168">
        <ele>529.8</ele>
        <time>2022-07-29T14:32:08Z</time>
      </trkpt>
      <trkpt lat="46.28578" lon="5.66168">
        <ele>529.8</ele>
        <time>2022-07-29T14:32:09Z</time>
      </trkpt>
      <trkpt lat="46.28583" lon="5.66168">
        <ele>529.6</ele>
        <time>2022-07-29T14:32:10Z</time>
      </trkpt>
      <trkpt lat="46.28589" lon="5.66167">
        <ele>529.6</ele>
        <time>2022-07-29T14:32:11Z</time>
      </trkpt>
      <trkpt lat="46.28594" lon="5.66166">
        <ele>529.2</ele>
        <time>2022-07-29T14:32:12Z</time>
      </trkpt>
      <trkpt lat="46.28599" lon="5.66164">
        <ele>529.2</ele>
        <time>2022-07-29T14:32:13Z</time>
      </trkpt>
      <trkpt lat="46.28604" lon="5.66161">
        <ele>529.2</ele>
        <time>2022-07-29T14:32:14Z</time>
      </trkpt>
      <trkpt lat="46.28609" lon="5.66158">
        <ele>529.2</ele>
        <time>2022-07-29T14:32:15Z</time>
      </trkpt>
      <trkpt lat="46.28614" lon="5.66154">
        <ele>529.2</ele>
        <time>2022-07-29T14:32:16Z</time>
      </trkpt>
      <trkpt lat="46.28618" lon="5.6615">
        <ele>529.2</ele>
        <time>2022-07-29T14:32:17Z</time>
      </trkpt>
      <trkpt lat="46.28623" lon="5.66146">
        <ele>529.2</ele>
        <time>2022-07-29T14:32:18Z</time>
      </trkpt>
      <trkpt lat="46.28627" lon="5.66142">
        <ele>529.2</ele>
        <time>2022-07-29T14:32:19Z</time>
      </trkpt>
      <trkpt lat="46.28632" lon="5.66137">
        <ele>529.2</ele>
        <time>2022-07-29T14:32:20Z</time>
      </trkpt>
      <trkpt lat="46.28636" lon="5.66132">
        <ele>529.2</ele>
        <time>2022-07-29T14:32:21Z</time>
      </trkpt>
      <trkpt lat="46.2864" lon="5.66127">
        <ele>529.2</ele>
        <time>2022-07-29T14:32:22Z</time>
      </trkpt>
      <trkpt lat="46.28643" lon="5.66122">
        <ele>529.6</ele>
        <time>2022-07-29T14:32:23Z</time>
      </trkpt>
      <trkpt lat="46.28647" lon="5.66117">
        <ele>529.6</ele>
        <time>2022-07-29T14:32:24Z</time>
      </trkpt>
      <trkpt lat="46.28651" lon="5.66111">
        <ele>529.6</ele>
        <time>2022-07-29T14:32:25Z</time>
      </trkpt>
      <trkpt lat="46.28654" lon="5.66106">
        <ele>529.6</ele>
        <time>2022-07-29T14:32:26Z</time>
      </trkpt>
      <trkpt lat="46.28658" lon="5.661">
        <ele>529.6</ele>
        <time>2022-07-29T14:32:27Z</time>
      </trkpt>
      <trkpt lat="46.28661" lon="5.66094">
        <ele>529.6</ele>
        <time>2022-07-29T14:32:28Z</time>
      </trkpt>
      <trkpt lat="46.28664" lon="5.66088">
        <ele>529.6</ele>
        <time>2022-07-29T14:32:29Z</time>
      </trkpt>
      <trkpt lat="46.28668" lon="5.66082">
        <ele>529.6</ele>
        <time>2022-07-29T14:32:30Z</time>
      </trkpt>
      <trkpt lat="46.28671" lon="5.66077">
        <ele>529.6</ele>
        <time>2022-07-29T14:32:31Z</time>
      </trkpt>
      <trkpt lat="46.28675" lon="5.66071">
        <ele>529.6</ele>
        <time>2022-07-29T14:32:32Z</time>
      </trkpt>
      <trkpt lat="46.28678" lon="5.66065">
        <ele>529.6</ele>
        <time>2022-07-29T14:32:33Z</time>
      </trkpt>
      <trkpt lat="46.28682" lon="5.6606">
        <ele>529.6</ele>
        <time>2022-07-29T14:32:34Z</time>
      </trkpt>
      <trkpt lat="46.28684" lon="5.66056">
        <ele>529.6</ele>
        <time>2022-07-29T14:32:35Z</time>
      </trkpt>
      <trkpt lat="46.28687" lon="5.66053">
        <ele>529.6</ele>
        <time>2022-07-29T14:32:36Z</time>
      </trkpt>
      <trkpt lat="46.28689" lon="5.6605">
        <ele>529.2</ele>
        <time>2022-07-29T14:32:37Z</time>
      </trkpt>
      <trkpt lat="46.2869" lon="5.66047">
        <ele>529.2</ele>
        <time>2022-07-29T14:32:38Z</time>
      </trkpt>
      <trkpt lat="46.28691" lon="5.66045">
        <ele>529</ele>
        <time>2022-07-29T14:32:39Z</time>
      </trkpt>
      <trkpt lat="46.28692" lon="5.66044">
        <ele>529</ele>
        <time>2022-07-29T14:32:40Z</time>
      </trkpt>
      <trkpt lat="46.28692" lon="5.66043">
        <ele>528.6</ele>
        <time>2022-07-29T14:32:41Z</time>
      </trkpt>
      <trkpt lat="46.28692" lon="5.66043">
        <ele>528.6</ele>
        <time>2022-07-29T14:32:42Z</time>
      </trkpt>
      <trkpt lat="46.28692" lon="5.66043">
        <ele>528.6</ele>
        <time>2022-07-29T14:32:43Z</time>
      </trkpt>
      <trkpt lat="46.28692" lon="5.66043">
        <ele>528.6</ele>
        <time>2022-07-29T14:32:45Z</time>
      </trkpt>
      <trkpt lat="46.28692" lon="5.66043">
        <ele>528.4</ele>
        <time>2022-07-29T14:32:46Z</time>
      </trkpt>
      <trkpt lat="46.28692" lon="5.66043">
        <ele>528.4</ele>
        <time>2022-07-29T14:32:47Z</time>
      </trkpt>
      <trkpt lat="46.28692" lon="5.66043">
        <ele>528.4</ele>
        <time>2022-07-29T14:32:48Z</time>
      </trkpt>
      <trkpt lat="46.28692" lon="5.66043">
        <ele>528.4</ele>
        <time>2022-07-29T14:32:49Z</time>
      </trkpt>
      <trkpt lat="46.28692" lon="5.66043">
        <ele>528.4</ele>
        <time>2022-07-29T14:32:50Z</time>
      </trkpt>
      <trkpt lat="46.28692" lon="5.66043">
        <ele>528.4</ele>
        <time>2022-07-29T14:32:51Z</time>
      </trkpt>
      <trkpt lat="46.28692" lon="5.66043">
        <ele>528.4</ele>
        <time>2022-07-29T14:32:52Z</time>
      </trkpt>
      <trkpt lat="46.28692" lon="5.66043">
        <ele>528.4</ele>
        <time>2022-07-29T14:32:54Z</time>
      </trkpt>
      <trkpt lat="46.28692" lon="5.66043">
        <ele>528.4</ele>
        <time>2022-07-29T14:32:55Z</time>
      </trkpt>
      <trkpt lat="46.28692" lon="5.66043">
        <ele>528.4</ele>
        <time>2022-07-29T14:32:56Z</time>
      </trkpt>
      <trkpt lat="46.28692" lon="5.66043">
        <ele>528.4</ele>
        <time>2022-07-29T14:32:57Z</time>
      </trkpt>
      <trkpt lat="46.28692" lon="5.66043">
        <ele>528.4</ele>
        <time>2022-07-29T14:32:58Z</time>
      </trkpt>
      <trkpt lat="46.28692" lon="5.66043">
        <ele>528.4</ele>
        <time>2022-07-29T14:32:59Z</time>
      </trkpt>
      <trkpt lat="46.28692" lon="5.66043">
        <ele>528.4</ele>
        <time>2022-07-29T14:33:04Z</time>
      </trkpt>
      <trkpt lat="46.28692" lon="5.66043">
        <ele>528.4</ele>
        <time>2022-07-29T14:33:05Z</time>
      </trkpt>
      <trkpt lat="46.28692" lon="5.66043">
        <ele>528.4</ele>
        <time>2022-07-29T14:33:08Z</time>
      </trkpt>
      <trkpt lat="46.28692" lon="5.66043">
        <ele>528.4</ele>
        <time>2022-07-29T14:33:09Z</time>
      </trkpt>
      <trkpt lat="46.28692" lon="5.66043">
        <ele>528.4</ele>
        <time>2022-07-29T14:33:12Z</time>
      </trkpt>
      <trkpt lat="46.28692" lon="5.66043">
        <ele>528.4</ele>
        <time>2022-07-29T14:33:13Z</time>
      </trkpt>
      <trkpt lat="46.28692" lon="5.66043">
        <ele>528.4</ele>
        <time>2022-07-29T14:33:14Z</time>
      </trkpt>
      <trkpt lat="46.28692" lon="5.66043">
        <ele>528.2</ele>
        <time>2022-07-29T14:33:15Z</time>
      </trkpt>
      <trkpt lat="46.28696" lon="5.66038">
        <ele>528.2</ele>
        <time>2022-07-29T14:33:16Z</time>
      </trkpt>
      <trkpt lat="46.28698" lon="5.66034">
        <ele>528.2</ele>
        <time>2022-07-29T14:33:17Z</time>
      </trkpt>
      <trkpt lat="46.28701" lon="5.6603">
        <ele>528.2</ele>
        <time>2022-07-29T14:33:18Z</time>
      </trkpt>
      <trkpt lat="46.28704" lon="5.66025">
        <ele>528</ele>
        <time>2022-07-29T14:33:19Z</time>
      </trkpt>
      <trkpt lat="46.28707" lon="5.6602">
        <ele>528</ele>
        <time>2022-07-29T14:33:20Z</time>
      </trkpt>
      <trkpt lat="46.28711" lon="5.66014">
        <ele>527.6</ele>
        <time>2022-07-29T14:33:21Z</time>
      </trkpt>
      <trkpt lat="46.28714" lon="5.66008">
        <ele>527.6</ele>
        <time>2022-07-29T14:33:22Z</time>
      </trkpt>
      <trkpt lat="46.28719" lon="5.66002">
        <ele>527.4</ele>
        <time>2022-07-29T14:33:23Z</time>
      </trkpt>
      <trkpt lat="46.28723" lon="5.65997">
        <ele>527.2</ele>
        <time>2022-07-29T14:33:24Z</time>
      </trkpt>
      <trkpt lat="46.28728" lon="5.65992">
        <ele>527.2</ele>
        <time>2022-07-29T14:33:25Z</time>
      </trkpt>
      <trkpt lat="46.28733" lon="5.65987">
        <ele>526.8</ele>
        <time>2022-07-29T14:33:26Z</time>
      </trkpt>
      <trkpt lat="46.28737" lon="5.65981">
        <ele>526.8</ele>
        <time>2022-07-29T14:33:27Z</time>
      </trkpt>
      <trkpt lat="46.28741" lon="5.65975">
        <ele>526.8</ele>
        <time>2022-07-29T14:33:28Z</time>
      </trkpt>
      <trkpt lat="46.28745" lon="5.6597">
        <ele>526.8</ele>
        <time>2022-07-29T14:33:29Z</time>
      </trkpt>
      <trkpt lat="46.28749" lon="5.65965">
        <ele>526.8</ele>
        <time>2022-07-29T14:33:30Z</time>
      </trkpt>
      <trkpt lat="46.28753" lon="5.65961">
        <ele>526.8</ele>
        <time>2022-07-29T14:33:31Z</time>
      </trkpt>
      <trkpt lat="46.28757" lon="5.65957">
        <ele>526.8</ele>
        <time>2022-07-29T14:33:32Z</time>
      </trkpt>
      <trkpt lat="46.28761" lon="5.65953">
        <ele>527</ele>
        <time>2022-07-29T14:33:33Z</time>
      </trkpt>
      <trkpt lat="46.28765" lon="5.65949">
        <ele>527</ele>
        <time>2022-07-29T14:33:34Z</time>
      </trkpt>
      <trkpt lat="46.28768" lon="5.65946">
        <ele>527.4</ele>
        <time>2022-07-29T14:33:35Z</time>
      </trkpt>
      <trkpt lat="46.28771" lon="5.65942">
        <ele>527.4</ele>
        <time>2022-07-29T14:33:36Z</time>
      </trkpt>
      <trkpt lat="46.28775" lon="5.6594">
        <ele>527.8</ele>
        <time>2022-07-29T14:33:37Z</time>
      </trkpt>
      <trkpt lat="46.28779" lon="5.65937">
        <ele>527.8</ele>
        <time>2022-07-29T14:33:38Z</time>
      </trkpt>
      <trkpt lat="46.28782" lon="5.65934">
        <ele>528</ele>
        <time>2022-07-29T14:33:39Z</time>
      </trkpt>
      <trkpt lat="46.28786" lon="5.6593">
        <ele>528</ele>
        <time>2022-07-29T14:33:40Z</time>
      </trkpt>
      <trkpt lat="46.28789" lon="5.65927">
        <ele>528.2</ele>
        <time>2022-07-29T14:33:41Z</time>
      </trkpt>
      <trkpt lat="46.28793" lon="5.65923">
        <ele>528.2</ele>
        <time>2022-07-29T14:33:42Z</time>
      </trkpt>
      <trkpt lat="46.28797" lon="5.65919">
        <ele>528.6</ele>
        <time>2022-07-29T14:33:43Z</time>
      </trkpt>
      <trkpt lat="46.28801" lon="5.65915">
        <ele>528.6</ele>
        <time>2022-07-29T14:33:44Z</time>
      </trkpt>
      <trkpt lat="46.28805" lon="5.65911">
        <ele>528.8</ele>
        <time>2022-07-29T14:33:45Z</time>
      </trkpt>
      <trkpt lat="46.28808" lon="5.65907">
        <ele>528.8</ele>
        <time>2022-07-29T14:33:46Z</time>
      </trkpt>
      <trkpt lat="46.28813" lon="5.65903">
        <ele>528.8</ele>
        <time>2022-07-29T14:33:47Z</time>
      </trkpt>
      <trkpt lat="46.28817" lon="5.65898">
        <ele>528.8</ele>
        <time>2022-07-29T14:33:48Z</time>
      </trkpt>
      <trkpt lat="46.28821" lon="5.65894">
        <ele>529</ele>
        <time>2022-07-29T14:33:49Z</time>
      </trkpt>
      <trkpt lat="46.28826" lon="5.6589">
        <ele>529</ele>
        <time>2022-07-29T14:33:50Z</time>
      </trkpt>
      <trkpt lat="46.2883" lon="5.65886">
        <ele>529</ele>
        <time>2022-07-29T14:33:51Z</time>
      </trkpt>
      <trkpt lat="46.28834" lon="5.65882">
        <ele>529.4</ele>
        <time>2022-07-29T14:33:52Z</time>
      </trkpt>
      <trkpt lat="46.28838" lon="5.65877">
        <ele>529.4</ele>
        <time>2022-07-29T14:33:53Z</time>
      </trkpt>
      <trkpt lat="46.28841" lon="5.65873">
        <ele>529.8</ele>
        <time>2022-07-29T14:33:54Z</time>
      </trkpt>
      <trkpt lat="46.28844" lon="5.65868">
        <ele>529.8</ele>
        <time>2022-07-29T14:33:55Z</time>
      </trkpt>
      <trkpt lat="46.28847" lon="5.65863">
        <ele>530.2</ele>
        <time>2022-07-29T14:33:56Z</time>
      </trkpt>
      <trkpt lat="46.2885" lon="5.65859">
        <ele>530.4</ele>
        <time>2022-07-29T14:33:57Z</time>
      </trkpt>
      <trkpt lat="46.28853" lon="5.65855">
        <ele>530.6</ele>
        <time>2022-07-29T14:33:58Z</time>
      </trkpt>
      <trkpt lat="46.28856" lon="5.65851">
        <ele>531</ele>
        <time>2022-07-29T14:33:59Z</time>
      </trkpt>
      <trkpt lat="46.28858" lon="5.65847">
        <ele>531.2</ele>
        <time>2022-07-29T14:34:00Z</time>
      </trkpt>
      <trkpt lat="46.28861" lon="5.65844">
        <ele>531.4</ele>
        <time>2022-07-29T14:34:01Z</time>
      </trkpt>
      <trkpt lat="46.28865" lon="5.65841">
        <ele>531.8</ele>
        <time>2022-07-29T14:34:02Z</time>
      </trkpt>
      <trkpt lat="46.28868" lon="5.65839">
        <ele>532</ele>
        <time>2022-07-29T14:34:03Z</time>
      </trkpt>
      <trkpt lat="46.28871" lon="5.65836">
        <ele>532</ele>
        <time>2022-07-29T14:34:04Z</time>
      </trkpt>
      <trkpt lat="46.28874" lon="5.65833">
        <ele>532.2</ele>
        <time>2022-07-29T14:34:05Z</time>
      </trkpt>
      <trkpt lat="46.28878" lon="5.65829">
        <ele>532.2</ele>
        <time>2022-07-29T14:34:06Z</time>
      </trkpt>
      <trkpt lat="46.28882" lon="5.65826">
        <ele>532.2</ele>
        <time>2022-07-29T14:34:07Z</time>
      </trkpt>
      <trkpt lat="46.28886" lon="5.65823">
        <ele>532.4</ele>
        <time>2022-07-29T14:34:08Z</time>
      </trkpt>
      <trkpt lat="46.28891" lon="5.65819">
        <ele>532.4</ele>
        <time>2022-07-29T14:34:09Z</time>
      </trkpt>
      <trkpt lat="46.28895" lon="5.65815">
        <ele>532.4</ele>
        <time>2022-07-29T14:34:10Z</time>
      </trkpt>
      <trkpt lat="46.28899" lon="5.6581">
        <ele>532.4</ele>
        <time>2022-07-29T14:34:11Z</time>
      </trkpt>
      <trkpt lat="46.28904" lon="5.65806">
        <ele>532.8</ele>
        <time>2022-07-29T14:34:12Z</time>
      </trkpt>
      <trkpt lat="46.28908" lon="5.65801">
        <ele>532.8</ele>
        <time>2022-07-29T14:34:13Z</time>
      </trkpt>
      <trkpt lat="46.28912" lon="5.65796">
        <ele>532.8</ele>
        <time>2022-07-29T14:34:14Z</time>
      </trkpt>
      <trkpt lat="46.28915" lon="5.6579">
        <ele>532.8</ele>
        <time>2022-07-29T14:34:15Z</time>
      </trkpt>
      <trkpt lat="46.28919" lon="5.65784">
        <ele>532.8</ele>
        <time>2022-07-29T14:34:16Z</time>
      </trkpt>
      <trkpt lat="46.28922" lon="5.65778">
        <ele>532.8</ele>
        <time>2022-07-29T14:34:17Z</time>
      </trkpt>
      <trkpt lat="46.28925" lon="5.65772">
        <ele>532.8</ele>
        <time>2022-07-29T14:34:18Z</time>
      </trkpt>
      <trkpt lat="46.28927" lon="5.65766">
        <ele>532.8</ele>
        <time>2022-07-29T14:34:19Z</time>
      </trkpt>
      <trkpt lat="46.28929" lon="5.65759">
        <ele>532.8</ele>
        <time>2022-07-29T14:34:20Z</time>
      </trkpt>
      <trkpt lat="46.28931" lon="5.65752">
        <ele>532.8</ele>
        <time>2022-07-29T14:34:21Z</time>
      </trkpt>
      <trkpt lat="46.28933" lon="5.65744">
        <ele>532.8</ele>
        <time>2022-07-29T14:34:22Z</time>
      </trkpt>
      <trkpt lat="46.28934" lon="5.65737">
        <ele>532.8</ele>
        <time>2022-07-29T14:34:23Z</time>
      </trkpt>
      <trkpt lat="46.28934" lon="5.6573">
        <ele>532.8</ele>
        <time>2022-07-29T14:34:24Z</time>
      </trkpt>
      <trkpt lat="46.28935" lon="5.65722">
        <ele>532.8</ele>
        <time>2022-07-29T14:34:25Z</time>
      </trkpt>
      <trkpt lat="46.28936" lon="5.65715">
        <ele>532.8</ele>
        <time>2022-07-29T14:34:26Z</time>
      </trkpt>
      <trkpt lat="46.28937" lon="5.65708">
        <ele>532.8</ele>
        <time>2022-07-29T14:34:27Z</time>
      </trkpt>
      <trkpt lat="46.28938" lon="5.657">
        <ele>532.8</ele>
        <time>2022-07-29T14:34:28Z</time>
      </trkpt>
      <trkpt lat="46.28938" lon="5.65693">
        <ele>533</ele>
        <time>2022-07-29T14:34:29Z</time>
      </trkpt>
      <trkpt lat="46.28938" lon="5.65686">
        <ele>533</ele>
        <time>2022-07-29T14:34:30Z</time>
      </trkpt>
      <trkpt lat="46.28937" lon="5.65678">
        <ele>533</ele>
        <time>2022-07-29T14:34:31Z</time>
      </trkpt>
      <trkpt lat="46.28936" lon="5.6567">
        <ele>533</ele>
        <time>2022-07-29T14:34:32Z</time>
      </trkpt>
      <trkpt lat="46.28935" lon="5.65663">
        <ele>533</ele>
        <time>2022-07-29T14:34:33Z</time>
      </trkpt>
      <trkpt lat="46.28933" lon="5.65655">
        <ele>533</ele>
        <time>2022-07-29T14:34:34Z</time>
      </trkpt>
      <trkpt lat="46.28931" lon="5.65648">
        <ele>533.2</ele>
        <time>2022-07-29T14:34:35Z</time>
      </trkpt>
      <trkpt lat="46.28929" lon="5.6564">
        <ele>533.2</ele>
        <time>2022-07-29T14:34:36Z</time>
      </trkpt>
      <trkpt lat="46.28926" lon="5.65633">
        <ele>533.2</ele>
        <time>2022-07-29T14:34:37Z</time>
      </trkpt>
      <trkpt lat="46.28924" lon="5.65626">
        <ele>533.2</ele>
        <time>2022-07-29T14:34:38Z</time>
      </trkpt>
      <trkpt lat="46.2892" lon="5.6562">
        <ele>533.4</ele>
        <time>2022-07-29T14:34:39Z</time>
      </trkpt>
      <trkpt lat="46.28917" lon="5.65613">
        <ele>533.4</ele>
        <time>2022-07-29T14:34:40Z</time>
      </trkpt>
      <trkpt lat="46.28913" lon="5.65606">
        <ele>533.4</ele>
        <time>2022-07-29T14:34:41Z</time>
      </trkpt>
      <trkpt lat="46.28909" lon="5.65599">
        <ele>533.4</ele>
        <time>2022-07-29T14:34:42Z</time>
      </trkpt>
      <trkpt lat="46.28906" lon="5.65591">
        <ele>533.4</ele>
        <time>2022-07-29T14:34:43Z</time>
      </trkpt>
      <trkpt lat="46.28903" lon="5.65583">
        <ele>533.4</ele>
        <time>2022-07-29T14:34:44Z</time>
      </trkpt>
      <trkpt lat="46.28901" lon="5.65575">
        <ele>533.2</ele>
        <time>2022-07-29T14:34:45Z</time>
      </trkpt>
      <trkpt lat="46.28898" lon="5.65566">
        <ele>533.2</ele>
        <time>2022-07-29T14:34:46Z</time>
      </trkpt>
      <trkpt lat="46.28896" lon="5.65558">
        <ele>533.2</ele>
        <time>2022-07-29T14:34:47Z</time>
      </trkpt>
      <trkpt lat="46.28894" lon="5.65549">
        <ele>533.2</ele>
        <time>2022-07-29T14:34:48Z</time>
      </trkpt>
      <trkpt lat="46.28892" lon="5.6554">
        <ele>533.2</ele>
        <time>2022-07-29T14:34:49Z</time>
      </trkpt>
      <trkpt lat="46.2889" lon="5.65532">
        <ele>533.2</ele>
        <time>2022-07-29T14:34:50Z</time>
      </trkpt>
      <trkpt lat="46.28888" lon="5.65523">
        <ele>533.4</ele>
        <time>2022-07-29T14:34:51Z</time>
      </trkpt>
      <trkpt lat="46.28887" lon="5.65515">
        <ele>533.4</ele>
        <time>2022-07-29T14:34:52Z</time>
      </trkpt>
      <trkpt lat="46.28885" lon="5.65506">
        <ele>533.4</ele>
        <time>2022-07-29T14:34:53Z</time>
      </trkpt>
      <trkpt lat="46.28883" lon="5.65497">
        <ele>533.4</ele>
        <time>2022-07-29T14:34:54Z</time>
      </trkpt>
      <trkpt lat="46.28882" lon="5.65489">
        <ele>533.8</ele>
        <time>2022-07-29T14:34:55Z</time>
      </trkpt>
      <trkpt lat="46.2888" lon="5.6548">
        <ele>533.8</ele>
        <time>2022-07-29T14:34:56Z</time>
      </trkpt>
      <trkpt lat="46.28878" lon="5.65472">
        <ele>533.8</ele>
        <time>2022-07-29T14:34:57Z</time>
      </trkpt>
      <trkpt lat="46.28876" lon="5.65463">
        <ele>533.8</ele>
        <time>2022-07-29T14:34:58Z</time>
      </trkpt>
      <trkpt lat="46.28874" lon="5.65455">
        <ele>533.8</ele>
        <time>2022-07-29T14:34:59Z</time>
      </trkpt>
      <trkpt lat="46.28872" lon="5.65446">
        <ele>533.8</ele>
        <time>2022-07-29T14:35:00Z</time>
      </trkpt>
      <trkpt lat="46.2887" lon="5.65437">
        <ele>533.8</ele>
        <time>2022-07-29T14:35:01Z</time>
      </trkpt>
      <trkpt lat="46.28867" lon="5.65429">
        <ele>533.8</ele>
        <time>2022-07-29T14:35:02Z</time>
      </trkpt>
      <trkpt lat="46.28865" lon="5.6542">
        <ele>533.8</ele>
        <time>2022-07-29T14:35:03Z</time>
      </trkpt>
      <trkpt lat="46.28863" lon="5.65412">
        <ele>533.8</ele>
        <time>2022-07-29T14:35:04Z</time>
      </trkpt>
      <trkpt lat="46.28861" lon="5.65404">
        <ele>533.8</ele>
        <time>2022-07-29T14:35:05Z</time>
      </trkpt>
      <trkpt lat="46.28859" lon="5.65396">
        <ele>533.8</ele>
        <time>2022-07-29T14:35:06Z</time>
      </trkpt>
      <trkpt lat="46.28856" lon="5.65388">
        <ele>533.8</ele>
        <time>2022-07-29T14:35:07Z</time>
      </trkpt>
      <trkpt lat="46.28854" lon="5.6538">
        <ele>533.8</ele>
        <time>2022-07-29T14:35:08Z</time>
      </trkpt>
      <trkpt lat="46.28851" lon="5.65372">
        <ele>533.8</ele>
        <time>2022-07-29T14:35:09Z</time>
      </trkpt>
      <trkpt lat="46.28849" lon="5.65364">
        <ele>533.8</ele>
        <time>2022-07-29T14:35:10Z</time>
      </trkpt>
      <trkpt lat="46.28847" lon="5.65355">
        <ele>533.8</ele>
        <time>2022-07-29T14:35:11Z</time>
      </trkpt>
      <trkpt lat="46.28845" lon="5.65346">
        <ele>533.8</ele>
        <time>2022-07-29T14:35:12Z</time>
      </trkpt>
      <trkpt lat="46.28843" lon="5.65338">
        <ele>533.8</ele>
        <time>2022-07-29T14:35:13Z</time>
      </trkpt>
      <trkpt lat="46.28841" lon="5.65328">
        <ele>533.8</ele>
        <time>2022-07-29T14:35:14Z</time>
      </trkpt>
      <trkpt lat="46.28838" lon="5.65319">
        <ele>533.4</ele>
        <time>2022-07-29T14:35:15Z</time>
      </trkpt>
      <trkpt lat="46.28837" lon="5.65308">
        <ele>533</ele>
        <time>2022-07-29T14:35:16Z</time>
      </trkpt>
      <trkpt lat="46.28836" lon="5.65298">
        <ele>533</ele>
        <time>2022-07-29T14:35:17Z</time>
      </trkpt>
      <trkpt lat="46.28835" lon="5.65287">
        <ele>532.6</ele>
        <time>2022-07-29T14:35:18Z</time>
      </trkpt>
      <trkpt lat="46.28834" lon="5.65276">
        <ele>532.2</ele>
        <time>2022-07-29T14:35:19Z</time>
      </trkpt>
      <trkpt lat="46.28833" lon="5.65265">
        <ele>532.2</ele>
        <time>2022-07-29T14:35:20Z</time>
      </trkpt>
      <trkpt lat="46.28832" lon="5.65254">
        <ele>532.2</ele>
        <time>2022-07-29T14:35:21Z</time>
      </trkpt>
      <trkpt lat="46.2883" lon="5.65243">
        <ele>532.2</ele>
        <time>2022-07-29T14:35:22Z</time>
      </trkpt>
      <trkpt lat="46.28829" lon="5.65232">
        <ele>532</ele>
        <time>2022-07-29T14:35:23Z</time>
      </trkpt>
      <trkpt lat="46.28827" lon="5.65223">
        <ele>532</ele>
        <time>2022-07-29T14:35:24Z</time>
      </trkpt>
      <trkpt lat="46.28825" lon="5.65214">
        <ele>532</ele>
        <time>2022-07-29T14:35:25Z</time>
      </trkpt>
      <trkpt lat="46.28823" lon="5.65206">
        <ele>532.2</ele>
        <time>2022-07-29T14:35:26Z</time>
      </trkpt>
      <trkpt lat="46.2882" lon="5.65199">
        <ele>532.6</ele>
        <time>2022-07-29T14:35:27Z</time>
      </trkpt>
      <trkpt lat="46.28817" lon="5.65192">
        <ele>532.8</ele>
        <time>2022-07-29T14:35:28Z</time>
      </trkpt>
      <trkpt lat="46.28814" lon="5.65185">
        <ele>533</ele>
        <time>2022-07-29T14:35:29Z</time>
      </trkpt>
      <trkpt lat="46.28811" lon="5.65178">
        <ele>533.2</ele>
        <time>2022-07-29T14:35:30Z</time>
      </trkpt>
      <trkpt lat="46.28807" lon="5.65172">
        <ele>533.2</ele>
        <time>2022-07-29T14:35:31Z</time>
      </trkpt>
      <trkpt lat="46.28803" lon="5.65166">
        <ele>533.6</ele>
        <time>2022-07-29T14:35:32Z</time>
      </trkpt>
      <trkpt lat="46.28799" lon="5.65161">
        <ele>533.6</ele>
        <time>2022-07-29T14:35:33Z</time>
      </trkpt>
      <trkpt lat="46.28794" lon="5.65155">
        <ele>533.6</ele>
        <time>2022-07-29T14:35:34Z</time>
      </trkpt>
      <trkpt lat="46.28789" lon="5.65151">
        <ele>533.8</ele>
        <time>2022-07-29T14:35:35Z</time>
      </trkpt>
      <trkpt lat="46.28784" lon="5.65147">
        <ele>533.8</ele>
        <time>2022-07-29T14:35:36Z</time>
      </trkpt>
      <trkpt lat="46.28779" lon="5.65142">
        <ele>534</ele>
        <time>2022-07-29T14:35:37Z</time>
      </trkpt>
      <trkpt lat="46.28775" lon="5.65137">
        <ele>534</ele>
        <time>2022-07-29T14:35:38Z</time>
      </trkpt>
      <trkpt lat="46.2877" lon="5.65132">
        <ele>534</ele>
        <time>2022-07-29T14:35:39Z</time>
      </trkpt>
      <trkpt lat="46.28765" lon="5.65127">
        <ele>534</ele>
        <time>2022-07-29T14:35:40Z</time>
      </trkpt>
      <trkpt lat="46.2876" lon="5.65123">
        <ele>534.2</ele>
        <time>2022-07-29T14:35:41Z</time>
      </trkpt>
      <trkpt lat="46.28756" lon="5.65117">
        <ele>534.2</ele>
        <time>2022-07-29T14:35:42Z</time>
      </trkpt>
      <trkpt lat="46.28752" lon="5.65111">
        <ele>534.2</ele>
        <time>2022-07-29T14:35:43Z</time>
      </trkpt>
      <trkpt lat="46.28749" lon="5.65105">
        <ele>534.2</ele>
        <time>2022-07-29T14:35:44Z</time>
      </trkpt>
      <trkpt lat="46.28746" lon="5.65098">
        <ele>534.2</ele>
        <time>2022-07-29T14:35:45Z</time>
      </trkpt>
      <trkpt lat="46.28744" lon="5.6509">
        <ele>534.2</ele>
        <time>2022-07-29T14:35:46Z</time>
      </trkpt>
      <trkpt lat="46.28744" lon="5.65081">
        <ele>534.2</ele>
        <time>2022-07-29T14:35:47Z</time>
      </trkpt>
      <trkpt lat="46.28744" lon="5.65073">
        <ele>534.2</ele>
        <time>2022-07-29T14:35:48Z</time>
      </trkpt>
      <trkpt lat="46.28745" lon="5.65063">
        <ele>534.2</ele>
        <time>2022-07-29T14:35:49Z</time>
      </trkpt>
      <trkpt lat="46.28747" lon="5.65054">
        <ele>534.2</ele>
        <time>2022-07-29T14:35:50Z</time>
      </trkpt>
      <trkpt lat="46.28747" lon="5.65043">
        <ele>534.2</ele>
        <time>2022-07-29T14:35:51Z</time>
      </trkpt>
      <trkpt lat="46.28748" lon="5.65033">
        <ele>534.6</ele>
        <time>2022-07-29T14:35:52Z</time>
      </trkpt>
      <trkpt lat="46.28749" lon="5.65024">
        <ele>534.6</ele>
        <time>2022-07-29T14:35:53Z</time>
      </trkpt>
      <trkpt lat="46.2875" lon="5.65016">
        <ele>534.8</ele>
        <time>2022-07-29T14:35:54Z</time>
      </trkpt>
      <trkpt lat="46.2875" lon="5.65009">
        <ele>535</ele>
        <time>2022-07-29T14:35:55Z</time>
      </trkpt>
      <trkpt lat="46.28751" lon="5.65003">
        <ele>535</ele>
        <time>2022-07-29T14:35:56Z</time>
      </trkpt>
      <trkpt lat="46.28752" lon="5.64998">
        <ele>535.4</ele>
        <time>2022-07-29T14:35:57Z</time>
      </trkpt>
      <trkpt lat="46.28753" lon="5.64992">
        <ele>535.6</ele>
        <time>2022-07-29T14:35:58Z</time>
      </trkpt>
      <trkpt lat="46.28754" lon="5.64987">
        <ele>535.6</ele>
        <time>2022-07-29T14:35:59Z</time>
      </trkpt>
      <trkpt lat="46.28755" lon="5.64983">
        <ele>535.8</ele>
        <time>2022-07-29T14:36:00Z</time>
      </trkpt>
      <trkpt lat="46.28756" lon="5.64978">
        <ele>536</ele>
        <time>2022-07-29T14:36:01Z</time>
      </trkpt>
      <trkpt lat="46.28758" lon="5.64974">
        <ele>536</ele>
        <time>2022-07-29T14:36:02Z</time>
      </trkpt>
      <trkpt lat="46.28759" lon="5.6497">
        <ele>536.4</ele>
        <time>2022-07-29T14:36:03Z</time>
      </trkpt>
      <trkpt lat="46.2876" lon="5.64967">
        <ele>536.6</ele>
        <time>2022-07-29T14:36:04Z</time>
      </trkpt>
      <trkpt lat="46.28761" lon="5.64964">
        <ele>536.6</ele>
        <time>2022-07-29T14:36:05Z</time>
      </trkpt>
      <trkpt lat="46.28762" lon="5.64962">
        <ele>537.2</ele>
        <time>2022-07-29T14:36:06Z</time>
      </trkpt>
      <trkpt lat="46.28763" lon="5.64959">
        <ele>537.2</ele>
        <time>2022-07-29T14:36:07Z</time>
      </trkpt>
      <trkpt lat="46.28764" lon="5.64956">
        <ele>537.4</ele>
        <time>2022-07-29T14:36:08Z</time>
      </trkpt>
      <trkpt lat="46.28765" lon="5.64953">
        <ele>537.4</ele>
        <time>2022-07-29T14:36:09Z</time>
      </trkpt>
      <trkpt lat="46.28766" lon="5.6495">
        <ele>537.8</ele>
        <time>2022-07-29T14:36:10Z</time>
      </trkpt>
      <trkpt lat="46.28767" lon="5.64947">
        <ele>537.8</ele>
        <time>2022-07-29T14:36:11Z</time>
      </trkpt>
      <trkpt lat="46.28768" lon="5.64944">
        <ele>538.2</ele>
        <time>2022-07-29T14:36:12Z</time>
      </trkpt>
      <trkpt lat="46.28769" lon="5.64941">
        <ele>538.4</ele>
        <time>2022-07-29T14:36:13Z</time>
      </trkpt>
      <trkpt lat="46.2877" lon="5.64938">
        <ele>538.6</ele>
        <time>2022-07-29T14:36:14Z</time>
      </trkpt>
      <trkpt lat="46.28771" lon="5.64935">
        <ele>538.6</ele>
        <time>2022-07-29T14:36:15Z</time>
      </trkpt>
      <trkpt lat="46.28772" lon="5.64931">
        <ele>538.8</ele>
        <time>2022-07-29T14:36:16Z</time>
      </trkpt>
      <trkpt lat="46.28773" lon="5.64928">
        <ele>538.8</ele>
        <time>2022-07-29T14:36:17Z</time>
      </trkpt>
      <trkpt lat="46.28774" lon="5.64925">
        <ele>539.2</ele>
        <time>2022-07-29T14:36:18Z</time>
      </trkpt>
      <trkpt lat="46.28775" lon="5.64921">
        <ele>539.2</ele>
        <time>2022-07-29T14:36:19Z</time>
      </trkpt>
      <trkpt lat="46.28776" lon="5.64918">
        <ele>539.6</ele>
        <time>2022-07-29T14:36:20Z</time>
      </trkpt>
      <trkpt lat="46.28778" lon="5.64914">
        <ele>539.6</ele>
        <time>2022-07-29T14:36:21Z</time>
      </trkpt>
      <trkpt lat="46.2878" lon="5.64911">
        <ele>539.6</ele>
        <time>2022-07-29T14:36:22Z</time>
      </trkpt>
      <trkpt lat="46.28781" lon="5.64907">
        <ele>539.8</ele>
        <time>2022-07-29T14:36:23Z</time>
      </trkpt>
      <trkpt lat="46.28783" lon="5.64903">
        <ele>539.8</ele>
        <time>2022-07-29T14:36:24Z</time>
      </trkpt>
      <trkpt lat="46.28784" lon="5.64899">
        <ele>540.2</ele>
        <time>2022-07-29T14:36:25Z</time>
      </trkpt>
      <trkpt lat="46.28785" lon="5.64894">
        <ele>540.2</ele>
        <time>2022-07-29T14:36:26Z</time>
      </trkpt>
      <trkpt lat="46.28786" lon="5.6489">
        <ele>540.4</ele>
        <time>2022-07-29T14:36:27Z</time>
      </trkpt>
      <trkpt lat="46.28787" lon="5.64885">
        <ele>540.4</ele>
        <time>2022-07-29T14:36:28Z</time>
      </trkpt>
      <trkpt lat="46.28789" lon="5.6488">
        <ele>540.4</ele>
        <time>2022-07-29T14:36:29Z</time>
      </trkpt>
      <trkpt lat="46.2879" lon="5.64874">
        <ele>540.4</ele>
        <time>2022-07-29T14:36:30Z</time>
      </trkpt>
      <trkpt lat="46.28792" lon="5.64868">
        <ele>540.4</ele>
        <time>2022-07-29T14:36:31Z</time>
      </trkpt>
      <trkpt lat="46.28794" lon="5.64861">
        <ele>540.4</ele>
        <time>2022-07-29T14:36:32Z</time>
      </trkpt>
      <trkpt lat="46.28795" lon="5.64854">
        <ele>540.4</ele>
        <time>2022-07-29T14:36:33Z</time>
      </trkpt>
      <trkpt lat="46.28797" lon="5.64847">
        <ele>540.4</ele>
        <time>2022-07-29T14:36:34Z</time>
      </trkpt>
      <trkpt lat="46.28799" lon="5.64839">
        <ele>540.4</ele>
        <time>2022-07-29T14:36:35Z</time>
      </trkpt>
      <trkpt lat="46.28801" lon="5.64832">
        <ele>540</ele>
        <time>2022-07-29T14:36:36Z</time>
      </trkpt>
      <trkpt lat="46.28803" lon="5.64823">
        <ele>540</ele>
        <time>2022-07-29T14:36:37Z</time>
      </trkpt>
      <trkpt lat="46.28805" lon="5.64815">
        <ele>539.6</ele>
        <time>2022-07-29T14:36:38Z</time>
      </trkpt>
      <trkpt lat="46.28807" lon="5.64806">
        <ele>539.6</ele>
        <time>2022-07-29T14:36:39Z</time>
      </trkpt>
      <trkpt lat="46.2881" lon="5.64797">
        <ele>539.4</ele>
        <time>2022-07-29T14:36:40Z</time>
      </trkpt>
      <trkpt lat="46.28812" lon="5.64788">
        <ele>539.4</ele>
        <time>2022-07-29T14:36:41Z</time>
      </trkpt>
      <trkpt lat="46.28815" lon="5.6478">
        <ele>539.4</ele>
        <time>2022-07-29T14:36:42Z</time>
      </trkpt>
      <trkpt lat="46.28818" lon="5.64771">
        <ele>539.4</ele>
        <time>2022-07-29T14:36:43Z</time>
      </trkpt>
      <trkpt lat="46.28821" lon="5.64762">
        <ele>539</ele>
        <time>2022-07-29T14:36:44Z</time>
      </trkpt>
      <trkpt lat="46.28824" lon="5.64753">
        <ele>539</ele>
        <time>2022-07-29T14:36:45Z</time>
      </trkpt>
      <trkpt lat="46.28827" lon="5.64745">
        <ele>539</ele>
        <time>2022-07-29T14:36:46Z</time>
      </trkpt>
      <trkpt lat="46.2883" lon="5.64737">
        <ele>539</ele>
        <time>2022-07-29T14:36:47Z</time>
      </trkpt>
      <trkpt lat="46.28832" lon="5.64729">
        <ele>539</ele>
        <time>2022-07-29T14:36:48Z</time>
      </trkpt>
      <trkpt lat="46.28835" lon="5.64721">
        <ele>539</ele>
        <time>2022-07-29T14:36:49Z</time>
      </trkpt>
      <trkpt lat="46.28838" lon="5.64714">
        <ele>539.4</ele>
        <time>2022-07-29T14:36:50Z</time>
      </trkpt>
      <trkpt lat="46.2884" lon="5.64706">
        <ele>539.4</ele>
        <time>2022-07-29T14:36:51Z</time>
      </trkpt>
      <trkpt lat="46.28843" lon="5.64699">
        <ele>539.4</ele>
        <time>2022-07-29T14:36:52Z</time>
      </trkpt>
      <trkpt lat="46.28846" lon="5.64692">
        <ele>539.6</ele>
        <time>2022-07-29T14:36:53Z</time>
      </trkpt>
      <trkpt lat="46.28849" lon="5.64684">
        <ele>539.6</ele>
        <time>2022-07-29T14:36:54Z</time>
      </trkpt>
      <trkpt lat="46.28851" lon="5.64677">
        <ele>539.8</ele>
        <time>2022-07-29T14:36:55Z</time>
      </trkpt>
      <trkpt lat="46.28853" lon="5.64669">
        <ele>539.8</ele>
        <time>2022-07-29T14:36:56Z</time>
      </trkpt>
      <trkpt lat="46.28855" lon="5.64661">
        <ele>539.8</ele>
        <time>2022-07-29T14:36:57Z</time>
      </trkpt>
      <trkpt lat="46.28858" lon="5.64654">
        <ele>539.8</ele>
        <time>2022-07-29T14:36:58Z</time>
      </trkpt>
      <trkpt lat="46.2886" lon="5.64646">
        <ele>539.8</ele>
        <time>2022-07-29T14:36:59Z</time>
      </trkpt>
      <trkpt lat="46.28863" lon="5.64639">
        <ele>539.8</ele>
        <time>2022-07-29T14:37:00Z</time>
      </trkpt>
      <trkpt lat="46.28865" lon="5.64631">
        <ele>539.8</ele>
        <time>2022-07-29T14:37:01Z</time>
      </trkpt>
      <trkpt lat="46.28868" lon="5.64624">
        <ele>540</ele>
        <time>2022-07-29T14:37:02Z</time>
      </trkpt>
      <trkpt lat="46.2887" lon="5.64617">
        <ele>540</ele>
        <time>2022-07-29T14:37:03Z</time>
      </trkpt>
      <trkpt lat="46.28873" lon="5.64609">
        <ele>540</ele>
        <time>2022-07-29T14:37:04Z</time>
      </trkpt>
      <trkpt lat="46.28876" lon="5.64602">
        <ele>540</ele>
        <time>2022-07-29T14:37:05Z</time>
      </trkpt>
      <trkpt lat="46.28879" lon="5.64594">
        <ele>540</ele>
        <time>2022-07-29T14:37:06Z</time>
      </trkpt>
      <trkpt lat="46.28881" lon="5.64586">
        <ele>540</ele>
        <time>2022-07-29T14:37:07Z</time>
      </trkpt>
      <trkpt lat="46.28883" lon="5.64578">
        <ele>540</ele>
        <time>2022-07-29T14:37:08Z</time>
      </trkpt>
      <trkpt lat="46.28884" lon="5.64569">
        <ele>540</ele>
        <time>2022-07-29T14:37:09Z</time>
      </trkpt>
      <trkpt lat="46.28884" lon="5.6456">
        <ele>540</ele>
        <time>2022-07-29T14:37:10Z</time>
      </trkpt>
      <trkpt lat="46.28882" lon="5.64552">
        <ele>540</ele>
        <time>2022-07-29T14:37:11Z</time>
      </trkpt>
      <trkpt lat="46.28878" lon="5.64546">
        <ele>540.2</ele>
        <time>2022-07-29T14:37:12Z</time>
      </trkpt>
      <trkpt lat="46.28874" lon="5.6454">
        <ele>540.2</ele>
        <time>2022-07-29T14:37:13Z</time>
      </trkpt>
      <trkpt lat="46.28869" lon="5.64536">
        <ele>540.2</ele>
        <time>2022-07-29T14:37:14Z</time>
      </trkpt>
      <trkpt lat="46.28863" lon="5.64532">
        <ele>540.2</ele>
        <time>2022-07-29T14:37:15Z</time>
      </trkpt>
      <trkpt lat="46.28857" lon="5.64529">
        <ele>540.2</ele>
        <time>2022-07-29T14:37:16Z</time>
      </trkpt>
      <trkpt lat="46.28852" lon="5.64525">
        <ele>540.2</ele>
        <time>2022-07-29T14:37:17Z</time>
      </trkpt>
      <trkpt lat="46.28846" lon="5.64521">
        <ele>540.2</ele>
        <time>2022-07-29T14:37:18Z</time>
      </trkpt>
      <trkpt lat="46.2884" lon="5.64517">
        <ele>540.2</ele>
        <time>2022-07-29T14:37:19Z</time>
      </trkpt>
      <trkpt lat="46.28834" lon="5.64513">
        <ele>540.4</ele>
        <time>2022-07-29T14:37:20Z</time>
      </trkpt>
      <trkpt lat="46.28829" lon="5.64508">
        <ele>540.4</ele>
        <time>2022-07-29T14:37:21Z</time>
      </trkpt>
      <trkpt lat="46.28824" lon="5.64505">
        <ele>540.8</ele>
        <time>2022-07-29T14:37:22Z</time>
      </trkpt>
      <trkpt lat="46.2882" lon="5.64501">
        <ele>541</ele>
        <time>2022-07-29T14:37:23Z</time>
      </trkpt>
      <trkpt lat="46.28816" lon="5.64496">
        <ele>541.2</ele>
        <time>2022-07-29T14:37:24Z</time>
      </trkpt>
      <trkpt lat="46.28813" lon="5.64492">
        <ele>541.6</ele>
        <time>2022-07-29T14:37:25Z</time>
      </trkpt>
      <trkpt lat="46.2881" lon="5.64487">
        <ele>541.8</ele>
        <time>2022-07-29T14:37:26Z</time>
      </trkpt>
      <trkpt lat="46.28809" lon="5.64482">
        <ele>542.2</ele>
        <time>2022-07-29T14:37:27Z</time>
      </trkpt>
      <trkpt lat="46.28808" lon="5.64477">
        <ele>542.4</ele>
        <time>2022-07-29T14:37:28Z</time>
      </trkpt>
      <trkpt lat="46.28808" lon="5.64473">
        <ele>542.8</ele>
        <time>2022-07-29T14:37:29Z</time>
      </trkpt>
      <trkpt lat="46.28809" lon="5.64468">
        <ele>542.8</ele>
        <time>2022-07-29T14:37:30Z</time>
      </trkpt>
      <trkpt lat="46.28809" lon="5.64463">
        <ele>543.2</ele>
        <time>2022-07-29T14:37:31Z</time>
      </trkpt>
      <trkpt lat="46.2881" lon="5.64458">
        <ele>543.2</ele>
        <time>2022-07-29T14:37:32Z</time>
      </trkpt>
      <trkpt lat="46.28811" lon="5.64453">
        <ele>543.4</ele>
        <time>2022-07-29T14:37:33Z</time>
      </trkpt>
      <trkpt lat="46.28812" lon="5.64448">
        <ele>543.4</ele>
        <time>2022-07-29T14:37:34Z</time>
      </trkpt>
      <trkpt lat="46.28813" lon="5.64442">
        <ele>543.6</ele>
        <time>2022-07-29T14:37:35Z</time>
      </trkpt>
      <trkpt lat="46.28815" lon="5.64437">
        <ele>543.6</ele>
        <time>2022-07-29T14:37:36Z</time>
      </trkpt>
      <trkpt lat="46.28816" lon="5.64431">
        <ele>544</ele>
        <time>2022-07-29T14:37:37Z</time>
      </trkpt>
      <trkpt lat="46.28817" lon="5.64425">
        <ele>544</ele>
        <time>2022-07-29T14:37:38Z</time>
      </trkpt>
      <trkpt lat="46.28818" lon="5.6442">
        <ele>544.2</ele>
        <time>2022-07-29T14:37:39Z</time>
      </trkpt>
      <trkpt lat="46.28819" lon="5.64414">
        <ele>544.2</ele>
        <time>2022-07-29T14:37:40Z</time>
      </trkpt>
      <trkpt lat="46.28819" lon="5.64414">
        <ele>544.6</ele>
        <time>2022-07-29T14:37:41Z</time>
      </trkpt>
      <trkpt lat="46.2882" lon="5.64408">
        <ele>544.6</ele>
        <time>2022-07-29T14:37:42Z</time>
      </trkpt>
      <trkpt lat="46.2882" lon="5.64402">
        <ele>544.8</ele>
        <time>2022-07-29T14:37:43Z</time>
      </trkpt>
      <trkpt lat="46.28821" lon="5.64396">
        <ele>544.8</ele>
        <time>2022-07-29T14:37:44Z</time>
      </trkpt>
      <trkpt lat="46.28821" lon="5.64389">
        <ele>545.2</ele>
        <time>2022-07-29T14:37:45Z</time>
      </trkpt>
      <trkpt lat="46.28821" lon="5.64383">
        <ele>545.2</ele>
        <time>2022-07-29T14:37:46Z</time>
      </trkpt>
      <trkpt lat="46.28821" lon="5.64377">
        <ele>545.4</ele>
        <time>2022-07-29T14:37:47Z</time>
      </trkpt>
      <trkpt lat="46.28821" lon="5.64371">
        <ele>545.4</ele>
        <time>2022-07-29T14:37:48Z</time>
      </trkpt>
      <trkpt lat="46.2882" lon="5.64366">
        <ele>545.8</ele>
        <time>2022-07-29T14:37:49Z</time>
      </trkpt>
      <trkpt lat="46.2882" lon="5.6436">
        <ele>545.8</ele>
        <time>2022-07-29T14:37:50Z</time>
      </trkpt>
      <trkpt lat="46.2882" lon="5.64355">
        <ele>546</ele>
        <time>2022-07-29T14:37:51Z</time>
      </trkpt>
      <trkpt lat="46.2882" lon="5.64349">
        <ele>546</ele>
        <time>2022-07-29T14:37:52Z</time>
      </trkpt>
      <trkpt lat="46.2882" lon="5.64343">
        <ele>546.2</ele>
        <time>2022-07-29T14:37:53Z</time>
      </trkpt>
      <trkpt lat="46.28819" lon="5.64338">
        <ele>546.2</ele>
        <time>2022-07-29T14:37:54Z</time>
      </trkpt>
      <trkpt lat="46.28819" lon="5.64332">
        <ele>546.2</ele>
        <time>2022-07-29T14:37:55Z</time>
      </trkpt>
      <trkpt lat="46.28818" lon="5.64326">
        <ele>546.4</ele>
        <time>2022-07-29T14:37:56Z</time>
      </trkpt>
      <trkpt lat="46.28817" lon="5.6432">
        <ele>546.4</ele>
        <time>2022-07-29T14:37:57Z</time>
      </trkpt>
      <trkpt lat="46.28817" lon="5.64314">
        <ele>546.4</ele>
        <time>2022-07-29T14:37:58Z</time>
      </trkpt>
      <trkpt lat="46.28816" lon="5.64308">
        <ele>546.4</ele>
        <time>2022-07-29T14:37:59Z</time>
      </trkpt>
      <trkpt lat="46.28815" lon="5.64301">
        <ele>546.4</ele>
        <time>2022-07-29T14:38:00Z</time>
      </trkpt>
      <trkpt lat="46.28814" lon="5.64295">
        <ele>546.4</ele>
        <time>2022-07-29T14:38:01Z</time>
      </trkpt>
      <trkpt lat="46.28814" lon="5.64288">
        <ele>546.4</ele>
        <time>2022-07-29T14:38:02Z</time>
      </trkpt>
      <trkpt lat="46.28814" lon="5.64281">
        <ele>546.4</ele>
        <time>2022-07-29T14:38:03Z</time>
      </trkpt>
      <trkpt lat="46.28813" lon="5.64274">
        <ele>546.4</ele>
        <time>2022-07-29T14:38:04Z</time>
      </trkpt>
      <trkpt lat="46.28813" lon="5.64267">
        <ele>546.4</ele>
        <time>2022-07-29T14:38:05Z</time>
      </trkpt>
      <trkpt lat="46.28813" lon="5.64259">
        <ele>546.2</ele>
        <time>2022-07-29T14:38:06Z</time>
      </trkpt>
      <trkpt lat="46.28813" lon="5.64251">
        <ele>546.2</ele>
        <time>2022-07-29T14:38:07Z</time>
      </trkpt>
      <trkpt lat="46.28813" lon="5.64243">
        <ele>546.2</ele>
        <time>2022-07-29T14:38:08Z</time>
      </trkpt>
      <trkpt lat="46.28813" lon="5.64235">
        <ele>545.8</ele>
        <time>2022-07-29T14:38:09Z</time>
      </trkpt>
      <trkpt lat="46.28813" lon="5.64227">
        <ele>545.8</ele>
        <time>2022-07-29T14:38:10Z</time>
      </trkpt>
      <trkpt lat="46.28812" lon="5.64219">
        <ele>545.6</ele>
        <time>2022-07-29T14:38:11Z</time>
      </trkpt>
      <trkpt lat="46.28812" lon="5.64211">
        <ele>545.6</ele>
        <time>2022-07-29T14:38:12Z</time>
      </trkpt>
      <trkpt lat="46.28811" lon="5.64203">
        <ele>545.2</ele>
        <time>2022-07-29T14:38:13Z</time>
      </trkpt>
      <trkpt lat="46.28809" lon="5.64194">
        <ele>545.2</ele>
        <time>2022-07-29T14:38:14Z</time>
      </trkpt>
      <trkpt lat="46.28808" lon="5.64185">
        <ele>544.8</ele>
        <time>2022-07-29T14:38:15Z</time>
      </trkpt>
      <trkpt lat="46.28806" lon="5.64176">
        <ele>544.8</ele>
        <time>2022-07-29T14:38:16Z</time>
      </trkpt>
      <trkpt lat="46.28803" lon="5.64168">
        <ele>544.4</ele>
        <time>2022-07-29T14:38:17Z</time>
      </trkpt>
      <trkpt lat="46.28801" lon="5.64159">
        <ele>544.4</ele>
        <time>2022-07-29T14:38:18Z</time>
      </trkpt>
      <trkpt lat="46.28798" lon="5.6415">
        <ele>544.2</ele>
        <time>2022-07-29T14:38:19Z</time>
      </trkpt>
      <trkpt lat="46.28797" lon="5.64141">
        <ele>544.2</ele>
        <time>2022-07-29T14:38:20Z</time>
      </trkpt>
      <trkpt lat="46.28795" lon="5.64132">
        <ele>543.8</ele>
        <time>2022-07-29T14:38:21Z</time>
      </trkpt>
      <trkpt lat="46.28793" lon="5.64123">
        <ele>543.6</ele>
        <time>2022-07-29T14:38:22Z</time>
      </trkpt>
      <trkpt lat="46.28791" lon="5.64114">
        <ele>543.6</ele>
        <time>2022-07-29T14:38:23Z</time>
      </trkpt>
      <trkpt lat="46.28789" lon="5.64104">
        <ele>543.2</ele>
        <time>2022-07-29T14:38:24Z</time>
      </trkpt>
      <trkpt lat="46.28787" lon="5.64095">
        <ele>543.2</ele>
        <time>2022-07-29T14:38:25Z</time>
      </trkpt>
      <trkpt lat="46.28784" lon="5.64085">
        <ele>542.8</ele>
        <time>2022-07-29T14:38:26Z</time>
      </trkpt>
      <trkpt lat="46.28782" lon="5.64076">
        <ele>542.6</ele>
        <time>2022-07-29T14:38:27Z</time>
      </trkpt>
      <trkpt lat="46.28781" lon="5.64066">
        <ele>542.6</ele>
        <time>2022-07-29T14:38:28Z</time>
      </trkpt>
      <trkpt lat="46.28778" lon="5.64056">
        <ele>542.4</ele>
        <time>2022-07-29T14:38:29Z</time>
      </trkpt>
      <trkpt lat="46.28776" lon="5.64046">
        <ele>542.4</ele>
        <time>2022-07-29T14:38:30Z</time>
      </trkpt>
      <trkpt lat="46.28774" lon="5.64036">
        <ele>542</ele>
        <time>2022-07-29T14:38:31Z</time>
      </trkpt>
      <trkpt lat="46.28772" lon="5.64026">
        <ele>541.8</ele>
        <time>2022-07-29T14:38:32Z</time>
      </trkpt>
      <trkpt lat="46.28771" lon="5.64016">
        <ele>541.8</ele>
        <time>2022-07-29T14:38:33Z</time>
      </trkpt>
      <trkpt lat="46.28769" lon="5.64008">
        <ele>541.8</ele>
        <time>2022-07-29T14:38:34Z</time>
      </trkpt>
      <trkpt lat="46.28766" lon="5.64001">
        <ele>541.6</ele>
        <time>2022-07-29T14:38:35Z</time>
      </trkpt>
      <trkpt lat="46.28764" lon="5.63995">
        <ele>541.6</ele>
        <time>2022-07-29T14:38:36Z</time>
      </trkpt>
      <trkpt lat="46.28761" lon="5.63989">
        <ele>541.6</ele>
        <time>2022-07-29T14:38:37Z</time>
      </trkpt>
      <trkpt lat="46.2876" lon="5.63985">
        <ele>541.6</ele>
        <time>2022-07-29T14:38:38Z</time>
      </trkpt>
      <trkpt lat="46.28761" lon="5.63981">
        <ele>541.2</ele>
        <time>2022-07-29T14:38:39Z</time>
      </trkpt>
      <trkpt lat="46.28763" lon="5.63978">
        <ele>541.2</ele>
        <time>2022-07-29T14:38:40Z</time>
      </trkpt>
      <trkpt lat="46.28766" lon="5.63975">
        <ele>540.8</ele>
        <time>2022-07-29T14:38:41Z</time>
      </trkpt>
      <trkpt lat="46.28771" lon="5.63974">
        <ele>540.2</ele>
        <time>2022-07-29T14:38:42Z</time>
      </trkpt>
      <trkpt lat="46.28778" lon="5.63974">
        <ele>539.6</ele>
        <time>2022-07-29T14:38:43Z</time>
      </trkpt>
      <trkpt lat="46.28785" lon="5.63976">
        <ele>539</ele>
        <time>2022-07-29T14:38:44Z</time>
      </trkpt>
      <trkpt lat="46.28792" lon="5.63978">
        <ele>538.2</ele>
        <time>2022-07-29T14:38:45Z</time>
      </trkpt>
      <trkpt lat="46.288" lon="5.63981">
        <ele>537.4</ele>
        <time>2022-07-29T14:38:46Z</time>
      </trkpt>
      <trkpt lat="46.28809" lon="5.63983">
        <ele>536.6</ele>
        <time>2022-07-29T14:38:47Z</time>
      </trkpt>
      <trkpt lat="46.28818" lon="5.63986">
        <ele>535.6</ele>
        <time>2022-07-29T14:38:48Z</time>
      </trkpt>
      <trkpt lat="46.28827" lon="5.63989">
        <ele>534.6</ele>
        <time>2022-07-29T14:38:49Z</time>
      </trkpt>
      <trkpt lat="46.28836" lon="5.63994">
        <ele>533.8</ele>
        <time>2022-07-29T14:38:50Z</time>
      </trkpt>
      <trkpt lat="46.28846" lon="5.63999">
        <ele>532.8</ele>
        <time>2022-07-29T14:38:51Z</time>
      </trkpt>
      <trkpt lat="46.28857" lon="5.64004">
        <ele>532</ele>
        <time>2022-07-29T14:38:52Z</time>
      </trkpt>
      <trkpt lat="46.28867" lon="5.64005">
        <ele>531</ele>
        <time>2022-07-29T14:38:53Z</time>
      </trkpt>
      <trkpt lat="46.2888" lon="5.64004">
        <ele>530</ele>
        <time>2022-07-29T14:38:54Z</time>
      </trkpt>
      <trkpt lat="46.2889" lon="5.64">
        <ele>529</ele>
        <time>2022-07-29T14:38:55Z</time>
      </trkpt>
      <trkpt lat="46.289" lon="5.63991">
        <ele>527.8</ele>
        <time>2022-07-29T14:38:56Z</time>
      </trkpt>
      <trkpt lat="46.28908" lon="5.63978">
        <ele>526.6</ele>
        <time>2022-07-29T14:38:57Z</time>
      </trkpt>
      <trkpt lat="46.28914" lon="5.63965">
        <ele>525.2</ele>
        <time>2022-07-29T14:38:58Z</time>
      </trkpt>
      <trkpt lat="46.28923" lon="5.63954">
        <ele>523.8</ele>
        <time>2022-07-29T14:38:59Z</time>
      </trkpt>
      <trkpt lat="46.28933" lon="5.63946">
        <ele>522.4</ele>
        <time>2022-07-29T14:39:00Z</time>
      </trkpt>
      <trkpt lat="46.28946" lon="5.6394">
        <ele>520.8</ele>
        <time>2022-07-29T14:39:01Z</time>
      </trkpt>
      <trkpt lat="46.2896" lon="5.63936">
        <ele>519.4</ele>
        <time>2022-07-29T14:39:02Z</time>
      </trkpt>
      <trkpt lat="46.28975" lon="5.63933">
        <ele>518</ele>
        <time>2022-07-29T14:39:03Z</time>
      </trkpt>
      <trkpt lat="46.2899" lon="5.63932">
        <ele>516.4</ele>
        <time>2022-07-29T14:39:04Z</time>
      </trkpt>
      <trkpt lat="46.29004" lon="5.63929">
        <ele>515.2</ele>
        <time>2022-07-29T14:39:05Z</time>
      </trkpt>
      <trkpt lat="46.29017" lon="5.63927">
        <ele>514.4</ele>
        <time>2022-07-29T14:39:06Z</time>
      </trkpt>
      <trkpt lat="46.2903" lon="5.63923">
        <ele>513.6</ele>
        <time>2022-07-29T14:39:07Z</time>
      </trkpt>
      <trkpt lat="46.2904" lon="5.63918">
        <ele>512.8</ele>
        <time>2022-07-29T14:39:08Z</time>
      </trkpt>
      <trkpt lat="46.29048" lon="5.63913">
        <ele>512.4</ele>
        <time>2022-07-29T14:39:09Z</time>
      </trkpt>
      <trkpt lat="46.29056" lon="5.63911">
        <ele>511.8</ele>
        <time>2022-07-29T14:39:10Z</time>
      </trkpt>
      <trkpt lat="46.29063" lon="5.63912">
        <ele>511.4</ele>
        <time>2022-07-29T14:39:11Z</time>
      </trkpt>
      <trkpt lat="46.29069" lon="5.63916">
        <ele>511</ele>
        <time>2022-07-29T14:39:12Z</time>
      </trkpt>
      <trkpt lat="46.29074" lon="5.63924">
        <ele>510.4</ele>
        <time>2022-07-29T14:39:13Z</time>
      </trkpt>
      <trkpt lat="46.29078" lon="5.63933">
        <ele>510</ele>
        <time>2022-07-29T14:39:14Z</time>
      </trkpt>
      <trkpt lat="46.29082" lon="5.63944">
        <ele>509.4</ele>
        <time>2022-07-29T14:39:15Z</time>
      </trkpt>
      <trkpt lat="46.29086" lon="5.63955">
        <ele>508.8</ele>
        <time>2022-07-29T14:39:16Z</time>
      </trkpt>
      <trkpt lat="46.29089" lon="5.63967">
        <ele>508.4</ele>
        <time>2022-07-29T14:39:17Z</time>
      </trkpt>
      <trkpt lat="46.29093" lon="5.63979">
        <ele>507.8</ele>
        <time>2022-07-29T14:39:18Z</time>
      </trkpt>
      <trkpt lat="46.29096" lon="5.63994">
        <ele>507.2</ele>
        <time>2022-07-29T14:39:19Z</time>
      </trkpt>
      <trkpt lat="46.29099" lon="5.64007">
        <ele>506.6</ele>
        <time>2022-07-29T14:39:20Z</time>
      </trkpt>
      <trkpt lat="46.29103" lon="5.64022">
        <ele>506.2</ele>
        <time>2022-07-29T14:39:21Z</time>
      </trkpt>
      <trkpt lat="46.29107" lon="5.64035">
        <ele>505.6</ele>
        <time>2022-07-29T14:39:22Z</time>
      </trkpt>
      <trkpt lat="46.29111" lon="5.64048">
        <ele>505</ele>
        <time>2022-07-29T14:39:23Z</time>
      </trkpt>
      <trkpt lat="46.29114" lon="5.64061">
        <ele>504.4</ele>
        <time>2022-07-29T14:39:24Z</time>
      </trkpt>
      <trkpt lat="46.29119" lon="5.64075">
        <ele>504</ele>
        <time>2022-07-29T14:39:25Z</time>
      </trkpt>
      <trkpt lat="46.29123" lon="5.64088">
        <ele>503.4</ele>
        <time>2022-07-29T14:39:26Z</time>
      </trkpt>
      <trkpt lat="46.29127" lon="5.641">
        <ele>502.8</ele>
        <time>2022-07-29T14:39:27Z</time>
      </trkpt>
      <trkpt lat="46.29131" lon="5.64114">
        <ele>502.4</ele>
        <time>2022-07-29T14:39:28Z</time>
      </trkpt>
      <trkpt lat="46.29136" lon="5.64126">
        <ele>501.8</ele>
        <time>2022-07-29T14:39:29Z</time>
      </trkpt>
      <trkpt lat="46.29141" lon="5.64138">
        <ele>501.2</ele>
        <time>2022-07-29T14:39:30Z</time>
      </trkpt>
      <trkpt lat="46.29147" lon="5.6415">
        <ele>500.8</ele>
        <time>2022-07-29T14:39:31Z</time>
      </trkpt>
      <trkpt lat="46.29152" lon="5.64163">
        <ele>500.2</ele>
        <time>2022-07-29T14:39:32Z</time>
      </trkpt>
      <trkpt lat="46.29158" lon="5.64174">
        <ele>499.6</ele>
        <time>2022-07-29T14:39:33Z</time>
      </trkpt>
      <trkpt lat="46.29164" lon="5.64186">
        <ele>499.2</ele>
        <time>2022-07-29T14:39:34Z</time>
      </trkpt>
      <trkpt lat="46.2917" lon="5.64199">
        <ele>498.8</ele>
        <time>2022-07-29T14:39:35Z</time>
      </trkpt>
      <trkpt lat="46.29177" lon="5.6421">
        <ele>498.2</ele>
        <time>2022-07-29T14:39:36Z</time>
      </trkpt>
      <trkpt lat="46.29183" lon="5.64221">
        <ele>497.8</ele>
        <time>2022-07-29T14:39:37Z</time>
      </trkpt>
      <trkpt lat="46.2919" lon="5.64233">
        <ele>497.4</ele>
        <time>2022-07-29T14:39:38Z</time>
      </trkpt>
      <trkpt lat="46.29197" lon="5.64244">
        <ele>496.8</ele>
        <time>2022-07-29T14:39:39Z</time>
      </trkpt>
      <trkpt lat="46.29204" lon="5.64255">
        <ele>496.2</ele>
        <time>2022-07-29T14:39:40Z</time>
      </trkpt>
      <trkpt lat="46.2921" lon="5.64268">
        <ele>495.6</ele>
        <time>2022-07-29T14:39:41Z</time>
      </trkpt>
      <trkpt lat="46.29218" lon="5.64281">
        <ele>495</ele>
        <time>2022-07-29T14:39:42Z</time>
      </trkpt>
      <trkpt lat="46.29225" lon="5.64293">
        <ele>494.4</ele>
        <time>2022-07-29T14:39:43Z</time>
      </trkpt>
      <trkpt lat="46.29232" lon="5.64305">
        <ele>493.8</ele>
        <time>2022-07-29T14:39:44Z</time>
      </trkpt>
      <trkpt lat="46.29241" lon="5.64317">
        <ele>493</ele>
        <time>2022-07-29T14:39:45Z</time>
      </trkpt>
      <trkpt lat="46.29248" lon="5.64329">
        <ele>492.4</ele>
        <time>2022-07-29T14:39:46Z</time>
      </trkpt>
      <trkpt lat="46.29255" lon="5.64341">
        <ele>491.8</ele>
        <time>2022-07-29T14:39:47Z</time>
      </trkpt>
      <trkpt lat="46.29263" lon="5.64354">
        <ele>491</ele>
        <time>2022-07-29T14:39:48Z</time>
      </trkpt>
      <trkpt lat="46.29271" lon="5.64366">
        <ele>490.4</ele>
        <time>2022-07-29T14:39:49Z</time>
      </trkpt>
      <trkpt lat="46.29278" lon="5.64379">
        <ele>489.8</ele>
        <time>2022-07-29T14:39:50Z</time>
      </trkpt>
      <trkpt lat="46.29286" lon="5.64392">
        <ele>489.2</ele>
        <time>2022-07-29T14:39:51Z</time>
      </trkpt>
      <trkpt lat="46.29294" lon="5.64405">
        <ele>488.4</ele>
        <time>2022-07-29T14:39:52Z</time>
      </trkpt>
      <trkpt lat="46.29301" lon="5.64419">
        <ele>487.6</ele>
        <time>2022-07-29T14:39:53Z</time>
      </trkpt>
      <trkpt lat="46.29308" lon="5.64433">
        <ele>486.8</ele>
        <time>2022-07-29T14:39:54Z</time>
      </trkpt>
      <trkpt lat="46.29316" lon="5.64447">
        <ele>486</ele>
        <time>2022-07-29T14:39:55Z</time>
      </trkpt>
      <trkpt lat="46.29324" lon="5.6446">
        <ele>485.2</ele>
        <time>2022-07-29T14:39:56Z</time>
      </trkpt>
      <trkpt lat="46.29333" lon="5.64472">
        <ele>484.4</ele>
        <time>2022-07-29T14:39:57Z</time>
      </trkpt>
      <trkpt lat="46.29341" lon="5.64487">
        <ele>483.6</ele>
        <time>2022-07-29T14:39:58Z</time>
      </trkpt>
      <trkpt lat="46.29348" lon="5.645">
        <ele>482.8</ele>
        <time>2022-07-29T14:39:59Z</time>
      </trkpt>
      <trkpt lat="46.29355" lon="5.64514">
        <ele>482</ele>
        <time>2022-07-29T14:40:00Z</time>
      </trkpt>
      <trkpt lat="46.29362" lon="5.64532">
        <ele>481.2</ele>
        <time>2022-07-29T14:40:01Z</time>
      </trkpt>
      <trkpt lat="46.29368" lon="5.64547">
        <ele>480.2</ele>
        <time>2022-07-29T14:40:02Z</time>
      </trkpt>
      <trkpt lat="46.29374" lon="5.64563">
        <ele>479.4</ele>
        <time>2022-07-29T14:40:03Z</time>
      </trkpt>
      <trkpt lat="46.29381" lon="5.64579">
        <ele>478.6</ele>
        <time>2022-07-29T14:40:04Z</time>
      </trkpt>
      <trkpt lat="46.29389" lon="5.64595">
        <ele>477.6</ele>
        <time>2022-07-29T14:40:05Z</time>
      </trkpt>
      <trkpt lat="46.29396" lon="5.6461">
        <ele>476.8</ele>
        <time>2022-07-29T14:40:06Z</time>
      </trkpt>
      <trkpt lat="46.29403" lon="5.64625">
        <ele>475.8</ele>
        <time>2022-07-29T14:40:07Z</time>
      </trkpt>
      <trkpt lat="46.29409" lon="5.64643">
        <ele>474.8</ele>
        <time>2022-07-29T14:40:08Z</time>
      </trkpt>
      <trkpt lat="46.29414" lon="5.6466">
        <ele>473.8</ele>
        <time>2022-07-29T14:40:09Z</time>
      </trkpt>
      <trkpt lat="46.29419" lon="5.64678">
        <ele>472.8</ele>
        <time>2022-07-29T14:40:10Z</time>
      </trkpt>
      <trkpt lat="46.29426" lon="5.64696">
        <ele>471.8</ele>
        <time>2022-07-29T14:40:11Z</time>
      </trkpt>
      <trkpt lat="46.29432" lon="5.64713">
        <ele>470.6</ele>
        <time>2022-07-29T14:40:12Z</time>
      </trkpt>
      <trkpt lat="46.29438" lon="5.6473">
        <ele>469.6</ele>
        <time>2022-07-29T14:40:13Z</time>
      </trkpt>
      <trkpt lat="46.29445" lon="5.64748">
        <ele>468.6</ele>
        <time>2022-07-29T14:40:14Z</time>
      </trkpt>
      <trkpt lat="46.29451" lon="5.64766">
        <ele>467.6</ele>
        <time>2022-07-29T14:40:15Z</time>
      </trkpt>
      <trkpt lat="46.29456" lon="5.64785">
        <ele>466.6</ele>
        <time>2022-07-29T14:40:16Z</time>
      </trkpt>
      <trkpt lat="46.29459" lon="5.64805">
        <ele>466</ele>
        <time>2022-07-29T14:40:17Z</time>
      </trkpt>
      <trkpt lat="46.29462" lon="5.64825">
        <ele>465.4</ele>
        <time>2022-07-29T14:40:18Z</time>
      </trkpt>
      <trkpt lat="46.29465" lon="5.64843">
        <ele>464.8</ele>
        <time>2022-07-29T14:40:19Z</time>
      </trkpt>
      <trkpt lat="46.29468" lon="5.64861">
        <ele>464.4</ele>
        <time>2022-07-29T14:40:20Z</time>
      </trkpt>
      <trkpt lat="46.29471" lon="5.6488">
        <ele>464</ele>
        <time>2022-07-29T14:40:21Z</time>
      </trkpt>
      <trkpt lat="46.29473" lon="5.64898">
        <ele>463.6</ele>
        <time>2022-07-29T14:40:22Z</time>
      </trkpt>
      <trkpt lat="46.29474" lon="5.64914">
        <ele>463.4</ele>
        <time>2022-07-29T14:40:23Z</time>
      </trkpt>
      <trkpt lat="46.29475" lon="5.64931">
        <ele>463</ele>
        <time>2022-07-29T14:40:24Z</time>
      </trkpt>
      <trkpt lat="46.29477" lon="5.64947">
        <ele>462.6</ele>
        <time>2022-07-29T14:40:25Z</time>
      </trkpt>
      <trkpt lat="46.29478" lon="5.64963">
        <ele>462.2</ele>
        <time>2022-07-29T14:40:26Z</time>
      </trkpt>
      <trkpt lat="46.2948" lon="5.64978">
        <ele>461.8</ele>
        <time>2022-07-29T14:40:27Z</time>
      </trkpt>
      <trkpt lat="46.29481" lon="5.64994">
        <ele>461.4</ele>
        <time>2022-07-29T14:40:28Z</time>
      </trkpt>
      <trkpt lat="46.29483" lon="5.6501">
        <ele>460.8</ele>
        <time>2022-07-29T14:40:29Z</time>
      </trkpt>
      <trkpt lat="46.29485" lon="5.65027">
        <ele>460.2</ele>
        <time>2022-07-29T14:40:30Z</time>
      </trkpt>
      <trkpt lat="46.29486" lon="5.65044">
        <ele>459.6</ele>
        <time>2022-07-29T14:40:31Z</time>
      </trkpt>
      <trkpt lat="46.29485" lon="5.65061">
        <ele>458.8</ele>
        <time>2022-07-29T14:40:32Z</time>
      </trkpt>
      <trkpt lat="46.29485" lon="5.65079">
        <ele>458.2</ele>
        <time>2022-07-29T14:40:33Z</time>
      </trkpt>
      <trkpt lat="46.29486" lon="5.65096">
        <ele>457.4</ele>
        <time>2022-07-29T14:40:34Z</time>
      </trkpt>
      <trkpt lat="46.29486" lon="5.65113">
        <ele>457</ele>
        <time>2022-07-29T14:40:35Z</time>
      </trkpt>
      <trkpt lat="46.29484" lon="5.6513">
        <ele>456.4</ele>
        <time>2022-07-29T14:40:36Z</time>
      </trkpt>
      <trkpt lat="46.29483" lon="5.65147">
        <ele>456</ele>
        <time>2022-07-29T14:40:37Z</time>
      </trkpt>
      <trkpt lat="46.29481" lon="5.65163">
        <ele>455.6</ele>
        <time>2022-07-29T14:40:38Z</time>
      </trkpt>
      <trkpt lat="46.29482" lon="5.65182">
        <ele>455.4</ele>
        <time>2022-07-29T14:40:39Z</time>
      </trkpt>
      <trkpt lat="46.29481" lon="5.65197">
        <ele>455.2</ele>
        <time>2022-07-29T14:40:40Z</time>
      </trkpt>
      <trkpt lat="46.29481" lon="5.65209">
        <ele>455.2</ele>
        <time>2022-07-29T14:40:41Z</time>
      </trkpt>
      <trkpt lat="46.29481" lon="5.65223">
        <ele>454.8</ele>
        <time>2022-07-29T14:40:42Z</time>
      </trkpt>
      <trkpt lat="46.2948" lon="5.65237">
        <ele>454.6</ele>
        <time>2022-07-29T14:40:43Z</time>
      </trkpt>
      <trkpt lat="46.29479" lon="5.6525">
        <ele>454.6</ele>
        <time>2022-07-29T14:40:44Z</time>
      </trkpt>
      <trkpt lat="46.29478" lon="5.65262">
        <ele>454.4</ele>
        <time>2022-07-29T14:40:45Z</time>
      </trkpt>
      <trkpt lat="46.29477" lon="5.65274">
        <ele>454.4</ele>
        <time>2022-07-29T14:40:46Z</time>
      </trkpt>
      <trkpt lat="46.29476" lon="5.65286">
        <ele>454.4</ele>
        <time>2022-07-29T14:40:47Z</time>
      </trkpt>
      <trkpt lat="46.29475" lon="5.65298">
        <ele>454.4</ele>
        <time>2022-07-29T14:40:48Z</time>
      </trkpt>
      <trkpt lat="46.29475" lon="5.6531">
        <ele>454.2</ele>
        <time>2022-07-29T14:40:49Z</time>
      </trkpt>
      <trkpt lat="46.29474" lon="5.65322">
        <ele>454.2</ele>
        <time>2022-07-29T14:40:50Z</time>
      </trkpt>
      <trkpt lat="46.29474" lon="5.65334">
        <ele>454.2</ele>
        <time>2022-07-29T14:40:51Z</time>
      </trkpt>
      <trkpt lat="46.29473" lon="5.65345">
        <ele>453.8</ele>
        <time>2022-07-29T14:40:52Z</time>
      </trkpt>
      <trkpt lat="46.29472" lon="5.65357">
        <ele>453.8</ele>
        <time>2022-07-29T14:40:53Z</time>
      </trkpt>
      <trkpt lat="46.29471" lon="5.65368">
        <ele>453.4</ele>
        <time>2022-07-29T14:40:54Z</time>
      </trkpt>
      <trkpt lat="46.29468" lon="5.65379">
        <ele>453.2</ele>
        <time>2022-07-29T14:40:55Z</time>
      </trkpt>
      <trkpt lat="46.29464" lon="5.6539">
        <ele>452.8</ele>
        <time>2022-07-29T14:40:56Z</time>
      </trkpt>
      <trkpt lat="46.2946" lon="5.65401">
        <ele>452.4</ele>
        <time>2022-07-29T14:40:57Z</time>
      </trkpt>
      <trkpt lat="46.29457" lon="5.65411">
        <ele>451.8</ele>
        <time>2022-07-29T14:40:58Z</time>
      </trkpt>
      <trkpt lat="46.29455" lon="5.65421">
        <ele>451.6</ele>
        <time>2022-07-29T14:40:59Z</time>
      </trkpt>
      <trkpt lat="46.29453" lon="5.65431">
        <ele>451</ele>
        <time>2022-07-29T14:41:00Z</time>
      </trkpt>
      <trkpt lat="46.29453" lon="5.65441">
        <ele>450.6</ele>
        <time>2022-07-29T14:41:01Z</time>
      </trkpt>
      <trkpt lat="46.29457" lon="5.65449">
        <ele>450.2</ele>
        <time>2022-07-29T14:41:02Z</time>
      </trkpt>
      <trkpt lat="46.29462" lon="5.65454">
        <ele>449.8</ele>
        <time>2022-07-29T14:41:03Z</time>
      </trkpt>
      <trkpt lat="46.29468" lon="5.65456">
        <ele>449.4</ele>
        <time>2022-07-29T14:41:04Z</time>
      </trkpt>
      <trkpt lat="46.29475" lon="5.65456">
        <ele>449</ele>
        <time>2022-07-29T14:41:05Z</time>
      </trkpt>
      <trkpt lat="46.29483" lon="5.65455">
        <ele>448.6</ele>
        <time>2022-07-29T14:41:06Z</time>
      </trkpt>
      <trkpt lat="46.2949" lon="5.65453">
        <ele>448</ele>
        <time>2022-07-29T14:41:07Z</time>
      </trkpt>
      <trkpt lat="46.29499" lon="5.6545">
        <ele>447.6</ele>
        <time>2022-07-29T14:41:08Z</time>
      </trkpt>
      <trkpt lat="46.29507" lon="5.65448">
        <ele>447</ele>
        <time>2022-07-29T14:41:09Z</time>
      </trkpt>
      <trkpt lat="46.29516" lon="5.65445">
        <ele>446.6</ele>
        <time>2022-07-29T14:41:10Z</time>
      </trkpt>
      <trkpt lat="46.29526" lon="5.65442">
        <ele>446.2</ele>
        <time>2022-07-29T14:41:11Z</time>
      </trkpt>
      <trkpt lat="46.29536" lon="5.65438">
        <ele>445.4</ele>
        <time>2022-07-29T14:41:12Z</time>
      </trkpt>
      <trkpt lat="46.29546" lon="5.65434">
        <ele>444.8</ele>
        <time>2022-07-29T14:41:13Z</time>
      </trkpt>
      <trkpt lat="46.29556" lon="5.65429">
        <ele>444</ele>
        <time>2022-07-29T14:41:14Z</time>
      </trkpt>
      <trkpt lat="46.29566" lon="5.65421">
        <ele>443.4</ele>
        <time>2022-07-29T14:41:15Z</time>
      </trkpt>
      <trkpt lat="46.29575" lon="5.65411">
        <ele>442.6</ele>
        <time>2022-07-29T14:41:16Z</time>
      </trkpt>
      <trkpt lat="46.29582" lon="5.65398">
        <ele>442</ele>
        <time>2022-07-29T14:41:17Z</time>
      </trkpt>
      <trkpt lat="46.29587" lon="5.65387">
        <ele>441.4</ele>
        <time>2022-07-29T14:41:18Z</time>
      </trkpt>
      <trkpt lat="46.29592" lon="5.65374">
        <ele>441.4</ele>
        <time>2022-07-29T14:41:19Z</time>
      </trkpt>
      <trkpt lat="46.29596" lon="5.65358">
        <ele>440.6</ele>
        <time>2022-07-29T14:41:20Z</time>
      </trkpt>
      <trkpt lat="46.29599" lon="5.65342">
        <ele>439.8</ele>
        <time>2022-07-29T14:41:21Z</time>
      </trkpt>
      <trkpt lat="46.29601" lon="5.65325">
        <ele>438.8</ele>
        <time>2022-07-29T14:41:22Z</time>
      </trkpt>
      <trkpt lat="46.29604" lon="5.65307">
        <ele>438.2</ele>
        <time>2022-07-29T14:41:23Z</time>
      </trkpt>
      <trkpt lat="46.29609" lon="5.65291">
        <ele>437.4</ele>
        <time>2022-07-29T14:41:24Z</time>
      </trkpt>
      <trkpt lat="46.29615" lon="5.65277">
        <ele>436.6</ele>
        <time>2022-07-29T14:41:25Z</time>
      </trkpt>
      <trkpt lat="46.29626" lon="5.65266">
        <ele>435.8</ele>
        <time>2022-07-29T14:41:26Z</time>
      </trkpt>
      <trkpt lat="46.29637" lon="5.6526">
        <ele>435</ele>
        <time>2022-07-29T14:41:27Z</time>
      </trkpt>
      <trkpt lat="46.29649" lon="5.6526">
        <ele>434.2</ele>
        <time>2022-07-29T14:41:28Z</time>
      </trkpt>
      <trkpt lat="46.29661" lon="5.65264">
        <ele>433.2</ele>
        <time>2022-07-29T14:41:29Z</time>
      </trkpt>
      <trkpt lat="46.29671" lon="5.65272">
        <ele>432.2</ele>
        <time>2022-07-29T14:41:30Z</time>
      </trkpt>
      <trkpt lat="46.29682" lon="5.65285">
        <ele>431.4</ele>
        <time>2022-07-29T14:41:31Z</time>
      </trkpt>
      <trkpt lat="46.29691" lon="5.65297">
        <ele>430.8</ele>
        <time>2022-07-29T14:41:32Z</time>
      </trkpt>
      <trkpt lat="46.297" lon="5.65311">
        <ele>430.2</ele>
        <time>2022-07-29T14:41:33Z</time>
      </trkpt>
      <trkpt lat="46.29706" lon="5.65326">
        <ele>429.6</ele>
        <time>2022-07-29T14:41:34Z</time>
      </trkpt>
      <trkpt lat="46.29712" lon="5.65339">
        <ele>429</ele>
        <time>2022-07-29T14:41:35Z</time>
      </trkpt>
      <trkpt lat="46.29719" lon="5.65354">
        <ele>428.4</ele>
        <time>2022-07-29T14:41:36Z</time>
      </trkpt>
      <trkpt lat="46.29725" lon="5.65365">
        <ele>428</ele>
        <time>2022-07-29T14:41:37Z</time>
      </trkpt>
      <trkpt lat="46.29733" lon="5.65377">
        <ele>427.4</ele>
        <time>2022-07-29T14:41:38Z</time>
      </trkpt>
      <trkpt lat="46.29741" lon="5.65391">
        <ele>426.8</ele>
        <time>2022-07-29T14:41:39Z</time>
      </trkpt>
      <trkpt lat="46.29747" lon="5.65403">
        <ele>426.2</ele>
        <time>2022-07-29T14:41:40Z</time>
      </trkpt>
      <trkpt lat="46.29754" lon="5.65415">
        <ele>426</ele>
        <time>2022-07-29T14:41:41Z</time>
      </trkpt>
      <trkpt lat="46.29761" lon="5.65427">
        <ele>425.6</ele>
        <time>2022-07-29T14:41:42Z</time>
      </trkpt>
      <trkpt lat="46.29768" lon="5.65439">
        <ele>425.2</ele>
        <time>2022-07-29T14:41:43Z</time>
      </trkpt>
      <trkpt lat="46.29775" lon="5.65449">
        <ele>424.8</ele>
        <time>2022-07-29T14:41:44Z</time>
      </trkpt>
      <trkpt lat="46.29781" lon="5.65458">
        <ele>424.8</ele>
        <time>2022-07-29T14:41:45Z</time>
      </trkpt>
      <trkpt lat="46.29789" lon="5.65468">
        <ele>424.4</ele>
        <time>2022-07-29T14:41:46Z</time>
      </trkpt>
      <trkpt lat="46.29796" lon="5.65477">
        <ele>424</ele>
        <time>2022-07-29T14:41:47Z</time>
      </trkpt>
      <trkpt lat="46.29803" lon="5.65487">
        <ele>423.8</ele>
        <time>2022-07-29T14:41:48Z</time>
      </trkpt>
      <trkpt lat="46.29811" lon="5.65497">
        <ele>423.4</ele>
        <time>2022-07-29T14:41:49Z</time>
      </trkpt>
      <trkpt lat="46.29819" lon="5.65507">
        <ele>423.2</ele>
        <time>2022-07-29T14:41:50Z</time>
      </trkpt>
      <trkpt lat="46.29826" lon="5.65515">
        <ele>423</ele>
        <time>2022-07-29T14:41:51Z</time>
      </trkpt>
      <trkpt lat="46.29834" lon="5.65523">
        <ele>423</ele>
        <time>2022-07-29T14:41:52Z</time>
      </trkpt>
      <trkpt lat="46.29842" lon="5.65531">
        <ele>422.6</ele>
        <time>2022-07-29T14:41:53Z</time>
      </trkpt>
      <trkpt lat="46.29849" lon="5.65539">
        <ele>422.6</ele>
        <time>2022-07-29T14:41:54Z</time>
      </trkpt>
      <trkpt lat="46.29856" lon="5.65546">
        <ele>422.2</ele>
        <time>2022-07-29T14:41:55Z</time>
      </trkpt>
      <trkpt lat="46.29863" lon="5.65554">
        <ele>422.2</ele>
        <time>2022-07-29T14:41:56Z</time>
      </trkpt>
      <trkpt lat="46.29871" lon="5.65562">
        <ele>421.8</ele>
        <time>2022-07-29T14:41:57Z</time>
      </trkpt>
      <trkpt lat="46.2988" lon="5.6557">
        <ele>421.8</ele>
        <time>2022-07-29T14:41:58Z</time>
      </trkpt>
      <trkpt lat="46.29888" lon="5.65579">
        <ele>421.4</ele>
        <time>2022-07-29T14:41:59Z</time>
      </trkpt>
      <trkpt lat="46.29895" lon="5.65587">
        <ele>421.2</ele>
        <time>2022-07-29T14:42:00Z</time>
      </trkpt>
      <trkpt lat="46.29903" lon="5.65594">
        <ele>421</ele>
        <time>2022-07-29T14:42:01Z</time>
      </trkpt>
      <trkpt lat="46.2991" lon="5.65601">
        <ele>420.8</ele>
        <time>2022-07-29T14:42:02Z</time>
      </trkpt>
      <trkpt lat="46.29918" lon="5.65608">
        <ele>420.4</ele>
        <time>2022-07-29T14:42:03Z</time>
      </trkpt>
      <trkpt lat="46.29925" lon="5.65615">
        <ele>420.2</ele>
        <time>2022-07-29T14:42:04Z</time>
      </trkpt>
      <trkpt lat="46.29932" lon="5.65623">
        <ele>419.8</ele>
        <time>2022-07-29T14:42:05Z</time>
      </trkpt>
      <trkpt lat="46.29939" lon="5.6563">
        <ele>419.6</ele>
        <time>2022-07-29T14:42:06Z</time>
      </trkpt>
      <trkpt lat="46.29946" lon="5.65637">
        <ele>419.2</ele>
        <time>2022-07-29T14:42:07Z</time>
      </trkpt>
      <trkpt lat="46.29954" lon="5.65646">
        <ele>418.8</ele>
        <time>2022-07-29T14:42:08Z</time>
      </trkpt>
      <trkpt lat="46.29962" lon="5.65654">
        <ele>418.4</ele>
        <time>2022-07-29T14:42:09Z</time>
      </trkpt>
      <trkpt lat="46.29969" lon="5.65661">
        <ele>418</ele>
        <time>2022-07-29T14:42:10Z</time>
      </trkpt>
      <trkpt lat="46.29977" lon="5.65669">
        <ele>417.6</ele>
        <time>2022-07-29T14:42:11Z</time>
      </trkpt>
      <trkpt lat="46.29985" lon="5.65676">
        <ele>417.4</ele>
        <time>2022-07-29T14:42:12Z</time>
      </trkpt>
      <trkpt lat="46.29993" lon="5.65684">
        <ele>417</ele>
        <time>2022-07-29T14:42:13Z</time>
      </trkpt>
      <trkpt lat="46.30001" lon="5.65691">
        <ele>416.6</ele>
        <time>2022-07-29T14:42:14Z</time>
      </trkpt>
      <trkpt lat="46.30008" lon="5.65699">
        <ele>416</ele>
        <time>2022-07-29T14:42:15Z</time>
      </trkpt>
      <trkpt lat="46.30016" lon="5.65708">
        <ele>415.6</ele>
        <time>2022-07-29T14:42:16Z</time>
      </trkpt>
      <trkpt lat="46.30024" lon="5.65716">
        <ele>415.2</ele>
        <time>2022-07-29T14:42:17Z</time>
      </trkpt>
      <trkpt lat="46.30032" lon="5.65724">
        <ele>414.8</ele>
        <time>2022-07-29T14:42:18Z</time>
      </trkpt>
      <trkpt lat="46.30041" lon="5.65731">
        <ele>414.4</ele>
        <time>2022-07-29T14:42:19Z</time>
      </trkpt>
      <trkpt lat="46.30048" lon="5.65738">
        <ele>414.2</ele>
        <time>2022-07-29T14:42:20Z</time>
      </trkpt>
      <trkpt lat="46.30057" lon="5.65746">
        <ele>413.8</ele>
        <time>2022-07-29T14:42:21Z</time>
      </trkpt>
      <trkpt lat="46.30065" lon="5.65753">
        <ele>413.4</ele>
        <time>2022-07-29T14:42:22Z</time>
      </trkpt>
      <trkpt lat="46.30073" lon="5.65761">
        <ele>412.8</ele>
        <time>2022-07-29T14:42:23Z</time>
      </trkpt>
      <trkpt lat="46.3008" lon="5.65768">
        <ele>412.4</ele>
        <time>2022-07-29T14:42:24Z</time>
      </trkpt>
      <trkpt lat="46.30087" lon="5.65775">
        <ele>411.8</ele>
        <time>2022-07-29T14:42:25Z</time>
      </trkpt>
      <trkpt lat="46.30095" lon="5.65782">
        <ele>411.4</ele>
        <time>2022-07-29T14:42:26Z</time>
      </trkpt>
      <trkpt lat="46.30104" lon="5.65789">
        <ele>411.2</ele>
        <time>2022-07-29T14:42:27Z</time>
      </trkpt>
      <trkpt lat="46.30112" lon="5.65797">
        <ele>410.8</ele>
        <time>2022-07-29T14:42:28Z</time>
      </trkpt>
      <trkpt lat="46.3012" lon="5.65805">
        <ele>410.4</ele>
        <time>2022-07-29T14:42:29Z</time>
      </trkpt>
      <trkpt lat="46.30128" lon="5.65813">
        <ele>410</ele>
        <time>2022-07-29T14:42:30Z</time>
      </trkpt>
      <trkpt lat="46.30137" lon="5.65821">
        <ele>409.6</ele>
        <time>2022-07-29T14:42:31Z</time>
      </trkpt>
      <trkpt lat="46.30146" lon="5.65829">
        <ele>409.2</ele>
        <time>2022-07-29T14:42:32Z</time>
      </trkpt>
      <trkpt lat="46.30155" lon="5.65839">
        <ele>408.8</ele>
        <time>2022-07-29T14:42:33Z</time>
      </trkpt>
      <trkpt lat="46.30164" lon="5.65848">
        <ele>408.4</ele>
        <time>2022-07-29T14:42:34Z</time>
      </trkpt>
      <trkpt lat="46.30172" lon="5.65857">
        <ele>408</ele>
        <time>2022-07-29T14:42:35Z</time>
      </trkpt>
      <trkpt lat="46.30182" lon="5.65867">
        <ele>407.6</ele>
        <time>2022-07-29T14:42:36Z</time>
      </trkpt>
      <trkpt lat="46.30191" lon="5.65876">
        <ele>407</ele>
        <time>2022-07-29T14:42:37Z</time>
      </trkpt>
      <trkpt lat="46.30199" lon="5.65884">
        <ele>406.4</ele>
        <time>2022-07-29T14:42:38Z</time>
      </trkpt>
      <trkpt lat="46.30208" lon="5.65892">
        <ele>405.8</ele>
        <time>2022-07-29T14:42:39Z</time>
      </trkpt>
      <trkpt lat="46.30218" lon="5.65903">
        <ele>405.4</ele>
        <time>2022-07-29T14:42:40Z</time>
      </trkpt>
      <trkpt lat="46.30228" lon="5.65913">
        <ele>404.6</ele>
        <time>2022-07-29T14:42:41Z</time>
      </trkpt>
      <trkpt lat="46.30238" lon="5.65923">
        <ele>404</ele>
        <time>2022-07-29T14:42:42Z</time>
      </trkpt>
      <trkpt lat="46.30247" lon="5.65932">
        <ele>403.2</ele>
        <time>2022-07-29T14:42:43Z</time>
      </trkpt>
      <trkpt lat="46.30257" lon="5.65941">
        <ele>402.4</ele>
        <time>2022-07-29T14:42:44Z</time>
      </trkpt>
      <trkpt lat="46.30266" lon="5.65952">
        <ele>401.6</ele>
        <time>2022-07-29T14:42:45Z</time>
      </trkpt>
      <trkpt lat="46.30276" lon="5.65961">
        <ele>400.8</ele>
        <time>2022-07-29T14:42:46Z</time>
      </trkpt>
      <trkpt lat="46.30285" lon="5.65969">
        <ele>400</ele>
        <time>2022-07-29T14:42:47Z</time>
      </trkpt>
      <trkpt lat="46.30295" lon="5.65977">
        <ele>399.4</ele>
        <time>2022-07-29T14:42:48Z</time>
      </trkpt>
      <trkpt lat="46.30305" lon="5.65986">
        <ele>398.6</ele>
        <time>2022-07-29T14:42:49Z</time>
      </trkpt>
      <trkpt lat="46.30315" lon="5.65996">
        <ele>397.8</ele>
        <time>2022-07-29T14:42:50Z</time>
      </trkpt>
      <trkpt lat="46.30324" lon="5.66005">
        <ele>397</ele>
        <time>2022-07-29T14:42:51Z</time>
      </trkpt>
      <trkpt lat="46.30334" lon="5.66015">
        <ele>396.6</ele>
        <time>2022-07-29T14:42:52Z</time>
      </trkpt>
      <trkpt lat="46.30345" lon="5.66025">
        <ele>396</ele>
        <time>2022-07-29T14:42:53Z</time>
      </trkpt>
      <trkpt lat="46.30355" lon="5.66034">
        <ele>395.6</ele>
        <time>2022-07-29T14:42:54Z</time>
      </trkpt>
      <trkpt lat="46.30364" lon="5.66044">
        <ele>395.2</ele>
        <time>2022-07-29T14:42:55Z</time>
      </trkpt>
      <trkpt lat="46.30374" lon="5.66054">
        <ele>395</ele>
        <time>2022-07-29T14:42:56Z</time>
      </trkpt>
      <trkpt lat="46.30392" lon="5.66073">
        <ele>394.6</ele>
        <time>2022-07-29T14:42:57Z</time>
      </trkpt>
      <trkpt lat="46.30401" lon="5.6608">
        <ele>394.4</ele>
        <time>2022-07-29T14:42:58Z</time>
      </trkpt>
      <trkpt lat="46.30409" lon="5.66088">
        <ele>394.4</ele>
        <time>2022-07-29T14:42:59Z</time>
      </trkpt>
      <trkpt lat="46.30416" lon="5.66094">
        <ele>394.4</ele>
        <time>2022-07-29T14:43:00Z</time>
      </trkpt>
      <trkpt lat="46.30423" lon="5.661">
        <ele>394.4</ele>
        <time>2022-07-29T14:43:01Z</time>
      </trkpt>
      <trkpt lat="46.3043" lon="5.66107">
        <ele>394.4</ele>
        <time>2022-07-29T14:43:02Z</time>
      </trkpt>
      <trkpt lat="46.30436" lon="5.66114">
        <ele>394.4</ele>
        <time>2022-07-29T14:43:03Z</time>
      </trkpt>
      <trkpt lat="46.30443" lon="5.6612">
        <ele>394.4</ele>
        <time>2022-07-29T14:43:04Z</time>
      </trkpt>
      <trkpt lat="46.30449" lon="5.66127">
        <ele>394.4</ele>
        <time>2022-07-29T14:43:05Z</time>
      </trkpt>
      <trkpt lat="46.30454" lon="5.66133">
        <ele>394.4</ele>
        <time>2022-07-29T14:43:06Z</time>
      </trkpt>
      <trkpt lat="46.3046" lon="5.66139">
        <ele>394.4</ele>
        <time>2022-07-29T14:43:07Z</time>
      </trkpt>
      <trkpt lat="46.30465" lon="5.66145">
        <ele>394.6</ele>
        <time>2022-07-29T14:43:08Z</time>
      </trkpt>
      <trkpt lat="46.30471" lon="5.66151">
        <ele>394.6</ele>
        <time>2022-07-29T14:43:09Z</time>
      </trkpt>
      <trkpt lat="46.30476" lon="5.66156">
        <ele>394.6</ele>
        <time>2022-07-29T14:43:10Z</time>
      </trkpt>
      <trkpt lat="46.30482" lon="5.6616">
        <ele>394.6</ele>
        <time>2022-07-29T14:43:11Z</time>
      </trkpt>
      <trkpt lat="46.30487" lon="5.66165">
        <ele>394.6</ele>
        <time>2022-07-29T14:43:12Z</time>
      </trkpt>
      <trkpt lat="46.30493" lon="5.6617">
        <ele>394.8</ele>
        <time>2022-07-29T14:43:13Z</time>
      </trkpt>
      <trkpt lat="46.30498" lon="5.66175">
        <ele>394.8</ele>
        <time>2022-07-29T14:43:14Z</time>
      </trkpt>
      <trkpt lat="46.30504" lon="5.66179">
        <ele>394.8</ele>
        <time>2022-07-29T14:43:15Z</time>
      </trkpt>
      <trkpt lat="46.3051" lon="5.66184">
        <ele>394.8</ele>
        <time>2022-07-29T14:43:16Z</time>
      </trkpt>
      <trkpt lat="46.30516" lon="5.66187">
        <ele>394.8</ele>
        <time>2022-07-29T14:43:17Z</time>
      </trkpt>
      <trkpt lat="46.30522" lon="5.66191">
        <ele>394.8</ele>
        <time>2022-07-29T14:43:18Z</time>
      </trkpt>
      <trkpt lat="46.30527" lon="5.66196">
        <ele>394.8</ele>
        <time>2022-07-29T14:43:19Z</time>
      </trkpt>
      <trkpt lat="46.30533" lon="5.662">
        <ele>394.8</ele>
        <time>2022-07-29T14:43:20Z</time>
      </trkpt>
      <trkpt lat="46.30539" lon="5.66205">
        <ele>394.8</ele>
        <time>2022-07-29T14:43:21Z</time>
      </trkpt>
      <trkpt lat="46.30544" lon="5.6621">
        <ele>394.8</ele>
        <time>2022-07-29T14:43:22Z</time>
      </trkpt>
      <trkpt lat="46.3055" lon="5.66214">
        <ele>394.6</ele>
        <time>2022-07-29T14:43:23Z</time>
      </trkpt>
      <trkpt lat="46.30556" lon="5.66218">
        <ele>394.6</ele>
        <time>2022-07-29T14:43:24Z</time>
      </trkpt>
      <trkpt lat="46.30561" lon="5.66221">
        <ele>394.6</ele>
        <time>2022-07-29T14:43:25Z</time>
      </trkpt>
      <trkpt lat="46.30567" lon="5.66223">
        <ele>394.6</ele>
        <time>2022-07-29T14:43:26Z</time>
      </trkpt>
      <trkpt lat="46.30573" lon="5.66224">
        <ele>394.6</ele>
        <time>2022-07-29T14:43:27Z</time>
      </trkpt>
      <trkpt lat="46.30579" lon="5.66224">
        <ele>394.6</ele>
        <time>2022-07-29T14:43:28Z</time>
      </trkpt>
      <trkpt lat="46.30584" lon="5.66223">
        <ele>394.6</ele>
        <time>2022-07-29T14:43:29Z</time>
      </trkpt>
      <trkpt lat="46.30588" lon="5.66222">
        <ele>394.6</ele>
        <time>2022-07-29T14:43:30Z</time>
      </trkpt>
      <trkpt lat="46.30592" lon="5.6622">
        <ele>394.8</ele>
        <time>2022-07-29T14:43:31Z</time>
      </trkpt>
      <trkpt lat="46.30595" lon="5.6622">
        <ele>394.8</ele>
        <time>2022-07-29T14:43:32Z</time>
      </trkpt>
      <trkpt lat="46.30599" lon="5.6622">
        <ele>394.8</ele>
        <time>2022-07-29T14:43:33Z</time>
      </trkpt>
      <trkpt lat="46.30603" lon="5.66221">
        <ele>395</ele>
        <time>2022-07-29T14:43:34Z</time>
      </trkpt>
      <trkpt lat="46.30607" lon="5.66222">
        <ele>395</ele>
        <time>2022-07-29T14:43:35Z</time>
      </trkpt>
      <trkpt lat="46.30611" lon="5.66222">
        <ele>395</ele>
        <time>2022-07-29T14:43:36Z</time>
      </trkpt>
      <trkpt lat="46.30616" lon="5.66221">
        <ele>395</ele>
        <time>2022-07-29T14:43:37Z</time>
      </trkpt>
      <trkpt lat="46.3062" lon="5.66218">
        <ele>395.2</ele>
        <time>2022-07-29T14:43:38Z</time>
      </trkpt>
      <trkpt lat="46.30624" lon="5.66214">
        <ele>395.2</ele>
        <time>2022-07-29T14:43:39Z</time>
      </trkpt>
      <trkpt lat="46.30627" lon="5.6621">
        <ele>395.4</ele>
        <time>2022-07-29T14:43:40Z</time>
      </trkpt>
      <trkpt lat="46.30631" lon="5.66205">
        <ele>395.4</ele>
        <time>2022-07-29T14:43:41Z</time>
      </trkpt>
      <trkpt lat="46.30634" lon="5.66199">
        <ele>395.6</ele>
        <time>2022-07-29T14:43:42Z</time>
      </trkpt>
      <trkpt lat="46.30638" lon="5.66195">
        <ele>395.6</ele>
        <time>2022-07-29T14:43:43Z</time>
      </trkpt>
      <trkpt lat="46.30642" lon="5.66191">
        <ele>395.6</ele>
        <time>2022-07-29T14:43:44Z</time>
      </trkpt>
      <trkpt lat="46.30647" lon="5.66188">
        <ele>395.6</ele>
        <time>2022-07-29T14:43:45Z</time>
      </trkpt>
      <trkpt lat="46.30652" lon="5.66186">
        <ele>395.6</ele>
        <time>2022-07-29T14:43:46Z</time>
      </trkpt>
      <trkpt lat="46.30657" lon="5.66184">
        <ele>395.6</ele>
        <time>2022-07-29T14:43:47Z</time>
      </trkpt>
      <trkpt lat="46.30663" lon="5.66182">
        <ele>395.6</ele>
        <time>2022-07-29T14:43:48Z</time>
      </trkpt>
      <trkpt lat="46.30669" lon="5.6618">
        <ele>395.6</ele>
        <time>2022-07-29T14:43:49Z</time>
      </trkpt>
      <trkpt lat="46.30675" lon="5.66178">
        <ele>395.4</ele>
        <time>2022-07-29T14:43:50Z</time>
      </trkpt>
      <trkpt lat="46.30681" lon="5.66176">
        <ele>395.4</ele>
        <time>2022-07-29T14:43:51Z</time>
      </trkpt>
      <trkpt lat="46.30688" lon="5.66175">
        <ele>395</ele>
        <time>2022-07-29T14:43:52Z</time>
      </trkpt>
      <trkpt lat="46.30695" lon="5.66173">
        <ele>394.8</ele>
        <time>2022-07-29T14:43:53Z</time>
      </trkpt>
      <trkpt lat="46.30702" lon="5.66172">
        <ele>394.4</ele>
        <time>2022-07-29T14:43:54Z</time>
      </trkpt>
      <trkpt lat="46.3071" lon="5.66171">
        <ele>394.2</ele>
        <time>2022-07-29T14:43:55Z</time>
      </trkpt>
      <trkpt lat="46.30718" lon="5.6617">
        <ele>393.8</ele>
        <time>2022-07-29T14:43:56Z</time>
      </trkpt>
      <trkpt lat="46.30726" lon="5.66168">
        <ele>393.4</ele>
        <time>2022-07-29T14:43:57Z</time>
      </trkpt>
      <trkpt lat="46.30735" lon="5.66166">
        <ele>393</ele>
        <time>2022-07-29T14:43:58Z</time>
      </trkpt>
      <trkpt lat="46.30743" lon="5.66164">
        <ele>392.4</ele>
        <time>2022-07-29T14:43:59Z</time>
      </trkpt>
      <trkpt lat="46.30752" lon="5.66162">
        <ele>392</ele>
        <time>2022-07-29T14:44:00Z</time>
      </trkpt>
      <trkpt lat="46.30762" lon="5.66159">
        <ele>391.4</ele>
        <time>2022-07-29T14:44:01Z</time>
      </trkpt>
      <trkpt lat="46.30771" lon="5.66156">
        <ele>390.8</ele>
        <time>2022-07-29T14:44:02Z</time>
      </trkpt>
      <trkpt lat="46.30781" lon="5.66152">
        <ele>390.4</ele>
        <time>2022-07-29T14:44:03Z</time>
      </trkpt>
      <trkpt lat="46.30791" lon="5.66147">
        <ele>390</ele>
        <time>2022-07-29T14:44:04Z</time>
      </trkpt>
      <trkpt lat="46.30801" lon="5.66143">
        <ele>389.4</ele>
        <time>2022-07-29T14:44:05Z</time>
      </trkpt>
      <trkpt lat="46.30811" lon="5.66139">
        <ele>389</ele>
        <time>2022-07-29T14:44:06Z</time>
      </trkpt>
      <trkpt lat="46.30821" lon="5.66133">
        <ele>388.6</ele>
        <time>2022-07-29T14:44:07Z</time>
      </trkpt>
      <trkpt lat="46.3083" lon="5.66129">
        <ele>388.4</ele>
        <time>2022-07-29T14:44:08Z</time>
      </trkpt>
      <trkpt lat="46.30839" lon="5.66124">
        <ele>388.2</ele>
        <time>2022-07-29T14:44:09Z</time>
      </trkpt>
      <trkpt lat="46.30847" lon="5.66119">
        <ele>388</ele>
        <time>2022-07-29T14:44:10Z</time>
      </trkpt>
      <trkpt lat="46.30856" lon="5.66115">
        <ele>388</ele>
        <time>2022-07-29T14:44:11Z</time>
      </trkpt>
      <trkpt lat="46.30864" lon="5.6611">
        <ele>387.8</ele>
        <time>2022-07-29T14:44:12Z</time>
      </trkpt>
      <trkpt lat="46.30872" lon="5.66105">
        <ele>387.8</ele>
        <time>2022-07-29T14:44:13Z</time>
      </trkpt>
      <trkpt lat="46.3088" lon="5.66101">
        <ele>387.2</ele>
        <time>2022-07-29T14:44:14Z</time>
      </trkpt>
      <trkpt lat="46.30888" lon="5.66097">
        <ele>387.2</ele>
        <time>2022-07-29T14:44:15Z</time>
      </trkpt>
      <trkpt lat="46.30896" lon="5.66092">
        <ele>386.8</ele>
        <time>2022-07-29T14:44:16Z</time>
      </trkpt>
      <trkpt lat="46.30904" lon="5.66088">
        <ele>386.6</ele>
        <time>2022-07-29T14:44:17Z</time>
      </trkpt>
      <trkpt lat="46.30911" lon="5.66084">
        <ele>386.4</ele>
        <time>2022-07-29T14:44:18Z</time>
      </trkpt>
      <trkpt lat="46.30919" lon="5.66079">
        <ele>386</ele>
        <time>2022-07-29T14:44:19Z</time>
      </trkpt>
      <trkpt lat="46.30926" lon="5.66075">
        <ele>386</ele>
        <time>2022-07-29T14:44:20Z</time>
      </trkpt>
      <trkpt lat="46.30934" lon="5.66071">
        <ele>385.8</ele>
        <time>2022-07-29T14:44:21Z</time>
      </trkpt>
      <trkpt lat="46.30941" lon="5.66067">
        <ele>385.8</ele>
        <time>2022-07-29T14:44:22Z</time>
      </trkpt>
      <trkpt lat="46.30949" lon="5.66062">
        <ele>385.6</ele>
        <time>2022-07-29T14:44:23Z</time>
      </trkpt>
      <trkpt lat="46.30956" lon="5.66057">
        <ele>385.4</ele>
        <time>2022-07-29T14:44:24Z</time>
      </trkpt>
      <trkpt lat="46.30963" lon="5.66053">
        <ele>385.4</ele>
        <time>2022-07-29T14:44:25Z</time>
      </trkpt>
      <trkpt lat="46.30971" lon="5.66047">
        <ele>385.4</ele>
        <time>2022-07-29T14:44:26Z</time>
      </trkpt>
      <trkpt lat="46.30978" lon="5.66043">
        <ele>385.4</ele>
        <time>2022-07-29T14:44:27Z</time>
      </trkpt>
      <trkpt lat="46.30985" lon="5.66039">
        <ele>385</ele>
        <time>2022-07-29T14:44:28Z</time>
      </trkpt>
      <trkpt lat="46.30993" lon="5.66036">
        <ele>385</ele>
        <time>2022-07-29T14:44:29Z</time>
      </trkpt>
      <trkpt lat="46.31" lon="5.66034">
        <ele>385</ele>
        <time>2022-07-29T14:44:30Z</time>
      </trkpt>
      <trkpt lat="46.31007" lon="5.66031">
        <ele>385</ele>
        <time>2022-07-29T14:44:31Z</time>
      </trkpt>
      <trkpt lat="46.31014" lon="5.66029">
        <ele>384.8</ele>
        <time>2022-07-29T14:44:32Z</time>
      </trkpt>
      <trkpt lat="46.31021" lon="5.66028">
        <ele>384.8</ele>
        <time>2022-07-29T14:44:33Z</time>
      </trkpt>
      <trkpt lat="46.31028" lon="5.66027">
        <ele>384.8</ele>
        <time>2022-07-29T14:44:34Z</time>
      </trkpt>
      <trkpt lat="46.31036" lon="5.66026">
        <ele>384.8</ele>
        <time>2022-07-29T14:44:35Z</time>
      </trkpt>
      <trkpt lat="46.31043" lon="5.66025">
        <ele>384.8</ele>
        <time>2022-07-29T14:44:36Z</time>
      </trkpt>
      <trkpt lat="46.3105" lon="5.66025">
        <ele>384.8</ele>
        <time>2022-07-29T14:44:37Z</time>
      </trkpt>
      <trkpt lat="46.31057" lon="5.66025">
        <ele>384.8</ele>
        <time>2022-07-29T14:44:38Z</time>
      </trkpt>
      <trkpt lat="46.31064" lon="5.66025">
        <ele>384.8</ele>
        <time>2022-07-29T14:44:39Z</time>
      </trkpt>
      <trkpt lat="46.31071" lon="5.66025">
        <ele>384.8</ele>
        <time>2022-07-29T14:44:40Z</time>
      </trkpt>
      <trkpt lat="46.31078" lon="5.66025">
        <ele>384.8</ele>
        <time>2022-07-29T14:44:41Z</time>
      </trkpt>
      <trkpt lat="46.31085" lon="5.66025">
        <ele>384.8</ele>
        <time>2022-07-29T14:44:42Z</time>
      </trkpt>
      <trkpt lat="46.31092" lon="5.66025">
        <ele>384.8</ele>
        <time>2022-07-29T14:44:43Z</time>
      </trkpt>
      <trkpt lat="46.311" lon="5.66024">
        <ele>384.8</ele>
        <time>2022-07-29T14:44:44Z</time>
      </trkpt>
      <trkpt lat="46.31107" lon="5.66023">
        <ele>384.8</ele>
        <time>2022-07-29T14:44:45Z</time>
      </trkpt>
      <trkpt lat="46.31115" lon="5.66022">
        <ele>384.6</ele>
        <time>2022-07-29T14:44:46Z</time>
      </trkpt>
      <trkpt lat="46.31122" lon="5.66023">
        <ele>384.4</ele>
        <time>2022-07-29T14:44:47Z</time>
      </trkpt>
      <trkpt lat="46.3113" lon="5.66021">
        <ele>384.4</ele>
        <time>2022-07-29T14:44:48Z</time>
      </trkpt>
      <trkpt lat="46.31138" lon="5.6602">
        <ele>384</ele>
        <time>2022-07-29T14:44:49Z</time>
      </trkpt>
      <trkpt lat="46.31147" lon="5.66019">
        <ele>383.6</ele>
        <time>2022-07-29T14:44:50Z</time>
      </trkpt>
      <trkpt lat="46.31155" lon="5.66017">
        <ele>383.6</ele>
        <time>2022-07-29T14:44:51Z</time>
      </trkpt>
      <trkpt lat="46.31163" lon="5.66015">
        <ele>383.2</ele>
        <time>2022-07-29T14:44:52Z</time>
      </trkpt>
      <trkpt lat="46.31171" lon="5.66012">
        <ele>382.8</ele>
        <time>2022-07-29T14:44:53Z</time>
      </trkpt>
      <trkpt lat="46.31179" lon="5.6601">
        <ele>382.4</ele>
        <time>2022-07-29T14:44:54Z</time>
      </trkpt>
      <trkpt lat="46.31188" lon="5.66007">
        <ele>382</ele>
        <time>2022-07-29T14:44:55Z</time>
      </trkpt>
      <trkpt lat="46.31197" lon="5.66004">
        <ele>381.6</ele>
        <time>2022-07-29T14:44:56Z</time>
      </trkpt>
      <trkpt lat="46.31206" lon="5.66">
        <ele>381</ele>
        <time>2022-07-29T14:44:57Z</time>
      </trkpt>
      <trkpt lat="46.31215" lon="5.65997">
        <ele>380.4</ele>
        <time>2022-07-29T14:44:58Z</time>
      </trkpt>
      <trkpt lat="46.31224" lon="5.65993">
        <ele>379.8</ele>
        <time>2022-07-29T14:44:59Z</time>
      </trkpt>
      <trkpt lat="46.31233" lon="5.65989">
        <ele>379.2</ele>
        <time>2022-07-29T14:45:00Z</time>
      </trkpt>
      <trkpt lat="46.31241" lon="5.65986">
        <ele>378.6</ele>
        <time>2022-07-29T14:45:01Z</time>
      </trkpt>
      <trkpt lat="46.31249" lon="5.65982">
        <ele>378.2</ele>
        <time>2022-07-29T14:45:02Z</time>
      </trkpt>
      <trkpt lat="46.31257" lon="5.65979">
        <ele>377.4</ele>
        <time>2022-07-29T14:45:03Z</time>
      </trkpt>
      <trkpt lat="46.31264" lon="5.65976">
        <ele>376.8</ele>
        <time>2022-07-29T14:45:04Z</time>
      </trkpt>
      <trkpt lat="46.31271" lon="5.65973">
        <ele>376.2</ele>
        <time>2022-07-29T14:45:05Z</time>
      </trkpt>
      <trkpt lat="46.31278" lon="5.65971">
        <ele>375.6</ele>
        <time>2022-07-29T14:45:06Z</time>
      </trkpt>
      <trkpt lat="46.31283" lon="5.65969">
        <ele>375.2</ele>
        <time>2022-07-29T14:45:07Z</time>
      </trkpt>
      <trkpt lat="46.31288" lon="5.65966">
        <ele>374.6</ele>
        <time>2022-07-29T14:45:08Z</time>
      </trkpt>
      <trkpt lat="46.31294" lon="5.65964">
        <ele>374</ele>
        <time>2022-07-29T14:45:09Z</time>
      </trkpt>
      <trkpt lat="46.31299" lon="5.65962">
        <ele>373.6</ele>
        <time>2022-07-29T14:45:10Z</time>
      </trkpt>
      <trkpt lat="46.31305" lon="5.65959">
        <ele>373.2</ele>
        <time>2022-07-29T14:45:11Z</time>
      </trkpt>
      <trkpt lat="46.3131" lon="5.65957">
        <ele>372.8</ele>
        <time>2022-07-29T14:45:12Z</time>
      </trkpt>
      <trkpt lat="46.31316" lon="5.65955">
        <ele>372.2</ele>
        <time>2022-07-29T14:45:13Z</time>
      </trkpt>
      <trkpt lat="46.31322" lon="5.65952">
        <ele>371.6</ele>
        <time>2022-07-29T14:45:14Z</time>
      </trkpt>
      <trkpt lat="46.31328" lon="5.6595">
        <ele>371</ele>
        <time>2022-07-29T14:45:15Z</time>
      </trkpt>
      <trkpt lat="46.31335" lon="5.65946">
        <ele>370.4</ele>
        <time>2022-07-29T14:45:16Z</time>
      </trkpt>
      <trkpt lat="46.3134" lon="5.65943">
        <ele>370</ele>
        <time>2022-07-29T14:45:17Z</time>
      </trkpt>
      <trkpt lat="46.31346" lon="5.6594">
        <ele>369.6</ele>
        <time>2022-07-29T14:45:18Z</time>
      </trkpt>
      <trkpt lat="46.31352" lon="5.65937">
        <ele>369</ele>
        <time>2022-07-29T14:45:19Z</time>
      </trkpt>
      <trkpt lat="46.31359" lon="5.65934">
        <ele>368.4</ele>
        <time>2022-07-29T14:45:20Z</time>
      </trkpt>
      <trkpt lat="46.31364" lon="5.6593">
        <ele>367.8</ele>
        <time>2022-07-29T14:45:21Z</time>
      </trkpt>
      <trkpt lat="46.3137" lon="5.65927">
        <ele>367.4</ele>
        <time>2022-07-29T14:45:22Z</time>
      </trkpt>
      <trkpt lat="46.31376" lon="5.65924">
        <ele>367</ele>
        <time>2022-07-29T14:45:23Z</time>
      </trkpt>
      <trkpt lat="46.31382" lon="5.65922">
        <ele>366.6</ele>
        <time>2022-07-29T14:45:24Z</time>
      </trkpt>
      <trkpt lat="46.31388" lon="5.65919">
        <ele>366.2</ele>
        <time>2022-07-29T14:45:25Z</time>
      </trkpt>
      <trkpt lat="46.31395" lon="5.65916">
        <ele>365.6</ele>
        <time>2022-07-29T14:45:26Z</time>
      </trkpt>
      <trkpt lat="46.31402" lon="5.65912">
        <ele>365</ele>
        <time>2022-07-29T14:45:27Z</time>
      </trkpt>
      <trkpt lat="46.3141" lon="5.65909">
        <ele>364.6</ele>
        <time>2022-07-29T14:45:28Z</time>
      </trkpt>
      <trkpt lat="46.31418" lon="5.65906">
        <ele>364</ele>
        <time>2022-07-29T14:45:29Z</time>
      </trkpt>
      <trkpt lat="46.31426" lon="5.65902">
        <ele>363.4</ele>
        <time>2022-07-29T14:45:30Z</time>
      </trkpt>
      <trkpt lat="46.31433" lon="5.65899">
        <ele>362.8</ele>
        <time>2022-07-29T14:45:31Z</time>
      </trkpt>
      <trkpt lat="46.31441" lon="5.65896">
        <ele>362.2</ele>
        <time>2022-07-29T14:45:32Z</time>
      </trkpt>
      <trkpt lat="46.31448" lon="5.65893">
        <ele>361.6</ele>
        <time>2022-07-29T14:45:33Z</time>
      </trkpt>
      <trkpt lat="46.31456" lon="5.65889">
        <ele>361.2</ele>
        <time>2022-07-29T14:45:34Z</time>
      </trkpt>
      <trkpt lat="46.31464" lon="5.65885">
        <ele>360.6</ele>
        <time>2022-07-29T14:45:35Z</time>
      </trkpt>
      <trkpt lat="46.31472" lon="5.65881">
        <ele>360</ele>
        <time>2022-07-29T14:45:36Z</time>
      </trkpt>
      <trkpt lat="46.31481" lon="5.65877">
        <ele>359.4</ele>
        <time>2022-07-29T14:45:37Z</time>
      </trkpt>
      <trkpt lat="46.31489" lon="5.65874">
        <ele>358.8</ele>
        <time>2022-07-29T14:45:38Z</time>
      </trkpt>
      <trkpt lat="46.31497" lon="5.65871">
        <ele>358.2</ele>
        <time>2022-07-29T14:45:39Z</time>
      </trkpt>
      <trkpt lat="46.31505" lon="5.65868">
        <ele>357.6</ele>
        <time>2022-07-29T14:45:40Z</time>
      </trkpt>
      <trkpt lat="46.31512" lon="5.65865">
        <ele>357.2</ele>
        <time>2022-07-29T14:45:41Z</time>
      </trkpt>
      <trkpt lat="46.31519" lon="5.65862">
        <ele>356.6</ele>
        <time>2022-07-29T14:45:42Z</time>
      </trkpt>
      <trkpt lat="46.31527" lon="5.65859">
        <ele>356.2</ele>
        <time>2022-07-29T14:45:43Z</time>
      </trkpt>
      <trkpt lat="46.31534" lon="5.65857">
        <ele>355.6</ele>
        <time>2022-07-29T14:45:44Z</time>
      </trkpt>
      <trkpt lat="46.31541" lon="5.65854">
        <ele>355</ele>
        <time>2022-07-29T14:45:45Z</time>
      </trkpt>
      <trkpt lat="46.31549" lon="5.65851">
        <ele>354.4</ele>
        <time>2022-07-29T14:45:46Z</time>
      </trkpt>
      <trkpt lat="46.31556" lon="5.65848">
        <ele>354</ele>
        <time>2022-07-29T14:45:47Z</time>
      </trkpt>
      <trkpt lat="46.31564" lon="5.65845">
        <ele>353.4</ele>
        <time>2022-07-29T14:45:48Z</time>
      </trkpt>
      <trkpt lat="46.31571" lon="5.65843">
        <ele>352.8</ele>
        <time>2022-07-29T14:45:49Z</time>
      </trkpt>
      <trkpt lat="46.31578" lon="5.6584">
        <ele>352.2</ele>
        <time>2022-07-29T14:45:50Z</time>
      </trkpt>
      <trkpt lat="46.31585" lon="5.65838">
        <ele>351.6</ele>
        <time>2022-07-29T14:45:51Z</time>
      </trkpt>
      <trkpt lat="46.31593" lon="5.65836">
        <ele>351</ele>
        <time>2022-07-29T14:45:52Z</time>
      </trkpt>
      <trkpt lat="46.31601" lon="5.65835">
        <ele>350.6</ele>
        <time>2022-07-29T14:45:53Z</time>
      </trkpt>
      <trkpt lat="46.31609" lon="5.65834">
        <ele>350</ele>
        <time>2022-07-29T14:45:54Z</time>
      </trkpt>
      <trkpt lat="46.31617" lon="5.65833">
        <ele>349.4</ele>
        <time>2022-07-29T14:45:55Z</time>
      </trkpt>
      <trkpt lat="46.31624" lon="5.65832">
        <ele>348.8</ele>
        <time>2022-07-29T14:45:56Z</time>
      </trkpt>
      <trkpt lat="46.31632" lon="5.65833">
        <ele>348.2</ele>
        <time>2022-07-29T14:45:57Z</time>
      </trkpt>
      <trkpt lat="46.31639" lon="5.65833">
        <ele>347.6</ele>
        <time>2022-07-29T14:45:58Z</time>
      </trkpt>
      <trkpt lat="46.31646" lon="5.65833">
        <ele>347.2</ele>
        <time>2022-07-29T14:45:59Z</time>
      </trkpt>
      <trkpt lat="46.31653" lon="5.65834">
        <ele>346.6</ele>
        <time>2022-07-29T14:46:00Z</time>
      </trkpt>
      <trkpt lat="46.3166" lon="5.65836">
        <ele>346.2</ele>
        <time>2022-07-29T14:46:01Z</time>
      </trkpt>
      <trkpt lat="46.31667" lon="5.65838">
        <ele>345.6</ele>
        <time>2022-07-29T14:46:02Z</time>
      </trkpt>
      <trkpt lat="46.31673" lon="5.65839">
        <ele>345.2</ele>
        <time>2022-07-29T14:46:03Z</time>
      </trkpt>
      <trkpt lat="46.3168" lon="5.65841">
        <ele>344.8</ele>
        <time>2022-07-29T14:46:04Z</time>
      </trkpt>
      <trkpt lat="46.31687" lon="5.65843">
        <ele>344.2</ele>
        <time>2022-07-29T14:46:05Z</time>
      </trkpt>
      <trkpt lat="46.31694" lon="5.65845">
        <ele>343.8</ele>
        <time>2022-07-29T14:46:06Z</time>
      </trkpt>
      <trkpt lat="46.31701" lon="5.65847">
        <ele>343.4</ele>
        <time>2022-07-29T14:46:07Z</time>
      </trkpt>
      <trkpt lat="46.31707" lon="5.6585">
        <ele>342.8</ele>
        <time>2022-07-29T14:46:08Z</time>
      </trkpt>
      <trkpt lat="46.31714" lon="5.65852">
        <ele>342.4</ele>
        <time>2022-07-29T14:46:09Z</time>
      </trkpt>
      <trkpt lat="46.3172" lon="5.65856">
        <ele>342</ele>
        <time>2022-07-29T14:46:10Z</time>
      </trkpt>
      <trkpt lat="46.31726" lon="5.65859">
        <ele>341.8</ele>
        <time>2022-07-29T14:46:11Z</time>
      </trkpt>
      <trkpt lat="46.31731" lon="5.65863">
        <ele>341.4</ele>
        <time>2022-07-29T14:46:12Z</time>
      </trkpt>
      <trkpt lat="46.31737" lon="5.65867">
        <ele>341.2</ele>
        <time>2022-07-29T14:46:13Z</time>
      </trkpt>
      <trkpt lat="46.31743" lon="5.65871">
        <ele>340.8</ele>
        <time>2022-07-29T14:46:14Z</time>
      </trkpt>
      <trkpt lat="46.31748" lon="5.65875">
        <ele>340.4</ele>
        <time>2022-07-29T14:46:15Z</time>
      </trkpt>
      <trkpt lat="46.31754" lon="5.65879">
        <ele>340</ele>
        <time>2022-07-29T14:46:16Z</time>
      </trkpt>
      <trkpt lat="46.3176" lon="5.65883">
        <ele>339.6</ele>
        <time>2022-07-29T14:46:17Z</time>
      </trkpt>
      <trkpt lat="46.31766" lon="5.65888">
        <ele>339.2</ele>
        <time>2022-07-29T14:46:18Z</time>
      </trkpt>
      <trkpt lat="46.31772" lon="5.65893">
        <ele>339</ele>
        <time>2022-07-29T14:46:19Z</time>
      </trkpt>
      <trkpt lat="46.31778" lon="5.65898">
        <ele>338.8</ele>
        <time>2022-07-29T14:46:20Z</time>
      </trkpt>
      <trkpt lat="46.31785" lon="5.65904">
        <ele>338.6</ele>
        <time>2022-07-29T14:46:21Z</time>
      </trkpt>
      <trkpt lat="46.31791" lon="5.65909">
        <ele>338.2</ele>
        <time>2022-07-29T14:46:22Z</time>
      </trkpt>
      <trkpt lat="46.31798" lon="5.65914">
        <ele>337.8</ele>
        <time>2022-07-29T14:46:23Z</time>
      </trkpt>
      <trkpt lat="46.31805" lon="5.6592">
        <ele>337.4</ele>
        <time>2022-07-29T14:46:24Z</time>
      </trkpt>
      <trkpt lat="46.31812" lon="5.65927">
        <ele>336.8</ele>
        <time>2022-07-29T14:46:25Z</time>
      </trkpt>
      <trkpt lat="46.31819" lon="5.65933">
        <ele>336.4</ele>
        <time>2022-07-29T14:46:26Z</time>
      </trkpt>
      <trkpt lat="46.31826" lon="5.6594">
        <ele>336</ele>
        <time>2022-07-29T14:46:27Z</time>
      </trkpt>
      <trkpt lat="46.31833" lon="5.65947">
        <ele>335.6</ele>
        <time>2022-07-29T14:46:28Z</time>
      </trkpt>
      <trkpt lat="46.3184" lon="5.65954">
        <ele>335.2</ele>
        <time>2022-07-29T14:46:29Z</time>
      </trkpt>
      <trkpt lat="46.31847" lon="5.65962">
        <ele>335</ele>
        <time>2022-07-29T14:46:30Z</time>
      </trkpt>
      <trkpt lat="46.31854" lon="5.65969">
        <ele>334.6</ele>
        <time>2022-07-29T14:46:31Z</time>
      </trkpt>
      <trkpt lat="46.3186" lon="5.65977">
        <ele>334.4</ele>
        <time>2022-07-29T14:46:32Z</time>
      </trkpt>
      <trkpt lat="46.31866" lon="5.65984">
        <ele>334.4</ele>
        <time>2022-07-29T14:46:33Z</time>
      </trkpt>
      <trkpt lat="46.31872" lon="5.65991">
        <ele>334.2</ele>
        <time>2022-07-29T14:46:34Z</time>
      </trkpt>
      <trkpt lat="46.31878" lon="5.65999">
        <ele>334.2</ele>
        <time>2022-07-29T14:46:35Z</time>
      </trkpt>
      <trkpt lat="46.31884" lon="5.66006">
        <ele>333.8</ele>
        <time>2022-07-29T14:46:36Z</time>
      </trkpt>
      <trkpt lat="46.3189" lon="5.66013">
        <ele>333.6</ele>
        <time>2022-07-29T14:46:37Z</time>
      </trkpt>
      <trkpt lat="46.31895" lon="5.6602">
        <ele>333.6</ele>
        <time>2022-07-29T14:46:38Z</time>
      </trkpt>
      <trkpt lat="46.31901" lon="5.66027">
        <ele>333.4</ele>
        <time>2022-07-29T14:46:39Z</time>
      </trkpt>
      <trkpt lat="46.31907" lon="5.66034">
        <ele>333.2</ele>
        <time>2022-07-29T14:46:40Z</time>
      </trkpt>
      <trkpt lat="46.31913" lon="5.66041">
        <ele>333.2</ele>
        <time>2022-07-29T14:46:41Z</time>
      </trkpt>
      <trkpt lat="46.31919" lon="5.66049">
        <ele>332.8</ele>
        <time>2022-07-29T14:46:42Z</time>
      </trkpt>
      <trkpt lat="46.31925" lon="5.66057">
        <ele>332.4</ele>
        <time>2022-07-29T14:46:43Z</time>
      </trkpt>
      <trkpt lat="46.31931" lon="5.66064">
        <ele>332.2</ele>
        <time>2022-07-29T14:46:44Z</time>
      </trkpt>
      <trkpt lat="46.31936" lon="5.66072">
        <ele>332</ele>
        <time>2022-07-29T14:46:45Z</time>
      </trkpt>
      <trkpt lat="46.31942" lon="5.6608">
        <ele>332</ele>
        <time>2022-07-29T14:46:46Z</time>
      </trkpt>
      <trkpt lat="46.31942" lon="5.6608">
        <ele>332</ele>
        <time>2022-07-29T14:46:47Z</time>
      </trkpt>
      <trkpt lat="46.31947" lon="5.66087">
        <ele>332</ele>
        <time>2022-07-29T14:46:48Z</time>
      </trkpt>
      <trkpt lat="46.31952" lon="5.66094">
        <ele>332</ele>
        <time>2022-07-29T14:46:49Z</time>
      </trkpt>
      <trkpt lat="46.31957" lon="5.66101">
        <ele>332</ele>
        <time>2022-07-29T14:46:50Z</time>
      </trkpt>
      <trkpt lat="46.31962" lon="5.66108">
        <ele>332</ele>
        <time>2022-07-29T14:46:51Z</time>
      </trkpt>
      <trkpt lat="46.31967" lon="5.66115">
        <ele>332</ele>
        <time>2022-07-29T14:46:52Z</time>
      </trkpt>
      <trkpt lat="46.31972" lon="5.66121">
        <ele>332</ele>
        <time>2022-07-29T14:46:53Z</time>
      </trkpt>
      <trkpt lat="46.31977" lon="5.66128">
        <ele>332</ele>
        <time>2022-07-29T14:46:54Z</time>
      </trkpt>
      <trkpt lat="46.31981" lon="5.66135">
        <ele>332</ele>
        <time>2022-07-29T14:46:55Z</time>
      </trkpt>
      <trkpt lat="46.31986" lon="5.66142">
        <ele>332</ele>
        <time>2022-07-29T14:46:56Z</time>
      </trkpt>
      <trkpt lat="46.31991" lon="5.66149">
        <ele>332</ele>
        <time>2022-07-29T14:46:57Z</time>
      </trkpt>
      <trkpt lat="46.31996" lon="5.66156">
        <ele>332</ele>
        <time>2022-07-29T14:46:58Z</time>
      </trkpt>
      <trkpt lat="46.32" lon="5.66163">
        <ele>332</ele>
        <time>2022-07-29T14:46:59Z</time>
      </trkpt>
      <trkpt lat="46.32006" lon="5.66169">
        <ele>332</ele>
        <time>2022-07-29T14:47:00Z</time>
      </trkpt>
      <trkpt lat="46.32011" lon="5.66176">
        <ele>332</ele>
        <time>2022-07-29T14:47:01Z</time>
      </trkpt>
      <trkpt lat="46.32017" lon="5.66182">
        <ele>332</ele>
        <time>2022-07-29T14:47:02Z</time>
      </trkpt>
      <trkpt lat="46.32022" lon="5.66189">
        <ele>332.2</ele>
        <time>2022-07-29T14:47:03Z</time>
      </trkpt>
      <trkpt lat="46.32027" lon="5.66194">
        <ele>332.2</ele>
        <time>2022-07-29T14:47:04Z</time>
      </trkpt>
      <trkpt lat="46.32033" lon="5.66201">
        <ele>332.6</ele>
        <time>2022-07-29T14:47:05Z</time>
      </trkpt>
      <trkpt lat="46.32037" lon="5.66207">
        <ele>333</ele>
        <time>2022-07-29T14:47:06Z</time>
      </trkpt>
      <trkpt lat="46.32042" lon="5.66213">
        <ele>333.2</ele>
        <time>2022-07-29T14:47:07Z</time>
      </trkpt>
      <trkpt lat="46.32046" lon="5.6622">
        <ele>333.6</ele>
        <time>2022-07-29T14:47:08Z</time>
      </trkpt>
      <trkpt lat="46.3205" lon="5.66226">
        <ele>333.8</ele>
        <time>2022-07-29T14:47:09Z</time>
      </trkpt>
      <trkpt lat="46.32054" lon="5.66232">
        <ele>334</ele>
        <time>2022-07-29T14:47:10Z</time>
      </trkpt>
      <trkpt lat="46.32058" lon="5.66238">
        <ele>334.4</ele>
        <time>2022-07-29T14:47:11Z</time>
      </trkpt>
      <trkpt lat="46.32061" lon="5.66244">
        <ele>334.6</ele>
        <time>2022-07-29T14:47:12Z</time>
      </trkpt>
      <trkpt lat="46.32065" lon="5.6625">
        <ele>334.8</ele>
        <time>2022-07-29T14:47:13Z</time>
      </trkpt>
      <trkpt lat="46.32069" lon="5.66255">
        <ele>335</ele>
        <time>2022-07-29T14:47:14Z</time>
      </trkpt>
      <trkpt lat="46.32074" lon="5.6626">
        <ele>335.2</ele>
        <time>2022-07-29T14:47:15Z</time>
      </trkpt>
      <trkpt lat="46.32079" lon="5.66265">
        <ele>335.4</ele>
        <time>2022-07-29T14:47:16Z</time>
      </trkpt>
      <trkpt lat="46.32083" lon="5.66271">
        <ele>335.4</ele>
        <time>2022-07-29T14:47:17Z</time>
      </trkpt>
      <trkpt lat="46.32088" lon="5.66276">
        <ele>335.8</ele>
        <time>2022-07-29T14:47:18Z</time>
      </trkpt>
      <trkpt lat="46.32093" lon="5.66281">
        <ele>336.2</ele>
        <time>2022-07-29T14:47:19Z</time>
      </trkpt>
      <trkpt lat="46.32099" lon="5.66287">
        <ele>336.4</ele>
        <time>2022-07-29T14:47:20Z</time>
      </trkpt>
      <trkpt lat="46.32104" lon="5.66292">
        <ele>336.6</ele>
        <time>2022-07-29T14:47:21Z</time>
      </trkpt>
      <trkpt lat="46.32108" lon="5.66297">
        <ele>336.6</ele>
        <time>2022-07-29T14:47:22Z</time>
      </trkpt>
      <trkpt lat="46.32113" lon="5.66302">
        <ele>337.2</ele>
        <time>2022-07-29T14:47:23Z</time>
      </trkpt>
      <trkpt lat="46.32118" lon="5.66307">
        <ele>337.4</ele>
        <time>2022-07-29T14:47:24Z</time>
      </trkpt>
      <trkpt lat="46.32123" lon="5.66313">
        <ele>337.4</ele>
        <time>2022-07-29T14:47:25Z</time>
      </trkpt>
      <trkpt lat="46.32128" lon="5.66318">
        <ele>337.6</ele>
        <time>2022-07-29T14:47:26Z</time>
      </trkpt>
      <trkpt lat="46.32133" lon="5.66324">
        <ele>337.8</ele>
        <time>2022-07-29T14:47:27Z</time>
      </trkpt>
      <trkpt lat="46.32137" lon="5.66329">
        <ele>337.8</ele>
        <time>2022-07-29T14:47:28Z</time>
      </trkpt>
      <trkpt lat="46.32142" lon="5.66334">
        <ele>338.2</ele>
        <time>2022-07-29T14:47:29Z</time>
      </trkpt>
      <trkpt lat="46.32147" lon="5.66339">
        <ele>338.2</ele>
        <time>2022-07-29T14:47:30Z</time>
      </trkpt>
      <trkpt lat="46.32152" lon="5.66344">
        <ele>338.4</ele>
        <time>2022-07-29T14:47:31Z</time>
      </trkpt>
      <trkpt lat="46.32156" lon="5.6635">
        <ele>338.4</ele>
        <time>2022-07-29T14:47:32Z</time>
      </trkpt>
      <trkpt lat="46.32161" lon="5.66355">
        <ele>338.6</ele>
        <time>2022-07-29T14:47:33Z</time>
      </trkpt>
      <trkpt lat="46.32165" lon="5.66361">
        <ele>338.6</ele>
        <time>2022-07-29T14:47:34Z</time>
      </trkpt>
      <trkpt lat="46.32169" lon="5.66367">
        <ele>338.6</ele>
        <time>2022-07-29T14:47:35Z</time>
      </trkpt>
      <trkpt lat="46.32173" lon="5.66373">
        <ele>338.8</ele>
        <time>2022-07-29T14:47:36Z</time>
      </trkpt>
      <trkpt lat="46.32177" lon="5.66379">
        <ele>338.8</ele>
        <time>2022-07-29T14:47:37Z</time>
      </trkpt>
      <trkpt lat="46.32181" lon="5.66386">
        <ele>338.8</ele>
        <time>2022-07-29T14:47:38Z</time>
      </trkpt>
      <trkpt lat="46.32185" lon="5.66393">
        <ele>338.8</ele>
        <time>2022-07-29T14:47:39Z</time>
      </trkpt>
      <trkpt lat="46.32188" lon="5.664">
        <ele>338.8</ele>
        <time>2022-07-29T14:47:40Z</time>
      </trkpt>
      <trkpt lat="46.32192" lon="5.66407">
        <ele>338.8</ele>
        <time>2022-07-29T14:47:41Z</time>
      </trkpt>
      <trkpt lat="46.32195" lon="5.66414">
        <ele>338.8</ele>
        <time>2022-07-29T14:47:42Z</time>
      </trkpt>
      <trkpt lat="46.32198" lon="5.66422">
        <ele>338.8</ele>
        <time>2022-07-29T14:47:43Z</time>
      </trkpt>
      <trkpt lat="46.32201" lon="5.6643">
        <ele>338.8</ele>
        <time>2022-07-29T14:47:44Z</time>
      </trkpt>
      <trkpt lat="46.32203" lon="5.66439">
        <ele>338.8</ele>
        <time>2022-07-29T14:47:45Z</time>
      </trkpt>
      <trkpt lat="46.32206" lon="5.66447">
        <ele>338.8</ele>
        <time>2022-07-29T14:47:46Z</time>
      </trkpt>
      <trkpt lat="46.32209" lon="5.66456">
        <ele>338.8</ele>
        <time>2022-07-29T14:47:47Z</time>
      </trkpt>
      <trkpt lat="46.32211" lon="5.66465">
        <ele>338.8</ele>
        <time>2022-07-29T14:47:48Z</time>
      </trkpt>
      <trkpt lat="46.32214" lon="5.66475">
        <ele>338.6</ele>
        <time>2022-07-29T14:47:49Z</time>
      </trkpt>
      <trkpt lat="46.32217" lon="5.66485">
        <ele>338.6</ele>
        <time>2022-07-29T14:47:50Z</time>
      </trkpt>
      <trkpt lat="46.3222" lon="5.66495">
        <ele>338.6</ele>
        <time>2022-07-29T14:47:51Z</time>
      </trkpt>
      <trkpt lat="46.32223" lon="5.66505">
        <ele>338.2</ele>
        <time>2022-07-29T14:47:52Z</time>
      </trkpt>
      <trkpt lat="46.32226" lon="5.66515">
        <ele>338.2</ele>
        <time>2022-07-29T14:47:53Z</time>
      </trkpt>
      <trkpt lat="46.32228" lon="5.66525">
        <ele>338.2</ele>
        <time>2022-07-29T14:47:54Z</time>
      </trkpt>
      <trkpt lat="46.32231" lon="5.66535">
        <ele>338</ele>
        <time>2022-07-29T14:47:55Z</time>
      </trkpt>
      <trkpt lat="46.32233" lon="5.66545">
        <ele>338</ele>
        <time>2022-07-29T14:47:56Z</time>
      </trkpt>
      <trkpt lat="46.32236" lon="5.66555">
        <ele>337.6</ele>
        <time>2022-07-29T14:47:57Z</time>
      </trkpt>
      <trkpt lat="46.32239" lon="5.66564">
        <ele>337.6</ele>
        <time>2022-07-29T14:47:58Z</time>
      </trkpt>
      <trkpt lat="46.32243" lon="5.66573">
        <ele>337.6</ele>
        <time>2022-07-29T14:47:59Z</time>
      </trkpt>
      <trkpt lat="46.32246" lon="5.66583">
        <ele>337.4</ele>
        <time>2022-07-29T14:48:00Z</time>
      </trkpt>
      <trkpt lat="46.3225" lon="5.66592">
        <ele>337.4</ele>
        <time>2022-07-29T14:48:01Z</time>
      </trkpt>
      <trkpt lat="46.32255" lon="5.66601">
        <ele>337</ele>
        <time>2022-07-29T14:48:02Z</time>
      </trkpt>
      <trkpt lat="46.32261" lon="5.66609">
        <ele>336.8</ele>
        <time>2022-07-29T14:48:03Z</time>
      </trkpt>
      <trkpt lat="46.32268" lon="5.66616">
        <ele>336.6</ele>
        <time>2022-07-29T14:48:04Z</time>
      </trkpt>
      <trkpt lat="46.32275" lon="5.66622">
        <ele>336.4</ele>
        <time>2022-07-29T14:48:05Z</time>
      </trkpt>
      <trkpt lat="46.32282" lon="5.66626">
        <ele>336.4</ele>
        <time>2022-07-29T14:48:06Z</time>
      </trkpt>
      <trkpt lat="46.3229" lon="5.66629">
        <ele>336</ele>
        <time>2022-07-29T14:48:07Z</time>
      </trkpt>
      <trkpt lat="46.32297" lon="5.66634">
        <ele>335.8</ele>
        <time>2022-07-29T14:48:08Z</time>
      </trkpt>
      <trkpt lat="46.32304" lon="5.6664">
        <ele>335.6</ele>
        <time>2022-07-29T14:48:09Z</time>
      </trkpt>
      <trkpt lat="46.32311" lon="5.66648">
        <ele>335.2</ele>
        <time>2022-07-29T14:48:10Z</time>
      </trkpt>
      <trkpt lat="46.32317" lon="5.66657">
        <ele>335</ele>
        <time>2022-07-29T14:48:11Z</time>
      </trkpt>
      <trkpt lat="46.32322" lon="5.66667">
        <ele>334.6</ele>
        <time>2022-07-29T14:48:12Z</time>
      </trkpt>
      <trkpt lat="46.32326" lon="5.66678">
        <ele>334.4</ele>
        <time>2022-07-29T14:48:13Z</time>
      </trkpt>
      <trkpt lat="46.3233" lon="5.66688">
        <ele>334</ele>
        <time>2022-07-29T14:48:14Z</time>
      </trkpt>
      <trkpt lat="46.32334" lon="5.667">
        <ele>334</ele>
        <time>2022-07-29T14:48:15Z</time>
      </trkpt>
      <trkpt lat="46.32338" lon="5.66711">
        <ele>333.6</ele>
        <time>2022-07-29T14:48:16Z</time>
      </trkpt>
      <trkpt lat="46.32342" lon="5.66722">
        <ele>333.2</ele>
        <time>2022-07-29T14:48:17Z</time>
      </trkpt>
      <trkpt lat="46.32346" lon="5.66733">
        <ele>333</ele>
        <time>2022-07-29T14:48:18Z</time>
      </trkpt>
      <trkpt lat="46.32352" lon="5.66743">
        <ele>332.8</ele>
        <time>2022-07-29T14:48:19Z</time>
      </trkpt>
      <trkpt lat="46.32357" lon="5.66753">
        <ele>332.4</ele>
        <time>2022-07-29T14:48:20Z</time>
      </trkpt>
      <trkpt lat="46.32363" lon="5.66763">
        <ele>332</ele>
        <time>2022-07-29T14:48:21Z</time>
      </trkpt>
      <trkpt lat="46.32369" lon="5.66773">
        <ele>331.8</ele>
        <time>2022-07-29T14:48:22Z</time>
      </trkpt>
      <trkpt lat="46.32375" lon="5.66782">
        <ele>331.4</ele>
        <time>2022-07-29T14:48:23Z</time>
      </trkpt>
      <trkpt lat="46.32381" lon="5.66792">
        <ele>331</ele>
        <time>2022-07-29T14:48:24Z</time>
      </trkpt>
      <trkpt lat="46.32387" lon="5.66802">
        <ele>330.6</ele>
        <time>2022-07-29T14:48:25Z</time>
      </trkpt>
      <trkpt lat="46.32393" lon="5.66814">
        <ele>330.2</ele>
        <time>2022-07-29T14:48:26Z</time>
      </trkpt>
      <trkpt lat="46.32399" lon="5.66825">
        <ele>330</ele>
        <time>2022-07-29T14:48:27Z</time>
      </trkpt>
      <trkpt lat="46.32404" lon="5.66838">
        <ele>329.8</ele>
        <time>2022-07-29T14:48:28Z</time>
      </trkpt>
      <trkpt lat="46.32408" lon="5.6685">
        <ele>329.8</ele>
        <time>2022-07-29T14:48:29Z</time>
      </trkpt>
      <trkpt lat="46.32412" lon="5.66862">
        <ele>329.4</ele>
        <time>2022-07-29T14:48:30Z</time>
      </trkpt>
      <trkpt lat="46.32415" lon="5.66874">
        <ele>329.4</ele>
        <time>2022-07-29T14:48:31Z</time>
      </trkpt>
      <trkpt lat="46.32418" lon="5.66885">
        <ele>329.2</ele>
        <time>2022-07-29T14:48:32Z</time>
      </trkpt>
      <trkpt lat="46.32421" lon="5.66897">
        <ele>329.2</ele>
        <time>2022-07-29T14:48:33Z</time>
      </trkpt>
      <trkpt lat="46.32424" lon="5.66908">
        <ele>329.2</ele>
        <time>2022-07-29T14:48:34Z</time>
      </trkpt>
      <trkpt lat="46.32427" lon="5.66919">
        <ele>329.2</ele>
        <time>2022-07-29T14:48:35Z</time>
      </trkpt>
      <trkpt lat="46.32431" lon="5.6693">
        <ele>329</ele>
        <time>2022-07-29T14:48:36Z</time>
      </trkpt>
      <trkpt lat="46.32434" lon="5.6694">
        <ele>329</ele>
        <time>2022-07-29T14:48:37Z</time>
      </trkpt>
      <trkpt lat="46.32437" lon="5.6695">
        <ele>329</ele>
        <time>2022-07-29T14:48:38Z</time>
      </trkpt>
      <trkpt lat="46.32441" lon="5.66959">
        <ele>329</ele>
        <time>2022-07-29T14:48:39Z</time>
      </trkpt>
      <trkpt lat="46.32445" lon="5.66968">
        <ele>329</ele>
        <time>2022-07-29T14:48:40Z</time>
      </trkpt>
      <trkpt lat="46.32449" lon="5.66977">
        <ele>329</ele>
        <time>2022-07-29T14:48:41Z</time>
      </trkpt>
      <trkpt lat="46.32453" lon="5.66986">
        <ele>329</ele>
        <time>2022-07-29T14:48:42Z</time>
      </trkpt>
      <trkpt lat="46.32458" lon="5.66994">
        <ele>329</ele>
        <time>2022-07-29T14:48:43Z</time>
      </trkpt>
      <trkpt lat="46.32462" lon="5.67003">
        <ele>328.6</ele>
        <time>2022-07-29T14:48:44Z</time>
      </trkpt>
      <trkpt lat="46.32467" lon="5.67011">
        <ele>328.6</ele>
        <time>2022-07-29T14:48:45Z</time>
      </trkpt>
      <trkpt lat="46.32471" lon="5.67019">
        <ele>328.6</ele>
        <time>2022-07-29T14:48:46Z</time>
      </trkpt>
      <trkpt lat="46.32474" lon="5.67028">
        <ele>328.4</ele>
        <time>2022-07-29T14:48:47Z</time>
      </trkpt>
      <trkpt lat="46.32477" lon="5.67035">
        <ele>328.4</ele>
        <time>2022-07-29T14:48:48Z</time>
      </trkpt>
      <trkpt lat="46.32479" lon="5.67042">
        <ele>328.4</ele>
        <time>2022-07-29T14:48:49Z</time>
      </trkpt>
      <trkpt lat="46.32481" lon="5.67048">
        <ele>328.4</ele>
        <time>2022-07-29T14:48:50Z</time>
      </trkpt>
      <trkpt lat="46.32481" lon="5.67054">
        <ele>328.4</ele>
        <time>2022-07-29T14:48:51Z</time>
      </trkpt>
      <trkpt lat="46.32481" lon="5.67059">
        <ele>328.4</ele>
        <time>2022-07-29T14:48:52Z</time>
      </trkpt>
      <trkpt lat="46.3248" lon="5.67065">
        <ele>328.4</ele>
        <time>2022-07-29T14:48:53Z</time>
      </trkpt>
      <trkpt lat="46.32479" lon="5.6707">
        <ele>328.6</ele>
        <time>2022-07-29T14:48:54Z</time>
      </trkpt>
      <trkpt lat="46.32478" lon="5.67077">
        <ele>328.6</ele>
        <time>2022-07-29T14:48:55Z</time>
      </trkpt>
      <trkpt lat="46.32478" lon="5.67083">
        <ele>328.6</ele>
        <time>2022-07-29T14:48:56Z</time>
      </trkpt>
      <trkpt lat="46.32479" lon="5.6709">
        <ele>328.6</ele>
        <time>2022-07-29T14:48:57Z</time>
      </trkpt>
      <trkpt lat="46.32481" lon="5.67096">
        <ele>328.6</ele>
        <time>2022-07-29T14:48:58Z</time>
      </trkpt>
      <trkpt lat="46.32484" lon="5.67102">
        <ele>328.6</ele>
        <time>2022-07-29T14:48:59Z</time>
      </trkpt>
      <trkpt lat="46.32488" lon="5.67107">
        <ele>328.6</ele>
        <time>2022-07-29T14:49:00Z</time>
      </trkpt>
      <trkpt lat="46.32493" lon="5.67111">
        <ele>328.6</ele>
        <time>2022-07-29T14:49:01Z</time>
      </trkpt>
      <trkpt lat="46.32499" lon="5.67113">
        <ele>328.6</ele>
        <time>2022-07-29T14:49:02Z</time>
      </trkpt>
      <trkpt lat="46.32505" lon="5.67112">
        <ele>328.6</ele>
        <time>2022-07-29T14:49:03Z</time>
      </trkpt>
      <trkpt lat="46.3251" lon="5.67109">
        <ele>328.6</ele>
        <time>2022-07-29T14:49:04Z</time>
      </trkpt>
      <trkpt lat="46.32516" lon="5.67105">
        <ele>328.6</ele>
        <time>2022-07-29T14:49:05Z</time>
      </trkpt>
      <trkpt lat="46.32522" lon="5.671">
        <ele>328.6</ele>
        <time>2022-07-29T14:49:06Z</time>
      </trkpt>
      <trkpt lat="46.32528" lon="5.67096">
        <ele>328.6</ele>
        <time>2022-07-29T14:49:07Z</time>
      </trkpt>
      <trkpt lat="46.32536" lon="5.67093">
        <ele>328.2</ele>
        <time>2022-07-29T14:49:08Z</time>
      </trkpt>
      <trkpt lat="46.32543" lon="5.67094">
        <ele>327.8</ele>
        <time>2022-07-29T14:49:09Z</time>
      </trkpt>
      <trkpt lat="46.32551" lon="5.67096">
        <ele>327.6</ele>
        <time>2022-07-29T14:49:10Z</time>
      </trkpt>
      <trkpt lat="46.32559" lon="5.67099">
        <ele>327.6</ele>
        <time>2022-07-29T14:49:11Z</time>
      </trkpt>
      <trkpt lat="46.32567" lon="5.67102">
        <ele>327.6</ele>
        <time>2022-07-29T14:49:12Z</time>
      </trkpt>
      <trkpt lat="46.32575" lon="5.67106">
        <ele>327.4</ele>
        <time>2022-07-29T14:49:13Z</time>
      </trkpt>
      <trkpt lat="46.32583" lon="5.6711">
        <ele>327.4</ele>
        <time>2022-07-29T14:49:14Z</time>
      </trkpt>
      <trkpt lat="46.32591" lon="5.67114">
        <ele>327</ele>
        <time>2022-07-29T14:49:15Z</time>
      </trkpt>
      <trkpt lat="46.32599" lon="5.67118">
        <ele>327</ele>
        <time>2022-07-29T14:49:16Z</time>
      </trkpt>
      <trkpt lat="46.32607" lon="5.67122">
        <ele>326.4</ele>
        <time>2022-07-29T14:49:17Z</time>
      </trkpt>
      <trkpt lat="46.32615" lon="5.67127">
        <ele>326.2</ele>
        <time>2022-07-29T14:49:18Z</time>
      </trkpt>
      <trkpt lat="46.32623" lon="5.67131">
        <ele>326.2</ele>
        <time>2022-07-29T14:49:19Z</time>
      </trkpt>
      <trkpt lat="46.32631" lon="5.67136">
        <ele>326</ele>
        <time>2022-07-29T14:49:20Z</time>
      </trkpt>
      <trkpt lat="46.32639" lon="5.6714">
        <ele>326</ele>
        <time>2022-07-29T14:49:21Z</time>
      </trkpt>
      <trkpt lat="46.32647" lon="5.67145">
        <ele>325.8</ele>
        <time>2022-07-29T14:49:22Z</time>
      </trkpt>
      <trkpt lat="46.32655" lon="5.6715">
        <ele>325.8</ele>
        <time>2022-07-29T14:49:23Z</time>
      </trkpt>
      <trkpt lat="46.32663" lon="5.67156">
        <ele>325.8</ele>
        <time>2022-07-29T14:49:24Z</time>
      </trkpt>
      <trkpt lat="46.32671" lon="5.67161">
        <ele>325.8</ele>
        <time>2022-07-29T14:49:25Z</time>
      </trkpt>
      <trkpt lat="46.32678" lon="5.67167">
        <ele>325.6</ele>
        <time>2022-07-29T14:49:26Z</time>
      </trkpt>
      <trkpt lat="46.32685" lon="5.67174">
        <ele>325.6</ele>
        <time>2022-07-29T14:49:27Z</time>
      </trkpt>
      <trkpt lat="46.32692" lon="5.67181">
        <ele>325.6</ele>
        <time>2022-07-29T14:49:28Z</time>
      </trkpt>
      <trkpt lat="46.32699" lon="5.67189">
        <ele>325.6</ele>
        <time>2022-07-29T14:49:29Z</time>
      </trkpt>
      <trkpt lat="46.32706" lon="5.67197">
        <ele>325.6</ele>
        <time>2022-07-29T14:49:30Z</time>
      </trkpt>
      <trkpt lat="46.32712" lon="5.67204">
        <ele>325.6</ele>
        <time>2022-07-29T14:49:31Z</time>
      </trkpt>
      <trkpt lat="46.32718" lon="5.67212">
        <ele>325.6</ele>
        <time>2022-07-29T14:49:32Z</time>
      </trkpt>
      <trkpt lat="46.32724" lon="5.6722">
        <ele>325.6</ele>
        <time>2022-07-29T14:49:33Z</time>
      </trkpt>
      <trkpt lat="46.3273" lon="5.67229">
        <ele>325.6</ele>
        <time>2022-07-29T14:49:34Z</time>
      </trkpt>
      <trkpt lat="46.32735" lon="5.67237">
        <ele>325.6</ele>
        <time>2022-07-29T14:49:35Z</time>
      </trkpt>
      <trkpt lat="46.32741" lon="5.67246">
        <ele>325.6</ele>
        <time>2022-07-29T14:49:36Z</time>
      </trkpt>
      <trkpt lat="46.32746" lon="5.67255">
        <ele>325.6</ele>
        <time>2022-07-29T14:49:37Z</time>
      </trkpt>
      <trkpt lat="46.32751" lon="5.67264">
        <ele>325.6</ele>
        <time>2022-07-29T14:49:38Z</time>
      </trkpt>
      <trkpt lat="46.32756" lon="5.67273">
        <ele>325.6</ele>
        <time>2022-07-29T14:49:39Z</time>
      </trkpt>
      <trkpt lat="46.32761" lon="5.67282">
        <ele>325.6</ele>
        <time>2022-07-29T14:49:40Z</time>
      </trkpt>
      <trkpt lat="46.32767" lon="5.67292">
        <ele>325.6</ele>
        <time>2022-07-29T14:49:41Z</time>
      </trkpt>
      <trkpt lat="46.32772" lon="5.67301">
        <ele>325.6</ele>
        <time>2022-07-29T14:49:42Z</time>
      </trkpt>
      <trkpt lat="46.32777" lon="5.6731">
        <ele>325.6</ele>
        <time>2022-07-29T14:49:43Z</time>
      </trkpt>
      <trkpt lat="46.32782" lon="5.67319">
        <ele>325.6</ele>
        <time>2022-07-29T14:49:44Z</time>
      </trkpt>
      <trkpt lat="46.32787" lon="5.67328">
        <ele>325.6</ele>
        <time>2022-07-29T14:49:45Z</time>
      </trkpt>
      <trkpt lat="46.32792" lon="5.67337">
        <ele>325.6</ele>
        <time>2022-07-29T14:49:46Z</time>
      </trkpt>
      <trkpt lat="46.32798" lon="5.67347">
        <ele>325.6</ele>
        <time>2022-07-29T14:49:47Z</time>
      </trkpt>
      <trkpt lat="46.32803" lon="5.67356">
        <ele>325.6</ele>
        <time>2022-07-29T14:49:48Z</time>
      </trkpt>
      <trkpt lat="46.32808" lon="5.67365">
        <ele>325.6</ele>
        <time>2022-07-29T14:49:49Z</time>
      </trkpt>
      <trkpt lat="46.32814" lon="5.67375">
        <ele>325.6</ele>
        <time>2022-07-29T14:49:50Z</time>
      </trkpt>
      <trkpt lat="46.32819" lon="5.67384">
        <ele>325.6</ele>
        <time>2022-07-29T14:49:51Z</time>
      </trkpt>
      <trkpt lat="46.32825" lon="5.67393">
        <ele>325.4</ele>
        <time>2022-07-29T14:49:52Z</time>
      </trkpt>
      <trkpt lat="46.3283" lon="5.67403">
        <ele>325.4</ele>
        <time>2022-07-29T14:49:53Z</time>
      </trkpt>
      <trkpt lat="46.32835" lon="5.67412">
        <ele>325.4</ele>
        <time>2022-07-29T14:49:54Z</time>
      </trkpt>
      <trkpt lat="46.32841" lon="5.67422">
        <ele>325.6</ele>
        <time>2022-07-29T14:49:55Z</time>
      </trkpt>
      <trkpt lat="46.32846" lon="5.67431">
        <ele>325.6</ele>
        <time>2022-07-29T14:49:56Z</time>
      </trkpt>
      <trkpt lat="46.32851" lon="5.67441">
        <ele>325.4</ele>
        <time>2022-07-29T14:49:57Z</time>
      </trkpt>
      <trkpt lat="46.32857" lon="5.6745">
        <ele>325.4</ele>
        <time>2022-07-29T14:49:58Z</time>
      </trkpt>
      <trkpt lat="46.32862" lon="5.67459">
        <ele>325.4</ele>
        <time>2022-07-29T14:49:59Z</time>
      </trkpt>
      <trkpt lat="46.32868" lon="5.67469">
        <ele>325.2</ele>
        <time>2022-07-29T14:50:00Z</time>
      </trkpt>
      <trkpt lat="46.32873" lon="5.67478">
        <ele>325.2</ele>
        <time>2022-07-29T14:50:01Z</time>
      </trkpt>
      <trkpt lat="46.32878" lon="5.67488">
        <ele>325.2</ele>
        <time>2022-07-29T14:50:02Z</time>
      </trkpt>
      <trkpt lat="46.32883" lon="5.67497">
        <ele>325.2</ele>
        <time>2022-07-29T14:50:03Z</time>
      </trkpt>
      <trkpt lat="46.32888" lon="5.67507">
        <ele>325.2</ele>
        <time>2022-07-29T14:50:04Z</time>
      </trkpt>
      <trkpt lat="46.32894" lon="5.67516">
        <ele>325.2</ele>
        <time>2022-07-29T14:50:05Z</time>
      </trkpt>
      <trkpt lat="46.32899" lon="5.67525">
        <ele>325.2</ele>
        <time>2022-07-29T14:50:06Z</time>
      </trkpt>
      <trkpt lat="46.32904" lon="5.67534">
        <ele>325.2</ele>
        <time>2022-07-29T14:50:07Z</time>
      </trkpt>
      <trkpt lat="46.32909" lon="5.67544">
        <ele>325.2</ele>
        <time>2022-07-29T14:50:08Z</time>
      </trkpt>
      <trkpt lat="46.32914" lon="5.67553">
        <ele>325.2</ele>
        <time>2022-07-29T14:50:09Z</time>
      </trkpt>
      <trkpt lat="46.32919" lon="5.67562">
        <ele>325.4</ele>
        <time>2022-07-29T14:50:10Z</time>
      </trkpt>
      <trkpt lat="46.32924" lon="5.67571">
        <ele>325.4</ele>
        <time>2022-07-29T14:50:11Z</time>
      </trkpt>
      <trkpt lat="46.32929" lon="5.6758">
        <ele>325.4</ele>
        <time>2022-07-29T14:50:12Z</time>
      </trkpt>
      <trkpt lat="46.32934" lon="5.67588">
        <ele>325.4</ele>
        <time>2022-07-29T14:50:13Z</time>
      </trkpt>
      <trkpt lat="46.32939" lon="5.67597">
        <ele>325.6</ele>
        <time>2022-07-29T14:50:14Z</time>
      </trkpt>
      <trkpt lat="46.32944" lon="5.67605">
        <ele>325.6</ele>
        <time>2022-07-29T14:50:15Z</time>
      </trkpt>
      <trkpt lat="46.32949" lon="5.67614">
        <ele>325.6</ele>
        <time>2022-07-29T14:50:16Z</time>
      </trkpt>
      <trkpt lat="46.32954" lon="5.67623">
        <ele>325.6</ele>
        <time>2022-07-29T14:50:17Z</time>
      </trkpt>
      <trkpt lat="46.32959" lon="5.67631">
        <ele>325.6</ele>
        <time>2022-07-29T14:50:18Z</time>
      </trkpt>
      <trkpt lat="46.32963" lon="5.6764">
        <ele>325.6</ele>
        <time>2022-07-29T14:50:19Z</time>
      </trkpt>
      <trkpt lat="46.32968" lon="5.67648">
        <ele>325.6</ele>
        <time>2022-07-29T14:50:20Z</time>
      </trkpt>
      <trkpt lat="46.32973" lon="5.67657">
        <ele>325.8</ele>
        <time>2022-07-29T14:50:21Z</time>
      </trkpt>
      <trkpt lat="46.32978" lon="5.67665">
        <ele>325.8</ele>
        <time>2022-07-29T14:50:22Z</time>
      </trkpt>
      <trkpt lat="46.32983" lon="5.67673">
        <ele>325.8</ele>
        <time>2022-07-29T14:50:23Z</time>
      </trkpt>
      <trkpt lat="46.32987" lon="5.67682">
        <ele>325.8</ele>
        <time>2022-07-29T14:50:24Z</time>
      </trkpt>
      <trkpt lat="46.32992" lon="5.6769">
        <ele>325.8</ele>
        <time>2022-07-29T14:50:25Z</time>
      </trkpt>
      <trkpt lat="46.32997" lon="5.67699">
        <ele>325.8</ele>
        <time>2022-07-29T14:50:26Z</time>
      </trkpt>
      <trkpt lat="46.33002" lon="5.67707">
        <ele>325.8</ele>
        <time>2022-07-29T14:50:27Z</time>
      </trkpt>
      <trkpt lat="46.33006" lon="5.67715">
        <ele>325.8</ele>
        <time>2022-07-29T14:50:28Z</time>
      </trkpt>
      <trkpt lat="46.33011" lon="5.67723">
        <ele>325.8</ele>
        <time>2022-07-29T14:50:29Z</time>
      </trkpt>
      <trkpt lat="46.33016" lon="5.67731">
        <ele>325.8</ele>
        <time>2022-07-29T14:50:30Z</time>
      </trkpt>
      <trkpt lat="46.33021" lon="5.67739">
        <ele>325.8</ele>
        <time>2022-07-29T14:50:31Z</time>
      </trkpt>
      <trkpt lat="46.33027" lon="5.67747">
        <ele>326.2</ele>
        <time>2022-07-29T14:50:32Z</time>
      </trkpt>
      <trkpt lat="46.33032" lon="5.67754">
        <ele>326.2</ele>
        <time>2022-07-29T14:50:33Z</time>
      </trkpt>
      <trkpt lat="46.33036" lon="5.67761">
        <ele>326.6</ele>
        <time>2022-07-29T14:50:34Z</time>
      </trkpt>
      <trkpt lat="46.33041" lon="5.67768">
        <ele>326.6</ele>
        <time>2022-07-29T14:50:35Z</time>
      </trkpt>
      <trkpt lat="46.33046" lon="5.67775">
        <ele>326.8</ele>
        <time>2022-07-29T14:50:36Z</time>
      </trkpt>
      <trkpt lat="46.33051" lon="5.67782">
        <ele>326.8</ele>
        <time>2022-07-29T14:50:37Z</time>
      </trkpt>
      <trkpt lat="46.33055" lon="5.67788">
        <ele>327.2</ele>
        <time>2022-07-29T14:50:38Z</time>
      </trkpt>
      <trkpt lat="46.3306" lon="5.67794">
        <ele>327.2</ele>
        <time>2022-07-29T14:50:39Z</time>
      </trkpt>
      <trkpt lat="46.33065" lon="5.678">
        <ele>327.4</ele>
        <time>2022-07-29T14:50:40Z</time>
      </trkpt>
      <trkpt lat="46.3307" lon="5.67807">
        <ele>327.4</ele>
        <time>2022-07-29T14:50:41Z</time>
      </trkpt>
      <trkpt lat="46.33075" lon="5.67813">
        <ele>327.6</ele>
        <time>2022-07-29T14:50:42Z</time>
      </trkpt>
      <trkpt lat="46.3308" lon="5.67818">
        <ele>327.6</ele>
        <time>2022-07-29T14:50:43Z</time>
      </trkpt>
      <trkpt lat="46.33084" lon="5.67824">
        <ele>328</ele>
        <time>2022-07-29T14:50:44Z</time>
      </trkpt>
      <trkpt lat="46.33089" lon="5.6783">
        <ele>328</ele>
        <time>2022-07-29T14:50:45Z</time>
      </trkpt>
      <trkpt lat="46.33094" lon="5.67836">
        <ele>328.2</ele>
        <time>2022-07-29T14:50:46Z</time>
      </trkpt>
      <trkpt lat="46.33099" lon="5.67842">
        <ele>328.2</ele>
        <time>2022-07-29T14:50:47Z</time>
      </trkpt>
      <trkpt lat="46.33104" lon="5.67848">
        <ele>328.2</ele>
        <time>2022-07-29T14:50:48Z</time>
      </trkpt>
      <trkpt lat="46.33109" lon="5.67853">
        <ele>328.2</ele>
        <time>2022-07-29T14:50:49Z</time>
      </trkpt>
      <trkpt lat="46.33114" lon="5.67859">
        <ele>328.6</ele>
        <time>2022-07-29T14:50:50Z</time>
      </trkpt>
      <trkpt lat="46.33119" lon="5.67865">
        <ele>328.8</ele>
        <time>2022-07-29T14:50:51Z</time>
      </trkpt>
      <trkpt lat="46.33125" lon="5.6787">
        <ele>328.8</ele>
        <time>2022-07-29T14:50:52Z</time>
      </trkpt>
      <trkpt lat="46.3313" lon="5.67875">
        <ele>329</ele>
        <time>2022-07-29T14:50:53Z</time>
      </trkpt>
      <trkpt lat="46.33135" lon="5.67881">
        <ele>329</ele>
        <time>2022-07-29T14:50:54Z</time>
      </trkpt>
      <trkpt lat="46.33145" lon="5.67892">
        <ele>329.2</ele>
        <time>2022-07-29T14:50:55Z</time>
      </trkpt>
      <trkpt lat="46.33151" lon="5.67897">
        <ele>329.2</ele>
        <time>2022-07-29T14:50:56Z</time>
      </trkpt>
      <trkpt lat="46.33156" lon="5.67903">
        <ele>329.6</ele>
        <time>2022-07-29T14:50:57Z</time>
      </trkpt>
      <trkpt lat="46.33161" lon="5.67908">
        <ele>329.6</ele>
        <time>2022-07-29T14:50:58Z</time>
      </trkpt>
      <trkpt lat="46.33166" lon="5.67913">
        <ele>329.6</ele>
        <time>2022-07-29T14:50:59Z</time>
      </trkpt>
      <trkpt lat="46.33172" lon="5.67918">
        <ele>329.6</ele>
        <time>2022-07-29T14:51:00Z</time>
      </trkpt>
      <trkpt lat="46.33177" lon="5.67923">
        <ele>329.8</ele>
        <time>2022-07-29T14:51:01Z</time>
      </trkpt>
      <trkpt lat="46.33182" lon="5.67928">
        <ele>329.8</ele>
        <time>2022-07-29T14:51:02Z</time>
      </trkpt>
      <trkpt lat="46.33188" lon="5.67932">
        <ele>329.8</ele>
        <time>2022-07-29T14:51:03Z</time>
      </trkpt>
      <trkpt lat="46.33193" lon="5.67937">
        <ele>329.8</ele>
        <time>2022-07-29T14:51:04Z</time>
      </trkpt>
      <trkpt lat="46.33198" lon="5.67942">
        <ele>329.8</ele>
        <time>2022-07-29T14:51:05Z</time>
      </trkpt>
      <trkpt lat="46.33204" lon="5.67946">
        <ele>329.8</ele>
        <time>2022-07-29T14:51:06Z</time>
      </trkpt>
      <trkpt lat="46.33209" lon="5.67951">
        <ele>330</ele>
        <time>2022-07-29T14:51:07Z</time>
      </trkpt>
      <trkpt lat="46.33215" lon="5.67955">
        <ele>330</ele>
        <time>2022-07-29T14:51:08Z</time>
      </trkpt>
      <trkpt lat="46.3322" lon="5.6796">
        <ele>330</ele>
        <time>2022-07-29T14:51:09Z</time>
      </trkpt>
      <trkpt lat="46.33226" lon="5.67964">
        <ele>330</ele>
        <time>2022-07-29T14:51:10Z</time>
      </trkpt>
      <trkpt lat="46.33231" lon="5.67969">
        <ele>330</ele>
        <time>2022-07-29T14:51:11Z</time>
      </trkpt>
      <trkpt lat="46.33237" lon="5.67973">
        <ele>330</ele>
        <time>2022-07-29T14:51:12Z</time>
      </trkpt>
      <trkpt lat="46.33243" lon="5.67977">
        <ele>330</ele>
        <time>2022-07-29T14:51:13Z</time>
      </trkpt>
      <trkpt lat="46.33249" lon="5.67981">
        <ele>330</ele>
        <time>2022-07-29T14:51:14Z</time>
      </trkpt>
      <trkpt lat="46.33254" lon="5.67985">
        <ele>330</ele>
        <time>2022-07-29T14:51:15Z</time>
      </trkpt>
      <trkpt lat="46.3326" lon="5.6799">
        <ele>330</ele>
        <time>2022-07-29T14:51:16Z</time>
      </trkpt>
      <trkpt lat="46.33266" lon="5.67994">
        <ele>330</ele>
        <time>2022-07-29T14:51:17Z</time>
      </trkpt>
      <trkpt lat="46.33272" lon="5.67999">
        <ele>329.8</ele>
        <time>2022-07-29T14:51:18Z</time>
      </trkpt>
      <trkpt lat="46.33278" lon="5.68003">
        <ele>329.8</ele>
        <time>2022-07-29T14:51:19Z</time>
      </trkpt>
      <trkpt lat="46.33284" lon="5.68008">
        <ele>329.8</ele>
        <time>2022-07-29T14:51:20Z</time>
      </trkpt>
      <trkpt lat="46.3329" lon="5.68012">
        <ele>329.8</ele>
        <time>2022-07-29T14:51:21Z</time>
      </trkpt>
      <trkpt lat="46.33296" lon="5.68017">
        <ele>329.8</ele>
        <time>2022-07-29T14:51:22Z</time>
      </trkpt>
      <trkpt lat="46.33302" lon="5.68021">
        <ele>329.8</ele>
        <time>2022-07-29T14:51:23Z</time>
      </trkpt>
      <trkpt lat="46.33308" lon="5.68026">
        <ele>329.8</ele>
        <time>2022-07-29T14:51:24Z</time>
      </trkpt>
      <trkpt lat="46.33314" lon="5.6803">
        <ele>329.8</ele>
        <time>2022-07-29T14:51:25Z</time>
      </trkpt>
      <trkpt lat="46.3332" lon="5.68035">
        <ele>329.6</ele>
        <time>2022-07-29T14:51:26Z</time>
      </trkpt>
      <trkpt lat="46.33326" lon="5.68039">
        <ele>329.6</ele>
        <time>2022-07-29T14:51:27Z</time>
      </trkpt>
      <trkpt lat="46.33332" lon="5.68044">
        <ele>329.6</ele>
        <time>2022-07-29T14:51:28Z</time>
      </trkpt>
      <trkpt lat="46.33338" lon="5.68049">
        <ele>329.6</ele>
        <time>2022-07-29T14:51:29Z</time>
      </trkpt>
      <trkpt lat="46.33345" lon="5.68053">
        <ele>329.6</ele>
        <time>2022-07-29T14:51:30Z</time>
      </trkpt>
      <trkpt lat="46.33351" lon="5.68058">
        <ele>329.6</ele>
        <time>2022-07-29T14:51:31Z</time>
      </trkpt>
      <trkpt lat="46.33357" lon="5.68063">
        <ele>329.6</ele>
        <time>2022-07-29T14:51:32Z</time>
      </trkpt>
      <trkpt lat="46.33364" lon="5.68069">
        <ele>329.6</ele>
        <time>2022-07-29T14:51:33Z</time>
      </trkpt>
      <trkpt lat="46.3337" lon="5.68075">
        <ele>329.4</ele>
        <time>2022-07-29T14:51:34Z</time>
      </trkpt>
      <trkpt lat="46.33376" lon="5.68081">
        <ele>329.4</ele>
        <time>2022-07-29T14:51:35Z</time>
      </trkpt>
      <trkpt lat="46.33383" lon="5.68087">
        <ele>329</ele>
        <time>2022-07-29T14:51:36Z</time>
      </trkpt>
      <trkpt lat="46.33389" lon="5.68094">
        <ele>329</ele>
        <time>2022-07-29T14:51:37Z</time>
      </trkpt>
      <trkpt lat="46.33395" lon="5.681">
        <ele>329</ele>
        <time>2022-07-29T14:51:38Z</time>
      </trkpt>
      <trkpt lat="46.33401" lon="5.68107">
        <ele>329</ele>
        <time>2022-07-29T14:51:39Z</time>
      </trkpt>
      <trkpt lat="46.33407" lon="5.68114">
        <ele>328.8</ele>
        <time>2022-07-29T14:51:40Z</time>
      </trkpt>
      <trkpt lat="46.33413" lon="5.68121">
        <ele>328.8</ele>
        <time>2022-07-29T14:51:41Z</time>
      </trkpt>
      <trkpt lat="46.33419" lon="5.68129">
        <ele>328.4</ele>
        <time>2022-07-29T14:51:42Z</time>
      </trkpt>
      <trkpt lat="46.33425" lon="5.68137">
        <ele>328.4</ele>
        <time>2022-07-29T14:51:43Z</time>
      </trkpt>
      <trkpt lat="46.33431" lon="5.68145">
        <ele>328.2</ele>
        <time>2022-07-29T14:51:44Z</time>
      </trkpt>
      <trkpt lat="46.33436" lon="5.68154">
        <ele>328.2</ele>
        <time>2022-07-29T14:51:45Z</time>
      </trkpt>
      <trkpt lat="46.33442" lon="5.68162">
        <ele>328.2</ele>
        <time>2022-07-29T14:51:46Z</time>
      </trkpt>
      <trkpt lat="46.33447" lon="5.68172">
        <ele>328</ele>
        <time>2022-07-29T14:51:47Z</time>
      </trkpt>
      <trkpt lat="46.33452" lon="5.68182">
        <ele>328</ele>
        <time>2022-07-29T14:51:48Z</time>
      </trkpt>
      <trkpt lat="46.33457" lon="5.68192">
        <ele>327.8</ele>
        <time>2022-07-29T14:51:49Z</time>
      </trkpt>
      <trkpt lat="46.33462" lon="5.68203">
        <ele>327.8</ele>
        <time>2022-07-29T14:51:50Z</time>
      </trkpt>
      <trkpt lat="46.33466" lon="5.68214">
        <ele>327.6</ele>
        <time>2022-07-29T14:51:51Z</time>
      </trkpt>
      <trkpt lat="46.33471" lon="5.68225">
        <ele>327.6</ele>
        <time>2022-07-29T14:51:52Z</time>
      </trkpt>
      <trkpt lat="46.33475" lon="5.68237">
        <ele>327.2</ele>
        <time>2022-07-29T14:51:53Z</time>
      </trkpt>
      <trkpt lat="46.33479" lon="5.68249">
        <ele>327</ele>
        <time>2022-07-29T14:51:54Z</time>
      </trkpt>
      <trkpt lat="46.33483" lon="5.68261">
        <ele>327</ele>
        <time>2022-07-29T14:51:55Z</time>
      </trkpt>
      <trkpt lat="46.33487" lon="5.68274">
        <ele>327</ele>
        <time>2022-07-29T14:51:56Z</time>
      </trkpt>
      <trkpt lat="46.3349" lon="5.68286">
        <ele>326.6</ele>
        <time>2022-07-29T14:51:57Z</time>
      </trkpt>
      <trkpt lat="46.33494" lon="5.68299">
        <ele>326.4</ele>
        <time>2022-07-29T14:51:58Z</time>
      </trkpt>
      <trkpt lat="46.33497" lon="5.68312">
        <ele>326.2</ele>
        <time>2022-07-29T14:51:59Z</time>
      </trkpt>
      <trkpt lat="46.335" lon="5.68324">
        <ele>326.2</ele>
        <time>2022-07-29T14:52:00Z</time>
      </trkpt>
      <trkpt lat="46.33504" lon="5.68337">
        <ele>326</ele>
        <time>2022-07-29T14:52:01Z</time>
      </trkpt>
      <trkpt lat="46.33508" lon="5.68348">
        <ele>326</ele>
        <time>2022-07-29T14:52:02Z</time>
      </trkpt>
      <trkpt lat="46.33511" lon="5.6836">
        <ele>325.6</ele>
        <time>2022-07-29T14:52:03Z</time>
      </trkpt>
      <trkpt lat="46.33514" lon="5.68372">
        <ele>325.6</ele>
        <time>2022-07-29T14:52:04Z</time>
      </trkpt>
      <trkpt lat="46.33518" lon="5.68384">
        <ele>325.4</ele>
        <time>2022-07-29T14:52:05Z</time>
      </trkpt>
      <trkpt lat="46.33522" lon="5.68395">
        <ele>325.4</ele>
        <time>2022-07-29T14:52:06Z</time>
      </trkpt>
      <trkpt lat="46.33525" lon="5.68407">
        <ele>325.2</ele>
        <time>2022-07-29T14:52:07Z</time>
      </trkpt>
      <trkpt lat="46.33529" lon="5.68419">
        <ele>325.2</ele>
        <time>2022-07-29T14:52:08Z</time>
      </trkpt>
      <trkpt lat="46.33532" lon="5.6843">
        <ele>325</ele>
        <time>2022-07-29T14:52:09Z</time>
      </trkpt>
      <trkpt lat="46.33535" lon="5.68442">
        <ele>325</ele>
        <time>2022-07-29T14:52:10Z</time>
      </trkpt>
      <trkpt lat="46.33539" lon="5.68453">
        <ele>325</ele>
        <time>2022-07-29T14:52:11Z</time>
      </trkpt>
      <trkpt lat="46.33543" lon="5.68464">
        <ele>324.8</ele>
        <time>2022-07-29T14:52:12Z</time>
      </trkpt>
      <trkpt lat="46.33546" lon="5.68475">
        <ele>324.8</ele>
        <time>2022-07-29T14:52:13Z</time>
      </trkpt>
      <trkpt lat="46.3355" lon="5.68486">
        <ele>324.8</ele>
        <time>2022-07-29T14:52:14Z</time>
      </trkpt>
      <trkpt lat="46.33554" lon="5.68496">
        <ele>324.8</ele>
        <time>2022-07-29T14:52:15Z</time>
      </trkpt>
      <trkpt lat="46.33557" lon="5.68507">
        <ele>324.6</ele>
        <time>2022-07-29T14:52:16Z</time>
      </trkpt>
      <trkpt lat="46.33561" lon="5.68517">
        <ele>324.6</ele>
        <time>2022-07-29T14:52:17Z</time>
      </trkpt>
      <trkpt lat="46.33565" lon="5.68527">
        <ele>324.6</ele>
        <time>2022-07-29T14:52:18Z</time>
      </trkpt>
      <trkpt lat="46.33569" lon="5.68537">
        <ele>324.6</ele>
        <time>2022-07-29T14:52:19Z</time>
      </trkpt>
      <trkpt lat="46.33573" lon="5.68548">
        <ele>324.2</ele>
        <time>2022-07-29T14:52:20Z</time>
      </trkpt>
      <trkpt lat="46.33577" lon="5.68558">
        <ele>324.2</ele>
        <time>2022-07-29T14:52:21Z</time>
      </trkpt>
      <trkpt lat="46.33581" lon="5.68568">
        <ele>324.2</ele>
        <time>2022-07-29T14:52:22Z</time>
      </trkpt>
      <trkpt lat="46.33585" lon="5.68578">
        <ele>324.2</ele>
        <time>2022-07-29T14:52:23Z</time>
      </trkpt>
      <trkpt lat="46.33588" lon="5.68587">
        <ele>324.2</ele>
        <time>2022-07-29T14:52:24Z</time>
      </trkpt>
      <trkpt lat="46.33592" lon="5.68597">
        <ele>324</ele>
        <time>2022-07-29T14:52:25Z</time>
      </trkpt>
      <trkpt lat="46.33596" lon="5.68606">
        <ele>324</ele>
        <time>2022-07-29T14:52:26Z</time>
      </trkpt>
      <trkpt lat="46.336" lon="5.68616">
        <ele>324</ele>
        <time>2022-07-29T14:52:27Z</time>
      </trkpt>
      <trkpt lat="46.33604" lon="5.68625">
        <ele>324</ele>
        <time>2022-07-29T14:52:28Z</time>
      </trkpt>
      <trkpt lat="46.33607" lon="5.68634">
        <ele>323.8</ele>
        <time>2022-07-29T14:52:29Z</time>
      </trkpt>
      <trkpt lat="46.33611" lon="5.68643">
        <ele>323.8</ele>
        <time>2022-07-29T14:52:30Z</time>
      </trkpt>
      <trkpt lat="46.33614" lon="5.68653">
        <ele>323.8</ele>
        <time>2022-07-29T14:52:31Z</time>
      </trkpt>
      <trkpt lat="46.33618" lon="5.68662">
        <ele>323.6</ele>
        <time>2022-07-29T14:52:32Z</time>
      </trkpt>
      <trkpt lat="46.33622" lon="5.68671">
        <ele>323.6</ele>
        <time>2022-07-29T14:52:33Z</time>
      </trkpt>
      <trkpt lat="46.33625" lon="5.6868">
        <ele>323.6</ele>
        <time>2022-07-29T14:52:34Z</time>
      </trkpt>
      <trkpt lat="46.33629" lon="5.68689">
        <ele>323.6</ele>
        <time>2022-07-29T14:52:35Z</time>
      </trkpt>
      <trkpt lat="46.33632" lon="5.68698">
        <ele>323.8</ele>
        <time>2022-07-29T14:52:36Z</time>
      </trkpt>
      <trkpt lat="46.33636" lon="5.68707">
        <ele>323.8</ele>
        <time>2022-07-29T14:52:37Z</time>
      </trkpt>
      <trkpt lat="46.3364" lon="5.68715">
        <ele>323.8</ele>
        <time>2022-07-29T14:52:38Z</time>
      </trkpt>
      <trkpt lat="46.33643" lon="5.68723">
        <ele>323.8</ele>
        <time>2022-07-29T14:52:39Z</time>
      </trkpt>
      <trkpt lat="46.33647" lon="5.68732">
        <ele>323.8</ele>
        <time>2022-07-29T14:52:40Z</time>
      </trkpt>
      <trkpt lat="46.3365" lon="5.6874">
        <ele>323.8</ele>
        <time>2022-07-29T14:52:41Z</time>
      </trkpt>
      <trkpt lat="46.33654" lon="5.68748">
        <ele>324</ele>
        <time>2022-07-29T14:52:42Z</time>
      </trkpt>
      <trkpt lat="46.33658" lon="5.68755">
        <ele>324</ele>
        <time>2022-07-29T14:52:43Z</time>
      </trkpt>
      <trkpt lat="46.33662" lon="5.68763">
        <ele>324</ele>
        <time>2022-07-29T14:52:44Z</time>
      </trkpt>
      <trkpt lat="46.33665" lon="5.6877">
        <ele>324</ele>
        <time>2022-07-29T14:52:45Z</time>
      </trkpt>
      <trkpt lat="46.33669" lon="5.68777">
        <ele>324.2</ele>
        <time>2022-07-29T14:52:46Z</time>
      </trkpt>
      <trkpt lat="46.33673" lon="5.68784">
        <ele>324.2</ele>
        <time>2022-07-29T14:52:47Z</time>
      </trkpt>
      <trkpt lat="46.33676" lon="5.68791">
        <ele>324.2</ele>
        <time>2022-07-29T14:52:48Z</time>
      </trkpt>
      <trkpt lat="46.3368" lon="5.68798">
        <ele>324.2</ele>
        <time>2022-07-29T14:52:49Z</time>
      </trkpt>
      <trkpt lat="46.33683" lon="5.68804">
        <ele>324.2</ele>
        <time>2022-07-29T14:52:50Z</time>
      </trkpt>
      <trkpt lat="46.33687" lon="5.68811">
        <ele>324.4</ele>
        <time>2022-07-29T14:52:51Z</time>
      </trkpt>
      <trkpt lat="46.33691" lon="5.68818">
        <ele>324.4</ele>
        <time>2022-07-29T14:52:52Z</time>
      </trkpt>
      <trkpt lat="46.33695" lon="5.68824">
        <ele>324.4</ele>
        <time>2022-07-29T14:52:53Z</time>
      </trkpt>
      <trkpt lat="46.33699" lon="5.68831">
        <ele>324.4</ele>
        <time>2022-07-29T14:52:54Z</time>
      </trkpt>
      <trkpt lat="46.33702" lon="5.68837">
        <ele>324.6</ele>
        <time>2022-07-29T14:52:55Z</time>
      </trkpt>
      <trkpt lat="46.33706" lon="5.68843">
        <ele>324.6</ele>
        <time>2022-07-29T14:52:56Z</time>
      </trkpt>
      <trkpt lat="46.33709" lon="5.68849">
        <ele>324.6</ele>
        <time>2022-07-29T14:52:57Z</time>
      </trkpt>
      <trkpt lat="46.33713" lon="5.68855">
        <ele>324.6</ele>
        <time>2022-07-29T14:52:58Z</time>
      </trkpt>
      <trkpt lat="46.33716" lon="5.68861">
        <ele>324.8</ele>
        <time>2022-07-29T14:52:59Z</time>
      </trkpt>
      <trkpt lat="46.3372" lon="5.68867">
        <ele>324.8</ele>
        <time>2022-07-29T14:53:00Z</time>
      </trkpt>
      <trkpt lat="46.33723" lon="5.68873">
        <ele>324.8</ele>
        <time>2022-07-29T14:53:01Z</time>
      </trkpt>
      <trkpt lat="46.33727" lon="5.68879">
        <ele>325.2</ele>
        <time>2022-07-29T14:53:02Z</time>
      </trkpt>
      <trkpt lat="46.3373" lon="5.68886">
        <ele>325.2</ele>
        <time>2022-07-29T14:53:03Z</time>
      </trkpt>
      <trkpt lat="46.33734" lon="5.68892">
        <ele>325.2</ele>
        <time>2022-07-29T14:53:04Z</time>
      </trkpt>
      <trkpt lat="46.33737" lon="5.68898">
        <ele>325.4</ele>
        <time>2022-07-29T14:53:05Z</time>
      </trkpt>
      <trkpt lat="46.33741" lon="5.68904">
        <ele>325.4</ele>
        <time>2022-07-29T14:53:06Z</time>
      </trkpt>
      <trkpt lat="46.33745" lon="5.6891">
        <ele>325.6</ele>
        <time>2022-07-29T14:53:07Z</time>
      </trkpt>
      <trkpt lat="46.33748" lon="5.68916">
        <ele>325.6</ele>
        <time>2022-07-29T14:53:08Z</time>
      </trkpt>
      <trkpt lat="46.33752" lon="5.68922">
        <ele>325.6</ele>
        <time>2022-07-29T14:53:09Z</time>
      </trkpt>
      <trkpt lat="46.33756" lon="5.68928">
        <ele>326</ele>
        <time>2022-07-29T14:53:10Z</time>
      </trkpt>
      <trkpt lat="46.33759" lon="5.68934">
        <ele>326</ele>
        <time>2022-07-29T14:53:11Z</time>
      </trkpt>
      <trkpt lat="46.33763" lon="5.68939">
        <ele>326</ele>
        <time>2022-07-29T14:53:12Z</time>
      </trkpt>
      <trkpt lat="46.33767" lon="5.68945">
        <ele>326</ele>
        <time>2022-07-29T14:53:13Z</time>
      </trkpt>
      <trkpt lat="46.33771" lon="5.6895">
        <ele>326.2</ele>
        <time>2022-07-29T14:53:14Z</time>
      </trkpt>
      <trkpt lat="46.33774" lon="5.68956">
        <ele>326.2</ele>
        <time>2022-07-29T14:53:15Z</time>
      </trkpt>
      <trkpt lat="46.33778" lon="5.68961">
        <ele>326.2</ele>
        <time>2022-07-29T14:53:16Z</time>
      </trkpt>
      <trkpt lat="46.33782" lon="5.68966">
        <ele>326.6</ele>
        <time>2022-07-29T14:53:17Z</time>
      </trkpt>
      <trkpt lat="46.33786" lon="5.68971">
        <ele>326.6</ele>
        <time>2022-07-29T14:53:18Z</time>
      </trkpt>
      <trkpt lat="46.3379" lon="5.68976">
        <ele>326.6</ele>
        <time>2022-07-29T14:53:19Z</time>
      </trkpt>
      <trkpt lat="46.33794" lon="5.6898">
        <ele>326.6</ele>
        <time>2022-07-29T14:53:20Z</time>
      </trkpt>
      <trkpt lat="46.33798" lon="5.68985">
        <ele>326.6</ele>
        <time>2022-07-29T14:53:21Z</time>
      </trkpt>
      <trkpt lat="46.33803" lon="5.6899">
        <ele>326.8</ele>
        <time>2022-07-29T14:53:22Z</time>
      </trkpt>
      <trkpt lat="46.33807" lon="5.68994">
        <ele>326.8</ele>
        <time>2022-07-29T14:53:23Z</time>
      </trkpt>
      <trkpt lat="46.33812" lon="5.68998">
        <ele>326.8</ele>
        <time>2022-07-29T14:53:24Z</time>
      </trkpt>
      <trkpt lat="46.33816" lon="5.69003">
        <ele>326.8</ele>
        <time>2022-07-29T14:53:25Z</time>
      </trkpt>
      <trkpt lat="46.33821" lon="5.69007">
        <ele>326.8</ele>
        <time>2022-07-29T14:53:26Z</time>
      </trkpt>
      <trkpt lat="46.33826" lon="5.69011">
        <ele>327</ele>
        <time>2022-07-29T14:53:27Z</time>
      </trkpt>
      <trkpt lat="46.33831" lon="5.69014">
        <ele>327</ele>
        <time>2022-07-29T14:53:28Z</time>
      </trkpt>
      <trkpt lat="46.33836" lon="5.69018">
        <ele>327</ele>
        <time>2022-07-29T14:53:29Z</time>
      </trkpt>
      <trkpt lat="46.33841" lon="5.69021">
        <ele>327</ele>
        <time>2022-07-29T14:53:30Z</time>
      </trkpt>
      <trkpt lat="46.33846" lon="5.69025">
        <ele>327</ele>
        <time>2022-07-29T14:53:31Z</time>
      </trkpt>
      <trkpt lat="46.33851" lon="5.69028">
        <ele>327</ele>
        <time>2022-07-29T14:53:32Z</time>
      </trkpt>
      <trkpt lat="46.33857" lon="5.6903">
        <ele>327</ele>
        <time>2022-07-29T14:53:33Z</time>
      </trkpt>
      <trkpt lat="46.33862" lon="5.69033">
        <ele>327</ele>
        <time>2022-07-29T14:53:34Z</time>
      </trkpt>
      <trkpt lat="46.33867" lon="5.69036">
        <ele>327.2</ele>
        <time>2022-07-29T14:53:35Z</time>
      </trkpt>
      <trkpt lat="46.33873" lon="5.69039">
        <ele>327.2</ele>
        <time>2022-07-29T14:53:36Z</time>
      </trkpt>
      <trkpt lat="46.33879" lon="5.69042">
        <ele>327.2</ele>
        <time>2022-07-29T14:53:37Z</time>
      </trkpt>
      <trkpt lat="46.33885" lon="5.69044">
        <ele>327.2</ele>
        <time>2022-07-29T14:53:38Z</time>
      </trkpt>
      <trkpt lat="46.3389" lon="5.69046">
        <ele>327.2</ele>
        <time>2022-07-29T14:53:39Z</time>
      </trkpt>
      <trkpt lat="46.33896" lon="5.69048">
        <ele>327.2</ele>
        <time>2022-07-29T14:53:40Z</time>
      </trkpt>
      <trkpt lat="46.33903" lon="5.6905">
        <ele>327.2</ele>
        <time>2022-07-29T14:53:41Z</time>
      </trkpt>
      <trkpt lat="46.33909" lon="5.69052">
        <ele>327.2</ele>
        <time>2022-07-29T14:53:42Z</time>
      </trkpt>
      <trkpt lat="46.33915" lon="5.69054">
        <ele>327.2</ele>
        <time>2022-07-29T14:53:43Z</time>
      </trkpt>
      <trkpt lat="46.33921" lon="5.69055">
        <ele>327.6</ele>
        <time>2022-07-29T14:53:44Z</time>
      </trkpt>
      <trkpt lat="46.33927" lon="5.69057">
        <ele>327.6</ele>
        <time>2022-07-29T14:53:45Z</time>
      </trkpt>
      <trkpt lat="46.33934" lon="5.69059">
        <ele>327.6</ele>
        <time>2022-07-29T14:53:46Z</time>
      </trkpt>
      <trkpt lat="46.3394" lon="5.69062">
        <ele>327.4</ele>
        <time>2022-07-29T14:53:47Z</time>
      </trkpt>
      <trkpt lat="46.33946" lon="5.69065">
        <ele>327.4</ele>
        <time>2022-07-29T14:53:48Z</time>
      </trkpt>
      <trkpt lat="46.33953" lon="5.69067">
        <ele>327.4</ele>
        <time>2022-07-29T14:53:49Z</time>
      </trkpt>
      <trkpt lat="46.3396" lon="5.69069">
        <ele>327.4</ele>
        <time>2022-07-29T14:53:50Z</time>
      </trkpt>
      <trkpt lat="46.33966" lon="5.6907">
        <ele>327.4</ele>
        <time>2022-07-29T14:53:51Z</time>
      </trkpt>
      <trkpt lat="46.33973" lon="5.69071">
        <ele>327.4</ele>
        <time>2022-07-29T14:53:52Z</time>
      </trkpt>
      <trkpt lat="46.3398" lon="5.69072">
        <ele>327</ele>
        <time>2022-07-29T14:53:53Z</time>
      </trkpt>
      <trkpt lat="46.33987" lon="5.69073">
        <ele>327</ele>
        <time>2022-07-29T14:53:54Z</time>
      </trkpt>
      <trkpt lat="46.33993" lon="5.69075">
        <ele>327</ele>
        <time>2022-07-29T14:53:55Z</time>
      </trkpt>
      <trkpt lat="46.34" lon="5.69076">
        <ele>326.8</ele>
        <time>2022-07-29T14:53:56Z</time>
      </trkpt>
      <trkpt lat="46.34007" lon="5.69077">
        <ele>326.8</ele>
        <time>2022-07-29T14:53:57Z</time>
      </trkpt>
      <trkpt lat="46.34014" lon="5.69078">
        <ele>326.4</ele>
        <time>2022-07-29T14:53:58Z</time>
      </trkpt>
      <trkpt lat="46.34021" lon="5.69079">
        <ele>326.4</ele>
        <time>2022-07-29T14:53:59Z</time>
      </trkpt>
      <trkpt lat="46.34027" lon="5.6908">
        <ele>326.4</ele>
        <time>2022-07-29T14:54:00Z</time>
      </trkpt>
      <trkpt lat="46.34034" lon="5.69081">
        <ele>326.4</ele>
        <time>2022-07-29T14:54:01Z</time>
      </trkpt>
      <trkpt lat="46.34041" lon="5.69082">
        <ele>326.4</ele>
        <time>2022-07-29T14:54:02Z</time>
      </trkpt>
      <trkpt lat="46.34048" lon="5.69083">
        <ele>326.4</ele>
        <time>2022-07-29T14:54:03Z</time>
      </trkpt>
      <trkpt lat="46.34054" lon="5.69084">
        <ele>326.4</ele>
        <time>2022-07-29T14:54:04Z</time>
      </trkpt>
      <trkpt lat="46.34061" lon="5.69085">
        <ele>326.4</ele>
        <time>2022-07-29T14:54:05Z</time>
      </trkpt>
      <trkpt lat="46.34068" lon="5.69086">
        <ele>326.2</ele>
        <time>2022-07-29T14:54:06Z</time>
      </trkpt>
      <trkpt lat="46.34075" lon="5.69087">
        <ele>326.2</ele>
        <time>2022-07-29T14:54:07Z</time>
      </trkpt>
      <trkpt lat="46.34081" lon="5.69088">
        <ele>326.2</ele>
        <time>2022-07-29T14:54:08Z</time>
      </trkpt>
      <trkpt lat="46.34088" lon="5.69089">
        <ele>326.2</ele>
        <time>2022-07-29T14:54:09Z</time>
      </trkpt>
      <trkpt lat="46.34095" lon="5.69091">
        <ele>326.2</ele>
        <time>2022-07-29T14:54:10Z</time>
      </trkpt>
      <trkpt lat="46.34102" lon="5.69092">
        <ele>326</ele>
        <time>2022-07-29T14:54:11Z</time>
      </trkpt>
      <trkpt lat="46.34108" lon="5.69093">
        <ele>326</ele>
        <time>2022-07-29T14:54:12Z</time>
      </trkpt>
      <trkpt lat="46.34115" lon="5.69094">
        <ele>326</ele>
        <time>2022-07-29T14:54:13Z</time>
      </trkpt>
      <trkpt lat="46.34121" lon="5.69095">
        <ele>326</ele>
        <time>2022-07-29T14:54:14Z</time>
      </trkpt>
      <trkpt lat="46.34128" lon="5.69096">
        <ele>325.8</ele>
        <time>2022-07-29T14:54:15Z</time>
      </trkpt>
      <trkpt lat="46.34134" lon="5.69097">
        <ele>325.8</ele>
        <time>2022-07-29T14:54:16Z</time>
      </trkpt>
      <trkpt lat="46.34141" lon="5.69098">
        <ele>325.8</ele>
        <time>2022-07-29T14:54:17Z</time>
      </trkpt>
      <trkpt lat="46.34148" lon="5.69099">
        <ele>325.8</ele>
        <time>2022-07-29T14:54:18Z</time>
      </trkpt>
      <trkpt lat="46.34154" lon="5.691">
        <ele>325.8</ele>
        <time>2022-07-29T14:54:19Z</time>
      </trkpt>
      <trkpt lat="46.3416" lon="5.69101">
        <ele>325.8</ele>
        <time>2022-07-29T14:54:20Z</time>
      </trkpt>
      <trkpt lat="46.34167" lon="5.69102">
        <ele>325.8</ele>
        <time>2022-07-29T14:54:21Z</time>
      </trkpt>
      <trkpt lat="46.34173" lon="5.69103">
        <ele>325.4</ele>
        <time>2022-07-29T14:54:22Z</time>
      </trkpt>
      <trkpt lat="46.34179" lon="5.69104">
        <ele>325.8</ele>
        <time>2022-07-29T14:54:23Z</time>
      </trkpt>
      <trkpt lat="46.34185" lon="5.69104">
        <ele>325.8</ele>
        <time>2022-07-29T14:54:24Z</time>
      </trkpt>
      <trkpt lat="46.34192" lon="5.69105">
        <ele>325.6</ele>
        <time>2022-07-29T14:54:25Z</time>
      </trkpt>
      <trkpt lat="46.34198" lon="5.69106">
        <ele>325.6</ele>
        <time>2022-07-29T14:54:26Z</time>
      </trkpt>
      <trkpt lat="46.34205" lon="5.69107">
        <ele>325.6</ele>
        <time>2022-07-29T14:54:27Z</time>
      </trkpt>
      <trkpt lat="46.34211" lon="5.69108">
        <ele>325.8</ele>
        <time>2022-07-29T14:54:28Z</time>
      </trkpt>
      <trkpt lat="46.34218" lon="5.69108">
        <ele>325.8</ele>
        <time>2022-07-29T14:54:29Z</time>
      </trkpt>
      <trkpt lat="46.34224" lon="5.69109">
        <ele>325.8</ele>
        <time>2022-07-29T14:54:30Z</time>
      </trkpt>
      <trkpt lat="46.3423" lon="5.6911">
        <ele>325.8</ele>
        <time>2022-07-29T14:54:31Z</time>
      </trkpt>
      <trkpt lat="46.34237" lon="5.69111">
        <ele>325.8</ele>
        <time>2022-07-29T14:54:32Z</time>
      </trkpt>
      <trkpt lat="46.34244" lon="5.69112">
        <ele>325.8</ele>
        <time>2022-07-29T14:54:33Z</time>
      </trkpt>
      <trkpt lat="46.3425" lon="5.69113">
        <ele>325.8</ele>
        <time>2022-07-29T14:54:34Z</time>
      </trkpt>
      <trkpt lat="46.34257" lon="5.69114">
        <ele>325.8</ele>
        <time>2022-07-29T14:54:35Z</time>
      </trkpt>
      <trkpt lat="46.34264" lon="5.69115">
        <ele>325.8</ele>
        <time>2022-07-29T14:54:36Z</time>
      </trkpt>
      <trkpt lat="46.3427" lon="5.69116">
        <ele>325.8</ele>
        <time>2022-07-29T14:54:37Z</time>
      </trkpt>
      <trkpt lat="46.34277" lon="5.69117">
        <ele>325.6</ele>
        <time>2022-07-29T14:54:38Z</time>
      </trkpt>
      <trkpt lat="46.34277" lon="5.69117">
        <ele>325.6</ele>
        <time>2022-07-29T14:54:39Z</time>
      </trkpt>
      <trkpt lat="46.34284" lon="5.69118">
        <ele>325.6</ele>
        <time>2022-07-29T14:54:40Z</time>
      </trkpt>
      <trkpt lat="46.3429" lon="5.69119">
        <ele>325.6</ele>
        <time>2022-07-29T14:54:41Z</time>
      </trkpt>
      <trkpt lat="46.34297" lon="5.6912">
        <ele>325.4</ele>
        <time>2022-07-29T14:54:42Z</time>
      </trkpt>
      <trkpt lat="46.34304" lon="5.69121">
        <ele>325.4</ele>
        <time>2022-07-29T14:54:43Z</time>
      </trkpt>
      <trkpt lat="46.34311" lon="5.69122">
        <ele>325.2</ele>
        <time>2022-07-29T14:54:44Z</time>
      </trkpt>
      <trkpt lat="46.34318" lon="5.69123">
        <ele>325.2</ele>
        <time>2022-07-29T14:54:45Z</time>
      </trkpt>
      <trkpt lat="46.34324" lon="5.69123">
        <ele>325.2</ele>
        <time>2022-07-29T14:54:46Z</time>
      </trkpt>
      <trkpt lat="46.34331" lon="5.69124">
        <ele>325.2</ele>
        <time>2022-07-29T14:54:47Z</time>
      </trkpt>
      <trkpt lat="46.34337" lon="5.69125">
        <ele>325.2</ele>
        <time>2022-07-29T14:54:48Z</time>
      </trkpt>
      <trkpt lat="46.34344" lon="5.69126">
        <ele>325.2</ele>
        <time>2022-07-29T14:54:49Z</time>
      </trkpt>
      <trkpt lat="46.3435" lon="5.69127">
        <ele>325.2</ele>
        <time>2022-07-29T14:54:50Z</time>
      </trkpt>
      <trkpt lat="46.34357" lon="5.69128">
        <ele>325.2</ele>
        <time>2022-07-29T14:54:51Z</time>
      </trkpt>
      <trkpt lat="46.34363" lon="5.69128">
        <ele>325.2</ele>
        <time>2022-07-29T14:54:52Z</time>
      </trkpt>
      <trkpt lat="46.34369" lon="5.69129">
        <ele>325.2</ele>
        <time>2022-07-29T14:54:53Z</time>
      </trkpt>
      <trkpt lat="46.34375" lon="5.6913">
        <ele>324.8</ele>
        <time>2022-07-29T14:54:54Z</time>
      </trkpt>
      <trkpt lat="46.34381" lon="5.6913">
        <ele>324.8</ele>
        <time>2022-07-29T14:54:55Z</time>
      </trkpt>
      <trkpt lat="46.34387" lon="5.69131">
        <ele>324.8</ele>
        <time>2022-07-29T14:54:56Z</time>
      </trkpt>
      <trkpt lat="46.34393" lon="5.69131">
        <ele>324.8</ele>
        <time>2022-07-29T14:54:57Z</time>
      </trkpt>
      <trkpt lat="46.34399" lon="5.69131">
        <ele>324.8</ele>
        <time>2022-07-29T14:54:58Z</time>
      </trkpt>
      <trkpt lat="46.34405" lon="5.69132">
        <ele>324.8</ele>
        <time>2022-07-29T14:54:59Z</time>
      </trkpt>
      <trkpt lat="46.34412" lon="5.69132">
        <ele>324.8</ele>
        <time>2022-07-29T14:55:00Z</time>
      </trkpt>
      <trkpt lat="46.34418" lon="5.69132">
        <ele>324.8</ele>
        <time>2022-07-29T14:55:01Z</time>
      </trkpt>
      <trkpt lat="46.34424" lon="5.69132">
        <ele>324.8</ele>
        <time>2022-07-29T14:55:02Z</time>
      </trkpt>
      <trkpt lat="46.3443" lon="5.69132">
        <ele>324.6</ele>
        <time>2022-07-29T14:55:03Z</time>
      </trkpt>
      <trkpt lat="46.34437" lon="5.69132">
        <ele>324.6</ele>
        <time>2022-07-29T14:55:04Z</time>
      </trkpt>
      <trkpt lat="46.34443" lon="5.69132">
        <ele>324.6</ele>
        <time>2022-07-29T14:55:05Z</time>
      </trkpt>
      <trkpt lat="46.34449" lon="5.69132">
        <ele>324.6</ele>
        <time>2022-07-29T14:55:06Z</time>
      </trkpt>
      <trkpt lat="46.34456" lon="5.69132">
        <ele>324.6</ele>
        <time>2022-07-29T14:55:07Z</time>
      </trkpt>
      <trkpt lat="46.34462" lon="5.69133">
        <ele>324.6</ele>
        <time>2022-07-29T14:55:08Z</time>
      </trkpt>
      <trkpt lat="46.34468" lon="5.69133">
        <ele>324.4</ele>
        <time>2022-07-29T14:55:09Z</time>
      </trkpt>
      <trkpt lat="46.34474" lon="5.69133">
        <ele>324.4</ele>
        <time>2022-07-29T14:55:10Z</time>
      </trkpt>
      <trkpt lat="46.3448" lon="5.69133">
        <ele>324.4</ele>
        <time>2022-07-29T14:55:11Z</time>
      </trkpt>
      <trkpt lat="46.34487" lon="5.69134">
        <ele>324.4</ele>
        <time>2022-07-29T14:55:12Z</time>
      </trkpt>
      <trkpt lat="46.34493" lon="5.69134">
        <ele>324.2</ele>
        <time>2022-07-29T14:55:13Z</time>
      </trkpt>
      <trkpt lat="46.34499" lon="5.69135">
        <ele>324.2</ele>
        <time>2022-07-29T14:55:14Z</time>
      </trkpt>
      <trkpt lat="46.34505" lon="5.69136">
        <ele>324.2</ele>
        <time>2022-07-29T14:55:15Z</time>
      </trkpt>
      <trkpt lat="46.34511" lon="5.69137">
        <ele>324.4</ele>
        <time>2022-07-29T14:55:16Z</time>
      </trkpt>
      <trkpt lat="46.34517" lon="5.69137">
        <ele>324.4</ele>
        <time>2022-07-29T14:55:17Z</time>
      </trkpt>
      <trkpt lat="46.34522" lon="5.69137">
        <ele>324.4</ele>
        <time>2022-07-29T14:55:18Z</time>
      </trkpt>
      <trkpt lat="46.34528" lon="5.69138">
        <ele>324.4</ele>
        <time>2022-07-29T14:55:19Z</time>
      </trkpt>
      <trkpt lat="46.34533" lon="5.69139">
        <ele>324.4</ele>
        <time>2022-07-29T14:55:20Z</time>
      </trkpt>
      <trkpt lat="46.34539" lon="5.6914">
        <ele>324.4</ele>
        <time>2022-07-29T14:55:21Z</time>
      </trkpt>
      <trkpt lat="46.34545" lon="5.69141">
        <ele>324.4</ele>
        <time>2022-07-29T14:55:22Z</time>
      </trkpt>
      <trkpt lat="46.3455" lon="5.69142">
        <ele>324.4</ele>
        <time>2022-07-29T14:55:23Z</time>
      </trkpt>
      <trkpt lat="46.34556" lon="5.69143">
        <ele>324.4</ele>
        <time>2022-07-29T14:55:24Z</time>
      </trkpt>
      <trkpt lat="46.34562" lon="5.69145">
        <ele>324.4</ele>
        <time>2022-07-29T14:55:25Z</time>
      </trkpt>
      <trkpt lat="46.34568" lon="5.69146">
        <ele>324.4</ele>
        <time>2022-07-29T14:55:26Z</time>
      </trkpt>
      <trkpt lat="46.34573" lon="5.69148">
        <ele>324.4</ele>
        <time>2022-07-29T14:55:27Z</time>
      </trkpt>
      <trkpt lat="46.34579" lon="5.6915">
        <ele>324.4</ele>
        <time>2022-07-29T14:55:28Z</time>
      </trkpt>
      <trkpt lat="46.34585" lon="5.69152">
        <ele>324.4</ele>
        <time>2022-07-29T14:55:29Z</time>
      </trkpt>
      <trkpt lat="46.3459" lon="5.69154">
        <ele>324.4</ele>
        <time>2022-07-29T14:55:30Z</time>
      </trkpt>
      <trkpt lat="46.34596" lon="5.69156">
        <ele>325.8</ele>
        <time>2022-07-29T14:55:31Z</time>
      </trkpt>
      <trkpt lat="46.34602" lon="5.69158">
        <ele>325.8</ele>
        <time>2022-07-29T14:55:32Z</time>
      </trkpt>
      <trkpt lat="46.34608" lon="5.69161">
        <ele>325.8</ele>
        <time>2022-07-29T14:55:33Z</time>
      </trkpt>
      <trkpt lat="46.34614" lon="5.69163">
        <ele>325.8</ele>
        <time>2022-07-29T14:55:34Z</time>
      </trkpt>
      <trkpt lat="46.34619" lon="5.69166">
        <ele>325.6</ele>
        <time>2022-07-29T14:55:35Z</time>
      </trkpt>
      <trkpt lat="46.34625" lon="5.69168">
        <ele>325.6</ele>
        <time>2022-07-29T14:55:36Z</time>
      </trkpt>
      <trkpt lat="46.34631" lon="5.69171">
        <ele>325.2</ele>
        <time>2022-07-29T14:55:37Z</time>
      </trkpt>
      <trkpt lat="46.34637" lon="5.69174">
        <ele>325.2</ele>
        <time>2022-07-29T14:55:38Z</time>
      </trkpt>
      <trkpt lat="46.34642" lon="5.69176">
        <ele>325.2</ele>
        <time>2022-07-29T14:55:39Z</time>
      </trkpt>
      <trkpt lat="46.34648" lon="5.69179">
        <ele>325.2</ele>
        <time>2022-07-29T14:55:40Z</time>
      </trkpt>
      <trkpt lat="46.34653" lon="5.69181">
        <ele>325.2</ele>
        <time>2022-07-29T14:55:41Z</time>
      </trkpt>
      <trkpt lat="46.34659" lon="5.69184">
        <ele>325.2</ele>
        <time>2022-07-29T14:55:42Z</time>
      </trkpt>
      <trkpt lat="46.34664" lon="5.69186">
        <ele>325.2</ele>
        <time>2022-07-29T14:55:43Z</time>
      </trkpt>
      <trkpt lat="46.3467" lon="5.69189">
        <ele>325.4</ele>
        <time>2022-07-29T14:55:44Z</time>
      </trkpt>
      <trkpt lat="46.34676" lon="5.69192">
        <ele>325.4</ele>
        <time>2022-07-29T14:55:45Z</time>
      </trkpt>
      <trkpt lat="46.34681" lon="5.69195">
        <ele>325.4</ele>
        <time>2022-07-29T14:55:46Z</time>
      </trkpt>
      <trkpt lat="46.34687" lon="5.69197">
        <ele>325.4</ele>
        <time>2022-07-29T14:55:47Z</time>
      </trkpt>
      <trkpt lat="46.34692" lon="5.692">
        <ele>325.8</ele>
        <time>2022-07-29T14:55:48Z</time>
      </trkpt>
      <trkpt lat="46.34698" lon="5.69203">
        <ele>325.8</ele>
        <time>2022-07-29T14:55:49Z</time>
      </trkpt>
      <trkpt lat="46.34704" lon="5.69206">
        <ele>325.8</ele>
        <time>2022-07-29T14:55:50Z</time>
      </trkpt>
      <trkpt lat="46.34709" lon="5.69209">
        <ele>325.8</ele>
        <time>2022-07-29T14:55:51Z</time>
      </trkpt>
      <trkpt lat="46.34715" lon="5.69212">
        <ele>325.8</ele>
        <time>2022-07-29T14:55:52Z</time>
      </trkpt>
      <trkpt lat="46.34721" lon="5.69214">
        <ele>325.8</ele>
        <time>2022-07-29T14:55:53Z</time>
      </trkpt>
      <trkpt lat="46.34726" lon="5.69217">
        <ele>325.8</ele>
        <time>2022-07-29T14:55:54Z</time>
      </trkpt>
      <trkpt lat="46.34732" lon="5.6922">
        <ele>326</ele>
        <time>2022-07-29T14:55:55Z</time>
      </trkpt>
      <trkpt lat="46.34738" lon="5.69223">
        <ele>326</ele>
        <time>2022-07-29T14:55:56Z</time>
      </trkpt>
      <trkpt lat="46.34744" lon="5.69226">
        <ele>326</ele>
        <time>2022-07-29T14:55:57Z</time>
      </trkpt>
      <trkpt lat="46.3475" lon="5.69228">
        <ele>326</ele>
        <time>2022-07-29T14:55:58Z</time>
      </trkpt>
      <trkpt lat="46.34756" lon="5.69232">
        <ele>326.2</ele>
        <time>2022-07-29T14:55:59Z</time>
      </trkpt>
      <trkpt lat="46.34761" lon="5.69235">
        <ele>326.2</ele>
        <time>2022-07-29T14:56:00Z</time>
      </trkpt>
      <trkpt lat="46.34767" lon="5.69238">
        <ele>326.2</ele>
        <time>2022-07-29T14:56:01Z</time>
      </trkpt>
      <trkpt lat="46.34773" lon="5.69241">
        <ele>326.2</ele>
        <time>2022-07-29T14:56:02Z</time>
      </trkpt>
      <trkpt lat="46.34779" lon="5.69244">
        <ele>326.2</ele>
        <time>2022-07-29T14:56:03Z</time>
      </trkpt>
      <trkpt lat="46.34785" lon="5.69247">
        <ele>326.2</ele>
        <time>2022-07-29T14:56:04Z</time>
      </trkpt>
      <trkpt lat="46.34791" lon="5.6925">
        <ele>326.2</ele>
        <time>2022-07-29T14:56:05Z</time>
      </trkpt>
      <trkpt lat="46.34796" lon="5.69253">
        <ele>326.2</ele>
        <time>2022-07-29T14:56:06Z</time>
      </trkpt>
      <trkpt lat="46.34802" lon="5.69256">
        <ele>326.2</ele>
        <time>2022-07-29T14:56:07Z</time>
      </trkpt>
      <trkpt lat="46.34808" lon="5.69259">
        <ele>326.2</ele>
        <time>2022-07-29T14:56:08Z</time>
      </trkpt>
      <trkpt lat="46.34814" lon="5.69262">
        <ele>326.2</ele>
        <time>2022-07-29T14:56:09Z</time>
      </trkpt>
      <trkpt lat="46.34819" lon="5.69265">
        <ele>326.2</ele>
        <time>2022-07-29T14:56:10Z</time>
      </trkpt>
      <trkpt lat="46.34825" lon="5.69269">
        <ele>326.2</ele>
        <time>2022-07-29T14:56:11Z</time>
      </trkpt>
      <trkpt lat="46.34831" lon="5.69272">
        <ele>326.2</ele>
        <time>2022-07-29T14:56:12Z</time>
      </trkpt>
      <trkpt lat="46.34837" lon="5.69275">
        <ele>326.2</ele>
        <time>2022-07-29T14:56:13Z</time>
      </trkpt>
      <trkpt lat="46.34843" lon="5.69278">
        <ele>326.2</ele>
        <time>2022-07-29T14:56:14Z</time>
      </trkpt>
      <trkpt lat="46.34849" lon="5.6928">
        <ele>326.2</ele>
        <time>2022-07-29T14:56:15Z</time>
      </trkpt>
      <trkpt lat="46.34855" lon="5.69283">
        <ele>326.2</ele>
        <time>2022-07-29T14:56:16Z</time>
      </trkpt>
      <trkpt lat="46.34861" lon="5.69285">
        <ele>326.2</ele>
        <time>2022-07-29T14:56:17Z</time>
      </trkpt>
      <trkpt lat="46.34867" lon="5.69286">
        <ele>326.2</ele>
        <time>2022-07-29T14:56:18Z</time>
      </trkpt>
      <trkpt lat="46.34873" lon="5.69288">
        <ele>326.2</ele>
        <time>2022-07-29T14:56:19Z</time>
      </trkpt>
      <trkpt lat="46.3488" lon="5.6929">
        <ele>326.2</ele>
        <time>2022-07-29T14:56:20Z</time>
      </trkpt>
      <trkpt lat="46.34886" lon="5.69291">
        <ele>326.2</ele>
        <time>2022-07-29T14:56:21Z</time>
      </trkpt>
      <trkpt lat="46.34893" lon="5.69292">
        <ele>326.2</ele>
        <time>2022-07-29T14:56:22Z</time>
      </trkpt>
      <trkpt lat="46.34899" lon="5.69293">
        <ele>326.2</ele>
        <time>2022-07-29T14:56:23Z</time>
      </trkpt>
      <trkpt lat="46.34906" lon="5.69293">
        <ele>326.2</ele>
        <time>2022-07-29T14:56:24Z</time>
      </trkpt>
      <trkpt lat="46.34912" lon="5.69293">
        <ele>326.2</ele>
        <time>2022-07-29T14:56:25Z</time>
      </trkpt>
      <trkpt lat="46.34919" lon="5.69292">
        <ele>325.8</ele>
        <time>2022-07-29T14:56:26Z</time>
      </trkpt>
      <trkpt lat="46.34926" lon="5.69291">
        <ele>325.8</ele>
        <time>2022-07-29T14:56:27Z</time>
      </trkpt>
      <trkpt lat="46.34932" lon="5.69289">
        <ele>325.6</ele>
        <time>2022-07-29T14:56:28Z</time>
      </trkpt>
      <trkpt lat="46.34939" lon="5.69287">
        <ele>325.6</ele>
        <time>2022-07-29T14:56:29Z</time>
      </trkpt>
      <trkpt lat="46.34946" lon="5.69284">
        <ele>325.6</ele>
        <time>2022-07-29T14:56:30Z</time>
      </trkpt>
      <trkpt lat="46.34952" lon="5.69281">
        <ele>325.4</ele>
        <time>2022-07-29T14:56:31Z</time>
      </trkpt>
      <trkpt lat="46.34959" lon="5.69279">
        <ele>325.4</ele>
        <time>2022-07-29T14:56:32Z</time>
      </trkpt>
      <trkpt lat="46.34965" lon="5.69276">
        <ele>325.4</ele>
        <time>2022-07-29T14:56:33Z</time>
      </trkpt>
      <trkpt lat="46.34972" lon="5.69273">
        <ele>325.4</ele>
        <time>2022-07-29T14:56:34Z</time>
      </trkpt>
      <trkpt lat="46.34978" lon="5.6927">
        <ele>325.4</ele>
        <time>2022-07-29T14:56:35Z</time>
      </trkpt>
      <trkpt lat="46.34985" lon="5.69267">
        <ele>325.2</ele>
        <time>2022-07-29T14:56:36Z</time>
      </trkpt>
      <trkpt lat="46.34991" lon="5.69263">
        <ele>325.2</ele>
        <time>2022-07-29T14:56:37Z</time>
      </trkpt>
      <trkpt lat="46.34998" lon="5.6926">
        <ele>325.2</ele>
        <time>2022-07-29T14:56:38Z</time>
      </trkpt>
      <trkpt lat="46.35004" lon="5.69257">
        <ele>325</ele>
        <time>2022-07-29T14:56:39Z</time>
      </trkpt>
      <trkpt lat="46.3501" lon="5.69254">
        <ele>325</ele>
        <time>2022-07-29T14:56:40Z</time>
      </trkpt>
      <trkpt lat="46.35017" lon="5.69251">
        <ele>325</ele>
        <time>2022-07-29T14:56:41Z</time>
      </trkpt>
      <trkpt lat="46.35023" lon="5.69248">
        <ele>325</ele>
        <time>2022-07-29T14:56:42Z</time>
      </trkpt>
      <trkpt lat="46.35029" lon="5.69245">
        <ele>325</ele>
        <time>2022-07-29T14:56:43Z</time>
      </trkpt>
      <trkpt lat="46.35035" lon="5.69242">
        <ele>325</ele>
        <time>2022-07-29T14:56:44Z</time>
      </trkpt>
      <trkpt lat="46.35042" lon="5.69239">
        <ele>325</ele>
        <time>2022-07-29T14:56:45Z</time>
      </trkpt>
      <trkpt lat="46.35048" lon="5.69237">
        <ele>325</ele>
        <time>2022-07-29T14:56:46Z</time>
      </trkpt>
      <trkpt lat="46.35054" lon="5.69234">
        <ele>325</ele>
        <time>2022-07-29T14:56:47Z</time>
      </trkpt>
      <trkpt lat="46.3506" lon="5.69232">
        <ele>325</ele>
        <time>2022-07-29T14:56:48Z</time>
      </trkpt>
      <trkpt lat="46.35066" lon="5.6923">
        <ele>324.6</ele>
        <time>2022-07-29T14:56:49Z</time>
      </trkpt>
      <trkpt lat="46.35072" lon="5.69228">
        <ele>324.6</ele>
        <time>2022-07-29T14:56:50Z</time>
      </trkpt>
      <trkpt lat="46.35078" lon="5.69226">
        <ele>324.6</ele>
        <time>2022-07-29T14:56:51Z</time>
      </trkpt>
      <trkpt lat="46.35084" lon="5.69225">
        <ele>324.6</ele>
        <time>2022-07-29T14:56:52Z</time>
      </trkpt>
      <trkpt lat="46.3509" lon="5.69223">
        <ele>324.6</ele>
        <time>2022-07-29T14:56:53Z</time>
      </trkpt>
      <trkpt lat="46.35096" lon="5.69223">
        <ele>324.6</ele>
        <time>2022-07-29T14:56:54Z</time>
      </trkpt>
      <trkpt lat="46.35102" lon="5.69222">
        <ele>324.8</ele>
        <time>2022-07-29T14:56:55Z</time>
      </trkpt>
      <trkpt lat="46.35108" lon="5.69221">
        <ele>324.8</ele>
        <time>2022-07-29T14:56:56Z</time>
      </trkpt>
      <trkpt lat="46.35113" lon="5.6922">
        <ele>324.8</ele>
        <time>2022-07-29T14:56:57Z</time>
      </trkpt>
      <trkpt lat="46.35119" lon="5.6922">
        <ele>324.8</ele>
        <time>2022-07-29T14:56:58Z</time>
      </trkpt>
      <trkpt lat="46.35125" lon="5.69219">
        <ele>325.2</ele>
        <time>2022-07-29T14:56:59Z</time>
      </trkpt>
      <trkpt lat="46.3513" lon="5.69219">
        <ele>325.2</ele>
        <time>2022-07-29T14:57:00Z</time>
      </trkpt>
      <trkpt lat="46.35136" lon="5.69218">
        <ele>325.2</ele>
        <time>2022-07-29T14:57:01Z</time>
      </trkpt>
      <trkpt lat="46.35141" lon="5.69218">
        <ele>325.6</ele>
        <time>2022-07-29T14:57:02Z</time>
      </trkpt>
      <trkpt lat="46.35147" lon="5.69218">
        <ele>325.6</ele>
        <time>2022-07-29T14:57:03Z</time>
      </trkpt>
      <trkpt lat="46.35153" lon="5.69218">
        <ele>326</ele>
        <time>2022-07-29T14:57:04Z</time>
      </trkpt>
      <trkpt lat="46.35158" lon="5.69219">
        <ele>326</ele>
        <time>2022-07-29T14:57:05Z</time>
      </trkpt>
      <trkpt lat="46.35164" lon="5.69219">
        <ele>326</ele>
        <time>2022-07-29T14:57:06Z</time>
      </trkpt>
      <trkpt lat="46.35169" lon="5.6922">
        <ele>326.4</ele>
        <time>2022-07-29T14:57:07Z</time>
      </trkpt>
      <trkpt lat="46.35175" lon="5.6922">
        <ele>326.4</ele>
        <time>2022-07-29T14:57:08Z</time>
      </trkpt>
      <trkpt lat="46.3518" lon="5.69221">
        <ele>326.4</ele>
        <time>2022-07-29T14:57:09Z</time>
      </trkpt>
      <trkpt lat="46.35191" lon="5.69223">
        <ele>326.4</ele>
        <time>2022-07-29T14:57:10Z</time>
      </trkpt>
      <trkpt lat="46.35197" lon="5.69225">
        <ele>326.4</ele>
        <time>2022-07-29T14:57:11Z</time>
      </trkpt>
      <trkpt lat="46.35202" lon="5.69226">
        <ele>326.4</ele>
        <time>2022-07-29T14:57:12Z</time>
      </trkpt>
      <trkpt lat="46.35208" lon="5.69227">
        <ele>326.4</ele>
        <time>2022-07-29T14:57:13Z</time>
      </trkpt>
      <trkpt lat="46.35213" lon="5.69228">
        <ele>326.8</ele>
        <time>2022-07-29T14:57:14Z</time>
      </trkpt>
      <trkpt lat="46.35218" lon="5.6923">
        <ele>326.8</ele>
        <time>2022-07-29T14:57:15Z</time>
      </trkpt>
      <trkpt lat="46.35224" lon="5.69232">
        <ele>326.8</ele>
        <time>2022-07-29T14:57:16Z</time>
      </trkpt>
      <trkpt lat="46.35229" lon="5.69234">
        <ele>327</ele>
        <time>2022-07-29T14:57:17Z</time>
      </trkpt>
      <trkpt lat="46.35235" lon="5.69236">
        <ele>327</ele>
        <time>2022-07-29T14:57:18Z</time>
      </trkpt>
      <trkpt lat="46.35241" lon="5.69238">
        <ele>327.2</ele>
        <time>2022-07-29T14:57:19Z</time>
      </trkpt>
      <trkpt lat="46.35246" lon="5.6924">
        <ele>327.2</ele>
        <time>2022-07-29T14:57:20Z</time>
      </trkpt>
      <trkpt lat="46.35252" lon="5.69243">
        <ele>327.2</ele>
        <time>2022-07-29T14:57:21Z</time>
      </trkpt>
      <trkpt lat="46.35257" lon="5.69245">
        <ele>327.2</ele>
        <time>2022-07-29T14:57:22Z</time>
      </trkpt>
      <trkpt lat="46.35263" lon="5.69248">
        <ele>327.6</ele>
        <time>2022-07-29T14:57:23Z</time>
      </trkpt>
      <trkpt lat="46.35268" lon="5.69251">
        <ele>327.6</ele>
        <time>2022-07-29T14:57:24Z</time>
      </trkpt>
      <trkpt lat="46.35274" lon="5.69254">
        <ele>327.6</ele>
        <time>2022-07-29T14:57:25Z</time>
      </trkpt>
      <trkpt lat="46.35279" lon="5.69258">
        <ele>327.6</ele>
        <time>2022-07-29T14:57:26Z</time>
      </trkpt>
      <trkpt lat="46.35285" lon="5.69261">
        <ele>327.6</ele>
        <time>2022-07-29T14:57:27Z</time>
      </trkpt>
      <trkpt lat="46.3529" lon="5.69265">
        <ele>327.6</ele>
        <time>2022-07-29T14:57:28Z</time>
      </trkpt>
      <trkpt lat="46.35295" lon="5.69268">
        <ele>327.6</ele>
        <time>2022-07-29T14:57:29Z</time>
      </trkpt>
      <trkpt lat="46.35301" lon="5.69272">
        <ele>327.8</ele>
        <time>2022-07-29T14:57:30Z</time>
      </trkpt>
      <trkpt lat="46.35306" lon="5.69275">
        <ele>327.8</ele>
        <time>2022-07-29T14:57:31Z</time>
      </trkpt>
      <trkpt lat="46.35311" lon="5.69279">
        <ele>327.8</ele>
        <time>2022-07-29T14:57:32Z</time>
      </trkpt>
      <trkpt lat="46.35317" lon="5.69283">
        <ele>327.6</ele>
        <time>2022-07-29T14:57:33Z</time>
      </trkpt>
      <trkpt lat="46.35322" lon="5.69288">
        <ele>327.6</ele>
        <time>2022-07-29T14:57:34Z</time>
      </trkpt>
      <trkpt lat="46.35327" lon="5.69293">
        <ele>327.6</ele>
        <time>2022-07-29T14:57:35Z</time>
      </trkpt>
      <trkpt lat="46.35333" lon="5.69297">
        <ele>327.6</ele>
        <time>2022-07-29T14:57:36Z</time>
      </trkpt>
      <trkpt lat="46.35338" lon="5.69303">
        <ele>327.8</ele>
        <time>2022-07-29T14:57:37Z</time>
      </trkpt>
      <trkpt lat="46.35343" lon="5.69308">
        <ele>327.8</ele>
        <time>2022-07-29T14:57:38Z</time>
      </trkpt>
      <trkpt lat="46.35349" lon="5.69313">
        <ele>327.8</ele>
        <time>2022-07-29T14:57:39Z</time>
      </trkpt>
      <trkpt lat="46.35354" lon="5.69319">
        <ele>327.6</ele>
        <time>2022-07-29T14:57:40Z</time>
      </trkpt>
      <trkpt lat="46.35359" lon="5.69325">
        <ele>327.2</ele>
        <time>2022-07-29T14:57:41Z</time>
      </trkpt>
      <trkpt lat="46.35364" lon="5.69331">
        <ele>327.2</ele>
        <time>2022-07-29T14:57:42Z</time>
      </trkpt>
      <trkpt lat="46.35369" lon="5.69337">
        <ele>327.2</ele>
        <time>2022-07-29T14:57:43Z</time>
      </trkpt>
      <trkpt lat="46.35375" lon="5.69343">
        <ele>327.2</ele>
        <time>2022-07-29T14:57:44Z</time>
      </trkpt>
      <trkpt lat="46.3538" lon="5.69349">
        <ele>327.2</ele>
        <time>2022-07-29T14:57:45Z</time>
      </trkpt>
      <trkpt lat="46.35385" lon="5.69355">
        <ele>327.2</ele>
        <time>2022-07-29T14:57:46Z</time>
      </trkpt>
      <trkpt lat="46.3539" lon="5.69362">
        <ele>327.2</ele>
        <time>2022-07-29T14:57:47Z</time>
      </trkpt>
      <trkpt lat="46.35395" lon="5.69369">
        <ele>327.2</ele>
        <time>2022-07-29T14:57:48Z</time>
      </trkpt>
      <trkpt lat="46.354" lon="5.69376">
        <ele>327.2</ele>
        <time>2022-07-29T14:57:49Z</time>
      </trkpt>
      <trkpt lat="46.35405" lon="5.69384">
        <ele>327</ele>
        <time>2022-07-29T14:57:50Z</time>
      </trkpt>
      <trkpt lat="46.3541" lon="5.69391">
        <ele>327</ele>
        <time>2022-07-29T14:57:51Z</time>
      </trkpt>
      <trkpt lat="46.35415" lon="5.69399">
        <ele>326.6</ele>
        <time>2022-07-29T14:57:52Z</time>
      </trkpt>
      <trkpt lat="46.3542" lon="5.69407">
        <ele>326.6</ele>
        <time>2022-07-29T14:57:53Z</time>
      </trkpt>
      <trkpt lat="46.35426" lon="5.69414">
        <ele>326.4</ele>
        <time>2022-07-29T14:57:54Z</time>
      </trkpt>
      <trkpt lat="46.35431" lon="5.69422">
        <ele>326.4</ele>
        <time>2022-07-29T14:57:55Z</time>
      </trkpt>
      <trkpt lat="46.35436" lon="5.69429">
        <ele>326.2</ele>
        <time>2022-07-29T14:57:56Z</time>
      </trkpt>
      <trkpt lat="46.35441" lon="5.69437">
        <ele>326.2</ele>
        <time>2022-07-29T14:57:57Z</time>
      </trkpt>
      <trkpt lat="46.35446" lon="5.69445">
        <ele>326.2</ele>
        <time>2022-07-29T14:57:58Z</time>
      </trkpt>
      <trkpt lat="46.35452" lon="5.69452">
        <ele>326.2</ele>
        <time>2022-07-29T14:57:59Z</time>
      </trkpt>
      <trkpt lat="46.35457" lon="5.6946">
        <ele>326</ele>
        <time>2022-07-29T14:58:00Z</time>
      </trkpt>
      <trkpt lat="46.35462" lon="5.69468">
        <ele>326</ele>
        <time>2022-07-29T14:58:01Z</time>
      </trkpt>
      <trkpt lat="46.35467" lon="5.69475">
        <ele>326</ele>
        <time>2022-07-29T14:58:02Z</time>
      </trkpt>
      <trkpt lat="46.35467" lon="5.69475">
        <ele>326</ele>
        <time>2022-07-29T14:58:03Z</time>
      </trkpt>
      <trkpt lat="46.35473" lon="5.69483">
        <ele>325.6</ele>
        <time>2022-07-29T14:58:04Z</time>
      </trkpt>
      <trkpt lat="46.35478" lon="5.69491">
        <ele>325.6</ele>
        <time>2022-07-29T14:58:05Z</time>
      </trkpt>
      <trkpt lat="46.35483" lon="5.69498">
        <ele>325.6</ele>
        <time>2022-07-29T14:58:06Z</time>
      </trkpt>
      <trkpt lat="46.35488" lon="5.69506">
        <ele>325.6</ele>
        <time>2022-07-29T14:58:07Z</time>
      </trkpt>
      <trkpt lat="46.35493" lon="5.69514">
        <ele>325.6</ele>
        <time>2022-07-29T14:58:08Z</time>
      </trkpt>
      <trkpt lat="46.35498" lon="5.69521">
        <ele>325.6</ele>
        <time>2022-07-29T14:58:09Z</time>
      </trkpt>
      <trkpt lat="46.35503" lon="5.69529">
        <ele>325.6</ele>
        <time>2022-07-29T14:58:10Z</time>
      </trkpt>
      <trkpt lat="46.35508" lon="5.69536">
        <ele>325.6</ele>
        <time>2022-07-29T14:58:11Z</time>
      </trkpt>
      <trkpt lat="46.35513" lon="5.69543">
        <ele>325.6</ele>
        <time>2022-07-29T14:58:12Z</time>
      </trkpt>
      <trkpt lat="46.35518" lon="5.6955">
        <ele>325.6</ele>
        <time>2022-07-29T14:58:13Z</time>
      </trkpt>
      <trkpt lat="46.35523" lon="5.69557">
        <ele>325.6</ele>
        <time>2022-07-29T14:58:14Z</time>
      </trkpt>
      <trkpt lat="46.35528" lon="5.69565">
        <ele>325.8</ele>
        <time>2022-07-29T14:58:15Z</time>
      </trkpt>
      <trkpt lat="46.35533" lon="5.69571">
        <ele>325.8</ele>
        <time>2022-07-29T14:58:16Z</time>
      </trkpt>
      <trkpt lat="46.35537" lon="5.69578">
        <ele>325.8</ele>
        <time>2022-07-29T14:58:17Z</time>
      </trkpt>
      <trkpt lat="46.35542" lon="5.69585">
        <ele>325.8</ele>
        <time>2022-07-29T14:58:18Z</time>
      </trkpt>
      <trkpt lat="46.35547" lon="5.69592">
        <ele>325.8</ele>
        <time>2022-07-29T14:58:19Z</time>
      </trkpt>
      <trkpt lat="46.35552" lon="5.69599">
        <ele>326.2</ele>
        <time>2022-07-29T14:58:20Z</time>
      </trkpt>
      <trkpt lat="46.35556" lon="5.69606">
        <ele>326.2</ele>
        <time>2022-07-29T14:58:21Z</time>
      </trkpt>
      <trkpt lat="46.35561" lon="5.69613">
        <ele>326.2</ele>
        <time>2022-07-29T14:58:22Z</time>
      </trkpt>
      <trkpt lat="46.35566" lon="5.6962">
        <ele>326.2</ele>
        <time>2022-07-29T14:58:23Z</time>
      </trkpt>
      <trkpt lat="46.3557" lon="5.69627">
        <ele>326.4</ele>
        <time>2022-07-29T14:58:24Z</time>
      </trkpt>
      <trkpt lat="46.35575" lon="5.69634">
        <ele>326.4</ele>
        <time>2022-07-29T14:58:25Z</time>
      </trkpt>
      <trkpt lat="46.35579" lon="5.69642">
        <ele>326.4</ele>
        <time>2022-07-29T14:58:26Z</time>
      </trkpt>
      <trkpt lat="46.35583" lon="5.69649">
        <ele>326.4</ele>
        <time>2022-07-29T14:58:27Z</time>
      </trkpt>
      <trkpt lat="46.35588" lon="5.69656">
        <ele>326.4</ele>
        <time>2022-07-29T14:58:28Z</time>
      </trkpt>
      <trkpt lat="46.35592" lon="5.69663">
        <ele>326.4</ele>
        <time>2022-07-29T14:58:29Z</time>
      </trkpt>
      <trkpt lat="46.35596" lon="5.6967">
        <ele>326.6</ele>
        <time>2022-07-29T14:58:30Z</time>
      </trkpt>
      <trkpt lat="46.356" lon="5.69678">
        <ele>326.6</ele>
        <time>2022-07-29T14:58:31Z</time>
      </trkpt>
      <trkpt lat="46.35604" lon="5.69685">
        <ele>326.6</ele>
        <time>2022-07-29T14:58:32Z</time>
      </trkpt>
      <trkpt lat="46.35609" lon="5.69692">
        <ele>326.6</ele>
        <time>2022-07-29T14:58:33Z</time>
      </trkpt>
      <trkpt lat="46.35613" lon="5.69699">
        <ele>326.6</ele>
        <time>2022-07-29T14:58:34Z</time>
      </trkpt>
      <trkpt lat="46.35616" lon="5.69707">
        <ele>326.6</ele>
        <time>2022-07-29T14:58:35Z</time>
      </trkpt>
      <trkpt lat="46.3562" lon="5.69714">
        <ele>326.6</ele>
        <time>2022-07-29T14:58:36Z</time>
      </trkpt>
      <trkpt lat="46.35625" lon="5.69721">
        <ele>326.6</ele>
        <time>2022-07-29T14:58:37Z</time>
      </trkpt>
      <trkpt lat="46.35629" lon="5.69728">
        <ele>326.6</ele>
        <time>2022-07-29T14:58:38Z</time>
      </trkpt>
      <trkpt lat="46.35632" lon="5.69735">
        <ele>326.8</ele>
        <time>2022-07-29T14:58:39Z</time>
      </trkpt>
      <trkpt lat="46.35636" lon="5.69742">
        <ele>326.8</ele>
        <time>2022-07-29T14:58:40Z</time>
      </trkpt>
      <trkpt lat="46.35641" lon="5.69749">
        <ele>327</ele>
        <time>2022-07-29T14:58:41Z</time>
      </trkpt>
      <trkpt lat="46.35645" lon="5.69756">
        <ele>327</ele>
        <time>2022-07-29T14:58:42Z</time>
      </trkpt>
      <trkpt lat="46.35649" lon="5.69763">
        <ele>327</ele>
        <time>2022-07-29T14:58:43Z</time>
      </trkpt>
      <trkpt lat="46.35653" lon="5.69769">
        <ele>327.4</ele>
        <time>2022-07-29T14:58:44Z</time>
      </trkpt>
      <trkpt lat="46.35662" lon="5.69783">
        <ele>327.4</ele>
        <time>2022-07-29T14:58:45Z</time>
      </trkpt>
      <trkpt lat="46.35666" lon="5.69789">
        <ele>327.4</ele>
        <time>2022-07-29T14:58:46Z</time>
      </trkpt>
      <trkpt lat="46.3567" lon="5.69796">
        <ele>327.6</ele>
        <time>2022-07-29T14:58:47Z</time>
      </trkpt>
      <trkpt lat="46.35675" lon="5.69802">
        <ele>327.6</ele>
        <time>2022-07-29T14:58:48Z</time>
      </trkpt>
      <trkpt lat="46.35679" lon="5.69809">
        <ele>327.6</ele>
        <time>2022-07-29T14:58:49Z</time>
      </trkpt>
      <trkpt lat="46.35684" lon="5.69815">
        <ele>328</ele>
        <time>2022-07-29T14:58:50Z</time>
      </trkpt>
      <trkpt lat="46.35688" lon="5.69821">
        <ele>328</ele>
        <time>2022-07-29T14:58:51Z</time>
      </trkpt>
      <trkpt lat="46.35693" lon="5.69827">
        <ele>328</ele>
        <time>2022-07-29T14:58:52Z</time>
      </trkpt>
      <trkpt lat="46.35698" lon="5.69833">
        <ele>328</ele>
        <time>2022-07-29T14:58:53Z</time>
      </trkpt>
      <trkpt lat="46.35703" lon="5.69839">
        <ele>328</ele>
        <time>2022-07-29T14:58:54Z</time>
      </trkpt>
      <trkpt lat="46.35708" lon="5.69845">
        <ele>328</ele>
        <time>2022-07-29T14:58:55Z</time>
      </trkpt>
      <trkpt lat="46.35713" lon="5.69851">
        <ele>328</ele>
        <time>2022-07-29T14:58:56Z</time>
      </trkpt>
      <trkpt lat="46.35718" lon="5.69857">
        <ele>328</ele>
        <time>2022-07-29T14:58:57Z</time>
      </trkpt>
      <trkpt lat="46.35723" lon="5.69862">
        <ele>328</ele>
        <time>2022-07-29T14:58:58Z</time>
      </trkpt>
      <trkpt lat="46.35728" lon="5.69868">
        <ele>328.2</ele>
        <time>2022-07-29T14:58:59Z</time>
      </trkpt>
      <trkpt lat="46.35733" lon="5.69873">
        <ele>328.2</ele>
        <time>2022-07-29T14:59:00Z</time>
      </trkpt>
      <trkpt lat="46.35739" lon="5.69879">
        <ele>328.2</ele>
        <time>2022-07-29T14:59:01Z</time>
      </trkpt>
      <trkpt lat="46.35744" lon="5.69885">
        <ele>328.2</ele>
        <time>2022-07-29T14:59:02Z</time>
      </trkpt>
      <trkpt lat="46.35749" lon="5.6989">
        <ele>328.2</ele>
        <time>2022-07-29T14:59:03Z</time>
      </trkpt>
      <trkpt lat="46.35755" lon="5.69896">
        <ele>328.2</ele>
        <time>2022-07-29T14:59:04Z</time>
      </trkpt>
      <trkpt lat="46.3576" lon="5.69901">
        <ele>328.2</ele>
        <time>2022-07-29T14:59:05Z</time>
      </trkpt>
      <trkpt lat="46.35765" lon="5.69907">
        <ele>328.2</ele>
        <time>2022-07-29T14:59:06Z</time>
      </trkpt>
      <trkpt lat="46.35771" lon="5.69912">
        <ele>328.2</ele>
        <time>2022-07-29T14:59:07Z</time>
      </trkpt>
      <trkpt lat="46.35777" lon="5.69918">
        <ele>328.2</ele>
        <time>2022-07-29T14:59:08Z</time>
      </trkpt>
      <trkpt lat="46.35782" lon="5.69924">
        <ele>328.2</ele>
        <time>2022-07-29T14:59:09Z</time>
      </trkpt>
      <trkpt lat="46.35788" lon="5.6993">
        <ele>328.2</ele>
        <time>2022-07-29T14:59:10Z</time>
      </trkpt>
      <trkpt lat="46.35793" lon="5.69936">
        <ele>328.2</ele>
        <time>2022-07-29T14:59:11Z</time>
      </trkpt>
      <trkpt lat="46.35799" lon="5.69942">
        <ele>328.2</ele>
        <time>2022-07-29T14:59:12Z</time>
      </trkpt>
      <trkpt lat="46.35805" lon="5.69948">
        <ele>328.2</ele>
        <time>2022-07-29T14:59:13Z</time>
      </trkpt>
      <trkpt lat="46.3581" lon="5.69955">
        <ele>328.2</ele>
        <time>2022-07-29T14:59:14Z</time>
      </trkpt>
      <trkpt lat="46.35816" lon="5.69961">
        <ele>328.2</ele>
        <time>2022-07-29T14:59:15Z</time>
      </trkpt>
      <trkpt lat="46.35821" lon="5.69968">
        <ele>328.2</ele>
        <time>2022-07-29T14:59:16Z</time>
      </trkpt>
      <trkpt lat="46.35827" lon="5.69975">
        <ele>328.2</ele>
        <time>2022-07-29T14:59:17Z</time>
      </trkpt>
      <trkpt lat="46.35832" lon="5.69983">
        <ele>328.2</ele>
        <time>2022-07-29T14:59:18Z</time>
      </trkpt>
      <trkpt lat="46.35837" lon="5.6999">
        <ele>328.2</ele>
        <time>2022-07-29T14:59:19Z</time>
      </trkpt>
      <trkpt lat="46.35843" lon="5.69998">
        <ele>328.2</ele>
        <time>2022-07-29T14:59:20Z</time>
      </trkpt>
      <trkpt lat="46.35848" lon="5.70005">
        <ele>327.8</ele>
        <time>2022-07-29T14:59:21Z</time>
      </trkpt>
      <trkpt lat="46.35853" lon="5.70013">
        <ele>327.8</ele>
        <time>2022-07-29T14:59:22Z</time>
      </trkpt>
      <trkpt lat="46.35858" lon="5.70021">
        <ele>327.8</ele>
        <time>2022-07-29T14:59:23Z</time>
      </trkpt>
      <trkpt lat="46.35863" lon="5.70029">
        <ele>327.6</ele>
        <time>2022-07-29T14:59:24Z</time>
      </trkpt>
      <trkpt lat="46.35868" lon="5.70037">
        <ele>327.6</ele>
        <time>2022-07-29T14:59:25Z</time>
      </trkpt>
      <trkpt lat="46.35872" lon="5.70045">
        <ele>327.6</ele>
        <time>2022-07-29T14:59:26Z</time>
      </trkpt>
      <trkpt lat="46.35877" lon="5.70054">
        <ele>327.6</ele>
        <time>2022-07-29T14:59:27Z</time>
      </trkpt>
      <trkpt lat="46.35882" lon="5.70062">
        <ele>327.4</ele>
        <time>2022-07-29T14:59:28Z</time>
      </trkpt>
      <trkpt lat="46.35886" lon="5.7007">
        <ele>327.4</ele>
        <time>2022-07-29T14:59:29Z</time>
      </trkpt>
      <trkpt lat="46.35891" lon="5.70078">
        <ele>327.4</ele>
        <time>2022-07-29T14:59:30Z</time>
      </trkpt>
      <trkpt lat="46.35895" lon="5.70087">
        <ele>327.4</ele>
        <time>2022-07-29T14:59:31Z</time>
      </trkpt>
      <trkpt lat="46.359" lon="5.70095">
        <ele>327.4</ele>
        <time>2022-07-29T14:59:32Z</time>
      </trkpt>
      <trkpt lat="46.35904" lon="5.70103">
        <ele>327.4</ele>
        <time>2022-07-29T14:59:33Z</time>
      </trkpt>
      <trkpt lat="46.35909" lon="5.70111">
        <ele>327.4</ele>
        <time>2022-07-29T14:59:34Z</time>
      </trkpt>
      <trkpt lat="46.35913" lon="5.7012">
        <ele>327.4</ele>
        <time>2022-07-29T14:59:35Z</time>
      </trkpt>
      <trkpt lat="46.35918" lon="5.70128">
        <ele>327.4</ele>
        <time>2022-07-29T14:59:36Z</time>
      </trkpt>
      <trkpt lat="46.35922" lon="5.70136">
        <ele>327.4</ele>
        <time>2022-07-29T14:59:37Z</time>
      </trkpt>
      <trkpt lat="46.35927" lon="5.70144">
        <ele>327.4</ele>
        <time>2022-07-29T14:59:38Z</time>
      </trkpt>
      <trkpt lat="46.35931" lon="5.70151">
        <ele>327.6</ele>
        <time>2022-07-29T14:59:39Z</time>
      </trkpt>
      <trkpt lat="46.35935" lon="5.70159">
        <ele>327.6</ele>
        <time>2022-07-29T14:59:40Z</time>
      </trkpt>
      <trkpt lat="46.3594" lon="5.70166">
        <ele>327.6</ele>
        <time>2022-07-29T14:59:41Z</time>
      </trkpt>
      <trkpt lat="46.35944" lon="5.70173">
        <ele>327.8</ele>
        <time>2022-07-29T14:59:42Z</time>
      </trkpt>
      <trkpt lat="46.35948" lon="5.70181">
        <ele>327.8</ele>
        <time>2022-07-29T14:59:43Z</time>
      </trkpt>
      <trkpt lat="46.35952" lon="5.70188">
        <ele>327.8</ele>
        <time>2022-07-29T14:59:44Z</time>
      </trkpt>
      <trkpt lat="46.35956" lon="5.70196">
        <ele>327.8</ele>
        <time>2022-07-29T14:59:45Z</time>
      </trkpt>
      <trkpt lat="46.3596" lon="5.70203">
        <ele>328</ele>
        <time>2022-07-29T14:59:46Z</time>
      </trkpt>
      <trkpt lat="46.35964" lon="5.7021">
        <ele>328</ele>
        <time>2022-07-29T14:59:47Z</time>
      </trkpt>
      <trkpt lat="46.35968" lon="5.70218">
        <ele>328</ele>
        <time>2022-07-29T14:59:48Z</time>
      </trkpt>
      <trkpt lat="46.35973" lon="5.70225">
        <ele>328.4</ele>
        <time>2022-07-29T14:59:49Z</time>
      </trkpt>
      <trkpt lat="46.35977" lon="5.70233">
        <ele>328.4</ele>
        <time>2022-07-29T14:59:50Z</time>
      </trkpt>
      <trkpt lat="46.35981" lon="5.7024">
        <ele>328.4</ele>
        <time>2022-07-29T14:59:51Z</time>
      </trkpt>
      <trkpt lat="46.35985" lon="5.70247">
        <ele>328.4</ele>
        <time>2022-07-29T14:59:52Z</time>
      </trkpt>
      <trkpt lat="46.35989" lon="5.70255">
        <ele>328.4</ele>
        <time>2022-07-29T14:59:53Z</time>
      </trkpt>
      <trkpt lat="46.35993" lon="5.70263">
        <ele>328.4</ele>
        <time>2022-07-29T14:59:54Z</time>
      </trkpt>
      <trkpt lat="46.35997" lon="5.7027">
        <ele>328.6</ele>
        <time>2022-07-29T14:59:55Z</time>
      </trkpt>
      <trkpt lat="46.36001" lon="5.70277">
        <ele>328.6</ele>
        <time>2022-07-29T14:59:56Z</time>
      </trkpt>
      <trkpt lat="46.36004" lon="5.70284">
        <ele>328.8</ele>
        <time>2022-07-29T14:59:57Z</time>
      </trkpt>
      <trkpt lat="46.36008" lon="5.70291">
        <ele>328.8</ele>
        <time>2022-07-29T14:59:58Z</time>
      </trkpt>
      <trkpt lat="46.36012" lon="5.70297">
        <ele>328.8</ele>
        <time>2022-07-29T14:59:59Z</time>
      </trkpt>
      <trkpt lat="46.36015" lon="5.70304">
        <ele>329</ele>
        <time>2022-07-29T15:00:00Z</time>
      </trkpt>
      <trkpt lat="46.36019" lon="5.70309">
        <ele>329</ele>
        <time>2022-07-29T15:00:01Z</time>
      </trkpt>
      <trkpt lat="46.36023" lon="5.70315">
        <ele>329</ele>
        <time>2022-07-29T15:00:02Z</time>
      </trkpt>
      <trkpt lat="46.36026" lon="5.7032">
        <ele>329.6</ele>
        <time>2022-07-29T15:00:03Z</time>
      </trkpt>
      <trkpt lat="46.36029" lon="5.70326">
        <ele>329.6</ele>
        <time>2022-07-29T15:00:04Z</time>
      </trkpt>
      <trkpt lat="46.36032" lon="5.70331">
        <ele>329.8</ele>
        <time>2022-07-29T15:00:05Z</time>
      </trkpt>
      <trkpt lat="46.36036" lon="5.70337">
        <ele>329.8</ele>
        <time>2022-07-29T15:00:06Z</time>
      </trkpt>
      <trkpt lat="46.36038" lon="5.70343">
        <ele>330</ele>
        <time>2022-07-29T15:00:07Z</time>
      </trkpt>
      <trkpt lat="46.36041" lon="5.70348">
        <ele>330</ele>
        <time>2022-07-29T15:00:08Z</time>
      </trkpt>
      <trkpt lat="46.36044" lon="5.70353">
        <ele>330.4</ele>
        <time>2022-07-29T15:00:09Z</time>
      </trkpt>
      <trkpt lat="46.36047" lon="5.70357">
        <ele>330.6</ele>
        <time>2022-07-29T15:00:10Z</time>
      </trkpt>
      <trkpt lat="46.3605" lon="5.70362">
        <ele>330.6</ele>
        <time>2022-07-29T15:00:11Z</time>
      </trkpt>
      <trkpt lat="46.36054" lon="5.70367">
        <ele>330.8</ele>
        <time>2022-07-29T15:00:12Z</time>
      </trkpt>
      <trkpt lat="46.36057" lon="5.70371">
        <ele>330.8</ele>
        <time>2022-07-29T15:00:13Z</time>
      </trkpt>
      <trkpt lat="46.3606" lon="5.70376">
        <ele>331</ele>
        <time>2022-07-29T15:00:14Z</time>
      </trkpt>
      <trkpt lat="46.36063" lon="5.70381">
        <ele>331</ele>
        <time>2022-07-29T15:00:15Z</time>
      </trkpt>
      <trkpt lat="46.36066" lon="5.70386">
        <ele>331.4</ele>
        <time>2022-07-29T15:00:16Z</time>
      </trkpt>
      <trkpt lat="46.36069" lon="5.7039">
        <ele>331.4</ele>
        <time>2022-07-29T15:00:17Z</time>
      </trkpt>
      <trkpt lat="46.36072" lon="5.70395">
        <ele>331.6</ele>
        <time>2022-07-29T15:00:18Z</time>
      </trkpt>
      <trkpt lat="46.36075" lon="5.70399">
        <ele>331.6</ele>
        <time>2022-07-29T15:00:19Z</time>
      </trkpt>
      <trkpt lat="46.36078" lon="5.70404">
        <ele>331.8</ele>
        <time>2022-07-29T15:00:20Z</time>
      </trkpt>
      <trkpt lat="46.36081" lon="5.70408">
        <ele>331.8</ele>
        <time>2022-07-29T15:00:21Z</time>
      </trkpt>
      <trkpt lat="46.36084" lon="5.70413">
        <ele>332</ele>
        <time>2022-07-29T15:00:22Z</time>
      </trkpt>
      <trkpt lat="46.36087" lon="5.70418">
        <ele>332</ele>
        <time>2022-07-29T15:00:23Z</time>
      </trkpt>
      <trkpt lat="46.3609" lon="5.70423">
        <ele>332.2</ele>
        <time>2022-07-29T15:00:24Z</time>
      </trkpt>
      <trkpt lat="46.36093" lon="5.70428">
        <ele>332.8</ele>
        <time>2022-07-29T15:00:25Z</time>
      </trkpt>
      <trkpt lat="46.36096" lon="5.70432">
        <ele>332.8</ele>
        <time>2022-07-29T15:00:26Z</time>
      </trkpt>
      <trkpt lat="46.36099" lon="5.70437">
        <ele>332.8</ele>
        <time>2022-07-29T15:00:27Z</time>
      </trkpt>
      <trkpt lat="46.36102" lon="5.70442">
        <ele>332.8</ele>
        <time>2022-07-29T15:00:28Z</time>
      </trkpt>
      <trkpt lat="46.36105" lon="5.70446">
        <ele>332.8</ele>
        <time>2022-07-29T15:00:29Z</time>
      </trkpt>
      <trkpt lat="46.36108" lon="5.70451">
        <ele>333</ele>
        <time>2022-07-29T15:00:30Z</time>
      </trkpt>
      <trkpt lat="46.36111" lon="5.70456">
        <ele>333</ele>
        <time>2022-07-29T15:00:31Z</time>
      </trkpt>
      <trkpt lat="46.36114" lon="5.70461">
        <ele>333</ele>
        <time>2022-07-29T15:00:32Z</time>
      </trkpt>
      <trkpt lat="46.36117" lon="5.70465">
        <ele>333.2</ele>
        <time>2022-07-29T15:00:33Z</time>
      </trkpt>
      <trkpt lat="46.3612" lon="5.7047">
        <ele>333.2</ele>
        <time>2022-07-29T15:00:34Z</time>
      </trkpt>
      <trkpt lat="46.36123" lon="5.70475">
        <ele>333.4</ele>
        <time>2022-07-29T15:00:35Z</time>
      </trkpt>
      <trkpt lat="46.36126" lon="5.7048">
        <ele>333.4</ele>
        <time>2022-07-29T15:00:36Z</time>
      </trkpt>
      <trkpt lat="46.36129" lon="5.70485">
        <ele>333.4</ele>
        <time>2022-07-29T15:00:37Z</time>
      </trkpt>
      <trkpt lat="46.36132" lon="5.70489">
        <ele>333.8</ele>
        <time>2022-07-29T15:00:38Z</time>
      </trkpt>
      <trkpt lat="46.36135" lon="5.70494">
        <ele>333.8</ele>
        <time>2022-07-29T15:00:39Z</time>
      </trkpt>
      <trkpt lat="46.36138" lon="5.70499">
        <ele>333.8</ele>
        <time>2022-07-29T15:00:40Z</time>
      </trkpt>
      <trkpt lat="46.36141" lon="5.70504">
        <ele>333.8</ele>
        <time>2022-07-29T15:00:41Z</time>
      </trkpt>
      <trkpt lat="46.36144" lon="5.70509">
        <ele>334.2</ele>
        <time>2022-07-29T15:00:42Z</time>
      </trkpt>
      <trkpt lat="46.36147" lon="5.70514">
        <ele>334.2</ele>
        <time>2022-07-29T15:00:43Z</time>
      </trkpt>
      <trkpt lat="46.3615" lon="5.70519">
        <ele>334.4</ele>
        <time>2022-07-29T15:00:44Z</time>
      </trkpt>
      <trkpt lat="46.36152" lon="5.70524">
        <ele>334.4</ele>
        <time>2022-07-29T15:00:45Z</time>
      </trkpt>
      <trkpt lat="46.36155" lon="5.70529">
        <ele>334.8</ele>
        <time>2022-07-29T15:00:46Z</time>
      </trkpt>
      <trkpt lat="46.36158" lon="5.70534">
        <ele>335</ele>
        <time>2022-07-29T15:00:47Z</time>
      </trkpt>
      <trkpt lat="46.36161" lon="5.70539">
        <ele>335</ele>
        <time>2022-07-29T15:00:48Z</time>
      </trkpt>
      <trkpt lat="46.36163" lon="5.70544">
        <ele>335.2</ele>
        <time>2022-07-29T15:00:49Z</time>
      </trkpt>
      <trkpt lat="46.36166" lon="5.70549">
        <ele>335.6</ele>
        <time>2022-07-29T15:00:50Z</time>
      </trkpt>
      <trkpt lat="46.36169" lon="5.70554">
        <ele>335.6</ele>
        <time>2022-07-29T15:00:51Z</time>
      </trkpt>
      <trkpt lat="46.36171" lon="5.70559">
        <ele>335.6</ele>
        <time>2022-07-29T15:00:52Z</time>
      </trkpt>
      <trkpt lat="46.36174" lon="5.70565">
        <ele>335.8</ele>
        <time>2022-07-29T15:00:53Z</time>
      </trkpt>
      <trkpt lat="46.36176" lon="5.7057">
        <ele>335.8</ele>
        <time>2022-07-29T15:00:54Z</time>
      </trkpt>
      <trkpt lat="46.36179" lon="5.70575">
        <ele>336.2</ele>
        <time>2022-07-29T15:00:55Z</time>
      </trkpt>
      <trkpt lat="46.36181" lon="5.7058">
        <ele>336.2</ele>
        <time>2022-07-29T15:00:56Z</time>
      </trkpt>
      <trkpt lat="46.36184" lon="5.70586">
        <ele>336.2</ele>
        <time>2022-07-29T15:00:57Z</time>
      </trkpt>
      <trkpt lat="46.36186" lon="5.70592">
        <ele>336.2</ele>
        <time>2022-07-29T15:00:58Z</time>
      </trkpt>
      <trkpt lat="46.36188" lon="5.70598">
        <ele>336.4</ele>
        <time>2022-07-29T15:00:59Z</time>
      </trkpt>
      <trkpt lat="46.36191" lon="5.70604">
        <ele>336.4</ele>
        <time>2022-07-29T15:01:00Z</time>
      </trkpt>
      <trkpt lat="46.36193" lon="5.7061">
        <ele>336.4</ele>
        <time>2022-07-29T15:01:01Z</time>
      </trkpt>
      <trkpt lat="46.36195" lon="5.70616">
        <ele>336.4</ele>
        <time>2022-07-29T15:01:02Z</time>
      </trkpt>
      <trkpt lat="46.36197" lon="5.70622">
        <ele>336.8</ele>
        <time>2022-07-29T15:01:03Z</time>
      </trkpt>
      <trkpt lat="46.362" lon="5.70627">
        <ele>336.8</ele>
        <time>2022-07-29T15:01:04Z</time>
      </trkpt>
      <trkpt lat="46.36202" lon="5.70633">
        <ele>337</ele>
        <time>2022-07-29T15:01:05Z</time>
      </trkpt>
      <trkpt lat="46.36205" lon="5.70639">
        <ele>337</ele>
        <time>2022-07-29T15:01:06Z</time>
      </trkpt>
      <trkpt lat="46.36208" lon="5.70645">
        <ele>337.2</ele>
        <time>2022-07-29T15:01:07Z</time>
      </trkpt>
      <trkpt lat="46.36211" lon="5.7065">
        <ele>337.2</ele>
        <time>2022-07-29T15:01:08Z</time>
      </trkpt>
      <trkpt lat="46.36213" lon="5.70656">
        <ele>337.6</ele>
        <time>2022-07-29T15:01:09Z</time>
      </trkpt>
      <trkpt lat="46.36216" lon="5.70662">
        <ele>337.6</ele>
        <time>2022-07-29T15:01:10Z</time>
      </trkpt>
      <trkpt lat="46.36219" lon="5.70668">
        <ele>337.8</ele>
        <time>2022-07-29T15:01:11Z</time>
      </trkpt>
      <trkpt lat="46.36221" lon="5.70674">
        <ele>337.8</ele>
        <time>2022-07-29T15:01:12Z</time>
      </trkpt>
      <trkpt lat="46.36224" lon="5.7068">
        <ele>338</ele>
        <time>2022-07-29T15:01:13Z</time>
      </trkpt>
      <trkpt lat="46.36226" lon="5.70685">
        <ele>338.2</ele>
        <time>2022-07-29T15:01:14Z</time>
      </trkpt>
      <trkpt lat="46.36228" lon="5.70691">
        <ele>338.2</ele>
        <time>2022-07-29T15:01:15Z</time>
      </trkpt>
      <trkpt lat="46.3623" lon="5.70696">
        <ele>338.6</ele>
        <time>2022-07-29T15:01:16Z</time>
      </trkpt>
      <trkpt lat="46.36233" lon="5.707">
        <ele>338.6</ele>
        <time>2022-07-29T15:01:17Z</time>
      </trkpt>
      <trkpt lat="46.36237" lon="5.70701">
        <ele>338.6</ele>
        <time>2022-07-29T15:01:18Z</time>
      </trkpt>
      <trkpt lat="46.36241" lon="5.70701">
        <ele>338.8</ele>
        <time>2022-07-29T15:01:19Z</time>
      </trkpt>
      <trkpt lat="46.36244" lon="5.70698">
        <ele>338.8</ele>
        <time>2022-07-29T15:01:20Z</time>
      </trkpt>
      <trkpt lat="46.36248" lon="5.70694">
        <ele>338.8</ele>
        <time>2022-07-29T15:01:21Z</time>
      </trkpt>
      <trkpt lat="46.36252" lon="5.70689">
        <ele>338.8</ele>
        <time>2022-07-29T15:01:22Z</time>
      </trkpt>
      <trkpt lat="46.36257" lon="5.70685">
        <ele>338.8</ele>
        <time>2022-07-29T15:01:23Z</time>
      </trkpt>
      <trkpt lat="46.36262" lon="5.70681">
        <ele>338.8</ele>
        <time>2022-07-29T15:01:24Z</time>
      </trkpt>
      <trkpt lat="46.36267" lon="5.70677">
        <ele>338.8</ele>
        <time>2022-07-29T15:01:25Z</time>
      </trkpt>
      <trkpt lat="46.36273" lon="5.70673">
        <ele>338.4</ele>
        <time>2022-07-29T15:01:26Z</time>
      </trkpt>
      <trkpt lat="46.36279" lon="5.70668">
        <ele>338.2</ele>
        <time>2022-07-29T15:01:27Z</time>
      </trkpt>
      <trkpt lat="46.36284" lon="5.70664">
        <ele>338.2</ele>
        <time>2022-07-29T15:01:28Z</time>
      </trkpt>
      <trkpt lat="46.3629" lon="5.70659">
        <ele>337.8</ele>
        <time>2022-07-29T15:01:29Z</time>
      </trkpt>
      <trkpt lat="46.36296" lon="5.70654">
        <ele>337.8</ele>
        <time>2022-07-29T15:01:30Z</time>
      </trkpt>
      <trkpt lat="46.36303" lon="5.70649">
        <ele>337.6</ele>
        <time>2022-07-29T15:01:31Z</time>
      </trkpt>
      <trkpt lat="46.36309" lon="5.70644">
        <ele>337.4</ele>
        <time>2022-07-29T15:01:32Z</time>
      </trkpt>
      <trkpt lat="46.36315" lon="5.70639">
        <ele>337.2</ele>
        <time>2022-07-29T15:01:33Z</time>
      </trkpt>
      <trkpt lat="46.36322" lon="5.70634">
        <ele>337</ele>
        <time>2022-07-29T15:01:34Z</time>
      </trkpt>
      <trkpt lat="46.36328" lon="5.70629">
        <ele>336.8</ele>
        <time>2022-07-29T15:01:35Z</time>
      </trkpt>
      <trkpt lat="46.36335" lon="5.70623">
        <ele>336.8</ele>
        <time>2022-07-29T15:01:36Z</time>
      </trkpt>
      <trkpt lat="46.36342" lon="5.70618">
        <ele>336.4</ele>
        <time>2022-07-29T15:01:37Z</time>
      </trkpt>
      <trkpt lat="46.36348" lon="5.70612">
        <ele>336</ele>
        <time>2022-07-29T15:01:38Z</time>
      </trkpt>
      <trkpt lat="46.36355" lon="5.70607">
        <ele>335.8</ele>
        <time>2022-07-29T15:01:39Z</time>
      </trkpt>
      <trkpt lat="46.36362" lon="5.70601">
        <ele>335.8</ele>
        <time>2022-07-29T15:01:40Z</time>
      </trkpt>
      <trkpt lat="46.36368" lon="5.70596">
        <ele>335.4</ele>
        <time>2022-07-29T15:01:41Z</time>
      </trkpt>
      <trkpt lat="46.36375" lon="5.70591">
        <ele>335</ele>
        <time>2022-07-29T15:01:42Z</time>
      </trkpt>
      <trkpt lat="46.36382" lon="5.70585">
        <ele>334.8</ele>
        <time>2022-07-29T15:01:43Z</time>
      </trkpt>
      <trkpt lat="46.36389" lon="5.7058">
        <ele>334.6</ele>
        <time>2022-07-29T15:01:44Z</time>
      </trkpt>
      <trkpt lat="46.36396" lon="5.70574">
        <ele>334.2</ele>
        <time>2022-07-29T15:01:45Z</time>
      </trkpt>
      <trkpt lat="46.36403" lon="5.70569">
        <ele>334</ele>
        <time>2022-07-29T15:01:46Z</time>
      </trkpt>
      <trkpt lat="46.3641" lon="5.70563">
        <ele>333.8</ele>
        <time>2022-07-29T15:01:47Z</time>
      </trkpt>
      <trkpt lat="46.36418" lon="5.70557">
        <ele>333.4</ele>
        <time>2022-07-29T15:01:48Z</time>
      </trkpt>
      <trkpt lat="46.36425" lon="5.70552">
        <ele>333.2</ele>
        <time>2022-07-29T15:01:49Z</time>
      </trkpt>
      <trkpt lat="46.36432" lon="5.70547">
        <ele>333</ele>
        <time>2022-07-29T15:01:50Z</time>
      </trkpt>
      <trkpt lat="46.36439" lon="5.70542">
        <ele>332.8</ele>
        <time>2022-07-29T15:01:51Z</time>
      </trkpt>
      <trkpt lat="46.36447" lon="5.70537">
        <ele>332.4</ele>
        <time>2022-07-29T15:01:52Z</time>
      </trkpt>
      <trkpt lat="46.36454" lon="5.70532">
        <ele>332</ele>
        <time>2022-07-29T15:01:53Z</time>
      </trkpt>
      <trkpt lat="46.36462" lon="5.70528">
        <ele>331.8</ele>
        <time>2022-07-29T15:01:54Z</time>
      </trkpt>
      <trkpt lat="46.3647" lon="5.70524">
        <ele>331.6</ele>
        <time>2022-07-29T15:01:55Z</time>
      </trkpt>
      <trkpt lat="46.36478" lon="5.7052">
        <ele>331.4</ele>
        <time>2022-07-29T15:01:56Z</time>
      </trkpt>
      <trkpt lat="46.36486" lon="5.70517">
        <ele>331.2</ele>
        <time>2022-07-29T15:01:57Z</time>
      </trkpt>
      <trkpt lat="46.36494" lon="5.70513">
        <ele>331</ele>
        <time>2022-07-29T15:01:58Z</time>
      </trkpt>
      <trkpt lat="46.36502" lon="5.7051">
        <ele>331</ele>
        <time>2022-07-29T15:01:59Z</time>
      </trkpt>
      <trkpt lat="46.3651" lon="5.70507">
        <ele>331</ele>
        <time>2022-07-29T15:02:00Z</time>
      </trkpt>
      <trkpt lat="46.36517" lon="5.70505">
        <ele>330.6</ele>
        <time>2022-07-29T15:02:01Z</time>
      </trkpt>
      <trkpt lat="46.36525" lon="5.70502">
        <ele>330.6</ele>
        <time>2022-07-29T15:02:02Z</time>
      </trkpt>
      <trkpt lat="46.36533" lon="5.705">
        <ele>330.6</ele>
        <time>2022-07-29T15:02:03Z</time>
      </trkpt>
      <trkpt lat="46.3654" lon="5.70498">
        <ele>330.6</ele>
        <time>2022-07-29T15:02:04Z</time>
      </trkpt>
      <trkpt lat="46.36548" lon="5.70496">
        <ele>330.6</ele>
        <time>2022-07-29T15:02:05Z</time>
      </trkpt>
      <trkpt lat="46.36555" lon="5.70494">
        <ele>330.6</ele>
        <time>2022-07-29T15:02:06Z</time>
      </trkpt>
      <trkpt lat="46.36562" lon="5.70492">
        <ele>331</ele>
        <time>2022-07-29T15:02:07Z</time>
      </trkpt>
      <trkpt lat="46.36569" lon="5.7049">
        <ele>331</ele>
        <time>2022-07-29T15:02:08Z</time>
      </trkpt>
      <trkpt lat="46.36576" lon="5.70488">
        <ele>331</ele>
        <time>2022-07-29T15:02:09Z</time>
      </trkpt>
      <trkpt lat="46.36583" lon="5.70486">
        <ele>331.2</ele>
        <time>2022-07-29T15:02:10Z</time>
      </trkpt>
      <trkpt lat="46.36589" lon="5.70484">
        <ele>331.2</ele>
        <time>2022-07-29T15:02:11Z</time>
      </trkpt>
      <trkpt lat="46.36596" lon="5.70482">
        <ele>331.2</ele>
        <time>2022-07-29T15:02:12Z</time>
      </trkpt>
      <trkpt lat="46.36602" lon="5.7048">
        <ele>331.2</ele>
        <time>2022-07-29T15:02:13Z</time>
      </trkpt>
      <trkpt lat="46.36609" lon="5.70478">
        <ele>331.2</ele>
        <time>2022-07-29T15:02:14Z</time>
      </trkpt>
      <trkpt lat="46.36615" lon="5.70477">
        <ele>331.2</ele>
        <time>2022-07-29T15:02:15Z</time>
      </trkpt>
      <trkpt lat="46.36621" lon="5.70475">
        <ele>331.2</ele>
        <time>2022-07-29T15:02:16Z</time>
      </trkpt>
      <trkpt lat="46.36627" lon="5.70473">
        <ele>331.6</ele>
        <time>2022-07-29T15:02:17Z</time>
      </trkpt>
      <trkpt lat="46.36633" lon="5.70471">
        <ele>331.6</ele>
        <time>2022-07-29T15:02:18Z</time>
      </trkpt>
      <trkpt lat="46.36639" lon="5.70469">
        <ele>331.8</ele>
        <time>2022-07-29T15:02:19Z</time>
      </trkpt>
      <trkpt lat="46.36644" lon="5.70468">
        <ele>331.8</ele>
        <time>2022-07-29T15:02:20Z</time>
      </trkpt>
      <trkpt lat="46.3665" lon="5.70466">
        <ele>331.8</ele>
        <time>2022-07-29T15:02:21Z</time>
      </trkpt>
      <trkpt lat="46.36655" lon="5.70465">
        <ele>332.2</ele>
        <time>2022-07-29T15:02:22Z</time>
      </trkpt>
      <trkpt lat="46.36661" lon="5.70463">
        <ele>332.2</ele>
        <time>2022-07-29T15:02:23Z</time>
      </trkpt>
      <trkpt lat="46.36666" lon="5.70462">
        <ele>332.6</ele>
        <time>2022-07-29T15:02:24Z</time>
      </trkpt>
      <trkpt lat="46.36671" lon="5.7046">
        <ele>332.8</ele>
        <time>2022-07-29T15:02:25Z</time>
      </trkpt>
      <trkpt lat="46.36675" lon="5.70459">
        <ele>332.8</ele>
        <time>2022-07-29T15:02:26Z</time>
      </trkpt>
      <trkpt lat="46.3668" lon="5.70458">
        <ele>333.2</ele>
        <time>2022-07-29T15:02:27Z</time>
      </trkpt>
      <trkpt lat="46.36684" lon="5.70456">
        <ele>333.2</ele>
        <time>2022-07-29T15:02:28Z</time>
      </trkpt>
      <trkpt lat="46.36688" lon="5.70455">
        <ele>333.6</ele>
        <time>2022-07-29T15:02:29Z</time>
      </trkpt>
      <trkpt lat="46.36692" lon="5.70454">
        <ele>334</ele>
        <time>2022-07-29T15:02:30Z</time>
      </trkpt>
      <trkpt lat="46.36696" lon="5.70453">
        <ele>334.2</ele>
        <time>2022-07-29T15:02:31Z</time>
      </trkpt>
      <trkpt lat="46.367" lon="5.70452">
        <ele>334.2</ele>
        <time>2022-07-29T15:02:32Z</time>
      </trkpt>
      <trkpt lat="46.36703" lon="5.70451">
        <ele>334.6</ele>
        <time>2022-07-29T15:02:33Z</time>
      </trkpt>
      <trkpt lat="46.36707" lon="5.7045">
        <ele>335</ele>
        <time>2022-07-29T15:02:34Z</time>
      </trkpt>
      <trkpt lat="46.3671" lon="5.70449">
        <ele>335.2</ele>
        <time>2022-07-29T15:02:35Z</time>
      </trkpt>
      <trkpt lat="46.36713" lon="5.70448">
        <ele>335.6</ele>
        <time>2022-07-29T15:02:36Z</time>
      </trkpt>
      <trkpt lat="46.36716" lon="5.70447">
        <ele>335.8</ele>
        <time>2022-07-29T15:02:37Z</time>
      </trkpt>
      <trkpt lat="46.3672" lon="5.70446">
        <ele>336</ele>
        <time>2022-07-29T15:02:38Z</time>
      </trkpt>
      <trkpt lat="46.36723" lon="5.70445">
        <ele>336.4</ele>
        <time>2022-07-29T15:02:39Z</time>
      </trkpt>
      <trkpt lat="46.36726" lon="5.70443">
        <ele>336.6</ele>
        <time>2022-07-29T15:02:40Z</time>
      </trkpt>
      <trkpt lat="46.36729" lon="5.70443">
        <ele>336.8</ele>
        <time>2022-07-29T15:02:41Z</time>
      </trkpt>
      <trkpt lat="46.36732" lon="5.70442">
        <ele>337.2</ele>
        <time>2022-07-29T15:02:42Z</time>
      </trkpt>
      <trkpt lat="46.36735" lon="5.70441">
        <ele>337.4</ele>
        <time>2022-07-29T15:02:43Z</time>
      </trkpt>
      <trkpt lat="46.36738" lon="5.7044">
        <ele>337.8</ele>
        <time>2022-07-29T15:02:44Z</time>
      </trkpt>
      <trkpt lat="46.3674" lon="5.70439">
        <ele>337.8</ele>
        <time>2022-07-29T15:02:45Z</time>
      </trkpt>
      <trkpt lat="46.36743" lon="5.70438">
        <ele>338.2</ele>
        <time>2022-07-29T15:02:46Z</time>
      </trkpt>
      <trkpt lat="46.36746" lon="5.70438">
        <ele>338.2</ele>
        <time>2022-07-29T15:02:47Z</time>
      </trkpt>
      <trkpt lat="46.36749" lon="5.70437">
        <ele>338.8</ele>
        <time>2022-07-29T15:02:48Z</time>
      </trkpt>
      <trkpt lat="46.36752" lon="5.70436">
        <ele>339</ele>
        <time>2022-07-29T15:02:49Z</time>
      </trkpt>
      <trkpt lat="46.36755" lon="5.70435">
        <ele>339.2</ele>
        <time>2022-07-29T15:02:50Z</time>
      </trkpt>
      <trkpt lat="46.36758" lon="5.70434">
        <ele>339.6</ele>
        <time>2022-07-29T15:02:51Z</time>
      </trkpt>
      <trkpt lat="46.36761" lon="5.70433">
        <ele>339.8</ele>
        <time>2022-07-29T15:02:52Z</time>
      </trkpt>
      <trkpt lat="46.36764" lon="5.70433">
        <ele>340</ele>
        <time>2022-07-29T15:02:53Z</time>
      </trkpt>
      <trkpt lat="46.36766" lon="5.70432">
        <ele>340.2</ele>
        <time>2022-07-29T15:02:54Z</time>
      </trkpt>
      <trkpt lat="46.36769" lon="5.70431">
        <ele>340.6</ele>
        <time>2022-07-29T15:02:55Z</time>
      </trkpt>
      <trkpt lat="46.36772" lon="5.70431">
        <ele>340.6</ele>
        <time>2022-07-29T15:02:56Z</time>
      </trkpt>
      <trkpt lat="46.36775" lon="5.7043">
        <ele>341</ele>
        <time>2022-07-29T15:02:57Z</time>
      </trkpt>
      <trkpt lat="46.36778" lon="5.70429">
        <ele>341.4</ele>
        <time>2022-07-29T15:02:58Z</time>
      </trkpt>
      <trkpt lat="46.36781" lon="5.70428">
        <ele>341.4</ele>
        <time>2022-07-29T15:02:59Z</time>
      </trkpt>
      <trkpt lat="46.36783" lon="5.70428">
        <ele>341.4</ele>
        <time>2022-07-29T15:03:00Z</time>
      </trkpt>
      <trkpt lat="46.36786" lon="5.70427">
        <ele>341.8</ele>
        <time>2022-07-29T15:03:01Z</time>
      </trkpt>
      <trkpt lat="46.36788" lon="5.70426">
        <ele>342.2</ele>
        <time>2022-07-29T15:03:02Z</time>
      </trkpt>
      <trkpt lat="46.36791" lon="5.70425">
        <ele>342.4</ele>
        <time>2022-07-29T15:03:03Z</time>
      </trkpt>
      <trkpt lat="46.36794" lon="5.70424">
        <ele>342.6</ele>
        <time>2022-07-29T15:03:04Z</time>
      </trkpt>
      <trkpt lat="46.36796" lon="5.70424">
        <ele>342.8</ele>
        <time>2022-07-29T15:03:05Z</time>
      </trkpt>
      <trkpt lat="46.36799" lon="5.70423">
        <ele>342.8</ele>
        <time>2022-07-29T15:03:06Z</time>
      </trkpt>
      <trkpt lat="46.36801" lon="5.70422">
        <ele>343.4</ele>
        <time>2022-07-29T15:03:07Z</time>
      </trkpt>
      <trkpt lat="46.36804" lon="5.70421">
        <ele>343.4</ele>
        <time>2022-07-29T15:03:08Z</time>
      </trkpt>
      <trkpt lat="46.36806" lon="5.70421">
        <ele>343.8</ele>
        <time>2022-07-29T15:03:09Z</time>
      </trkpt>
      <trkpt lat="46.36808" lon="5.7042">
        <ele>344</ele>
        <time>2022-07-29T15:03:10Z</time>
      </trkpt>
      <trkpt lat="46.36811" lon="5.70419">
        <ele>344</ele>
        <time>2022-07-29T15:03:11Z</time>
      </trkpt>
      <trkpt lat="46.36813" lon="5.70419">
        <ele>344.4</ele>
        <time>2022-07-29T15:03:12Z</time>
      </trkpt>
      <trkpt lat="46.36815" lon="5.70418">
        <ele>344.4</ele>
        <time>2022-07-29T15:03:13Z</time>
      </trkpt>
      <trkpt lat="46.36818" lon="5.70417">
        <ele>344.8</ele>
        <time>2022-07-29T15:03:14Z</time>
      </trkpt>
      <trkpt lat="46.3682" lon="5.70416">
        <ele>344.8</ele>
        <time>2022-07-29T15:03:15Z</time>
      </trkpt>
      <trkpt lat="46.36822" lon="5.70415">
        <ele>345.2</ele>
        <time>2022-07-29T15:03:16Z</time>
      </trkpt>
      <trkpt lat="46.36825" lon="5.70414">
        <ele>345.2</ele>
        <time>2022-07-29T15:03:17Z</time>
      </trkpt>
      <trkpt lat="46.36827" lon="5.70413">
        <ele>345.4</ele>
        <time>2022-07-29T15:03:18Z</time>
      </trkpt>
      <trkpt lat="46.3683" lon="5.70413">
        <ele>345.4</ele>
        <time>2022-07-29T15:03:19Z</time>
      </trkpt>
      <trkpt lat="46.36832" lon="5.70412">
        <ele>345.8</ele>
        <time>2022-07-29T15:03:20Z</time>
      </trkpt>
      <trkpt lat="46.36834" lon="5.70411">
        <ele>345.8</ele>
        <time>2022-07-29T15:03:21Z</time>
      </trkpt>
      <trkpt lat="46.36837" lon="5.70411">
        <ele>346.2</ele>
        <time>2022-07-29T15:03:22Z</time>
      </trkpt>
      <trkpt lat="46.36839" lon="5.7041">
        <ele>346.4</ele>
        <time>2022-07-29T15:03:23Z</time>
      </trkpt>
      <trkpt lat="46.36842" lon="5.70409">
        <ele>346.6</ele>
        <time>2022-07-29T15:03:24Z</time>
      </trkpt>
      <trkpt lat="46.36844" lon="5.70409">
        <ele>346.8</ele>
        <time>2022-07-29T15:03:25Z</time>
      </trkpt>
      <trkpt lat="46.36847" lon="5.70408">
        <ele>347</ele>
        <time>2022-07-29T15:03:26Z</time>
      </trkpt>
      <trkpt lat="46.36849" lon="5.70407">
        <ele>347.2</ele>
        <time>2022-07-29T15:03:27Z</time>
      </trkpt>
      <trkpt lat="46.36852" lon="5.70407">
        <ele>347.6</ele>
        <time>2022-07-29T15:03:28Z</time>
      </trkpt>
      <trkpt lat="46.36854" lon="5.70406">
        <ele>347.6</ele>
        <time>2022-07-29T15:03:29Z</time>
      </trkpt>
      <trkpt lat="46.36856" lon="5.70406">
        <ele>347.8</ele>
        <time>2022-07-29T15:03:30Z</time>
      </trkpt>
      <trkpt lat="46.36859" lon="5.70405">
        <ele>348.2</ele>
        <time>2022-07-29T15:03:31Z</time>
      </trkpt>
      <trkpt lat="46.36861" lon="5.70404">
        <ele>348.2</ele>
        <time>2022-07-29T15:03:32Z</time>
      </trkpt>
      <trkpt lat="46.36863" lon="5.70403">
        <ele>348.4</ele>
        <time>2022-07-29T15:03:33Z</time>
      </trkpt>
      <trkpt lat="46.36865" lon="5.70402">
        <ele>348.8</ele>
        <time>2022-07-29T15:03:34Z</time>
      </trkpt>
      <trkpt lat="46.36868" lon="5.70401">
        <ele>349</ele>
        <time>2022-07-29T15:03:35Z</time>
      </trkpt>
      <trkpt lat="46.3687" lon="5.70401">
        <ele>349.2</ele>
        <time>2022-07-29T15:03:36Z</time>
      </trkpt>
      <trkpt lat="46.36872" lon="5.704">
        <ele>349.4</ele>
        <time>2022-07-29T15:03:37Z</time>
      </trkpt>
      <trkpt lat="46.36875" lon="5.70399">
        <ele>349.4</ele>
        <time>2022-07-29T15:03:38Z</time>
      </trkpt>
      <trkpt lat="46.36877" lon="5.70399">
        <ele>349.8</ele>
        <time>2022-07-29T15:03:39Z</time>
      </trkpt>
      <trkpt lat="46.36879" lon="5.70398">
        <ele>350</ele>
        <time>2022-07-29T15:03:40Z</time>
      </trkpt>
      <trkpt lat="46.36882" lon="5.70397">
        <ele>350.4</ele>
        <time>2022-07-29T15:03:41Z</time>
      </trkpt>
      <trkpt lat="46.36884" lon="5.70396">
        <ele>350.6</ele>
        <time>2022-07-29T15:03:42Z</time>
      </trkpt>
      <trkpt lat="46.36887" lon="5.70396">
        <ele>350.8</ele>
        <time>2022-07-29T15:03:43Z</time>
      </trkpt>
      <trkpt lat="46.36889" lon="5.70395">
        <ele>351</ele>
        <time>2022-07-29T15:03:44Z</time>
      </trkpt>
      <trkpt lat="46.36892" lon="5.70395">
        <ele>351.2</ele>
        <time>2022-07-29T15:03:45Z</time>
      </trkpt>
      <trkpt lat="46.36894" lon="5.70394">
        <ele>351.6</ele>
        <time>2022-07-29T15:03:46Z</time>
      </trkpt>
      <trkpt lat="46.36897" lon="5.70394">
        <ele>351.6</ele>
        <time>2022-07-29T15:03:47Z</time>
      </trkpt>
      <trkpt lat="46.36899" lon="5.70393">
        <ele>351.6</ele>
        <time>2022-07-29T15:03:48Z</time>
      </trkpt>
      <trkpt lat="46.36902" lon="5.70393">
        <ele>352</ele>
        <time>2022-07-29T15:03:49Z</time>
      </trkpt>
      <trkpt lat="46.36904" lon="5.70393">
        <ele>352.2</ele>
        <time>2022-07-29T15:03:50Z</time>
      </trkpt>
      <trkpt lat="46.36907" lon="5.70392">
        <ele>352.6</ele>
        <time>2022-07-29T15:03:51Z</time>
      </trkpt>
      <trkpt lat="46.36909" lon="5.70392">
        <ele>352.6</ele>
        <time>2022-07-29T15:03:52Z</time>
      </trkpt>
      <trkpt lat="46.36912" lon="5.70392">
        <ele>353.2</ele>
        <time>2022-07-29T15:03:53Z</time>
      </trkpt>
      <trkpt lat="46.36914" lon="5.70392">
        <ele>353.2</ele>
        <time>2022-07-29T15:03:54Z</time>
      </trkpt>
      <trkpt lat="46.36917" lon="5.70392">
        <ele>353.4</ele>
        <time>2022-07-29T15:03:55Z</time>
      </trkpt>
      <trkpt lat="46.36919" lon="5.70392">
        <ele>353.4</ele>
        <time>2022-07-29T15:03:56Z</time>
      </trkpt>
      <trkpt lat="46.36922" lon="5.70392">
        <ele>353.8</ele>
        <time>2022-07-29T15:03:57Z</time>
      </trkpt>
      <trkpt lat="46.36924" lon="5.70392">
        <ele>354</ele>
        <time>2022-07-29T15:03:58Z</time>
      </trkpt>
      <trkpt lat="46.36927" lon="5.70392">
        <ele>354.4</ele>
        <time>2022-07-29T15:03:59Z</time>
      </trkpt>
      <trkpt lat="46.36929" lon="5.70392">
        <ele>354.4</ele>
        <time>2022-07-29T15:04:00Z</time>
      </trkpt>
      <trkpt lat="46.36932" lon="5.70392">
        <ele>354.6</ele>
        <time>2022-07-29T15:04:01Z</time>
      </trkpt>
      <trkpt lat="46.36935" lon="5.70392">
        <ele>354.6</ele>
        <time>2022-07-29T15:04:02Z</time>
      </trkpt>
      <trkpt lat="46.36937" lon="5.70393">
        <ele>355</ele>
        <time>2022-07-29T15:04:03Z</time>
      </trkpt>
      <trkpt lat="46.3694" lon="5.70393">
        <ele>355.4</ele>
        <time>2022-07-29T15:04:04Z</time>
      </trkpt>
      <trkpt lat="46.36943" lon="5.70393">
        <ele>355.6</ele>
        <time>2022-07-29T15:04:05Z</time>
      </trkpt>
      <trkpt lat="46.36945" lon="5.70394">
        <ele>356</ele>
        <time>2022-07-29T15:04:06Z</time>
      </trkpt>
      <trkpt lat="46.36948" lon="5.70394">
        <ele>356.2</ele>
        <time>2022-07-29T15:04:07Z</time>
      </trkpt>
      <trkpt lat="46.36951" lon="5.70395">
        <ele>356.4</ele>
        <time>2022-07-29T15:04:08Z</time>
      </trkpt>
      <trkpt lat="46.36953" lon="5.70396">
        <ele>356.6</ele>
        <time>2022-07-29T15:04:09Z</time>
      </trkpt>
      <trkpt lat="46.36956" lon="5.70396">
        <ele>356.8</ele>
        <time>2022-07-29T15:04:10Z</time>
      </trkpt>
      <trkpt lat="46.36959" lon="5.70397">
        <ele>357</ele>
        <time>2022-07-29T15:04:11Z</time>
      </trkpt>
      <trkpt lat="46.36962" lon="5.70397">
        <ele>357.4</ele>
        <time>2022-07-29T15:04:12Z</time>
      </trkpt>
      <trkpt lat="46.36964" lon="5.70398">
        <ele>357.6</ele>
        <time>2022-07-29T15:04:13Z</time>
      </trkpt>
      <trkpt lat="46.36966" lon="5.70398">
        <ele>357.6</ele>
        <time>2022-07-29T15:04:14Z</time>
      </trkpt>
      <trkpt lat="46.36968" lon="5.70398">
        <ele>358.2</ele>
        <time>2022-07-29T15:04:15Z</time>
      </trkpt>
      <trkpt lat="46.36971" lon="5.70399">
        <ele>358.4</ele>
        <time>2022-07-29T15:04:16Z</time>
      </trkpt>
      <trkpt lat="46.36973" lon="5.704">
        <ele>358.4</ele>
        <time>2022-07-29T15:04:17Z</time>
      </trkpt>
      <trkpt lat="46.36975" lon="5.70401">
        <ele>358.8</ele>
        <time>2022-07-29T15:04:18Z</time>
      </trkpt>
      <trkpt lat="46.36977" lon="5.70402">
        <ele>358.8</ele>
        <time>2022-07-29T15:04:19Z</time>
      </trkpt>
      <trkpt lat="46.36979" lon="5.70402">
        <ele>359.2</ele>
        <time>2022-07-29T15:04:20Z</time>
      </trkpt>
      <trkpt lat="46.36982" lon="5.70404">
        <ele>359.4</ele>
        <time>2022-07-29T15:04:21Z</time>
      </trkpt>
      <trkpt lat="46.36984" lon="5.70405">
        <ele>359.6</ele>
        <time>2022-07-29T15:04:22Z</time>
      </trkpt>
      <trkpt lat="46.36987" lon="5.70407">
        <ele>359.6</ele>
        <time>2022-07-29T15:04:23Z</time>
      </trkpt>
      <trkpt lat="46.36989" lon="5.70408">
        <ele>360.2</ele>
        <time>2022-07-29T15:04:24Z</time>
      </trkpt>
      <trkpt lat="46.36992" lon="5.7041">
        <ele>360.4</ele>
        <time>2022-07-29T15:04:25Z</time>
      </trkpt>
      <trkpt lat="46.36994" lon="5.70411">
        <ele>360.6</ele>
        <time>2022-07-29T15:04:26Z</time>
      </trkpt>
      <trkpt lat="46.36997" lon="5.70413">
        <ele>360.6</ele>
        <time>2022-07-29T15:04:27Z</time>
      </trkpt>
      <trkpt lat="46.36999" lon="5.70415">
        <ele>361</ele>
        <time>2022-07-29T15:04:28Z</time>
      </trkpt>
      <trkpt lat="46.37002" lon="5.70416">
        <ele>361.4</ele>
        <time>2022-07-29T15:04:29Z</time>
      </trkpt>
      <trkpt lat="46.37004" lon="5.70418">
        <ele>361.6</ele>
        <time>2022-07-29T15:04:30Z</time>
      </trkpt>
      <trkpt lat="46.37007" lon="5.70419">
        <ele>361.8</ele>
        <time>2022-07-29T15:04:31Z</time>
      </trkpt>
      <trkpt lat="46.37009" lon="5.70421">
        <ele>362.2</ele>
        <time>2022-07-29T15:04:32Z</time>
      </trkpt>
      <trkpt lat="46.37011" lon="5.70423">
        <ele>362.2</ele>
        <time>2022-07-29T15:04:33Z</time>
      </trkpt>
      <trkpt lat="46.37014" lon="5.70425">
        <ele>362.6</ele>
        <time>2022-07-29T15:04:34Z</time>
      </trkpt>
      <trkpt lat="46.37016" lon="5.70426">
        <ele>362.6</ele>
        <time>2022-07-29T15:04:35Z</time>
      </trkpt>
      <trkpt lat="46.37019" lon="5.70428">
        <ele>363</ele>
        <time>2022-07-29T15:04:36Z</time>
      </trkpt>
      <trkpt lat="46.37021" lon="5.70429">
        <ele>363</ele>
        <time>2022-07-29T15:04:37Z</time>
      </trkpt>
      <trkpt lat="46.37024" lon="5.70431">
        <ele>363.4</ele>
        <time>2022-07-29T15:04:38Z</time>
      </trkpt>
      <trkpt lat="46.37026" lon="5.70432">
        <ele>363.6</ele>
        <time>2022-07-29T15:04:39Z</time>
      </trkpt>
      <trkpt lat="46.37028" lon="5.70434">
        <ele>363.6</ele>
        <time>2022-07-29T15:04:40Z</time>
      </trkpt>
      <trkpt lat="46.37031" lon="5.70436">
        <ele>364</ele>
        <time>2022-07-29T15:04:41Z</time>
      </trkpt>
      <trkpt lat="46.37033" lon="5.70438">
        <ele>364</ele>
        <time>2022-07-29T15:04:42Z</time>
      </trkpt>
      <trkpt lat="46.37036" lon="5.7044">
        <ele>364.4</ele>
        <time>2022-07-29T15:04:43Z</time>
      </trkpt>
      <trkpt lat="46.37038" lon="5.70442">
        <ele>364.4</ele>
        <time>2022-07-29T15:04:44Z</time>
      </trkpt>
      <trkpt lat="46.3704" lon="5.70444">
        <ele>364.6</ele>
        <time>2022-07-29T15:04:45Z</time>
      </trkpt>
      <trkpt lat="46.37043" lon="5.70445">
        <ele>365</ele>
        <time>2022-07-29T15:04:46Z</time>
      </trkpt>
      <trkpt lat="46.37045" lon="5.70447">
        <ele>365.2</ele>
        <time>2022-07-29T15:04:47Z</time>
      </trkpt>
      <trkpt lat="46.37048" lon="5.70449">
        <ele>365.4</ele>
        <time>2022-07-29T15:04:48Z</time>
      </trkpt>
      <trkpt lat="46.3705" lon="5.7045">
        <ele>365.8</ele>
        <time>2022-07-29T15:04:49Z</time>
      </trkpt>
      <trkpt lat="46.37053" lon="5.70452">
        <ele>366</ele>
        <time>2022-07-29T15:04:50Z</time>
      </trkpt>
      <trkpt lat="46.37055" lon="5.70453">
        <ele>366</ele>
        <time>2022-07-29T15:04:51Z</time>
      </trkpt>
      <trkpt lat="46.37058" lon="5.70454">
        <ele>366.4</ele>
        <time>2022-07-29T15:04:52Z</time>
      </trkpt>
      <trkpt lat="46.3706" lon="5.70456">
        <ele>366.8</ele>
        <time>2022-07-29T15:04:53Z</time>
      </trkpt>
      <trkpt lat="46.37063" lon="5.70458">
        <ele>367</ele>
        <time>2022-07-29T15:04:54Z</time>
      </trkpt>
      <trkpt lat="46.37065" lon="5.70459">
        <ele>367.2</ele>
        <time>2022-07-29T15:04:55Z</time>
      </trkpt>
      <trkpt lat="46.37067" lon="5.70461">
        <ele>367.4</ele>
        <time>2022-07-29T15:04:56Z</time>
      </trkpt>
      <trkpt lat="46.3707" lon="5.70462">
        <ele>367.4</ele>
        <time>2022-07-29T15:04:57Z</time>
      </trkpt>
      <trkpt lat="46.37072" lon="5.70463">
        <ele>368</ele>
        <time>2022-07-29T15:04:58Z</time>
      </trkpt>
      <trkpt lat="46.37075" lon="5.70465">
        <ele>368.2</ele>
        <time>2022-07-29T15:04:59Z</time>
      </trkpt>
      <trkpt lat="46.37077" lon="5.70466">
        <ele>368.2</ele>
        <time>2022-07-29T15:05:00Z</time>
      </trkpt>
      <trkpt lat="46.3708" lon="5.70468">
        <ele>368.6</ele>
        <time>2022-07-29T15:05:01Z</time>
      </trkpt>
      <trkpt lat="46.37082" lon="5.7047">
        <ele>368.8</ele>
        <time>2022-07-29T15:05:02Z</time>
      </trkpt>
      <trkpt lat="46.37084" lon="5.70472">
        <ele>369</ele>
        <time>2022-07-29T15:05:03Z</time>
      </trkpt>
      <trkpt lat="46.37086" lon="5.70474">
        <ele>369.2</ele>
        <time>2022-07-29T15:05:04Z</time>
      </trkpt>
      <trkpt lat="46.37088" lon="5.70475">
        <ele>369.4</ele>
        <time>2022-07-29T15:05:05Z</time>
      </trkpt>
      <trkpt lat="46.3709" lon="5.70477">
        <ele>369.8</ele>
        <time>2022-07-29T15:05:06Z</time>
      </trkpt>
      <trkpt lat="46.37092" lon="5.70478">
        <ele>370</ele>
        <time>2022-07-29T15:05:07Z</time>
      </trkpt>
      <trkpt lat="46.37094" lon="5.7048">
        <ele>370</ele>
        <time>2022-07-29T15:05:08Z</time>
      </trkpt>
      <trkpt lat="46.37096" lon="5.70482">
        <ele>370.4</ele>
        <time>2022-07-29T15:05:09Z</time>
      </trkpt>
      <trkpt lat="46.37098" lon="5.70483">
        <ele>370.4</ele>
        <time>2022-07-29T15:05:10Z</time>
      </trkpt>
      <trkpt lat="46.37101" lon="5.70484">
        <ele>370.8</ele>
        <time>2022-07-29T15:05:11Z</time>
      </trkpt>
      <trkpt lat="46.37103" lon="5.70486">
        <ele>370.8</ele>
        <time>2022-07-29T15:05:12Z</time>
      </trkpt>
      <trkpt lat="46.37105" lon="5.70487">
        <ele>371.2</ele>
        <time>2022-07-29T15:05:13Z</time>
      </trkpt>
      <trkpt lat="46.37108" lon="5.70488">
        <ele>371.2</ele>
        <time>2022-07-29T15:05:14Z</time>
      </trkpt>
      <trkpt lat="46.3711" lon="5.70489">
        <ele>371.4</ele>
        <time>2022-07-29T15:05:15Z</time>
      </trkpt>
      <trkpt lat="46.37113" lon="5.7049">
        <ele>371.6</ele>
        <time>2022-07-29T15:05:16Z</time>
      </trkpt>
      <trkpt lat="46.37116" lon="5.70491">
        <ele>371.6</ele>
        <time>2022-07-29T15:05:17Z</time>
      </trkpt>
      <trkpt lat="46.37118" lon="5.70492">
        <ele>372.2</ele>
        <time>2022-07-29T15:05:18Z</time>
      </trkpt>
      <trkpt lat="46.37121" lon="5.70493">
        <ele>372.4</ele>
        <time>2022-07-29T15:05:19Z</time>
      </trkpt>
      <trkpt lat="46.37124" lon="5.70494">
        <ele>372.6</ele>
        <time>2022-07-29T15:05:20Z</time>
      </trkpt>
      <trkpt lat="46.37126" lon="5.70495">
        <ele>372.6</ele>
        <time>2022-07-29T15:05:21Z</time>
      </trkpt>
      <trkpt lat="46.37129" lon="5.70495">
        <ele>373</ele>
        <time>2022-07-29T15:05:22Z</time>
      </trkpt>
      <trkpt lat="46.37132" lon="5.70496">
        <ele>373.2</ele>
        <time>2022-07-29T15:05:23Z</time>
      </trkpt>
      <trkpt lat="46.37134" lon="5.70497">
        <ele>373.2</ele>
        <time>2022-07-29T15:05:24Z</time>
      </trkpt>
      <trkpt lat="46.37137" lon="5.70498">
        <ele>373.6</ele>
        <time>2022-07-29T15:05:25Z</time>
      </trkpt>
      <trkpt lat="46.3714" lon="5.705">
        <ele>373.6</ele>
        <time>2022-07-29T15:05:26Z</time>
      </trkpt>
      <trkpt lat="46.37142" lon="5.70501">
        <ele>374</ele>
        <time>2022-07-29T15:05:27Z</time>
      </trkpt>
      <trkpt lat="46.37145" lon="5.70503">
        <ele>374</ele>
        <time>2022-07-29T15:05:28Z</time>
      </trkpt>
      <trkpt lat="46.37147" lon="5.70505">
        <ele>374.2</ele>
        <time>2022-07-29T15:05:29Z</time>
      </trkpt>
      <trkpt lat="46.37147" lon="5.70505">
        <ele>374.4</ele>
        <time>2022-07-29T15:05:30Z</time>
      </trkpt>
      <trkpt lat="46.3715" lon="5.70506">
        <ele>374.4</ele>
        <time>2022-07-29T15:05:31Z</time>
      </trkpt>
      <trkpt lat="46.37152" lon="5.70508">
        <ele>374.8</ele>
        <time>2022-07-29T15:05:32Z</time>
      </trkpt>
      <trkpt lat="46.37155" lon="5.7051">
        <ele>374.8</ele>
        <time>2022-07-29T15:05:33Z</time>
      </trkpt>
      <trkpt lat="46.37157" lon="5.70511">
        <ele>375.2</ele>
        <time>2022-07-29T15:05:34Z</time>
      </trkpt>
      <trkpt lat="46.37159" lon="5.70513">
        <ele>375.2</ele>
        <time>2022-07-29T15:05:35Z</time>
      </trkpt>
      <trkpt lat="46.37162" lon="5.70516">
        <ele>375.6</ele>
        <time>2022-07-29T15:05:36Z</time>
      </trkpt>
      <trkpt lat="46.37164" lon="5.70518">
        <ele>375.8</ele>
        <time>2022-07-29T15:05:37Z</time>
      </trkpt>
      <trkpt lat="46.37166" lon="5.7052">
        <ele>376</ele>
        <time>2022-07-29T15:05:38Z</time>
      </trkpt>
      <trkpt lat="46.37169" lon="5.70523">
        <ele>376.4</ele>
        <time>2022-07-29T15:05:39Z</time>
      </trkpt>
      <trkpt lat="46.37171" lon="5.70525">
        <ele>376.4</ele>
        <time>2022-07-29T15:05:40Z</time>
      </trkpt>
      <trkpt lat="46.37173" lon="5.70527">
        <ele>376.8</ele>
        <time>2022-07-29T15:05:41Z</time>
      </trkpt>
      <trkpt lat="46.37175" lon="5.70529">
        <ele>377</ele>
        <time>2022-07-29T15:05:42Z</time>
      </trkpt>
      <trkpt lat="46.37177" lon="5.70531">
        <ele>377.2</ele>
        <time>2022-07-29T15:05:43Z</time>
      </trkpt>
      <trkpt lat="46.37179" lon="5.70534">
        <ele>377.2</ele>
        <time>2022-07-29T15:05:44Z</time>
      </trkpt>
      <trkpt lat="46.3718" lon="5.70536">
        <ele>377.6</ele>
        <time>2022-07-29T15:05:45Z</time>
      </trkpt>
      <trkpt lat="46.37182" lon="5.70539">
        <ele>377.8</ele>
        <time>2022-07-29T15:05:46Z</time>
      </trkpt>
      <trkpt lat="46.37183" lon="5.70541">
        <ele>378.2</ele>
        <time>2022-07-29T15:05:47Z</time>
      </trkpt>
      <trkpt lat="46.37185" lon="5.70544">
        <ele>378.2</ele>
        <time>2022-07-29T15:05:48Z</time>
      </trkpt>
      <trkpt lat="46.37187" lon="5.70546">
        <ele>378.6</ele>
        <time>2022-07-29T15:05:49Z</time>
      </trkpt>
      <trkpt lat="46.37188" lon="5.70549">
        <ele>378.6</ele>
        <time>2022-07-29T15:05:50Z</time>
      </trkpt>
      <trkpt lat="46.3719" lon="5.70551">
        <ele>379</ele>
        <time>2022-07-29T15:05:51Z</time>
      </trkpt>
      <trkpt lat="46.37192" lon="5.70554">
        <ele>379.2</ele>
        <time>2022-07-29T15:05:52Z</time>
      </trkpt>
      <trkpt lat="46.37194" lon="5.70556">
        <ele>379.4</ele>
        <time>2022-07-29T15:05:53Z</time>
      </trkpt>
      <trkpt lat="46.37195" lon="5.70559">
        <ele>379.6</ele>
        <time>2022-07-29T15:05:54Z</time>
      </trkpt>
      <trkpt lat="46.37197" lon="5.70561">
        <ele>379.6</ele>
        <time>2022-07-29T15:05:55Z</time>
      </trkpt>
      <trkpt lat="46.37199" lon="5.70563">
        <ele>380</ele>
        <time>2022-07-29T15:05:56Z</time>
      </trkpt>
      <trkpt lat="46.372" lon="5.70565">
        <ele>380.2</ele>
        <time>2022-07-29T15:05:57Z</time>
      </trkpt>
      <trkpt lat="46.37202" lon="5.70568">
        <ele>380.4</ele>
        <time>2022-07-29T15:05:58Z</time>
      </trkpt>
      <trkpt lat="46.37204" lon="5.7057">
        <ele>380.8</ele>
        <time>2022-07-29T15:05:59Z</time>
      </trkpt>
      <trkpt lat="46.37206" lon="5.70572">
        <ele>381</ele>
        <time>2022-07-29T15:06:00Z</time>
      </trkpt>
      <trkpt lat="46.37207" lon="5.70574">
        <ele>381</ele>
        <time>2022-07-29T15:06:01Z</time>
      </trkpt>
      <trkpt lat="46.37209" lon="5.70576">
        <ele>381.2</ele>
        <time>2022-07-29T15:06:02Z</time>
      </trkpt>
      <trkpt lat="46.3721" lon="5.70579">
        <ele>381.2</ele>
        <time>2022-07-29T15:06:03Z</time>
      </trkpt>
      <trkpt lat="46.37212" lon="5.70581">
        <ele>381.6</ele>
        <time>2022-07-29T15:06:04Z</time>
      </trkpt>
      <trkpt lat="46.37213" lon="5.70583">
        <ele>382</ele>
        <time>2022-07-29T15:06:05Z</time>
      </trkpt>
      <trkpt lat="46.37215" lon="5.70585">
        <ele>382</ele>
        <time>2022-07-29T15:06:06Z</time>
      </trkpt>
      <trkpt lat="46.37216" lon="5.70587">
        <ele>382.4</ele>
        <time>2022-07-29T15:06:07Z</time>
      </trkpt>
      <trkpt lat="46.37218" lon="5.70589">
        <ele>382.4</ele>
        <time>2022-07-29T15:06:08Z</time>
      </trkpt>
      <trkpt lat="46.3722" lon="5.70591">
        <ele>382.6</ele>
        <time>2022-07-29T15:06:09Z</time>
      </trkpt>
      <trkpt lat="46.37222" lon="5.70593">
        <ele>382.8</ele>
        <time>2022-07-29T15:06:10Z</time>
      </trkpt>
      <trkpt lat="46.37223" lon="5.70595">
        <ele>382.8</ele>
        <time>2022-07-29T15:06:11Z</time>
      </trkpt>
      <trkpt lat="46.37225" lon="5.70597">
        <ele>383.2</ele>
        <time>2022-07-29T15:06:12Z</time>
      </trkpt>
      <trkpt lat="46.37227" lon="5.70599">
        <ele>383.2</ele>
        <time>2022-07-29T15:06:13Z</time>
      </trkpt>
      <trkpt lat="46.37231" lon="5.70602">
        <ele>383.4</ele>
        <time>2022-07-29T15:06:14Z</time>
      </trkpt>
      <trkpt lat="46.37232" lon="5.70604">
        <ele>383.4</ele>
        <time>2022-07-29T15:06:15Z</time>
      </trkpt>
      <trkpt lat="46.37234" lon="5.70606">
        <ele>383.8</ele>
        <time>2022-07-29T15:06:16Z</time>
      </trkpt>
      <trkpt lat="46.37236" lon="5.70608">
        <ele>383.8</ele>
        <time>2022-07-29T15:06:17Z</time>
      </trkpt>
      <trkpt lat="46.37238" lon="5.70609">
        <ele>384</ele>
        <time>2022-07-29T15:06:18Z</time>
      </trkpt>
      <trkpt lat="46.37239" lon="5.70611">
        <ele>384</ele>
        <time>2022-07-29T15:06:19Z</time>
      </trkpt>
      <trkpt lat="46.37241" lon="5.70613">
        <ele>384.4</ele>
        <time>2022-07-29T15:06:20Z</time>
      </trkpt>
      <trkpt lat="46.37243" lon="5.70615">
        <ele>384.4</ele>
        <time>2022-07-29T15:06:21Z</time>
      </trkpt>
      <trkpt lat="46.37245" lon="5.70618">
        <ele>384.6</ele>
        <time>2022-07-29T15:06:22Z</time>
      </trkpt>
      <trkpt lat="46.37247" lon="5.70619">
        <ele>384.6</ele>
        <time>2022-07-29T15:06:23Z</time>
      </trkpt>
      <trkpt lat="46.37249" lon="5.70621">
        <ele>385</ele>
        <time>2022-07-29T15:06:24Z</time>
      </trkpt>
      <trkpt lat="46.3725" lon="5.70623">
        <ele>385</ele>
        <time>2022-07-29T15:06:25Z</time>
      </trkpt>
      <trkpt lat="46.37252" lon="5.70625">
        <ele>385.4</ele>
        <time>2022-07-29T15:06:26Z</time>
      </trkpt>
      <trkpt lat="46.37254" lon="5.70627">
        <ele>385.4</ele>
        <time>2022-07-29T15:06:27Z</time>
      </trkpt>
      <trkpt lat="46.37255" lon="5.70629">
        <ele>385.8</ele>
        <time>2022-07-29T15:06:28Z</time>
      </trkpt>
      <trkpt lat="46.37257" lon="5.70631">
        <ele>385.8</ele>
        <time>2022-07-29T15:06:29Z</time>
      </trkpt>
      <trkpt lat="46.37259" lon="5.70633">
        <ele>386.2</ele>
        <time>2022-07-29T15:06:30Z</time>
      </trkpt>
      <trkpt lat="46.37261" lon="5.70635">
        <ele>386.4</ele>
        <time>2022-07-29T15:06:31Z</time>
      </trkpt>
      <trkpt lat="46.37263" lon="5.70637">
        <ele>386.6</ele>
        <time>2022-07-29T15:06:32Z</time>
      </trkpt>
      <trkpt lat="46.37265" lon="5.7064">
        <ele>386.6</ele>
        <time>2022-07-29T15:06:33Z</time>
      </trkpt>
      <trkpt lat="46.37267" lon="5.70642">
        <ele>387</ele>
        <time>2022-07-29T15:06:34Z</time>
      </trkpt>
      <trkpt lat="46.37269" lon="5.70644">
        <ele>387.2</ele>
        <time>2022-07-29T15:06:35Z</time>
      </trkpt>
      <trkpt lat="46.37271" lon="5.70646">
        <ele>387.2</ele>
        <time>2022-07-29T15:06:36Z</time>
      </trkpt>
      <trkpt lat="46.37273" lon="5.70648">
        <ele>387.6</ele>
        <time>2022-07-29T15:06:37Z</time>
      </trkpt>
      <trkpt lat="46.37275" lon="5.7065">
        <ele>387.8</ele>
        <time>2022-07-29T15:06:38Z</time>
      </trkpt>
      <trkpt lat="46.37277" lon="5.70652">
        <ele>387.8</ele>
        <time>2022-07-29T15:06:39Z</time>
      </trkpt>
      <trkpt lat="46.37279" lon="5.70655">
        <ele>388</ele>
        <time>2022-07-29T15:06:40Z</time>
      </trkpt>
      <trkpt lat="46.37282" lon="5.70657">
        <ele>388.4</ele>
        <time>2022-07-29T15:06:41Z</time>
      </trkpt>
      <trkpt lat="46.37284" lon="5.70659">
        <ele>388.6</ele>
        <time>2022-07-29T15:06:42Z</time>
      </trkpt>
      <trkpt lat="46.37286" lon="5.70661">
        <ele>388.8</ele>
        <time>2022-07-29T15:06:43Z</time>
      </trkpt>
      <trkpt lat="46.37288" lon="5.70663">
        <ele>389</ele>
        <time>2022-07-29T15:06:44Z</time>
      </trkpt>
      <trkpt lat="46.3729" lon="5.70666">
        <ele>389</ele>
        <time>2022-07-29T15:06:45Z</time>
      </trkpt>
      <trkpt lat="46.37292" lon="5.70668">
        <ele>389.4</ele>
        <time>2022-07-29T15:06:46Z</time>
      </trkpt>
      <trkpt lat="46.37294" lon="5.7067">
        <ele>389.6</ele>
        <time>2022-07-29T15:06:47Z</time>
      </trkpt>
      <trkpt lat="46.37297" lon="5.70673">
        <ele>389.6</ele>
        <time>2022-07-29T15:06:48Z</time>
      </trkpt>
      <trkpt lat="46.37299" lon="5.70675">
        <ele>390</ele>
        <time>2022-07-29T15:06:49Z</time>
      </trkpt>
      <trkpt lat="46.37301" lon="5.70678">
        <ele>390.2</ele>
        <time>2022-07-29T15:06:50Z</time>
      </trkpt>
      <trkpt lat="46.37303" lon="5.7068">
        <ele>390.4</ele>
        <time>2022-07-29T15:06:51Z</time>
      </trkpt>
      <trkpt lat="46.37305" lon="5.70681">
        <ele>390.8</ele>
        <time>2022-07-29T15:06:52Z</time>
      </trkpt>
      <trkpt lat="46.37308" lon="5.70683">
        <ele>391</ele>
        <time>2022-07-29T15:06:53Z</time>
      </trkpt>
      <trkpt lat="46.3731" lon="5.70685">
        <ele>391.2</ele>
        <time>2022-07-29T15:06:54Z</time>
      </trkpt>
      <trkpt lat="46.37312" lon="5.70687">
        <ele>391.2</ele>
        <time>2022-07-29T15:06:55Z</time>
      </trkpt>
      <trkpt lat="46.37314" lon="5.70689">
        <ele>391.6</ele>
        <time>2022-07-29T15:06:56Z</time>
      </trkpt>
      <trkpt lat="46.37317" lon="5.70691">
        <ele>392</ele>
        <time>2022-07-29T15:06:57Z</time>
      </trkpt>
      <trkpt lat="46.37319" lon="5.70693">
        <ele>392</ele>
        <time>2022-07-29T15:06:58Z</time>
      </trkpt>
      <trkpt lat="46.37321" lon="5.70694">
        <ele>392.4</ele>
        <time>2022-07-29T15:06:59Z</time>
      </trkpt>
      <trkpt lat="46.37323" lon="5.70696">
        <ele>392.6</ele>
        <time>2022-07-29T15:07:00Z</time>
      </trkpt>
      <trkpt lat="46.37325" lon="5.70698">
        <ele>392.8</ele>
        <time>2022-07-29T15:07:01Z</time>
      </trkpt>
      <trkpt lat="46.37328" lon="5.70699">
        <ele>393</ele>
        <time>2022-07-29T15:07:02Z</time>
      </trkpt>
      <trkpt lat="46.3733" lon="5.70701">
        <ele>393.2</ele>
        <time>2022-07-29T15:07:03Z</time>
      </trkpt>
      <trkpt lat="46.37332" lon="5.70702">
        <ele>393.4</ele>
        <time>2022-07-29T15:07:04Z</time>
      </trkpt>
      <trkpt lat="46.37334" lon="5.70704">
        <ele>393.8</ele>
        <time>2022-07-29T15:07:05Z</time>
      </trkpt>
      <trkpt lat="46.37336" lon="5.70705">
        <ele>394</ele>
        <time>2022-07-29T15:07:06Z</time>
      </trkpt>
      <trkpt lat="46.37338" lon="5.70706">
        <ele>394</ele>
        <time>2022-07-29T15:07:07Z</time>
      </trkpt>
      <trkpt lat="46.3734" lon="5.70707">
        <ele>394.4</ele>
        <time>2022-07-29T15:07:08Z</time>
      </trkpt>
      <trkpt lat="46.37342" lon="5.70709">
        <ele>394.4</ele>
        <time>2022-07-29T15:07:09Z</time>
      </trkpt>
      <trkpt lat="46.37343" lon="5.70711">
        <ele>394.6</ele>
        <time>2022-07-29T15:07:10Z</time>
      </trkpt>
      <trkpt lat="46.37346" lon="5.70713">
        <ele>394.8</ele>
        <time>2022-07-29T15:07:11Z</time>
      </trkpt>
      <trkpt lat="46.37348" lon="5.70714">
        <ele>395</ele>
        <time>2022-07-29T15:07:12Z</time>
      </trkpt>
      <trkpt lat="46.3735" lon="5.70716">
        <ele>395</ele>
        <time>2022-07-29T15:07:13Z</time>
      </trkpt>
      <trkpt lat="46.37353" lon="5.70718">
        <ele>395.6</ele>
        <time>2022-07-29T15:07:14Z</time>
      </trkpt>
      <trkpt lat="46.37355" lon="5.70719">
        <ele>395.8</ele>
        <time>2022-07-29T15:07:15Z</time>
      </trkpt>
      <trkpt lat="46.37358" lon="5.70721">
        <ele>396</ele>
        <time>2022-07-29T15:07:16Z</time>
      </trkpt>
      <trkpt lat="46.3736" lon="5.70722">
        <ele>396.4</ele>
        <time>2022-07-29T15:07:17Z</time>
      </trkpt>
      <trkpt lat="46.37362" lon="5.70724">
        <ele>396.6</ele>
        <time>2022-07-29T15:07:18Z</time>
      </trkpt>
      <trkpt lat="46.37365" lon="5.70726">
        <ele>396.6</ele>
        <time>2022-07-29T15:07:19Z</time>
      </trkpt>
      <trkpt lat="46.37367" lon="5.70728">
        <ele>397.2</ele>
        <time>2022-07-29T15:07:20Z</time>
      </trkpt>
      <trkpt lat="46.37369" lon="5.70729">
        <ele>397.2</ele>
        <time>2022-07-29T15:07:21Z</time>
      </trkpt>
      <trkpt lat="46.37371" lon="5.70731">
        <ele>397.6</ele>
        <time>2022-07-29T15:07:22Z</time>
      </trkpt>
      <trkpt lat="46.37373" lon="5.70733">
        <ele>397.8</ele>
        <time>2022-07-29T15:07:23Z</time>
      </trkpt>
      <trkpt lat="46.37376" lon="5.70735">
        <ele>398</ele>
        <time>2022-07-29T15:07:24Z</time>
      </trkpt>
      <trkpt lat="46.37378" lon="5.70737">
        <ele>398</ele>
        <time>2022-07-29T15:07:25Z</time>
      </trkpt>
      <trkpt lat="46.3738" lon="5.70739">
        <ele>398.4</ele>
        <time>2022-07-29T15:07:26Z</time>
      </trkpt>
      <trkpt lat="46.37382" lon="5.70741">
        <ele>398.6</ele>
        <time>2022-07-29T15:07:27Z</time>
      </trkpt>
      <trkpt lat="46.37384" lon="5.70742">
        <ele>399</ele>
        <time>2022-07-29T15:07:28Z</time>
      </trkpt>
      <trkpt lat="46.37387" lon="5.70744">
        <ele>399.2</ele>
        <time>2022-07-29T15:07:29Z</time>
      </trkpt>
      <trkpt lat="46.37389" lon="5.70746">
        <ele>399.4</ele>
        <time>2022-07-29T15:07:30Z</time>
      </trkpt>
      <trkpt lat="46.37391" lon="5.70748">
        <ele>399.6</ele>
        <time>2022-07-29T15:07:31Z</time>
      </trkpt>
      <trkpt lat="46.37393" lon="5.70749">
        <ele>399.8</ele>
        <time>2022-07-29T15:07:32Z</time>
      </trkpt>
      <trkpt lat="46.37396" lon="5.70751">
        <ele>400.2</ele>
        <time>2022-07-29T15:07:33Z</time>
      </trkpt>
      <trkpt lat="46.37398" lon="5.70753">
        <ele>400.4</ele>
        <time>2022-07-29T15:07:34Z</time>
      </trkpt>
      <trkpt lat="46.374" lon="5.70755">
        <ele>400.6</ele>
        <time>2022-07-29T15:07:35Z</time>
      </trkpt>
      <trkpt lat="46.37402" lon="5.70757">
        <ele>400.6</ele>
        <time>2022-07-29T15:07:36Z</time>
      </trkpt>
      <trkpt lat="46.37404" lon="5.7076">
        <ele>401</ele>
        <time>2022-07-29T15:07:37Z</time>
      </trkpt>
      <trkpt lat="46.37406" lon="5.70762">
        <ele>401</ele>
        <time>2022-07-29T15:07:38Z</time>
      </trkpt>
      <trkpt lat="46.37408" lon="5.70764">
        <ele>401.4</ele>
        <time>2022-07-29T15:07:39Z</time>
      </trkpt>
      <trkpt lat="46.3741" lon="5.70766">
        <ele>401.6</ele>
        <time>2022-07-29T15:07:40Z</time>
      </trkpt>
      <trkpt lat="46.37412" lon="5.70768">
        <ele>401.8</ele>
        <time>2022-07-29T15:07:41Z</time>
      </trkpt>
      <trkpt lat="46.37413" lon="5.70771">
        <ele>402.2</ele>
        <time>2022-07-29T15:07:42Z</time>
      </trkpt>
      <trkpt lat="46.37415" lon="5.70773">
        <ele>402.2</ele>
        <time>2022-07-29T15:07:43Z</time>
      </trkpt>
      <trkpt lat="46.37417" lon="5.70775">
        <ele>402.6</ele>
        <time>2022-07-29T15:07:44Z</time>
      </trkpt>
      <trkpt lat="46.37419" lon="5.70777">
        <ele>402.6</ele>
        <time>2022-07-29T15:07:45Z</time>
      </trkpt>
      <trkpt lat="46.3742" lon="5.7078">
        <ele>403</ele>
        <time>2022-07-29T15:07:46Z</time>
      </trkpt>
      <trkpt lat="46.37422" lon="5.70782">
        <ele>403</ele>
        <time>2022-07-29T15:07:47Z</time>
      </trkpt>
      <trkpt lat="46.37424" lon="5.70784">
        <ele>403.4</ele>
        <time>2022-07-29T15:07:48Z</time>
      </trkpt>
      <trkpt lat="46.37426" lon="5.70787">
        <ele>403.4</ele>
        <time>2022-07-29T15:07:49Z</time>
      </trkpt>
      <trkpt lat="46.37428" lon="5.70789">
        <ele>403.8</ele>
        <time>2022-07-29T15:07:50Z</time>
      </trkpt>
      <trkpt lat="46.3743" lon="5.70791">
        <ele>403.8</ele>
        <time>2022-07-29T15:07:51Z</time>
      </trkpt>
      <trkpt lat="46.37432" lon="5.70793">
        <ele>404</ele>
        <time>2022-07-29T15:07:52Z</time>
      </trkpt>
      <trkpt lat="46.37434" lon="5.70795">
        <ele>404</ele>
        <time>2022-07-29T15:07:53Z</time>
      </trkpt>
      <trkpt lat="46.37435" lon="5.70798">
        <ele>404.6</ele>
        <time>2022-07-29T15:07:54Z</time>
      </trkpt>
      <trkpt lat="46.37437" lon="5.708">
        <ele>404.6</ele>
        <time>2022-07-29T15:07:55Z</time>
      </trkpt>
      <trkpt lat="46.37439" lon="5.70802">
        <ele>405</ele>
        <time>2022-07-29T15:07:56Z</time>
      </trkpt>
      <trkpt lat="46.37441" lon="5.70804">
        <ele>405</ele>
        <time>2022-07-29T15:07:57Z</time>
      </trkpt>
      <trkpt lat="46.37443" lon="5.70807">
        <ele>405.2</ele>
        <time>2022-07-29T15:07:58Z</time>
      </trkpt>
      <trkpt lat="46.37445" lon="5.70809">
        <ele>405.2</ele>
        <time>2022-07-29T15:07:59Z</time>
      </trkpt>
      <trkpt lat="46.37447" lon="5.70812">
        <ele>405.6</ele>
        <time>2022-07-29T15:08:00Z</time>
      </trkpt>
      <trkpt lat="46.37448" lon="5.70814">
        <ele>405.6</ele>
        <time>2022-07-29T15:08:01Z</time>
      </trkpt>
      <trkpt lat="46.3745" lon="5.70816">
        <ele>406.2</ele>
        <time>2022-07-29T15:08:02Z</time>
      </trkpt>
      <trkpt lat="46.37452" lon="5.70818">
        <ele>406.2</ele>
        <time>2022-07-29T15:08:03Z</time>
      </trkpt>
      <trkpt lat="46.37454" lon="5.70821">
        <ele>406.4</ele>
        <time>2022-07-29T15:08:04Z</time>
      </trkpt>
      <trkpt lat="46.37455" lon="5.70823">
        <ele>406.4</ele>
        <time>2022-07-29T15:08:05Z</time>
      </trkpt>
      <trkpt lat="46.37457" lon="5.70825">
        <ele>406.8</ele>
        <time>2022-07-29T15:08:06Z</time>
      </trkpt>
      <trkpt lat="46.37459" lon="5.70827">
        <ele>406.8</ele>
        <time>2022-07-29T15:08:07Z</time>
      </trkpt>
      <trkpt lat="46.37461" lon="5.70829">
        <ele>407.2</ele>
        <time>2022-07-29T15:08:08Z</time>
      </trkpt>
      <trkpt lat="46.37463" lon="5.70831">
        <ele>407.4</ele>
        <time>2022-07-29T15:08:09Z</time>
      </trkpt>
      <trkpt lat="46.37465" lon="5.70833">
        <ele>407.6</ele>
        <time>2022-07-29T15:08:10Z</time>
      </trkpt>
      <trkpt lat="46.37468" lon="5.70835">
        <ele>407.8</ele>
        <time>2022-07-29T15:08:11Z</time>
      </trkpt>
      <trkpt lat="46.3747" lon="5.70836">
        <ele>408</ele>
        <time>2022-07-29T15:08:12Z</time>
      </trkpt>
      <trkpt lat="46.37472" lon="5.70838">
        <ele>408.2</ele>
        <time>2022-07-29T15:08:13Z</time>
      </trkpt>
      <trkpt lat="46.37474" lon="5.7084">
        <ele>408.2</ele>
        <time>2022-07-29T15:08:14Z</time>
      </trkpt>
      <trkpt lat="46.37476" lon="5.70841">
        <ele>408.6</ele>
        <time>2022-07-29T15:08:15Z</time>
      </trkpt>
      <trkpt lat="46.37478" lon="5.70843">
        <ele>408.6</ele>
        <time>2022-07-29T15:08:16Z</time>
      </trkpt>
      <trkpt lat="46.3748" lon="5.70845">
        <ele>409</ele>
        <time>2022-07-29T15:08:17Z</time>
      </trkpt>
      <trkpt lat="46.37482" lon="5.70846">
        <ele>409</ele>
        <time>2022-07-29T15:08:18Z</time>
      </trkpt>
      <trkpt lat="46.37484" lon="5.70848">
        <ele>409.4</ele>
        <time>2022-07-29T15:08:19Z</time>
      </trkpt>
      <trkpt lat="46.37486" lon="5.70849">
        <ele>409.6</ele>
        <time>2022-07-29T15:08:20Z</time>
      </trkpt>
      <trkpt lat="46.37488" lon="5.7085">
        <ele>409.8</ele>
        <time>2022-07-29T15:08:21Z</time>
      </trkpt>
      <trkpt lat="46.3749" lon="5.70851">
        <ele>409.8</ele>
        <time>2022-07-29T15:08:22Z</time>
      </trkpt>
      <trkpt lat="46.37492" lon="5.70853">
        <ele>410.2</ele>
        <time>2022-07-29T15:08:23Z</time>
      </trkpt>
      <trkpt lat="46.37494" lon="5.70854">
        <ele>410.2</ele>
        <time>2022-07-29T15:08:24Z</time>
      </trkpt>
      <trkpt lat="46.37496" lon="5.70854">
        <ele>410.6</ele>
        <time>2022-07-29T15:08:25Z</time>
      </trkpt>
      <trkpt lat="46.37499" lon="5.70855">
        <ele>410.6</ele>
        <time>2022-07-29T15:08:26Z</time>
      </trkpt>
      <trkpt lat="46.37501" lon="5.70856">
        <ele>410.8</ele>
        <time>2022-07-29T15:08:27Z</time>
      </trkpt>
      <trkpt lat="46.37503" lon="5.70857">
        <ele>410.8</ele>
        <time>2022-07-29T15:08:28Z</time>
      </trkpt>
      <trkpt lat="46.37505" lon="5.70858">
        <ele>411.2</ele>
        <time>2022-07-29T15:08:29Z</time>
      </trkpt>
      <trkpt lat="46.37507" lon="5.70858">
        <ele>411.2</ele>
        <time>2022-07-29T15:08:30Z</time>
      </trkpt>
      <trkpt lat="46.37509" lon="5.70859">
        <ele>411.4</ele>
        <time>2022-07-29T15:08:31Z</time>
      </trkpt>
      <trkpt lat="46.37511" lon="5.7086">
        <ele>411.4</ele>
        <time>2022-07-29T15:08:32Z</time>
      </trkpt>
      <trkpt lat="46.37513" lon="5.7086">
        <ele>411.8</ele>
        <time>2022-07-29T15:08:33Z</time>
      </trkpt>
      <trkpt lat="46.37515" lon="5.7086">
        <ele>411.8</ele>
        <time>2022-07-29T15:08:34Z</time>
      </trkpt>
      <trkpt lat="46.37517" lon="5.70861">
        <ele>412</ele>
        <time>2022-07-29T15:08:35Z</time>
      </trkpt>
      <trkpt lat="46.3752" lon="5.70862">
        <ele>412</ele>
        <time>2022-07-29T15:08:36Z</time>
      </trkpt>
      <trkpt lat="46.37522" lon="5.70862">
        <ele>412.4</ele>
        <time>2022-07-29T15:08:37Z</time>
      </trkpt>
      <trkpt lat="46.37524" lon="5.70862">
        <ele>412.4</ele>
        <time>2022-07-29T15:08:38Z</time>
      </trkpt>
      <trkpt lat="46.37526" lon="5.70862">
        <ele>412.8</ele>
        <time>2022-07-29T15:08:39Z</time>
      </trkpt>
      <trkpt lat="46.37528" lon="5.70863">
        <ele>412.8</ele>
        <time>2022-07-29T15:08:40Z</time>
      </trkpt>
      <trkpt lat="46.37531" lon="5.70863">
        <ele>413.2</ele>
        <time>2022-07-29T15:08:41Z</time>
      </trkpt>
      <trkpt lat="46.37533" lon="5.70863">
        <ele>413.2</ele>
        <time>2022-07-29T15:08:42Z</time>
      </trkpt>
      <trkpt lat="46.37535" lon="5.70863">
        <ele>413.6</ele>
        <time>2022-07-29T15:08:43Z</time>
      </trkpt>
      <trkpt lat="46.37538" lon="5.70863">
        <ele>413.6</ele>
        <time>2022-07-29T15:08:44Z</time>
      </trkpt>
      <trkpt lat="46.3754" lon="5.70863">
        <ele>413.8</ele>
        <time>2022-07-29T15:08:45Z</time>
      </trkpt>
      <trkpt lat="46.37542" lon="5.70863">
        <ele>414</ele>
        <time>2022-07-29T15:08:46Z</time>
      </trkpt>
      <trkpt lat="46.37545" lon="5.70863">
        <ele>414</ele>
        <time>2022-07-29T15:08:47Z</time>
      </trkpt>
      <trkpt lat="46.37547" lon="5.70863">
        <ele>414</ele>
        <time>2022-07-29T15:08:48Z</time>
      </trkpt>
      <trkpt lat="46.3755" lon="5.70863">
        <ele>414.4</ele>
        <time>2022-07-29T15:08:49Z</time>
      </trkpt>
      <trkpt lat="46.37552" lon="5.70863">
        <ele>414.4</ele>
        <time>2022-07-29T15:08:50Z</time>
      </trkpt>
      <trkpt lat="46.37554" lon="5.70863">
        <ele>414.8</ele>
        <time>2022-07-29T15:08:51Z</time>
      </trkpt>
      <trkpt lat="46.37557" lon="5.70863">
        <ele>414.8</ele>
        <time>2022-07-29T15:08:52Z</time>
      </trkpt>
      <trkpt lat="46.37559" lon="5.70863">
        <ele>415.2</ele>
        <time>2022-07-29T15:08:53Z</time>
      </trkpt>
      <trkpt lat="46.37562" lon="5.70863">
        <ele>415.2</ele>
        <time>2022-07-29T15:08:54Z</time>
      </trkpt>
      <trkpt lat="46.37565" lon="5.70863">
        <ele>415.6</ele>
        <time>2022-07-29T15:08:55Z</time>
      </trkpt>
      <trkpt lat="46.37567" lon="5.70862">
        <ele>415.8</ele>
        <time>2022-07-29T15:08:56Z</time>
      </trkpt>
      <trkpt lat="46.3757" lon="5.70862">
        <ele>416</ele>
        <time>2022-07-29T15:08:57Z</time>
      </trkpt>
      <trkpt lat="46.37572" lon="5.70862">
        <ele>416</ele>
        <time>2022-07-29T15:08:58Z</time>
      </trkpt>
      <trkpt lat="46.37575" lon="5.70862">
        <ele>416.4</ele>
        <time>2022-07-29T15:08:59Z</time>
      </trkpt>
      <trkpt lat="46.37578" lon="5.70862">
        <ele>416.6</ele>
        <time>2022-07-29T15:09:00Z</time>
      </trkpt>
      <trkpt lat="46.3758" lon="5.70862">
        <ele>416.6</ele>
        <time>2022-07-29T15:09:01Z</time>
      </trkpt>
      <trkpt lat="46.37583" lon="5.70862">
        <ele>417</ele>
        <time>2022-07-29T15:09:02Z</time>
      </trkpt>
      <trkpt lat="46.37585" lon="5.70862">
        <ele>417</ele>
        <time>2022-07-29T15:09:03Z</time>
      </trkpt>
      <trkpt lat="46.37588" lon="5.70862">
        <ele>417.4</ele>
        <time>2022-07-29T15:09:04Z</time>
      </trkpt>
      <trkpt lat="46.3759" lon="5.70862">
        <ele>417.6</ele>
        <time>2022-07-29T15:09:05Z</time>
      </trkpt>
      <trkpt lat="46.37593" lon="5.70862">
        <ele>417.6</ele>
        <time>2022-07-29T15:09:06Z</time>
      </trkpt>
      <trkpt lat="46.37596" lon="5.70862">
        <ele>418</ele>
        <time>2022-07-29T15:09:07Z</time>
      </trkpt>
      <trkpt lat="46.37598" lon="5.70862">
        <ele>418.2</ele>
        <time>2022-07-29T15:09:08Z</time>
      </trkpt>
      <trkpt lat="46.37601" lon="5.70862">
        <ele>418.2</ele>
        <time>2022-07-29T15:09:09Z</time>
      </trkpt>
      <trkpt lat="46.37604" lon="5.70862">
        <ele>418.6</ele>
        <time>2022-07-29T15:09:10Z</time>
      </trkpt>
      <trkpt lat="46.37606" lon="5.70862">
        <ele>418.6</ele>
        <time>2022-07-29T15:09:11Z</time>
      </trkpt>
      <trkpt lat="46.37609" lon="5.70862">
        <ele>418.8</ele>
        <time>2022-07-29T15:09:12Z</time>
      </trkpt>
      <trkpt lat="46.37611" lon="5.70862">
        <ele>418.8</ele>
        <time>2022-07-29T15:09:13Z</time>
      </trkpt>
      <trkpt lat="46.37614" lon="5.70862">
        <ele>419.2</ele>
        <time>2022-07-29T15:09:14Z</time>
      </trkpt>
      <trkpt lat="46.37616" lon="5.70862">
        <ele>419.2</ele>
        <time>2022-07-29T15:09:15Z</time>
      </trkpt>
      <trkpt lat="46.37619" lon="5.70862">
        <ele>419.4</ele>
        <time>2022-07-29T15:09:16Z</time>
      </trkpt>
      <trkpt lat="46.37622" lon="5.70862">
        <ele>419.4</ele>
        <time>2022-07-29T15:09:17Z</time>
      </trkpt>
      <trkpt lat="46.37624" lon="5.70862">
        <ele>419.6</ele>
        <time>2022-07-29T15:09:18Z</time>
      </trkpt>
      <trkpt lat="46.37627" lon="5.70862">
        <ele>419.6</ele>
        <time>2022-07-29T15:09:19Z</time>
      </trkpt>
      <trkpt lat="46.3763" lon="5.70862">
        <ele>419.6</ele>
        <time>2022-07-29T15:09:20Z</time>
      </trkpt>
      <trkpt lat="46.37632" lon="5.70862">
        <ele>420.2</ele>
        <time>2022-07-29T15:09:21Z</time>
      </trkpt>
      <trkpt lat="46.37635" lon="5.70862">
        <ele>420.2</ele>
        <time>2022-07-29T15:09:22Z</time>
      </trkpt>
      <trkpt lat="46.37637" lon="5.70862">
        <ele>420.2</ele>
        <time>2022-07-29T15:09:23Z</time>
      </trkpt>
      <trkpt lat="46.3764" lon="5.70862">
        <ele>420.6</ele>
        <time>2022-07-29T15:09:24Z</time>
      </trkpt>
      <trkpt lat="46.37643" lon="5.70862">
        <ele>420.8</ele>
        <time>2022-07-29T15:09:25Z</time>
      </trkpt>
      <trkpt lat="46.37645" lon="5.70862">
        <ele>421</ele>
        <time>2022-07-29T15:09:26Z</time>
      </trkpt>
      <trkpt lat="46.37648" lon="5.70861">
        <ele>421</ele>
        <time>2022-07-29T15:09:27Z</time>
      </trkpt>
      <trkpt lat="46.37651" lon="5.70861">
        <ele>421.4</ele>
        <time>2022-07-29T15:09:28Z</time>
      </trkpt>
      <trkpt lat="46.37653" lon="5.70861">
        <ele>421.6</ele>
        <time>2022-07-29T15:09:29Z</time>
      </trkpt>
      <trkpt lat="46.37656" lon="5.70861">
        <ele>421.6</ele>
        <time>2022-07-29T15:09:30Z</time>
      </trkpt>
      <trkpt lat="46.37658" lon="5.70861">
        <ele>421.8</ele>
        <time>2022-07-29T15:09:31Z</time>
      </trkpt>
      <trkpt lat="46.37661" lon="5.70862">
        <ele>421.8</ele>
        <time>2022-07-29T15:09:32Z</time>
      </trkpt>
      <trkpt lat="46.37663" lon="5.70862">
        <ele>422</ele>
        <time>2022-07-29T15:09:33Z</time>
      </trkpt>
      <trkpt lat="46.37666" lon="5.70862">
        <ele>422</ele>
        <time>2022-07-29T15:09:34Z</time>
      </trkpt>
      <trkpt lat="46.37668" lon="5.70862">
        <ele>422.2</ele>
        <time>2022-07-29T15:09:35Z</time>
      </trkpt>
      <trkpt lat="46.37671" lon="5.70862">
        <ele>422.2</ele>
        <time>2022-07-29T15:09:36Z</time>
      </trkpt>
      <trkpt lat="46.37674" lon="5.70862">
        <ele>422.6</ele>
        <time>2022-07-29T15:09:37Z</time>
      </trkpt>
      <trkpt lat="46.37676" lon="5.70862">
        <ele>422.6</ele>
        <time>2022-07-29T15:09:38Z</time>
      </trkpt>
      <trkpt lat="46.37679" lon="5.70862">
        <ele>422.8</ele>
        <time>2022-07-29T15:09:39Z</time>
      </trkpt>
      <trkpt lat="46.37681" lon="5.70862">
        <ele>423</ele>
        <time>2022-07-29T15:09:40Z</time>
      </trkpt>
      <trkpt lat="46.37684" lon="5.70863">
        <ele>423</ele>
        <time>2022-07-29T15:09:41Z</time>
      </trkpt>
      <trkpt lat="46.37686" lon="5.70864">
        <ele>423.4</ele>
        <time>2022-07-29T15:09:42Z</time>
      </trkpt>
      <trkpt lat="46.37689" lon="5.70864">
        <ele>423.4</ele>
        <time>2022-07-29T15:09:43Z</time>
      </trkpt>
      <trkpt lat="46.37692" lon="5.70864">
        <ele>423.6</ele>
        <time>2022-07-29T15:09:44Z</time>
      </trkpt>
      <trkpt lat="46.37694" lon="5.70865">
        <ele>423.6</ele>
        <time>2022-07-29T15:09:45Z</time>
      </trkpt>
      <trkpt lat="46.37697" lon="5.70865">
        <ele>423.8</ele>
        <time>2022-07-29T15:09:46Z</time>
      </trkpt>
      <trkpt lat="46.37699" lon="5.70866">
        <ele>424</ele>
        <time>2022-07-29T15:09:47Z</time>
      </trkpt>
      <trkpt lat="46.37702" lon="5.70866">
        <ele>424</ele>
        <time>2022-07-29T15:09:48Z</time>
      </trkpt>
      <trkpt lat="46.37704" lon="5.70867">
        <ele>424.4</ele>
        <time>2022-07-29T15:09:49Z</time>
      </trkpt>
      <trkpt lat="46.37707" lon="5.70867">
        <ele>424.4</ele>
        <time>2022-07-29T15:09:50Z</time>
      </trkpt>
      <trkpt lat="46.3771" lon="5.70868">
        <ele>424.8</ele>
        <time>2022-07-29T15:09:51Z</time>
      </trkpt>
      <trkpt lat="46.37712" lon="5.70869">
        <ele>425</ele>
        <time>2022-07-29T15:09:52Z</time>
      </trkpt>
      <trkpt lat="46.37715" lon="5.7087">
        <ele>425</ele>
        <time>2022-07-29T15:09:53Z</time>
      </trkpt>
      <trkpt lat="46.37718" lon="5.7087">
        <ele>425.4</ele>
        <time>2022-07-29T15:09:54Z</time>
      </trkpt>
      <trkpt lat="46.3772" lon="5.70871">
        <ele>425.4</ele>
        <time>2022-07-29T15:09:55Z</time>
      </trkpt>
      <trkpt lat="46.37723" lon="5.70873">
        <ele>425.8</ele>
        <time>2022-07-29T15:09:56Z</time>
      </trkpt>
      <trkpt lat="46.37726" lon="5.70874">
        <ele>426</ele>
        <time>2022-07-29T15:09:57Z</time>
      </trkpt>
      <trkpt lat="46.37728" lon="5.70875">
        <ele>426.2</ele>
        <time>2022-07-29T15:09:58Z</time>
      </trkpt>
      <trkpt lat="46.37731" lon="5.70876">
        <ele>426.2</ele>
        <time>2022-07-29T15:09:59Z</time>
      </trkpt>
      <trkpt lat="46.37734" lon="5.70877">
        <ele>426.6</ele>
        <time>2022-07-29T15:10:00Z</time>
      </trkpt>
      <trkpt lat="46.37736" lon="5.70878">
        <ele>426.6</ele>
        <time>2022-07-29T15:10:01Z</time>
      </trkpt>
      <trkpt lat="46.37739" lon="5.70879">
        <ele>426.8</ele>
        <time>2022-07-29T15:10:02Z</time>
      </trkpt>
      <trkpt lat="46.37741" lon="5.7088">
        <ele>426.8</ele>
        <time>2022-07-29T15:10:03Z</time>
      </trkpt>
      <trkpt lat="46.37744" lon="5.70881">
        <ele>427.2</ele>
        <time>2022-07-29T15:10:04Z</time>
      </trkpt>
      <trkpt lat="46.37746" lon="5.70883">
        <ele>427.2</ele>
        <time>2022-07-29T15:10:05Z</time>
      </trkpt>
      <trkpt lat="46.37749" lon="5.70884">
        <ele>427.6</ele>
        <time>2022-07-29T15:10:06Z</time>
      </trkpt>
      <trkpt lat="46.37751" lon="5.70885">
        <ele>427.6</ele>
        <time>2022-07-29T15:10:07Z</time>
      </trkpt>
      <trkpt lat="46.37754" lon="5.70886">
        <ele>427.8</ele>
        <time>2022-07-29T15:10:08Z</time>
      </trkpt>
      <trkpt lat="46.37756" lon="5.70887">
        <ele>427.8</ele>
        <time>2022-07-29T15:10:09Z</time>
      </trkpt>
      <trkpt lat="46.37759" lon="5.70888">
        <ele>428.2</ele>
        <time>2022-07-29T15:10:10Z</time>
      </trkpt>
      <trkpt lat="46.37761" lon="5.7089">
        <ele>428.2</ele>
        <time>2022-07-29T15:10:11Z</time>
      </trkpt>
      <trkpt lat="46.37764" lon="5.70891">
        <ele>428.4</ele>
        <time>2022-07-29T15:10:12Z</time>
      </trkpt>
      <trkpt lat="46.37766" lon="5.70893">
        <ele>428.4</ele>
        <time>2022-07-29T15:10:13Z</time>
      </trkpt>
      <trkpt lat="46.37769" lon="5.70894">
        <ele>428.8</ele>
        <time>2022-07-29T15:10:14Z</time>
      </trkpt>
      <trkpt lat="46.37771" lon="5.70896">
        <ele>428.8</ele>
        <time>2022-07-29T15:10:15Z</time>
      </trkpt>
      <trkpt lat="46.37774" lon="5.70898">
        <ele>429.2</ele>
        <time>2022-07-29T15:10:16Z</time>
      </trkpt>
      <trkpt lat="46.37777" lon="5.70899">
        <ele>429.4</ele>
        <time>2022-07-29T15:10:17Z</time>
      </trkpt>
      <trkpt lat="46.37779" lon="5.70901">
        <ele>429.4</ele>
        <time>2022-07-29T15:10:18Z</time>
      </trkpt>
      <trkpt lat="46.37782" lon="5.70903">
        <ele>429.6</ele>
        <time>2022-07-29T15:10:19Z</time>
      </trkpt>
      <trkpt lat="46.37785" lon="5.70904">
        <ele>430</ele>
        <time>2022-07-29T15:10:20Z</time>
      </trkpt>
      <trkpt lat="46.37787" lon="5.70906">
        <ele>430</ele>
        <time>2022-07-29T15:10:21Z</time>
      </trkpt>
      <trkpt lat="46.3779" lon="5.70907">
        <ele>430.4</ele>
        <time>2022-07-29T15:10:22Z</time>
      </trkpt>
      <trkpt lat="46.37793" lon="5.70909">
        <ele>430.4</ele>
        <time>2022-07-29T15:10:23Z</time>
      </trkpt>
      <trkpt lat="46.37795" lon="5.70911">
        <ele>430.6</ele>
        <time>2022-07-29T15:10:24Z</time>
      </trkpt>
      <trkpt lat="46.37798" lon="5.70913">
        <ele>430.6</ele>
        <time>2022-07-29T15:10:25Z</time>
      </trkpt>
      <trkpt lat="46.37801" lon="5.70914">
        <ele>431</ele>
        <time>2022-07-29T15:10:26Z</time>
      </trkpt>
      <trkpt lat="46.37803" lon="5.70916">
        <ele>431</ele>
        <time>2022-07-29T15:10:27Z</time>
      </trkpt>
      <trkpt lat="46.37806" lon="5.70918">
        <ele>431.4</ele>
        <time>2022-07-29T15:10:28Z</time>
      </trkpt>
      <trkpt lat="46.37809" lon="5.70919">
        <ele>431.4</ele>
        <time>2022-07-29T15:10:29Z</time>
      </trkpt>
      <trkpt lat="46.37811" lon="5.70921">
        <ele>431.8</ele>
        <time>2022-07-29T15:10:30Z</time>
      </trkpt>
      <trkpt lat="46.37814" lon="5.70923">
        <ele>431.8</ele>
        <time>2022-07-29T15:10:31Z</time>
      </trkpt>
      <trkpt lat="46.37816" lon="5.70924">
        <ele>432</ele>
        <time>2022-07-29T15:10:32Z</time>
      </trkpt>
      <trkpt lat="46.37819" lon="5.70926">
        <ele>432</ele>
        <time>2022-07-29T15:10:33Z</time>
      </trkpt>
      <trkpt lat="46.37821" lon="5.70928">
        <ele>432.2</ele>
        <time>2022-07-29T15:10:34Z</time>
      </trkpt>
      <trkpt lat="46.37824" lon="5.7093">
        <ele>432.4</ele>
        <time>2022-07-29T15:10:35Z</time>
      </trkpt>
      <trkpt lat="46.37827" lon="5.70932">
        <ele>432.4</ele>
        <time>2022-07-29T15:10:36Z</time>
      </trkpt>
      <trkpt lat="46.37829" lon="5.70934">
        <ele>432.8</ele>
        <time>2022-07-29T15:10:37Z</time>
      </trkpt>
      <trkpt lat="46.37832" lon="5.70936">
        <ele>432.8</ele>
        <time>2022-07-29T15:10:38Z</time>
      </trkpt>
      <trkpt lat="46.37835" lon="5.70938">
        <ele>433.2</ele>
        <time>2022-07-29T15:10:39Z</time>
      </trkpt>
      <trkpt lat="46.37837" lon="5.7094">
        <ele>433.2</ele>
        <time>2022-07-29T15:10:40Z</time>
      </trkpt>
      <trkpt lat="46.3784" lon="5.70942">
        <ele>433.4</ele>
        <time>2022-07-29T15:10:41Z</time>
      </trkpt>
      <trkpt lat="46.37842" lon="5.70945">
        <ele>433.6</ele>
        <time>2022-07-29T15:10:42Z</time>
      </trkpt>
      <trkpt lat="46.37845" lon="5.70947">
        <ele>433.8</ele>
        <time>2022-07-29T15:10:43Z</time>
      </trkpt>
      <trkpt lat="46.37848" lon="5.70949">
        <ele>433.8</ele>
        <time>2022-07-29T15:10:44Z</time>
      </trkpt>
      <trkpt lat="46.3785" lon="5.70951">
        <ele>434</ele>
        <time>2022-07-29T15:10:45Z</time>
      </trkpt>
      <trkpt lat="46.37853" lon="5.70953">
        <ele>434</ele>
        <time>2022-07-29T15:10:46Z</time>
      </trkpt>
      <trkpt lat="46.37856" lon="5.70955">
        <ele>434.4</ele>
        <time>2022-07-29T15:10:47Z</time>
      </trkpt>
      <trkpt lat="46.37859" lon="5.70957">
        <ele>434.4</ele>
        <time>2022-07-29T15:10:48Z</time>
      </trkpt>
      <trkpt lat="46.37861" lon="5.7096">
        <ele>434.8</ele>
        <time>2022-07-29T15:10:49Z</time>
      </trkpt>
      <trkpt lat="46.37864" lon="5.70962">
        <ele>434.8</ele>
        <time>2022-07-29T15:10:50Z</time>
      </trkpt>
      <trkpt lat="46.37867" lon="5.70964">
        <ele>435</ele>
        <time>2022-07-29T15:10:51Z</time>
      </trkpt>
      <trkpt lat="46.37869" lon="5.70966">
        <ele>435</ele>
        <time>2022-07-29T15:10:52Z</time>
      </trkpt>
      <trkpt lat="46.37872" lon="5.70969">
        <ele>435.4</ele>
        <time>2022-07-29T15:10:53Z</time>
      </trkpt>
      <trkpt lat="46.37875" lon="5.70971">
        <ele>435.6</ele>
        <time>2022-07-29T15:10:54Z</time>
      </trkpt>
      <trkpt lat="46.37877" lon="5.70973">
        <ele>435.6</ele>
        <time>2022-07-29T15:10:55Z</time>
      </trkpt>
      <trkpt lat="46.3788" lon="5.70975">
        <ele>436</ele>
        <time>2022-07-29T15:10:56Z</time>
      </trkpt>
      <trkpt lat="46.37883" lon="5.70977">
        <ele>436</ele>
        <time>2022-07-29T15:10:57Z</time>
      </trkpt>
      <trkpt lat="46.37885" lon="5.7098">
        <ele>436.4</ele>
        <time>2022-07-29T15:10:58Z</time>
      </trkpt>
      <trkpt lat="46.37888" lon="5.70982">
        <ele>436.4</ele>
        <time>2022-07-29T15:10:59Z</time>
      </trkpt>
      <trkpt lat="46.3789" lon="5.70984">
        <ele>436.6</ele>
        <time>2022-07-29T15:11:00Z</time>
      </trkpt>
      <trkpt lat="46.37893" lon="5.70987">
        <ele>436.6</ele>
        <time>2022-07-29T15:11:01Z</time>
      </trkpt>
      <trkpt lat="46.37896" lon="5.70989">
        <ele>437</ele>
        <time>2022-07-29T15:11:02Z</time>
      </trkpt>
      <trkpt lat="46.37899" lon="5.70991">
        <ele>437.4</ele>
        <time>2022-07-29T15:11:03Z</time>
      </trkpt>
      <trkpt lat="46.37901" lon="5.70993">
        <ele>437.4</ele>
        <time>2022-07-29T15:11:04Z</time>
      </trkpt>
      <trkpt lat="46.37904" lon="5.70995">
        <ele>437.4</ele>
        <time>2022-07-29T15:11:05Z</time>
      </trkpt>
      <trkpt lat="46.37906" lon="5.70997">
        <ele>437.8</ele>
        <time>2022-07-29T15:11:06Z</time>
      </trkpt>
      <trkpt lat="46.37909" lon="5.70999">
        <ele>438</ele>
        <time>2022-07-29T15:11:07Z</time>
      </trkpt>
      <trkpt lat="46.37911" lon="5.71001">
        <ele>438.2</ele>
        <time>2022-07-29T15:11:08Z</time>
      </trkpt>
      <trkpt lat="46.37911" lon="5.71001">
        <ele>438.6</ele>
        <time>2022-07-29T15:11:09Z</time>
      </trkpt>
      <trkpt lat="46.37914" lon="5.71003">
        <ele>438.6</ele>
        <time>2022-07-29T15:11:10Z</time>
      </trkpt>
      <trkpt lat="46.37916" lon="5.71005">
        <ele>438.8</ele>
        <time>2022-07-29T15:11:11Z</time>
      </trkpt>
      <trkpt lat="46.37919" lon="5.71007">
        <ele>438.8</ele>
        <time>2022-07-29T15:11:12Z</time>
      </trkpt>
      <trkpt lat="46.37921" lon="5.71009">
        <ele>439.2</ele>
        <time>2022-07-29T15:11:13Z</time>
      </trkpt>
      <trkpt lat="46.37924" lon="5.71011">
        <ele>439.2</ele>
        <time>2022-07-29T15:11:14Z</time>
      </trkpt>
      <trkpt lat="46.37926" lon="5.71013">
        <ele>439.6</ele>
        <time>2022-07-29T15:11:15Z</time>
      </trkpt>
      <trkpt lat="46.37929" lon="5.71015">
        <ele>439.8</ele>
        <time>2022-07-29T15:11:16Z</time>
      </trkpt>
      <trkpt lat="46.37931" lon="5.71018">
        <ele>439.8</ele>
        <time>2022-07-29T15:11:17Z</time>
      </trkpt>
      <trkpt lat="46.37934" lon="5.7102">
        <ele>440</ele>
        <time>2022-07-29T15:11:18Z</time>
      </trkpt>
      <trkpt lat="46.37936" lon="5.71022">
        <ele>440</ele>
        <time>2022-07-29T15:11:19Z</time>
      </trkpt>
      <trkpt lat="46.37938" lon="5.71024">
        <ele>440.4</ele>
        <time>2022-07-29T15:11:20Z</time>
      </trkpt>
      <trkpt lat="46.37941" lon="5.71026">
        <ele>440.4</ele>
        <time>2022-07-29T15:11:21Z</time>
      </trkpt>
      <trkpt lat="46.37943" lon="5.71028">
        <ele>440.8</ele>
        <time>2022-07-29T15:11:22Z</time>
      </trkpt>
      <trkpt lat="46.37946" lon="5.7103">
        <ele>441.2</ele>
        <time>2022-07-29T15:11:23Z</time>
      </trkpt>
      <trkpt lat="46.37948" lon="5.71032">
        <ele>441.2</ele>
        <time>2022-07-29T15:11:24Z</time>
      </trkpt>
      <trkpt lat="46.37951" lon="5.71034">
        <ele>441.4</ele>
        <time>2022-07-29T15:11:25Z</time>
      </trkpt>
      <trkpt lat="46.37953" lon="5.71036">
        <ele>441.4</ele>
        <time>2022-07-29T15:11:26Z</time>
      </trkpt>
      <trkpt lat="46.37955" lon="5.71037">
        <ele>441.6</ele>
        <time>2022-07-29T15:11:27Z</time>
      </trkpt>
      <trkpt lat="46.37958" lon="5.71039">
        <ele>441.6</ele>
        <time>2022-07-29T15:11:28Z</time>
      </trkpt>
      <trkpt lat="46.3796" lon="5.71041">
        <ele>442</ele>
        <time>2022-07-29T15:11:29Z</time>
      </trkpt>
      <trkpt lat="46.37962" lon="5.71043">
        <ele>442.2</ele>
        <time>2022-07-29T15:11:30Z</time>
      </trkpt>
      <trkpt lat="46.37965" lon="5.71045">
        <ele>442.6</ele>
        <time>2022-07-29T15:11:31Z</time>
      </trkpt>
      <trkpt lat="46.37967" lon="5.71047">
        <ele>442.8</ele>
        <time>2022-07-29T15:11:32Z</time>
      </trkpt>
      <trkpt lat="46.3797" lon="5.71048">
        <ele>443</ele>
        <time>2022-07-29T15:11:33Z</time>
      </trkpt>
      <trkpt lat="46.37972" lon="5.7105">
        <ele>443</ele>
        <time>2022-07-29T15:11:34Z</time>
      </trkpt>
      <trkpt lat="46.37975" lon="5.71052">
        <ele>443.2</ele>
        <time>2022-07-29T15:11:35Z</time>
      </trkpt>
      <trkpt lat="46.37977" lon="5.71054">
        <ele>443.2</ele>
        <time>2022-07-29T15:11:36Z</time>
      </trkpt>
      <trkpt lat="46.3798" lon="5.71055">
        <ele>443.6</ele>
        <time>2022-07-29T15:11:37Z</time>
      </trkpt>
      <trkpt lat="46.37982" lon="5.71057">
        <ele>443.6</ele>
        <time>2022-07-29T15:11:38Z</time>
      </trkpt>
      <trkpt lat="46.37985" lon="5.71059">
        <ele>444</ele>
        <time>2022-07-29T15:11:39Z</time>
      </trkpt>
      <trkpt lat="46.37988" lon="5.7106">
        <ele>444</ele>
        <time>2022-07-29T15:11:40Z</time>
      </trkpt>
      <trkpt lat="46.3799" lon="5.71062">
        <ele>444.4</ele>
        <time>2022-07-29T15:11:41Z</time>
      </trkpt>
      <trkpt lat="46.37993" lon="5.71063">
        <ele>444.4</ele>
        <time>2022-07-29T15:11:42Z</time>
      </trkpt>
      <trkpt lat="46.37996" lon="5.71065">
        <ele>444.8</ele>
        <time>2022-07-29T15:11:43Z</time>
      </trkpt>
      <trkpt lat="46.37998" lon="5.71066">
        <ele>444.8</ele>
        <time>2022-07-29T15:11:44Z</time>
      </trkpt>
      <trkpt lat="46.38001" lon="5.71067">
        <ele>445</ele>
        <time>2022-07-29T15:11:45Z</time>
      </trkpt>
      <trkpt lat="46.38003" lon="5.71069">
        <ele>445</ele>
        <time>2022-07-29T15:11:46Z</time>
      </trkpt>
      <trkpt lat="46.38006" lon="5.7107">
        <ele>445</ele>
        <time>2022-07-29T15:11:47Z</time>
      </trkpt>
      <trkpt lat="46.38009" lon="5.71072">
        <ele>445.6</ele>
        <time>2022-07-29T15:11:48Z</time>
      </trkpt>
      <trkpt lat="46.38011" lon="5.71073">
        <ele>446</ele>
        <time>2022-07-29T15:11:49Z</time>
      </trkpt>
      <trkpt lat="46.38014" lon="5.71074">
        <ele>446</ele>
        <time>2022-07-29T15:11:50Z</time>
      </trkpt>
      <trkpt lat="46.38017" lon="5.71075">
        <ele>446.2</ele>
        <time>2022-07-29T15:11:51Z</time>
      </trkpt>
      <trkpt lat="46.38019" lon="5.71076">
        <ele>446.2</ele>
        <time>2022-07-29T15:11:52Z</time>
      </trkpt>
      <trkpt lat="46.38022" lon="5.71077">
        <ele>446.4</ele>
        <time>2022-07-29T15:11:53Z</time>
      </trkpt>
      <trkpt lat="46.38024" lon="5.71078">
        <ele>446.4</ele>
        <time>2022-07-29T15:11:54Z</time>
      </trkpt>
      <trkpt lat="46.38027" lon="5.7108">
        <ele>446.8</ele>
        <time>2022-07-29T15:11:55Z</time>
      </trkpt>
      <trkpt lat="46.38029" lon="5.71081">
        <ele>446.8</ele>
        <time>2022-07-29T15:11:56Z</time>
      </trkpt>
      <trkpt lat="46.38032" lon="5.71082">
        <ele>447.2</ele>
        <time>2022-07-29T15:11:57Z</time>
      </trkpt>
      <trkpt lat="46.38034" lon="5.71083">
        <ele>447.2</ele>
        <time>2022-07-29T15:11:58Z</time>
      </trkpt>
      <trkpt lat="46.38037" lon="5.71084">
        <ele>447.6</ele>
        <time>2022-07-29T15:11:59Z</time>
      </trkpt>
      <trkpt lat="46.38039" lon="5.71086">
        <ele>447.6</ele>
        <time>2022-07-29T15:12:00Z</time>
      </trkpt>
      <trkpt lat="46.38041" lon="5.71086">
        <ele>447.8</ele>
        <time>2022-07-29T15:12:01Z</time>
      </trkpt>
      <trkpt lat="46.38044" lon="5.71087">
        <ele>447.8</ele>
        <time>2022-07-29T15:12:02Z</time>
      </trkpt>
      <trkpt lat="46.38046" lon="5.71088">
        <ele>448</ele>
        <time>2022-07-29T15:12:03Z</time>
      </trkpt>
      <trkpt lat="46.38049" lon="5.71089">
        <ele>448.4</ele>
        <time>2022-07-29T15:12:04Z</time>
      </trkpt>
      <trkpt lat="46.38051" lon="5.71089">
        <ele>448.4</ele>
        <time>2022-07-29T15:12:05Z</time>
      </trkpt>
      <trkpt lat="46.38054" lon="5.7109">
        <ele>448.6</ele>
        <time>2022-07-29T15:12:06Z</time>
      </trkpt>
      <trkpt lat="46.38056" lon="5.71091">
        <ele>448.6</ele>
        <time>2022-07-29T15:12:07Z</time>
      </trkpt>
      <trkpt lat="46.38059" lon="5.71092">
        <ele>449.2</ele>
        <time>2022-07-29T15:12:08Z</time>
      </trkpt>
      <trkpt lat="46.38061" lon="5.71093">
        <ele>449.2</ele>
        <time>2022-07-29T15:12:09Z</time>
      </trkpt>
      <trkpt lat="46.38064" lon="5.71093">
        <ele>449.4</ele>
        <time>2022-07-29T15:12:10Z</time>
      </trkpt>
      <trkpt lat="46.38066" lon="5.71094">
        <ele>449.4</ele>
        <time>2022-07-29T15:12:11Z</time>
      </trkpt>
      <trkpt lat="46.38068" lon="5.71095">
        <ele>449.8</ele>
        <time>2022-07-29T15:12:12Z</time>
      </trkpt>
      <trkpt lat="46.38071" lon="5.71095">
        <ele>449.8</ele>
        <time>2022-07-29T15:12:13Z</time>
      </trkpt>
      <trkpt lat="46.38073" lon="5.71096">
        <ele>450</ele>
        <time>2022-07-29T15:12:14Z</time>
      </trkpt>
      <trkpt lat="46.38076" lon="5.71097">
        <ele>450</ele>
        <time>2022-07-29T15:12:15Z</time>
      </trkpt>
      <trkpt lat="46.38078" lon="5.71098">
        <ele>450.4</ele>
        <time>2022-07-29T15:12:16Z</time>
      </trkpt>
      <trkpt lat="46.38081" lon="5.71098">
        <ele>450.4</ele>
        <time>2022-07-29T15:12:17Z</time>
      </trkpt>
      <trkpt lat="46.38083" lon="5.71099">
        <ele>450.6</ele>
        <time>2022-07-29T15:12:18Z</time>
      </trkpt>
      <trkpt lat="46.38086" lon="5.71099">
        <ele>450.6</ele>
        <time>2022-07-29T15:12:19Z</time>
      </trkpt>
      <trkpt lat="46.38088" lon="5.711">
        <ele>451</ele>
        <time>2022-07-29T15:12:20Z</time>
      </trkpt>
      <trkpt lat="46.38091" lon="5.711">
        <ele>451</ele>
        <time>2022-07-29T15:12:21Z</time>
      </trkpt>
      <trkpt lat="46.38093" lon="5.711">
        <ele>451.4</ele>
        <time>2022-07-29T15:12:22Z</time>
      </trkpt>
      <trkpt lat="46.38096" lon="5.71101">
        <ele>451.6</ele>
        <time>2022-07-29T15:12:23Z</time>
      </trkpt>
      <trkpt lat="46.38098" lon="5.71101">
        <ele>451.6</ele>
        <time>2022-07-29T15:12:24Z</time>
      </trkpt>
      <trkpt lat="46.38101" lon="5.71101">
        <ele>452</ele>
        <time>2022-07-29T15:12:25Z</time>
      </trkpt>
      <trkpt lat="46.38103" lon="5.71102">
        <ele>452</ele>
        <time>2022-07-29T15:12:26Z</time>
      </trkpt>
      <trkpt lat="46.38106" lon="5.71102">
        <ele>452.2</ele>
        <time>2022-07-29T15:12:27Z</time>
      </trkpt>
      <trkpt lat="46.38108" lon="5.71103">
        <ele>452.2</ele>
        <time>2022-07-29T15:12:28Z</time>
      </trkpt>
      <trkpt lat="46.38111" lon="5.71103">
        <ele>452.6</ele>
        <time>2022-07-29T15:12:29Z</time>
      </trkpt>
      <trkpt lat="46.38113" lon="5.71104">
        <ele>452.8</ele>
        <time>2022-07-29T15:12:30Z</time>
      </trkpt>
      <trkpt lat="46.38116" lon="5.71104">
        <ele>452.8</ele>
        <time>2022-07-29T15:12:31Z</time>
      </trkpt>
      <trkpt lat="46.38118" lon="5.71105">
        <ele>453</ele>
        <time>2022-07-29T15:12:32Z</time>
      </trkpt>
      <trkpt lat="46.38121" lon="5.71105">
        <ele>453</ele>
        <time>2022-07-29T15:12:33Z</time>
      </trkpt>
      <trkpt lat="46.38124" lon="5.71106">
        <ele>453.4</ele>
        <time>2022-07-29T15:12:34Z</time>
      </trkpt>
      <trkpt lat="46.38126" lon="5.71106">
        <ele>453.4</ele>
        <time>2022-07-29T15:12:35Z</time>
      </trkpt>
      <trkpt lat="46.38129" lon="5.71107">
        <ele>453.8</ele>
        <time>2022-07-29T15:12:36Z</time>
      </trkpt>
      <trkpt lat="46.38131" lon="5.71107">
        <ele>453.8</ele>
        <time>2022-07-29T15:12:37Z</time>
      </trkpt>
      <trkpt lat="46.38134" lon="5.71107">
        <ele>454</ele>
        <time>2022-07-29T15:12:38Z</time>
      </trkpt>
      <trkpt lat="46.38137" lon="5.71108">
        <ele>454</ele>
        <time>2022-07-29T15:12:39Z</time>
      </trkpt>
      <trkpt lat="46.38139" lon="5.71108">
        <ele>454.4</ele>
        <time>2022-07-29T15:12:40Z</time>
      </trkpt>
      <trkpt lat="46.38142" lon="5.71108">
        <ele>454.4</ele>
        <time>2022-07-29T15:12:41Z</time>
      </trkpt>
      <trkpt lat="46.38145" lon="5.71108">
        <ele>454.8</ele>
        <time>2022-07-29T15:12:42Z</time>
      </trkpt>
      <trkpt lat="46.38147" lon="5.71108">
        <ele>454.8</ele>
        <time>2022-07-29T15:12:43Z</time>
      </trkpt>
      <trkpt lat="46.3815" lon="5.71109">
        <ele>455.2</ele>
        <time>2022-07-29T15:12:44Z</time>
      </trkpt>
      <trkpt lat="46.38153" lon="5.71109">
        <ele>455.2</ele>
        <time>2022-07-29T15:12:45Z</time>
      </trkpt>
      <trkpt lat="46.38156" lon="5.7111">
        <ele>455.4</ele>
        <time>2022-07-29T15:12:46Z</time>
      </trkpt>
      <trkpt lat="46.38159" lon="5.71111">
        <ele>455.6</ele>
        <time>2022-07-29T15:12:47Z</time>
      </trkpt>
      <trkpt lat="46.38162" lon="5.71111">
        <ele>455.6</ele>
        <time>2022-07-29T15:12:48Z</time>
      </trkpt>
      <trkpt lat="46.38164" lon="5.71111">
        <ele>456</ele>
        <time>2022-07-29T15:12:49Z</time>
      </trkpt>
      <trkpt lat="46.38167" lon="5.71112">
        <ele>456</ele>
        <time>2022-07-29T15:12:50Z</time>
      </trkpt>
      <trkpt lat="46.3817" lon="5.71113">
        <ele>456.2</ele>
        <time>2022-07-29T15:12:51Z</time>
      </trkpt>
      <trkpt lat="46.38174" lon="5.71113">
        <ele>456.6</ele>
        <time>2022-07-29T15:12:52Z</time>
      </trkpt>
      <trkpt lat="46.38177" lon="5.71114">
        <ele>456.6</ele>
        <time>2022-07-29T15:12:53Z</time>
      </trkpt>
      <trkpt lat="46.3818" lon="5.71115">
        <ele>456.8</ele>
        <time>2022-07-29T15:12:54Z</time>
      </trkpt>
      <trkpt lat="46.38183" lon="5.71115">
        <ele>456.8</ele>
        <time>2022-07-29T15:12:55Z</time>
      </trkpt>
      <trkpt lat="46.38185" lon="5.71116">
        <ele>457</ele>
        <time>2022-07-29T15:12:56Z</time>
      </trkpt>
      <trkpt lat="46.38189" lon="5.71116">
        <ele>457</ele>
        <time>2022-07-29T15:12:57Z</time>
      </trkpt>
      <trkpt lat="46.38191" lon="5.71117">
        <ele>457.6</ele>
        <time>2022-07-29T15:12:58Z</time>
      </trkpt>
      <trkpt lat="46.38195" lon="5.71118">
        <ele>457.6</ele>
        <time>2022-07-29T15:12:59Z</time>
      </trkpt>
      <trkpt lat="46.38198" lon="5.71118">
        <ele>458</ele>
        <time>2022-07-29T15:13:00Z</time>
      </trkpt>
      <trkpt lat="46.38201" lon="5.71119">
        <ele>458</ele>
        <time>2022-07-29T15:13:01Z</time>
      </trkpt>
      <trkpt lat="46.38204" lon="5.7112">
        <ele>458.2</ele>
        <time>2022-07-29T15:13:02Z</time>
      </trkpt>
      <trkpt lat="46.38207" lon="5.71121">
        <ele>458.2</ele>
        <time>2022-07-29T15:13:03Z</time>
      </trkpt>
      <trkpt lat="46.3821" lon="5.71122">
        <ele>458.6</ele>
        <time>2022-07-29T15:13:04Z</time>
      </trkpt>
      <trkpt lat="46.38213" lon="5.71123">
        <ele>458.6</ele>
        <time>2022-07-29T15:13:05Z</time>
      </trkpt>
      <trkpt lat="46.38216" lon="5.71124">
        <ele>458.8</ele>
        <time>2022-07-29T15:13:06Z</time>
      </trkpt>
      <trkpt lat="46.38219" lon="5.71125">
        <ele>458.8</ele>
        <time>2022-07-29T15:13:07Z</time>
      </trkpt>
      <trkpt lat="46.38222" lon="5.71127">
        <ele>459.2</ele>
        <time>2022-07-29T15:13:08Z</time>
      </trkpt>
      <trkpt lat="46.38225" lon="5.71128">
        <ele>459.4</ele>
        <time>2022-07-29T15:13:09Z</time>
      </trkpt>
      <trkpt lat="46.38228" lon="5.7113">
        <ele>459.4</ele>
        <time>2022-07-29T15:13:10Z</time>
      </trkpt>
      <trkpt lat="46.38231" lon="5.71131">
        <ele>459.6</ele>
        <time>2022-07-29T15:13:11Z</time>
      </trkpt>
      <trkpt lat="46.38233" lon="5.71133">
        <ele>460</ele>
        <time>2022-07-29T15:13:12Z</time>
      </trkpt>
      <trkpt lat="46.38236" lon="5.71134">
        <ele>460</ele>
        <time>2022-07-29T15:13:13Z</time>
      </trkpt>
      <trkpt lat="46.38239" lon="5.71135">
        <ele>460.2</ele>
        <time>2022-07-29T15:13:14Z</time>
      </trkpt>
      <trkpt lat="46.38242" lon="5.71137">
        <ele>460.2</ele>
        <time>2022-07-29T15:13:15Z</time>
      </trkpt>
      <trkpt lat="46.38244" lon="5.71139">
        <ele>460.6</ele>
        <time>2022-07-29T15:13:16Z</time>
      </trkpt>
      <trkpt lat="46.38247" lon="5.7114">
        <ele>460.6</ele>
        <time>2022-07-29T15:13:17Z</time>
      </trkpt>
      <trkpt lat="46.3825" lon="5.71142">
        <ele>461</ele>
        <time>2022-07-29T15:13:18Z</time>
      </trkpt>
      <trkpt lat="46.38253" lon="5.71144">
        <ele>461.2</ele>
        <time>2022-07-29T15:13:19Z</time>
      </trkpt>
      <trkpt lat="46.38256" lon="5.71145">
        <ele>461.6</ele>
        <time>2022-07-29T15:13:20Z</time>
      </trkpt>
      <trkpt lat="46.38259" lon="5.71147">
        <ele>461.6</ele>
        <time>2022-07-29T15:13:21Z</time>
      </trkpt>
      <trkpt lat="46.38262" lon="5.71148">
        <ele>462</ele>
        <time>2022-07-29T15:13:22Z</time>
      </trkpt>
      <trkpt lat="46.38265" lon="5.7115">
        <ele>462</ele>
        <time>2022-07-29T15:13:23Z</time>
      </trkpt>
      <trkpt lat="46.38267" lon="5.71151">
        <ele>462.2</ele>
        <time>2022-07-29T15:13:24Z</time>
      </trkpt>
      <trkpt lat="46.3827" lon="5.71153">
        <ele>462.6</ele>
        <time>2022-07-29T15:13:25Z</time>
      </trkpt>
      <trkpt lat="46.38273" lon="5.71154">
        <ele>462.6</ele>
        <time>2022-07-29T15:13:26Z</time>
      </trkpt>
      <trkpt lat="46.38275" lon="5.71156">
        <ele>462.8</ele>
        <time>2022-07-29T15:13:27Z</time>
      </trkpt>
      <trkpt lat="46.38278" lon="5.71158">
        <ele>462.8</ele>
        <time>2022-07-29T15:13:28Z</time>
      </trkpt>
      <trkpt lat="46.3828" lon="5.71159">
        <ele>463.2</ele>
        <time>2022-07-29T15:13:29Z</time>
      </trkpt>
      <trkpt lat="46.38283" lon="5.71161">
        <ele>463.2</ele>
        <time>2022-07-29T15:13:30Z</time>
      </trkpt>
      <trkpt lat="46.38285" lon="5.71163">
        <ele>463.6</ele>
        <time>2022-07-29T15:13:31Z</time>
      </trkpt>
      <trkpt lat="46.38288" lon="5.71164">
        <ele>463.6</ele>
        <time>2022-07-29T15:13:32Z</time>
      </trkpt>
      <trkpt lat="46.3829" lon="5.71166">
        <ele>464</ele>
        <time>2022-07-29T15:13:33Z</time>
      </trkpt>
      <trkpt lat="46.38293" lon="5.71168">
        <ele>464</ele>
        <time>2022-07-29T15:13:34Z</time>
      </trkpt>
      <trkpt lat="46.38295" lon="5.71169">
        <ele>464.2</ele>
        <time>2022-07-29T15:13:35Z</time>
      </trkpt>
      <trkpt lat="46.38298" lon="5.71171">
        <ele>464.2</ele>
        <time>2022-07-29T15:13:36Z</time>
      </trkpt>
      <trkpt lat="46.38301" lon="5.71172">
        <ele>464.8</ele>
        <time>2022-07-29T15:13:37Z</time>
      </trkpt>
      <trkpt lat="46.38303" lon="5.71173">
        <ele>464.8</ele>
        <time>2022-07-29T15:13:38Z</time>
      </trkpt>
      <trkpt lat="46.38306" lon="5.71175">
        <ele>465</ele>
        <time>2022-07-29T15:13:39Z</time>
      </trkpt>
      <trkpt lat="46.38309" lon="5.71177">
        <ele>465</ele>
        <time>2022-07-29T15:13:40Z</time>
      </trkpt>
      <trkpt lat="46.38311" lon="5.71178">
        <ele>465.4</ele>
        <time>2022-07-29T15:13:41Z</time>
      </trkpt>
      <trkpt lat="46.38313" lon="5.7118">
        <ele>465.4</ele>
        <time>2022-07-29T15:13:42Z</time>
      </trkpt>
      <trkpt lat="46.38316" lon="5.71181">
        <ele>465.8</ele>
        <time>2022-07-29T15:13:43Z</time>
      </trkpt>
      <trkpt lat="46.38319" lon="5.71183">
        <ele>465.8</ele>
        <time>2022-07-29T15:13:44Z</time>
      </trkpt>
      <trkpt lat="46.38321" lon="5.71185">
        <ele>466.4</ele>
        <time>2022-07-29T15:13:45Z</time>
      </trkpt>
      <trkpt lat="46.38324" lon="5.71186">
        <ele>466.4</ele>
        <time>2022-07-29T15:13:46Z</time>
      </trkpt>
      <trkpt lat="46.38331" lon="5.7119">
        <ele>466.4</ele>
        <time>2022-07-29T15:13:47Z</time>
      </trkpt>
      <trkpt lat="46.38334" lon="5.71192">
        <ele>466.6</ele>
        <time>2022-07-29T15:13:48Z</time>
      </trkpt>
      <trkpt lat="46.38337" lon="5.71194">
        <ele>466.6</ele>
        <time>2022-07-29T15:13:49Z</time>
      </trkpt>
      <trkpt lat="46.3834" lon="5.71196">
        <ele>467</ele>
        <time>2022-07-29T15:13:50Z</time>
      </trkpt>
      <trkpt lat="46.38343" lon="5.71198">
        <ele>467.4</ele>
        <time>2022-07-29T15:13:51Z</time>
      </trkpt>
      <trkpt lat="46.38345" lon="5.712">
        <ele>467.4</ele>
        <time>2022-07-29T15:13:52Z</time>
      </trkpt>
      <trkpt lat="46.38348" lon="5.71202">
        <ele>467.8</ele>
        <time>2022-07-29T15:13:53Z</time>
      </trkpt>
      <trkpt lat="46.38352" lon="5.71204">
        <ele>468</ele>
        <time>2022-07-29T15:13:54Z</time>
      </trkpt>
      <trkpt lat="46.38354" lon="5.71206">
        <ele>468</ele>
        <time>2022-07-29T15:13:55Z</time>
      </trkpt>
      <trkpt lat="46.38357" lon="5.71209">
        <ele>468.4</ele>
        <time>2022-07-29T15:13:56Z</time>
      </trkpt>
      <trkpt lat="46.3836" lon="5.71212">
        <ele>468.4</ele>
        <time>2022-07-29T15:13:57Z</time>
      </trkpt>
      <trkpt lat="46.38362" lon="5.71215">
        <ele>468.8</ele>
        <time>2022-07-29T15:13:58Z</time>
      </trkpt>
      <trkpt lat="46.38365" lon="5.71217">
        <ele>468.8</ele>
        <time>2022-07-29T15:13:59Z</time>
      </trkpt>
      <trkpt lat="46.38367" lon="5.7122">
        <ele>469.2</ele>
        <time>2022-07-29T15:14:00Z</time>
      </trkpt>
      <trkpt lat="46.38369" lon="5.71223">
        <ele>469.2</ele>
        <time>2022-07-29T15:14:01Z</time>
      </trkpt>
      <trkpt lat="46.38372" lon="5.71226">
        <ele>469.8</ele>
        <time>2022-07-29T15:14:02Z</time>
      </trkpt>
      <trkpt lat="46.38374" lon="5.71229">
        <ele>469.8</ele>
        <time>2022-07-29T15:14:03Z</time>
      </trkpt>
      <trkpt lat="46.38376" lon="5.71233">
        <ele>470.2</ele>
        <time>2022-07-29T15:14:04Z</time>
      </trkpt>
      <trkpt lat="46.38378" lon="5.71236">
        <ele>470.2</ele>
        <time>2022-07-29T15:14:05Z</time>
      </trkpt>
      <trkpt lat="46.38381" lon="5.71239">
        <ele>470.4</ele>
        <time>2022-07-29T15:14:06Z</time>
      </trkpt>
      <trkpt lat="46.38383" lon="5.71242">
        <ele>470.4</ele>
        <time>2022-07-29T15:14:07Z</time>
      </trkpt>
      <trkpt lat="46.38386" lon="5.71246">
        <ele>470.8</ele>
        <time>2022-07-29T15:14:08Z</time>
      </trkpt>
      <trkpt lat="46.38388" lon="5.71249">
        <ele>471</ele>
        <time>2022-07-29T15:14:09Z</time>
      </trkpt>
      <trkpt lat="46.38391" lon="5.71252">
        <ele>471</ele>
        <time>2022-07-29T15:14:10Z</time>
      </trkpt>
      <trkpt lat="46.38393" lon="5.71256">
        <ele>471.4</ele>
        <time>2022-07-29T15:14:11Z</time>
      </trkpt>
      <trkpt lat="46.38395" lon="5.71259">
        <ele>471.4</ele>
        <time>2022-07-29T15:14:12Z</time>
      </trkpt>
      <trkpt lat="46.38398" lon="5.71262">
        <ele>471.6</ele>
        <time>2022-07-29T15:14:13Z</time>
      </trkpt>
      <trkpt lat="46.384" lon="5.71265">
        <ele>471.6</ele>
        <time>2022-07-29T15:14:14Z</time>
      </trkpt>
      <trkpt lat="46.38401" lon="5.71269">
        <ele>472</ele>
        <time>2022-07-29T15:14:15Z</time>
      </trkpt>
      <trkpt lat="46.38404" lon="5.71272">
        <ele>472</ele>
        <time>2022-07-29T15:14:16Z</time>
      </trkpt>
      <trkpt lat="46.38406" lon="5.71275">
        <ele>472.4</ele>
        <time>2022-07-29T15:14:17Z</time>
      </trkpt>
      <trkpt lat="46.38408" lon="5.71278">
        <ele>472.4</ele>
        <time>2022-07-29T15:14:18Z</time>
      </trkpt>
      <trkpt lat="46.3841" lon="5.71281">
        <ele>472.6</ele>
        <time>2022-07-29T15:14:19Z</time>
      </trkpt>
      <trkpt lat="46.38413" lon="5.71284">
        <ele>472.6</ele>
        <time>2022-07-29T15:14:20Z</time>
      </trkpt>
      <trkpt lat="46.38415" lon="5.71287">
        <ele>473</ele>
        <time>2022-07-29T15:14:21Z</time>
      </trkpt>
      <trkpt lat="46.38417" lon="5.7129">
        <ele>473</ele>
        <time>2022-07-29T15:14:22Z</time>
      </trkpt>
      <trkpt lat="46.3842" lon="5.71292">
        <ele>473.2</ele>
        <time>2022-07-29T15:14:23Z</time>
      </trkpt>
      <trkpt lat="46.38422" lon="5.71295">
        <ele>473.2</ele>
        <time>2022-07-29T15:14:24Z</time>
      </trkpt>
      <trkpt lat="46.38424" lon="5.71297">
        <ele>473.6</ele>
        <time>2022-07-29T15:14:25Z</time>
      </trkpt>
      <trkpt lat="46.38426" lon="5.71299">
        <ele>473.6</ele>
        <time>2022-07-29T15:14:26Z</time>
      </trkpt>
      <trkpt lat="46.38428" lon="5.71302">
        <ele>473.8</ele>
        <time>2022-07-29T15:14:27Z</time>
      </trkpt>
      <trkpt lat="46.3843" lon="5.71305">
        <ele>473.8</ele>
        <time>2022-07-29T15:14:28Z</time>
      </trkpt>
      <trkpt lat="46.38433" lon="5.71307">
        <ele>474.2</ele>
        <time>2022-07-29T15:14:29Z</time>
      </trkpt>
      <trkpt lat="46.38435" lon="5.71309">
        <ele>474.2</ele>
        <time>2022-07-29T15:14:30Z</time>
      </trkpt>
      <trkpt lat="46.38438" lon="5.71311">
        <ele>474.4</ele>
        <time>2022-07-29T15:14:31Z</time>
      </trkpt>
      <trkpt lat="46.3844" lon="5.71314">
        <ele>474.4</ele>
        <time>2022-07-29T15:14:32Z</time>
      </trkpt>
      <trkpt lat="46.38443" lon="5.71316">
        <ele>474.8</ele>
        <time>2022-07-29T15:14:33Z</time>
      </trkpt>
      <trkpt lat="46.38445" lon="5.71318">
        <ele>474.8</ele>
        <time>2022-07-29T15:14:34Z</time>
      </trkpt>
      <trkpt lat="46.38447" lon="5.71321">
        <ele>475.2</ele>
        <time>2022-07-29T15:14:35Z</time>
      </trkpt>
      <trkpt lat="46.3845" lon="5.71323">
        <ele>475.2</ele>
        <time>2022-07-29T15:14:36Z</time>
      </trkpt>
      <trkpt lat="46.38452" lon="5.71325">
        <ele>475.6</ele>
        <time>2022-07-29T15:14:37Z</time>
      </trkpt>
      <trkpt lat="46.38455" lon="5.71328">
        <ele>475.6</ele>
        <time>2022-07-29T15:14:38Z</time>
      </trkpt>
      <trkpt lat="46.38457" lon="5.7133">
        <ele>475.8</ele>
        <time>2022-07-29T15:14:39Z</time>
      </trkpt>
      <trkpt lat="46.3846" lon="5.71331">
        <ele>476</ele>
        <time>2022-07-29T15:14:40Z</time>
      </trkpt>
      <trkpt lat="46.38462" lon="5.71333">
        <ele>476.4</ele>
        <time>2022-07-29T15:14:41Z</time>
      </trkpt>
      <trkpt lat="46.38464" lon="5.71335">
        <ele>476.6</ele>
        <time>2022-07-29T15:14:42Z</time>
      </trkpt>
      <trkpt lat="46.38467" lon="5.71336">
        <ele>476.8</ele>
        <time>2022-07-29T15:14:43Z</time>
      </trkpt>
      <trkpt lat="46.38469" lon="5.71338">
        <ele>477</ele>
        <time>2022-07-29T15:14:44Z</time>
      </trkpt>
      <trkpt lat="46.38472" lon="5.71339">
        <ele>477.2</ele>
        <time>2022-07-29T15:14:45Z</time>
      </trkpt>
      <trkpt lat="46.38474" lon="5.71341">
        <ele>477.4</ele>
        <time>2022-07-29T15:14:46Z</time>
      </trkpt>
      <trkpt lat="46.38477" lon="5.71343">
        <ele>477.6</ele>
        <time>2022-07-29T15:14:47Z</time>
      </trkpt>
      <trkpt lat="46.38479" lon="5.71344">
        <ele>477.6</ele>
        <time>2022-07-29T15:14:48Z</time>
      </trkpt>
      <trkpt lat="46.38482" lon="5.71346">
        <ele>478</ele>
        <time>2022-07-29T15:14:49Z</time>
      </trkpt>
      <trkpt lat="46.38484" lon="5.71347">
        <ele>478.2</ele>
        <time>2022-07-29T15:14:50Z</time>
      </trkpt>
      <trkpt lat="46.38487" lon="5.71348">
        <ele>478.6</ele>
        <time>2022-07-29T15:14:51Z</time>
      </trkpt>
      <trkpt lat="46.38489" lon="5.7135">
        <ele>478.8</ele>
        <time>2022-07-29T15:14:52Z</time>
      </trkpt>
      <trkpt lat="46.38492" lon="5.71351">
        <ele>479</ele>
        <time>2022-07-29T15:14:53Z</time>
      </trkpt>
      <trkpt lat="46.38494" lon="5.71353">
        <ele>479.2</ele>
        <time>2022-07-29T15:14:54Z</time>
      </trkpt>
      <trkpt lat="46.38496" lon="5.71354">
        <ele>479.2</ele>
        <time>2022-07-29T15:14:55Z</time>
      </trkpt>
      <trkpt lat="46.38499" lon="5.71356">
        <ele>479.6</ele>
        <time>2022-07-29T15:14:56Z</time>
      </trkpt>
      <trkpt lat="46.38501" lon="5.71357">
        <ele>479.8</ele>
        <time>2022-07-29T15:14:57Z</time>
      </trkpt>
      <trkpt lat="46.38503" lon="5.71358">
        <ele>480.2</ele>
        <time>2022-07-29T15:14:58Z</time>
      </trkpt>
      <trkpt lat="46.38505" lon="5.7136">
        <ele>480.4</ele>
        <time>2022-07-29T15:14:59Z</time>
      </trkpt>
      <trkpt lat="46.38508" lon="5.71362">
        <ele>480.6</ele>
        <time>2022-07-29T15:15:00Z</time>
      </trkpt>
      <trkpt lat="46.3851" lon="5.71363">
        <ele>480.8</ele>
        <time>2022-07-29T15:15:01Z</time>
      </trkpt>
      <trkpt lat="46.38512" lon="5.71364">
        <ele>481</ele>
        <time>2022-07-29T15:15:02Z</time>
      </trkpt>
      <trkpt lat="46.38514" lon="5.71366">
        <ele>481.2</ele>
        <time>2022-07-29T15:15:03Z</time>
      </trkpt>
      <trkpt lat="46.38516" lon="5.71367">
        <ele>481.6</ele>
        <time>2022-07-29T15:15:04Z</time>
      </trkpt>
      <trkpt lat="46.38519" lon="5.71369">
        <ele>481.8</ele>
        <time>2022-07-29T15:15:05Z</time>
      </trkpt>
      <trkpt lat="46.38521" lon="5.7137">
        <ele>481.8</ele>
        <time>2022-07-29T15:15:06Z</time>
      </trkpt>
      <trkpt lat="46.38523" lon="5.71372">
        <ele>482.2</ele>
        <time>2022-07-29T15:15:07Z</time>
      </trkpt>
      <trkpt lat="46.38524" lon="5.71374">
        <ele>482.4</ele>
        <time>2022-07-29T15:15:08Z</time>
      </trkpt>
      <trkpt lat="46.38526" lon="5.71375">
        <ele>482.4</ele>
        <time>2022-07-29T15:15:09Z</time>
      </trkpt>
      <trkpt lat="46.38528" lon="5.71377">
        <ele>482.8</ele>
        <time>2022-07-29T15:15:10Z</time>
      </trkpt>
      <trkpt lat="46.3853" lon="5.71379">
        <ele>482.8</ele>
        <time>2022-07-29T15:15:11Z</time>
      </trkpt>
      <trkpt lat="46.38532" lon="5.71381">
        <ele>483.2</ele>
        <time>2022-07-29T15:15:12Z</time>
      </trkpt>
      <trkpt lat="46.38533" lon="5.71383">
        <ele>483.4</ele>
        <time>2022-07-29T15:15:13Z</time>
      </trkpt>
      <trkpt lat="46.38535" lon="5.71384">
        <ele>483.6</ele>
        <time>2022-07-29T15:15:14Z</time>
      </trkpt>
      <trkpt lat="46.38537" lon="5.71386">
        <ele>483.6</ele>
        <time>2022-07-29T15:15:15Z</time>
      </trkpt>
      <trkpt lat="46.38539" lon="5.71388">
        <ele>484</ele>
        <time>2022-07-29T15:15:16Z</time>
      </trkpt>
      <trkpt lat="46.38541" lon="5.71389">
        <ele>484.2</ele>
        <time>2022-07-29T15:15:17Z</time>
      </trkpt>
      <trkpt lat="46.38543" lon="5.71391">
        <ele>484.6</ele>
        <time>2022-07-29T15:15:18Z</time>
      </trkpt>
      <trkpt lat="46.38545" lon="5.71393">
        <ele>484.6</ele>
        <time>2022-07-29T15:15:19Z</time>
      </trkpt>
      <trkpt lat="46.38547" lon="5.71396">
        <ele>484.8</ele>
        <time>2022-07-29T15:15:20Z</time>
      </trkpt>
      <trkpt lat="46.38548" lon="5.71398">
        <ele>484.8</ele>
        <time>2022-07-29T15:15:21Z</time>
      </trkpt>
      <trkpt lat="46.3855" lon="5.714">
        <ele>485.2</ele>
        <time>2022-07-29T15:15:22Z</time>
      </trkpt>
      <trkpt lat="46.38552" lon="5.71403">
        <ele>485.2</ele>
        <time>2022-07-29T15:15:23Z</time>
      </trkpt>
      <trkpt lat="46.38554" lon="5.71405">
        <ele>485.6</ele>
        <time>2022-07-29T15:15:24Z</time>
      </trkpt>
      <trkpt lat="46.38555" lon="5.71407">
        <ele>485.6</ele>
        <time>2022-07-29T15:15:25Z</time>
      </trkpt>
      <trkpt lat="46.38557" lon="5.71409">
        <ele>486</ele>
        <time>2022-07-29T15:15:26Z</time>
      </trkpt>
      <trkpt lat="46.38559" lon="5.71411">
        <ele>486.2</ele>
        <time>2022-07-29T15:15:27Z</time>
      </trkpt>
      <trkpt lat="46.3856" lon="5.71414">
        <ele>486.4</ele>
        <time>2022-07-29T15:15:28Z</time>
      </trkpt>
      <trkpt lat="46.38562" lon="5.71416">
        <ele>486.4</ele>
        <time>2022-07-29T15:15:29Z</time>
      </trkpt>
      <trkpt lat="46.38564" lon="5.71418">
        <ele>486.8</ele>
        <time>2022-07-29T15:15:30Z</time>
      </trkpt>
      <trkpt lat="46.38565" lon="5.7142">
        <ele>486.8</ele>
        <time>2022-07-29T15:15:31Z</time>
      </trkpt>
      <trkpt lat="46.38567" lon="5.71423">
        <ele>487.2</ele>
        <time>2022-07-29T15:15:32Z</time>
      </trkpt>
      <trkpt lat="46.38568" lon="5.71425">
        <ele>487.2</ele>
        <time>2022-07-29T15:15:33Z</time>
      </trkpt>
      <trkpt lat="46.3857" lon="5.71427">
        <ele>487.6</ele>
        <time>2022-07-29T15:15:34Z</time>
      </trkpt>
      <trkpt lat="46.38572" lon="5.7143">
        <ele>487.6</ele>
        <time>2022-07-29T15:15:35Z</time>
      </trkpt>
      <trkpt lat="46.38574" lon="5.71432">
        <ele>488</ele>
        <time>2022-07-29T15:15:36Z</time>
      </trkpt>
      <trkpt lat="46.38576" lon="5.71434">
        <ele>488</ele>
        <time>2022-07-29T15:15:37Z</time>
      </trkpt>
      <trkpt lat="46.38578" lon="5.71437">
        <ele>488.4</ele>
        <time>2022-07-29T15:15:38Z</time>
      </trkpt>
      <trkpt lat="46.38579" lon="5.71439">
        <ele>488.4</ele>
        <time>2022-07-29T15:15:39Z</time>
      </trkpt>
      <trkpt lat="46.38581" lon="5.71442">
        <ele>488.8</ele>
        <time>2022-07-29T15:15:40Z</time>
      </trkpt>
      <trkpt lat="46.38583" lon="5.71444">
        <ele>489</ele>
        <time>2022-07-29T15:15:41Z</time>
      </trkpt>
      <trkpt lat="46.38584" lon="5.71447">
        <ele>489</ele>
        <time>2022-07-29T15:15:42Z</time>
      </trkpt>
      <trkpt lat="46.38586" lon="5.71449">
        <ele>489.4</ele>
        <time>2022-07-29T15:15:43Z</time>
      </trkpt>
      <trkpt lat="46.38588" lon="5.71452">
        <ele>489.6</ele>
        <time>2022-07-29T15:15:44Z</time>
      </trkpt>
      <trkpt lat="46.38589" lon="5.71455">
        <ele>490</ele>
        <time>2022-07-29T15:15:45Z</time>
      </trkpt>
      <trkpt lat="46.38591" lon="5.71457">
        <ele>490.2</ele>
        <time>2022-07-29T15:15:46Z</time>
      </trkpt>
      <trkpt lat="46.38593" lon="5.7146">
        <ele>490.2</ele>
        <time>2022-07-29T15:15:47Z</time>
      </trkpt>
      <trkpt lat="46.38594" lon="5.71463">
        <ele>490.6</ele>
        <time>2022-07-29T15:15:48Z</time>
      </trkpt>
      <trkpt lat="46.38596" lon="5.71465">
        <ele>490.8</ele>
        <time>2022-07-29T15:15:49Z</time>
      </trkpt>
      <trkpt lat="46.38598" lon="5.71468">
        <ele>490.8</ele>
        <time>2022-07-29T15:15:50Z</time>
      </trkpt>
      <trkpt lat="46.38599" lon="5.71471">
        <ele>491</ele>
        <time>2022-07-29T15:15:51Z</time>
      </trkpt>
      <trkpt lat="46.38601" lon="5.71474">
        <ele>491.4</ele>
        <time>2022-07-29T15:15:52Z</time>
      </trkpt>
      <trkpt lat="46.38603" lon="5.71477">
        <ele>491.4</ele>
        <time>2022-07-29T15:15:53Z</time>
      </trkpt>
      <trkpt lat="46.38604" lon="5.7148">
        <ele>491.4</ele>
        <time>2022-07-29T15:15:54Z</time>
      </trkpt>
      <trkpt lat="46.38606" lon="5.71482">
        <ele>491.8</ele>
        <time>2022-07-29T15:15:55Z</time>
      </trkpt>
      <trkpt lat="46.38608" lon="5.71485">
        <ele>492.2</ele>
        <time>2022-07-29T15:15:56Z</time>
      </trkpt>
      <trkpt lat="46.3861" lon="5.71488">
        <ele>492.2</ele>
        <time>2022-07-29T15:15:57Z</time>
      </trkpt>
      <trkpt lat="46.38611" lon="5.71491">
        <ele>492.6</ele>
        <time>2022-07-29T15:15:58Z</time>
      </trkpt>
      <trkpt lat="46.38613" lon="5.71494">
        <ele>492.8</ele>
        <time>2022-07-29T15:15:59Z</time>
      </trkpt>
      <trkpt lat="46.38615" lon="5.71497">
        <ele>493</ele>
        <time>2022-07-29T15:16:00Z</time>
      </trkpt>
      <trkpt lat="46.38617" lon="5.715">
        <ele>493.2</ele>
        <time>2022-07-29T15:16:01Z</time>
      </trkpt>
      <trkpt lat="46.38617" lon="5.715">
        <ele>493.6</ele>
        <time>2022-07-29T15:16:02Z</time>
      </trkpt>
      <trkpt lat="46.38619" lon="5.71503">
        <ele>493.6</ele>
        <time>2022-07-29T15:16:03Z</time>
      </trkpt>
      <trkpt lat="46.38621" lon="5.71506">
        <ele>494</ele>
        <time>2022-07-29T15:16:04Z</time>
      </trkpt>
      <trkpt lat="46.38623" lon="5.7151">
        <ele>494.2</ele>
        <time>2022-07-29T15:16:05Z</time>
      </trkpt>
      <trkpt lat="46.38625" lon="5.71513">
        <ele>494.2</ele>
        <time>2022-07-29T15:16:06Z</time>
      </trkpt>
      <trkpt lat="46.38627" lon="5.71516">
        <ele>494.2</ele>
        <time>2022-07-29T15:16:07Z</time>
      </trkpt>
      <trkpt lat="46.38629" lon="5.71519">
        <ele>494.4</ele>
        <time>2022-07-29T15:16:08Z</time>
      </trkpt>
      <trkpt lat="46.38631" lon="5.71522">
        <ele>494.4</ele>
        <time>2022-07-29T15:16:09Z</time>
      </trkpt>
      <trkpt lat="46.38633" lon="5.71525">
        <ele>494.8</ele>
        <time>2022-07-29T15:16:10Z</time>
      </trkpt>
      <trkpt lat="46.38635" lon="5.71527">
        <ele>494.8</ele>
        <time>2022-07-29T15:16:11Z</time>
      </trkpt>
      <trkpt lat="46.38637" lon="5.7153">
        <ele>494.8</ele>
        <time>2022-07-29T15:16:12Z</time>
      </trkpt>
      <trkpt lat="46.3864" lon="5.71533">
        <ele>495.2</ele>
        <time>2022-07-29T15:16:13Z</time>
      </trkpt>
      <trkpt lat="46.38642" lon="5.71536">
        <ele>495.2</ele>
        <time>2022-07-29T15:16:14Z</time>
      </trkpt>
      <trkpt lat="46.38644" lon="5.71538">
        <ele>495.4</ele>
        <time>2022-07-29T15:16:15Z</time>
      </trkpt>
      <trkpt lat="46.38647" lon="5.71541">
        <ele>495.4</ele>
        <time>2022-07-29T15:16:16Z</time>
      </trkpt>
      <trkpt lat="46.38649" lon="5.71544">
        <ele>495.6</ele>
        <time>2022-07-29T15:16:17Z</time>
      </trkpt>
      <trkpt lat="46.38651" lon="5.71547">
        <ele>495.6</ele>
        <time>2022-07-29T15:16:18Z</time>
      </trkpt>
      <trkpt lat="46.38654" lon="5.71549">
        <ele>495.6</ele>
        <time>2022-07-29T15:16:19Z</time>
      </trkpt>
      <trkpt lat="46.38657" lon="5.71551">
        <ele>496</ele>
        <time>2022-07-29T15:16:20Z</time>
      </trkpt>
      <trkpt lat="46.3866" lon="5.71553">
        <ele>496</ele>
        <time>2022-07-29T15:16:21Z</time>
      </trkpt>
      <trkpt lat="46.38663" lon="5.71555">
        <ele>496.2</ele>
        <time>2022-07-29T15:16:22Z</time>
      </trkpt>
      <trkpt lat="46.38666" lon="5.71556">
        <ele>496.2</ele>
        <time>2022-07-29T15:16:23Z</time>
      </trkpt>
      <trkpt lat="46.38669" lon="5.71558">
        <ele>496.2</ele>
        <time>2022-07-29T15:16:24Z</time>
      </trkpt>
      <trkpt lat="46.38672" lon="5.7156">
        <ele>496.6</ele>
        <time>2022-07-29T15:16:25Z</time>
      </trkpt>
      <trkpt lat="46.38675" lon="5.71561">
        <ele>496.6</ele>
        <time>2022-07-29T15:16:26Z</time>
      </trkpt>
      <trkpt lat="46.38678" lon="5.71563">
        <ele>496.8</ele>
        <time>2022-07-29T15:16:27Z</time>
      </trkpt>
      <trkpt lat="46.38681" lon="5.71565">
        <ele>496.8</ele>
        <time>2022-07-29T15:16:28Z</time>
      </trkpt>
      <trkpt lat="46.38685" lon="5.71566">
        <ele>496.8</ele>
        <time>2022-07-29T15:16:29Z</time>
      </trkpt>
      <trkpt lat="46.38688" lon="5.71568">
        <ele>496.8</ele>
        <time>2022-07-29T15:16:30Z</time>
      </trkpt>
      <trkpt lat="46.38691" lon="5.7157">
        <ele>497</ele>
        <time>2022-07-29T15:16:31Z</time>
      </trkpt>
      <trkpt lat="46.38694" lon="5.71572">
        <ele>497</ele>
        <time>2022-07-29T15:16:32Z</time>
      </trkpt>
      <trkpt lat="46.38697" lon="5.71573">
        <ele>497</ele>
        <time>2022-07-29T15:16:33Z</time>
      </trkpt>
      <trkpt lat="46.387" lon="5.71575">
        <ele>497</ele>
        <time>2022-07-29T15:16:34Z</time>
      </trkpt>
      <trkpt lat="46.38703" lon="5.71577">
        <ele>497.4</ele>
        <time>2022-07-29T15:16:35Z</time>
      </trkpt>
      <trkpt lat="46.38706" lon="5.71578">
        <ele>497.4</ele>
        <time>2022-07-29T15:16:36Z</time>
      </trkpt>
      <trkpt lat="46.38709" lon="5.7158">
        <ele>497.4</ele>
        <time>2022-07-29T15:16:37Z</time>
      </trkpt>
      <trkpt lat="46.38712" lon="5.71582">
        <ele>497.4</ele>
        <time>2022-07-29T15:16:38Z</time>
      </trkpt>
      <trkpt lat="46.38716" lon="5.71584">
        <ele>497.6</ele>
        <time>2022-07-29T15:16:39Z</time>
      </trkpt>
      <trkpt lat="46.38719" lon="5.71585">
        <ele>497.6</ele>
        <time>2022-07-29T15:16:40Z</time>
      </trkpt>
      <trkpt lat="46.38722" lon="5.71587">
        <ele>497.6</ele>
        <time>2022-07-29T15:16:41Z</time>
      </trkpt>
      <trkpt lat="46.38725" lon="5.71589">
        <ele>497.6</ele>
        <time>2022-07-29T15:16:42Z</time>
      </trkpt>
      <trkpt lat="46.38728" lon="5.71591">
        <ele>498</ele>
        <time>2022-07-29T15:16:43Z</time>
      </trkpt>
      <trkpt lat="46.38732" lon="5.71593">
        <ele>498</ele>
        <time>2022-07-29T15:16:44Z</time>
      </trkpt>
      <trkpt lat="46.38735" lon="5.71595">
        <ele>498.2</ele>
        <time>2022-07-29T15:16:45Z</time>
      </trkpt>
      <trkpt lat="46.38738" lon="5.71596">
        <ele>498.2</ele>
        <time>2022-07-29T15:16:46Z</time>
      </trkpt>
      <trkpt lat="46.38741" lon="5.71598">
        <ele>498.4</ele>
        <time>2022-07-29T15:16:47Z</time>
      </trkpt>
      <trkpt lat="46.38744" lon="5.716">
        <ele>498.4</ele>
        <time>2022-07-29T15:16:48Z</time>
      </trkpt>
      <trkpt lat="46.38747" lon="5.71601">
        <ele>498.4</ele>
        <time>2022-07-29T15:16:49Z</time>
      </trkpt>
      <trkpt lat="46.38751" lon="5.71603">
        <ele>498.4</ele>
        <time>2022-07-29T15:16:50Z</time>
      </trkpt>
      <trkpt lat="46.38754" lon="5.71605">
        <ele>498.6</ele>
        <time>2022-07-29T15:16:51Z</time>
      </trkpt>
      <trkpt lat="46.38757" lon="5.71606">
        <ele>498.6</ele>
        <time>2022-07-29T15:16:52Z</time>
      </trkpt>
      <trkpt lat="46.3876" lon="5.71609">
        <ele>499</ele>
        <time>2022-07-29T15:16:53Z</time>
      </trkpt>
      <trkpt lat="46.38763" lon="5.71611">
        <ele>499</ele>
        <time>2022-07-29T15:16:54Z</time>
      </trkpt>
      <trkpt lat="46.38766" lon="5.71613">
        <ele>499.4</ele>
        <time>2022-07-29T15:16:55Z</time>
      </trkpt>
      <trkpt lat="46.3877" lon="5.71615">
        <ele>499.4</ele>
        <time>2022-07-29T15:16:56Z</time>
      </trkpt>
      <trkpt lat="46.38773" lon="5.71617">
        <ele>499.6</ele>
        <time>2022-07-29T15:16:57Z</time>
      </trkpt>
      <trkpt lat="46.38776" lon="5.71619">
        <ele>499.6</ele>
        <time>2022-07-29T15:16:58Z</time>
      </trkpt>
      <trkpt lat="46.38779" lon="5.71621">
        <ele>499.8</ele>
        <time>2022-07-29T15:16:59Z</time>
      </trkpt>
      <trkpt lat="46.38783" lon="5.71623">
        <ele>499.8</ele>
        <time>2022-07-29T15:17:00Z</time>
      </trkpt>
      <trkpt lat="46.38786" lon="5.71625">
        <ele>499.8</ele>
        <time>2022-07-29T15:17:01Z</time>
      </trkpt>
      <trkpt lat="46.38789" lon="5.71627">
        <ele>500</ele>
        <time>2022-07-29T15:17:02Z</time>
      </trkpt>
      <trkpt lat="46.38792" lon="5.7163">
        <ele>500</ele>
        <time>2022-07-29T15:17:03Z</time>
      </trkpt>
      <trkpt lat="46.38795" lon="5.71632">
        <ele>500.4</ele>
        <time>2022-07-29T15:17:04Z</time>
      </trkpt>
      <trkpt lat="46.38798" lon="5.71634">
        <ele>500.4</ele>
        <time>2022-07-29T15:17:05Z</time>
      </trkpt>
      <trkpt lat="46.38802" lon="5.71636">
        <ele>500.6</ele>
        <time>2022-07-29T15:17:06Z</time>
      </trkpt>
      <trkpt lat="46.38805" lon="5.71638">
        <ele>500.6</ele>
        <time>2022-07-29T15:17:07Z</time>
      </trkpt>
      <trkpt lat="46.38808" lon="5.7164">
        <ele>501</ele>
        <time>2022-07-29T15:17:08Z</time>
      </trkpt>
      <trkpt lat="46.38811" lon="5.71642">
        <ele>501</ele>
        <time>2022-07-29T15:17:09Z</time>
      </trkpt>
      <trkpt lat="46.38814" lon="5.71644">
        <ele>501.2</ele>
        <time>2022-07-29T15:17:10Z</time>
      </trkpt>
      <trkpt lat="46.38817" lon="5.71647">
        <ele>501.2</ele>
        <time>2022-07-29T15:17:11Z</time>
      </trkpt>
      <trkpt lat="46.3882" lon="5.71649">
        <ele>501.4</ele>
        <time>2022-07-29T15:17:12Z</time>
      </trkpt>
      <trkpt lat="46.38824" lon="5.71651">
        <ele>501.4</ele>
        <time>2022-07-29T15:17:13Z</time>
      </trkpt>
      <trkpt lat="46.38827" lon="5.71654">
        <ele>501.4</ele>
        <time>2022-07-29T15:17:14Z</time>
      </trkpt>
      <trkpt lat="46.3883" lon="5.71656">
        <ele>501.8</ele>
        <time>2022-07-29T15:17:15Z</time>
      </trkpt>
      <trkpt lat="46.38833" lon="5.71659">
        <ele>501.8</ele>
        <time>2022-07-29T15:17:16Z</time>
      </trkpt>
      <trkpt lat="46.38837" lon="5.71662">
        <ele>502.2</ele>
        <time>2022-07-29T15:17:17Z</time>
      </trkpt>
      <trkpt lat="46.3884" lon="5.71664">
        <ele>502.2</ele>
        <time>2022-07-29T15:17:18Z</time>
      </trkpt>
      <trkpt lat="46.38847" lon="5.71669">
        <ele>502.4</ele>
        <time>2022-07-29T15:17:19Z</time>
      </trkpt>
      <trkpt lat="46.3885" lon="5.71671">
        <ele>502.8</ele>
        <time>2022-07-29T15:17:20Z</time>
      </trkpt>
      <trkpt lat="46.38853" lon="5.71673">
        <ele>502.8</ele>
        <time>2022-07-29T15:17:21Z</time>
      </trkpt>
      <trkpt lat="46.38856" lon="5.71675">
        <ele>503</ele>
        <time>2022-07-29T15:17:22Z</time>
      </trkpt>
      <trkpt lat="46.38859" lon="5.71678">
        <ele>503</ele>
        <time>2022-07-29T15:17:23Z</time>
      </trkpt>
      <trkpt lat="46.38863" lon="5.71681">
        <ele>503.2</ele>
        <time>2022-07-29T15:17:24Z</time>
      </trkpt>
      <trkpt lat="46.38866" lon="5.71683">
        <ele>503.2</ele>
        <time>2022-07-29T15:17:25Z</time>
      </trkpt>
      <trkpt lat="46.38869" lon="5.71685">
        <ele>503.6</ele>
        <time>2022-07-29T15:17:26Z</time>
      </trkpt>
      <trkpt lat="46.38872" lon="5.71688">
        <ele>503.6</ele>
        <time>2022-07-29T15:17:27Z</time>
      </trkpt>
      <trkpt lat="46.38875" lon="5.7169">
        <ele>504</ele>
        <time>2022-07-29T15:17:28Z</time>
      </trkpt>
      <trkpt lat="46.38878" lon="5.71693">
        <ele>504.2</ele>
        <time>2022-07-29T15:17:29Z</time>
      </trkpt>
      <trkpt lat="46.38881" lon="5.71695">
        <ele>504.2</ele>
        <time>2022-07-29T15:17:30Z</time>
      </trkpt>
      <trkpt lat="46.38884" lon="5.71697">
        <ele>504.6</ele>
        <time>2022-07-29T15:17:31Z</time>
      </trkpt>
      <trkpt lat="46.38887" lon="5.717">
        <ele>504.6</ele>
        <time>2022-07-29T15:17:32Z</time>
      </trkpt>
      <trkpt lat="46.3889" lon="5.71702">
        <ele>504.8</ele>
        <time>2022-07-29T15:17:33Z</time>
      </trkpt>
      <trkpt lat="46.38893" lon="5.71705">
        <ele>505.2</ele>
        <time>2022-07-29T15:17:34Z</time>
      </trkpt>
      <trkpt lat="46.38896" lon="5.71707">
        <ele>505.2</ele>
        <time>2022-07-29T15:17:35Z</time>
      </trkpt>
      <trkpt lat="46.38899" lon="5.7171">
        <ele>505.4</ele>
        <time>2022-07-29T15:17:36Z</time>
      </trkpt>
      <trkpt lat="46.38902" lon="5.71712">
        <ele>505.4</ele>
        <time>2022-07-29T15:17:37Z</time>
      </trkpt>
      <trkpt lat="46.38905" lon="5.71715">
        <ele>505.8</ele>
        <time>2022-07-29T15:17:38Z</time>
      </trkpt>
      <trkpt lat="46.38908" lon="5.71717">
        <ele>505.8</ele>
        <time>2022-07-29T15:17:39Z</time>
      </trkpt>
      <trkpt lat="46.38911" lon="5.71719">
        <ele>506.2</ele>
        <time>2022-07-29T15:17:40Z</time>
      </trkpt>
      <trkpt lat="46.38914" lon="5.71722">
        <ele>506.2</ele>
        <time>2022-07-29T15:17:41Z</time>
      </trkpt>
      <trkpt lat="46.38917" lon="5.71724">
        <ele>506.6</ele>
        <time>2022-07-29T15:17:42Z</time>
      </trkpt>
      <trkpt lat="46.38919" lon="5.71727">
        <ele>506.6</ele>
        <time>2022-07-29T15:17:43Z</time>
      </trkpt>
      <trkpt lat="46.38922" lon="5.7173">
        <ele>506.8</ele>
        <time>2022-07-29T15:17:44Z</time>
      </trkpt>
      <trkpt lat="46.38925" lon="5.71732">
        <ele>506.8</ele>
        <time>2022-07-29T15:17:45Z</time>
      </trkpt>
      <trkpt lat="46.38928" lon="5.71735">
        <ele>507.2</ele>
        <time>2022-07-29T15:17:46Z</time>
      </trkpt>
      <trkpt lat="46.38931" lon="5.71738">
        <ele>507.2</ele>
        <time>2022-07-29T15:17:47Z</time>
      </trkpt>
      <trkpt lat="46.38934" lon="5.7174">
        <ele>507.6</ele>
        <time>2022-07-29T15:17:48Z</time>
      </trkpt>
      <trkpt lat="46.38937" lon="5.71742">
        <ele>507.6</ele>
        <time>2022-07-29T15:17:49Z</time>
      </trkpt>
      <trkpt lat="46.38939" lon="5.71745">
        <ele>508</ele>
        <time>2022-07-29T15:17:50Z</time>
      </trkpt>
      <trkpt lat="46.38942" lon="5.71747">
        <ele>508</ele>
        <time>2022-07-29T15:17:51Z</time>
      </trkpt>
      <trkpt lat="46.38945" lon="5.7175">
        <ele>508.2</ele>
        <time>2022-07-29T15:17:52Z</time>
      </trkpt>
      <trkpt lat="46.38948" lon="5.71752">
        <ele>508.2</ele>
        <time>2022-07-29T15:17:53Z</time>
      </trkpt>
      <trkpt lat="46.38951" lon="5.71754">
        <ele>508.6</ele>
        <time>2022-07-29T15:17:54Z</time>
      </trkpt>
      <trkpt lat="46.38954" lon="5.71756">
        <ele>508.6</ele>
        <time>2022-07-29T15:17:55Z</time>
      </trkpt>
      <trkpt lat="46.38957" lon="5.71758">
        <ele>508.8</ele>
        <time>2022-07-29T15:17:56Z</time>
      </trkpt>
      <trkpt lat="46.3896" lon="5.71761">
        <ele>508.8</ele>
        <time>2022-07-29T15:17:57Z</time>
      </trkpt>
      <trkpt lat="46.38962" lon="5.71763">
        <ele>509.2</ele>
        <time>2022-07-29T15:17:58Z</time>
      </trkpt>
      <trkpt lat="46.38965" lon="5.71766">
        <ele>509.2</ele>
        <time>2022-07-29T15:17:59Z</time>
      </trkpt>
      <trkpt lat="46.38968" lon="5.71768">
        <ele>509.4</ele>
        <time>2022-07-29T15:18:00Z</time>
      </trkpt>
      <trkpt lat="46.3897" lon="5.7177">
        <ele>509.4</ele>
        <time>2022-07-29T15:18:01Z</time>
      </trkpt>
      <trkpt lat="46.38973" lon="5.71773">
        <ele>509.8</ele>
        <time>2022-07-29T15:18:02Z</time>
      </trkpt>
      <trkpt lat="46.38975" lon="5.71776">
        <ele>509.8</ele>
        <time>2022-07-29T15:18:03Z</time>
      </trkpt>
      <trkpt lat="46.38978" lon="5.71778">
        <ele>510.2</ele>
        <time>2022-07-29T15:18:04Z</time>
      </trkpt>
      <trkpt lat="46.38981" lon="5.71781">
        <ele>510.2</ele>
        <time>2022-07-29T15:18:05Z</time>
      </trkpt>
      <trkpt lat="46.38983" lon="5.71783">
        <ele>510.6</ele>
        <time>2022-07-29T15:18:06Z</time>
      </trkpt>
      <trkpt lat="46.38986" lon="5.71785">
        <ele>510.6</ele>
        <time>2022-07-29T15:18:07Z</time>
      </trkpt>
      <trkpt lat="46.38989" lon="5.71787">
        <ele>510.8</ele>
        <time>2022-07-29T15:18:08Z</time>
      </trkpt>
      <trkpt lat="46.38992" lon="5.71789">
        <ele>510.8</ele>
        <time>2022-07-29T15:18:09Z</time>
      </trkpt>
      <trkpt lat="46.38994" lon="5.71792">
        <ele>511.2</ele>
        <time>2022-07-29T15:18:10Z</time>
      </trkpt>
      <trkpt lat="46.38997" lon="5.71794">
        <ele>511.2</ele>
        <time>2022-07-29T15:18:11Z</time>
      </trkpt>
      <trkpt lat="46.39" lon="5.71796">
        <ele>511.4</ele>
        <time>2022-07-29T15:18:12Z</time>
      </trkpt>
      <trkpt lat="46.39002" lon="5.71798">
        <ele>511.4</ele>
        <time>2022-07-29T15:18:13Z</time>
      </trkpt>
      <trkpt lat="46.39005" lon="5.71801">
        <ele>511.8</ele>
        <time>2022-07-29T15:18:14Z</time>
      </trkpt>
      <trkpt lat="46.39007" lon="5.71803">
        <ele>511.8</ele>
        <time>2022-07-29T15:18:15Z</time>
      </trkpt>
      <trkpt lat="46.3901" lon="5.71805">
        <ele>512.2</ele>
        <time>2022-07-29T15:18:16Z</time>
      </trkpt>
      <trkpt lat="46.39013" lon="5.71807">
        <ele>512.2</ele>
        <time>2022-07-29T15:18:17Z</time>
      </trkpt>
      <trkpt lat="46.39015" lon="5.7181">
        <ele>512.4</ele>
        <time>2022-07-29T15:18:18Z</time>
      </trkpt>
      <trkpt lat="46.39018" lon="5.71812">
        <ele>512.4</ele>
        <time>2022-07-29T15:18:19Z</time>
      </trkpt>
      <trkpt lat="46.3902" lon="5.71814">
        <ele>512.8</ele>
        <time>2022-07-29T15:18:20Z</time>
      </trkpt>
      <trkpt lat="46.39023" lon="5.71817">
        <ele>512.8</ele>
        <time>2022-07-29T15:18:21Z</time>
      </trkpt>
      <trkpt lat="46.39025" lon="5.71819">
        <ele>513</ele>
        <time>2022-07-29T15:18:22Z</time>
      </trkpt>
      <trkpt lat="46.39028" lon="5.71821">
        <ele>513</ele>
        <time>2022-07-29T15:18:23Z</time>
      </trkpt>
      <trkpt lat="46.3903" lon="5.71823">
        <ele>513.4</ele>
        <time>2022-07-29T15:18:24Z</time>
      </trkpt>
      <trkpt lat="46.39033" lon="5.71825">
        <ele>513.4</ele>
        <time>2022-07-29T15:18:25Z</time>
      </trkpt>
      <trkpt lat="46.39036" lon="5.71827">
        <ele>513.8</ele>
        <time>2022-07-29T15:18:26Z</time>
      </trkpt>
      <trkpt lat="46.39038" lon="5.71829">
        <ele>513.8</ele>
        <time>2022-07-29T15:18:27Z</time>
      </trkpt>
      <trkpt lat="46.39041" lon="5.71832">
        <ele>513.8</ele>
        <time>2022-07-29T15:18:28Z</time>
      </trkpt>
      <trkpt lat="46.39043" lon="5.71834">
        <ele>514</ele>
        <time>2022-07-29T15:18:29Z</time>
      </trkpt>
      <trkpt lat="46.39046" lon="5.71836">
        <ele>514</ele>
        <time>2022-07-29T15:18:30Z</time>
      </trkpt>
      <trkpt lat="46.39049" lon="5.71839">
        <ele>514.4</ele>
        <time>2022-07-29T15:18:31Z</time>
      </trkpt>
      <trkpt lat="46.39051" lon="5.71841">
        <ele>514.4</ele>
        <time>2022-07-29T15:18:32Z</time>
      </trkpt>
      <trkpt lat="46.39054" lon="5.71844">
        <ele>514.6</ele>
        <time>2022-07-29T15:18:33Z</time>
      </trkpt>
      <trkpt lat="46.39056" lon="5.71846">
        <ele>514.6</ele>
        <time>2022-07-29T15:18:34Z</time>
      </trkpt>
      <trkpt lat="46.39059" lon="5.71849">
        <ele>515</ele>
        <time>2022-07-29T15:18:35Z</time>
      </trkpt>
      <trkpt lat="46.39062" lon="5.71851">
        <ele>515.2</ele>
        <time>2022-07-29T15:18:36Z</time>
      </trkpt>
      <trkpt lat="46.39064" lon="5.71853">
        <ele>515.2</ele>
        <time>2022-07-29T15:18:37Z</time>
      </trkpt>
      <trkpt lat="46.39067" lon="5.71856">
        <ele>515.6</ele>
        <time>2022-07-29T15:18:38Z</time>
      </trkpt>
      <trkpt lat="46.3907" lon="5.71859">
        <ele>515.8</ele>
        <time>2022-07-29T15:18:39Z</time>
      </trkpt>
      <trkpt lat="46.39072" lon="5.71861">
        <ele>515.8</ele>
        <time>2022-07-29T15:18:40Z</time>
      </trkpt>
      <trkpt lat="46.39075" lon="5.71864">
        <ele>516</ele>
        <time>2022-07-29T15:18:41Z</time>
      </trkpt>
      <trkpt lat="46.39078" lon="5.71866">
        <ele>516</ele>
        <time>2022-07-29T15:18:42Z</time>
      </trkpt>
      <trkpt lat="46.3908" lon="5.71869">
        <ele>516.4</ele>
        <time>2022-07-29T15:18:43Z</time>
      </trkpt>
      <trkpt lat="46.39083" lon="5.71872">
        <ele>516.6</ele>
        <time>2022-07-29T15:18:44Z</time>
      </trkpt>
      <trkpt lat="46.39085" lon="5.71875">
        <ele>516.6</ele>
        <time>2022-07-29T15:18:45Z</time>
      </trkpt>
      <trkpt lat="46.39088" lon="5.71878">
        <ele>516.8</ele>
        <time>2022-07-29T15:18:46Z</time>
      </trkpt>
      <trkpt lat="46.39091" lon="5.71881">
        <ele>516.8</ele>
        <time>2022-07-29T15:18:47Z</time>
      </trkpt>
      <trkpt lat="46.39093" lon="5.71884">
        <ele>517.2</ele>
        <time>2022-07-29T15:18:48Z</time>
      </trkpt>
      <trkpt lat="46.39096" lon="5.71887">
        <ele>517.2</ele>
        <time>2022-07-29T15:18:49Z</time>
      </trkpt>
      <trkpt lat="46.39098" lon="5.71889">
        <ele>517.4</ele>
        <time>2022-07-29T15:18:50Z</time>
      </trkpt>
      <trkpt lat="46.39101" lon="5.71892">
        <ele>517.4</ele>
        <time>2022-07-29T15:18:51Z</time>
      </trkpt>
      <trkpt lat="46.39103" lon="5.71895">
        <ele>517.8</ele>
        <time>2022-07-29T15:18:52Z</time>
      </trkpt>
      <trkpt lat="46.39106" lon="5.71898">
        <ele>517.8</ele>
        <time>2022-07-29T15:18:53Z</time>
      </trkpt>
      <trkpt lat="46.39108" lon="5.71901">
        <ele>518</ele>
        <time>2022-07-29T15:18:54Z</time>
      </trkpt>
      <trkpt lat="46.39111" lon="5.71904">
        <ele>518</ele>
        <time>2022-07-29T15:18:55Z</time>
      </trkpt>
      <trkpt lat="46.39113" lon="5.71906">
        <ele>518.2</ele>
        <time>2022-07-29T15:18:56Z</time>
      </trkpt>
      <trkpt lat="46.39116" lon="5.7191">
        <ele>518.4</ele>
        <time>2022-07-29T15:18:57Z</time>
      </trkpt>
      <trkpt lat="46.39118" lon="5.71913">
        <ele>518.4</ele>
        <time>2022-07-29T15:18:58Z</time>
      </trkpt>
      <trkpt lat="46.39121" lon="5.71916">
        <ele>518.8</ele>
        <time>2022-07-29T15:18:59Z</time>
      </trkpt>
      <trkpt lat="46.39123" lon="5.71919">
        <ele>519.2</ele>
        <time>2022-07-29T15:19:00Z</time>
      </trkpt>
      <trkpt lat="46.39125" lon="5.71922">
        <ele>519.2</ele>
        <time>2022-07-29T15:19:01Z</time>
      </trkpt>
      <trkpt lat="46.39128" lon="5.71925">
        <ele>519.6</ele>
        <time>2022-07-29T15:19:02Z</time>
      </trkpt>
      <trkpt lat="46.3913" lon="5.71928">
        <ele>519.6</ele>
        <time>2022-07-29T15:19:03Z</time>
      </trkpt>
      <trkpt lat="46.39132" lon="5.71932">
        <ele>519.6</ele>
        <time>2022-07-29T15:19:04Z</time>
      </trkpt>
      <trkpt lat="46.39135" lon="5.71935">
        <ele>520</ele>
        <time>2022-07-29T15:19:05Z</time>
      </trkpt>
      <trkpt lat="46.39137" lon="5.71938">
        <ele>520</ele>
        <time>2022-07-29T15:19:06Z</time>
      </trkpt>
      <trkpt lat="46.39139" lon="5.71942">
        <ele>520.2</ele>
        <time>2022-07-29T15:19:07Z</time>
      </trkpt>
      <trkpt lat="46.39142" lon="5.71945">
        <ele>520.8</ele>
        <time>2022-07-29T15:19:08Z</time>
      </trkpt>
      <trkpt lat="46.39144" lon="5.71948">
        <ele>520.8</ele>
        <time>2022-07-29T15:19:09Z</time>
      </trkpt>
      <trkpt lat="46.39146" lon="5.71951">
        <ele>521.2</ele>
        <time>2022-07-29T15:19:10Z</time>
      </trkpt>
      <trkpt lat="46.39149" lon="5.71954">
        <ele>521.2</ele>
        <time>2022-07-29T15:19:11Z</time>
      </trkpt>
      <trkpt lat="46.39151" lon="5.71958">
        <ele>521.4</ele>
        <time>2022-07-29T15:19:12Z</time>
      </trkpt>
      <trkpt lat="46.39153" lon="5.71961">
        <ele>521.6</ele>
        <time>2022-07-29T15:19:13Z</time>
      </trkpt>
      <trkpt lat="46.39156" lon="5.71964">
        <ele>521.6</ele>
        <time>2022-07-29T15:19:14Z</time>
      </trkpt>
      <trkpt lat="46.39158" lon="5.71967">
        <ele>522</ele>
        <time>2022-07-29T15:19:15Z</time>
      </trkpt>
      <trkpt lat="46.3916" lon="5.71971">
        <ele>522</ele>
        <time>2022-07-29T15:19:16Z</time>
      </trkpt>
      <trkpt lat="46.39163" lon="5.71974">
        <ele>522.4</ele>
        <time>2022-07-29T15:19:17Z</time>
      </trkpt>
      <trkpt lat="46.39165" lon="5.71977">
        <ele>522.4</ele>
        <time>2022-07-29T15:19:18Z</time>
      </trkpt>
      <trkpt lat="46.39167" lon="5.7198">
        <ele>522.8</ele>
        <time>2022-07-29T15:19:19Z</time>
      </trkpt>
      <trkpt lat="46.39169" lon="5.71983">
        <ele>523</ele>
        <time>2022-07-29T15:19:20Z</time>
      </trkpt>
      <trkpt lat="46.39171" lon="5.71986">
        <ele>523</ele>
        <time>2022-07-29T15:19:21Z</time>
      </trkpt>
      <trkpt lat="46.39173" lon="5.71989">
        <ele>523.4</ele>
        <time>2022-07-29T15:19:22Z</time>
      </trkpt>
      <trkpt lat="46.39175" lon="5.71992">
        <ele>523.4</ele>
        <time>2022-07-29T15:19:23Z</time>
      </trkpt>
      <trkpt lat="46.39177" lon="5.71996">
        <ele>523.6</ele>
        <time>2022-07-29T15:19:24Z</time>
      </trkpt>
      <trkpt lat="46.39179" lon="5.71999">
        <ele>523.6</ele>
        <time>2022-07-29T15:19:25Z</time>
      </trkpt>
      <trkpt lat="46.39181" lon="5.72002">
        <ele>523.8</ele>
        <time>2022-07-29T15:19:26Z</time>
      </trkpt>
      <trkpt lat="46.39183" lon="5.72005">
        <ele>523.8</ele>
        <time>2022-07-29T15:19:27Z</time>
      </trkpt>
      <trkpt lat="46.39185" lon="5.72008">
        <ele>524.2</ele>
        <time>2022-07-29T15:19:28Z</time>
      </trkpt>
      <trkpt lat="46.39188" lon="5.72012">
        <ele>524.2</ele>
        <time>2022-07-29T15:19:29Z</time>
      </trkpt>
      <trkpt lat="46.3919" lon="5.72015">
        <ele>524.4</ele>
        <time>2022-07-29T15:19:30Z</time>
      </trkpt>
      <trkpt lat="46.39192" lon="5.72018">
        <ele>524.4</ele>
        <time>2022-07-29T15:19:31Z</time>
      </trkpt>
      <trkpt lat="46.39194" lon="5.72022">
        <ele>524.8</ele>
        <time>2022-07-29T15:19:32Z</time>
      </trkpt>
      <trkpt lat="46.39196" lon="5.72025">
        <ele>525</ele>
        <time>2022-07-29T15:19:33Z</time>
      </trkpt>
      <trkpt lat="46.39198" lon="5.72028">
        <ele>525.2</ele>
        <time>2022-07-29T15:19:34Z</time>
      </trkpt>
      <trkpt lat="46.392" lon="5.72032">
        <ele>525.2</ele>
        <time>2022-07-29T15:19:35Z</time>
      </trkpt>
      <trkpt lat="46.39203" lon="5.72035">
        <ele>525.4</ele>
        <time>2022-07-29T15:19:36Z</time>
      </trkpt>
      <trkpt lat="46.39205" lon="5.72038">
        <ele>525.4</ele>
        <time>2022-07-29T15:19:37Z</time>
      </trkpt>
      <trkpt lat="46.39207" lon="5.72041">
        <ele>525.8</ele>
        <time>2022-07-29T15:19:38Z</time>
      </trkpt>
      <trkpt lat="46.39209" lon="5.72044">
        <ele>525.8</ele>
        <time>2022-07-29T15:19:39Z</time>
      </trkpt>
      <trkpt lat="46.39211" lon="5.72048">
        <ele>525.8</ele>
        <time>2022-07-29T15:19:40Z</time>
      </trkpt>
      <trkpt lat="46.39212" lon="5.72051">
        <ele>526.2</ele>
        <time>2022-07-29T15:19:41Z</time>
      </trkpt>
      <trkpt lat="46.39214" lon="5.72054">
        <ele>526.2</ele>
        <time>2022-07-29T15:19:42Z</time>
      </trkpt>
      <trkpt lat="46.39216" lon="5.72058">
        <ele>526.4</ele>
        <time>2022-07-29T15:19:43Z</time>
      </trkpt>
      <trkpt lat="46.39218" lon="5.72061">
        <ele>526.4</ele>
        <time>2022-07-29T15:19:44Z</time>
      </trkpt>
      <trkpt lat="46.3922" lon="5.72064">
        <ele>526.8</ele>
        <time>2022-07-29T15:19:45Z</time>
      </trkpt>
      <trkpt lat="46.39222" lon="5.72067">
        <ele>527</ele>
        <time>2022-07-29T15:19:46Z</time>
      </trkpt>
      <trkpt lat="46.39224" lon="5.7207">
        <ele>527.2</ele>
        <time>2022-07-29T15:19:47Z</time>
      </trkpt>
      <trkpt lat="46.39226" lon="5.72073">
        <ele>527.2</ele>
        <time>2022-07-29T15:19:48Z</time>
      </trkpt>
      <trkpt lat="46.39228" lon="5.72076">
        <ele>527.6</ele>
        <time>2022-07-29T15:19:49Z</time>
      </trkpt>
      <trkpt lat="46.3923" lon="5.72079">
        <ele>527.6</ele>
        <time>2022-07-29T15:19:50Z</time>
      </trkpt>
      <trkpt lat="46.39232" lon="5.72082">
        <ele>527.8</ele>
        <time>2022-07-29T15:19:51Z</time>
      </trkpt>
      <trkpt lat="46.39234" lon="5.72086">
        <ele>527.8</ele>
        <time>2022-07-29T15:19:52Z</time>
      </trkpt>
      <trkpt lat="46.39236" lon="5.72089">
        <ele>528.2</ele>
        <time>2022-07-29T15:19:53Z</time>
      </trkpt>
      <trkpt lat="46.39238" lon="5.72092">
        <ele>528.2</ele>
        <time>2022-07-29T15:19:54Z</time>
      </trkpt>
      <trkpt lat="46.3924" lon="5.72095">
        <ele>528.4</ele>
        <time>2022-07-29T15:19:55Z</time>
      </trkpt>
      <trkpt lat="46.39242" lon="5.72098">
        <ele>528.6</ele>
        <time>2022-07-29T15:19:56Z</time>
      </trkpt>
      <trkpt lat="46.39244" lon="5.72101">
        <ele>528.6</ele>
        <time>2022-07-29T15:19:57Z</time>
      </trkpt>
      <trkpt lat="46.39245" lon="5.72104">
        <ele>529</ele>
        <time>2022-07-29T15:19:58Z</time>
      </trkpt>
      <trkpt lat="46.39248" lon="5.72107">
        <ele>529</ele>
        <time>2022-07-29T15:19:59Z</time>
      </trkpt>
      <trkpt lat="46.3925" lon="5.72109">
        <ele>529.2</ele>
        <time>2022-07-29T15:20:00Z</time>
      </trkpt>
      <trkpt lat="46.39252" lon="5.72112">
        <ele>529.2</ele>
        <time>2022-07-29T15:20:01Z</time>
      </trkpt>
      <trkpt lat="46.39254" lon="5.72115">
        <ele>529.6</ele>
        <time>2022-07-29T15:20:02Z</time>
      </trkpt>
      <trkpt lat="46.39256" lon="5.72118">
        <ele>529.6</ele>
        <time>2022-07-29T15:20:03Z</time>
      </trkpt>
      <trkpt lat="46.39259" lon="5.7212">
        <ele>530</ele>
        <time>2022-07-29T15:20:04Z</time>
      </trkpt>
      <trkpt lat="46.39261" lon="5.72123">
        <ele>530</ele>
        <time>2022-07-29T15:20:05Z</time>
      </trkpt>
      <trkpt lat="46.39262" lon="5.72126">
        <ele>530.4</ele>
        <time>2022-07-29T15:20:06Z</time>
      </trkpt>
      <trkpt lat="46.39264" lon="5.72129">
        <ele>530.4</ele>
        <time>2022-07-29T15:20:07Z</time>
      </trkpt>
      <trkpt lat="46.39266" lon="5.72131">
        <ele>530.8</ele>
        <time>2022-07-29T15:20:08Z</time>
      </trkpt>
      <trkpt lat="46.39268" lon="5.72134">
        <ele>530.8</ele>
        <time>2022-07-29T15:20:09Z</time>
      </trkpt>
      <trkpt lat="46.3927" lon="5.72136">
        <ele>531</ele>
        <time>2022-07-29T15:20:10Z</time>
      </trkpt>
      <trkpt lat="46.39272" lon="5.72138">
        <ele>531</ele>
        <time>2022-07-29T15:20:11Z</time>
      </trkpt>
      <trkpt lat="46.39274" lon="5.72141">
        <ele>531.4</ele>
        <time>2022-07-29T15:20:12Z</time>
      </trkpt>
      <trkpt lat="46.39276" lon="5.72144">
        <ele>531.4</ele>
        <time>2022-07-29T15:20:13Z</time>
      </trkpt>
      <trkpt lat="46.39278" lon="5.72146">
        <ele>531.6</ele>
        <time>2022-07-29T15:20:14Z</time>
      </trkpt>
      <trkpt lat="46.3928" lon="5.72149">
        <ele>531.6</ele>
        <time>2022-07-29T15:20:15Z</time>
      </trkpt>
      <trkpt lat="46.39282" lon="5.72152">
        <ele>531.6</ele>
        <time>2022-07-29T15:20:16Z</time>
      </trkpt>
      <trkpt lat="46.39284" lon="5.72154">
        <ele>532</ele>
        <time>2022-07-29T15:20:17Z</time>
      </trkpt>
      <trkpt lat="46.39286" lon="5.72157">
        <ele>532</ele>
        <time>2022-07-29T15:20:18Z</time>
      </trkpt>
      <trkpt lat="46.39288" lon="5.7216">
        <ele>532.2</ele>
        <time>2022-07-29T15:20:19Z</time>
      </trkpt>
      <trkpt lat="46.3929" lon="5.72162">
        <ele>532.4</ele>
        <time>2022-07-29T15:20:20Z</time>
      </trkpt>
      <trkpt lat="46.39292" lon="5.72165">
        <ele>532.4</ele>
        <time>2022-07-29T15:20:21Z</time>
      </trkpt>
      <trkpt lat="46.39294" lon="5.72167">
        <ele>532.8</ele>
        <time>2022-07-29T15:20:22Z</time>
      </trkpt>
      <trkpt lat="46.39296" lon="5.7217">
        <ele>532.8</ele>
        <time>2022-07-29T15:20:23Z</time>
      </trkpt>
      <trkpt lat="46.39299" lon="5.72173">
        <ele>533</ele>
        <time>2022-07-29T15:20:24Z</time>
      </trkpt>
      <trkpt lat="46.39301" lon="5.72175">
        <ele>533</ele>
        <time>2022-07-29T15:20:25Z</time>
      </trkpt>
      <trkpt lat="46.39303" lon="5.72178">
        <ele>533.2</ele>
        <time>2022-07-29T15:20:26Z</time>
      </trkpt>
      <trkpt lat="46.39305" lon="5.72181">
        <ele>533.2</ele>
        <time>2022-07-29T15:20:27Z</time>
      </trkpt>
      <trkpt lat="46.39307" lon="5.72183">
        <ele>533.6</ele>
        <time>2022-07-29T15:20:28Z</time>
      </trkpt>
      <trkpt lat="46.39309" lon="5.72186">
        <ele>533.6</ele>
        <time>2022-07-29T15:20:29Z</time>
      </trkpt>
      <trkpt lat="46.39311" lon="5.72188">
        <ele>533.8</ele>
        <time>2022-07-29T15:20:30Z</time>
      </trkpt>
      <trkpt lat="46.39313" lon="5.72191">
        <ele>533.8</ele>
        <time>2022-07-29T15:20:31Z</time>
      </trkpt>
      <trkpt lat="46.39315" lon="5.72193">
        <ele>534.2</ele>
        <time>2022-07-29T15:20:32Z</time>
      </trkpt>
      <trkpt lat="46.39318" lon="5.72196">
        <ele>534.4</ele>
        <time>2022-07-29T15:20:33Z</time>
      </trkpt>
      <trkpt lat="46.39319" lon="5.72199">
        <ele>534.4</ele>
        <time>2022-07-29T15:20:34Z</time>
      </trkpt>
      <trkpt lat="46.39321" lon="5.72202">
        <ele>534.6</ele>
        <time>2022-07-29T15:20:35Z</time>
      </trkpt>
      <trkpt lat="46.39323" lon="5.72205">
        <ele>534.6</ele>
        <time>2022-07-29T15:20:36Z</time>
      </trkpt>
      <trkpt lat="46.39325" lon="5.72208">
        <ele>535</ele>
        <time>2022-07-29T15:20:37Z</time>
      </trkpt>
      <trkpt lat="46.39327" lon="5.72211">
        <ele>535.2</ele>
        <time>2022-07-29T15:20:38Z</time>
      </trkpt>
      <trkpt lat="46.39329" lon="5.72214">
        <ele>535.2</ele>
        <time>2022-07-29T15:20:39Z</time>
      </trkpt>
      <trkpt lat="46.39331" lon="5.72217">
        <ele>535.8</ele>
        <time>2022-07-29T15:20:40Z</time>
      </trkpt>
      <trkpt lat="46.39334" lon="5.7222">
        <ele>535.8</ele>
        <time>2022-07-29T15:20:41Z</time>
      </trkpt>
      <trkpt lat="46.39336" lon="5.72223">
        <ele>535.8</ele>
        <time>2022-07-29T15:20:42Z</time>
      </trkpt>
      <trkpt lat="46.39338" lon="5.72226">
        <ele>536</ele>
        <time>2022-07-29T15:20:43Z</time>
      </trkpt>
      <trkpt lat="46.3934" lon="5.72229">
        <ele>536</ele>
        <time>2022-07-29T15:20:44Z</time>
      </trkpt>
      <trkpt lat="46.39342" lon="5.72232">
        <ele>536</ele>
        <time>2022-07-29T15:20:45Z</time>
      </trkpt>
      <trkpt lat="46.39344" lon="5.72235">
        <ele>536.2</ele>
        <time>2022-07-29T15:20:46Z</time>
      </trkpt>
      <trkpt lat="46.39346" lon="5.72238">
        <ele>536.2</ele>
        <time>2022-07-29T15:20:47Z</time>
      </trkpt>
      <trkpt lat="46.39348" lon="5.72241">
        <ele>536.2</ele>
        <time>2022-07-29T15:20:48Z</time>
      </trkpt>
      <trkpt lat="46.3935" lon="5.72245">
        <ele>536.6</ele>
        <time>2022-07-29T15:20:49Z</time>
      </trkpt>
      <trkpt lat="46.39352" lon="5.72248">
        <ele>536.6</ele>
        <time>2022-07-29T15:20:50Z</time>
      </trkpt>
      <trkpt lat="46.39355" lon="5.72251">
        <ele>536.8</ele>
        <time>2022-07-29T15:20:51Z</time>
      </trkpt>
      <trkpt lat="46.39357" lon="5.72254">
        <ele>536.8</ele>
        <time>2022-07-29T15:20:52Z</time>
      </trkpt>
      <trkpt lat="46.39359" lon="5.72258">
        <ele>537.2</ele>
        <time>2022-07-29T15:20:53Z</time>
      </trkpt>
      <trkpt lat="46.39361" lon="5.72261">
        <ele>537.2</ele>
        <time>2022-07-29T15:20:54Z</time>
      </trkpt>
      <trkpt lat="46.39364" lon="5.72265">
        <ele>537.2</ele>
        <time>2022-07-29T15:20:55Z</time>
      </trkpt>
      <trkpt lat="46.39366" lon="5.72268">
        <ele>537.4</ele>
        <time>2022-07-29T15:20:56Z</time>
      </trkpt>
      <trkpt lat="46.39368" lon="5.72272">
        <ele>537.4</ele>
        <time>2022-07-29T15:20:57Z</time>
      </trkpt>
      <trkpt lat="46.39371" lon="5.72275">
        <ele>537.4</ele>
        <time>2022-07-29T15:20:58Z</time>
      </trkpt>
      <trkpt lat="46.39373" lon="5.72278">
        <ele>537.6</ele>
        <time>2022-07-29T15:20:59Z</time>
      </trkpt>
      <trkpt lat="46.39376" lon="5.72282">
        <ele>537.6</ele>
        <time>2022-07-29T15:21:00Z</time>
      </trkpt>
      <trkpt lat="46.39378" lon="5.72285">
        <ele>538</ele>
        <time>2022-07-29T15:21:01Z</time>
      </trkpt>
      <trkpt lat="46.39381" lon="5.72289">
        <ele>538</ele>
        <time>2022-07-29T15:21:02Z</time>
      </trkpt>
      <trkpt lat="46.39383" lon="5.72293">
        <ele>538.2</ele>
        <time>2022-07-29T15:21:03Z</time>
      </trkpt>
      <trkpt lat="46.39386" lon="5.72297">
        <ele>538.2</ele>
        <time>2022-07-29T15:21:04Z</time>
      </trkpt>
      <trkpt lat="46.39389" lon="5.723">
        <ele>538.4</ele>
        <time>2022-07-29T15:21:05Z</time>
      </trkpt>
      <trkpt lat="46.39391" lon="5.72304">
        <ele>538.4</ele>
        <time>2022-07-29T15:21:06Z</time>
      </trkpt>
      <trkpt lat="46.39394" lon="5.72308">
        <ele>539</ele>
        <time>2022-07-29T15:21:07Z</time>
      </trkpt>
      <trkpt lat="46.39397" lon="5.72311">
        <ele>539</ele>
        <time>2022-07-29T15:21:08Z</time>
      </trkpt>
      <trkpt lat="46.394" lon="5.72315">
        <ele>539</ele>
        <time>2022-07-29T15:21:09Z</time>
      </trkpt>
      <trkpt lat="46.39402" lon="5.72318">
        <ele>539</ele>
        <time>2022-07-29T15:21:10Z</time>
      </trkpt>
      <trkpt lat="46.39405" lon="5.72322">
        <ele>539</ele>
        <time>2022-07-29T15:21:11Z</time>
      </trkpt>
      <trkpt lat="46.39408" lon="5.72325">
        <ele>539</ele>
        <time>2022-07-29T15:21:12Z</time>
      </trkpt>
      <trkpt lat="46.39408" lon="5.72325">
        <ele>539</ele>
        <time>2022-07-29T15:21:13Z</time>
      </trkpt>
      <trkpt lat="46.39411" lon="5.72329">
        <ele>539.2</ele>
        <time>2022-07-29T15:21:14Z</time>
      </trkpt>
      <trkpt lat="46.39414" lon="5.72333">
        <ele>539.2</ele>
        <time>2022-07-29T15:21:15Z</time>
      </trkpt>
      <trkpt lat="46.39417" lon="5.72336">
        <ele>539.2</ele>
        <time>2022-07-29T15:21:16Z</time>
      </trkpt>
      <trkpt lat="46.39419" lon="5.7234">
        <ele>539.4</ele>
        <time>2022-07-29T15:21:17Z</time>
      </trkpt>
      <trkpt lat="46.39422" lon="5.72343">
        <ele>539.4</ele>
        <time>2022-07-29T15:21:18Z</time>
      </trkpt>
      <trkpt lat="46.39428" lon="5.7235">
        <ele>539.4</ele>
        <time>2022-07-29T15:21:19Z</time>
      </trkpt>
      <trkpt lat="46.39431" lon="5.72353">
        <ele>539.4</ele>
        <time>2022-07-29T15:21:20Z</time>
      </trkpt>
      <trkpt lat="46.39434" lon="5.72357">
        <ele>539.8</ele>
        <time>2022-07-29T15:21:21Z</time>
      </trkpt>
      <trkpt lat="46.39437" lon="5.7236">
        <ele>539.8</ele>
        <time>2022-07-29T15:21:22Z</time>
      </trkpt>
      <trkpt lat="46.3944" lon="5.72363">
        <ele>540</ele>
        <time>2022-07-29T15:21:23Z</time>
      </trkpt>
      <trkpt lat="46.39443" lon="5.72366">
        <ele>540</ele>
        <time>2022-07-29T15:21:24Z</time>
      </trkpt>
      <trkpt lat="46.39447" lon="5.72369">
        <ele>540.2</ele>
        <time>2022-07-29T15:21:25Z</time>
      </trkpt>
      <trkpt lat="46.3945" lon="5.72372">
        <ele>540.2</ele>
        <time>2022-07-29T15:21:26Z</time>
      </trkpt>
      <trkpt lat="46.39453" lon="5.72375">
        <ele>540.4</ele>
        <time>2022-07-29T15:21:27Z</time>
      </trkpt>
      <trkpt lat="46.39457" lon="5.72378">
        <ele>540.4</ele>
        <time>2022-07-29T15:21:28Z</time>
      </trkpt>
      <trkpt lat="46.3946" lon="5.7238">
        <ele>540.4</ele>
        <time>2022-07-29T15:21:29Z</time>
      </trkpt>
      <trkpt lat="46.39463" lon="5.72383">
        <ele>540.4</ele>
        <time>2022-07-29T15:21:30Z</time>
      </trkpt>
      <trkpt lat="46.39466" lon="5.72386">
        <ele>540.4</ele>
        <time>2022-07-29T15:21:31Z</time>
      </trkpt>
      <trkpt lat="46.3947" lon="5.72389">
        <ele>540.4</ele>
        <time>2022-07-29T15:21:32Z</time>
      </trkpt>
      <trkpt lat="46.39473" lon="5.72391">
        <ele>540.8</ele>
        <time>2022-07-29T15:21:33Z</time>
      </trkpt>
      <trkpt lat="46.39477" lon="5.72394">
        <ele>540.8</ele>
        <time>2022-07-29T15:21:34Z</time>
      </trkpt>
      <trkpt lat="46.3948" lon="5.72396">
        <ele>540.8</ele>
        <time>2022-07-29T15:21:35Z</time>
      </trkpt>
      <trkpt lat="46.39484" lon="5.72398">
        <ele>540.8</ele>
        <time>2022-07-29T15:21:36Z</time>
      </trkpt>
      <trkpt lat="46.39487" lon="5.724">
        <ele>540.8</ele>
        <time>2022-07-29T15:21:37Z</time>
      </trkpt>
      <trkpt lat="46.3949" lon="5.72402">
        <ele>540.8</ele>
        <time>2022-07-29T15:21:38Z</time>
      </trkpt>
      <trkpt lat="46.39494" lon="5.72404">
        <ele>541</ele>
        <time>2022-07-29T15:21:39Z</time>
      </trkpt>
      <trkpt lat="46.39498" lon="5.72406">
        <ele>541</ele>
        <time>2022-07-29T15:21:40Z</time>
      </trkpt>
      <trkpt lat="46.39501" lon="5.72408">
        <ele>541.2</ele>
        <time>2022-07-29T15:21:41Z</time>
      </trkpt>
      <trkpt lat="46.39505" lon="5.7241">
        <ele>541.2</ele>
        <time>2022-07-29T15:21:42Z</time>
      </trkpt>
      <trkpt lat="46.39509" lon="5.72412">
        <ele>541.2</ele>
        <time>2022-07-29T15:21:43Z</time>
      </trkpt>
      <trkpt lat="46.39512" lon="5.72414">
        <ele>541.2</ele>
        <time>2022-07-29T15:21:44Z</time>
      </trkpt>
      <trkpt lat="46.39516" lon="5.72415">
        <ele>541.6</ele>
        <time>2022-07-29T15:21:45Z</time>
      </trkpt>
      <trkpt lat="46.3952" lon="5.72417">
        <ele>541.6</ele>
        <time>2022-07-29T15:21:46Z</time>
      </trkpt>
      <trkpt lat="46.39524" lon="5.72418">
        <ele>541.6</ele>
        <time>2022-07-29T15:21:47Z</time>
      </trkpt>
      <trkpt lat="46.39528" lon="5.7242">
        <ele>541.6</ele>
        <time>2022-07-29T15:21:48Z</time>
      </trkpt>
      <trkpt lat="46.39532" lon="5.72421">
        <ele>541.8</ele>
        <time>2022-07-29T15:21:49Z</time>
      </trkpt>
      <trkpt lat="46.39536" lon="5.72422">
        <ele>541.8</ele>
        <time>2022-07-29T15:21:50Z</time>
      </trkpt>
      <trkpt lat="46.3954" lon="5.72424">
        <ele>541.8</ele>
        <time>2022-07-29T15:21:51Z</time>
      </trkpt>
      <trkpt lat="46.39545" lon="5.72425">
        <ele>542.2</ele>
        <time>2022-07-29T15:21:52Z</time>
      </trkpt>
      <trkpt lat="46.39549" lon="5.72426">
        <ele>542.2</ele>
        <time>2022-07-29T15:21:53Z</time>
      </trkpt>
      <trkpt lat="46.39553" lon="5.72427">
        <ele>542.2</ele>
        <time>2022-07-29T15:21:54Z</time>
      </trkpt>
      <trkpt lat="46.39557" lon="5.72428">
        <ele>542.4</ele>
        <time>2022-07-29T15:21:55Z</time>
      </trkpt>
      <trkpt lat="46.39561" lon="5.72429">
        <ele>542.4</ele>
        <time>2022-07-29T15:21:56Z</time>
      </trkpt>
      <trkpt lat="46.39565" lon="5.7243">
        <ele>542.6</ele>
        <time>2022-07-29T15:21:57Z</time>
      </trkpt>
      <trkpt lat="46.39569" lon="5.72431">
        <ele>542.6</ele>
        <time>2022-07-29T15:21:58Z</time>
      </trkpt>
      <trkpt lat="46.39573" lon="5.72432">
        <ele>542.8</ele>
        <time>2022-07-29T15:21:59Z</time>
      </trkpt>
      <trkpt lat="46.39577" lon="5.72433">
        <ele>542.8</ele>
        <time>2022-07-29T15:22:00Z</time>
      </trkpt>
      <trkpt lat="46.39581" lon="5.72434">
        <ele>542.8</ele>
        <time>2022-07-29T15:22:01Z</time>
      </trkpt>
      <trkpt lat="46.39585" lon="5.72434">
        <ele>543.2</ele>
        <time>2022-07-29T15:22:02Z</time>
      </trkpt>
      <trkpt lat="46.39589" lon="5.72435">
        <ele>543.2</ele>
        <time>2022-07-29T15:22:03Z</time>
      </trkpt>
      <trkpt lat="46.39593" lon="5.72436">
        <ele>543.2</ele>
        <time>2022-07-29T15:22:04Z</time>
      </trkpt>
      <trkpt lat="46.39597" lon="5.72437">
        <ele>543.4</ele>
        <time>2022-07-29T15:22:05Z</time>
      </trkpt>
      <trkpt lat="46.39601" lon="5.72438">
        <ele>543.4</ele>
        <time>2022-07-29T15:22:06Z</time>
      </trkpt>
      <trkpt lat="46.39605" lon="5.72439">
        <ele>543.4</ele>
        <time>2022-07-29T15:22:07Z</time>
      </trkpt>
      <trkpt lat="46.39609" lon="5.7244">
        <ele>543.6</ele>
        <time>2022-07-29T15:22:08Z</time>
      </trkpt>
      <trkpt lat="46.39613" lon="5.72441">
        <ele>543.6</ele>
        <time>2022-07-29T15:22:09Z</time>
      </trkpt>
      <trkpt lat="46.39617" lon="5.72442">
        <ele>543.6</ele>
        <time>2022-07-29T15:22:10Z</time>
      </trkpt>
      <trkpt lat="46.39621" lon="5.72443">
        <ele>543.8</ele>
        <time>2022-07-29T15:22:11Z</time>
      </trkpt>
      <trkpt lat="46.39625" lon="5.72444">
        <ele>543.8</ele>
        <time>2022-07-29T15:22:12Z</time>
      </trkpt>
      <trkpt lat="46.39628" lon="5.72445">
        <ele>543.8</ele>
        <time>2022-07-29T15:22:13Z</time>
      </trkpt>
      <trkpt lat="46.39632" lon="5.72446">
        <ele>544</ele>
        <time>2022-07-29T15:22:14Z</time>
      </trkpt>
      <trkpt lat="46.39636" lon="5.72447">
        <ele>544</ele>
        <time>2022-07-29T15:22:15Z</time>
      </trkpt>
      <trkpt lat="46.39641" lon="5.72448">
        <ele>544</ele>
        <time>2022-07-29T15:22:16Z</time>
      </trkpt>
      <trkpt lat="46.39644" lon="5.72449">
        <ele>544.4</ele>
        <time>2022-07-29T15:22:17Z</time>
      </trkpt>
      <trkpt lat="46.39648" lon="5.7245">
        <ele>544.4</ele>
        <time>2022-07-29T15:22:18Z</time>
      </trkpt>
      <trkpt lat="46.39652" lon="5.72451">
        <ele>544.4</ele>
        <time>2022-07-29T15:22:19Z</time>
      </trkpt>
      <trkpt lat="46.39656" lon="5.72452">
        <ele>544.6</ele>
        <time>2022-07-29T15:22:20Z</time>
      </trkpt>
      <trkpt lat="46.3966" lon="5.72453">
        <ele>544.6</ele>
        <time>2022-07-29T15:22:21Z</time>
      </trkpt>
      <trkpt lat="46.39664" lon="5.72454">
        <ele>544.6</ele>
        <time>2022-07-29T15:22:22Z</time>
      </trkpt>
      <trkpt lat="46.39667" lon="5.72455">
        <ele>544.6</ele>
        <time>2022-07-29T15:22:23Z</time>
      </trkpt>
      <trkpt lat="46.39671" lon="5.72456">
        <ele>545</ele>
        <time>2022-07-29T15:22:24Z</time>
      </trkpt>
      <trkpt lat="46.39675" lon="5.72457">
        <ele>545</ele>
        <time>2022-07-29T15:22:25Z</time>
      </trkpt>
      <trkpt lat="46.39679" lon="5.72458">
        <ele>545</ele>
        <time>2022-07-29T15:22:26Z</time>
      </trkpt>
      <trkpt lat="46.39683" lon="5.72459">
        <ele>545</ele>
        <time>2022-07-29T15:22:27Z</time>
      </trkpt>
      <trkpt lat="46.39687" lon="5.7246">
        <ele>545</ele>
        <time>2022-07-29T15:22:28Z</time>
      </trkpt>
      <trkpt lat="46.3969" lon="5.72462">
        <ele>545.2</ele>
        <time>2022-07-29T15:22:29Z</time>
      </trkpt>
      <trkpt lat="46.39695" lon="5.72463">
        <ele>545.2</ele>
        <time>2022-07-29T15:22:30Z</time>
      </trkpt>
      <trkpt lat="46.39699" lon="5.72465">
        <ele>545.2</ele>
        <time>2022-07-29T15:22:31Z</time>
      </trkpt>
      <trkpt lat="46.39703" lon="5.72466">
        <ele>545.2</ele>
        <time>2022-07-29T15:22:32Z</time>
      </trkpt>
      <trkpt lat="46.39707" lon="5.72467">
        <ele>545.8</ele>
        <time>2022-07-29T15:22:33Z</time>
      </trkpt>
      <trkpt lat="46.39712" lon="5.72468">
        <ele>545.8</ele>
        <time>2022-07-29T15:22:34Z</time>
      </trkpt>
      <trkpt lat="46.39716" lon="5.72469">
        <ele>545.8</ele>
        <time>2022-07-29T15:22:35Z</time>
      </trkpt>
      <trkpt lat="46.3972" lon="5.72471">
        <ele>545.8</ele>
        <time>2022-07-29T15:22:36Z</time>
      </trkpt>
      <trkpt lat="46.39724" lon="5.72472">
        <ele>545.8</ele>
        <time>2022-07-29T15:22:37Z</time>
      </trkpt>
      <trkpt lat="46.39728" lon="5.72473">
        <ele>545.8</ele>
        <time>2022-07-29T15:22:38Z</time>
      </trkpt>
      <trkpt lat="46.39733" lon="5.72475">
        <ele>545.8</ele>
        <time>2022-07-29T15:22:39Z</time>
      </trkpt>
      <trkpt lat="46.39737" lon="5.72476">
        <ele>545.8</ele>
        <time>2022-07-29T15:22:40Z</time>
      </trkpt>
      <trkpt lat="46.39741" lon="5.72478">
        <ele>546.2</ele>
        <time>2022-07-29T15:22:41Z</time>
      </trkpt>
      <trkpt lat="46.39744" lon="5.7248">
        <ele>546.2</ele>
        <time>2022-07-29T15:22:42Z</time>
      </trkpt>
      <trkpt lat="46.39748" lon="5.72481">
        <ele>546.2</ele>
        <time>2022-07-29T15:22:43Z</time>
      </trkpt>
      <trkpt lat="46.39752" lon="5.72482">
        <ele>546.4</ele>
        <time>2022-07-29T15:22:44Z</time>
      </trkpt>
      <trkpt lat="46.39756" lon="5.72484">
        <ele>546.4</ele>
        <time>2022-07-29T15:22:45Z</time>
      </trkpt>
      <trkpt lat="46.39759" lon="5.72485">
        <ele>546.4</ele>
        <time>2022-07-29T15:22:46Z</time>
      </trkpt>
      <trkpt lat="46.39763" lon="5.72486">
        <ele>546.4</ele>
        <time>2022-07-29T15:22:47Z</time>
      </trkpt>
      <trkpt lat="46.39767" lon="5.72487">
        <ele>546.6</ele>
        <time>2022-07-29T15:22:48Z</time>
      </trkpt>
      <trkpt lat="46.39771" lon="5.72488">
        <ele>546.6</ele>
        <time>2022-07-29T15:22:49Z</time>
      </trkpt>
      <trkpt lat="46.39775" lon="5.7249">
        <ele>546.6</ele>
        <time>2022-07-29T15:22:50Z</time>
      </trkpt>
      <trkpt lat="46.39779" lon="5.72491">
        <ele>547</ele>
        <time>2022-07-29T15:22:51Z</time>
      </trkpt>
      <trkpt lat="46.39783" lon="5.72492">
        <ele>547</ele>
        <time>2022-07-29T15:22:52Z</time>
      </trkpt>
      <trkpt lat="46.39787" lon="5.72493">
        <ele>547</ele>
        <time>2022-07-29T15:22:53Z</time>
      </trkpt>
      <trkpt lat="46.39791" lon="5.72493">
        <ele>547.2</ele>
        <time>2022-07-29T15:22:54Z</time>
      </trkpt>
      <trkpt lat="46.39795" lon="5.72494">
        <ele>547.2</ele>
        <time>2022-07-29T15:22:55Z</time>
      </trkpt>
      <trkpt lat="46.39799" lon="5.72495">
        <ele>547.2</ele>
        <time>2022-07-29T15:22:56Z</time>
      </trkpt>
      <trkpt lat="46.39802" lon="5.72496">
        <ele>547.4</ele>
        <time>2022-07-29T15:22:57Z</time>
      </trkpt>
      <trkpt lat="46.39806" lon="5.72497">
        <ele>547.4</ele>
        <time>2022-07-29T15:22:58Z</time>
      </trkpt>
      <trkpt lat="46.3981" lon="5.72497">
        <ele>547.4</ele>
        <time>2022-07-29T15:22:59Z</time>
      </trkpt>
      <trkpt lat="46.39814" lon="5.72498">
        <ele>547.4</ele>
        <time>2022-07-29T15:23:00Z</time>
      </trkpt>
      <trkpt lat="46.39817" lon="5.72498">
        <ele>547.6</ele>
        <time>2022-07-29T15:23:01Z</time>
      </trkpt>
      <trkpt lat="46.39821" lon="5.72498">
        <ele>547.6</ele>
        <time>2022-07-29T15:23:02Z</time>
      </trkpt>
      <trkpt lat="46.39825" lon="5.72498">
        <ele>547.6</ele>
        <time>2022-07-29T15:23:03Z</time>
      </trkpt>
      <trkpt lat="46.39829" lon="5.72498">
        <ele>548</ele>
        <time>2022-07-29T15:23:04Z</time>
      </trkpt>
      <trkpt lat="46.39833" lon="5.72499">
        <ele>548</ele>
        <time>2022-07-29T15:23:05Z</time>
      </trkpt>
      <trkpt lat="46.39836" lon="5.72499">
        <ele>548</ele>
        <time>2022-07-29T15:23:06Z</time>
      </trkpt>
      <trkpt lat="46.3984" lon="5.72499">
        <ele>548.2</ele>
        <time>2022-07-29T15:23:07Z</time>
      </trkpt>
      <trkpt lat="46.39844" lon="5.72499">
        <ele>548.2</ele>
        <time>2022-07-29T15:23:08Z</time>
      </trkpt>
      <trkpt lat="46.39848" lon="5.72499">
        <ele>548.6</ele>
        <time>2022-07-29T15:23:09Z</time>
      </trkpt>
      <trkpt lat="46.39851" lon="5.725">
        <ele>548.6</ele>
        <time>2022-07-29T15:23:10Z</time>
      </trkpt>
      <trkpt lat="46.39855" lon="5.725">
        <ele>548.8</ele>
        <time>2022-07-29T15:23:11Z</time>
      </trkpt>
      <trkpt lat="46.39858" lon="5.725">
        <ele>548.8</ele>
        <time>2022-07-29T15:23:12Z</time>
      </trkpt>
      <trkpt lat="46.39862" lon="5.725">
        <ele>549</ele>
        <time>2022-07-29T15:23:13Z</time>
      </trkpt>
      <trkpt lat="46.39865" lon="5.725">
        <ele>549</ele>
        <time>2022-07-29T15:23:14Z</time>
      </trkpt>
      <trkpt lat="46.39869" lon="5.72501">
        <ele>549.2</ele>
        <time>2022-07-29T15:23:15Z</time>
      </trkpt>
      <trkpt lat="46.39872" lon="5.72501">
        <ele>549.2</ele>
        <time>2022-07-29T15:23:16Z</time>
      </trkpt>
      <trkpt lat="46.39876" lon="5.72501">
        <ele>549.4</ele>
        <time>2022-07-29T15:23:17Z</time>
      </trkpt>
      <trkpt lat="46.39879" lon="5.72501">
        <ele>549.8</ele>
        <time>2022-07-29T15:23:18Z</time>
      </trkpt>
      <trkpt lat="46.39882" lon="5.72502">
        <ele>550</ele>
        <time>2022-07-29T15:23:19Z</time>
      </trkpt>
      <trkpt lat="46.39886" lon="5.72502">
        <ele>550</ele>
        <time>2022-07-29T15:23:20Z</time>
      </trkpt>
      <trkpt lat="46.39889" lon="5.72502">
        <ele>550.4</ele>
        <time>2022-07-29T15:23:21Z</time>
      </trkpt>
      <trkpt lat="46.39892" lon="5.72502">
        <ele>550.6</ele>
        <time>2022-07-29T15:23:22Z</time>
      </trkpt>
      <trkpt lat="46.39896" lon="5.72502">
        <ele>550.8</ele>
        <time>2022-07-29T15:23:23Z</time>
      </trkpt>
      <trkpt lat="46.39899" lon="5.72502">
        <ele>551.2</ele>
        <time>2022-07-29T15:23:24Z</time>
      </trkpt>
      <trkpt lat="46.39902" lon="5.72503">
        <ele>551.4</ele>
        <time>2022-07-29T15:23:25Z</time>
      </trkpt>
      <trkpt lat="46.39906" lon="5.72503">
        <ele>551.8</ele>
        <time>2022-07-29T15:23:26Z</time>
      </trkpt>
      <trkpt lat="46.39909" lon="5.72504">
        <ele>552</ele>
        <time>2022-07-29T15:23:27Z</time>
      </trkpt>
      <trkpt lat="46.39912" lon="5.72504">
        <ele>552.2</ele>
        <time>2022-07-29T15:23:28Z</time>
      </trkpt>
      <trkpt lat="46.39915" lon="5.72505">
        <ele>552.4</ele>
        <time>2022-07-29T15:23:29Z</time>
      </trkpt>
      <trkpt lat="46.39919" lon="5.72505">
        <ele>552.4</ele>
        <time>2022-07-29T15:23:30Z</time>
      </trkpt>
      <trkpt lat="46.39922" lon="5.72505">
        <ele>552.8</ele>
        <time>2022-07-29T15:23:31Z</time>
      </trkpt>
      <trkpt lat="46.39925" lon="5.72505">
        <ele>552.8</ele>
        <time>2022-07-29T15:23:32Z</time>
      </trkpt>
      <trkpt lat="46.39928" lon="5.72506">
        <ele>553.2</ele>
        <time>2022-07-29T15:23:33Z</time>
      </trkpt>
      <trkpt lat="46.39931" lon="5.72506">
        <ele>553.2</ele>
        <time>2022-07-29T15:23:34Z</time>
      </trkpt>
      <trkpt lat="46.39934" lon="5.72507">
        <ele>553.6</ele>
        <time>2022-07-29T15:23:35Z</time>
      </trkpt>
      <trkpt lat="46.39937" lon="5.72508">
        <ele>553.6</ele>
        <time>2022-07-29T15:23:36Z</time>
      </trkpt>
      <trkpt lat="46.3994" lon="5.72508">
        <ele>554</ele>
        <time>2022-07-29T15:23:37Z</time>
      </trkpt>
      <trkpt lat="46.39943" lon="5.72508">
        <ele>554</ele>
        <time>2022-07-29T15:23:38Z</time>
      </trkpt>
      <trkpt lat="46.39946" lon="5.72509">
        <ele>554.4</ele>
        <time>2022-07-29T15:23:39Z</time>
      </trkpt>
      <trkpt lat="46.39949" lon="5.72509">
        <ele>554.6</ele>
        <time>2022-07-29T15:23:40Z</time>
      </trkpt>
      <trkpt lat="46.39952" lon="5.72509">
        <ele>554.8</ele>
        <time>2022-07-29T15:23:41Z</time>
      </trkpt>
      <trkpt lat="46.39954" lon="5.7251">
        <ele>554.8</ele>
        <time>2022-07-29T15:23:42Z</time>
      </trkpt>
      <trkpt lat="46.39957" lon="5.7251">
        <ele>555.2</ele>
        <time>2022-07-29T15:23:43Z</time>
      </trkpt>
      <trkpt lat="46.39959" lon="5.7251">
        <ele>555.2</ele>
        <time>2022-07-29T15:23:44Z</time>
      </trkpt>
      <trkpt lat="46.39962" lon="5.7251">
        <ele>555.6</ele>
        <time>2022-07-29T15:23:45Z</time>
      </trkpt>
      <trkpt lat="46.39965" lon="5.72511">
        <ele>555.8</ele>
        <time>2022-07-29T15:23:46Z</time>
      </trkpt>
      <trkpt lat="46.39967" lon="5.72511">
        <ele>555.8</ele>
        <time>2022-07-29T15:23:47Z</time>
      </trkpt>
      <trkpt lat="46.3997" lon="5.72511">
        <ele>556.2</ele>
        <time>2022-07-29T15:23:48Z</time>
      </trkpt>
      <trkpt lat="46.39973" lon="5.72512">
        <ele>556.4</ele>
        <time>2022-07-29T15:23:49Z</time>
      </trkpt>
      <trkpt lat="46.39976" lon="5.72512">
        <ele>556.8</ele>
        <time>2022-07-29T15:23:50Z</time>
      </trkpt>
      <trkpt lat="46.39979" lon="5.72512">
        <ele>556.8</ele>
        <time>2022-07-29T15:23:51Z</time>
      </trkpt>
      <trkpt lat="46.39982" lon="5.72513">
        <ele>557.2</ele>
        <time>2022-07-29T15:23:52Z</time>
      </trkpt>
      <trkpt lat="46.39984" lon="5.72513">
        <ele>557.4</ele>
        <time>2022-07-29T15:23:53Z</time>
      </trkpt>
      <trkpt lat="46.39987" lon="5.72514">
        <ele>557.4</ele>
        <time>2022-07-29T15:23:54Z</time>
      </trkpt>
      <trkpt lat="46.3999" lon="5.72515">
        <ele>557.8</ele>
        <time>2022-07-29T15:23:55Z</time>
      </trkpt>
      <trkpt lat="46.39993" lon="5.72515">
        <ele>558</ele>
        <time>2022-07-29T15:23:56Z</time>
      </trkpt>
      <trkpt lat="46.39996" lon="5.72516">
        <ele>558.2</ele>
        <time>2022-07-29T15:23:57Z</time>
      </trkpt>
      <trkpt lat="46.39999" lon="5.72517">
        <ele>558.2</ele>
        <time>2022-07-29T15:23:58Z</time>
      </trkpt>
      <trkpt lat="46.40002" lon="5.72517">
        <ele>558.6</ele>
        <time>2022-07-29T15:23:59Z</time>
      </trkpt>
      <trkpt lat="46.40005" lon="5.72518">
        <ele>558.8</ele>
        <time>2022-07-29T15:24:00Z</time>
      </trkpt>
      <trkpt lat="46.40007" lon="5.72518">
        <ele>559</ele>
        <time>2022-07-29T15:24:01Z</time>
      </trkpt>
      <trkpt lat="46.4001" lon="5.72519">
        <ele>559</ele>
        <time>2022-07-29T15:24:02Z</time>
      </trkpt>
      <trkpt lat="46.40013" lon="5.72519">
        <ele>559.4</ele>
        <time>2022-07-29T15:24:03Z</time>
      </trkpt>
      <trkpt lat="46.40015" lon="5.7252">
        <ele>559.8</ele>
        <time>2022-07-29T15:24:04Z</time>
      </trkpt>
      <trkpt lat="46.40018" lon="5.72521">
        <ele>560</ele>
        <time>2022-07-29T15:24:05Z</time>
      </trkpt>
      <trkpt lat="46.4002" lon="5.72522">
        <ele>560.2</ele>
        <time>2022-07-29T15:24:06Z</time>
      </trkpt>
      <trkpt lat="46.40023" lon="5.72522">
        <ele>560.4</ele>
        <time>2022-07-29T15:24:07Z</time>
      </trkpt>
      <trkpt lat="46.40025" lon="5.72523">
        <ele>560.4</ele>
        <time>2022-07-29T15:24:08Z</time>
      </trkpt>
      <trkpt lat="46.40028" lon="5.72524">
        <ele>560.8</ele>
        <time>2022-07-29T15:24:09Z</time>
      </trkpt>
      <trkpt lat="46.40031" lon="5.72525">
        <ele>561</ele>
        <time>2022-07-29T15:24:10Z</time>
      </trkpt>
      <trkpt lat="46.40033" lon="5.72526">
        <ele>561.2</ele>
        <time>2022-07-29T15:24:11Z</time>
      </trkpt>
      <trkpt lat="46.40036" lon="5.72527">
        <ele>561.2</ele>
        <time>2022-07-29T15:24:12Z</time>
      </trkpt>
      <trkpt lat="46.40038" lon="5.72528">
        <ele>561.6</ele>
        <time>2022-07-29T15:24:13Z</time>
      </trkpt>
      <trkpt lat="46.40041" lon="5.72529">
        <ele>561.6</ele>
        <time>2022-07-29T15:24:14Z</time>
      </trkpt>
      <trkpt lat="46.40043" lon="5.7253">
        <ele>562</ele>
        <time>2022-07-29T15:24:15Z</time>
      </trkpt>
      <trkpt lat="46.40046" lon="5.72531">
        <ele>562.2</ele>
        <time>2022-07-29T15:24:16Z</time>
      </trkpt>
      <trkpt lat="46.40048" lon="5.72532">
        <ele>562.2</ele>
        <time>2022-07-29T15:24:17Z</time>
      </trkpt>
      <trkpt lat="46.40051" lon="5.72534">
        <ele>562.6</ele>
        <time>2022-07-29T15:24:18Z</time>
      </trkpt>
      <trkpt lat="46.40053" lon="5.72535">
        <ele>562.8</ele>
        <time>2022-07-29T15:24:19Z</time>
      </trkpt>
      <trkpt lat="46.40055" lon="5.72536">
        <ele>563</ele>
        <time>2022-07-29T15:24:20Z</time>
      </trkpt>
      <trkpt lat="46.40057" lon="5.72537">
        <ele>563.4</ele>
        <time>2022-07-29T15:24:21Z</time>
      </trkpt>
      <trkpt lat="46.4006" lon="5.72538">
        <ele>563.4</ele>
        <time>2022-07-29T15:24:22Z</time>
      </trkpt>
      <trkpt lat="46.40062" lon="5.72539">
        <ele>563.8</ele>
        <time>2022-07-29T15:24:23Z</time>
      </trkpt>
      <trkpt lat="46.40064" lon="5.7254">
        <ele>563.8</ele>
        <time>2022-07-29T15:24:24Z</time>
      </trkpt>
      <trkpt lat="46.40067" lon="5.72542">
        <ele>564</ele>
        <time>2022-07-29T15:24:25Z</time>
      </trkpt>
      <trkpt lat="46.40069" lon="5.72543">
        <ele>564.6</ele>
        <time>2022-07-29T15:24:26Z</time>
      </trkpt>
      <trkpt lat="46.40072" lon="5.72545">
        <ele>564.6</ele>
        <time>2022-07-29T15:24:27Z</time>
      </trkpt>
      <trkpt lat="46.40074" lon="5.72546">
        <ele>564.8</ele>
        <time>2022-07-29T15:24:28Z</time>
      </trkpt>
      <trkpt lat="46.40077" lon="5.72548">
        <ele>564.8</ele>
        <time>2022-07-29T15:24:29Z</time>
      </trkpt>
      <trkpt lat="46.4008" lon="5.72549">
        <ele>565.2</ele>
        <time>2022-07-29T15:24:30Z</time>
      </trkpt>
      <trkpt lat="46.40082" lon="5.7255">
        <ele>565.4</ele>
        <time>2022-07-29T15:24:31Z</time>
      </trkpt>
      <trkpt lat="46.40085" lon="5.72551">
        <ele>565.4</ele>
        <time>2022-07-29T15:24:32Z</time>
      </trkpt>
      <trkpt lat="46.40087" lon="5.72552">
        <ele>565.8</ele>
        <time>2022-07-29T15:24:33Z</time>
      </trkpt>
      <trkpt lat="46.40089" lon="5.72553">
        <ele>566</ele>
        <time>2022-07-29T15:24:34Z</time>
      </trkpt>
      <trkpt lat="46.40092" lon="5.72555">
        <ele>566</ele>
        <time>2022-07-29T15:24:35Z</time>
      </trkpt>
      <trkpt lat="46.40094" lon="5.72556">
        <ele>566.4</ele>
        <time>2022-07-29T15:24:36Z</time>
      </trkpt>
      <trkpt lat="46.40097" lon="5.72557">
        <ele>566.6</ele>
        <time>2022-07-29T15:24:37Z</time>
      </trkpt>
      <trkpt lat="46.401" lon="5.72558">
        <ele>566.8</ele>
        <time>2022-07-29T15:24:38Z</time>
      </trkpt>
      <trkpt lat="46.40102" lon="5.72559">
        <ele>567</ele>
        <time>2022-07-29T15:24:39Z</time>
      </trkpt>
      <trkpt lat="46.40105" lon="5.7256">
        <ele>567.4</ele>
        <time>2022-07-29T15:24:40Z</time>
      </trkpt>
      <trkpt lat="46.40108" lon="5.72561">
        <ele>567.4</ele>
        <time>2022-07-29T15:24:41Z</time>
      </trkpt>
      <trkpt lat="46.4011" lon="5.72562">
        <ele>567.6</ele>
        <time>2022-07-29T15:24:42Z</time>
      </trkpt>
      <trkpt lat="46.40113" lon="5.72564">
        <ele>567.6</ele>
        <time>2022-07-29T15:24:43Z</time>
      </trkpt>
      <trkpt lat="46.40116" lon="5.72565">
        <ele>568</ele>
        <time>2022-07-29T15:24:44Z</time>
      </trkpt>
      <trkpt lat="46.40118" lon="5.72566">
        <ele>568</ele>
        <time>2022-07-29T15:24:45Z</time>
      </trkpt>
      <trkpt lat="46.40121" lon="5.72567">
        <ele>568.2</ele>
        <time>2022-07-29T15:24:46Z</time>
      </trkpt>
      <trkpt lat="46.40123" lon="5.72568">
        <ele>568.6</ele>
        <time>2022-07-29T15:24:47Z</time>
      </trkpt>
      <trkpt lat="46.40126" lon="5.72569">
        <ele>568.6</ele>
        <time>2022-07-29T15:24:48Z</time>
      </trkpt>
      <trkpt lat="46.40128" lon="5.7257">
        <ele>568.8</ele>
        <time>2022-07-29T15:24:49Z</time>
      </trkpt>
      <trkpt lat="46.40131" lon="5.7257">
        <ele>569.2</ele>
        <time>2022-07-29T15:24:50Z</time>
      </trkpt>
      <trkpt lat="46.40133" lon="5.72572">
        <ele>569.2</ele>
        <time>2022-07-29T15:24:51Z</time>
      </trkpt>
      <trkpt lat="46.40136" lon="5.72573">
        <ele>569.6</ele>
        <time>2022-07-29T15:24:52Z</time>
      </trkpt>
      <trkpt lat="46.40139" lon="5.72574">
        <ele>569.8</ele>
        <time>2022-07-29T15:24:53Z</time>
      </trkpt>
      <trkpt lat="46.40142" lon="5.72575">
        <ele>569.8</ele>
        <time>2022-07-29T15:24:54Z</time>
      </trkpt>
      <trkpt lat="46.40145" lon="5.72576">
        <ele>570.2</ele>
        <time>2022-07-29T15:24:55Z</time>
      </trkpt>
      <trkpt lat="46.40147" lon="5.72576">
        <ele>570.4</ele>
        <time>2022-07-29T15:24:56Z</time>
      </trkpt>
      <trkpt lat="46.4015" lon="5.72577">
        <ele>570.4</ele>
        <time>2022-07-29T15:24:57Z</time>
      </trkpt>
      <trkpt lat="46.40152" lon="5.72578">
        <ele>570.8</ele>
        <time>2022-07-29T15:24:58Z</time>
      </trkpt>
      <trkpt lat="46.40155" lon="5.72579">
        <ele>570.8</ele>
        <time>2022-07-29T15:24:59Z</time>
      </trkpt>
      <trkpt lat="46.40157" lon="5.7258">
        <ele>571.4</ele>
        <time>2022-07-29T15:25:00Z</time>
      </trkpt>
      <trkpt lat="46.4016" lon="5.72581">
        <ele>571.6</ele>
        <time>2022-07-29T15:25:01Z</time>
      </trkpt>
      <trkpt lat="46.40163" lon="5.72582">
        <ele>571.6</ele>
        <time>2022-07-29T15:25:02Z</time>
      </trkpt>
      <trkpt lat="46.40166" lon="5.72583">
        <ele>572</ele>
        <time>2022-07-29T15:25:03Z</time>
      </trkpt>
      <trkpt lat="46.40168" lon="5.72585">
        <ele>572</ele>
        <time>2022-07-29T15:25:04Z</time>
      </trkpt>
      <trkpt lat="46.40171" lon="5.72586">
        <ele>572.2</ele>
        <time>2022-07-29T15:25:05Z</time>
      </trkpt>
      <trkpt lat="46.40174" lon="5.72587">
        <ele>572.2</ele>
        <time>2022-07-29T15:25:06Z</time>
      </trkpt>
      <trkpt lat="46.40177" lon="5.72588">
        <ele>572.6</ele>
        <time>2022-07-29T15:25:07Z</time>
      </trkpt>
      <trkpt lat="46.40179" lon="5.72589">
        <ele>572.6</ele>
        <time>2022-07-29T15:25:08Z</time>
      </trkpt>
      <trkpt lat="46.40182" lon="5.7259">
        <ele>572.8</ele>
        <time>2022-07-29T15:25:09Z</time>
      </trkpt>
      <trkpt lat="46.40184" lon="5.72591">
        <ele>573.2</ele>
        <time>2022-07-29T15:25:10Z</time>
      </trkpt>
      <trkpt lat="46.40187" lon="5.72592">
        <ele>573.4</ele>
        <time>2022-07-29T15:25:11Z</time>
      </trkpt>
      <trkpt lat="46.4019" lon="5.72593">
        <ele>573.4</ele>
        <time>2022-07-29T15:25:12Z</time>
      </trkpt>
      <trkpt lat="46.40193" lon="5.72594">
        <ele>573.8</ele>
        <time>2022-07-29T15:25:13Z</time>
      </trkpt>
      <trkpt lat="46.40196" lon="5.72594">
        <ele>574</ele>
        <time>2022-07-29T15:25:14Z</time>
      </trkpt>
      <trkpt lat="46.40199" lon="5.72595">
        <ele>574</ele>
        <time>2022-07-29T15:25:15Z</time>
      </trkpt>
      <trkpt lat="46.40202" lon="5.72595">
        <ele>574.4</ele>
        <time>2022-07-29T15:25:16Z</time>
      </trkpt>
      <trkpt lat="46.40205" lon="5.72596">
        <ele>574.6</ele>
        <time>2022-07-29T15:25:17Z</time>
      </trkpt>
      <trkpt lat="46.40207" lon="5.72597">
        <ele>574.6</ele>
        <time>2022-07-29T15:25:18Z</time>
      </trkpt>
      <trkpt lat="46.4021" lon="5.72598">
        <ele>575</ele>
        <time>2022-07-29T15:25:19Z</time>
      </trkpt>
      <trkpt lat="46.40212" lon="5.72598">
        <ele>575.2</ele>
        <time>2022-07-29T15:25:20Z</time>
      </trkpt>
      <trkpt lat="46.40215" lon="5.72599">
        <ele>575.2</ele>
        <time>2022-07-29T15:25:21Z</time>
      </trkpt>
      <trkpt lat="46.40217" lon="5.72599">
        <ele>575.6</ele>
        <time>2022-07-29T15:25:22Z</time>
      </trkpt>
      <trkpt lat="46.4022" lon="5.72599">
        <ele>575.6</ele>
        <time>2022-07-29T15:25:23Z</time>
      </trkpt>
      <trkpt lat="46.40223" lon="5.726">
        <ele>575.8</ele>
        <time>2022-07-29T15:25:24Z</time>
      </trkpt>
      <trkpt lat="46.40225" lon="5.72601">
        <ele>575.8</ele>
        <time>2022-07-29T15:25:25Z</time>
      </trkpt>
      <trkpt lat="46.40228" lon="5.72601">
        <ele>576.2</ele>
        <time>2022-07-29T15:25:26Z</time>
      </trkpt>
      <trkpt lat="46.40231" lon="5.72602">
        <ele>576.2</ele>
        <time>2022-07-29T15:25:27Z</time>
      </trkpt>
      <trkpt lat="46.40233" lon="5.72602">
        <ele>576.4</ele>
        <time>2022-07-29T15:25:28Z</time>
      </trkpt>
      <trkpt lat="46.40236" lon="5.72603">
        <ele>576.4</ele>
        <time>2022-07-29T15:25:29Z</time>
      </trkpt>
      <trkpt lat="46.40239" lon="5.72604">
        <ele>576.8</ele>
        <time>2022-07-29T15:25:30Z</time>
      </trkpt>
      <trkpt lat="46.40242" lon="5.72604">
        <ele>576.8</ele>
        <time>2022-07-29T15:25:31Z</time>
      </trkpt>
      <trkpt lat="46.40244" lon="5.72605">
        <ele>577.2</ele>
        <time>2022-07-29T15:25:32Z</time>
      </trkpt>
      <trkpt lat="46.40247" lon="5.72605">
        <ele>577.6</ele>
        <time>2022-07-29T15:25:33Z</time>
      </trkpt>
      <trkpt lat="46.4025" lon="5.72606">
        <ele>578</ele>
        <time>2022-07-29T15:25:34Z</time>
      </trkpt>
      <trkpt lat="46.40253" lon="5.72606">
        <ele>578</ele>
        <time>2022-07-29T15:25:35Z</time>
      </trkpt>
      <trkpt lat="46.40255" lon="5.72607">
        <ele>578.2</ele>
        <time>2022-07-29T15:25:36Z</time>
      </trkpt>
      <trkpt lat="46.40258" lon="5.72608">
        <ele>578.2</ele>
        <time>2022-07-29T15:25:37Z</time>
      </trkpt>
      <trkpt lat="46.40261" lon="5.72608">
        <ele>578.6</ele>
        <time>2022-07-29T15:25:38Z</time>
      </trkpt>
      <trkpt lat="46.40264" lon="5.72608">
        <ele>578.8</ele>
        <time>2022-07-29T15:25:39Z</time>
      </trkpt>
      <trkpt lat="46.40266" lon="5.72609">
        <ele>578.8</ele>
        <time>2022-07-29T15:25:40Z</time>
      </trkpt>
      <trkpt lat="46.40269" lon="5.72609">
        <ele>579.2</ele>
        <time>2022-07-29T15:25:41Z</time>
      </trkpt>
      <trkpt lat="46.40271" lon="5.72609">
        <ele>579.4</ele>
        <time>2022-07-29T15:25:42Z</time>
      </trkpt>
      <trkpt lat="46.40274" lon="5.7261">
        <ele>579.6</ele>
        <time>2022-07-29T15:25:43Z</time>
      </trkpt>
      <trkpt lat="46.40276" lon="5.7261">
        <ele>579.6</ele>
        <time>2022-07-29T15:25:44Z</time>
      </trkpt>
      <trkpt lat="46.40279" lon="5.72611">
        <ele>579.8</ele>
        <time>2022-07-29T15:25:45Z</time>
      </trkpt>
      <trkpt lat="46.40282" lon="5.72611">
        <ele>580.4</ele>
        <time>2022-07-29T15:25:46Z</time>
      </trkpt>
      <trkpt lat="46.40285" lon="5.72612">
        <ele>580.4</ele>
        <time>2022-07-29T15:25:47Z</time>
      </trkpt>
      <trkpt lat="46.40288" lon="5.72612">
        <ele>580.4</ele>
        <time>2022-07-29T15:25:48Z</time>
      </trkpt>
      <trkpt lat="46.4029" lon="5.72612">
        <ele>580.6</ele>
        <time>2022-07-29T15:25:49Z</time>
      </trkpt>
      <trkpt lat="46.40293" lon="5.72612">
        <ele>580.6</ele>
        <time>2022-07-29T15:25:50Z</time>
      </trkpt>
      <trkpt lat="46.40296" lon="5.72613">
        <ele>581</ele>
        <time>2022-07-29T15:25:51Z</time>
      </trkpt>
      <trkpt lat="46.40298" lon="5.72613">
        <ele>581.2</ele>
        <time>2022-07-29T15:25:52Z</time>
      </trkpt>
      <trkpt lat="46.40301" lon="5.72613">
        <ele>581.4</ele>
        <time>2022-07-29T15:25:53Z</time>
      </trkpt>
      <trkpt lat="46.40303" lon="5.72613">
        <ele>581.8</ele>
        <time>2022-07-29T15:25:54Z</time>
      </trkpt>
      <trkpt lat="46.40306" lon="5.72614">
        <ele>581.8</ele>
        <time>2022-07-29T15:25:55Z</time>
      </trkpt>
      <trkpt lat="46.40308" lon="5.72615">
        <ele>582.2</ele>
        <time>2022-07-29T15:25:56Z</time>
      </trkpt>
      <trkpt lat="46.4031" lon="5.72615">
        <ele>582.2</ele>
        <time>2022-07-29T15:25:57Z</time>
      </trkpt>
      <trkpt lat="46.40313" lon="5.72616">
        <ele>582.4</ele>
        <time>2022-07-29T15:25:58Z</time>
      </trkpt>
      <trkpt lat="46.40315" lon="5.72616">
        <ele>582.4</ele>
        <time>2022-07-29T15:25:59Z</time>
      </trkpt>
      <trkpt lat="46.40317" lon="5.72616">
        <ele>582.8</ele>
        <time>2022-07-29T15:26:00Z</time>
      </trkpt>
      <trkpt lat="46.4032" lon="5.72616">
        <ele>583</ele>
        <time>2022-07-29T15:26:01Z</time>
      </trkpt>
      <trkpt lat="46.40322" lon="5.72616">
        <ele>583</ele>
        <time>2022-07-29T15:26:02Z</time>
      </trkpt>
      <trkpt lat="46.40325" lon="5.72616">
        <ele>583.4</ele>
        <time>2022-07-29T15:26:03Z</time>
      </trkpt>
      <trkpt lat="46.40327" lon="5.72616">
        <ele>583.4</ele>
        <time>2022-07-29T15:26:04Z</time>
      </trkpt>
      <trkpt lat="46.40329" lon="5.72616">
        <ele>583.6</ele>
        <time>2022-07-29T15:26:05Z</time>
      </trkpt>
      <trkpt lat="46.40332" lon="5.72617">
        <ele>583.8</ele>
        <time>2022-07-29T15:26:06Z</time>
      </trkpt>
      <trkpt lat="46.40334" lon="5.72617">
        <ele>583.8</ele>
        <time>2022-07-29T15:26:07Z</time>
      </trkpt>
      <trkpt lat="46.40336" lon="5.72617">
        <ele>584.2</ele>
        <time>2022-07-29T15:26:08Z</time>
      </trkpt>
      <trkpt lat="46.40339" lon="5.72617">
        <ele>584.2</ele>
        <time>2022-07-29T15:26:09Z</time>
      </trkpt>
      <trkpt lat="46.40341" lon="5.72617">
        <ele>584.4</ele>
        <time>2022-07-29T15:26:10Z</time>
      </trkpt>
      <trkpt lat="46.40344" lon="5.72617">
        <ele>584.4</ele>
        <time>2022-07-29T15:26:11Z</time>
      </trkpt>
      <trkpt lat="46.40346" lon="5.72617">
        <ele>584.8</ele>
        <time>2022-07-29T15:26:12Z</time>
      </trkpt>
      <trkpt lat="46.40348" lon="5.72616">
        <ele>585</ele>
        <time>2022-07-29T15:26:13Z</time>
      </trkpt>
      <trkpt lat="46.4035" lon="5.72616">
        <ele>585</ele>
        <time>2022-07-29T15:26:14Z</time>
      </trkpt>
      <trkpt lat="46.40353" lon="5.72617">
        <ele>585.4</ele>
        <time>2022-07-29T15:26:15Z</time>
      </trkpt>
      <trkpt lat="46.40355" lon="5.72617">
        <ele>585.4</ele>
        <time>2022-07-29T15:26:16Z</time>
      </trkpt>
      <trkpt lat="46.40357" lon="5.72617">
        <ele>585.8</ele>
        <time>2022-07-29T15:26:17Z</time>
      </trkpt>
      <trkpt lat="46.4036" lon="5.72618">
        <ele>585.8</ele>
        <time>2022-07-29T15:26:18Z</time>
      </trkpt>
      <trkpt lat="46.40362" lon="5.72619">
        <ele>586.2</ele>
        <time>2022-07-29T15:26:19Z</time>
      </trkpt>
      <trkpt lat="46.40365" lon="5.72619">
        <ele>586.2</ele>
        <time>2022-07-29T15:26:20Z</time>
      </trkpt>
      <trkpt lat="46.40367" lon="5.7262">
        <ele>586.4</ele>
        <time>2022-07-29T15:26:21Z</time>
      </trkpt>
      <trkpt lat="46.40369" lon="5.7262">
        <ele>586.4</ele>
        <time>2022-07-29T15:26:22Z</time>
      </trkpt>
      <trkpt lat="46.40371" lon="5.72621">
        <ele>586.8</ele>
        <time>2022-07-29T15:26:23Z</time>
      </trkpt>
      <trkpt lat="46.40374" lon="5.72621">
        <ele>586.8</ele>
        <time>2022-07-29T15:26:24Z</time>
      </trkpt>
      <trkpt lat="46.40376" lon="5.72621">
        <ele>587.2</ele>
        <time>2022-07-29T15:26:25Z</time>
      </trkpt>
      <trkpt lat="46.40379" lon="5.72621">
        <ele>587.2</ele>
        <time>2022-07-29T15:26:26Z</time>
      </trkpt>
      <trkpt lat="46.40381" lon="5.72622">
        <ele>587.6</ele>
        <time>2022-07-29T15:26:27Z</time>
      </trkpt>
      <trkpt lat="46.40384" lon="5.72622">
        <ele>587.8</ele>
        <time>2022-07-29T15:26:28Z</time>
      </trkpt>
      <trkpt lat="46.40386" lon="5.72623">
        <ele>588</ele>
        <time>2022-07-29T15:26:29Z</time>
      </trkpt>
      <trkpt lat="46.40388" lon="5.72623">
        <ele>588.2</ele>
        <time>2022-07-29T15:26:30Z</time>
      </trkpt>
      <trkpt lat="46.4039" lon="5.72624">
        <ele>588.2</ele>
        <time>2022-07-29T15:26:31Z</time>
      </trkpt>
      <trkpt lat="46.40393" lon="5.72625">
        <ele>588.6</ele>
        <time>2022-07-29T15:26:32Z</time>
      </trkpt>
      <trkpt lat="46.40395" lon="5.72625">
        <ele>588.8</ele>
        <time>2022-07-29T15:26:33Z</time>
      </trkpt>
      <trkpt lat="46.40397" lon="5.72625">
        <ele>588.8</ele>
        <time>2022-07-29T15:26:34Z</time>
      </trkpt>
      <trkpt lat="46.404" lon="5.72626">
        <ele>589.2</ele>
        <time>2022-07-29T15:26:35Z</time>
      </trkpt>
      <trkpt lat="46.40402" lon="5.72627">
        <ele>589.4</ele>
        <time>2022-07-29T15:26:36Z</time>
      </trkpt>
      <trkpt lat="46.40404" lon="5.72628">
        <ele>589.4</ele>
        <time>2022-07-29T15:26:37Z</time>
      </trkpt>
      <trkpt lat="46.40407" lon="5.72628">
        <ele>589.8</ele>
        <time>2022-07-29T15:26:38Z</time>
      </trkpt>
      <trkpt lat="46.40409" lon="5.72629">
        <ele>589.8</ele>
        <time>2022-07-29T15:26:39Z</time>
      </trkpt>
      <trkpt lat="46.40412" lon="5.72629">
        <ele>590</ele>
        <time>2022-07-29T15:26:40Z</time>
      </trkpt>
      <trkpt lat="46.40415" lon="5.7263">
        <ele>590.2</ele>
        <time>2022-07-29T15:26:41Z</time>
      </trkpt>
      <trkpt lat="46.40417" lon="5.7263">
        <ele>590.2</ele>
        <time>2022-07-29T15:26:42Z</time>
      </trkpt>
      <trkpt lat="46.4042" lon="5.72631">
        <ele>590.6</ele>
        <time>2022-07-29T15:26:43Z</time>
      </trkpt>
      <trkpt lat="46.40423" lon="5.72631">
        <ele>590.8</ele>
        <time>2022-07-29T15:26:44Z</time>
      </trkpt>
      <trkpt lat="46.40426" lon="5.72632">
        <ele>591</ele>
        <time>2022-07-29T15:26:45Z</time>
      </trkpt>
      <trkpt lat="46.40429" lon="5.72632">
        <ele>591.2</ele>
        <time>2022-07-29T15:26:46Z</time>
      </trkpt>
      <trkpt lat="46.40431" lon="5.72632">
        <ele>591.4</ele>
        <time>2022-07-29T15:26:47Z</time>
      </trkpt>
      <trkpt lat="46.40434" lon="5.72632">
        <ele>591.4</ele>
        <time>2022-07-29T15:26:48Z</time>
      </trkpt>
      <trkpt lat="46.40436" lon="5.72632">
        <ele>591.8</ele>
        <time>2022-07-29T15:26:49Z</time>
      </trkpt>
      <trkpt lat="46.40439" lon="5.72632">
        <ele>592.2</ele>
        <time>2022-07-29T15:26:50Z</time>
      </trkpt>
      <trkpt lat="46.40442" lon="5.72632">
        <ele>592.2</ele>
        <time>2022-07-29T15:26:51Z</time>
      </trkpt>
      <trkpt lat="46.40444" lon="5.72632">
        <ele>592.4</ele>
        <time>2022-07-29T15:26:52Z</time>
      </trkpt>
      <trkpt lat="46.40447" lon="5.72633">
        <ele>592.4</ele>
        <time>2022-07-29T15:26:53Z</time>
      </trkpt>
      <trkpt lat="46.4045" lon="5.72633">
        <ele>592.8</ele>
        <time>2022-07-29T15:26:54Z</time>
      </trkpt>
      <trkpt lat="46.40453" lon="5.72634">
        <ele>592.8</ele>
        <time>2022-07-29T15:26:55Z</time>
      </trkpt>
      <trkpt lat="46.40455" lon="5.72634">
        <ele>593.2</ele>
        <time>2022-07-29T15:26:56Z</time>
      </trkpt>
      <trkpt lat="46.40458" lon="5.72635">
        <ele>593.4</ele>
        <time>2022-07-29T15:26:57Z</time>
      </trkpt>
      <trkpt lat="46.4046" lon="5.72636">
        <ele>593.4</ele>
        <time>2022-07-29T15:26:58Z</time>
      </trkpt>
      <trkpt lat="46.40462" lon="5.72636">
        <ele>593.8</ele>
        <time>2022-07-29T15:26:59Z</time>
      </trkpt>
      <trkpt lat="46.40465" lon="5.72637">
        <ele>594.2</ele>
        <time>2022-07-29T15:27:00Z</time>
      </trkpt>
      <trkpt lat="46.40467" lon="5.72638">
        <ele>594.2</ele>
        <time>2022-07-29T15:27:01Z</time>
      </trkpt>
      <trkpt lat="46.4047" lon="5.72639">
        <ele>594.4</ele>
        <time>2022-07-29T15:27:02Z</time>
      </trkpt>
      <trkpt lat="46.40473" lon="5.72639">
        <ele>594.8</ele>
        <time>2022-07-29T15:27:03Z</time>
      </trkpt>
      <trkpt lat="46.40475" lon="5.7264">
        <ele>594.8</ele>
        <time>2022-07-29T15:27:04Z</time>
      </trkpt>
      <trkpt lat="46.40478" lon="5.72641">
        <ele>595</ele>
        <time>2022-07-29T15:27:05Z</time>
      </trkpt>
      <trkpt lat="46.4048" lon="5.72642">
        <ele>595.2</ele>
        <time>2022-07-29T15:27:06Z</time>
      </trkpt>
      <trkpt lat="46.40482" lon="5.72642">
        <ele>595.4</ele>
        <time>2022-07-29T15:27:07Z</time>
      </trkpt>
      <trkpt lat="46.40484" lon="5.72643">
        <ele>595.6</ele>
        <time>2022-07-29T15:27:08Z</time>
      </trkpt>
      <trkpt lat="46.40487" lon="5.72643">
        <ele>596</ele>
        <time>2022-07-29T15:27:09Z</time>
      </trkpt>
      <trkpt lat="46.40489" lon="5.72644">
        <ele>596</ele>
        <time>2022-07-29T15:27:10Z</time>
      </trkpt>
      <trkpt lat="46.40491" lon="5.72644">
        <ele>596.2</ele>
        <time>2022-07-29T15:27:11Z</time>
      </trkpt>
      <trkpt lat="46.40494" lon="5.72645">
        <ele>596.2</ele>
        <time>2022-07-29T15:27:12Z</time>
      </trkpt>
      <trkpt lat="46.40496" lon="5.72645">
        <ele>596.6</ele>
        <time>2022-07-29T15:27:13Z</time>
      </trkpt>
      <trkpt lat="46.40498" lon="5.72646">
        <ele>596.6</ele>
        <time>2022-07-29T15:27:14Z</time>
      </trkpt>
      <trkpt lat="46.405" lon="5.72646">
        <ele>597</ele>
        <time>2022-07-29T15:27:15Z</time>
      </trkpt>
      <trkpt lat="46.40502" lon="5.72647">
        <ele>597</ele>
        <time>2022-07-29T15:27:16Z</time>
      </trkpt>
      <trkpt lat="46.40503" lon="5.72648">
        <ele>597.4</ele>
        <time>2022-07-29T15:27:17Z</time>
      </trkpt>
      <trkpt lat="46.40504" lon="5.72649">
        <ele>597.6</ele>
        <time>2022-07-29T15:27:18Z</time>
      </trkpt>
      <trkpt lat="46.40506" lon="5.7265">
        <ele>597.6</ele>
        <time>2022-07-29T15:27:19Z</time>
      </trkpt>
      <trkpt lat="46.40508" lon="5.7265">
        <ele>598</ele>
        <time>2022-07-29T15:27:20Z</time>
      </trkpt>
      <trkpt lat="46.4051" lon="5.72651">
        <ele>598</ele>
        <time>2022-07-29T15:27:21Z</time>
      </trkpt>
      <trkpt lat="46.40512" lon="5.72651">
        <ele>598.4</ele>
        <time>2022-07-29T15:27:22Z</time>
      </trkpt>
      <trkpt lat="46.40515" lon="5.72651">
        <ele>598.4</ele>
        <time>2022-07-29T15:27:23Z</time>
      </trkpt>
      <trkpt lat="46.40517" lon="5.72651">
        <ele>598.8</ele>
        <time>2022-07-29T15:27:24Z</time>
      </trkpt>
      <trkpt lat="46.40519" lon="5.72652">
        <ele>598.8</ele>
        <time>2022-07-29T15:27:25Z</time>
      </trkpt>
      <trkpt lat="46.40521" lon="5.72653">
        <ele>599.2</ele>
        <time>2022-07-29T15:27:26Z</time>
      </trkpt>
      <trkpt lat="46.40523" lon="5.72654">
        <ele>599.2</ele>
        <time>2022-07-29T15:27:27Z</time>
      </trkpt>
      <trkpt lat="46.40526" lon="5.72655">
        <ele>599.4</ele>
        <time>2022-07-29T15:27:28Z</time>
      </trkpt>
      <trkpt lat="46.40529" lon="5.72656">
        <ele>599.8</ele>
        <time>2022-07-29T15:27:29Z</time>
      </trkpt>
      <trkpt lat="46.40532" lon="5.72657">
        <ele>600</ele>
        <time>2022-07-29T15:27:30Z</time>
      </trkpt>
      <trkpt lat="46.40534" lon="5.72658">
        <ele>600.2</ele>
        <time>2022-07-29T15:27:31Z</time>
      </trkpt>
      <trkpt lat="46.40537" lon="5.72659">
        <ele>600.4</ele>
        <time>2022-07-29T15:27:32Z</time>
      </trkpt>
      <trkpt lat="46.4054" lon="5.7266">
        <ele>600.4</ele>
        <time>2022-07-29T15:27:33Z</time>
      </trkpt>
      <trkpt lat="46.40543" lon="5.72661">
        <ele>601</ele>
        <time>2022-07-29T15:27:34Z</time>
      </trkpt>
      <trkpt lat="46.40545" lon="5.72661">
        <ele>601.2</ele>
        <time>2022-07-29T15:27:35Z</time>
      </trkpt>
      <trkpt lat="46.40548" lon="5.72662">
        <ele>601.2</ele>
        <time>2022-07-29T15:27:36Z</time>
      </trkpt>
      <trkpt lat="46.40551" lon="5.72663">
        <ele>601.4</ele>
        <time>2022-07-29T15:27:37Z</time>
      </trkpt>
      <trkpt lat="46.40554" lon="5.72664">
        <ele>601.6</ele>
        <time>2022-07-29T15:27:38Z</time>
      </trkpt>
      <trkpt lat="46.40557" lon="5.72665">
        <ele>601.8</ele>
        <time>2022-07-29T15:27:39Z</time>
      </trkpt>
      <trkpt lat="46.40561" lon="5.72665">
        <ele>602</ele>
        <time>2022-07-29T15:27:40Z</time>
      </trkpt>
      <trkpt lat="46.40564" lon="5.72666">
        <ele>602</ele>
        <time>2022-07-29T15:27:41Z</time>
      </trkpt>
      <trkpt lat="46.40567" lon="5.72666">
        <ele>602.4</ele>
        <time>2022-07-29T15:27:42Z</time>
      </trkpt>
      <trkpt lat="46.4057" lon="5.72667">
        <ele>602.6</ele>
        <time>2022-07-29T15:27:43Z</time>
      </trkpt>
      <trkpt lat="46.40573" lon="5.72667">
        <ele>602.6</ele>
        <time>2022-07-29T15:27:44Z</time>
      </trkpt>
      <trkpt lat="46.40576" lon="5.72668">
        <ele>603</ele>
        <time>2022-07-29T15:27:45Z</time>
      </trkpt>
      <trkpt lat="46.40578" lon="5.72669">
        <ele>603.4</ele>
        <time>2022-07-29T15:27:46Z</time>
      </trkpt>
      <trkpt lat="46.4058" lon="5.72671">
        <ele>603.4</ele>
        <time>2022-07-29T15:27:47Z</time>
      </trkpt>
      <trkpt lat="46.40583" lon="5.72672">
        <ele>603.8</ele>
        <time>2022-07-29T15:27:48Z</time>
      </trkpt>
      <trkpt lat="46.40585" lon="5.72674">
        <ele>604</ele>
        <time>2022-07-29T15:27:49Z</time>
      </trkpt>
      <trkpt lat="46.40588" lon="5.72675">
        <ele>604.2</ele>
        <time>2022-07-29T15:27:50Z</time>
      </trkpt>
      <trkpt lat="46.4059" lon="5.72676">
        <ele>604.4</ele>
        <time>2022-07-29T15:27:51Z</time>
      </trkpt>
      <trkpt lat="46.40593" lon="5.72677">
        <ele>604.8</ele>
        <time>2022-07-29T15:27:52Z</time>
      </trkpt>
      <trkpt lat="46.40596" lon="5.72678">
        <ele>605</ele>
        <time>2022-07-29T15:27:53Z</time>
      </trkpt>
      <trkpt lat="46.40598" lon="5.72679">
        <ele>605.2</ele>
        <time>2022-07-29T15:27:54Z</time>
      </trkpt>
      <trkpt lat="46.40601" lon="5.72681">
        <ele>605.4</ele>
        <time>2022-07-29T15:27:55Z</time>
      </trkpt>
      <trkpt lat="46.40603" lon="5.72682">
        <ele>605.6</ele>
        <time>2022-07-29T15:27:56Z</time>
      </trkpt>
      <trkpt lat="46.40606" lon="5.72683">
        <ele>606.2</ele>
        <time>2022-07-29T15:27:57Z</time>
      </trkpt>
      <trkpt lat="46.40609" lon="5.72684">
        <ele>606.2</ele>
        <time>2022-07-29T15:27:58Z</time>
      </trkpt>
      <trkpt lat="46.40611" lon="5.72685">
        <ele>606.6</ele>
        <time>2022-07-29T15:27:59Z</time>
      </trkpt>
      <trkpt lat="46.40614" lon="5.72686">
        <ele>606.8</ele>
        <time>2022-07-29T15:28:00Z</time>
      </trkpt>
      <trkpt lat="46.40616" lon="5.72688">
        <ele>607.2</ele>
        <time>2022-07-29T15:28:01Z</time>
      </trkpt>
      <trkpt lat="46.40618" lon="5.72689">
        <ele>607.4</ele>
        <time>2022-07-29T15:28:02Z</time>
      </trkpt>
      <trkpt lat="46.40621" lon="5.7269">
        <ele>607.8</ele>
        <time>2022-07-29T15:28:03Z</time>
      </trkpt>
      <trkpt lat="46.40624" lon="5.7269">
        <ele>608</ele>
        <time>2022-07-29T15:28:04Z</time>
      </trkpt>
      <trkpt lat="46.40626" lon="5.72691">
        <ele>608.4</ele>
        <time>2022-07-29T15:28:05Z</time>
      </trkpt>
      <trkpt lat="46.40629" lon="5.72692">
        <ele>608.6</ele>
        <time>2022-07-29T15:28:06Z</time>
      </trkpt>
      <trkpt lat="46.40632" lon="5.72693">
        <ele>608.6</ele>
        <time>2022-07-29T15:28:07Z</time>
      </trkpt>
      <trkpt lat="46.40635" lon="5.72694">
        <ele>609</ele>
        <time>2022-07-29T15:28:08Z</time>
      </trkpt>
      <trkpt lat="46.40637" lon="5.72695">
        <ele>609.2</ele>
        <time>2022-07-29T15:28:09Z</time>
      </trkpt>
      <trkpt lat="46.40639" lon="5.72696">
        <ele>609.2</ele>
        <time>2022-07-29T15:28:10Z</time>
      </trkpt>
      <trkpt lat="46.40642" lon="5.72697">
        <ele>609.6</ele>
        <time>2022-07-29T15:28:11Z</time>
      </trkpt>
      <trkpt lat="46.40644" lon="5.72697">
        <ele>610</ele>
        <time>2022-07-29T15:28:12Z</time>
      </trkpt>
      <trkpt lat="46.40646" lon="5.72698">
        <ele>610</ele>
        <time>2022-07-29T15:28:13Z</time>
      </trkpt>
      <trkpt lat="46.40649" lon="5.72699">
        <ele>610.2</ele>
        <time>2022-07-29T15:28:14Z</time>
      </trkpt>
      <trkpt lat="46.40651" lon="5.72699">
        <ele>610.6</ele>
        <time>2022-07-29T15:28:15Z</time>
      </trkpt>
      <trkpt lat="46.40653" lon="5.727">
        <ele>610.6</ele>
        <time>2022-07-29T15:28:16Z</time>
      </trkpt>
      <trkpt lat="46.40656" lon="5.72701">
        <ele>611</ele>
        <time>2022-07-29T15:28:17Z</time>
      </trkpt>
      <trkpt lat="46.40658" lon="5.72701">
        <ele>611.2</ele>
        <time>2022-07-29T15:28:18Z</time>
      </trkpt>
      <trkpt lat="46.40661" lon="5.72701">
        <ele>611.6</ele>
        <time>2022-07-29T15:28:19Z</time>
      </trkpt>
      <trkpt lat="46.40663" lon="5.72701">
        <ele>611.8</ele>
        <time>2022-07-29T15:28:20Z</time>
      </trkpt>
      <trkpt lat="46.40666" lon="5.72701">
        <ele>612</ele>
        <time>2022-07-29T15:28:21Z</time>
      </trkpt>
      <trkpt lat="46.40669" lon="5.72702">
        <ele>612</ele>
        <time>2022-07-29T15:28:22Z</time>
      </trkpt>
      <trkpt lat="46.40671" lon="5.72702">
        <ele>612.4</ele>
        <time>2022-07-29T15:28:23Z</time>
      </trkpt>
      <trkpt lat="46.40674" lon="5.72702">
        <ele>612.6</ele>
        <time>2022-07-29T15:28:24Z</time>
      </trkpt>
      <trkpt lat="46.40676" lon="5.72702">
        <ele>612.8</ele>
        <time>2022-07-29T15:28:25Z</time>
      </trkpt>
      <trkpt lat="46.40679" lon="5.72702">
        <ele>613.2</ele>
        <time>2022-07-29T15:28:26Z</time>
      </trkpt>
      <trkpt lat="46.40679" lon="5.72702">
        <ele>613.2</ele>
        <time>2022-07-29T15:28:27Z</time>
      </trkpt>
      <trkpt lat="46.40681" lon="5.72701">
        <ele>613.6</ele>
        <time>2022-07-29T15:28:28Z</time>
      </trkpt>
      <trkpt lat="46.40683" lon="5.72701">
        <ele>613.8</ele>
        <time>2022-07-29T15:28:29Z</time>
      </trkpt>
      <trkpt lat="46.40686" lon="5.727">
        <ele>613.8</ele>
        <time>2022-07-29T15:28:30Z</time>
      </trkpt>
      <trkpt lat="46.40688" lon="5.727">
        <ele>614.2</ele>
        <time>2022-07-29T15:28:31Z</time>
      </trkpt>
      <trkpt lat="46.4069" lon="5.72699">
        <ele>614.2</ele>
        <time>2022-07-29T15:28:32Z</time>
      </trkpt>
      <trkpt lat="46.40693" lon="5.72698">
        <ele>614.4</ele>
        <time>2022-07-29T15:28:33Z</time>
      </trkpt>
      <trkpt lat="46.40695" lon="5.72697">
        <ele>614.6</ele>
        <time>2022-07-29T15:28:34Z</time>
      </trkpt>
      <trkpt lat="46.40697" lon="5.72697">
        <ele>614.6</ele>
        <time>2022-07-29T15:28:35Z</time>
      </trkpt>
      <trkpt lat="46.40702" lon="5.72695">
        <ele>615</ele>
        <time>2022-07-29T15:28:36Z</time>
      </trkpt>
      <trkpt lat="46.40705" lon="5.72695">
        <ele>615.2</ele>
        <time>2022-07-29T15:28:37Z</time>
      </trkpt>
      <trkpt lat="46.40707" lon="5.72695">
        <ele>615.2</ele>
        <time>2022-07-29T15:28:38Z</time>
      </trkpt>
      <trkpt lat="46.40709" lon="5.72694">
        <ele>615.6</ele>
        <time>2022-07-29T15:28:39Z</time>
      </trkpt>
      <trkpt lat="46.40712" lon="5.72694">
        <ele>615.8</ele>
        <time>2022-07-29T15:28:40Z</time>
      </trkpt>
      <trkpt lat="46.40714" lon="5.72693">
        <ele>616</ele>
        <time>2022-07-29T15:28:41Z</time>
      </trkpt>
      <trkpt lat="46.40717" lon="5.72692">
        <ele>616</ele>
        <time>2022-07-29T15:28:42Z</time>
      </trkpt>
      <trkpt lat="46.40719" lon="5.72691">
        <ele>616.4</ele>
        <time>2022-07-29T15:28:43Z</time>
      </trkpt>
      <trkpt lat="46.40722" lon="5.7269">
        <ele>616.6</ele>
        <time>2022-07-29T15:28:44Z</time>
      </trkpt>
      <trkpt lat="46.40724" lon="5.72689">
        <ele>616.6</ele>
        <time>2022-07-29T15:28:45Z</time>
      </trkpt>
      <trkpt lat="46.40726" lon="5.72689">
        <ele>617</ele>
        <time>2022-07-29T15:28:46Z</time>
      </trkpt>
      <trkpt lat="46.40728" lon="5.72688">
        <ele>617</ele>
        <time>2022-07-29T15:28:47Z</time>
      </trkpt>
      <trkpt lat="46.40731" lon="5.72687">
        <ele>617.2</ele>
        <time>2022-07-29T15:28:48Z</time>
      </trkpt>
      <trkpt lat="46.40733" lon="5.72687">
        <ele>617.2</ele>
        <time>2022-07-29T15:28:49Z</time>
      </trkpt>
      <trkpt lat="46.40736" lon="5.72686">
        <ele>617.6</ele>
        <time>2022-07-29T15:28:50Z</time>
      </trkpt>
      <trkpt lat="46.40738" lon="5.72685">
        <ele>617.6</ele>
        <time>2022-07-29T15:28:51Z</time>
      </trkpt>
      <trkpt lat="46.40741" lon="5.72684">
        <ele>617.8</ele>
        <time>2022-07-29T15:28:52Z</time>
      </trkpt>
      <trkpt lat="46.40743" lon="5.72683">
        <ele>617.8</ele>
        <time>2022-07-29T15:28:53Z</time>
      </trkpt>
      <trkpt lat="46.40746" lon="5.72682">
        <ele>618.2</ele>
        <time>2022-07-29T15:28:54Z</time>
      </trkpt>
      <trkpt lat="46.40748" lon="5.72682">
        <ele>618.2</ele>
        <time>2022-07-29T15:28:55Z</time>
      </trkpt>
      <trkpt lat="46.40751" lon="5.72681">
        <ele>618.6</ele>
        <time>2022-07-29T15:28:56Z</time>
      </trkpt>
      <trkpt lat="46.40753" lon="5.72681">
        <ele>618.6</ele>
        <time>2022-07-29T15:28:57Z</time>
      </trkpt>
      <trkpt lat="46.40756" lon="5.7268">
        <ele>618.8</ele>
        <time>2022-07-29T15:28:58Z</time>
      </trkpt>
      <trkpt lat="46.40759" lon="5.72679">
        <ele>618.8</ele>
        <time>2022-07-29T15:28:59Z</time>
      </trkpt>
      <trkpt lat="46.40761" lon="5.72679">
        <ele>619.2</ele>
        <time>2022-07-29T15:29:00Z</time>
      </trkpt>
      <trkpt lat="46.40764" lon="5.72678">
        <ele>619.2</ele>
        <time>2022-07-29T15:29:01Z</time>
      </trkpt>
      <trkpt lat="46.40766" lon="5.72677">
        <ele>619.4</ele>
        <time>2022-07-29T15:29:02Z</time>
      </trkpt>
      <trkpt lat="46.40769" lon="5.72676">
        <ele>619.4</ele>
        <time>2022-07-29T15:29:03Z</time>
      </trkpt>
      <trkpt lat="46.40772" lon="5.72676">
        <ele>619.6</ele>
        <time>2022-07-29T15:29:04Z</time>
      </trkpt>
      <trkpt lat="46.40774" lon="5.72675">
        <ele>619.6</ele>
        <time>2022-07-29T15:29:05Z</time>
      </trkpt>
      <trkpt lat="46.40777" lon="5.72674">
        <ele>620</ele>
        <time>2022-07-29T15:29:06Z</time>
      </trkpt>
      <trkpt lat="46.4078" lon="5.72673">
        <ele>620</ele>
        <time>2022-07-29T15:29:07Z</time>
      </trkpt>
      <trkpt lat="46.40782" lon="5.72673">
        <ele>620.4</ele>
        <time>2022-07-29T15:29:08Z</time>
      </trkpt>
      <trkpt lat="46.40785" lon="5.72672">
        <ele>620.4</ele>
        <time>2022-07-29T15:29:09Z</time>
      </trkpt>
      <trkpt lat="46.40787" lon="5.72671">
        <ele>620.8</ele>
        <time>2022-07-29T15:29:10Z</time>
      </trkpt>
      <trkpt lat="46.4079" lon="5.72671">
        <ele>620.8</ele>
        <time>2022-07-29T15:29:11Z</time>
      </trkpt>
      <trkpt lat="46.40793" lon="5.7267">
        <ele>621</ele>
        <time>2022-07-29T15:29:12Z</time>
      </trkpt>
      <trkpt lat="46.40795" lon="5.72669">
        <ele>621</ele>
        <time>2022-07-29T15:29:13Z</time>
      </trkpt>
      <trkpt lat="46.40798" lon="5.72668">
        <ele>621.4</ele>
        <time>2022-07-29T15:29:14Z</time>
      </trkpt>
      <trkpt lat="46.408" lon="5.72667">
        <ele>621.6</ele>
        <time>2022-07-29T15:29:15Z</time>
      </trkpt>
      <trkpt lat="46.40803" lon="5.72667">
        <ele>621.6</ele>
        <time>2022-07-29T15:29:16Z</time>
      </trkpt>
      <trkpt lat="46.40805" lon="5.72666">
        <ele>622</ele>
        <time>2022-07-29T15:29:17Z</time>
      </trkpt>
      <trkpt lat="46.40808" lon="5.72666">
        <ele>622</ele>
        <time>2022-07-29T15:29:18Z</time>
      </trkpt>
      <trkpt lat="46.4081" lon="5.72665">
        <ele>622.4</ele>
        <time>2022-07-29T15:29:19Z</time>
      </trkpt>
      <trkpt lat="46.40812" lon="5.72665">
        <ele>622.4</ele>
        <time>2022-07-29T15:29:20Z</time>
      </trkpt>
      <trkpt lat="46.40814" lon="5.72664">
        <ele>622.8</ele>
        <time>2022-07-29T15:29:21Z</time>
      </trkpt>
      <trkpt lat="46.40817" lon="5.72663">
        <ele>622.8</ele>
        <time>2022-07-29T15:29:22Z</time>
      </trkpt>
      <trkpt lat="46.40819" lon="5.72662">
        <ele>623</ele>
        <time>2022-07-29T15:29:23Z</time>
      </trkpt>
      <trkpt lat="46.40821" lon="5.72661">
        <ele>623.4</ele>
        <time>2022-07-29T15:29:24Z</time>
      </trkpt>
      <trkpt lat="46.40824" lon="5.72661">
        <ele>623.4</ele>
        <time>2022-07-29T15:29:25Z</time>
      </trkpt>
      <trkpt lat="46.40826" lon="5.7266">
        <ele>623.6</ele>
        <time>2022-07-29T15:29:26Z</time>
      </trkpt>
      <trkpt lat="46.40828" lon="5.72659">
        <ele>623.6</ele>
        <time>2022-07-29T15:29:27Z</time>
      </trkpt>
      <trkpt lat="46.40831" lon="5.72658">
        <ele>623.8</ele>
        <time>2022-07-29T15:29:28Z</time>
      </trkpt>
      <trkpt lat="46.40833" lon="5.72658">
        <ele>623.8</ele>
        <time>2022-07-29T15:29:29Z</time>
      </trkpt>
      <trkpt lat="46.40836" lon="5.72657">
        <ele>624.2</ele>
        <time>2022-07-29T15:29:30Z</time>
      </trkpt>
      <trkpt lat="46.40838" lon="5.72656">
        <ele>624.2</ele>
        <time>2022-07-29T15:29:31Z</time>
      </trkpt>
      <trkpt lat="46.4084" lon="5.72656">
        <ele>624.6</ele>
        <time>2022-07-29T15:29:32Z</time>
      </trkpt>
      <trkpt lat="46.40843" lon="5.72655">
        <ele>624.6</ele>
        <time>2022-07-29T15:29:33Z</time>
      </trkpt>
      <trkpt lat="46.40845" lon="5.72654">
        <ele>624.8</ele>
        <time>2022-07-29T15:29:34Z</time>
      </trkpt>
      <trkpt lat="46.40847" lon="5.72653">
        <ele>624.8</ele>
        <time>2022-07-29T15:29:35Z</time>
      </trkpt>
      <trkpt lat="46.4085" lon="5.72653">
        <ele>625.2</ele>
        <time>2022-07-29T15:29:36Z</time>
      </trkpt>
      <trkpt lat="46.40852" lon="5.72653">
        <ele>625.2</ele>
        <time>2022-07-29T15:29:37Z</time>
      </trkpt>
      <trkpt lat="46.40855" lon="5.72652">
        <ele>625.4</ele>
        <time>2022-07-29T15:29:38Z</time>
      </trkpt>
      <trkpt lat="46.40857" lon="5.72651">
        <ele>625.4</ele>
        <time>2022-07-29T15:29:39Z</time>
      </trkpt>
      <trkpt lat="46.40859" lon="5.72651">
        <ele>625.8</ele>
        <time>2022-07-29T15:29:40Z</time>
      </trkpt>
      <trkpt lat="46.40862" lon="5.7265">
        <ele>625.8</ele>
        <time>2022-07-29T15:29:41Z</time>
      </trkpt>
      <trkpt lat="46.40864" lon="5.7265">
        <ele>626.2</ele>
        <time>2022-07-29T15:29:42Z</time>
      </trkpt>
      <trkpt lat="46.40867" lon="5.72649">
        <ele>626.2</ele>
        <time>2022-07-29T15:29:43Z</time>
      </trkpt>
      <trkpt lat="46.40869" lon="5.72649">
        <ele>626.6</ele>
        <time>2022-07-29T15:29:44Z</time>
      </trkpt>
      <trkpt lat="46.40871" lon="5.72648">
        <ele>626.8</ele>
        <time>2022-07-29T15:29:45Z</time>
      </trkpt>
      <trkpt lat="46.40874" lon="5.72648">
        <ele>626.8</ele>
        <time>2022-07-29T15:29:46Z</time>
      </trkpt>
      <trkpt lat="46.40876" lon="5.72648">
        <ele>627.2</ele>
        <time>2022-07-29T15:29:47Z</time>
      </trkpt>
      <trkpt lat="46.40879" lon="5.72648">
        <ele>627.2</ele>
        <time>2022-07-29T15:29:48Z</time>
      </trkpt>
      <trkpt lat="46.40881" lon="5.72647">
        <ele>627.8</ele>
        <time>2022-07-29T15:29:49Z</time>
      </trkpt>
      <trkpt lat="46.40883" lon="5.72647">
        <ele>627.8</ele>
        <time>2022-07-29T15:29:50Z</time>
      </trkpt>
      <trkpt lat="46.40886" lon="5.72647">
        <ele>628</ele>
        <time>2022-07-29T15:29:51Z</time>
      </trkpt>
      <trkpt lat="46.40888" lon="5.72646">
        <ele>628</ele>
        <time>2022-07-29T15:29:52Z</time>
      </trkpt>
      <trkpt lat="46.40891" lon="5.72646">
        <ele>628.4</ele>
        <time>2022-07-29T15:29:53Z</time>
      </trkpt>
      <trkpt lat="46.40893" lon="5.72645">
        <ele>628.4</ele>
        <time>2022-07-29T15:29:54Z</time>
      </trkpt>
      <trkpt lat="46.40896" lon="5.72645">
        <ele>628.6</ele>
        <time>2022-07-29T15:29:55Z</time>
      </trkpt>
      <trkpt lat="46.40898" lon="5.72645">
        <ele>628.8</ele>
        <time>2022-07-29T15:29:56Z</time>
      </trkpt>
      <trkpt lat="46.409" lon="5.72646">
        <ele>628.8</ele>
        <time>2022-07-29T15:29:57Z</time>
      </trkpt>
      <trkpt lat="46.40903" lon="5.72646">
        <ele>629</ele>
        <time>2022-07-29T15:29:58Z</time>
      </trkpt>
      <trkpt lat="46.40905" lon="5.72647">
        <ele>629.2</ele>
        <time>2022-07-29T15:29:59Z</time>
      </trkpt>
      <trkpt lat="46.40907" lon="5.72647">
        <ele>629.2</ele>
        <time>2022-07-29T15:30:00Z</time>
      </trkpt>
      <trkpt lat="46.4091" lon="5.72647">
        <ele>629.6</ele>
        <time>2022-07-29T15:30:01Z</time>
      </trkpt>
      <trkpt lat="46.40912" lon="5.72647">
        <ele>629.8</ele>
        <time>2022-07-29T15:30:02Z</time>
      </trkpt>
      <trkpt lat="46.40915" lon="5.72647">
        <ele>629.8</ele>
        <time>2022-07-29T15:30:03Z</time>
      </trkpt>
      <trkpt lat="46.40917" lon="5.72647">
        <ele>630.2</ele>
        <time>2022-07-29T15:30:04Z</time>
      </trkpt>
      <trkpt lat="46.40919" lon="5.72647">
        <ele>630.4</ele>
        <time>2022-07-29T15:30:05Z</time>
      </trkpt>
      <trkpt lat="46.40921" lon="5.72648">
        <ele>630.4</ele>
        <time>2022-07-29T15:30:06Z</time>
      </trkpt>
      <trkpt lat="46.40924" lon="5.72648">
        <ele>630.6</ele>
        <time>2022-07-29T15:30:07Z</time>
      </trkpt>
      <trkpt lat="46.40926" lon="5.72648">
        <ele>630.8</ele>
        <time>2022-07-29T15:30:08Z</time>
      </trkpt>
      <trkpt lat="46.40929" lon="5.72648">
        <ele>631.2</ele>
        <time>2022-07-29T15:30:09Z</time>
      </trkpt>
      <trkpt lat="46.40931" lon="5.72648">
        <ele>631.2</ele>
        <time>2022-07-29T15:30:10Z</time>
      </trkpt>
      <trkpt lat="46.40934" lon="5.72649">
        <ele>631.4</ele>
        <time>2022-07-29T15:30:11Z</time>
      </trkpt>
      <trkpt lat="46.40936" lon="5.72649">
        <ele>631.4</ele>
        <time>2022-07-29T15:30:12Z</time>
      </trkpt>
      <trkpt lat="46.40938" lon="5.7265">
        <ele>631.8</ele>
        <time>2022-07-29T15:30:13Z</time>
      </trkpt>
      <trkpt lat="46.40941" lon="5.7265">
        <ele>631.8</ele>
        <time>2022-07-29T15:30:14Z</time>
      </trkpt>
      <trkpt lat="46.40943" lon="5.72651">
        <ele>632</ele>
        <time>2022-07-29T15:30:15Z</time>
      </trkpt>
      <trkpt lat="46.40945" lon="5.72652">
        <ele>632.2</ele>
        <time>2022-07-29T15:30:16Z</time>
      </trkpt>
      <trkpt lat="46.40948" lon="5.72652">
        <ele>632.4</ele>
        <time>2022-07-29T15:30:17Z</time>
      </trkpt>
      <trkpt lat="46.4095" lon="5.72653">
        <ele>632.4</ele>
        <time>2022-07-29T15:30:18Z</time>
      </trkpt>
      <trkpt lat="46.40952" lon="5.72654">
        <ele>632.8</ele>
        <time>2022-07-29T15:30:19Z</time>
      </trkpt>
      <trkpt lat="46.40954" lon="5.72655">
        <ele>632.8</ele>
        <time>2022-07-29T15:30:20Z</time>
      </trkpt>
      <trkpt lat="46.40956" lon="5.72656">
        <ele>633.2</ele>
        <time>2022-07-29T15:30:21Z</time>
      </trkpt>
      <trkpt lat="46.40959" lon="5.72657">
        <ele>633.2</ele>
        <time>2022-07-29T15:30:22Z</time>
      </trkpt>
      <trkpt lat="46.40961" lon="5.72658">
        <ele>633.6</ele>
        <time>2022-07-29T15:30:23Z</time>
      </trkpt>
      <trkpt lat="46.40963" lon="5.72659">
        <ele>633.6</ele>
        <time>2022-07-29T15:30:24Z</time>
      </trkpt>
      <trkpt lat="46.40965" lon="5.7266">
        <ele>633.6</ele>
        <time>2022-07-29T15:30:25Z</time>
      </trkpt>
      <trkpt lat="46.40967" lon="5.72661">
        <ele>634</ele>
        <time>2022-07-29T15:30:26Z</time>
      </trkpt>
      <trkpt lat="46.40969" lon="5.72661">
        <ele>634</ele>
        <time>2022-07-29T15:30:27Z</time>
      </trkpt>
      <trkpt lat="46.40971" lon="5.72662">
        <ele>634.4</ele>
        <time>2022-07-29T15:30:28Z</time>
      </trkpt>
      <trkpt lat="46.40974" lon="5.72663">
        <ele>634.6</ele>
        <time>2022-07-29T15:30:29Z</time>
      </trkpt>
      <trkpt lat="46.40976" lon="5.72664">
        <ele>634.6</ele>
        <time>2022-07-29T15:30:30Z</time>
      </trkpt>
      <trkpt lat="46.40978" lon="5.72665">
        <ele>635.2</ele>
        <time>2022-07-29T15:30:31Z</time>
      </trkpt>
      <trkpt lat="46.4098" lon="5.72667">
        <ele>635.4</ele>
        <time>2022-07-29T15:30:32Z</time>
      </trkpt>
      <trkpt lat="46.40982" lon="5.72668">
        <ele>635.6</ele>
        <time>2022-07-29T15:30:33Z</time>
      </trkpt>
      <trkpt lat="46.40984" lon="5.72669">
        <ele>636</ele>
        <time>2022-07-29T15:30:34Z</time>
      </trkpt>
      <trkpt lat="46.40986" lon="5.7267">
        <ele>636.2</ele>
        <time>2022-07-29T15:30:35Z</time>
      </trkpt>
      <trkpt lat="46.40988" lon="5.72671">
        <ele>636.2</ele>
        <time>2022-07-29T15:30:36Z</time>
      </trkpt>
      <trkpt lat="46.4099" lon="5.72672">
        <ele>636.6</ele>
        <time>2022-07-29T15:30:37Z</time>
      </trkpt>
      <trkpt lat="46.40992" lon="5.72673">
        <ele>636.6</ele>
        <time>2022-07-29T15:30:38Z</time>
      </trkpt>
      <trkpt lat="46.40994" lon="5.72674">
        <ele>637</ele>
        <time>2022-07-29T15:30:39Z</time>
      </trkpt>
      <trkpt lat="46.40997" lon="5.72676">
        <ele>637.2</ele>
        <time>2022-07-29T15:30:40Z</time>
      </trkpt>
      <trkpt lat="46.40999" lon="5.72677">
        <ele>637.6</ele>
        <time>2022-07-29T15:30:41Z</time>
      </trkpt>
      <trkpt lat="46.41001" lon="5.72678">
        <ele>637.6</ele>
        <time>2022-07-29T15:30:42Z</time>
      </trkpt>
      <trkpt lat="46.41003" lon="5.72679">
        <ele>638</ele>
        <time>2022-07-29T15:30:43Z</time>
      </trkpt>
      <trkpt lat="46.41005" lon="5.7268">
        <ele>638.2</ele>
        <time>2022-07-29T15:30:44Z</time>
      </trkpt>
      <trkpt lat="46.41007" lon="5.72681">
        <ele>638.4</ele>
        <time>2022-07-29T15:30:45Z</time>
      </trkpt>
      <trkpt lat="46.4101" lon="5.72682">
        <ele>638.4</ele>
        <time>2022-07-29T15:30:46Z</time>
      </trkpt>
      <trkpt lat="46.41012" lon="5.72683">
        <ele>638.8</ele>
        <time>2022-07-29T15:30:47Z</time>
      </trkpt>
      <trkpt lat="46.41015" lon="5.72684">
        <ele>638.8</ele>
        <time>2022-07-29T15:30:48Z</time>
      </trkpt>
      <trkpt lat="46.41017" lon="5.72685">
        <ele>639.2</ele>
        <time>2022-07-29T15:30:49Z</time>
      </trkpt>
      <trkpt lat="46.41019" lon="5.72686">
        <ele>639.2</ele>
        <time>2022-07-29T15:30:50Z</time>
      </trkpt>
      <trkpt lat="46.41021" lon="5.72687">
        <ele>639.4</ele>
        <time>2022-07-29T15:30:51Z</time>
      </trkpt>
      <trkpt lat="46.41023" lon="5.72689">
        <ele>639.4</ele>
        <time>2022-07-29T15:30:52Z</time>
      </trkpt>
      <trkpt lat="46.41026" lon="5.7269">
        <ele>639.8</ele>
        <time>2022-07-29T15:30:53Z</time>
      </trkpt>
      <trkpt lat="46.41028" lon="5.72691">
        <ele>640</ele>
        <time>2022-07-29T15:30:54Z</time>
      </trkpt>
      <trkpt lat="46.4103" lon="5.72691">
        <ele>640.4</ele>
        <time>2022-07-29T15:30:55Z</time>
      </trkpt>
      <trkpt lat="46.41032" lon="5.72692">
        <ele>640.6</ele>
        <time>2022-07-29T15:30:56Z</time>
      </trkpt>
      <trkpt lat="46.41034" lon="5.72693">
        <ele>640.6</ele>
        <time>2022-07-29T15:30:57Z</time>
      </trkpt>
      <trkpt lat="46.41036" lon="5.72694">
        <ele>640.8</ele>
        <time>2022-07-29T15:30:58Z</time>
      </trkpt>
      <trkpt lat="46.41038" lon="5.72695">
        <ele>640.8</ele>
        <time>2022-07-29T15:30:59Z</time>
      </trkpt>
      <trkpt lat="46.41041" lon="5.72696">
        <ele>641.2</ele>
        <time>2022-07-29T15:31:00Z</time>
      </trkpt>
      <trkpt lat="46.41043" lon="5.72696">
        <ele>641.4</ele>
        <time>2022-07-29T15:31:01Z</time>
      </trkpt>
      <trkpt lat="46.41045" lon="5.72697">
        <ele>641.4</ele>
        <time>2022-07-29T15:31:02Z</time>
      </trkpt>
      <trkpt lat="46.41047" lon="5.72698">
        <ele>641.8</ele>
        <time>2022-07-29T15:31:03Z</time>
      </trkpt>
      <trkpt lat="46.41049" lon="5.72699">
        <ele>642.2</ele>
        <time>2022-07-29T15:31:04Z</time>
      </trkpt>
      <trkpt lat="46.41051" lon="5.72699">
        <ele>642.2</ele>
        <time>2022-07-29T15:31:05Z</time>
      </trkpt>
      <trkpt lat="46.41053" lon="5.727">
        <ele>642.4</ele>
        <time>2022-07-29T15:31:06Z</time>
      </trkpt>
      <trkpt lat="46.41055" lon="5.727">
        <ele>642.4</ele>
        <time>2022-07-29T15:31:07Z</time>
      </trkpt>
      <trkpt lat="46.41057" lon="5.72701">
        <ele>642.8</ele>
        <time>2022-07-29T15:31:08Z</time>
      </trkpt>
      <trkpt lat="46.41059" lon="5.72702">
        <ele>642.8</ele>
        <time>2022-07-29T15:31:09Z</time>
      </trkpt>
      <trkpt lat="46.41061" lon="5.72702">
        <ele>643</ele>
        <time>2022-07-29T15:31:10Z</time>
      </trkpt>
      <trkpt lat="46.41063" lon="5.72702">
        <ele>643</ele>
        <time>2022-07-29T15:31:11Z</time>
      </trkpt>
      <trkpt lat="46.41065" lon="5.72703">
        <ele>643.4</ele>
        <time>2022-07-29T15:31:12Z</time>
      </trkpt>
      <trkpt lat="46.41067" lon="5.72704">
        <ele>643.6</ele>
        <time>2022-07-29T15:31:13Z</time>
      </trkpt>
      <trkpt lat="46.41069" lon="5.72704">
        <ele>643.6</ele>
        <time>2022-07-29T15:31:14Z</time>
      </trkpt>
      <trkpt lat="46.41071" lon="5.72705">
        <ele>644</ele>
        <time>2022-07-29T15:31:15Z</time>
      </trkpt>
      <trkpt lat="46.41073" lon="5.72705">
        <ele>644.2</ele>
        <time>2022-07-29T15:31:16Z</time>
      </trkpt>
      <trkpt lat="46.41075" lon="5.72705">
        <ele>644.4</ele>
        <time>2022-07-29T15:31:17Z</time>
      </trkpt>
      <trkpt lat="46.41077" lon="5.72705">
        <ele>644.8</ele>
        <time>2022-07-29T15:31:18Z</time>
      </trkpt>
      <trkpt lat="46.41079" lon="5.72705">
        <ele>644.8</ele>
        <time>2022-07-29T15:31:19Z</time>
      </trkpt>
      <trkpt lat="46.41081" lon="5.72705">
        <ele>645</ele>
        <time>2022-07-29T15:31:20Z</time>
      </trkpt>
      <trkpt lat="46.41083" lon="5.72706">
        <ele>645</ele>
        <time>2022-07-29T15:31:21Z</time>
      </trkpt>
      <trkpt lat="46.41085" lon="5.72706">
        <ele>645.4</ele>
        <time>2022-07-29T15:31:22Z</time>
      </trkpt>
      <trkpt lat="46.41087" lon="5.72705">
        <ele>645.4</ele>
        <time>2022-07-29T15:31:23Z</time>
      </trkpt>
      <trkpt lat="46.4109" lon="5.72704">
        <ele>645.6</ele>
        <time>2022-07-29T15:31:24Z</time>
      </trkpt>
      <trkpt lat="46.41092" lon="5.72703">
        <ele>645.6</ele>
        <time>2022-07-29T15:31:25Z</time>
      </trkpt>
      <trkpt lat="46.41094" lon="5.72702">
        <ele>646</ele>
        <time>2022-07-29T15:31:26Z</time>
      </trkpt>
      <trkpt lat="46.41096" lon="5.72701">
        <ele>646</ele>
        <time>2022-07-29T15:31:27Z</time>
      </trkpt>
      <trkpt lat="46.41098" lon="5.727">
        <ele>646.4</ele>
        <time>2022-07-29T15:31:28Z</time>
      </trkpt>
      <trkpt lat="46.411" lon="5.72698">
        <ele>646.4</ele>
        <time>2022-07-29T15:31:29Z</time>
      </trkpt>
      <trkpt lat="46.41103" lon="5.72697">
        <ele>646.8</ele>
        <time>2022-07-29T15:31:30Z</time>
      </trkpt>
      <trkpt lat="46.41105" lon="5.72696">
        <ele>646.8</ele>
        <time>2022-07-29T15:31:31Z</time>
      </trkpt>
      <trkpt lat="46.41107" lon="5.72694">
        <ele>647</ele>
        <time>2022-07-29T15:31:32Z</time>
      </trkpt>
      <trkpt lat="46.41109" lon="5.72693">
        <ele>647</ele>
        <time>2022-07-29T15:31:33Z</time>
      </trkpt>
      <trkpt lat="46.41111" lon="5.72691">
        <ele>647.2</ele>
        <time>2022-07-29T15:31:34Z</time>
      </trkpt>
      <trkpt lat="46.41113" lon="5.72688">
        <ele>647.2</ele>
        <time>2022-07-29T15:31:35Z</time>
      </trkpt>
      <trkpt lat="46.41114" lon="5.72686">
        <ele>647.4</ele>
        <time>2022-07-29T15:31:36Z</time>
      </trkpt>
      <trkpt lat="46.41116" lon="5.72683">
        <ele>647.4</ele>
        <time>2022-07-29T15:31:37Z</time>
      </trkpt>
      <trkpt lat="46.41118" lon="5.7268">
        <ele>647.6</ele>
        <time>2022-07-29T15:31:38Z</time>
      </trkpt>
      <trkpt lat="46.41119" lon="5.72678">
        <ele>647.6</ele>
        <time>2022-07-29T15:31:39Z</time>
      </trkpt>
      <trkpt lat="46.41121" lon="5.72675">
        <ele>648</ele>
        <time>2022-07-29T15:31:40Z</time>
      </trkpt>
      <trkpt lat="46.41123" lon="5.72672">
        <ele>648</ele>
        <time>2022-07-29T15:31:41Z</time>
      </trkpt>
      <trkpt lat="46.41125" lon="5.7267">
        <ele>648.2</ele>
        <time>2022-07-29T15:31:42Z</time>
      </trkpt>
      <trkpt lat="46.41127" lon="5.72667">
        <ele>648.2</ele>
        <time>2022-07-29T15:31:43Z</time>
      </trkpt>
      <trkpt lat="46.41128" lon="5.72664">
        <ele>648.4</ele>
        <time>2022-07-29T15:31:44Z</time>
      </trkpt>
      <trkpt lat="46.4113" lon="5.72661">
        <ele>648.4</ele>
        <time>2022-07-29T15:31:45Z</time>
      </trkpt>
      <trkpt lat="46.41132" lon="5.72658">
        <ele>648.4</ele>
        <time>2022-07-29T15:31:46Z</time>
      </trkpt>
      <trkpt lat="46.41134" lon="5.72654">
        <ele>648.8</ele>
        <time>2022-07-29T15:31:47Z</time>
      </trkpt>
      <trkpt lat="46.41135" lon="5.72651">
        <ele>648.8</ele>
        <time>2022-07-29T15:31:48Z</time>
      </trkpt>
      <trkpt lat="46.41137" lon="5.72648">
        <ele>649</ele>
        <time>2022-07-29T15:31:49Z</time>
      </trkpt>
      <trkpt lat="46.41139" lon="5.72645">
        <ele>649</ele>
        <time>2022-07-29T15:31:50Z</time>
      </trkpt>
      <trkpt lat="46.4114" lon="5.72641">
        <ele>649</ele>
        <time>2022-07-29T15:31:51Z</time>
      </trkpt>
      <trkpt lat="46.41142" lon="5.72638">
        <ele>649.2</ele>
        <time>2022-07-29T15:31:52Z</time>
      </trkpt>
      <trkpt lat="46.41144" lon="5.72635">
        <ele>649.2</ele>
        <time>2022-07-29T15:31:53Z</time>
      </trkpt>
      <trkpt lat="46.41146" lon="5.72631">
        <ele>649.4</ele>
        <time>2022-07-29T15:31:54Z</time>
      </trkpt>
      <trkpt lat="46.41147" lon="5.72628">
        <ele>649.4</ele>
        <time>2022-07-29T15:31:55Z</time>
      </trkpt>
      <trkpt lat="46.41149" lon="5.72625">
        <ele>649.8</ele>
        <time>2022-07-29T15:31:56Z</time>
      </trkpt>
      <trkpt lat="46.41151" lon="5.72621">
        <ele>649.8</ele>
        <time>2022-07-29T15:31:57Z</time>
      </trkpt>
      <trkpt lat="46.41153" lon="5.72618">
        <ele>650</ele>
        <time>2022-07-29T15:31:58Z</time>
      </trkpt>
      <trkpt lat="46.41155" lon="5.72614">
        <ele>650</ele>
        <time>2022-07-29T15:31:59Z</time>
      </trkpt>
      <trkpt lat="46.41157" lon="5.72611">
        <ele>650</ele>
        <time>2022-07-29T15:32:00Z</time>
      </trkpt>
      <trkpt lat="46.41159" lon="5.72607">
        <ele>650.2</ele>
        <time>2022-07-29T15:32:01Z</time>
      </trkpt>
      <trkpt lat="46.4116" lon="5.72604">
        <ele>650.2</ele>
        <time>2022-07-29T15:32:02Z</time>
      </trkpt>
      <trkpt lat="46.41162" lon="5.726">
        <ele>650.2</ele>
        <time>2022-07-29T15:32:03Z</time>
      </trkpt>
      <trkpt lat="46.41164" lon="5.72596">
        <ele>650.6</ele>
        <time>2022-07-29T15:32:04Z</time>
      </trkpt>
      <trkpt lat="46.41166" lon="5.72593">
        <ele>650.6</ele>
        <time>2022-07-29T15:32:05Z</time>
      </trkpt>
      <trkpt lat="46.41168" lon="5.72589">
        <ele>650.6</ele>
        <time>2022-07-29T15:32:06Z</time>
      </trkpt>
      <trkpt lat="46.4117" lon="5.72585">
        <ele>650.8</ele>
        <time>2022-07-29T15:32:07Z</time>
      </trkpt>
      <trkpt lat="46.41172" lon="5.72582">
        <ele>650.8</ele>
        <time>2022-07-29T15:32:08Z</time>
      </trkpt>
      <trkpt lat="46.41174" lon="5.72578">
        <ele>650.8</ele>
        <time>2022-07-29T15:32:09Z</time>
      </trkpt>
      <trkpt lat="46.41176" lon="5.72575">
        <ele>650.8</ele>
        <time>2022-07-29T15:32:10Z</time>
      </trkpt>
      <trkpt lat="46.41179" lon="5.72571">
        <ele>651</ele>
        <time>2022-07-29T15:32:11Z</time>
      </trkpt>
      <trkpt lat="46.41181" lon="5.72567">
        <ele>651</ele>
        <time>2022-07-29T15:32:12Z</time>
      </trkpt>
      <trkpt lat="46.41183" lon="5.72563">
        <ele>651</ele>
        <time>2022-07-29T15:32:13Z</time>
      </trkpt>
      <trkpt lat="46.41186" lon="5.72559">
        <ele>651</ele>
        <time>2022-07-29T15:32:14Z</time>
      </trkpt>
      <trkpt lat="46.41189" lon="5.72555">
        <ele>651</ele>
        <time>2022-07-29T15:32:15Z</time>
      </trkpt>
      <trkpt lat="46.41191" lon="5.72551">
        <ele>651.2</ele>
        <time>2022-07-29T15:32:16Z</time>
      </trkpt>
      <trkpt lat="46.41194" lon="5.72547">
        <ele>651.2</ele>
        <time>2022-07-29T15:32:17Z</time>
      </trkpt>
      <trkpt lat="46.41197" lon="5.72542">
        <ele>651.2</ele>
        <time>2022-07-29T15:32:18Z</time>
      </trkpt>
      <trkpt lat="46.412" lon="5.72538">
        <ele>651.2</ele>
        <time>2022-07-29T15:32:19Z</time>
      </trkpt>
      <trkpt lat="46.41203" lon="5.72534">
        <ele>651.2</ele>
        <time>2022-07-29T15:32:20Z</time>
      </trkpt>
      <trkpt lat="46.41207" lon="5.72529">
        <ele>651.2</ele>
        <time>2022-07-29T15:32:21Z</time>
      </trkpt>
      <trkpt lat="46.4121" lon="5.72525">
        <ele>651.2</ele>
        <time>2022-07-29T15:32:22Z</time>
      </trkpt>
      <trkpt lat="46.41213" lon="5.72521">
        <ele>651.2</ele>
        <time>2022-07-29T15:32:23Z</time>
      </trkpt>
      <trkpt lat="46.41216" lon="5.72516">
        <ele>651.2</ele>
        <time>2022-07-29T15:32:24Z</time>
      </trkpt>
      <trkpt lat="46.41219" lon="5.72512">
        <ele>651</ele>
        <time>2022-07-29T15:32:25Z</time>
      </trkpt>
      <trkpt lat="46.41222" lon="5.72508">
        <ele>651</ele>
        <time>2022-07-29T15:32:26Z</time>
      </trkpt>
      <trkpt lat="46.41225" lon="5.72504">
        <ele>651</ele>
        <time>2022-07-29T15:32:27Z</time>
      </trkpt>
      <trkpt lat="46.41228" lon="5.72499">
        <ele>651</ele>
        <time>2022-07-29T15:32:28Z</time>
      </trkpt>
      <trkpt lat="46.41232" lon="5.72494">
        <ele>650.6</ele>
        <time>2022-07-29T15:32:29Z</time>
      </trkpt>
      <trkpt lat="46.41235" lon="5.72489">
        <ele>650.4</ele>
        <time>2022-07-29T15:32:30Z</time>
      </trkpt>
      <trkpt lat="46.41239" lon="5.72483">
        <ele>650.4</ele>
        <time>2022-07-29T15:32:31Z</time>
      </trkpt>
      <trkpt lat="46.41243" lon="5.72478">
        <ele>650</ele>
        <time>2022-07-29T15:32:32Z</time>
      </trkpt>
      <trkpt lat="46.41247" lon="5.72472">
        <ele>650</ele>
        <time>2022-07-29T15:32:33Z</time>
      </trkpt>
      <trkpt lat="46.41251" lon="5.72465">
        <ele>649.6</ele>
        <time>2022-07-29T15:32:34Z</time>
      </trkpt>
      <trkpt lat="46.41255" lon="5.72458">
        <ele>649.4</ele>
        <time>2022-07-29T15:32:35Z</time>
      </trkpt>
      <trkpt lat="46.41259" lon="5.72451">
        <ele>649.2</ele>
        <time>2022-07-29T15:32:36Z</time>
      </trkpt>
      <trkpt lat="46.41263" lon="5.72444">
        <ele>649.2</ele>
        <time>2022-07-29T15:32:37Z</time>
      </trkpt>
      <trkpt lat="46.41267" lon="5.72436">
        <ele>648.8</ele>
        <time>2022-07-29T15:32:38Z</time>
      </trkpt>
      <trkpt lat="46.41271" lon="5.72428">
        <ele>648.6</ele>
        <time>2022-07-29T15:32:39Z</time>
      </trkpt>
      <trkpt lat="46.41276" lon="5.7242">
        <ele>648.6</ele>
        <time>2022-07-29T15:32:40Z</time>
      </trkpt>
      <trkpt lat="46.41281" lon="5.72413">
        <ele>648.2</ele>
        <time>2022-07-29T15:32:41Z</time>
      </trkpt>
      <trkpt lat="46.41286" lon="5.72406">
        <ele>648.2</ele>
        <time>2022-07-29T15:32:42Z</time>
      </trkpt>
      <trkpt lat="46.41291" lon="5.724">
        <ele>647.8</ele>
        <time>2022-07-29T15:32:43Z</time>
      </trkpt>
      <trkpt lat="46.41296" lon="5.72395">
        <ele>647.6</ele>
        <time>2022-07-29T15:32:44Z</time>
      </trkpt>
      <trkpt lat="46.41302" lon="5.72391">
        <ele>647.6</ele>
        <time>2022-07-29T15:32:45Z</time>
      </trkpt>
      <trkpt lat="46.41306" lon="5.72388">
        <ele>647.4</ele>
        <time>2022-07-29T15:32:46Z</time>
      </trkpt>
      <trkpt lat="46.4131" lon="5.72386">
        <ele>647.4</ele>
        <time>2022-07-29T15:32:47Z</time>
      </trkpt>
      <trkpt lat="46.41314" lon="5.72385">
        <ele>647.4</ele>
        <time>2022-07-29T15:32:48Z</time>
      </trkpt>
      <trkpt lat="46.41318" lon="5.72385">
        <ele>647</ele>
        <time>2022-07-29T15:32:49Z</time>
      </trkpt>
      <trkpt lat="46.41322" lon="5.72386">
        <ele>647</ele>
        <time>2022-07-29T15:32:50Z</time>
      </trkpt>
      <trkpt lat="46.41326" lon="5.72388">
        <ele>647</ele>
        <time>2022-07-29T15:32:51Z</time>
      </trkpt>
      <trkpt lat="46.4133" lon="5.7239">
        <ele>647</ele>
        <time>2022-07-29T15:32:52Z</time>
      </trkpt>
      <trkpt lat="46.41334" lon="5.72392">
        <ele>647</ele>
        <time>2022-07-29T15:32:53Z</time>
      </trkpt>
      <trkpt lat="46.41339" lon="5.72393">
        <ele>647</ele>
        <time>2022-07-29T15:32:54Z</time>
      </trkpt>
      <trkpt lat="46.41344" lon="5.72394">
        <ele>647</ele>
        <time>2022-07-29T15:32:55Z</time>
      </trkpt>
      <trkpt lat="46.41349" lon="5.72393">
        <ele>646.8</ele>
        <time>2022-07-29T15:32:56Z</time>
      </trkpt>
      <trkpt lat="46.41353" lon="5.7239">
        <ele>646.8</ele>
        <time>2022-07-29T15:32:57Z</time>
      </trkpt>
      <trkpt lat="46.41358" lon="5.72387">
        <ele>646.6</ele>
        <time>2022-07-29T15:32:58Z</time>
      </trkpt>
      <trkpt lat="46.41362" lon="5.72382">
        <ele>646.6</ele>
        <time>2022-07-29T15:32:59Z</time>
      </trkpt>
      <trkpt lat="46.41366" lon="5.72377">
        <ele>646.2</ele>
        <time>2022-07-29T15:33:00Z</time>
      </trkpt>
      <trkpt lat="46.4137" lon="5.72371">
        <ele>646</ele>
        <time>2022-07-29T15:33:01Z</time>
      </trkpt>
      <trkpt lat="46.41374" lon="5.72366">
        <ele>645.6</ele>
        <time>2022-07-29T15:33:02Z</time>
      </trkpt>
      <trkpt lat="46.41379" lon="5.72362">
        <ele>645.4</ele>
        <time>2022-07-29T15:33:03Z</time>
      </trkpt>
      <trkpt lat="46.41385" lon="5.72359">
        <ele>645.4</ele>
        <time>2022-07-29T15:33:04Z</time>
      </trkpt>
      <trkpt lat="46.41391" lon="5.72358">
        <ele>645</ele>
        <time>2022-07-29T15:33:05Z</time>
      </trkpt>
      <trkpt lat="46.41397" lon="5.72358">
        <ele>645</ele>
        <time>2022-07-29T15:33:06Z</time>
      </trkpt>
      <trkpt lat="46.41404" lon="5.72358">
        <ele>645</ele>
        <time>2022-07-29T15:33:07Z</time>
      </trkpt>
      <trkpt lat="46.4141" lon="5.72358">
        <ele>644.8</ele>
        <time>2022-07-29T15:33:08Z</time>
      </trkpt>
      <trkpt lat="46.41417" lon="5.72358">
        <ele>644.8</ele>
        <time>2022-07-29T15:33:09Z</time>
      </trkpt>
      <trkpt lat="46.41423" lon="5.72358">
        <ele>644.4</ele>
        <time>2022-07-29T15:33:10Z</time>
      </trkpt>
      <trkpt lat="46.4143" lon="5.72356">
        <ele>644.4</ele>
        <time>2022-07-29T15:33:11Z</time>
      </trkpt>
      <trkpt lat="46.41436" lon="5.72355">
        <ele>644</ele>
        <time>2022-07-29T15:33:12Z</time>
      </trkpt>
      <trkpt lat="46.41443" lon="5.72352">
        <ele>643.8</ele>
        <time>2022-07-29T15:33:13Z</time>
      </trkpt>
      <trkpt lat="46.41449" lon="5.7235">
        <ele>643.4</ele>
        <time>2022-07-29T15:33:14Z</time>
      </trkpt>
      <trkpt lat="46.41456" lon="5.72346">
        <ele>643.2</ele>
        <time>2022-07-29T15:33:15Z</time>
      </trkpt>
      <trkpt lat="46.41463" lon="5.72343">
        <ele>642.8</ele>
        <time>2022-07-29T15:33:16Z</time>
      </trkpt>
      <trkpt lat="46.4147" lon="5.72339">
        <ele>642.6</ele>
        <time>2022-07-29T15:33:17Z</time>
      </trkpt>
      <trkpt lat="46.41477" lon="5.72335">
        <ele>642.2</ele>
        <time>2022-07-29T15:33:18Z</time>
      </trkpt>
      <trkpt lat="46.41484" lon="5.72331">
        <ele>642</ele>
        <time>2022-07-29T15:33:19Z</time>
      </trkpt>
      <trkpt lat="46.41491" lon="5.72327">
        <ele>641.6</ele>
        <time>2022-07-29T15:33:20Z</time>
      </trkpt>
      <trkpt lat="46.41498" lon="5.72323">
        <ele>641.2</ele>
        <time>2022-07-29T15:33:21Z</time>
      </trkpt>
      <trkpt lat="46.41506" lon="5.72319">
        <ele>640.8</ele>
        <time>2022-07-29T15:33:22Z</time>
      </trkpt>
      <trkpt lat="46.41514" lon="5.72315">
        <ele>640.4</ele>
        <time>2022-07-29T15:33:23Z</time>
      </trkpt>
      <trkpt lat="46.41522" lon="5.72312">
        <ele>639.8</ele>
        <time>2022-07-29T15:33:24Z</time>
      </trkpt>
      <trkpt lat="46.41531" lon="5.72309">
        <ele>639.2</ele>
        <time>2022-07-29T15:33:25Z</time>
      </trkpt>
      <trkpt lat="46.4154" lon="5.72307">
        <ele>639.2</ele>
        <time>2022-07-29T15:33:26Z</time>
      </trkpt>
      <trkpt lat="46.41549" lon="5.72305">
        <ele>638.4</ele>
        <time>2022-07-29T15:33:27Z</time>
      </trkpt>
      <trkpt lat="46.41559" lon="5.72304">
        <ele>637.8</ele>
        <time>2022-07-29T15:33:28Z</time>
      </trkpt>
      <trkpt lat="46.41569" lon="5.72304">
        <ele>637</ele>
        <time>2022-07-29T15:33:29Z</time>
      </trkpt>
      <trkpt lat="46.4158" lon="5.72304">
        <ele>636.4</ele>
        <time>2022-07-29T15:33:30Z</time>
      </trkpt>
      <trkpt lat="46.4159" lon="5.72305">
        <ele>635.6</ele>
        <time>2022-07-29T15:33:31Z</time>
      </trkpt>
      <trkpt lat="46.41601" lon="5.72307">
        <ele>635.2</ele>
        <time>2022-07-29T15:33:32Z</time>
      </trkpt>
      <trkpt lat="46.41612" lon="5.72309">
        <ele>634.6</ele>
        <time>2022-07-29T15:33:33Z</time>
      </trkpt>
      <trkpt lat="46.41623" lon="5.72311">
        <ele>634.2</ele>
        <time>2022-07-29T15:33:34Z</time>
      </trkpt>
      <trkpt lat="46.41634" lon="5.72313">
        <ele>633.8</ele>
        <time>2022-07-29T15:33:35Z</time>
      </trkpt>
      <trkpt lat="46.41645" lon="5.72315">
        <ele>633.4</ele>
        <time>2022-07-29T15:33:36Z</time>
      </trkpt>
      <trkpt lat="46.41655" lon="5.72318">
        <ele>633</ele>
        <time>2022-07-29T15:33:37Z</time>
      </trkpt>
      <trkpt lat="46.41666" lon="5.7232">
        <ele>632.6</ele>
        <time>2022-07-29T15:33:38Z</time>
      </trkpt>
      <trkpt lat="46.41676" lon="5.72323">
        <ele>632.2</ele>
        <time>2022-07-29T15:33:39Z</time>
      </trkpt>
      <trkpt lat="46.41686" lon="5.72326">
        <ele>631.8</ele>
        <time>2022-07-29T15:33:40Z</time>
      </trkpt>
      <trkpt lat="46.41696" lon="5.72329">
        <ele>631.8</ele>
        <time>2022-07-29T15:33:41Z</time>
      </trkpt>
      <trkpt lat="46.41706" lon="5.7233">
        <ele>631.2</ele>
        <time>2022-07-29T15:33:42Z</time>
      </trkpt>
      <trkpt lat="46.41715" lon="5.72333">
        <ele>631</ele>
        <time>2022-07-29T15:33:43Z</time>
      </trkpt>
      <trkpt lat="46.41724" lon="5.72335">
        <ele>630.8</ele>
        <time>2022-07-29T15:33:44Z</time>
      </trkpt>
      <trkpt lat="46.41733" lon="5.72337">
        <ele>630.6</ele>
        <time>2022-07-29T15:33:45Z</time>
      </trkpt>
      <trkpt lat="46.41742" lon="5.72339">
        <ele>630.2</ele>
        <time>2022-07-29T15:33:46Z</time>
      </trkpt>
      <trkpt lat="46.4175" lon="5.72341">
        <ele>630</ele>
        <time>2022-07-29T15:33:47Z</time>
      </trkpt>
      <trkpt lat="46.41758" lon="5.72343">
        <ele>629.8</ele>
        <time>2022-07-29T15:33:48Z</time>
      </trkpt>
      <trkpt lat="46.41766" lon="5.72345">
        <ele>629.6</ele>
        <time>2022-07-29T15:33:49Z</time>
      </trkpt>
      <trkpt lat="46.41774" lon="5.72347">
        <ele>629.4</ele>
        <time>2022-07-29T15:33:50Z</time>
      </trkpt>
      <trkpt lat="46.41782" lon="5.72348">
        <ele>629.4</ele>
        <time>2022-07-29T15:33:51Z</time>
      </trkpt>
      <trkpt lat="46.4179" lon="5.7235">
        <ele>629.2</ele>
        <time>2022-07-29T15:33:52Z</time>
      </trkpt>
      <trkpt lat="46.41797" lon="5.72352">
        <ele>629.2</ele>
        <time>2022-07-29T15:33:53Z</time>
      </trkpt>
      <trkpt lat="46.41805" lon="5.72354">
        <ele>628.8</ele>
        <time>2022-07-29T15:33:54Z</time>
      </trkpt>
      <trkpt lat="46.41813" lon="5.72356">
        <ele>628.8</ele>
        <time>2022-07-29T15:33:55Z</time>
      </trkpt>
      <trkpt lat="46.4182" lon="5.72357">
        <ele>628.8</ele>
        <time>2022-07-29T15:33:56Z</time>
      </trkpt>
      <trkpt lat="46.41828" lon="5.72359">
        <ele>628.6</ele>
        <time>2022-07-29T15:33:57Z</time>
      </trkpt>
      <trkpt lat="46.41835" lon="5.72361">
        <ele>628.6</ele>
        <time>2022-07-29T15:33:58Z</time>
      </trkpt>
      <trkpt lat="46.41843" lon="5.72363">
        <ele>628.6</ele>
        <time>2022-07-29T15:33:59Z</time>
      </trkpt>
      <trkpt lat="46.4185" lon="5.72365">
        <ele>628.6</ele>
        <time>2022-07-29T15:34:00Z</time>
      </trkpt>
      <trkpt lat="46.41858" lon="5.72367">
        <ele>628.4</ele>
        <time>2022-07-29T15:34:01Z</time>
      </trkpt>
      <trkpt lat="46.41865" lon="5.72369">
        <ele>628.4</ele>
        <time>2022-07-29T15:34:02Z</time>
      </trkpt>
      <trkpt lat="46.41873" lon="5.72371">
        <ele>628.4</ele>
        <time>2022-07-29T15:34:03Z</time>
      </trkpt>
      <trkpt lat="46.4188" lon="5.72374">
        <ele>628.4</ele>
        <time>2022-07-29T15:34:04Z</time>
      </trkpt>
      <trkpt lat="46.41887" lon="5.72376">
        <ele>628.4</ele>
        <time>2022-07-29T15:34:05Z</time>
      </trkpt>
      <trkpt lat="46.41895" lon="5.72378">
        <ele>628.4</ele>
        <time>2022-07-29T15:34:06Z</time>
      </trkpt>
      <trkpt lat="46.41902" lon="5.7238">
        <ele>628.4</ele>
        <time>2022-07-29T15:34:07Z</time>
      </trkpt>
      <trkpt lat="46.41909" lon="5.72381">
        <ele>628</ele>
        <time>2022-07-29T15:34:08Z</time>
      </trkpt>
      <trkpt lat="46.41916" lon="5.72383">
        <ele>628</ele>
        <time>2022-07-29T15:34:09Z</time>
      </trkpt>
      <trkpt lat="46.41922" lon="5.72384">
        <ele>628</ele>
        <time>2022-07-29T15:34:10Z</time>
      </trkpt>
      <trkpt lat="46.41929" lon="5.72386">
        <ele>627.8</ele>
        <time>2022-07-29T15:34:11Z</time>
      </trkpt>
      <trkpt lat="46.41936" lon="5.72388">
        <ele>627.8</ele>
        <time>2022-07-29T15:34:12Z</time>
      </trkpt>
      <trkpt lat="46.41943" lon="5.72391">
        <ele>627.8</ele>
        <time>2022-07-29T15:34:13Z</time>
      </trkpt>
      <trkpt lat="46.4195" lon="5.72393">
        <ele>627.6</ele>
        <time>2022-07-29T15:34:14Z</time>
      </trkpt>
      <trkpt lat="46.41957" lon="5.72395">
        <ele>627.6</ele>
        <time>2022-07-29T15:34:15Z</time>
      </trkpt>
      <trkpt lat="46.41964" lon="5.72397">
        <ele>627.6</ele>
        <time>2022-07-29T15:34:16Z</time>
      </trkpt>
      <trkpt lat="46.41964" lon="5.72397">
        <ele>627.6</ele>
        <time>2022-07-29T15:34:17Z</time>
      </trkpt>
      <trkpt lat="46.41971" lon="5.72399">
        <ele>627.4</ele>
        <time>2022-07-29T15:34:18Z</time>
      </trkpt>
      <trkpt lat="46.41978" lon="5.72401">
        <ele>627.4</ele>
        <time>2022-07-29T15:34:19Z</time>
      </trkpt>
      <trkpt lat="46.41984" lon="5.72403">
        <ele>627.4</ele>
        <time>2022-07-29T15:34:20Z</time>
      </trkpt>
      <trkpt lat="46.41991" lon="5.72406">
        <ele>627.4</ele>
        <time>2022-07-29T15:34:21Z</time>
      </trkpt>
      <trkpt lat="46.41998" lon="5.72408">
        <ele>627.4</ele>
        <time>2022-07-29T15:34:22Z</time>
      </trkpt>
      <trkpt lat="46.42005" lon="5.7241">
        <ele>627.4</ele>
        <time>2022-07-29T15:34:23Z</time>
      </trkpt>
      <trkpt lat="46.42011" lon="5.72412">
        <ele>627.4</ele>
        <time>2022-07-29T15:34:24Z</time>
      </trkpt>
      <trkpt lat="46.42018" lon="5.72414">
        <ele>627.4</ele>
        <time>2022-07-29T15:34:25Z</time>
      </trkpt>
      <trkpt lat="46.42024" lon="5.72416">
        <ele>627.4</ele>
        <time>2022-07-29T15:34:26Z</time>
      </trkpt>
      <trkpt lat="46.4203" lon="5.72418">
        <ele>627.4</ele>
        <time>2022-07-29T15:34:27Z</time>
      </trkpt>
      <trkpt lat="46.42036" lon="5.7242">
        <ele>627.4</ele>
        <time>2022-07-29T15:34:28Z</time>
      </trkpt>
      <trkpt lat="46.42042" lon="5.72422">
        <ele>627.4</ele>
        <time>2022-07-29T15:34:29Z</time>
      </trkpt>
      <trkpt lat="46.42048" lon="5.72423">
        <ele>627.4</ele>
        <time>2022-07-29T15:34:30Z</time>
      </trkpt>
      <trkpt lat="46.42054" lon="5.72425">
        <ele>627.4</ele>
        <time>2022-07-29T15:34:31Z</time>
      </trkpt>
      <trkpt lat="46.4206" lon="5.72427">
        <ele>627.6</ele>
        <time>2022-07-29T15:34:32Z</time>
      </trkpt>
      <trkpt lat="46.42065" lon="5.72429">
        <ele>627.6</ele>
        <time>2022-07-29T15:34:33Z</time>
      </trkpt>
      <trkpt lat="46.42071" lon="5.72431">
        <ele>627.6</ele>
        <time>2022-07-29T15:34:34Z</time>
      </trkpt>
      <trkpt lat="46.42077" lon="5.72432">
        <ele>627.6</ele>
        <time>2022-07-29T15:34:35Z</time>
      </trkpt>
      <trkpt lat="46.42082" lon="5.72434">
        <ele>627.6</ele>
        <time>2022-07-29T15:34:36Z</time>
      </trkpt>
      <trkpt lat="46.42087" lon="5.72436">
        <ele>627.6</ele>
        <time>2022-07-29T15:34:37Z</time>
      </trkpt>
      <trkpt lat="46.42093" lon="5.72437">
        <ele>627.6</ele>
        <time>2022-07-29T15:34:38Z</time>
      </trkpt>
      <trkpt lat="46.42098" lon="5.72439">
        <ele>627.6</ele>
        <time>2022-07-29T15:34:39Z</time>
      </trkpt>
      <trkpt lat="46.42103" lon="5.72441">
        <ele>627.6</ele>
        <time>2022-07-29T15:34:40Z</time>
      </trkpt>
      <trkpt lat="46.42109" lon="5.72442">
        <ele>627.8</ele>
        <time>2022-07-29T15:34:41Z</time>
      </trkpt>
      <trkpt lat="46.42114" lon="5.72444">
        <ele>627.8</ele>
        <time>2022-07-29T15:34:42Z</time>
      </trkpt>
      <trkpt lat="46.42119" lon="5.72445">
        <ele>627.8</ele>
        <time>2022-07-29T15:34:43Z</time>
      </trkpt>
      <trkpt lat="46.4213" lon="5.72448">
        <ele>627.8</ele>
        <time>2022-07-29T15:34:44Z</time>
      </trkpt>
      <trkpt lat="46.42136" lon="5.7245">
        <ele>627.8</ele>
        <time>2022-07-29T15:34:45Z</time>
      </trkpt>
      <trkpt lat="46.42142" lon="5.72452">
        <ele>627.8</ele>
        <time>2022-07-29T15:34:46Z</time>
      </trkpt>
      <trkpt lat="46.42147" lon="5.72453">
        <ele>627.8</ele>
        <time>2022-07-29T15:34:47Z</time>
      </trkpt>
      <trkpt lat="46.42153" lon="5.72455">
        <ele>627.8</ele>
        <time>2022-07-29T15:34:48Z</time>
      </trkpt>
      <trkpt lat="46.42159" lon="5.72456">
        <ele>627.8</ele>
        <time>2022-07-29T15:34:49Z</time>
      </trkpt>
      <trkpt lat="46.42165" lon="5.72458">
        <ele>627.6</ele>
        <time>2022-07-29T15:34:50Z</time>
      </trkpt>
      <trkpt lat="46.42172" lon="5.72459">
        <ele>627.6</ele>
        <time>2022-07-29T15:34:51Z</time>
      </trkpt>
      <trkpt lat="46.42178" lon="5.7246">
        <ele>627.2</ele>
        <time>2022-07-29T15:34:52Z</time>
      </trkpt>
      <trkpt lat="46.42184" lon="5.72461">
        <ele>627.2</ele>
        <time>2022-07-29T15:34:53Z</time>
      </trkpt>
      <trkpt lat="46.4219" lon="5.72463">
        <ele>627.2</ele>
        <time>2022-07-29T15:34:54Z</time>
      </trkpt>
      <trkpt lat="46.42197" lon="5.72464">
        <ele>627</ele>
        <time>2022-07-29T15:34:55Z</time>
      </trkpt>
      <trkpt lat="46.42203" lon="5.72465">
        <ele>627</ele>
        <time>2022-07-29T15:34:56Z</time>
      </trkpt>
      <trkpt lat="46.42209" lon="5.72466">
        <ele>626.8</ele>
        <time>2022-07-29T15:34:57Z</time>
      </trkpt>
      <trkpt lat="46.42214" lon="5.72467">
        <ele>626.6</ele>
        <time>2022-07-29T15:34:58Z</time>
      </trkpt>
      <trkpt lat="46.4222" lon="5.72468">
        <ele>626.6</ele>
        <time>2022-07-29T15:34:59Z</time>
      </trkpt>
      <trkpt lat="46.42226" lon="5.72469">
        <ele>626.2</ele>
        <time>2022-07-29T15:35:00Z</time>
      </trkpt>
      <trkpt lat="46.42232" lon="5.72471">
        <ele>626</ele>
        <time>2022-07-29T15:35:01Z</time>
      </trkpt>
      <trkpt lat="46.42238" lon="5.72472">
        <ele>625.8</ele>
        <time>2022-07-29T15:35:02Z</time>
      </trkpt>
      <trkpt lat="46.42245" lon="5.72473">
        <ele>625.8</ele>
        <time>2022-07-29T15:35:03Z</time>
      </trkpt>
      <trkpt lat="46.42251" lon="5.72474">
        <ele>625.4</ele>
        <time>2022-07-29T15:35:04Z</time>
      </trkpt>
      <trkpt lat="46.42257" lon="5.72476">
        <ele>625.2</ele>
        <time>2022-07-29T15:35:05Z</time>
      </trkpt>
      <trkpt lat="46.42263" lon="5.72477">
        <ele>625.2</ele>
        <time>2022-07-29T15:35:06Z</time>
      </trkpt>
      <trkpt lat="46.42269" lon="5.72478">
        <ele>624.8</ele>
        <time>2022-07-29T15:35:07Z</time>
      </trkpt>
      <trkpt lat="46.42275" lon="5.72479">
        <ele>624.8</ele>
        <time>2022-07-29T15:35:08Z</time>
      </trkpt>
      <trkpt lat="46.42281" lon="5.72481">
        <ele>624.4</ele>
        <time>2022-07-29T15:35:09Z</time>
      </trkpt>
      <trkpt lat="46.42287" lon="5.72482">
        <ele>624.4</ele>
        <time>2022-07-29T15:35:10Z</time>
      </trkpt>
      <trkpt lat="46.42293" lon="5.72483">
        <ele>624</ele>
        <time>2022-07-29T15:35:11Z</time>
      </trkpt>
      <trkpt lat="46.423" lon="5.72484">
        <ele>624</ele>
        <time>2022-07-29T15:35:12Z</time>
      </trkpt>
      <trkpt lat="46.42306" lon="5.72485">
        <ele>623.6</ele>
        <time>2022-07-29T15:35:13Z</time>
      </trkpt>
      <trkpt lat="46.42313" lon="5.72487">
        <ele>623.6</ele>
        <time>2022-07-29T15:35:14Z</time>
      </trkpt>
      <trkpt lat="46.42319" lon="5.72489">
        <ele>623.4</ele>
        <time>2022-07-29T15:35:15Z</time>
      </trkpt>
      <trkpt lat="46.42325" lon="5.7249">
        <ele>623.4</ele>
        <time>2022-07-29T15:35:16Z</time>
      </trkpt>
      <trkpt lat="46.4233" lon="5.72491">
        <ele>623</ele>
        <time>2022-07-29T15:35:17Z</time>
      </trkpt>
      <trkpt lat="46.42335" lon="5.72492">
        <ele>623</ele>
        <time>2022-07-29T15:35:18Z</time>
      </trkpt>
      <trkpt lat="46.4234" lon="5.72493">
        <ele>622.8</ele>
        <time>2022-07-29T15:35:19Z</time>
      </trkpt>
      <trkpt lat="46.42344" lon="5.72494">
        <ele>622.6</ele>
        <time>2022-07-29T15:35:20Z</time>
      </trkpt>
      <trkpt lat="46.42349" lon="5.72495">
        <ele>622.6</ele>
        <time>2022-07-29T15:35:21Z</time>
      </trkpt>
      <trkpt lat="46.42353" lon="5.72497">
        <ele>622.2</ele>
        <time>2022-07-29T15:35:22Z</time>
      </trkpt>
      <trkpt lat="46.42358" lon="5.72498">
        <ele>622.2</ele>
        <time>2022-07-29T15:35:23Z</time>
      </trkpt>
      <trkpt lat="46.42363" lon="5.72499">
        <ele>621.8</ele>
        <time>2022-07-29T15:35:24Z</time>
      </trkpt>
      <trkpt lat="46.42369" lon="5.72501">
        <ele>621.8</ele>
        <time>2022-07-29T15:35:25Z</time>
      </trkpt>
      <trkpt lat="46.42375" lon="5.72502">
        <ele>621.6</ele>
        <time>2022-07-29T15:35:26Z</time>
      </trkpt>
      <trkpt lat="46.42381" lon="5.72503">
        <ele>621.6</ele>
        <time>2022-07-29T15:35:27Z</time>
      </trkpt>
      <trkpt lat="46.42387" lon="5.72504">
        <ele>621.4</ele>
        <time>2022-07-29T15:35:28Z</time>
      </trkpt>
      <trkpt lat="46.42393" lon="5.72505">
        <ele>621.4</ele>
        <time>2022-07-29T15:35:29Z</time>
      </trkpt>
      <trkpt lat="46.424" lon="5.72506">
        <ele>621</ele>
        <time>2022-07-29T15:35:30Z</time>
      </trkpt>
      <trkpt lat="46.42406" lon="5.72507">
        <ele>621</ele>
        <time>2022-07-29T15:35:31Z</time>
      </trkpt>
      <trkpt lat="46.42413" lon="5.72509">
        <ele>620.6</ele>
        <time>2022-07-29T15:35:32Z</time>
      </trkpt>
      <trkpt lat="46.4242" lon="5.7251">
        <ele>620.6</ele>
        <time>2022-07-29T15:35:33Z</time>
      </trkpt>
      <trkpt lat="46.42427" lon="5.72511">
        <ele>620.4</ele>
        <time>2022-07-29T15:35:34Z</time>
      </trkpt>
      <trkpt lat="46.42434" lon="5.72513">
        <ele>620.4</ele>
        <time>2022-07-29T15:35:35Z</time>
      </trkpt>
      <trkpt lat="46.42442" lon="5.72514">
        <ele>620.4</ele>
        <time>2022-07-29T15:35:36Z</time>
      </trkpt>
      <trkpt lat="46.42449" lon="5.72516">
        <ele>620.2</ele>
        <time>2022-07-29T15:35:37Z</time>
      </trkpt>
      <trkpt lat="46.42456" lon="5.72518">
        <ele>620.2</ele>
        <time>2022-07-29T15:35:38Z</time>
      </trkpt>
      <trkpt lat="46.42464" lon="5.72519">
        <ele>620</ele>
        <time>2022-07-29T15:35:39Z</time>
      </trkpt>
      <trkpt lat="46.42471" lon="5.72521">
        <ele>620</ele>
        <time>2022-07-29T15:35:40Z</time>
      </trkpt>
      <trkpt lat="46.42479" lon="5.72522">
        <ele>619.6</ele>
        <time>2022-07-29T15:35:41Z</time>
      </trkpt>
      <trkpt lat="46.42486" lon="5.72524">
        <ele>619.6</ele>
        <time>2022-07-29T15:35:42Z</time>
      </trkpt>
      <trkpt lat="46.42494" lon="5.72526">
        <ele>619.4</ele>
        <time>2022-07-29T15:35:43Z</time>
      </trkpt>
      <trkpt lat="46.42501" lon="5.72527">
        <ele>619.4</ele>
        <time>2022-07-29T15:35:44Z</time>
      </trkpt>
      <trkpt lat="46.42508" lon="5.72529">
        <ele>619.2</ele>
        <time>2022-07-29T15:35:45Z</time>
      </trkpt>
      <trkpt lat="46.42516" lon="5.72531">
        <ele>619.2</ele>
        <time>2022-07-29T15:35:46Z</time>
      </trkpt>
      <trkpt lat="46.42523" lon="5.72533">
        <ele>618.8</ele>
        <time>2022-07-29T15:35:47Z</time>
      </trkpt>
      <trkpt lat="46.4253" lon="5.72534">
        <ele>618.8</ele>
        <time>2022-07-29T15:35:48Z</time>
      </trkpt>
      <trkpt lat="46.42537" lon="5.72535">
        <ele>618.4</ele>
        <time>2022-07-29T15:35:49Z</time>
      </trkpt>
      <trkpt lat="46.42544" lon="5.72537">
        <ele>618.4</ele>
        <time>2022-07-29T15:35:50Z</time>
      </trkpt>
      <trkpt lat="46.42551" lon="5.72538">
        <ele>618</ele>
        <time>2022-07-29T15:35:51Z</time>
      </trkpt>
      <trkpt lat="46.42558" lon="5.72539">
        <ele>618</ele>
        <time>2022-07-29T15:35:52Z</time>
      </trkpt>
      <trkpt lat="46.42564" lon="5.72541">
        <ele>618</ele>
        <time>2022-07-29T15:35:53Z</time>
      </trkpt>
      <trkpt lat="46.42571" lon="5.72542">
        <ele>617.8</ele>
        <time>2022-07-29T15:35:54Z</time>
      </trkpt>
      <trkpt lat="46.42577" lon="5.72543">
        <ele>617.8</ele>
        <time>2022-07-29T15:35:55Z</time>
      </trkpt>
      <trkpt lat="46.42584" lon="5.72545">
        <ele>617.8</ele>
        <time>2022-07-29T15:35:56Z</time>
      </trkpt>
      <trkpt lat="46.4259" lon="5.72546">
        <ele>617.8</ele>
        <time>2022-07-29T15:35:57Z</time>
      </trkpt>
      <trkpt lat="46.42596" lon="5.72547">
        <ele>617.4</ele>
        <time>2022-07-29T15:35:58Z</time>
      </trkpt>
      <trkpt lat="46.42603" lon="5.72548">
        <ele>617.4</ele>
        <time>2022-07-29T15:35:59Z</time>
      </trkpt>
      <trkpt lat="46.42609" lon="5.72549">
        <ele>617.4</ele>
        <time>2022-07-29T15:36:00Z</time>
      </trkpt>
      <trkpt lat="46.42616" lon="5.7255">
        <ele>617.4</ele>
        <time>2022-07-29T15:36:01Z</time>
      </trkpt>
      <trkpt lat="46.42622" lon="5.72551">
        <ele>617.4</ele>
        <time>2022-07-29T15:36:02Z</time>
      </trkpt>
      <trkpt lat="46.42629" lon="5.72552">
        <ele>617.4</ele>
        <time>2022-07-29T15:36:03Z</time>
      </trkpt>
      <trkpt lat="46.42629" lon="5.72552">
        <ele>617.4</ele>
        <time>2022-07-29T15:36:04Z</time>
      </trkpt>
      <trkpt lat="46.42635" lon="5.72553">
        <ele>617.2</ele>
        <time>2022-07-29T15:36:05Z</time>
      </trkpt>
      <trkpt lat="46.42642" lon="5.72555">
        <ele>617.2</ele>
        <time>2022-07-29T15:36:06Z</time>
      </trkpt>
      <trkpt lat="46.42648" lon="5.72556">
        <ele>617.2</ele>
        <time>2022-07-29T15:36:07Z</time>
      </trkpt>
      <trkpt lat="46.42654" lon="5.72557">
        <ele>617.2</ele>
        <time>2022-07-29T15:36:08Z</time>
      </trkpt>
      <trkpt lat="46.42661" lon="5.72558">
        <ele>617.2</ele>
        <time>2022-07-29T15:36:09Z</time>
      </trkpt>
      <trkpt lat="46.42674" lon="5.72561">
        <ele>617.2</ele>
        <time>2022-07-29T15:36:10Z</time>
      </trkpt>
      <trkpt lat="46.4268" lon="5.72562">
        <ele>617</ele>
        <time>2022-07-29T15:36:11Z</time>
      </trkpt>
      <trkpt lat="46.42686" lon="5.72564">
        <ele>617</ele>
        <time>2022-07-29T15:36:12Z</time>
      </trkpt>
      <trkpt lat="46.42692" lon="5.72565">
        <ele>616.6</ele>
        <time>2022-07-29T15:36:13Z</time>
      </trkpt>
      <trkpt lat="46.42698" lon="5.72567">
        <ele>616.6</ele>
        <time>2022-07-29T15:36:14Z</time>
      </trkpt>
      <trkpt lat="46.42705" lon="5.72568">
        <ele>616.6</ele>
        <time>2022-07-29T15:36:15Z</time>
      </trkpt>
      <trkpt lat="46.42711" lon="5.72569">
        <ele>616.6</ele>
        <time>2022-07-29T15:36:16Z</time>
      </trkpt>
      <trkpt lat="46.42717" lon="5.7257">
        <ele>616.6</ele>
        <time>2022-07-29T15:36:17Z</time>
      </trkpt>
      <trkpt lat="46.42723" lon="5.72571">
        <ele>616.6</ele>
        <time>2022-07-29T15:36:18Z</time>
      </trkpt>
      <trkpt lat="46.42729" lon="5.72572">
        <ele>616.6</ele>
        <time>2022-07-29T15:36:19Z</time>
      </trkpt>
      <trkpt lat="46.42735" lon="5.72574">
        <ele>616.6</ele>
        <time>2022-07-29T15:36:20Z</time>
      </trkpt>
      <trkpt lat="46.42741" lon="5.72575">
        <ele>616.6</ele>
        <time>2022-07-29T15:36:21Z</time>
      </trkpt>
      <trkpt lat="46.42747" lon="5.72576">
        <ele>616.6</ele>
        <time>2022-07-29T15:36:22Z</time>
      </trkpt>
      <trkpt lat="46.42754" lon="5.72578">
        <ele>616.6</ele>
        <time>2022-07-29T15:36:23Z</time>
      </trkpt>
      <trkpt lat="46.4276" lon="5.72579">
        <ele>616.4</ele>
        <time>2022-07-29T15:36:24Z</time>
      </trkpt>
      <trkpt lat="46.42766" lon="5.7258">
        <ele>616.4</ele>
        <time>2022-07-29T15:36:25Z</time>
      </trkpt>
      <trkpt lat="46.42772" lon="5.72581">
        <ele>616.4</ele>
        <time>2022-07-29T15:36:26Z</time>
      </trkpt>
      <trkpt lat="46.42778" lon="5.72582">
        <ele>616.2</ele>
        <time>2022-07-29T15:36:27Z</time>
      </trkpt>
      <trkpt lat="46.42784" lon="5.72583">
        <ele>616.2</ele>
        <time>2022-07-29T15:36:28Z</time>
      </trkpt>
      <trkpt lat="46.42791" lon="5.72584">
        <ele>616.2</ele>
        <time>2022-07-29T15:36:29Z</time>
      </trkpt>
      <trkpt lat="46.42797" lon="5.72586">
        <ele>616.2</ele>
        <time>2022-07-29T15:36:30Z</time>
      </trkpt>
      <trkpt lat="46.42803" lon="5.72587">
        <ele>616.2</ele>
        <time>2022-07-29T15:36:31Z</time>
      </trkpt>
      <trkpt lat="46.42809" lon="5.72588">
        <ele>616.2</ele>
        <time>2022-07-29T15:36:32Z</time>
      </trkpt>
      <trkpt lat="46.42815" lon="5.7259">
        <ele>616.2</ele>
        <time>2022-07-29T15:36:33Z</time>
      </trkpt>
      <trkpt lat="46.42821" lon="5.72591">
        <ele>616.2</ele>
        <time>2022-07-29T15:36:34Z</time>
      </trkpt>
      <trkpt lat="46.42826" lon="5.72592">
        <ele>616.2</ele>
        <time>2022-07-29T15:36:35Z</time>
      </trkpt>
      <trkpt lat="46.42832" lon="5.72593">
        <ele>616.2</ele>
        <time>2022-07-29T15:36:36Z</time>
      </trkpt>
      <trkpt lat="46.42838" lon="5.72594">
        <ele>616</ele>
        <time>2022-07-29T15:36:37Z</time>
      </trkpt>
      <trkpt lat="46.42843" lon="5.72596">
        <ele>616</ele>
        <time>2022-07-29T15:36:38Z</time>
      </trkpt>
      <trkpt lat="46.42849" lon="5.72597">
        <ele>616</ele>
        <time>2022-07-29T15:36:39Z</time>
      </trkpt>
      <trkpt lat="46.42854" lon="5.72598">
        <ele>616</ele>
        <time>2022-07-29T15:36:40Z</time>
      </trkpt>
      <trkpt lat="46.42859" lon="5.72599">
        <ele>616</ele>
        <time>2022-07-29T15:36:41Z</time>
      </trkpt>
      <trkpt lat="46.42864" lon="5.726">
        <ele>616</ele>
        <time>2022-07-29T15:36:42Z</time>
      </trkpt>
      <trkpt lat="46.4287" lon="5.72601">
        <ele>616</ele>
        <time>2022-07-29T15:36:43Z</time>
      </trkpt>
      <trkpt lat="46.42875" lon="5.72602">
        <ele>616</ele>
        <time>2022-07-29T15:36:44Z</time>
      </trkpt>
      <trkpt lat="46.4288" lon="5.72603">
        <ele>616</ele>
        <time>2022-07-29T15:36:45Z</time>
      </trkpt>
      <trkpt lat="46.42884" lon="5.72604">
        <ele>616</ele>
        <time>2022-07-29T15:36:46Z</time>
      </trkpt>
      <trkpt lat="46.42889" lon="5.72605">
        <ele>616</ele>
        <time>2022-07-29T15:36:47Z</time>
      </trkpt>
      <trkpt lat="46.42893" lon="5.72606">
        <ele>616</ele>
        <time>2022-07-29T15:36:48Z</time>
      </trkpt>
      <trkpt lat="46.42896" lon="5.72607">
        <ele>616</ele>
        <time>2022-07-29T15:36:49Z</time>
      </trkpt>
      <trkpt lat="46.429" lon="5.72608">
        <ele>616.2</ele>
        <time>2022-07-29T15:36:50Z</time>
      </trkpt>
      <trkpt lat="46.42903" lon="5.7261">
        <ele>616.2</ele>
        <time>2022-07-29T15:36:51Z</time>
      </trkpt>
      <trkpt lat="46.42905" lon="5.72611">
        <ele>616.2</ele>
        <time>2022-07-29T15:36:52Z</time>
      </trkpt>
      <trkpt lat="46.42906" lon="5.72612">
        <ele>616.2</ele>
        <time>2022-07-29T15:36:53Z</time>
      </trkpt>
      <trkpt lat="46.42907" lon="5.72612">
        <ele>616.2</ele>
        <time>2022-07-29T15:36:54Z</time>
      </trkpt>
      <trkpt lat="46.42906" lon="5.72612">
        <ele>616.2</ele>
        <time>2022-07-29T15:36:55Z</time>
      </trkpt>
      <trkpt lat="46.42906" lon="5.72612">
        <ele>616.2</ele>
        <time>2022-07-29T15:36:56Z</time>
      </trkpt>
      <trkpt lat="46.42906" lon="5.72612">
        <ele>616.2</ele>
        <time>2022-07-29T15:36:57Z</time>
      </trkpt>
      <trkpt lat="46.42906" lon="5.72612">
        <ele>616.2</ele>
        <time>2022-07-29T15:36:58Z</time>
      </trkpt>
      <trkpt lat="46.42906" lon="5.72612">
        <ele>616.2</ele>
        <time>2022-07-29T15:36:59Z</time>
      </trkpt>
      <trkpt lat="46.42906" lon="5.72612">
        <ele>616.2</ele>
        <time>2022-07-29T15:37:00Z</time>
      </trkpt>
      <trkpt lat="46.42906" lon="5.72612">
        <ele>616.2</ele>
        <time>2022-07-29T15:37:01Z</time>
      </trkpt>
      <trkpt lat="46.42906" lon="5.72612">
        <ele>616.2</ele>
        <time>2022-07-29T15:37:02Z</time>
      </trkpt>
      <trkpt lat="46.42906" lon="5.72612">
        <ele>616.2</ele>
        <time>2022-07-29T15:37:03Z</time>
      </trkpt>
      <trkpt lat="46.42906" lon="5.72612">
        <ele>616.2</ele>
        <time>2022-07-29T15:37:04Z</time>
      </trkpt>
      <trkpt lat="46.42906" lon="5.72612">
        <ele>616.2</ele>
        <time>2022-07-29T15:37:05Z</time>
      </trkpt>
      <trkpt lat="46.429" lon="5.72612">
        <ele>616.2</ele>
        <time>2022-07-29T15:37:08Z</time>
      </trkpt>
      <trkpt lat="46.42899" lon="5.72611">
        <ele>616.2</ele>
        <time>2022-07-29T15:37:09Z</time>
      </trkpt>
      <trkpt lat="46.42898" lon="5.72611">
        <ele>616.2</ele>
        <time>2022-07-29T15:37:10Z</time>
      </trkpt>
      <trkpt lat="46.42897" lon="5.72611">
        <ele>616.2</ele>
        <time>2022-07-29T15:37:11Z</time>
      </trkpt>
      <trkpt lat="46.42897" lon="5.72612">
        <ele>616.2</ele>
        <time>2022-07-29T15:37:12Z</time>
      </trkpt>
      <trkpt lat="46.42897" lon="5.72612">
        <ele>616.2</ele>
        <time>2022-07-29T15:37:13Z</time>
      </trkpt>
      <trkpt lat="46.42897" lon="5.72612">
        <ele>616.2</ele>
        <time>2022-07-29T15:37:15Z</time>
      </trkpt>
      <trkpt lat="46.42897" lon="5.72612">
        <ele>616.2</ele>
        <time>2022-07-29T15:37:16Z</time>
      </trkpt>
      <trkpt lat="46.42897" lon="5.72612">
        <ele>616.2</ele>
        <time>2022-07-29T15:37:17Z</time>
      </trkpt>
      <trkpt lat="46.42897" lon="5.72612">
        <ele>616.2</ele>
        <time>2022-07-29T15:37:18Z</time>
      </trkpt>
      <trkpt lat="46.42897" lon="5.72612">
        <ele>616.2</ele>
        <time>2022-07-29T15:37:19Z</time>
      </trkpt>
      <trkpt lat="46.42897" lon="5.72612">
        <ele>616.2</ele>
        <time>2022-07-29T15:37:20Z</time>
      </trkpt>
      <trkpt lat="46.42897" lon="5.72612">
        <ele>616.4</ele>
        <time>2022-07-29T15:37:21Z</time>
      </trkpt>
      <trkpt lat="46.42897" lon="5.72612">
        <ele>616.4</ele>
        <time>2022-07-29T15:37:22Z</time>
      </trkpt>
      <trkpt lat="46.42897" lon="5.72612">
        <ele>616.4</ele>
        <time>2022-07-29T15:37:23Z</time>
      </trkpt>
      <trkpt lat="46.42897" lon="5.72612">
        <ele>616.4</ele>
        <time>2022-07-29T15:37:24Z</time>
      </trkpt>
      <trkpt lat="46.42897" lon="5.72612">
        <ele>616.6</ele>
        <time>2022-07-29T15:38:19Z</time>
      </trkpt>
      <trkpt lat="46.42897" lon="5.72612">
        <ele>616.6</ele>
        <time>2022-07-29T15:38:20Z</time>
      </trkpt>
      <trkpt lat="46.42897" lon="5.72612">
        <ele>616.6</ele>
        <time>2022-07-29T15:38:21Z</time>
      </trkpt>
      <trkpt lat="46.42897" lon="5.72612">
        <ele>616.6</ele>
        <time>2022-07-29T15:38:22Z</time>
      </trkpt>
      <trkpt lat="46.42897" lon="5.72612">
        <ele>616.6</ele>
        <time>2022-07-29T15:38:23Z</time>
      </trkpt>
      <trkpt lat="46.42897" lon="5.72612">
        <ele>616.6</ele>
        <time>2022-07-29T15:38:24Z</time>
      </trkpt>
      <trkpt lat="46.42897" lon="5.72612">
        <ele>616.6</ele>
        <time>2022-07-29T15:38:25Z</time>
      </trkpt>
      <trkpt lat="46.42897" lon="5.72612">
        <ele>616.6</ele>
        <time>2022-07-29T15:38:27Z</time>
      </trkpt>
      <trkpt lat="46.42897" lon="5.72612">
        <ele>616.6</ele>
        <time>2022-07-29T15:38:28Z</time>
      </trkpt>
      <trkpt lat="46.42897" lon="5.72612">
        <ele>616.6</ele>
        <time>2022-07-29T15:38:29Z</time>
      </trkpt>
      <trkpt lat="46.42901" lon="5.72612">
        <ele>616.6</ele>
        <time>2022-07-29T15:38:30Z</time>
      </trkpt>
      <trkpt lat="46.42903" lon="5.72612">
        <ele>616.6</ele>
        <time>2022-07-29T15:38:31Z</time>
      </trkpt>
      <trkpt lat="46.42905" lon="5.72611">
        <ele>616.6</ele>
        <time>2022-07-29T15:38:32Z</time>
      </trkpt>
      <trkpt lat="46.42908" lon="5.72611">
        <ele>616.6</ele>
        <time>2022-07-29T15:38:33Z</time>
      </trkpt>
      <trkpt lat="46.42912" lon="5.72611">
        <ele>616.6</ele>
        <time>2022-07-29T15:38:34Z</time>
      </trkpt>
      <trkpt lat="46.42915" lon="5.7261">
        <ele>616.6</ele>
        <time>2022-07-29T15:38:35Z</time>
      </trkpt>
      <trkpt lat="46.42919" lon="5.7261">
        <ele>616.6</ele>
        <time>2022-07-29T15:38:36Z</time>
      </trkpt>
      <trkpt lat="46.42923" lon="5.7261">
        <ele>616.6</ele>
        <time>2022-07-29T15:38:37Z</time>
      </trkpt>
      <trkpt lat="46.42926" lon="5.72611">
        <ele>616.6</ele>
        <time>2022-07-29T15:38:38Z</time>
      </trkpt>
      <trkpt lat="46.4293" lon="5.72611">
        <ele>616.6</ele>
        <time>2022-07-29T15:38:39Z</time>
      </trkpt>
      <trkpt lat="46.42934" lon="5.7261">
        <ele>617</ele>
        <time>2022-07-29T15:38:40Z</time>
      </trkpt>
      <trkpt lat="46.42938" lon="5.72609">
        <ele>617</ele>
        <time>2022-07-29T15:38:41Z</time>
      </trkpt>
      <trkpt lat="46.42944" lon="5.72606">
        <ele>617</ele>
        <time>2022-07-29T15:38:42Z</time>
      </trkpt>
      <trkpt lat="46.42949" lon="5.72603">
        <ele>617</ele>
        <time>2022-07-29T15:38:43Z</time>
      </trkpt>
      <trkpt lat="46.42955" lon="5.72599">
        <ele>617.2</ele>
        <time>2022-07-29T15:38:44Z</time>
      </trkpt>
      <trkpt lat="46.42959" lon="5.72594">
        <ele>617.2</ele>
        <time>2022-07-29T15:38:45Z</time>
      </trkpt>
      <trkpt lat="46.42964" lon="5.72589">
        <ele>617.6</ele>
        <time>2022-07-29T15:38:46Z</time>
      </trkpt>
      <trkpt lat="46.42968" lon="5.72583">
        <ele>617.6</ele>
        <time>2022-07-29T15:38:47Z</time>
      </trkpt>
      <trkpt lat="46.42972" lon="5.72577">
        <ele>617.8</ele>
        <time>2022-07-29T15:38:48Z</time>
      </trkpt>
      <trkpt lat="46.42976" lon="5.7257">
        <ele>617.8</ele>
        <time>2022-07-29T15:38:49Z</time>
      </trkpt>
      <trkpt lat="46.42979" lon="5.72564">
        <ele>617.8</ele>
        <time>2022-07-29T15:38:50Z</time>
      </trkpt>
      <trkpt lat="46.42983" lon="5.72559">
        <ele>618.2</ele>
        <time>2022-07-29T15:38:51Z</time>
      </trkpt>
      <trkpt lat="46.42988" lon="5.72556">
        <ele>618.2</ele>
        <time>2022-07-29T15:38:52Z</time>
      </trkpt>
      <trkpt lat="46.42993" lon="5.72554">
        <ele>618.2</ele>
        <time>2022-07-29T15:38:53Z</time>
      </trkpt>
      <trkpt lat="46.42997" lon="5.72553">
        <ele>618.2</ele>
        <time>2022-07-29T15:38:54Z</time>
      </trkpt>
      <trkpt lat="46.43002" lon="5.72554">
        <ele>617.8</ele>
        <time>2022-07-29T15:38:55Z</time>
      </trkpt>
      <trkpt lat="46.43007" lon="5.72554">
        <ele>617.8</ele>
        <time>2022-07-29T15:38:56Z</time>
      </trkpt>
      <trkpt lat="46.43013" lon="5.72556">
        <ele>617.6</ele>
        <time>2022-07-29T15:38:57Z</time>
      </trkpt>
      <trkpt lat="46.43018" lon="5.72557">
        <ele>617.6</ele>
        <time>2022-07-29T15:38:58Z</time>
      </trkpt>
      <trkpt lat="46.43026" lon="5.72557">
        <ele>617.4</ele>
        <time>2022-07-29T15:38:59Z</time>
      </trkpt>
      <trkpt lat="46.43033" lon="5.72558">
        <ele>617</ele>
        <time>2022-07-29T15:39:00Z</time>
      </trkpt>
      <trkpt lat="46.43041" lon="5.7256">
        <ele>617</ele>
        <time>2022-07-29T15:39:01Z</time>
      </trkpt>
      <trkpt lat="46.4305" lon="5.72561">
        <ele>616.8</ele>
        <time>2022-07-29T15:39:02Z</time>
      </trkpt>
      <trkpt lat="46.43059" lon="5.72562">
        <ele>616.8</ele>
        <time>2022-07-29T15:39:03Z</time>
      </trkpt>
      <trkpt lat="46.43066" lon="5.72564">
        <ele>616.4</ele>
        <time>2022-07-29T15:39:04Z</time>
      </trkpt>
      <trkpt lat="46.43074" lon="5.72565">
        <ele>616.2</ele>
        <time>2022-07-29T15:39:05Z</time>
      </trkpt>
      <trkpt lat="46.4308" lon="5.72565">
        <ele>616.2</ele>
        <time>2022-07-29T15:39:06Z</time>
      </trkpt>
      <trkpt lat="46.43087" lon="5.72566">
        <ele>615.8</ele>
        <time>2022-07-29T15:39:07Z</time>
      </trkpt>
      <trkpt lat="46.43094" lon="5.72567">
        <ele>615.6</ele>
        <time>2022-07-29T15:39:08Z</time>
      </trkpt>
      <trkpt lat="46.43101" lon="5.72567">
        <ele>615.6</ele>
        <time>2022-07-29T15:39:09Z</time>
      </trkpt>
      <trkpt lat="46.43108" lon="5.72567">
        <ele>615.4</ele>
        <time>2022-07-29T15:39:10Z</time>
      </trkpt>
      <trkpt lat="46.43115" lon="5.72567">
        <ele>615.4</ele>
        <time>2022-07-29T15:39:11Z</time>
      </trkpt>
      <trkpt lat="46.4312" lon="5.72567">
        <ele>615.2</ele>
        <time>2022-07-29T15:39:12Z</time>
      </trkpt>
      <trkpt lat="46.43126" lon="5.72567">
        <ele>615.2</ele>
        <time>2022-07-29T15:39:13Z</time>
      </trkpt>
      <trkpt lat="46.43132" lon="5.72567">
        <ele>614.8</ele>
        <time>2022-07-29T15:39:14Z</time>
      </trkpt>
      <trkpt lat="46.43137" lon="5.72567">
        <ele>614.8</ele>
        <time>2022-07-29T15:39:15Z</time>
      </trkpt>
      <trkpt lat="46.43142" lon="5.72567">
        <ele>614.6</ele>
        <time>2022-07-29T15:39:16Z</time>
      </trkpt>
      <trkpt lat="46.43149" lon="5.72566">
        <ele>614.6</ele>
        <time>2022-07-29T15:39:17Z</time>
      </trkpt>
      <trkpt lat="46.43158" lon="5.72565">
        <ele>614.4</ele>
        <time>2022-07-29T15:39:18Z</time>
      </trkpt>
      <trkpt lat="46.43166" lon="5.72564">
        <ele>614.4</ele>
        <time>2022-07-29T15:39:19Z</time>
      </trkpt>
      <trkpt lat="46.43172" lon="5.72564">
        <ele>614.2</ele>
        <time>2022-07-29T15:39:20Z</time>
      </trkpt>
      <trkpt lat="46.43179" lon="5.72563">
        <ele>614.2</ele>
        <time>2022-07-29T15:39:21Z</time>
      </trkpt>
      <trkpt lat="46.43186" lon="5.72563">
        <ele>613.8</ele>
        <time>2022-07-29T15:39:22Z</time>
      </trkpt>
      <trkpt lat="46.43192" lon="5.72564">
        <ele>613.8</ele>
        <time>2022-07-29T15:39:23Z</time>
      </trkpt>
      <trkpt lat="46.43198" lon="5.72564">
        <ele>613.6</ele>
        <time>2022-07-29T15:39:24Z</time>
      </trkpt>
      <trkpt lat="46.43205" lon="5.72564">
        <ele>613.6</ele>
        <time>2022-07-29T15:39:25Z</time>
      </trkpt>
      <trkpt lat="46.43212" lon="5.72564">
        <ele>613.2</ele>
        <time>2022-07-29T15:39:26Z</time>
      </trkpt>
      <trkpt lat="46.43219" lon="5.72564">
        <ele>613.2</ele>
        <time>2022-07-29T15:39:27Z</time>
      </trkpt>
      <trkpt lat="46.43226" lon="5.72564">
        <ele>613.2</ele>
        <time>2022-07-29T15:39:28Z</time>
      </trkpt>
      <trkpt lat="46.43233" lon="5.72562">
        <ele>613</ele>
        <time>2022-07-29T15:39:29Z</time>
      </trkpt>
      <trkpt lat="46.43241" lon="5.7256">
        <ele>613</ele>
        <time>2022-07-29T15:39:30Z</time>
      </trkpt>
      <trkpt lat="46.43249" lon="5.72562">
        <ele>612.6</ele>
        <time>2022-07-29T15:39:31Z</time>
      </trkpt>
      <trkpt lat="46.43257" lon="5.72562">
        <ele>612.6</ele>
        <time>2022-07-29T15:39:32Z</time>
      </trkpt>
      <trkpt lat="46.43265" lon="5.72563">
        <ele>612.6</ele>
        <time>2022-07-29T15:39:33Z</time>
      </trkpt>
      <trkpt lat="46.43272" lon="5.72564">
        <ele>612.6</ele>
        <time>2022-07-29T15:39:34Z</time>
      </trkpt>
      <trkpt lat="46.43279" lon="5.72564">
        <ele>612.4</ele>
        <time>2022-07-29T15:39:35Z</time>
      </trkpt>
      <trkpt lat="46.43286" lon="5.72565">
        <ele>612.4</ele>
        <time>2022-07-29T15:39:36Z</time>
      </trkpt>
      <trkpt lat="46.43292" lon="5.72565">
        <ele>612.4</ele>
        <time>2022-07-29T15:39:37Z</time>
      </trkpt>
      <trkpt lat="46.433" lon="5.72565">
        <ele>612.4</ele>
        <time>2022-07-29T15:39:38Z</time>
      </trkpt>
      <trkpt lat="46.43308" lon="5.72565">
        <ele>612</ele>
        <time>2022-07-29T15:39:39Z</time>
      </trkpt>
      <trkpt lat="46.43317" lon="5.72567">
        <ele>612</ele>
        <time>2022-07-29T15:39:40Z</time>
      </trkpt>
      <trkpt lat="46.43325" lon="5.72567">
        <ele>612</ele>
        <time>2022-07-29T15:39:41Z</time>
      </trkpt>
      <trkpt lat="46.43333" lon="5.72568">
        <ele>611.8</ele>
        <time>2022-07-29T15:39:42Z</time>
      </trkpt>
      <trkpt lat="46.4334" lon="5.72568">
        <ele>611.8</ele>
        <time>2022-07-29T15:39:43Z</time>
      </trkpt>
      <trkpt lat="46.43348" lon="5.72568">
        <ele>611.4</ele>
        <time>2022-07-29T15:39:44Z</time>
      </trkpt>
      <trkpt lat="46.43355" lon="5.72569">
        <ele>611.4</ele>
        <time>2022-07-29T15:39:45Z</time>
      </trkpt>
      <trkpt lat="46.43361" lon="5.72569">
        <ele>611.4</ele>
        <time>2022-07-29T15:39:46Z</time>
      </trkpt>
      <trkpt lat="46.43368" lon="5.72568">
        <ele>611.4</ele>
        <time>2022-07-29T15:39:47Z</time>
      </trkpt>
      <trkpt lat="46.43374" lon="5.72566">
        <ele>611.4</ele>
        <time>2022-07-29T15:39:48Z</time>
      </trkpt>
      <trkpt lat="46.43381" lon="5.72564">
        <ele>611.4</ele>
        <time>2022-07-29T15:39:49Z</time>
      </trkpt>
      <trkpt lat="46.43388" lon="5.72561">
        <ele>611.2</ele>
        <time>2022-07-29T15:39:50Z</time>
      </trkpt>
      <trkpt lat="46.43394" lon="5.72559">
        <ele>611.2</ele>
        <time>2022-07-29T15:39:51Z</time>
      </trkpt>
      <trkpt lat="46.434" lon="5.72556">
        <ele>610.8</ele>
        <time>2022-07-29T15:39:52Z</time>
      </trkpt>
      <trkpt lat="46.43407" lon="5.72553">
        <ele>610.8</ele>
        <time>2022-07-29T15:39:53Z</time>
      </trkpt>
      <trkpt lat="46.43413" lon="5.72551">
        <ele>610.6</ele>
        <time>2022-07-29T15:39:54Z</time>
      </trkpt>
      <trkpt lat="46.4342" lon="5.72548">
        <ele>610.6</ele>
        <time>2022-07-29T15:39:55Z</time>
      </trkpt>
      <trkpt lat="46.43427" lon="5.72545">
        <ele>610.4</ele>
        <time>2022-07-29T15:39:56Z</time>
      </trkpt>
      <trkpt lat="46.43434" lon="5.72542">
        <ele>610.2</ele>
        <time>2022-07-29T15:39:57Z</time>
      </trkpt>
      <trkpt lat="46.43441" lon="5.72539">
        <ele>610.2</ele>
        <time>2022-07-29T15:39:58Z</time>
      </trkpt>
      <trkpt lat="46.43447" lon="5.72536">
        <ele>610.2</ele>
        <time>2022-07-29T15:39:59Z</time>
      </trkpt>
      <trkpt lat="46.43454" lon="5.72533">
        <ele>609.8</ele>
        <time>2022-07-29T15:40:00Z</time>
      </trkpt>
      <trkpt lat="46.43461" lon="5.7253">
        <ele>609.8</ele>
        <time>2022-07-29T15:40:01Z</time>
      </trkpt>
      <trkpt lat="46.43468" lon="5.72526">
        <ele>609.6</ele>
        <time>2022-07-29T15:40:02Z</time>
      </trkpt>
      <trkpt lat="46.43475" lon="5.72523">
        <ele>609.6</ele>
        <time>2022-07-29T15:40:03Z</time>
      </trkpt>
      <trkpt lat="46.43482" lon="5.72519">
        <ele>609.2</ele>
        <time>2022-07-29T15:40:04Z</time>
      </trkpt>
      <trkpt lat="46.43489" lon="5.72516">
        <ele>609.2</ele>
        <time>2022-07-29T15:40:05Z</time>
      </trkpt>
      <trkpt lat="46.43497" lon="5.72512">
        <ele>608.8</ele>
        <time>2022-07-29T15:40:06Z</time>
      </trkpt>
      <trkpt lat="46.43504" lon="5.72508">
        <ele>608.8</ele>
        <time>2022-07-29T15:40:07Z</time>
      </trkpt>
      <trkpt lat="46.43512" lon="5.72505">
        <ele>608.4</ele>
        <time>2022-07-29T15:40:08Z</time>
      </trkpt>
      <trkpt lat="46.43519" lon="5.72501">
        <ele>608.2</ele>
        <time>2022-07-29T15:40:09Z</time>
      </trkpt>
      <trkpt lat="46.43526" lon="5.72497">
        <ele>607.8</ele>
        <time>2022-07-29T15:40:10Z</time>
      </trkpt>
      <trkpt lat="46.43533" lon="5.72494">
        <ele>607.8</ele>
        <time>2022-07-29T15:40:11Z</time>
      </trkpt>
      <trkpt lat="46.43541" lon="5.7249">
        <ele>607.8</ele>
        <time>2022-07-29T15:40:12Z</time>
      </trkpt>
      <trkpt lat="46.43548" lon="5.72487">
        <ele>607.6</ele>
        <time>2022-07-29T15:40:13Z</time>
      </trkpt>
      <trkpt lat="46.43555" lon="5.72483">
        <ele>607.6</ele>
        <time>2022-07-29T15:40:14Z</time>
      </trkpt>
      <trkpt lat="46.43562" lon="5.7248">
        <ele>607.2</ele>
        <time>2022-07-29T15:40:15Z</time>
      </trkpt>
      <trkpt lat="46.43568" lon="5.72477">
        <ele>607.2</ele>
        <time>2022-07-29T15:40:16Z</time>
      </trkpt>
      <trkpt lat="46.43575" lon="5.72473">
        <ele>607</ele>
        <time>2022-07-29T15:40:17Z</time>
      </trkpt>
      <trkpt lat="46.43581" lon="5.7247">
        <ele>607</ele>
        <time>2022-07-29T15:40:18Z</time>
      </trkpt>
      <trkpt lat="46.43588" lon="5.72467">
        <ele>607</ele>
        <time>2022-07-29T15:40:19Z</time>
      </trkpt>
      <trkpt lat="46.43594" lon="5.72464">
        <ele>606.6</ele>
        <time>2022-07-29T15:40:20Z</time>
      </trkpt>
      <trkpt lat="46.436" lon="5.72461">
        <ele>606.6</ele>
        <time>2022-07-29T15:40:21Z</time>
      </trkpt>
      <trkpt lat="46.43606" lon="5.72459">
        <ele>606.4</ele>
        <time>2022-07-29T15:40:22Z</time>
      </trkpt>
      <trkpt lat="46.43612" lon="5.72456">
        <ele>606.4</ele>
        <time>2022-07-29T15:40:23Z</time>
      </trkpt>
      <trkpt lat="46.43618" lon="5.72453">
        <ele>606.2</ele>
        <time>2022-07-29T15:40:24Z</time>
      </trkpt>
      <trkpt lat="46.43623" lon="5.72449">
        <ele>606.2</ele>
        <time>2022-07-29T15:40:25Z</time>
      </trkpt>
      <trkpt lat="46.43629" lon="5.72447">
        <ele>606.2</ele>
        <time>2022-07-29T15:40:26Z</time>
      </trkpt>
      <trkpt lat="46.43635" lon="5.72444">
        <ele>606.2</ele>
        <time>2022-07-29T15:40:27Z</time>
      </trkpt>
      <trkpt lat="46.4364" lon="5.72441">
        <ele>606.2</ele>
        <time>2022-07-29T15:40:28Z</time>
      </trkpt>
      <trkpt lat="46.43646" lon="5.72438">
        <ele>606.2</ele>
        <time>2022-07-29T15:40:29Z</time>
      </trkpt>
      <trkpt lat="46.43652" lon="5.72435">
        <ele>606.2</ele>
        <time>2022-07-29T15:40:30Z</time>
      </trkpt>
      <trkpt lat="46.43659" lon="5.72431">
        <ele>606.2</ele>
        <time>2022-07-29T15:40:31Z</time>
      </trkpt>
      <trkpt lat="46.43665" lon="5.72428">
        <ele>606</ele>
        <time>2022-07-29T15:40:32Z</time>
      </trkpt>
      <trkpt lat="46.43672" lon="5.72425">
        <ele>606</ele>
        <time>2022-07-29T15:40:33Z</time>
      </trkpt>
      <trkpt lat="46.43678" lon="5.72422">
        <ele>606</ele>
        <time>2022-07-29T15:40:34Z</time>
      </trkpt>
      <trkpt lat="46.43685" lon="5.72419">
        <ele>606</ele>
        <time>2022-07-29T15:40:35Z</time>
      </trkpt>
      <trkpt lat="46.43691" lon="5.72416">
        <ele>605.8</ele>
        <time>2022-07-29T15:40:36Z</time>
      </trkpt>
      <trkpt lat="46.43697" lon="5.72412">
        <ele>605.8</ele>
        <time>2022-07-29T15:40:37Z</time>
      </trkpt>
      <trkpt lat="46.43703" lon="5.72409">
        <ele>605.8</ele>
        <time>2022-07-29T15:40:38Z</time>
      </trkpt>
      <trkpt lat="46.4371" lon="5.72406">
        <ele>605.6</ele>
        <time>2022-07-29T15:40:39Z</time>
      </trkpt>
      <trkpt lat="46.43716" lon="5.72403">
        <ele>605.6</ele>
        <time>2022-07-29T15:40:40Z</time>
      </trkpt>
      <trkpt lat="46.43722" lon="5.724">
        <ele>605.4</ele>
        <time>2022-07-29T15:40:41Z</time>
      </trkpt>
      <trkpt lat="46.43728" lon="5.72396">
        <ele>605.4</ele>
        <time>2022-07-29T15:40:42Z</time>
      </trkpt>
      <trkpt lat="46.43734" lon="5.72393">
        <ele>605.4</ele>
        <time>2022-07-29T15:40:43Z</time>
      </trkpt>
      <trkpt lat="46.4374" lon="5.72389">
        <ele>605.4</ele>
        <time>2022-07-29T15:40:44Z</time>
      </trkpt>
      <trkpt lat="46.43746" lon="5.72385">
        <ele>605.4</ele>
        <time>2022-07-29T15:40:45Z</time>
      </trkpt>
      <trkpt lat="46.43751" lon="5.72381">
        <ele>605.4</ele>
        <time>2022-07-29T15:40:46Z</time>
      </trkpt>
      <trkpt lat="46.43757" lon="5.72376">
        <ele>605.4</ele>
        <time>2022-07-29T15:40:47Z</time>
      </trkpt>
      <trkpt lat="46.43762" lon="5.72371">
        <ele>605.4</ele>
        <time>2022-07-29T15:40:48Z</time>
      </trkpt>
      <trkpt lat="46.43768" lon="5.72366">
        <ele>605.4</ele>
        <time>2022-07-29T15:40:49Z</time>
      </trkpt>
      <trkpt lat="46.43773" lon="5.7236">
        <ele>605</ele>
        <time>2022-07-29T15:40:50Z</time>
      </trkpt>
      <trkpt lat="46.43778" lon="5.72354">
        <ele>605</ele>
        <time>2022-07-29T15:40:51Z</time>
      </trkpt>
      <trkpt lat="46.43782" lon="5.72348">
        <ele>605</ele>
        <time>2022-07-29T15:40:52Z</time>
      </trkpt>
      <trkpt lat="46.43787" lon="5.72341">
        <ele>605</ele>
        <time>2022-07-29T15:40:53Z</time>
      </trkpt>
      <trkpt lat="46.43792" lon="5.72334">
        <ele>605</ele>
        <time>2022-07-29T15:40:54Z</time>
      </trkpt>
      <trkpt lat="46.43796" lon="5.72328">
        <ele>605</ele>
        <time>2022-07-29T15:40:55Z</time>
      </trkpt>
      <trkpt lat="46.43801" lon="5.72321">
        <ele>605</ele>
        <time>2022-07-29T15:40:56Z</time>
      </trkpt>
      <trkpt lat="46.43805" lon="5.72314">
        <ele>605</ele>
        <time>2022-07-29T15:40:57Z</time>
      </trkpt>
      <trkpt lat="46.4381" lon="5.72308">
        <ele>605</ele>
        <time>2022-07-29T15:40:58Z</time>
      </trkpt>
      <trkpt lat="46.43814" lon="5.72301">
        <ele>605</ele>
        <time>2022-07-29T15:40:59Z</time>
      </trkpt>
      <trkpt lat="46.43818" lon="5.72295">
        <ele>605</ele>
        <time>2022-07-29T15:41:00Z</time>
      </trkpt>
      <trkpt lat="46.43822" lon="5.72288">
        <ele>605</ele>
        <time>2022-07-29T15:41:01Z</time>
      </trkpt>
      <trkpt lat="46.43826" lon="5.72282">
        <ele>605</ele>
        <time>2022-07-29T15:41:02Z</time>
      </trkpt>
      <trkpt lat="46.4383" lon="5.72275">
        <ele>605</ele>
        <time>2022-07-29T15:41:03Z</time>
      </trkpt>
      <trkpt lat="46.43834" lon="5.72268">
        <ele>605</ele>
        <time>2022-07-29T15:41:04Z</time>
      </trkpt>
      <trkpt lat="46.43838" lon="5.72261">
        <ele>605.4</ele>
        <time>2022-07-29T15:41:05Z</time>
      </trkpt>
      <trkpt lat="46.43841" lon="5.72254">
        <ele>605.4</ele>
        <time>2022-07-29T15:41:06Z</time>
      </trkpt>
      <trkpt lat="46.43845" lon="5.72247">
        <ele>605.4</ele>
        <time>2022-07-29T15:41:07Z</time>
      </trkpt>
      <trkpt lat="46.43849" lon="5.7224">
        <ele>605.6</ele>
        <time>2022-07-29T15:41:08Z</time>
      </trkpt>
      <trkpt lat="46.43852" lon="5.72234">
        <ele>605.6</ele>
        <time>2022-07-29T15:41:09Z</time>
      </trkpt>
      <trkpt lat="46.43855" lon="5.72226">
        <ele>605.6</ele>
        <time>2022-07-29T15:41:10Z</time>
      </trkpt>
      <trkpt lat="46.43859" lon="5.72219">
        <ele>605.6</ele>
        <time>2022-07-29T15:41:11Z</time>
      </trkpt>
      <trkpt lat="46.43862" lon="5.72212">
        <ele>605.6</ele>
        <time>2022-07-29T15:41:12Z</time>
      </trkpt>
      <trkpt lat="46.43865" lon="5.72205">
        <ele>605.6</ele>
        <time>2022-07-29T15:41:13Z</time>
      </trkpt>
      <trkpt lat="46.43867" lon="5.72197">
        <ele>605.6</ele>
        <time>2022-07-29T15:41:14Z</time>
      </trkpt>
      <trkpt lat="46.4387" lon="5.72189">
        <ele>605.6</ele>
        <time>2022-07-29T15:41:15Z</time>
      </trkpt>
      <trkpt lat="46.43872" lon="5.72182">
        <ele>605.6</ele>
        <time>2022-07-29T15:41:16Z</time>
      </trkpt>
      <trkpt lat="46.43875" lon="5.72174">
        <ele>605.6</ele>
        <time>2022-07-29T15:41:17Z</time>
      </trkpt>
      <trkpt lat="46.43878" lon="5.72166">
        <ele>605.6</ele>
        <time>2022-07-29T15:41:18Z</time>
      </trkpt>
      <trkpt lat="46.4388" lon="5.72158">
        <ele>605.6</ele>
        <time>2022-07-29T15:41:19Z</time>
      </trkpt>
      <trkpt lat="46.43883" lon="5.7215">
        <ele>605.6</ele>
        <time>2022-07-29T15:41:20Z</time>
      </trkpt>
      <trkpt lat="46.43886" lon="5.72143">
        <ele>605.6</ele>
        <time>2022-07-29T15:41:21Z</time>
      </trkpt>
      <trkpt lat="46.43889" lon="5.72135">
        <ele>605.6</ele>
        <time>2022-07-29T15:41:22Z</time>
      </trkpt>
      <trkpt lat="46.43891" lon="5.72127">
        <ele>605.6</ele>
        <time>2022-07-29T15:41:23Z</time>
      </trkpt>
      <trkpt lat="46.43894" lon="5.72119">
        <ele>605.2</ele>
        <time>2022-07-29T15:41:24Z</time>
      </trkpt>
      <trkpt lat="46.43897" lon="5.72111">
        <ele>605.2</ele>
        <time>2022-07-29T15:41:25Z</time>
      </trkpt>
      <trkpt lat="46.439" lon="5.72104">
        <ele>605</ele>
        <time>2022-07-29T15:41:26Z</time>
      </trkpt>
      <trkpt lat="46.43902" lon="5.72096">
        <ele>605</ele>
        <time>2022-07-29T15:41:27Z</time>
      </trkpt>
      <trkpt lat="46.43905" lon="5.72088">
        <ele>604.8</ele>
        <time>2022-07-29T15:41:28Z</time>
      </trkpt>
      <trkpt lat="46.43908" lon="5.7208">
        <ele>604.8</ele>
        <time>2022-07-29T15:41:29Z</time>
      </trkpt>
      <trkpt lat="46.43911" lon="5.72072">
        <ele>604.8</ele>
        <time>2022-07-29T15:41:30Z</time>
      </trkpt>
      <trkpt lat="46.43914" lon="5.72064">
        <ele>604.8</ele>
        <time>2022-07-29T15:41:31Z</time>
      </trkpt>
      <trkpt lat="46.43916" lon="5.72055">
        <ele>604.8</ele>
        <time>2022-07-29T15:41:32Z</time>
      </trkpt>
      <trkpt lat="46.43919" lon="5.72047">
        <ele>604.8</ele>
        <time>2022-07-29T15:41:33Z</time>
      </trkpt>
      <trkpt lat="46.43922" lon="5.72039">
        <ele>604.8</ele>
        <time>2022-07-29T15:41:34Z</time>
      </trkpt>
      <trkpt lat="46.43925" lon="5.72031">
        <ele>604.8</ele>
        <time>2022-07-29T15:41:35Z</time>
      </trkpt>
      <trkpt lat="46.43928" lon="5.72023">
        <ele>604.8</ele>
        <time>2022-07-29T15:41:36Z</time>
      </trkpt>
      <trkpt lat="46.43931" lon="5.72014">
        <ele>604.8</ele>
        <time>2022-07-29T15:41:37Z</time>
      </trkpt>
      <trkpt lat="46.43934" lon="5.72006">
        <ele>604.6</ele>
        <time>2022-07-29T15:41:38Z</time>
      </trkpt>
      <trkpt lat="46.43937" lon="5.71998">
        <ele>604.6</ele>
        <time>2022-07-29T15:41:39Z</time>
      </trkpt>
      <trkpt lat="46.4394" lon="5.71989">
        <ele>604.6</ele>
        <time>2022-07-29T15:41:40Z</time>
      </trkpt>
      <trkpt lat="46.43943" lon="5.71981">
        <ele>604.6</ele>
        <time>2022-07-29T15:41:41Z</time>
      </trkpt>
      <trkpt lat="46.43946" lon="5.71973">
        <ele>604.2</ele>
        <time>2022-07-29T15:41:42Z</time>
      </trkpt>
      <trkpt lat="46.43949" lon="5.71964">
        <ele>604.2</ele>
        <time>2022-07-29T15:41:43Z</time>
      </trkpt>
      <trkpt lat="46.43952" lon="5.71956">
        <ele>604.2</ele>
        <time>2022-07-29T15:41:44Z</time>
      </trkpt>
      <trkpt lat="46.43955" lon="5.71947">
        <ele>604.2</ele>
        <time>2022-07-29T15:41:45Z</time>
      </trkpt>
      <trkpt lat="46.43958" lon="5.71938">
        <ele>604.2</ele>
        <time>2022-07-29T15:41:46Z</time>
      </trkpt>
      <trkpt lat="46.43961" lon="5.7193">
        <ele>604.2</ele>
        <time>2022-07-29T15:41:47Z</time>
      </trkpt>
      <trkpt lat="46.43964" lon="5.71921">
        <ele>604.2</ele>
        <time>2022-07-29T15:41:48Z</time>
      </trkpt>
      <trkpt lat="46.43967" lon="5.71912">
        <ele>604</ele>
        <time>2022-07-29T15:41:49Z</time>
      </trkpt>
      <trkpt lat="46.4397" lon="5.71904">
        <ele>604</ele>
        <time>2022-07-29T15:41:50Z</time>
      </trkpt>
      <trkpt lat="46.43973" lon="5.71895">
        <ele>603.8</ele>
        <time>2022-07-29T15:41:51Z</time>
      </trkpt>
      <trkpt lat="46.43976" lon="5.71887">
        <ele>603.8</ele>
        <time>2022-07-29T15:41:52Z</time>
      </trkpt>
      <trkpt lat="46.43979" lon="5.71879">
        <ele>603.8</ele>
        <time>2022-07-29T15:41:53Z</time>
      </trkpt>
      <trkpt lat="46.43982" lon="5.71871">
        <ele>603.8</ele>
        <time>2022-07-29T15:41:54Z</time>
      </trkpt>
      <trkpt lat="46.43986" lon="5.71863">
        <ele>603.8</ele>
        <time>2022-07-29T15:41:55Z</time>
      </trkpt>
      <trkpt lat="46.43989" lon="5.71855">
        <ele>603.8</ele>
        <time>2022-07-29T15:41:56Z</time>
      </trkpt>
      <trkpt lat="46.43993" lon="5.71847">
        <ele>603.6</ele>
        <time>2022-07-29T15:41:57Z</time>
      </trkpt>
      <trkpt lat="46.43996" lon="5.71838">
        <ele>603.6</ele>
        <time>2022-07-29T15:41:58Z</time>
      </trkpt>
      <trkpt lat="46.43999" lon="5.7183">
        <ele>603.6</ele>
        <time>2022-07-29T15:41:59Z</time>
      </trkpt>
      <trkpt lat="46.44002" lon="5.71821">
        <ele>603.2</ele>
        <time>2022-07-29T15:42:00Z</time>
      </trkpt>
      <trkpt lat="46.44005" lon="5.71812">
        <ele>603.2</ele>
        <time>2022-07-29T15:42:01Z</time>
      </trkpt>
      <trkpt lat="46.44009" lon="5.71803">
        <ele>603.2</ele>
        <time>2022-07-29T15:42:02Z</time>
      </trkpt>
      <trkpt lat="46.44012" lon="5.71794">
        <ele>603</ele>
        <time>2022-07-29T15:42:03Z</time>
      </trkpt>
      <trkpt lat="46.44015" lon="5.71785">
        <ele>603</ele>
        <time>2022-07-29T15:42:04Z</time>
      </trkpt>
      <trkpt lat="46.44018" lon="5.71776">
        <ele>602.6</ele>
        <time>2022-07-29T15:42:05Z</time>
      </trkpt>
      <trkpt lat="46.44022" lon="5.71767">
        <ele>602.6</ele>
        <time>2022-07-29T15:42:06Z</time>
      </trkpt>
      <trkpt lat="46.44025" lon="5.71758">
        <ele>602.6</ele>
        <time>2022-07-29T15:42:07Z</time>
      </trkpt>
      <trkpt lat="46.44028" lon="5.71749">
        <ele>602.6</ele>
        <time>2022-07-29T15:42:08Z</time>
      </trkpt>
      <trkpt lat="46.44031" lon="5.7174">
        <ele>602.4</ele>
        <time>2022-07-29T15:42:09Z</time>
      </trkpt>
      <trkpt lat="46.44035" lon="5.71731">
        <ele>602.4</ele>
        <time>2022-07-29T15:42:10Z</time>
      </trkpt>
      <trkpt lat="46.44038" lon="5.71722">
        <ele>602.2</ele>
        <time>2022-07-29T15:42:11Z</time>
      </trkpt>
      <trkpt lat="46.44041" lon="5.71713">
        <ele>602.2</ele>
        <time>2022-07-29T15:42:12Z</time>
      </trkpt>
      <trkpt lat="46.44043" lon="5.71704">
        <ele>602.2</ele>
        <time>2022-07-29T15:42:13Z</time>
      </trkpt>
      <trkpt lat="46.44046" lon="5.71695">
        <ele>602.2</ele>
        <time>2022-07-29T15:42:14Z</time>
      </trkpt>
      <trkpt lat="46.44048" lon="5.71686">
        <ele>602.2</ele>
        <time>2022-07-29T15:42:15Z</time>
      </trkpt>
      <trkpt lat="46.4405" lon="5.71677">
        <ele>602.2</ele>
        <time>2022-07-29T15:42:16Z</time>
      </trkpt>
      <trkpt lat="46.44052" lon="5.71668">
        <ele>602.2</ele>
        <time>2022-07-29T15:42:17Z</time>
      </trkpt>
      <trkpt lat="46.44055" lon="5.71659">
        <ele>602.2</ele>
        <time>2022-07-29T15:42:18Z</time>
      </trkpt>
      <trkpt lat="46.44058" lon="5.71651">
        <ele>602.2</ele>
        <time>2022-07-29T15:42:19Z</time>
      </trkpt>
      <trkpt lat="46.44061" lon="5.71642">
        <ele>602.2</ele>
        <time>2022-07-29T15:42:20Z</time>
      </trkpt>
      <trkpt lat="46.44063" lon="5.71634">
        <ele>602.2</ele>
        <time>2022-07-29T15:42:21Z</time>
      </trkpt>
      <trkpt lat="46.44066" lon="5.71626">
        <ele>602.2</ele>
        <time>2022-07-29T15:42:22Z</time>
      </trkpt>
      <trkpt lat="46.44069" lon="5.71618">
        <ele>602.2</ele>
        <time>2022-07-29T15:42:23Z</time>
      </trkpt>
      <trkpt lat="46.44072" lon="5.7161">
        <ele>602.2</ele>
        <time>2022-07-29T15:42:24Z</time>
      </trkpt>
      <trkpt lat="46.44074" lon="5.71603">
        <ele>602.2</ele>
        <time>2022-07-29T15:42:25Z</time>
      </trkpt>
      <trkpt lat="46.44077" lon="5.71595">
        <ele>602.2</ele>
        <time>2022-07-29T15:42:26Z</time>
      </trkpt>
      <trkpt lat="46.4408" lon="5.71588">
        <ele>602.2</ele>
        <time>2022-07-29T15:42:27Z</time>
      </trkpt>
      <trkpt lat="46.44082" lon="5.71581">
        <ele>602.4</ele>
        <time>2022-07-29T15:42:28Z</time>
      </trkpt>
      <trkpt lat="46.44084" lon="5.71573">
        <ele>602.4</ele>
        <time>2022-07-29T15:42:29Z</time>
      </trkpt>
      <trkpt lat="46.44087" lon="5.71566">
        <ele>602.4</ele>
        <time>2022-07-29T15:42:30Z</time>
      </trkpt>
      <trkpt lat="46.44089" lon="5.7156">
        <ele>602.6</ele>
        <time>2022-07-29T15:42:31Z</time>
      </trkpt>
      <trkpt lat="46.44091" lon="5.71553">
        <ele>602.6</ele>
        <time>2022-07-29T15:42:32Z</time>
      </trkpt>
      <trkpt lat="46.44094" lon="5.71547">
        <ele>603</ele>
        <time>2022-07-29T15:42:33Z</time>
      </trkpt>
      <trkpt lat="46.44096" lon="5.7154">
        <ele>603</ele>
        <time>2022-07-29T15:42:34Z</time>
      </trkpt>
      <trkpt lat="46.44099" lon="5.71534">
        <ele>603.2</ele>
        <time>2022-07-29T15:42:35Z</time>
      </trkpt>
      <trkpt lat="46.44102" lon="5.71529">
        <ele>603.2</ele>
        <time>2022-07-29T15:42:36Z</time>
      </trkpt>
      <trkpt lat="46.44105" lon="5.71523">
        <ele>603.2</ele>
        <time>2022-07-29T15:42:37Z</time>
      </trkpt>
      <trkpt lat="46.44107" lon="5.71517">
        <ele>603.6</ele>
        <time>2022-07-29T15:42:38Z</time>
      </trkpt>
      <trkpt lat="46.4411" lon="5.71512">
        <ele>603.6</ele>
        <time>2022-07-29T15:42:39Z</time>
      </trkpt>
      <trkpt lat="46.44113" lon="5.71506">
        <ele>604</ele>
        <time>2022-07-29T15:42:40Z</time>
      </trkpt>
      <trkpt lat="46.44116" lon="5.71501">
        <ele>604</ele>
        <time>2022-07-29T15:42:41Z</time>
      </trkpt>
      <trkpt lat="46.44119" lon="5.71496">
        <ele>604.2</ele>
        <time>2022-07-29T15:42:42Z</time>
      </trkpt>
      <trkpt lat="46.44122" lon="5.7149">
        <ele>604.2</ele>
        <time>2022-07-29T15:42:43Z</time>
      </trkpt>
      <trkpt lat="46.44124" lon="5.71485">
        <ele>604.4</ele>
        <time>2022-07-29T15:42:44Z</time>
      </trkpt>
      <trkpt lat="46.44127" lon="5.7148">
        <ele>604.4</ele>
        <time>2022-07-29T15:42:45Z</time>
      </trkpt>
      <trkpt lat="46.4413" lon="5.71474">
        <ele>604.8</ele>
        <time>2022-07-29T15:42:46Z</time>
      </trkpt>
      <trkpt lat="46.44133" lon="5.71469">
        <ele>604.8</ele>
        <time>2022-07-29T15:42:47Z</time>
      </trkpt>
      <trkpt lat="46.44136" lon="5.71463">
        <ele>604.8</ele>
        <time>2022-07-29T15:42:48Z</time>
      </trkpt>
      <trkpt lat="46.44139" lon="5.71458">
        <ele>605</ele>
        <time>2022-07-29T15:42:49Z</time>
      </trkpt>
      <trkpt lat="46.44142" lon="5.71453">
        <ele>605</ele>
        <time>2022-07-29T15:42:50Z</time>
      </trkpt>
      <trkpt lat="46.44145" lon="5.71447">
        <ele>605.2</ele>
        <time>2022-07-29T15:42:51Z</time>
      </trkpt>
      <trkpt lat="46.44149" lon="5.71443">
        <ele>605.2</ele>
        <time>2022-07-29T15:42:52Z</time>
      </trkpt>
      <trkpt lat="46.44152" lon="5.71438">
        <ele>605.2</ele>
        <time>2022-07-29T15:42:53Z</time>
      </trkpt>
      <trkpt lat="46.44155" lon="5.71434">
        <ele>605.4</ele>
        <time>2022-07-29T15:42:54Z</time>
      </trkpt>
      <trkpt lat="46.44159" lon="5.71429">
        <ele>605.4</ele>
        <time>2022-07-29T15:42:55Z</time>
      </trkpt>
      <trkpt lat="46.44162" lon="5.71425">
        <ele>605.4</ele>
        <time>2022-07-29T15:42:56Z</time>
      </trkpt>
      <trkpt lat="46.44166" lon="5.71421">
        <ele>605.8</ele>
        <time>2022-07-29T15:42:57Z</time>
      </trkpt>
      <trkpt lat="46.44169" lon="5.71417">
        <ele>605.8</ele>
        <time>2022-07-29T15:42:58Z</time>
      </trkpt>
      <trkpt lat="46.44173" lon="5.71413">
        <ele>605.8</ele>
        <time>2022-07-29T15:42:59Z</time>
      </trkpt>
      <trkpt lat="46.44176" lon="5.71409">
        <ele>606</ele>
        <time>2022-07-29T15:43:00Z</time>
      </trkpt>
      <trkpt lat="46.4418" lon="5.71406">
        <ele>606</ele>
        <time>2022-07-29T15:43:01Z</time>
      </trkpt>
      <trkpt lat="46.44184" lon="5.71403">
        <ele>606.4</ele>
        <time>2022-07-29T15:43:02Z</time>
      </trkpt>
      <trkpt lat="46.44187" lon="5.714">
        <ele>606.4</ele>
        <time>2022-07-29T15:43:03Z</time>
      </trkpt>
      <trkpt lat="46.44191" lon="5.71397">
        <ele>606.6</ele>
        <time>2022-07-29T15:43:04Z</time>
      </trkpt>
      <trkpt lat="46.44195" lon="5.71394">
        <ele>606.6</ele>
        <time>2022-07-29T15:43:05Z</time>
      </trkpt>
      <trkpt lat="46.44199" lon="5.71392">
        <ele>606.6</ele>
        <time>2022-07-29T15:43:06Z</time>
      </trkpt>
      <trkpt lat="46.44203" lon="5.71389">
        <ele>607</ele>
        <time>2022-07-29T15:43:07Z</time>
      </trkpt>
      <trkpt lat="46.44207" lon="5.71386">
        <ele>607</ele>
        <time>2022-07-29T15:43:08Z</time>
      </trkpt>
      <trkpt lat="46.44211" lon="5.71384">
        <ele>607.2</ele>
        <time>2022-07-29T15:43:09Z</time>
      </trkpt>
      <trkpt lat="46.44215" lon="5.71382">
        <ele>607.2</ele>
        <time>2022-07-29T15:43:10Z</time>
      </trkpt>
      <trkpt lat="46.44219" lon="5.7138">
        <ele>607.4</ele>
        <time>2022-07-29T15:43:11Z</time>
      </trkpt>
      <trkpt lat="46.44223" lon="5.71378">
        <ele>607.4</ele>
        <time>2022-07-29T15:43:12Z</time>
      </trkpt>
      <trkpt lat="46.44227" lon="5.71376">
        <ele>607.4</ele>
        <time>2022-07-29T15:43:13Z</time>
      </trkpt>
      <trkpt lat="46.44231" lon="5.71375">
        <ele>607.6</ele>
        <time>2022-07-29T15:43:14Z</time>
      </trkpt>
      <trkpt lat="46.44235" lon="5.71373">
        <ele>607.6</ele>
        <time>2022-07-29T15:43:15Z</time>
      </trkpt>
      <trkpt lat="46.44239" lon="5.71372">
        <ele>607.6</ele>
        <time>2022-07-29T15:43:16Z</time>
      </trkpt>
      <trkpt lat="46.44243" lon="5.7137">
        <ele>607.6</ele>
        <time>2022-07-29T15:43:17Z</time>
      </trkpt>
      <trkpt lat="46.44248" lon="5.71369">
        <ele>607.6</ele>
        <time>2022-07-29T15:43:18Z</time>
      </trkpt>
      <trkpt lat="46.44252" lon="5.71368">
        <ele>608</ele>
        <time>2022-07-29T15:43:19Z</time>
      </trkpt>
      <trkpt lat="46.44257" lon="5.71367">
        <ele>608</ele>
        <time>2022-07-29T15:43:20Z</time>
      </trkpt>
      <trkpt lat="46.44261" lon="5.71366">
        <ele>608.4</ele>
        <time>2022-07-29T15:43:21Z</time>
      </trkpt>
      <trkpt lat="46.44266" lon="5.71365">
        <ele>608.4</ele>
        <time>2022-07-29T15:43:22Z</time>
      </trkpt>
      <trkpt lat="46.4427" lon="5.71364">
        <ele>608.6</ele>
        <time>2022-07-29T15:43:23Z</time>
      </trkpt>
      <trkpt lat="46.44274" lon="5.71363">
        <ele>608.6</ele>
        <time>2022-07-29T15:43:24Z</time>
      </trkpt>
      <trkpt lat="46.44278" lon="5.71362">
        <ele>608.8</ele>
        <time>2022-07-29T15:43:25Z</time>
      </trkpt>
      <trkpt lat="46.44283" lon="5.7136">
        <ele>608.8</ele>
        <time>2022-07-29T15:43:26Z</time>
      </trkpt>
      <trkpt lat="46.44287" lon="5.71359">
        <ele>609</ele>
        <time>2022-07-29T15:43:27Z</time>
      </trkpt>
      <trkpt lat="46.44291" lon="5.71358">
        <ele>609</ele>
        <time>2022-07-29T15:43:28Z</time>
      </trkpt>
      <trkpt lat="46.44295" lon="5.71356">
        <ele>609</ele>
        <time>2022-07-29T15:43:29Z</time>
      </trkpt>
      <trkpt lat="46.44299" lon="5.71354">
        <ele>609.4</ele>
        <time>2022-07-29T15:43:30Z</time>
      </trkpt>
      <trkpt lat="46.44304" lon="5.71352">
        <ele>609.4</ele>
        <time>2022-07-29T15:43:31Z</time>
      </trkpt>
      <trkpt lat="46.44308" lon="5.7135">
        <ele>609.4</ele>
        <time>2022-07-29T15:43:32Z</time>
      </trkpt>
      <trkpt lat="46.44312" lon="5.71348">
        <ele>609.6</ele>
        <time>2022-07-29T15:43:33Z</time>
      </trkpt>
      <trkpt lat="46.44316" lon="5.71346">
        <ele>609.6</ele>
        <time>2022-07-29T15:43:34Z</time>
      </trkpt>
      <trkpt lat="46.4432" lon="5.71343">
        <ele>609.8</ele>
        <time>2022-07-29T15:43:35Z</time>
      </trkpt>
      <trkpt lat="46.44325" lon="5.7134">
        <ele>609.8</ele>
        <time>2022-07-29T15:43:36Z</time>
      </trkpt>
      <trkpt lat="46.44329" lon="5.71337">
        <ele>609.8</ele>
        <time>2022-07-29T15:43:37Z</time>
      </trkpt>
      <trkpt lat="46.44333" lon="5.71334">
        <ele>609.8</ele>
        <time>2022-07-29T15:43:38Z</time>
      </trkpt>
      <trkpt lat="46.44338" lon="5.7133">
        <ele>610</ele>
        <time>2022-07-29T15:43:39Z</time>
      </trkpt>
      <trkpt lat="46.44342" lon="5.71326">
        <ele>610</ele>
        <time>2022-07-29T15:43:40Z</time>
      </trkpt>
      <trkpt lat="46.44346" lon="5.71322">
        <ele>610</ele>
        <time>2022-07-29T15:43:41Z</time>
      </trkpt>
      <trkpt lat="46.44351" lon="5.71319">
        <ele>610.2</ele>
        <time>2022-07-29T15:43:42Z</time>
      </trkpt>
      <trkpt lat="46.44355" lon="5.71315">
        <ele>610.2</ele>
        <time>2022-07-29T15:43:43Z</time>
      </trkpt>
      <trkpt lat="46.4436" lon="5.7131">
        <ele>610.2</ele>
        <time>2022-07-29T15:43:44Z</time>
      </trkpt>
      <trkpt lat="46.44364" lon="5.71305">
        <ele>610.2</ele>
        <time>2022-07-29T15:43:45Z</time>
      </trkpt>
      <trkpt lat="46.44369" lon="5.713">
        <ele>610.2</ele>
        <time>2022-07-29T15:43:46Z</time>
      </trkpt>
      <trkpt lat="46.44373" lon="5.71295">
        <ele>610.2</ele>
        <time>2022-07-29T15:43:47Z</time>
      </trkpt>
      <trkpt lat="46.44378" lon="5.71289">
        <ele>610.2</ele>
        <time>2022-07-29T15:43:48Z</time>
      </trkpt>
      <trkpt lat="46.44382" lon="5.71284">
        <ele>610.2</ele>
        <time>2022-07-29T15:43:49Z</time>
      </trkpt>
      <trkpt lat="46.44387" lon="5.71278">
        <ele>610</ele>
        <time>2022-07-29T15:43:50Z</time>
      </trkpt>
      <trkpt lat="46.44392" lon="5.71272">
        <ele>610</ele>
        <time>2022-07-29T15:43:51Z</time>
      </trkpt>
      <trkpt lat="46.44397" lon="5.71266">
        <ele>609.8</ele>
        <time>2022-07-29T15:43:52Z</time>
      </trkpt>
      <trkpt lat="46.44402" lon="5.71259">
        <ele>609.8</ele>
        <time>2022-07-29T15:43:53Z</time>
      </trkpt>
      <trkpt lat="46.44406" lon="5.71253">
        <ele>609.8</ele>
        <time>2022-07-29T15:43:54Z</time>
      </trkpt>
      <trkpt lat="46.44411" lon="5.71246">
        <ele>609.6</ele>
        <time>2022-07-29T15:43:55Z</time>
      </trkpt>
      <trkpt lat="46.44416" lon="5.71239">
        <ele>609.6</ele>
        <time>2022-07-29T15:43:56Z</time>
      </trkpt>
      <trkpt lat="46.44421" lon="5.71232">
        <ele>609.2</ele>
        <time>2022-07-29T15:43:57Z</time>
      </trkpt>
      <trkpt lat="46.44426" lon="5.71225">
        <ele>609</ele>
        <time>2022-07-29T15:43:58Z</time>
      </trkpt>
      <trkpt lat="46.44431" lon="5.71217">
        <ele>608.8</ele>
        <time>2022-07-29T15:43:59Z</time>
      </trkpt>
      <trkpt lat="46.44436" lon="5.71209">
        <ele>608.8</ele>
        <time>2022-07-29T15:44:00Z</time>
      </trkpt>
      <trkpt lat="46.4444" lon="5.71201">
        <ele>608.4</ele>
        <time>2022-07-29T15:44:01Z</time>
      </trkpt>
      <trkpt lat="46.44445" lon="5.71192">
        <ele>608.2</ele>
        <time>2022-07-29T15:44:02Z</time>
      </trkpt>
      <trkpt lat="46.4445" lon="5.71183">
        <ele>607.8</ele>
        <time>2022-07-29T15:44:03Z</time>
      </trkpt>
      <trkpt lat="46.44455" lon="5.71174">
        <ele>607.6</ele>
        <time>2022-07-29T15:44:04Z</time>
      </trkpt>
      <trkpt lat="46.4446" lon="5.71166">
        <ele>607.4</ele>
        <time>2022-07-29T15:44:05Z</time>
      </trkpt>
      <trkpt lat="46.44465" lon="5.71157">
        <ele>607.2</ele>
        <time>2022-07-29T15:44:06Z</time>
      </trkpt>
      <trkpt lat="46.4447" lon="5.71148">
        <ele>607</ele>
        <time>2022-07-29T15:44:07Z</time>
      </trkpt>
      <trkpt lat="46.44475" lon="5.71139">
        <ele>606.6</ele>
        <time>2022-07-29T15:44:08Z</time>
      </trkpt>
      <trkpt lat="46.4448" lon="5.71131">
        <ele>606.6</ele>
        <time>2022-07-29T15:44:09Z</time>
      </trkpt>
      <trkpt lat="46.44485" lon="5.71124">
        <ele>606.2</ele>
        <time>2022-07-29T15:44:10Z</time>
      </trkpt>
      <trkpt lat="46.44491" lon="5.71116">
        <ele>606</ele>
        <time>2022-07-29T15:44:11Z</time>
      </trkpt>
      <trkpt lat="46.44497" lon="5.71109">
        <ele>605.6</ele>
        <time>2022-07-29T15:44:12Z</time>
      </trkpt>
      <trkpt lat="46.44502" lon="5.71101">
        <ele>605.4</ele>
        <time>2022-07-29T15:44:13Z</time>
      </trkpt>
      <trkpt lat="46.44507" lon="5.71093">
        <ele>605.2</ele>
        <time>2022-07-29T15:44:14Z</time>
      </trkpt>
      <trkpt lat="46.44512" lon="5.71085">
        <ele>605</ele>
        <time>2022-07-29T15:44:15Z</time>
      </trkpt>
      <trkpt lat="46.44517" lon="5.71076">
        <ele>605</ele>
        <time>2022-07-29T15:44:16Z</time>
      </trkpt>
      <trkpt lat="46.44521" lon="5.71067">
        <ele>604.6</ele>
        <time>2022-07-29T15:44:17Z</time>
      </trkpt>
      <trkpt lat="46.44526" lon="5.71057">
        <ele>604.6</ele>
        <time>2022-07-29T15:44:18Z</time>
      </trkpt>
      <trkpt lat="46.4453" lon="5.71048">
        <ele>604.6</ele>
        <time>2022-07-29T15:44:19Z</time>
      </trkpt>
      <trkpt lat="46.44535" lon="5.71039">
        <ele>604.6</ele>
        <time>2022-07-29T15:44:20Z</time>
      </trkpt>
      <trkpt lat="46.44541" lon="5.71032">
        <ele>604.6</ele>
        <time>2022-07-29T15:44:21Z</time>
      </trkpt>
      <trkpt lat="46.44547" lon="5.71026">
        <ele>604.6</ele>
        <time>2022-07-29T15:44:22Z</time>
      </trkpt>
      <trkpt lat="46.44553" lon="5.7102">
        <ele>604.6</ele>
        <time>2022-07-29T15:44:23Z</time>
      </trkpt>
      <trkpt lat="46.44559" lon="5.71014">
        <ele>604.8</ele>
        <time>2022-07-29T15:44:24Z</time>
      </trkpt>
      <trkpt lat="46.44565" lon="5.71008">
        <ele>604.8</ele>
        <time>2022-07-29T15:44:25Z</time>
      </trkpt>
      <trkpt lat="46.4457" lon="5.71002">
        <ele>604.8</ele>
        <time>2022-07-29T15:44:26Z</time>
      </trkpt>
      <trkpt lat="46.44577" lon="5.70997">
        <ele>604.8</ele>
        <time>2022-07-29T15:44:27Z</time>
      </trkpt>
      <trkpt lat="46.44584" lon="5.70994">
        <ele>604.8</ele>
        <time>2022-07-29T15:44:28Z</time>
      </trkpt>
      <trkpt lat="46.44591" lon="5.70992">
        <ele>604.8</ele>
        <time>2022-07-29T15:44:29Z</time>
      </trkpt>
      <trkpt lat="46.44598" lon="5.7099">
        <ele>604.8</ele>
        <time>2022-07-29T15:44:30Z</time>
      </trkpt>
      <trkpt lat="46.44605" lon="5.70988">
        <ele>604.6</ele>
        <time>2022-07-29T15:44:31Z</time>
      </trkpt>
      <trkpt lat="46.44612" lon="5.70986">
        <ele>604.6</ele>
        <time>2022-07-29T15:44:32Z</time>
      </trkpt>
      <trkpt lat="46.44619" lon="5.70984">
        <ele>604.6</ele>
        <time>2022-07-29T15:44:33Z</time>
      </trkpt>
      <trkpt lat="46.44627" lon="5.70982">
        <ele>604.4</ele>
        <time>2022-07-29T15:44:34Z</time>
      </trkpt>
      <trkpt lat="46.44634" lon="5.7098">
        <ele>604</ele>
        <time>2022-07-29T15:44:35Z</time>
      </trkpt>
      <trkpt lat="46.44642" lon="5.70978">
        <ele>603.8</ele>
        <time>2022-07-29T15:44:36Z</time>
      </trkpt>
      <trkpt lat="46.44649" lon="5.70976">
        <ele>603.4</ele>
        <time>2022-07-29T15:44:37Z</time>
      </trkpt>
      <trkpt lat="46.44657" lon="5.70974">
        <ele>603.4</ele>
        <time>2022-07-29T15:44:38Z</time>
      </trkpt>
      <trkpt lat="46.44665" lon="5.70973">
        <ele>603</ele>
        <time>2022-07-29T15:44:39Z</time>
      </trkpt>
      <trkpt lat="46.44673" lon="5.70972">
        <ele>602.8</ele>
        <time>2022-07-29T15:44:40Z</time>
      </trkpt>
      <trkpt lat="46.44681" lon="5.70972">
        <ele>602.6</ele>
        <time>2022-07-29T15:44:41Z</time>
      </trkpt>
      <trkpt lat="46.44689" lon="5.70972">
        <ele>602.4</ele>
        <time>2022-07-29T15:44:42Z</time>
      </trkpt>
      <trkpt lat="46.44697" lon="5.70973">
        <ele>602</ele>
        <time>2022-07-29T15:44:43Z</time>
      </trkpt>
      <trkpt lat="46.44705" lon="5.70975">
        <ele>601.6</ele>
        <time>2022-07-29T15:44:44Z</time>
      </trkpt>
      <trkpt lat="46.44713" lon="5.70977">
        <ele>601.6</ele>
        <time>2022-07-29T15:44:45Z</time>
      </trkpt>
      <trkpt lat="46.44721" lon="5.70979">
        <ele>601.2</ele>
        <time>2022-07-29T15:44:46Z</time>
      </trkpt>
      <trkpt lat="46.44729" lon="5.70982">
        <ele>601.2</ele>
        <time>2022-07-29T15:44:47Z</time>
      </trkpt>
      <trkpt lat="46.44737" lon="5.70984">
        <ele>601</ele>
        <time>2022-07-29T15:44:48Z</time>
      </trkpt>
      <trkpt lat="46.44745" lon="5.70988">
        <ele>601</ele>
        <time>2022-07-29T15:44:49Z</time>
      </trkpt>
      <trkpt lat="46.44753" lon="5.70991">
        <ele>600.4</ele>
        <time>2022-07-29T15:44:50Z</time>
      </trkpt>
      <trkpt lat="46.44761" lon="5.70995">
        <ele>600.4</ele>
        <time>2022-07-29T15:44:51Z</time>
      </trkpt>
      <trkpt lat="46.4477" lon="5.70999">
        <ele>600.2</ele>
        <time>2022-07-29T15:44:52Z</time>
      </trkpt>
      <trkpt lat="46.44778" lon="5.71004">
        <ele>599.8</ele>
        <time>2022-07-29T15:44:53Z</time>
      </trkpt>
      <trkpt lat="46.44787" lon="5.7101">
        <ele>599.6</ele>
        <time>2022-07-29T15:44:54Z</time>
      </trkpt>
      <trkpt lat="46.44796" lon="5.71015">
        <ele>599.6</ele>
        <time>2022-07-29T15:44:55Z</time>
      </trkpt>
      <trkpt lat="46.44804" lon="5.71021">
        <ele>599.6</ele>
        <time>2022-07-29T15:44:56Z</time>
      </trkpt>
      <trkpt lat="46.44812" lon="5.71026">
        <ele>599.6</ele>
        <time>2022-07-29T15:44:57Z</time>
      </trkpt>
      <trkpt lat="46.44821" lon="5.71031">
        <ele>599.4</ele>
        <time>2022-07-29T15:44:58Z</time>
      </trkpt>
      <trkpt lat="46.44829" lon="5.71037">
        <ele>599.4</ele>
        <time>2022-07-29T15:44:59Z</time>
      </trkpt>
      <trkpt lat="46.44836" lon="5.71042">
        <ele>599</ele>
        <time>2022-07-29T15:45:00Z</time>
      </trkpt>
      <trkpt lat="46.44844" lon="5.71047">
        <ele>598.8</ele>
        <time>2022-07-29T15:45:01Z</time>
      </trkpt>
      <trkpt lat="46.44852" lon="5.71052">
        <ele>599</ele>
        <time>2022-07-29T15:45:02Z</time>
      </trkpt>
      <trkpt lat="46.4486" lon="5.71056">
        <ele>598.6</ele>
        <time>2022-07-29T15:45:03Z</time>
      </trkpt>
      <trkpt lat="46.44868" lon="5.71061">
        <ele>598.6</ele>
        <time>2022-07-29T15:45:04Z</time>
      </trkpt>
      <trkpt lat="46.44876" lon="5.71065">
        <ele>598.4</ele>
        <time>2022-07-29T15:45:05Z</time>
      </trkpt>
      <trkpt lat="46.44885" lon="5.71069">
        <ele>598.4</ele>
        <time>2022-07-29T15:45:06Z</time>
      </trkpt>
      <trkpt lat="46.44893" lon="5.71073">
        <ele>598.4</ele>
        <time>2022-07-29T15:45:07Z</time>
      </trkpt>
      <trkpt lat="46.44901" lon="5.71077">
        <ele>598.4</ele>
        <time>2022-07-29T15:45:08Z</time>
      </trkpt>
      <trkpt lat="46.4491" lon="5.71081">
        <ele>598</ele>
        <time>2022-07-29T15:45:09Z</time>
      </trkpt>
      <trkpt lat="46.44918" lon="5.71086">
        <ele>598</ele>
        <time>2022-07-29T15:45:10Z</time>
      </trkpt>
      <trkpt lat="46.44927" lon="5.7109">
        <ele>597.8</ele>
        <time>2022-07-29T15:45:11Z</time>
      </trkpt>
      <trkpt lat="46.44935" lon="5.71094">
        <ele>597.8</ele>
        <time>2022-07-29T15:45:12Z</time>
      </trkpt>
      <trkpt lat="46.44944" lon="5.71098">
        <ele>597.6</ele>
        <time>2022-07-29T15:45:13Z</time>
      </trkpt>
      <trkpt lat="46.44953" lon="5.71102">
        <ele>597.6</ele>
        <time>2022-07-29T15:45:14Z</time>
      </trkpt>
      <trkpt lat="46.44962" lon="5.71105">
        <ele>597.2</ele>
        <time>2022-07-29T15:45:15Z</time>
      </trkpt>
      <trkpt lat="46.44972" lon="5.71107">
        <ele>597.2</ele>
        <time>2022-07-29T15:45:16Z</time>
      </trkpt>
      <trkpt lat="46.44981" lon="5.71111">
        <ele>597.2</ele>
        <time>2022-07-29T15:45:17Z</time>
      </trkpt>
      <trkpt lat="46.4499" lon="5.71116">
        <ele>597</ele>
        <time>2022-07-29T15:45:18Z</time>
      </trkpt>
      <trkpt lat="46.44999" lon="5.7112">
        <ele>597</ele>
        <time>2022-07-29T15:45:19Z</time>
      </trkpt>
      <trkpt lat="46.45008" lon="5.71124">
        <ele>597</ele>
        <time>2022-07-29T15:45:20Z</time>
      </trkpt>
      <trkpt lat="46.45016" lon="5.71128">
        <ele>597</ele>
        <time>2022-07-29T15:45:21Z</time>
      </trkpt>
      <trkpt lat="46.45025" lon="5.71132">
        <ele>597</ele>
        <time>2022-07-29T15:45:22Z</time>
      </trkpt>
      <trkpt lat="46.45034" lon="5.71136">
        <ele>597</ele>
        <time>2022-07-29T15:45:23Z</time>
      </trkpt>
      <trkpt lat="46.45042" lon="5.71141">
        <ele>596.6</ele>
        <time>2022-07-29T15:45:24Z</time>
      </trkpt>
      <trkpt lat="46.4505" lon="5.71144">
        <ele>596.6</ele>
        <time>2022-07-29T15:45:25Z</time>
      </trkpt>
      <trkpt lat="46.45059" lon="5.71148">
        <ele>596.4</ele>
        <time>2022-07-29T15:45:26Z</time>
      </trkpt>
      <trkpt lat="46.45067" lon="5.71152">
        <ele>596.4</ele>
        <time>2022-07-29T15:45:27Z</time>
      </trkpt>
      <trkpt lat="46.45075" lon="5.71155">
        <ele>596</ele>
        <time>2022-07-29T15:45:28Z</time>
      </trkpt>
      <trkpt lat="46.45083" lon="5.71159">
        <ele>596</ele>
        <time>2022-07-29T15:45:29Z</time>
      </trkpt>
      <trkpt lat="46.45091" lon="5.71162">
        <ele>596</ele>
        <time>2022-07-29T15:45:30Z</time>
      </trkpt>
      <trkpt lat="46.45099" lon="5.71165">
        <ele>596</ele>
        <time>2022-07-29T15:45:31Z</time>
      </trkpt>
      <trkpt lat="46.45108" lon="5.71168">
        <ele>595.8</ele>
        <time>2022-07-29T15:45:32Z</time>
      </trkpt>
      <trkpt lat="46.45116" lon="5.71172">
        <ele>595.8</ele>
        <time>2022-07-29T15:45:33Z</time>
      </trkpt>
      <trkpt lat="46.45124" lon="5.71175">
        <ele>595.8</ele>
        <time>2022-07-29T15:45:34Z</time>
      </trkpt>
      <trkpt lat="46.45131" lon="5.71179">
        <ele>595.8</ele>
        <time>2022-07-29T15:45:35Z</time>
      </trkpt>
      <trkpt lat="46.45139" lon="5.71183">
        <ele>595.6</ele>
        <time>2022-07-29T15:45:36Z</time>
      </trkpt>
      <trkpt lat="46.45147" lon="5.71187">
        <ele>595.6</ele>
        <time>2022-07-29T15:45:37Z</time>
      </trkpt>
      <trkpt lat="46.45155" lon="5.71191">
        <ele>595.2</ele>
        <time>2022-07-29T15:45:38Z</time>
      </trkpt>
      <trkpt lat="46.45163" lon="5.71195">
        <ele>595.2</ele>
        <time>2022-07-29T15:45:39Z</time>
      </trkpt>
      <trkpt lat="46.45172" lon="5.71198">
        <ele>595</ele>
        <time>2022-07-29T15:45:40Z</time>
      </trkpt>
      <trkpt lat="46.4518" lon="5.71202">
        <ele>595</ele>
        <time>2022-07-29T15:45:41Z</time>
      </trkpt>
      <trkpt lat="46.45188" lon="5.71206">
        <ele>594.8</ele>
        <time>2022-07-29T15:45:42Z</time>
      </trkpt>
      <trkpt lat="46.45196" lon="5.71209">
        <ele>594.8</ele>
        <time>2022-07-29T15:45:43Z</time>
      </trkpt>
      <trkpt lat="46.45204" lon="5.71213">
        <ele>594.6</ele>
        <time>2022-07-29T15:45:44Z</time>
      </trkpt>
      <trkpt lat="46.45212" lon="5.71217">
        <ele>594.6</ele>
        <time>2022-07-29T15:45:45Z</time>
      </trkpt>
      <trkpt lat="46.4522" lon="5.71221">
        <ele>594.4</ele>
        <time>2022-07-29T15:45:46Z</time>
      </trkpt>
      <trkpt lat="46.45228" lon="5.71225">
        <ele>594.4</ele>
        <time>2022-07-29T15:45:47Z</time>
      </trkpt>
      <trkpt lat="46.45236" lon="5.7123">
        <ele>594</ele>
        <time>2022-07-29T15:45:48Z</time>
      </trkpt>
      <trkpt lat="46.45244" lon="5.71234">
        <ele>594</ele>
        <time>2022-07-29T15:45:49Z</time>
      </trkpt>
      <trkpt lat="46.45251" lon="5.71238">
        <ele>594</ele>
        <time>2022-07-29T15:45:50Z</time>
      </trkpt>
      <trkpt lat="46.45259" lon="5.71243">
        <ele>593.8</ele>
        <time>2022-07-29T15:45:51Z</time>
      </trkpt>
      <trkpt lat="46.45267" lon="5.71247">
        <ele>593.8</ele>
        <time>2022-07-29T15:45:52Z</time>
      </trkpt>
      <trkpt lat="46.45274" lon="5.71251">
        <ele>593.8</ele>
        <time>2022-07-29T15:45:53Z</time>
      </trkpt>
      <trkpt lat="46.45282" lon="5.71256">
        <ele>593.8</ele>
        <time>2022-07-29T15:45:54Z</time>
      </trkpt>
      <trkpt lat="46.45289" lon="5.71261">
        <ele>593.6</ele>
        <time>2022-07-29T15:45:55Z</time>
      </trkpt>
      <trkpt lat="46.45296" lon="5.71265">
        <ele>593.6</ele>
        <time>2022-07-29T15:45:56Z</time>
      </trkpt>
      <trkpt lat="46.45304" lon="5.7127">
        <ele>593.6</ele>
        <time>2022-07-29T15:45:57Z</time>
      </trkpt>
      <trkpt lat="46.45311" lon="5.71275">
        <ele>593.2</ele>
        <time>2022-07-29T15:45:58Z</time>
      </trkpt>
      <trkpt lat="46.45318" lon="5.7128">
        <ele>593.2</ele>
        <time>2022-07-29T15:45:59Z</time>
      </trkpt>
      <trkpt lat="46.45325" lon="5.71285">
        <ele>593</ele>
        <time>2022-07-29T15:46:00Z</time>
      </trkpt>
      <trkpt lat="46.45332" lon="5.7129">
        <ele>593</ele>
        <time>2022-07-29T15:46:01Z</time>
      </trkpt>
      <trkpt lat="46.45339" lon="5.71295">
        <ele>592.8</ele>
        <time>2022-07-29T15:46:02Z</time>
      </trkpt>
      <trkpt lat="46.45346" lon="5.713">
        <ele>592.8</ele>
        <time>2022-07-29T15:46:03Z</time>
      </trkpt>
      <trkpt lat="46.45353" lon="5.71304">
        <ele>592.8</ele>
        <time>2022-07-29T15:46:04Z</time>
      </trkpt>
      <trkpt lat="46.4536" lon="5.71309">
        <ele>592.8</ele>
        <time>2022-07-29T15:46:05Z</time>
      </trkpt>
      <trkpt lat="46.45367" lon="5.71314">
        <ele>592.4</ele>
        <time>2022-07-29T15:46:06Z</time>
      </trkpt>
      <trkpt lat="46.45374" lon="5.7132">
        <ele>592.4</ele>
        <time>2022-07-29T15:46:07Z</time>
      </trkpt>
      <trkpt lat="46.4538" lon="5.71324">
        <ele>592.4</ele>
        <time>2022-07-29T15:46:08Z</time>
      </trkpt>
      <trkpt lat="46.45387" lon="5.7133">
        <ele>592.2</ele>
        <time>2022-07-29T15:46:09Z</time>
      </trkpt>
      <trkpt lat="46.45394" lon="5.71335">
        <ele>592.2</ele>
        <time>2022-07-29T15:46:10Z</time>
      </trkpt>
      <trkpt lat="46.45401" lon="5.7134">
        <ele>592.2</ele>
        <time>2022-07-29T15:46:11Z</time>
      </trkpt>
      <trkpt lat="46.45408" lon="5.71345">
        <ele>592</ele>
        <time>2022-07-29T15:46:12Z</time>
      </trkpt>
      <trkpt lat="46.45415" lon="5.7135">
        <ele>591.8</ele>
        <time>2022-07-29T15:46:13Z</time>
      </trkpt>
      <trkpt lat="46.45422" lon="5.71355">
        <ele>591.8</ele>
        <time>2022-07-29T15:46:14Z</time>
      </trkpt>
      <trkpt lat="46.45429" lon="5.7136">
        <ele>591.4</ele>
        <time>2022-07-29T15:46:15Z</time>
      </trkpt>
      <trkpt lat="46.45437" lon="5.71366">
        <ele>591.4</ele>
        <time>2022-07-29T15:46:16Z</time>
      </trkpt>
      <trkpt lat="46.45444" lon="5.71372">
        <ele>591</ele>
        <time>2022-07-29T15:46:17Z</time>
      </trkpt>
      <trkpt lat="46.45451" lon="5.71377">
        <ele>591</ele>
        <time>2022-07-29T15:46:18Z</time>
      </trkpt>
      <trkpt lat="46.45458" lon="5.71383">
        <ele>590.8</ele>
        <time>2022-07-29T15:46:19Z</time>
      </trkpt>
      <trkpt lat="46.45466" lon="5.71388">
        <ele>590.4</ele>
        <time>2022-07-29T15:46:20Z</time>
      </trkpt>
      <trkpt lat="46.45473" lon="5.71394">
        <ele>590.2</ele>
        <time>2022-07-29T15:46:21Z</time>
      </trkpt>
      <trkpt lat="46.45481" lon="5.714">
        <ele>590.2</ele>
        <time>2022-07-29T15:46:22Z</time>
      </trkpt>
      <trkpt lat="46.45488" lon="5.71406">
        <ele>589.8</ele>
        <time>2022-07-29T15:46:23Z</time>
      </trkpt>
      <trkpt lat="46.45496" lon="5.71411">
        <ele>589.4</ele>
        <time>2022-07-29T15:46:24Z</time>
      </trkpt>
      <trkpt lat="46.45504" lon="5.71417">
        <ele>589.4</ele>
        <time>2022-07-29T15:46:25Z</time>
      </trkpt>
      <trkpt lat="46.45512" lon="5.71422">
        <ele>589</ele>
        <time>2022-07-29T15:46:26Z</time>
      </trkpt>
      <trkpt lat="46.4552" lon="5.71428">
        <ele>588.8</ele>
        <time>2022-07-29T15:46:27Z</time>
      </trkpt>
      <trkpt lat="46.45528" lon="5.71434">
        <ele>588.2</ele>
        <time>2022-07-29T15:46:28Z</time>
      </trkpt>
      <trkpt lat="46.45535" lon="5.7144">
        <ele>588.2</ele>
        <time>2022-07-29T15:46:29Z</time>
      </trkpt>
      <trkpt lat="46.45543" lon="5.71445">
        <ele>588</ele>
        <time>2022-07-29T15:46:30Z</time>
      </trkpt>
      <trkpt lat="46.45551" lon="5.71451">
        <ele>587.6</ele>
        <time>2022-07-29T15:46:31Z</time>
      </trkpt>
      <trkpt lat="46.45559" lon="5.71457">
        <ele>587.2</ele>
        <time>2022-07-29T15:46:32Z</time>
      </trkpt>
      <trkpt lat="46.45568" lon="5.71462">
        <ele>587.2</ele>
        <time>2022-07-29T15:46:33Z</time>
      </trkpt>
      <trkpt lat="46.45576" lon="5.71467">
        <ele>586.6</ele>
        <time>2022-07-29T15:46:34Z</time>
      </trkpt>
      <trkpt lat="46.45584" lon="5.71471">
        <ele>586.4</ele>
        <time>2022-07-29T15:46:35Z</time>
      </trkpt>
      <trkpt lat="46.45593" lon="5.71477">
        <ele>586</ele>
        <time>2022-07-29T15:46:36Z</time>
      </trkpt>
      <trkpt lat="46.45601" lon="5.71482">
        <ele>585.6</ele>
        <time>2022-07-29T15:46:37Z</time>
      </trkpt>
      <trkpt lat="46.4561" lon="5.71485">
        <ele>585.4</ele>
        <time>2022-07-29T15:46:38Z</time>
      </trkpt>
      <trkpt lat="46.45619" lon="5.71488">
        <ele>585</ele>
        <time>2022-07-29T15:46:39Z</time>
      </trkpt>
      <trkpt lat="46.45629" lon="5.7149">
        <ele>584.8</ele>
        <time>2022-07-29T15:46:40Z</time>
      </trkpt>
      <trkpt lat="46.45638" lon="5.71491">
        <ele>584.4</ele>
        <time>2022-07-29T15:46:41Z</time>
      </trkpt>
      <trkpt lat="46.45648" lon="5.71491">
        <ele>584</ele>
        <time>2022-07-29T15:46:42Z</time>
      </trkpt>
      <trkpt lat="46.45658" lon="5.71491">
        <ele>583.8</ele>
        <time>2022-07-29T15:46:43Z</time>
      </trkpt>
      <trkpt lat="46.45668" lon="5.7149">
        <ele>583.4</ele>
        <time>2022-07-29T15:46:44Z</time>
      </trkpt>
      <trkpt lat="46.45677" lon="5.71489">
        <ele>583</ele>
        <time>2022-07-29T15:46:45Z</time>
      </trkpt>
      <trkpt lat="46.45687" lon="5.71488">
        <ele>582.6</ele>
        <time>2022-07-29T15:46:46Z</time>
      </trkpt>
      <trkpt lat="46.45695" lon="5.71486">
        <ele>582.2</ele>
        <time>2022-07-29T15:46:47Z</time>
      </trkpt>
      <trkpt lat="46.45702" lon="5.71485">
        <ele>581.8</ele>
        <time>2022-07-29T15:46:48Z</time>
      </trkpt>
      <trkpt lat="46.45709" lon="5.71482">
        <ele>581.6</ele>
        <time>2022-07-29T15:46:49Z</time>
      </trkpt>
      <trkpt lat="46.45713" lon="5.71477">
        <ele>581.4</ele>
        <time>2022-07-29T15:46:50Z</time>
      </trkpt>
      <trkpt lat="46.45716" lon="5.7147">
        <ele>581.2</ele>
        <time>2022-07-29T15:46:51Z</time>
      </trkpt>
      <trkpt lat="46.45717" lon="5.71461">
        <ele>580.8</ele>
        <time>2022-07-29T15:46:52Z</time>
      </trkpt>
      <trkpt lat="46.45717" lon="5.71451">
        <ele>580.6</ele>
        <time>2022-07-29T15:46:53Z</time>
      </trkpt>
      <trkpt lat="46.45716" lon="5.71441">
        <ele>580.2</ele>
        <time>2022-07-29T15:46:54Z</time>
      </trkpt>
      <trkpt lat="46.45715" lon="5.7143">
        <ele>580.2</ele>
        <time>2022-07-29T15:46:55Z</time>
      </trkpt>
      <trkpt lat="46.45715" lon="5.7142">
        <ele>579.8</ele>
        <time>2022-07-29T15:46:56Z</time>
      </trkpt>
      <trkpt lat="46.45715" lon="5.71409">
        <ele>579.6</ele>
        <time>2022-07-29T15:46:57Z</time>
      </trkpt>
      <trkpt lat="46.45717" lon="5.71398">
        <ele>579.4</ele>
        <time>2022-07-29T15:46:58Z</time>
      </trkpt>
      <trkpt lat="46.4572" lon="5.71388">
        <ele>579.2</ele>
        <time>2022-07-29T15:46:59Z</time>
      </trkpt>
      <trkpt lat="46.45723" lon="5.71378">
        <ele>579</ele>
        <time>2022-07-29T15:47:00Z</time>
      </trkpt>
      <trkpt lat="46.45728" lon="5.7137">
        <ele>578.6</ele>
        <time>2022-07-29T15:47:01Z</time>
      </trkpt>
      <trkpt lat="46.45733" lon="5.71363">
        <ele>578.4</ele>
        <time>2022-07-29T15:47:02Z</time>
      </trkpt>
      <trkpt lat="46.45739" lon="5.71357">
        <ele>578</ele>
        <time>2022-07-29T15:47:03Z</time>
      </trkpt>
      <trkpt lat="46.45746" lon="5.71351">
        <ele>577.8</ele>
        <time>2022-07-29T15:47:04Z</time>
      </trkpt>
      <trkpt lat="46.45752" lon="5.71346">
        <ele>577.4</ele>
        <time>2022-07-29T15:47:05Z</time>
      </trkpt>
      <trkpt lat="46.45758" lon="5.7134">
        <ele>577.2</ele>
        <time>2022-07-29T15:47:06Z</time>
      </trkpt>
      <trkpt lat="46.45765" lon="5.71335">
        <ele>576.8</ele>
        <time>2022-07-29T15:47:07Z</time>
      </trkpt>
      <trkpt lat="46.45772" lon="5.71329">
        <ele>576.6</ele>
        <time>2022-07-29T15:47:08Z</time>
      </trkpt>
      <trkpt lat="46.45778" lon="5.71323">
        <ele>576.6</ele>
        <time>2022-07-29T15:47:09Z</time>
      </trkpt>
      <trkpt lat="46.45784" lon="5.71317">
        <ele>576.2</ele>
        <time>2022-07-29T15:47:10Z</time>
      </trkpt>
      <trkpt lat="46.45791" lon="5.71311">
        <ele>576.2</ele>
        <time>2022-07-29T15:47:11Z</time>
      </trkpt>
      <trkpt lat="46.45797" lon="5.71306">
        <ele>575.8</ele>
        <time>2022-07-29T15:47:12Z</time>
      </trkpt>
      <trkpt lat="46.45803" lon="5.713">
        <ele>575.6</ele>
        <time>2022-07-29T15:47:13Z</time>
      </trkpt>
      <trkpt lat="46.45809" lon="5.71295">
        <ele>575.4</ele>
        <time>2022-07-29T15:47:14Z</time>
      </trkpt>
      <trkpt lat="46.45815" lon="5.71289">
        <ele>575.4</ele>
        <time>2022-07-29T15:47:15Z</time>
      </trkpt>
      <trkpt lat="46.45821" lon="5.71284">
        <ele>574.8</ele>
        <time>2022-07-29T15:47:16Z</time>
      </trkpt>
      <trkpt lat="46.45827" lon="5.71278">
        <ele>574.6</ele>
        <time>2022-07-29T15:47:17Z</time>
      </trkpt>
      <trkpt lat="46.45833" lon="5.71273">
        <ele>574.2</ele>
        <time>2022-07-29T15:47:18Z</time>
      </trkpt>
      <trkpt lat="46.45839" lon="5.71267">
        <ele>574</ele>
        <time>2022-07-29T15:47:19Z</time>
      </trkpt>
      <trkpt lat="46.45845" lon="5.71261">
        <ele>573.8</ele>
        <time>2022-07-29T15:47:20Z</time>
      </trkpt>
      <trkpt lat="46.45851" lon="5.71255">
        <ele>573.4</ele>
        <time>2022-07-29T15:47:21Z</time>
      </trkpt>
      <trkpt lat="46.45858" lon="5.71249">
        <ele>573.2</ele>
        <time>2022-07-29T15:47:22Z</time>
      </trkpt>
      <trkpt lat="46.45864" lon="5.71243">
        <ele>573</ele>
        <time>2022-07-29T15:47:23Z</time>
      </trkpt>
      <trkpt lat="46.45871" lon="5.71237">
        <ele>572.6</ele>
        <time>2022-07-29T15:47:24Z</time>
      </trkpt>
      <trkpt lat="46.45878" lon="5.71231">
        <ele>572.2</ele>
        <time>2022-07-29T15:47:25Z</time>
      </trkpt>
      <trkpt lat="46.45885" lon="5.71224">
        <ele>572</ele>
        <time>2022-07-29T15:47:26Z</time>
      </trkpt>
      <trkpt lat="46.45892" lon="5.71217">
        <ele>571.6</ele>
        <time>2022-07-29T15:47:27Z</time>
      </trkpt>
      <trkpt lat="46.459" lon="5.7121">
        <ele>571.2</ele>
        <time>2022-07-29T15:47:28Z</time>
      </trkpt>
      <trkpt lat="46.45907" lon="5.71204">
        <ele>570.8</ele>
        <time>2022-07-29T15:47:29Z</time>
      </trkpt>
      <trkpt lat="46.45915" lon="5.71196">
        <ele>570.4</ele>
        <time>2022-07-29T15:47:30Z</time>
      </trkpt>
      <trkpt lat="46.45923" lon="5.71189">
        <ele>569.8</ele>
        <time>2022-07-29T15:47:31Z</time>
      </trkpt>
      <trkpt lat="46.45931" lon="5.71182">
        <ele>569.4</ele>
        <time>2022-07-29T15:47:32Z</time>
      </trkpt>
      <trkpt lat="46.45939" lon="5.71174">
        <ele>568.8</ele>
        <time>2022-07-29T15:47:33Z</time>
      </trkpt>
      <trkpt lat="46.45947" lon="5.71167">
        <ele>568.4</ele>
        <time>2022-07-29T15:47:34Z</time>
      </trkpt>
      <trkpt lat="46.45955" lon="5.71159">
        <ele>568</ele>
        <time>2022-07-29T15:47:35Z</time>
      </trkpt>
      <trkpt lat="46.45963" lon="5.71151">
        <ele>567.4</ele>
        <time>2022-07-29T15:47:36Z</time>
      </trkpt>
      <trkpt lat="46.45971" lon="5.71142">
        <ele>567.2</ele>
        <time>2022-07-29T15:47:37Z</time>
      </trkpt>
      <trkpt lat="46.45978" lon="5.71133">
        <ele>566.8</ele>
        <time>2022-07-29T15:47:38Z</time>
      </trkpt>
      <trkpt lat="46.45986" lon="5.71124">
        <ele>566.2</ele>
        <time>2022-07-29T15:47:39Z</time>
      </trkpt>
      <trkpt lat="46.45993" lon="5.71115">
        <ele>565.8</ele>
        <time>2022-07-29T15:47:40Z</time>
      </trkpt>
      <trkpt lat="46.46001" lon="5.71105">
        <ele>565.2</ele>
        <time>2022-07-29T15:47:41Z</time>
      </trkpt>
      <trkpt lat="46.46008" lon="5.71095">
        <ele>564.8</ele>
        <time>2022-07-29T15:47:42Z</time>
      </trkpt>
      <trkpt lat="46.46016" lon="5.71085">
        <ele>564.2</ele>
        <time>2022-07-29T15:47:43Z</time>
      </trkpt>
      <trkpt lat="46.46023" lon="5.71075">
        <ele>563.8</ele>
        <time>2022-07-29T15:47:44Z</time>
      </trkpt>
      <trkpt lat="46.4603" lon="5.71064">
        <ele>563.2</ele>
        <time>2022-07-29T15:47:45Z</time>
      </trkpt>
      <trkpt lat="46.46036" lon="5.71052">
        <ele>562.8</ele>
        <time>2022-07-29T15:47:46Z</time>
      </trkpt>
      <trkpt lat="46.46043" lon="5.7104">
        <ele>562.4</ele>
        <time>2022-07-29T15:47:47Z</time>
      </trkpt>
      <trkpt lat="46.46049" lon="5.71028">
        <ele>561.8</ele>
        <time>2022-07-29T15:47:48Z</time>
      </trkpt>
      <trkpt lat="46.46055" lon="5.71016">
        <ele>561.4</ele>
        <time>2022-07-29T15:47:49Z</time>
      </trkpt>
      <trkpt lat="46.46055" lon="5.71016">
        <ele>560.8</ele>
        <time>2022-07-29T15:47:50Z</time>
      </trkpt>
      <trkpt lat="46.46062" lon="5.71003">
        <ele>560.4</ele>
        <time>2022-07-29T15:47:51Z</time>
      </trkpt>
      <trkpt lat="46.46068" lon="5.70991">
        <ele>559.8</ele>
        <time>2022-07-29T15:47:52Z</time>
      </trkpt>
      <trkpt lat="46.46074" lon="5.70978">
        <ele>559.6</ele>
        <time>2022-07-29T15:47:53Z</time>
      </trkpt>
      <trkpt lat="46.4608" lon="5.70965">
        <ele>559</ele>
        <time>2022-07-29T15:47:54Z</time>
      </trkpt>
      <trkpt lat="46.46085" lon="5.70952">
        <ele>558.4</ele>
        <time>2022-07-29T15:47:55Z</time>
      </trkpt>
      <trkpt lat="46.4609" lon="5.70937">
        <ele>557.6</ele>
        <time>2022-07-29T15:47:56Z</time>
      </trkpt>
      <trkpt lat="46.46094" lon="5.70922">
        <ele>557</ele>
        <time>2022-07-29T15:47:57Z</time>
      </trkpt>
      <trkpt lat="46.46097" lon="5.70907">
        <ele>556.6</ele>
        <time>2022-07-29T15:47:58Z</time>
      </trkpt>
      <trkpt lat="46.461" lon="5.70893">
        <ele>556</ele>
        <time>2022-07-29T15:47:59Z</time>
      </trkpt>
      <trkpt lat="46.46105" lon="5.70863">
        <ele>555.4</ele>
        <time>2022-07-29T15:48:00Z</time>
      </trkpt>
      <trkpt lat="46.46108" lon="5.70848">
        <ele>555</ele>
        <time>2022-07-29T15:48:01Z</time>
      </trkpt>
      <trkpt lat="46.46109" lon="5.70832">
        <ele>554.4</ele>
        <time>2022-07-29T15:48:02Z</time>
      </trkpt>
      <trkpt lat="46.4611" lon="5.70817">
        <ele>553.8</ele>
        <time>2022-07-29T15:48:03Z</time>
      </trkpt>
      <trkpt lat="46.46111" lon="5.70802">
        <ele>553.4</ele>
        <time>2022-07-29T15:48:04Z</time>
      </trkpt>
      <trkpt lat="46.46111" lon="5.70786">
        <ele>552.8</ele>
        <time>2022-07-29T15:48:05Z</time>
      </trkpt>
      <trkpt lat="46.46113" lon="5.70771">
        <ele>552.4</ele>
        <time>2022-07-29T15:48:06Z</time>
      </trkpt>
      <trkpt lat="46.46114" lon="5.70756">
        <ele>552</ele>
        <time>2022-07-29T15:48:07Z</time>
      </trkpt>
      <trkpt lat="46.46116" lon="5.7074">
        <ele>551.4</ele>
        <time>2022-07-29T15:48:08Z</time>
      </trkpt>
      <trkpt lat="46.46119" lon="5.70724">
        <ele>550.8</ele>
        <time>2022-07-29T15:48:09Z</time>
      </trkpt>
      <trkpt lat="46.46123" lon="5.7071">
        <ele>550.4</ele>
        <time>2022-07-29T15:48:10Z</time>
      </trkpt>
      <trkpt lat="46.46126" lon="5.70695">
        <ele>550</ele>
        <time>2022-07-29T15:48:11Z</time>
      </trkpt>
      <trkpt lat="46.46129" lon="5.70682">
        <ele>549.4</ele>
        <time>2022-07-29T15:48:12Z</time>
      </trkpt>
      <trkpt lat="46.46133" lon="5.70669">
        <ele>549</ele>
        <time>2022-07-29T15:48:13Z</time>
      </trkpt>
      <trkpt lat="46.46139" lon="5.70656">
        <ele>548.6</ele>
        <time>2022-07-29T15:48:14Z</time>
      </trkpt>
      <trkpt lat="46.46145" lon="5.70643">
        <ele>548</ele>
        <time>2022-07-29T15:48:15Z</time>
      </trkpt>
      <trkpt lat="46.46151" lon="5.7063">
        <ele>547.6</ele>
        <time>2022-07-29T15:48:16Z</time>
      </trkpt>
      <trkpt lat="46.46158" lon="5.70617">
        <ele>546.8</ele>
        <time>2022-07-29T15:48:17Z</time>
      </trkpt>
      <trkpt lat="46.46164" lon="5.70604">
        <ele>546.2</ele>
        <time>2022-07-29T15:48:18Z</time>
      </trkpt>
      <trkpt lat="46.4617" lon="5.70591">
        <ele>545.8</ele>
        <time>2022-07-29T15:48:19Z</time>
      </trkpt>
      <trkpt lat="46.46175" lon="5.70578">
        <ele>545.2</ele>
        <time>2022-07-29T15:48:20Z</time>
      </trkpt>
      <trkpt lat="46.46181" lon="5.70565">
        <ele>544.8</ele>
        <time>2022-07-29T15:48:21Z</time>
      </trkpt>
      <trkpt lat="46.46188" lon="5.70552">
        <ele>544.2</ele>
        <time>2022-07-29T15:48:22Z</time>
      </trkpt>
      <trkpt lat="46.46195" lon="5.7054">
        <ele>543.8</ele>
        <time>2022-07-29T15:48:23Z</time>
      </trkpt>
      <trkpt lat="46.46202" lon="5.70527">
        <ele>543.2</ele>
        <time>2022-07-29T15:48:24Z</time>
      </trkpt>
      <trkpt lat="46.46209" lon="5.70515">
        <ele>542.8</ele>
        <time>2022-07-29T15:48:25Z</time>
      </trkpt>
      <trkpt lat="46.46216" lon="5.70503">
        <ele>542.2</ele>
        <time>2022-07-29T15:48:26Z</time>
      </trkpt>
      <trkpt lat="46.46224" lon="5.70491">
        <ele>541.4</ele>
        <time>2022-07-29T15:48:27Z</time>
      </trkpt>
      <trkpt lat="46.46232" lon="5.70479">
        <ele>540.6</ele>
        <time>2022-07-29T15:48:28Z</time>
      </trkpt>
      <trkpt lat="46.46239" lon="5.70467">
        <ele>539.8</ele>
        <time>2022-07-29T15:48:29Z</time>
      </trkpt>
      <trkpt lat="46.46246" lon="5.70453">
        <ele>539</ele>
        <time>2022-07-29T15:48:30Z</time>
      </trkpt>
      <trkpt lat="46.46253" lon="5.7044">
        <ele>538.2</ele>
        <time>2022-07-29T15:48:31Z</time>
      </trkpt>
      <trkpt lat="46.46261" lon="5.70428">
        <ele>537.6</ele>
        <time>2022-07-29T15:48:32Z</time>
      </trkpt>
      <trkpt lat="46.46268" lon="5.70415">
        <ele>536.8</ele>
        <time>2022-07-29T15:48:33Z</time>
      </trkpt>
      <trkpt lat="46.46276" lon="5.70401">
        <ele>536.2</ele>
        <time>2022-07-29T15:48:34Z</time>
      </trkpt>
      <trkpt lat="46.46284" lon="5.70388">
        <ele>535.4</ele>
        <time>2022-07-29T15:48:35Z</time>
      </trkpt>
      <trkpt lat="46.46291" lon="5.70376">
        <ele>534.6</ele>
        <time>2022-07-29T15:48:36Z</time>
      </trkpt>
      <trkpt lat="46.46299" lon="5.70363">
        <ele>533.8</ele>
        <time>2022-07-29T15:48:37Z</time>
      </trkpt>
      <trkpt lat="46.46307" lon="5.70349">
        <ele>533</ele>
        <time>2022-07-29T15:48:38Z</time>
      </trkpt>
      <trkpt lat="46.46315" lon="5.70336">
        <ele>532.2</ele>
        <time>2022-07-29T15:48:39Z</time>
      </trkpt>
      <trkpt lat="46.46323" lon="5.70322">
        <ele>531.4</ele>
        <time>2022-07-29T15:48:40Z</time>
      </trkpt>
      <trkpt lat="46.46331" lon="5.7031">
        <ele>530.6</ele>
        <time>2022-07-29T15:48:41Z</time>
      </trkpt>
      <trkpt lat="46.4634" lon="5.70297">
        <ele>529.6</ele>
        <time>2022-07-29T15:48:42Z</time>
      </trkpt>
      <trkpt lat="46.46349" lon="5.70286">
        <ele>528.8</ele>
        <time>2022-07-29T15:48:43Z</time>
      </trkpt>
      <trkpt lat="46.46359" lon="5.70276">
        <ele>528</ele>
        <time>2022-07-29T15:48:44Z</time>
      </trkpt>
      <trkpt lat="46.46369" lon="5.70266">
        <ele>527.2</ele>
        <time>2022-07-29T15:48:45Z</time>
      </trkpt>
      <trkpt lat="46.46379" lon="5.70258">
        <ele>526.6</ele>
        <time>2022-07-29T15:48:46Z</time>
      </trkpt>
      <trkpt lat="46.4639" lon="5.70251">
        <ele>526</ele>
        <time>2022-07-29T15:48:47Z</time>
      </trkpt>
      <trkpt lat="46.46401" lon="5.70247">
        <ele>525.4</ele>
        <time>2022-07-29T15:48:48Z</time>
      </trkpt>
      <trkpt lat="46.46413" lon="5.70244">
        <ele>524.6</ele>
        <time>2022-07-29T15:48:49Z</time>
      </trkpt>
      <trkpt lat="46.46426" lon="5.70242">
        <ele>523.8</ele>
        <time>2022-07-29T15:48:50Z</time>
      </trkpt>
      <trkpt lat="46.46438" lon="5.7024">
        <ele>523</ele>
        <time>2022-07-29T15:48:51Z</time>
      </trkpt>
      <trkpt lat="46.4645" lon="5.70236">
        <ele>522.4</ele>
        <time>2022-07-29T15:48:52Z</time>
      </trkpt>
      <trkpt lat="46.46461" lon="5.70229">
        <ele>521.8</ele>
        <time>2022-07-29T15:48:53Z</time>
      </trkpt>
      <trkpt lat="46.46469" lon="5.70219">
        <ele>521.4</ele>
        <time>2022-07-29T15:48:54Z</time>
      </trkpt>
      <trkpt lat="46.46476" lon="5.70207">
        <ele>521.4</ele>
        <time>2022-07-29T15:48:55Z</time>
      </trkpt>
      <trkpt lat="46.46481" lon="5.70192">
        <ele>521</ele>
        <time>2022-07-29T15:48:56Z</time>
      </trkpt>
      <trkpt lat="46.46484" lon="5.70176">
        <ele>520.6</ele>
        <time>2022-07-29T15:48:57Z</time>
      </trkpt>
      <trkpt lat="46.46485" lon="5.70158">
        <ele>520</ele>
        <time>2022-07-29T15:48:58Z</time>
      </trkpt>
      <trkpt lat="46.46485" lon="5.70142">
        <ele>519.6</ele>
        <time>2022-07-29T15:48:59Z</time>
      </trkpt>
      <trkpt lat="46.46485" lon="5.70124">
        <ele>519</ele>
        <time>2022-07-29T15:49:00Z</time>
      </trkpt>
      <trkpt lat="46.46485" lon="5.70107">
        <ele>518.4</ele>
        <time>2022-07-29T15:49:01Z</time>
      </trkpt>
      <trkpt lat="46.46484" lon="5.7009">
        <ele>517.8</ele>
        <time>2022-07-29T15:49:02Z</time>
      </trkpt>
      <trkpt lat="46.46483" lon="5.70074">
        <ele>516.6</ele>
        <time>2022-07-29T15:49:03Z</time>
      </trkpt>
      <trkpt lat="46.46482" lon="5.70058">
        <ele>516</ele>
        <time>2022-07-29T15:49:04Z</time>
      </trkpt>
      <trkpt lat="46.46482" lon="5.70041">
        <ele>515.4</ele>
        <time>2022-07-29T15:49:05Z</time>
      </trkpt>
      <trkpt lat="46.46481" lon="5.70024">
        <ele>514.8</ele>
        <time>2022-07-29T15:49:06Z</time>
      </trkpt>
      <trkpt lat="46.4648" lon="5.70007">
        <ele>514.2</ele>
        <time>2022-07-29T15:49:07Z</time>
      </trkpt>
      <trkpt lat="46.46479" lon="5.6999">
        <ele>513.4</ele>
        <time>2022-07-29T15:49:08Z</time>
      </trkpt>
      <trkpt lat="46.46477" lon="5.69973">
        <ele>512.8</ele>
        <time>2022-07-29T15:49:09Z</time>
      </trkpt>
      <trkpt lat="46.46477" lon="5.69958">
        <ele>512.2</ele>
        <time>2022-07-29T15:49:10Z</time>
      </trkpt>
      <trkpt lat="46.46477" lon="5.69942">
        <ele>511.6</ele>
        <time>2022-07-29T15:49:11Z</time>
      </trkpt>
      <trkpt lat="46.46478" lon="5.69927">
        <ele>511</ele>
        <time>2022-07-29T15:49:12Z</time>
      </trkpt>
      <trkpt lat="46.4648" lon="5.69911">
        <ele>510.2</ele>
        <time>2022-07-29T15:49:13Z</time>
      </trkpt>
      <trkpt lat="46.46484" lon="5.69895">
        <ele>509.6</ele>
        <time>2022-07-29T15:49:14Z</time>
      </trkpt>
      <trkpt lat="46.46489" lon="5.69881">
        <ele>509</ele>
        <time>2022-07-29T15:49:15Z</time>
      </trkpt>
      <trkpt lat="46.46496" lon="5.69868">
        <ele>508.4</ele>
        <time>2022-07-29T15:49:16Z</time>
      </trkpt>
      <trkpt lat="46.46503" lon="5.69855">
        <ele>507.8</ele>
        <time>2022-07-29T15:49:17Z</time>
      </trkpt>
      <trkpt lat="46.46511" lon="5.69844">
        <ele>507.6</ele>
        <time>2022-07-29T15:49:18Z</time>
      </trkpt>
      <trkpt lat="46.46519" lon="5.69834">
        <ele>506.8</ele>
        <time>2022-07-29T15:49:19Z</time>
      </trkpt>
      <trkpt lat="46.46528" lon="5.69825">
        <ele>506.2</ele>
        <time>2022-07-29T15:49:20Z</time>
      </trkpt>
      <trkpt lat="46.46537" lon="5.69816">
        <ele>505.6</ele>
        <time>2022-07-29T15:49:21Z</time>
      </trkpt>
      <trkpt lat="46.46546" lon="5.69806">
        <ele>505.2</ele>
        <time>2022-07-29T15:49:22Z</time>
      </trkpt>
      <trkpt lat="46.46555" lon="5.69797">
        <ele>504.6</ele>
        <time>2022-07-29T15:49:23Z</time>
      </trkpt>
      <trkpt lat="46.46563" lon="5.69788">
        <ele>503.8</ele>
        <time>2022-07-29T15:49:24Z</time>
      </trkpt>
      <trkpt lat="46.46572" lon="5.69778">
        <ele>503.2</ele>
        <time>2022-07-29T15:49:25Z</time>
      </trkpt>
      <trkpt lat="46.4658" lon="5.69769">
        <ele>502.6</ele>
        <time>2022-07-29T15:49:26Z</time>
      </trkpt>
      <trkpt lat="46.46589" lon="5.69759">
        <ele>501.8</ele>
        <time>2022-07-29T15:49:27Z</time>
      </trkpt>
      <trkpt lat="46.46597" lon="5.69749">
        <ele>501.6</ele>
        <time>2022-07-29T15:49:28Z</time>
      </trkpt>
      <trkpt lat="46.46605" lon="5.69739">
        <ele>501</ele>
        <time>2022-07-29T15:49:29Z</time>
      </trkpt>
      <trkpt lat="46.46613" lon="5.69728">
        <ele>500.4</ele>
        <time>2022-07-29T15:49:30Z</time>
      </trkpt>
      <trkpt lat="46.46621" lon="5.69717">
        <ele>500.4</ele>
        <time>2022-07-29T15:49:31Z</time>
      </trkpt>
      <trkpt lat="46.46628" lon="5.69705">
        <ele>499.6</ele>
        <time>2022-07-29T15:49:32Z</time>
      </trkpt>
      <trkpt lat="46.46636" lon="5.69693">
        <ele>499</ele>
        <time>2022-07-29T15:49:33Z</time>
      </trkpt>
      <trkpt lat="46.46643" lon="5.69682">
        <ele>498.6</ele>
        <time>2022-07-29T15:49:34Z</time>
      </trkpt>
      <trkpt lat="46.4665" lon="5.69672">
        <ele>498</ele>
        <time>2022-07-29T15:49:35Z</time>
      </trkpt>
      <trkpt lat="46.46656" lon="5.69662">
        <ele>497.4</ele>
        <time>2022-07-29T15:49:36Z</time>
      </trkpt>
      <trkpt lat="46.46663" lon="5.69651">
        <ele>496.8</ele>
        <time>2022-07-29T15:49:37Z</time>
      </trkpt>
      <trkpt lat="46.4667" lon="5.6964">
        <ele>496.4</ele>
        <time>2022-07-29T15:49:38Z</time>
      </trkpt>
      <trkpt lat="46.46676" lon="5.6963">
        <ele>495.8</ele>
        <time>2022-07-29T15:49:39Z</time>
      </trkpt>
      <trkpt lat="46.46683" lon="5.69619">
        <ele>495.2</ele>
        <time>2022-07-29T15:49:40Z</time>
      </trkpt>
      <trkpt lat="46.4669" lon="5.69608">
        <ele>494.6</ele>
        <time>2022-07-29T15:49:41Z</time>
      </trkpt>
      <trkpt lat="46.46696" lon="5.69598">
        <ele>494</ele>
        <time>2022-07-29T15:49:42Z</time>
      </trkpt>
      <trkpt lat="46.46703" lon="5.69587">
        <ele>493.4</ele>
        <time>2022-07-29T15:49:43Z</time>
      </trkpt>
      <trkpt lat="46.46711" lon="5.69576">
        <ele>493</ele>
        <time>2022-07-29T15:49:44Z</time>
      </trkpt>
      <trkpt lat="46.46718" lon="5.69565">
        <ele>492.4</ele>
        <time>2022-07-29T15:49:45Z</time>
      </trkpt>
      <trkpt lat="46.46725" lon="5.69554">
        <ele>491.8</ele>
        <time>2022-07-29T15:49:46Z</time>
      </trkpt>
      <trkpt lat="46.46732" lon="5.69542">
        <ele>491.2</ele>
        <time>2022-07-29T15:49:47Z</time>
      </trkpt>
      <trkpt lat="46.46739" lon="5.6953">
        <ele>490.4</ele>
        <time>2022-07-29T15:49:48Z</time>
      </trkpt>
      <trkpt lat="46.46746" lon="5.69519">
        <ele>490</ele>
        <time>2022-07-29T15:49:49Z</time>
      </trkpt>
      <trkpt lat="46.46752" lon="5.6951">
        <ele>489.4</ele>
        <time>2022-07-29T15:49:50Z</time>
      </trkpt>
      <trkpt lat="46.46759" lon="5.69501">
        <ele>489</ele>
        <time>2022-07-29T15:49:51Z</time>
      </trkpt>
      <trkpt lat="46.46767" lon="5.69495">
        <ele>488.4</ele>
        <time>2022-07-29T15:49:52Z</time>
      </trkpt>
      <trkpt lat="46.46776" lon="5.69492">
        <ele>487.8</ele>
        <time>2022-07-29T15:49:53Z</time>
      </trkpt>
      <trkpt lat="46.46786" lon="5.69493">
        <ele>487.2</ele>
        <time>2022-07-29T15:49:54Z</time>
      </trkpt>
      <trkpt lat="46.46795" lon="5.69495">
        <ele>486.6</ele>
        <time>2022-07-29T15:49:55Z</time>
      </trkpt>
      <trkpt lat="46.46805" lon="5.69498">
        <ele>486.2</ele>
        <time>2022-07-29T15:49:56Z</time>
      </trkpt>
      <trkpt lat="46.46815" lon="5.69501">
        <ele>485.6</ele>
        <time>2022-07-29T15:49:57Z</time>
      </trkpt>
      <trkpt lat="46.46825" lon="5.69504">
        <ele>485.2</ele>
        <time>2022-07-29T15:49:58Z</time>
      </trkpt>
      <trkpt lat="46.46834" lon="5.69506">
        <ele>484.6</ele>
        <time>2022-07-29T15:49:59Z</time>
      </trkpt>
      <trkpt lat="46.46844" lon="5.69507">
        <ele>484</ele>
        <time>2022-07-29T15:50:00Z</time>
      </trkpt>
      <trkpt lat="46.46855" lon="5.69508">
        <ele>483.6</ele>
        <time>2022-07-29T15:50:01Z</time>
      </trkpt>
      <trkpt lat="46.46863" lon="5.69508">
        <ele>483</ele>
        <time>2022-07-29T15:50:02Z</time>
      </trkpt>
      <trkpt lat="46.46872" lon="5.69508">
        <ele>482.4</ele>
        <time>2022-07-29T15:50:03Z</time>
      </trkpt>
      <trkpt lat="46.4688" lon="5.69508">
        <ele>482</ele>
        <time>2022-07-29T15:50:04Z</time>
      </trkpt>
      <trkpt lat="46.4689" lon="5.69505">
        <ele>481.4</ele>
        <time>2022-07-29T15:50:05Z</time>
      </trkpt>
      <trkpt lat="46.46898" lon="5.69504">
        <ele>481</ele>
        <time>2022-07-29T15:50:06Z</time>
      </trkpt>
      <trkpt lat="46.46907" lon="5.69503">
        <ele>480.6</ele>
        <time>2022-07-29T15:50:07Z</time>
      </trkpt>
      <trkpt lat="46.46914" lon="5.69501">
        <ele>480.2</ele>
        <time>2022-07-29T15:50:08Z</time>
      </trkpt>
      <trkpt lat="46.4692" lon="5.69498">
        <ele>479.8</ele>
        <time>2022-07-29T15:50:09Z</time>
      </trkpt>
      <trkpt lat="46.46926" lon="5.69494">
        <ele>479.4</ele>
        <time>2022-07-29T15:50:10Z</time>
      </trkpt>
      <trkpt lat="46.46932" lon="5.69487">
        <ele>479</ele>
        <time>2022-07-29T15:50:11Z</time>
      </trkpt>
      <trkpt lat="46.46937" lon="5.69479">
        <ele>478.4</ele>
        <time>2022-07-29T15:50:12Z</time>
      </trkpt>
      <trkpt lat="46.46941" lon="5.6947">
        <ele>478</ele>
        <time>2022-07-29T15:50:13Z</time>
      </trkpt>
      <trkpt lat="46.46943" lon="5.6946">
        <ele>477.6</ele>
        <time>2022-07-29T15:50:14Z</time>
      </trkpt>
      <trkpt lat="46.46945" lon="5.6945">
        <ele>477.4</ele>
        <time>2022-07-29T15:50:15Z</time>
      </trkpt>
      <trkpt lat="46.46943" lon="5.69442">
        <ele>477</ele>
        <time>2022-07-29T15:50:16Z</time>
      </trkpt>
      <trkpt lat="46.46938" lon="5.69434">
        <ele>476.8</ele>
        <time>2022-07-29T15:50:17Z</time>
      </trkpt>
      <trkpt lat="46.46932" lon="5.69427">
        <ele>476.6</ele>
        <time>2022-07-29T15:50:18Z</time>
      </trkpt>
      <trkpt lat="46.46926" lon="5.6942">
        <ele>476.2</ele>
        <time>2022-07-29T15:50:19Z</time>
      </trkpt>
      <trkpt lat="46.4692" lon="5.69413">
        <ele>475.8</ele>
        <time>2022-07-29T15:50:20Z</time>
      </trkpt>
      <trkpt lat="46.46913" lon="5.69405">
        <ele>475.4</ele>
        <time>2022-07-29T15:50:21Z</time>
      </trkpt>
      <trkpt lat="46.46907" lon="5.69397">
        <ele>475</ele>
        <time>2022-07-29T15:50:22Z</time>
      </trkpt>
      <trkpt lat="46.46901" lon="5.69389">
        <ele>474.6</ele>
        <time>2022-07-29T15:50:23Z</time>
      </trkpt>
      <trkpt lat="46.46895" lon="5.69379">
        <ele>474.2</ele>
        <time>2022-07-29T15:50:24Z</time>
      </trkpt>
      <trkpt lat="46.46889" lon="5.6937">
        <ele>473.8</ele>
        <time>2022-07-29T15:50:25Z</time>
      </trkpt>
      <trkpt lat="46.46882" lon="5.6936">
        <ele>473.4</ele>
        <time>2022-07-29T15:50:26Z</time>
      </trkpt>
      <trkpt lat="46.46876" lon="5.69349">
        <ele>472.8</ele>
        <time>2022-07-29T15:50:27Z</time>
      </trkpt>
      <trkpt lat="46.46871" lon="5.69338">
        <ele>472.2</ele>
        <time>2022-07-29T15:50:28Z</time>
      </trkpt>
      <trkpt lat="46.46864" lon="5.69328">
        <ele>471.6</ele>
        <time>2022-07-29T15:50:29Z</time>
      </trkpt>
      <trkpt lat="46.46858" lon="5.69316">
        <ele>471</ele>
        <time>2022-07-29T15:50:30Z</time>
      </trkpt>
      <trkpt lat="46.46852" lon="5.69305">
        <ele>470.4</ele>
        <time>2022-07-29T15:50:31Z</time>
      </trkpt>
      <trkpt lat="46.46845" lon="5.69293">
        <ele>469.8</ele>
        <time>2022-07-29T15:50:32Z</time>
      </trkpt>
      <trkpt lat="46.46838" lon="5.69282">
        <ele>469.4</ele>
        <time>2022-07-29T15:50:33Z</time>
      </trkpt>
      <trkpt lat="46.46831" lon="5.69269">
        <ele>468.8</ele>
        <time>2022-07-29T15:50:34Z</time>
      </trkpt>
      <trkpt lat="46.46825" lon="5.69257">
        <ele>468.4</ele>
        <time>2022-07-29T15:50:35Z</time>
      </trkpt>
      <trkpt lat="46.46818" lon="5.69245">
        <ele>467.8</ele>
        <time>2022-07-29T15:50:36Z</time>
      </trkpt>
      <trkpt lat="46.46811" lon="5.69233">
        <ele>467.2</ele>
        <time>2022-07-29T15:50:37Z</time>
      </trkpt>
      <trkpt lat="46.46804" lon="5.69221">
        <ele>466.6</ele>
        <time>2022-07-29T15:50:38Z</time>
      </trkpt>
      <trkpt lat="46.46797" lon="5.69208">
        <ele>465.8</ele>
        <time>2022-07-29T15:50:39Z</time>
      </trkpt>
      <trkpt lat="46.4679" lon="5.69196">
        <ele>465.2</ele>
        <time>2022-07-29T15:50:40Z</time>
      </trkpt>
      <trkpt lat="46.46782" lon="5.69185">
        <ele>464.6</ele>
        <time>2022-07-29T15:50:41Z</time>
      </trkpt>
      <trkpt lat="46.46774" lon="5.69174">
        <ele>464</ele>
        <time>2022-07-29T15:50:42Z</time>
      </trkpt>
      <trkpt lat="46.46766" lon="5.69164">
        <ele>463.6</ele>
        <time>2022-07-29T15:50:43Z</time>
      </trkpt>
      <trkpt lat="46.46758" lon="5.69156">
        <ele>463</ele>
        <time>2022-07-29T15:50:44Z</time>
      </trkpt>
      <trkpt lat="46.4675" lon="5.69148">
        <ele>462.6</ele>
        <time>2022-07-29T15:50:45Z</time>
      </trkpt>
      <trkpt lat="46.46742" lon="5.69141">
        <ele>462</ele>
        <time>2022-07-29T15:50:46Z</time>
      </trkpt>
      <trkpt lat="46.46733" lon="5.69135">
        <ele>461.4</ele>
        <time>2022-07-29T15:50:47Z</time>
      </trkpt>
      <trkpt lat="46.46724" lon="5.69131">
        <ele>460.6</ele>
        <time>2022-07-29T15:50:48Z</time>
      </trkpt>
      <trkpt lat="46.46715" lon="5.6913">
        <ele>460</ele>
        <time>2022-07-29T15:50:49Z</time>
      </trkpt>
      <trkpt lat="46.46706" lon="5.6913">
        <ele>459.4</ele>
        <time>2022-07-29T15:50:50Z</time>
      </trkpt>
      <trkpt lat="46.46696" lon="5.69131">
        <ele>458.8</ele>
        <time>2022-07-29T15:50:51Z</time>
      </trkpt>
      <trkpt lat="46.46687" lon="5.69132">
        <ele>458.4</ele>
        <time>2022-07-29T15:50:52Z</time>
      </trkpt>
      <trkpt lat="46.46678" lon="5.69132">
        <ele>457.8</ele>
        <time>2022-07-29T15:50:53Z</time>
      </trkpt>
      <trkpt lat="46.46669" lon="5.69132">
        <ele>457.4</ele>
        <time>2022-07-29T15:50:54Z</time>
      </trkpt>
      <trkpt lat="46.4666" lon="5.69131">
        <ele>456.8</ele>
        <time>2022-07-29T15:50:55Z</time>
      </trkpt>
      <trkpt lat="46.46652" lon="5.69131">
        <ele>456.2</ele>
        <time>2022-07-29T15:50:56Z</time>
      </trkpt>
      <trkpt lat="46.46644" lon="5.6913">
        <ele>455.8</ele>
        <time>2022-07-29T15:50:57Z</time>
      </trkpt>
      <trkpt lat="46.46638" lon="5.69126">
        <ele>455.2</ele>
        <time>2022-07-29T15:50:58Z</time>
      </trkpt>
      <trkpt lat="46.46632" lon="5.69121">
        <ele>454.8</ele>
        <time>2022-07-29T15:50:59Z</time>
      </trkpt>
      <trkpt lat="46.46627" lon="5.69115">
        <ele>454.4</ele>
        <time>2022-07-29T15:51:00Z</time>
      </trkpt>
      <trkpt lat="46.46622" lon="5.69107">
        <ele>454</ele>
        <time>2022-07-29T15:51:01Z</time>
      </trkpt>
      <trkpt lat="46.46619" lon="5.69098">
        <ele>453.8</ele>
        <time>2022-07-29T15:51:02Z</time>
      </trkpt>
      <trkpt lat="46.46617" lon="5.69089">
        <ele>453.4</ele>
        <time>2022-07-29T15:51:03Z</time>
      </trkpt>
      <trkpt lat="46.46616" lon="5.6908">
        <ele>453</ele>
        <time>2022-07-29T15:51:04Z</time>
      </trkpt>
      <trkpt lat="46.46615" lon="5.69072">
        <ele>452.8</ele>
        <time>2022-07-29T15:51:05Z</time>
      </trkpt>
      <trkpt lat="46.46613" lon="5.69065">
        <ele>452.4</ele>
        <time>2022-07-29T15:51:06Z</time>
      </trkpt>
      <trkpt lat="46.46612" lon="5.69057">
        <ele>452</ele>
        <time>2022-07-29T15:51:07Z</time>
      </trkpt>
      <trkpt lat="46.46611" lon="5.6905">
        <ele>451.8</ele>
        <time>2022-07-29T15:51:08Z</time>
      </trkpt>
      <trkpt lat="46.4661" lon="5.69042">
        <ele>451.4</ele>
        <time>2022-07-29T15:51:09Z</time>
      </trkpt>
      <trkpt lat="46.46609" lon="5.69035">
        <ele>451.2</ele>
        <time>2022-07-29T15:51:10Z</time>
      </trkpt>
      <trkpt lat="46.46608" lon="5.69026">
        <ele>450.8</ele>
        <time>2022-07-29T15:51:11Z</time>
      </trkpt>
      <trkpt lat="46.46606" lon="5.69017">
        <ele>450.4</ele>
        <time>2022-07-29T15:51:12Z</time>
      </trkpt>
      <trkpt lat="46.46604" lon="5.69008">
        <ele>450</ele>
        <time>2022-07-29T15:51:13Z</time>
      </trkpt>
      <trkpt lat="46.46602" lon="5.69">
        <ele>449.8</ele>
        <time>2022-07-29T15:51:14Z</time>
      </trkpt>
      <trkpt lat="46.46601" lon="5.68991">
        <ele>449.4</ele>
        <time>2022-07-29T15:51:15Z</time>
      </trkpt>
      <trkpt lat="46.46598" lon="5.68983">
        <ele>449</ele>
        <time>2022-07-29T15:51:16Z</time>
      </trkpt>
      <trkpt lat="46.46595" lon="5.68975">
        <ele>448.8</ele>
        <time>2022-07-29T15:51:17Z</time>
      </trkpt>
      <trkpt lat="46.46592" lon="5.68967">
        <ele>448.6</ele>
        <time>2022-07-29T15:51:18Z</time>
      </trkpt>
      <trkpt lat="46.46589" lon="5.68959">
        <ele>448.2</ele>
        <time>2022-07-29T15:51:19Z</time>
      </trkpt>
      <trkpt lat="46.46586" lon="5.68952">
        <ele>448</ele>
        <time>2022-07-29T15:51:20Z</time>
      </trkpt>
      <trkpt lat="46.46583" lon="5.68944">
        <ele>447.6</ele>
        <time>2022-07-29T15:51:21Z</time>
      </trkpt>
      <trkpt lat="46.4658" lon="5.68937">
        <ele>447.4</ele>
        <time>2022-07-29T15:51:22Z</time>
      </trkpt>
      <trkpt lat="46.46577" lon="5.68931">
        <ele>446.8</ele>
        <time>2022-07-29T15:51:23Z</time>
      </trkpt>
      <trkpt lat="46.46573" lon="5.68923">
        <ele>446.6</ele>
        <time>2022-07-29T15:51:24Z</time>
      </trkpt>
      <trkpt lat="46.4657" lon="5.68916">
        <ele>446.2</ele>
        <time>2022-07-29T15:51:25Z</time>
      </trkpt>
      <trkpt lat="46.46567" lon="5.68909">
        <ele>446</ele>
        <time>2022-07-29T15:51:26Z</time>
      </trkpt>
      <trkpt lat="46.46563" lon="5.68902">
        <ele>445.6</ele>
        <time>2022-07-29T15:51:27Z</time>
      </trkpt>
      <trkpt lat="46.46559" lon="5.68896">
        <ele>445.2</ele>
        <time>2022-07-29T15:51:28Z</time>
      </trkpt>
      <trkpt lat="46.46555" lon="5.6889">
        <ele>445</ele>
        <time>2022-07-29T15:51:29Z</time>
      </trkpt>
      <trkpt lat="46.46551" lon="5.68884">
        <ele>444.6</ele>
        <time>2022-07-29T15:51:30Z</time>
      </trkpt>
      <trkpt lat="46.46547" lon="5.6888">
        <ele>444.4</ele>
        <time>2022-07-29T15:51:31Z</time>
      </trkpt>
      <trkpt lat="46.46542" lon="5.68877">
        <ele>444.2</ele>
        <time>2022-07-29T15:51:32Z</time>
      </trkpt>
      <trkpt lat="46.46537" lon="5.68874">
        <ele>444</ele>
        <time>2022-07-29T15:51:33Z</time>
      </trkpt>
      <trkpt lat="46.46533" lon="5.68871">
        <ele>443.6</ele>
        <time>2022-07-29T15:51:34Z</time>
      </trkpt>
      <trkpt lat="46.46528" lon="5.68868">
        <ele>443.4</ele>
        <time>2022-07-29T15:51:35Z</time>
      </trkpt>
      <trkpt lat="46.46524" lon="5.68865">
        <ele>443.2</ele>
        <time>2022-07-29T15:51:36Z</time>
      </trkpt>
      <trkpt lat="46.4652" lon="5.68862">
        <ele>442.8</ele>
        <time>2022-07-29T15:51:37Z</time>
      </trkpt>
      <trkpt lat="46.46517" lon="5.6886">
        <ele>442.6</ele>
        <time>2022-07-29T15:51:38Z</time>
      </trkpt>
      <trkpt lat="46.46513" lon="5.68858">
        <ele>442.4</ele>
        <time>2022-07-29T15:51:39Z</time>
      </trkpt>
      <trkpt lat="46.4651" lon="5.68855">
        <ele>442.4</ele>
        <time>2022-07-29T15:51:40Z</time>
      </trkpt>
      <trkpt lat="46.46508" lon="5.68854">
        <ele>442</ele>
        <time>2022-07-29T15:51:41Z</time>
      </trkpt>
      <trkpt lat="46.46505" lon="5.68853">
        <ele>441.8</ele>
        <time>2022-07-29T15:51:42Z</time>
      </trkpt>
      <trkpt lat="46.46504" lon="5.68854">
        <ele>441.8</ele>
        <time>2022-07-29T15:51:43Z</time>
      </trkpt>
      <trkpt lat="46.46504" lon="5.68854">
        <ele>441.4</ele>
        <time>2022-07-29T15:51:44Z</time>
      </trkpt>
      <trkpt lat="46.46504" lon="5.68855">
        <ele>441.4</ele>
        <time>2022-07-29T15:51:45Z</time>
      </trkpt>
      <trkpt lat="46.46505" lon="5.68856">
        <ele>441.4</ele>
        <time>2022-07-29T15:51:46Z</time>
      </trkpt>
      <trkpt lat="46.46511" lon="5.68859">
        <ele>441.4</ele>
        <time>2022-07-29T15:51:51Z</time>
      </trkpt>
      <trkpt lat="46.46513" lon="5.68859">
        <ele>441.4</ele>
        <time>2022-07-29T15:51:52Z</time>
      </trkpt>
      <trkpt lat="46.46515" lon="5.68861">
        <ele>441.6</ele>
        <time>2022-07-29T15:51:53Z</time>
      </trkpt>
      <trkpt lat="46.46517" lon="5.68862">
        <ele>441.6</ele>
        <time>2022-07-29T15:51:54Z</time>
      </trkpt>
      <trkpt lat="46.46519" lon="5.68863">
        <ele>441.6</ele>
        <time>2022-07-29T15:51:55Z</time>
      </trkpt>
      <trkpt lat="46.46521" lon="5.68864">
        <ele>441.8</ele>
        <time>2022-07-29T15:51:56Z</time>
      </trkpt>
      <trkpt lat="46.46524" lon="5.68865">
        <ele>441.8</ele>
        <time>2022-07-29T15:51:57Z</time>
      </trkpt>
      <trkpt lat="46.46526" lon="5.68865">
        <ele>442.2</ele>
        <time>2022-07-29T15:51:58Z</time>
      </trkpt>
      <trkpt lat="46.46529" lon="5.68866">
        <ele>442.2</ele>
        <time>2022-07-29T15:51:59Z</time>
      </trkpt>
      <trkpt lat="46.46531" lon="5.68867">
        <ele>442.4</ele>
        <time>2022-07-29T15:52:00Z</time>
      </trkpt>
      <trkpt lat="46.46533" lon="5.68869">
        <ele>442.4</ele>
        <time>2022-07-29T15:52:01Z</time>
      </trkpt>
      <trkpt lat="46.46535" lon="5.6887">
        <ele>442.6</ele>
        <time>2022-07-29T15:52:02Z</time>
      </trkpt>
      <trkpt lat="46.46537" lon="5.68873">
        <ele>442.6</ele>
        <time>2022-07-29T15:52:03Z</time>
      </trkpt>
      <trkpt lat="46.46539" lon="5.68875">
        <ele>443</ele>
        <time>2022-07-29T15:52:04Z</time>
      </trkpt>
      <trkpt lat="46.46542" lon="5.68877">
        <ele>443</ele>
        <time>2022-07-29T15:52:05Z</time>
      </trkpt>
      <trkpt lat="46.46544" lon="5.68878">
        <ele>443.2</ele>
        <time>2022-07-29T15:52:06Z</time>
      </trkpt>
      <trkpt lat="46.46544" lon="5.68878">
        <ele>443.2</ele>
        <time>2022-07-29T15:52:07Z</time>
      </trkpt>
      <trkpt lat="46.46547" lon="5.6888">
        <ele>443.4</ele>
        <time>2022-07-29T15:52:08Z</time>
      </trkpt>
      <trkpt lat="46.46549" lon="5.68882">
        <ele>443.4</ele>
        <time>2022-07-29T15:52:09Z</time>
      </trkpt>
      <trkpt lat="46.46552" lon="5.68884">
        <ele>443.4</ele>
        <time>2022-07-29T15:52:10Z</time>
      </trkpt>
      <trkpt lat="46.46554" lon="5.68886">
        <ele>443.6</ele>
        <time>2022-07-29T15:52:11Z</time>
      </trkpt>
      <trkpt lat="46.46556" lon="5.68888">
        <ele>443.6</ele>
        <time>2022-07-29T15:52:12Z</time>
      </trkpt>
      <trkpt lat="46.46558" lon="5.68891">
        <ele>443.8</ele>
        <time>2022-07-29T15:52:13Z</time>
      </trkpt>
      <trkpt lat="46.4656" lon="5.68893">
        <ele>443.8</ele>
        <time>2022-07-29T15:52:14Z</time>
      </trkpt>
      <trkpt lat="46.46562" lon="5.68894">
        <ele>443.8</ele>
        <time>2022-07-29T15:52:15Z</time>
      </trkpt>
      <trkpt lat="46.46563" lon="5.68897">
        <ele>444</ele>
        <time>2022-07-29T15:52:16Z</time>
      </trkpt>
      <trkpt lat="46.46564" lon="5.689">
        <ele>444</ele>
        <time>2022-07-29T15:52:17Z</time>
      </trkpt>
      <trkpt lat="46.46565" lon="5.68903">
        <ele>444.4</ele>
        <time>2022-07-29T15:52:18Z</time>
      </trkpt>
      <trkpt lat="46.46566" lon="5.68906">
        <ele>444.4</ele>
        <time>2022-07-29T15:52:19Z</time>
      </trkpt>
      <trkpt lat="46.46567" lon="5.6891">
        <ele>444.8</ele>
        <time>2022-07-29T15:52:20Z</time>
      </trkpt>
      <trkpt lat="46.46568" lon="5.68912">
        <ele>444.8</ele>
        <time>2022-07-29T15:52:21Z</time>
      </trkpt>
      <trkpt lat="46.4657" lon="5.68916">
        <ele>444.8</ele>
        <time>2022-07-29T15:52:22Z</time>
      </trkpt>
      <trkpt lat="46.46571" lon="5.68919">
        <ele>445</ele>
        <time>2022-07-29T15:52:23Z</time>
      </trkpt>
      <trkpt lat="46.46573" lon="5.68921">
        <ele>445</ele>
        <time>2022-07-29T15:52:24Z</time>
      </trkpt>
      <trkpt lat="46.46574" lon="5.68924">
        <ele>445.4</ele>
        <time>2022-07-29T15:52:25Z</time>
      </trkpt>
      <trkpt lat="46.46575" lon="5.68927">
        <ele>445.4</ele>
        <time>2022-07-29T15:52:26Z</time>
      </trkpt>
      <trkpt lat="46.46576" lon="5.6893">
        <ele>445.8</ele>
        <time>2022-07-29T15:52:27Z</time>
      </trkpt>
      <trkpt lat="46.46578" lon="5.68934">
        <ele>445.8</ele>
        <time>2022-07-29T15:52:28Z</time>
      </trkpt>
      <trkpt lat="46.46579" lon="5.68936">
        <ele>446.2</ele>
        <time>2022-07-29T15:52:29Z</time>
      </trkpt>
      <trkpt lat="46.4658" lon="5.68939">
        <ele>446.2</ele>
        <time>2022-07-29T15:52:30Z</time>
      </trkpt>
      <trkpt lat="46.46581" lon="5.68942">
        <ele>446.4</ele>
        <time>2022-07-29T15:52:31Z</time>
      </trkpt>
      <trkpt lat="46.46582" lon="5.68946">
        <ele>446.4</ele>
        <time>2022-07-29T15:52:32Z</time>
      </trkpt>
      <trkpt lat="46.46583" lon="5.68949">
        <ele>446.8</ele>
        <time>2022-07-29T15:52:33Z</time>
      </trkpt>
      <trkpt lat="46.46584" lon="5.68953">
        <ele>447</ele>
        <time>2022-07-29T15:52:34Z</time>
      </trkpt>
      <trkpt lat="46.46585" lon="5.68957">
        <ele>447</ele>
        <time>2022-07-29T15:52:35Z</time>
      </trkpt>
      <trkpt lat="46.46586" lon="5.68961">
        <ele>447.2</ele>
        <time>2022-07-29T15:52:36Z</time>
      </trkpt>
      <trkpt lat="46.46587" lon="5.68964">
        <ele>447.2</ele>
        <time>2022-07-29T15:52:37Z</time>
      </trkpt>
      <trkpt lat="46.46588" lon="5.68968">
        <ele>447.6</ele>
        <time>2022-07-29T15:52:38Z</time>
      </trkpt>
      <trkpt lat="46.46589" lon="5.68972">
        <ele>447.6</ele>
        <time>2022-07-29T15:52:39Z</time>
      </trkpt>
      <trkpt lat="46.4659" lon="5.68977">
        <ele>447.8</ele>
        <time>2022-07-29T15:52:40Z</time>
      </trkpt>
      <trkpt lat="46.46591" lon="5.6898">
        <ele>447.8</ele>
        <time>2022-07-29T15:52:41Z</time>
      </trkpt>
      <trkpt lat="46.46592" lon="5.68984">
        <ele>448.2</ele>
        <time>2022-07-29T15:52:42Z</time>
      </trkpt>
      <trkpt lat="46.46593" lon="5.68988">
        <ele>448.2</ele>
        <time>2022-07-29T15:52:43Z</time>
      </trkpt>
      <trkpt lat="46.46594" lon="5.68992">
        <ele>448.6</ele>
        <time>2022-07-29T15:52:44Z</time>
      </trkpt>
      <trkpt lat="46.46595" lon="5.68996">
        <ele>448.6</ele>
        <time>2022-07-29T15:52:45Z</time>
      </trkpt>
      <trkpt lat="46.46596" lon="5.69">
        <ele>448.8</ele>
        <time>2022-07-29T15:52:46Z</time>
      </trkpt>
      <trkpt lat="46.46598" lon="5.69004">
        <ele>448.8</ele>
        <time>2022-07-29T15:52:47Z</time>
      </trkpt>
      <trkpt lat="46.46601" lon="5.69008">
        <ele>449.2</ele>
        <time>2022-07-29T15:52:48Z</time>
      </trkpt>
      <trkpt lat="46.46602" lon="5.69013">
        <ele>449.2</ele>
        <time>2022-07-29T15:52:49Z</time>
      </trkpt>
      <trkpt lat="46.46604" lon="5.69017">
        <ele>449.4</ele>
        <time>2022-07-29T15:52:50Z</time>
      </trkpt>
      <trkpt lat="46.46604" lon="5.6902">
        <ele>449.4</ele>
        <time>2022-07-29T15:52:51Z</time>
      </trkpt>
      <trkpt lat="46.46605" lon="5.69025">
        <ele>449.8</ele>
        <time>2022-07-29T15:52:52Z</time>
      </trkpt>
      <trkpt lat="46.46606" lon="5.69029">
        <ele>449.8</ele>
        <time>2022-07-29T15:52:53Z</time>
      </trkpt>
      <trkpt lat="46.46608" lon="5.69033">
        <ele>450.2</ele>
        <time>2022-07-29T15:52:54Z</time>
      </trkpt>
      <trkpt lat="46.4661" lon="5.69038">
        <ele>450.2</ele>
        <time>2022-07-29T15:52:55Z</time>
      </trkpt>
      <trkpt lat="46.46611" lon="5.69042">
        <ele>450.4</ele>
        <time>2022-07-29T15:52:56Z</time>
      </trkpt>
      <trkpt lat="46.46612" lon="5.69046">
        <ele>450.4</ele>
        <time>2022-07-29T15:52:57Z</time>
      </trkpt>
      <trkpt lat="46.46613" lon="5.6905">
        <ele>450.8</ele>
        <time>2022-07-29T15:52:58Z</time>
      </trkpt>
      <trkpt lat="46.46614" lon="5.69054">
        <ele>451</ele>
        <time>2022-07-29T15:52:59Z</time>
      </trkpt>
      <trkpt lat="46.46616" lon="5.69058">
        <ele>451.4</ele>
        <time>2022-07-29T15:53:00Z</time>
      </trkpt>
      <trkpt lat="46.46617" lon="5.69061">
        <ele>451.4</ele>
        <time>2022-07-29T15:53:01Z</time>
      </trkpt>
      <trkpt lat="46.46618" lon="5.69065">
        <ele>451.6</ele>
        <time>2022-07-29T15:53:02Z</time>
      </trkpt>
      <trkpt lat="46.46619" lon="5.69068">
        <ele>451.6</ele>
        <time>2022-07-29T15:53:03Z</time>
      </trkpt>
      <trkpt lat="46.4662" lon="5.69072">
        <ele>452</ele>
        <time>2022-07-29T15:53:04Z</time>
      </trkpt>
      <trkpt lat="46.46622" lon="5.69075">
        <ele>452</ele>
        <time>2022-07-29T15:53:05Z</time>
      </trkpt>
      <trkpt lat="46.46624" lon="5.69079">
        <ele>452.4</ele>
        <time>2022-07-29T15:53:06Z</time>
      </trkpt>
      <trkpt lat="46.46625" lon="5.69084">
        <ele>452.4</ele>
        <time>2022-07-29T15:53:07Z</time>
      </trkpt>
      <trkpt lat="46.46626" lon="5.69087">
        <ele>452.8</ele>
        <time>2022-07-29T15:53:08Z</time>
      </trkpt>
      <trkpt lat="46.46626" lon="5.69092">
        <ele>453</ele>
        <time>2022-07-29T15:53:09Z</time>
      </trkpt>
      <trkpt lat="46.46628" lon="5.69097">
        <ele>453.2</ele>
        <time>2022-07-29T15:53:10Z</time>
      </trkpt>
      <trkpt lat="46.4663" lon="5.69102">
        <ele>453.2</ele>
        <time>2022-07-29T15:53:11Z</time>
      </trkpt>
      <trkpt lat="46.46632" lon="5.69106">
        <ele>453.6</ele>
        <time>2022-07-29T15:53:12Z</time>
      </trkpt>
      <trkpt lat="46.46635" lon="5.69109">
        <ele>453.6</ele>
        <time>2022-07-29T15:53:13Z</time>
      </trkpt>
      <trkpt lat="46.46638" lon="5.69113">
        <ele>454</ele>
        <time>2022-07-29T15:53:14Z</time>
      </trkpt>
      <trkpt lat="46.46641" lon="5.69116">
        <ele>454</ele>
        <time>2022-07-29T15:53:15Z</time>
      </trkpt>
      <trkpt lat="46.46644" lon="5.69119">
        <ele>454.4</ele>
        <time>2022-07-29T15:53:16Z</time>
      </trkpt>
      <trkpt lat="46.46647" lon="5.69121">
        <ele>454.4</ele>
        <time>2022-07-29T15:53:17Z</time>
      </trkpt>
      <trkpt lat="46.4665" lon="5.69123">
        <ele>454.6</ele>
        <time>2022-07-29T15:53:18Z</time>
      </trkpt>
      <trkpt lat="46.46653" lon="5.69125">
        <ele>454.6</ele>
        <time>2022-07-29T15:53:19Z</time>
      </trkpt>
      <trkpt lat="46.46656" lon="5.69126">
        <ele>454.8</ele>
        <time>2022-07-29T15:53:20Z</time>
      </trkpt>
      <trkpt lat="46.4666" lon="5.69127">
        <ele>454.8</ele>
        <time>2022-07-29T15:53:21Z</time>
      </trkpt>
      <trkpt lat="46.46662" lon="5.69127">
        <ele>454.8</ele>
        <time>2022-07-29T15:53:22Z</time>
      </trkpt>
      <trkpt lat="46.46665" lon="5.69128">
        <ele>455.2</ele>
        <time>2022-07-29T15:53:23Z</time>
      </trkpt>
      <trkpt lat="46.46667" lon="5.69129">
        <ele>455.2</ele>
        <time>2022-07-29T15:53:24Z</time>
      </trkpt>
      <trkpt lat="46.46669" lon="5.6913">
        <ele>455.6</ele>
        <time>2022-07-29T15:53:25Z</time>
      </trkpt>
      <trkpt lat="46.46672" lon="5.6913">
        <ele>455.6</ele>
        <time>2022-07-29T15:53:26Z</time>
      </trkpt>
      <trkpt lat="46.46674" lon="5.69131">
        <ele>455.8</ele>
        <time>2022-07-29T15:53:27Z</time>
      </trkpt>
      <trkpt lat="46.46677" lon="5.69132">
        <ele>456</ele>
        <time>2022-07-29T15:53:28Z</time>
      </trkpt>
      <trkpt lat="46.46679" lon="5.69132">
        <ele>456</ele>
        <time>2022-07-29T15:53:29Z</time>
      </trkpt>
      <trkpt lat="46.46682" lon="5.69132">
        <ele>456.4</ele>
        <time>2022-07-29T15:53:30Z</time>
      </trkpt>
      <trkpt lat="46.46684" lon="5.69132">
        <ele>456.6</ele>
        <time>2022-07-29T15:53:31Z</time>
      </trkpt>
      <trkpt lat="46.46687" lon="5.69132">
        <ele>456.6</ele>
        <time>2022-07-29T15:53:32Z</time>
      </trkpt>
      <trkpt lat="46.46689" lon="5.69131">
        <ele>456.8</ele>
        <time>2022-07-29T15:53:33Z</time>
      </trkpt>
      <trkpt lat="46.46692" lon="5.6913">
        <ele>456.8</ele>
        <time>2022-07-29T15:53:34Z</time>
      </trkpt>
      <trkpt lat="46.46695" lon="5.69129">
        <ele>457.2</ele>
        <time>2022-07-29T15:53:35Z</time>
      </trkpt>
      <trkpt lat="46.46698" lon="5.69128">
        <ele>457.2</ele>
        <time>2022-07-29T15:53:36Z</time>
      </trkpt>
      <trkpt lat="46.46701" lon="5.69127">
        <ele>457.4</ele>
        <time>2022-07-29T15:53:37Z</time>
      </trkpt>
      <trkpt lat="46.46704" lon="5.69127">
        <ele>457.4</ele>
        <time>2022-07-29T15:53:38Z</time>
      </trkpt>
      <trkpt lat="46.46707" lon="5.69127">
        <ele>457.6</ele>
        <time>2022-07-29T15:53:39Z</time>
      </trkpt>
      <trkpt lat="46.46711" lon="5.69128">
        <ele>457.6</ele>
        <time>2022-07-29T15:53:40Z</time>
      </trkpt>
      <trkpt lat="46.46714" lon="5.69128">
        <ele>457.8</ele>
        <time>2022-07-29T15:53:41Z</time>
      </trkpt>
      <trkpt lat="46.46718" lon="5.69129">
        <ele>457.8</ele>
        <time>2022-07-29T15:53:42Z</time>
      </trkpt>
      <trkpt lat="46.46722" lon="5.6913">
        <ele>458.2</ele>
        <time>2022-07-29T15:53:43Z</time>
      </trkpt>
      <trkpt lat="46.46726" lon="5.69131">
        <ele>458.2</ele>
        <time>2022-07-29T15:53:44Z</time>
      </trkpt>
      <trkpt lat="46.46729" lon="5.69133">
        <ele>458.4</ele>
        <time>2022-07-29T15:53:45Z</time>
      </trkpt>
      <trkpt lat="46.46732" lon="5.69135">
        <ele>458.6</ele>
        <time>2022-07-29T15:53:46Z</time>
      </trkpt>
      <trkpt lat="46.46735" lon="5.69137">
        <ele>458.8</ele>
        <time>2022-07-29T15:53:47Z</time>
      </trkpt>
      <trkpt lat="46.46738" lon="5.69139">
        <ele>459.2</ele>
        <time>2022-07-29T15:53:48Z</time>
      </trkpt>
      <trkpt lat="46.4674" lon="5.69141">
        <ele>459.4</ele>
        <time>2022-07-29T15:53:49Z</time>
      </trkpt>
      <trkpt lat="46.46741" lon="5.69143">
        <ele>459.4</ele>
        <time>2022-07-29T15:53:50Z</time>
      </trkpt>
      <trkpt lat="46.46742" lon="5.69145">
        <ele>459.8</ele>
        <time>2022-07-29T15:53:51Z</time>
      </trkpt>
      <trkpt lat="46.46744" lon="5.69148">
        <ele>460</ele>
        <time>2022-07-29T15:53:52Z</time>
      </trkpt>
      <trkpt lat="46.46746" lon="5.6915">
        <ele>460.2</ele>
        <time>2022-07-29T15:53:53Z</time>
      </trkpt>
      <trkpt lat="46.46748" lon="5.69153">
        <ele>460.2</ele>
        <time>2022-07-29T15:53:54Z</time>
      </trkpt>
      <trkpt lat="46.4675" lon="5.69155">
        <ele>460.6</ele>
        <time>2022-07-29T15:53:55Z</time>
      </trkpt>
      <trkpt lat="46.46752" lon="5.69157">
        <ele>460.6</ele>
        <time>2022-07-29T15:53:56Z</time>
      </trkpt>
      <trkpt lat="46.46754" lon="5.69159">
        <ele>461</ele>
        <time>2022-07-29T15:53:57Z</time>
      </trkpt>
      <trkpt lat="46.46756" lon="5.69162">
        <ele>461</ele>
        <time>2022-07-29T15:53:58Z</time>
      </trkpt>
      <trkpt lat="46.46759" lon="5.69164">
        <ele>461.2</ele>
        <time>2022-07-29T15:53:59Z</time>
      </trkpt>
      <trkpt lat="46.46761" lon="5.69167">
        <ele>461.2</ele>
        <time>2022-07-29T15:54:00Z</time>
      </trkpt>
      <trkpt lat="46.46763" lon="5.6917">
        <ele>461.4</ele>
        <time>2022-07-29T15:54:01Z</time>
      </trkpt>
      <trkpt lat="46.46766" lon="5.69173">
        <ele>461.4</ele>
        <time>2022-07-29T15:54:02Z</time>
      </trkpt>
      <trkpt lat="46.46769" lon="5.69175">
        <ele>461.8</ele>
        <time>2022-07-29T15:54:03Z</time>
      </trkpt>
      <trkpt lat="46.46772" lon="5.69178">
        <ele>461.8</ele>
        <time>2022-07-29T15:54:04Z</time>
      </trkpt>
      <trkpt lat="46.46774" lon="5.69181">
        <ele>462</ele>
        <time>2022-07-29T15:54:05Z</time>
      </trkpt>
      <trkpt lat="46.46777" lon="5.69184">
        <ele>462.2</ele>
        <time>2022-07-29T15:54:06Z</time>
      </trkpt>
      <trkpt lat="46.46778" lon="5.69187">
        <ele>462.2</ele>
        <time>2022-07-29T15:54:07Z</time>
      </trkpt>
      <trkpt lat="46.4678" lon="5.6919">
        <ele>462.6</ele>
        <time>2022-07-29T15:54:08Z</time>
      </trkpt>
      <trkpt lat="46.46782" lon="5.69194">
        <ele>462.6</ele>
        <time>2022-07-29T15:54:09Z</time>
      </trkpt>
      <trkpt lat="46.46784" lon="5.69197">
        <ele>462.8</ele>
        <time>2022-07-29T15:54:10Z</time>
      </trkpt>
      <trkpt lat="46.46786" lon="5.692">
        <ele>462.8</ele>
        <time>2022-07-29T15:54:11Z</time>
      </trkpt>
      <trkpt lat="46.46788" lon="5.69203">
        <ele>463.4</ele>
        <time>2022-07-29T15:54:12Z</time>
      </trkpt>
      <trkpt lat="46.4679" lon="5.69206">
        <ele>463.6</ele>
        <time>2022-07-29T15:54:13Z</time>
      </trkpt>
      <trkpt lat="46.46791" lon="5.69209">
        <ele>463.6</ele>
        <time>2022-07-29T15:54:14Z</time>
      </trkpt>
      <trkpt lat="46.46793" lon="5.69212">
        <ele>463.8</ele>
        <time>2022-07-29T15:54:15Z</time>
      </trkpt>
      <trkpt lat="46.46795" lon="5.69215">
        <ele>463.8</ele>
        <time>2022-07-29T15:54:16Z</time>
      </trkpt>
      <trkpt lat="46.46797" lon="5.69219">
        <ele>464</ele>
        <time>2022-07-29T15:54:17Z</time>
      </trkpt>
      <trkpt lat="46.46799" lon="5.69222">
        <ele>464</ele>
        <time>2022-07-29T15:54:18Z</time>
      </trkpt>
      <trkpt lat="46.46801" lon="5.69225">
        <ele>464.4</ele>
        <time>2022-07-29T15:54:19Z</time>
      </trkpt>
      <trkpt lat="46.46803" lon="5.69228">
        <ele>464.6</ele>
        <time>2022-07-29T15:54:20Z</time>
      </trkpt>
      <trkpt lat="46.46805" lon="5.69232">
        <ele>464.6</ele>
        <time>2022-07-29T15:54:21Z</time>
      </trkpt>
      <trkpt lat="46.46807" lon="5.69235">
        <ele>464.8</ele>
        <time>2022-07-29T15:54:22Z</time>
      </trkpt>
      <trkpt lat="46.46809" lon="5.69238">
        <ele>464.8</ele>
        <time>2022-07-29T15:54:23Z</time>
      </trkpt>
      <trkpt lat="46.46811" lon="5.69241">
        <ele>465.2</ele>
        <time>2022-07-29T15:54:24Z</time>
      </trkpt>
      <trkpt lat="46.46813" lon="5.69244">
        <ele>465.4</ele>
        <time>2022-07-29T15:54:25Z</time>
      </trkpt>
      <trkpt lat="46.46815" lon="5.69247">
        <ele>465.4</ele>
        <time>2022-07-29T15:54:26Z</time>
      </trkpt>
      <trkpt lat="46.46817" lon="5.69251">
        <ele>465.6</ele>
        <time>2022-07-29T15:54:27Z</time>
      </trkpt>
      <trkpt lat="46.46818" lon="5.69254">
        <ele>465.6</ele>
        <time>2022-07-29T15:54:28Z</time>
      </trkpt>
      <trkpt lat="46.4682" lon="5.69258">
        <ele>466</ele>
        <time>2022-07-29T15:54:29Z</time>
      </trkpt>
      <trkpt lat="46.46821" lon="5.69261">
        <ele>466</ele>
        <time>2022-07-29T15:54:30Z</time>
      </trkpt>
      <trkpt lat="46.46823" lon="5.69264">
        <ele>466.4</ele>
        <time>2022-07-29T15:54:31Z</time>
      </trkpt>
      <trkpt lat="46.46824" lon="5.69268">
        <ele>466.4</ele>
        <time>2022-07-29T15:54:32Z</time>
      </trkpt>
      <trkpt lat="46.46826" lon="5.69271">
        <ele>466.6</ele>
        <time>2022-07-29T15:54:33Z</time>
      </trkpt>
      <trkpt lat="46.46828" lon="5.69275">
        <ele>466.6</ele>
        <time>2022-07-29T15:54:34Z</time>
      </trkpt>
      <trkpt lat="46.4683" lon="5.69279">
        <ele>466.8</ele>
        <time>2022-07-29T15:54:35Z</time>
      </trkpt>
      <trkpt lat="46.46832" lon="5.69282">
        <ele>467</ele>
        <time>2022-07-29T15:54:36Z</time>
      </trkpt>
      <trkpt lat="46.46834" lon="5.69286">
        <ele>467.2</ele>
        <time>2022-07-29T15:54:37Z</time>
      </trkpt>
      <trkpt lat="46.46837" lon="5.69289">
        <ele>467.2</ele>
        <time>2022-07-29T15:54:38Z</time>
      </trkpt>
      <trkpt lat="46.46838" lon="5.69293">
        <ele>467.6</ele>
        <time>2022-07-29T15:54:39Z</time>
      </trkpt>
      <trkpt lat="46.4684" lon="5.69296">
        <ele>467.8</ele>
        <time>2022-07-29T15:54:40Z</time>
      </trkpt>
      <trkpt lat="46.46842" lon="5.69299">
        <ele>468</ele>
        <time>2022-07-29T15:54:41Z</time>
      </trkpt>
      <trkpt lat="46.46843" lon="5.69303">
        <ele>468</ele>
        <time>2022-07-29T15:54:42Z</time>
      </trkpt>
      <trkpt lat="46.46845" lon="5.69306">
        <ele>468.2</ele>
        <time>2022-07-29T15:54:43Z</time>
      </trkpt>
      <trkpt lat="46.46847" lon="5.69309">
        <ele>468.4</ele>
        <time>2022-07-29T15:54:44Z</time>
      </trkpt>
      <trkpt lat="46.46849" lon="5.69312">
        <ele>468.4</ele>
        <time>2022-07-29T15:54:45Z</time>
      </trkpt>
      <trkpt lat="46.46851" lon="5.69316">
        <ele>468.8</ele>
        <time>2022-07-29T15:54:46Z</time>
      </trkpt>
      <trkpt lat="46.46853" lon="5.69319">
        <ele>469</ele>
        <time>2022-07-29T15:54:47Z</time>
      </trkpt>
      <trkpt lat="46.46855" lon="5.69322">
        <ele>469</ele>
        <time>2022-07-29T15:54:48Z</time>
      </trkpt>
      <trkpt lat="46.46857" lon="5.69326">
        <ele>469.4</ele>
        <time>2022-07-29T15:54:49Z</time>
      </trkpt>
      <trkpt lat="46.46859" lon="5.69329">
        <ele>469.4</ele>
        <time>2022-07-29T15:54:50Z</time>
      </trkpt>
      <trkpt lat="46.4686" lon="5.69333">
        <ele>469.6</ele>
        <time>2022-07-29T15:54:51Z</time>
      </trkpt>
      <trkpt lat="46.46862" lon="5.69336">
        <ele>469.8</ele>
        <time>2022-07-29T15:54:52Z</time>
      </trkpt>
      <trkpt lat="46.46864" lon="5.6934">
        <ele>470.2</ele>
        <time>2022-07-29T15:54:53Z</time>
      </trkpt>
      <trkpt lat="46.46866" lon="5.69343">
        <ele>470.4</ele>
        <time>2022-07-29T15:54:54Z</time>
      </trkpt>
      <trkpt lat="46.46868" lon="5.69346">
        <ele>470.4</ele>
        <time>2022-07-29T15:54:55Z</time>
      </trkpt>
      <trkpt lat="46.4687" lon="5.6935">
        <ele>470.6</ele>
        <time>2022-07-29T15:54:56Z</time>
      </trkpt>
      <trkpt lat="46.46872" lon="5.69354">
        <ele>470.6</ele>
        <time>2022-07-29T15:54:57Z</time>
      </trkpt>
      <trkpt lat="46.46874" lon="5.69357">
        <ele>471</ele>
        <time>2022-07-29T15:54:58Z</time>
      </trkpt>
      <trkpt lat="46.46877" lon="5.6936">
        <ele>471</ele>
        <time>2022-07-29T15:54:59Z</time>
      </trkpt>
      <trkpt lat="46.46879" lon="5.69363">
        <ele>471.4</ele>
        <time>2022-07-29T15:55:00Z</time>
      </trkpt>
      <trkpt lat="46.46881" lon="5.69366">
        <ele>471.4</ele>
        <time>2022-07-29T15:55:01Z</time>
      </trkpt>
      <trkpt lat="46.46883" lon="5.69369">
        <ele>471.6</ele>
        <time>2022-07-29T15:55:02Z</time>
      </trkpt>
      <trkpt lat="46.46885" lon="5.69372">
        <ele>471.6</ele>
        <time>2022-07-29T15:55:03Z</time>
      </trkpt>
      <trkpt lat="46.46887" lon="5.69375">
        <ele>472</ele>
        <time>2022-07-29T15:55:04Z</time>
      </trkpt>
      <trkpt lat="46.46889" lon="5.69378">
        <ele>472</ele>
        <time>2022-07-29T15:55:05Z</time>
      </trkpt>
      <trkpt lat="46.46891" lon="5.69381">
        <ele>472.2</ele>
        <time>2022-07-29T15:55:06Z</time>
      </trkpt>
      <trkpt lat="46.46892" lon="5.69384">
        <ele>472.2</ele>
        <time>2022-07-29T15:55:07Z</time>
      </trkpt>
      <trkpt lat="46.46894" lon="5.69386">
        <ele>472.8</ele>
        <time>2022-07-29T15:55:08Z</time>
      </trkpt>
      <trkpt lat="46.46896" lon="5.69389">
        <ele>472.8</ele>
        <time>2022-07-29T15:55:09Z</time>
      </trkpt>
      <trkpt lat="46.46898" lon="5.69392">
        <ele>473</ele>
        <time>2022-07-29T15:55:10Z</time>
      </trkpt>
      <trkpt lat="46.469" lon="5.69395">
        <ele>473</ele>
        <time>2022-07-29T15:55:11Z</time>
      </trkpt>
      <trkpt lat="46.46903" lon="5.69398">
        <ele>473.4</ele>
        <time>2022-07-29T15:55:12Z</time>
      </trkpt>
      <trkpt lat="46.46905" lon="5.694">
        <ele>473.4</ele>
        <time>2022-07-29T15:55:13Z</time>
      </trkpt>
      <trkpt lat="46.46907" lon="5.69403">
        <ele>473.8</ele>
        <time>2022-07-29T15:55:14Z</time>
      </trkpt>
      <trkpt lat="46.46909" lon="5.69405">
        <ele>473.8</ele>
        <time>2022-07-29T15:55:15Z</time>
      </trkpt>
      <trkpt lat="46.46911" lon="5.69408">
        <ele>473.8</ele>
        <time>2022-07-29T15:55:16Z</time>
      </trkpt>
      <trkpt lat="46.46913" lon="5.69411">
        <ele>474</ele>
        <time>2022-07-29T15:55:17Z</time>
      </trkpt>
      <trkpt lat="46.46915" lon="5.69414">
        <ele>474.4</ele>
        <time>2022-07-29T15:55:18Z</time>
      </trkpt>
      <trkpt lat="46.46918" lon="5.69416">
        <ele>474.4</ele>
        <time>2022-07-29T15:55:19Z</time>
      </trkpt>
      <trkpt lat="46.4692" lon="5.6942">
        <ele>474.6</ele>
        <time>2022-07-29T15:55:20Z</time>
      </trkpt>
      <trkpt lat="46.46922" lon="5.69423">
        <ele>474.6</ele>
        <time>2022-07-29T15:55:21Z</time>
      </trkpt>
      <trkpt lat="46.46925" lon="5.69426">
        <ele>475</ele>
        <time>2022-07-29T15:55:22Z</time>
      </trkpt>
      <trkpt lat="46.46928" lon="5.69429">
        <ele>475</ele>
        <time>2022-07-29T15:55:23Z</time>
      </trkpt>
      <trkpt lat="46.4693" lon="5.69432">
        <ele>475.2</ele>
        <time>2022-07-29T15:55:24Z</time>
      </trkpt>
      <trkpt lat="46.46932" lon="5.69436">
        <ele>475.2</ele>
        <time>2022-07-29T15:55:25Z</time>
      </trkpt>
      <trkpt lat="46.46934" lon="5.69439">
        <ele>475.6</ele>
        <time>2022-07-29T15:55:26Z</time>
      </trkpt>
      <trkpt lat="46.46936" lon="5.69443">
        <ele>475.6</ele>
        <time>2022-07-29T15:55:27Z</time>
      </trkpt>
      <trkpt lat="46.46937" lon="5.69447">
        <ele>476</ele>
        <time>2022-07-29T15:55:28Z</time>
      </trkpt>
      <trkpt lat="46.46939" lon="5.69452">
        <ele>476</ele>
        <time>2022-07-29T15:55:29Z</time>
      </trkpt>
      <trkpt lat="46.46939" lon="5.69458">
        <ele>476.2</ele>
        <time>2022-07-29T15:55:30Z</time>
      </trkpt>
      <trkpt lat="46.46938" lon="5.69463">
        <ele>476.2</ele>
        <time>2022-07-29T15:55:31Z</time>
      </trkpt>
      <trkpt lat="46.46937" lon="5.69468">
        <ele>476.2</ele>
        <time>2022-07-29T15:55:32Z</time>
      </trkpt>
      <trkpt lat="46.46936" lon="5.69473">
        <ele>476.6</ele>
        <time>2022-07-29T15:55:33Z</time>
      </trkpt>
      <trkpt lat="46.46935" lon="5.69477">
        <ele>476.8</ele>
        <time>2022-07-29T15:55:34Z</time>
      </trkpt>
      <trkpt lat="46.46935" lon="5.6948">
        <ele>477.2</ele>
        <time>2022-07-29T15:55:35Z</time>
      </trkpt>
      <trkpt lat="46.46934" lon="5.69484">
        <ele>477.4</ele>
        <time>2022-07-29T15:55:36Z</time>
      </trkpt>
      <trkpt lat="46.46935" lon="5.69487">
        <ele>477.4</ele>
        <time>2022-07-29T15:55:37Z</time>
      </trkpt>
      <trkpt lat="46.46935" lon="5.69491">
        <ele>477.8</ele>
        <time>2022-07-29T15:55:38Z</time>
      </trkpt>
      <trkpt lat="46.46936" lon="5.69495">
        <ele>477.8</ele>
        <time>2022-07-29T15:55:39Z</time>
      </trkpt>
      <trkpt lat="46.46938" lon="5.69499">
        <ele>478.2</ele>
        <time>2022-07-29T15:55:40Z</time>
      </trkpt>
      <trkpt lat="46.46939" lon="5.69503">
        <ele>478.4</ele>
        <time>2022-07-29T15:55:41Z</time>
      </trkpt>
      <trkpt lat="46.46942" lon="5.69507">
        <ele>478.4</ele>
        <time>2022-07-29T15:55:42Z</time>
      </trkpt>
      <trkpt lat="46.46944" lon="5.6951">
        <ele>478.8</ele>
        <time>2022-07-29T15:55:43Z</time>
      </trkpt>
      <trkpt lat="46.46945" lon="5.69514">
        <ele>479</ele>
        <time>2022-07-29T15:55:44Z</time>
      </trkpt>
      <trkpt lat="46.46946" lon="5.69518">
        <ele>479.4</ele>
        <time>2022-07-29T15:55:45Z</time>
      </trkpt>
      <trkpt lat="46.46947" lon="5.69521">
        <ele>479.6</ele>
        <time>2022-07-29T15:55:46Z</time>
      </trkpt>
      <trkpt lat="46.46947" lon="5.69524">
        <ele>479.6</ele>
        <time>2022-07-29T15:55:47Z</time>
      </trkpt>
      <trkpt lat="46.46948" lon="5.69527">
        <ele>480</ele>
        <time>2022-07-29T15:55:48Z</time>
      </trkpt>
      <trkpt lat="46.46949" lon="5.6953">
        <ele>480</ele>
        <time>2022-07-29T15:55:49Z</time>
      </trkpt>
      <trkpt lat="46.4695" lon="5.69533">
        <ele>480.4</ele>
        <time>2022-07-29T15:55:50Z</time>
      </trkpt>
      <trkpt lat="46.46952" lon="5.69536">
        <ele>480.4</ele>
        <time>2022-07-29T15:55:51Z</time>
      </trkpt>
      <trkpt lat="46.46953" lon="5.6954">
        <ele>480.6</ele>
        <time>2022-07-29T15:55:52Z</time>
      </trkpt>
      <trkpt lat="46.46954" lon="5.69544">
        <ele>480.8</ele>
        <time>2022-07-29T15:55:53Z</time>
      </trkpt>
      <trkpt lat="46.46955" lon="5.69548">
        <ele>481.2</ele>
        <time>2022-07-29T15:55:54Z</time>
      </trkpt>
      <trkpt lat="46.46956" lon="5.69552">
        <ele>481.2</ele>
        <time>2022-07-29T15:55:55Z</time>
      </trkpt>
      <trkpt lat="46.46958" lon="5.69556">
        <ele>481.6</ele>
        <time>2022-07-29T15:55:56Z</time>
      </trkpt>
      <trkpt lat="46.4696" lon="5.6956">
        <ele>481.6</ele>
        <time>2022-07-29T15:55:57Z</time>
      </trkpt>
      <trkpt lat="46.46961" lon="5.69564">
        <ele>481.8</ele>
        <time>2022-07-29T15:55:58Z</time>
      </trkpt>
      <trkpt lat="46.46962" lon="5.69568">
        <ele>481.8</ele>
        <time>2022-07-29T15:55:59Z</time>
      </trkpt>
      <trkpt lat="46.46964" lon="5.69572">
        <ele>482.2</ele>
        <time>2022-07-29T15:56:00Z</time>
      </trkpt>
      <trkpt lat="46.46965" lon="5.69576">
        <ele>482.2</ele>
        <time>2022-07-29T15:56:01Z</time>
      </trkpt>
      <trkpt lat="46.46967" lon="5.6958">
        <ele>482.4</ele>
        <time>2022-07-29T15:56:02Z</time>
      </trkpt>
      <trkpt lat="46.46968" lon="5.69584">
        <ele>482.4</ele>
        <time>2022-07-29T15:56:03Z</time>
      </trkpt>
      <trkpt lat="46.4697" lon="5.69588">
        <ele>482.8</ele>
        <time>2022-07-29T15:56:04Z</time>
      </trkpt>
      <trkpt lat="46.46971" lon="5.69591">
        <ele>483</ele>
        <time>2022-07-29T15:56:05Z</time>
      </trkpt>
      <trkpt lat="46.46972" lon="5.69595">
        <ele>483.2</ele>
        <time>2022-07-29T15:56:06Z</time>
      </trkpt>
      <trkpt lat="46.46973" lon="5.69599">
        <ele>483.2</ele>
        <time>2022-07-29T15:56:07Z</time>
      </trkpt>
      <trkpt lat="46.46974" lon="5.69603">
        <ele>483.6</ele>
        <time>2022-07-29T15:56:08Z</time>
      </trkpt>
      <trkpt lat="46.46976" lon="5.69606">
        <ele>483.8</ele>
        <time>2022-07-29T15:56:09Z</time>
      </trkpt>
      <trkpt lat="46.46978" lon="5.6961">
        <ele>483.8</ele>
        <time>2022-07-29T15:56:10Z</time>
      </trkpt>
      <trkpt lat="46.46979" lon="5.69614">
        <ele>484.2</ele>
        <time>2022-07-29T15:56:11Z</time>
      </trkpt>
      <trkpt lat="46.46981" lon="5.69618">
        <ele>484.4</ele>
        <time>2022-07-29T15:56:12Z</time>
      </trkpt>
      <trkpt lat="46.46983" lon="5.69622">
        <ele>484.4</ele>
        <time>2022-07-29T15:56:13Z</time>
      </trkpt>
      <trkpt lat="46.46985" lon="5.69626">
        <ele>484.8</ele>
        <time>2022-07-29T15:56:14Z</time>
      </trkpt>
      <trkpt lat="46.46987" lon="5.6963">
        <ele>484.8</ele>
        <time>2022-07-29T15:56:15Z</time>
      </trkpt>
      <trkpt lat="46.46988" lon="5.69634">
        <ele>485.2</ele>
        <time>2022-07-29T15:56:16Z</time>
      </trkpt>
      <trkpt lat="46.4699" lon="5.69638">
        <ele>485.2</ele>
        <time>2022-07-29T15:56:17Z</time>
      </trkpt>
      <trkpt lat="46.46992" lon="5.69642">
        <ele>485.6</ele>
        <time>2022-07-29T15:56:18Z</time>
      </trkpt>
      <trkpt lat="46.46994" lon="5.69646">
        <ele>485.6</ele>
        <time>2022-07-29T15:56:19Z</time>
      </trkpt>
      <trkpt lat="46.46996" lon="5.69649">
        <ele>485.8</ele>
        <time>2022-07-29T15:56:20Z</time>
      </trkpt>
      <trkpt lat="46.46998" lon="5.69652">
        <ele>486.2</ele>
        <time>2022-07-29T15:56:21Z</time>
      </trkpt>
      <trkpt lat="46.47001" lon="5.69655">
        <ele>486.2</ele>
        <time>2022-07-29T15:56:22Z</time>
      </trkpt>
      <trkpt lat="46.47003" lon="5.69659">
        <ele>486.4</ele>
        <time>2022-07-29T15:56:23Z</time>
      </trkpt>
      <trkpt lat="46.47005" lon="5.69662">
        <ele>486.4</ele>
        <time>2022-07-29T15:56:24Z</time>
      </trkpt>
      <trkpt lat="46.47007" lon="5.69665">
        <ele>486.8</ele>
        <time>2022-07-29T15:56:25Z</time>
      </trkpt>
      <trkpt lat="46.47009" lon="5.69668">
        <ele>487</ele>
        <time>2022-07-29T15:56:26Z</time>
      </trkpt>
      <trkpt lat="46.47011" lon="5.69672">
        <ele>487.2</ele>
        <time>2022-07-29T15:56:27Z</time>
      </trkpt>
      <trkpt lat="46.47013" lon="5.69675">
        <ele>487.4</ele>
        <time>2022-07-29T15:56:28Z</time>
      </trkpt>
      <trkpt lat="46.47015" lon="5.69678">
        <ele>487.6</ele>
        <time>2022-07-29T15:56:29Z</time>
      </trkpt>
      <trkpt lat="46.47017" lon="5.69682">
        <ele>487.6</ele>
        <time>2022-07-29T15:56:30Z</time>
      </trkpt>
      <trkpt lat="46.47019" lon="5.69685">
        <ele>488</ele>
        <time>2022-07-29T15:56:31Z</time>
      </trkpt>
      <trkpt lat="46.47021" lon="5.69688">
        <ele>488</ele>
        <time>2022-07-29T15:56:32Z</time>
      </trkpt>
      <trkpt lat="46.47022" lon="5.69692">
        <ele>488.2</ele>
        <time>2022-07-29T15:56:33Z</time>
      </trkpt>
      <trkpt lat="46.47024" lon="5.69695">
        <ele>488.4</ele>
        <time>2022-07-29T15:56:34Z</time>
      </trkpt>
      <trkpt lat="46.47026" lon="5.69699">
        <ele>488.4</ele>
        <time>2022-07-29T15:56:35Z</time>
      </trkpt>
      <trkpt lat="46.47028" lon="5.69702">
        <ele>488.8</ele>
        <time>2022-07-29T15:56:36Z</time>
      </trkpt>
      <trkpt lat="46.47029" lon="5.69706">
        <ele>488.8</ele>
        <time>2022-07-29T15:56:37Z</time>
      </trkpt>
      <trkpt lat="46.47031" lon="5.69709">
        <ele>489</ele>
        <time>2022-07-29T15:56:38Z</time>
      </trkpt>
      <trkpt lat="46.47033" lon="5.69712">
        <ele>489</ele>
        <time>2022-07-29T15:56:39Z</time>
      </trkpt>
      <trkpt lat="46.47034" lon="5.69716">
        <ele>489.4</ele>
        <time>2022-07-29T15:56:40Z</time>
      </trkpt>
      <trkpt lat="46.47036" lon="5.6972">
        <ele>489.4</ele>
        <time>2022-07-29T15:56:41Z</time>
      </trkpt>
      <trkpt lat="46.47037" lon="5.69723">
        <ele>489.8</ele>
        <time>2022-07-29T15:56:42Z</time>
      </trkpt>
      <trkpt lat="46.47038" lon="5.69727">
        <ele>490</ele>
        <time>2022-07-29T15:56:43Z</time>
      </trkpt>
      <trkpt lat="46.4704" lon="5.6973">
        <ele>490.2</ele>
        <time>2022-07-29T15:56:44Z</time>
      </trkpt>
      <trkpt lat="46.47042" lon="5.69734">
        <ele>490.2</ele>
        <time>2022-07-29T15:56:45Z</time>
      </trkpt>
      <trkpt lat="46.47043" lon="5.69738">
        <ele>490.6</ele>
        <time>2022-07-29T15:56:46Z</time>
      </trkpt>
      <trkpt lat="46.47044" lon="5.69741">
        <ele>490.6</ele>
        <time>2022-07-29T15:56:47Z</time>
      </trkpt>
      <trkpt lat="46.47045" lon="5.69745">
        <ele>491</ele>
        <time>2022-07-29T15:56:48Z</time>
      </trkpt>
      <trkpt lat="46.47045" lon="5.69749">
        <ele>491</ele>
        <time>2022-07-29T15:56:49Z</time>
      </trkpt>
      <trkpt lat="46.47045" lon="5.69754">
        <ele>491.4</ele>
        <time>2022-07-29T15:56:50Z</time>
      </trkpt>
      <trkpt lat="46.47045" lon="5.69758">
        <ele>491.8</ele>
        <time>2022-07-29T15:56:51Z</time>
      </trkpt>
      <trkpt lat="46.47045" lon="5.69762">
        <ele>491.8</ele>
        <time>2022-07-29T15:56:52Z</time>
      </trkpt>
      <trkpt lat="46.47046" lon="5.69765">
        <ele>492</ele>
        <time>2022-07-29T15:56:53Z</time>
      </trkpt>
      <trkpt lat="46.47046" lon="5.69769">
        <ele>492</ele>
        <time>2022-07-29T15:56:54Z</time>
      </trkpt>
      <trkpt lat="46.47047" lon="5.69773">
        <ele>492.4</ele>
        <time>2022-07-29T15:56:55Z</time>
      </trkpt>
      <trkpt lat="46.47047" lon="5.69777">
        <ele>492.4</ele>
        <time>2022-07-29T15:56:56Z</time>
      </trkpt>
      <trkpt lat="46.47048" lon="5.69781">
        <ele>492.6</ele>
        <time>2022-07-29T15:56:57Z</time>
      </trkpt>
      <trkpt lat="46.47048" lon="5.69785">
        <ele>492.8</ele>
        <time>2022-07-29T15:56:58Z</time>
      </trkpt>
      <trkpt lat="46.47049" lon="5.69789">
        <ele>492.8</ele>
        <time>2022-07-29T15:56:59Z</time>
      </trkpt>
      <trkpt lat="46.47049" lon="5.69793">
        <ele>493.2</ele>
        <time>2022-07-29T15:57:00Z</time>
      </trkpt>
      <trkpt lat="46.4705" lon="5.69796">
        <ele>493.2</ele>
        <time>2022-07-29T15:57:01Z</time>
      </trkpt>
      <trkpt lat="46.47051" lon="5.698">
        <ele>493.6</ele>
        <time>2022-07-29T15:57:02Z</time>
      </trkpt>
      <trkpt lat="46.47051" lon="5.69804">
        <ele>493.6</ele>
        <time>2022-07-29T15:57:03Z</time>
      </trkpt>
      <trkpt lat="46.47052" lon="5.69808">
        <ele>494</ele>
        <time>2022-07-29T15:57:04Z</time>
      </trkpt>
      <trkpt lat="46.47052" lon="5.69812">
        <ele>494</ele>
        <time>2022-07-29T15:57:05Z</time>
      </trkpt>
      <trkpt lat="46.47052" lon="5.69816">
        <ele>494.2</ele>
        <time>2022-07-29T15:57:06Z</time>
      </trkpt>
      <trkpt lat="46.47053" lon="5.6982">
        <ele>494.2</ele>
        <time>2022-07-29T15:57:07Z</time>
      </trkpt>
      <trkpt lat="46.47053" lon="5.69823">
        <ele>494.6</ele>
        <time>2022-07-29T15:57:08Z</time>
      </trkpt>
      <trkpt lat="46.47054" lon="5.69827">
        <ele>494.8</ele>
        <time>2022-07-29T15:57:09Z</time>
      </trkpt>
      <trkpt lat="46.47054" lon="5.69831">
        <ele>495.2</ele>
        <time>2022-07-29T15:57:10Z</time>
      </trkpt>
      <trkpt lat="46.47055" lon="5.69835">
        <ele>495.4</ele>
        <time>2022-07-29T15:57:11Z</time>
      </trkpt>
      <trkpt lat="46.47055" lon="5.6984">
        <ele>495.6</ele>
        <time>2022-07-29T15:57:12Z</time>
      </trkpt>
      <trkpt lat="46.47055" lon="5.69843">
        <ele>496</ele>
        <time>2022-07-29T15:57:13Z</time>
      </trkpt>
      <trkpt lat="46.47055" lon="5.69847">
        <ele>496</ele>
        <time>2022-07-29T15:57:14Z</time>
      </trkpt>
      <trkpt lat="46.47055" lon="5.69851">
        <ele>496.2</ele>
        <time>2022-07-29T15:57:15Z</time>
      </trkpt>
      <trkpt lat="46.47056" lon="5.69854">
        <ele>496.2</ele>
        <time>2022-07-29T15:57:16Z</time>
      </trkpt>
      <trkpt lat="46.47056" lon="5.69858">
        <ele>496.6</ele>
        <time>2022-07-29T15:57:17Z</time>
      </trkpt>
      <trkpt lat="46.47056" lon="5.69861">
        <ele>496.6</ele>
        <time>2022-07-29T15:57:18Z</time>
      </trkpt>
      <trkpt lat="46.47057" lon="5.69865">
        <ele>497</ele>
        <time>2022-07-29T15:57:19Z</time>
      </trkpt>
      <trkpt lat="46.47057" lon="5.69869">
        <ele>497</ele>
        <time>2022-07-29T15:57:20Z</time>
      </trkpt>
      <trkpt lat="46.47058" lon="5.69872">
        <ele>497.2</ele>
        <time>2022-07-29T15:57:21Z</time>
      </trkpt>
      <trkpt lat="46.47059" lon="5.69875">
        <ele>497.2</ele>
        <time>2022-07-29T15:57:22Z</time>
      </trkpt>
      <trkpt lat="46.47059" lon="5.69879">
        <ele>497.4</ele>
        <time>2022-07-29T15:57:23Z</time>
      </trkpt>
      <trkpt lat="46.47059" lon="5.69882">
        <ele>497.4</ele>
        <time>2022-07-29T15:57:24Z</time>
      </trkpt>
      <trkpt lat="46.4706" lon="5.69886">
        <ele>497.8</ele>
        <time>2022-07-29T15:57:25Z</time>
      </trkpt>
      <trkpt lat="46.47061" lon="5.69889">
        <ele>497.8</ele>
        <time>2022-07-29T15:57:26Z</time>
      </trkpt>
      <trkpt lat="46.47061" lon="5.69893">
        <ele>498</ele>
        <time>2022-07-29T15:57:27Z</time>
      </trkpt>
      <trkpt lat="46.47061" lon="5.69896">
        <ele>498</ele>
        <time>2022-07-29T15:57:28Z</time>
      </trkpt>
      <trkpt lat="46.47061" lon="5.699">
        <ele>498.4</ele>
        <time>2022-07-29T15:57:29Z</time>
      </trkpt>
      <trkpt lat="46.47061" lon="5.69903">
        <ele>498.4</ele>
        <time>2022-07-29T15:57:30Z</time>
      </trkpt>
      <trkpt lat="46.47062" lon="5.69906">
        <ele>498.6</ele>
        <time>2022-07-29T15:57:31Z</time>
      </trkpt>
      <trkpt lat="46.47063" lon="5.6991">
        <ele>498.6</ele>
        <time>2022-07-29T15:57:32Z</time>
      </trkpt>
      <trkpt lat="46.47063" lon="5.69913">
        <ele>499</ele>
        <time>2022-07-29T15:57:33Z</time>
      </trkpt>
      <trkpt lat="46.47063" lon="5.69916">
        <ele>499</ele>
        <time>2022-07-29T15:57:34Z</time>
      </trkpt>
      <trkpt lat="46.47062" lon="5.6992">
        <ele>499.2</ele>
        <time>2022-07-29T15:57:35Z</time>
      </trkpt>
      <trkpt lat="46.47063" lon="5.69923">
        <ele>499.2</ele>
        <time>2022-07-29T15:57:36Z</time>
      </trkpt>
      <trkpt lat="46.47063" lon="5.69927">
        <ele>499.4</ele>
        <time>2022-07-29T15:57:37Z</time>
      </trkpt>
      <trkpt lat="46.47063" lon="5.6993">
        <ele>499.4</ele>
        <time>2022-07-29T15:57:38Z</time>
      </trkpt>
      <trkpt lat="46.47063" lon="5.69934">
        <ele>499.6</ele>
        <time>2022-07-29T15:57:39Z</time>
      </trkpt>
      <trkpt lat="46.47063" lon="5.69938">
        <ele>499.6</ele>
        <time>2022-07-29T15:57:40Z</time>
      </trkpt>
      <trkpt lat="46.47063" lon="5.69941">
        <ele>500</ele>
        <time>2022-07-29T15:57:41Z</time>
      </trkpt>
      <trkpt lat="46.47063" lon="5.69945">
        <ele>500</ele>
        <time>2022-07-29T15:57:42Z</time>
      </trkpt>
      <trkpt lat="46.47063" lon="5.69949">
        <ele>500.2</ele>
        <time>2022-07-29T15:57:43Z</time>
      </trkpt>
      <trkpt lat="46.47063" lon="5.69953">
        <ele>500.2</ele>
        <time>2022-07-29T15:57:44Z</time>
      </trkpt>
      <trkpt lat="46.47063" lon="5.69957">
        <ele>500.4</ele>
        <time>2022-07-29T15:57:45Z</time>
      </trkpt>
      <trkpt lat="46.47063" lon="5.6996">
        <ele>500.4</ele>
        <time>2022-07-29T15:57:46Z</time>
      </trkpt>
      <trkpt lat="46.47063" lon="5.69964">
        <ele>500.8</ele>
        <time>2022-07-29T15:57:47Z</time>
      </trkpt>
      <trkpt lat="46.47063" lon="5.69967">
        <ele>500.8</ele>
        <time>2022-07-29T15:57:48Z</time>
      </trkpt>
      <trkpt lat="46.47063" lon="5.69971">
        <ele>501</ele>
        <time>2022-07-29T15:57:49Z</time>
      </trkpt>
      <trkpt lat="46.47063" lon="5.69974">
        <ele>501</ele>
        <time>2022-07-29T15:57:50Z</time>
      </trkpt>
      <trkpt lat="46.47063" lon="5.69978">
        <ele>501.4</ele>
        <time>2022-07-29T15:57:51Z</time>
      </trkpt>
      <trkpt lat="46.47063" lon="5.69981">
        <ele>501.4</ele>
        <time>2022-07-29T15:57:52Z</time>
      </trkpt>
      <trkpt lat="46.47063" lon="5.69985">
        <ele>501.6</ele>
        <time>2022-07-29T15:57:53Z</time>
      </trkpt>
      <trkpt lat="46.47063" lon="5.69989">
        <ele>501.6</ele>
        <time>2022-07-29T15:57:54Z</time>
      </trkpt>
      <trkpt lat="46.47063" lon="5.69992">
        <ele>501.8</ele>
        <time>2022-07-29T15:57:55Z</time>
      </trkpt>
      <trkpt lat="46.47063" lon="5.69996">
        <ele>501.8</ele>
        <time>2022-07-29T15:57:56Z</time>
      </trkpt>
      <trkpt lat="46.47063" lon="5.7">
        <ele>502.2</ele>
        <time>2022-07-29T15:57:57Z</time>
      </trkpt>
      <trkpt lat="46.47064" lon="5.70004">
        <ele>502.2</ele>
        <time>2022-07-29T15:57:58Z</time>
      </trkpt>
      <trkpt lat="46.47064" lon="5.70008">
        <ele>502.6</ele>
        <time>2022-07-29T15:57:59Z</time>
      </trkpt>
      <trkpt lat="46.47064" lon="5.70011">
        <ele>502.6</ele>
        <time>2022-07-29T15:58:00Z</time>
      </trkpt>
      <trkpt lat="46.47064" lon="5.70015">
        <ele>502.8</ele>
        <time>2022-07-29T15:58:01Z</time>
      </trkpt>
      <trkpt lat="46.47064" lon="5.70019">
        <ele>502.8</ele>
        <time>2022-07-29T15:58:02Z</time>
      </trkpt>
      <trkpt lat="46.47064" lon="5.70023">
        <ele>502.8</ele>
        <time>2022-07-29T15:58:03Z</time>
      </trkpt>
      <trkpt lat="46.47064" lon="5.70027">
        <ele>503</ele>
        <time>2022-07-29T15:58:04Z</time>
      </trkpt>
      <trkpt lat="46.47065" lon="5.7003">
        <ele>503.2</ele>
        <time>2022-07-29T15:58:05Z</time>
      </trkpt>
      <trkpt lat="46.47065" lon="5.70034">
        <ele>503.2</ele>
        <time>2022-07-29T15:58:06Z</time>
      </trkpt>
      <trkpt lat="46.47065" lon="5.70038">
        <ele>503.6</ele>
        <time>2022-07-29T15:58:07Z</time>
      </trkpt>
      <trkpt lat="46.47065" lon="5.70041">
        <ele>503.6</ele>
        <time>2022-07-29T15:58:08Z</time>
      </trkpt>
      <trkpt lat="46.47065" lon="5.70045">
        <ele>503.8</ele>
        <time>2022-07-29T15:58:09Z</time>
      </trkpt>
      <trkpt lat="46.47066" lon="5.70049">
        <ele>503.8</ele>
        <time>2022-07-29T15:58:10Z</time>
      </trkpt>
      <trkpt lat="46.47066" lon="5.70053">
        <ele>504.2</ele>
        <time>2022-07-29T15:58:11Z</time>
      </trkpt>
      <trkpt lat="46.47066" lon="5.70057">
        <ele>504.2</ele>
        <time>2022-07-29T15:58:12Z</time>
      </trkpt>
      <trkpt lat="46.47066" lon="5.70061">
        <ele>504.4</ele>
        <time>2022-07-29T15:58:13Z</time>
      </trkpt>
      <trkpt lat="46.47066" lon="5.70064">
        <ele>504.4</ele>
        <time>2022-07-29T15:58:14Z</time>
      </trkpt>
      <trkpt lat="46.47067" lon="5.70068">
        <ele>504.8</ele>
        <time>2022-07-29T15:58:15Z</time>
      </trkpt>
      <trkpt lat="46.47067" lon="5.70072">
        <ele>504.8</ele>
        <time>2022-07-29T15:58:16Z</time>
      </trkpt>
      <trkpt lat="46.47067" lon="5.70076">
        <ele>505</ele>
        <time>2022-07-29T15:58:17Z</time>
      </trkpt>
      <trkpt lat="46.47067" lon="5.70079">
        <ele>505</ele>
        <time>2022-07-29T15:58:18Z</time>
      </trkpt>
      <trkpt lat="46.47068" lon="5.70083">
        <ele>505.4</ele>
        <time>2022-07-29T15:58:19Z</time>
      </trkpt>
      <trkpt lat="46.47069" lon="5.70086">
        <ele>505.4</ele>
        <time>2022-07-29T15:58:20Z</time>
      </trkpt>
      <trkpt lat="46.4707" lon="5.7009">
        <ele>505.8</ele>
        <time>2022-07-29T15:58:21Z</time>
      </trkpt>
      <trkpt lat="46.4707" lon="5.70094">
        <ele>505.8</ele>
        <time>2022-07-29T15:58:22Z</time>
      </trkpt>
      <trkpt lat="46.47071" lon="5.70097">
        <ele>506</ele>
        <time>2022-07-29T15:58:23Z</time>
      </trkpt>
      <trkpt lat="46.47073" lon="5.70101">
        <ele>506</ele>
        <time>2022-07-29T15:58:24Z</time>
      </trkpt>
      <trkpt lat="46.47074" lon="5.70104">
        <ele>506.4</ele>
        <time>2022-07-29T15:58:25Z</time>
      </trkpt>
      <trkpt lat="46.47076" lon="5.70108">
        <ele>506.4</ele>
        <time>2022-07-29T15:58:26Z</time>
      </trkpt>
      <trkpt lat="46.47078" lon="5.70111">
        <ele>506.6</ele>
        <time>2022-07-29T15:58:27Z</time>
      </trkpt>
      <trkpt lat="46.4708" lon="5.70114">
        <ele>506.6</ele>
        <time>2022-07-29T15:58:28Z</time>
      </trkpt>
      <trkpt lat="46.47082" lon="5.70116">
        <ele>507</ele>
        <time>2022-07-29T15:58:29Z</time>
      </trkpt>
      <trkpt lat="46.47083" lon="5.70119">
        <ele>507</ele>
        <time>2022-07-29T15:58:30Z</time>
      </trkpt>
      <trkpt lat="46.47085" lon="5.70122">
        <ele>507.4</ele>
        <time>2022-07-29T15:58:31Z</time>
      </trkpt>
      <trkpt lat="46.47087" lon="5.70125">
        <ele>507.4</ele>
        <time>2022-07-29T15:58:32Z</time>
      </trkpt>
      <trkpt lat="46.47089" lon="5.70128">
        <ele>507.6</ele>
        <time>2022-07-29T15:58:33Z</time>
      </trkpt>
      <trkpt lat="46.47091" lon="5.70131">
        <ele>507.6</ele>
        <time>2022-07-29T15:58:34Z</time>
      </trkpt>
      <trkpt lat="46.47093" lon="5.70133">
        <ele>508</ele>
        <time>2022-07-29T15:58:35Z</time>
      </trkpt>
      <trkpt lat="46.47095" lon="5.70135">
        <ele>508</ele>
        <time>2022-07-29T15:58:36Z</time>
      </trkpt>
      <trkpt lat="46.47097" lon="5.70138">
        <ele>508.2</ele>
        <time>2022-07-29T15:58:37Z</time>
      </trkpt>
      <trkpt lat="46.47099" lon="5.7014">
        <ele>508.2</ele>
        <time>2022-07-29T15:58:38Z</time>
      </trkpt>
      <trkpt lat="46.47102" lon="5.70143">
        <ele>508.6</ele>
        <time>2022-07-29T15:58:39Z</time>
      </trkpt>
      <trkpt lat="46.47104" lon="5.70145">
        <ele>508.6</ele>
        <time>2022-07-29T15:58:40Z</time>
      </trkpt>
      <trkpt lat="46.47105" lon="5.70148">
        <ele>509</ele>
        <time>2022-07-29T15:58:41Z</time>
      </trkpt>
      <trkpt lat="46.47108" lon="5.7015">
        <ele>509</ele>
        <time>2022-07-29T15:58:42Z</time>
      </trkpt>
      <trkpt lat="46.4711" lon="5.70152">
        <ele>509.2</ele>
        <time>2022-07-29T15:58:43Z</time>
      </trkpt>
      <trkpt lat="46.47112" lon="5.70154">
        <ele>509.2</ele>
        <time>2022-07-29T15:58:44Z</time>
      </trkpt>
      <trkpt lat="46.47114" lon="5.70156">
        <ele>509.4</ele>
        <time>2022-07-29T15:58:45Z</time>
      </trkpt>
      <trkpt lat="46.47116" lon="5.70158">
        <ele>509.4</ele>
        <time>2022-07-29T15:58:46Z</time>
      </trkpt>
      <trkpt lat="46.47118" lon="5.70161">
        <ele>509.8</ele>
        <time>2022-07-29T15:58:47Z</time>
      </trkpt>
      <trkpt lat="46.4712" lon="5.70163">
        <ele>509.8</ele>
        <time>2022-07-29T15:58:48Z</time>
      </trkpt>
      <trkpt lat="46.47123" lon="5.70165">
        <ele>510.2</ele>
        <time>2022-07-29T15:58:49Z</time>
      </trkpt>
      <trkpt lat="46.47125" lon="5.70167">
        <ele>510.4</ele>
        <time>2022-07-29T15:58:50Z</time>
      </trkpt>
      <trkpt lat="46.47127" lon="5.7017">
        <ele>510.4</ele>
        <time>2022-07-29T15:58:51Z</time>
      </trkpt>
      <trkpt lat="46.47129" lon="5.70173">
        <ele>510.6</ele>
        <time>2022-07-29T15:58:52Z</time>
      </trkpt>
      <trkpt lat="46.4713" lon="5.70177">
        <ele>510.6</ele>
        <time>2022-07-29T15:58:53Z</time>
      </trkpt>
      <trkpt lat="46.47131" lon="5.70181">
        <ele>510.8</ele>
        <time>2022-07-29T15:58:54Z</time>
      </trkpt>
      <trkpt lat="46.47132" lon="5.70185">
        <ele>510.8</ele>
        <time>2022-07-29T15:58:55Z</time>
      </trkpt>
      <trkpt lat="46.47132" lon="5.70189">
        <ele>511.2</ele>
        <time>2022-07-29T15:58:56Z</time>
      </trkpt>
      <trkpt lat="46.47132" lon="5.70193">
        <ele>511.2</ele>
        <time>2022-07-29T15:58:57Z</time>
      </trkpt>
      <trkpt lat="46.4713" lon="5.70197">
        <ele>511.6</ele>
        <time>2022-07-29T15:58:58Z</time>
      </trkpt>
      <trkpt lat="46.47129" lon="5.70201">
        <ele>511.8</ele>
        <time>2022-07-29T15:58:59Z</time>
      </trkpt>
      <trkpt lat="46.47128" lon="5.70205">
        <ele>511.8</ele>
        <time>2022-07-29T15:59:00Z</time>
      </trkpt>
      <trkpt lat="46.47126" lon="5.70209">
        <ele>512.2</ele>
        <time>2022-07-29T15:59:01Z</time>
      </trkpt>
      <trkpt lat="46.47125" lon="5.70213">
        <ele>512.4</ele>
        <time>2022-07-29T15:59:02Z</time>
      </trkpt>
      <trkpt lat="46.47123" lon="5.70216">
        <ele>512.6</ele>
        <time>2022-07-29T15:59:03Z</time>
      </trkpt>
      <trkpt lat="46.47121" lon="5.70219">
        <ele>512.8</ele>
        <time>2022-07-29T15:59:04Z</time>
      </trkpt>
      <trkpt lat="46.4712" lon="5.70222">
        <ele>513.2</ele>
        <time>2022-07-29T15:59:05Z</time>
      </trkpt>
      <trkpt lat="46.47118" lon="5.70225">
        <ele>513.4</ele>
        <time>2022-07-29T15:59:06Z</time>
      </trkpt>
      <trkpt lat="46.47116" lon="5.70229">
        <ele>513.6</ele>
        <time>2022-07-29T15:59:07Z</time>
      </trkpt>
      <trkpt lat="46.47114" lon="5.70232">
        <ele>513.6</ele>
        <time>2022-07-29T15:59:08Z</time>
      </trkpt>
      <trkpt lat="46.47113" lon="5.70235">
        <ele>513.8</ele>
        <time>2022-07-29T15:59:09Z</time>
      </trkpt>
      <trkpt lat="46.47111" lon="5.70238">
        <ele>513.8</ele>
        <time>2022-07-29T15:59:10Z</time>
      </trkpt>
      <trkpt lat="46.47109" lon="5.70241">
        <ele>514.2</ele>
        <time>2022-07-29T15:59:11Z</time>
      </trkpt>
      <trkpt lat="46.47107" lon="5.70244">
        <ele>514.2</ele>
        <time>2022-07-29T15:59:12Z</time>
      </trkpt>
      <trkpt lat="46.47105" lon="5.70247">
        <ele>514.6</ele>
        <time>2022-07-29T15:59:13Z</time>
      </trkpt>
      <trkpt lat="46.47105" lon="5.70247">
        <ele>514.6</ele>
        <time>2022-07-29T15:59:14Z</time>
      </trkpt>
      <trkpt lat="46.47102" lon="5.70251">
        <ele>514.6</ele>
        <time>2022-07-29T15:59:15Z</time>
      </trkpt>
      <trkpt lat="46.471" lon="5.70254">
        <ele>514.8</ele>
        <time>2022-07-29T15:59:16Z</time>
      </trkpt>
      <trkpt lat="46.47097" lon="5.70257">
        <ele>514.8</ele>
        <time>2022-07-29T15:59:17Z</time>
      </trkpt>
      <trkpt lat="46.47095" lon="5.70261">
        <ele>515</ele>
        <time>2022-07-29T15:59:18Z</time>
      </trkpt>
      <trkpt lat="46.47092" lon="5.70264">
        <ele>515</ele>
        <time>2022-07-29T15:59:19Z</time>
      </trkpt>
      <trkpt lat="46.4709" lon="5.70268">
        <ele>515</ele>
        <time>2022-07-29T15:59:20Z</time>
      </trkpt>
      <trkpt lat="46.47088" lon="5.70272">
        <ele>515.4</ele>
        <time>2022-07-29T15:59:21Z</time>
      </trkpt>
      <trkpt lat="46.47086" lon="5.70277">
        <ele>515.4</ele>
        <time>2022-07-29T15:59:22Z</time>
      </trkpt>
      <trkpt lat="46.47084" lon="5.70281">
        <ele>515.4</ele>
        <time>2022-07-29T15:59:23Z</time>
      </trkpt>
      <trkpt lat="46.47081" lon="5.70285">
        <ele>515.6</ele>
        <time>2022-07-29T15:59:24Z</time>
      </trkpt>
      <trkpt lat="46.47079" lon="5.70289">
        <ele>515.6</ele>
        <time>2022-07-29T15:59:25Z</time>
      </trkpt>
      <trkpt lat="46.47077" lon="5.70293">
        <ele>515.6</ele>
        <time>2022-07-29T15:59:26Z</time>
      </trkpt>
      <trkpt lat="46.47075" lon="5.70298">
        <ele>515.8</ele>
        <time>2022-07-29T15:59:27Z</time>
      </trkpt>
      <trkpt lat="46.47073" lon="5.70302">
        <ele>515.8</ele>
        <time>2022-07-29T15:59:28Z</time>
      </trkpt>
      <trkpt lat="46.47071" lon="5.70306">
        <ele>516</ele>
        <time>2022-07-29T15:59:29Z</time>
      </trkpt>
      <trkpt lat="46.47069" lon="5.7031">
        <ele>516</ele>
        <time>2022-07-29T15:59:30Z</time>
      </trkpt>
      <trkpt lat="46.47067" lon="5.70314">
        <ele>516.4</ele>
        <time>2022-07-29T15:59:31Z</time>
      </trkpt>
      <trkpt lat="46.47065" lon="5.70317">
        <ele>516.4</ele>
        <time>2022-07-29T15:59:32Z</time>
      </trkpt>
      <trkpt lat="46.47063" lon="5.7032">
        <ele>516.6</ele>
        <time>2022-07-29T15:59:33Z</time>
      </trkpt>
      <trkpt lat="46.47061" lon="5.70324">
        <ele>516.6</ele>
        <time>2022-07-29T15:59:34Z</time>
      </trkpt>
      <trkpt lat="46.47059" lon="5.70327">
        <ele>517</ele>
        <time>2022-07-29T15:59:35Z</time>
      </trkpt>
      <trkpt lat="46.47058" lon="5.7033">
        <ele>517</ele>
        <time>2022-07-29T15:59:36Z</time>
      </trkpt>
      <trkpt lat="46.47056" lon="5.70333">
        <ele>517.2</ele>
        <time>2022-07-29T15:59:37Z</time>
      </trkpt>
      <trkpt lat="46.47055" lon="5.70336">
        <ele>517.2</ele>
        <time>2022-07-29T15:59:38Z</time>
      </trkpt>
      <trkpt lat="46.47053" lon="5.70339">
        <ele>517.6</ele>
        <time>2022-07-29T15:59:39Z</time>
      </trkpt>
      <trkpt lat="46.47051" lon="5.70342">
        <ele>517.8</ele>
        <time>2022-07-29T15:59:40Z</time>
      </trkpt>
      <trkpt lat="46.4705" lon="5.70345">
        <ele>517.8</ele>
        <time>2022-07-29T15:59:41Z</time>
      </trkpt>
      <trkpt lat="46.47048" lon="5.70348">
        <ele>518.2</ele>
        <time>2022-07-29T15:59:42Z</time>
      </trkpt>
      <trkpt lat="46.47046" lon="5.70351">
        <ele>518.4</ele>
        <time>2022-07-29T15:59:43Z</time>
      </trkpt>
      <trkpt lat="46.47045" lon="5.70355">
        <ele>518.6</ele>
        <time>2022-07-29T15:59:44Z</time>
      </trkpt>
      <trkpt lat="46.47043" lon="5.70358">
        <ele>518.6</ele>
        <time>2022-07-29T15:59:45Z</time>
      </trkpt>
      <trkpt lat="46.47041" lon="5.70362">
        <ele>519.2</ele>
        <time>2022-07-29T15:59:46Z</time>
      </trkpt>
      <trkpt lat="46.4704" lon="5.70365">
        <ele>519.4</ele>
        <time>2022-07-29T15:59:47Z</time>
      </trkpt>
      <trkpt lat="46.47038" lon="5.70368">
        <ele>519.6</ele>
        <time>2022-07-29T15:59:48Z</time>
      </trkpt>
      <trkpt lat="46.47037" lon="5.70371">
        <ele>519.6</ele>
        <time>2022-07-29T15:59:49Z</time>
      </trkpt>
      <trkpt lat="46.47035" lon="5.70374">
        <ele>520</ele>
        <time>2022-07-29T15:59:50Z</time>
      </trkpt>
      <trkpt lat="46.47034" lon="5.70377">
        <ele>520.2</ele>
        <time>2022-07-29T15:59:51Z</time>
      </trkpt>
      <trkpt lat="46.47033" lon="5.7038">
        <ele>520.4</ele>
        <time>2022-07-29T15:59:52Z</time>
      </trkpt>
      <trkpt lat="46.47031" lon="5.70383">
        <ele>520.8</ele>
        <time>2022-07-29T15:59:53Z</time>
      </trkpt>
      <trkpt lat="46.4703" lon="5.70386">
        <ele>521</ele>
        <time>2022-07-29T15:59:54Z</time>
      </trkpt>
      <trkpt lat="46.47029" lon="5.70389">
        <ele>521.2</ele>
        <time>2022-07-29T15:59:55Z</time>
      </trkpt>
      <trkpt lat="46.47027" lon="5.70391">
        <ele>521.2</ele>
        <time>2022-07-29T15:59:56Z</time>
      </trkpt>
      <trkpt lat="46.47026" lon="5.70394">
        <ele>521.6</ele>
        <time>2022-07-29T15:59:57Z</time>
      </trkpt>
      <trkpt lat="46.47025" lon="5.70398">
        <ele>521.6</ele>
        <time>2022-07-29T15:59:58Z</time>
      </trkpt>
      <trkpt lat="46.47023" lon="5.70401">
        <ele>521.8</ele>
        <time>2022-07-29T15:59:59Z</time>
      </trkpt>
      <trkpt lat="46.47022" lon="5.70404">
        <ele>521.8</ele>
        <time>2022-07-29T16:00:00Z</time>
      </trkpt>
      <trkpt lat="46.4702" lon="5.70407">
        <ele>522.2</ele>
        <time>2022-07-29T16:00:01Z</time>
      </trkpt>
      <trkpt lat="46.47019" lon="5.7041">
        <ele>522.2</ele>
        <time>2022-07-29T16:00:02Z</time>
      </trkpt>
      <trkpt lat="46.47017" lon="5.70414">
        <ele>522.4</ele>
        <time>2022-07-29T16:00:03Z</time>
      </trkpt>
      <trkpt lat="46.47014" lon="5.7042">
        <ele>522.4</ele>
        <time>2022-07-29T16:00:04Z</time>
      </trkpt>
      <trkpt lat="46.47013" lon="5.70424">
        <ele>522.8</ele>
        <time>2022-07-29T16:00:05Z</time>
      </trkpt>
      <trkpt lat="46.47011" lon="5.70428">
        <ele>522.8</ele>
        <time>2022-07-29T16:00:06Z</time>
      </trkpt>
      <trkpt lat="46.4701" lon="5.70431">
        <ele>523</ele>
        <time>2022-07-29T16:00:07Z</time>
      </trkpt>
      <trkpt lat="46.4701" lon="5.70431">
        <ele>523</ele>
        <time>2022-07-29T16:00:08Z</time>
      </trkpt>
      <trkpt lat="46.47008" lon="5.70435">
        <ele>523.2</ele>
        <time>2022-07-29T16:00:09Z</time>
      </trkpt>
      <trkpt lat="46.47006" lon="5.70438">
        <ele>523.2</ele>
        <time>2022-07-29T16:00:10Z</time>
      </trkpt>
      <trkpt lat="46.47004" lon="5.70442">
        <ele>523.6</ele>
        <time>2022-07-29T16:00:11Z</time>
      </trkpt>
      <trkpt lat="46.47002" lon="5.70446">
        <ele>523.6</ele>
        <time>2022-07-29T16:00:12Z</time>
      </trkpt>
      <trkpt lat="46.47" lon="5.70449">
        <ele>523.6</ele>
        <time>2022-07-29T16:00:13Z</time>
      </trkpt>
      <trkpt lat="46.46998" lon="5.70452">
        <ele>523.8</ele>
        <time>2022-07-29T16:00:14Z</time>
      </trkpt>
      <trkpt lat="46.46996" lon="5.70456">
        <ele>523.8</ele>
        <time>2022-07-29T16:00:15Z</time>
      </trkpt>
      <trkpt lat="46.46993" lon="5.70459">
        <ele>524</ele>
        <time>2022-07-29T16:00:16Z</time>
      </trkpt>
      <trkpt lat="46.46991" lon="5.70463">
        <ele>524</ele>
        <time>2022-07-29T16:00:17Z</time>
      </trkpt>
      <trkpt lat="46.46989" lon="5.70466">
        <ele>524.4</ele>
        <time>2022-07-29T16:00:18Z</time>
      </trkpt>
      <trkpt lat="46.46987" lon="5.7047">
        <ele>524.4</ele>
        <time>2022-07-29T16:00:19Z</time>
      </trkpt>
      <trkpt lat="46.46985" lon="5.70473">
        <ele>524.6</ele>
        <time>2022-07-29T16:00:20Z</time>
      </trkpt>
      <trkpt lat="46.46983" lon="5.70477">
        <ele>524.6</ele>
        <time>2022-07-29T16:00:21Z</time>
      </trkpt>
      <trkpt lat="46.4698" lon="5.70481">
        <ele>524.6</ele>
        <time>2022-07-29T16:00:22Z</time>
      </trkpt>
      <trkpt lat="46.46978" lon="5.70484">
        <ele>524.8</ele>
        <time>2022-07-29T16:00:23Z</time>
      </trkpt>
      <trkpt lat="46.46976" lon="5.70488">
        <ele>524.8</ele>
        <time>2022-07-29T16:00:24Z</time>
      </trkpt>
      <trkpt lat="46.46974" lon="5.70492">
        <ele>525</ele>
        <time>2022-07-29T16:00:25Z</time>
      </trkpt>
      <trkpt lat="46.46971" lon="5.70496">
        <ele>525</ele>
        <time>2022-07-29T16:00:26Z</time>
      </trkpt>
      <trkpt lat="46.46969" lon="5.70501">
        <ele>525</ele>
        <time>2022-07-29T16:00:27Z</time>
      </trkpt>
      <trkpt lat="46.46967" lon="5.70505">
        <ele>525</ele>
        <time>2022-07-29T16:00:28Z</time>
      </trkpt>
      <trkpt lat="46.46964" lon="5.70509">
        <ele>525</ele>
        <time>2022-07-29T16:00:29Z</time>
      </trkpt>
      <trkpt lat="46.46962" lon="5.70513">
        <ele>525.4</ele>
        <time>2022-07-29T16:00:30Z</time>
      </trkpt>
      <trkpt lat="46.46959" lon="5.70517">
        <ele>525.4</ele>
        <time>2022-07-29T16:00:31Z</time>
      </trkpt>
      <trkpt lat="46.46957" lon="5.70521">
        <ele>525.4</ele>
        <time>2022-07-29T16:00:32Z</time>
      </trkpt>
      <trkpt lat="46.46954" lon="5.70525">
        <ele>525.6</ele>
        <time>2022-07-29T16:00:33Z</time>
      </trkpt>
      <trkpt lat="46.46951" lon="5.70529">
        <ele>525.6</ele>
        <time>2022-07-29T16:00:34Z</time>
      </trkpt>
      <trkpt lat="46.46949" lon="5.70533">
        <ele>525.6</ele>
        <time>2022-07-29T16:00:35Z</time>
      </trkpt>
      <trkpt lat="46.46946" lon="5.70537">
        <ele>525.8</ele>
        <time>2022-07-29T16:00:36Z</time>
      </trkpt>
      <trkpt lat="46.46943" lon="5.70541">
        <ele>525.8</ele>
        <time>2022-07-29T16:00:37Z</time>
      </trkpt>
      <trkpt lat="46.4694" lon="5.70545">
        <ele>526</ele>
        <time>2022-07-29T16:00:38Z</time>
      </trkpt>
      <trkpt lat="46.46936" lon="5.70549">
        <ele>526</ele>
        <time>2022-07-29T16:00:39Z</time>
      </trkpt>
      <trkpt lat="46.46933" lon="5.70552">
        <ele>526.4</ele>
        <time>2022-07-29T16:00:40Z</time>
      </trkpt>
      <trkpt lat="46.4693" lon="5.70555">
        <ele>526.4</ele>
        <time>2022-07-29T16:00:41Z</time>
      </trkpt>
      <trkpt lat="46.46928" lon="5.70559">
        <ele>526.8</ele>
        <time>2022-07-29T16:00:42Z</time>
      </trkpt>
      <trkpt lat="46.46925" lon="5.70562">
        <ele>527</ele>
        <time>2022-07-29T16:00:43Z</time>
      </trkpt>
      <trkpt lat="46.46922" lon="5.70565">
        <ele>527.2</ele>
        <time>2022-07-29T16:00:44Z</time>
      </trkpt>
      <trkpt lat="46.4692" lon="5.70568">
        <ele>527.4</ele>
        <time>2022-07-29T16:00:45Z</time>
      </trkpt>
      <trkpt lat="46.46917" lon="5.70571">
        <ele>527.6</ele>
        <time>2022-07-29T16:00:46Z</time>
      </trkpt>
      <trkpt lat="46.46914" lon="5.70574">
        <ele>527.8</ele>
        <time>2022-07-29T16:00:47Z</time>
      </trkpt>
      <trkpt lat="46.46912" lon="5.70577">
        <ele>527.8</ele>
        <time>2022-07-29T16:00:48Z</time>
      </trkpt>
      <trkpt lat="46.4691" lon="5.7058">
        <ele>528.4</ele>
        <time>2022-07-29T16:00:49Z</time>
      </trkpt>
      <trkpt lat="46.46908" lon="5.70583">
        <ele>528.4</ele>
        <time>2022-07-29T16:00:50Z</time>
      </trkpt>
      <trkpt lat="46.46906" lon="5.70586">
        <ele>528.8</ele>
        <time>2022-07-29T16:00:51Z</time>
      </trkpt>
      <trkpt lat="46.46904" lon="5.7059">
        <ele>528.8</ele>
        <time>2022-07-29T16:00:52Z</time>
      </trkpt>
      <trkpt lat="46.46902" lon="5.70593">
        <ele>529</ele>
        <time>2022-07-29T16:00:53Z</time>
      </trkpt>
      <trkpt lat="46.46899" lon="5.70596">
        <ele>529</ele>
        <time>2022-07-29T16:00:54Z</time>
      </trkpt>
      <trkpt lat="46.46897" lon="5.70599">
        <ele>529.2</ele>
        <time>2022-07-29T16:00:55Z</time>
      </trkpt>
      <trkpt lat="46.46895" lon="5.70602">
        <ele>529.2</ele>
        <time>2022-07-29T16:00:56Z</time>
      </trkpt>
      <trkpt lat="46.46893" lon="5.70605">
        <ele>529.6</ele>
        <time>2022-07-29T16:00:57Z</time>
      </trkpt>
      <trkpt lat="46.46891" lon="5.70608">
        <ele>529.6</ele>
        <time>2022-07-29T16:00:58Z</time>
      </trkpt>
      <trkpt lat="46.46887" lon="5.70615">
        <ele>529.8</ele>
        <time>2022-07-29T16:00:59Z</time>
      </trkpt>
      <trkpt lat="46.46885" lon="5.70618">
        <ele>530</ele>
        <time>2022-07-29T16:01:00Z</time>
      </trkpt>
      <trkpt lat="46.46883" lon="5.70621">
        <ele>530</ele>
        <time>2022-07-29T16:01:01Z</time>
      </trkpt>
      <trkpt lat="46.46881" lon="5.70625">
        <ele>530.4</ele>
        <time>2022-07-29T16:01:02Z</time>
      </trkpt>
      <trkpt lat="46.46879" lon="5.70628">
        <ele>530.4</ele>
        <time>2022-07-29T16:01:03Z</time>
      </trkpt>
      <trkpt lat="46.46877" lon="5.70631">
        <ele>530.6</ele>
        <time>2022-07-29T16:01:04Z</time>
      </trkpt>
      <trkpt lat="46.46875" lon="5.70635">
        <ele>531</ele>
        <time>2022-07-29T16:01:05Z</time>
      </trkpt>
      <trkpt lat="46.46873" lon="5.70638">
        <ele>531</ele>
        <time>2022-07-29T16:01:06Z</time>
      </trkpt>
      <trkpt lat="46.46871" lon="5.70642">
        <ele>531.2</ele>
        <time>2022-07-29T16:01:07Z</time>
      </trkpt>
      <trkpt lat="46.46869" lon="5.70645">
        <ele>531.2</ele>
        <time>2022-07-29T16:01:08Z</time>
      </trkpt>
      <trkpt lat="46.46867" lon="5.70648">
        <ele>531.6</ele>
        <time>2022-07-29T16:01:09Z</time>
      </trkpt>
      <trkpt lat="46.46865" lon="5.70651">
        <ele>531.6</ele>
        <time>2022-07-29T16:01:10Z</time>
      </trkpt>
      <trkpt lat="46.46863" lon="5.70654">
        <ele>531.8</ele>
        <time>2022-07-29T16:01:11Z</time>
      </trkpt>
      <trkpt lat="46.46861" lon="5.70658">
        <ele>531.8</ele>
        <time>2022-07-29T16:01:12Z</time>
      </trkpt>
      <trkpt lat="46.46859" lon="5.70661">
        <ele>532</ele>
        <time>2022-07-29T16:01:13Z</time>
      </trkpt>
      <trkpt lat="46.46857" lon="5.70664">
        <ele>532</ele>
        <time>2022-07-29T16:01:14Z</time>
      </trkpt>
      <trkpt lat="46.46855" lon="5.70667">
        <ele>532.2</ele>
        <time>2022-07-29T16:01:15Z</time>
      </trkpt>
      <trkpt lat="46.46853" lon="5.70671">
        <ele>532.2</ele>
        <time>2022-07-29T16:01:16Z</time>
      </trkpt>
      <trkpt lat="46.46851" lon="5.70674">
        <ele>532.6</ele>
        <time>2022-07-29T16:01:17Z</time>
      </trkpt>
      <trkpt lat="46.46849" lon="5.70678">
        <ele>532.6</ele>
        <time>2022-07-29T16:01:18Z</time>
      </trkpt>
      <trkpt lat="46.46847" lon="5.70682">
        <ele>532.8</ele>
        <time>2022-07-29T16:01:19Z</time>
      </trkpt>
      <trkpt lat="46.46845" lon="5.70685">
        <ele>532.8</ele>
        <time>2022-07-29T16:01:20Z</time>
      </trkpt>
      <trkpt lat="46.46843" lon="5.70688">
        <ele>533</ele>
        <time>2022-07-29T16:01:21Z</time>
      </trkpt>
      <trkpt lat="46.46841" lon="5.70692">
        <ele>533</ele>
        <time>2022-07-29T16:01:22Z</time>
      </trkpt>
      <trkpt lat="46.46839" lon="5.70695">
        <ele>533</ele>
        <time>2022-07-29T16:01:23Z</time>
      </trkpt>
      <trkpt lat="46.46837" lon="5.70698">
        <ele>533.4</ele>
        <time>2022-07-29T16:01:24Z</time>
      </trkpt>
      <trkpt lat="46.46835" lon="5.70702">
        <ele>533.4</ele>
        <time>2022-07-29T16:01:25Z</time>
      </trkpt>
      <trkpt lat="46.46833" lon="5.70705">
        <ele>533.6</ele>
        <time>2022-07-29T16:01:26Z</time>
      </trkpt>
      <trkpt lat="46.46831" lon="5.70708">
        <ele>533.6</ele>
        <time>2022-07-29T16:01:27Z</time>
      </trkpt>
      <trkpt lat="46.46829" lon="5.70712">
        <ele>534</ele>
        <time>2022-07-29T16:01:28Z</time>
      </trkpt>
      <trkpt lat="46.46827" lon="5.70715">
        <ele>534</ele>
        <time>2022-07-29T16:01:29Z</time>
      </trkpt>
      <trkpt lat="46.46825" lon="5.70719">
        <ele>534.2</ele>
        <time>2022-07-29T16:01:30Z</time>
      </trkpt>
      <trkpt lat="46.46823" lon="5.70722">
        <ele>534.2</ele>
        <time>2022-07-29T16:01:31Z</time>
      </trkpt>
      <trkpt lat="46.46821" lon="5.70725">
        <ele>534.4</ele>
        <time>2022-07-29T16:01:32Z</time>
      </trkpt>
      <trkpt lat="46.46819" lon="5.70729">
        <ele>534.4</ele>
        <time>2022-07-29T16:01:33Z</time>
      </trkpt>
      <trkpt lat="46.46818" lon="5.70732">
        <ele>534.8</ele>
        <time>2022-07-29T16:01:34Z</time>
      </trkpt>
      <trkpt lat="46.46816" lon="5.70735">
        <ele>534.8</ele>
        <time>2022-07-29T16:01:35Z</time>
      </trkpt>
      <trkpt lat="46.46814" lon="5.70738">
        <ele>535.2</ele>
        <time>2022-07-29T16:01:36Z</time>
      </trkpt>
      <trkpt lat="46.46812" lon="5.70741">
        <ele>535.4</ele>
        <time>2022-07-29T16:01:37Z</time>
      </trkpt>
      <trkpt lat="46.46811" lon="5.70744">
        <ele>535.6</ele>
        <time>2022-07-29T16:01:38Z</time>
      </trkpt>
      <trkpt lat="46.46809" lon="5.70747">
        <ele>535.8</ele>
        <time>2022-07-29T16:01:39Z</time>
      </trkpt>
      <trkpt lat="46.46808" lon="5.7075">
        <ele>536.2</ele>
        <time>2022-07-29T16:01:40Z</time>
      </trkpt>
      <trkpt lat="46.46807" lon="5.70753">
        <ele>536.2</ele>
        <time>2022-07-29T16:01:41Z</time>
      </trkpt>
      <trkpt lat="46.46805" lon="5.70756">
        <ele>536.4</ele>
        <time>2022-07-29T16:01:42Z</time>
      </trkpt>
      <trkpt lat="46.46803" lon="5.70759">
        <ele>536.6</ele>
        <time>2022-07-29T16:01:43Z</time>
      </trkpt>
      <trkpt lat="46.46801" lon="5.70762">
        <ele>536.6</ele>
        <time>2022-07-29T16:01:44Z</time>
      </trkpt>
      <trkpt lat="46.468" lon="5.70765">
        <ele>536.8</ele>
        <time>2022-07-29T16:01:45Z</time>
      </trkpt>
      <trkpt lat="46.46798" lon="5.70768">
        <ele>536.8</ele>
        <time>2022-07-29T16:01:46Z</time>
      </trkpt>
      <trkpt lat="46.46796" lon="5.70772">
        <ele>537.2</ele>
        <time>2022-07-29T16:01:47Z</time>
      </trkpt>
      <trkpt lat="46.46794" lon="5.70776">
        <ele>537.2</ele>
        <time>2022-07-29T16:01:48Z</time>
      </trkpt>
      <trkpt lat="46.46792" lon="5.70779">
        <ele>537.6</ele>
        <time>2022-07-29T16:01:49Z</time>
      </trkpt>
      <trkpt lat="46.4679" lon="5.70783">
        <ele>537.6</ele>
        <time>2022-07-29T16:01:50Z</time>
      </trkpt>
      <trkpt lat="46.46788" lon="5.70786">
        <ele>538</ele>
        <time>2022-07-29T16:01:51Z</time>
      </trkpt>
      <trkpt lat="46.46786" lon="5.70789">
        <ele>538</ele>
        <time>2022-07-29T16:01:52Z</time>
      </trkpt>
      <trkpt lat="46.46784" lon="5.70792">
        <ele>538.4</ele>
        <time>2022-07-29T16:01:53Z</time>
      </trkpt>
      <trkpt lat="46.46782" lon="5.70795">
        <ele>538.4</ele>
        <time>2022-07-29T16:01:54Z</time>
      </trkpt>
      <trkpt lat="46.46781" lon="5.70797">
        <ele>538.6</ele>
        <time>2022-07-29T16:01:55Z</time>
      </trkpt>
      <trkpt lat="46.46779" lon="5.708">
        <ele>538.6</ele>
        <time>2022-07-29T16:01:56Z</time>
      </trkpt>
      <trkpt lat="46.46778" lon="5.70803">
        <ele>539</ele>
        <time>2022-07-29T16:01:57Z</time>
      </trkpt>
      <trkpt lat="46.46776" lon="5.70807">
        <ele>539.2</ele>
        <time>2022-07-29T16:01:58Z</time>
      </trkpt>
      <trkpt lat="46.46775" lon="5.7081">
        <ele>539.2</ele>
        <time>2022-07-29T16:01:59Z</time>
      </trkpt>
      <trkpt lat="46.46773" lon="5.70813">
        <ele>539.6</ele>
        <time>2022-07-29T16:02:00Z</time>
      </trkpt>
      <trkpt lat="46.46771" lon="5.70815">
        <ele>539.6</ele>
        <time>2022-07-29T16:02:01Z</time>
      </trkpt>
      <trkpt lat="46.4677" lon="5.70818">
        <ele>540</ele>
        <time>2022-07-29T16:02:02Z</time>
      </trkpt>
      <trkpt lat="46.46768" lon="5.7082">
        <ele>540</ele>
        <time>2022-07-29T16:02:03Z</time>
      </trkpt>
      <trkpt lat="46.46766" lon="5.70823">
        <ele>540.2</ele>
        <time>2022-07-29T16:02:04Z</time>
      </trkpt>
      <trkpt lat="46.46765" lon="5.70826">
        <ele>540.2</ele>
        <time>2022-07-29T16:02:05Z</time>
      </trkpt>
      <trkpt lat="46.46764" lon="5.70829">
        <ele>540.6</ele>
        <time>2022-07-29T16:02:06Z</time>
      </trkpt>
      <trkpt lat="46.46762" lon="5.70832">
        <ele>540.6</ele>
        <time>2022-07-29T16:02:07Z</time>
      </trkpt>
      <trkpt lat="46.4676" lon="5.70834">
        <ele>541</ele>
        <time>2022-07-29T16:02:08Z</time>
      </trkpt>
      <trkpt lat="46.46759" lon="5.70836">
        <ele>541</ele>
        <time>2022-07-29T16:02:09Z</time>
      </trkpt>
      <trkpt lat="46.46757" lon="5.70839">
        <ele>541.4</ele>
        <time>2022-07-29T16:02:10Z</time>
      </trkpt>
      <trkpt lat="46.46756" lon="5.70841">
        <ele>541.4</ele>
        <time>2022-07-29T16:02:11Z</time>
      </trkpt>
      <trkpt lat="46.46754" lon="5.70844">
        <ele>541.6</ele>
        <time>2022-07-29T16:02:12Z</time>
      </trkpt>
      <trkpt lat="46.46752" lon="5.70846">
        <ele>541.6</ele>
        <time>2022-07-29T16:02:13Z</time>
      </trkpt>
      <trkpt lat="46.46751" lon="5.70849">
        <ele>542</ele>
        <time>2022-07-29T16:02:14Z</time>
      </trkpt>
      <trkpt lat="46.46749" lon="5.70852">
        <ele>542</ele>
        <time>2022-07-29T16:02:15Z</time>
      </trkpt>
      <trkpt lat="46.46748" lon="5.70854">
        <ele>542.2</ele>
        <time>2022-07-29T16:02:16Z</time>
      </trkpt>
      <trkpt lat="46.46746" lon="5.70857">
        <ele>542.2</ele>
        <time>2022-07-29T16:02:17Z</time>
      </trkpt>
      <trkpt lat="46.46745" lon="5.7086">
        <ele>542.6</ele>
        <time>2022-07-29T16:02:18Z</time>
      </trkpt>
      <trkpt lat="46.46744" lon="5.70863">
        <ele>542.6</ele>
        <time>2022-07-29T16:02:19Z</time>
      </trkpt>
      <trkpt lat="46.46742" lon="5.70865">
        <ele>542.8</ele>
        <time>2022-07-29T16:02:20Z</time>
      </trkpt>
      <trkpt lat="46.46741" lon="5.70868">
        <ele>542.8</ele>
        <time>2022-07-29T16:02:21Z</time>
      </trkpt>
      <trkpt lat="46.46739" lon="5.70871">
        <ele>543.2</ele>
        <time>2022-07-29T16:02:22Z</time>
      </trkpt>
      <trkpt lat="46.46738" lon="5.70873">
        <ele>543.2</ele>
        <time>2022-07-29T16:02:23Z</time>
      </trkpt>
      <trkpt lat="46.46736" lon="5.70876">
        <ele>543.6</ele>
        <time>2022-07-29T16:02:24Z</time>
      </trkpt>
      <trkpt lat="46.46735" lon="5.70879">
        <ele>543.6</ele>
        <time>2022-07-29T16:02:25Z</time>
      </trkpt>
      <trkpt lat="46.46733" lon="5.70881">
        <ele>543.8</ele>
        <time>2022-07-29T16:02:26Z</time>
      </trkpt>
      <trkpt lat="46.46732" lon="5.70884">
        <ele>543.8</ele>
        <time>2022-07-29T16:02:27Z</time>
      </trkpt>
      <trkpt lat="46.4673" lon="5.70886">
        <ele>544</ele>
        <time>2022-07-29T16:02:28Z</time>
      </trkpt>
      <trkpt lat="46.46729" lon="5.70889">
        <ele>544</ele>
        <time>2022-07-29T16:02:29Z</time>
      </trkpt>
      <trkpt lat="46.46728" lon="5.70892">
        <ele>544.4</ele>
        <time>2022-07-29T16:02:30Z</time>
      </trkpt>
      <trkpt lat="46.46727" lon="5.70894">
        <ele>544.4</ele>
        <time>2022-07-29T16:02:31Z</time>
      </trkpt>
      <trkpt lat="46.46725" lon="5.70897">
        <ele>544.6</ele>
        <time>2022-07-29T16:02:32Z</time>
      </trkpt>
      <trkpt lat="46.46724" lon="5.70899">
        <ele>544.6</ele>
        <time>2022-07-29T16:02:33Z</time>
      </trkpt>
      <trkpt lat="46.46722" lon="5.70902">
        <ele>545</ele>
        <time>2022-07-29T16:02:34Z</time>
      </trkpt>
      <trkpt lat="46.46721" lon="5.70904">
        <ele>545</ele>
        <time>2022-07-29T16:02:35Z</time>
      </trkpt>
      <trkpt lat="46.4672" lon="5.70907">
        <ele>545.2</ele>
        <time>2022-07-29T16:02:36Z</time>
      </trkpt>
      <trkpt lat="46.46719" lon="5.7091">
        <ele>545.2</ele>
        <time>2022-07-29T16:02:37Z</time>
      </trkpt>
      <trkpt lat="46.46719" lon="5.70914">
        <ele>545.6</ele>
        <time>2022-07-29T16:02:38Z</time>
      </trkpt>
      <trkpt lat="46.46718" lon="5.70917">
        <ele>545.6</ele>
        <time>2022-07-29T16:02:39Z</time>
      </trkpt>
      <trkpt lat="46.46717" lon="5.7092">
        <ele>546</ele>
        <time>2022-07-29T16:02:40Z</time>
      </trkpt>
      <trkpt lat="46.46716" lon="5.70923">
        <ele>546.2</ele>
        <time>2022-07-29T16:02:41Z</time>
      </trkpt>
      <trkpt lat="46.46716" lon="5.70926">
        <ele>546.4</ele>
        <time>2022-07-29T16:02:42Z</time>
      </trkpt>
      <trkpt lat="46.46715" lon="5.7093">
        <ele>546.4</ele>
        <time>2022-07-29T16:02:43Z</time>
      </trkpt>
      <trkpt lat="46.46715" lon="5.70933">
        <ele>546.8</ele>
        <time>2022-07-29T16:02:44Z</time>
      </trkpt>
      <trkpt lat="46.46714" lon="5.70936">
        <ele>546.8</ele>
        <time>2022-07-29T16:02:45Z</time>
      </trkpt>
      <trkpt lat="46.46713" lon="5.70939">
        <ele>547.2</ele>
        <time>2022-07-29T16:02:46Z</time>
      </trkpt>
      <trkpt lat="46.46713" lon="5.70942">
        <ele>547.2</ele>
        <time>2022-07-29T16:02:47Z</time>
      </trkpt>
      <trkpt lat="46.46712" lon="5.70945">
        <ele>547.4</ele>
        <time>2022-07-29T16:02:48Z</time>
      </trkpt>
      <trkpt lat="46.46712" lon="5.70948">
        <ele>547.4</ele>
        <time>2022-07-29T16:02:49Z</time>
      </trkpt>
      <trkpt lat="46.46711" lon="5.70952">
        <ele>547.8</ele>
        <time>2022-07-29T16:02:50Z</time>
      </trkpt>
      <trkpt lat="46.46711" lon="5.70955">
        <ele>547.8</ele>
        <time>2022-07-29T16:02:51Z</time>
      </trkpt>
      <trkpt lat="46.46711" lon="5.70958">
        <ele>548.2</ele>
        <time>2022-07-29T16:02:52Z</time>
      </trkpt>
      <trkpt lat="46.46711" lon="5.70961">
        <ele>548.4</ele>
        <time>2022-07-29T16:02:53Z</time>
      </trkpt>
      <trkpt lat="46.46712" lon="5.70965">
        <ele>548.4</ele>
        <time>2022-07-29T16:02:54Z</time>
      </trkpt>
      <trkpt lat="46.46712" lon="5.70968">
        <ele>548.6</ele>
        <time>2022-07-29T16:02:55Z</time>
      </trkpt>
      <trkpt lat="46.46712" lon="5.70971">
        <ele>548.6</ele>
        <time>2022-07-29T16:02:56Z</time>
      </trkpt>
      <trkpt lat="46.46712" lon="5.70975">
        <ele>548.8</ele>
        <time>2022-07-29T16:02:57Z</time>
      </trkpt>
      <trkpt lat="46.46713" lon="5.70978">
        <ele>548.8</ele>
        <time>2022-07-29T16:02:58Z</time>
      </trkpt>
      <trkpt lat="46.46713" lon="5.70982">
        <ele>549.2</ele>
        <time>2022-07-29T16:02:59Z</time>
      </trkpt>
      <trkpt lat="46.46714" lon="5.70985">
        <ele>549.2</ele>
        <time>2022-07-29T16:03:00Z</time>
      </trkpt>
      <trkpt lat="46.46714" lon="5.70989">
        <ele>549.4</ele>
        <time>2022-07-29T16:03:01Z</time>
      </trkpt>
      <trkpt lat="46.46714" lon="5.70993">
        <ele>549.4</ele>
        <time>2022-07-29T16:03:02Z</time>
      </trkpt>
      <trkpt lat="46.46715" lon="5.70996">
        <ele>549.6</ele>
        <time>2022-07-29T16:03:03Z</time>
      </trkpt>
      <trkpt lat="46.46715" lon="5.71">
        <ele>549.6</ele>
        <time>2022-07-29T16:03:04Z</time>
      </trkpt>
      <trkpt lat="46.46716" lon="5.71003">
        <ele>550</ele>
        <time>2022-07-29T16:03:05Z</time>
      </trkpt>
      <trkpt lat="46.46717" lon="5.71007">
        <ele>550</ele>
        <time>2022-07-29T16:03:06Z</time>
      </trkpt>
      <trkpt lat="46.46717" lon="5.71011">
        <ele>550.4</ele>
        <time>2022-07-29T16:03:07Z</time>
      </trkpt>
      <trkpt lat="46.46717" lon="5.71014">
        <ele>550.4</ele>
        <time>2022-07-29T16:03:08Z</time>
      </trkpt>
      <trkpt lat="46.46718" lon="5.71018">
        <ele>550.8</ele>
        <time>2022-07-29T16:03:09Z</time>
      </trkpt>
      <trkpt lat="46.46718" lon="5.71022">
        <ele>550.8</ele>
        <time>2022-07-29T16:03:10Z</time>
      </trkpt>
      <trkpt lat="46.46718" lon="5.71025">
        <ele>551</ele>
        <time>2022-07-29T16:03:11Z</time>
      </trkpt>
      <trkpt lat="46.46717" lon="5.71029">
        <ele>551</ele>
        <time>2022-07-29T16:03:12Z</time>
      </trkpt>
      <trkpt lat="46.46717" lon="5.71033">
        <ele>551.4</ele>
        <time>2022-07-29T16:03:13Z</time>
      </trkpt>
      <trkpt lat="46.46716" lon="5.71037">
        <ele>551.4</ele>
        <time>2022-07-29T16:03:14Z</time>
      </trkpt>
      <trkpt lat="46.46715" lon="5.7104">
        <ele>551.6</ele>
        <time>2022-07-29T16:03:15Z</time>
      </trkpt>
      <trkpt lat="46.46715" lon="5.71044">
        <ele>551.6</ele>
        <time>2022-07-29T16:03:16Z</time>
      </trkpt>
      <trkpt lat="46.46714" lon="5.71048">
        <ele>551.8</ele>
        <time>2022-07-29T16:03:17Z</time>
      </trkpt>
      <trkpt lat="46.46713" lon="5.71052">
        <ele>552</ele>
        <time>2022-07-29T16:03:18Z</time>
      </trkpt>
      <trkpt lat="46.46712" lon="5.71056">
        <ele>552</ele>
        <time>2022-07-29T16:03:19Z</time>
      </trkpt>
      <trkpt lat="46.46712" lon="5.7106">
        <ele>552.4</ele>
        <time>2022-07-29T16:03:20Z</time>
      </trkpt>
      <trkpt lat="46.46711" lon="5.71063">
        <ele>552.4</ele>
        <time>2022-07-29T16:03:21Z</time>
      </trkpt>
      <trkpt lat="46.46711" lon="5.71067">
        <ele>552.8</ele>
        <time>2022-07-29T16:03:22Z</time>
      </trkpt>
      <trkpt lat="46.46711" lon="5.71071">
        <ele>552.8</ele>
        <time>2022-07-29T16:03:23Z</time>
      </trkpt>
      <trkpt lat="46.46711" lon="5.71074">
        <ele>553</ele>
        <time>2022-07-29T16:03:24Z</time>
      </trkpt>
      <trkpt lat="46.46711" lon="5.71078">
        <ele>553</ele>
        <time>2022-07-29T16:03:25Z</time>
      </trkpt>
      <trkpt lat="46.46711" lon="5.71081">
        <ele>553.2</ele>
        <time>2022-07-29T16:03:26Z</time>
      </trkpt>
      <trkpt lat="46.4671" lon="5.71085">
        <ele>553.2</ele>
        <time>2022-07-29T16:03:27Z</time>
      </trkpt>
      <trkpt lat="46.4671" lon="5.71088">
        <ele>553.6</ele>
        <time>2022-07-29T16:03:28Z</time>
      </trkpt>
      <trkpt lat="46.4671" lon="5.71092">
        <ele>553.6</ele>
        <time>2022-07-29T16:03:29Z</time>
      </trkpt>
      <trkpt lat="46.4671" lon="5.71096">
        <ele>554</ele>
        <time>2022-07-29T16:03:30Z</time>
      </trkpt>
      <trkpt lat="46.4671" lon="5.71099">
        <ele>554</ele>
        <time>2022-07-29T16:03:31Z</time>
      </trkpt>
      <trkpt lat="46.4671" lon="5.71103">
        <ele>554.4</ele>
        <time>2022-07-29T16:03:32Z</time>
      </trkpt>
      <trkpt lat="46.4671" lon="5.71107">
        <ele>554.4</ele>
        <time>2022-07-29T16:03:33Z</time>
      </trkpt>
      <trkpt lat="46.46711" lon="5.71111">
        <ele>554.6</ele>
        <time>2022-07-29T16:03:34Z</time>
      </trkpt>
      <trkpt lat="46.46711" lon="5.71114">
        <ele>554.6</ele>
        <time>2022-07-29T16:03:35Z</time>
      </trkpt>
      <trkpt lat="46.46711" lon="5.71118">
        <ele>555</ele>
        <time>2022-07-29T16:03:36Z</time>
      </trkpt>
      <trkpt lat="46.46712" lon="5.71122">
        <ele>555.2</ele>
        <time>2022-07-29T16:03:37Z</time>
      </trkpt>
      <trkpt lat="46.46713" lon="5.71126">
        <ele>555.2</ele>
        <time>2022-07-29T16:03:38Z</time>
      </trkpt>
      <trkpt lat="46.46713" lon="5.71129">
        <ele>555.4</ele>
        <time>2022-07-29T16:03:39Z</time>
      </trkpt>
      <trkpt lat="46.46714" lon="5.71133">
        <ele>555.6</ele>
        <time>2022-07-29T16:03:40Z</time>
      </trkpt>
      <trkpt lat="46.46715" lon="5.71137">
        <ele>555.6</ele>
        <time>2022-07-29T16:03:41Z</time>
      </trkpt>
      <trkpt lat="46.46716" lon="5.7114">
        <ele>556</ele>
        <time>2022-07-29T16:03:42Z</time>
      </trkpt>
      <trkpt lat="46.46717" lon="5.71144">
        <ele>556.2</ele>
        <time>2022-07-29T16:03:43Z</time>
      </trkpt>
      <trkpt lat="46.46718" lon="5.71147">
        <ele>556.2</ele>
        <time>2022-07-29T16:03:44Z</time>
      </trkpt>
      <trkpt lat="46.46719" lon="5.71151">
        <ele>556.6</ele>
        <time>2022-07-29T16:03:45Z</time>
      </trkpt>
      <trkpt lat="46.4672" lon="5.71154">
        <ele>556.6</ele>
        <time>2022-07-29T16:03:46Z</time>
      </trkpt>
      <trkpt lat="46.4672" lon="5.71158">
        <ele>556.8</ele>
        <time>2022-07-29T16:03:47Z</time>
      </trkpt>
      <trkpt lat="46.46721" lon="5.71161">
        <ele>556.8</ele>
        <time>2022-07-29T16:03:48Z</time>
      </trkpt>
      <trkpt lat="46.46721" lon="5.71165">
        <ele>557.2</ele>
        <time>2022-07-29T16:03:49Z</time>
      </trkpt>
      <trkpt lat="46.46721" lon="5.71168">
        <ele>557.2</ele>
        <time>2022-07-29T16:03:50Z</time>
      </trkpt>
      <trkpt lat="46.46722" lon="5.71172">
        <ele>557.4</ele>
        <time>2022-07-29T16:03:51Z</time>
      </trkpt>
      <trkpt lat="46.46722" lon="5.71175">
        <ele>557.4</ele>
        <time>2022-07-29T16:03:52Z</time>
      </trkpt>
      <trkpt lat="46.46723" lon="5.71178">
        <ele>557.8</ele>
        <time>2022-07-29T16:03:53Z</time>
      </trkpt>
      <trkpt lat="46.46723" lon="5.71182">
        <ele>557.8</ele>
        <time>2022-07-29T16:03:54Z</time>
      </trkpt>
      <trkpt lat="46.46724" lon="5.71186">
        <ele>558</ele>
        <time>2022-07-29T16:03:55Z</time>
      </trkpt>
      <trkpt lat="46.46724" lon="5.71189">
        <ele>558</ele>
        <time>2022-07-29T16:03:56Z</time>
      </trkpt>
      <trkpt lat="46.46724" lon="5.71193">
        <ele>558.4</ele>
        <time>2022-07-29T16:03:57Z</time>
      </trkpt>
      <trkpt lat="46.46725" lon="5.71197">
        <ele>558.4</ele>
        <time>2022-07-29T16:03:58Z</time>
      </trkpt>
      <trkpt lat="46.46725" lon="5.71201">
        <ele>558.8</ele>
        <time>2022-07-29T16:03:59Z</time>
      </trkpt>
      <trkpt lat="46.46725" lon="5.71205">
        <ele>559</ele>
        <time>2022-07-29T16:04:00Z</time>
      </trkpt>
      <trkpt lat="46.46725" lon="5.71209">
        <ele>559</ele>
        <time>2022-07-29T16:04:01Z</time>
      </trkpt>
      <trkpt lat="46.46725" lon="5.71213">
        <ele>559.2</ele>
        <time>2022-07-29T16:04:02Z</time>
      </trkpt>
      <trkpt lat="46.46725" lon="5.71217">
        <ele>559.2</ele>
        <time>2022-07-29T16:04:03Z</time>
      </trkpt>
      <trkpt lat="46.46725" lon="5.71221">
        <ele>559.6</ele>
        <time>2022-07-29T16:04:04Z</time>
      </trkpt>
      <trkpt lat="46.46725" lon="5.71225">
        <ele>559.6</ele>
        <time>2022-07-29T16:04:05Z</time>
      </trkpt>
      <trkpt lat="46.46724" lon="5.7123">
        <ele>559.8</ele>
        <time>2022-07-29T16:04:06Z</time>
      </trkpt>
      <trkpt lat="46.46724" lon="5.71234">
        <ele>559.8</ele>
        <time>2022-07-29T16:04:07Z</time>
      </trkpt>
      <trkpt lat="46.46723" lon="5.71238">
        <ele>560</ele>
        <time>2022-07-29T16:04:08Z</time>
      </trkpt>
      <trkpt lat="46.46722" lon="5.71243">
        <ele>560.2</ele>
        <time>2022-07-29T16:04:09Z</time>
      </trkpt>
      <trkpt lat="46.46721" lon="5.71247">
        <ele>560.2</ele>
        <time>2022-07-29T16:04:10Z</time>
      </trkpt>
      <trkpt lat="46.46719" lon="5.71251">
        <ele>560.6</ele>
        <time>2022-07-29T16:04:11Z</time>
      </trkpt>
      <trkpt lat="46.46717" lon="5.71254">
        <ele>560.6</ele>
        <time>2022-07-29T16:04:12Z</time>
      </trkpt>
      <trkpt lat="46.46716" lon="5.71258">
        <ele>561</ele>
        <time>2022-07-29T16:04:13Z</time>
      </trkpt>
      <trkpt lat="46.46716" lon="5.71262">
        <ele>561</ele>
        <time>2022-07-29T16:04:14Z</time>
      </trkpt>
      <trkpt lat="46.46716" lon="5.71265">
        <ele>561.4</ele>
        <time>2022-07-29T16:04:15Z</time>
      </trkpt>
      <trkpt lat="46.46718" lon="5.71269">
        <ele>561.4</ele>
        <time>2022-07-29T16:04:16Z</time>
      </trkpt>
      <trkpt lat="46.4672" lon="5.71272">
        <ele>561.4</ele>
        <time>2022-07-29T16:04:17Z</time>
      </trkpt>
      <trkpt lat="46.46722" lon="5.71274">
        <ele>561.6</ele>
        <time>2022-07-29T16:04:18Z</time>
      </trkpt>
      <trkpt lat="46.46725" lon="5.71276">
        <ele>561.6</ele>
        <time>2022-07-29T16:04:19Z</time>
      </trkpt>
      <trkpt lat="46.46729" lon="5.71279">
        <ele>561.6</ele>
        <time>2022-07-29T16:04:20Z</time>
      </trkpt>
      <trkpt lat="46.46732" lon="5.71281">
        <ele>561.8</ele>
        <time>2022-07-29T16:04:21Z</time>
      </trkpt>
      <trkpt lat="46.46736" lon="5.71283">
        <ele>561.8</ele>
        <time>2022-07-29T16:04:22Z</time>
      </trkpt>
      <trkpt lat="46.4674" lon="5.71285">
        <ele>561.8</ele>
        <time>2022-07-29T16:04:23Z</time>
      </trkpt>
      <trkpt lat="46.46743" lon="5.71287">
        <ele>562</ele>
        <time>2022-07-29T16:04:24Z</time>
      </trkpt>
      <trkpt lat="46.46747" lon="5.71289">
        <ele>562</ele>
        <time>2022-07-29T16:04:25Z</time>
      </trkpt>
      <trkpt lat="46.46751" lon="5.71291">
        <ele>562</ele>
        <time>2022-07-29T16:04:26Z</time>
      </trkpt>
      <trkpt lat="46.46755" lon="5.71293">
        <ele>562</ele>
        <time>2022-07-29T16:04:27Z</time>
      </trkpt>
      <trkpt lat="46.46759" lon="5.71295">
        <ele>562</ele>
        <time>2022-07-29T16:04:28Z</time>
      </trkpt>
      <trkpt lat="46.46763" lon="5.71298">
        <ele>562</ele>
        <time>2022-07-29T16:04:29Z</time>
      </trkpt>
      <trkpt lat="46.46768" lon="5.713">
        <ele>562</ele>
        <time>2022-07-29T16:04:30Z</time>
      </trkpt>
      <trkpt lat="46.46772" lon="5.71303">
        <ele>562.2</ele>
        <time>2022-07-29T16:04:31Z</time>
      </trkpt>
      <trkpt lat="46.46777" lon="5.71306">
        <ele>562.2</ele>
        <time>2022-07-29T16:04:32Z</time>
      </trkpt>
      <trkpt lat="46.46781" lon="5.71308">
        <ele>562.6</ele>
        <time>2022-07-29T16:04:33Z</time>
      </trkpt>
      <trkpt lat="46.46785" lon="5.71312">
        <ele>562.6</ele>
        <time>2022-07-29T16:04:34Z</time>
      </trkpt>
      <trkpt lat="46.46789" lon="5.71314">
        <ele>562.8</ele>
        <time>2022-07-29T16:04:35Z</time>
      </trkpt>
      <trkpt lat="46.46793" lon="5.71317">
        <ele>563.2</ele>
        <time>2022-07-29T16:04:36Z</time>
      </trkpt>
      <trkpt lat="46.46798" lon="5.71319">
        <ele>563.4</ele>
        <time>2022-07-29T16:04:37Z</time>
      </trkpt>
      <trkpt lat="46.46802" lon="5.71321">
        <ele>563.4</ele>
        <time>2022-07-29T16:04:38Z</time>
      </trkpt>
      <trkpt lat="46.46805" lon="5.71325">
        <ele>563.6</ele>
        <time>2022-07-29T16:04:39Z</time>
      </trkpt>
      <trkpt lat="46.46808" lon="5.71329">
        <ele>563.6</ele>
        <time>2022-07-29T16:04:40Z</time>
      </trkpt>
      <trkpt lat="46.4681" lon="5.71334">
        <ele>564</ele>
        <time>2022-07-29T16:04:41Z</time>
      </trkpt>
      <trkpt lat="46.46811" lon="5.71339">
        <ele>564</ele>
        <time>2022-07-29T16:04:42Z</time>
      </trkpt>
      <trkpt lat="46.46812" lon="5.71345">
        <ele>564.2</ele>
        <time>2022-07-29T16:04:43Z</time>
      </trkpt>
      <trkpt lat="46.46812" lon="5.7135">
        <ele>564.2</ele>
        <time>2022-07-29T16:04:44Z</time>
      </trkpt>
      <trkpt lat="46.46814" lon="5.71356">
        <ele>564.6</ele>
        <time>2022-07-29T16:04:45Z</time>
      </trkpt>
      <trkpt lat="46.46814" lon="5.71362">
        <ele>564.6</ele>
        <time>2022-07-29T16:04:46Z</time>
      </trkpt>
      <trkpt lat="46.46816" lon="5.71367">
        <ele>564.8</ele>
        <time>2022-07-29T16:04:47Z</time>
      </trkpt>
      <trkpt lat="46.46816" lon="5.71373">
        <ele>564.8</ele>
        <time>2022-07-29T16:04:48Z</time>
      </trkpt>
      <trkpt lat="46.46817" lon="5.71378">
        <ele>565.2</ele>
        <time>2022-07-29T16:04:49Z</time>
      </trkpt>
      <trkpt lat="46.46818" lon="5.71384">
        <ele>565.2</ele>
        <time>2022-07-29T16:04:50Z</time>
      </trkpt>
      <trkpt lat="46.46818" lon="5.71389">
        <ele>565.4</ele>
        <time>2022-07-29T16:04:51Z</time>
      </trkpt>
      <trkpt lat="46.46819" lon="5.71395">
        <ele>565.4</ele>
        <time>2022-07-29T16:04:52Z</time>
      </trkpt>
      <trkpt lat="46.4682" lon="5.71401">
        <ele>565.6</ele>
        <time>2022-07-29T16:04:53Z</time>
      </trkpt>
      <trkpt lat="46.46821" lon="5.71406">
        <ele>565.6</ele>
        <time>2022-07-29T16:04:54Z</time>
      </trkpt>
      <trkpt lat="46.46822" lon="5.71412">
        <ele>565.6</ele>
        <time>2022-07-29T16:04:55Z</time>
      </trkpt>
      <trkpt lat="46.46823" lon="5.71418">
        <ele>565.6</ele>
        <time>2022-07-29T16:04:56Z</time>
      </trkpt>
      <trkpt lat="46.46825" lon="5.71425">
        <ele>565.6</ele>
        <time>2022-07-29T16:04:57Z</time>
      </trkpt>
      <trkpt lat="46.46826" lon="5.71432">
        <ele>565.6</ele>
        <time>2022-07-29T16:04:58Z</time>
      </trkpt>
      <trkpt lat="46.46827" lon="5.71439">
        <ele>565.6</ele>
        <time>2022-07-29T16:04:59Z</time>
      </trkpt>
      <trkpt lat="46.46829" lon="5.71447">
        <ele>565.6</ele>
        <time>2022-07-29T16:05:00Z</time>
      </trkpt>
      <trkpt lat="46.4683" lon="5.71455">
        <ele>565.6</ele>
        <time>2022-07-29T16:05:01Z</time>
      </trkpt>
      <trkpt lat="46.46831" lon="5.71463">
        <ele>565.4</ele>
        <time>2022-07-29T16:05:02Z</time>
      </trkpt>
      <trkpt lat="46.46833" lon="5.71471">
        <ele>565.4</ele>
        <time>2022-07-29T16:05:03Z</time>
      </trkpt>
      <trkpt lat="46.46834" lon="5.7148">
        <ele>565</ele>
        <time>2022-07-29T16:05:04Z</time>
      </trkpt>
      <trkpt lat="46.46836" lon="5.71489">
        <ele>564.8</ele>
        <time>2022-07-29T16:05:05Z</time>
      </trkpt>
      <trkpt lat="46.46838" lon="5.71499">
        <ele>564.8</ele>
        <time>2022-07-29T16:05:06Z</time>
      </trkpt>
      <trkpt lat="46.4684" lon="5.71509">
        <ele>564.4</ele>
        <time>2022-07-29T16:05:07Z</time>
      </trkpt>
      <trkpt lat="46.46842" lon="5.71519">
        <ele>564.4</ele>
        <time>2022-07-29T16:05:08Z</time>
      </trkpt>
      <trkpt lat="46.46844" lon="5.71529">
        <ele>564</ele>
        <time>2022-07-29T16:05:09Z</time>
      </trkpt>
      <trkpt lat="46.46847" lon="5.71539">
        <ele>564</ele>
        <time>2022-07-29T16:05:10Z</time>
      </trkpt>
      <trkpt lat="46.4685" lon="5.71548">
        <ele>563.8</ele>
        <time>2022-07-29T16:05:11Z</time>
      </trkpt>
      <trkpt lat="46.46853" lon="5.71557">
        <ele>563.8</ele>
        <time>2022-07-29T16:05:12Z</time>
      </trkpt>
      <trkpt lat="46.46857" lon="5.71566">
        <ele>563.4</ele>
        <time>2022-07-29T16:05:13Z</time>
      </trkpt>
      <trkpt lat="46.4686" lon="5.71575">
        <ele>563.4</ele>
        <time>2022-07-29T16:05:14Z</time>
      </trkpt>
      <trkpt lat="46.46864" lon="5.71583">
        <ele>563.4</ele>
        <time>2022-07-29T16:05:15Z</time>
      </trkpt>
      <trkpt lat="46.46867" lon="5.71591">
        <ele>563.4</ele>
        <time>2022-07-29T16:05:16Z</time>
      </trkpt>
      <trkpt lat="46.46871" lon="5.71599">
        <ele>563.2</ele>
        <time>2022-07-29T16:05:17Z</time>
      </trkpt>
      <trkpt lat="46.46875" lon="5.71606">
        <ele>563.2</ele>
        <time>2022-07-29T16:05:18Z</time>
      </trkpt>
      <trkpt lat="46.46879" lon="5.71614">
        <ele>563.2</ele>
        <time>2022-07-29T16:05:19Z</time>
      </trkpt>
      <trkpt lat="46.46883" lon="5.71621">
        <ele>563.2</ele>
        <time>2022-07-29T16:05:20Z</time>
      </trkpt>
      <trkpt lat="46.46887" lon="5.71628">
        <ele>563.2</ele>
        <time>2022-07-29T16:05:21Z</time>
      </trkpt>
      <trkpt lat="46.4689" lon="5.71634">
        <ele>563.2</ele>
        <time>2022-07-29T16:05:22Z</time>
      </trkpt>
      <trkpt lat="46.46894" lon="5.71641">
        <ele>563.2</ele>
        <time>2022-07-29T16:05:23Z</time>
      </trkpt>
      <trkpt lat="46.46897" lon="5.71647">
        <ele>563.2</ele>
        <time>2022-07-29T16:05:24Z</time>
      </trkpt>
      <trkpt lat="46.469" lon="5.71654">
        <ele>563.2</ele>
        <time>2022-07-29T16:05:25Z</time>
      </trkpt>
      <trkpt lat="46.46904" lon="5.7166">
        <ele>563</ele>
        <time>2022-07-29T16:05:26Z</time>
      </trkpt>
      <trkpt lat="46.46907" lon="5.71666">
        <ele>563</ele>
        <time>2022-07-29T16:05:27Z</time>
      </trkpt>
      <trkpt lat="46.4691" lon="5.71672">
        <ele>563</ele>
        <time>2022-07-29T16:05:28Z</time>
      </trkpt>
      <trkpt lat="46.46913" lon="5.71679">
        <ele>563</ele>
        <time>2022-07-29T16:05:29Z</time>
      </trkpt>
      <trkpt lat="46.46917" lon="5.71685">
        <ele>562.6</ele>
        <time>2022-07-29T16:05:30Z</time>
      </trkpt>
      <trkpt lat="46.4692" lon="5.71692">
        <ele>562.6</ele>
        <time>2022-07-29T16:05:31Z</time>
      </trkpt>
      <trkpt lat="46.46924" lon="5.71699">
        <ele>562.4</ele>
        <time>2022-07-29T16:05:32Z</time>
      </trkpt>
      <trkpt lat="46.46927" lon="5.71706">
        <ele>562.4</ele>
        <time>2022-07-29T16:05:33Z</time>
      </trkpt>
      <trkpt lat="46.46931" lon="5.71713">
        <ele>562.2</ele>
        <time>2022-07-29T16:05:34Z</time>
      </trkpt>
      <trkpt lat="46.46935" lon="5.7172">
        <ele>562.2</ele>
        <time>2022-07-29T16:05:35Z</time>
      </trkpt>
      <trkpt lat="46.46939" lon="5.71727">
        <ele>561.8</ele>
        <time>2022-07-29T16:05:36Z</time>
      </trkpt>
      <trkpt lat="46.46942" lon="5.71734">
        <ele>561.8</ele>
        <time>2022-07-29T16:05:37Z</time>
      </trkpt>
      <trkpt lat="46.46946" lon="5.71742">
        <ele>561.8</ele>
        <time>2022-07-29T16:05:38Z</time>
      </trkpt>
      <trkpt lat="46.4695" lon="5.71749">
        <ele>561.8</ele>
        <time>2022-07-29T16:05:39Z</time>
      </trkpt>
      <trkpt lat="46.46953" lon="5.71756">
        <ele>561.8</ele>
        <time>2022-07-29T16:05:40Z</time>
      </trkpt>
      <trkpt lat="46.46957" lon="5.71763">
        <ele>561.8</ele>
        <time>2022-07-29T16:05:41Z</time>
      </trkpt>
      <trkpt lat="46.46961" lon="5.7177">
        <ele>561.8</ele>
        <time>2022-07-29T16:05:42Z</time>
      </trkpt>
      <trkpt lat="46.46965" lon="5.71776">
        <ele>561.8</ele>
        <time>2022-07-29T16:05:43Z</time>
      </trkpt>
      <trkpt lat="46.46968" lon="5.71783">
        <ele>561.8</ele>
        <time>2022-07-29T16:05:44Z</time>
      </trkpt>
      <trkpt lat="46.46972" lon="5.7179">
        <ele>562</ele>
        <time>2022-07-29T16:05:45Z</time>
      </trkpt>
      <trkpt lat="46.46976" lon="5.71796">
        <ele>562</ele>
        <time>2022-07-29T16:05:46Z</time>
      </trkpt>
      <trkpt lat="46.46979" lon="5.71803">
        <ele>562</ele>
        <time>2022-07-29T16:05:47Z</time>
      </trkpt>
      <trkpt lat="46.46982" lon="5.7181">
        <ele>562</ele>
        <time>2022-07-29T16:05:48Z</time>
      </trkpt>
      <trkpt lat="46.46982" lon="5.7181">
        <ele>562</ele>
        <time>2022-07-29T16:05:49Z</time>
      </trkpt>
      <trkpt lat="46.46985" lon="5.71816">
        <ele>562.4</ele>
        <time>2022-07-29T16:05:50Z</time>
      </trkpt>
      <trkpt lat="46.46989" lon="5.71822">
        <ele>562.4</ele>
        <time>2022-07-29T16:05:51Z</time>
      </trkpt>
      <trkpt lat="46.46992" lon="5.71829">
        <ele>562.6</ele>
        <time>2022-07-29T16:05:52Z</time>
      </trkpt>
      <trkpt lat="46.46998" lon="5.71841">
        <ele>562.6</ele>
        <time>2022-07-29T16:05:53Z</time>
      </trkpt>
      <trkpt lat="46.47002" lon="5.71847">
        <ele>562.6</ele>
        <time>2022-07-29T16:05:54Z</time>
      </trkpt>
      <trkpt lat="46.47005" lon="5.71853">
        <ele>562.6</ele>
        <time>2022-07-29T16:05:55Z</time>
      </trkpt>
      <trkpt lat="46.47008" lon="5.71859">
        <ele>562.6</ele>
        <time>2022-07-29T16:05:56Z</time>
      </trkpt>
      <trkpt lat="46.47011" lon="5.71865">
        <ele>562.8</ele>
        <time>2022-07-29T16:05:57Z</time>
      </trkpt>
      <trkpt lat="46.47015" lon="5.71871">
        <ele>562.8</ele>
        <time>2022-07-29T16:05:58Z</time>
      </trkpt>
      <trkpt lat="46.47018" lon="5.71877">
        <ele>562.8</ele>
        <time>2022-07-29T16:05:59Z</time>
      </trkpt>
      <trkpt lat="46.47021" lon="5.71883">
        <ele>562.8</ele>
        <time>2022-07-29T16:06:00Z</time>
      </trkpt>
      <trkpt lat="46.47024" lon="5.71888">
        <ele>563</ele>
        <time>2022-07-29T16:06:01Z</time>
      </trkpt>
      <trkpt lat="46.47027" lon="5.71894">
        <ele>563</ele>
        <time>2022-07-29T16:06:02Z</time>
      </trkpt>
      <trkpt lat="46.4703" lon="5.71899">
        <ele>563</ele>
        <time>2022-07-29T16:06:03Z</time>
      </trkpt>
      <trkpt lat="46.47034" lon="5.71904">
        <ele>563.4</ele>
        <time>2022-07-29T16:06:04Z</time>
      </trkpt>
      <trkpt lat="46.47037" lon="5.71909">
        <ele>563.4</ele>
        <time>2022-07-29T16:06:05Z</time>
      </trkpt>
      <trkpt lat="46.47039" lon="5.71913">
        <ele>563.6</ele>
        <time>2022-07-29T16:06:06Z</time>
      </trkpt>
      <trkpt lat="46.47042" lon="5.71918">
        <ele>563.6</ele>
        <time>2022-07-29T16:06:07Z</time>
      </trkpt>
      <trkpt lat="46.47045" lon="5.71922">
        <ele>564</ele>
        <time>2022-07-29T16:06:08Z</time>
      </trkpt>
      <trkpt lat="46.47048" lon="5.71926">
        <ele>564</ele>
        <time>2022-07-29T16:06:09Z</time>
      </trkpt>
      <trkpt lat="46.47051" lon="5.7193">
        <ele>564.4</ele>
        <time>2022-07-29T16:06:10Z</time>
      </trkpt>
      <trkpt lat="46.47054" lon="5.71934">
        <ele>564.4</ele>
        <time>2022-07-29T16:06:11Z</time>
      </trkpt>
      <trkpt lat="46.47057" lon="5.71937">
        <ele>564.6</ele>
        <time>2022-07-29T16:06:12Z</time>
      </trkpt>
      <trkpt lat="46.4706" lon="5.71941">
        <ele>564.6</ele>
        <time>2022-07-29T16:06:13Z</time>
      </trkpt>
      <trkpt lat="46.47063" lon="5.71944">
        <ele>565</ele>
        <time>2022-07-29T16:06:14Z</time>
      </trkpt>
      <trkpt lat="46.47067" lon="5.71947">
        <ele>565</ele>
        <time>2022-07-29T16:06:15Z</time>
      </trkpt>
      <trkpt lat="46.47067" lon="5.71947">
        <ele>565.2</ele>
        <time>2022-07-29T16:06:16Z</time>
      </trkpt>
      <trkpt lat="46.4707" lon="5.7195">
        <ele>565.2</ele>
        <time>2022-07-29T16:06:17Z</time>
      </trkpt>
      <trkpt lat="46.47074" lon="5.71953">
        <ele>565.6</ele>
        <time>2022-07-29T16:06:18Z</time>
      </trkpt>
      <trkpt lat="46.47077" lon="5.71955">
        <ele>565.6</ele>
        <time>2022-07-29T16:06:19Z</time>
      </trkpt>
      <trkpt lat="46.47081" lon="5.71958">
        <ele>565.6</ele>
        <time>2022-07-29T16:06:20Z</time>
      </trkpt>
      <trkpt lat="46.47084" lon="5.7196">
        <ele>565.8</ele>
        <time>2022-07-29T16:06:21Z</time>
      </trkpt>
      <trkpt lat="46.47087" lon="5.71962">
        <ele>565.8</ele>
        <time>2022-07-29T16:06:22Z</time>
      </trkpt>
      <trkpt lat="46.47091" lon="5.71964">
        <ele>566.2</ele>
        <time>2022-07-29T16:06:23Z</time>
      </trkpt>
      <trkpt lat="46.47094" lon="5.71967">
        <ele>566.4</ele>
        <time>2022-07-29T16:06:24Z</time>
      </trkpt>
      <trkpt lat="46.47097" lon="5.71969">
        <ele>566.4</ele>
        <time>2022-07-29T16:06:25Z</time>
      </trkpt>
      <trkpt lat="46.47099" lon="5.71971">
        <ele>566.6</ele>
        <time>2022-07-29T16:06:26Z</time>
      </trkpt>
      <trkpt lat="46.47102" lon="5.71973">
        <ele>566.6</ele>
        <time>2022-07-29T16:06:27Z</time>
      </trkpt>
      <trkpt lat="46.47105" lon="5.71976">
        <ele>566.8</ele>
        <time>2022-07-29T16:06:28Z</time>
      </trkpt>
      <trkpt lat="46.47107" lon="5.7198">
        <ele>566.8</ele>
        <time>2022-07-29T16:06:29Z</time>
      </trkpt>
      <trkpt lat="46.47109" lon="5.71984">
        <ele>567</ele>
        <time>2022-07-29T16:06:30Z</time>
      </trkpt>
      <trkpt lat="46.4711" lon="5.71988">
        <ele>567</ele>
        <time>2022-07-29T16:06:31Z</time>
      </trkpt>
      <trkpt lat="46.4711" lon="5.71993">
        <ele>567.2</ele>
        <time>2022-07-29T16:06:32Z</time>
      </trkpt>
      <trkpt lat="46.47109" lon="5.71997">
        <ele>567.2</ele>
        <time>2022-07-29T16:06:33Z</time>
      </trkpt>
      <trkpt lat="46.47108" lon="5.72002">
        <ele>567.4</ele>
        <time>2022-07-29T16:06:34Z</time>
      </trkpt>
      <trkpt lat="46.47107" lon="5.72006">
        <ele>567.4</ele>
        <time>2022-07-29T16:06:35Z</time>
      </trkpt>
      <trkpt lat="46.47106" lon="5.7201">
        <ele>567.4</ele>
        <time>2022-07-29T16:06:36Z</time>
      </trkpt>
      <trkpt lat="46.47105" lon="5.72014">
        <ele>567.8</ele>
        <time>2022-07-29T16:06:37Z</time>
      </trkpt>
      <trkpt lat="46.47104" lon="5.72018">
        <ele>567.8</ele>
        <time>2022-07-29T16:06:38Z</time>
      </trkpt>
      <trkpt lat="46.47105" lon="5.72023">
        <ele>568</ele>
        <time>2022-07-29T16:06:39Z</time>
      </trkpt>
      <trkpt lat="46.47106" lon="5.72029">
        <ele>568</ele>
        <time>2022-07-29T16:06:40Z</time>
      </trkpt>
      <trkpt lat="46.47108" lon="5.72034">
        <ele>568</ele>
        <time>2022-07-29T16:06:41Z</time>
      </trkpt>
      <trkpt lat="46.47111" lon="5.72038">
        <ele>568</ele>
        <time>2022-07-29T16:06:42Z</time>
      </trkpt>
      <trkpt lat="46.47114" lon="5.72042">
        <ele>568</ele>
        <time>2022-07-29T16:06:43Z</time>
      </trkpt>
      <trkpt lat="46.47118" lon="5.72045">
        <ele>568</ele>
        <time>2022-07-29T16:06:44Z</time>
      </trkpt>
      <trkpt lat="46.47123" lon="5.72048">
        <ele>568</ele>
        <time>2022-07-29T16:06:45Z</time>
      </trkpt>
      <trkpt lat="46.47127" lon="5.72051">
        <ele>568</ele>
        <time>2022-07-29T16:06:46Z</time>
      </trkpt>
      <trkpt lat="46.47132" lon="5.72054">
        <ele>568</ele>
        <time>2022-07-29T16:06:47Z</time>
      </trkpt>
      <trkpt lat="46.47136" lon="5.72058">
        <ele>568</ele>
        <time>2022-07-29T16:06:48Z</time>
      </trkpt>
      <trkpt lat="46.47141" lon="5.72061">
        <ele>568</ele>
        <time>2022-07-29T16:06:49Z</time>
      </trkpt>
      <trkpt lat="46.47146" lon="5.72065">
        <ele>568</ele>
        <time>2022-07-29T16:06:50Z</time>
      </trkpt>
      <trkpt lat="46.4715" lon="5.72068">
        <ele>568</ele>
        <time>2022-07-29T16:06:51Z</time>
      </trkpt>
      <trkpt lat="46.47155" lon="5.72071">
        <ele>568.2</ele>
        <time>2022-07-29T16:06:52Z</time>
      </trkpt>
      <trkpt lat="46.4716" lon="5.72074">
        <ele>568.2</ele>
        <time>2022-07-29T16:06:53Z</time>
      </trkpt>
      <trkpt lat="46.47165" lon="5.72078">
        <ele>568.2</ele>
        <time>2022-07-29T16:06:54Z</time>
      </trkpt>
      <trkpt lat="46.4717" lon="5.72082">
        <ele>568.2</ele>
        <time>2022-07-29T16:06:55Z</time>
      </trkpt>
      <trkpt lat="46.47175" lon="5.72085">
        <ele>568.2</ele>
        <time>2022-07-29T16:06:56Z</time>
      </trkpt>
      <trkpt lat="46.4718" lon="5.72089">
        <ele>568</ele>
        <time>2022-07-29T16:06:57Z</time>
      </trkpt>
      <trkpt lat="46.47185" lon="5.72093">
        <ele>568</ele>
        <time>2022-07-29T16:06:58Z</time>
      </trkpt>
      <trkpt lat="46.4719" lon="5.72097">
        <ele>568</ele>
        <time>2022-07-29T16:06:59Z</time>
      </trkpt>
      <trkpt lat="46.47195" lon="5.72101">
        <ele>568</ele>
        <time>2022-07-29T16:07:00Z</time>
      </trkpt>
      <trkpt lat="46.47201" lon="5.72105">
        <ele>568</ele>
        <time>2022-07-29T16:07:01Z</time>
      </trkpt>
      <trkpt lat="46.47206" lon="5.72109">
        <ele>568</ele>
        <time>2022-07-29T16:07:02Z</time>
      </trkpt>
      <trkpt lat="46.47211" lon="5.72114">
        <ele>568</ele>
        <time>2022-07-29T16:07:03Z</time>
      </trkpt>
      <trkpt lat="46.47217" lon="5.72118">
        <ele>568</ele>
        <time>2022-07-29T16:07:04Z</time>
      </trkpt>
      <trkpt lat="46.47222" lon="5.72123">
        <ele>567.8</ele>
        <time>2022-07-29T16:07:05Z</time>
      </trkpt>
      <trkpt lat="46.47228" lon="5.72127">
        <ele>567.8</ele>
        <time>2022-07-29T16:07:06Z</time>
      </trkpt>
      <trkpt lat="46.47233" lon="5.72133">
        <ele>567.4</ele>
        <time>2022-07-29T16:07:07Z</time>
      </trkpt>
      <trkpt lat="46.47239" lon="5.72138">
        <ele>567.4</ele>
        <time>2022-07-29T16:07:08Z</time>
      </trkpt>
      <trkpt lat="46.47244" lon="5.72144">
        <ele>567.4</ele>
        <time>2022-07-29T16:07:09Z</time>
      </trkpt>
      <trkpt lat="46.4725" lon="5.7215">
        <ele>567</ele>
        <time>2022-07-29T16:07:10Z</time>
      </trkpt>
      <trkpt lat="46.47255" lon="5.72156">
        <ele>567</ele>
        <time>2022-07-29T16:07:11Z</time>
      </trkpt>
      <trkpt lat="46.47261" lon="5.72163">
        <ele>567</ele>
        <time>2022-07-29T16:07:12Z</time>
      </trkpt>
      <trkpt lat="46.47266" lon="5.7217">
        <ele>567</ele>
        <time>2022-07-29T16:07:13Z</time>
      </trkpt>
      <trkpt lat="46.47272" lon="5.72178">
        <ele>566.8</ele>
        <time>2022-07-29T16:07:14Z</time>
      </trkpt>
      <trkpt lat="46.47277" lon="5.72185">
        <ele>566.8</ele>
        <time>2022-07-29T16:07:15Z</time>
      </trkpt>
      <trkpt lat="46.47283" lon="5.72193">
        <ele>566.8</ele>
        <time>2022-07-29T16:07:16Z</time>
      </trkpt>
      <trkpt lat="46.47288" lon="5.72202">
        <ele>566.8</ele>
        <time>2022-07-29T16:07:17Z</time>
      </trkpt>
      <trkpt lat="46.47294" lon="5.7221">
        <ele>566.4</ele>
        <time>2022-07-29T16:07:18Z</time>
      </trkpt>
      <trkpt lat="46.47299" lon="5.72218">
        <ele>566.4</ele>
        <time>2022-07-29T16:07:19Z</time>
      </trkpt>
      <trkpt lat="46.47304" lon="5.72227">
        <ele>566.2</ele>
        <time>2022-07-29T16:07:20Z</time>
      </trkpt>
      <trkpt lat="46.47309" lon="5.72236">
        <ele>566.2</ele>
        <time>2022-07-29T16:07:21Z</time>
      </trkpt>
      <trkpt lat="46.47315" lon="5.72244">
        <ele>565.8</ele>
        <time>2022-07-29T16:07:22Z</time>
      </trkpt>
      <trkpt lat="46.4732" lon="5.72252">
        <ele>565.8</ele>
        <time>2022-07-29T16:07:23Z</time>
      </trkpt>
      <trkpt lat="46.47326" lon="5.7226">
        <ele>565.6</ele>
        <time>2022-07-29T16:07:24Z</time>
      </trkpt>
      <trkpt lat="46.47331" lon="5.72268">
        <ele>565.6</ele>
        <time>2022-07-29T16:07:25Z</time>
      </trkpt>
      <trkpt lat="46.47337" lon="5.72276">
        <ele>565.4</ele>
        <time>2022-07-29T16:07:26Z</time>
      </trkpt>
      <trkpt lat="46.47343" lon="5.72283">
        <ele>565.4</ele>
        <time>2022-07-29T16:07:27Z</time>
      </trkpt>
      <trkpt lat="46.47349" lon="5.7229">
        <ele>565.4</ele>
        <time>2022-07-29T16:07:28Z</time>
      </trkpt>
      <trkpt lat="46.47355" lon="5.72297">
        <ele>565.4</ele>
        <time>2022-07-29T16:07:29Z</time>
      </trkpt>
      <trkpt lat="46.47361" lon="5.72303">
        <ele>565.4</ele>
        <time>2022-07-29T16:07:30Z</time>
      </trkpt>
      <trkpt lat="46.47368" lon="5.72308">
        <ele>565.4</ele>
        <time>2022-07-29T16:07:31Z</time>
      </trkpt>
      <trkpt lat="46.47374" lon="5.72314">
        <ele>565.4</ele>
        <time>2022-07-29T16:07:32Z</time>
      </trkpt>
      <trkpt lat="46.47381" lon="5.72319">
        <ele>565.4</ele>
        <time>2022-07-29T16:07:33Z</time>
      </trkpt>
      <trkpt lat="46.47387" lon="5.72324">
        <ele>565.4</ele>
        <time>2022-07-29T16:07:34Z</time>
      </trkpt>
      <trkpt lat="46.47393" lon="5.72328">
        <ele>565.4</ele>
        <time>2022-07-29T16:07:35Z</time>
      </trkpt>
      <trkpt lat="46.47399" lon="5.72331">
        <ele>565.4</ele>
        <time>2022-07-29T16:07:36Z</time>
      </trkpt>
      <trkpt lat="46.47406" lon="5.72335">
        <ele>565.8</ele>
        <time>2022-07-29T16:07:37Z</time>
      </trkpt>
      <trkpt lat="46.47412" lon="5.72337">
        <ele>565.8</ele>
        <time>2022-07-29T16:07:38Z</time>
      </trkpt>
      <trkpt lat="46.47417" lon="5.7234">
        <ele>565.8</ele>
        <time>2022-07-29T16:07:39Z</time>
      </trkpt>
      <trkpt lat="46.47423" lon="5.72342">
        <ele>566</ele>
        <time>2022-07-29T16:07:40Z</time>
      </trkpt>
      <trkpt lat="46.47429" lon="5.72344">
        <ele>566</ele>
        <time>2022-07-29T16:07:41Z</time>
      </trkpt>
      <trkpt lat="46.47434" lon="5.72346">
        <ele>566.4</ele>
        <time>2022-07-29T16:07:42Z</time>
      </trkpt>
      <trkpt lat="46.4744" lon="5.72348">
        <ele>566.4</ele>
        <time>2022-07-29T16:07:43Z</time>
      </trkpt>
      <trkpt lat="46.47445" lon="5.7235">
        <ele>566.4</ele>
        <time>2022-07-29T16:07:44Z</time>
      </trkpt>
      <trkpt lat="46.47451" lon="5.72352">
        <ele>566.8</ele>
        <time>2022-07-29T16:07:45Z</time>
      </trkpt>
      <trkpt lat="46.47456" lon="5.72353">
        <ele>566.8</ele>
        <time>2022-07-29T16:07:46Z</time>
      </trkpt>
      <trkpt lat="46.47461" lon="5.72355">
        <ele>567.2</ele>
        <time>2022-07-29T16:07:47Z</time>
      </trkpt>
      <trkpt lat="46.47466" lon="5.72356">
        <ele>567.2</ele>
        <time>2022-07-29T16:07:48Z</time>
      </trkpt>
      <trkpt lat="46.47471" lon="5.72358">
        <ele>567.4</ele>
        <time>2022-07-29T16:07:49Z</time>
      </trkpt>
      <trkpt lat="46.47476" lon="5.72359">
        <ele>567.4</ele>
        <time>2022-07-29T16:07:50Z</time>
      </trkpt>
      <trkpt lat="46.47481" lon="5.72361">
        <ele>567.6</ele>
        <time>2022-07-29T16:07:51Z</time>
      </trkpt>
      <trkpt lat="46.47486" lon="5.72362">
        <ele>567.6</ele>
        <time>2022-07-29T16:07:52Z</time>
      </trkpt>
      <trkpt lat="46.47491" lon="5.72364">
        <ele>568</ele>
        <time>2022-07-29T16:07:53Z</time>
      </trkpt>
      <trkpt lat="46.47496" lon="5.72365">
        <ele>568</ele>
        <time>2022-07-29T16:07:54Z</time>
      </trkpt>
      <trkpt lat="46.47501" lon="5.72366">
        <ele>568.2</ele>
        <time>2022-07-29T16:07:55Z</time>
      </trkpt>
      <trkpt lat="46.47506" lon="5.72368">
        <ele>568.2</ele>
        <time>2022-07-29T16:07:56Z</time>
      </trkpt>
      <trkpt lat="46.4751" lon="5.7237">
        <ele>568.6</ele>
        <time>2022-07-29T16:07:57Z</time>
      </trkpt>
      <trkpt lat="46.47515" lon="5.72371">
        <ele>568.6</ele>
        <time>2022-07-29T16:07:58Z</time>
      </trkpt>
      <trkpt lat="46.4752" lon="5.72373">
        <ele>569</ele>
        <time>2022-07-29T16:07:59Z</time>
      </trkpt>
      <trkpt lat="46.47524" lon="5.72374">
        <ele>569</ele>
        <time>2022-07-29T16:08:00Z</time>
      </trkpt>
      <trkpt lat="46.47529" lon="5.72375">
        <ele>569</ele>
        <time>2022-07-29T16:08:01Z</time>
      </trkpt>
      <trkpt lat="46.47533" lon="5.72377">
        <ele>569</ele>
        <time>2022-07-29T16:08:02Z</time>
      </trkpt>
      <trkpt lat="46.47537" lon="5.72378">
        <ele>569.2</ele>
        <time>2022-07-29T16:08:03Z</time>
      </trkpt>
      <trkpt lat="46.47542" lon="5.72379">
        <ele>569.2</ele>
        <time>2022-07-29T16:08:04Z</time>
      </trkpt>
      <trkpt lat="46.47546" lon="5.72381">
        <ele>569.4</ele>
        <time>2022-07-29T16:08:05Z</time>
      </trkpt>
      <trkpt lat="46.4755" lon="5.72382">
        <ele>569.4</ele>
        <time>2022-07-29T16:08:06Z</time>
      </trkpt>
      <trkpt lat="46.47554" lon="5.72384">
        <ele>569.8</ele>
        <time>2022-07-29T16:08:07Z</time>
      </trkpt>
      <trkpt lat="46.47558" lon="5.72385">
        <ele>569.8</ele>
        <time>2022-07-29T16:08:08Z</time>
      </trkpt>
      <trkpt lat="46.47562" lon="5.72386">
        <ele>570</ele>
        <time>2022-07-29T16:08:09Z</time>
      </trkpt>
      <trkpt lat="46.47566" lon="5.72388">
        <ele>570</ele>
        <time>2022-07-29T16:08:10Z</time>
      </trkpt>
      <trkpt lat="46.4757" lon="5.72389">
        <ele>570.4</ele>
        <time>2022-07-29T16:08:11Z</time>
      </trkpt>
      <trkpt lat="46.47574" lon="5.7239">
        <ele>570.4</ele>
        <time>2022-07-29T16:08:12Z</time>
      </trkpt>
      <trkpt lat="46.47578" lon="5.72392">
        <ele>570.4</ele>
        <time>2022-07-29T16:08:13Z</time>
      </trkpt>
      <trkpt lat="46.47582" lon="5.72393">
        <ele>570.6</ele>
        <time>2022-07-29T16:08:14Z</time>
      </trkpt>
      <trkpt lat="46.47586" lon="5.72394">
        <ele>570.6</ele>
        <time>2022-07-29T16:08:15Z</time>
      </trkpt>
      <trkpt lat="46.47591" lon="5.72395">
        <ele>571</ele>
        <time>2022-07-29T16:08:16Z</time>
      </trkpt>
      <trkpt lat="46.47595" lon="5.72397">
        <ele>571</ele>
        <time>2022-07-29T16:08:17Z</time>
      </trkpt>
      <trkpt lat="46.47599" lon="5.72398">
        <ele>571</ele>
        <time>2022-07-29T16:08:18Z</time>
      </trkpt>
      <trkpt lat="46.47603" lon="5.72399">
        <ele>571</ele>
        <time>2022-07-29T16:08:19Z</time>
      </trkpt>
      <trkpt lat="46.47608" lon="5.72401">
        <ele>571.2</ele>
        <time>2022-07-29T16:08:20Z</time>
      </trkpt>
      <trkpt lat="46.47612" lon="5.72402">
        <ele>571.2</ele>
        <time>2022-07-29T16:08:21Z</time>
      </trkpt>
      <trkpt lat="46.47616" lon="5.72403">
        <ele>571.2</ele>
        <time>2022-07-29T16:08:22Z</time>
      </trkpt>
      <trkpt lat="46.47621" lon="5.72405">
        <ele>571.4</ele>
        <time>2022-07-29T16:08:23Z</time>
      </trkpt>
      <trkpt lat="46.47625" lon="5.72407">
        <ele>571.4</ele>
        <time>2022-07-29T16:08:24Z</time>
      </trkpt>
      <trkpt lat="46.47629" lon="5.72408">
        <ele>571.4</ele>
        <time>2022-07-29T16:08:25Z</time>
      </trkpt>
      <trkpt lat="46.47634" lon="5.7241">
        <ele>571.4</ele>
        <time>2022-07-29T16:08:26Z</time>
      </trkpt>
      <trkpt lat="46.47638" lon="5.72411">
        <ele>571.6</ele>
        <time>2022-07-29T16:08:27Z</time>
      </trkpt>
      <trkpt lat="46.47643" lon="5.72413">
        <ele>571.6</ele>
        <time>2022-07-29T16:08:28Z</time>
      </trkpt>
      <trkpt lat="46.47648" lon="5.72414">
        <ele>571.6</ele>
        <time>2022-07-29T16:08:29Z</time>
      </trkpt>
      <trkpt lat="46.47652" lon="5.72416">
        <ele>571.6</ele>
        <time>2022-07-29T16:08:30Z</time>
      </trkpt>
      <trkpt lat="46.47657" lon="5.72417">
        <ele>571.8</ele>
        <time>2022-07-29T16:08:31Z</time>
      </trkpt>
      <trkpt lat="46.47662" lon="5.72419">
        <ele>571.8</ele>
        <time>2022-07-29T16:08:32Z</time>
      </trkpt>
      <trkpt lat="46.47667" lon="5.7242">
        <ele>571.8</ele>
        <time>2022-07-29T16:08:33Z</time>
      </trkpt>
      <trkpt lat="46.47671" lon="5.72422">
        <ele>571.8</ele>
        <time>2022-07-29T16:08:34Z</time>
      </trkpt>
      <trkpt lat="46.47676" lon="5.72424">
        <ele>571.8</ele>
        <time>2022-07-29T16:08:35Z</time>
      </trkpt>
      <trkpt lat="46.47681" lon="5.72425">
        <ele>571.8</ele>
        <time>2022-07-29T16:08:36Z</time>
      </trkpt>
      <trkpt lat="46.47686" lon="5.72427">
        <ele>572.2</ele>
        <time>2022-07-29T16:08:37Z</time>
      </trkpt>
      <trkpt lat="46.47691" lon="5.72428">
        <ele>572.2</ele>
        <time>2022-07-29T16:08:38Z</time>
      </trkpt>
      <trkpt lat="46.47696" lon="5.7243">
        <ele>572.2</ele>
        <time>2022-07-29T16:08:39Z</time>
      </trkpt>
      <trkpt lat="46.47701" lon="5.72432">
        <ele>571.8</ele>
        <time>2022-07-29T16:08:40Z</time>
      </trkpt>
      <trkpt lat="46.47706" lon="5.72433">
        <ele>571.8</ele>
        <time>2022-07-29T16:08:41Z</time>
      </trkpt>
      <trkpt lat="46.47711" lon="5.72435">
        <ele>571.8</ele>
        <time>2022-07-29T16:08:42Z</time>
      </trkpt>
      <trkpt lat="46.47717" lon="5.72437">
        <ele>571.8</ele>
        <time>2022-07-29T16:08:43Z</time>
      </trkpt>
      <trkpt lat="46.47722" lon="5.72438">
        <ele>571.8</ele>
        <time>2022-07-29T16:08:44Z</time>
      </trkpt>
      <trkpt lat="46.47728" lon="5.7244">
        <ele>571.8</ele>
        <time>2022-07-29T16:08:45Z</time>
      </trkpt>
      <trkpt lat="46.47733" lon="5.72442">
        <ele>571.8</ele>
        <time>2022-07-29T16:08:46Z</time>
      </trkpt>
      <trkpt lat="46.47739" lon="5.72444">
        <ele>572.2</ele>
        <time>2022-07-29T16:08:47Z</time>
      </trkpt>
      <trkpt lat="46.47744" lon="5.72445">
        <ele>572.2</ele>
        <time>2022-07-29T16:08:48Z</time>
      </trkpt>
      <trkpt lat="46.4775" lon="5.72447">
        <ele>572.2</ele>
        <time>2022-07-29T16:08:49Z</time>
      </trkpt>
      <trkpt lat="46.47756" lon="5.72449">
        <ele>572.2</ele>
        <time>2022-07-29T16:08:50Z</time>
      </trkpt>
      <trkpt lat="46.47762" lon="5.72451">
        <ele>572.2</ele>
        <time>2022-07-29T16:08:51Z</time>
      </trkpt>
      <trkpt lat="46.47768" lon="5.72453">
        <ele>572.2</ele>
        <time>2022-07-29T16:08:52Z</time>
      </trkpt>
      <trkpt lat="46.47774" lon="5.72455">
        <ele>572.2</ele>
        <time>2022-07-29T16:08:53Z</time>
      </trkpt>
      <trkpt lat="46.4778" lon="5.72457">
        <ele>572.2</ele>
        <time>2022-07-29T16:08:54Z</time>
      </trkpt>
      <trkpt lat="46.47786" lon="5.7246">
        <ele>571.8</ele>
        <time>2022-07-29T16:08:55Z</time>
      </trkpt>
      <trkpt lat="46.47792" lon="5.72462">
        <ele>571.8</ele>
        <time>2022-07-29T16:08:56Z</time>
      </trkpt>
      <trkpt lat="46.47798" lon="5.72464">
        <ele>571.8</ele>
        <time>2022-07-29T16:08:57Z</time>
      </trkpt>
      <trkpt lat="46.47804" lon="5.72466">
        <ele>571.8</ele>
        <time>2022-07-29T16:08:58Z</time>
      </trkpt>
      <trkpt lat="46.4781" lon="5.72468">
        <ele>571.8</ele>
        <time>2022-07-29T16:08:59Z</time>
      </trkpt>
      <trkpt lat="46.47817" lon="5.7247">
        <ele>571.8</ele>
        <time>2022-07-29T16:09:00Z</time>
      </trkpt>
      <trkpt lat="46.47823" lon="5.72472">
        <ele>571.8</ele>
        <time>2022-07-29T16:09:01Z</time>
      </trkpt>
      <trkpt lat="46.47829" lon="5.72474">
        <ele>571.8</ele>
        <time>2022-07-29T16:09:02Z</time>
      </trkpt>
      <trkpt lat="46.47835" lon="5.72476">
        <ele>571.8</ele>
        <time>2022-07-29T16:09:03Z</time>
      </trkpt>
      <trkpt lat="46.47841" lon="5.72478">
        <ele>571.8</ele>
        <time>2022-07-29T16:09:04Z</time>
      </trkpt>
      <trkpt lat="46.47848" lon="5.7248">
        <ele>571.8</ele>
        <time>2022-07-29T16:09:05Z</time>
      </trkpt>
      <trkpt lat="46.47854" lon="5.72482">
        <ele>571.6</ele>
        <time>2022-07-29T16:09:06Z</time>
      </trkpt>
      <trkpt lat="46.4786" lon="5.72484">
        <ele>571.6</ele>
        <time>2022-07-29T16:09:07Z</time>
      </trkpt>
      <trkpt lat="46.47866" lon="5.72486">
        <ele>571.6</ele>
        <time>2022-07-29T16:09:08Z</time>
      </trkpt>
      <trkpt lat="46.47872" lon="5.72488">
        <ele>571.6</ele>
        <time>2022-07-29T16:09:09Z</time>
      </trkpt>
      <trkpt lat="46.47878" lon="5.7249">
        <ele>571.6</ele>
        <time>2022-07-29T16:09:10Z</time>
      </trkpt>
      <trkpt lat="46.47885" lon="5.72492">
        <ele>571.6</ele>
        <time>2022-07-29T16:09:11Z</time>
      </trkpt>
      <trkpt lat="46.47891" lon="5.72494">
        <ele>571.6</ele>
        <time>2022-07-29T16:09:12Z</time>
      </trkpt>
      <trkpt lat="46.47897" lon="5.72496">
        <ele>571.6</ele>
        <time>2022-07-29T16:09:13Z</time>
      </trkpt>
      <trkpt lat="46.47903" lon="5.72498">
        <ele>571.6</ele>
        <time>2022-07-29T16:09:14Z</time>
      </trkpt>
      <trkpt lat="46.47909" lon="5.725">
        <ele>571.6</ele>
        <time>2022-07-29T16:09:15Z</time>
      </trkpt>
      <trkpt lat="46.47922" lon="5.72504">
        <ele>571.6</ele>
        <time>2022-07-29T16:09:16Z</time>
      </trkpt>
      <trkpt lat="46.47928" lon="5.72505">
        <ele>571.6</ele>
        <time>2022-07-29T16:09:17Z</time>
      </trkpt>
      <trkpt lat="46.47934" lon="5.72506">
        <ele>571.6</ele>
        <time>2022-07-29T16:09:18Z</time>
      </trkpt>
      <trkpt lat="46.4794" lon="5.72507">
        <ele>571.6</ele>
        <time>2022-07-29T16:09:19Z</time>
      </trkpt>
      <trkpt lat="46.47947" lon="5.72508">
        <ele>571.4</ele>
        <time>2022-07-29T16:09:20Z</time>
      </trkpt>
      <trkpt lat="46.47953" lon="5.72509">
        <ele>571.4</ele>
        <time>2022-07-29T16:09:21Z</time>
      </trkpt>
      <trkpt lat="46.47959" lon="5.7251">
        <ele>571.4</ele>
        <time>2022-07-29T16:09:22Z</time>
      </trkpt>
      <trkpt lat="46.47966" lon="5.72511">
        <ele>571.2</ele>
        <time>2022-07-29T16:09:23Z</time>
      </trkpt>
      <trkpt lat="46.47972" lon="5.72511">
        <ele>571.2</ele>
        <time>2022-07-29T16:09:24Z</time>
      </trkpt>
      <trkpt lat="46.47978" lon="5.72511">
        <ele>570.8</ele>
        <time>2022-07-29T16:09:25Z</time>
      </trkpt>
      <trkpt lat="46.47984" lon="5.72511">
        <ele>570.8</ele>
        <time>2022-07-29T16:09:26Z</time>
      </trkpt>
      <trkpt lat="46.47991" lon="5.7251">
        <ele>570.8</ele>
        <time>2022-07-29T16:09:27Z</time>
      </trkpt>
      <trkpt lat="46.47997" lon="5.7251">
        <ele>570.8</ele>
        <time>2022-07-29T16:09:28Z</time>
      </trkpt>
      <trkpt lat="46.48004" lon="5.72509">
        <ele>570.6</ele>
        <time>2022-07-29T16:09:29Z</time>
      </trkpt>
      <trkpt lat="46.4801" lon="5.72508">
        <ele>570.6</ele>
        <time>2022-07-29T16:09:30Z</time>
      </trkpt>
      <trkpt lat="46.48017" lon="5.72507">
        <ele>570.6</ele>
        <time>2022-07-29T16:09:31Z</time>
      </trkpt>
      <trkpt lat="46.48023" lon="5.72505">
        <ele>570.6</ele>
        <time>2022-07-29T16:09:32Z</time>
      </trkpt>
      <trkpt lat="46.4803" lon="5.72504">
        <ele>570.6</ele>
        <time>2022-07-29T16:09:33Z</time>
      </trkpt>
      <trkpt lat="46.48036" lon="5.72502">
        <ele>570.6</ele>
        <time>2022-07-29T16:09:34Z</time>
      </trkpt>
      <trkpt lat="46.48043" lon="5.725">
        <ele>570.6</ele>
        <time>2022-07-29T16:09:35Z</time>
      </trkpt>
      <trkpt lat="46.48049" lon="5.72498">
        <ele>570.6</ele>
        <time>2022-07-29T16:09:36Z</time>
      </trkpt>
      <trkpt lat="46.48056" lon="5.72495">
        <ele>570.6</ele>
        <time>2022-07-29T16:09:37Z</time>
      </trkpt>
      <trkpt lat="46.48062" lon="5.72493">
        <ele>570.6</ele>
        <time>2022-07-29T16:09:38Z</time>
      </trkpt>
      <trkpt lat="46.48068" lon="5.7249">
        <ele>570.6</ele>
        <time>2022-07-29T16:09:39Z</time>
      </trkpt>
      <trkpt lat="46.48075" lon="5.72487">
        <ele>570.6</ele>
        <time>2022-07-29T16:09:40Z</time>
      </trkpt>
      <trkpt lat="46.48081" lon="5.72484">
        <ele>570.4</ele>
        <time>2022-07-29T16:09:41Z</time>
      </trkpt>
      <trkpt lat="46.48087" lon="5.7248">
        <ele>570.4</ele>
        <time>2022-07-29T16:09:42Z</time>
      </trkpt>
      <trkpt lat="46.48093" lon="5.72477">
        <ele>570.4</ele>
        <time>2022-07-29T16:09:43Z</time>
      </trkpt>
      <trkpt lat="46.48099" lon="5.72473">
        <ele>570.4</ele>
        <time>2022-07-29T16:09:44Z</time>
      </trkpt>
      <trkpt lat="46.48105" lon="5.72469">
        <ele>570.4</ele>
        <time>2022-07-29T16:09:45Z</time>
      </trkpt>
      <trkpt lat="46.48111" lon="5.72466">
        <ele>570.4</ele>
        <time>2022-07-29T16:09:46Z</time>
      </trkpt>
      <trkpt lat="46.48117" lon="5.72462">
        <ele>570.4</ele>
        <time>2022-07-29T16:09:47Z</time>
      </trkpt>
      <trkpt lat="46.48123" lon="5.72458">
        <ele>570.6</ele>
        <time>2022-07-29T16:09:48Z</time>
      </trkpt>
      <trkpt lat="46.48129" lon="5.72454">
        <ele>570.6</ele>
        <time>2022-07-29T16:09:49Z</time>
      </trkpt>
      <trkpt lat="46.48135" lon="5.72451">
        <ele>570.6</ele>
        <time>2022-07-29T16:09:50Z</time>
      </trkpt>
      <trkpt lat="46.48141" lon="5.72447">
        <ele>570.6</ele>
        <time>2022-07-29T16:09:51Z</time>
      </trkpt>
      <trkpt lat="46.48146" lon="5.72443">
        <ele>570.8</ele>
        <time>2022-07-29T16:09:52Z</time>
      </trkpt>
      <trkpt lat="46.48152" lon="5.72439">
        <ele>570.8</ele>
        <time>2022-07-29T16:09:53Z</time>
      </trkpt>
      <trkpt lat="46.48158" lon="5.72435">
        <ele>570.8</ele>
        <time>2022-07-29T16:09:54Z</time>
      </trkpt>
      <trkpt lat="46.48164" lon="5.72431">
        <ele>570.8</ele>
        <time>2022-07-29T16:09:55Z</time>
      </trkpt>
      <trkpt lat="46.4817" lon="5.72427">
        <ele>570.8</ele>
        <time>2022-07-29T16:09:56Z</time>
      </trkpt>
      <trkpt lat="46.48176" lon="5.72423">
        <ele>570.8</ele>
        <time>2022-07-29T16:09:57Z</time>
      </trkpt>
      <trkpt lat="46.48181" lon="5.72419">
        <ele>570.8</ele>
        <time>2022-07-29T16:09:58Z</time>
      </trkpt>
      <trkpt lat="46.48187" lon="5.72416">
        <ele>570.8</ele>
        <time>2022-07-29T16:09:59Z</time>
      </trkpt>
      <trkpt lat="46.48193" lon="5.72413">
        <ele>570.8</ele>
        <time>2022-07-29T16:10:00Z</time>
      </trkpt>
      <trkpt lat="46.48198" lon="5.72409">
        <ele>570.8</ele>
        <time>2022-07-29T16:10:01Z</time>
      </trkpt>
      <trkpt lat="46.48204" lon="5.72406">
        <ele>571.2</ele>
        <time>2022-07-29T16:10:02Z</time>
      </trkpt>
      <trkpt lat="46.4821" lon="5.72403">
        <ele>571.2</ele>
        <time>2022-07-29T16:10:03Z</time>
      </trkpt>
      <trkpt lat="46.48215" lon="5.724">
        <ele>571.4</ele>
        <time>2022-07-29T16:10:04Z</time>
      </trkpt>
      <trkpt lat="46.4822" lon="5.72397">
        <ele>571.4</ele>
        <time>2022-07-29T16:10:05Z</time>
      </trkpt>
      <trkpt lat="46.48226" lon="5.72394">
        <ele>571.6</ele>
        <time>2022-07-29T16:10:06Z</time>
      </trkpt>
      <trkpt lat="46.48231" lon="5.72391">
        <ele>571.6</ele>
        <time>2022-07-29T16:10:07Z</time>
      </trkpt>
      <trkpt lat="46.48237" lon="5.72388">
        <ele>571.8</ele>
        <time>2022-07-29T16:10:08Z</time>
      </trkpt>
      <trkpt lat="46.48242" lon="5.72386">
        <ele>571.8</ele>
        <time>2022-07-29T16:10:09Z</time>
      </trkpt>
      <trkpt lat="46.48248" lon="5.72383">
        <ele>571.8</ele>
        <time>2022-07-29T16:10:10Z</time>
      </trkpt>
      <trkpt lat="46.48253" lon="5.7238">
        <ele>571.8</ele>
        <time>2022-07-29T16:10:11Z</time>
      </trkpt>
      <trkpt lat="46.48259" lon="5.72378">
        <ele>571.8</ele>
        <time>2022-07-29T16:10:12Z</time>
      </trkpt>
      <trkpt lat="46.48264" lon="5.72375">
        <ele>571.8</ele>
        <time>2022-07-29T16:10:13Z</time>
      </trkpt>
      <trkpt lat="46.4827" lon="5.72372">
        <ele>572.2</ele>
        <time>2022-07-29T16:10:14Z</time>
      </trkpt>
      <trkpt lat="46.48275" lon="5.72369">
        <ele>572.2</ele>
        <time>2022-07-29T16:10:15Z</time>
      </trkpt>
      <trkpt lat="46.48281" lon="5.72366">
        <ele>572.2</ele>
        <time>2022-07-29T16:10:16Z</time>
      </trkpt>
      <trkpt lat="46.48286" lon="5.72363">
        <ele>572.2</ele>
        <time>2022-07-29T16:10:17Z</time>
      </trkpt>
      <trkpt lat="46.48292" lon="5.7236">
        <ele>572.8</ele>
        <time>2022-07-29T16:10:18Z</time>
      </trkpt>
      <trkpt lat="46.48297" lon="5.72358">
        <ele>572.8</ele>
        <time>2022-07-29T16:10:19Z</time>
      </trkpt>
      <trkpt lat="46.48303" lon="5.72355">
        <ele>572.8</ele>
        <time>2022-07-29T16:10:20Z</time>
      </trkpt>
      <trkpt lat="46.48308" lon="5.72352">
        <ele>572.8</ele>
        <time>2022-07-29T16:10:21Z</time>
      </trkpt>
      <trkpt lat="46.48314" lon="5.72349">
        <ele>572.8</ele>
        <time>2022-07-29T16:10:22Z</time>
      </trkpt>
      <trkpt lat="46.4832" lon="5.72346">
        <ele>572.8</ele>
        <time>2022-07-29T16:10:23Z</time>
      </trkpt>
      <trkpt lat="46.48326" lon="5.72343">
        <ele>572.8</ele>
        <time>2022-07-29T16:10:24Z</time>
      </trkpt>
      <trkpt lat="46.48331" lon="5.7234">
        <ele>572.8</ele>
        <time>2022-07-29T16:10:25Z</time>
      </trkpt>
      <trkpt lat="46.48337" lon="5.72337">
        <ele>572.8</ele>
        <time>2022-07-29T16:10:26Z</time>
      </trkpt>
      <trkpt lat="46.48343" lon="5.72334">
        <ele>572.8</ele>
        <time>2022-07-29T16:10:27Z</time>
      </trkpt>
      <trkpt lat="46.48349" lon="5.72331">
        <ele>572.8</ele>
        <time>2022-07-29T16:10:28Z</time>
      </trkpt>
      <trkpt lat="46.48355" lon="5.72328">
        <ele>572.8</ele>
        <time>2022-07-29T16:10:29Z</time>
      </trkpt>
      <trkpt lat="46.4836" lon="5.72325">
        <ele>572.8</ele>
        <time>2022-07-29T16:10:30Z</time>
      </trkpt>
      <trkpt lat="46.48366" lon="5.72322">
        <ele>572.8</ele>
        <time>2022-07-29T16:10:31Z</time>
      </trkpt>
      <trkpt lat="46.48372" lon="5.72319">
        <ele>572.8</ele>
        <time>2022-07-29T16:10:32Z</time>
      </trkpt>
      <trkpt lat="46.48378" lon="5.72316">
        <ele>572.8</ele>
        <time>2022-07-29T16:10:33Z</time>
      </trkpt>
      <trkpt lat="46.48383" lon="5.72313">
        <ele>572.8</ele>
        <time>2022-07-29T16:10:34Z</time>
      </trkpt>
      <trkpt lat="46.48389" lon="5.7231">
        <ele>572.8</ele>
        <time>2022-07-29T16:10:35Z</time>
      </trkpt>
      <trkpt lat="46.48395" lon="5.72308">
        <ele>572.8</ele>
        <time>2022-07-29T16:10:36Z</time>
      </trkpt>
      <trkpt lat="46.484" lon="5.72305">
        <ele>572.8</ele>
        <time>2022-07-29T16:10:37Z</time>
      </trkpt>
      <trkpt lat="46.48406" lon="5.72301">
        <ele>572.8</ele>
        <time>2022-07-29T16:10:38Z</time>
      </trkpt>
      <trkpt lat="46.48412" lon="5.72298">
        <ele>572.8</ele>
        <time>2022-07-29T16:10:39Z</time>
      </trkpt>
      <trkpt lat="46.48418" lon="5.72296">
        <ele>572.8</ele>
        <time>2022-07-29T16:10:40Z</time>
      </trkpt>
      <trkpt lat="46.48424" lon="5.72293">
        <ele>572.8</ele>
        <time>2022-07-29T16:10:41Z</time>
      </trkpt>
      <trkpt lat="46.4843" lon="5.7229">
        <ele>572.8</ele>
        <time>2022-07-29T16:10:42Z</time>
      </trkpt>
      <trkpt lat="46.48436" lon="5.72287">
        <ele>573</ele>
        <time>2022-07-29T16:10:43Z</time>
      </trkpt>
      <trkpt lat="46.48442" lon="5.72285">
        <ele>573</ele>
        <time>2022-07-29T16:10:44Z</time>
      </trkpt>
      <trkpt lat="46.48448" lon="5.72282">
        <ele>573</ele>
        <time>2022-07-29T16:10:45Z</time>
      </trkpt>
      <trkpt lat="46.48454" lon="5.72279">
        <ele>573</ele>
        <time>2022-07-29T16:10:46Z</time>
      </trkpt>
      <trkpt lat="46.4846" lon="5.72277">
        <ele>573</ele>
        <time>2022-07-29T16:10:47Z</time>
      </trkpt>
      <trkpt lat="46.48466" lon="5.72274">
        <ele>573</ele>
        <time>2022-07-29T16:10:48Z</time>
      </trkpt>
      <trkpt lat="46.48472" lon="5.72272">
        <ele>573</ele>
        <time>2022-07-29T16:10:49Z</time>
      </trkpt>
      <trkpt lat="46.48479" lon="5.7227">
        <ele>573</ele>
        <time>2022-07-29T16:10:50Z</time>
      </trkpt>
      <trkpt lat="46.48485" lon="5.72269">
        <ele>573</ele>
        <time>2022-07-29T16:10:51Z</time>
      </trkpt>
      <trkpt lat="46.48491" lon="5.72267">
        <ele>573</ele>
        <time>2022-07-29T16:10:52Z</time>
      </trkpt>
      <trkpt lat="46.48498" lon="5.72266">
        <ele>573</ele>
        <time>2022-07-29T16:10:53Z</time>
      </trkpt>
      <trkpt lat="46.48504" lon="5.72265">
        <ele>573</ele>
        <time>2022-07-29T16:10:54Z</time>
      </trkpt>
      <trkpt lat="46.48511" lon="5.72264">
        <ele>573</ele>
        <time>2022-07-29T16:10:55Z</time>
      </trkpt>
      <trkpt lat="46.48518" lon="5.72263">
        <ele>573</ele>
        <time>2022-07-29T16:10:56Z</time>
      </trkpt>
      <trkpt lat="46.48524" lon="5.72263">
        <ele>573</ele>
        <time>2022-07-29T16:10:57Z</time>
      </trkpt>
      <trkpt lat="46.4853" lon="5.72262">
        <ele>573</ele>
        <time>2022-07-29T16:10:58Z</time>
      </trkpt>
      <trkpt lat="46.48537" lon="5.72262">
        <ele>573</ele>
        <time>2022-07-29T16:10:59Z</time>
      </trkpt>
      <trkpt lat="46.48543" lon="5.72262">
        <ele>573</ele>
        <time>2022-07-29T16:11:00Z</time>
      </trkpt>
      <trkpt lat="46.4855" lon="5.72262">
        <ele>573</ele>
        <time>2022-07-29T16:11:01Z</time>
      </trkpt>
      <trkpt lat="46.48556" lon="5.72262">
        <ele>573</ele>
        <time>2022-07-29T16:11:02Z</time>
      </trkpt>
      <trkpt lat="46.48563" lon="5.72263">
        <ele>573</ele>
        <time>2022-07-29T16:11:03Z</time>
      </trkpt>
      <trkpt lat="46.48569" lon="5.72264">
        <ele>573.2</ele>
        <time>2022-07-29T16:11:04Z</time>
      </trkpt>
      <trkpt lat="46.48575" lon="5.72265">
        <ele>573.2</ele>
        <time>2022-07-29T16:11:05Z</time>
      </trkpt>
      <trkpt lat="46.48581" lon="5.72266">
        <ele>573.2</ele>
        <time>2022-07-29T16:11:06Z</time>
      </trkpt>
      <trkpt lat="46.48587" lon="5.72267">
        <ele>573.2</ele>
        <time>2022-07-29T16:11:07Z</time>
      </trkpt>
      <trkpt lat="46.48593" lon="5.72268">
        <ele>573.2</ele>
        <time>2022-07-29T16:11:08Z</time>
      </trkpt>
      <trkpt lat="46.48599" lon="5.72269">
        <ele>573.2</ele>
        <time>2022-07-29T16:11:09Z</time>
      </trkpt>
      <trkpt lat="46.48605" lon="5.72271">
        <ele>573.2</ele>
        <time>2022-07-29T16:11:10Z</time>
      </trkpt>
      <trkpt lat="46.4861" lon="5.72273">
        <ele>573</ele>
        <time>2022-07-29T16:11:11Z</time>
      </trkpt>
      <trkpt lat="46.48616" lon="5.72276">
        <ele>573</ele>
        <time>2022-07-29T16:11:12Z</time>
      </trkpt>
      <trkpt lat="46.48622" lon="5.72278">
        <ele>573</ele>
        <time>2022-07-29T16:11:13Z</time>
      </trkpt>
      <trkpt lat="46.48627" lon="5.7228">
        <ele>573.2</ele>
        <time>2022-07-29T16:11:14Z</time>
      </trkpt>
      <trkpt lat="46.48633" lon="5.72282">
        <ele>573.2</ele>
        <time>2022-07-29T16:11:15Z</time>
      </trkpt>
      <trkpt lat="46.48639" lon="5.72285">
        <ele>573.2</ele>
        <time>2022-07-29T16:11:16Z</time>
      </trkpt>
      <trkpt lat="46.48644" lon="5.72287">
        <ele>573.6</ele>
        <time>2022-07-29T16:11:17Z</time>
      </trkpt>
      <trkpt lat="46.48649" lon="5.7229">
        <ele>573.6</ele>
        <time>2022-07-29T16:11:18Z</time>
      </trkpt>
      <trkpt lat="46.48654" lon="5.72293">
        <ele>573.8</ele>
        <time>2022-07-29T16:11:19Z</time>
      </trkpt>
      <trkpt lat="46.4866" lon="5.72296">
        <ele>573.8</ele>
        <time>2022-07-29T16:11:20Z</time>
      </trkpt>
      <trkpt lat="46.48665" lon="5.72299">
        <ele>573.8</ele>
        <time>2022-07-29T16:11:21Z</time>
      </trkpt>
      <trkpt lat="46.4867" lon="5.72302">
        <ele>574.2</ele>
        <time>2022-07-29T16:11:22Z</time>
      </trkpt>
      <trkpt lat="46.48675" lon="5.72304">
        <ele>574.2</ele>
        <time>2022-07-29T16:11:23Z</time>
      </trkpt>
      <trkpt lat="46.4868" lon="5.72307">
        <ele>574.4</ele>
        <time>2022-07-29T16:11:24Z</time>
      </trkpt>
      <trkpt lat="46.48685" lon="5.7231">
        <ele>574.4</ele>
        <time>2022-07-29T16:11:25Z</time>
      </trkpt>
      <trkpt lat="46.48691" lon="5.72313">
        <ele>574.6</ele>
        <time>2022-07-29T16:11:26Z</time>
      </trkpt>
      <trkpt lat="46.48696" lon="5.72316">
        <ele>574.6</ele>
        <time>2022-07-29T16:11:27Z</time>
      </trkpt>
      <trkpt lat="46.48701" lon="5.72318">
        <ele>574.6</ele>
        <time>2022-07-29T16:11:28Z</time>
      </trkpt>
      <trkpt lat="46.48706" lon="5.72321">
        <ele>574.6</ele>
        <time>2022-07-29T16:11:29Z</time>
      </trkpt>
      <trkpt lat="46.48712" lon="5.72324">
        <ele>574.6</ele>
        <time>2022-07-29T16:11:30Z</time>
      </trkpt>
      <trkpt lat="46.48717" lon="5.72327">
        <ele>574.6</ele>
        <time>2022-07-29T16:11:31Z</time>
      </trkpt>
      <trkpt lat="46.48722" lon="5.72329">
        <ele>574.8</ele>
        <time>2022-07-29T16:11:32Z</time>
      </trkpt>
      <trkpt lat="46.48728" lon="5.72332">
        <ele>574.8</ele>
        <time>2022-07-29T16:11:33Z</time>
      </trkpt>
      <trkpt lat="46.48733" lon="5.72334">
        <ele>575</ele>
        <time>2022-07-29T16:11:34Z</time>
      </trkpt>
      <trkpt lat="46.48738" lon="5.72337">
        <ele>575</ele>
        <time>2022-07-29T16:11:35Z</time>
      </trkpt>
      <trkpt lat="46.48743" lon="5.72339">
        <ele>575</ele>
        <time>2022-07-29T16:11:36Z</time>
      </trkpt>
      <trkpt lat="46.48749" lon="5.72342">
        <ele>575.4</ele>
        <time>2022-07-29T16:11:37Z</time>
      </trkpt>
      <trkpt lat="46.48754" lon="5.72344">
        <ele>575.4</ele>
        <time>2022-07-29T16:11:38Z</time>
      </trkpt>
      <trkpt lat="46.4876" lon="5.72346">
        <ele>575.4</ele>
        <time>2022-07-29T16:11:39Z</time>
      </trkpt>
      <trkpt lat="46.48765" lon="5.72349">
        <ele>575.6</ele>
        <time>2022-07-29T16:11:40Z</time>
      </trkpt>
      <trkpt lat="46.48771" lon="5.7235">
        <ele>575.6</ele>
        <time>2022-07-29T16:11:41Z</time>
      </trkpt>
      <trkpt lat="46.48776" lon="5.72352">
        <ele>575.8</ele>
        <time>2022-07-29T16:11:42Z</time>
      </trkpt>
      <trkpt lat="46.48782" lon="5.72353">
        <ele>575.8</ele>
        <time>2022-07-29T16:11:43Z</time>
      </trkpt>
      <trkpt lat="46.48788" lon="5.72355">
        <ele>575.8</ele>
        <time>2022-07-29T16:11:44Z</time>
      </trkpt>
      <trkpt lat="46.48793" lon="5.72357">
        <ele>575.8</ele>
        <time>2022-07-29T16:11:45Z</time>
      </trkpt>
      <trkpt lat="46.48799" lon="5.72358">
        <ele>575.8</ele>
        <time>2022-07-29T16:11:46Z</time>
      </trkpt>
      <trkpt lat="46.48804" lon="5.72359">
        <ele>575.8</ele>
        <time>2022-07-29T16:11:47Z</time>
      </trkpt>
      <trkpt lat="46.4881" lon="5.7236">
        <ele>575.8</ele>
        <time>2022-07-29T16:11:48Z</time>
      </trkpt>
      <trkpt lat="46.48815" lon="5.7236">
        <ele>575.8</ele>
        <time>2022-07-29T16:11:49Z</time>
      </trkpt>
      <trkpt lat="46.48821" lon="5.72361">
        <ele>576</ele>
        <time>2022-07-29T16:11:50Z</time>
      </trkpt>
      <trkpt lat="46.48826" lon="5.72361">
        <ele>576</ele>
        <time>2022-07-29T16:11:51Z</time>
      </trkpt>
      <trkpt lat="46.48832" lon="5.72361">
        <ele>576</ele>
        <time>2022-07-29T16:11:52Z</time>
      </trkpt>
      <trkpt lat="46.48837" lon="5.72361">
        <ele>576</ele>
        <time>2022-07-29T16:11:53Z</time>
      </trkpt>
      <trkpt lat="46.48842" lon="5.7236">
        <ele>576</ele>
        <time>2022-07-29T16:11:54Z</time>
      </trkpt>
      <trkpt lat="46.48847" lon="5.7236">
        <ele>576</ele>
        <time>2022-07-29T16:11:55Z</time>
      </trkpt>
      <trkpt lat="46.48853" lon="5.72359">
        <ele>576.2</ele>
        <time>2022-07-29T16:11:56Z</time>
      </trkpt>
      <trkpt lat="46.48858" lon="5.72358">
        <ele>576.2</ele>
        <time>2022-07-29T16:11:57Z</time>
      </trkpt>
      <trkpt lat="46.48863" lon="5.72357">
        <ele>576.2</ele>
        <time>2022-07-29T16:11:58Z</time>
      </trkpt>
      <trkpt lat="46.48868" lon="5.72356">
        <ele>576.6</ele>
        <time>2022-07-29T16:11:59Z</time>
      </trkpt>
      <trkpt lat="46.48874" lon="5.72355">
        <ele>576.6</ele>
        <time>2022-07-29T16:12:00Z</time>
      </trkpt>
      <trkpt lat="46.48879" lon="5.72353">
        <ele>576.6</ele>
        <time>2022-07-29T16:12:01Z</time>
      </trkpt>
      <trkpt lat="46.48884" lon="5.72351">
        <ele>576.8</ele>
        <time>2022-07-29T16:12:02Z</time>
      </trkpt>
      <trkpt lat="46.48889" lon="5.72349">
        <ele>576.8</ele>
        <time>2022-07-29T16:12:03Z</time>
      </trkpt>
      <trkpt lat="46.48894" lon="5.72347">
        <ele>576.8</ele>
        <time>2022-07-29T16:12:04Z</time>
      </trkpt>
      <trkpt lat="46.48899" lon="5.72346">
        <ele>576.8</ele>
        <time>2022-07-29T16:12:05Z</time>
      </trkpt>
      <trkpt lat="46.48904" lon="5.72344">
        <ele>577.2</ele>
        <time>2022-07-29T16:12:06Z</time>
      </trkpt>
      <trkpt lat="46.48909" lon="5.72342">
        <ele>577.2</ele>
        <time>2022-07-29T16:12:07Z</time>
      </trkpt>
      <trkpt lat="46.48914" lon="5.7234">
        <ele>577.2</ele>
        <time>2022-07-29T16:12:08Z</time>
      </trkpt>
      <trkpt lat="46.48918" lon="5.72338">
        <ele>577.4</ele>
        <time>2022-07-29T16:12:09Z</time>
      </trkpt>
      <trkpt lat="46.48923" lon="5.72336">
        <ele>577.4</ele>
        <time>2022-07-29T16:12:10Z</time>
      </trkpt>
      <trkpt lat="46.48927" lon="5.72334">
        <ele>577.6</ele>
        <time>2022-07-29T16:12:11Z</time>
      </trkpt>
      <trkpt lat="46.48932" lon="5.72332">
        <ele>577.6</ele>
        <time>2022-07-29T16:12:12Z</time>
      </trkpt>
      <trkpt lat="46.48937" lon="5.7233">
        <ele>578</ele>
        <time>2022-07-29T16:12:13Z</time>
      </trkpt>
      <trkpt lat="46.48942" lon="5.72328">
        <ele>578</ele>
        <time>2022-07-29T16:12:14Z</time>
      </trkpt>
      <trkpt lat="46.48947" lon="5.72326">
        <ele>578.2</ele>
        <time>2022-07-29T16:12:15Z</time>
      </trkpt>
      <trkpt lat="46.48952" lon="5.72324">
        <ele>578.2</ele>
        <time>2022-07-29T16:12:16Z</time>
      </trkpt>
      <trkpt lat="46.48957" lon="5.72322">
        <ele>578.4</ele>
        <time>2022-07-29T16:12:17Z</time>
      </trkpt>
      <trkpt lat="46.48962" lon="5.7232">
        <ele>578.4</ele>
        <time>2022-07-29T16:12:18Z</time>
      </trkpt>
      <trkpt lat="46.48967" lon="5.72318">
        <ele>578.8</ele>
        <time>2022-07-29T16:12:19Z</time>
      </trkpt>
      <trkpt lat="46.48971" lon="5.72316">
        <ele>579</ele>
        <time>2022-07-29T16:12:20Z</time>
      </trkpt>
      <trkpt lat="46.48976" lon="5.72314">
        <ele>579.4</ele>
        <time>2022-07-29T16:12:21Z</time>
      </trkpt>
      <trkpt lat="46.4898" lon="5.72312">
        <ele>579.4</ele>
        <time>2022-07-29T16:12:22Z</time>
      </trkpt>
      <trkpt lat="46.48984" lon="5.7231">
        <ele>579.6</ele>
        <time>2022-07-29T16:12:23Z</time>
      </trkpt>
      <trkpt lat="46.48989" lon="5.72308">
        <ele>579.6</ele>
        <time>2022-07-29T16:12:24Z</time>
      </trkpt>
      <trkpt lat="46.48993" lon="5.72306">
        <ele>579.8</ele>
        <time>2022-07-29T16:12:25Z</time>
      </trkpt>
      <trkpt lat="46.48998" lon="5.72305">
        <ele>579.8</ele>
        <time>2022-07-29T16:12:26Z</time>
      </trkpt>
      <trkpt lat="46.49002" lon="5.72303">
        <ele>580</ele>
        <time>2022-07-29T16:12:27Z</time>
      </trkpt>
      <trkpt lat="46.49006" lon="5.72301">
        <ele>580</ele>
        <time>2022-07-29T16:12:28Z</time>
      </trkpt>
      <trkpt lat="46.49011" lon="5.72299">
        <ele>580</ele>
        <time>2022-07-29T16:12:29Z</time>
      </trkpt>
      <trkpt lat="46.49015" lon="5.72297">
        <ele>580.4</ele>
        <time>2022-07-29T16:12:30Z</time>
      </trkpt>
      <trkpt lat="46.4902" lon="5.72296">
        <ele>580.4</ele>
        <time>2022-07-29T16:12:31Z</time>
      </trkpt>
      <trkpt lat="46.49024" lon="5.72294">
        <ele>580.4</ele>
        <time>2022-07-29T16:12:32Z</time>
      </trkpt>
      <trkpt lat="46.49029" lon="5.72292">
        <ele>580.6</ele>
        <time>2022-07-29T16:12:33Z</time>
      </trkpt>
      <trkpt lat="46.49033" lon="5.7229">
        <ele>580.6</ele>
        <time>2022-07-29T16:12:34Z</time>
      </trkpt>
      <trkpt lat="46.49038" lon="5.72288">
        <ele>580.6</ele>
        <time>2022-07-29T16:12:35Z</time>
      </trkpt>
      <trkpt lat="46.49042" lon="5.72286">
        <ele>581</ele>
        <time>2022-07-29T16:12:36Z</time>
      </trkpt>
      <trkpt lat="46.49047" lon="5.72284">
        <ele>581</ele>
        <time>2022-07-29T16:12:37Z</time>
      </trkpt>
      <trkpt lat="46.49052" lon="5.72283">
        <ele>581</ele>
        <time>2022-07-29T16:12:38Z</time>
      </trkpt>
      <trkpt lat="46.49056" lon="5.72281">
        <ele>581.2</ele>
        <time>2022-07-29T16:12:39Z</time>
      </trkpt>
      <trkpt lat="46.49061" lon="5.72279">
        <ele>581.2</ele>
        <time>2022-07-29T16:12:40Z</time>
      </trkpt>
      <trkpt lat="46.49065" lon="5.72277">
        <ele>581.2</ele>
        <time>2022-07-29T16:12:41Z</time>
      </trkpt>
      <trkpt lat="46.4907" lon="5.72275">
        <ele>581.6</ele>
        <time>2022-07-29T16:12:42Z</time>
      </trkpt>
      <trkpt lat="46.49075" lon="5.72274">
        <ele>581.6</ele>
        <time>2022-07-29T16:12:43Z</time>
      </trkpt>
      <trkpt lat="46.4908" lon="5.72273">
        <ele>581.8</ele>
        <time>2022-07-29T16:12:44Z</time>
      </trkpt>
      <trkpt lat="46.49084" lon="5.72271">
        <ele>581.8</ele>
        <time>2022-07-29T16:12:45Z</time>
      </trkpt>
      <trkpt lat="46.49089" lon="5.7227">
        <ele>581.8</ele>
        <time>2022-07-29T16:12:46Z</time>
      </trkpt>
      <trkpt lat="46.49094" lon="5.72269">
        <ele>581.8</ele>
        <time>2022-07-29T16:12:47Z</time>
      </trkpt>
      <trkpt lat="46.49099" lon="5.72267">
        <ele>582</ele>
        <time>2022-07-29T16:12:48Z</time>
      </trkpt>
      <trkpt lat="46.49104" lon="5.72266">
        <ele>582</ele>
        <time>2022-07-29T16:12:49Z</time>
      </trkpt>
      <trkpt lat="46.49109" lon="5.72265">
        <ele>582.4</ele>
        <time>2022-07-29T16:12:50Z</time>
      </trkpt>
      <trkpt lat="46.49114" lon="5.72264">
        <ele>582.4</ele>
        <time>2022-07-29T16:12:51Z</time>
      </trkpt>
      <trkpt lat="46.49119" lon="5.72263">
        <ele>582.6</ele>
        <time>2022-07-29T16:12:52Z</time>
      </trkpt>
      <trkpt lat="46.49125" lon="5.72262">
        <ele>582.6</ele>
        <time>2022-07-29T16:12:53Z</time>
      </trkpt>
      <trkpt lat="46.4913" lon="5.72261">
        <ele>582.8</ele>
        <time>2022-07-29T16:12:54Z</time>
      </trkpt>
      <trkpt lat="46.49135" lon="5.7226">
        <ele>582.8</ele>
        <time>2022-07-29T16:12:55Z</time>
      </trkpt>
      <trkpt lat="46.4914" lon="5.7226">
        <ele>582.8</ele>
        <time>2022-07-29T16:12:56Z</time>
      </trkpt>
      <trkpt lat="46.49145" lon="5.72259">
        <ele>583</ele>
        <time>2022-07-29T16:12:57Z</time>
      </trkpt>
      <trkpt lat="46.4915" lon="5.72259">
        <ele>583</ele>
        <time>2022-07-29T16:12:58Z</time>
      </trkpt>
      <trkpt lat="46.49155" lon="5.72258">
        <ele>583.2</ele>
        <time>2022-07-29T16:12:59Z</time>
      </trkpt>
      <trkpt lat="46.49161" lon="5.72258">
        <ele>583.6</ele>
        <time>2022-07-29T16:13:00Z</time>
      </trkpt>
      <trkpt lat="46.49166" lon="5.72258">
        <ele>583.6</ele>
        <time>2022-07-29T16:13:01Z</time>
      </trkpt>
      <trkpt lat="46.49171" lon="5.72258">
        <ele>583.8</ele>
        <time>2022-07-29T16:13:02Z</time>
      </trkpt>
      <trkpt lat="46.49176" lon="5.72258">
        <ele>583.8</ele>
        <time>2022-07-29T16:13:03Z</time>
      </trkpt>
      <trkpt lat="46.49181" lon="5.72258">
        <ele>584</ele>
        <time>2022-07-29T16:13:04Z</time>
      </trkpt>
      <trkpt lat="46.49187" lon="5.72258">
        <ele>584</ele>
        <time>2022-07-29T16:13:05Z</time>
      </trkpt>
      <trkpt lat="46.49192" lon="5.72258">
        <ele>584.2</ele>
        <time>2022-07-29T16:13:07Z</time>
      </trkpt>
      <trkpt lat="46.49197" lon="5.72258">
        <ele>584.2</ele>
        <time>2022-07-29T16:13:08Z</time>
      </trkpt>
      <trkpt lat="46.49202" lon="5.72259">
        <ele>584.4</ele>
        <time>2022-07-29T16:13:09Z</time>
      </trkpt>
      <trkpt lat="46.49207" lon="5.72259">
        <ele>584.4</ele>
        <time>2022-07-29T16:13:10Z</time>
      </trkpt>
      <trkpt lat="46.49212" lon="5.7226">
        <ele>584.4</ele>
        <time>2022-07-29T16:13:11Z</time>
      </trkpt>
      <trkpt lat="46.49217" lon="5.72261">
        <ele>584.8</ele>
        <time>2022-07-29T16:13:12Z</time>
      </trkpt>
      <trkpt lat="46.49222" lon="5.72262">
        <ele>584.8</ele>
        <time>2022-07-29T16:13:13Z</time>
      </trkpt>
      <trkpt lat="46.49227" lon="5.72262">
        <ele>585</ele>
        <time>2022-07-29T16:13:14Z</time>
      </trkpt>
      <trkpt lat="46.49232" lon="5.72263">
        <ele>585</ele>
        <time>2022-07-29T16:13:15Z</time>
      </trkpt>
      <trkpt lat="46.49237" lon="5.72264">
        <ele>585</ele>
        <time>2022-07-29T16:13:16Z</time>
      </trkpt>
      <trkpt lat="46.49242" lon="5.72265">
        <ele>585.2</ele>
        <time>2022-07-29T16:13:17Z</time>
      </trkpt>
      <trkpt lat="46.49247" lon="5.72266">
        <ele>585.2</ele>
        <time>2022-07-29T16:13:18Z</time>
      </trkpt>
      <trkpt lat="46.49252" lon="5.72267">
        <ele>585.6</ele>
        <time>2022-07-29T16:13:19Z</time>
      </trkpt>
      <trkpt lat="46.49257" lon="5.72268">
        <ele>585.6</ele>
        <time>2022-07-29T16:13:20Z</time>
      </trkpt>
      <trkpt lat="46.49262" lon="5.72269">
        <ele>585.8</ele>
        <time>2022-07-29T16:13:21Z</time>
      </trkpt>
      <trkpt lat="46.49266" lon="5.7227">
        <ele>585.8</ele>
        <time>2022-07-29T16:13:22Z</time>
      </trkpt>
      <trkpt lat="46.49271" lon="5.7227">
        <ele>586</ele>
        <time>2022-07-29T16:13:23Z</time>
      </trkpt>
      <trkpt lat="46.49276" lon="5.72271">
        <ele>586</ele>
        <time>2022-07-29T16:13:24Z</time>
      </trkpt>
      <trkpt lat="46.49281" lon="5.72272">
        <ele>586.2</ele>
        <time>2022-07-29T16:13:25Z</time>
      </trkpt>
      <trkpt lat="46.49286" lon="5.72274">
        <ele>586.2</ele>
        <time>2022-07-29T16:13:26Z</time>
      </trkpt>
      <trkpt lat="46.49291" lon="5.72275">
        <ele>586.2</ele>
        <time>2022-07-29T16:13:27Z</time>
      </trkpt>
      <trkpt lat="46.49296" lon="5.72275">
        <ele>586.4</ele>
        <time>2022-07-29T16:13:28Z</time>
      </trkpt>
      <trkpt lat="46.49301" lon="5.72276">
        <ele>586.4</ele>
        <time>2022-07-29T16:13:29Z</time>
      </trkpt>
      <trkpt lat="46.49306" lon="5.72277">
        <ele>586.6</ele>
        <time>2022-07-29T16:13:30Z</time>
      </trkpt>
      <trkpt lat="46.49311" lon="5.72278">
        <ele>586.6</ele>
        <time>2022-07-29T16:13:31Z</time>
      </trkpt>
      <trkpt lat="46.49315" lon="5.72279">
        <ele>587</ele>
        <time>2022-07-29T16:13:32Z</time>
      </trkpt>
      <trkpt lat="46.4932" lon="5.72279">
        <ele>587</ele>
        <time>2022-07-29T16:13:33Z</time>
      </trkpt>
      <trkpt lat="46.49325" lon="5.7228">
        <ele>587.4</ele>
        <time>2022-07-29T16:13:34Z</time>
      </trkpt>
      <trkpt lat="46.4933" lon="5.72281">
        <ele>587.4</ele>
        <time>2022-07-29T16:13:35Z</time>
      </trkpt>
      <trkpt lat="46.49334" lon="5.72281">
        <ele>587.6</ele>
        <time>2022-07-29T16:13:36Z</time>
      </trkpt>
      <trkpt lat="46.49339" lon="5.72282">
        <ele>587.6</ele>
        <time>2022-07-29T16:13:37Z</time>
      </trkpt>
      <trkpt lat="46.49343" lon="5.72282">
        <ele>587.8</ele>
        <time>2022-07-29T16:13:38Z</time>
      </trkpt>
      <trkpt lat="46.49348" lon="5.72283">
        <ele>587.8</ele>
        <time>2022-07-29T16:13:39Z</time>
      </trkpt>
      <trkpt lat="46.49352" lon="5.72283">
        <ele>588.2</ele>
        <time>2022-07-29T16:13:40Z</time>
      </trkpt>
      <trkpt lat="46.49357" lon="5.72283">
        <ele>588.2</ele>
        <time>2022-07-29T16:13:41Z</time>
      </trkpt>
      <trkpt lat="46.49361" lon="5.72283">
        <ele>588.4</ele>
        <time>2022-07-29T16:13:42Z</time>
      </trkpt>
      <trkpt lat="46.49365" lon="5.72282">
        <ele>588.4</ele>
        <time>2022-07-29T16:13:43Z</time>
      </trkpt>
      <trkpt lat="46.4937" lon="5.72282">
        <ele>588.6</ele>
        <time>2022-07-29T16:13:44Z</time>
      </trkpt>
      <trkpt lat="46.49374" lon="5.72282">
        <ele>588.6</ele>
        <time>2022-07-29T16:13:45Z</time>
      </trkpt>
      <trkpt lat="46.49378" lon="5.72282">
        <ele>589</ele>
        <time>2022-07-29T16:13:46Z</time>
      </trkpt>
      <trkpt lat="46.49382" lon="5.72282">
        <ele>589.2</ele>
        <time>2022-07-29T16:13:47Z</time>
      </trkpt>
      <trkpt lat="46.49387" lon="5.72282">
        <ele>589.2</ele>
        <time>2022-07-29T16:13:48Z</time>
      </trkpt>
      <trkpt lat="46.49391" lon="5.72282">
        <ele>589.6</ele>
        <time>2022-07-29T16:13:49Z</time>
      </trkpt>
      <trkpt lat="46.49395" lon="5.72282">
        <ele>589.6</ele>
        <time>2022-07-29T16:13:50Z</time>
      </trkpt>
      <trkpt lat="46.49399" lon="5.72282">
        <ele>589.6</ele>
        <time>2022-07-29T16:13:51Z</time>
      </trkpt>
      <trkpt lat="46.49403" lon="5.72282">
        <ele>589.8</ele>
        <time>2022-07-29T16:13:52Z</time>
      </trkpt>
      <trkpt lat="46.49407" lon="5.72281">
        <ele>589.8</ele>
        <time>2022-07-29T16:13:53Z</time>
      </trkpt>
      <trkpt lat="46.49412" lon="5.72282">
        <ele>590</ele>
        <time>2022-07-29T16:13:54Z</time>
      </trkpt>
      <trkpt lat="46.49416" lon="5.72282">
        <ele>590</ele>
        <time>2022-07-29T16:13:55Z</time>
      </trkpt>
      <trkpt lat="46.4942" lon="5.72283">
        <ele>590</ele>
        <time>2022-07-29T16:13:56Z</time>
      </trkpt>
      <trkpt lat="46.49424" lon="5.72284">
        <ele>590</ele>
        <time>2022-07-29T16:13:57Z</time>
      </trkpt>
      <trkpt lat="46.49429" lon="5.72286">
        <ele>590.2</ele>
        <time>2022-07-29T16:13:58Z</time>
      </trkpt>
      <trkpt lat="46.49433" lon="5.72287">
        <ele>590.2</ele>
        <time>2022-07-29T16:13:59Z</time>
      </trkpt>
      <trkpt lat="46.49437" lon="5.72289">
        <ele>590.2</ele>
        <time>2022-07-29T16:14:00Z</time>
      </trkpt>
      <trkpt lat="46.49441" lon="5.72292">
        <ele>590.2</ele>
        <time>2022-07-29T16:14:01Z</time>
      </trkpt>
      <trkpt lat="46.49446" lon="5.72294">
        <ele>590.2</ele>
        <time>2022-07-29T16:14:02Z</time>
      </trkpt>
      <trkpt lat="46.4945" lon="5.72297">
        <ele>590.2</ele>
        <time>2022-07-29T16:14:03Z</time>
      </trkpt>
      <trkpt lat="46.49454" lon="5.72301">
        <ele>590.2</ele>
        <time>2022-07-29T16:14:04Z</time>
      </trkpt>
      <trkpt lat="46.49458" lon="5.72304">
        <ele>590.2</ele>
        <time>2022-07-29T16:14:05Z</time>
      </trkpt>
      <trkpt lat="46.49463" lon="5.72308">
        <ele>590.2</ele>
        <time>2022-07-29T16:14:06Z</time>
      </trkpt>
      <trkpt lat="46.49467" lon="5.72313">
        <ele>590.2</ele>
        <time>2022-07-29T16:14:07Z</time>
      </trkpt>
      <trkpt lat="46.49472" lon="5.72317">
        <ele>590.2</ele>
        <time>2022-07-29T16:14:08Z</time>
      </trkpt>
      <trkpt lat="46.49476" lon="5.72321">
        <ele>590</ele>
        <time>2022-07-29T16:14:09Z</time>
      </trkpt>
      <trkpt lat="46.49481" lon="5.72326">
        <ele>590</ele>
        <time>2022-07-29T16:14:10Z</time>
      </trkpt>
      <trkpt lat="46.49486" lon="5.7233">
        <ele>590</ele>
        <time>2022-07-29T16:14:11Z</time>
      </trkpt>
      <trkpt lat="46.49492" lon="5.72334">
        <ele>589.8</ele>
        <time>2022-07-29T16:14:12Z</time>
      </trkpt>
      <trkpt lat="46.49498" lon="5.72338">
        <ele>589.4</ele>
        <time>2022-07-29T16:14:13Z</time>
      </trkpt>
      <trkpt lat="46.49504" lon="5.72342">
        <ele>589.2</ele>
        <time>2022-07-29T16:14:14Z</time>
      </trkpt>
      <trkpt lat="46.4951" lon="5.72345">
        <ele>589</ele>
        <time>2022-07-29T16:14:15Z</time>
      </trkpt>
      <trkpt lat="46.49517" lon="5.72347">
        <ele>588.8</ele>
        <time>2022-07-29T16:14:16Z</time>
      </trkpt>
      <trkpt lat="46.49524" lon="5.72349">
        <ele>588.8</ele>
        <time>2022-07-29T16:14:17Z</time>
      </trkpt>
      <trkpt lat="46.49532" lon="5.72349">
        <ele>588.4</ele>
        <time>2022-07-29T16:14:18Z</time>
      </trkpt>
      <trkpt lat="46.49539" lon="5.72349">
        <ele>588</ele>
        <time>2022-07-29T16:14:19Z</time>
      </trkpt>
      <trkpt lat="46.49547" lon="5.72348">
        <ele>587.6</ele>
        <time>2022-07-29T16:14:20Z</time>
      </trkpt>
      <trkpt lat="46.49555" lon="5.72346">
        <ele>587.4</ele>
        <time>2022-07-29T16:14:21Z</time>
      </trkpt>
      <trkpt lat="46.49564" lon="5.72344">
        <ele>586.8</ele>
        <time>2022-07-29T16:14:22Z</time>
      </trkpt>
      <trkpt lat="46.49572" lon="5.72342">
        <ele>586.4</ele>
        <time>2022-07-29T16:14:23Z</time>
      </trkpt>
      <trkpt lat="46.49581" lon="5.7234">
        <ele>586.2</ele>
        <time>2022-07-29T16:14:24Z</time>
      </trkpt>
      <trkpt lat="46.4959" lon="5.72339">
        <ele>585.8</ele>
        <time>2022-07-29T16:14:25Z</time>
      </trkpt>
      <trkpt lat="46.49599" lon="5.72339">
        <ele>585.4</ele>
        <time>2022-07-29T16:14:26Z</time>
      </trkpt>
      <trkpt lat="46.49608" lon="5.7234">
        <ele>585</ele>
        <time>2022-07-29T16:14:27Z</time>
      </trkpt>
      <trkpt lat="46.49618" lon="5.72343">
        <ele>584.6</ele>
        <time>2022-07-29T16:14:28Z</time>
      </trkpt>
      <trkpt lat="46.49627" lon="5.72347">
        <ele>584.2</ele>
        <time>2022-07-29T16:14:29Z</time>
      </trkpt>
      <trkpt lat="46.49635" lon="5.72352">
        <ele>583.8</ele>
        <time>2022-07-29T16:14:30Z</time>
      </trkpt>
      <trkpt lat="46.49644" lon="5.72358">
        <ele>583.4</ele>
        <time>2022-07-29T16:14:31Z</time>
      </trkpt>
      <trkpt lat="46.49652" lon="5.72366">
        <ele>583</ele>
        <time>2022-07-29T16:14:32Z</time>
      </trkpt>
      <trkpt lat="46.4966" lon="5.72375">
        <ele>582.6</ele>
        <time>2022-07-29T16:14:33Z</time>
      </trkpt>
      <trkpt lat="46.49667" lon="5.72383">
        <ele>582.6</ele>
        <time>2022-07-29T16:14:34Z</time>
      </trkpt>
      <trkpt lat="46.49675" lon="5.72392">
        <ele>582.2</ele>
        <time>2022-07-29T16:14:35Z</time>
      </trkpt>
      <trkpt lat="46.49682" lon="5.72401">
        <ele>582</ele>
        <time>2022-07-29T16:14:36Z</time>
      </trkpt>
      <trkpt lat="46.4969" lon="5.72411">
        <ele>581.4</ele>
        <time>2022-07-29T16:14:37Z</time>
      </trkpt>
      <trkpt lat="46.49698" lon="5.72419">
        <ele>581.2</ele>
        <time>2022-07-29T16:14:38Z</time>
      </trkpt>
      <trkpt lat="46.49705" lon="5.72429">
        <ele>580.6</ele>
        <time>2022-07-29T16:14:39Z</time>
      </trkpt>
      <trkpt lat="46.49713" lon="5.72438">
        <ele>580.2</ele>
        <time>2022-07-29T16:14:40Z</time>
      </trkpt>
      <trkpt lat="46.49721" lon="5.72447">
        <ele>580</ele>
        <time>2022-07-29T16:14:41Z</time>
      </trkpt>
      <trkpt lat="46.49729" lon="5.72456">
        <ele>579.6</ele>
        <time>2022-07-29T16:14:42Z</time>
      </trkpt>
      <trkpt lat="46.49736" lon="5.72465">
        <ele>579.2</ele>
        <time>2022-07-29T16:14:43Z</time>
      </trkpt>
      <trkpt lat="46.49745" lon="5.72474">
        <ele>578.8</ele>
        <time>2022-07-29T16:14:44Z</time>
      </trkpt>
      <trkpt lat="46.49752" lon="5.72484">
        <ele>578.6</ele>
        <time>2022-07-29T16:14:45Z</time>
      </trkpt>
      <trkpt lat="46.4976" lon="5.72492">
        <ele>578.6</ele>
        <time>2022-07-29T16:14:46Z</time>
      </trkpt>
      <trkpt lat="46.49767" lon="5.72501">
        <ele>578.2</ele>
        <time>2022-07-29T16:14:47Z</time>
      </trkpt>
      <trkpt lat="46.49773" lon="5.7251">
        <ele>578.2</ele>
        <time>2022-07-29T16:14:48Z</time>
      </trkpt>
      <trkpt lat="46.4978" lon="5.72519">
        <ele>578</ele>
        <time>2022-07-29T16:14:49Z</time>
      </trkpt>
      <trkpt lat="46.49787" lon="5.72527">
        <ele>578</ele>
        <time>2022-07-29T16:14:50Z</time>
      </trkpt>
      <trkpt lat="46.49793" lon="5.72535">
        <ele>578</ele>
        <time>2022-07-29T16:14:51Z</time>
      </trkpt>
      <trkpt lat="46.498" lon="5.72542">
        <ele>577.8</ele>
        <time>2022-07-29T16:14:52Z</time>
      </trkpt>
      <trkpt lat="46.49806" lon="5.7255">
        <ele>577.8</ele>
        <time>2022-07-29T16:14:53Z</time>
      </trkpt>
      <trkpt lat="46.49812" lon="5.72557">
        <ele>577.8</ele>
        <time>2022-07-29T16:14:54Z</time>
      </trkpt>
      <trkpt lat="46.49818" lon="5.72564">
        <ele>577.8</ele>
        <time>2022-07-29T16:14:55Z</time>
      </trkpt>
      <trkpt lat="46.49824" lon="5.72571">
        <ele>577.8</ele>
        <time>2022-07-29T16:14:56Z</time>
      </trkpt>
      <trkpt lat="46.4983" lon="5.72579">
        <ele>577.8</ele>
        <time>2022-07-29T16:14:57Z</time>
      </trkpt>
      <trkpt lat="46.49835" lon="5.72586">
        <ele>577.8</ele>
        <time>2022-07-29T16:14:58Z</time>
      </trkpt>
      <trkpt lat="46.49841" lon="5.72592">
        <ele>577.8</ele>
        <time>2022-07-29T16:14:59Z</time>
      </trkpt>
      <trkpt lat="46.49846" lon="5.72599">
        <ele>577.8</ele>
        <time>2022-07-29T16:15:00Z</time>
      </trkpt>
      <trkpt lat="46.49852" lon="5.72605">
        <ele>578</ele>
        <time>2022-07-29T16:15:01Z</time>
      </trkpt>
      <trkpt lat="46.49857" lon="5.7261">
        <ele>578</ele>
        <time>2022-07-29T16:15:02Z</time>
      </trkpt>
      <trkpt lat="46.49862" lon="5.72614">
        <ele>578.2</ele>
        <time>2022-07-29T16:15:03Z</time>
      </trkpt>
      <trkpt lat="46.49867" lon="5.72619">
        <ele>578.2</ele>
        <time>2022-07-29T16:15:04Z</time>
      </trkpt>
      <trkpt lat="46.49872" lon="5.72623">
        <ele>578.6</ele>
        <time>2022-07-29T16:15:05Z</time>
      </trkpt>
      <trkpt lat="46.49876" lon="5.72627">
        <ele>578.6</ele>
        <time>2022-07-29T16:15:06Z</time>
      </trkpt>
      <trkpt lat="46.49879" lon="5.7263">
        <ele>578.8</ele>
        <time>2022-07-29T16:15:07Z</time>
      </trkpt>
      <trkpt lat="46.49882" lon="5.72635">
        <ele>578.8</ele>
        <time>2022-07-29T16:15:08Z</time>
      </trkpt>
      <trkpt lat="46.49884" lon="5.72641">
        <ele>579</ele>
        <time>2022-07-29T16:15:09Z</time>
      </trkpt>
      <trkpt lat="46.49885" lon="5.72648">
        <ele>579</ele>
        <time>2022-07-29T16:15:10Z</time>
      </trkpt>
      <trkpt lat="46.49887" lon="5.72654">
        <ele>579</ele>
        <time>2022-07-29T16:15:11Z</time>
      </trkpt>
      <trkpt lat="46.49889" lon="5.7266">
        <ele>579</ele>
        <time>2022-07-29T16:15:12Z</time>
      </trkpt>
      <trkpt lat="46.49892" lon="5.72665">
        <ele>579</ele>
        <time>2022-07-29T16:15:13Z</time>
      </trkpt>
      <trkpt lat="46.49896" lon="5.72669">
        <ele>579</ele>
        <time>2022-07-29T16:15:14Z</time>
      </trkpt>
      <trkpt lat="46.49901" lon="5.72672">
        <ele>579</ele>
        <time>2022-07-29T16:15:15Z</time>
      </trkpt>
      <trkpt lat="46.49906" lon="5.72677">
        <ele>579</ele>
        <time>2022-07-29T16:15:16Z</time>
      </trkpt>
      <trkpt lat="46.49912" lon="5.72682">
        <ele>578.8</ele>
        <time>2022-07-29T16:15:17Z</time>
      </trkpt>
      <trkpt lat="46.49917" lon="5.72688">
        <ele>578.6</ele>
        <time>2022-07-29T16:15:18Z</time>
      </trkpt>
      <trkpt lat="46.49922" lon="5.72694">
        <ele>578.6</ele>
        <time>2022-07-29T16:15:19Z</time>
      </trkpt>
      <trkpt lat="46.49927" lon="5.72699">
        <ele>578.2</ele>
        <time>2022-07-29T16:15:20Z</time>
      </trkpt>
      <trkpt lat="46.49933" lon="5.72706">
        <ele>578.2</ele>
        <time>2022-07-29T16:15:21Z</time>
      </trkpt>
      <trkpt lat="46.49938" lon="5.72712">
        <ele>577.8</ele>
        <time>2022-07-29T16:15:22Z</time>
      </trkpt>
      <trkpt lat="46.49943" lon="5.72719">
        <ele>577.8</ele>
        <time>2022-07-29T16:15:23Z</time>
      </trkpt>
      <trkpt lat="46.49948" lon="5.72725">
        <ele>577.4</ele>
        <time>2022-07-29T16:15:24Z</time>
      </trkpt>
      <trkpt lat="46.49953" lon="5.72732">
        <ele>577.4</ele>
        <time>2022-07-29T16:15:25Z</time>
      </trkpt>
      <trkpt lat="46.49958" lon="5.72738">
        <ele>577</ele>
        <time>2022-07-29T16:15:26Z</time>
      </trkpt>
      <trkpt lat="46.49963" lon="5.72745">
        <ele>577</ele>
        <time>2022-07-29T16:15:27Z</time>
      </trkpt>
      <trkpt lat="46.49968" lon="5.72751">
        <ele>576.8</ele>
        <time>2022-07-29T16:15:28Z</time>
      </trkpt>
      <trkpt lat="46.49973" lon="5.72758">
        <ele>576.8</ele>
        <time>2022-07-29T16:15:29Z</time>
      </trkpt>
      <trkpt lat="46.49978" lon="5.72764">
        <ele>576.8</ele>
        <time>2022-07-29T16:15:30Z</time>
      </trkpt>
      <trkpt lat="46.49983" lon="5.7277">
        <ele>576.8</ele>
        <time>2022-07-29T16:15:31Z</time>
      </trkpt>
      <trkpt lat="46.49988" lon="5.72777">
        <ele>576.6</ele>
        <time>2022-07-29T16:15:32Z</time>
      </trkpt>
      <trkpt lat="46.49993" lon="5.72784">
        <ele>576.6</ele>
        <time>2022-07-29T16:15:33Z</time>
      </trkpt>
      <trkpt lat="46.49998" lon="5.7279">
        <ele>576.2</ele>
        <time>2022-07-29T16:15:34Z</time>
      </trkpt>
      <trkpt lat="46.50004" lon="5.72797">
        <ele>576.2</ele>
        <time>2022-07-29T16:15:35Z</time>
      </trkpt>
      <trkpt lat="46.50009" lon="5.72804">
        <ele>576.2</ele>
        <time>2022-07-29T16:15:36Z</time>
      </trkpt>
      <trkpt lat="46.50015" lon="5.7281">
        <ele>576</ele>
        <time>2022-07-29T16:15:37Z</time>
      </trkpt>
      <trkpt lat="46.5002" lon="5.72817">
        <ele>576</ele>
        <time>2022-07-29T16:15:38Z</time>
      </trkpt>
      <trkpt lat="46.50025" lon="5.72824">
        <ele>575.8</ele>
        <time>2022-07-29T16:15:39Z</time>
      </trkpt>
      <trkpt lat="46.50031" lon="5.72831">
        <ele>575.8</ele>
        <time>2022-07-29T16:15:40Z</time>
      </trkpt>
      <trkpt lat="46.50037" lon="5.72839">
        <ele>575.8</ele>
        <time>2022-07-29T16:15:41Z</time>
      </trkpt>
      <trkpt lat="46.50042" lon="5.72846">
        <ele>575.4</ele>
        <time>2022-07-29T16:15:42Z</time>
      </trkpt>
      <trkpt lat="46.50048" lon="5.72853">
        <ele>575.4</ele>
        <time>2022-07-29T16:15:43Z</time>
      </trkpt>
      <trkpt lat="46.50054" lon="5.7286">
        <ele>575.2</ele>
        <time>2022-07-29T16:15:44Z</time>
      </trkpt>
      <trkpt lat="46.5006" lon="5.72868">
        <ele>575</ele>
        <time>2022-07-29T16:15:45Z</time>
      </trkpt>
      <trkpt lat="46.50066" lon="5.72875">
        <ele>575</ele>
        <time>2022-07-29T16:15:46Z</time>
      </trkpt>
      <trkpt lat="46.50072" lon="5.72883">
        <ele>574.6</ele>
        <time>2022-07-29T16:15:47Z</time>
      </trkpt>
      <trkpt lat="46.50078" lon="5.7289">
        <ele>574.6</ele>
        <time>2022-07-29T16:15:48Z</time>
      </trkpt>
      <trkpt lat="46.50084" lon="5.72898">
        <ele>574.2</ele>
        <time>2022-07-29T16:15:49Z</time>
      </trkpt>
      <trkpt lat="46.50091" lon="5.72907">
        <ele>574.2</ele>
        <time>2022-07-29T16:15:50Z</time>
      </trkpt>
      <trkpt lat="46.50097" lon="5.72915">
        <ele>574</ele>
        <time>2022-07-29T16:15:51Z</time>
      </trkpt>
      <trkpt lat="46.50104" lon="5.72923">
        <ele>573.6</ele>
        <time>2022-07-29T16:15:52Z</time>
      </trkpt>
      <trkpt lat="46.5011" lon="5.72931">
        <ele>573.6</ele>
        <time>2022-07-29T16:15:53Z</time>
      </trkpt>
      <trkpt lat="46.50117" lon="5.72939">
        <ele>573.6</ele>
        <time>2022-07-29T16:15:54Z</time>
      </trkpt>
      <trkpt lat="46.50123" lon="5.72948">
        <ele>573.4</ele>
        <time>2022-07-29T16:15:55Z</time>
      </trkpt>
      <trkpt lat="46.5013" lon="5.72956">
        <ele>573.4</ele>
        <time>2022-07-29T16:15:56Z</time>
      </trkpt>
      <trkpt lat="46.50137" lon="5.72965">
        <ele>573</ele>
        <time>2022-07-29T16:15:57Z</time>
      </trkpt>
      <trkpt lat="46.50143" lon="5.72973">
        <ele>572.8</ele>
        <time>2022-07-29T16:15:58Z</time>
      </trkpt>
      <trkpt lat="46.5015" lon="5.72982">
        <ele>572.6</ele>
        <time>2022-07-29T16:15:59Z</time>
      </trkpt>
      <trkpt lat="46.50156" lon="5.7299">
        <ele>572.6</ele>
        <time>2022-07-29T16:16:00Z</time>
      </trkpt>
      <trkpt lat="46.50162" lon="5.72998">
        <ele>572.2</ele>
        <time>2022-07-29T16:16:01Z</time>
      </trkpt>
      <trkpt lat="46.50168" lon="5.73007">
        <ele>572</ele>
        <time>2022-07-29T16:16:02Z</time>
      </trkpt>
      <trkpt lat="46.50174" lon="5.73016">
        <ele>572</ele>
        <time>2022-07-29T16:16:03Z</time>
      </trkpt>
      <trkpt lat="46.5018" lon="5.73025">
        <ele>571.8</ele>
        <time>2022-07-29T16:16:04Z</time>
      </trkpt>
      <trkpt lat="46.50185" lon="5.73034">
        <ele>571.8</ele>
        <time>2022-07-29T16:16:05Z</time>
      </trkpt>
      <trkpt lat="46.50189" lon="5.73044">
        <ele>571.4</ele>
        <time>2022-07-29T16:16:06Z</time>
      </trkpt>
      <trkpt lat="46.50194" lon="5.73054">
        <ele>571.4</ele>
        <time>2022-07-29T16:16:07Z</time>
      </trkpt>
      <trkpt lat="46.50198" lon="5.73064">
        <ele>571</ele>
        <time>2022-07-29T16:16:08Z</time>
      </trkpt>
      <trkpt lat="46.50202" lon="5.73075">
        <ele>570.8</ele>
        <time>2022-07-29T16:16:09Z</time>
      </trkpt>
      <trkpt lat="46.50206" lon="5.73086">
        <ele>570.6</ele>
        <time>2022-07-29T16:16:10Z</time>
      </trkpt>
      <trkpt lat="46.50209" lon="5.73097">
        <ele>570.4</ele>
        <time>2022-07-29T16:16:11Z</time>
      </trkpt>
      <trkpt lat="46.50212" lon="5.73109">
        <ele>570</ele>
        <time>2022-07-29T16:16:12Z</time>
      </trkpt>
      <trkpt lat="46.50214" lon="5.73121">
        <ele>569.8</ele>
        <time>2022-07-29T16:16:13Z</time>
      </trkpt>
      <trkpt lat="46.50216" lon="5.73134">
        <ele>569.4</ele>
        <time>2022-07-29T16:16:14Z</time>
      </trkpt>
      <trkpt lat="46.50218" lon="5.73148">
        <ele>569</ele>
        <time>2022-07-29T16:16:15Z</time>
      </trkpt>
      <trkpt lat="46.50219" lon="5.73163">
        <ele>568.8</ele>
        <time>2022-07-29T16:16:16Z</time>
      </trkpt>
      <trkpt lat="46.5022" lon="5.73177">
        <ele>568.4</ele>
        <time>2022-07-29T16:16:17Z</time>
      </trkpt>
      <trkpt lat="46.5022" lon="5.73191">
        <ele>567.8</ele>
        <time>2022-07-29T16:16:18Z</time>
      </trkpt>
      <trkpt lat="46.50221" lon="5.73205">
        <ele>567.4</ele>
        <time>2022-07-29T16:16:19Z</time>
      </trkpt>
      <trkpt lat="46.50222" lon="5.73219">
        <ele>567</ele>
        <time>2022-07-29T16:16:20Z</time>
      </trkpt>
      <trkpt lat="46.50222" lon="5.73234">
        <ele>566.4</ele>
        <time>2022-07-29T16:16:21Z</time>
      </trkpt>
      <trkpt lat="46.50223" lon="5.73249">
        <ele>566</ele>
        <time>2022-07-29T16:16:22Z</time>
      </trkpt>
      <trkpt lat="46.50224" lon="5.73264">
        <ele>565.4</ele>
        <time>2022-07-29T16:16:23Z</time>
      </trkpt>
      <trkpt lat="46.50225" lon="5.7328">
        <ele>564.8</ele>
        <time>2022-07-29T16:16:24Z</time>
      </trkpt>
      <trkpt lat="46.50227" lon="5.73296">
        <ele>564.2</ele>
        <time>2022-07-29T16:16:25Z</time>
      </trkpt>
      <trkpt lat="46.50228" lon="5.73312">
        <ele>563.6</ele>
        <time>2022-07-29T16:16:26Z</time>
      </trkpt>
      <trkpt lat="46.50229" lon="5.73329">
        <ele>562.8</ele>
        <time>2022-07-29T16:16:27Z</time>
      </trkpt>
      <trkpt lat="46.50231" lon="5.73347">
        <ele>562</ele>
        <time>2022-07-29T16:16:28Z</time>
      </trkpt>
      <trkpt lat="46.50232" lon="5.73363">
        <ele>561.2</ele>
        <time>2022-07-29T16:16:29Z</time>
      </trkpt>
      <trkpt lat="46.50234" lon="5.7338">
        <ele>560.4</ele>
        <time>2022-07-29T16:16:30Z</time>
      </trkpt>
      <trkpt lat="46.50238" lon="5.73396">
        <ele>559.6</ele>
        <time>2022-07-29T16:16:31Z</time>
      </trkpt>
      <trkpt lat="46.50242" lon="5.73412">
        <ele>558.8</ele>
        <time>2022-07-29T16:16:32Z</time>
      </trkpt>
      <trkpt lat="46.50247" lon="5.73429">
        <ele>558.2</ele>
        <time>2022-07-29T16:16:33Z</time>
      </trkpt>
      <trkpt lat="46.50252" lon="5.73445">
        <ele>557.4</ele>
        <time>2022-07-29T16:16:34Z</time>
      </trkpt>
      <trkpt lat="46.50257" lon="5.73461">
        <ele>556.6</ele>
        <time>2022-07-29T16:16:35Z</time>
      </trkpt>
      <trkpt lat="46.50263" lon="5.73477">
        <ele>556</ele>
        <time>2022-07-29T16:16:36Z</time>
      </trkpt>
      <trkpt lat="46.50267" lon="5.73494">
        <ele>555.4</ele>
        <time>2022-07-29T16:16:37Z</time>
      </trkpt>
      <trkpt lat="46.50273" lon="5.7351">
        <ele>554.8</ele>
        <time>2022-07-29T16:16:38Z</time>
      </trkpt>
      <trkpt lat="46.50278" lon="5.73526">
        <ele>554</ele>
        <time>2022-07-29T16:16:39Z</time>
      </trkpt>
      <trkpt lat="46.50283" lon="5.73541">
        <ele>553.4</ele>
        <time>2022-07-29T16:16:40Z</time>
      </trkpt>
      <trkpt lat="46.50288" lon="5.73557">
        <ele>552.8</ele>
        <time>2022-07-29T16:16:41Z</time>
      </trkpt>
      <trkpt lat="46.50293" lon="5.73573">
        <ele>552.4</ele>
        <time>2022-07-29T16:16:42Z</time>
      </trkpt>
      <trkpt lat="46.50297" lon="5.73588">
        <ele>552</ele>
        <time>2022-07-29T16:16:43Z</time>
      </trkpt>
      <trkpt lat="46.50301" lon="5.73604">
        <ele>551.6</ele>
        <time>2022-07-29T16:16:44Z</time>
      </trkpt>
      <trkpt lat="46.50305" lon="5.73619">
        <ele>551.2</ele>
        <time>2022-07-29T16:16:45Z</time>
      </trkpt>
      <trkpt lat="46.50309" lon="5.73634">
        <ele>551</ele>
        <time>2022-07-29T16:16:46Z</time>
      </trkpt>
      <trkpt lat="46.50312" lon="5.73649">
        <ele>550.6</ele>
        <time>2022-07-29T16:16:47Z</time>
      </trkpt>
      <trkpt lat="46.50315" lon="5.73662">
        <ele>550.6</ele>
        <time>2022-07-29T16:16:48Z</time>
      </trkpt>
      <trkpt lat="46.50319" lon="5.73676">
        <ele>550.4</ele>
        <time>2022-07-29T16:16:49Z</time>
      </trkpt>
      <trkpt lat="46.50322" lon="5.73691">
        <ele>550.4</ele>
        <time>2022-07-29T16:16:50Z</time>
      </trkpt>
      <trkpt lat="46.50325" lon="5.73705">
        <ele>550</ele>
        <time>2022-07-29T16:16:51Z</time>
      </trkpt>
      <trkpt lat="46.50328" lon="5.73718">
        <ele>549.8</ele>
        <time>2022-07-29T16:16:52Z</time>
      </trkpt>
      <trkpt lat="46.50331" lon="5.73732">
        <ele>549.4</ele>
        <time>2022-07-29T16:16:53Z</time>
      </trkpt>
      <trkpt lat="46.50335" lon="5.73745">
        <ele>549.2</ele>
        <time>2022-07-29T16:16:54Z</time>
      </trkpt>
      <trkpt lat="46.50338" lon="5.73759">
        <ele>548.8</ele>
        <time>2022-07-29T16:16:55Z</time>
      </trkpt>
      <trkpt lat="46.50341" lon="5.73771">
        <ele>548.4</ele>
        <time>2022-07-29T16:16:56Z</time>
      </trkpt>
      <trkpt lat="46.50344" lon="5.73784">
        <ele>548.2</ele>
        <time>2022-07-29T16:16:57Z</time>
      </trkpt>
      <trkpt lat="46.50348" lon="5.73797">
        <ele>548</ele>
        <time>2022-07-29T16:16:58Z</time>
      </trkpt>
      <trkpt lat="46.50351" lon="5.7381">
        <ele>547.8</ele>
        <time>2022-07-29T16:16:59Z</time>
      </trkpt>
      <trkpt lat="46.50355" lon="5.73824">
        <ele>547.8</ele>
        <time>2022-07-29T16:17:00Z</time>
      </trkpt>
      <trkpt lat="46.50359" lon="5.73836">
        <ele>547.4</ele>
        <time>2022-07-29T16:17:01Z</time>
      </trkpt>
      <trkpt lat="46.50361" lon="5.73848">
        <ele>547.2</ele>
        <time>2022-07-29T16:17:02Z</time>
      </trkpt>
      <trkpt lat="46.50365" lon="5.73861">
        <ele>547</ele>
        <time>2022-07-29T16:17:03Z</time>
      </trkpt>
      <trkpt lat="46.50369" lon="5.73873">
        <ele>546.8</ele>
        <time>2022-07-29T16:17:04Z</time>
      </trkpt>
      <trkpt lat="46.50372" lon="5.73886">
        <ele>546.8</ele>
        <time>2022-07-29T16:17:05Z</time>
      </trkpt>
      <trkpt lat="46.50375" lon="5.73898">
        <ele>546.4</ele>
        <time>2022-07-29T16:17:06Z</time>
      </trkpt>
      <trkpt lat="46.50379" lon="5.73911">
        <ele>546.4</ele>
        <time>2022-07-29T16:17:07Z</time>
      </trkpt>
      <trkpt lat="46.50383" lon="5.73923">
        <ele>546.4</ele>
        <time>2022-07-29T16:17:08Z</time>
      </trkpt>
      <trkpt lat="46.50387" lon="5.73934">
        <ele>546.4</ele>
        <time>2022-07-29T16:17:09Z</time>
      </trkpt>
      <trkpt lat="46.5039" lon="5.73946">
        <ele>546.4</ele>
        <time>2022-07-29T16:17:10Z</time>
      </trkpt>
      <trkpt lat="46.50394" lon="5.73957">
        <ele>546.4</ele>
        <time>2022-07-29T16:17:11Z</time>
      </trkpt>
      <trkpt lat="46.50397" lon="5.73968">
        <ele>546.4</ele>
        <time>2022-07-29T16:17:12Z</time>
      </trkpt>
      <trkpt lat="46.50401" lon="5.73978">
        <ele>546.6</ele>
        <time>2022-07-29T16:17:13Z</time>
      </trkpt>
      <trkpt lat="46.50404" lon="5.73989">
        <ele>546.6</ele>
        <time>2022-07-29T16:17:14Z</time>
      </trkpt>
      <trkpt lat="46.50408" lon="5.73999">
        <ele>546.6</ele>
        <time>2022-07-29T16:17:15Z</time>
      </trkpt>
      <trkpt lat="46.50411" lon="5.7401">
        <ele>546.6</ele>
        <time>2022-07-29T16:17:16Z</time>
      </trkpt>
      <trkpt lat="46.50414" lon="5.7402">
        <ele>547</ele>
        <time>2022-07-29T16:17:17Z</time>
      </trkpt>
      <trkpt lat="46.50417" lon="5.7403">
        <ele>547</ele>
        <time>2022-07-29T16:17:18Z</time>
      </trkpt>
      <trkpt lat="46.5042" lon="5.74039">
        <ele>547.2</ele>
        <time>2022-07-29T16:17:19Z</time>
      </trkpt>
      <trkpt lat="46.50423" lon="5.74049">
        <ele>547.2</ele>
        <time>2022-07-29T16:17:20Z</time>
      </trkpt>
      <trkpt lat="46.50426" lon="5.74059">
        <ele>547.4</ele>
        <time>2022-07-29T16:17:21Z</time>
      </trkpt>
      <trkpt lat="46.50429" lon="5.74068">
        <ele>547.4</ele>
        <time>2022-07-29T16:17:22Z</time>
      </trkpt>
      <trkpt lat="46.50432" lon="5.74077">
        <ele>547.6</ele>
        <time>2022-07-29T16:17:23Z</time>
      </trkpt>
      <trkpt lat="46.50435" lon="5.74086">
        <ele>547.6</ele>
        <time>2022-07-29T16:17:24Z</time>
      </trkpt>
      <trkpt lat="46.50438" lon="5.74095">
        <ele>547.6</ele>
        <time>2022-07-29T16:17:25Z</time>
      </trkpt>
      <trkpt lat="46.5044" lon="5.74104">
        <ele>547.8</ele>
        <time>2022-07-29T16:17:26Z</time>
      </trkpt>
      <trkpt lat="46.50443" lon="5.74112">
        <ele>547.8</ele>
        <time>2022-07-29T16:17:27Z</time>
      </trkpt>
      <trkpt lat="46.50446" lon="5.74121">
        <ele>547.8</ele>
        <time>2022-07-29T16:17:28Z</time>
      </trkpt>
      <trkpt lat="46.50449" lon="5.74129">
        <ele>548.2</ele>
        <time>2022-07-29T16:17:29Z</time>
      </trkpt>
      <trkpt lat="46.50451" lon="5.74138">
        <ele>548.2</ele>
        <time>2022-07-29T16:17:30Z</time>
      </trkpt>
      <trkpt lat="46.50454" lon="5.74146">
        <ele>548.2</ele>
        <time>2022-07-29T16:17:31Z</time>
      </trkpt>
      <trkpt lat="46.50456" lon="5.74154">
        <ele>548.4</ele>
        <time>2022-07-29T16:17:32Z</time>
      </trkpt>
      <trkpt lat="46.50459" lon="5.74163">
        <ele>548.4</ele>
        <time>2022-07-29T16:17:33Z</time>
      </trkpt>
      <trkpt lat="46.50461" lon="5.74171">
        <ele>548.6</ele>
        <time>2022-07-29T16:17:34Z</time>
      </trkpt>
      <trkpt lat="46.50463" lon="5.74179">
        <ele>548.6</ele>
        <time>2022-07-29T16:17:35Z</time>
      </trkpt>
      <trkpt lat="46.50466" lon="5.74187">
        <ele>548.8</ele>
        <time>2022-07-29T16:17:36Z</time>
      </trkpt>
      <trkpt lat="46.50468" lon="5.74196">
        <ele>548.8</ele>
        <time>2022-07-29T16:17:37Z</time>
      </trkpt>
      <trkpt lat="46.50471" lon="5.74204">
        <ele>549.2</ele>
        <time>2022-07-29T16:17:38Z</time>
      </trkpt>
      <trkpt lat="46.50474" lon="5.74212">
        <ele>549.2</ele>
        <time>2022-07-29T16:17:39Z</time>
      </trkpt>
      <trkpt lat="46.50477" lon="5.7422">
        <ele>549.4</ele>
        <time>2022-07-29T16:17:40Z</time>
      </trkpt>
      <trkpt lat="46.50481" lon="5.74227">
        <ele>549.4</ele>
        <time>2022-07-29T16:17:41Z</time>
      </trkpt>
      <trkpt lat="46.50484" lon="5.74235">
        <ele>549.4</ele>
        <time>2022-07-29T16:17:42Z</time>
      </trkpt>
      <trkpt lat="46.50488" lon="5.74241">
        <ele>549.8</ele>
        <time>2022-07-29T16:17:43Z</time>
      </trkpt>
      <trkpt lat="46.50492" lon="5.74248">
        <ele>549.8</ele>
        <time>2022-07-29T16:17:44Z</time>
      </trkpt>
      <trkpt lat="46.50496" lon="5.74254">
        <ele>549.8</ele>
        <time>2022-07-29T16:17:45Z</time>
      </trkpt>
      <trkpt lat="46.50501" lon="5.7426">
        <ele>550</ele>
        <time>2022-07-29T16:17:46Z</time>
      </trkpt>
      <trkpt lat="46.50505" lon="5.74266">
        <ele>550</ele>
        <time>2022-07-29T16:17:47Z</time>
      </trkpt>
      <trkpt lat="46.5051" lon="5.74271">
        <ele>550.2</ele>
        <time>2022-07-29T16:17:48Z</time>
      </trkpt>
      <trkpt lat="46.50515" lon="5.74276">
        <ele>550.2</ele>
        <time>2022-07-29T16:17:49Z</time>
      </trkpt>
      <trkpt lat="46.50521" lon="5.7428">
        <ele>550.6</ele>
        <time>2022-07-29T16:17:50Z</time>
      </trkpt>
      <trkpt lat="46.50526" lon="5.74284">
        <ele>550.8</ele>
        <time>2022-07-29T16:17:51Z</time>
      </trkpt>
      <trkpt lat="46.50532" lon="5.74288">
        <ele>550.8</ele>
        <time>2022-07-29T16:17:52Z</time>
      </trkpt>
      <trkpt lat="46.50538" lon="5.74291">
        <ele>550.8</ele>
        <time>2022-07-29T16:17:53Z</time>
      </trkpt>
      <trkpt lat="46.50543" lon="5.74294">
        <ele>550.8</ele>
        <time>2022-07-29T16:17:54Z</time>
      </trkpt>
      <trkpt lat="46.50549" lon="5.74296">
        <ele>550.8</ele>
        <time>2022-07-29T16:17:55Z</time>
      </trkpt>
      <trkpt lat="46.50555" lon="5.74299">
        <ele>551.2</ele>
        <time>2022-07-29T16:17:56Z</time>
      </trkpt>
      <trkpt lat="46.50561" lon="5.74301">
        <ele>551.2</ele>
        <time>2022-07-29T16:17:57Z</time>
      </trkpt>
      <trkpt lat="46.50566" lon="5.74302">
        <ele>551.4</ele>
        <time>2022-07-29T16:17:58Z</time>
      </trkpt>
      <trkpt lat="46.50577" lon="5.74305">
        <ele>551.4</ele>
        <time>2022-07-29T16:17:59Z</time>
      </trkpt>
      <trkpt lat="46.50583" lon="5.74306">
        <ele>551.6</ele>
        <time>2022-07-29T16:18:00Z</time>
      </trkpt>
      <trkpt lat="46.50588" lon="5.74307">
        <ele>552</ele>
        <time>2022-07-29T16:18:01Z</time>
      </trkpt>
      <trkpt lat="46.50593" lon="5.74308">
        <ele>552</ele>
        <time>2022-07-29T16:18:02Z</time>
      </trkpt>
      <trkpt lat="46.50598" lon="5.74309">
        <ele>552.2</ele>
        <time>2022-07-29T16:18:03Z</time>
      </trkpt>
      <trkpt lat="46.50603" lon="5.7431">
        <ele>552.2</ele>
        <time>2022-07-29T16:18:04Z</time>
      </trkpt>
      <trkpt lat="46.50607" lon="5.74311">
        <ele>552.6</ele>
        <time>2022-07-29T16:18:05Z</time>
      </trkpt>
      <trkpt lat="46.50612" lon="5.74312">
        <ele>552.6</ele>
        <time>2022-07-29T16:18:06Z</time>
      </trkpt>
      <trkpt lat="46.50616" lon="5.74313">
        <ele>552.8</ele>
        <time>2022-07-29T16:18:07Z</time>
      </trkpt>
      <trkpt lat="46.5062" lon="5.74314">
        <ele>552.8</ele>
        <time>2022-07-29T16:18:08Z</time>
      </trkpt>
      <trkpt lat="46.50625" lon="5.74314">
        <ele>553.2</ele>
        <time>2022-07-29T16:18:09Z</time>
      </trkpt>
      <trkpt lat="46.50629" lon="5.74315">
        <ele>553.2</ele>
        <time>2022-07-29T16:18:10Z</time>
      </trkpt>
      <trkpt lat="46.50634" lon="5.74316">
        <ele>553.4</ele>
        <time>2022-07-29T16:18:11Z</time>
      </trkpt>
      <trkpt lat="46.50638" lon="5.74317">
        <ele>553.4</ele>
        <time>2022-07-29T16:18:12Z</time>
      </trkpt>
      <trkpt lat="46.50642" lon="5.74318">
        <ele>553.6</ele>
        <time>2022-07-29T16:18:13Z</time>
      </trkpt>
      <trkpt lat="46.50647" lon="5.74319">
        <ele>553.6</ele>
        <time>2022-07-29T16:18:14Z</time>
      </trkpt>
      <trkpt lat="46.50651" lon="5.74321">
        <ele>554</ele>
        <time>2022-07-29T16:18:15Z</time>
      </trkpt>
      <trkpt lat="46.50655" lon="5.74322">
        <ele>554</ele>
        <time>2022-07-29T16:18:16Z</time>
      </trkpt>
      <trkpt lat="46.50659" lon="5.74324">
        <ele>554.2</ele>
        <time>2022-07-29T16:18:17Z</time>
      </trkpt>
      <trkpt lat="46.50664" lon="5.74326">
        <ele>554.2</ele>
        <time>2022-07-29T16:18:18Z</time>
      </trkpt>
      <trkpt lat="46.50668" lon="5.74328">
        <ele>554.4</ele>
        <time>2022-07-29T16:18:19Z</time>
      </trkpt>
      <trkpt lat="46.50672" lon="5.74331">
        <ele>554.4</ele>
        <time>2022-07-29T16:18:20Z</time>
      </trkpt>
      <trkpt lat="46.50676" lon="5.74334">
        <ele>554.8</ele>
        <time>2022-07-29T16:18:21Z</time>
      </trkpt>
      <trkpt lat="46.50679" lon="5.74338">
        <ele>554.8</ele>
        <time>2022-07-29T16:18:22Z</time>
      </trkpt>
      <trkpt lat="46.50683" lon="5.74342">
        <ele>555</ele>
        <time>2022-07-29T16:18:23Z</time>
      </trkpt>
      <trkpt lat="46.50686" lon="5.74346">
        <ele>555</ele>
        <time>2022-07-29T16:18:24Z</time>
      </trkpt>
      <trkpt lat="46.50689" lon="5.7435">
        <ele>555.4</ele>
        <time>2022-07-29T16:18:25Z</time>
      </trkpt>
      <trkpt lat="46.50693" lon="5.74355">
        <ele>555.4</ele>
        <time>2022-07-29T16:18:26Z</time>
      </trkpt>
      <trkpt lat="46.50695" lon="5.74359">
        <ele>555.6</ele>
        <time>2022-07-29T16:18:27Z</time>
      </trkpt>
      <trkpt lat="46.50698" lon="5.74364">
        <ele>555.6</ele>
        <time>2022-07-29T16:18:28Z</time>
      </trkpt>
      <trkpt lat="46.507" lon="5.74369">
        <ele>555.8</ele>
        <time>2022-07-29T16:18:29Z</time>
      </trkpt>
      <trkpt lat="46.50703" lon="5.74374">
        <ele>555.8</ele>
        <time>2022-07-29T16:18:30Z</time>
      </trkpt>
      <trkpt lat="46.50705" lon="5.74379">
        <ele>556.2</ele>
        <time>2022-07-29T16:18:31Z</time>
      </trkpt>
      <trkpt lat="46.50707" lon="5.74383">
        <ele>556.2</ele>
        <time>2022-07-29T16:18:32Z</time>
      </trkpt>
      <trkpt lat="46.50709" lon="5.74388">
        <ele>556.4</ele>
        <time>2022-07-29T16:18:33Z</time>
      </trkpt>
      <trkpt lat="46.50711" lon="5.74393">
        <ele>556.4</ele>
        <time>2022-07-29T16:18:34Z</time>
      </trkpt>
      <trkpt lat="46.50713" lon="5.74398">
        <ele>556.6</ele>
        <time>2022-07-29T16:18:35Z</time>
      </trkpt>
      <trkpt lat="46.50714" lon="5.74402">
        <ele>556.6</ele>
        <time>2022-07-29T16:18:36Z</time>
      </trkpt>
      <trkpt lat="46.50716" lon="5.74408">
        <ele>557</ele>
        <time>2022-07-29T16:18:37Z</time>
      </trkpt>
      <trkpt lat="46.50718" lon="5.74413">
        <ele>557</ele>
        <time>2022-07-29T16:18:38Z</time>
      </trkpt>
      <trkpt lat="46.5072" lon="5.74418">
        <ele>557.4</ele>
        <time>2022-07-29T16:18:39Z</time>
      </trkpt>
      <trkpt lat="46.50722" lon="5.74423">
        <ele>557.6</ele>
        <time>2022-07-29T16:18:40Z</time>
      </trkpt>
      <trkpt lat="46.50724" lon="5.74429">
        <ele>557.8</ele>
        <time>2022-07-29T16:18:41Z</time>
      </trkpt>
      <trkpt lat="46.50728" lon="5.74439">
        <ele>558.2</ele>
        <time>2022-07-29T16:18:42Z</time>
      </trkpt>
      <trkpt lat="46.5073" lon="5.74443">
        <ele>558.6</ele>
        <time>2022-07-29T16:18:44Z</time>
      </trkpt>
      <trkpt lat="46.50732" lon="5.74448">
        <ele>558.6</ele>
        <time>2022-07-29T16:18:45Z</time>
      </trkpt>
      <trkpt lat="46.50734" lon="5.74453">
        <ele>558.8</ele>
        <time>2022-07-29T16:18:46Z</time>
      </trkpt>
      <trkpt lat="46.50736" lon="5.74458">
        <ele>558.8</ele>
        <time>2022-07-29T16:18:47Z</time>
      </trkpt>
      <trkpt lat="46.50737" lon="5.74462">
        <ele>559.2</ele>
        <time>2022-07-29T16:18:48Z</time>
      </trkpt>
      <trkpt lat="46.50739" lon="5.74467">
        <ele>559.2</ele>
        <time>2022-07-29T16:18:49Z</time>
      </trkpt>
      <trkpt lat="46.50741" lon="5.74472">
        <ele>559.2</ele>
        <time>2022-07-29T16:18:50Z</time>
      </trkpt>
      <trkpt lat="46.50743" lon="5.74477">
        <ele>559.4</ele>
        <time>2022-07-29T16:18:51Z</time>
      </trkpt>
      <trkpt lat="46.50744" lon="5.74482">
        <ele>559.4</ele>
        <time>2022-07-29T16:18:52Z</time>
      </trkpt>
      <trkpt lat="46.50746" lon="5.74486">
        <ele>559.8</ele>
        <time>2022-07-29T16:18:53Z</time>
      </trkpt>
      <trkpt lat="46.50748" lon="5.74491">
        <ele>559.8</ele>
        <time>2022-07-29T16:18:54Z</time>
      </trkpt>
      <trkpt lat="46.5075" lon="5.74496">
        <ele>560</ele>
        <time>2022-07-29T16:18:55Z</time>
      </trkpt>
      <trkpt lat="46.50752" lon="5.74501">
        <ele>560</ele>
        <time>2022-07-29T16:18:56Z</time>
      </trkpt>
      <trkpt lat="46.50754" lon="5.74506">
        <ele>560</ele>
        <time>2022-07-29T16:18:57Z</time>
      </trkpt>
      <trkpt lat="46.50756" lon="5.74511">
        <ele>560.4</ele>
        <time>2022-07-29T16:18:58Z</time>
      </trkpt>
      <trkpt lat="46.50758" lon="5.74516">
        <ele>560.8</ele>
        <time>2022-07-29T16:18:59Z</time>
      </trkpt>
      <trkpt lat="46.5076" lon="5.74521">
        <ele>560.8</ele>
        <time>2022-07-29T16:19:00Z</time>
      </trkpt>
      <trkpt lat="46.50762" lon="5.74526">
        <ele>561</ele>
        <time>2022-07-29T16:19:01Z</time>
      </trkpt>
      <trkpt lat="46.50764" lon="5.74531">
        <ele>561</ele>
        <time>2022-07-29T16:19:02Z</time>
      </trkpt>
      <trkpt lat="46.50766" lon="5.74537">
        <ele>561.4</ele>
        <time>2022-07-29T16:19:03Z</time>
      </trkpt>
      <trkpt lat="46.50768" lon="5.74542">
        <ele>561.4</ele>
        <time>2022-07-29T16:19:04Z</time>
      </trkpt>
      <trkpt lat="46.5077" lon="5.74547">
        <ele>561.8</ele>
        <time>2022-07-29T16:19:05Z</time>
      </trkpt>
      <trkpt lat="46.50772" lon="5.74552">
        <ele>562</ele>
        <time>2022-07-29T16:19:06Z</time>
      </trkpt>
      <trkpt lat="46.50774" lon="5.74558">
        <ele>562</ele>
        <time>2022-07-29T16:19:07Z</time>
      </trkpt>
      <trkpt lat="46.50776" lon="5.74563">
        <ele>562.2</ele>
        <time>2022-07-29T16:19:08Z</time>
      </trkpt>
      <trkpt lat="46.50778" lon="5.74568">
        <ele>562.4</ele>
        <time>2022-07-29T16:19:09Z</time>
      </trkpt>
      <trkpt lat="46.5078" lon="5.74573">
        <ele>562.4</ele>
        <time>2022-07-29T16:19:10Z</time>
      </trkpt>
      <trkpt lat="46.50781" lon="5.74578">
        <ele>562.6</ele>
        <time>2022-07-29T16:19:11Z</time>
      </trkpt>
      <trkpt lat="46.50783" lon="5.74583">
        <ele>562.6</ele>
        <time>2022-07-29T16:19:12Z</time>
      </trkpt>
      <trkpt lat="46.50785" lon="5.74588">
        <ele>563</ele>
        <time>2022-07-29T16:19:13Z</time>
      </trkpt>
      <trkpt lat="46.50787" lon="5.74593">
        <ele>563.2</ele>
        <time>2022-07-29T16:19:14Z</time>
      </trkpt>
      <trkpt lat="46.50789" lon="5.74598">
        <ele>563.4</ele>
        <time>2022-07-29T16:19:15Z</time>
      </trkpt>
      <trkpt lat="46.50791" lon="5.74603">
        <ele>563.4</ele>
        <time>2022-07-29T16:19:16Z</time>
      </trkpt>
      <trkpt lat="46.50793" lon="5.74608">
        <ele>563.8</ele>
        <time>2022-07-29T16:19:17Z</time>
      </trkpt>
      <trkpt lat="46.50795" lon="5.74613">
        <ele>564</ele>
        <time>2022-07-29T16:19:18Z</time>
      </trkpt>
      <trkpt lat="46.50796" lon="5.74618">
        <ele>564</ele>
        <time>2022-07-29T16:19:19Z</time>
      </trkpt>
      <trkpt lat="46.50798" lon="5.74623">
        <ele>564.2</ele>
        <time>2022-07-29T16:19:20Z</time>
      </trkpt>
      <trkpt lat="46.508" lon="5.74628">
        <ele>564.2</ele>
        <time>2022-07-29T16:19:21Z</time>
      </trkpt>
      <trkpt lat="46.50802" lon="5.74634">
        <ele>564.6</ele>
        <time>2022-07-29T16:19:22Z</time>
      </trkpt>
      <trkpt lat="46.50804" lon="5.74639">
        <ele>564.6</ele>
        <time>2022-07-29T16:19:23Z</time>
      </trkpt>
      <trkpt lat="46.50806" lon="5.74644">
        <ele>564.8</ele>
        <time>2022-07-29T16:19:24Z</time>
      </trkpt>
      <trkpt lat="46.50808" lon="5.74649">
        <ele>564.8</ele>
        <time>2022-07-29T16:19:25Z</time>
      </trkpt>
      <trkpt lat="46.50811" lon="5.74654">
        <ele>565</ele>
        <time>2022-07-29T16:19:26Z</time>
      </trkpt>
      <trkpt lat="46.50813" lon="5.74659">
        <ele>565</ele>
        <time>2022-07-29T16:19:27Z</time>
      </trkpt>
      <trkpt lat="46.50816" lon="5.74664">
        <ele>565</ele>
        <time>2022-07-29T16:19:28Z</time>
      </trkpt>
      <trkpt lat="46.50819" lon="5.74669">
        <ele>565.4</ele>
        <time>2022-07-29T16:19:29Z</time>
      </trkpt>
      <trkpt lat="46.50821" lon="5.74674">
        <ele>565.4</ele>
        <time>2022-07-29T16:19:30Z</time>
      </trkpt>
      <trkpt lat="46.50823" lon="5.74678">
        <ele>565.4</ele>
        <time>2022-07-29T16:19:31Z</time>
      </trkpt>
      <trkpt lat="46.50826" lon="5.74683">
        <ele>565.6</ele>
        <time>2022-07-29T16:19:32Z</time>
      </trkpt>
      <trkpt lat="46.50828" lon="5.74688">
        <ele>565.6</ele>
        <time>2022-07-29T16:19:33Z</time>
      </trkpt>
      <trkpt lat="46.5083" lon="5.74692">
        <ele>565.6</ele>
        <time>2022-07-29T16:19:34Z</time>
      </trkpt>
      <trkpt lat="46.50833" lon="5.74697">
        <ele>565.6</ele>
        <time>2022-07-29T16:19:35Z</time>
      </trkpt>
      <trkpt lat="46.50835" lon="5.74703">
        <ele>565.6</ele>
        <time>2022-07-29T16:19:36Z</time>
      </trkpt>
      <trkpt lat="46.50838" lon="5.74708">
        <ele>565.6</ele>
        <time>2022-07-29T16:19:37Z</time>
      </trkpt>
      <trkpt lat="46.50842" lon="5.74713">
        <ele>565.6</ele>
        <time>2022-07-29T16:19:38Z</time>
      </trkpt>
      <trkpt lat="46.50845" lon="5.74718">
        <ele>565.6</ele>
        <time>2022-07-29T16:19:39Z</time>
      </trkpt>
      <trkpt lat="46.50848" lon="5.74723">
        <ele>565.6</ele>
        <time>2022-07-29T16:19:40Z</time>
      </trkpt>
      <trkpt lat="46.50852" lon="5.74727">
        <ele>565.6</ele>
        <time>2022-07-29T16:19:41Z</time>
      </trkpt>
      <trkpt lat="46.50856" lon="5.74732">
        <ele>565.6</ele>
        <time>2022-07-29T16:19:42Z</time>
      </trkpt>
      <trkpt lat="46.5086" lon="5.74737">
        <ele>565.6</ele>
        <time>2022-07-29T16:19:43Z</time>
      </trkpt>
      <trkpt lat="46.50865" lon="5.74742">
        <ele>565.6</ele>
        <time>2022-07-29T16:19:44Z</time>
      </trkpt>
      <trkpt lat="46.50869" lon="5.74748">
        <ele>565.4</ele>
        <time>2022-07-29T16:19:45Z</time>
      </trkpt>
      <trkpt lat="46.50874" lon="5.74754">
        <ele>565.4</ele>
        <time>2022-07-29T16:19:46Z</time>
      </trkpt>
      <trkpt lat="46.50879" lon="5.74759">
        <ele>565.4</ele>
        <time>2022-07-29T16:19:47Z</time>
      </trkpt>
      <trkpt lat="46.50884" lon="5.74765">
        <ele>565.4</ele>
        <time>2022-07-29T16:19:48Z</time>
      </trkpt>
      <trkpt lat="46.50889" lon="5.74771">
        <ele>565.2</ele>
        <time>2022-07-29T16:19:49Z</time>
      </trkpt>
      <trkpt lat="46.50894" lon="5.74777">
        <ele>565.2</ele>
        <time>2022-07-29T16:19:50Z</time>
      </trkpt>
      <trkpt lat="46.50899" lon="5.74783">
        <ele>565</ele>
        <time>2022-07-29T16:19:51Z</time>
      </trkpt>
      <trkpt lat="46.50904" lon="5.74789">
        <ele>565</ele>
        <time>2022-07-29T16:19:52Z</time>
      </trkpt>
      <trkpt lat="46.5091" lon="5.74796">
        <ele>564.8</ele>
        <time>2022-07-29T16:19:53Z</time>
      </trkpt>
      <trkpt lat="46.50916" lon="5.74802">
        <ele>564.8</ele>
        <time>2022-07-29T16:19:54Z</time>
      </trkpt>
      <trkpt lat="46.50922" lon="5.74808">
        <ele>564.6</ele>
        <time>2022-07-29T16:19:55Z</time>
      </trkpt>
      <trkpt lat="46.50929" lon="5.74813">
        <ele>564.6</ele>
        <time>2022-07-29T16:19:56Z</time>
      </trkpt>
      <trkpt lat="46.50935" lon="5.74819">
        <ele>564.2</ele>
        <time>2022-07-29T16:19:57Z</time>
      </trkpt>
      <trkpt lat="46.50942" lon="5.74824">
        <ele>564.2</ele>
        <time>2022-07-29T16:19:58Z</time>
      </trkpt>
      <trkpt lat="46.50949" lon="5.74829">
        <ele>564.2</ele>
        <time>2022-07-29T16:19:59Z</time>
      </trkpt>
      <trkpt lat="46.50956" lon="5.74833">
        <ele>564</ele>
        <time>2022-07-29T16:20:00Z</time>
      </trkpt>
      <trkpt lat="46.50963" lon="5.74837">
        <ele>564</ele>
        <time>2022-07-29T16:20:01Z</time>
      </trkpt>
      <trkpt lat="46.5097" lon="5.74841">
        <ele>563.8</ele>
        <time>2022-07-29T16:20:02Z</time>
      </trkpt>
      <trkpt lat="46.50978" lon="5.74845">
        <ele>563.8</ele>
        <time>2022-07-29T16:20:03Z</time>
      </trkpt>
      <trkpt lat="46.50985" lon="5.74849">
        <ele>563.8</ele>
        <time>2022-07-29T16:20:04Z</time>
      </trkpt>
      <trkpt lat="46.50992" lon="5.74853">
        <ele>563.8</ele>
        <time>2022-07-29T16:20:05Z</time>
      </trkpt>
      <trkpt lat="46.50998" lon="5.74857">
        <ele>563.8</ele>
        <time>2022-07-29T16:20:06Z</time>
      </trkpt>
      <trkpt lat="46.51005" lon="5.74861">
        <ele>563.8</ele>
        <time>2022-07-29T16:20:07Z</time>
      </trkpt>
      <trkpt lat="46.51011" lon="5.74864">
        <ele>563.8</ele>
        <time>2022-07-29T16:20:08Z</time>
      </trkpt>
      <trkpt lat="46.51018" lon="5.74868">
        <ele>563.8</ele>
        <time>2022-07-29T16:20:09Z</time>
      </trkpt>
      <trkpt lat="46.51025" lon="5.74872">
        <ele>563.8</ele>
        <time>2022-07-29T16:20:10Z</time>
      </trkpt>
      <trkpt lat="46.51031" lon="5.74876">
        <ele>564</ele>
        <time>2022-07-29T16:20:11Z</time>
      </trkpt>
      <trkpt lat="46.51037" lon="5.7488">
        <ele>564</ele>
        <time>2022-07-29T16:20:12Z</time>
      </trkpt>
      <trkpt lat="46.51043" lon="5.74883">
        <ele>564.2</ele>
        <time>2022-07-29T16:20:13Z</time>
      </trkpt>
      <trkpt lat="46.51049" lon="5.74886">
        <ele>564.2</ele>
        <time>2022-07-29T16:20:14Z</time>
      </trkpt>
      <trkpt lat="46.51054" lon="5.7489">
        <ele>564.6</ele>
        <time>2022-07-29T16:20:15Z</time>
      </trkpt>
      <trkpt lat="46.51059" lon="5.74893">
        <ele>564.6</ele>
        <time>2022-07-29T16:20:16Z</time>
      </trkpt>
      <trkpt lat="46.51064" lon="5.74897">
        <ele>564.8</ele>
        <time>2022-07-29T16:20:17Z</time>
      </trkpt>
      <trkpt lat="46.5107" lon="5.74901">
        <ele>564.8</ele>
        <time>2022-07-29T16:20:18Z</time>
      </trkpt>
      <trkpt lat="46.51075" lon="5.74904">
        <ele>565.2</ele>
        <time>2022-07-29T16:20:19Z</time>
      </trkpt>
      <trkpt lat="46.5108" lon="5.74907">
        <ele>565.2</ele>
        <time>2022-07-29T16:20:20Z</time>
      </trkpt>
      <trkpt lat="46.51084" lon="5.7491">
        <ele>565.6</ele>
        <time>2022-07-29T16:20:21Z</time>
      </trkpt>
      <trkpt lat="46.51089" lon="5.74913">
        <ele>565.6</ele>
        <time>2022-07-29T16:20:22Z</time>
      </trkpt>
      <trkpt lat="46.51094" lon="5.74916">
        <ele>565.8</ele>
        <time>2022-07-29T16:20:23Z</time>
      </trkpt>
      <trkpt lat="46.51098" lon="5.74919">
        <ele>565.8</ele>
        <time>2022-07-29T16:20:24Z</time>
      </trkpt>
      <trkpt lat="46.51103" lon="5.74921">
        <ele>565.8</ele>
        <time>2022-07-29T16:20:25Z</time>
      </trkpt>
      <trkpt lat="46.51107" lon="5.74923">
        <ele>566.2</ele>
        <time>2022-07-29T16:20:26Z</time>
      </trkpt>
      <trkpt lat="46.51111" lon="5.74926">
        <ele>566.2</ele>
        <time>2022-07-29T16:20:27Z</time>
      </trkpt>
      <trkpt lat="46.51115" lon="5.74928">
        <ele>566.4</ele>
        <time>2022-07-29T16:20:28Z</time>
      </trkpt>
      <trkpt lat="46.5112" lon="5.7493">
        <ele>566.4</ele>
        <time>2022-07-29T16:20:29Z</time>
      </trkpt>
      <trkpt lat="46.51124" lon="5.74931">
        <ele>566.6</ele>
        <time>2022-07-29T16:20:30Z</time>
      </trkpt>
      <trkpt lat="46.51129" lon="5.74932">
        <ele>566.6</ele>
        <time>2022-07-29T16:20:31Z</time>
      </trkpt>
      <trkpt lat="46.51138" lon="5.74934">
        <ele>566.8</ele>
        <time>2022-07-29T16:20:32Z</time>
      </trkpt>
      <trkpt lat="46.51143" lon="5.74935">
        <ele>566.8</ele>
        <time>2022-07-29T16:20:34Z</time>
      </trkpt>
      <trkpt lat="46.51147" lon="5.74936">
        <ele>567.2</ele>
        <time>2022-07-29T16:20:35Z</time>
      </trkpt>
      <trkpt lat="46.51152" lon="5.74936">
        <ele>567.2</ele>
        <time>2022-07-29T16:20:36Z</time>
      </trkpt>
      <trkpt lat="46.51156" lon="5.74936">
        <ele>567.2</ele>
        <time>2022-07-29T16:20:37Z</time>
      </trkpt>
      <trkpt lat="46.5116" lon="5.74936">
        <ele>567.4</ele>
        <time>2022-07-29T16:20:38Z</time>
      </trkpt>
      <trkpt lat="46.51165" lon="5.74936">
        <ele>567.4</ele>
        <time>2022-07-29T16:20:39Z</time>
      </trkpt>
      <trkpt lat="46.5117" lon="5.74935">
        <ele>567.4</ele>
        <time>2022-07-29T16:20:40Z</time>
      </trkpt>
      <trkpt lat="46.51174" lon="5.74935">
        <ele>567.4</ele>
        <time>2022-07-29T16:20:41Z</time>
      </trkpt>
      <trkpt lat="46.51179" lon="5.74935">
        <ele>567.8</ele>
        <time>2022-07-29T16:20:42Z</time>
      </trkpt>
      <trkpt lat="46.51184" lon="5.74936">
        <ele>567.8</ele>
        <time>2022-07-29T16:20:43Z</time>
      </trkpt>
      <trkpt lat="46.51188" lon="5.74936">
        <ele>567.8</ele>
        <time>2022-07-29T16:20:44Z</time>
      </trkpt>
      <trkpt lat="46.51193" lon="5.74936">
        <ele>567.8</ele>
        <time>2022-07-29T16:20:45Z</time>
      </trkpt>
      <trkpt lat="46.51198" lon="5.74935">
        <ele>568</ele>
        <time>2022-07-29T16:20:46Z</time>
      </trkpt>
      <trkpt lat="46.51202" lon="5.74935">
        <ele>568</ele>
        <time>2022-07-29T16:20:47Z</time>
      </trkpt>
      <trkpt lat="46.51207" lon="5.74934">
        <ele>568.2</ele>
        <time>2022-07-29T16:20:48Z</time>
      </trkpt>
      <trkpt lat="46.51212" lon="5.74934">
        <ele>568.2</ele>
        <time>2022-07-29T16:20:49Z</time>
      </trkpt>
      <trkpt lat="46.51216" lon="5.74933">
        <ele>568.2</ele>
        <time>2022-07-29T16:20:50Z</time>
      </trkpt>
      <trkpt lat="46.51221" lon="5.74933">
        <ele>568.6</ele>
        <time>2022-07-29T16:20:51Z</time>
      </trkpt>
      <trkpt lat="46.51226" lon="5.74932">
        <ele>568.6</ele>
        <time>2022-07-29T16:20:52Z</time>
      </trkpt>
      <trkpt lat="46.51231" lon="5.74931">
        <ele>568.6</ele>
        <time>2022-07-29T16:20:53Z</time>
      </trkpt>
      <trkpt lat="46.51235" lon="5.7493">
        <ele>568.6</ele>
        <time>2022-07-29T16:20:54Z</time>
      </trkpt>
      <trkpt lat="46.5124" lon="5.74929">
        <ele>568.8</ele>
        <time>2022-07-29T16:20:55Z</time>
      </trkpt>
      <trkpt lat="46.51245" lon="5.74927">
        <ele>568.8</ele>
        <time>2022-07-29T16:20:56Z</time>
      </trkpt>
      <trkpt lat="46.5125" lon="5.74925">
        <ele>568.8</ele>
        <time>2022-07-29T16:20:57Z</time>
      </trkpt>
      <trkpt lat="46.51255" lon="5.74923">
        <ele>568.8</ele>
        <time>2022-07-29T16:20:58Z</time>
      </trkpt>
      <trkpt lat="46.51259" lon="5.74921">
        <ele>569</ele>
        <time>2022-07-29T16:20:59Z</time>
      </trkpt>
      <trkpt lat="46.51264" lon="5.74919">
        <ele>569</ele>
        <time>2022-07-29T16:21:00Z</time>
      </trkpt>
      <trkpt lat="46.51268" lon="5.74917">
        <ele>569</ele>
        <time>2022-07-29T16:21:01Z</time>
      </trkpt>
      <trkpt lat="46.51273" lon="5.74915">
        <ele>569</ele>
        <time>2022-07-29T16:21:02Z</time>
      </trkpt>
      <trkpt lat="46.51278" lon="5.74913">
        <ele>569</ele>
        <time>2022-07-29T16:21:03Z</time>
      </trkpt>
      <trkpt lat="46.51283" lon="5.74912">
        <ele>569</ele>
        <time>2022-07-29T16:21:04Z</time>
      </trkpt>
      <trkpt lat="46.51288" lon="5.74912">
        <ele>569</ele>
        <time>2022-07-29T16:21:05Z</time>
      </trkpt>
      <trkpt lat="46.51293" lon="5.74911">
        <ele>569</ele>
        <time>2022-07-29T16:21:06Z</time>
      </trkpt>
      <trkpt lat="46.51298" lon="5.74911">
        <ele>569.4</ele>
        <time>2022-07-29T16:21:07Z</time>
      </trkpt>
      <trkpt lat="46.51303" lon="5.74912">
        <ele>569.4</ele>
        <time>2022-07-29T16:21:08Z</time>
      </trkpt>
      <trkpt lat="46.51308" lon="5.74913">
        <ele>569.4</ele>
        <time>2022-07-29T16:21:09Z</time>
      </trkpt>
      <trkpt lat="46.51313" lon="5.74914">
        <ele>569.4</ele>
        <time>2022-07-29T16:21:10Z</time>
      </trkpt>
      <trkpt lat="46.51317" lon="5.74915">
        <ele>569.6</ele>
        <time>2022-07-29T16:21:11Z</time>
      </trkpt>
      <trkpt lat="46.51322" lon="5.74917">
        <ele>569.6</ele>
        <time>2022-07-29T16:21:12Z</time>
      </trkpt>
      <trkpt lat="46.51326" lon="5.74919">
        <ele>569.8</ele>
        <time>2022-07-29T16:21:13Z</time>
      </trkpt>
      <trkpt lat="46.51331" lon="5.74922">
        <ele>569.8</ele>
        <time>2022-07-29T16:21:14Z</time>
      </trkpt>
      <trkpt lat="46.51336" lon="5.74924">
        <ele>569.8</ele>
        <time>2022-07-29T16:21:15Z</time>
      </trkpt>
      <trkpt lat="46.51341" lon="5.74927">
        <ele>570</ele>
        <time>2022-07-29T16:21:16Z</time>
      </trkpt>
      <trkpt lat="46.51346" lon="5.74929">
        <ele>570</ele>
        <time>2022-07-29T16:21:17Z</time>
      </trkpt>
      <trkpt lat="46.51351" lon="5.74932">
        <ele>570</ele>
        <time>2022-07-29T16:21:18Z</time>
      </trkpt>
      <trkpt lat="46.51355" lon="5.74935">
        <ele>570</ele>
        <time>2022-07-29T16:21:19Z</time>
      </trkpt>
      <trkpt lat="46.5136" lon="5.74937">
        <ele>570</ele>
        <time>2022-07-29T16:21:20Z</time>
      </trkpt>
      <trkpt lat="46.51365" lon="5.7494">
        <ele>570.2</ele>
        <time>2022-07-29T16:21:21Z</time>
      </trkpt>
      <trkpt lat="46.5137" lon="5.74943">
        <ele>570.2</ele>
        <time>2022-07-29T16:21:22Z</time>
      </trkpt>
      <trkpt lat="46.51375" lon="5.74945">
        <ele>570.6</ele>
        <time>2022-07-29T16:21:23Z</time>
      </trkpt>
      <trkpt lat="46.5138" lon="5.74947">
        <ele>570.6</ele>
        <time>2022-07-29T16:21:24Z</time>
      </trkpt>
      <trkpt lat="46.51385" lon="5.74948">
        <ele>570.8</ele>
        <time>2022-07-29T16:21:25Z</time>
      </trkpt>
      <trkpt lat="46.5139" lon="5.7495">
        <ele>570.8</ele>
        <time>2022-07-29T16:21:26Z</time>
      </trkpt>
      <trkpt lat="46.51395" lon="5.74951">
        <ele>570.8</ele>
        <time>2022-07-29T16:21:27Z</time>
      </trkpt>
      <trkpt lat="46.514" lon="5.74951">
        <ele>571</ele>
        <time>2022-07-29T16:21:28Z</time>
      </trkpt>
      <trkpt lat="46.51406" lon="5.74951">
        <ele>571</ele>
        <time>2022-07-29T16:21:29Z</time>
      </trkpt>
      <trkpt lat="46.51411" lon="5.74951">
        <ele>571</ele>
        <time>2022-07-29T16:21:30Z</time>
      </trkpt>
      <trkpt lat="46.51416" lon="5.7495">
        <ele>571</ele>
        <time>2022-07-29T16:21:31Z</time>
      </trkpt>
      <trkpt lat="46.51422" lon="5.74949">
        <ele>571</ele>
        <time>2022-07-29T16:21:32Z</time>
      </trkpt>
      <trkpt lat="46.51428" lon="5.74948">
        <ele>571</ele>
        <time>2022-07-29T16:21:33Z</time>
      </trkpt>
      <trkpt lat="46.51434" lon="5.74947">
        <ele>571</ele>
        <time>2022-07-29T16:21:34Z</time>
      </trkpt>
      <trkpt lat="46.5144" lon="5.74945">
        <ele>571</ele>
        <time>2022-07-29T16:21:35Z</time>
      </trkpt>
      <trkpt lat="46.51446" lon="5.74943">
        <ele>571</ele>
        <time>2022-07-29T16:21:36Z</time>
      </trkpt>
      <trkpt lat="46.51452" lon="5.74941">
        <ele>571</ele>
        <time>2022-07-29T16:21:37Z</time>
      </trkpt>
      <trkpt lat="46.51458" lon="5.74939">
        <ele>571</ele>
        <time>2022-07-29T16:21:38Z</time>
      </trkpt>
      <trkpt lat="46.51464" lon="5.74937">
        <ele>571</ele>
        <time>2022-07-29T16:21:39Z</time>
      </trkpt>
      <trkpt lat="46.5147" lon="5.74936">
        <ele>571</ele>
        <time>2022-07-29T16:21:40Z</time>
      </trkpt>
      <trkpt lat="46.51476" lon="5.74934">
        <ele>571</ele>
        <time>2022-07-29T16:21:41Z</time>
      </trkpt>
      <trkpt lat="46.51482" lon="5.74932">
        <ele>571</ele>
        <time>2022-07-29T16:21:42Z</time>
      </trkpt>
      <trkpt lat="46.51489" lon="5.7493">
        <ele>571</ele>
        <time>2022-07-29T16:21:43Z</time>
      </trkpt>
      <trkpt lat="46.51495" lon="5.74928">
        <ele>571</ele>
        <time>2022-07-29T16:21:44Z</time>
      </trkpt>
      <trkpt lat="46.51501" lon="5.74926">
        <ele>571</ele>
        <time>2022-07-29T16:21:45Z</time>
      </trkpt>
      <trkpt lat="46.51508" lon="5.74923">
        <ele>571</ele>
        <time>2022-07-29T16:21:46Z</time>
      </trkpt>
      <trkpt lat="46.51515" lon="5.74921">
        <ele>571</ele>
        <time>2022-07-29T16:21:47Z</time>
      </trkpt>
      <trkpt lat="46.51521" lon="5.74919">
        <ele>570.8</ele>
        <time>2022-07-29T16:21:48Z</time>
      </trkpt>
      <trkpt lat="46.51528" lon="5.74917">
        <ele>570.8</ele>
        <time>2022-07-29T16:21:49Z</time>
      </trkpt>
      <trkpt lat="46.51535" lon="5.74915">
        <ele>570.8</ele>
        <time>2022-07-29T16:21:50Z</time>
      </trkpt>
      <trkpt lat="46.51541" lon="5.74913">
        <ele>570.8</ele>
        <time>2022-07-29T16:21:51Z</time>
      </trkpt>
      <trkpt lat="46.51548" lon="5.74911">
        <ele>570.8</ele>
        <time>2022-07-29T16:21:52Z</time>
      </trkpt>
      <trkpt lat="46.51555" lon="5.74909">
        <ele>570.8</ele>
        <time>2022-07-29T16:21:53Z</time>
      </trkpt>
      <trkpt lat="46.51561" lon="5.74907">
        <ele>570.8</ele>
        <time>2022-07-29T16:21:54Z</time>
      </trkpt>
      <trkpt lat="46.51568" lon="5.74905">
        <ele>570.8</ele>
        <time>2022-07-29T16:21:55Z</time>
      </trkpt>
      <trkpt lat="46.51575" lon="5.74903">
        <ele>570.8</ele>
        <time>2022-07-29T16:21:56Z</time>
      </trkpt>
      <trkpt lat="46.51582" lon="5.749">
        <ele>570.8</ele>
        <time>2022-07-29T16:21:57Z</time>
      </trkpt>
      <trkpt lat="46.51589" lon="5.74898">
        <ele>570.6</ele>
        <time>2022-07-29T16:21:58Z</time>
      </trkpt>
      <trkpt lat="46.51596" lon="5.74897">
        <ele>570.6</ele>
        <time>2022-07-29T16:21:59Z</time>
      </trkpt>
      <trkpt lat="46.51603" lon="5.74895">
        <ele>570.6</ele>
        <time>2022-07-29T16:22:00Z</time>
      </trkpt>
      <trkpt lat="46.5161" lon="5.74894">
        <ele>570.2</ele>
        <time>2022-07-29T16:22:01Z</time>
      </trkpt>
      <trkpt lat="46.51618" lon="5.74893">
        <ele>570.2</ele>
        <time>2022-07-29T16:22:02Z</time>
      </trkpt>
      <trkpt lat="46.51625" lon="5.74891">
        <ele>570</ele>
        <time>2022-07-29T16:22:03Z</time>
      </trkpt>
      <trkpt lat="46.51633" lon="5.74889">
        <ele>570</ele>
        <time>2022-07-29T16:22:04Z</time>
      </trkpt>
      <trkpt lat="46.5164" lon="5.74888">
        <ele>569.6</ele>
        <time>2022-07-29T16:22:05Z</time>
      </trkpt>
      <trkpt lat="46.51648" lon="5.74886">
        <ele>569.6</ele>
        <time>2022-07-29T16:22:06Z</time>
      </trkpt>
      <trkpt lat="46.51656" lon="5.74885">
        <ele>569.6</ele>
        <time>2022-07-29T16:22:07Z</time>
      </trkpt>
      <trkpt lat="46.51663" lon="5.74884">
        <ele>569.4</ele>
        <time>2022-07-29T16:22:08Z</time>
      </trkpt>
      <trkpt lat="46.51671" lon="5.74883">
        <ele>569.4</ele>
        <time>2022-07-29T16:22:09Z</time>
      </trkpt>
      <trkpt lat="46.51679" lon="5.74882">
        <ele>569.2</ele>
        <time>2022-07-29T16:22:10Z</time>
      </trkpt>
      <trkpt lat="46.51687" lon="5.74882">
        <ele>569.2</ele>
        <time>2022-07-29T16:22:11Z</time>
      </trkpt>
      <trkpt lat="46.51695" lon="5.74883">
        <ele>568.8</ele>
        <time>2022-07-29T16:22:12Z</time>
      </trkpt>
      <trkpt lat="46.51703" lon="5.74882">
        <ele>568.8</ele>
        <time>2022-07-29T16:22:13Z</time>
      </trkpt>
      <trkpt lat="46.51712" lon="5.74882">
        <ele>568.6</ele>
        <time>2022-07-29T16:22:14Z</time>
      </trkpt>
      <trkpt lat="46.51721" lon="5.74882">
        <ele>568.6</ele>
        <time>2022-07-29T16:22:15Z</time>
      </trkpt>
      <trkpt lat="46.5173" lon="5.74882">
        <ele>568.4</ele>
        <time>2022-07-29T16:22:16Z</time>
      </trkpt>
      <trkpt lat="46.51739" lon="5.74882">
        <ele>568</ele>
        <time>2022-07-29T16:22:17Z</time>
      </trkpt>
      <trkpt lat="46.51749" lon="5.74881">
        <ele>568</ele>
        <time>2022-07-29T16:22:18Z</time>
      </trkpt>
      <trkpt lat="46.51759" lon="5.74881">
        <ele>567.8</ele>
        <time>2022-07-29T16:22:19Z</time>
      </trkpt>
      <trkpt lat="46.51768" lon="5.74884">
        <ele>567.4</ele>
        <time>2022-07-29T16:22:20Z</time>
      </trkpt>
      <trkpt lat="46.51779" lon="5.74888">
        <ele>567.4</ele>
        <time>2022-07-29T16:22:21Z</time>
      </trkpt>
      <trkpt lat="46.51789" lon="5.74891">
        <ele>567.2</ele>
        <time>2022-07-29T16:22:22Z</time>
      </trkpt>
      <trkpt lat="46.51798" lon="5.74894">
        <ele>567.2</ele>
        <time>2022-07-29T16:22:23Z</time>
      </trkpt>
      <trkpt lat="46.51808" lon="5.74896">
        <ele>566.6</ele>
        <time>2022-07-29T16:22:24Z</time>
      </trkpt>
      <trkpt lat="46.51817" lon="5.74899">
        <ele>566.4</ele>
        <time>2022-07-29T16:22:25Z</time>
      </trkpt>
      <trkpt lat="46.51826" lon="5.74902">
        <ele>566.2</ele>
        <time>2022-07-29T16:22:26Z</time>
      </trkpt>
      <trkpt lat="46.51836" lon="5.74906">
        <ele>566</ele>
        <time>2022-07-29T16:22:27Z</time>
      </trkpt>
      <trkpt lat="46.51845" lon="5.74909">
        <ele>565.8</ele>
        <time>2022-07-29T16:22:28Z</time>
      </trkpt>
      <trkpt lat="46.51854" lon="5.74912">
        <ele>565.8</ele>
        <time>2022-07-29T16:22:29Z</time>
      </trkpt>
      <trkpt lat="46.51863" lon="5.74915">
        <ele>565.6</ele>
        <time>2022-07-29T16:22:30Z</time>
      </trkpt>
      <trkpt lat="46.51872" lon="5.74919">
        <ele>565.6</ele>
        <time>2022-07-29T16:22:31Z</time>
      </trkpt>
      <trkpt lat="46.51881" lon="5.74921">
        <ele>565.2</ele>
        <time>2022-07-29T16:22:32Z</time>
      </trkpt>
      <trkpt lat="46.5189" lon="5.74925">
        <ele>565.2</ele>
        <time>2022-07-29T16:22:33Z</time>
      </trkpt>
      <trkpt lat="46.51898" lon="5.74928">
        <ele>565</ele>
        <time>2022-07-29T16:22:34Z</time>
      </trkpt>
      <trkpt lat="46.51907" lon="5.74931">
        <ele>565</ele>
        <time>2022-07-29T16:22:35Z</time>
      </trkpt>
      <trkpt lat="46.51915" lon="5.74934">
        <ele>565</ele>
        <time>2022-07-29T16:22:36Z</time>
      </trkpt>
      <trkpt lat="46.51923" lon="5.74937">
        <ele>565</ele>
        <time>2022-07-29T16:22:37Z</time>
      </trkpt>
      <trkpt lat="46.51932" lon="5.74941">
        <ele>565</ele>
        <time>2022-07-29T16:22:38Z</time>
      </trkpt>
      <trkpt lat="46.5194" lon="5.74944">
        <ele>564.8</ele>
        <time>2022-07-29T16:22:39Z</time>
      </trkpt>
      <trkpt lat="46.51949" lon="5.74948">
        <ele>564.8</ele>
        <time>2022-07-29T16:22:40Z</time>
      </trkpt>
      <trkpt lat="46.51957" lon="5.74951">
        <ele>564.8</ele>
        <time>2022-07-29T16:22:41Z</time>
      </trkpt>
      <trkpt lat="46.51965" lon="5.74955">
        <ele>564.8</ele>
        <time>2022-07-29T16:22:42Z</time>
      </trkpt>
      <trkpt lat="46.51973" lon="5.74959">
        <ele>564.8</ele>
        <time>2022-07-29T16:22:43Z</time>
      </trkpt>
      <trkpt lat="46.5198" lon="5.74962">
        <ele>564.8</ele>
        <time>2022-07-29T16:22:44Z</time>
      </trkpt>
      <trkpt lat="46.51988" lon="5.74966">
        <ele>564.8</ele>
        <time>2022-07-29T16:22:45Z</time>
      </trkpt>
      <trkpt lat="46.51995" lon="5.74971">
        <ele>564.8</ele>
        <time>2022-07-29T16:22:46Z</time>
      </trkpt>
      <trkpt lat="46.52002" lon="5.74975">
        <ele>565</ele>
        <time>2022-07-29T16:22:47Z</time>
      </trkpt>
      <trkpt lat="46.52009" lon="5.74981">
        <ele>565</ele>
        <time>2022-07-29T16:22:48Z</time>
      </trkpt>
      <trkpt lat="46.52016" lon="5.74986">
        <ele>565</ele>
        <time>2022-07-29T16:22:49Z</time>
      </trkpt>
      <trkpt lat="46.52022" lon="5.74991">
        <ele>565</ele>
        <time>2022-07-29T16:22:50Z</time>
      </trkpt>
      <trkpt lat="46.52028" lon="5.74997">
        <ele>565</ele>
        <time>2022-07-29T16:22:51Z</time>
      </trkpt>
      <trkpt lat="46.52034" lon="5.75002">
        <ele>565.2</ele>
        <time>2022-07-29T16:22:52Z</time>
      </trkpt>
      <trkpt lat="46.5204" lon="5.75008">
        <ele>565.2</ele>
        <time>2022-07-29T16:22:53Z</time>
      </trkpt>
      <trkpt lat="46.52046" lon="5.75013">
        <ele>565.2</ele>
        <time>2022-07-29T16:22:54Z</time>
      </trkpt>
      <trkpt lat="46.52052" lon="5.75019">
        <ele>565.6</ele>
        <time>2022-07-29T16:22:55Z</time>
      </trkpt>
      <trkpt lat="46.52057" lon="5.75025">
        <ele>565.6</ele>
        <time>2022-07-29T16:22:56Z</time>
      </trkpt>
      <trkpt lat="46.52062" lon="5.75031">
        <ele>565.8</ele>
        <time>2022-07-29T16:22:57Z</time>
      </trkpt>
      <trkpt lat="46.52067" lon="5.75037">
        <ele>565.8</ele>
        <time>2022-07-29T16:22:58Z</time>
      </trkpt>
      <trkpt lat="46.52072" lon="5.75043">
        <ele>566</ele>
        <time>2022-07-29T16:22:59Z</time>
      </trkpt>
      <trkpt lat="46.52077" lon="5.75049">
        <ele>566</ele>
        <time>2022-07-29T16:23:00Z</time>
      </trkpt>
      <trkpt lat="46.52081" lon="5.75055">
        <ele>566.2</ele>
        <time>2022-07-29T16:23:01Z</time>
      </trkpt>
      <trkpt lat="46.52086" lon="5.75061">
        <ele>566.2</ele>
        <time>2022-07-29T16:23:02Z</time>
      </trkpt>
      <trkpt lat="46.52091" lon="5.75067">
        <ele>566.2</ele>
        <time>2022-07-29T16:23:03Z</time>
      </trkpt>
      <trkpt lat="46.52091" lon="5.75067">
        <ele>566.4</ele>
        <time>2022-07-29T16:23:04Z</time>
      </trkpt>
      <trkpt lat="46.52096" lon="5.75073">
        <ele>566.4</ele>
        <time>2022-07-29T16:23:05Z</time>
      </trkpt>
      <trkpt lat="46.521" lon="5.75078">
        <ele>566.8</ele>
        <time>2022-07-29T16:23:06Z</time>
      </trkpt>
      <trkpt lat="46.52105" lon="5.75083">
        <ele>566.8</ele>
        <time>2022-07-29T16:23:07Z</time>
      </trkpt>
      <trkpt lat="46.5211" lon="5.75087">
        <ele>567.2</ele>
        <time>2022-07-29T16:23:08Z</time>
      </trkpt>
      <trkpt lat="46.52115" lon="5.75092">
        <ele>567.2</ele>
        <time>2022-07-29T16:23:09Z</time>
      </trkpt>
      <trkpt lat="46.5212" lon="5.75096">
        <ele>567.4</ele>
        <time>2022-07-29T16:23:10Z</time>
      </trkpt>
      <trkpt lat="46.52124" lon="5.751">
        <ele>567.4</ele>
        <time>2022-07-29T16:23:11Z</time>
      </trkpt>
      <trkpt lat="46.5213" lon="5.75103">
        <ele>567.6</ele>
        <time>2022-07-29T16:23:12Z</time>
      </trkpt>
      <trkpt lat="46.52135" lon="5.75106">
        <ele>567.6</ele>
        <time>2022-07-29T16:23:13Z</time>
      </trkpt>
      <trkpt lat="46.5214" lon="5.75109">
        <ele>567.8</ele>
        <time>2022-07-29T16:23:14Z</time>
      </trkpt>
      <trkpt lat="46.52145" lon="5.75112">
        <ele>567.8</ele>
        <time>2022-07-29T16:23:15Z</time>
      </trkpt>
      <trkpt lat="46.5215" lon="5.75116">
        <ele>568</ele>
        <time>2022-07-29T16:23:16Z</time>
      </trkpt>
      <trkpt lat="46.52155" lon="5.75119">
        <ele>568</ele>
        <time>2022-07-29T16:23:17Z</time>
      </trkpt>
      <trkpt lat="46.52161" lon="5.75122">
        <ele>568.2</ele>
        <time>2022-07-29T16:23:18Z</time>
      </trkpt>
      <trkpt lat="46.52166" lon="5.75125">
        <ele>568.2</ele>
        <time>2022-07-29T16:23:19Z</time>
      </trkpt>
      <trkpt lat="46.52172" lon="5.75127">
        <ele>568.2</ele>
        <time>2022-07-29T16:23:20Z</time>
      </trkpt>
      <trkpt lat="46.52177" lon="5.75129">
        <ele>568.6</ele>
        <time>2022-07-29T16:23:21Z</time>
      </trkpt>
      <trkpt lat="46.52183" lon="5.75132">
        <ele>568.6</ele>
        <time>2022-07-29T16:23:22Z</time>
      </trkpt>
      <trkpt lat="46.52188" lon="5.75135">
        <ele>568.8</ele>
        <time>2022-07-29T16:23:23Z</time>
      </trkpt>
      <trkpt lat="46.52193" lon="5.75138">
        <ele>568.8</ele>
        <time>2022-07-29T16:23:24Z</time>
      </trkpt>
      <trkpt lat="46.52199" lon="5.75141">
        <ele>569.2</ele>
        <time>2022-07-29T16:23:25Z</time>
      </trkpt>
      <trkpt lat="46.52204" lon="5.75144">
        <ele>569.2</ele>
        <time>2022-07-29T16:23:26Z</time>
      </trkpt>
      <trkpt lat="46.5221" lon="5.75147">
        <ele>569.4</ele>
        <time>2022-07-29T16:23:27Z</time>
      </trkpt>
      <trkpt lat="46.52215" lon="5.7515">
        <ele>569.4</ele>
        <time>2022-07-29T16:23:28Z</time>
      </trkpt>
      <trkpt lat="46.5222" lon="5.75153">
        <ele>569.4</ele>
        <time>2022-07-29T16:23:29Z</time>
      </trkpt>
      <trkpt lat="46.52226" lon="5.75157">
        <ele>569.6</ele>
        <time>2022-07-29T16:23:30Z</time>
      </trkpt>
      <trkpt lat="46.52231" lon="5.7516">
        <ele>569.6</ele>
        <time>2022-07-29T16:23:31Z</time>
      </trkpt>
      <trkpt lat="46.52236" lon="5.75164">
        <ele>569.8</ele>
        <time>2022-07-29T16:23:32Z</time>
      </trkpt>
      <trkpt lat="46.52241" lon="5.75168">
        <ele>569.8</ele>
        <time>2022-07-29T16:23:33Z</time>
      </trkpt>
      <trkpt lat="46.52246" lon="5.75172">
        <ele>570.2</ele>
        <time>2022-07-29T16:23:34Z</time>
      </trkpt>
      <trkpt lat="46.52251" lon="5.75176">
        <ele>570.2</ele>
        <time>2022-07-29T16:23:35Z</time>
      </trkpt>
      <trkpt lat="46.52256" lon="5.7518">
        <ele>570.4</ele>
        <time>2022-07-29T16:23:36Z</time>
      </trkpt>
      <trkpt lat="46.52261" lon="5.75184">
        <ele>570.4</ele>
        <time>2022-07-29T16:23:37Z</time>
      </trkpt>
      <trkpt lat="46.52265" lon="5.75189">
        <ele>570.4</ele>
        <time>2022-07-29T16:23:38Z</time>
      </trkpt>
      <trkpt lat="46.5227" lon="5.75193">
        <ele>570.6</ele>
        <time>2022-07-29T16:23:39Z</time>
      </trkpt>
      <trkpt lat="46.52274" lon="5.75198">
        <ele>570.6</ele>
        <time>2022-07-29T16:23:40Z</time>
      </trkpt>
      <trkpt lat="46.52278" lon="5.75202">
        <ele>570.8</ele>
        <time>2022-07-29T16:23:41Z</time>
      </trkpt>
      <trkpt lat="46.52283" lon="5.75206">
        <ele>570.8</ele>
        <time>2022-07-29T16:23:42Z</time>
      </trkpt>
      <trkpt lat="46.52287" lon="5.7521">
        <ele>571.2</ele>
        <time>2022-07-29T16:23:43Z</time>
      </trkpt>
      <trkpt lat="46.52292" lon="5.75214">
        <ele>571.2</ele>
        <time>2022-07-29T16:23:44Z</time>
      </trkpt>
      <trkpt lat="46.52296" lon="5.75217">
        <ele>571.2</ele>
        <time>2022-07-29T16:23:45Z</time>
      </trkpt>
      <trkpt lat="46.52301" lon="5.75221">
        <ele>571.4</ele>
        <time>2022-07-29T16:23:46Z</time>
      </trkpt>
      <trkpt lat="46.52306" lon="5.75224">
        <ele>571.4</ele>
        <time>2022-07-29T16:23:47Z</time>
      </trkpt>
      <trkpt lat="46.5231" lon="5.75228">
        <ele>571.4</ele>
        <time>2022-07-29T16:23:48Z</time>
      </trkpt>
      <trkpt lat="46.52315" lon="5.75232">
        <ele>571.4</ele>
        <time>2022-07-29T16:23:49Z</time>
      </trkpt>
      <trkpt lat="46.5232" lon="5.75235">
        <ele>571.6</ele>
        <time>2022-07-29T16:23:50Z</time>
      </trkpt>
      <trkpt lat="46.52325" lon="5.75238">
        <ele>571.6</ele>
        <time>2022-07-29T16:23:51Z</time>
      </trkpt>
      <trkpt lat="46.5233" lon="5.75242">
        <ele>571.8</ele>
        <time>2022-07-29T16:23:52Z</time>
      </trkpt>
      <trkpt lat="46.52334" lon="5.75245">
        <ele>571.8</ele>
        <time>2022-07-29T16:23:53Z</time>
      </trkpt>
      <trkpt lat="46.52339" lon="5.75248">
        <ele>571.8</ele>
        <time>2022-07-29T16:23:54Z</time>
      </trkpt>
      <trkpt lat="46.52344" lon="5.75251">
        <ele>572</ele>
        <time>2022-07-29T16:23:55Z</time>
      </trkpt>
      <trkpt lat="46.52349" lon="5.75254">
        <ele>572</ele>
        <time>2022-07-29T16:23:56Z</time>
      </trkpt>
      <trkpt lat="46.52354" lon="5.75257">
        <ele>572.2</ele>
        <time>2022-07-29T16:23:57Z</time>
      </trkpt>
      <trkpt lat="46.52359" lon="5.7526">
        <ele>572.2</ele>
        <time>2022-07-29T16:23:58Z</time>
      </trkpt>
      <trkpt lat="46.52364" lon="5.75263">
        <ele>572.2</ele>
        <time>2022-07-29T16:23:59Z</time>
      </trkpt>
      <trkpt lat="46.52369" lon="5.75265">
        <ele>572.6</ele>
        <time>2022-07-29T16:24:00Z</time>
      </trkpt>
      <trkpt lat="46.52374" lon="5.75268">
        <ele>572.6</ele>
        <time>2022-07-29T16:24:01Z</time>
      </trkpt>
      <trkpt lat="46.52379" lon="5.75271">
        <ele>572.8</ele>
        <time>2022-07-29T16:24:02Z</time>
      </trkpt>
      <trkpt lat="46.52383" lon="5.75274">
        <ele>572.8</ele>
        <time>2022-07-29T16:24:03Z</time>
      </trkpt>
      <trkpt lat="46.52388" lon="5.75276">
        <ele>572.8</ele>
        <time>2022-07-29T16:24:04Z</time>
      </trkpt>
      <trkpt lat="46.52393" lon="5.75279">
        <ele>573</ele>
        <time>2022-07-29T16:24:05Z</time>
      </trkpt>
      <trkpt lat="46.52398" lon="5.75282">
        <ele>573</ele>
        <time>2022-07-29T16:24:06Z</time>
      </trkpt>
      <trkpt lat="46.52403" lon="5.75285">
        <ele>573</ele>
        <time>2022-07-29T16:24:07Z</time>
      </trkpt>
      <trkpt lat="46.52407" lon="5.75287">
        <ele>573.4</ele>
        <time>2022-07-29T16:24:08Z</time>
      </trkpt>
      <trkpt lat="46.52412" lon="5.7529">
        <ele>573.4</ele>
        <time>2022-07-29T16:24:09Z</time>
      </trkpt>
      <trkpt lat="46.52417" lon="5.75293">
        <ele>573.4</ele>
        <time>2022-07-29T16:24:10Z</time>
      </trkpt>
      <trkpt lat="46.52422" lon="5.75296">
        <ele>573.4</ele>
        <time>2022-07-29T16:24:11Z</time>
      </trkpt>
      <trkpt lat="46.52427" lon="5.75298">
        <ele>573.6</ele>
        <time>2022-07-29T16:24:12Z</time>
      </trkpt>
      <trkpt lat="46.52433" lon="5.75301">
        <ele>573.6</ele>
        <time>2022-07-29T16:24:13Z</time>
      </trkpt>
      <trkpt lat="46.52438" lon="5.75303">
        <ele>573.6</ele>
        <time>2022-07-29T16:24:14Z</time>
      </trkpt>
      <trkpt lat="46.52443" lon="5.75306">
        <ele>573.6</ele>
        <time>2022-07-29T16:24:15Z</time>
      </trkpt>
      <trkpt lat="46.52449" lon="5.75309">
        <ele>573.6</ele>
        <time>2022-07-29T16:24:16Z</time>
      </trkpt>
      <trkpt lat="46.52454" lon="5.75312">
        <ele>573.6</ele>
        <time>2022-07-29T16:24:17Z</time>
      </trkpt>
      <trkpt lat="46.5246" lon="5.75315">
        <ele>573.6</ele>
        <time>2022-07-29T16:24:18Z</time>
      </trkpt>
      <trkpt lat="46.52465" lon="5.75317">
        <ele>573.6</ele>
        <time>2022-07-29T16:24:19Z</time>
      </trkpt>
      <trkpt lat="46.52471" lon="5.7532">
        <ele>573.6</ele>
        <time>2022-07-29T16:24:20Z</time>
      </trkpt>
      <trkpt lat="46.52477" lon="5.75323">
        <ele>573.8</ele>
        <time>2022-07-29T16:24:21Z</time>
      </trkpt>
      <trkpt lat="46.52482" lon="5.75326">
        <ele>573.8</ele>
        <time>2022-07-29T16:24:22Z</time>
      </trkpt>
      <trkpt lat="46.52488" lon="5.75329">
        <ele>573.8</ele>
        <time>2022-07-29T16:24:23Z</time>
      </trkpt>
      <trkpt lat="46.52494" lon="5.75332">
        <ele>573.8</ele>
        <time>2022-07-29T16:24:24Z</time>
      </trkpt>
      <trkpt lat="46.525" lon="5.75335">
        <ele>573.8</ele>
        <time>2022-07-29T16:24:25Z</time>
      </trkpt>
      <trkpt lat="46.52506" lon="5.75337">
        <ele>573.8</ele>
        <time>2022-07-29T16:24:26Z</time>
      </trkpt>
      <trkpt lat="46.52511" lon="5.7534">
        <ele>573.8</ele>
        <time>2022-07-29T16:24:27Z</time>
      </trkpt>
      <trkpt lat="46.52517" lon="5.75343">
        <ele>573.8</ele>
        <time>2022-07-29T16:24:28Z</time>
      </trkpt>
      <trkpt lat="46.52523" lon="5.75346">
        <ele>573.8</ele>
        <time>2022-07-29T16:24:29Z</time>
      </trkpt>
      <trkpt lat="46.52528" lon="5.75349">
        <ele>573.8</ele>
        <time>2022-07-29T16:24:30Z</time>
      </trkpt>
      <trkpt lat="46.52534" lon="5.75352">
        <ele>573.8</ele>
        <time>2022-07-29T16:24:31Z</time>
      </trkpt>
      <trkpt lat="46.5254" lon="5.75354">
        <ele>573.8</ele>
        <time>2022-07-29T16:24:32Z</time>
      </trkpt>
      <trkpt lat="46.52545" lon="5.75357">
        <ele>573.8</ele>
        <time>2022-07-29T16:24:33Z</time>
      </trkpt>
      <trkpt lat="46.52551" lon="5.7536">
        <ele>573.8</ele>
        <time>2022-07-29T16:24:34Z</time>
      </trkpt>
      <trkpt lat="46.52556" lon="5.75363">
        <ele>573.8</ele>
        <time>2022-07-29T16:24:35Z</time>
      </trkpt>
      <trkpt lat="46.52562" lon="5.75366">
        <ele>573.8</ele>
        <time>2022-07-29T16:24:36Z</time>
      </trkpt>
      <trkpt lat="46.52568" lon="5.75369">
        <ele>573.8</ele>
        <time>2022-07-29T16:24:37Z</time>
      </trkpt>
      <trkpt lat="46.52573" lon="5.75371">
        <ele>574.2</ele>
        <time>2022-07-29T16:24:38Z</time>
      </trkpt>
      <trkpt lat="46.52579" lon="5.75374">
        <ele>574.2</ele>
        <time>2022-07-29T16:24:39Z</time>
      </trkpt>
      <trkpt lat="46.52585" lon="5.75377">
        <ele>574.2</ele>
        <time>2022-07-29T16:24:40Z</time>
      </trkpt>
      <trkpt lat="46.52591" lon="5.75379">
        <ele>574.2</ele>
        <time>2022-07-29T16:24:41Z</time>
      </trkpt>
      <trkpt lat="46.52596" lon="5.75382">
        <ele>574.2</ele>
        <time>2022-07-29T16:24:42Z</time>
      </trkpt>
      <trkpt lat="46.52602" lon="5.75384">
        <ele>574.4</ele>
        <time>2022-07-29T16:24:43Z</time>
      </trkpt>
      <trkpt lat="46.52608" lon="5.75386">
        <ele>574.4</ele>
        <time>2022-07-29T16:24:44Z</time>
      </trkpt>
      <trkpt lat="46.52613" lon="5.75388">
        <ele>574.4</ele>
        <time>2022-07-29T16:24:45Z</time>
      </trkpt>
      <trkpt lat="46.52619" lon="5.75391">
        <ele>574.4</ele>
        <time>2022-07-29T16:24:46Z</time>
      </trkpt>
      <trkpt lat="46.52625" lon="5.75393">
        <ele>574.4</ele>
        <time>2022-07-29T16:24:47Z</time>
      </trkpt>
      <trkpt lat="46.52631" lon="5.75395">
        <ele>574.4</ele>
        <time>2022-07-29T16:24:48Z</time>
      </trkpt>
      <trkpt lat="46.52637" lon="5.75397">
        <ele>574.4</ele>
        <time>2022-07-29T16:24:49Z</time>
      </trkpt>
      <trkpt lat="46.52642" lon="5.75398">
        <ele>574.6</ele>
        <time>2022-07-29T16:24:50Z</time>
      </trkpt>
      <trkpt lat="46.52648" lon="5.754">
        <ele>574.6</ele>
        <time>2022-07-29T16:24:51Z</time>
      </trkpt>
      <trkpt lat="46.52654" lon="5.75401">
        <ele>574.6</ele>
        <time>2022-07-29T16:24:52Z</time>
      </trkpt>
      <trkpt lat="46.52659" lon="5.75403">
        <ele>574.8</ele>
        <time>2022-07-29T16:24:53Z</time>
      </trkpt>
      <trkpt lat="46.52665" lon="5.75405">
        <ele>574.8</ele>
        <time>2022-07-29T16:24:54Z</time>
      </trkpt>
      <trkpt lat="46.52671" lon="5.75407">
        <ele>574.8</ele>
        <time>2022-07-29T16:24:55Z</time>
      </trkpt>
      <trkpt lat="46.52677" lon="5.75409">
        <ele>575.4</ele>
        <time>2022-07-29T16:24:56Z</time>
      </trkpt>
      <trkpt lat="46.52682" lon="5.7541">
        <ele>575.4</ele>
        <time>2022-07-29T16:24:57Z</time>
      </trkpt>
      <trkpt lat="46.52688" lon="5.75412">
        <ele>575.4</ele>
        <time>2022-07-29T16:24:58Z</time>
      </trkpt>
      <trkpt lat="46.52694" lon="5.75414">
        <ele>575.4</ele>
        <time>2022-07-29T16:24:59Z</time>
      </trkpt>
      <trkpt lat="46.52699" lon="5.75416">
        <ele>575.4</ele>
        <time>2022-07-29T16:25:00Z</time>
      </trkpt>
      <trkpt lat="46.52705" lon="5.75417">
        <ele>575.4</ele>
        <time>2022-07-29T16:25:01Z</time>
      </trkpt>
      <trkpt lat="46.5271" lon="5.75419">
        <ele>575.6</ele>
        <time>2022-07-29T16:25:02Z</time>
      </trkpt>
      <trkpt lat="46.52716" lon="5.75421">
        <ele>575.6</ele>
        <time>2022-07-29T16:25:03Z</time>
      </trkpt>
      <trkpt lat="46.52722" lon="5.75422">
        <ele>575.6</ele>
        <time>2022-07-29T16:25:04Z</time>
      </trkpt>
      <trkpt lat="46.52727" lon="5.75424">
        <ele>576</ele>
        <time>2022-07-29T16:25:05Z</time>
      </trkpt>
      <trkpt lat="46.52733" lon="5.75426">
        <ele>576</ele>
        <time>2022-07-29T16:25:06Z</time>
      </trkpt>
      <trkpt lat="46.52738" lon="5.75428">
        <ele>576.2</ele>
        <time>2022-07-29T16:25:07Z</time>
      </trkpt>
      <trkpt lat="46.52744" lon="5.75429">
        <ele>576.2</ele>
        <time>2022-07-29T16:25:08Z</time>
      </trkpt>
      <trkpt lat="46.5275" lon="5.75431">
        <ele>576.2</ele>
        <time>2022-07-29T16:25:09Z</time>
      </trkpt>
      <trkpt lat="46.52755" lon="5.75432">
        <ele>576.4</ele>
        <time>2022-07-29T16:25:10Z</time>
      </trkpt>
      <trkpt lat="46.52761" lon="5.75434">
        <ele>576.4</ele>
        <time>2022-07-29T16:25:11Z</time>
      </trkpt>
      <trkpt lat="46.52767" lon="5.75436">
        <ele>576.4</ele>
        <time>2022-07-29T16:25:12Z</time>
      </trkpt>
      <trkpt lat="46.52773" lon="5.75438">
        <ele>576.6</ele>
        <time>2022-07-29T16:25:13Z</time>
      </trkpt>
      <trkpt lat="46.52779" lon="5.75439">
        <ele>576.6</ele>
        <time>2022-07-29T16:25:14Z</time>
      </trkpt>
      <trkpt lat="46.52785" lon="5.75441">
        <ele>576.6</ele>
        <time>2022-07-29T16:25:15Z</time>
      </trkpt>
      <trkpt lat="46.52791" lon="5.75442">
        <ele>576.8</ele>
        <time>2022-07-29T16:25:16Z</time>
      </trkpt>
      <trkpt lat="46.52796" lon="5.75444">
        <ele>576.8</ele>
        <time>2022-07-29T16:25:17Z</time>
      </trkpt>
      <trkpt lat="46.52802" lon="5.75446">
        <ele>576.8</ele>
        <time>2022-07-29T16:25:18Z</time>
      </trkpt>
      <trkpt lat="46.52808" lon="5.75448">
        <ele>576.8</ele>
        <time>2022-07-29T16:25:19Z</time>
      </trkpt>
      <trkpt lat="46.52814" lon="5.75449">
        <ele>576.8</ele>
        <time>2022-07-29T16:25:20Z</time>
      </trkpt>
      <trkpt lat="46.5282" lon="5.75451">
        <ele>576.8</ele>
        <time>2022-07-29T16:25:21Z</time>
      </trkpt>
      <trkpt lat="46.52826" lon="5.75453">
        <ele>576.8</ele>
        <time>2022-07-29T16:25:22Z</time>
      </trkpt>
      <trkpt lat="46.52832" lon="5.75454">
        <ele>576.8</ele>
        <time>2022-07-29T16:25:23Z</time>
      </trkpt>
      <trkpt lat="46.52838" lon="5.75456">
        <ele>576.8</ele>
        <time>2022-07-29T16:25:24Z</time>
      </trkpt>
      <trkpt lat="46.52844" lon="5.75458">
        <ele>577.2</ele>
        <time>2022-07-29T16:25:25Z</time>
      </trkpt>
      <trkpt lat="46.5285" lon="5.75459">
        <ele>577.2</ele>
        <time>2022-07-29T16:25:26Z</time>
      </trkpt>
      <trkpt lat="46.52856" lon="5.75461">
        <ele>577.2</ele>
        <time>2022-07-29T16:25:27Z</time>
      </trkpt>
      <trkpt lat="46.52862" lon="5.75463">
        <ele>577.2</ele>
        <time>2022-07-29T16:25:28Z</time>
      </trkpt>
      <trkpt lat="46.52868" lon="5.75465">
        <ele>577.2</ele>
        <time>2022-07-29T16:25:29Z</time>
      </trkpt>
      <trkpt lat="46.52874" lon="5.75466">
        <ele>577.2</ele>
        <time>2022-07-29T16:25:30Z</time>
      </trkpt>
      <trkpt lat="46.5288" lon="5.75468">
        <ele>577.2</ele>
        <time>2022-07-29T16:25:31Z</time>
      </trkpt>
      <trkpt lat="46.52886" lon="5.7547">
        <ele>577.2</ele>
        <time>2022-07-29T16:25:32Z</time>
      </trkpt>
      <trkpt lat="46.52892" lon="5.75471">
        <ele>577.2</ele>
        <time>2022-07-29T16:25:33Z</time>
      </trkpt>
      <trkpt lat="46.52898" lon="5.75473">
        <ele>577.4</ele>
        <time>2022-07-29T16:25:34Z</time>
      </trkpt>
      <trkpt lat="46.52904" lon="5.75475">
        <ele>577.4</ele>
        <time>2022-07-29T16:25:35Z</time>
      </trkpt>
      <trkpt lat="46.5291" lon="5.75476">
        <ele>577.4</ele>
        <time>2022-07-29T16:25:36Z</time>
      </trkpt>
      <trkpt lat="46.52916" lon="5.75478">
        <ele>577.4</ele>
        <time>2022-07-29T16:25:37Z</time>
      </trkpt>
      <trkpt lat="46.52922" lon="5.75479">
        <ele>577.6</ele>
        <time>2022-07-29T16:25:38Z</time>
      </trkpt>
      <trkpt lat="46.52927" lon="5.75481">
        <ele>577.6</ele>
        <time>2022-07-29T16:25:39Z</time>
      </trkpt>
      <trkpt lat="46.52933" lon="5.75483">
        <ele>577.6</ele>
        <time>2022-07-29T16:25:40Z</time>
      </trkpt>
      <trkpt lat="46.52939" lon="5.75484">
        <ele>577.6</ele>
        <time>2022-07-29T16:25:41Z</time>
      </trkpt>
      <trkpt lat="46.52945" lon="5.75486">
        <ele>577.8</ele>
        <time>2022-07-29T16:25:42Z</time>
      </trkpt>
      <trkpt lat="46.5295" lon="5.75487">
        <ele>577.8</ele>
        <time>2022-07-29T16:25:43Z</time>
      </trkpt>
      <trkpt lat="46.52956" lon="5.75489">
        <ele>577.8</ele>
        <time>2022-07-29T16:25:44Z</time>
      </trkpt>
      <trkpt lat="46.52961" lon="5.7549">
        <ele>577.8</ele>
        <time>2022-07-29T16:25:45Z</time>
      </trkpt>
      <trkpt lat="46.52967" lon="5.75492">
        <ele>577.8</ele>
        <time>2022-07-29T16:25:46Z</time>
      </trkpt>
      <trkpt lat="46.52972" lon="5.75494">
        <ele>578</ele>
        <time>2022-07-29T16:25:47Z</time>
      </trkpt>
      <trkpt lat="46.52978" lon="5.75495">
        <ele>578</ele>
        <time>2022-07-29T16:25:48Z</time>
      </trkpt>
      <trkpt lat="46.52983" lon="5.75497">
        <ele>578.4</ele>
        <time>2022-07-29T16:25:49Z</time>
      </trkpt>
      <trkpt lat="46.52988" lon="5.75498">
        <ele>578.4</ele>
        <time>2022-07-29T16:25:50Z</time>
      </trkpt>
      <trkpt lat="46.52994" lon="5.755">
        <ele>578.4</ele>
        <time>2022-07-29T16:25:51Z</time>
      </trkpt>
      <trkpt lat="46.52999" lon="5.75501">
        <ele>578.6</ele>
        <time>2022-07-29T16:25:52Z</time>
      </trkpt>
      <trkpt lat="46.53005" lon="5.75503">
        <ele>578.6</ele>
        <time>2022-07-29T16:25:53Z</time>
      </trkpt>
      <trkpt lat="46.5301" lon="5.75504">
        <ele>578.6</ele>
        <time>2022-07-29T16:25:54Z</time>
      </trkpt>
      <trkpt lat="46.53015" lon="5.75506">
        <ele>578.6</ele>
        <time>2022-07-29T16:25:55Z</time>
      </trkpt>
      <trkpt lat="46.5302" lon="5.75507">
        <ele>578.8</ele>
        <time>2022-07-29T16:25:56Z</time>
      </trkpt>
      <trkpt lat="46.53026" lon="5.75508">
        <ele>578.8</ele>
        <time>2022-07-29T16:25:57Z</time>
      </trkpt>
      <trkpt lat="46.53031" lon="5.7551">
        <ele>578.8</ele>
        <time>2022-07-29T16:25:58Z</time>
      </trkpt>
      <trkpt lat="46.53037" lon="5.75511">
        <ele>578.8</ele>
        <time>2022-07-29T16:25:59Z</time>
      </trkpt>
      <trkpt lat="46.53042" lon="5.75513">
        <ele>579</ele>
        <time>2022-07-29T16:26:00Z</time>
      </trkpt>
      <trkpt lat="46.53048" lon="5.75515">
        <ele>579</ele>
        <time>2022-07-29T16:26:01Z</time>
      </trkpt>
      <trkpt lat="46.53054" lon="5.75516">
        <ele>579</ele>
        <time>2022-07-29T16:26:02Z</time>
      </trkpt>
      <trkpt lat="46.53059" lon="5.75518">
        <ele>579</ele>
        <time>2022-07-29T16:26:03Z</time>
      </trkpt>
      <trkpt lat="46.53065" lon="5.75519">
        <ele>579.2</ele>
        <time>2022-07-29T16:26:04Z</time>
      </trkpt>
      <trkpt lat="46.53071" lon="5.75521">
        <ele>579.2</ele>
        <time>2022-07-29T16:26:05Z</time>
      </trkpt>
      <trkpt lat="46.53076" lon="5.75523">
        <ele>579.2</ele>
        <time>2022-07-29T16:26:06Z</time>
      </trkpt>
      <trkpt lat="46.53082" lon="5.75524">
        <ele>579.2</ele>
        <time>2022-07-29T16:26:07Z</time>
      </trkpt>
      <trkpt lat="46.53088" lon="5.75526">
        <ele>579.6</ele>
        <time>2022-07-29T16:26:08Z</time>
      </trkpt>
      <trkpt lat="46.53093" lon="5.75527">
        <ele>579.6</ele>
        <time>2022-07-29T16:26:09Z</time>
      </trkpt>
      <trkpt lat="46.53099" lon="5.75529">
        <ele>579.6</ele>
        <time>2022-07-29T16:26:10Z</time>
      </trkpt>
      <trkpt lat="46.53105" lon="5.75531">
        <ele>579.6</ele>
        <time>2022-07-29T16:26:11Z</time>
      </trkpt>
      <trkpt lat="46.5311" lon="5.75532">
        <ele>579.6</ele>
        <time>2022-07-29T16:26:12Z</time>
      </trkpt>
      <trkpt lat="46.53122" lon="5.75535">
        <ele>579.6</ele>
        <time>2022-07-29T16:26:13Z</time>
      </trkpt>
      <trkpt lat="46.53128" lon="5.75537">
        <ele>579.6</ele>
        <time>2022-07-29T16:26:14Z</time>
      </trkpt>
      <trkpt lat="46.53133" lon="5.75539">
        <ele>579.6</ele>
        <time>2022-07-29T16:26:15Z</time>
      </trkpt>
      <trkpt lat="46.53139" lon="5.75541">
        <ele>579.6</ele>
        <time>2022-07-29T16:26:16Z</time>
      </trkpt>
      <trkpt lat="46.53144" lon="5.75542">
        <ele>579.6</ele>
        <time>2022-07-29T16:26:17Z</time>
      </trkpt>
      <trkpt lat="46.5315" lon="5.75544">
        <ele>579.8</ele>
        <time>2022-07-29T16:26:18Z</time>
      </trkpt>
      <trkpt lat="46.53155" lon="5.75545">
        <ele>579.8</ele>
        <time>2022-07-29T16:26:19Z</time>
      </trkpt>
      <trkpt lat="46.5316" lon="5.75546">
        <ele>579.8</ele>
        <time>2022-07-29T16:26:20Z</time>
      </trkpt>
      <trkpt lat="46.53165" lon="5.75548">
        <ele>580</ele>
        <time>2022-07-29T16:26:21Z</time>
      </trkpt>
      <trkpt lat="46.5317" lon="5.75549">
        <ele>580</ele>
        <time>2022-07-29T16:26:22Z</time>
      </trkpt>
      <trkpt lat="46.53175" lon="5.7555">
        <ele>580</ele>
        <time>2022-07-29T16:26:23Z</time>
      </trkpt>
      <trkpt lat="46.5318" lon="5.7555">
        <ele>580</ele>
        <time>2022-07-29T16:26:24Z</time>
      </trkpt>
      <trkpt lat="46.53185" lon="5.75551">
        <ele>580</ele>
        <time>2022-07-29T16:26:25Z</time>
      </trkpt>
      <trkpt lat="46.5319" lon="5.75552">
        <ele>580</ele>
        <time>2022-07-29T16:26:26Z</time>
      </trkpt>
      <trkpt lat="46.53195" lon="5.75553">
        <ele>580</ele>
        <time>2022-07-29T16:26:27Z</time>
      </trkpt>
      <trkpt lat="46.53201" lon="5.75554">
        <ele>580</ele>
        <time>2022-07-29T16:26:28Z</time>
      </trkpt>
      <trkpt lat="46.53206" lon="5.75555">
        <ele>580</ele>
        <time>2022-07-29T16:26:29Z</time>
      </trkpt>
      <trkpt lat="46.53211" lon="5.75555">
        <ele>580.2</ele>
        <time>2022-07-29T16:26:30Z</time>
      </trkpt>
      <trkpt lat="46.53217" lon="5.75555">
        <ele>580.2</ele>
        <time>2022-07-29T16:26:31Z</time>
      </trkpt>
      <trkpt lat="46.53222" lon="5.75555">
        <ele>580.2</ele>
        <time>2022-07-29T16:26:32Z</time>
      </trkpt>
      <trkpt lat="46.53228" lon="5.75555">
        <ele>580.2</ele>
        <time>2022-07-29T16:26:33Z</time>
      </trkpt>
      <trkpt lat="46.53233" lon="5.75555">
        <ele>580.2</ele>
        <time>2022-07-29T16:26:34Z</time>
      </trkpt>
      <trkpt lat="46.53239" lon="5.75554">
        <ele>580.2</ele>
        <time>2022-07-29T16:26:35Z</time>
      </trkpt>
      <trkpt lat="46.53245" lon="5.75554">
        <ele>580.2</ele>
        <time>2022-07-29T16:26:36Z</time>
      </trkpt>
      <trkpt lat="46.53251" lon="5.75553">
        <ele>580.2</ele>
        <time>2022-07-29T16:26:37Z</time>
      </trkpt>
      <trkpt lat="46.53257" lon="5.75553">
        <ele>580.2</ele>
        <time>2022-07-29T16:26:38Z</time>
      </trkpt>
      <trkpt lat="46.53263" lon="5.75552">
        <ele>580.2</ele>
        <time>2022-07-29T16:26:39Z</time>
      </trkpt>
      <trkpt lat="46.53269" lon="5.75551">
        <ele>580.2</ele>
        <time>2022-07-29T16:26:40Z</time>
      </trkpt>
      <trkpt lat="46.53275" lon="5.7555">
        <ele>580.2</ele>
        <time>2022-07-29T16:26:41Z</time>
      </trkpt>
      <trkpt lat="46.53281" lon="5.75549">
        <ele>580.2</ele>
        <time>2022-07-29T16:26:42Z</time>
      </trkpt>
      <trkpt lat="46.53287" lon="5.75547">
        <ele>580.2</ele>
        <time>2022-07-29T16:26:43Z</time>
      </trkpt>
      <trkpt lat="46.53293" lon="5.75546">
        <ele>580.2</ele>
        <time>2022-07-29T16:26:44Z</time>
      </trkpt>
      <trkpt lat="46.533" lon="5.75544">
        <ele>580.2</ele>
        <time>2022-07-29T16:26:45Z</time>
      </trkpt>
      <trkpt lat="46.53306" lon="5.75542">
        <ele>580.2</ele>
        <time>2022-07-29T16:26:46Z</time>
      </trkpt>
      <trkpt lat="46.53312" lon="5.7554">
        <ele>580.2</ele>
        <time>2022-07-29T16:26:47Z</time>
      </trkpt>
      <trkpt lat="46.53318" lon="5.75538">
        <ele>580.2</ele>
        <time>2022-07-29T16:26:48Z</time>
      </trkpt>
      <trkpt lat="46.53325" lon="5.75535">
        <ele>580.2</ele>
        <time>2022-07-29T16:26:49Z</time>
      </trkpt>
      <trkpt lat="46.53331" lon="5.75533">
        <ele>580.2</ele>
        <time>2022-07-29T16:26:50Z</time>
      </trkpt>
      <trkpt lat="46.53337" lon="5.7553">
        <ele>580.2</ele>
        <time>2022-07-29T16:26:51Z</time>
      </trkpt>
      <trkpt lat="46.53344" lon="5.75527">
        <ele>580.2</ele>
        <time>2022-07-29T16:26:52Z</time>
      </trkpt>
      <trkpt lat="46.5335" lon="5.75524">
        <ele>580</ele>
        <time>2022-07-29T16:26:53Z</time>
      </trkpt>
      <trkpt lat="46.53356" lon="5.75521">
        <ele>580</ele>
        <time>2022-07-29T16:26:54Z</time>
      </trkpt>
      <trkpt lat="46.53363" lon="5.75519">
        <ele>580</ele>
        <time>2022-07-29T16:26:55Z</time>
      </trkpt>
      <trkpt lat="46.53369" lon="5.75516">
        <ele>580</ele>
        <time>2022-07-29T16:26:56Z</time>
      </trkpt>
      <trkpt lat="46.53375" lon="5.75513">
        <ele>579.8</ele>
        <time>2022-07-29T16:26:57Z</time>
      </trkpt>
      <trkpt lat="46.53382" lon="5.7551">
        <ele>579.8</ele>
        <time>2022-07-29T16:26:58Z</time>
      </trkpt>
      <trkpt lat="46.53388" lon="5.75507">
        <ele>579.8</ele>
        <time>2022-07-29T16:26:59Z</time>
      </trkpt>
      <trkpt lat="46.53395" lon="5.75504">
        <ele>579.8</ele>
        <time>2022-07-29T16:27:00Z</time>
      </trkpt>
      <trkpt lat="46.53401" lon="5.75501">
        <ele>579.8</ele>
        <time>2022-07-29T16:27:01Z</time>
      </trkpt>
      <trkpt lat="46.53408" lon="5.75498">
        <ele>579.8</ele>
        <time>2022-07-29T16:27:02Z</time>
      </trkpt>
      <trkpt lat="46.53414" lon="5.75495">
        <ele>579.4</ele>
        <time>2022-07-29T16:27:03Z</time>
      </trkpt>
      <trkpt lat="46.53421" lon="5.75492">
        <ele>579.4</ele>
        <time>2022-07-29T16:27:04Z</time>
      </trkpt>
      <trkpt lat="46.53427" lon="5.75489">
        <ele>579.4</ele>
        <time>2022-07-29T16:27:05Z</time>
      </trkpt>
      <trkpt lat="46.53434" lon="5.75486">
        <ele>579.4</ele>
        <time>2022-07-29T16:27:06Z</time>
      </trkpt>
      <trkpt lat="46.5344" lon="5.75483">
        <ele>579.4</ele>
        <time>2022-07-29T16:27:07Z</time>
      </trkpt>
      <trkpt lat="46.53446" lon="5.7548">
        <ele>579.4</ele>
        <time>2022-07-29T16:27:08Z</time>
      </trkpt>
      <trkpt lat="46.53452" lon="5.75477">
        <ele>579.4</ele>
        <time>2022-07-29T16:27:09Z</time>
      </trkpt>
      <trkpt lat="46.53458" lon="5.75475">
        <ele>579.4</ele>
        <time>2022-07-29T16:27:10Z</time>
      </trkpt>
      <trkpt lat="46.53465" lon="5.75472">
        <ele>579.4</ele>
        <time>2022-07-29T16:27:11Z</time>
      </trkpt>
      <trkpt lat="46.53471" lon="5.7547">
        <ele>579.4</ele>
        <time>2022-07-29T16:27:12Z</time>
      </trkpt>
      <trkpt lat="46.53477" lon="5.75467">
        <ele>579.4</ele>
        <time>2022-07-29T16:27:13Z</time>
      </trkpt>
      <trkpt lat="46.53482" lon="5.75464">
        <ele>579.2</ele>
        <time>2022-07-29T16:27:14Z</time>
      </trkpt>
      <trkpt lat="46.53488" lon="5.75461">
        <ele>579.2</ele>
        <time>2022-07-29T16:27:15Z</time>
      </trkpt>
      <trkpt lat="46.53493" lon="5.75458">
        <ele>579.2</ele>
        <time>2022-07-29T16:27:16Z</time>
      </trkpt>
      <trkpt lat="46.53498" lon="5.75456">
        <ele>579.2</ele>
        <time>2022-07-29T16:27:17Z</time>
      </trkpt>
      <trkpt lat="46.53503" lon="5.75454">
        <ele>579.2</ele>
        <time>2022-07-29T16:27:18Z</time>
      </trkpt>
      <trkpt lat="46.53508" lon="5.75451">
        <ele>579.2</ele>
        <time>2022-07-29T16:27:19Z</time>
      </trkpt>
      <trkpt lat="46.53514" lon="5.75449">
        <ele>579.2</ele>
        <time>2022-07-29T16:27:20Z</time>
      </trkpt>
      <trkpt lat="46.53519" lon="5.75446">
        <ele>579.2</ele>
        <time>2022-07-29T16:27:21Z</time>
      </trkpt>
      <trkpt lat="46.53525" lon="5.75443">
        <ele>579.4</ele>
        <time>2022-07-29T16:27:22Z</time>
      </trkpt>
      <trkpt lat="46.5353" lon="5.75441">
        <ele>579.4</ele>
        <time>2022-07-29T16:27:23Z</time>
      </trkpt>
      <trkpt lat="46.53535" lon="5.75438">
        <ele>579.4</ele>
        <time>2022-07-29T16:27:24Z</time>
      </trkpt>
      <trkpt lat="46.53541" lon="5.75436">
        <ele>579.4</ele>
        <time>2022-07-29T16:27:25Z</time>
      </trkpt>
      <trkpt lat="46.53546" lon="5.75434">
        <ele>579.4</ele>
        <time>2022-07-29T16:27:26Z</time>
      </trkpt>
      <trkpt lat="46.53551" lon="5.75431">
        <ele>579.4</ele>
        <time>2022-07-29T16:27:27Z</time>
      </trkpt>
      <trkpt lat="46.53557" lon="5.75428">
        <ele>579.4</ele>
        <time>2022-07-29T16:27:28Z</time>
      </trkpt>
      <trkpt lat="46.53562" lon="5.75426">
        <ele>579.6</ele>
        <time>2022-07-29T16:27:29Z</time>
      </trkpt>
      <trkpt lat="46.53568" lon="5.75423">
        <ele>579.6</ele>
        <time>2022-07-29T16:27:30Z</time>
      </trkpt>
      <trkpt lat="46.53573" lon="5.75421">
        <ele>579.6</ele>
        <time>2022-07-29T16:27:31Z</time>
      </trkpt>
      <trkpt lat="46.53578" lon="5.75418">
        <ele>579.6</ele>
        <time>2022-07-29T16:27:32Z</time>
      </trkpt>
      <trkpt lat="46.53584" lon="5.75416">
        <ele>579.8</ele>
        <time>2022-07-29T16:27:33Z</time>
      </trkpt>
      <trkpt lat="46.53589" lon="5.75414">
        <ele>579.8</ele>
        <time>2022-07-29T16:27:34Z</time>
      </trkpt>
      <trkpt lat="46.53594" lon="5.75411">
        <ele>579.8</ele>
        <time>2022-07-29T16:27:35Z</time>
      </trkpt>
      <trkpt lat="46.536" lon="5.75409">
        <ele>579.8</ele>
        <time>2022-07-29T16:27:36Z</time>
      </trkpt>
      <trkpt lat="46.53605" lon="5.75406">
        <ele>579.8</ele>
        <time>2022-07-29T16:27:37Z</time>
      </trkpt>
      <trkpt lat="46.53611" lon="5.75404">
        <ele>579.8</ele>
        <time>2022-07-29T16:27:38Z</time>
      </trkpt>
      <trkpt lat="46.53616" lon="5.75402">
        <ele>580</ele>
        <time>2022-07-29T16:27:39Z</time>
      </trkpt>
      <trkpt lat="46.53621" lon="5.75399">
        <ele>580</ele>
        <time>2022-07-29T16:27:40Z</time>
      </trkpt>
      <trkpt lat="46.53627" lon="5.75397">
        <ele>580</ele>
        <time>2022-07-29T16:27:41Z</time>
      </trkpt>
      <trkpt lat="46.53632" lon="5.75394">
        <ele>580</ele>
        <time>2022-07-29T16:27:42Z</time>
      </trkpt>
      <trkpt lat="46.53637" lon="5.75392">
        <ele>580</ele>
        <time>2022-07-29T16:27:43Z</time>
      </trkpt>
      <trkpt lat="46.53643" lon="5.7539">
        <ele>580</ele>
        <time>2022-07-29T16:27:44Z</time>
      </trkpt>
      <trkpt lat="46.53648" lon="5.75387">
        <ele>580</ele>
        <time>2022-07-29T16:27:45Z</time>
      </trkpt>
      <trkpt lat="46.53654" lon="5.75385">
        <ele>580</ele>
        <time>2022-07-29T16:27:46Z</time>
      </trkpt>
      <trkpt lat="46.53659" lon="5.75382">
        <ele>580</ele>
        <time>2022-07-29T16:27:47Z</time>
      </trkpt>
      <trkpt lat="46.53665" lon="5.7538">
        <ele>580.4</ele>
        <time>2022-07-29T16:27:48Z</time>
      </trkpt>
      <trkpt lat="46.5367" lon="5.75377">
        <ele>580.4</ele>
        <time>2022-07-29T16:27:49Z</time>
      </trkpt>
      <trkpt lat="46.53675" lon="5.75375">
        <ele>580.4</ele>
        <time>2022-07-29T16:27:50Z</time>
      </trkpt>
      <trkpt lat="46.53681" lon="5.75373">
        <ele>580.4</ele>
        <time>2022-07-29T16:27:51Z</time>
      </trkpt>
      <trkpt lat="46.53686" lon="5.7537">
        <ele>580.4</ele>
        <time>2022-07-29T16:27:52Z</time>
      </trkpt>
      <trkpt lat="46.53691" lon="5.75368">
        <ele>580.6</ele>
        <time>2022-07-29T16:27:53Z</time>
      </trkpt>
      <trkpt lat="46.53697" lon="5.75365">
        <ele>580.6</ele>
        <time>2022-07-29T16:27:54Z</time>
      </trkpt>
      <trkpt lat="46.53702" lon="5.75363">
        <ele>580.6</ele>
        <time>2022-07-29T16:27:55Z</time>
      </trkpt>
      <trkpt lat="46.53707" lon="5.75361">
        <ele>580.6</ele>
        <time>2022-07-29T16:27:56Z</time>
      </trkpt>
      <trkpt lat="46.53713" lon="5.75359">
        <ele>580.6</ele>
        <time>2022-07-29T16:27:57Z</time>
      </trkpt>
      <trkpt lat="46.53718" lon="5.75356">
        <ele>580.6</ele>
        <time>2022-07-29T16:27:58Z</time>
      </trkpt>
      <trkpt lat="46.53723" lon="5.75354">
        <ele>580.6</ele>
        <time>2022-07-29T16:27:59Z</time>
      </trkpt>
      <trkpt lat="46.53729" lon="5.75351">
        <ele>580.6</ele>
        <time>2022-07-29T16:28:00Z</time>
      </trkpt>
      <trkpt lat="46.53734" lon="5.75348">
        <ele>580.6</ele>
        <time>2022-07-29T16:28:01Z</time>
      </trkpt>
      <trkpt lat="46.5374" lon="5.75346">
        <ele>580.6</ele>
        <time>2022-07-29T16:28:02Z</time>
      </trkpt>
      <trkpt lat="46.53745" lon="5.75343">
        <ele>580.6</ele>
        <time>2022-07-29T16:28:03Z</time>
      </trkpt>
      <trkpt lat="46.53751" lon="5.75341">
        <ele>580.6</ele>
        <time>2022-07-29T16:28:04Z</time>
      </trkpt>
      <trkpt lat="46.53756" lon="5.75338">
        <ele>581</ele>
        <time>2022-07-29T16:28:05Z</time>
      </trkpt>
      <trkpt lat="46.53762" lon="5.75336">
        <ele>581</ele>
        <time>2022-07-29T16:28:06Z</time>
      </trkpt>
      <trkpt lat="46.53768" lon="5.75333">
        <ele>581</ele>
        <time>2022-07-29T16:28:07Z</time>
      </trkpt>
      <trkpt lat="46.53773" lon="5.75331">
        <ele>581</ele>
        <time>2022-07-29T16:28:08Z</time>
      </trkpt>
      <trkpt lat="46.53779" lon="5.75328">
        <ele>581.2</ele>
        <time>2022-07-29T16:28:09Z</time>
      </trkpt>
      <trkpt lat="46.53785" lon="5.75326">
        <ele>581.2</ele>
        <time>2022-07-29T16:28:10Z</time>
      </trkpt>
      <trkpt lat="46.5379" lon="5.75323">
        <ele>581.2</ele>
        <time>2022-07-29T16:28:11Z</time>
      </trkpt>
      <trkpt lat="46.53796" lon="5.75321">
        <ele>581.2</ele>
        <time>2022-07-29T16:28:12Z</time>
      </trkpt>
      <trkpt lat="46.53802" lon="5.75318">
        <ele>581.4</ele>
        <time>2022-07-29T16:28:13Z</time>
      </trkpt>
      <trkpt lat="46.53808" lon="5.75315">
        <ele>581.4</ele>
        <time>2022-07-29T16:28:14Z</time>
      </trkpt>
      <trkpt lat="46.53814" lon="5.75312">
        <ele>581.4</ele>
        <time>2022-07-29T16:28:15Z</time>
      </trkpt>
      <trkpt lat="46.5382" lon="5.7531">
        <ele>581.6</ele>
        <time>2022-07-29T16:28:16Z</time>
      </trkpt>
      <trkpt lat="46.53826" lon="5.75307">
        <ele>581.6</ele>
        <time>2022-07-29T16:28:17Z</time>
      </trkpt>
      <trkpt lat="46.53832" lon="5.75305">
        <ele>581.6</ele>
        <time>2022-07-29T16:28:18Z</time>
      </trkpt>
      <trkpt lat="46.53838" lon="5.75302">
        <ele>581.8</ele>
        <time>2022-07-29T16:28:19Z</time>
      </trkpt>
      <trkpt lat="46.53843" lon="5.75299">
        <ele>581.8</ele>
        <time>2022-07-29T16:28:20Z</time>
      </trkpt>
      <trkpt lat="46.53849" lon="5.75297">
        <ele>581.8</ele>
        <time>2022-07-29T16:28:21Z</time>
      </trkpt>
      <trkpt lat="46.53855" lon="5.75294">
        <ele>582.2</ele>
        <time>2022-07-29T16:28:22Z</time>
      </trkpt>
      <trkpt lat="46.53861" lon="5.75292">
        <ele>582.2</ele>
        <time>2022-07-29T16:28:23Z</time>
      </trkpt>
      <trkpt lat="46.53867" lon="5.75289">
        <ele>582.2</ele>
        <time>2022-07-29T16:28:24Z</time>
      </trkpt>
      <trkpt lat="46.53873" lon="5.75286">
        <ele>582.2</ele>
        <time>2022-07-29T16:28:25Z</time>
      </trkpt>
      <trkpt lat="46.53879" lon="5.75283">
        <ele>582.4</ele>
        <time>2022-07-29T16:28:26Z</time>
      </trkpt>
      <trkpt lat="46.53885" lon="5.75281">
        <ele>582.4</ele>
        <time>2022-07-29T16:28:27Z</time>
      </trkpt>
      <trkpt lat="46.5389" lon="5.75278">
        <ele>582.4</ele>
        <time>2022-07-29T16:28:28Z</time>
      </trkpt>
      <trkpt lat="46.53896" lon="5.75275">
        <ele>582.4</ele>
        <time>2022-07-29T16:28:29Z</time>
      </trkpt>
      <trkpt lat="46.53902" lon="5.75273">
        <ele>582.4</ele>
        <time>2022-07-29T16:28:30Z</time>
      </trkpt>
      <trkpt lat="46.53908" lon="5.7527">
        <ele>582.4</ele>
        <time>2022-07-29T16:28:31Z</time>
      </trkpt>
      <trkpt lat="46.53914" lon="5.75268">
        <ele>582.4</ele>
        <time>2022-07-29T16:28:32Z</time>
      </trkpt>
      <trkpt lat="46.5392" lon="5.75265">
        <ele>582.4</ele>
        <time>2022-07-29T16:28:33Z</time>
      </trkpt>
      <trkpt lat="46.53926" lon="5.75262">
        <ele>582.4</ele>
        <time>2022-07-29T16:28:34Z</time>
      </trkpt>
      <trkpt lat="46.53932" lon="5.75259">
        <ele>582.4</ele>
        <time>2022-07-29T16:28:35Z</time>
      </trkpt>
      <trkpt lat="46.53938" lon="5.75257">
        <ele>582.4</ele>
        <time>2022-07-29T16:28:36Z</time>
      </trkpt>
      <trkpt lat="46.53945" lon="5.75254">
        <ele>582.4</ele>
        <time>2022-07-29T16:28:37Z</time>
      </trkpt>
      <trkpt lat="46.53951" lon="5.75251">
        <ele>582.4</ele>
        <time>2022-07-29T16:28:38Z</time>
      </trkpt>
      <trkpt lat="46.53957" lon="5.75248">
        <ele>582.4</ele>
        <time>2022-07-29T16:28:39Z</time>
      </trkpt>
      <trkpt lat="46.53963" lon="5.75246">
        <ele>582.4</ele>
        <time>2022-07-29T16:28:40Z</time>
      </trkpt>
      <trkpt lat="46.53968" lon="5.75243">
        <ele>582.4</ele>
        <time>2022-07-29T16:28:41Z</time>
      </trkpt>
      <trkpt lat="46.53974" lon="5.7524">
        <ele>582.4</ele>
        <time>2022-07-29T16:28:42Z</time>
      </trkpt>
      <trkpt lat="46.5398" lon="5.75238">
        <ele>582.4</ele>
        <time>2022-07-29T16:28:43Z</time>
      </trkpt>
      <trkpt lat="46.53986" lon="5.75235">
        <ele>582.4</ele>
        <time>2022-07-29T16:28:44Z</time>
      </trkpt>
      <trkpt lat="46.53993" lon="5.75232">
        <ele>582.4</ele>
        <time>2022-07-29T16:28:45Z</time>
      </trkpt>
      <trkpt lat="46.53999" lon="5.75229">
        <ele>582.4</ele>
        <time>2022-07-29T16:28:46Z</time>
      </trkpt>
      <trkpt lat="46.54005" lon="5.75226">
        <ele>582.4</ele>
        <time>2022-07-29T16:28:47Z</time>
      </trkpt>
      <trkpt lat="46.54011" lon="5.75223">
        <ele>582.4</ele>
        <time>2022-07-29T16:28:48Z</time>
      </trkpt>
      <trkpt lat="46.54017" lon="5.7522">
        <ele>582.4</ele>
        <time>2022-07-29T16:28:49Z</time>
      </trkpt>
      <trkpt lat="46.54023" lon="5.75217">
        <ele>582.4</ele>
        <time>2022-07-29T16:28:50Z</time>
      </trkpt>
      <trkpt lat="46.54029" lon="5.75215">
        <ele>582.4</ele>
        <time>2022-07-29T16:28:51Z</time>
      </trkpt>
      <trkpt lat="46.54035" lon="5.75212">
        <ele>582.4</ele>
        <time>2022-07-29T16:28:52Z</time>
      </trkpt>
      <trkpt lat="46.54041" lon="5.7521">
        <ele>582.4</ele>
        <time>2022-07-29T16:28:53Z</time>
      </trkpt>
      <trkpt lat="46.54047" lon="5.75207">
        <ele>582.4</ele>
        <time>2022-07-29T16:28:54Z</time>
      </trkpt>
      <trkpt lat="46.54053" lon="5.75205">
        <ele>582.4</ele>
        <time>2022-07-29T16:28:55Z</time>
      </trkpt>
      <trkpt lat="46.54059" lon="5.75202">
        <ele>582.4</ele>
        <time>2022-07-29T16:28:56Z</time>
      </trkpt>
      <trkpt lat="46.54065" lon="5.752">
        <ele>582.4</ele>
        <time>2022-07-29T16:28:57Z</time>
      </trkpt>
      <trkpt lat="46.54071" lon="5.75197">
        <ele>582.4</ele>
        <time>2022-07-29T16:28:58Z</time>
      </trkpt>
      <trkpt lat="46.54077" lon="5.75194">
        <ele>582.4</ele>
        <time>2022-07-29T16:28:59Z</time>
      </trkpt>
      <trkpt lat="46.54083" lon="5.75192">
        <ele>582.4</ele>
        <time>2022-07-29T16:29:00Z</time>
      </trkpt>
      <trkpt lat="46.54089" lon="5.75189">
        <ele>582.4</ele>
        <time>2022-07-29T16:29:01Z</time>
      </trkpt>
      <trkpt lat="46.54095" lon="5.75187">
        <ele>582.4</ele>
        <time>2022-07-29T16:29:02Z</time>
      </trkpt>
      <trkpt lat="46.54101" lon="5.75184">
        <ele>582.4</ele>
        <time>2022-07-29T16:29:03Z</time>
      </trkpt>
      <trkpt lat="46.54101" lon="5.75184">
        <ele>582.4</ele>
        <time>2022-07-29T16:29:04Z</time>
      </trkpt>
      <trkpt lat="46.54107" lon="5.75181">
        <ele>582.4</ele>
        <time>2022-07-29T16:29:05Z</time>
      </trkpt>
      <trkpt lat="46.54113" lon="5.75178">
        <ele>582.4</ele>
        <time>2022-07-29T16:29:06Z</time>
      </trkpt>
      <trkpt lat="46.54119" lon="5.75175">
        <ele>582.4</ele>
        <time>2022-07-29T16:29:07Z</time>
      </trkpt>
      <trkpt lat="46.54125" lon="5.75172">
        <ele>582.4</ele>
        <time>2022-07-29T16:29:08Z</time>
      </trkpt>
      <trkpt lat="46.5413" lon="5.75168">
        <ele>582.4</ele>
        <time>2022-07-29T16:29:09Z</time>
      </trkpt>
      <trkpt lat="46.54136" lon="5.75163">
        <ele>582.4</ele>
        <time>2022-07-29T16:29:10Z</time>
      </trkpt>
      <trkpt lat="46.5414" lon="5.75158">
        <ele>582.4</ele>
        <time>2022-07-29T16:29:11Z</time>
      </trkpt>
      <trkpt lat="46.54145" lon="5.75152">
        <ele>582</ele>
        <time>2022-07-29T16:29:12Z</time>
      </trkpt>
      <trkpt lat="46.54149" lon="5.75146">
        <ele>582</ele>
        <time>2022-07-29T16:29:13Z</time>
      </trkpt>
      <trkpt lat="46.54154" lon="5.75141">
        <ele>581.8</ele>
        <time>2022-07-29T16:29:14Z</time>
      </trkpt>
      <trkpt lat="46.54159" lon="5.75135">
        <ele>581.8</ele>
        <time>2022-07-29T16:29:15Z</time>
      </trkpt>
      <trkpt lat="46.54163" lon="5.7513">
        <ele>581.8</ele>
        <time>2022-07-29T16:29:16Z</time>
      </trkpt>
      <trkpt lat="46.54168" lon="5.75124">
        <ele>581.8</ele>
        <time>2022-07-29T16:29:17Z</time>
      </trkpt>
      <trkpt lat="46.54173" lon="5.75119">
        <ele>581.8</ele>
        <time>2022-07-29T16:29:18Z</time>
      </trkpt>
      <trkpt lat="46.54178" lon="5.75114">
        <ele>581.6</ele>
        <time>2022-07-29T16:29:19Z</time>
      </trkpt>
      <trkpt lat="46.54183" lon="5.75109">
        <ele>581.6</ele>
        <time>2022-07-29T16:29:20Z</time>
      </trkpt>
      <trkpt lat="46.54189" lon="5.75105">
        <ele>581.6</ele>
        <time>2022-07-29T16:29:21Z</time>
      </trkpt>
      <trkpt lat="46.54195" lon="5.75101">
        <ele>581.6</ele>
        <time>2022-07-29T16:29:22Z</time>
      </trkpt>
      <trkpt lat="46.54201" lon="5.75097">
        <ele>581.4</ele>
        <time>2022-07-29T16:29:23Z</time>
      </trkpt>
      <trkpt lat="46.54207" lon="5.75093">
        <ele>581.4</ele>
        <time>2022-07-29T16:29:24Z</time>
      </trkpt>
      <trkpt lat="46.54213" lon="5.75088">
        <ele>581.4</ele>
        <time>2022-07-29T16:29:25Z</time>
      </trkpt>
      <trkpt lat="46.54219" lon="5.75084">
        <ele>581.4</ele>
        <time>2022-07-29T16:29:26Z</time>
      </trkpt>
      <trkpt lat="46.54225" lon="5.75079">
        <ele>581.2</ele>
        <time>2022-07-29T16:29:27Z</time>
      </trkpt>
      <trkpt lat="46.54231" lon="5.75075">
        <ele>581.2</ele>
        <time>2022-07-29T16:29:28Z</time>
      </trkpt>
      <trkpt lat="46.54237" lon="5.75071">
        <ele>580.8</ele>
        <time>2022-07-29T16:29:29Z</time>
      </trkpt>
      <trkpt lat="46.54243" lon="5.75066">
        <ele>580.8</ele>
        <time>2022-07-29T16:29:30Z</time>
      </trkpt>
      <trkpt lat="46.5425" lon="5.75062">
        <ele>580.6</ele>
        <time>2022-07-29T16:29:31Z</time>
      </trkpt>
      <trkpt lat="46.54256" lon="5.75058">
        <ele>580.6</ele>
        <time>2022-07-29T16:29:32Z</time>
      </trkpt>
      <trkpt lat="46.54262" lon="5.75054">
        <ele>580.6</ele>
        <time>2022-07-29T16:29:33Z</time>
      </trkpt>
      <trkpt lat="46.54268" lon="5.75049">
        <ele>580.4</ele>
        <time>2022-07-29T16:29:34Z</time>
      </trkpt>
      <trkpt lat="46.54274" lon="5.75045">
        <ele>580.4</ele>
        <time>2022-07-29T16:29:35Z</time>
      </trkpt>
      <trkpt lat="46.5428" lon="5.75041">
        <ele>580.4</ele>
        <time>2022-07-29T16:29:36Z</time>
      </trkpt>
      <trkpt lat="46.54287" lon="5.75038">
        <ele>580.4</ele>
        <time>2022-07-29T16:29:37Z</time>
      </trkpt>
      <trkpt lat="46.54293" lon="5.75034">
        <ele>580</ele>
        <time>2022-07-29T16:29:38Z</time>
      </trkpt>
      <trkpt lat="46.543" lon="5.7503">
        <ele>580</ele>
        <time>2022-07-29T16:29:39Z</time>
      </trkpt>
      <trkpt lat="46.54307" lon="5.75026">
        <ele>579.8</ele>
        <time>2022-07-29T16:29:40Z</time>
      </trkpt>
      <trkpt lat="46.54314" lon="5.75021">
        <ele>579.8</ele>
        <time>2022-07-29T16:29:41Z</time>
      </trkpt>
      <trkpt lat="46.54321" lon="5.75017">
        <ele>579.8</ele>
        <time>2022-07-29T16:29:42Z</time>
      </trkpt>
      <trkpt lat="46.54328" lon="5.75012">
        <ele>579.6</ele>
        <time>2022-07-29T16:29:43Z</time>
      </trkpt>
      <trkpt lat="46.54335" lon="5.75007">
        <ele>579.2</ele>
        <time>2022-07-29T16:29:44Z</time>
      </trkpt>
      <trkpt lat="46.54343" lon="5.75002">
        <ele>579</ele>
        <time>2022-07-29T16:29:45Z</time>
      </trkpt>
      <trkpt lat="46.54351" lon="5.74997">
        <ele>578.8</ele>
        <time>2022-07-29T16:29:46Z</time>
      </trkpt>
      <trkpt lat="46.54358" lon="5.74992">
        <ele>578.8</ele>
        <time>2022-07-29T16:29:47Z</time>
      </trkpt>
      <trkpt lat="46.54366" lon="5.74987">
        <ele>578.4</ele>
        <time>2022-07-29T16:29:48Z</time>
      </trkpt>
      <trkpt lat="46.54374" lon="5.74982">
        <ele>578.2</ele>
        <time>2022-07-29T16:29:49Z</time>
      </trkpt>
      <trkpt lat="46.54382" lon="5.74977">
        <ele>577.8</ele>
        <time>2022-07-29T16:29:50Z</time>
      </trkpt>
      <trkpt lat="46.54391" lon="5.74971">
        <ele>577.6</ele>
        <time>2022-07-29T16:29:51Z</time>
      </trkpt>
      <trkpt lat="46.54399" lon="5.74966">
        <ele>577.2</ele>
        <time>2022-07-29T16:29:52Z</time>
      </trkpt>
      <trkpt lat="46.54408" lon="5.7496">
        <ele>577</ele>
        <time>2022-07-29T16:29:53Z</time>
      </trkpt>
      <trkpt lat="46.54416" lon="5.74955">
        <ele>576.8</ele>
        <time>2022-07-29T16:29:54Z</time>
      </trkpt>
      <trkpt lat="46.54424" lon="5.7495">
        <ele>576.6</ele>
        <time>2022-07-29T16:29:55Z</time>
      </trkpt>
      <trkpt lat="46.54433" lon="5.74944">
        <ele>576.4</ele>
        <time>2022-07-29T16:29:56Z</time>
      </trkpt>
      <trkpt lat="46.54441" lon="5.74939">
        <ele>576.4</ele>
        <time>2022-07-29T16:29:57Z</time>
      </trkpt>
      <trkpt lat="46.54449" lon="5.74934">
        <ele>575.8</ele>
        <time>2022-07-29T16:29:58Z</time>
      </trkpt>
      <trkpt lat="46.54457" lon="5.74929">
        <ele>575.6</ele>
        <time>2022-07-29T16:29:59Z</time>
      </trkpt>
      <trkpt lat="46.54465" lon="5.74923">
        <ele>575.2</ele>
        <time>2022-07-29T16:30:00Z</time>
      </trkpt>
      <trkpt lat="46.54481" lon="5.74912">
        <ele>575</ele>
        <time>2022-07-29T16:30:01Z</time>
      </trkpt>
      <trkpt lat="46.54489" lon="5.74907">
        <ele>575</ele>
        <time>2022-07-29T16:30:02Z</time>
      </trkpt>
      <trkpt lat="46.54497" lon="5.74902">
        <ele>574.6</ele>
        <time>2022-07-29T16:30:03Z</time>
      </trkpt>
      <trkpt lat="46.54505" lon="5.74897">
        <ele>574.4</ele>
        <time>2022-07-29T16:30:04Z</time>
      </trkpt>
      <trkpt lat="46.54513" lon="5.74892">
        <ele>574</ele>
        <time>2022-07-29T16:30:05Z</time>
      </trkpt>
      <trkpt lat="46.54521" lon="5.74887">
        <ele>574</ele>
        <time>2022-07-29T16:30:06Z</time>
      </trkpt>
      <trkpt lat="46.54529" lon="5.74881">
        <ele>573.8</ele>
        <time>2022-07-29T16:30:07Z</time>
      </trkpt>
      <trkpt lat="46.54537" lon="5.74876">
        <ele>573.8</ele>
        <time>2022-07-29T16:30:08Z</time>
      </trkpt>
      <trkpt lat="46.54537" lon="5.74876">
        <ele>573.8</ele>
        <time>2022-07-29T16:30:09Z</time>
      </trkpt>
      <trkpt lat="46.54545" lon="5.74871">
        <ele>573.4</ele>
        <time>2022-07-29T16:30:10Z</time>
      </trkpt>
      <trkpt lat="46.54552" lon="5.74866">
        <ele>573.4</ele>
        <time>2022-07-29T16:30:11Z</time>
      </trkpt>
      <trkpt lat="46.5456" lon="5.7486">
        <ele>573.2</ele>
        <time>2022-07-29T16:30:12Z</time>
      </trkpt>
      <trkpt lat="46.54567" lon="5.74856">
        <ele>573.2</ele>
        <time>2022-07-29T16:30:13Z</time>
      </trkpt>
      <trkpt lat="46.54575" lon="5.74851">
        <ele>572.8</ele>
        <time>2022-07-29T16:30:14Z</time>
      </trkpt>
      <trkpt lat="46.54582" lon="5.74846">
        <ele>572.8</ele>
        <time>2022-07-29T16:30:15Z</time>
      </trkpt>
      <trkpt lat="46.5459" lon="5.74841">
        <ele>572.6</ele>
        <time>2022-07-29T16:30:16Z</time>
      </trkpt>
      <trkpt lat="46.54597" lon="5.74836">
        <ele>572.6</ele>
        <time>2022-07-29T16:30:17Z</time>
      </trkpt>
      <trkpt lat="46.54605" lon="5.74831">
        <ele>572.6</ele>
        <time>2022-07-29T16:30:18Z</time>
      </trkpt>
      <trkpt lat="46.54612" lon="5.74826">
        <ele>572.4</ele>
        <time>2022-07-29T16:30:19Z</time>
      </trkpt>
      <trkpt lat="46.5462" lon="5.74821">
        <ele>572.4</ele>
        <time>2022-07-29T16:30:20Z</time>
      </trkpt>
      <trkpt lat="46.54627" lon="5.74816">
        <ele>572</ele>
        <time>2022-07-29T16:30:21Z</time>
      </trkpt>
      <trkpt lat="46.54635" lon="5.74811">
        <ele>572</ele>
        <time>2022-07-29T16:30:22Z</time>
      </trkpt>
      <trkpt lat="46.54642" lon="5.74806">
        <ele>572</ele>
        <time>2022-07-29T16:30:23Z</time>
      </trkpt>
      <trkpt lat="46.54649" lon="5.74801">
        <ele>572</ele>
        <time>2022-07-29T16:30:24Z</time>
      </trkpt>
      <trkpt lat="46.54656" lon="5.74796">
        <ele>571.8</ele>
        <time>2022-07-29T16:30:25Z</time>
      </trkpt>
      <trkpt lat="46.54663" lon="5.7479">
        <ele>571.8</ele>
        <time>2022-07-29T16:30:26Z</time>
      </trkpt>
      <trkpt lat="46.5467" lon="5.74784">
        <ele>571.8</ele>
        <time>2022-07-29T16:30:27Z</time>
      </trkpt>
      <trkpt lat="46.54676" lon="5.74779">
        <ele>571.8</ele>
        <time>2022-07-29T16:30:28Z</time>
      </trkpt>
      <trkpt lat="46.54683" lon="5.74773">
        <ele>571.8</ele>
        <time>2022-07-29T16:30:29Z</time>
      </trkpt>
      <trkpt lat="46.54689" lon="5.74767">
        <ele>571.8</ele>
        <time>2022-07-29T16:30:30Z</time>
      </trkpt>
      <trkpt lat="46.54696" lon="5.74761">
        <ele>571.8</ele>
        <time>2022-07-29T16:30:31Z</time>
      </trkpt>
      <trkpt lat="46.54702" lon="5.74755">
        <ele>571.6</ele>
        <time>2022-07-29T16:30:32Z</time>
      </trkpt>
      <trkpt lat="46.54709" lon="5.74748">
        <ele>571.6</ele>
        <time>2022-07-29T16:30:33Z</time>
      </trkpt>
      <trkpt lat="46.54716" lon="5.74742">
        <ele>571.6</ele>
        <time>2022-07-29T16:30:34Z</time>
      </trkpt>
      <trkpt lat="46.54723" lon="5.74736">
        <ele>571.2</ele>
        <time>2022-07-29T16:30:35Z</time>
      </trkpt>
      <trkpt lat="46.5473" lon="5.7473">
        <ele>571</ele>
        <time>2022-07-29T16:30:36Z</time>
      </trkpt>
      <trkpt lat="46.54737" lon="5.74724">
        <ele>570.8</ele>
        <time>2022-07-29T16:30:37Z</time>
      </trkpt>
      <trkpt lat="46.54745" lon="5.74718">
        <ele>570.6</ele>
        <time>2022-07-29T16:30:38Z</time>
      </trkpt>
      <trkpt lat="46.54753" lon="5.74712">
        <ele>570.2</ele>
        <time>2022-07-29T16:30:39Z</time>
      </trkpt>
      <trkpt lat="46.54761" lon="5.74707">
        <ele>570</ele>
        <time>2022-07-29T16:30:40Z</time>
      </trkpt>
      <trkpt lat="46.54769" lon="5.74701">
        <ele>569.6</ele>
        <time>2022-07-29T16:30:41Z</time>
      </trkpt>
      <trkpt lat="46.54777" lon="5.74695">
        <ele>569.4</ele>
        <time>2022-07-29T16:30:42Z</time>
      </trkpt>
      <trkpt lat="46.54794" lon="5.74684">
        <ele>568.8</ele>
        <time>2022-07-29T16:30:43Z</time>
      </trkpt>
      <trkpt lat="46.54811" lon="5.74671">
        <ele>568.4</ele>
        <time>2022-07-29T16:30:44Z</time>
      </trkpt>
      <trkpt lat="46.5482" lon="5.74665">
        <ele>568</ele>
        <time>2022-07-29T16:30:46Z</time>
      </trkpt>
      <trkpt lat="46.54829" lon="5.74659">
        <ele>567.6</ele>
        <time>2022-07-29T16:30:47Z</time>
      </trkpt>
      <trkpt lat="46.54838" lon="5.74653">
        <ele>567.4</ele>
        <time>2022-07-29T16:30:48Z</time>
      </trkpt>
      <trkpt lat="46.54847" lon="5.74647">
        <ele>566.8</ele>
        <time>2022-07-29T16:30:49Z</time>
      </trkpt>
      <trkpt lat="46.54857" lon="5.74642">
        <ele>566.4</ele>
        <time>2022-07-29T16:30:50Z</time>
      </trkpt>
      <trkpt lat="46.54866" lon="5.74635">
        <ele>566</ele>
        <time>2022-07-29T16:30:51Z</time>
      </trkpt>
      <trkpt lat="46.54876" lon="5.74629">
        <ele>565.8</ele>
        <time>2022-07-29T16:30:52Z</time>
      </trkpt>
      <trkpt lat="46.54885" lon="5.74622">
        <ele>565.4</ele>
        <time>2022-07-29T16:30:53Z</time>
      </trkpt>
      <trkpt lat="46.54894" lon="5.74615">
        <ele>565</ele>
        <time>2022-07-29T16:30:54Z</time>
      </trkpt>
      <trkpt lat="46.54903" lon="5.74607">
        <ele>564.8</ele>
        <time>2022-07-29T16:30:55Z</time>
      </trkpt>
      <trkpt lat="46.54913" lon="5.74599">
        <ele>564.6</ele>
        <time>2022-07-29T16:30:56Z</time>
      </trkpt>
      <trkpt lat="46.54921" lon="5.7459">
        <ele>564.2</ele>
        <time>2022-07-29T16:30:57Z</time>
      </trkpt>
      <trkpt lat="46.5493" lon="5.74581">
        <ele>564</ele>
        <time>2022-07-29T16:30:58Z</time>
      </trkpt>
      <trkpt lat="46.54938" lon="5.74571">
        <ele>563.8</ele>
        <time>2022-07-29T16:30:59Z</time>
      </trkpt>
      <trkpt lat="46.54946" lon="5.74562">
        <ele>563.8</ele>
        <time>2022-07-29T16:31:00Z</time>
      </trkpt>
      <trkpt lat="46.54954" lon="5.74554">
        <ele>563.6</ele>
        <time>2022-07-29T16:31:01Z</time>
      </trkpt>
      <trkpt lat="46.54963" lon="5.74546">
        <ele>563.6</ele>
        <time>2022-07-29T16:31:02Z</time>
      </trkpt>
      <trkpt lat="46.54972" lon="5.74537">
        <ele>563</ele>
        <time>2022-07-29T16:31:03Z</time>
      </trkpt>
      <trkpt lat="46.5498" lon="5.74528">
        <ele>563</ele>
        <time>2022-07-29T16:31:04Z</time>
      </trkpt>
      <trkpt lat="46.54989" lon="5.74519">
        <ele>562.6</ele>
        <time>2022-07-29T16:31:05Z</time>
      </trkpt>
      <trkpt lat="46.54998" lon="5.74511">
        <ele>562.2</ele>
        <time>2022-07-29T16:31:06Z</time>
      </trkpt>
      <trkpt lat="46.55007" lon="5.74503">
        <ele>562</ele>
        <time>2022-07-29T16:31:07Z</time>
      </trkpt>
      <trkpt lat="46.55016" lon="5.74495">
        <ele>561.6</ele>
        <time>2022-07-29T16:31:08Z</time>
      </trkpt>
      <trkpt lat="46.55025" lon="5.74487">
        <ele>561.2</ele>
        <time>2022-07-29T16:31:09Z</time>
      </trkpt>
      <trkpt lat="46.55035" lon="5.7448">
        <ele>561</ele>
        <time>2022-07-29T16:31:10Z</time>
      </trkpt>
      <trkpt lat="46.55045" lon="5.74475">
        <ele>560.6</ele>
        <time>2022-07-29T16:31:11Z</time>
      </trkpt>
      <trkpt lat="46.55055" lon="5.7447">
        <ele>560.2</ele>
        <time>2022-07-29T16:31:12Z</time>
      </trkpt>
      <trkpt lat="46.55066" lon="5.74467">
        <ele>559.8</ele>
        <time>2022-07-29T16:31:13Z</time>
      </trkpt>
      <trkpt lat="46.55077" lon="5.74465">
        <ele>559.4</ele>
        <time>2022-07-29T16:31:14Z</time>
      </trkpt>
      <trkpt lat="46.55088" lon="5.74464">
        <ele>559.2</ele>
        <time>2022-07-29T16:31:15Z</time>
      </trkpt>
      <trkpt lat="46.55098" lon="5.74464">
        <ele>558.6</ele>
        <time>2022-07-29T16:31:16Z</time>
      </trkpt>
      <trkpt lat="46.55109" lon="5.74465">
        <ele>558.2</ele>
        <time>2022-07-29T16:31:17Z</time>
      </trkpt>
      <trkpt lat="46.5512" lon="5.74467">
        <ele>558</ele>
        <time>2022-07-29T16:31:18Z</time>
      </trkpt>
      <trkpt lat="46.5513" lon="5.74469">
        <ele>557.6</ele>
        <time>2022-07-29T16:31:19Z</time>
      </trkpt>
      <trkpt lat="46.5514" lon="5.74472">
        <ele>557.2</ele>
        <time>2022-07-29T16:31:20Z</time>
      </trkpt>
      <trkpt lat="46.5515" lon="5.74475">
        <ele>557</ele>
        <time>2022-07-29T16:31:21Z</time>
      </trkpt>
      <trkpt lat="46.5516" lon="5.74477">
        <ele>556.6</ele>
        <time>2022-07-29T16:31:22Z</time>
      </trkpt>
      <trkpt lat="46.55169" lon="5.7448">
        <ele>556.4</ele>
        <time>2022-07-29T16:31:23Z</time>
      </trkpt>
      <trkpt lat="46.55179" lon="5.74483">
        <ele>556</ele>
        <time>2022-07-29T16:31:24Z</time>
      </trkpt>
      <trkpt lat="46.55189" lon="5.74486">
        <ele>555.6</ele>
        <time>2022-07-29T16:31:25Z</time>
      </trkpt>
      <trkpt lat="46.55199" lon="5.74489">
        <ele>555.4</ele>
        <time>2022-07-29T16:31:26Z</time>
      </trkpt>
      <trkpt lat="46.55209" lon="5.74492">
        <ele>555</ele>
        <time>2022-07-29T16:31:27Z</time>
      </trkpt>
      <trkpt lat="46.55219" lon="5.74495">
        <ele>555</ele>
        <time>2022-07-29T16:31:28Z</time>
      </trkpt>
      <trkpt lat="46.5523" lon="5.74498">
        <ele>554.6</ele>
        <time>2022-07-29T16:31:29Z</time>
      </trkpt>
      <trkpt lat="46.5524" lon="5.745">
        <ele>554.2</ele>
        <time>2022-07-29T16:31:30Z</time>
      </trkpt>
      <trkpt lat="46.5525" lon="5.74503">
        <ele>553.8</ele>
        <time>2022-07-29T16:31:31Z</time>
      </trkpt>
      <trkpt lat="46.5526" lon="5.74506">
        <ele>553.2</ele>
        <time>2022-07-29T16:31:32Z</time>
      </trkpt>
      <trkpt lat="46.5527" lon="5.74509">
        <ele>553.2</ele>
        <time>2022-07-29T16:31:33Z</time>
      </trkpt>
      <trkpt lat="46.55279" lon="5.74513">
        <ele>552.8</ele>
        <time>2022-07-29T16:31:34Z</time>
      </trkpt>
      <trkpt lat="46.55289" lon="5.74515">
        <ele>552.6</ele>
        <time>2022-07-29T16:31:35Z</time>
      </trkpt>
      <trkpt lat="46.55299" lon="5.74518">
        <ele>552.2</ele>
        <time>2022-07-29T16:31:36Z</time>
      </trkpt>
      <trkpt lat="46.55309" lon="5.74521">
        <ele>552</ele>
        <time>2022-07-29T16:31:37Z</time>
      </trkpt>
      <trkpt lat="46.55319" lon="5.74525">
        <ele>551.8</ele>
        <time>2022-07-29T16:31:38Z</time>
      </trkpt>
      <trkpt lat="46.55329" lon="5.74527">
        <ele>551.6</ele>
        <time>2022-07-29T16:31:39Z</time>
      </trkpt>
      <trkpt lat="46.55338" lon="5.74529">
        <ele>551.6</ele>
        <time>2022-07-29T16:31:40Z</time>
      </trkpt>
      <trkpt lat="46.55347" lon="5.74532">
        <ele>551.2</ele>
        <time>2022-07-29T16:31:41Z</time>
      </trkpt>
      <trkpt lat="46.55357" lon="5.74534">
        <ele>551</ele>
        <time>2022-07-29T16:31:42Z</time>
      </trkpt>
      <trkpt lat="46.55366" lon="5.74536">
        <ele>550.8</ele>
        <time>2022-07-29T16:31:43Z</time>
      </trkpt>
      <trkpt lat="46.55376" lon="5.74537">
        <ele>550.8</ele>
        <time>2022-07-29T16:31:44Z</time>
      </trkpt>
      <trkpt lat="46.55385" lon="5.74537">
        <ele>550.8</ele>
        <time>2022-07-29T16:31:45Z</time>
      </trkpt>
      <trkpt lat="46.55393" lon="5.74537">
        <ele>550.4</ele>
        <time>2022-07-29T16:31:46Z</time>
      </trkpt>
      <trkpt lat="46.55402" lon="5.74537">
        <ele>550.4</ele>
        <time>2022-07-29T16:31:47Z</time>
      </trkpt>
      <trkpt lat="46.55411" lon="5.74535">
        <ele>550.4</ele>
        <time>2022-07-29T16:31:48Z</time>
      </trkpt>
      <trkpt lat="46.5542" lon="5.74536">
        <ele>550.2</ele>
        <time>2022-07-29T16:31:49Z</time>
      </trkpt>
      <trkpt lat="46.5543" lon="5.74535">
        <ele>550.2</ele>
        <time>2022-07-29T16:31:50Z</time>
      </trkpt>
      <trkpt lat="46.55439" lon="5.74534">
        <ele>550</ele>
        <time>2022-07-29T16:31:51Z</time>
      </trkpt>
      <trkpt lat="46.55448" lon="5.74532">
        <ele>550</ele>
        <time>2022-07-29T16:31:52Z</time>
      </trkpt>
      <trkpt lat="46.55457" lon="5.7453">
        <ele>549.6</ele>
        <time>2022-07-29T16:31:53Z</time>
      </trkpt>
      <trkpt lat="46.55465" lon="5.74527">
        <ele>549.6</ele>
        <time>2022-07-29T16:31:54Z</time>
      </trkpt>
      <trkpt lat="46.55474" lon="5.74525">
        <ele>549.4</ele>
        <time>2022-07-29T16:31:55Z</time>
      </trkpt>
      <trkpt lat="46.55483" lon="5.74523">
        <ele>549.4</ele>
        <time>2022-07-29T16:31:56Z</time>
      </trkpt>
      <trkpt lat="46.55491" lon="5.74521">
        <ele>549.4</ele>
        <time>2022-07-29T16:31:57Z</time>
      </trkpt>
      <trkpt lat="46.55499" lon="5.74518">
        <ele>549.2</ele>
        <time>2022-07-29T16:31:58Z</time>
      </trkpt>
      <trkpt lat="46.55508" lon="5.74515">
        <ele>549.2</ele>
        <time>2022-07-29T16:31:59Z</time>
      </trkpt>
      <trkpt lat="46.55516" lon="5.74513">
        <ele>549.2</ele>
        <time>2022-07-29T16:32:00Z</time>
      </trkpt>
      <trkpt lat="46.55523" lon="5.7451">
        <ele>549</ele>
        <time>2022-07-29T16:32:01Z</time>
      </trkpt>
      <trkpt lat="46.55531" lon="5.74507">
        <ele>549</ele>
        <time>2022-07-29T16:32:02Z</time>
      </trkpt>
      <trkpt lat="46.55539" lon="5.74504">
        <ele>549</ele>
        <time>2022-07-29T16:32:03Z</time>
      </trkpt>
      <trkpt lat="46.55547" lon="5.74501">
        <ele>548.6</ele>
        <time>2022-07-29T16:32:04Z</time>
      </trkpt>
      <trkpt lat="46.55555" lon="5.74499">
        <ele>548.6</ele>
        <time>2022-07-29T16:32:05Z</time>
      </trkpt>
      <trkpt lat="46.55563" lon="5.74496">
        <ele>548.4</ele>
        <time>2022-07-29T16:32:06Z</time>
      </trkpt>
      <trkpt lat="46.55571" lon="5.74494">
        <ele>548.4</ele>
        <time>2022-07-29T16:32:07Z</time>
      </trkpt>
      <trkpt lat="46.55579" lon="5.74492">
        <ele>548.2</ele>
        <time>2022-07-29T16:32:08Z</time>
      </trkpt>
      <trkpt lat="46.55587" lon="5.7449">
        <ele>548.2</ele>
        <time>2022-07-29T16:32:09Z</time>
      </trkpt>
      <trkpt lat="46.55596" lon="5.74488">
        <ele>547.8</ele>
        <time>2022-07-29T16:32:10Z</time>
      </trkpt>
      <trkpt lat="46.55604" lon="5.74487">
        <ele>547.8</ele>
        <time>2022-07-29T16:32:11Z</time>
      </trkpt>
      <trkpt lat="46.55612" lon="5.74486">
        <ele>547.6</ele>
        <time>2022-07-29T16:32:12Z</time>
      </trkpt>
      <trkpt lat="46.55621" lon="5.74484">
        <ele>547.6</ele>
        <time>2022-07-29T16:32:13Z</time>
      </trkpt>
      <trkpt lat="46.55629" lon="5.74484">
        <ele>547.2</ele>
        <time>2022-07-29T16:32:14Z</time>
      </trkpt>
      <trkpt lat="46.55637" lon="5.74483">
        <ele>547</ele>
        <time>2022-07-29T16:32:15Z</time>
      </trkpt>
      <trkpt lat="46.55646" lon="5.74483">
        <ele>547</ele>
        <time>2022-07-29T16:32:16Z</time>
      </trkpt>
      <trkpt lat="46.55654" lon="5.74484">
        <ele>546.8</ele>
        <time>2022-07-29T16:32:17Z</time>
      </trkpt>
      <trkpt lat="46.55663" lon="5.74485">
        <ele>546.6</ele>
        <time>2022-07-29T16:32:18Z</time>
      </trkpt>
      <trkpt lat="46.55671" lon="5.74485">
        <ele>546.6</ele>
        <time>2022-07-29T16:32:19Z</time>
      </trkpt>
      <trkpt lat="46.5568" lon="5.74485">
        <ele>546.2</ele>
        <time>2022-07-29T16:32:20Z</time>
      </trkpt>
      <trkpt lat="46.55688" lon="5.74486">
        <ele>546.2</ele>
        <time>2022-07-29T16:32:21Z</time>
      </trkpt>
      <trkpt lat="46.55697" lon="5.74487">
        <ele>546</ele>
        <time>2022-07-29T16:32:22Z</time>
      </trkpt>
      <trkpt lat="46.55705" lon="5.74487">
        <ele>546</ele>
        <time>2022-07-29T16:32:23Z</time>
      </trkpt>
      <trkpt lat="46.55714" lon="5.74488">
        <ele>545.6</ele>
        <time>2022-07-29T16:32:24Z</time>
      </trkpt>
      <trkpt lat="46.55722" lon="5.74489">
        <ele>545.6</ele>
        <time>2022-07-29T16:32:25Z</time>
      </trkpt>
      <trkpt lat="46.55731" lon="5.74489">
        <ele>545.6</ele>
        <time>2022-07-29T16:32:26Z</time>
      </trkpt>
      <trkpt lat="46.55739" lon="5.7449">
        <ele>545.6</ele>
        <time>2022-07-29T16:32:27Z</time>
      </trkpt>
      <trkpt lat="46.55748" lon="5.7449">
        <ele>545.4</ele>
        <time>2022-07-29T16:32:28Z</time>
      </trkpt>
      <trkpt lat="46.55756" lon="5.74491">
        <ele>545.4</ele>
        <time>2022-07-29T16:32:29Z</time>
      </trkpt>
      <trkpt lat="46.55765" lon="5.74491">
        <ele>545.2</ele>
        <time>2022-07-29T16:32:30Z</time>
      </trkpt>
      <trkpt lat="46.55773" lon="5.74492">
        <ele>545.2</ele>
        <time>2022-07-29T16:32:31Z</time>
      </trkpt>
      <trkpt lat="46.55781" lon="5.74492">
        <ele>545</ele>
        <time>2022-07-29T16:32:32Z</time>
      </trkpt>
      <trkpt lat="46.55789" lon="5.74493">
        <ele>545</ele>
        <time>2022-07-29T16:32:33Z</time>
      </trkpt>
      <trkpt lat="46.55798" lon="5.74494">
        <ele>544.8</ele>
        <time>2022-07-29T16:32:34Z</time>
      </trkpt>
      <trkpt lat="46.55806" lon="5.74495">
        <ele>544.8</ele>
        <time>2022-07-29T16:32:35Z</time>
      </trkpt>
      <trkpt lat="46.55814" lon="5.74496">
        <ele>544.8</ele>
        <time>2022-07-29T16:32:36Z</time>
      </trkpt>
      <trkpt lat="46.55822" lon="5.74496">
        <ele>544.8</ele>
        <time>2022-07-29T16:32:37Z</time>
      </trkpt>
      <trkpt lat="46.5583" lon="5.74497">
        <ele>544.8</ele>
        <time>2022-07-29T16:32:38Z</time>
      </trkpt>
      <trkpt lat="46.55838" lon="5.74497">
        <ele>544.4</ele>
        <time>2022-07-29T16:32:39Z</time>
      </trkpt>
      <trkpt lat="46.55846" lon="5.74497">
        <ele>544.4</ele>
        <time>2022-07-29T16:32:40Z</time>
      </trkpt>
      <trkpt lat="46.55854" lon="5.74497">
        <ele>544.4</ele>
        <time>2022-07-29T16:32:41Z</time>
      </trkpt>
      <trkpt lat="46.55862" lon="5.74498">
        <ele>544.4</ele>
        <time>2022-07-29T16:32:42Z</time>
      </trkpt>
      <trkpt lat="46.5587" lon="5.74497">
        <ele>544.4</ele>
        <time>2022-07-29T16:32:43Z</time>
      </trkpt>
      <trkpt lat="46.55878" lon="5.74495">
        <ele>544.4</ele>
        <time>2022-07-29T16:32:44Z</time>
      </trkpt>
      <trkpt lat="46.55885" lon="5.74493">
        <ele>544.2</ele>
        <time>2022-07-29T16:32:45Z</time>
      </trkpt>
      <trkpt lat="46.55893" lon="5.74491">
        <ele>544.2</ele>
        <time>2022-07-29T16:32:46Z</time>
      </trkpt>
      <trkpt lat="46.55901" lon="5.74489">
        <ele>544.2</ele>
        <time>2022-07-29T16:32:47Z</time>
      </trkpt>
      <trkpt lat="46.55909" lon="5.74487">
        <ele>544.2</ele>
        <time>2022-07-29T16:32:48Z</time>
      </trkpt>
      <trkpt lat="46.55916" lon="5.74485">
        <ele>544</ele>
        <time>2022-07-29T16:32:49Z</time>
      </trkpt>
      <trkpt lat="46.55924" lon="5.74483">
        <ele>544</ele>
        <time>2022-07-29T16:32:50Z</time>
      </trkpt>
      <trkpt lat="46.55932" lon="5.74481">
        <ele>544</ele>
        <time>2022-07-29T16:32:51Z</time>
      </trkpt>
      <trkpt lat="46.5594" lon="5.74478">
        <ele>543.6</ele>
        <time>2022-07-29T16:32:52Z</time>
      </trkpt>
      <trkpt lat="46.55947" lon="5.74476">
        <ele>543.6</ele>
        <time>2022-07-29T16:32:53Z</time>
      </trkpt>
      <trkpt lat="46.55956" lon="5.74473">
        <ele>543.4</ele>
        <time>2022-07-29T16:32:54Z</time>
      </trkpt>
      <trkpt lat="46.55964" lon="5.74471">
        <ele>543.4</ele>
        <time>2022-07-29T16:32:55Z</time>
      </trkpt>
      <trkpt lat="46.55972" lon="5.74469">
        <ele>543</ele>
        <time>2022-07-29T16:32:56Z</time>
      </trkpt>
      <trkpt lat="46.55981" lon="5.74466">
        <ele>543</ele>
        <time>2022-07-29T16:32:57Z</time>
      </trkpt>
      <trkpt lat="46.55989" lon="5.74463">
        <ele>542.8</ele>
        <time>2022-07-29T16:32:58Z</time>
      </trkpt>
      <trkpt lat="46.55998" lon="5.74461">
        <ele>542.6</ele>
        <time>2022-07-29T16:32:59Z</time>
      </trkpt>
      <trkpt lat="46.56006" lon="5.74458">
        <ele>542.4</ele>
        <time>2022-07-29T16:33:00Z</time>
      </trkpt>
      <trkpt lat="46.56015" lon="5.74456">
        <ele>542.4</ele>
        <time>2022-07-29T16:33:01Z</time>
      </trkpt>
      <trkpt lat="46.56023" lon="5.74453">
        <ele>542</ele>
        <time>2022-07-29T16:33:02Z</time>
      </trkpt>
      <trkpt lat="46.56032" lon="5.74451">
        <ele>541.8</ele>
        <time>2022-07-29T16:33:03Z</time>
      </trkpt>
      <trkpt lat="46.56041" lon="5.74448">
        <ele>541.4</ele>
        <time>2022-07-29T16:33:04Z</time>
      </trkpt>
      <trkpt lat="46.5605" lon="5.74445">
        <ele>541.2</ele>
        <time>2022-07-29T16:33:05Z</time>
      </trkpt>
      <trkpt lat="46.56058" lon="5.74443">
        <ele>541</ele>
        <time>2022-07-29T16:33:06Z</time>
      </trkpt>
      <trkpt lat="46.56067" lon="5.7444">
        <ele>540.6</ele>
        <time>2022-07-29T16:33:07Z</time>
      </trkpt>
      <trkpt lat="46.56076" lon="5.74438">
        <ele>540.4</ele>
        <time>2022-07-29T16:33:08Z</time>
      </trkpt>
      <trkpt lat="46.56085" lon="5.74436">
        <ele>540</ele>
        <time>2022-07-29T16:33:09Z</time>
      </trkpt>
      <trkpt lat="46.56094" lon="5.74434">
        <ele>540</ele>
        <time>2022-07-29T16:33:10Z</time>
      </trkpt>
      <trkpt lat="46.56103" lon="5.74431">
        <ele>539.6</ele>
        <time>2022-07-29T16:33:11Z</time>
      </trkpt>
      <trkpt lat="46.56112" lon="5.74428">
        <ele>539.4</ele>
        <time>2022-07-29T16:33:12Z</time>
      </trkpt>
      <trkpt lat="46.56121" lon="5.74425">
        <ele>539.2</ele>
        <time>2022-07-29T16:33:13Z</time>
      </trkpt>
      <trkpt lat="46.5613" lon="5.74422">
        <ele>539.2</ele>
        <time>2022-07-29T16:33:14Z</time>
      </trkpt>
      <trkpt lat="46.56139" lon="5.74419">
        <ele>538.8</ele>
        <time>2022-07-29T16:33:15Z</time>
      </trkpt>
      <trkpt lat="46.56148" lon="5.74416">
        <ele>538.4</ele>
        <time>2022-07-29T16:33:16Z</time>
      </trkpt>
      <trkpt lat="46.56157" lon="5.74414">
        <ele>538.2</ele>
        <time>2022-07-29T16:33:17Z</time>
      </trkpt>
      <trkpt lat="46.56165" lon="5.74411">
        <ele>538</ele>
        <time>2022-07-29T16:33:18Z</time>
      </trkpt>
      <trkpt lat="46.56175" lon="5.74407">
        <ele>537.8</ele>
        <time>2022-07-29T16:33:19Z</time>
      </trkpt>
      <trkpt lat="46.56183" lon="5.74404">
        <ele>537.4</ele>
        <time>2022-07-29T16:33:20Z</time>
      </trkpt>
      <trkpt lat="46.56192" lon="5.74401">
        <ele>537.4</ele>
        <time>2022-07-29T16:33:21Z</time>
      </trkpt>
      <trkpt lat="46.56192" lon="5.74401">
        <ele>537</ele>
        <time>2022-07-29T16:33:22Z</time>
      </trkpt>
      <trkpt lat="46.56201" lon="5.74399">
        <ele>537</ele>
        <time>2022-07-29T16:33:23Z</time>
      </trkpt>
      <trkpt lat="46.5621" lon="5.74397">
        <ele>536.6</ele>
        <time>2022-07-29T16:33:24Z</time>
      </trkpt>
      <trkpt lat="46.56219" lon="5.74394">
        <ele>536.6</ele>
        <time>2022-07-29T16:33:25Z</time>
      </trkpt>
      <trkpt lat="46.56228" lon="5.74392">
        <ele>536.4</ele>
        <time>2022-07-29T16:33:26Z</time>
      </trkpt>
      <trkpt lat="46.56238" lon="5.74389">
        <ele>536</ele>
        <time>2022-07-29T16:33:27Z</time>
      </trkpt>
      <trkpt lat="46.56247" lon="5.74387">
        <ele>535.8</ele>
        <time>2022-07-29T16:33:28Z</time>
      </trkpt>
      <trkpt lat="46.56256" lon="5.74386">
        <ele>535.8</ele>
        <time>2022-07-29T16:33:29Z</time>
      </trkpt>
      <trkpt lat="46.56265" lon="5.74385">
        <ele>535.4</ele>
        <time>2022-07-29T16:33:30Z</time>
      </trkpt>
      <trkpt lat="46.56275" lon="5.74384">
        <ele>535.2</ele>
        <time>2022-07-29T16:33:31Z</time>
      </trkpt>
      <trkpt lat="46.56284" lon="5.74383">
        <ele>535</ele>
        <time>2022-07-29T16:33:32Z</time>
      </trkpt>
      <trkpt lat="46.56294" lon="5.74383">
        <ele>535</ele>
        <time>2022-07-29T16:33:33Z</time>
      </trkpt>
      <trkpt lat="46.56304" lon="5.74383">
        <ele>534.6</ele>
        <time>2022-07-29T16:33:34Z</time>
      </trkpt>
      <trkpt lat="46.56313" lon="5.74384">
        <ele>534.4</ele>
        <time>2022-07-29T16:33:35Z</time>
      </trkpt>
      <trkpt lat="46.56322" lon="5.74384">
        <ele>534.4</ele>
        <time>2022-07-29T16:33:36Z</time>
      </trkpt>
      <trkpt lat="46.56331" lon="5.74386">
        <ele>533.8</ele>
        <time>2022-07-29T16:33:37Z</time>
      </trkpt>
      <trkpt lat="46.5634" lon="5.74386">
        <ele>533.8</ele>
        <time>2022-07-29T16:33:38Z</time>
      </trkpt>
      <trkpt lat="46.5635" lon="5.74387">
        <ele>533.4</ele>
        <time>2022-07-29T16:33:39Z</time>
      </trkpt>
      <trkpt lat="46.56359" lon="5.74388">
        <ele>533.4</ele>
        <time>2022-07-29T16:33:40Z</time>
      </trkpt>
      <trkpt lat="46.56368" lon="5.74391">
        <ele>533.2</ele>
        <time>2022-07-29T16:33:41Z</time>
      </trkpt>
      <trkpt lat="46.56378" lon="5.74391">
        <ele>533</ele>
        <time>2022-07-29T16:33:42Z</time>
      </trkpt>
      <trkpt lat="46.56387" lon="5.74393">
        <ele>533</ele>
        <time>2022-07-29T16:33:43Z</time>
      </trkpt>
      <trkpt lat="46.56396" lon="5.74394">
        <ele>532.6</ele>
        <time>2022-07-29T16:33:44Z</time>
      </trkpt>
      <trkpt lat="46.56405" lon="5.74396">
        <ele>532.4</ele>
        <time>2022-07-29T16:33:45Z</time>
      </trkpt>
      <trkpt lat="46.56414" lon="5.74397">
        <ele>532.2</ele>
        <time>2022-07-29T16:33:46Z</time>
      </trkpt>
      <trkpt lat="46.56422" lon="5.74399">
        <ele>532.2</ele>
        <time>2022-07-29T16:33:47Z</time>
      </trkpt>
      <trkpt lat="46.5643" lon="5.744">
        <ele>532</ele>
        <time>2022-07-29T16:33:48Z</time>
      </trkpt>
      <trkpt lat="46.56439" lon="5.74401">
        <ele>532</ele>
        <time>2022-07-29T16:33:49Z</time>
      </trkpt>
      <trkpt lat="46.56448" lon="5.74404">
        <ele>531.6</ele>
        <time>2022-07-29T16:33:50Z</time>
      </trkpt>
      <trkpt lat="46.56456" lon="5.74405">
        <ele>531.6</ele>
        <time>2022-07-29T16:33:51Z</time>
      </trkpt>
      <trkpt lat="46.56465" lon="5.74406">
        <ele>531.4</ele>
        <time>2022-07-29T16:33:52Z</time>
      </trkpt>
      <trkpt lat="46.56474" lon="5.74407">
        <ele>531.4</ele>
        <time>2022-07-29T16:33:53Z</time>
      </trkpt>
      <trkpt lat="46.56483" lon="5.74408">
        <ele>531</ele>
        <time>2022-07-29T16:33:54Z</time>
      </trkpt>
      <trkpt lat="46.56492" lon="5.7441">
        <ele>531</ele>
        <time>2022-07-29T16:33:55Z</time>
      </trkpt>
      <trkpt lat="46.565" lon="5.74411">
        <ele>531</ele>
        <time>2022-07-29T16:33:56Z</time>
      </trkpt>
      <trkpt lat="46.56508" lon="5.74412">
        <ele>530.8</ele>
        <time>2022-07-29T16:33:57Z</time>
      </trkpt>
      <trkpt lat="46.56516" lon="5.74413">
        <ele>530.8</ele>
        <time>2022-07-29T16:33:58Z</time>
      </trkpt>
      <trkpt lat="46.56525" lon="5.74414">
        <ele>530.8</ele>
        <time>2022-07-29T16:33:59Z</time>
      </trkpt>
      <trkpt lat="46.56533" lon="5.74415">
        <ele>530.6</ele>
        <time>2022-07-29T16:34:00Z</time>
      </trkpt>
      <trkpt lat="46.56541" lon="5.74417">
        <ele>530.6</ele>
        <time>2022-07-29T16:34:01Z</time>
      </trkpt>
      <trkpt lat="46.5655" lon="5.74418">
        <ele>530.6</ele>
        <time>2022-07-29T16:34:02Z</time>
      </trkpt>
      <trkpt lat="46.56558" lon="5.74419">
        <ele>530.6</ele>
        <time>2022-07-29T16:34:03Z</time>
      </trkpt>
      <trkpt lat="46.56566" lon="5.7442">
        <ele>530.6</ele>
        <time>2022-07-29T16:34:04Z</time>
      </trkpt>
      <trkpt lat="46.56574" lon="5.74421">
        <ele>530.6</ele>
        <time>2022-07-29T16:34:05Z</time>
      </trkpt>
      <trkpt lat="46.56582" lon="5.74422">
        <ele>530.6</ele>
        <time>2022-07-29T16:34:06Z</time>
      </trkpt>
      <trkpt lat="46.5659" lon="5.74423">
        <ele>530.6</ele>
        <time>2022-07-29T16:34:07Z</time>
      </trkpt>
      <trkpt lat="46.56598" lon="5.74425">
        <ele>530.6</ele>
        <time>2022-07-29T16:34:08Z</time>
      </trkpt>
      <trkpt lat="46.56606" lon="5.74426">
        <ele>530.6</ele>
        <time>2022-07-29T16:34:09Z</time>
      </trkpt>
      <trkpt lat="46.56614" lon="5.74427">
        <ele>530.4</ele>
        <time>2022-07-29T16:34:10Z</time>
      </trkpt>
      <trkpt lat="46.56621" lon="5.74429">
        <ele>530.4</ele>
        <time>2022-07-29T16:34:11Z</time>
      </trkpt>
      <trkpt lat="46.56629" lon="5.7443">
        <ele>530.4</ele>
        <time>2022-07-29T16:34:12Z</time>
      </trkpt>
      <trkpt lat="46.56637" lon="5.74431">
        <ele>530</ele>
        <time>2022-07-29T16:34:13Z</time>
      </trkpt>
      <trkpt lat="46.56645" lon="5.74431">
        <ele>530</ele>
        <time>2022-07-29T16:34:14Z</time>
      </trkpt>
      <trkpt lat="46.56652" lon="5.74433">
        <ele>530</ele>
        <time>2022-07-29T16:34:15Z</time>
      </trkpt>
      <trkpt lat="46.5666" lon="5.74434">
        <ele>529.8</ele>
        <time>2022-07-29T16:34:16Z</time>
      </trkpt>
      <trkpt lat="46.56668" lon="5.74435">
        <ele>529.8</ele>
        <time>2022-07-29T16:34:17Z</time>
      </trkpt>
      <trkpt lat="46.56675" lon="5.74436">
        <ele>529.8</ele>
        <time>2022-07-29T16:34:18Z</time>
      </trkpt>
      <trkpt lat="46.56683" lon="5.74437">
        <ele>529.8</ele>
        <time>2022-07-29T16:34:19Z</time>
      </trkpt>
      <trkpt lat="46.5669" lon="5.74438">
        <ele>529.8</ele>
        <time>2022-07-29T16:34:20Z</time>
      </trkpt>
      <trkpt lat="46.56698" lon="5.7444">
        <ele>529.6</ele>
        <time>2022-07-29T16:34:21Z</time>
      </trkpt>
      <trkpt lat="46.56705" lon="5.74441">
        <ele>529.6</ele>
        <time>2022-07-29T16:34:22Z</time>
      </trkpt>
      <trkpt lat="46.56713" lon="5.74442">
        <ele>529.6</ele>
        <time>2022-07-29T16:34:23Z</time>
      </trkpt>
      <trkpt lat="46.5672" lon="5.74443">
        <ele>529.6</ele>
        <time>2022-07-29T16:34:24Z</time>
      </trkpt>
      <trkpt lat="46.56728" lon="5.74444">
        <ele>529.6</ele>
        <time>2022-07-29T16:34:25Z</time>
      </trkpt>
      <trkpt lat="46.56735" lon="5.74446">
        <ele>529.6</ele>
        <time>2022-07-29T16:34:26Z</time>
      </trkpt>
      <trkpt lat="46.56743" lon="5.74448">
        <ele>529.6</ele>
        <time>2022-07-29T16:34:27Z</time>
      </trkpt>
      <trkpt lat="46.5675" lon="5.74449">
        <ele>529.4</ele>
        <time>2022-07-29T16:34:28Z</time>
      </trkpt>
      <trkpt lat="46.56758" lon="5.74451">
        <ele>529.4</ele>
        <time>2022-07-29T16:34:29Z</time>
      </trkpt>
      <trkpt lat="46.56765" lon="5.74452">
        <ele>529.4</ele>
        <time>2022-07-29T16:34:30Z</time>
      </trkpt>
      <trkpt lat="46.56772" lon="5.74454">
        <ele>529.4</ele>
        <time>2022-07-29T16:34:31Z</time>
      </trkpt>
      <trkpt lat="46.5678" lon="5.74456">
        <ele>529</ele>
        <time>2022-07-29T16:34:32Z</time>
      </trkpt>
      <trkpt lat="46.56787" lon="5.74458">
        <ele>529</ele>
        <time>2022-07-29T16:34:33Z</time>
      </trkpt>
      <trkpt lat="46.56794" lon="5.7446">
        <ele>529</ele>
        <time>2022-07-29T16:34:34Z</time>
      </trkpt>
      <trkpt lat="46.56801" lon="5.74462">
        <ele>529</ele>
        <time>2022-07-29T16:34:35Z</time>
      </trkpt>
      <trkpt lat="46.56808" lon="5.74464">
        <ele>529</ele>
        <time>2022-07-29T16:34:36Z</time>
      </trkpt>
      <trkpt lat="46.56816" lon="5.74467">
        <ele>529</ele>
        <time>2022-07-29T16:34:37Z</time>
      </trkpt>
      <trkpt lat="46.56823" lon="5.74469">
        <ele>529</ele>
        <time>2022-07-29T16:34:38Z</time>
      </trkpt>
      <trkpt lat="46.5683" lon="5.74471">
        <ele>529</ele>
        <time>2022-07-29T16:34:39Z</time>
      </trkpt>
      <trkpt lat="46.56838" lon="5.74474">
        <ele>529</ele>
        <time>2022-07-29T16:34:40Z</time>
      </trkpt>
      <trkpt lat="46.56845" lon="5.74476">
        <ele>529</ele>
        <time>2022-07-29T16:34:41Z</time>
      </trkpt>
      <trkpt lat="46.56852" lon="5.74478">
        <ele>529</ele>
        <time>2022-07-29T16:34:42Z</time>
      </trkpt>
      <trkpt lat="46.56867" lon="5.74482">
        <ele>528.8</ele>
        <time>2022-07-29T16:34:43Z</time>
      </trkpt>
      <trkpt lat="46.56875" lon="5.74484">
        <ele>528.8</ele>
        <time>2022-07-29T16:34:44Z</time>
      </trkpt>
      <trkpt lat="46.56882" lon="5.74486">
        <ele>528.8</ele>
        <time>2022-07-29T16:34:45Z</time>
      </trkpt>
      <trkpt lat="46.5689" lon="5.74489">
        <ele>528.8</ele>
        <time>2022-07-29T16:34:46Z</time>
      </trkpt>
      <trkpt lat="46.56897" lon="5.74491">
        <ele>528.8</ele>
        <time>2022-07-29T16:34:47Z</time>
      </trkpt>
      <trkpt lat="46.56905" lon="5.74493">
        <ele>528.6</ele>
        <time>2022-07-29T16:34:48Z</time>
      </trkpt>
      <trkpt lat="46.56912" lon="5.74495">
        <ele>528.6</ele>
        <time>2022-07-29T16:34:49Z</time>
      </trkpt>
      <trkpt lat="46.5692" lon="5.74498">
        <ele>528.6</ele>
        <time>2022-07-29T16:34:50Z</time>
      </trkpt>
      <trkpt lat="46.56928" lon="5.745">
        <ele>528.6</ele>
        <time>2022-07-29T16:34:51Z</time>
      </trkpt>
      <trkpt lat="46.56936" lon="5.74502">
        <ele>528.6</ele>
        <time>2022-07-29T16:34:52Z</time>
      </trkpt>
      <trkpt lat="46.56944" lon="5.74504">
        <ele>528.4</ele>
        <time>2022-07-29T16:34:53Z</time>
      </trkpt>
      <trkpt lat="46.56952" lon="5.74506">
        <ele>528.4</ele>
        <time>2022-07-29T16:34:54Z</time>
      </trkpt>
      <trkpt lat="46.56959" lon="5.74509">
        <ele>528.4</ele>
        <time>2022-07-29T16:34:55Z</time>
      </trkpt>
      <trkpt lat="46.56967" lon="5.74511">
        <ele>528.2</ele>
        <time>2022-07-29T16:34:56Z</time>
      </trkpt>
      <trkpt lat="46.56974" lon="5.74514">
        <ele>528.2</ele>
        <time>2022-07-29T16:34:57Z</time>
      </trkpt>
      <trkpt lat="46.56982" lon="5.74516">
        <ele>528.2</ele>
        <time>2022-07-29T16:34:58Z</time>
      </trkpt>
      <trkpt lat="46.5699" lon="5.74519">
        <ele>527.8</ele>
        <time>2022-07-29T16:34:59Z</time>
      </trkpt>
      <trkpt lat="46.56997" lon="5.74521">
        <ele>527.8</ele>
        <time>2022-07-29T16:35:00Z</time>
      </trkpt>
      <trkpt lat="46.57005" lon="5.74524">
        <ele>527.8</ele>
        <time>2022-07-29T16:35:01Z</time>
      </trkpt>
      <trkpt lat="46.57013" lon="5.74526">
        <ele>527.6</ele>
        <time>2022-07-29T16:35:02Z</time>
      </trkpt>
      <trkpt lat="46.57021" lon="5.74529">
        <ele>527.6</ele>
        <time>2022-07-29T16:35:03Z</time>
      </trkpt>
      <trkpt lat="46.57029" lon="5.74531">
        <ele>527.6</ele>
        <time>2022-07-29T16:35:04Z</time>
      </trkpt>
      <trkpt lat="46.57037" lon="5.74533">
        <ele>527.6</ele>
        <time>2022-07-29T16:35:05Z</time>
      </trkpt>
      <trkpt lat="46.57045" lon="5.74536">
        <ele>527.4</ele>
        <time>2022-07-29T16:35:06Z</time>
      </trkpt>
      <trkpt lat="46.57053" lon="5.74538">
        <ele>527.4</ele>
        <time>2022-07-29T16:35:07Z</time>
      </trkpt>
      <trkpt lat="46.57061" lon="5.74541">
        <ele>527.4</ele>
        <time>2022-07-29T16:35:08Z</time>
      </trkpt>
      <trkpt lat="46.57068" lon="5.74543">
        <ele>527.4</ele>
        <time>2022-07-29T16:35:09Z</time>
      </trkpt>
      <trkpt lat="46.57076" lon="5.74546">
        <ele>527.4</ele>
        <time>2022-07-29T16:35:10Z</time>
      </trkpt>
      <trkpt lat="46.57084" lon="5.74549">
        <ele>527.2</ele>
        <time>2022-07-29T16:35:11Z</time>
      </trkpt>
      <trkpt lat="46.57092" lon="5.74552">
        <ele>527.2</ele>
        <time>2022-07-29T16:35:12Z</time>
      </trkpt>
      <trkpt lat="46.571" lon="5.74554">
        <ele>527.2</ele>
        <time>2022-07-29T16:35:13Z</time>
      </trkpt>
      <trkpt lat="46.57108" lon="5.74557">
        <ele>527</ele>
        <time>2022-07-29T16:35:14Z</time>
      </trkpt>
      <trkpt lat="46.57116" lon="5.74559">
        <ele>527</ele>
        <time>2022-07-29T16:35:15Z</time>
      </trkpt>
      <trkpt lat="46.57124" lon="5.74562">
        <ele>527</ele>
        <time>2022-07-29T16:35:16Z</time>
      </trkpt>
      <trkpt lat="46.57132" lon="5.74564">
        <ele>527</ele>
        <time>2022-07-29T16:35:17Z</time>
      </trkpt>
      <trkpt lat="46.57139" lon="5.74567">
        <ele>527</ele>
        <time>2022-07-29T16:35:18Z</time>
      </trkpt>
      <trkpt lat="46.57147" lon="5.74569">
        <ele>527</ele>
        <time>2022-07-29T16:35:19Z</time>
      </trkpt>
      <trkpt lat="46.57154" lon="5.74572">
        <ele>526.6</ele>
        <time>2022-07-29T16:35:20Z</time>
      </trkpt>
      <trkpt lat="46.57162" lon="5.74574">
        <ele>526.6</ele>
        <time>2022-07-29T16:35:21Z</time>
      </trkpt>
      <trkpt lat="46.57169" lon="5.74577">
        <ele>526.6</ele>
        <time>2022-07-29T16:35:22Z</time>
      </trkpt>
      <trkpt lat="46.57177" lon="5.74579">
        <ele>526.6</ele>
        <time>2022-07-29T16:35:23Z</time>
      </trkpt>
      <trkpt lat="46.57184" lon="5.74581">
        <ele>526.6</ele>
        <time>2022-07-29T16:35:24Z</time>
      </trkpt>
      <trkpt lat="46.57191" lon="5.74584">
        <ele>526.6</ele>
        <time>2022-07-29T16:35:25Z</time>
      </trkpt>
      <trkpt lat="46.57198" lon="5.74586">
        <ele>526.6</ele>
        <time>2022-07-29T16:35:26Z</time>
      </trkpt>
      <trkpt lat="46.57205" lon="5.74589">
        <ele>526.8</ele>
        <time>2022-07-29T16:35:27Z</time>
      </trkpt>
      <trkpt lat="46.57212" lon="5.74591">
        <ele>526.8</ele>
        <time>2022-07-29T16:35:28Z</time>
      </trkpt>
      <trkpt lat="46.57218" lon="5.74593">
        <ele>526.8</ele>
        <time>2022-07-29T16:35:29Z</time>
      </trkpt>
      <trkpt lat="46.57225" lon="5.74596">
        <ele>526.8</ele>
        <time>2022-07-29T16:35:30Z</time>
      </trkpt>
      <trkpt lat="46.57232" lon="5.74598">
        <ele>526.8</ele>
        <time>2022-07-29T16:35:31Z</time>
      </trkpt>
      <trkpt lat="46.57239" lon="5.74601">
        <ele>526.8</ele>
        <time>2022-07-29T16:35:32Z</time>
      </trkpt>
      <trkpt lat="46.57245" lon="5.74603">
        <ele>527.2</ele>
        <time>2022-07-29T16:35:33Z</time>
      </trkpt>
      <trkpt lat="46.57251" lon="5.74606">
        <ele>527.2</ele>
        <time>2022-07-29T16:35:34Z</time>
      </trkpt>
      <trkpt lat="46.57258" lon="5.74609">
        <ele>527.2</ele>
        <time>2022-07-29T16:35:35Z</time>
      </trkpt>
      <trkpt lat="46.57264" lon="5.74612">
        <ele>527.2</ele>
        <time>2022-07-29T16:35:36Z</time>
      </trkpt>
      <trkpt lat="46.5727" lon="5.74616">
        <ele>527.2</ele>
        <time>2022-07-29T16:35:37Z</time>
      </trkpt>
      <trkpt lat="46.57277" lon="5.7462">
        <ele>527.2</ele>
        <time>2022-07-29T16:35:38Z</time>
      </trkpt>
      <trkpt lat="46.57283" lon="5.74624">
        <ele>527.2</ele>
        <time>2022-07-29T16:35:39Z</time>
      </trkpt>
      <trkpt lat="46.57289" lon="5.74627">
        <ele>527.2</ele>
        <time>2022-07-29T16:35:40Z</time>
      </trkpt>
      <trkpt lat="46.57295" lon="5.74631">
        <ele>527.2</ele>
        <time>2022-07-29T16:35:41Z</time>
      </trkpt>
      <trkpt lat="46.57302" lon="5.74634">
        <ele>527.2</ele>
        <time>2022-07-29T16:35:42Z</time>
      </trkpt>
      <trkpt lat="46.57308" lon="5.74638">
        <ele>527.2</ele>
        <time>2022-07-29T16:35:43Z</time>
      </trkpt>
      <trkpt lat="46.57314" lon="5.74642">
        <ele>527.2</ele>
        <time>2022-07-29T16:35:44Z</time>
      </trkpt>
      <trkpt lat="46.57319" lon="5.74646">
        <ele>527.2</ele>
        <time>2022-07-29T16:35:45Z</time>
      </trkpt>
      <trkpt lat="46.57325" lon="5.7465">
        <ele>527.2</ele>
        <time>2022-07-29T16:35:46Z</time>
      </trkpt>
      <trkpt lat="46.5733" lon="5.74654">
        <ele>527.2</ele>
        <time>2022-07-29T16:35:47Z</time>
      </trkpt>
      <trkpt lat="46.57335" lon="5.74659">
        <ele>527</ele>
        <time>2022-07-29T16:35:48Z</time>
      </trkpt>
      <trkpt lat="46.5734" lon="5.74663">
        <ele>527</ele>
        <time>2022-07-29T16:35:49Z</time>
      </trkpt>
      <trkpt lat="46.57346" lon="5.74667">
        <ele>526.6</ele>
        <time>2022-07-29T16:35:50Z</time>
      </trkpt>
      <trkpt lat="46.57351" lon="5.74671">
        <ele>526.6</ele>
        <time>2022-07-29T16:35:51Z</time>
      </trkpt>
      <trkpt lat="46.57356" lon="5.74675">
        <ele>526.6</ele>
        <time>2022-07-29T16:35:52Z</time>
      </trkpt>
      <trkpt lat="46.57361" lon="5.7468">
        <ele>526.4</ele>
        <time>2022-07-29T16:35:53Z</time>
      </trkpt>
      <trkpt lat="46.57365" lon="5.74685">
        <ele>526.4</ele>
        <time>2022-07-29T16:35:54Z</time>
      </trkpt>
      <trkpt lat="46.57369" lon="5.74689">
        <ele>526.4</ele>
        <time>2022-07-29T16:35:55Z</time>
      </trkpt>
      <trkpt lat="46.57374" lon="5.74694">
        <ele>526.4</ele>
        <time>2022-07-29T16:35:56Z</time>
      </trkpt>
      <trkpt lat="46.57378" lon="5.74698">
        <ele>526.4</ele>
        <time>2022-07-29T16:35:57Z</time>
      </trkpt>
      <trkpt lat="46.57382" lon="5.747">
        <ele>526.4</ele>
        <time>2022-07-29T16:35:58Z</time>
      </trkpt>
      <trkpt lat="46.57387" lon="5.747">
        <ele>526.4</ele>
        <time>2022-07-29T16:35:59Z</time>
      </trkpt>
      <trkpt lat="46.5739" lon="5.74697">
        <ele>526.4</ele>
        <time>2022-07-29T16:36:00Z</time>
      </trkpt>
      <trkpt lat="46.57392" lon="5.74693">
        <ele>526.4</ele>
        <time>2022-07-29T16:36:01Z</time>
      </trkpt>
      <trkpt lat="46.57394" lon="5.74688">
        <ele>526.8</ele>
        <time>2022-07-29T16:36:02Z</time>
      </trkpt>
      <trkpt lat="46.57393" lon="5.74683">
        <ele>526.8</ele>
        <time>2022-07-29T16:36:03Z</time>
      </trkpt>
      <trkpt lat="46.57392" lon="5.74677">
        <ele>527.2</ele>
        <time>2022-07-29T16:36:04Z</time>
      </trkpt>
      <trkpt lat="46.57391" lon="5.74673">
        <ele>527.4</ele>
        <time>2022-07-29T16:36:05Z</time>
      </trkpt>
      <trkpt lat="46.57389" lon="5.74669">
        <ele>527.6</ele>
        <time>2022-07-29T16:36:06Z</time>
      </trkpt>
      <trkpt lat="46.57387" lon="5.74665">
        <ele>528</ele>
        <time>2022-07-29T16:36:07Z</time>
      </trkpt>
      <trkpt lat="46.57386" lon="5.7466">
        <ele>528</ele>
        <time>2022-07-29T16:36:08Z</time>
      </trkpt>
      <trkpt lat="46.57384" lon="5.74656">
        <ele>528.4</ele>
        <time>2022-07-29T16:36:09Z</time>
      </trkpt>
      <trkpt lat="46.57383" lon="5.74652">
        <ele>528.6</ele>
        <time>2022-07-29T16:36:10Z</time>
      </trkpt>
      <trkpt lat="46.57382" lon="5.74648">
        <ele>528.8</ele>
        <time>2022-07-29T16:36:11Z</time>
      </trkpt>
      <trkpt lat="46.57381" lon="5.74643">
        <ele>529.2</ele>
        <time>2022-07-29T16:36:12Z</time>
      </trkpt>
      <trkpt lat="46.5738" lon="5.74639">
        <ele>529.4</ele>
        <time>2022-07-29T16:36:13Z</time>
      </trkpt>
      <trkpt lat="46.57378" lon="5.74636">
        <ele>529.6</ele>
        <time>2022-07-29T16:36:14Z</time>
      </trkpt>
      <trkpt lat="46.57376" lon="5.74632">
        <ele>530</ele>
        <time>2022-07-29T16:36:15Z</time>
      </trkpt>
      <trkpt lat="46.57375" lon="5.74629">
        <ele>530.4</ele>
        <time>2022-07-29T16:36:16Z</time>
      </trkpt>
      <trkpt lat="46.57374" lon="5.74625">
        <ele>530.6</ele>
        <time>2022-07-29T16:36:17Z</time>
      </trkpt>
      <trkpt lat="46.57373" lon="5.74621">
        <ele>531</ele>
        <time>2022-07-29T16:36:18Z</time>
      </trkpt>
      <trkpt lat="46.57372" lon="5.74617">
        <ele>531.2</ele>
        <time>2022-07-29T16:36:19Z</time>
      </trkpt>
      <trkpt lat="46.57372" lon="5.74613">
        <ele>531.6</ele>
        <time>2022-07-29T16:36:20Z</time>
      </trkpt>
      <trkpt lat="46.57371" lon="5.74609">
        <ele>531.8</ele>
        <time>2022-07-29T16:36:21Z</time>
      </trkpt>
      <trkpt lat="46.5737" lon="5.74605">
        <ele>532.2</ele>
        <time>2022-07-29T16:36:22Z</time>
      </trkpt>
      <trkpt lat="46.57369" lon="5.74601">
        <ele>532.6</ele>
        <time>2022-07-29T16:36:23Z</time>
      </trkpt>
      <trkpt lat="46.57368" lon="5.74597">
        <ele>532.8</ele>
        <time>2022-07-29T16:36:24Z</time>
      </trkpt>
      <trkpt lat="46.57368" lon="5.74593">
        <ele>533</ele>
        <time>2022-07-29T16:36:25Z</time>
      </trkpt>
      <trkpt lat="46.57368" lon="5.74589">
        <ele>533.4</ele>
        <time>2022-07-29T16:36:26Z</time>
      </trkpt>
      <trkpt lat="46.57368" lon="5.74585">
        <ele>533.6</ele>
        <time>2022-07-29T16:36:27Z</time>
      </trkpt>
      <trkpt lat="46.57369" lon="5.74581">
        <ele>534</ele>
        <time>2022-07-29T16:36:28Z</time>
      </trkpt>
      <trkpt lat="46.57369" lon="5.74576">
        <ele>534.2</ele>
        <time>2022-07-29T16:36:29Z</time>
      </trkpt>
      <trkpt lat="46.57369" lon="5.74572">
        <ele>534.6</ele>
        <time>2022-07-29T16:36:30Z</time>
      </trkpt>
      <trkpt lat="46.57369" lon="5.74568">
        <ele>534.8</ele>
        <time>2022-07-29T16:36:31Z</time>
      </trkpt>
      <trkpt lat="46.5737" lon="5.74564">
        <ele>535.2</ele>
        <time>2022-07-29T16:36:32Z</time>
      </trkpt>
      <trkpt lat="46.57371" lon="5.7456">
        <ele>535.6</ele>
        <time>2022-07-29T16:36:33Z</time>
      </trkpt>
      <trkpt lat="46.57372" lon="5.74556">
        <ele>536</ele>
        <time>2022-07-29T16:36:34Z</time>
      </trkpt>
      <trkpt lat="46.57373" lon="5.74551">
        <ele>536.4</ele>
        <time>2022-07-29T16:36:35Z</time>
      </trkpt>
      <trkpt lat="46.57374" lon="5.74547">
        <ele>536.6</ele>
        <time>2022-07-29T16:36:36Z</time>
      </trkpt>
      <trkpt lat="46.57375" lon="5.74544">
        <ele>537</ele>
        <time>2022-07-29T16:36:37Z</time>
      </trkpt>
      <trkpt lat="46.57376" lon="5.7454">
        <ele>537.4</ele>
        <time>2022-07-29T16:36:38Z</time>
      </trkpt>
      <trkpt lat="46.57377" lon="5.74536">
        <ele>537.8</ele>
        <time>2022-07-29T16:36:39Z</time>
      </trkpt>
      <trkpt lat="46.57378" lon="5.74533">
        <ele>538</ele>
        <time>2022-07-29T16:36:40Z</time>
      </trkpt>
      <trkpt lat="46.57379" lon="5.74529">
        <ele>538.2</ele>
        <time>2022-07-29T16:36:41Z</time>
      </trkpt>
      <trkpt lat="46.5738" lon="5.74526">
        <ele>538.6</ele>
        <time>2022-07-29T16:36:42Z</time>
      </trkpt>
      <trkpt lat="46.57381" lon="5.74523">
        <ele>538.8</ele>
        <time>2022-07-29T16:36:43Z</time>
      </trkpt>
      <trkpt lat="46.57382" lon="5.74519">
        <ele>539</ele>
        <time>2022-07-29T16:36:44Z</time>
      </trkpt>
      <trkpt lat="46.57383" lon="5.74515">
        <ele>539.4</ele>
        <time>2022-07-29T16:36:45Z</time>
      </trkpt>
      <trkpt lat="46.57383" lon="5.74512">
        <ele>539.6</ele>
        <time>2022-07-29T16:36:46Z</time>
      </trkpt>
      <trkpt lat="46.57384" lon="5.74508">
        <ele>539.6</ele>
        <time>2022-07-29T16:36:47Z</time>
      </trkpt>
      <trkpt lat="46.57385" lon="5.74504">
        <ele>540</ele>
        <time>2022-07-29T16:36:48Z</time>
      </trkpt>
      <trkpt lat="46.57386" lon="5.74501">
        <ele>540.2</ele>
        <time>2022-07-29T16:36:49Z</time>
      </trkpt>
      <trkpt lat="46.57386" lon="5.74497">
        <ele>540.4</ele>
        <time>2022-07-29T16:36:50Z</time>
      </trkpt>
      <trkpt lat="46.57387" lon="5.74494">
        <ele>540.8</ele>
        <time>2022-07-29T16:36:51Z</time>
      </trkpt>
      <trkpt lat="46.57388" lon="5.7449">
        <ele>541</ele>
        <time>2022-07-29T16:36:52Z</time>
      </trkpt>
      <trkpt lat="46.57389" lon="5.74487">
        <ele>541.2</ele>
        <time>2022-07-29T16:36:53Z</time>
      </trkpt>
      <trkpt lat="46.5739" lon="5.74484">
        <ele>541.6</ele>
        <time>2022-07-29T16:36:54Z</time>
      </trkpt>
      <trkpt lat="46.57391" lon="5.74481">
        <ele>541.8</ele>
        <time>2022-07-29T16:36:55Z</time>
      </trkpt>
      <trkpt lat="46.57391" lon="5.74478">
        <ele>542</ele>
        <time>2022-07-29T16:36:56Z</time>
      </trkpt>
      <trkpt lat="46.57392" lon="5.74475">
        <ele>542</ele>
        <time>2022-07-29T16:36:57Z</time>
      </trkpt>
      <trkpt lat="46.57392" lon="5.74472">
        <ele>542.4</ele>
        <time>2022-07-29T16:36:58Z</time>
      </trkpt>
      <trkpt lat="46.57391" lon="5.74468">
        <ele>542.6</ele>
        <time>2022-07-29T16:36:59Z</time>
      </trkpt>
      <trkpt lat="46.57391" lon="5.74463">
        <ele>542.6</ele>
        <time>2022-07-29T16:37:00Z</time>
      </trkpt>
      <trkpt lat="46.57391" lon="5.74459">
        <ele>543</ele>
        <time>2022-07-29T16:37:01Z</time>
      </trkpt>
      <trkpt lat="46.57392" lon="5.74454">
        <ele>543</ele>
        <time>2022-07-29T16:37:02Z</time>
      </trkpt>
      <trkpt lat="46.57392" lon="5.74449">
        <ele>543.4</ele>
        <time>2022-07-29T16:37:03Z</time>
      </trkpt>
      <trkpt lat="46.57393" lon="5.74444">
        <ele>543.6</ele>
        <time>2022-07-29T16:37:04Z</time>
      </trkpt>
      <trkpt lat="46.57393" lon="5.7444">
        <ele>543.6</ele>
        <time>2022-07-29T16:37:05Z</time>
      </trkpt>
      <trkpt lat="46.57393" lon="5.74435">
        <ele>544</ele>
        <time>2022-07-29T16:37:06Z</time>
      </trkpt>
      <trkpt lat="46.57393" lon="5.74431">
        <ele>544.2</ele>
        <time>2022-07-29T16:37:07Z</time>
      </trkpt>
      <trkpt lat="46.57393" lon="5.74427">
        <ele>544.2</ele>
        <time>2022-07-29T16:37:08Z</time>
      </trkpt>
      <trkpt lat="46.57393" lon="5.74423">
        <ele>544.4</ele>
        <time>2022-07-29T16:37:09Z</time>
      </trkpt>
      <trkpt lat="46.57393" lon="5.74418">
        <ele>544.6</ele>
        <time>2022-07-29T16:37:10Z</time>
      </trkpt>
      <trkpt lat="46.57393" lon="5.74414">
        <ele>544.6</ele>
        <time>2022-07-29T16:37:11Z</time>
      </trkpt>
      <trkpt lat="46.57393" lon="5.7441">
        <ele>544.8</ele>
        <time>2022-07-29T16:37:12Z</time>
      </trkpt>
      <trkpt lat="46.57393" lon="5.74405">
        <ele>544.8</ele>
        <time>2022-07-29T16:37:13Z</time>
      </trkpt>
      <trkpt lat="46.57393" lon="5.744">
        <ele>544.8</ele>
        <time>2022-07-29T16:37:14Z</time>
      </trkpt>
      <trkpt lat="46.57393" lon="5.74395">
        <ele>544.8</ele>
        <time>2022-07-29T16:37:15Z</time>
      </trkpt>
      <trkpt lat="46.57393" lon="5.7439">
        <ele>544.8</ele>
        <time>2022-07-29T16:37:16Z</time>
      </trkpt>
      <trkpt lat="46.57393" lon="5.74384">
        <ele>544.8</ele>
        <time>2022-07-29T16:37:17Z</time>
      </trkpt>
      <trkpt lat="46.57393" lon="5.74378">
        <ele>545.2</ele>
        <time>2022-07-29T16:37:18Z</time>
      </trkpt>
      <trkpt lat="46.57393" lon="5.74372">
        <ele>545.2</ele>
        <time>2022-07-29T16:37:19Z</time>
      </trkpt>
      <trkpt lat="46.57393" lon="5.74366">
        <ele>545.2</ele>
        <time>2022-07-29T16:37:20Z</time>
      </trkpt>
      <trkpt lat="46.57393" lon="5.7436">
        <ele>545.4</ele>
        <time>2022-07-29T16:37:21Z</time>
      </trkpt>
      <trkpt lat="46.57393" lon="5.74354">
        <ele>545.4</ele>
        <time>2022-07-29T16:37:22Z</time>
      </trkpt>
      <trkpt lat="46.57393" lon="5.74349">
        <ele>545.6</ele>
        <time>2022-07-29T16:37:23Z</time>
      </trkpt>
      <trkpt lat="46.57393" lon="5.74343">
        <ele>545.6</ele>
        <time>2022-07-29T16:37:24Z</time>
      </trkpt>
      <trkpt lat="46.57392" lon="5.74338">
        <ele>545.8</ele>
        <time>2022-07-29T16:37:25Z</time>
      </trkpt>
      <trkpt lat="46.57392" lon="5.74332">
        <ele>545.8</ele>
        <time>2022-07-29T16:37:26Z</time>
      </trkpt>
      <trkpt lat="46.57393" lon="5.74327">
        <ele>546.2</ele>
        <time>2022-07-29T16:37:27Z</time>
      </trkpt>
      <trkpt lat="46.57393" lon="5.74322">
        <ele>546.2</ele>
        <time>2022-07-29T16:37:28Z</time>
      </trkpt>
      <trkpt lat="46.57393" lon="5.74316">
        <ele>546.6</ele>
        <time>2022-07-29T16:37:29Z</time>
      </trkpt>
      <trkpt lat="46.57393" lon="5.74311">
        <ele>546.6</ele>
        <time>2022-07-29T16:37:30Z</time>
      </trkpt>
      <trkpt lat="46.57393" lon="5.74306">
        <ele>546.8</ele>
        <time>2022-07-29T16:37:31Z</time>
      </trkpt>
      <trkpt lat="46.57393" lon="5.74301">
        <ele>547.2</ele>
        <time>2022-07-29T16:37:32Z</time>
      </trkpt>
      <trkpt lat="46.57394" lon="5.74296">
        <ele>547.2</ele>
        <time>2022-07-29T16:37:33Z</time>
      </trkpt>
      <trkpt lat="46.57395" lon="5.74292">
        <ele>547.6</ele>
        <time>2022-07-29T16:37:34Z</time>
      </trkpt>
      <trkpt lat="46.57395" lon="5.74287">
        <ele>547.8</ele>
        <time>2022-07-29T16:37:35Z</time>
      </trkpt>
      <trkpt lat="46.57396" lon="5.74283">
        <ele>548</ele>
        <time>2022-07-29T16:37:36Z</time>
      </trkpt>
      <trkpt lat="46.57397" lon="5.74278">
        <ele>548.4</ele>
        <time>2022-07-29T16:37:37Z</time>
      </trkpt>
      <trkpt lat="46.57397" lon="5.74274">
        <ele>548.6</ele>
        <time>2022-07-29T16:37:38Z</time>
      </trkpt>
      <trkpt lat="46.57398" lon="5.74269">
        <ele>548.8</ele>
        <time>2022-07-29T16:37:39Z</time>
      </trkpt>
      <trkpt lat="46.57398" lon="5.74265">
        <ele>549</ele>
        <time>2022-07-29T16:37:40Z</time>
      </trkpt>
      <trkpt lat="46.57399" lon="5.7426">
        <ele>549.2</ele>
        <time>2022-07-29T16:37:41Z</time>
      </trkpt>
      <trkpt lat="46.574" lon="5.74255">
        <ele>549.2</ele>
        <time>2022-07-29T16:37:42Z</time>
      </trkpt>
      <trkpt lat="46.574" lon="5.7425">
        <ele>549.6</ele>
        <time>2022-07-29T16:37:43Z</time>
      </trkpt>
      <trkpt lat="46.57401" lon="5.74245">
        <ele>549.6</ele>
        <time>2022-07-29T16:37:44Z</time>
      </trkpt>
      <trkpt lat="46.57401" lon="5.7424">
        <ele>550</ele>
        <time>2022-07-29T16:37:45Z</time>
      </trkpt>
      <trkpt lat="46.57402" lon="5.74235">
        <ele>550.2</ele>
        <time>2022-07-29T16:37:46Z</time>
      </trkpt>
      <trkpt lat="46.57403" lon="5.7423">
        <ele>550.2</ele>
        <time>2022-07-29T16:37:47Z</time>
      </trkpt>
      <trkpt lat="46.57403" lon="5.74224">
        <ele>550.6</ele>
        <time>2022-07-29T16:37:48Z</time>
      </trkpt>
      <trkpt lat="46.57404" lon="5.74219">
        <ele>550.6</ele>
        <time>2022-07-29T16:37:49Z</time>
      </trkpt>
      <trkpt lat="46.57405" lon="5.74214">
        <ele>550.8</ele>
        <time>2022-07-29T16:37:50Z</time>
      </trkpt>
      <trkpt lat="46.57405" lon="5.74208">
        <ele>550.8</ele>
        <time>2022-07-29T16:37:51Z</time>
      </trkpt>
      <trkpt lat="46.57406" lon="5.74203">
        <ele>551.2</ele>
        <time>2022-07-29T16:37:52Z</time>
      </trkpt>
      <trkpt lat="46.57406" lon="5.74197">
        <ele>551.2</ele>
        <time>2022-07-29T16:37:53Z</time>
      </trkpt>
      <trkpt lat="46.57407" lon="5.74191">
        <ele>551.6</ele>
        <time>2022-07-29T16:37:54Z</time>
      </trkpt>
      <trkpt lat="46.57408" lon="5.74186">
        <ele>551.6</ele>
        <time>2022-07-29T16:37:55Z</time>
      </trkpt>
      <trkpt lat="46.5741" lon="5.7418">
        <ele>552</ele>
        <time>2022-07-29T16:37:56Z</time>
      </trkpt>
      <trkpt lat="46.57411" lon="5.74175">
        <ele>552</ele>
        <time>2022-07-29T16:37:57Z</time>
      </trkpt>
      <trkpt lat="46.57413" lon="5.7417">
        <ele>552.4</ele>
        <time>2022-07-29T16:37:58Z</time>
      </trkpt>
      <trkpt lat="46.57414" lon="5.74165">
        <ele>552.4</ele>
        <time>2022-07-29T16:37:59Z</time>
      </trkpt>
      <trkpt lat="46.57416" lon="5.7416">
        <ele>552.6</ele>
        <time>2022-07-29T16:38:00Z</time>
      </trkpt>
      <trkpt lat="46.57418" lon="5.74155">
        <ele>552.6</ele>
        <time>2022-07-29T16:38:01Z</time>
      </trkpt>
      <trkpt lat="46.5742" lon="5.7415">
        <ele>552.6</ele>
        <time>2022-07-29T16:38:02Z</time>
      </trkpt>
      <trkpt lat="46.57422" lon="5.74145">
        <ele>552.8</ele>
        <time>2022-07-29T16:38:03Z</time>
      </trkpt>
      <trkpt lat="46.57424" lon="5.74141">
        <ele>552.8</ele>
        <time>2022-07-29T16:38:04Z</time>
      </trkpt>
      <trkpt lat="46.57426" lon="5.74136">
        <ele>553.2</ele>
        <time>2022-07-29T16:38:05Z</time>
      </trkpt>
      <trkpt lat="46.57428" lon="5.74132">
        <ele>553.4</ele>
        <time>2022-07-29T16:38:06Z</time>
      </trkpt>
      <trkpt lat="46.5743" lon="5.74127">
        <ele>553.6</ele>
        <time>2022-07-29T16:38:07Z</time>
      </trkpt>
      <trkpt lat="46.57432" lon="5.74123">
        <ele>553.6</ele>
        <time>2022-07-29T16:38:08Z</time>
      </trkpt>
      <trkpt lat="46.57435" lon="5.74119">
        <ele>554</ele>
        <time>2022-07-29T16:38:09Z</time>
      </trkpt>
      <trkpt lat="46.57437" lon="5.74115">
        <ele>554</ele>
        <time>2022-07-29T16:38:10Z</time>
      </trkpt>
      <trkpt lat="46.5744" lon="5.74111">
        <ele>554.4</ele>
        <time>2022-07-29T16:38:11Z</time>
      </trkpt>
      <trkpt lat="46.57443" lon="5.74107">
        <ele>554.6</ele>
        <time>2022-07-29T16:38:12Z</time>
      </trkpt>
      <trkpt lat="46.57446" lon="5.74103">
        <ele>554.6</ele>
        <time>2022-07-29T16:38:13Z</time>
      </trkpt>
      <trkpt lat="46.57448" lon="5.74099">
        <ele>555</ele>
        <time>2022-07-29T16:38:14Z</time>
      </trkpt>
      <trkpt lat="46.57451" lon="5.74095">
        <ele>555.2</ele>
        <time>2022-07-29T16:38:15Z</time>
      </trkpt>
      <trkpt lat="46.57454" lon="5.74091">
        <ele>555.2</ele>
        <time>2022-07-29T16:38:16Z</time>
      </trkpt>
      <trkpt lat="46.57457" lon="5.74087">
        <ele>555.6</ele>
        <time>2022-07-29T16:38:17Z</time>
      </trkpt>
      <trkpt lat="46.5746" lon="5.74084">
        <ele>555.8</ele>
        <time>2022-07-29T16:38:18Z</time>
      </trkpt>
      <trkpt lat="46.57463" lon="5.74081">
        <ele>556</ele>
        <time>2022-07-29T16:38:19Z</time>
      </trkpt>
      <trkpt lat="46.57466" lon="5.74078">
        <ele>556</ele>
        <time>2022-07-29T16:38:20Z</time>
      </trkpt>
      <trkpt lat="46.57469" lon="5.74074">
        <ele>556.4</ele>
        <time>2022-07-29T16:38:21Z</time>
      </trkpt>
      <trkpt lat="46.57471" lon="5.74071">
        <ele>556.6</ele>
        <time>2022-07-29T16:38:22Z</time>
      </trkpt>
      <trkpt lat="46.57474" lon="5.74067">
        <ele>556.6</ele>
        <time>2022-07-29T16:38:23Z</time>
      </trkpt>
      <trkpt lat="46.57477" lon="5.74063">
        <ele>557</ele>
        <time>2022-07-29T16:38:24Z</time>
      </trkpt>
      <trkpt lat="46.5748" lon="5.7406">
        <ele>557.2</ele>
        <time>2022-07-29T16:38:25Z</time>
      </trkpt>
      <trkpt lat="46.57483" lon="5.74057">
        <ele>557.2</ele>
        <time>2022-07-29T16:38:26Z</time>
      </trkpt>
      <trkpt lat="46.57486" lon="5.74053">
        <ele>557.6</ele>
        <time>2022-07-29T16:38:27Z</time>
      </trkpt>
      <trkpt lat="46.57489" lon="5.7405">
        <ele>557.6</ele>
        <time>2022-07-29T16:38:28Z</time>
      </trkpt>
      <trkpt lat="46.57492" lon="5.74046">
        <ele>557.8</ele>
        <time>2022-07-29T16:38:29Z</time>
      </trkpt>
      <trkpt lat="46.57495" lon="5.74043">
        <ele>557.8</ele>
        <time>2022-07-29T16:38:30Z</time>
      </trkpt>
      <trkpt lat="46.57498" lon="5.74039">
        <ele>558</ele>
        <time>2022-07-29T16:38:31Z</time>
      </trkpt>
      <trkpt lat="46.57501" lon="5.74036">
        <ele>558</ele>
        <time>2022-07-29T16:38:32Z</time>
      </trkpt>
      <trkpt lat="46.57504" lon="5.74032">
        <ele>558.2</ele>
        <time>2022-07-29T16:38:33Z</time>
      </trkpt>
      <trkpt lat="46.57507" lon="5.74028">
        <ele>558.2</ele>
        <time>2022-07-29T16:38:34Z</time>
      </trkpt>
      <trkpt lat="46.57511" lon="5.74025">
        <ele>558.6</ele>
        <time>2022-07-29T16:38:35Z</time>
      </trkpt>
      <trkpt lat="46.57514" lon="5.74022">
        <ele>558.6</ele>
        <time>2022-07-29T16:38:36Z</time>
      </trkpt>
      <trkpt lat="46.57518" lon="5.7402">
        <ele>558.8</ele>
        <time>2022-07-29T16:38:37Z</time>
      </trkpt>
      <trkpt lat="46.57521" lon="5.74018">
        <ele>559</ele>
        <time>2022-07-29T16:38:38Z</time>
      </trkpt>
      <trkpt lat="46.57525" lon="5.74018">
        <ele>559</ele>
        <time>2022-07-29T16:38:39Z</time>
      </trkpt>
      <trkpt lat="46.57529" lon="5.74018">
        <ele>559.4</ele>
        <time>2022-07-29T16:38:40Z</time>
      </trkpt>
      <trkpt lat="46.57532" lon="5.74019">
        <ele>559.6</ele>
        <time>2022-07-29T16:38:41Z</time>
      </trkpt>
      <trkpt lat="46.57535" lon="5.74019">
        <ele>559.6</ele>
        <time>2022-07-29T16:38:42Z</time>
      </trkpt>
      <trkpt lat="46.57539" lon="5.74019">
        <ele>559.8</ele>
        <time>2022-07-29T16:38:43Z</time>
      </trkpt>
      <trkpt lat="46.57542" lon="5.74019">
        <ele>559.8</ele>
        <time>2022-07-29T16:38:44Z</time>
      </trkpt>
      <trkpt lat="46.57546" lon="5.74019">
        <ele>559.8</ele>
        <time>2022-07-29T16:38:45Z</time>
      </trkpt>
      <trkpt lat="46.5755" lon="5.74019">
        <ele>560.2</ele>
        <time>2022-07-29T16:38:46Z</time>
      </trkpt>
      <trkpt lat="46.57554" lon="5.74019">
        <ele>560.2</ele>
        <time>2022-07-29T16:38:47Z</time>
      </trkpt>
      <trkpt lat="46.57558" lon="5.7402">
        <ele>560.2</ele>
        <time>2022-07-29T16:38:48Z</time>
      </trkpt>
      <trkpt lat="46.57562" lon="5.74022">
        <ele>560.2</ele>
        <time>2022-07-29T16:38:49Z</time>
      </trkpt>
      <trkpt lat="46.57566" lon="5.74024">
        <ele>560.4</ele>
        <time>2022-07-29T16:38:50Z</time>
      </trkpt>
      <trkpt lat="46.57569" lon="5.74027">
        <ele>560.4</ele>
        <time>2022-07-29T16:38:51Z</time>
      </trkpt>
      <trkpt lat="46.57573" lon="5.74029">
        <ele>560.6</ele>
        <time>2022-07-29T16:38:52Z</time>
      </trkpt>
      <trkpt lat="46.57576" lon="5.74032">
        <ele>560.6</ele>
        <time>2022-07-29T16:38:53Z</time>
      </trkpt>
      <trkpt lat="46.5758" lon="5.74034">
        <ele>560.8</ele>
        <time>2022-07-29T16:38:54Z</time>
      </trkpt>
      <trkpt lat="46.57583" lon="5.74036">
        <ele>560.8</ele>
        <time>2022-07-29T16:38:55Z</time>
      </trkpt>
      <trkpt lat="46.57587" lon="5.74038">
        <ele>560.8</ele>
        <time>2022-07-29T16:38:56Z</time>
      </trkpt>
      <trkpt lat="46.57591" lon="5.7404">
        <ele>561.2</ele>
        <time>2022-07-29T16:38:57Z</time>
      </trkpt>
      <trkpt lat="46.57594" lon="5.74042">
        <ele>561.2</ele>
        <time>2022-07-29T16:38:58Z</time>
      </trkpt>
      <trkpt lat="46.57598" lon="5.74044">
        <ele>561.2</ele>
        <time>2022-07-29T16:38:59Z</time>
      </trkpt>
      <trkpt lat="46.57601" lon="5.74047">
        <ele>561.4</ele>
        <time>2022-07-29T16:39:00Z</time>
      </trkpt>
      <trkpt lat="46.57604" lon="5.74051">
        <ele>561.4</ele>
        <time>2022-07-29T16:39:01Z</time>
      </trkpt>
      <trkpt lat="46.57606" lon="5.74055">
        <ele>561.4</ele>
        <time>2022-07-29T16:39:02Z</time>
      </trkpt>
      <trkpt lat="46.57608" lon="5.74059">
        <ele>561.4</ele>
        <time>2022-07-29T16:39:03Z</time>
      </trkpt>
      <trkpt lat="46.57609" lon="5.74064">
        <ele>561.4</ele>
        <time>2022-07-29T16:39:04Z</time>
      </trkpt>
      <trkpt lat="46.5761" lon="5.74069">
        <ele>561.4</ele>
        <time>2022-07-29T16:39:05Z</time>
      </trkpt>
      <trkpt lat="46.57609" lon="5.74075">
        <ele>561.4</ele>
        <time>2022-07-29T16:39:06Z</time>
      </trkpt>
      <trkpt lat="46.57609" lon="5.7408">
        <ele>561.4</ele>
        <time>2022-07-29T16:39:07Z</time>
      </trkpt>
      <trkpt lat="46.57607" lon="5.74087">
        <ele>561</ele>
        <time>2022-07-29T16:39:08Z</time>
      </trkpt>
      <trkpt lat="46.57605" lon="5.74094">
        <ele>560.6</ele>
        <time>2022-07-29T16:39:09Z</time>
      </trkpt>
      <trkpt lat="46.57603" lon="5.74101">
        <ele>560.4</ele>
        <time>2022-07-29T16:39:10Z</time>
      </trkpt>
      <trkpt lat="46.57601" lon="5.74109">
        <ele>559.8</ele>
        <time>2022-07-29T16:39:11Z</time>
      </trkpt>
      <trkpt lat="46.576" lon="5.74117">
        <ele>559.2</ele>
        <time>2022-07-29T16:39:12Z</time>
      </trkpt>
      <trkpt lat="46.57599" lon="5.74124">
        <ele>558.6</ele>
        <time>2022-07-29T16:39:13Z</time>
      </trkpt>
      <trkpt lat="46.57599" lon="5.74131">
        <ele>558</ele>
        <time>2022-07-29T16:39:14Z</time>
      </trkpt>
      <trkpt lat="46.576" lon="5.74138">
        <ele>557.4</ele>
        <time>2022-07-29T16:39:15Z</time>
      </trkpt>
      <trkpt lat="46.57601" lon="5.74146">
        <ele>556.6</ele>
        <time>2022-07-29T16:39:16Z</time>
      </trkpt>
      <trkpt lat="46.57603" lon="5.74156">
        <ele>555.8</ele>
        <time>2022-07-29T16:39:17Z</time>
      </trkpt>
      <trkpt lat="46.57604" lon="5.74166">
        <ele>555</ele>
        <time>2022-07-29T16:39:18Z</time>
      </trkpt>
      <trkpt lat="46.57606" lon="5.74176">
        <ele>554</ele>
        <time>2022-07-29T16:39:19Z</time>
      </trkpt>
      <trkpt lat="46.57608" lon="5.74187">
        <ele>552.8</ele>
        <time>2022-07-29T16:39:20Z</time>
      </trkpt>
      <trkpt lat="46.57609" lon="5.74198">
        <ele>551.8</ele>
        <time>2022-07-29T16:39:21Z</time>
      </trkpt>
      <trkpt lat="46.57611" lon="5.7421">
        <ele>551</ele>
        <time>2022-07-29T16:39:22Z</time>
      </trkpt>
      <trkpt lat="46.57612" lon="5.74222">
        <ele>550</ele>
        <time>2022-07-29T16:39:23Z</time>
      </trkpt>
      <trkpt lat="46.57612" lon="5.74236">
        <ele>549</ele>
        <time>2022-07-29T16:39:24Z</time>
      </trkpt>
      <trkpt lat="46.57611" lon="5.74249">
        <ele>548</ele>
        <time>2022-07-29T16:39:25Z</time>
      </trkpt>
      <trkpt lat="46.5761" lon="5.74261">
        <ele>547</ele>
        <time>2022-07-29T16:39:26Z</time>
      </trkpt>
      <trkpt lat="46.57609" lon="5.74274">
        <ele>546</ele>
        <time>2022-07-29T16:39:27Z</time>
      </trkpt>
      <trkpt lat="46.57607" lon="5.74287">
        <ele>545</ele>
        <time>2022-07-29T16:39:28Z</time>
      </trkpt>
      <trkpt lat="46.57605" lon="5.74302">
        <ele>544.2</ele>
        <time>2022-07-29T16:39:29Z</time>
      </trkpt>
      <trkpt lat="46.57604" lon="5.74316">
        <ele>543.4</ele>
        <time>2022-07-29T16:39:30Z</time>
      </trkpt>
      <trkpt lat="46.57601" lon="5.74328">
        <ele>542.8</ele>
        <time>2022-07-29T16:39:31Z</time>
      </trkpt>
      <trkpt lat="46.57598" lon="5.74339">
        <ele>542.2</ele>
        <time>2022-07-29T16:39:32Z</time>
      </trkpt>
      <trkpt lat="46.57597" lon="5.74349">
        <ele>541.6</ele>
        <time>2022-07-29T16:39:33Z</time>
      </trkpt>
      <trkpt lat="46.57597" lon="5.74357">
        <ele>541.2</ele>
        <time>2022-07-29T16:39:34Z</time>
      </trkpt>
      <trkpt lat="46.576" lon="5.74363">
        <ele>541</ele>
        <time>2022-07-29T16:39:35Z</time>
      </trkpt>
      <trkpt lat="46.57604" lon="5.74367">
        <ele>540.6</ele>
        <time>2022-07-29T16:39:36Z</time>
      </trkpt>
      <trkpt lat="46.57609" lon="5.7437">
        <ele>540.6</ele>
        <time>2022-07-29T16:39:37Z</time>
      </trkpt>
      <trkpt lat="46.57615" lon="5.74372">
        <ele>540.2</ele>
        <time>2022-07-29T16:39:38Z</time>
      </trkpt>
      <trkpt lat="46.57621" lon="5.74374">
        <ele>539.8</ele>
        <time>2022-07-29T16:39:39Z</time>
      </trkpt>
      <trkpt lat="46.57628" lon="5.74376">
        <ele>539.6</ele>
        <time>2022-07-29T16:39:40Z</time>
      </trkpt>
      <trkpt lat="46.57634" lon="5.74379">
        <ele>539.4</ele>
        <time>2022-07-29T16:39:41Z</time>
      </trkpt>
      <trkpt lat="46.57641" lon="5.74383">
        <ele>539.4</ele>
        <time>2022-07-29T16:39:42Z</time>
      </trkpt>
      <trkpt lat="46.57647" lon="5.74386">
        <ele>539.2</ele>
        <time>2022-07-29T16:39:43Z</time>
      </trkpt>
      <trkpt lat="46.57653" lon="5.74389">
        <ele>539.2</ele>
        <time>2022-07-29T16:39:44Z</time>
      </trkpt>
      <trkpt lat="46.5766" lon="5.74391">
        <ele>538.8</ele>
        <time>2022-07-29T16:39:45Z</time>
      </trkpt>
      <trkpt lat="46.57666" lon="5.74394">
        <ele>538.8</ele>
        <time>2022-07-29T16:39:46Z</time>
      </trkpt>
      <trkpt lat="46.57673" lon="5.74396">
        <ele>538.8</ele>
        <time>2022-07-29T16:39:47Z</time>
      </trkpt>
      <trkpt lat="46.57679" lon="5.74399">
        <ele>538.8</ele>
        <time>2022-07-29T16:39:48Z</time>
      </trkpt>
      <trkpt lat="46.57685" lon="5.74401">
        <ele>538.8</ele>
        <time>2022-07-29T16:39:49Z</time>
      </trkpt>
      <trkpt lat="46.57691" lon="5.74404">
        <ele>538.8</ele>
        <time>2022-07-29T16:39:50Z</time>
      </trkpt>
      <trkpt lat="46.57696" lon="5.74407">
        <ele>538.8</ele>
        <time>2022-07-29T16:39:51Z</time>
      </trkpt>
      <trkpt lat="46.57702" lon="5.74409">
        <ele>538.8</ele>
        <time>2022-07-29T16:39:52Z</time>
      </trkpt>
    </trkseg>
  </trk>
</gpx>